{
  "fields": [{"id":"_id","type":"int"},{"id":"Fecha & Hora","type":"text"},{"id":"PM10 (ug/m3)","type":"text"},{"id":"SO2  (ug/m3)","type":"text"},{"id":"Vel Viento  (m/s)","type":"text"},{"id":"Dir Viento (Grados)","type":"text"},{"id":"Temperatura (C°)","type":"text"},{"id":"Humedad (%)","type":"text"}],
  "records": [
    [1,"06/27/2014 16:00","28,2","ND","ND","ND","ND","ND"],
    [2,"06/27/2014 17:00","15,1","ND","ND","ND","ND","ND"],
    [3,"06/27/2014 18:00","16,7","ND","ND","ND","ND","ND"],
    [4,"06/27/2014 19:00","14,5","ND","ND","ND","ND","ND"],
    [5,"06/27/2014 20:00","14,6","ND","ND","ND","ND","ND"],
    [6,"06/27/2014 21:00","11,2","ND","ND","ND","ND","ND"],
    [7,"06/27/2014 22:00","12,2","ND","ND","ND","ND","ND"],
    [8,"06/27/2014 23:00","50,9","ND","ND","ND","ND","ND"],
    [9,"06/28/2014 00:00","68","ND","ND","ND","ND","ND"],
    [10,"06/28/2014 01:00","37,3","ND","ND","ND","ND","ND"],
    [11,"06/28/2014 02:00","31,2","ND","ND","ND","ND","ND"],
    [12,"06/28/2014 03:00","29,3","ND","ND","ND","ND","ND"],
    [13,"06/28/2014 04:00","27,5","ND","ND","ND","ND","ND"],
    [14,"06/28/2014 05:00","34","ND","ND","ND","ND","ND"],
    [15,"06/28/2014 06:00","29,6","ND","ND","ND","ND","ND"],
    [16,"06/28/2014 07:00","30,6","ND","ND","ND","ND","ND"],
    [17,"06/28/2014 08:00","37,2","ND","ND","ND","ND","ND"],
    [18,"06/28/2014 09:00","45,2","ND","ND","ND","ND","ND"],
    [19,"06/28/2014 10:00","44,2","ND","ND","ND","ND","ND"],
    [20,"06/28/2014 11:00","39,3","ND","ND","ND","ND","ND"],
    [21,"06/28/2014 12:00","36,8","ND","ND","ND","ND","ND"],
    [22,"06/28/2014 13:00","37,2","ND","ND","ND","ND","ND"],
    [23,"06/28/2014 14:00","37,2","ND","ND","ND","ND","ND"],
    [24,"06/28/2014 15:00","45,7","ND","ND","ND","ND","ND"],
    [25,"06/28/2014 16:00","52,3","ND","ND","ND","ND","ND"],
    [26,"06/28/2014 17:00","52,7","ND","ND","ND","ND","ND"],
    [27,"06/28/2014 18:00","51,6","ND","ND","ND","ND","ND"],
    [28,"06/28/2014 19:00","51,6","ND","ND","ND","ND","ND"],
    [29,"06/28/2014 20:00","34,8","ND","ND","ND","ND","ND"],
    [30,"06/28/2014 21:00","53,9","ND","ND","ND","ND","ND"],
    [31,"06/28/2014 22:00","42,7","ND","ND","ND","ND","ND"],
    [32,"06/28/2014 23:00","57,8","ND","ND","ND","ND","ND"],
    [33,"06/29/2014 00:00","36,5","ND","ND","ND","ND","ND"],
    [34,"06/29/2014 01:00","68,3","ND","ND","ND","ND","ND"],
    [35,"06/29/2014 02:00","70,3","ND","ND","ND","ND","ND"],
    [36,"06/29/2014 03:00","68,5","ND","ND","ND","ND","ND"],
    [37,"06/29/2014 04:00","46,5","ND","ND","ND","ND","ND"],
    [38,"06/29/2014 05:00","57,2","ND","ND","ND","ND","ND"],
    [39,"06/29/2014 06:00","47,5","ND","ND","ND","ND","ND"],
    [40,"06/29/2014 07:00","53,8","ND","ND","ND","ND","ND"],
    [41,"06/29/2014 08:00","61,4","ND","ND","ND","ND","ND"],
    [42,"06/29/2014 09:00","69,1","ND","ND","ND","ND","ND"],
    [43,"06/29/2014 10:00","70,3","ND","ND","ND","ND","ND"],
    [44,"06/29/2014 11:00","56,6","ND","ND","ND","ND","ND"],
    [45,"06/29/2014 12:00","30,6","ND","ND","ND","ND","ND"],
    [46,"06/29/2014 13:00","45","ND","ND","ND","ND","ND"],
    [47,"06/29/2014 14:00","59,2","ND","ND","ND","ND","ND"],
    [48,"06/29/2014 15:00","51,2","ND","ND","ND","ND","ND"],
    [49,"06/29/2014 16:00","25,6","ND","ND","ND","ND","ND"],
    [50,"06/29/2014 17:00","22,7","ND","ND","ND","ND","ND"],
    [51,"06/29/2014 18:00","22,1","ND","ND","ND","ND","ND"],
    [52,"06/29/2014 19:00","20,7","ND","ND","ND","ND","ND"],
    [53,"06/29/2014 20:00","15","ND","ND","ND","ND","ND"],
    [54,"06/29/2014 21:00","12,1","ND","ND","ND","ND","ND"],
    [55,"06/29/2014 22:00","12","ND","ND","ND","ND","ND"],
    [56,"06/29/2014 23:00","23,3","ND","ND","ND","ND","ND"],
    [57,"06/30/2014 00:00","35,4","ND","ND","ND","ND","ND"],
    [58,"06/30/2014 01:00","36,8","ND","ND","ND","ND","ND"],
    [59,"06/30/2014 02:00","38,7","ND","ND","ND","ND","ND"],
    [60,"06/30/2014 03:00","16,7","ND","ND","ND","ND","ND"],
    [61,"06/30/2014 04:00","11","ND","ND","ND","ND","ND"],
    [62,"06/30/2014 05:00","25,4","ND","ND","ND","ND","ND"],
    [63,"06/30/2014 06:00","12,8","ND","ND","ND","ND","ND"],
    [64,"06/30/2014 07:00","24,4","ND","ND","ND","ND","ND"],
    [65,"06/30/2014 08:00","19","ND","ND","ND","ND","ND"],
    [66,"06/30/2014 09:00","32,3","ND","ND","ND","ND","ND"],
    [67,"06/30/2014 10:00","32,6","ND","ND","ND","ND","ND"],
    [68,"06/30/2014 11:00","27,3","ND","ND","ND","ND","ND"],
    [69,"06/30/2014 12:00","23,7","ND","ND","ND","ND","ND"],
    [70,"06/30/2014 13:00","27,7","ND","ND","ND","ND","ND"],
    [71,"06/30/2014 14:00","23,9","ND","ND","ND","ND","ND"],
    [72,"06/30/2014 15:00","30,5","ND","ND","ND","ND","ND"],
    [73,"06/30/2014 16:00","26,5","ND","ND","ND","ND","ND"],
    [74,"06/30/2014 17:00","23,8","ND","ND","ND","ND","ND"],
    [75,"06/30/2014 18:00","17,4","ND","ND","ND","ND","ND"],
    [76,"06/30/2014 19:00","15,4","ND","ND","ND","ND","ND"],
    [77,"06/30/2014 20:00","13,5","ND","ND","ND","ND","ND"],
    [78,"06/30/2014 21:00","13,5","ND","ND","ND","ND","ND"],
    [79,"06/30/2014 22:00","8,8","ND","ND","ND","ND","ND"],
    [80,"06/30/2014 23:00","8,7","ND","ND","ND","ND","ND"],
    [81,"41646","37,8","ND","ND","ND","ND","ND"],
    [82,"41646,04167","31,5","ND","ND","ND","ND","ND"],
    [83,"41646,08333","37,6","ND","ND","ND","ND","ND"],
    [84,"41646,125","21,5","ND","ND","ND","ND","ND"],
    [85,"41646,16667","20,4","ND","ND","ND","ND","ND"],
    [86,"41646,20833","25,2","ND","ND","ND","ND","ND"],
    [87,"41646,25","24,9","ND","ND","ND","ND","ND"],
    [88,"41646,29167","35,1","ND","ND","ND","ND","ND"],
    [89,"41646,33333","47,6","ND","ND","ND","ND","ND"],
    [90,"41646,375","61,4","ND","ND","ND","ND","ND"],
    [91,"41646,41667","65,6","ND","ND","ND","ND","ND"],
    [92,"41646,45833","49,8","ND","ND","ND","ND","ND"],
    [93,"41646,5","45,2","ND","ND","ND","ND","ND"],
    [94,"41646,54167","48,2","ND","ND","ND","ND","ND"],
    [95,"41646,58333","49,1","ND","ND","ND","ND","ND"],
    [96,"41646,625","44,1","ND","ND","ND","ND","ND"],
    [97,"41646,66667","55,9","ND","ND","ND","ND","ND"],
    [98,"41646,70833","26,9","ND","ND","ND","ND","ND"],
    [99,"41646,75","17,4","ND","ND","ND","ND","ND"],
    [100,"41646,79167","13,2","ND","ND","ND","ND","ND"],
    [101,"41646,83333","8,3","ND","ND","ND","ND","ND"],
    [102,"41646,875","8,9","ND","ND","ND","ND","ND"],
    [103,"41646,91667","11,6","ND","ND","ND","ND","ND"],
    [104,"41646,95833","14,4","ND","ND","ND","ND","ND"],
    [105,"41677","33,9","ND","ND","ND","ND","ND"],
    [106,"41677,04167","37,6","ND","ND","ND","ND","ND"],
    [107,"41677,08333","43","ND","ND","ND","ND","ND"],
    [108,"41677,125","15,5","ND","ND","ND","ND","ND"],
    [109,"41677,16667","15,2","ND","ND","ND","ND","ND"],
    [110,"41677,20833","17,5","ND","ND","ND","ND","ND"],
    [111,"41677,25","33","ND","ND","ND","ND","ND"],
    [112,"41677,29167","26,3","ND","ND","ND","ND","ND"],
    [113,"41677,33333","21,8","ND","ND","ND","ND","ND"],
    [114,"41677,375","28,4","ND","ND","ND","ND","ND"],
    [115,"41677,41667","27,1","ND","ND","ND","ND","ND"],
    [116,"41677,45833","22,1","ND","ND","ND","ND","ND"],
    [117,"41677,5","23","ND","ND","ND","ND","ND"],
    [118,"41677,54167","23,7","ND","ND","ND","ND","ND"],
    [119,"41677,58333","23,7","ND","ND","ND","ND","ND"],
    [120,"41677,625","18,8","ND","ND","ND","ND","ND"],
    [121,"41677,66667","21","ND","ND","ND","ND","ND"],
    [122,"41677,70833","24","ND","ND","ND","ND","ND"],
    [123,"41677,75","28,9","ND","ND","ND","ND","ND"],
    [124,"41677,79167","37,6","ND","ND","ND","ND","ND"],
    [125,"41677,83333","10,4","ND","ND","ND","ND","ND"],
    [126,"41677,875","20,5","ND","ND","ND","ND","ND"],
    [127,"41677,91667","32,1","ND","ND","ND","ND","ND"],
    [128,"41677,95833","34,7","ND","ND","ND","ND","ND"],
    [129,"41705","23","ND","ND","ND","ND","ND"],
    [130,"41705,04167","25,9","ND","ND","ND","ND","ND"],
    [131,"41705,08333","19,4","ND","ND","ND","ND","ND"],
    [132,"41705,125","19,8","ND","ND","ND","ND","ND"],
    [133,"41705,16667","19,1","ND","ND","ND","ND","ND"],
    [134,"41705,20833","20,2","ND","ND","ND","ND","ND"],
    [135,"41705,25","24,4","ND","ND","ND","ND","ND"],
    [136,"41705,29167","32,3","ND","ND","ND","ND","ND"],
    [137,"41705,33333","45,7","ND","ND","ND","ND","ND"],
    [138,"41705,375","52,8","ND","ND","ND","ND","ND"],
    [139,"41705,41667","100,2","ND","ND","ND","ND","ND"],
    [140,"41705,45833","100,2","ND","ND","ND","ND","ND"],
    [141,"41705,5","70,5","ND","ND","ND","ND","ND"],
    [142,"41705,54167","55,3","ND","ND","ND","ND","ND"],
    [143,"41705,58333","54,9","ND","ND","ND","ND","ND"],
    [144,"41705,625","58,4","ND","ND","ND","ND","ND"],
    [145,"41705,66667","33","ND","ND","ND","ND","ND"],
    [146,"41705,70833","15,2","ND","ND","ND","ND","ND"],
    [147,"41705,75","16,3","ND","ND","ND","ND","ND"],
    [148,"41705,79167","11,1","ND","ND","ND","ND","ND"],
    [149,"41705,83333","13,4","ND","ND","ND","ND","ND"],
    [150,"41705,875","6,7","ND","ND","ND","ND","ND"],
    [151,"41705,91667","20,1","ND","ND","ND","ND","ND"],
    [152,"41705,95833","34,3","ND","ND","ND","ND","ND"],
    [153,"41736","38","ND","ND","ND","ND","ND"],
    [154,"41736,04167","25,5","ND","ND","ND","ND","ND"],
    [155,"41736,08333","21,6","ND","ND","ND","ND","ND"],
    [156,"41736,125","32,6","ND","ND","ND","ND","ND"],
    [157,"41736,16667","30,4","ND","ND","ND","ND","ND"],
    [158,"41736,20833","25,3","ND","ND","ND","ND","ND"],
    [159,"41736,25","28,7","ND","ND","ND","ND","ND"],
    [160,"41736,29167","37,5","ND","ND","ND","ND","ND"],
    [161,"41736,33333","50,6","ND","ND","ND","ND","ND"],
    [162,"41736,375","70,1","ND","ND","ND","ND","ND"],
    [163,"41736,41667","68,7","ND","ND","ND","ND","ND"],
    [164,"41736,45833","46,2","ND","ND","ND","ND","ND"],
    [165,"41736,5","35,5","ND","ND","ND","ND","ND"],
    [166,"41736,54167","35,6","ND","ND","ND","ND","ND"],
    [167,"41736,58333","32,1","ND","ND","ND","ND","ND"],
    [168,"41736,625","32,7","ND","ND","ND","ND","ND"],
    [169,"41736,66667","30","ND","ND","ND","ND","ND"],
    [170,"41736,70833","17,2","ND","ND","ND","ND","ND"],
    [171,"41736,75","6,2","ND","ND","ND","ND","ND"],
    [172,"41736,79167","11,3","ND","ND","ND","ND","ND"],
    [173,"41736,83333","15,2","ND","ND","ND","ND","ND"],
    [174,"41736,875","12","ND","ND","ND","ND","ND"],
    [175,"41736,91667","29,6","ND","ND","ND","ND","ND"],
    [176,"41736,95833","34","ND","ND","ND","ND","ND"],
    [177,"41766","38,6","ND","ND","ND","ND","ND"],
    [178,"41766,04167","27,1","ND","ND","ND","ND","ND"],
    [179,"41766,08333","24,3","ND","ND","ND","ND","ND"],
    [180,"41766,125","24,3","ND","ND","ND","ND","ND"],
    [181,"41766,16667","23,7","ND","ND","ND","ND","ND"],
    [182,"41766,20833","23,7","ND","ND","ND","ND","ND"],
    [183,"41766,25","26,5","ND","ND","ND","ND","ND"],
    [184,"41766,29167","33,6","ND","ND","ND","ND","ND"],
    [185,"41766,33333","40,1","ND","ND","ND","ND","ND"],
    [186,"41766,375","52,9","ND","ND","ND","ND","ND"],
    [187,"41766,41667","44,8","ND","ND","ND","ND","ND"],
    [188,"41766,45833","33","ND","ND","ND","ND","ND"],
    [189,"41766,5","36","ND","ND","ND","ND","ND"],
    [190,"41766,54167","33,2","ND","ND","ND","ND","ND"],
    [191,"41766,58333","41,1","ND","ND","ND","ND","ND"],
    [192,"41766,625","64,3","ND","ND","ND","ND","ND"],
    [193,"41766,66667","62,9","ND","ND","ND","ND","ND"],
    [194,"41766,70833","13,5","ND","ND","ND","ND","ND"],
    [195,"41766,75","7,1","ND","ND","ND","ND","ND"],
    [196,"41766,79167","30,1","ND","ND","ND","ND","ND"],
    [197,"41766,83333","9,2","ND","ND","ND","ND","ND"],
    [198,"41766,875","9,2","ND","ND","ND","ND","ND"],
    [199,"41766,91667","21,2","ND","ND","ND","ND","ND"],
    [200,"41766,95833","35,9","ND","ND","ND","ND","ND"],
    [201,"41797","39,1","ND","ND","ND","ND","ND"],
    [202,"41797,04167","40","ND","ND","ND","ND","ND"],
    [203,"41797,08333","35,6","ND","ND","ND","ND","ND"],
    [204,"41797,125","34,2","ND","ND","ND","ND","ND"],
    [205,"41797,16667","43,6","ND","ND","ND","ND","ND"],
    [206,"41797,20833","33","ND","ND","ND","ND","ND"],
    [207,"41797,25","37,3","ND","ND","ND","ND","ND"],
    [208,"41797,29167","47,6","ND","ND","ND","ND","ND"],
    [209,"41797,33333","48,3","ND","ND","ND","ND","ND"],
    [210,"41797,375","43","ND","ND","ND","ND","ND"],
    [211,"41797,41667","46,3","ND","ND","ND","ND","ND"],
    [212,"41797,45833","35,8","ND","ND","ND","ND","ND"],
    [213,"41797,5","30,9","ND","ND","ND","ND","ND"],
    [214,"41797,54167","21,9","ND","ND","ND","ND","ND"],
    [215,"41797,58333","23,6","ND","ND","ND","ND","ND"],
    [216,"41797,625","15,9","ND","ND","ND","ND","ND"],
    [217,"41797,66667","19,4","ND","ND","ND","ND","ND"],
    [218,"41797,70833","9,3","ND","ND","ND","ND","ND"],
    [219,"41797,75","9,3","ND","ND","ND","ND","ND"],
    [220,"41797,79167","10,1","ND","ND","ND","ND","ND"],
    [221,"41797,83333","11,3","ND","ND","ND","ND","ND"],
    [222,"41797,875","20,8","ND","ND","ND","ND","ND"],
    [223,"41797,91667","34,1","ND","ND","ND","ND","ND"],
    [224,"41797,95833","31,7","ND","ND","ND","ND","ND"],
    [225,"41827","55,9","ND","ND","ND","ND","ND"],
    [226,"41827,04167","33,5","ND","ND","ND","ND","ND"],
    [227,"41827,08333","28,8","ND","ND","ND","ND","ND"],
    [228,"41827,125","26","ND","ND","ND","ND","ND"],
    [229,"41827,16667","22","ND","ND","ND","ND","ND"],
    [230,"41827,20833","21,7","ND","ND","ND","ND","ND"],
    [231,"41827,25","23,4","ND","ND","ND","ND","ND"],
    [232,"41827,29167","34,6","ND","ND","ND","ND","ND"],
    [233,"41827,33333","49,5","ND","ND","ND","ND","ND"],
    [234,"41827,375","53,9","ND","ND","ND","ND","ND"],
    [235,"41827,41667","46,1","ND","ND","ND","ND","ND"],
    [236,"41827,45833","29,8","ND","ND","ND","ND","ND"],
    [237,"41827,5","31,7","ND","ND","ND","ND","ND"],
    [238,"41827,54167","40,2","ND","ND","ND","ND","ND"],
    [239,"41827,58333","51,3","ND","ND","ND","ND","ND"],
    [240,"41827,625","50,1","ND","ND","ND","ND","ND"],
    [241,"41827,66667","54","ND","ND","ND","ND","ND"],
    [242,"41827,70833","28,9","ND","ND","ND","ND","ND"],
    [243,"41827,75","21,8","ND","ND","ND","ND","ND"],
    [244,"41827,79167","19,4","ND","ND","ND","ND","ND"],
    [245,"41827,83333","17,9","ND","ND","ND","ND","ND"],
    [246,"41827,875","19,2","ND","ND","ND","ND","ND"],
    [247,"41827,91667","20,5","ND","ND","ND","ND","ND"],
    [248,"41827,95833","45,5","ND","ND","ND","ND","ND"],
    [249,"41858","56,5","ND","ND","ND","ND","ND"],
    [250,"41858,04167","38","ND","ND","ND","ND","ND"],
    [251,"41858,08333","33,2","ND","ND","ND","ND","ND"],
    [252,"41858,125","33,3","ND","ND","ND","ND","ND"],
    [253,"41858,16667","35,5","ND","ND","ND","ND","ND"],
    [254,"41858,20833","40,8","ND","ND","ND","ND","ND"],
    [255,"41858,25","37","ND","ND","ND","ND","ND"],
    [256,"41858,29167","41,4","ND","ND","ND","ND","ND"],
    [257,"41858,33333","48,7","ND","ND","ND","ND","ND"],
    [258,"41858,375","64,4","ND","ND","ND","ND","ND"],
    [259,"41858,41667","55,2","ND","ND","ND","ND","ND"],
    [260,"41858,45833","37,7","ND","ND","ND","ND","ND"],
    [261,"41858,5","37,7","ND","ND","ND","ND","ND"],
    [262,"41858,54167","30,6","ND","ND","ND","ND","ND"],
    [263,"41858,58333","38","ND","ND","ND","ND","ND"],
    [264,"41858,625","33,7","ND","ND","ND","ND","ND"],
    [265,"41858,66667","27,2","ND","ND","ND","ND","ND"],
    [266,"41858,70833","47,1","ND","ND","ND","ND","ND"],
    [267,"41858,75","28,5","ND","ND","ND","ND","ND"],
    [268,"41858,79167","22,8","ND","ND","ND","ND","ND"],
    [269,"41858,83333","21,1","ND","ND","ND","ND","ND"],
    [270,"41858,875","15,5","ND","ND","ND","ND","ND"],
    [271,"41858,91667","13,9","ND","ND","ND","ND","ND"],
    [272,"41858,95833","28,2","ND","ND","ND","ND","ND"],
    [273,"41889","63,7","ND","ND","ND","ND","ND"],
    [274,"41889,04167","37,1","ND","ND","ND","ND","ND"],
    [275,"41889,08333","31,7","ND","ND","ND","ND","ND"],
    [276,"41889,125","30,6","ND","ND","ND","ND","ND"],
    [277,"41889,16667","40,7","ND","ND","ND","ND","ND"],
    [278,"41889,20833","43,9","ND","ND","ND","ND","ND"],
    [279,"41889,25","30","ND","ND","ND","ND","ND"],
    [280,"41889,29167","36,2","ND","ND","ND","ND","ND"],
    [281,"41889,33333","48,9","ND","ND","ND","ND","ND"],
    [282,"41889,375","67,2","ND","ND","ND","ND","ND"],
    [283,"41889,41667","91,1","ND","ND","ND","ND","ND"],
    [284,"41889,45833","57,5","ND","ND","ND","ND","ND"],
    [285,"41889,5","64,7","ND","ND","ND","ND","ND"],
    [286,"41889,54167","58,1","ND","ND","ND","ND","ND"],
    [287,"41889,58333","45,1","ND","ND","ND","ND","ND"],
    [288,"41889,625","33,4","ND","ND","ND","ND","ND"],
    [289,"41889,66667","44,9","ND","ND","ND","ND","ND"],
    [290,"41889,70833","27,6","ND","ND","ND","ND","ND"],
    [291,"41889,75","25,9","ND","ND","ND","ND","ND"],
    [292,"41889,79167","26,2","ND","ND","ND","ND","ND"],
    [293,"41889,83333","20,1","ND","ND","ND","ND","ND"],
    [294,"41889,875","19,7","ND","ND","ND","ND","ND"],
    [295,"41889,91667","46,2","ND","ND","ND","ND","ND"],
    [296,"41889,95833","56,5","ND","ND","ND","ND","ND"],
    [297,"41919","68,9","ND","ND","ND","ND","ND"],
    [298,"41919,04167","49,8","ND","ND","ND","ND","ND"],
    [299,"41919,08333","34,5","ND","ND","ND","ND","ND"],
    [300,"41919,125","34,4","ND","ND","ND","ND","ND"],
    [301,"41919,16667","25,6","ND","ND","ND","ND","ND"],
    [302,"41919,20833","30,7","ND","ND","ND","ND","ND"],
    [303,"41919,25","25","ND","ND","ND","ND","ND"],
    [304,"41919,29167","39,9","ND","ND","ND","ND","ND"],
    [305,"41919,33333","39,9","ND","ND","ND","ND","ND"],
    [306,"41919,375","92,3","ND","ND","ND","ND","ND"],
    [307,"41919,41667","120,9","ND","ND","ND","ND","ND"],
    [308,"41919,45833","69,9","ND","ND","ND","ND","ND"],
    [309,"41919,5","64,3","ND","ND","ND","ND","ND"],
    [310,"41919,54167","64,3","ND","ND","ND","ND","ND"],
    [311,"41919,58333","58,8","ND","ND","ND","ND","ND"],
    [312,"41919,625","48,2","ND","ND","ND","ND","ND"],
    [313,"41919,66667","41,7","ND","ND","ND","ND","ND"],
    [314,"41919,70833","66,6","ND","ND","ND","ND","ND"],
    [315,"41919,75","24,9","ND","ND","ND","ND","ND"],
    [316,"41919,79167","25,4","ND","ND","ND","ND","ND"],
    [317,"41919,83333","21,9","ND","ND","ND","ND","ND"],
    [318,"41919,875","31,5","ND","ND","ND","ND","ND"],
    [319,"41919,91667","49","ND","ND","ND","ND","ND"],
    [320,"41919,95833","80,3","ND","ND","ND","ND","ND"],
    [321,"41950","27,2","ND","ND","ND","ND","ND"],
    [322,"41950,04167","55,4","ND","ND","ND","ND","ND"],
    [323,"41950,08333","46,7","ND","ND","ND","ND","ND"],
    [324,"41950,125","39,6","ND","ND","ND","ND","ND"],
    [325,"41950,16667","27,9","ND","ND","ND","ND","ND"],
    [326,"41950,20833","28,2","ND","ND","ND","ND","ND"],
    [327,"41950,25","34,9","ND","ND","ND","ND","ND"],
    [328,"41950,29167","39,6","ND","ND","ND","ND","ND"],
    [329,"41950,33333","51,7","ND","ND","ND","ND","ND"],
    [330,"41950,375","59,4","ND","ND","ND","ND","ND"],
    [331,"41950,41667","53,4","ND","ND","ND","ND","ND"],
    [332,"41950,45833","61,5","ND","ND","ND","ND","ND"],
    [333,"41950,5","52,8","ND","ND","ND","ND","ND"],
    [334,"41950,54167","50,2","ND","ND","ND","ND","ND"],
    [335,"41950,58333","74,6","ND","ND","ND","ND","ND"],
    [336,"41950,625","68,9","ND","ND","ND","ND","ND"],
    [337,"41950,66667","41,3","ND","ND","ND","ND","ND"],
    [338,"41950,70833","59,2","ND","ND","ND","ND","ND"],
    [339,"41950,75","81,6","ND","ND","ND","ND","ND"],
    [340,"41950,79167","93","ND","ND","ND","ND","ND"],
    [341,"41950,83333","93","ND","ND","ND","ND","ND"],
    [342,"41950,875","47,4","ND","ND","ND","ND","ND"],
    [343,"41950,91667","73,8","ND","ND","ND","ND","ND"],
    [344,"41950,95833","39,5","ND","ND","ND","ND","ND"],
    [345,"41980","44,3","ND","ND","ND","ND","ND"],
    [346,"41980,04167","19,6","ND","ND","ND","ND","ND"],
    [347,"41980,08333","35,3","ND","ND","ND","ND","ND"],
    [348,"41980,125","28,1","ND","ND","ND","ND","ND"],
    [349,"41980,16667","24,5","ND","ND","ND","ND","ND"],
    [350,"41980,20833","19,9","ND","ND","ND","ND","ND"],
    [351,"41980,25","16,8","ND","ND","ND","ND","ND"],
    [352,"41980,29167","22,4","ND","ND","ND","ND","ND"],
    [353,"41980,33333","55,9","ND","ND","ND","ND","ND"],
    [354,"41980,375","56","ND","ND","ND","ND","ND"],
    [355,"41980,41667","64,6","ND","ND","ND","ND","ND"],
    [356,"41980,45833","37,7","ND","ND","ND","ND","ND"],
    [357,"41980,5","32,1","ND","ND","ND","ND","ND"],
    [358,"41980,54167","39,9","ND","ND","ND","ND","ND"],
    [359,"41980,58333","44","ND","ND","ND","ND","ND"],
    [360,"41980,625","44","ND","ND","ND","ND","ND"],
    [361,"41980,66667","30,4","ND","ND","ND","ND","ND"],
    [362,"41980,70833","34,3","ND","ND","ND","ND","ND"],
    [363,"41980,75","58,6","ND","ND","ND","ND","ND"],
    [364,"41980,79167","36,9","ND","ND","ND","ND","ND"],
    [365,"41980,83333","35,9","ND","ND","ND","ND","ND"],
    [366,"41980,875","42,3","ND","ND","ND","ND","ND"],
    [367,"41980,91667","40,9","ND","ND","ND","ND","ND"],
    [368,"41980,95833","42,1","ND","ND","ND","ND","ND"],
    [369,"07/13/2014 00:00","27,4","ND","ND","ND","ND","ND"],
    [370,"07/13/2014 01:00","50,9","ND","ND","ND","ND","ND"],
    [371,"07/13/2014 02:00","31,1","ND","ND","ND","ND","ND"],
    [372,"07/13/2014 03:00","21,5","ND","ND","ND","ND","ND"],
    [373,"07/13/2014 04:00","24,2","ND","ND","ND","ND","ND"],
    [374,"07/13/2014 05:00","23","ND","ND","ND","ND","ND"],
    [375,"07/13/2014 06:00","21","ND","ND","ND","ND","ND"],
    [376,"07/13/2014 07:00","19,3","ND","ND","ND","ND","ND"],
    [377,"07/13/2014 08:00","20,8","ND","ND","ND","ND","ND"],
    [378,"07/13/2014 09:00","37","ND","ND","ND","ND","ND"],
    [379,"07/13/2014 10:00","46,2","ND","ND","ND","ND","ND"],
    [380,"07/13/2014 11:00","19,8","ND","ND","ND","ND","ND"],
    [381,"07/13/2014 12:00","27,5","ND","ND","ND","ND","ND"],
    [382,"07/13/2014 13:00","30","ND","ND","ND","ND","ND"],
    [383,"07/13/2014 14:00","38,1","ND","ND","ND","ND","ND"],
    [384,"07/13/2014 15:00","32,8","ND","ND","ND","ND","ND"],
    [385,"07/13/2014 16:00","32,8","ND","ND","ND","ND","ND"],
    [386,"07/13/2014 17:00","31,5","ND","ND","ND","ND","ND"],
    [387,"07/13/2014 18:00","50,8","ND","ND","ND","ND","ND"],
    [388,"07/13/2014 19:00","45,6","ND","ND","ND","ND","ND"],
    [389,"07/13/2014 20:00","44,7","ND","ND","ND","ND","ND"],
    [390,"07/13/2014 21:00","43,8","ND","ND","ND","ND","ND"],
    [391,"07/13/2014 22:00","66,2","ND","ND","ND","ND","ND"],
    [392,"07/13/2014 23:00","36,2","ND","ND","ND","ND","ND"],
    [393,"07/14/2014 00:00","26","ND","ND","ND","ND","ND"],
    [394,"07/14/2014 01:00","29,5","ND","ND","ND","ND","ND"],
    [395,"07/14/2014 02:00","43,5","ND","ND","ND","ND","ND"],
    [396,"07/14/2014 03:00","33,5","ND","ND","ND","ND","ND"],
    [397,"07/14/2014 04:00","28,1","ND","ND","ND","ND","ND"],
    [398,"07/14/2014 05:00","26,1","ND","ND","ND","ND","ND"],
    [399,"07/14/2014 06:00","31,4","ND","ND","ND","ND","ND"],
    [400,"07/14/2014 07:00","36,1","ND","ND","ND","ND","ND"],
    [401,"07/14/2014 08:00","59,6","ND","ND","ND","ND","ND"],
    [402,"07/14/2014 09:00","70,2","ND","ND","ND","ND","ND"],
    [403,"07/14/2014 10:00","47,8","ND","ND","ND","ND","ND"],
    [404,"07/14/2014 11:00","52,3","ND","ND","ND","ND","ND"],
    [405,"07/14/2014 12:00","35,5","ND","ND","ND","ND","ND"],
    [406,"07/14/2014 13:00","33,2","ND","ND","ND","ND","ND"],
    [407,"07/14/2014 14:00","42","ND","ND","ND","ND","ND"],
    [408,"07/14/2014 15:00","43,3","ND","ND","ND","ND","ND"],
    [409,"07/14/2014 16:00","54,7","ND","ND","ND","ND","ND"],
    [410,"07/14/2014 17:00","64,3","ND","ND","ND","ND","ND"],
    [411,"07/14/2014 18:00","21,1","ND","ND","ND","ND","ND"],
    [412,"07/14/2014 19:00","21,8","ND","ND","ND","ND","ND"],
    [413,"07/14/2014 20:00","31,7","ND","ND","ND","ND","ND"],
    [414,"07/14/2014 21:00","20,4","ND","ND","ND","ND","ND"],
    [415,"07/14/2014 22:00","38,6","ND","ND","ND","ND","ND"],
    [416,"07/14/2014 23:00","29,8","ND","ND","ND","ND","ND"],
    [417,"07/15/2014 00:00","41,6","ND","ND","ND","ND","ND"],
    [418,"07/15/2014 01:00","35,9","ND","ND","ND","ND","ND"],
    [419,"07/15/2014 02:00","27,6","ND","ND","ND","ND","ND"],
    [420,"07/15/2014 03:00","27,1","ND","ND","ND","ND","ND"],
    [421,"07/15/2014 04:00","31,8","ND","ND","ND","ND","ND"],
    [422,"07/15/2014 05:00","27,5","ND","ND","ND","ND","ND"],
    [423,"07/15/2014 06:00","41,2","ND","ND","ND","ND","ND"],
    [424,"07/15/2014 07:00","48,6","ND","ND","ND","ND","ND"],
    [425,"07/15/2014 08:00","38,6","ND","ND","ND","ND","ND"],
    [426,"07/15/2014 09:00","77,4","ND","ND","ND","ND","ND"],
    [427,"07/15/2014 10:00","33,3","ND","ND","ND","ND","ND"],
    [428,"07/15/2014 11:00","45,1","ND","ND","ND","ND","ND"],
    [429,"07/15/2014 12:00","42,7","ND","ND","ND","ND","ND"],
    [430,"07/15/2014 13:00","46,5","ND","ND","ND","ND","ND"],
    [431,"07/15/2014 14:00","53,1","ND","ND","ND","ND","ND"],
    [432,"07/15/2014 15:00","68,7","ND","ND","ND","ND","ND"],
    [433,"07/15/2014 16:00","85,6","ND","ND","ND","ND","ND"],
    [434,"07/15/2014 17:00","41,7","ND","ND","ND","ND","ND"],
    [435,"07/15/2014 18:00","19,7","ND","ND","ND","ND","ND"],
    [436,"07/15/2014 19:00","20,5","ND","ND","ND","ND","ND"],
    [437,"07/15/2014 20:00","22,2","ND","ND","ND","ND","ND"],
    [438,"07/15/2014 21:00","49,1","ND","ND","ND","ND","ND"],
    [439,"07/15/2014 22:00","20,5","ND","ND","ND","ND","ND"],
    [440,"07/15/2014 23:00","11,3","ND","ND","ND","ND","ND"],
    [441,"07/16/2014 00:00","22,8","ND","ND","ND","ND","ND"],
    [442,"07/16/2014 01:00","41,1","ND","ND","ND","ND","ND"],
    [443,"07/16/2014 02:00","43,9","ND","ND","ND","ND","ND"],
    [444,"07/16/2014 03:00","46,4","ND","ND","ND","ND","ND"],
    [445,"07/16/2014 04:00","32,3","ND","ND","ND","ND","ND"],
    [446,"07/16/2014 05:00","31,5","ND","ND","ND","ND","ND"],
    [447,"07/16/2014 06:00","34,9","ND","ND","ND","ND","ND"],
    [448,"07/16/2014 07:00","45,5","ND","ND","ND","ND","ND"],
    [449,"07/16/2014 08:00","62","ND","ND","ND","ND","ND"],
    [450,"07/16/2014 09:00","64,9","ND","ND","ND","ND","ND"],
    [451,"07/16/2014 10:00","88,5","ND","ND","ND","ND","ND"],
    [452,"07/16/2014 11:00","90,8","ND","ND","ND","ND","ND"],
    [453,"07/16/2014 12:00","68,1","ND","ND","ND","ND","ND"],
    [454,"07/16/2014 13:00","68,1","ND","ND","ND","ND","ND"],
    [455,"07/16/2014 14:00","71,3","ND","ND","ND","ND","ND"],
    [456,"07/16/2014 15:00","71,7","ND","ND","ND","ND","ND"],
    [457,"07/16/2014 16:00","74,3","ND","ND","ND","ND","ND"],
    [458,"07/16/2014 17:00","59,3","ND","ND","ND","ND","ND"],
    [459,"07/16/2014 18:00","21,2","ND","ND","ND","ND","ND"],
    [460,"07/16/2014 19:00","16,6","ND","ND","ND","ND","ND"],
    [461,"07/16/2014 20:00","17","ND","ND","ND","ND","ND"],
    [462,"07/16/2014 21:00","15,8","ND","ND","ND","ND","ND"],
    [463,"07/16/2014 22:00","23,9","ND","ND","ND","ND","ND"],
    [464,"07/16/2014 23:00","27,6","ND","ND","ND","ND","ND"],
    [465,"07/17/2014 00:00","42,2","ND","ND","ND","ND","ND"],
    [466,"07/17/2014 01:00","33,2","ND","ND","ND","ND","ND"],
    [467,"07/17/2014 02:00","41,3","ND","ND","ND","ND","ND"],
    [468,"07/17/2014 03:00","39,7","ND","ND","ND","ND","ND"],
    [469,"07/17/2014 04:00","39,1","ND","ND","ND","ND","ND"],
    [470,"07/17/2014 05:00","38,4","ND","ND","ND","ND","ND"],
    [471,"07/17/2014 06:00","46,5","ND","ND","ND","ND","ND"],
    [472,"07/17/2014 07:00","39,8","ND","ND","ND","ND","ND"],
    [473,"07/17/2014 08:00","46,5","ND","ND","ND","ND","ND"],
    [474,"07/17/2014 09:00","82,1","ND","ND","ND","ND","ND"],
    [475,"07/17/2014 10:00","61,6","ND","ND","ND","ND","ND"],
    [476,"07/17/2014 11:00","94,3","ND","ND","ND","ND","ND"],
    [477,"07/17/2014 12:00","97,9","ND","ND","ND","ND","ND"],
    [478,"07/17/2014 13:00","66","ND","ND","ND","ND","ND"],
    [479,"07/17/2014 14:00","65","ND","ND","ND","ND","ND"],
    [480,"07/17/2014 15:00","62,1","ND","ND","ND","ND","ND"],
    [481,"07/17/2014 16:00","52,6","ND","ND","ND","ND","ND"],
    [482,"07/17/2014 17:00","26,2","ND","ND","ND","ND","ND"],
    [483,"07/17/2014 18:00","23,6","ND","ND","ND","ND","ND"],
    [484,"07/17/2014 19:00","20,4","ND","ND","ND","ND","ND"],
    [485,"07/17/2014 20:00","14,4","ND","ND","ND","ND","ND"],
    [486,"07/17/2014 21:00","18,9","ND","ND","ND","ND","ND"],
    [487,"07/17/2014 22:00","38,1","ND","ND","ND","ND","ND"],
    [488,"07/17/2014 23:00","30,3","ND","ND","ND","ND","ND"],
    [489,"07/18/2014 00:00","59,4","ND","ND","ND","ND","ND"],
    [490,"07/18/2014 01:00","51,8","ND","ND","ND","ND","ND"],
    [491,"07/18/2014 02:00","67","ND","ND","ND","ND","ND"],
    [492,"07/18/2014 03:00","40,8","ND","ND","ND","ND","ND"],
    [493,"07/18/2014 04:00","49,4","ND","ND","ND","ND","ND"],
    [494,"07/18/2014 05:00","44,2","ND","ND","ND","ND","ND"],
    [495,"07/18/2014 06:00","29,4","ND","ND","ND","ND","ND"],
    [496,"07/18/2014 07:00","36,1","ND","ND","ND","ND","ND"],
    [497,"07/18/2014 08:00","80,2","ND","ND","ND","ND","ND"],
    [498,"07/18/2014 09:00","74,9","ND","ND","ND","ND","ND"],
    [499,"07/18/2014 10:00","49,8","ND","ND","ND","ND","ND"],
    [500,"07/18/2014 11:00","35,8","ND","ND","ND","ND","ND"],
    [501,"07/18/2014 12:00","41,5","ND","ND","ND","ND","ND"],
    [502,"07/18/2014 13:00","35,4","ND","ND","ND","ND","ND"],
    [503,"07/18/2014 14:00","29,5","ND","ND","ND","ND","ND"],
    [504,"07/18/2014 15:00","2,5","ND","ND","ND","ND","ND"],
    [505,"07/18/2014 16:00","11","ND","ND","ND","ND","ND"],
    [506,"07/18/2014 17:00","53,2","ND","ND","ND","ND","ND"],
    [507,"07/18/2014 18:00","36,1","ND","ND","ND","ND","ND"],
    [508,"07/18/2014 19:00","25,9","ND","ND","ND","ND","ND"],
    [509,"07/18/2014 20:00","26,1","ND","ND","ND","ND","ND"],
    [510,"07/18/2014 21:00","19,5","ND","ND","ND","ND","ND"],
    [511,"07/18/2014 22:00","22,7","ND","ND","ND","ND","ND"],
    [512,"07/18/2014 23:00","33,6","ND","ND","ND","ND","ND"],
    [513,"07/19/2014 00:00","43,8","ND","ND","ND","ND","ND"],
    [514,"07/19/2014 01:00","79,6","ND","ND","ND","ND","ND"],
    [515,"07/19/2014 02:00","46,1","ND","ND","ND","ND","ND"],
    [516,"07/19/2014 03:00","32,6","ND","ND","ND","ND","ND"],
    [517,"07/19/2014 04:00","26","ND","ND","ND","ND","ND"],
    [518,"07/19/2014 05:00","51,4","ND","ND","ND","ND","ND"],
    [519,"07/19/2014 06:00","29,9","ND","ND","ND","ND","ND"],
    [520,"07/19/2014 07:00","35,2","ND","ND","ND","ND","ND"],
    [521,"07/19/2014 08:00","45,6","ND","ND","ND","ND","ND"],
    [522,"07/19/2014 09:00","52,8","ND","ND","ND","ND","ND"],
    [523,"07/19/2014 10:00","58,9","ND","ND","ND","ND","ND"],
    [524,"07/19/2014 11:00","65,4","ND","ND","ND","ND","ND"],
    [525,"07/19/2014 12:00","47","ND","ND","ND","ND","ND"],
    [526,"07/19/2014 13:00","55,9","ND","ND","ND","ND","ND"],
    [527,"07/19/2014 14:00","50,8","ND","ND","ND","ND","ND"],
    [528,"07/19/2014 15:00","23,2","ND","ND","ND","ND","ND"],
    [529,"07/19/2014 16:00","50,6","ND","ND","ND","ND","ND"],
    [530,"07/19/2014 17:00","27,7","ND","ND","ND","ND","ND"],
    [531,"07/19/2014 18:00","26,5","ND","ND","ND","ND","ND"],
    [532,"07/19/2014 19:00","31,8","ND","ND","ND","ND","ND"],
    [533,"07/19/2014 20:00","21","ND","ND","ND","ND","ND"],
    [534,"07/19/2014 21:00","17,6","ND","ND","ND","ND","ND"],
    [535,"07/19/2014 22:00","21,4","ND","ND","ND","ND","ND"],
    [536,"07/19/2014 23:00","22,9","ND","ND","ND","ND","ND"],
    [537,"07/20/2014 00:00","44,8","ND","ND","ND","ND","ND"],
    [538,"07/20/2014 01:00","48,2","ND","ND","ND","ND","ND"],
    [539,"07/20/2014 02:00","33,1","ND","ND","ND","ND","ND"],
    [540,"07/20/2014 03:00","29,7","ND","ND","ND","ND","ND"],
    [541,"07/20/2014 04:00","24,5","ND","ND","ND","ND","ND"],
    [542,"07/20/2014 05:00","24,6","ND","ND","ND","ND","ND"],
    [543,"07/20/2014 06:00","23,8","ND","ND","ND","ND","ND"],
    [544,"07/20/2014 07:00","27,6","ND","ND","ND","ND","ND"],
    [545,"07/20/2014 08:00","35","ND","ND","ND","ND","ND"],
    [546,"07/20/2014 09:00","39,7","ND","ND","ND","ND","ND"],
    [547,"07/20/2014 10:00","52,7","ND","ND","ND","ND","ND"],
    [548,"07/20/2014 11:00","54,7","ND","ND","ND","ND","ND"],
    [549,"07/20/2014 12:00","60,7","ND","ND","ND","ND","ND"],
    [550,"07/20/2014 13:00","51,9","ND","ND","ND","ND","ND"],
    [551,"07/20/2014 14:00","62,2","ND","ND","ND","ND","ND"],
    [552,"07/20/2014 15:00","56,4","ND","ND","ND","ND","ND"],
    [553,"07/20/2014 16:00","17,4","ND","ND","ND","ND","ND"],
    [554,"07/20/2014 17:00","18","ND","ND","ND","ND","ND"],
    [555,"07/20/2014 18:00","15,4","ND","ND","ND","ND","ND"],
    [556,"07/20/2014 19:00","43,5","ND","ND","ND","ND","ND"],
    [557,"07/20/2014 20:00","12,7","ND","ND","ND","ND","ND"],
    [558,"07/20/2014 21:00","18,9","ND","ND","ND","ND","ND"],
    [559,"07/20/2014 22:00","29,7","ND","ND","ND","ND","ND"],
    [560,"07/20/2014 23:00","55","ND","ND","ND","ND","ND"],
    [561,"07/21/2014 00:00","72,7","ND","ND","ND","ND","ND"],
    [562,"07/21/2014 01:00","38,6","ND","ND","ND","ND","ND"],
    [563,"07/21/2014 02:00","34","ND","ND","ND","ND","ND"],
    [564,"07/21/2014 03:00","26,7","ND","ND","ND","ND","ND"],
    [565,"07/21/2014 04:00","20,8","ND","ND","ND","ND","ND"],
    [566,"07/21/2014 05:00","38,8","ND","ND","ND","ND","ND"],
    [567,"07/21/2014 06:00","49,7","ND","ND","ND","ND","ND"],
    [568,"07/21/2014 07:00","54,6","ND","ND","ND","ND","ND"],
    [569,"07/21/2014 08:00","54,6","ND","ND","ND","ND","ND"],
    [570,"07/21/2014 09:00","57,5","ND","ND","ND","ND","ND"],
    [571,"07/21/2014 10:00","52,8","ND","ND","ND","ND","ND"],
    [572,"07/21/2014 11:00","36,9","ND","ND","ND","ND","ND"],
    [573,"07/21/2014 12:00","31,8","ND","ND","ND","ND","ND"],
    [574,"07/21/2014 13:00","35,1","ND","ND","ND","ND","ND"],
    [575,"07/21/2014 14:00","39,1","ND","ND","ND","ND","ND"],
    [576,"07/21/2014 15:00","51","ND","ND","ND","ND","ND"],
    [577,"07/21/2014 16:00","54,4","ND","ND","ND","ND","ND"],
    [578,"07/21/2014 17:00","57,9","ND","ND","ND","ND","ND"],
    [579,"07/21/2014 18:00","18,5","ND","ND","ND","ND","ND"],
    [580,"07/21/2014 19:00","23,2","ND","ND","ND","ND","ND"],
    [581,"07/21/2014 20:00","14,3","ND","ND","ND","ND","ND"],
    [582,"07/21/2014 21:00","13,7","ND","ND","ND","ND","ND"],
    [583,"07/21/2014 22:00","14,5","ND","ND","ND","ND","ND"],
    [584,"07/21/2014 23:00","42,7","ND","ND","ND","ND","ND"],
    [585,"07/22/2014 00:00","76,7","ND","ND","ND","ND","ND"],
    [586,"07/22/2014 01:00","69,8","ND","ND","ND","ND","ND"],
    [587,"07/22/2014 02:00","28,6","ND","ND","ND","ND","ND"],
    [588,"07/22/2014 03:00","38,9","ND","ND","ND","ND","ND"],
    [589,"07/22/2014 04:00","38","ND","ND","ND","ND","ND"],
    [590,"07/22/2014 05:00","44,2","ND","ND","ND","ND","ND"],
    [591,"07/22/2014 06:00","33,3","ND","ND","ND","ND","ND"],
    [592,"07/22/2014 07:00","41,1","ND","ND","ND","ND","ND"],
    [593,"07/22/2014 08:00","51,4","ND","ND","ND","ND","ND"],
    [594,"07/22/2014 09:00","56,1","ND","ND","ND","ND","ND"],
    [595,"07/22/2014 10:00","39,4","ND","ND","ND","ND","ND"],
    [596,"07/22/2014 11:00","43,8","ND","ND","ND","ND","ND"],
    [597,"07/22/2014 12:00","33,5","ND","ND","ND","ND","ND"],
    [598,"07/22/2014 13:00","40","ND","ND","ND","ND","ND"],
    [599,"07/22/2014 14:00","39,7","ND","ND","ND","ND","ND"],
    [600,"07/22/2014 15:00","31,1","ND","ND","ND","ND","ND"],
    [601,"07/22/2014 16:00","33","ND","ND","ND","ND","ND"],
    [602,"07/22/2014 17:00","49","ND","ND","ND","ND","ND"],
    [603,"07/22/2014 18:00","32,9","ND","ND","ND","ND","ND"],
    [604,"07/22/2014 19:00","27","ND","ND","ND","ND","ND"],
    [605,"07/22/2014 20:00","18,5","ND","ND","ND","ND","ND"],
    [606,"07/22/2014 21:00","19,7","ND","ND","ND","ND","ND"],
    [607,"07/22/2014 22:00","11,4","ND","ND","ND","ND","ND"],
    [608,"07/22/2014 23:00","42,6","ND","ND","ND","ND","ND"],
    [609,"07/23/2014 00:00","52,6","ND","ND","ND","ND","ND"],
    [610,"07/23/2014 01:00","43,9","ND","ND","ND","ND","ND"],
    [611,"07/23/2014 02:00","43,2","ND","ND","ND","ND","ND"],
    [612,"07/23/2014 03:00","37,7","ND","ND","ND","ND","ND"],
    [613,"07/23/2014 04:00","42,2","ND","ND","ND","ND","ND"],
    [614,"07/23/2014 05:00","51,3","ND","ND","ND","ND","ND"],
    [615,"07/23/2014 06:00","39,5","ND","ND","ND","ND","ND"],
    [616,"07/23/2014 07:00","68","ND","ND","ND","ND","ND"],
    [617,"07/23/2014 08:00","77,8","ND","ND","ND","ND","ND"],
    [618,"07/23/2014 09:00","88,4","ND","ND","ND","ND","ND"],
    [619,"07/23/2014 10:00","82,7","ND","ND","ND","ND","ND"],
    [620,"07/23/2014 11:00","82,7","ND","ND","ND","ND","ND"],
    [621,"07/23/2014 12:00","50,6","ND","ND","ND","ND","ND"],
    [622,"07/23/2014 13:00","40,3","ND","ND","ND","ND","ND"],
    [623,"07/23/2014 14:00","49,9","ND","ND","ND","ND","ND"],
    [624,"07/23/2014 15:00","55","ND","ND","ND","ND","ND"],
    [625,"07/23/2014 16:00","37,2","ND","ND","ND","ND","ND"],
    [626,"07/23/2014 17:00","24,8","ND","ND","ND","ND","ND"],
    [627,"07/23/2014 18:00","27,3","ND","ND","ND","ND","ND"],
    [628,"07/23/2014 19:00","20,9","ND","ND","ND","ND","ND"],
    [629,"07/23/2014 20:00","24,5","ND","ND","ND","ND","ND"],
    [630,"07/23/2014 21:00","16,6","ND","ND","ND","ND","ND"],
    [631,"07/23/2014 22:00","42,6","ND","ND","ND","ND","ND"],
    [632,"07/23/2014 23:00","58,1","ND","ND","ND","ND","ND"],
    [633,"07/24/2014 00:00","72,3","ND","ND","ND","ND","ND"],
    [634,"07/24/2014 01:00","40,1","ND","ND","ND","ND","ND"],
    [635,"07/24/2014 02:00","34,7","ND","ND","ND","ND","ND"],
    [636,"07/24/2014 03:00","34,7","ND","ND","ND","ND","ND"],
    [637,"07/24/2014 04:00","34","ND","ND","ND","ND","ND"],
    [638,"07/24/2014 05:00","31,4","ND","ND","ND","ND","ND"],
    [639,"07/24/2014 06:00","25,6","ND","ND","ND","ND","ND"],
    [640,"07/24/2014 07:00","54,1","ND","ND","ND","ND","ND"],
    [641,"07/24/2014 08:00","58,3","ND","ND","ND","ND","ND"],
    [642,"07/24/2014 09:00","77,7","ND","ND","ND","ND","ND"],
    [643,"07/24/2014 10:00","60,5","ND","ND","ND","ND","ND"],
    [644,"07/24/2014 11:00","50,7","ND","ND","ND","ND","ND"],
    [645,"07/24/2014 12:00","47,9","ND","ND","ND","ND","ND"],
    [646,"07/24/2014 13:00","58,4","ND","ND","ND","ND","ND"],
    [647,"07/24/2014 14:00","65,6","ND","ND","ND","ND","ND"],
    [648,"07/24/2014 15:00","61,5","ND","ND","ND","ND","ND"],
    [649,"07/24/2014 16:00","78,3","ND","ND","ND","ND","ND"],
    [650,"07/24/2014 17:00","39,9","ND","ND","ND","ND","ND"],
    [651,"07/24/2014 18:00","33","ND","ND","ND","ND","ND"],
    [652,"07/24/2014 19:00","51,3","ND","ND","ND","ND","ND"],
    [653,"07/24/2014 20:00","37,2","ND","ND","ND","ND","ND"],
    [654,"07/24/2014 21:00","27,5","ND","ND","ND","ND","ND"],
    [655,"07/24/2014 22:00","35,4","ND","ND","ND","ND","ND"],
    [656,"07/24/2014 23:00","75,3","ND","ND","ND","ND","ND"],
    [657,"07/25/2014 00:00","40,9","ND","ND","ND","ND","ND"],
    [658,"07/25/2014 01:00","44,1","ND","ND","ND","ND","ND"],
    [659,"07/25/2014 02:00","38,4","ND","ND","ND","ND","ND"],
    [660,"07/25/2014 03:00","35,7","ND","ND","ND","ND","ND"],
    [661,"07/25/2014 04:00","31,8","ND","ND","ND","ND","ND"],
    [662,"07/25/2014 05:00","32,7","ND","ND","ND","ND","ND"],
    [663,"07/25/2014 06:00","31,8","ND","ND","ND","ND","ND"],
    [664,"07/25/2014 07:00","55,2","ND","ND","ND","ND","ND"],
    [665,"07/25/2014 08:00","61,3","ND","ND","ND","ND","ND"],
    [666,"07/25/2014 09:00","54,9","ND","ND","ND","ND","ND"],
    [667,"07/25/2014 10:00","63,5","ND","ND","ND","ND","ND"],
    [668,"07/25/2014 11:00","56,6","ND","ND","ND","ND","ND"],
    [669,"07/25/2014 12:00","51,2","ND","ND","ND","ND","ND"],
    [670,"07/25/2014 13:00","41,4","ND","ND","ND","ND","ND"],
    [671,"07/25/2014 14:00","25,7","ND","ND","ND","ND","ND"],
    [672,"07/25/2014 15:00","35,4","ND","ND","ND","ND","ND"],
    [673,"07/25/2014 16:00","65,5","ND","ND","ND","ND","ND"],
    [674,"07/25/2014 17:00","29,1","ND","ND","ND","ND","ND"],
    [675,"07/25/2014 18:00","30,7","ND","ND","ND","ND","ND"],
    [676,"07/25/2014 19:00","66,1","ND","ND","ND","ND","ND"],
    [677,"07/25/2014 20:00","27,7","ND","ND","ND","ND","ND"],
    [678,"07/25/2014 21:00","17,6","ND","ND","ND","ND","ND"],
    [679,"07/25/2014 22:00","51,8","ND","ND","ND","ND","ND"],
    [680,"07/25/2014 23:00","68,8","ND","ND","ND","ND","ND"],
    [681,"07/26/2014 00:00","46,2","ND","ND","ND","ND","ND"],
    [682,"07/26/2014 01:00","50,8","ND","ND","ND","ND","ND"],
    [683,"07/26/2014 02:00","42,7","ND","ND","ND","ND","ND"],
    [684,"07/26/2014 03:00","33,4","ND","ND","ND","ND","ND"],
    [685,"07/26/2014 04:00","38,4","ND","ND","ND","ND","ND"],
    [686,"07/26/2014 05:00","30,5","ND","ND","ND","ND","ND"],
    [687,"07/26/2014 06:00","29,6","ND","ND","ND","ND","ND"],
    [688,"07/26/2014 07:00","39,9","ND","ND","ND","ND","ND"],
    [689,"07/26/2014 08:00","65,9","ND","ND","ND","ND","ND"],
    [690,"07/26/2014 09:00","47,3","ND","ND","ND","ND","ND"],
    [691,"07/26/2014 10:00","57,8","ND","ND","ND","ND","ND"],
    [692,"07/26/2014 11:00","38","ND","ND","ND","ND","ND"],
    [693,"07/26/2014 12:00","57,6","ND","ND","ND","ND","ND"],
    [694,"07/26/2014 13:00","32","ND","ND","ND","ND","ND"],
    [695,"07/26/2014 14:00","45,5","ND","ND","ND","ND","ND"],
    [696,"07/26/2014 15:00","39,9","ND","ND","ND","ND","ND"],
    [697,"07/26/2014 16:00","31,7","ND","ND","ND","ND","ND"],
    [698,"07/26/2014 17:00","15,2","ND","ND","ND","ND","ND"],
    [699,"07/26/2014 18:00","17,4","ND","ND","ND","ND","ND"],
    [700,"07/26/2014 19:00","13,2","ND","ND","ND","ND","ND"],
    [701,"07/26/2014 20:00","14,1","ND","ND","ND","ND","ND"],
    [702,"07/26/2014 21:00","7,4","ND","ND","ND","ND","ND"],
    [703,"07/26/2014 22:00","9,3","ND","ND","ND","ND","ND"],
    [704,"07/26/2014 23:00","15,2","ND","ND","ND","ND","ND"],
    [705,"07/27/2014 00:00","41,7","ND","ND","ND","ND","ND"],
    [706,"07/27/2014 01:00","55,6","ND","ND","ND","ND","ND"],
    [707,"07/27/2014 02:00","50","ND","ND","ND","ND","ND"],
    [708,"07/27/2014 03:00","59,7","ND","ND","ND","ND","ND"],
    [709,"07/27/2014 04:00","55,3","ND","ND","ND","ND","ND"],
    [710,"07/27/2014 05:00","32,6","ND","ND","ND","ND","ND"],
    [711,"07/27/2014 06:00","26,4","ND","ND","ND","ND","ND"],
    [712,"07/27/2014 07:00","42","ND","ND","ND","ND","ND"],
    [713,"07/27/2014 08:00","33,8","ND","ND","ND","ND","ND"],
    [714,"07/27/2014 09:00","46,1","ND","ND","ND","ND","ND"],
    [715,"07/27/2014 10:00","50,9","ND","ND","ND","ND","ND"],
    [716,"07/27/2014 11:00","36,3","ND","ND","ND","ND","ND"],
    [717,"07/27/2014 12:00","29,6","ND","ND","ND","ND","ND"],
    [718,"07/27/2014 13:00","26","ND","ND","ND","ND","ND"],
    [719,"07/27/2014 14:00","32,9","ND","ND","ND","ND","ND"],
    [720,"07/27/2014 15:00","45,6","ND","ND","ND","ND","ND"],
    [721,"07/27/2014 16:00","31,8","ND","ND","ND","ND","ND"],
    [722,"07/27/2014 17:00","16,2","ND","ND","ND","ND","ND"],
    [723,"07/27/2014 18:00","15,7","ND","ND","ND","ND","ND"],
    [724,"07/27/2014 19:00","13,5","ND","ND","ND","ND","ND"],
    [725,"07/27/2014 20:00","19,8","ND","ND","ND","ND","ND"],
    [726,"07/27/2014 21:00","16,6","ND","ND","ND","ND","ND"],
    [727,"07/27/2014 22:00","16,6","ND","ND","ND","ND","ND"],
    [728,"07/27/2014 23:00","33,5","ND","ND","ND","ND","ND"],
    [729,"07/28/2014 00:00","64,2","ND","ND","ND","ND","ND"],
    [730,"07/28/2014 01:00","32,9","ND","ND","ND","ND","ND"],
    [731,"07/28/2014 02:00","25,8","ND","ND","ND","ND","ND"],
    [732,"07/28/2014 03:00","23,8","ND","ND","ND","ND","ND"],
    [733,"07/28/2014 04:00","30,3","ND","ND","ND","ND","ND"],
    [734,"07/28/2014 05:00","19,5","ND","ND","ND","ND","ND"],
    [735,"07/28/2014 06:00","26,3","ND","ND","ND","ND","ND"],
    [736,"07/28/2014 07:00","43,5","ND","ND","ND","ND","ND"],
    [737,"07/28/2014 08:00","57","ND","ND","ND","ND","ND"],
    [738,"07/28/2014 09:00","84,4","ND","ND","ND","ND","ND"],
    [739,"07/28/2014 10:00","117,1","ND","ND","ND","ND","ND"],
    [740,"07/28/2014 11:00","82,4","ND","ND","ND","ND","ND"],
    [741,"07/28/2014 12:00","39,1","ND","ND","ND","ND","ND"],
    [742,"07/28/2014 13:00","38,4","ND","ND","ND","ND","ND"],
    [743,"07/28/2014 14:00","26,7","ND","ND","ND","ND","ND"],
    [744,"07/28/2014 15:00","32,7","ND","ND","ND","ND","ND"],
    [745,"07/28/2014 16:00","58,5","ND","ND","ND","ND","ND"],
    [746,"07/28/2014 17:00","24,6","ND","ND","ND","ND","ND"],
    [747,"07/28/2014 18:00","40,4","ND","ND","ND","ND","ND"],
    [748,"07/28/2014 19:00","37,7","ND","ND","ND","ND","ND"],
    [749,"07/28/2014 20:00","30","ND","ND","ND","ND","ND"],
    [750,"07/28/2014 21:00","30","ND","ND","ND","ND","ND"],
    [751,"07/28/2014 22:00","28","ND","ND","ND","ND","ND"],
    [752,"07/28/2014 23:00","53,8","ND","ND","ND","ND","ND"],
    [753,"07/29/2014 00:00","72,1","ND","ND","ND","ND","ND"],
    [754,"07/29/2014 01:00","47,8","ND","ND","ND","ND","ND"],
    [755,"07/29/2014 02:00","37,5","ND","ND","ND","ND","ND"],
    [756,"07/29/2014 03:00","35,4","ND","ND","ND","ND","ND"],
    [757,"07/29/2014 04:00","35","ND","ND","ND","ND","ND"],
    [758,"07/29/2014 05:00","31,5","ND","ND","ND","ND","ND"],
    [759,"07/29/2014 06:00","31,1","ND","ND","ND","ND","ND"],
    [760,"07/29/2014 07:00","43,6","ND","ND","ND","ND","ND"],
    [761,"07/29/2014 08:00","43,6","ND","ND","ND","ND","ND"],
    [762,"07/29/2014 09:00","60,1","ND","ND","ND","ND","ND"],
    [763,"07/29/2014 10:00","80,8","ND","ND","ND","ND","ND"],
    [764,"07/29/2014 11:00","55","ND","ND","ND","ND","ND"],
    [765,"07/29/2014 12:00","50,3","ND","ND","ND","ND","ND"],
    [766,"07/29/2014 13:00","56,4","ND","ND","ND","ND","ND"],
    [767,"07/29/2014 14:00","43,9","ND","ND","ND","ND","ND"],
    [768,"07/29/2014 15:00","33,2","ND","ND","ND","ND","ND"],
    [769,"07/29/2014 16:00","32,2","ND","ND","ND","ND","ND"],
    [770,"07/29/2014 17:00","53,1","ND","ND","ND","ND","ND"],
    [771,"07/29/2014 18:00","30,5","ND","ND","ND","ND","ND"],
    [772,"07/29/2014 19:00","36","ND","ND","ND","ND","ND"],
    [773,"07/29/2014 20:00","29,3","ND","ND","ND","ND","ND"],
    [774,"07/29/2014 21:00","14,9","ND","ND","ND","ND","ND"],
    [775,"07/29/2014 22:00","14,9","ND","ND","ND","ND","ND"],
    [776,"07/29/2014 23:00","59,9","ND","ND","ND","ND","ND"],
    [777,"07/30/2014 00:00","54,9","ND","ND","ND","ND","ND"],
    [778,"07/30/2014 01:00","44,8","ND","ND","ND","ND","ND"],
    [779,"07/30/2014 02:00","41,4","ND","ND","ND","ND","ND"],
    [780,"07/30/2014 03:00","38,6","ND","ND","ND","ND","ND"],
    [781,"07/30/2014 04:00","38,6","ND","ND","ND","ND","ND"],
    [782,"07/30/2014 05:00","23,9","ND","ND","ND","ND","ND"],
    [783,"07/30/2014 06:00","29,7","ND","ND","ND","ND","ND"],
    [784,"07/30/2014 07:00","50,9","ND","ND","ND","ND","ND"],
    [785,"07/30/2014 08:00","66,9","ND","ND","ND","ND","ND"],
    [786,"07/30/2014 09:00","60,3","ND","ND","ND","ND","ND"],
    [787,"07/30/2014 10:00","68","ND","ND","ND","ND","ND"],
    [788,"07/30/2014 11:00","64","ND","ND","ND","ND","ND"],
    [789,"07/30/2014 12:00","54,6","ND","ND","ND","ND","ND"],
    [790,"07/30/2014 13:00","41,5","ND","ND","ND","ND","ND"],
    [791,"07/30/2014 14:00","37,7","ND","ND","ND","ND","ND"],
    [792,"07/30/2014 15:00","55,1","ND","ND","ND","ND","ND"],
    [793,"07/30/2014 16:00","87,6","ND","ND","ND","ND","ND"],
    [794,"07/30/2014 17:00","87,6","ND","ND","ND","ND","ND"],
    [795,"07/30/2014 18:00","62,8","ND","ND","ND","ND","ND"],
    [796,"07/30/2014 19:00","41,3","ND","ND","ND","ND","ND"],
    [797,"07/30/2014 20:00","24,8","ND","ND","ND","ND","ND"],
    [798,"07/30/2014 21:00","24,1","ND","ND","ND","ND","ND"],
    [799,"07/30/2014 22:00","34,2","ND","ND","ND","ND","ND"],
    [800,"07/30/2014 23:00","70,4","ND","ND","ND","ND","ND"],
    [801,"07/31/2014 00:00","53,5","ND","ND","ND","ND","ND"],
    [802,"07/31/2014 01:00","48,3","ND","ND","ND","ND","ND"],
    [803,"07/31/2014 02:00","42,1","ND","ND","ND","ND","ND"],
    [804,"07/31/2014 03:00","36,9","ND","ND","ND","ND","ND"],
    [805,"07/31/2014 04:00","33,9","ND","ND","ND","ND","ND"],
    [806,"07/31/2014 05:00","30,5","ND","ND","ND","ND","ND"],
    [807,"07/31/2014 06:00","37,5","ND","ND","ND","ND","ND"],
    [808,"07/31/2014 07:00","44,1","ND","ND","ND","ND","ND"],
    [809,"07/31/2014 08:00","65,5","ND","ND","ND","ND","ND"],
    [810,"07/31/2014 09:00","65,5","ND","ND","ND","ND","ND"],
    [811,"07/31/2014 10:00","143,3","ND","ND","ND","ND","ND"],
    [812,"07/31/2014 11:00","78,7","ND","ND","ND","ND","ND"],
    [813,"07/31/2014 12:00","67,4","ND","ND","ND","ND","ND"],
    [814,"07/31/2014 13:00","63","ND","ND","ND","ND","ND"],
    [815,"07/31/2014 14:00","48,7","ND","ND","ND","ND","ND"],
    [816,"07/31/2014 15:00","26,9","ND","ND","ND","ND","ND"],
    [817,"07/31/2014 16:00","46,9","ND","ND","ND","ND","ND"],
    [818,"07/31/2014 17:00","59,7","ND","ND","ND","ND","ND"],
    [819,"07/31/2014 18:00","64,7","ND","ND","ND","ND","ND"],
    [820,"07/31/2014 19:00","28,1","ND","ND","ND","ND","ND"],
    [821,"07/31/2014 20:00","27,8","ND","ND","ND","ND","ND"],
    [822,"07/31/2014 21:00","72,9","ND","ND","ND","ND","ND"],
    [823,"07/31/2014 22:00","81,5","ND","ND","ND","ND","ND"],
    [824,"07/31/2014 23:00","91,4","ND","ND","ND","ND","ND"],
    [825,"41647","70,8","ND","ND","ND","ND","ND"],
    [826,"41647,04167","43,9","ND","ND","ND","ND","ND"],
    [827,"41647,08333","26,5","ND","ND","ND","ND","ND"],
    [828,"41647,125","33,7","ND","ND","ND","ND","ND"],
    [829,"41647,16667","36,5","ND","ND","ND","ND","ND"],
    [830,"41647,20833","32,5","ND","ND","ND","ND","ND"],
    [831,"41647,25","39,8","ND","ND","ND","ND","ND"],
    [832,"41647,29167","55,9","ND","ND","ND","ND","ND"],
    [833,"41647,33333","72,3","ND","ND","ND","ND","ND"],
    [834,"41647,375","73,8","ND","ND","ND","ND","ND"],
    [835,"41647,41667","98,1","ND","ND","ND","ND","ND"],
    [836,"41647,45833","92,2","ND","ND","ND","ND","ND"],
    [837,"41647,5","114,5","ND","ND","ND","ND","ND"],
    [838,"41647,54167","119,5","ND","ND","ND","ND","ND"],
    [839,"41647,58333","74,6","ND","ND","ND","ND","ND"],
    [840,"41647,625","45,4","ND","ND","ND","ND","ND"],
    [841,"41647,66667","56,5","ND","ND","ND","ND","ND"],
    [842,"41647,70833","48,3","ND","ND","ND","ND","ND"],
    [843,"41647,75","62,9","ND","ND","ND","ND","ND"],
    [844,"41647,79167","24,5","ND","ND","ND","ND","ND"],
    [845,"41647,83333","34,1","ND","ND","ND","ND","ND"],
    [846,"41647,875","22,4","ND","ND","ND","ND","ND"],
    [847,"41647,91667","25","ND","ND","ND","ND","ND"],
    [848,"41647,95833","26,9","ND","ND","ND","ND","ND"],
    [849,"41678","18,3","ND","ND","ND","ND","ND"],
    [850,"41678,04167","62,1","ND","ND","ND","ND","ND"],
    [851,"41678,08333","37,5","ND","ND","ND","ND","ND"],
    [852,"41678,125","33,7","ND","ND","ND","ND","ND"],
    [853,"41678,16667","24,1","ND","ND","ND","ND","ND"],
    [854,"41678,20833","32,6","ND","ND","ND","ND","ND"],
    [855,"41678,25","31,2","ND","ND","ND","ND","ND"],
    [856,"41678,29167","44,2","ND","ND","ND","ND","ND"],
    [857,"41678,33333","46","ND","ND","ND","ND","ND"],
    [858,"41678,375","46","ND","ND","ND","ND","ND"],
    [859,"41678,41667","88,7","ND","ND","ND","ND","ND"],
    [860,"41678,45833","81,7","ND","ND","ND","ND","ND"],
    [861,"41678,5","86,4","ND","ND","ND","ND","ND"],
    [862,"41678,54167","48,5","ND","ND","ND","ND","ND"],
    [863,"41678,58333","66,8","ND","ND","ND","ND","ND"],
    [864,"41678,625","52,4","ND","ND","ND","ND","ND"],
    [865,"41678,66667","63","ND","ND","ND","ND","ND"],
    [866,"41678,70833","50,3","ND","ND","ND","ND","ND"],
    [867,"41678,75","65,1","ND","ND","ND","ND","ND"],
    [868,"41678,79167","31,9","ND","ND","ND","ND","ND"],
    [869,"41678,83333","77,5","ND","ND","ND","ND","ND"],
    [870,"41678,875","62,6","ND","ND","ND","ND","ND"],
    [871,"41678,91667","34,5","ND","ND","ND","ND","ND"],
    [872,"41678,95833","11,9","ND","ND","ND","ND","ND"],
    [873,"41706","46,8","ND","ND","ND","ND","ND"],
    [874,"41706,04167","47,1","ND","ND","ND","ND","ND"],
    [875,"41706,08333","22,6","ND","ND","ND","ND","ND"],
    [876,"41706,125","35,1","ND","ND","ND","ND","ND"],
    [877,"41706,16667","23,2","ND","ND","ND","ND","ND"],
    [878,"41706,20833","38,9","ND","ND","ND","ND","ND"],
    [879,"41706,25","30","ND","ND","ND","ND","ND"],
    [880,"41706,29167","18,3","ND","ND","ND","ND","ND"],
    [881,"41706,33333","41,4","ND","ND","ND","ND","ND"],
    [882,"41706,375","46,4","ND","ND","ND","ND","ND"],
    [883,"41706,41667","59,7","ND","ND","ND","ND","ND"],
    [884,"41706,45833","46,9","ND","ND","ND","ND","ND"],
    [885,"41706,5","41,9","ND","ND","ND","ND","ND"],
    [886,"41706,54167","27,2","ND","ND","ND","ND","ND"],
    [887,"41706,58333","27,1","ND","ND","ND","ND","ND"],
    [888,"41706,625","23,3","ND","ND","ND","ND","ND"],
    [889,"41706,66667","14,6","ND","ND","ND","ND","ND"],
    [890,"41706,70833","49,6","ND","ND","ND","ND","ND"],
    [891,"41706,75","30,2","ND","ND","ND","ND","ND"],
    [892,"41706,79167","24,3","ND","ND","ND","ND","ND"],
    [893,"41706,83333","21,3","ND","ND","ND","ND","ND"],
    [894,"41706,875","19","ND","ND","ND","ND","ND"],
    [895,"41706,91667","9,5","ND","ND","ND","ND","ND"],
    [896,"41706,95833","40,8","ND","ND","ND","ND","ND"],
    [897,"41737","66,8","ND","ND","ND","ND","ND"],
    [898,"41737,04167","42,1","ND","ND","ND","ND","ND"],
    [899,"41737,08333","42,1","ND","ND","ND","ND","ND"],
    [900,"41737,125","28,3","ND","ND","ND","ND","ND"],
    [901,"41737,16667","25,4","ND","ND","ND","ND","ND"],
    [902,"41737,20833","25","ND","ND","ND","ND","ND"],
    [903,"41737,25","42,4","ND","ND","ND","ND","ND"],
    [904,"41737,29167","52,5","ND","ND","ND","ND","ND"],
    [905,"41737,33333","64,1","ND","ND","ND","ND","ND"],
    [906,"41737,375","66,6","ND","ND","ND","ND","ND"],
    [907,"41737,41667","60,6","ND","ND","ND","ND","ND"],
    [908,"41737,45833","48,4","ND","ND","ND","ND","ND"],
    [909,"41737,5","41,5","ND","ND","ND","ND","ND"],
    [910,"41737,54167","44,6","ND","ND","ND","ND","ND"],
    [911,"41737,58333","51,9","ND","ND","ND","ND","ND"],
    [912,"41737,625","61,7","ND","ND","ND","ND","ND"],
    [913,"41737,66667","28,9","ND","ND","ND","ND","ND"],
    [914,"41737,70833","25,8","ND","ND","ND","ND","ND"],
    [915,"41737,75","31,9","ND","ND","ND","ND","ND"],
    [916,"41737,79167","31,9","ND","ND","ND","ND","ND"],
    [917,"41737,83333","30,5","ND","ND","ND","ND","ND"],
    [918,"41737,875","18,5","ND","ND","ND","ND","ND"],
    [919,"41737,91667","25","ND","ND","ND","ND","ND"],
    [920,"41737,95833","59,3","ND","ND","ND","ND","ND"],
    [921,"41767","64,3","ND","ND","ND","ND","ND"],
    [922,"41767,04167","50,4","ND","ND","ND","ND","ND"],
    [923,"41767,08333","46,6","ND","ND","ND","ND","ND"],
    [924,"41767,125","49,4","ND","ND","ND","ND","ND"],
    [925,"41767,16667","142","ND","ND","ND","ND","ND"],
    [926,"41767,20833","53,2","ND","ND","ND","ND","ND"],
    [927,"41767,25","38,8","ND","ND","ND","ND","ND"],
    [928,"41767,29167","88,5","ND","ND","ND","ND","ND"],
    [929,"41767,33333","58,3","ND","ND","ND","ND","ND"],
    [930,"41767,375","72,9","ND","ND","ND","ND","ND"],
    [931,"41767,41667","51,2","ND","ND","ND","ND","ND"],
    [932,"41767,45833","44,7","ND","ND","ND","ND","ND"],
    [933,"41767,5","ND","ND","ND","ND","ND","ND"],
    [934,"41767,54167","ND","ND","ND","ND","ND","ND"],
    [935,"41767,58333","ND","ND","ND","ND","ND","ND"],
    [936,"41767,625","ND","ND","ND","ND","ND","ND"],
    [937,"41767,66667","48,7","ND","ND","ND","ND","ND"],
    [938,"41767,70833","63,3","ND","ND","ND","ND","ND"],
    [939,"41767,75","67","ND","ND","ND","ND","ND"],
    [940,"41767,79167","30,3","ND","ND","ND","ND","ND"],
    [941,"41767,83333","27,6","ND","ND","ND","ND","ND"],
    [942,"41767,875","23","ND","ND","ND","ND","ND"],
    [943,"41767,91667","36,6","ND","ND","ND","ND","ND"],
    [944,"41767,95833","44,5","ND","ND","ND","ND","ND"],
    [945,"41798","57,7","ND","ND","ND","ND","ND"],
    [946,"41798,04167","61,3","ND","ND","ND","ND","ND"],
    [947,"41798,08333","49,8","ND","ND","ND","ND","ND"],
    [948,"41798,125","50,2","ND","ND","ND","ND","ND"],
    [949,"41798,16667","44,7","ND","ND","ND","ND","ND"],
    [950,"41798,20833","42,8","ND","ND","ND","ND","ND"],
    [951,"41798,25","53,9","ND","ND","ND","ND","ND"],
    [952,"41798,29167","55,4","ND","ND","ND","ND","ND"],
    [953,"41798,33333","69,8","ND","ND","ND","ND","ND"],
    [954,"41798,375","60,8","ND","ND","ND","ND","ND"],
    [955,"41798,41667","46,7","ND","ND","ND","ND","ND"],
    [956,"41798,45833","57,8","ND","ND","ND","ND","ND"],
    [957,"41798,5","50,1","ND","ND","ND","ND","ND"],
    [958,"41798,54167","52,6","ND","ND","ND","ND","ND"],
    [959,"41798,58333","49,3","ND","ND","ND","ND","ND"],
    [960,"41798,625","46,6","ND","ND","ND","ND","ND"],
    [961,"41798,66667","15,3","ND","ND","ND","ND","ND"],
    [962,"41798,70833","17,9","ND","ND","ND","ND","ND"],
    [963,"41798,75","15,3","ND","ND","ND","ND","ND"],
    [964,"41798,79167","18","ND","ND","ND","ND","ND"],
    [965,"41798,83333","21,7","ND","ND","ND","ND","ND"],
    [966,"41798,875","21,1","ND","ND","ND","ND","ND"],
    [967,"41798,91667","26,6","ND","ND","ND","ND","ND"],
    [968,"41798,95833","42,1","ND","ND","ND","ND","ND"],
    [969,"41828","38,2","ND","ND","ND","ND","ND"],
    [970,"41828,04167","57,7","ND","ND","ND","ND","ND"],
    [971,"41828,08333","49,8","ND","ND","ND","ND","ND"],
    [972,"41828,125","48,2","ND","ND","ND","ND","ND"],
    [973,"41828,16667","38,1","ND","ND","ND","ND","ND"],
    [974,"41828,20833","31,2","ND","ND","ND","ND","ND"],
    [975,"41828,25","32,5","ND","ND","ND","ND","ND"],
    [976,"41828,29167","28,6","ND","ND","ND","ND","ND"],
    [977,"41828,33333","33,1","ND","ND","ND","ND","ND"],
    [978,"41828,375","47,9","ND","ND","ND","ND","ND"],
    [979,"41828,41667","51,2","ND","ND","ND","ND","ND"],
    [980,"41828,45833","36,8","ND","ND","ND","ND","ND"],
    [981,"41828,5","29","ND","ND","ND","ND","ND"],
    [982,"41828,54167","29,7","ND","ND","ND","ND","ND"],
    [983,"41828,58333","37,6","ND","ND","ND","ND","ND"],
    [984,"41828,625","46,5","ND","ND","ND","ND","ND"],
    [985,"41828,66667","34,9","ND","ND","ND","ND","ND"],
    [986,"41828,70833","22,6","ND","ND","ND","ND","ND"],
    [987,"41828,75","17,5","ND","ND","ND","ND","ND"],
    [988,"41828,79167","16,7","ND","ND","ND","ND","ND"],
    [989,"41828,83333","8,2","ND","ND","ND","ND","ND"],
    [990,"41828,875","6","ND","ND","ND","ND","ND"],
    [991,"41828,91667","13","ND","ND","ND","ND","ND"],
    [992,"41828,95833","36,5","ND","ND","ND","ND","ND"],
    [993,"41859","49,7","ND","ND","ND","ND","ND"],
    [994,"41859,04167","28,5","ND","ND","ND","ND","ND"],
    [995,"41859,08333","20,6","ND","ND","ND","ND","ND"],
    [996,"41859,125","20,7","ND","ND","ND","ND","ND"],
    [997,"41859,16667","34,1","ND","ND","ND","ND","ND"],
    [998,"41859,20833","31","ND","ND","ND","ND","ND"],
    [999,"41859,25","32,3","ND","ND","ND","ND","ND"],
    [1000,"41859,29167","38,1","ND","ND","ND","ND","ND"],
    [1001,"41859,33333","58,6","ND","ND","ND","ND","ND"],
    [1002,"41859,375","69","ND","ND","ND","ND","ND"],
    [1003,"41859,41667","76,3","ND","ND","ND","ND","ND"],
    [1004,"41859,45833","68,8","ND","ND","ND","ND","ND"],
    [1005,"41859,5","41,9","ND","ND","ND","ND","ND"],
    [1006,"41859,54167","54","ND","ND","ND","ND","ND"],
    [1007,"41859,58333","50,4","ND","ND","ND","ND","ND"],
    [1008,"41859,625","45,9","ND","ND","ND","ND","ND"],
    [1009,"41859,66667","46,9","ND","ND","ND","ND","ND"],
    [1010,"41859,70833","19,8","ND","ND","ND","ND","ND"],
    [1011,"41859,75","23,7","ND","ND","ND","ND","ND"],
    [1012,"41859,79167","17","ND","ND","ND","ND","ND"],
    [1013,"41859,83333","23,6","ND","ND","ND","ND","ND"],
    [1014,"41859,875","20,9","ND","ND","ND","ND","ND"],
    [1015,"41859,91667","32,3","ND","ND","ND","ND","ND"],
    [1016,"41859,95833","51,8","ND","ND","ND","ND","ND"],
    [1017,"41890","40,5","ND","ND","ND","ND","ND"],
    [1018,"41890,04167","41,9","ND","ND","ND","ND","ND"],
    [1019,"41890,08333","33,9","ND","ND","ND","ND","ND"],
    [1020,"41890,125","30,9","ND","ND","ND","ND","ND"],
    [1021,"41890,16667","33,5","ND","ND","ND","ND","ND"],
    [1022,"41890,20833","37,9","ND","ND","ND","ND","ND"],
    [1023,"41890,25","29,1","ND","ND","ND","ND","ND"],
    [1024,"41890,29167","26,5","ND","ND","ND","ND","ND"],
    [1025,"41890,33333","23,6","ND","ND","ND","ND","ND"],
    [1026,"41890,375","41,3","ND","ND","ND","ND","ND"],
    [1027,"41890,41667","45,2","ND","ND","ND","ND","ND"],
    [1028,"41890,45833","57","ND","ND","ND","ND","ND"],
    [1029,"41890,5","51,3","ND","ND","ND","ND","ND"],
    [1030,"41890,54167","46,2","ND","ND","ND","ND","ND"],
    [1031,"41890,58333","35,1","ND","ND","ND","ND","ND"],
    [1032,"41890,625","36","ND","ND","ND","ND","ND"],
    [1033,"41890,66667","21,4","ND","ND","ND","ND","ND"],
    [1034,"41890,70833","13,2","ND","ND","ND","ND","ND"],
    [1035,"41890,75","12,4","ND","ND","ND","ND","ND"],
    [1036,"41890,79167","11,9","ND","ND","ND","ND","ND"],
    [1037,"41890,83333","14,6","ND","ND","ND","ND","ND"],
    [1038,"41890,875","9,7","ND","ND","ND","ND","ND"],
    [1039,"41890,91667","11,6","ND","ND","ND","ND","ND"],
    [1040,"41890,95833","13,3","ND","ND","ND","ND","ND"],
    [1041,"41920","36,4","ND","ND","ND","ND","ND"],
    [1042,"41920,04167","45,8","ND","ND","ND","ND","ND"],
    [1043,"41920,08333","42,3","ND","ND","ND","ND","ND"],
    [1044,"41920,125","33","ND","ND","ND","ND","ND"],
    [1045,"41920,16667","19,1","ND","ND","ND","ND","ND"],
    [1046,"41920,20833","16,3","ND","ND","ND","ND","ND"],
    [1047,"41920,25","16,5","ND","ND","ND","ND","ND"],
    [1048,"41920,29167","22,6","ND","ND","ND","ND","ND"],
    [1049,"41920,33333","32,4","ND","ND","ND","ND","ND"],
    [1050,"41920,375","41,9","ND","ND","ND","ND","ND"],
    [1051,"41920,41667","40,1","ND","ND","ND","ND","ND"],
    [1052,"41920,45833","26","ND","ND","ND","ND","ND"],
    [1053,"41920,5","20,7","ND","ND","ND","ND","ND"],
    [1054,"41920,54167","33,2","ND","ND","ND","ND","ND"],
    [1055,"41920,58333","39,2","ND","ND","ND","ND","ND"],
    [1056,"41920,625","30,9","ND","ND","ND","ND","ND"],
    [1057,"41920,66667","9,4","ND","ND","ND","ND","ND"],
    [1058,"41920,70833","7,3","ND","ND","ND","ND","ND"],
    [1059,"41920,75","14,1","ND","ND","ND","ND","ND"],
    [1060,"41920,79167","12,6","ND","ND","ND","ND","ND"],
    [1061,"41920,83333","16,4","ND","ND","ND","ND","ND"],
    [1062,"41920,875","10,7","ND","ND","ND","ND","ND"],
    [1063,"41920,91667","20,8","ND","ND","ND","ND","ND"],
    [1064,"41920,95833","35,8","ND","ND","ND","ND","ND"],
    [1065,"41951","45,7","ND","ND","ND","ND","ND"],
    [1066,"41951,04167","27,8","ND","ND","ND","ND","ND"],
    [1067,"41951,08333","25,9","ND","ND","ND","ND","ND"],
    [1068,"41951,125","16","ND","ND","ND","ND","ND"],
    [1069,"41951,16667","14","ND","ND","ND","ND","ND"],
    [1070,"41951,20833","16,8","ND","ND","ND","ND","ND"],
    [1071,"41951,25","18,4","ND","ND","ND","ND","ND"],
    [1072,"41951,29167","23,1","ND","ND","ND","ND","ND"],
    [1073,"41951,33333","37,3","ND","ND","ND","ND","ND"],
    [1074,"41951,375","47,2","ND","ND","ND","ND","ND"],
    [1075,"41951,41667","33,1","ND","ND","ND","ND","ND"],
    [1076,"41951,45833","23,9","ND","ND","ND","ND","ND"],
    [1077,"41951,5","19,7","ND","ND","ND","ND","ND"],
    [1078,"41951,54167","21,7","ND","ND","ND","ND","ND"],
    [1079,"41951,58333","20,3","ND","ND","ND","ND","ND"],
    [1080,"41951,625","23,9","ND","ND","ND","ND","ND"],
    [1081,"41951,66667","18,9","ND","ND","ND","ND","ND"],
    [1082,"41951,70833","20,9","ND","ND","ND","ND","ND"],
    [1083,"41951,75","25,3","ND","ND","ND","ND","ND"],
    [1084,"41951,79167","15,9","ND","ND","ND","ND","ND"],
    [1085,"41951,83333","13,7","ND","ND","ND","ND","ND"],
    [1086,"41951,875","16,1","ND","ND","ND","ND","ND"],
    [1087,"41951,91667","16,1","ND","ND","ND","ND","ND"],
    [1088,"41951,95833","35","ND","ND","ND","ND","ND"],
    [1089,"41981","45,3","ND","ND","ND","ND","ND"],
    [1090,"41981,04167","32,5","ND","ND","ND","ND","ND"],
    [1091,"41981,08333","21,5","ND","ND","ND","ND","ND"],
    [1092,"41981,125","18,8","ND","ND","ND","ND","ND"],
    [1093,"41981,16667","16,6","ND","ND","ND","ND","ND"],
    [1094,"41981,20833","23,7","ND","ND","ND","ND","ND"],
    [1095,"41981,25","31,1","ND","ND","ND","ND","ND"],
    [1096,"41981,29167","34,2","ND","ND","ND","ND","ND"],
    [1097,"41981,33333","53,5","ND","ND","ND","ND","ND"],
    [1098,"41981,375","61,7","ND","ND","ND","ND","ND"],
    [1099,"41981,41667","74,6","ND","ND","ND","ND","ND"],
    [1100,"41981,45833","59,6","ND","ND","ND","ND","ND"],
    [1101,"41981,5","50,5","ND","ND","ND","ND","ND"],
    [1102,"41981,54167","48,2","ND","ND","ND","ND","ND"],
    [1103,"41981,58333","54,3","ND","ND","ND","ND","ND"],
    [1104,"41981,625","57,4","ND","ND","ND","ND","ND"],
    [1105,"41981,66667","18,8","ND","ND","ND","ND","ND"],
    [1106,"41981,70833","8,8","ND","ND","ND","ND","ND"],
    [1107,"41981,75","12,4","ND","ND","ND","ND","ND"],
    [1108,"41981,79167","20,9","ND","ND","ND","ND","ND"],
    [1109,"41981,83333","18,2","ND","ND","ND","ND","ND"],
    [1110,"41981,875","40,5","ND","ND","ND","ND","ND"],
    [1111,"41981,91667","51","ND","ND","ND","ND","ND"],
    [1112,"41981,95833","33,1","ND","ND","ND","ND","ND"],
    [1113,"08/13/2014 00:00","48,1","ND","ND","ND","ND","ND"],
    [1114,"08/13/2014 01:00","36","ND","ND","ND","ND","ND"],
    [1115,"08/13/2014 02:00","43,9","ND","ND","ND","ND","ND"],
    [1116,"08/13/2014 03:00","31,6","ND","ND","ND","ND","ND"],
    [1117,"08/13/2014 04:00","29","ND","ND","ND","ND","ND"],
    [1118,"08/13/2014 05:00","26,3","ND","ND","ND","ND","ND"],
    [1119,"08/13/2014 06:00","39","ND","ND","ND","ND","ND"],
    [1120,"08/13/2014 07:00","46,5","ND","ND","ND","ND","ND"],
    [1121,"08/13/2014 08:00","53,5","ND","ND","ND","ND","ND"],
    [1122,"08/13/2014 09:00","68,8","ND","ND","ND","ND","ND"],
    [1123,"08/13/2014 10:00","83,7","ND","ND","ND","ND","ND"],
    [1124,"08/13/2014 11:00","74,9","ND","ND","ND","ND","ND"],
    [1125,"08/13/2014 12:00","60,8","ND","ND","ND","ND","ND"],
    [1126,"08/13/2014 13:00","47","ND","ND","ND","ND","ND"],
    [1127,"08/13/2014 14:00","44,3","ND","ND","ND","ND","ND"],
    [1128,"08/13/2014 15:00","51,1","ND","ND","ND","ND","ND"],
    [1129,"08/13/2014 16:00","53,9","ND","ND","ND","ND","ND"],
    [1130,"08/13/2014 17:00","34,4","ND","ND","ND","ND","ND"],
    [1131,"08/13/2014 18:00","23,6","ND","ND","ND","ND","ND"],
    [1132,"08/13/2014 19:00","22,2","ND","ND","ND","ND","ND"],
    [1133,"08/13/2014 20:00","27,2","ND","ND","ND","ND","ND"],
    [1134,"08/13/2014 21:00","44,3","ND","ND","ND","ND","ND"],
    [1135,"08/13/2014 22:00","71,3","ND","ND","ND","ND","ND"],
    [1136,"08/13/2014 23:00","71,3","ND","ND","ND","ND","ND"],
    [1137,"08/14/2014 00:00","65,8","ND","ND","ND","ND","ND"],
    [1138,"08/14/2014 01:00","37,9","ND","ND","ND","ND","ND"],
    [1139,"08/14/2014 02:00","32","ND","ND","ND","ND","ND"],
    [1140,"08/14/2014 03:00","31,2","ND","ND","ND","ND","ND"],
    [1141,"08/14/2014 04:00","25,7","ND","ND","ND","ND","ND"],
    [1142,"08/14/2014 05:00","22,4","ND","ND","ND","ND","ND"],
    [1143,"08/14/2014 06:00","27","ND","ND","ND","ND","ND"],
    [1144,"08/14/2014 07:00","45","ND","ND","ND","ND","ND"],
    [1145,"08/14/2014 08:00","53","ND","ND","ND","ND","ND"],
    [1146,"08/14/2014 09:00","58,9","ND","ND","ND","ND","ND"],
    [1147,"08/14/2014 10:00","75,9","ND","ND","ND","ND","ND"],
    [1148,"08/14/2014 11:00","70,5","ND","ND","ND","ND","ND"],
    [1149,"08/14/2014 12:00","44,3","ND","ND","ND","ND","ND"],
    [1150,"08/14/2014 13:00","46,9","ND","ND","ND","ND","ND"],
    [1151,"08/14/2014 14:00","46,3","ND","ND","ND","ND","ND"],
    [1152,"08/14/2014 15:00","45","ND","ND","ND","ND","ND"],
    [1153,"08/14/2014 16:00","25,9","ND","ND","ND","ND","ND"],
    [1154,"08/14/2014 17:00","26,5","ND","ND","ND","ND","ND"],
    [1155,"08/14/2014 18:00","32,9","ND","ND","ND","ND","ND"],
    [1156,"08/14/2014 19:00","30,7","ND","ND","ND","ND","ND"],
    [1157,"08/14/2014 20:00","45,9","ND","ND","ND","ND","ND"],
    [1158,"08/14/2014 21:00","33,9","ND","ND","ND","ND","ND"],
    [1159,"08/14/2014 22:00","26,1","ND","ND","ND","ND","ND"],
    [1160,"08/14/2014 23:00","50,3","ND","ND","ND","ND","ND"],
    [1161,"08/15/2014 00:00","89,7","ND","ND","ND","ND","ND"],
    [1162,"08/15/2014 01:00","39,1","ND","ND","ND","ND","ND"],
    [1163,"08/15/2014 02:00","30,8","ND","ND","ND","ND","ND"],
    [1164,"08/15/2014 03:00","33,2","ND","ND","ND","ND","ND"],
    [1165,"08/15/2014 04:00","33,1","ND","ND","ND","ND","ND"],
    [1166,"08/15/2014 05:00","28,3","ND","ND","ND","ND","ND"],
    [1167,"08/15/2014 06:00","31,9","ND","ND","ND","ND","ND"],
    [1168,"08/15/2014 07:00","68,6","ND","ND","ND","ND","ND"],
    [1169,"08/15/2014 08:00","63,7","ND","ND","ND","ND","ND"],
    [1170,"08/15/2014 09:00","59,9","ND","ND","ND","ND","ND"],
    [1171,"08/15/2014 10:00","49,8","ND","ND","ND","ND","ND"],
    [1172,"08/15/2014 11:00","49,2","ND","ND","ND","ND","ND"],
    [1173,"08/15/2014 12:00","50,6","ND","ND","ND","ND","ND"],
    [1174,"08/15/2014 13:00","42,9","ND","ND","ND","ND","ND"],
    [1175,"08/15/2014 14:00","30,9","ND","ND","ND","ND","ND"],
    [1176,"08/15/2014 15:00","25,9","ND","ND","ND","ND","ND"],
    [1177,"08/15/2014 16:00","41","ND","ND","ND","ND","ND"],
    [1178,"08/15/2014 17:00","35,6","ND","ND","ND","ND","ND"],
    [1179,"08/15/2014 18:00","45,7","ND","ND","ND","ND","ND"],
    [1180,"08/15/2014 19:00","61,9","ND","ND","ND","ND","ND"],
    [1181,"08/15/2014 20:00","39,1","ND","ND","ND","ND","ND"],
    [1182,"08/15/2014 21:00","30,4","ND","ND","ND","ND","ND"],
    [1183,"08/15/2014 22:00","63,5","ND","ND","ND","ND","ND"],
    [1184,"08/15/2014 23:00","82,7","ND","ND","ND","ND","ND"],
    [1185,"08/16/2014 00:00","73,4","ND","ND","ND","ND","ND"],
    [1186,"08/16/2014 01:00","74,7","ND","ND","ND","ND","ND"],
    [1187,"08/16/2014 02:00","49,2","ND","ND","ND","ND","ND"],
    [1188,"08/16/2014 03:00","26,7","ND","ND","ND","ND","ND"],
    [1189,"08/16/2014 04:00","23,6","ND","ND","ND","ND","ND"],
    [1190,"08/16/2014 05:00","31,6","ND","ND","ND","ND","ND"],
    [1191,"08/16/2014 06:00","37,7","ND","ND","ND","ND","ND"],
    [1192,"08/16/2014 07:00","34,9","ND","ND","ND","ND","ND"],
    [1193,"08/16/2014 08:00","51,5","ND","ND","ND","ND","ND"],
    [1194,"08/16/2014 09:00","89,8","ND","ND","ND","ND","ND"],
    [1195,"08/16/2014 10:00","127,8","ND","ND","ND","ND","ND"],
    [1196,"08/16/2014 11:00","105,1","ND","ND","ND","ND","ND"],
    [1197,"08/16/2014 12:00","50,2","ND","ND","ND","ND","ND"],
    [1198,"08/16/2014 13:00","45,7","ND","ND","ND","ND","ND"],
    [1199,"08/16/2014 14:00","48,5","ND","ND","ND","ND","ND"],
    [1200,"08/16/2014 15:00","27,6","ND","ND","ND","ND","ND"],
    [1201,"08/16/2014 16:00","30,7","ND","ND","ND","ND","ND"],
    [1202,"08/16/2014 17:00","17,1","ND","ND","ND","ND","ND"],
    [1203,"08/16/2014 18:00","44,1","ND","ND","ND","ND","ND"],
    [1204,"08/16/2014 19:00","30,7","ND","ND","ND","ND","ND"],
    [1205,"08/16/2014 20:00","25,4","ND","ND","ND","ND","ND"],
    [1206,"08/16/2014 21:00","25,4","ND","ND","ND","ND","ND"],
    [1207,"08/16/2014 22:00","23,6","ND","ND","ND","ND","ND"],
    [1208,"08/16/2014 23:00","28,2","ND","ND","ND","ND","ND"],
    [1209,"08/17/2014 00:00","72","ND","ND","ND","ND","ND"],
    [1210,"08/17/2014 01:00","56,4","ND","ND","ND","ND","ND"],
    [1211,"08/17/2014 02:00","56,4","ND","ND","ND","ND","ND"],
    [1212,"08/17/2014 03:00","47,9","ND","ND","ND","ND","ND"],
    [1213,"08/17/2014 04:00","43,1","ND","ND","ND","ND","ND"],
    [1214,"08/17/2014 05:00","35,4","ND","ND","ND","ND","ND"],
    [1215,"08/17/2014 06:00","34,2","ND","ND","ND","ND","ND"],
    [1216,"08/17/2014 07:00","39,8","ND","ND","ND","ND","ND"],
    [1217,"08/17/2014 08:00","55,8","ND","ND","ND","ND","ND"],
    [1218,"08/17/2014 09:00","51,4","ND","ND","ND","ND","ND"],
    [1219,"08/17/2014 10:00","41,2","ND","ND","ND","ND","ND"],
    [1220,"08/17/2014 11:00","49,1","ND","ND","ND","ND","ND"],
    [1221,"08/17/2014 12:00","48,5","ND","ND","ND","ND","ND"],
    [1222,"08/17/2014 13:00","44,4","ND","ND","ND","ND","ND"],
    [1223,"08/17/2014 14:00","49,7","ND","ND","ND","ND","ND"],
    [1224,"08/17/2014 15:00","49,7","ND","ND","ND","ND","ND"],
    [1225,"08/17/2014 16:00","56","ND","ND","ND","ND","ND"],
    [1226,"08/17/2014 17:00","42,1","ND","ND","ND","ND","ND"],
    [1227,"08/17/2014 18:00","35,3","ND","ND","ND","ND","ND"],
    [1228,"08/17/2014 19:00","21","ND","ND","ND","ND","ND"],
    [1229,"08/17/2014 20:00","18,3","ND","ND","ND","ND","ND"],
    [1230,"08/17/2014 21:00","27,7","ND","ND","ND","ND","ND"],
    [1231,"08/17/2014 22:00","30,7","ND","ND","ND","ND","ND"],
    [1232,"08/17/2014 23:00","31,5","ND","ND","ND","ND","ND"],
    [1233,"08/18/2014 00:00","58,5","ND","ND","ND","ND","ND"],
    [1234,"08/18/2014 01:00","68","ND","ND","ND","ND","ND"],
    [1235,"08/18/2014 02:00","52,5","ND","ND","ND","ND","ND"],
    [1236,"08/18/2014 03:00","48,3","ND","ND","ND","ND","ND"],
    [1237,"08/18/2014 04:00","34,6","ND","ND","ND","ND","ND"],
    [1238,"08/18/2014 05:00","42","ND","ND","ND","ND","ND"],
    [1239,"08/18/2014 06:00","35,3","ND","ND","ND","ND","ND"],
    [1240,"08/18/2014 07:00","43,3","ND","ND","ND","ND","ND"],
    [1241,"08/18/2014 08:00","47,5","ND","ND","ND","ND","ND"],
    [1242,"08/18/2014 09:00","42,3","ND","ND","ND","ND","ND"],
    [1243,"08/18/2014 10:00","32,5","ND","ND","ND","ND","ND"],
    [1244,"08/18/2014 11:00","38,2","ND","ND","ND","ND","ND"],
    [1245,"08/18/2014 12:00","34,4","ND","ND","ND","ND","ND"],
    [1246,"08/18/2014 13:00","36,7","ND","ND","ND","ND","ND"],
    [1247,"08/18/2014 14:00","40,3","ND","ND","ND","ND","ND"],
    [1248,"08/18/2014 15:00","25,7","ND","ND","ND","ND","ND"],
    [1249,"08/18/2014 16:00","26,4","ND","ND","ND","ND","ND"],
    [1250,"08/18/2014 17:00","32,4","ND","ND","ND","ND","ND"],
    [1251,"08/18/2014 18:00","33,7","ND","ND","ND","ND","ND"],
    [1252,"08/18/2014 19:00","26","ND","ND","ND","ND","ND"],
    [1253,"08/18/2014 20:00","21,9","ND","ND","ND","ND","ND"],
    [1254,"08/18/2014 21:00","18,5","ND","ND","ND","ND","ND"],
    [1255,"08/18/2014 22:00","16,4","ND","ND","ND","ND","ND"],
    [1256,"08/18/2014 23:00","25,7","ND","ND","ND","ND","ND"],
    [1257,"08/19/2014 00:00","13,1","ND","ND","ND","ND","ND"],
    [1258,"08/19/2014 01:00","34,2","ND","ND","ND","ND","ND"],
    [1259,"08/19/2014 02:00","21,9","ND","ND","ND","ND","ND"],
    [1260,"08/19/2014 03:00","15,7","ND","ND","ND","ND","ND"],
    [1261,"08/19/2014 04:00","12","ND","ND","ND","ND","ND"],
    [1262,"08/19/2014 05:00","18,7","ND","ND","ND","ND","ND"],
    [1263,"08/19/2014 06:00","31,6","ND","ND","ND","ND","ND"],
    [1264,"08/19/2014 07:00","37,8","ND","ND","ND","ND","ND"],
    [1265,"08/19/2014 08:00","57,8","ND","ND","ND","ND","ND"],
    [1266,"08/19/2014 09:00","65,9","ND","ND","ND","ND","ND"],
    [1267,"08/19/2014 10:00","47,9","ND","ND","ND","ND","ND"],
    [1268,"08/19/2014 11:00","34,3","ND","ND","ND","ND","ND"],
    [1269,"08/19/2014 12:00","11,5","ND","ND","ND","ND","ND"],
    [1270,"08/19/2014 13:00","19","ND","ND","ND","ND","ND"],
    [1271,"08/19/2014 14:00","16,6","ND","ND","ND","ND","ND"],
    [1272,"08/19/2014 15:00","24,6","ND","ND","ND","ND","ND"],
    [1273,"08/19/2014 16:00","29,6","ND","ND","ND","ND","ND"],
    [1274,"08/19/2014 17:00","41,5","ND","ND","ND","ND","ND"],
    [1275,"08/19/2014 18:00","73,2","ND","ND","ND","ND","ND"],
    [1276,"08/19/2014 19:00","73,9","ND","ND","ND","ND","ND"],
    [1277,"08/19/2014 20:00","73,9","ND","ND","ND","ND","ND"],
    [1278,"08/19/2014 21:00","37,8","ND","ND","ND","ND","ND"],
    [1279,"08/19/2014 22:00","25,9","ND","ND","ND","ND","ND"],
    [1280,"08/19/2014 23:00","17,5","ND","ND","ND","ND","ND"],
    [1281,"08/20/2014 00:00","55","ND","ND","ND","ND","ND"],
    [1282,"08/20/2014 01:00","15,4","ND","ND","ND","ND","ND"],
    [1283,"08/20/2014 02:00","28,6","ND","ND","ND","ND","ND"],
    [1284,"08/20/2014 03:00","26,4","ND","ND","ND","ND","ND"],
    [1285,"08/20/2014 04:00","30,7","ND","ND","ND","ND","ND"],
    [1286,"08/20/2014 05:00","30,7","ND","ND","ND","ND","ND"],
    [1287,"08/20/2014 06:00","33","ND","ND","ND","ND","ND"],
    [1288,"08/20/2014 07:00","48,7","ND","ND","ND","ND","ND"],
    [1289,"08/20/2014 08:00","71,9","ND","ND","ND","ND","ND"],
    [1290,"08/20/2014 09:00","75","ND","ND","ND","ND","ND"],
    [1291,"08/20/2014 10:00","43,7","ND","ND","ND","ND","ND"],
    [1292,"08/20/2014 11:00","41,7","ND","ND","ND","ND","ND"],
    [1293,"08/20/2014 12:00","39,1","ND","ND","ND","ND","ND"],
    [1294,"08/20/2014 13:00","44,1","ND","ND","ND","ND","ND"],
    [1295,"08/20/2014 14:00","37,6","ND","ND","ND","ND","ND"],
    [1296,"08/20/2014 15:00","33,4","ND","ND","ND","ND","ND"],
    [1297,"08/20/2014 16:00","35,3","ND","ND","ND","ND","ND"],
    [1298,"08/20/2014 17:00","40,4","ND","ND","ND","ND","ND"],
    [1299,"08/20/2014 18:00","61,1","ND","ND","ND","ND","ND"],
    [1300,"08/20/2014 19:00","42,6","ND","ND","ND","ND","ND"],
    [1301,"08/20/2014 20:00","34,7","ND","ND","ND","ND","ND"],
    [1302,"08/20/2014 21:00","26,1","ND","ND","ND","ND","ND"],
    [1303,"08/20/2014 22:00","57,8","ND","ND","ND","ND","ND"],
    [1304,"08/20/2014 23:00","64,2","ND","ND","ND","ND","ND"],
    [1305,"08/21/2014 00:00","43,4","ND","ND","ND","ND","ND"],
    [1306,"08/21/2014 01:00","40,8","ND","ND","ND","ND","ND"],
    [1307,"08/21/2014 02:00","31,5","ND","ND","ND","ND","ND"],
    [1308,"08/21/2014 03:00","31,7","ND","ND","ND","ND","ND"],
    [1309,"08/21/2014 04:00","30,3","ND","ND","ND","ND","ND"],
    [1310,"08/21/2014 05:00","31,7","ND","ND","ND","ND","ND"],
    [1311,"08/21/2014 06:00","45,1","ND","ND","ND","ND","ND"],
    [1312,"08/21/2014 07:00","74","ND","ND","ND","ND","ND"],
    [1313,"08/21/2014 08:00","84,1","ND","ND","ND","ND","ND"],
    [1314,"08/21/2014 09:00","97,8","ND","ND","ND","ND","ND"],
    [1315,"08/21/2014 10:00","102,4","ND","ND","ND","ND","ND"],
    [1316,"08/21/2014 11:00","50","ND","ND","ND","ND","ND"],
    [1317,"08/21/2014 12:00","27,3","ND","ND","ND","ND","ND"],
    [1318,"08/21/2014 13:00","30,9","ND","ND","ND","ND","ND"],
    [1319,"08/21/2014 14:00","43,6","ND","ND","ND","ND","ND"],
    [1320,"08/21/2014 15:00","58,4","ND","ND","ND","ND","ND"],
    [1321,"08/21/2014 16:00","84,5","ND","ND","ND","ND","ND"],
    [1322,"08/21/2014 17:00","26,3","ND","ND","ND","ND","ND"],
    [1323,"08/21/2014 18:00","24,4","ND","ND","ND","ND","ND"],
    [1324,"08/21/2014 19:00","43,4","ND","ND","ND","ND","ND"],
    [1325,"08/21/2014 20:00","23,7","ND","ND","ND","ND","ND"],
    [1326,"08/21/2014 21:00","29,3","ND","ND","ND","ND","ND"],
    [1327,"08/21/2014 22:00","33,2","ND","ND","ND","ND","ND"],
    [1328,"08/21/2014 23:00","16","ND","ND","ND","ND","ND"],
    [1329,"08/22/2014 00:00","60,8","ND","ND","ND","ND","ND"],
    [1330,"08/22/2014 01:00","68,5","ND","ND","ND","ND","ND"],
    [1331,"08/22/2014 02:00","60,5","ND","ND","ND","ND","ND"],
    [1332,"08/22/2014 03:00","64,8","ND","ND","ND","ND","ND"],
    [1333,"08/22/2014 04:00","62,2","ND","ND","ND","ND","ND"],
    [1334,"08/22/2014 05:00","50,9","ND","ND","ND","ND","ND"],
    [1335,"08/22/2014 06:00","66,6","ND","ND","ND","ND","ND"],
    [1336,"08/22/2014 07:00","80,1","ND","ND","ND","ND","ND"],
    [1337,"08/22/2014 08:00","86","ND","ND","ND","ND","ND"],
    [1338,"08/22/2014 09:00","121,6","ND","ND","ND","ND","ND"],
    [1339,"08/22/2014 10:00","95,4","ND","ND","ND","ND","ND"],
    [1340,"08/22/2014 11:00","68,7","ND","ND","ND","ND","ND"],
    [1341,"08/22/2014 12:00","59,3","ND","ND","ND","ND","ND"],
    [1342,"08/22/2014 13:00","61,5","ND","ND","ND","ND","ND"],
    [1343,"08/22/2014 14:00","65,9","ND","ND","ND","ND","ND"],
    [1344,"08/22/2014 15:00","22,9","ND","ND","ND","ND","ND"],
    [1345,"08/22/2014 16:00","23,9","ND","ND","ND","ND","ND"],
    [1346,"08/22/2014 17:00","29,1","ND","ND","ND","ND","ND"],
    [1347,"08/22/2014 18:00","27,8","ND","ND","ND","ND","ND"],
    [1348,"08/22/2014 19:00","40,3","ND","ND","ND","ND","ND"],
    [1349,"08/22/2014 20:00","22,3","ND","ND","ND","ND","ND"],
    [1350,"08/22/2014 21:00","16,7","ND","ND","ND","ND","ND"],
    [1351,"08/22/2014 22:00","12,8","ND","ND","ND","ND","ND"],
    [1352,"08/22/2014 23:00","19,2","ND","ND","ND","ND","ND"],
    [1353,"08/23/2014 00:00","64","ND","ND","ND","ND","ND"],
    [1354,"08/23/2014 01:00","63,5","ND","ND","ND","ND","ND"],
    [1355,"08/23/2014 02:00","41,3","ND","ND","ND","ND","ND"],
    [1356,"08/23/2014 03:00","41","ND","ND","ND","ND","ND"],
    [1357,"08/23/2014 04:00","42,6","ND","ND","ND","ND","ND"],
    [1358,"08/23/2014 05:00","36,9","ND","ND","ND","ND","ND"],
    [1359,"08/23/2014 06:00","38,8","ND","ND","ND","ND","ND"],
    [1360,"08/23/2014 07:00","40,9","ND","ND","ND","ND","ND"],
    [1361,"08/23/2014 08:00","55,8","ND","ND","ND","ND","ND"],
    [1362,"08/23/2014 09:00","51,7","ND","ND","ND","ND","ND"],
    [1363,"08/23/2014 10:00","50,5","ND","ND","ND","ND","ND"],
    [1364,"08/23/2014 11:00","63,9","ND","ND","ND","ND","ND"],
    [1365,"08/23/2014 12:00","71,4","ND","ND","ND","ND","ND"],
    [1366,"08/23/2014 13:00","71,4","ND","ND","ND","ND","ND"],
    [1367,"08/23/2014 14:00","39,7","ND","ND","ND","ND","ND"],
    [1368,"08/23/2014 15:00","39,7","ND","ND","ND","ND","ND"],
    [1369,"08/23/2014 16:00","23,4","ND","ND","ND","ND","ND"],
    [1370,"08/23/2014 17:00","18,6","ND","ND","ND","ND","ND"],
    [1371,"08/23/2014 18:00","14,2","ND","ND","ND","ND","ND"],
    [1372,"08/23/2014 19:00","17,1","ND","ND","ND","ND","ND"],
    [1373,"08/23/2014 20:00","13,7","ND","ND","ND","ND","ND"],
    [1374,"08/23/2014 21:00","11,4","ND","ND","ND","ND","ND"],
    [1375,"08/23/2014 22:00","23,4","ND","ND","ND","ND","ND"],
    [1376,"08/23/2014 23:00","62,7","ND","ND","ND","ND","ND"],
    [1377,"08/24/2014 00:00","56,2","ND","ND","ND","ND","ND"],
    [1378,"08/24/2014 01:00","58,1","ND","ND","ND","ND","ND"],
    [1379,"08/24/2014 02:00","36,9","ND","ND","ND","ND","ND"],
    [1380,"08/24/2014 03:00","37,3","ND","ND","ND","ND","ND"],
    [1381,"08/24/2014 04:00","33","ND","ND","ND","ND","ND"],
    [1382,"08/24/2014 05:00","42","ND","ND","ND","ND","ND"],
    [1383,"08/24/2014 06:00","42","ND","ND","ND","ND","ND"],
    [1384,"08/24/2014 07:00","39,4","ND","ND","ND","ND","ND"],
    [1385,"08/24/2014 08:00","45,7","ND","ND","ND","ND","ND"],
    [1386,"08/24/2014 09:00","47,4","ND","ND","ND","ND","ND"],
    [1387,"08/24/2014 10:00","44,1","ND","ND","ND","ND","ND"],
    [1388,"08/24/2014 11:00","33,9","ND","ND","ND","ND","ND"],
    [1389,"08/24/2014 12:00","41,1","ND","ND","ND","ND","ND"],
    [1390,"08/24/2014 13:00","47,5","ND","ND","ND","ND","ND"],
    [1391,"08/24/2014 14:00","48,1","ND","ND","ND","ND","ND"],
    [1392,"08/24/2014 15:00","40,6","ND","ND","ND","ND","ND"],
    [1393,"08/24/2014 16:00","12,8","ND","ND","ND","ND","ND"],
    [1394,"08/24/2014 17:00","10,9","ND","ND","ND","ND","ND"],
    [1395,"08/24/2014 18:00","22,5","ND","ND","ND","ND","ND"],
    [1396,"08/24/2014 19:00","24,9","ND","ND","ND","ND","ND"],
    [1397,"08/24/2014 20:00","20,9","ND","ND","ND","ND","ND"],
    [1398,"08/24/2014 21:00","9,3","ND","ND","ND","ND","ND"],
    [1399,"08/24/2014 22:00","24,9","ND","ND","ND","ND","ND"],
    [1400,"08/24/2014 23:00","47,3","ND","ND","ND","ND","ND"],
    [1401,"08/25/2014 00:00","49","ND","ND","ND","ND","ND"],
    [1402,"08/25/2014 01:00","35,1","ND","ND","ND","ND","ND"],
    [1403,"08/25/2014 02:00","26,2","ND","ND","ND","ND","ND"],
    [1404,"08/25/2014 03:00","33,6","ND","ND","ND","ND","ND"],
    [1405,"08/25/2014 04:00","24","ND","ND","ND","ND","ND"],
    [1406,"08/25/2014 05:00","25,3","ND","ND","ND","ND","ND"],
    [1407,"08/25/2014 06:00","33,2","ND","ND","ND","ND","ND"],
    [1408,"08/25/2014 07:00","49,1","ND","ND","ND","ND","ND"],
    [1409,"08/25/2014 08:00","72,8","ND","ND","ND","ND","ND"],
    [1410,"08/25/2014 09:00","80,9","ND","ND","ND","ND","ND"],
    [1411,"08/25/2014 10:00","75,7","ND","ND","ND","ND","ND"],
    [1412,"08/25/2014 11:00","51,6","ND","ND","ND","ND","ND"],
    [1413,"08/25/2014 12:00","51,1","ND","ND","ND","ND","ND"],
    [1414,"08/25/2014 13:00","48,9","ND","ND","ND","ND","ND"],
    [1415,"08/25/2014 14:00","43,1","ND","ND","ND","ND","ND"],
    [1416,"08/25/2014 15:00","12","ND","ND","ND","ND","ND"],
    [1417,"08/25/2014 16:00","15,4","ND","ND","ND","ND","ND"],
    [1418,"08/25/2014 17:00","32,4","ND","ND","ND","ND","ND"],
    [1419,"08/25/2014 18:00","11,7","ND","ND","ND","ND","ND"],
    [1420,"08/25/2014 19:00","17,3","ND","ND","ND","ND","ND"],
    [1421,"08/25/2014 20:00","39,7","ND","ND","ND","ND","ND"],
    [1422,"08/25/2014 21:00","60,1","ND","ND","ND","ND","ND"],
    [1423,"08/25/2014 22:00","52,5","ND","ND","ND","ND","ND"],
    [1424,"08/25/2014 23:00","53,7","ND","ND","ND","ND","ND"],
    [1425,"08/26/2014 00:00","24,2","ND","ND","ND","ND","ND"],
    [1426,"08/26/2014 01:00","44","ND","ND","ND","ND","ND"],
    [1427,"08/26/2014 02:00","34,8","ND","ND","ND","ND","ND"],
    [1428,"08/26/2014 03:00","32,2","ND","ND","ND","ND","ND"],
    [1429,"08/26/2014 04:00","29,5","ND","ND","ND","ND","ND"],
    [1430,"08/26/2014 05:00","28,7","ND","ND","ND","ND","ND"],
    [1431,"08/26/2014 06:00","33,2","ND","ND","ND","ND","ND"],
    [1432,"08/26/2014 07:00","44,1","ND","ND","ND","ND","ND"],
    [1433,"08/26/2014 08:00","60,2","ND","ND","ND","ND","ND"],
    [1434,"08/26/2014 09:00","65,4","ND","ND","ND","ND","ND"],
    [1435,"08/26/2014 10:00","59,6","ND","ND","ND","ND","ND"],
    [1436,"08/26/2014 11:00","91,2","ND","ND","ND","ND","ND"],
    [1437,"08/26/2014 12:00","51,6","ND","ND","ND","ND","ND"],
    [1438,"08/26/2014 13:00","46","ND","ND","ND","ND","ND"],
    [1439,"08/26/2014 14:00","42,4","ND","ND","ND","ND","ND"],
    [1440,"08/26/2014 15:00","8,8","ND","ND","ND","ND","ND"],
    [1441,"08/26/2014 16:00","17,2","ND","ND","ND","ND","ND"],
    [1442,"08/26/2014 17:00","20,8","ND","ND","ND","ND","ND"],
    [1443,"08/26/2014 18:00","18,8","ND","ND","ND","ND","ND"],
    [1444,"08/26/2014 19:00","11,6","ND","ND","ND","ND","ND"],
    [1445,"08/26/2014 20:00","20,1","ND","ND","ND","ND","ND"],
    [1446,"08/26/2014 21:00","21,3","ND","ND","ND","ND","ND"],
    [1447,"08/26/2014 22:00","50,4","ND","ND","ND","ND","ND"],
    [1448,"08/26/2014 23:00","43,9","ND","ND","ND","ND","ND"],
    [1449,"08/27/2014 00:00","34","ND","ND","ND","ND","ND"],
    [1450,"08/27/2014 01:00","22,7","ND","ND","ND","ND","ND"],
    [1451,"08/27/2014 02:00","42,3","ND","ND","ND","ND","ND"],
    [1452,"08/27/2014 03:00","27","ND","ND","ND","ND","ND"],
    [1453,"08/27/2014 04:00","21,2","ND","ND","ND","ND","ND"],
    [1454,"08/27/2014 05:00","15,2","ND","ND","ND","ND","ND"],
    [1455,"08/27/2014 06:00","19,3","ND","ND","ND","ND","ND"],
    [1456,"08/27/2014 07:00","33,3","ND","ND","ND","ND","ND"],
    [1457,"08/27/2014 08:00","36,7","ND","ND","ND","ND","ND"],
    [1458,"08/27/2014 09:00","45,6","ND","ND","ND","ND","ND"],
    [1459,"08/27/2014 10:00","42,6","ND","ND","ND","ND","ND"],
    [1460,"08/27/2014 11:00","38,7","ND","ND","ND","ND","ND"],
    [1461,"08/27/2014 12:00","39,1","ND","ND","ND","ND","ND"],
    [1462,"08/27/2014 13:00","32,4","ND","ND","ND","ND","ND"],
    [1463,"08/27/2014 14:00","29,1","ND","ND","ND","ND","ND"],
    [1464,"08/27/2014 15:00","29,5","ND","ND","ND","ND","ND"],
    [1465,"08/27/2014 16:00","37,3","ND","ND","ND","ND","ND"],
    [1466,"08/27/2014 17:00","38,3","ND","ND","ND","ND","ND"],
    [1467,"08/27/2014 18:00","26,9","ND","ND","ND","ND","ND"],
    [1468,"08/27/2014 19:00","1","ND","ND","ND","ND","ND"],
    [1469,"08/27/2014 20:00","3,7","ND","ND","ND","ND","ND"],
    [1470,"08/27/2014 21:00","4,8","ND","ND","ND","ND","ND"],
    [1471,"08/27/2014 22:00","2,5","ND","ND","ND","ND","ND"],
    [1472,"08/27/2014 23:00","27,6","ND","ND","ND","ND","ND"],
    [1473,"08/28/2014 00:00","59,6","ND","ND","ND","ND","ND"],
    [1474,"08/28/2014 01:00","35,9","ND","ND","ND","ND","ND"],
    [1475,"08/28/2014 02:00","18,6","ND","ND","ND","ND","ND"],
    [1476,"08/28/2014 03:00","26,4","ND","ND","ND","ND","ND"],
    [1477,"08/28/2014 04:00","27,6","ND","ND","ND","ND","ND"],
    [1478,"08/28/2014 05:00","27","ND","ND","ND","ND","ND"],
    [1479,"08/28/2014 06:00","33,7","ND","ND","ND","ND","ND"],
    [1480,"08/28/2014 07:00","34,1","ND","ND","ND","ND","ND"],
    [1481,"08/28/2014 08:00","47,8","ND","ND","ND","ND","ND"],
    [1482,"08/28/2014 09:00","52,3","ND","ND","ND","ND","ND"],
    [1483,"08/28/2014 10:00","44,5","ND","ND","ND","ND","ND"],
    [1484,"08/28/2014 11:00","39,3","ND","ND","ND","ND","ND"],
    [1485,"08/28/2014 12:00","31,6","ND","ND","ND","ND","ND"],
    [1486,"08/28/2014 13:00","40,8","ND","ND","ND","ND","ND"],
    [1487,"08/28/2014 14:00","41,3","ND","ND","ND","ND","ND"],
    [1488,"08/28/2014 15:00","54,6","ND","ND","ND","ND","ND"],
    [1489,"08/28/2014 16:00","31,8","ND","ND","ND","ND","ND"],
    [1490,"08/28/2014 17:00","29,8","ND","ND","ND","ND","ND"],
    [1491,"08/28/2014 18:00","34,5","ND","ND","ND","ND","ND"],
    [1492,"08/28/2014 19:00","11,4","ND","ND","ND","ND","ND"],
    [1493,"08/28/2014 20:00","45,2","ND","ND","ND","ND","ND"],
    [1494,"08/28/2014 21:00","76,4","ND","ND","ND","ND","ND"],
    [1495,"08/28/2014 22:00","90,6","ND","ND","ND","ND","ND"],
    [1496,"08/28/2014 23:00","80,7","ND","ND","ND","ND","ND"],
    [1497,"08/29/2014 00:00","36,3","ND","ND","ND","ND","ND"],
    [1498,"08/29/2014 01:00","50,5","ND","ND","ND","ND","ND"],
    [1499,"08/29/2014 02:00","34,3","ND","ND","ND","ND","ND"],
    [1500,"08/29/2014 03:00","29,2","ND","ND","ND","ND","ND"],
    [1501,"08/29/2014 04:00","26,1","ND","ND","ND","ND","ND"],
    [1502,"08/29/2014 05:00","28,1","ND","ND","ND","ND","ND"],
    [1503,"08/29/2014 06:00","31,9","ND","ND","ND","ND","ND"],
    [1504,"08/29/2014 07:00","54,2","ND","ND","ND","ND","ND"],
    [1505,"08/29/2014 08:00","87,2","ND","ND","ND","ND","ND"],
    [1506,"08/29/2014 09:00","95,8","ND","ND","ND","ND","ND"],
    [1507,"08/29/2014 10:00","89,3","ND","ND","ND","ND","ND"],
    [1508,"08/29/2014 11:00","50,4","ND","ND","ND","ND","ND"],
    [1509,"08/29/2014 12:00","37,2","ND","ND","ND","ND","ND"],
    [1510,"08/29/2014 13:00","48,8","ND","ND","ND","ND","ND"],
    [1511,"08/29/2014 14:00","65,5","ND","ND","ND","ND","ND"],
    [1512,"08/29/2014 15:00","84,5","ND","ND","ND","ND","ND"],
    [1513,"08/29/2014 16:00","75,9","ND","ND","ND","ND","ND"],
    [1514,"08/29/2014 17:00","62,4","ND","ND","ND","ND","ND"],
    [1515,"08/29/2014 18:00","30,6","ND","ND","ND","ND","ND"],
    [1516,"08/29/2014 19:00","30,8","ND","ND","ND","ND","ND"],
    [1517,"08/29/2014 20:00","14,1","ND","ND","ND","ND","ND"],
    [1518,"08/29/2014 21:00","19","ND","ND","ND","ND","ND"],
    [1519,"08/29/2014 22:00","19","ND","ND","ND","ND","ND"],
    [1520,"08/29/2014 23:00","47,9","ND","ND","ND","ND","ND"],
    [1521,"08/30/2014 00:00","55,3","ND","ND","ND","ND","ND"],
    [1522,"08/30/2014 01:00","69,4","ND","ND","ND","ND","ND"],
    [1523,"08/30/2014 02:00","64","ND","ND","ND","ND","ND"],
    [1524,"08/30/2014 03:00","48,1","ND","ND","ND","ND","ND"],
    [1525,"08/30/2014 04:00","28,1","ND","ND","ND","ND","ND"],
    [1526,"08/30/2014 05:00","24,3","ND","ND","ND","ND","ND"],
    [1527,"08/30/2014 06:00","27","ND","ND","ND","ND","ND"],
    [1528,"08/30/2014 07:00","34,9","ND","ND","ND","ND","ND"],
    [1529,"08/30/2014 08:00","48,8","ND","ND","ND","ND","ND"],
    [1530,"08/30/2014 09:00","68,2","ND","ND","ND","ND","ND"],
    [1531,"08/30/2014 10:00","87,4","ND","ND","ND","ND","ND"],
    [1532,"08/30/2014 11:00","48,1","ND","ND","ND","ND","ND"],
    [1533,"08/30/2014 12:00","36,7","ND","ND","ND","ND","ND"],
    [1534,"08/30/2014 13:00","43","ND","ND","ND","ND","ND"],
    [1535,"08/30/2014 14:00","35,9","ND","ND","ND","ND","ND"],
    [1536,"08/30/2014 15:00","33,1","ND","ND","ND","ND","ND"],
    [1537,"08/30/2014 16:00","28,1","ND","ND","ND","ND","ND"],
    [1538,"08/30/2014 17:00","54,9","ND","ND","ND","ND","ND"],
    [1539,"08/30/2014 18:00","35","ND","ND","ND","ND","ND"],
    [1540,"08/30/2014 19:00","29,4","ND","ND","ND","ND","ND"],
    [1541,"08/30/2014 20:00","32","ND","ND","ND","ND","ND"],
    [1542,"08/30/2014 21:00","23,1","ND","ND","ND","ND","ND"],
    [1543,"08/30/2014 22:00","17,4","ND","ND","ND","ND","ND"],
    [1544,"08/30/2014 23:00","31,2","ND","ND","ND","ND","ND"],
    [1545,"08/31/2014 00:00","68,2","ND","ND","ND","ND","ND"],
    [1546,"08/31/2014 01:00","49,2","ND","ND","ND","ND","ND"],
    [1547,"08/31/2014 02:00","29,7","ND","ND","ND","ND","ND"],
    [1548,"08/31/2014 03:00","26,8","ND","ND","ND","ND","ND"],
    [1549,"08/31/2014 04:00","34,1","ND","ND","ND","ND","ND"],
    [1550,"08/31/2014 05:00","29,3","ND","ND","ND","ND","ND"],
    [1551,"08/31/2014 06:00","33,2","ND","ND","ND","ND","ND"],
    [1552,"08/31/2014 07:00","29,1","ND","ND","ND","ND","ND"],
    [1553,"08/31/2014 08:00","43","ND","ND","ND","ND","ND"],
    [1554,"08/31/2014 09:00","49,3","ND","ND","ND","ND","ND"],
    [1555,"08/31/2014 10:00","55,1","ND","ND","ND","ND","ND"],
    [1556,"08/31/2014 11:00","42,9","ND","ND","ND","ND","ND"],
    [1557,"08/31/2014 12:00","36,7","ND","ND","ND","ND","ND"],
    [1558,"08/31/2014 13:00","44,5","ND","ND","ND","ND","ND"],
    [1559,"08/31/2014 14:00","38","ND","ND","ND","ND","ND"],
    [1560,"08/31/2014 15:00","66,8","ND","ND","ND","ND","ND"],
    [1561,"08/31/2014 16:00","25,3","ND","ND","ND","ND","ND"],
    [1562,"08/31/2014 17:00","39,3","ND","ND","ND","ND","ND"],
    [1563,"08/31/2014 18:00","141,4","ND","ND","ND","ND","ND"],
    [1564,"08/31/2014 19:00","183,2","ND","ND","ND","ND","ND"],
    [1565,"08/31/2014 20:00","120,7","ND","ND","ND","ND","ND"],
    [1566,"08/31/2014 21:00","122","ND","ND","ND","ND","ND"],
    [1567,"08/31/2014 22:00","99","ND","ND","ND","ND","ND"],
    [1568,"08/31/2014 23:00","55,9","ND","ND","ND","ND","ND"],
    [1569,"41648","ND","ND","ND","ND","ND","ND"],
    [1570,"41648,04167","48,8","ND","ND","ND","ND","ND"],
    [1571,"41648,08333","39,7","ND","ND","ND","ND","ND"],
    [1572,"41648,125","37,6","ND","ND","ND","ND","ND"],
    [1573,"41648,16667","50,4","ND","ND","ND","ND","ND"],
    [1574,"41648,20833","52,5","ND","ND","ND","ND","ND"],
    [1575,"41648,25","50","ND","ND","ND","ND","ND"],
    [1576,"41648,29167","116,3","ND","ND","ND","ND","ND"],
    [1577,"41648,33333","90,1","ND","ND","ND","ND","ND"],
    [1578,"41648,375","100,4","ND","ND","ND","ND","ND"],
    [1579,"41648,41667","100,4","ND","ND","ND","ND","ND"],
    [1580,"41648,45833","53,1","ND","ND","ND","ND","ND"],
    [1581,"41648,5","52,4","ND","ND","ND","ND","ND"],
    [1582,"41648,54167","58,3","ND","ND","ND","ND","ND"],
    [1583,"41648,58333","66,4","ND","ND","ND","ND","ND"],
    [1584,"41648,625","28,7","ND","ND","ND","ND","ND"],
    [1585,"41648,66667","50,7","ND","ND","ND","ND","ND"],
    [1586,"41648,70833","45,6","ND","ND","ND","ND","ND"],
    [1587,"41648,75","49,8","ND","ND","ND","ND","ND"],
    [1588,"41648,79167","58,6","ND","ND","ND","ND","ND"],
    [1589,"41648,83333","28,6","ND","ND","ND","ND","ND"],
    [1590,"41648,875","58","ND","ND","ND","ND","ND"],
    [1591,"41648,91667","61","ND","ND","ND","ND","ND"],
    [1592,"41648,95833","78,6","ND","ND","ND","ND","ND"],
    [1593,"41679","33,9","ND","ND","ND","ND","ND"],
    [1594,"41679,04167","73,7","ND","ND","ND","ND","ND"],
    [1595,"41679,08333","167,3","ND","ND","ND","ND","ND"],
    [1596,"41679,125","73,8","ND","ND","ND","ND","ND"],
    [1597,"41679,16667","48,7","ND","ND","ND","ND","ND"],
    [1598,"41679,20833","35,1","ND","ND","ND","ND","ND"],
    [1599,"41679,25","35,6","ND","ND","ND","ND","ND"],
    [1600,"41679,29167","57,5","ND","ND","ND","ND","ND"],
    [1601,"41679,33333","62","ND","ND","ND","ND","ND"],
    [1602,"41679,375","61,4","ND","ND","ND","ND","ND"],
    [1603,"41679,41667","52,6","ND","ND","ND","ND","ND"],
    [1604,"41679,45833","36,5","ND","ND","ND","ND","ND"],
    [1605,"41679,5","84,4","ND","ND","ND","ND","ND"],
    [1606,"41679,54167","76,7","ND","ND","ND","ND","ND"],
    [1607,"41679,58333","38,1","ND","ND","ND","ND","ND"],
    [1608,"41679,625","8","ND","ND","ND","ND","ND"],
    [1609,"41679,66667","30","ND","ND","ND","ND","ND"],
    [1610,"41679,70833","2,7","ND","ND","ND","ND","ND"],
    [1611,"41679,75","0,5","ND","ND","ND","ND","ND"],
    [1612,"41679,79167","1,6","ND","ND","ND","ND","ND"],
    [1613,"41679,83333","20,5","ND","ND","ND","ND","ND"],
    [1614,"41679,875","61,4","ND","ND","ND","ND","ND"],
    [1615,"41679,91667","33,8","ND","ND","ND","ND","ND"],
    [1616,"41679,95833","33,2","ND","ND","ND","ND","ND"],
    [1617,"41707","24,8","ND","ND","ND","ND","ND"],
    [1618,"41707,04167","41,2","ND","ND","ND","ND","ND"],
    [1619,"41707,08333","29,3","ND","ND","ND","ND","ND"],
    [1620,"41707,125","28,4","ND","ND","ND","ND","ND"],
    [1621,"41707,16667","19,3","ND","ND","ND","ND","ND"],
    [1622,"41707,20833","18,7","ND","ND","ND","ND","ND"],
    [1623,"41707,25","15,9","ND","ND","ND","ND","ND"],
    [1624,"41707,29167","42","ND","ND","ND","ND","ND"],
    [1625,"41707,33333","80","ND","ND","ND","ND","ND"],
    [1626,"41707,375","103,4","ND","ND","ND","ND","ND"],
    [1627,"41707,41667","95,2","ND","ND","ND","ND","ND"],
    [1628,"41707,45833","71","ND","ND","ND","ND","ND"],
    [1629,"41707,5","59","ND","ND","ND","ND","ND"],
    [1630,"41707,54167","59","ND","ND","ND","ND","ND"],
    [1631,"41707,58333","52,7","ND","ND","ND","ND","ND"],
    [1632,"41707,625","51,6","ND","ND","ND","ND","ND"],
    [1633,"41707,66667","11,8","ND","ND","ND","ND","ND"],
    [1634,"41707,70833","4","ND","ND","ND","ND","ND"],
    [1635,"41707,75","10,6","ND","ND","ND","ND","ND"],
    [1636,"41707,79167","19,1","ND","ND","ND","ND","ND"],
    [1637,"41707,83333","10,3","ND","ND","ND","ND","ND"],
    [1638,"41707,875","9,5","ND","ND","ND","ND","ND"],
    [1639,"41707,91667","11,8","ND","ND","ND","ND","ND"],
    [1640,"41707,95833","13,4","ND","ND","ND","ND","ND"],
    [1641,"41738","35,1","ND","ND","ND","ND","ND"],
    [1642,"41738,04167","40,8","ND","ND","ND","ND","ND"],
    [1643,"41738,08333","46,4","ND","ND","ND","ND","ND"],
    [1644,"41738,125","29,2","ND","ND","ND","ND","ND"],
    [1645,"41738,16667","26,1","ND","ND","ND","ND","ND"],
    [1646,"41738,20833","12,9","ND","ND","ND","ND","ND"],
    [1647,"41738,25","24,3","ND","ND","ND","ND","ND"],
    [1648,"41738,29167","34,6","ND","ND","ND","ND","ND"],
    [1649,"41738,33333","47,7","ND","ND","ND","ND","ND"],
    [1650,"41738,375","47,7","ND","ND","ND","ND","ND"],
    [1651,"41738,41667","53,3","ND","ND","ND","ND","ND"],
    [1652,"41738,45833","97,3","ND","ND","ND","ND","ND"],
    [1653,"41738,5","92,1","ND","ND","ND","ND","ND"],
    [1654,"41738,54167","49,7","ND","ND","ND","ND","ND"],
    [1655,"41738,58333","36,1","ND","ND","ND","ND","ND"],
    [1656,"41738,625","46,8","ND","ND","ND","ND","ND"],
    [1657,"41738,66667","39,6","ND","ND","ND","ND","ND"],
    [1658,"41738,70833","46,1","ND","ND","ND","ND","ND"],
    [1659,"41738,75","18","ND","ND","ND","ND","ND"],
    [1660,"41738,79167","8,5","ND","ND","ND","ND","ND"],
    [1661,"41738,83333","4,4","ND","ND","ND","ND","ND"],
    [1662,"41738,875","26,9","ND","ND","ND","ND","ND"],
    [1663,"41738,91667","6,6","ND","ND","ND","ND","ND"],
    [1664,"41738,95833","23,8","ND","ND","ND","ND","ND"],
    [1665,"41768","61,6","ND","ND","ND","ND","ND"],
    [1666,"41768,04167","71,9","ND","ND","ND","ND","ND"],
    [1667,"41768,08333","49,9","ND","ND","ND","ND","ND"],
    [1668,"41768,125","40","ND","ND","ND","ND","ND"],
    [1669,"41768,16667","42,2","ND","ND","ND","ND","ND"],
    [1670,"41768,20833","33,4","ND","ND","ND","ND","ND"],
    [1671,"41768,25","39,3","ND","ND","ND","ND","ND"],
    [1672,"41768,29167","39,3","ND","ND","ND","ND","ND"],
    [1673,"41768,33333","127,2","ND","ND","ND","ND","ND"],
    [1674,"41768,375","84,6","ND","ND","ND","ND","ND"],
    [1675,"41768,41667","70,2","ND","ND","ND","ND","ND"],
    [1676,"41768,45833","55,5","ND","ND","ND","ND","ND"],
    [1677,"41768,5","37,2","ND","ND","ND","ND","ND"],
    [1678,"41768,54167","51,1","ND","ND","ND","ND","ND"],
    [1679,"41768,58333","54,9","ND","ND","ND","ND","ND"],
    [1680,"41768,625","64,9","ND","ND","ND","ND","ND"],
    [1681,"41768,66667","42,6","ND","ND","ND","ND","ND"],
    [1682,"41768,70833","28,7","ND","ND","ND","ND","ND"],
    [1683,"41768,75","27","ND","ND","ND","ND","ND"],
    [1684,"41768,79167","24,5","ND","ND","ND","ND","ND"],
    [1685,"41768,83333","18,5","ND","ND","ND","ND","ND"],
    [1686,"41768,875","14,8","ND","ND","ND","ND","ND"],
    [1687,"41768,91667","24,9","ND","ND","ND","ND","ND"],
    [1688,"41768,95833","32,4","ND","ND","ND","ND","ND"],
    [1689,"41799","51","ND","ND","ND","ND","ND"],
    [1690,"41799,04167","63,4","ND","ND","ND","ND","ND"],
    [1691,"41799,08333","91","ND","ND","ND","ND","ND"],
    [1692,"41799,125","36,2","ND","ND","ND","ND","ND"],
    [1693,"41799,16667","41,5","ND","ND","ND","ND","ND"],
    [1694,"41799,20833","54,9","ND","ND","ND","ND","ND"],
    [1695,"41799,25","44,1","ND","ND","ND","ND","ND"],
    [1696,"41799,29167","51,3","ND","ND","ND","ND","ND"],
    [1697,"41799,33333","78,4","ND","ND","ND","ND","ND"],
    [1698,"41799,375","66,6","ND","ND","ND","ND","ND"],
    [1699,"41799,41667","102","ND","ND","ND","ND","ND"],
    [1700,"41799,45833","71,2","ND","ND","ND","ND","ND"],
    [1701,"41799,5","51,3","ND","ND","ND","ND","ND"],
    [1702,"41799,54167","61,2","ND","ND","ND","ND","ND"],
    [1703,"41799,58333","64,3","ND","ND","ND","ND","ND"],
    [1704,"41799,625","50,6","ND","ND","ND","ND","ND"],
    [1705,"41799,66667","50,6","ND","ND","ND","ND","ND"],
    [1706,"41799,70833","20,1","ND","ND","ND","ND","ND"],
    [1707,"41799,75","25,1","ND","ND","ND","ND","ND"],
    [1708,"41799,79167","19,2","ND","ND","ND","ND","ND"],
    [1709,"41799,83333","20,7","ND","ND","ND","ND","ND"],
    [1710,"41799,875","15,7","ND","ND","ND","ND","ND"],
    [1711,"41799,91667","16,5","ND","ND","ND","ND","ND"],
    [1712,"41799,95833","21,1","ND","ND","ND","ND","ND"],
    [1713,"41829","49,4","ND","ND","ND","ND","ND"],
    [1714,"41829,04167","38,9","ND","ND","ND","ND","ND"],
    [1715,"41829,08333","34,5","ND","ND","ND","ND","ND"],
    [1716,"41829,125","34,5","ND","ND","ND","ND","ND"],
    [1717,"41829,16667","29,4","ND","ND","ND","ND","ND"],
    [1718,"41829,20833","33,1","ND","ND","ND","ND","ND"],
    [1719,"41829,25","34,1","ND","ND","ND","ND","ND"],
    [1720,"41829,29167","38,4","ND","ND","ND","ND","ND"],
    [1721,"41829,33333","56,1","ND","ND","ND","ND","ND"],
    [1722,"41829,375","54,4","ND","ND","ND","ND","ND"],
    [1723,"41829,41667","64","ND","ND","ND","ND","ND"],
    [1724,"41829,45833","48,5","ND","ND","ND","ND","ND"],
    [1725,"41829,5","36,3","ND","ND","ND","ND","ND"],
    [1726,"41829,54167","38,8","ND","ND","ND","ND","ND"],
    [1727,"41829,58333","32,2","ND","ND","ND","ND","ND"],
    [1728,"41829,625","41,6","ND","ND","ND","ND","ND"],
    [1729,"41829,66667","41,6","ND","ND","ND","ND","ND"],
    [1730,"41829,70833","39,3","ND","ND","ND","ND","ND"],
    [1731,"41829,75","39,3","ND","ND","ND","ND","ND"],
    [1732,"41829,79167","17,7","ND","ND","ND","ND","ND"],
    [1733,"41829,83333","13,3","ND","ND","ND","ND","ND"],
    [1734,"41829,875","10,2","ND","ND","ND","ND","ND"],
    [1735,"41829,91667","40,5","ND","ND","ND","ND","ND"],
    [1736,"41829,95833","58,7","ND","ND","ND","ND","ND"],
    [1737,"41860","24,3","ND","ND","ND","ND","ND"],
    [1738,"41860,04167","30,7","ND","ND","ND","ND","ND"],
    [1739,"41860,08333","29,6","ND","ND","ND","ND","ND"],
    [1740,"41860,125","49,6","ND","ND","ND","ND","ND"],
    [1741,"41860,16667","51,8","ND","ND","ND","ND","ND"],
    [1742,"41860,20833","36,5","ND","ND","ND","ND","ND"],
    [1743,"41860,25","35,8","ND","ND","ND","ND","ND"],
    [1744,"41860,29167","39,6","ND","ND","ND","ND","ND"],
    [1745,"41860,33333","46,8","ND","ND","ND","ND","ND"],
    [1746,"41860,375","79,7","ND","ND","ND","ND","ND"],
    [1747,"41860,41667","80,4","ND","ND","ND","ND","ND"],
    [1748,"41860,45833","63,4","ND","ND","ND","ND","ND"],
    [1749,"41860,5","46,2","ND","ND","ND","ND","ND"],
    [1750,"41860,54167","50,3","ND","ND","ND","ND","ND"],
    [1751,"41860,58333","52,6","ND","ND","ND","ND","ND"],
    [1752,"41860,625","40,5","ND","ND","ND","ND","ND"],
    [1753,"41860,66667","35,4","ND","ND","ND","ND","ND"],
    [1754,"41860,70833","45,8","ND","ND","ND","ND","ND"],
    [1755,"41860,75","26,9","ND","ND","ND","ND","ND"],
    [1756,"41860,79167","17,1","ND","ND","ND","ND","ND"],
    [1757,"41860,83333","19,3","ND","ND","ND","ND","ND"],
    [1758,"41860,875","17,9","ND","ND","ND","ND","ND"],
    [1759,"41860,91667","32,7","ND","ND","ND","ND","ND"],
    [1760,"41860,95833","23,4","ND","ND","ND","ND","ND"],
    [1761,"41891","51,4","ND","ND","ND","ND","ND"],
    [1762,"41891,04167","24,3","ND","ND","ND","ND","ND"],
    [1763,"41891,08333","18,5","ND","ND","ND","ND","ND"],
    [1764,"41891,125","16,2","ND","ND","ND","ND","ND"],
    [1765,"41891,16667","17,1","ND","ND","ND","ND","ND"],
    [1766,"41891,20833","16,5","ND","ND","ND","ND","ND"],
    [1767,"41891,25","26,6","ND","ND","ND","ND","ND"],
    [1768,"41891,29167","48,2","ND","ND","ND","ND","ND"],
    [1769,"41891,33333","64,5","ND","ND","ND","ND","ND"],
    [1770,"41891,375","71,9","ND","ND","ND","ND","ND"],
    [1771,"41891,41667","68,8","ND","ND","ND","ND","ND"],
    [1772,"41891,45833","62,7","ND","ND","ND","ND","ND"],
    [1773,"41891,5","59,7","ND","ND","ND","ND","ND"],
    [1774,"41891,54167","53,7","ND","ND","ND","ND","ND"],
    [1775,"41891,58333","62,8","ND","ND","ND","ND","ND"],
    [1776,"41891,625","33,9","ND","ND","ND","ND","ND"],
    [1777,"41891,66667","24,8","ND","ND","ND","ND","ND"],
    [1778,"41891,70833","27,7","ND","ND","ND","ND","ND"],
    [1779,"41891,75","38,3","ND","ND","ND","ND","ND"],
    [1780,"41891,79167","44,1","ND","ND","ND","ND","ND"],
    [1781,"41891,83333","25,3","ND","ND","ND","ND","ND"],
    [1782,"41891,875","27,2","ND","ND","ND","ND","ND"],
    [1783,"41891,91667","65,2","ND","ND","ND","ND","ND"],
    [1784,"41891,95833","68,4","ND","ND","ND","ND","ND"],
    [1785,"41921","43,1","ND","ND","ND","ND","ND"],
    [1786,"41921,04167","49,1","ND","ND","ND","ND","ND"],
    [1787,"41921,08333","43,5","ND","ND","ND","ND","ND"],
    [1788,"41921,125","40,6","ND","ND","ND","ND","ND"],
    [1789,"41921,16667","36,7","ND","ND","ND","ND","ND"],
    [1790,"41921,20833","39,4","ND","ND","ND","ND","ND"],
    [1791,"41921,25","44","ND","ND","ND","ND","ND"],
    [1792,"41921,29167","55,4","ND","ND","ND","ND","ND"],
    [1793,"41921,33333","68,7","ND","ND","ND","ND","ND"],
    [1794,"41921,375","69,5","ND","ND","ND","ND","ND"],
    [1795,"41921,41667","77","ND","ND","ND","ND","ND"],
    [1796,"41921,45833","63,1","ND","ND","ND","ND","ND"],
    [1797,"41921,5","55,6","ND","ND","ND","ND","ND"],
    [1798,"41921,54167","55,1","ND","ND","ND","ND","ND"],
    [1799,"41921,58333","52,4","ND","ND","ND","ND","ND"],
    [1800,"41921,625","4,1","ND","ND","ND","ND","ND"],
    [1801,"41921,66667","16,4","ND","ND","ND","ND","ND"],
    [1802,"41921,70833","14,3","ND","ND","ND","ND","ND"],
    [1803,"41921,75","11,3","ND","ND","ND","ND","ND"],
    [1804,"41921,79167","14,9","ND","ND","ND","ND","ND"],
    [1805,"41921,83333","15,5","ND","ND","ND","ND","ND"],
    [1806,"41921,875","16,9","ND","ND","ND","ND","ND"],
    [1807,"41921,91667","60,7","ND","ND","ND","ND","ND"],
    [1808,"41921,95833","63,4","ND","ND","ND","ND","ND"],
    [1809,"41952","49,5","ND","ND","ND","ND","ND"],
    [1810,"41952,04167","39,3","ND","ND","ND","ND","ND"],
    [1811,"41952,08333","52,3","ND","ND","ND","ND","ND"],
    [1812,"41952,125","51","ND","ND","ND","ND","ND"],
    [1813,"41952,16667","53,2","ND","ND","ND","ND","ND"],
    [1814,"41952,20833","49,2","ND","ND","ND","ND","ND"],
    [1815,"41952,25","50,9","ND","ND","ND","ND","ND"],
    [1816,"41952,29167","64","ND","ND","ND","ND","ND"],
    [1817,"41952,33333","75,2","ND","ND","ND","ND","ND"],
    [1818,"41952,375","82,6","ND","ND","ND","ND","ND"],
    [1819,"41952,41667","90,7","ND","ND","ND","ND","ND"],
    [1820,"41952,45833","82,2","ND","ND","ND","ND","ND"],
    [1821,"41952,5","71,9","ND","ND","ND","ND","ND"],
    [1822,"41952,54167","55,6","ND","ND","ND","ND","ND"],
    [1823,"41952,58333","5","ND","ND","ND","ND","ND"],
    [1824,"41952,625","0,8","ND","ND","ND","ND","ND"],
    [1825,"41952,66667","10","ND","ND","ND","ND","ND"],
    [1826,"41952,70833","6,4","ND","ND","ND","ND","ND"],
    [1827,"41952,75","15,6","ND","ND","ND","ND","ND"],
    [1828,"41952,79167","28,3","ND","ND","ND","ND","ND"],
    [1829,"41952,83333","19","ND","ND","ND","ND","ND"],
    [1830,"41952,875","29,2","ND","ND","ND","ND","ND"],
    [1831,"41952,91667","27","ND","ND","ND","ND","ND"],
    [1832,"41952,95833","29,3","ND","ND","ND","ND","ND"],
    [1833,"41982","64,9","ND","ND","ND","ND","ND"],
    [1834,"41982,04167","50,7","ND","ND","ND","ND","ND"],
    [1835,"41982,08333","31,4","ND","ND","ND","ND","ND"],
    [1836,"41982,125","29,5","ND","ND","ND","ND","ND"],
    [1837,"41982,16667","15","ND","ND","ND","ND","ND"],
    [1838,"41982,20833","19,4","ND","ND","ND","ND","ND"],
    [1839,"41982,25","6,2","ND","ND","ND","ND","ND"],
    [1840,"41982,29167","19,8","ND","ND","ND","ND","ND"],
    [1841,"41982,33333","36,1","ND","ND","ND","ND","ND"],
    [1842,"41982,375","45,1","ND","ND","ND","ND","ND"],
    [1843,"41982,41667","52,7","ND","ND","ND","ND","ND"],
    [1844,"41982,45833","49,4","ND","ND","ND","ND","ND"],
    [1845,"41982,5","37","ND","ND","ND","ND","ND"],
    [1846,"41982,54167","ND","ND","ND","ND","ND","ND"],
    [1847,"41982,58333","ND","ND","ND","ND","ND","ND"],
    [1848,"41982,625","ND","ND","ND","ND","ND","ND"],
    [1849,"41982,66667","31,4","ND","ND","ND","ND","ND"],
    [1850,"41982,70833","11,1","ND","ND","ND","ND","ND"],
    [1851,"41982,75","16","ND","ND","ND","ND","ND"],
    [1852,"41982,79167","28,1","ND","ND","ND","ND","ND"],
    [1853,"41982,83333","14,2","ND","ND","ND","ND","ND"],
    [1854,"41982,875","13,5","ND","ND","ND","ND","ND"],
    [1855,"41982,91667","37,5","ND","ND","ND","ND","ND"],
    [1856,"41982,95833","42,6","ND","ND","ND","ND","ND"],
    [1857,"09/13/2014 00:00","31,4","ND","ND","ND","ND","ND"],
    [1858,"09/13/2014 01:00","58,5","ND","ND","ND","ND","ND"],
    [1859,"09/13/2014 02:00","48,3","ND","ND","ND","ND","ND"],
    [1860,"09/13/2014 03:00","44,9","ND","ND","ND","ND","ND"],
    [1861,"09/13/2014 04:00","40,6","ND","ND","ND","ND","ND"],
    [1862,"09/13/2014 05:00","41,2","ND","ND","ND","ND","ND"],
    [1863,"09/13/2014 06:00","97,5","ND","ND","ND","ND","ND"],
    [1864,"09/13/2014 07:00","49,6","ND","ND","ND","ND","ND"],
    [1865,"09/13/2014 08:00","52,9","ND","ND","ND","ND","ND"],
    [1866,"09/13/2014 09:00","77","ND","ND","ND","ND","ND"],
    [1867,"09/13/2014 10:00","67,7","ND","ND","ND","ND","ND"],
    [1868,"09/13/2014 11:00","63,2","ND","ND","ND","ND","ND"],
    [1869,"09/13/2014 12:00","49,3","ND","ND","ND","ND","ND"],
    [1870,"09/13/2014 13:00","49","ND","ND","ND","ND","ND"],
    [1871,"09/13/2014 14:00","52","ND","ND","ND","ND","ND"],
    [1872,"09/13/2014 15:00","50,9","ND","ND","ND","ND","ND"],
    [1873,"09/13/2014 16:00","38,9","ND","ND","ND","ND","ND"],
    [1874,"09/13/2014 17:00","20,1","ND","ND","ND","ND","ND"],
    [1875,"09/13/2014 18:00","19,1","ND","ND","ND","ND","ND"],
    [1876,"09/13/2014 19:00","21,6","ND","ND","ND","ND","ND"],
    [1877,"09/13/2014 20:00","16,3","ND","ND","ND","ND","ND"],
    [1878,"09/13/2014 21:00","12,4","ND","ND","ND","ND","ND"],
    [1879,"09/13/2014 22:00","15,8","ND","ND","ND","ND","ND"],
    [1880,"09/13/2014 23:00","16","ND","ND","ND","ND","ND"],
    [1881,"09/14/2014 00:00","20,9","ND","ND","ND","ND","ND"],
    [1882,"09/14/2014 01:00","48,8","ND","ND","ND","ND","ND"],
    [1883,"09/14/2014 02:00","41,9","ND","ND","ND","ND","ND"],
    [1884,"09/14/2014 03:00","39,4","ND","ND","ND","ND","ND"],
    [1885,"09/14/2014 04:00","40,8","ND","ND","ND","ND","ND"],
    [1886,"09/14/2014 05:00","42,6","ND","ND","ND","ND","ND"],
    [1887,"09/14/2014 06:00","48,5","ND","ND","ND","ND","ND"],
    [1888,"09/14/2014 07:00","46,7","ND","ND","ND","ND","ND"],
    [1889,"09/14/2014 08:00","46,7","ND","ND","ND","ND","ND"],
    [1890,"09/14/2014 09:00","46,9","ND","ND","ND","ND","ND"],
    [1891,"09/14/2014 10:00","55,2","ND","ND","ND","ND","ND"],
    [1892,"09/14/2014 11:00","52,9","ND","ND","ND","ND","ND"],
    [1893,"09/14/2014 12:00","43","ND","ND","ND","ND","ND"],
    [1894,"09/14/2014 13:00","13,9","ND","ND","ND","ND","ND"],
    [1895,"09/14/2014 14:00","20,6","ND","ND","ND","ND","ND"],
    [1896,"09/14/2014 15:00","6,6","ND","ND","ND","ND","ND"],
    [1897,"09/14/2014 16:00","5,5","ND","ND","ND","ND","ND"],
    [1898,"09/14/2014 17:00","7,9","ND","ND","ND","ND","ND"],
    [1899,"09/14/2014 18:00","9,2","ND","ND","ND","ND","ND"],
    [1900,"09/14/2014 19:00","9,9","ND","ND","ND","ND","ND"],
    [1901,"09/14/2014 20:00","8,9","ND","ND","ND","ND","ND"],
    [1902,"09/14/2014 21:00","35,2","ND","ND","ND","ND","ND"],
    [1903,"09/14/2014 22:00","30,1","ND","ND","ND","ND","ND"],
    [1904,"09/14/2014 23:00","22","ND","ND","ND","ND","ND"],
    [1905,"09/15/2014 00:00","34,1","ND","ND","ND","ND","ND"],
    [1906,"09/15/2014 01:00","17,4","ND","ND","ND","ND","ND"],
    [1907,"09/15/2014 02:00","14","ND","ND","ND","ND","ND"],
    [1908,"09/15/2014 03:00","15,5","ND","ND","ND","ND","ND"],
    [1909,"09/15/2014 04:00","14,5","ND","ND","ND","ND","ND"],
    [1910,"09/15/2014 05:00","17,4","ND","ND","ND","ND","ND"],
    [1911,"09/15/2014 06:00","18,8","ND","ND","ND","ND","ND"],
    [1912,"09/15/2014 07:00","26,5","ND","ND","ND","ND","ND"],
    [1913,"09/15/2014 08:00","38","ND","ND","ND","ND","ND"],
    [1914,"09/15/2014 09:00","44,3","ND","ND","ND","ND","ND"],
    [1915,"09/15/2014 10:00","40,3","ND","ND","ND","ND","ND"],
    [1916,"09/15/2014 11:00","31,9","ND","ND","ND","ND","ND"],
    [1917,"09/15/2014 12:00","30,9","ND","ND","ND","ND","ND"],
    [1918,"09/15/2014 13:00","23,5","ND","ND","ND","ND","ND"],
    [1919,"09/15/2014 14:00","25,8","ND","ND","ND","ND","ND"],
    [1920,"09/15/2014 15:00","41,4","ND","ND","ND","ND","ND"],
    [1921,"09/15/2014 16:00","21,7","ND","ND","ND","ND","ND"],
    [1922,"09/15/2014 17:00","7,4","ND","ND","ND","ND","ND"],
    [1923,"09/15/2014 18:00","8,8","ND","ND","ND","ND","ND"],
    [1924,"09/15/2014 19:00","8,9","ND","ND","ND","ND","ND"],
    [1925,"09/15/2014 20:00","10,4","ND","ND","ND","ND","ND"],
    [1926,"09/15/2014 21:00","8,5","ND","ND","ND","ND","ND"],
    [1927,"09/15/2014 22:00","21,1","ND","ND","ND","ND","ND"],
    [1928,"09/15/2014 23:00","20,8","ND","ND","ND","ND","ND"],
    [1929,"09/16/2014 00:00","33,5","ND","ND","ND","ND","ND"],
    [1930,"09/16/2014 01:00","31","ND","ND","ND","ND","ND"],
    [1931,"09/16/2014 02:00","24,7","ND","ND","ND","ND","ND"],
    [1932,"09/16/2014 03:00","17,8","ND","ND","ND","ND","ND"],
    [1933,"09/16/2014 04:00","21,7","ND","ND","ND","ND","ND"],
    [1934,"09/16/2014 05:00","20,5","ND","ND","ND","ND","ND"],
    [1935,"09/16/2014 06:00","25,7","ND","ND","ND","ND","ND"],
    [1936,"09/16/2014 07:00","34,9","ND","ND","ND","ND","ND"],
    [1937,"09/16/2014 08:00","40,1","ND","ND","ND","ND","ND"],
    [1938,"09/16/2014 09:00","40,2","ND","ND","ND","ND","ND"],
    [1939,"09/16/2014 10:00","42","ND","ND","ND","ND","ND"],
    [1940,"09/16/2014 11:00","40,1","ND","ND","ND","ND","ND"],
    [1941,"09/16/2014 12:00","41","ND","ND","ND","ND","ND"],
    [1942,"09/16/2014 13:00","42,4","ND","ND","ND","ND","ND"],
    [1943,"09/16/2014 14:00","42,8","ND","ND","ND","ND","ND"],
    [1944,"09/16/2014 15:00","50,3","ND","ND","ND","ND","ND"],
    [1945,"09/16/2014 16:00","21,3","ND","ND","ND","ND","ND"],
    [1946,"09/16/2014 17:00","22","ND","ND","ND","ND","ND"],
    [1947,"09/16/2014 18:00","25,8","ND","ND","ND","ND","ND"],
    [1948,"09/16/2014 19:00","25,3","ND","ND","ND","ND","ND"],
    [1949,"09/16/2014 20:00","30,2","ND","ND","ND","ND","ND"],
    [1950,"09/16/2014 21:00","26,8","ND","ND","ND","ND","ND"],
    [1951,"09/16/2014 22:00","24,3","ND","ND","ND","ND","ND"],
    [1952,"09/16/2014 23:00","28,3","ND","ND","ND","ND","ND"],
    [1953,"09/17/2014 00:00","27,4","ND","ND","ND","ND","ND"],
    [1954,"09/17/2014 01:00","30,9","ND","ND","ND","ND","ND"],
    [1955,"09/17/2014 02:00","57,9","ND","ND","ND","ND","ND"],
    [1956,"09/17/2014 03:00","43","ND","ND","ND","ND","ND"],
    [1957,"09/17/2014 04:00","19,4","ND","ND","ND","ND","ND"],
    [1958,"09/17/2014 05:00","11,3","ND","ND","ND","ND","ND"],
    [1959,"09/17/2014 06:00","27,6","ND","ND","ND","ND","ND"],
    [1960,"09/17/2014 07:00","36,9","ND","ND","ND","ND","ND"],
    [1961,"09/17/2014 08:00","62,2","ND","ND","ND","ND","ND"],
    [1962,"09/17/2014 09:00","94,5","ND","ND","ND","ND","ND"],
    [1963,"09/17/2014 10:00","99,2","ND","ND","ND","ND","ND"],
    [1964,"09/17/2014 11:00","45,9","ND","ND","ND","ND","ND"],
    [1965,"09/17/2014 12:00","48,3","ND","ND","ND","ND","ND"],
    [1966,"09/17/2014 13:00","46,6","ND","ND","ND","ND","ND"],
    [1967,"09/17/2014 14:00","41,3","ND","ND","ND","ND","ND"],
    [1968,"09/17/2014 15:00","41,8","ND","ND","ND","ND","ND"],
    [1969,"09/17/2014 16:00","22,9","ND","ND","ND","ND","ND"],
    [1970,"09/17/2014 17:00","19,1","ND","ND","ND","ND","ND"],
    [1971,"09/17/2014 18:00","86,2","ND","ND","ND","ND","ND"],
    [1972,"09/17/2014 19:00","123,2","ND","ND","ND","ND","ND"],
    [1973,"09/17/2014 20:00","7,7","ND","ND","ND","ND","ND"],
    [1974,"09/17/2014 21:00","5,3","ND","ND","ND","ND","ND"],
    [1975,"09/17/2014 22:00","27,1","ND","ND","ND","ND","ND"],
    [1976,"09/17/2014 23:00","28,7","ND","ND","ND","ND","ND"],
    [1977,"09/18/2014 00:00","42,7","ND","ND","ND","ND","ND"],
    [1978,"09/18/2014 01:00","26,6","ND","ND","ND","ND","ND"],
    [1979,"09/18/2014 02:00","26,7","ND","ND","ND","ND","ND"],
    [1980,"09/18/2014 03:00","31,3","ND","ND","ND","ND","ND"],
    [1981,"09/18/2014 04:00","23","ND","ND","ND","ND","ND"],
    [1982,"09/18/2014 05:00","17,2","ND","ND","ND","ND","ND"],
    [1983,"09/18/2014 06:00","14,7","ND","ND","ND","ND","ND"],
    [1984,"09/18/2014 07:00","20,1","ND","ND","ND","ND","ND"],
    [1985,"09/18/2014 08:00","32,4","ND","ND","ND","ND","ND"],
    [1986,"09/18/2014 09:00","53","ND","ND","ND","ND","ND"],
    [1987,"09/18/2014 10:00","49,2","ND","ND","ND","ND","ND"],
    [1988,"09/18/2014 11:00","32,6","ND","ND","ND","ND","ND"],
    [1989,"09/18/2014 12:00","21,6","ND","ND","ND","ND","ND"],
    [1990,"09/18/2014 13:00","33,1","ND","ND","ND","ND","ND"],
    [1991,"09/18/2014 14:00","27,7","ND","ND","ND","ND","ND"],
    [1992,"09/18/2014 15:00","19,2","ND","ND","ND","ND","ND"],
    [1993,"09/18/2014 16:00","26,1","ND","ND","ND","ND","ND"],
    [1994,"09/18/2014 17:00","37,3","ND","ND","ND","ND","ND"],
    [1995,"09/18/2014 18:00","45,3","ND","ND","ND","ND","ND"],
    [1996,"09/18/2014 19:00","78,5","ND","ND","ND","ND","ND"],
    [1997,"09/18/2014 20:00","55,8","ND","ND","ND","ND","ND"],
    [1998,"09/18/2014 21:00","46,5","ND","ND","ND","ND","ND"],
    [1999,"09/18/2014 22:00","50","ND","ND","ND","ND","ND"],
    [2000,"09/18/2014 23:00","45","ND","ND","ND","ND","ND"],
    [2001,"09/19/2014 00:00","22","ND","ND","ND","ND","ND"],
    [2002,"09/19/2014 01:00","29,2","ND","ND","ND","ND","ND"],
    [2003,"09/19/2014 02:00","23,5","ND","ND","ND","ND","ND"],
    [2004,"09/19/2014 03:00","24,2","ND","ND","ND","ND","ND"],
    [2005,"09/19/2014 04:00","24,2","ND","ND","ND","ND","ND"],
    [2006,"09/19/2014 05:00","42,5","ND","ND","ND","ND","ND"],
    [2007,"09/19/2014 06:00","31,6","ND","ND","ND","ND","ND"],
    [2008,"09/19/2014 07:00","32,3","ND","ND","ND","ND","ND"],
    [2009,"09/19/2014 08:00","31,4","ND","ND","ND","ND","ND"],
    [2010,"09/19/2014 09:00","37,2","ND","ND","ND","ND","ND"],
    [2011,"09/19/2014 10:00","38,1","ND","ND","ND","ND","ND"],
    [2012,"09/19/2014 11:00","28,3","ND","ND","ND","ND","ND"],
    [2013,"09/19/2014 12:00","33,6","ND","ND","ND","ND","ND"],
    [2014,"09/19/2014 13:00","33,6","ND","ND","ND","ND","ND"],
    [2015,"09/19/2014 14:00","63,8","ND","ND","ND","ND","ND"],
    [2016,"09/19/2014 15:00","50,3","ND","ND","ND","ND","ND"],
    [2017,"09/19/2014 16:00","20,4","ND","ND","ND","ND","ND"],
    [2018,"09/19/2014 17:00","13,3","ND","ND","ND","ND","ND"],
    [2019,"09/19/2014 18:00","36,1","ND","ND","ND","ND","ND"],
    [2020,"09/19/2014 19:00","20,2","ND","ND","ND","ND","ND"],
    [2021,"09/19/2014 20:00","31,9","ND","ND","ND","ND","ND"],
    [2022,"09/19/2014 21:00","46,7","ND","ND","ND","ND","ND"],
    [2023,"09/19/2014 22:00","50,4","ND","ND","ND","ND","ND"],
    [2024,"09/19/2014 23:00","28,4","ND","ND","ND","ND","ND"],
    [2025,"09/20/2014 00:00","31,8","ND","ND","ND","ND","ND"],
    [2026,"09/20/2014 01:00","25,6","ND","ND","ND","ND","ND"],
    [2027,"09/20/2014 02:00","20,7","ND","ND","ND","ND","ND"],
    [2028,"09/20/2014 03:00","24,3","ND","ND","ND","ND","ND"],
    [2029,"09/20/2014 04:00","36,6","ND","ND","ND","ND","ND"],
    [2030,"09/20/2014 05:00","27,1","ND","ND","ND","ND","ND"],
    [2031,"09/20/2014 06:00","29,7","ND","ND","ND","ND","ND"],
    [2032,"09/20/2014 07:00","34,3","ND","ND","ND","ND","ND"],
    [2033,"09/20/2014 08:00","58,3","ND","ND","ND","ND","ND"],
    [2034,"09/20/2014 09:00","49,4","ND","ND","ND","ND","ND"],
    [2035,"09/20/2014 10:00","30,4","ND","ND","ND","ND","ND"],
    [2036,"09/20/2014 11:00","30,4","ND","ND","ND","ND","ND"],
    [2037,"09/20/2014 12:00","30,4","ND","ND","ND","ND","ND"],
    [2038,"09/20/2014 13:00","20,9","ND","ND","ND","ND","ND"],
    [2039,"09/20/2014 14:00","26,9","ND","ND","ND","ND","ND"],
    [2040,"09/20/2014 15:00","32","ND","ND","ND","ND","ND"],
    [2041,"09/20/2014 16:00","30,2","ND","ND","ND","ND","ND"],
    [2042,"09/20/2014 17:00","21,9","ND","ND","ND","ND","ND"],
    [2043,"09/20/2014 18:00","23","ND","ND","ND","ND","ND"],
    [2044,"09/20/2014 19:00","45,2","ND","ND","ND","ND","ND"],
    [2045,"09/20/2014 20:00","40,1","ND","ND","ND","ND","ND"],
    [2046,"09/20/2014 21:00","38,3","ND","ND","ND","ND","ND"],
    [2047,"09/20/2014 22:00","37,6","ND","ND","ND","ND","ND"],
    [2048,"09/20/2014 23:00","34,9","ND","ND","ND","ND","ND"],
    [2049,"09/21/2014 00:00","29,4","ND","ND","ND","ND","ND"],
    [2050,"09/21/2014 01:00","20,8","ND","ND","ND","ND","ND"],
    [2051,"09/21/2014 02:00","18,5","ND","ND","ND","ND","ND"],
    [2052,"09/21/2014 03:00","18","ND","ND","ND","ND","ND"],
    [2053,"09/21/2014 04:00","19,3","ND","ND","ND","ND","ND"],
    [2054,"09/21/2014 05:00","23,2","ND","ND","ND","ND","ND"],
    [2055,"09/21/2014 06:00","25,9","ND","ND","ND","ND","ND"],
    [2056,"09/21/2014 07:00","36,9","ND","ND","ND","ND","ND"],
    [2057,"09/21/2014 08:00","29,5","ND","ND","ND","ND","ND"],
    [2058,"09/21/2014 09:00","44,1","ND","ND","ND","ND","ND"],
    [2059,"09/21/2014 10:00","55,1","ND","ND","ND","ND","ND"],
    [2060,"09/21/2014 11:00","48,1","ND","ND","ND","ND","ND"],
    [2061,"09/21/2014 12:00","34,6","ND","ND","ND","ND","ND"],
    [2062,"09/21/2014 13:00","29,2","ND","ND","ND","ND","ND"],
    [2063,"09/21/2014 14:00","33,5","ND","ND","ND","ND","ND"],
    [2064,"09/21/2014 15:00","34,9","ND","ND","ND","ND","ND"],
    [2065,"09/21/2014 16:00","36,3","ND","ND","ND","ND","ND"],
    [2066,"09/21/2014 17:00","35,1","ND","ND","ND","ND","ND"],
    [2067,"09/21/2014 18:00","20,4","ND","ND","ND","ND","ND"],
    [2068,"09/21/2014 19:00","14,8","ND","ND","ND","ND","ND"],
    [2069,"09/21/2014 20:00","10,9","ND","ND","ND","ND","ND"],
    [2070,"09/21/2014 21:00","5,5","ND","ND","ND","ND","ND"],
    [2071,"09/21/2014 22:00","12","ND","ND","ND","ND","ND"],
    [2072,"09/21/2014 23:00","35,3","ND","ND","ND","ND","ND"],
    [2073,"09/22/2014 00:00","13,4","ND","ND","ND","ND","ND"],
    [2074,"09/22/2014 01:00","25,6","ND","ND","ND","ND","ND"],
    [2075,"09/22/2014 02:00","24,4","ND","ND","ND","ND","ND"],
    [2076,"09/22/2014 03:00","20,5","ND","ND","ND","ND","ND"],
    [2077,"09/22/2014 04:00","23,2","ND","ND","ND","ND","ND"],
    [2078,"09/22/2014 05:00","26,6","ND","ND","ND","ND","ND"],
    [2079,"09/22/2014 06:00","20,8","ND","ND","ND","ND","ND"],
    [2080,"09/22/2014 07:00","13,4","ND","ND","ND","ND","ND"],
    [2081,"09/22/2014 08:00","15,9","ND","ND","ND","ND","ND"],
    [2082,"09/22/2014 09:00","18,3","ND","ND","ND","ND","ND"],
    [2083,"09/22/2014 10:00","18,8","ND","ND","ND","ND","ND"],
    [2084,"09/22/2014 11:00","11,9","ND","ND","ND","ND","ND"],
    [2085,"09/22/2014 12:00","7,4","ND","ND","ND","ND","ND"],
    [2086,"09/22/2014 13:00","5,7","ND","ND","ND","ND","ND"],
    [2087,"09/22/2014 14:00","18,3","ND","ND","ND","ND","ND"],
    [2088,"09/22/2014 15:00","22,4","ND","ND","ND","ND","ND"],
    [2089,"09/22/2014 16:00","22,4","ND","ND","ND","ND","ND"],
    [2090,"09/22/2014 17:00","23,8","ND","ND","ND","ND","ND"],
    [2091,"09/22/2014 18:00","16,1","ND","ND","ND","ND","ND"],
    [2092,"09/22/2014 19:00","11,2","ND","ND","ND","ND","ND"],
    [2093,"09/22/2014 20:00","12,8","ND","ND","ND","ND","ND"],
    [2094,"09/22/2014 21:00","14,4","ND","ND","ND","ND","ND"],
    [2095,"09/22/2014 22:00","13,3","ND","ND","ND","ND","ND"],
    [2096,"09/22/2014 23:00","16,3","ND","ND","ND","ND","ND"],
    [2097,"09/23/2014 00:00","36","ND","ND","ND","ND","ND"],
    [2098,"09/23/2014 01:00","19,1","ND","ND","ND","ND","ND"],
    [2099,"09/23/2014 02:00","13","ND","ND","ND","ND","ND"],
    [2100,"09/23/2014 03:00","11,9","ND","ND","ND","ND","ND"],
    [2101,"09/23/2014 04:00","8,3","ND","ND","ND","ND","ND"],
    [2102,"09/23/2014 05:00","13","ND","ND","ND","ND","ND"],
    [2103,"09/23/2014 06:00","22,6","ND","ND","ND","ND","ND"],
    [2104,"09/23/2014 07:00","37,3","ND","ND","ND","ND","ND"],
    [2105,"09/23/2014 08:00","64,2","ND","ND","ND","ND","ND"],
    [2106,"09/23/2014 09:00","64,2","ND","ND","ND","ND","ND"],
    [2107,"09/23/2014 10:00","38,1","ND","ND","ND","ND","ND"],
    [2108,"09/23/2014 11:00","38,6","ND","ND","ND","ND","ND"],
    [2109,"09/23/2014 12:00","38,6","ND","ND","ND","ND","ND"],
    [2110,"09/23/2014 13:00","46,8","ND","ND","ND","ND","ND"],
    [2111,"09/23/2014 14:00","45,5","ND","ND","ND","ND","ND"],
    [2112,"09/23/2014 15:00","46,9","ND","ND","ND","ND","ND"],
    [2113,"09/23/2014 16:00","45,1","ND","ND","ND","ND","ND"],
    [2114,"09/23/2014 17:00","25,3","ND","ND","ND","ND","ND"],
    [2115,"09/23/2014 18:00","13,3","ND","ND","ND","ND","ND"],
    [2116,"09/23/2014 19:00","69,9","ND","ND","ND","ND","ND"],
    [2117,"09/23/2014 20:00","12,7","ND","ND","ND","ND","ND"],
    [2118,"09/23/2014 21:00","9,9","ND","ND","ND","ND","ND"],
    [2119,"09/23/2014 22:00","5,7","ND","ND","ND","ND","ND"],
    [2120,"09/23/2014 23:00","11,8","ND","ND","ND","ND","ND"],
    [2121,"09/24/2014 00:00","39,4","ND","ND","ND","ND","ND"],
    [2122,"09/24/2014 01:00","50,4","ND","ND","ND","ND","ND"],
    [2123,"09/24/2014 02:00","36,8","ND","ND","ND","ND","ND"],
    [2124,"09/24/2014 03:00","37,9","ND","ND","ND","ND","ND"],
    [2125,"09/24/2014 04:00","35,8","ND","ND","ND","ND","ND"],
    [2126,"09/24/2014 05:00","83,8","ND","ND","ND","ND","ND"],
    [2127,"09/24/2014 06:00","37,4","ND","ND","ND","ND","ND"],
    [2128,"09/24/2014 07:00","36,1","ND","ND","ND","ND","ND"],
    [2129,"09/24/2014 08:00","49,5","ND","ND","ND","ND","ND"],
    [2130,"09/24/2014 09:00","74,6","ND","ND","ND","ND","ND"],
    [2131,"09/24/2014 10:00","67,8","ND","ND","ND","ND","ND"],
    [2132,"09/24/2014 11:00","35,6","ND","ND","ND","ND","ND"],
    [2133,"09/24/2014 12:00","30,8","ND","ND","ND","ND","ND"],
    [2134,"09/24/2014 13:00","28,7","ND","ND","ND","ND","ND"],
    [2135,"09/24/2014 14:00","36","ND","ND","ND","ND","ND"],
    [2136,"09/24/2014 15:00","39,1","ND","ND","ND","ND","ND"],
    [2137,"09/24/2014 16:00","33,6","ND","ND","ND","ND","ND"],
    [2138,"09/24/2014 17:00","ND","ND","ND","ND","ND","ND"],
    [2139,"09/24/2014 18:00","ND","ND","ND","ND","ND","ND"],
    [2140,"09/24/2014 19:00","ND","ND","ND","ND","ND","ND"],
    [2141,"09/24/2014 20:00","ND","ND","ND","ND","ND","ND"],
    [2142,"09/24/2014 21:00","22,4","ND","ND","ND","ND","ND"],
    [2143,"09/24/2014 22:00","25,3","ND","ND","ND","ND","ND"],
    [2144,"09/24/2014 23:00","31","ND","ND","ND","ND","ND"],
    [2145,"09/25/2014 00:00","ND","ND","ND","ND","ND","ND"],
    [2146,"09/25/2014 01:00","46,2","ND","ND","ND","ND","ND"],
    [2147,"09/25/2014 02:00","40,7","ND","ND","ND","ND","ND"],
    [2148,"09/25/2014 03:00","30,8","ND","ND","ND","ND","ND"],
    [2149,"09/25/2014 04:00","33,5","ND","ND","ND","ND","ND"],
    [2150,"09/25/2014 05:00","31,4","ND","ND","ND","ND","ND"],
    [2151,"09/25/2014 06:00","37,4","ND","ND","ND","ND","ND"],
    [2152,"09/25/2014 07:00","49,4","ND","ND","ND","ND","ND"],
    [2153,"09/25/2014 08:00","79,4","ND","ND","ND","ND","ND"],
    [2154,"09/25/2014 09:00","80","ND","ND","ND","ND","ND"],
    [2155,"09/25/2014 10:00","7,9","ND","ND","ND","ND","ND"],
    [2156,"09/25/2014 11:00","22,6","ND","ND","ND","ND","ND"],
    [2157,"09/25/2014 12:00","39,5","ND","ND","ND","ND","ND"],
    [2158,"09/25/2014 13:00","45,1","ND","ND","ND","ND","ND"],
    [2159,"09/25/2014 14:00","45,1","ND","ND","ND","ND","ND"],
    [2160,"09/25/2014 15:00","7,9","ND","ND","ND","ND","ND"],
    [2161,"09/25/2014 16:00","10,3","ND","ND","ND","ND","ND"],
    [2162,"09/25/2014 17:00","19,6","ND","ND","ND","ND","ND"],
    [2163,"09/25/2014 18:00","15,6","ND","ND","ND","ND","ND"],
    [2164,"09/25/2014 19:00","15,6","ND","ND","ND","ND","ND"],
    [2165,"09/25/2014 20:00","16,7","ND","ND","ND","ND","ND"],
    [2166,"09/25/2014 21:00","32,6","ND","ND","ND","ND","ND"],
    [2167,"09/25/2014 22:00","47,8","ND","ND","ND","ND","ND"],
    [2168,"09/25/2014 23:00","58,7","ND","ND","ND","ND","ND"],
    [2169,"09/26/2014 00:00","112,9","ND","ND","ND","ND","ND"],
    [2170,"09/26/2014 01:00","64,4","ND","ND","ND","ND","ND"],
    [2171,"09/26/2014 02:00","19,8","ND","ND","ND","ND","ND"],
    [2172,"09/26/2014 03:00","23,4","ND","ND","ND","ND","ND"],
    [2173,"09/26/2014 04:00","24,3","ND","ND","ND","ND","ND"],
    [2174,"09/26/2014 05:00","19,9","ND","ND","ND","ND","ND"],
    [2175,"09/26/2014 06:00","23,5","ND","ND","ND","ND","ND"],
    [2176,"09/26/2014 07:00","40,2","ND","ND","ND","ND","ND"],
    [2177,"09/26/2014 08:00","65,3","ND","ND","ND","ND","ND"],
    [2178,"09/26/2014 09:00","60,5","ND","ND","ND","ND","ND"],
    [2179,"09/26/2014 10:00","60,6","ND","ND","ND","ND","ND"],
    [2180,"09/26/2014 11:00","47,5","ND","ND","ND","ND","ND"],
    [2181,"09/26/2014 12:00","37,2","ND","ND","ND","ND","ND"],
    [2182,"09/26/2014 13:00","49,1","ND","ND","ND","ND","ND"],
    [2183,"09/26/2014 14:00","46,7","ND","ND","ND","ND","ND"],
    [2184,"09/26/2014 15:00","28,3","ND","ND","ND","ND","ND"],
    [2185,"09/26/2014 16:00","14,6","ND","ND","ND","ND","ND"],
    [2186,"09/26/2014 17:00","16,4","ND","ND","ND","ND","ND"],
    [2187,"09/26/2014 18:00","16,9","ND","ND","ND","ND","ND"],
    [2188,"09/26/2014 19:00","19","ND","ND","ND","ND","ND"],
    [2189,"09/26/2014 20:00","19,3","ND","ND","ND","ND","ND"],
    [2190,"09/26/2014 21:00","19,3","ND","ND","ND","ND","ND"],
    [2191,"09/26/2014 22:00","44,8","ND","ND","ND","ND","ND"],
    [2192,"09/26/2014 23:00","36","ND","ND","ND","ND","ND"],
    [2193,"09/27/2014 00:00","38,9","ND","ND","ND","ND","ND"],
    [2194,"09/27/2014 01:00","44,1","ND","ND","ND","ND","ND"],
    [2195,"09/27/2014 02:00","33,3","ND","ND","ND","ND","ND"],
    [2196,"09/27/2014 03:00","42,3","ND","ND","ND","ND","ND"],
    [2197,"09/27/2014 04:00","38,1","ND","ND","ND","ND","ND"],
    [2198,"09/27/2014 05:00","42,8","ND","ND","ND","ND","ND"],
    [2199,"09/27/2014 06:00","47,5","ND","ND","ND","ND","ND"],
    [2200,"09/27/2014 07:00","44,1","ND","ND","ND","ND","ND"],
    [2201,"09/27/2014 08:00","71,4","ND","ND","ND","ND","ND"],
    [2202,"09/27/2014 09:00","69,7","ND","ND","ND","ND","ND"],
    [2203,"09/27/2014 10:00","54,8","ND","ND","ND","ND","ND"],
    [2204,"09/27/2014 11:00","54,8","ND","ND","ND","ND","ND"],
    [2205,"09/27/2014 12:00","41,2","ND","ND","ND","ND","ND"],
    [2206,"09/27/2014 13:00","43,5","ND","ND","ND","ND","ND"],
    [2207,"09/27/2014 14:00","57,9","ND","ND","ND","ND","ND"],
    [2208,"09/27/2014 15:00","56,6","ND","ND","ND","ND","ND"],
    [2209,"09/27/2014 16:00","28,9","ND","ND","ND","ND","ND"],
    [2210,"09/27/2014 17:00","22,5","ND","ND","ND","ND","ND"],
    [2211,"09/27/2014 18:00","31,2","ND","ND","ND","ND","ND"],
    [2212,"09/27/2014 19:00","18,1","ND","ND","ND","ND","ND"],
    [2213,"09/27/2014 20:00","18","ND","ND","ND","ND","ND"],
    [2214,"09/27/2014 21:00","23,7","ND","ND","ND","ND","ND"],
    [2215,"09/27/2014 22:00","38,7","ND","ND","ND","ND","ND"],
    [2216,"09/27/2014 23:00","42,6","ND","ND","ND","ND","ND"],
    [2217,"09/28/2014 00:00","54","ND","ND","ND","ND","ND"],
    [2218,"09/28/2014 01:00","38,1","ND","ND","ND","ND","ND"],
    [2219,"09/28/2014 02:00","36,7","ND","ND","ND","ND","ND"],
    [2220,"09/28/2014 03:00","40,8","ND","ND","ND","ND","ND"],
    [2221,"09/28/2014 04:00","31,4","ND","ND","ND","ND","ND"],
    [2222,"09/28/2014 05:00","34","ND","ND","ND","ND","ND"],
    [2223,"09/28/2014 06:00","30,8","ND","ND","ND","ND","ND"],
    [2224,"09/28/2014 07:00","31","ND","ND","ND","ND","ND"],
    [2225,"09/28/2014 08:00","55,3","ND","ND","ND","ND","ND"],
    [2226,"09/28/2014 09:00","57,9","ND","ND","ND","ND","ND"],
    [2227,"09/28/2014 10:00","53,2","ND","ND","ND","ND","ND"],
    [2228,"09/28/2014 11:00","39,9","ND","ND","ND","ND","ND"],
    [2229,"09/28/2014 12:00","41,9","ND","ND","ND","ND","ND"],
    [2230,"09/28/2014 13:00","38,8","ND","ND","ND","ND","ND"],
    [2231,"09/28/2014 14:00","36,5","ND","ND","ND","ND","ND"],
    [2232,"09/28/2014 15:00","14,9","ND","ND","ND","ND","ND"],
    [2233,"09/28/2014 16:00","97,3","ND","ND","ND","ND","ND"],
    [2234,"09/28/2014 17:00","9,9","ND","ND","ND","ND","ND"],
    [2235,"09/28/2014 18:00","24,2","ND","ND","ND","ND","ND"],
    [2236,"09/28/2014 19:00","20,4","ND","ND","ND","ND","ND"],
    [2237,"09/28/2014 20:00","14,7","ND","ND","ND","ND","ND"],
    [2238,"09/28/2014 21:00","17,4","ND","ND","ND","ND","ND"],
    [2239,"09/28/2014 22:00","44,3","ND","ND","ND","ND","ND"],
    [2240,"09/28/2014 23:00","36,8","ND","ND","ND","ND","ND"],
    [2241,"09/29/2014 00:00","35,1","ND","ND","ND","ND","ND"],
    [2242,"09/29/2014 01:00","52,1","ND","ND","ND","ND","ND"],
    [2243,"09/29/2014 02:00","51,7","ND","ND","ND","ND","ND"],
    [2244,"09/29/2014 03:00","42","ND","ND","ND","ND","ND"],
    [2245,"09/29/2014 04:00","27,8","ND","ND","ND","ND","ND"],
    [2246,"09/29/2014 05:00","28,2","ND","ND","ND","ND","ND"],
    [2247,"09/29/2014 06:00","39,8","ND","ND","ND","ND","ND"],
    [2248,"09/29/2014 07:00","51,7","ND","ND","ND","ND","ND"],
    [2249,"09/29/2014 08:00","64,3","ND","ND","ND","ND","ND"],
    [2250,"09/29/2014 09:00","48,3","ND","ND","ND","ND","ND"],
    [2251,"09/29/2014 10:00","53","ND","ND","ND","ND","ND"],
    [2252,"09/29/2014 11:00","41,7","ND","ND","ND","ND","ND"],
    [2253,"09/29/2014 12:00","37,3","ND","ND","ND","ND","ND"],
    [2254,"09/29/2014 13:00","42,5","ND","ND","ND","ND","ND"],
    [2255,"09/29/2014 14:00","34","ND","ND","ND","ND","ND"],
    [2256,"09/29/2014 15:00","52,1","ND","ND","ND","ND","ND"],
    [2257,"09/29/2014 16:00","24,2","ND","ND","ND","ND","ND"],
    [2258,"09/29/2014 17:00","19","ND","ND","ND","ND","ND"],
    [2259,"09/29/2014 18:00","21,8","ND","ND","ND","ND","ND"],
    [2260,"09/29/2014 19:00","22,4","ND","ND","ND","ND","ND"],
    [2261,"09/29/2014 20:00","16,1","ND","ND","ND","ND","ND"],
    [2262,"09/29/2014 21:00","11,2","ND","ND","ND","ND","ND"],
    [2263,"09/29/2014 22:00","50,8","ND","ND","ND","ND","ND"],
    [2264,"09/29/2014 23:00","49,4","ND","ND","ND","ND","ND"],
    [2265,"09/30/2014 00:00","85,2","ND","ND","ND","ND","ND"],
    [2266,"09/30/2014 01:00","39,3","ND","ND","ND","ND","ND"],
    [2267,"09/30/2014 02:00","40,6","ND","ND","ND","ND","ND"],
    [2268,"09/30/2014 03:00","30,7","ND","ND","ND","ND","ND"],
    [2269,"09/30/2014 04:00","27,1","ND","ND","ND","ND","ND"],
    [2270,"09/30/2014 05:00","25,9","ND","ND","ND","ND","ND"],
    [2271,"09/30/2014 06:00","28,8","ND","ND","ND","ND","ND"],
    [2272,"09/30/2014 07:00","53,5","ND","ND","ND","ND","ND"],
    [2273,"09/30/2014 08:00","63,2","ND","ND","ND","ND","ND"],
    [2274,"09/30/2014 09:00","97","ND","ND","ND","ND","ND"],
    [2275,"09/30/2014 10:00","65,3","ND","ND","ND","ND","ND"],
    [2276,"09/30/2014 11:00","51,9","ND","ND","ND","ND","ND"],
    [2277,"09/30/2014 12:00","64,2","ND","ND","ND","ND","ND"],
    [2278,"09/30/2014 13:00","55,3","ND","ND","ND","ND","ND"],
    [2279,"09/30/2014 14:00","40,2","ND","ND","ND","ND","ND"],
    [2280,"09/30/2014 15:00","30,7","ND","ND","ND","ND","ND"],
    [2281,"09/30/2014 16:00","19,4","ND","ND","ND","ND","ND"],
    [2282,"09/30/2014 17:00","43,3","ND","ND","ND","ND","ND"],
    [2283,"09/30/2014 18:00","25,9","ND","ND","ND","ND","ND"],
    [2284,"09/30/2014 19:00","39,5","ND","ND","ND","ND","ND"],
    [2285,"09/30/2014 20:00","26,4","ND","ND","ND","ND","ND"],
    [2286,"09/30/2014 21:00","19,7","ND","ND","ND","ND","ND"],
    [2287,"09/30/2014 22:00","18,3","ND","ND","ND","ND","ND"],
    [2288,"09/30/2014 23:00","16","ND","ND","ND","ND","ND"],
    [2289,"41649","ND","ND","ND","ND","ND","ND"],
    [2290,"41649,04167","57,2","ND","ND","ND","ND","ND"],
    [2291,"41649,08333","61,7","ND","ND","ND","ND","ND"],
    [2292,"41649,125","34,5","ND","ND","ND","ND","ND"],
    [2293,"41649,16667","30","ND","ND","ND","ND","ND"],
    [2294,"41649,20833","26,1","ND","ND","ND","ND","ND"],
    [2295,"41649,25","34,6","ND","ND","ND","ND","ND"],
    [2296,"41649,29167","42,9","ND","ND","ND","ND","ND"],
    [2297,"41649,33333","64,5","ND","ND","ND","ND","ND"],
    [2298,"41649,375","62,6","ND","ND","ND","ND","ND"],
    [2299,"41649,41667","66,4","ND","ND","ND","ND","ND"],
    [2300,"41649,45833","66,3","ND","ND","ND","ND","ND"],
    [2301,"41649,5","71,2","ND","ND","ND","ND","ND"],
    [2302,"41649,54167","88,9","ND","ND","ND","ND","ND"],
    [2303,"41649,58333","69,2","ND","ND","ND","ND","ND"],
    [2304,"41649,625","49,5","ND","ND","ND","ND","ND"],
    [2305,"41649,66667","24,5","ND","ND","ND","ND","ND"],
    [2306,"41649,70833","15,7","ND","ND","ND","ND","ND"],
    [2307,"41649,75","74,8","ND","ND","ND","ND","ND"],
    [2308,"41649,79167","31,4","ND","ND","ND","ND","ND"],
    [2309,"41649,83333","38,9","ND","ND","ND","ND","ND"],
    [2310,"41649,875","28,2","ND","ND","ND","ND","ND"],
    [2311,"41649,91667","29","ND","ND","ND","ND","ND"],
    [2312,"41649,95833","36,2","ND","ND","ND","ND","ND"],
    [2313,"41680","70,1","ND","ND","ND","ND","ND"],
    [2314,"41680,04167","46,3","ND","ND","ND","ND","ND"],
    [2315,"41680,08333","57","ND","ND","ND","ND","ND"],
    [2316,"41680,125","68,8","ND","ND","ND","ND","ND"],
    [2317,"41680,16667","65,1","ND","ND","ND","ND","ND"],
    [2318,"41680,20833","47,7","ND","ND","ND","ND","ND"],
    [2319,"41680,25","46","ND","ND","ND","ND","ND"],
    [2320,"41680,29167","53,1","ND","ND","ND","ND","ND"],
    [2321,"41680,33333","83,6","ND","ND","ND","ND","ND"],
    [2322,"41680,375","85,3","ND","ND","ND","ND","ND"],
    [2323,"41680,41667","112,1","ND","ND","ND","ND","ND"],
    [2324,"41680,45833","124,9","ND","ND","ND","ND","ND"],
    [2325,"41680,5","107,2","ND","ND","ND","ND","ND"],
    [2326,"41680,54167","107","ND","ND","ND","ND","ND"],
    [2327,"41680,58333","97,1","ND","ND","ND","ND","ND"],
    [2328,"41680,625","97,1","ND","ND","ND","ND","ND"],
    [2329,"41680,66667","42,1","ND","ND","ND","ND","ND"],
    [2330,"41680,70833","15,6","ND","ND","ND","ND","ND"],
    [2331,"41680,75","16,7","ND","ND","ND","ND","ND"],
    [2332,"41680,79167","19,2","ND","ND","ND","ND","ND"],
    [2333,"41680,83333","15,4","ND","ND","ND","ND","ND"],
    [2334,"41680,875","17,5","ND","ND","ND","ND","ND"],
    [2335,"41680,91667","11,6","ND","ND","ND","ND","ND"],
    [2336,"41680,95833","47,9","ND","ND","ND","ND","ND"],
    [2337,"41708","63","ND","ND","ND","ND","ND"],
    [2338,"41708,04167","58,8","ND","ND","ND","ND","ND"],
    [2339,"41708,08333","43,4","ND","ND","ND","ND","ND"],
    [2340,"41708,125","36,3","ND","ND","ND","ND","ND"],
    [2341,"41708,16667","36,5","ND","ND","ND","ND","ND"],
    [2342,"41708,20833","35,3","ND","ND","ND","ND","ND"],
    [2343,"41708,25","33,8","ND","ND","ND","ND","ND"],
    [2344,"41708,29167","68,3","ND","ND","ND","ND","ND"],
    [2345,"41708,33333","77,4","ND","ND","ND","ND","ND"],
    [2346,"41708,375","117,6","ND","ND","ND","ND","ND"],
    [2347,"41708,41667","117,6","ND","ND","ND","ND","ND"],
    [2348,"41708,45833","57,5","ND","ND","ND","ND","ND"],
    [2349,"41708,5","36,9","ND","ND","ND","ND","ND"],
    [2350,"41708,54167","36,2","ND","ND","ND","ND","ND"],
    [2351,"41708,58333","29,3","ND","ND","ND","ND","ND"],
    [2352,"41708,625","24,8","ND","ND","ND","ND","ND"],
    [2353,"41708,66667","37,4","ND","ND","ND","ND","ND"],
    [2354,"41708,70833","26,9","ND","ND","ND","ND","ND"],
    [2355,"41708,75","18,3","ND","ND","ND","ND","ND"],
    [2356,"41708,79167","16","ND","ND","ND","ND","ND"],
    [2357,"41708,83333","18,6","ND","ND","ND","ND","ND"],
    [2358,"41708,875","12,2","ND","ND","ND","ND","ND"],
    [2359,"41708,91667","30,5","ND","ND","ND","ND","ND"],
    [2360,"41708,95833","66,4","ND","ND","ND","ND","ND"],
    [2361,"41739","11","ND","ND","ND","ND","ND"],
    [2362,"41739,04167","49,1","ND","ND","ND","ND","ND"],
    [2363,"41739,08333","59,5","ND","ND","ND","ND","ND"],
    [2364,"41739,125","28,5","ND","ND","ND","ND","ND"],
    [2365,"41739,16667","45,3","ND","ND","ND","ND","ND"],
    [2366,"41739,20833","37,3","ND","ND","ND","ND","ND"],
    [2367,"41739,25","46,4","ND","ND","ND","ND","ND"],
    [2368,"41739,29167","44,8","ND","ND","ND","ND","ND"],
    [2369,"41739,33333","35,6","ND","ND","ND","ND","ND"],
    [2370,"41739,375","42,9","ND","ND","ND","ND","ND"],
    [2371,"41739,41667","50,8","ND","ND","ND","ND","ND"],
    [2372,"41739,45833","35","ND","ND","ND","ND","ND"],
    [2373,"41739,5","27,1","ND","ND","ND","ND","ND"],
    [2374,"41739,54167","36,2","ND","ND","ND","ND","ND"],
    [2375,"41739,58333","40,8","ND","ND","ND","ND","ND"],
    [2376,"41739,625","36,7","ND","ND","ND","ND","ND"],
    [2377,"41739,66667","15,3","ND","ND","ND","ND","ND"],
    [2378,"41739,70833","14,3","ND","ND","ND","ND","ND"],
    [2379,"41739,75","15,2","ND","ND","ND","ND","ND"],
    [2380,"41739,79167","17,4","ND","ND","ND","ND","ND"],
    [2381,"41739,83333","16,2","ND","ND","ND","ND","ND"],
    [2382,"41739,875","10,4","ND","ND","ND","ND","ND"],
    [2383,"41739,91667","27,1","ND","ND","ND","ND","ND"],
    [2384,"41739,95833","19,7","ND","ND","ND","ND","ND"],
    [2385,"41769","25,4","ND","ND","ND","ND","ND"],
    [2386,"41769,04167","12","ND","ND","ND","ND","ND"],
    [2387,"41769,08333","33,6","ND","ND","ND","ND","ND"],
    [2388,"41769,125","20,2","ND","ND","ND","ND","ND"],
    [2389,"41769,16667","23","ND","ND","ND","ND","ND"],
    [2390,"41769,20833","23","ND","ND","ND","ND","ND"],
    [2391,"41769,25","17,6","ND","ND","ND","ND","ND"],
    [2392,"41769,29167","18","ND","ND","ND","ND","ND"],
    [2393,"41769,33333","24,4","ND","ND","ND","ND","ND"],
    [2394,"41769,375","28","ND","ND","ND","ND","ND"],
    [2395,"41769,41667","32,4","ND","ND","ND","ND","ND"],
    [2396,"41769,45833","14,5","ND","ND","ND","ND","ND"],
    [2397,"41769,5","24,3","ND","ND","ND","ND","ND"],
    [2398,"41769,54167","21,8","ND","ND","ND","ND","ND"],
    [2399,"41769,58333","24,2","ND","ND","ND","ND","ND"],
    [2400,"41769,625","35,7","ND","ND","ND","ND","ND"],
    [2401,"41769,66667","10,5","ND","ND","ND","ND","ND"],
    [2402,"41769,70833","8,8","ND","ND","ND","ND","ND"],
    [2403,"41769,75","8,7","ND","ND","ND","ND","ND"],
    [2404,"41769,79167","8","ND","ND","ND","ND","ND"],
    [2405,"41769,83333","26","ND","ND","ND","ND","ND"],
    [2406,"41769,875","26","ND","ND","ND","ND","ND"],
    [2407,"41769,91667","21,3","ND","ND","ND","ND","ND"],
    [2408,"41769,95833","20,6","ND","ND","ND","ND","ND"],
    [2409,"41800","25,2","ND","ND","ND","ND","ND"],
    [2410,"41800,04167","38,1","ND","ND","ND","ND","ND"],
    [2411,"41800,08333","38,1","ND","ND","ND","ND","ND"],
    [2412,"41800,125","19,1","ND","ND","ND","ND","ND"],
    [2413,"41800,16667","24,9","ND","ND","ND","ND","ND"],
    [2414,"41800,20833","20,6","ND","ND","ND","ND","ND"],
    [2415,"41800,25","26,6","ND","ND","ND","ND","ND"],
    [2416,"41800,29167","27,3","ND","ND","ND","ND","ND"],
    [2417,"41800,33333","30,7","ND","ND","ND","ND","ND"],
    [2418,"41800,375","30,8","ND","ND","ND","ND","ND"],
    [2419,"41800,41667","23,1","ND","ND","ND","ND","ND"],
    [2420,"41800,45833","20,1","ND","ND","ND","ND","ND"],
    [2421,"41800,5","18,2","ND","ND","ND","ND","ND"],
    [2422,"41800,54167","21,4","ND","ND","ND","ND","ND"],
    [2423,"41800,58333","42,6","ND","ND","ND","ND","ND"],
    [2424,"41800,625","32,9","ND","ND","ND","ND","ND"],
    [2425,"41800,66667","9,7","ND","ND","ND","ND","ND"],
    [2426,"41800,70833","12,9","ND","ND","ND","ND","ND"],
    [2427,"41800,75","17,4","ND","ND","ND","ND","ND"],
    [2428,"41800,79167","17,6","ND","ND","ND","ND","ND"],
    [2429,"41800,83333","17,1","ND","ND","ND","ND","ND"],
    [2430,"41800,875","45,8","ND","ND","ND","ND","ND"],
    [2431,"41800,91667","57","ND","ND","ND","ND","ND"],
    [2432,"41800,95833","43,7","ND","ND","ND","ND","ND"],
    [2433,"41830","13,3","ND","ND","ND","ND","ND"],
    [2434,"41830,04167","34,4","ND","ND","ND","ND","ND"],
    [2435,"41830,08333","24,2","ND","ND","ND","ND","ND"],
    [2436,"41830,125","27","ND","ND","ND","ND","ND"],
    [2437,"41830,16667","26,5","ND","ND","ND","ND","ND"],
    [2438,"41830,20833","16,4","ND","ND","ND","ND","ND"],
    [2439,"41830,25","23,3","ND","ND","ND","ND","ND"],
    [2440,"41830,29167","39,1","ND","ND","ND","ND","ND"],
    [2441,"41830,33333","65,5","ND","ND","ND","ND","ND"],
    [2442,"41830,375","50,4","ND","ND","ND","ND","ND"],
    [2443,"41830,41667","56,9","ND","ND","ND","ND","ND"],
    [2444,"41830,45833","44,7","ND","ND","ND","ND","ND"],
    [2445,"41830,5","54,5","ND","ND","ND","ND","ND"],
    [2446,"41830,54167","55,2","ND","ND","ND","ND","ND"],
    [2447,"41830,58333","46,4","ND","ND","ND","ND","ND"],
    [2448,"41830,625","31,5","ND","ND","ND","ND","ND"],
    [2449,"41830,66667","14,7","ND","ND","ND","ND","ND"],
    [2450,"41830,70833","5,6","ND","ND","ND","ND","ND"],
    [2451,"41830,75","13,6","ND","ND","ND","ND","ND"],
    [2452,"41830,79167","9,9","ND","ND","ND","ND","ND"],
    [2453,"41830,83333","11,9","ND","ND","ND","ND","ND"],
    [2454,"41830,875","26,6","ND","ND","ND","ND","ND"],
    [2455,"41830,91667","36,3","ND","ND","ND","ND","ND"],
    [2456,"41830,95833","16,5","ND","ND","ND","ND","ND"],
    [2457,"41861","14,3","ND","ND","ND","ND","ND"],
    [2458,"41861,04167","12,3","ND","ND","ND","ND","ND"],
    [2459,"41861,08333","8,8","ND","ND","ND","ND","ND"],
    [2460,"41861,125","12,6","ND","ND","ND","ND","ND"],
    [2461,"41861,16667","11,2","ND","ND","ND","ND","ND"],
    [2462,"41861,20833","14,3","ND","ND","ND","ND","ND"],
    [2463,"41861,25","13,1","ND","ND","ND","ND","ND"],
    [2464,"41861,29167","13,6","ND","ND","ND","ND","ND"],
    [2465,"41861,33333","17,4","ND","ND","ND","ND","ND"],
    [2466,"41861,375","19,4","ND","ND","ND","ND","ND"],
    [2467,"41861,41667","18,8","ND","ND","ND","ND","ND"],
    [2468,"41861,45833","14,1","ND","ND","ND","ND","ND"],
    [2469,"41861,5","14,4","ND","ND","ND","ND","ND"],
    [2470,"41861,54167","11,6","ND","ND","ND","ND","ND"],
    [2471,"41861,58333","22,5","ND","ND","ND","ND","ND"],
    [2472,"41861,625","34,1","ND","ND","ND","ND","ND"],
    [2473,"41861,66667","32,7","ND","ND","ND","ND","ND"],
    [2474,"41861,70833","44,3","ND","ND","ND","ND","ND"],
    [2475,"41861,75","1,7","ND","ND","ND","ND","ND"],
    [2476,"41861,79167","27,8","ND","ND","ND","ND","ND"],
    [2477,"41861,83333","33,8","ND","ND","ND","ND","ND"],
    [2478,"41861,875","36,4","ND","ND","ND","ND","ND"],
    [2479,"41861,91667","36,4","ND","ND","ND","ND","ND"],
    [2480,"41861,95833","25,5","ND","ND","ND","ND","ND"],
    [2481,"41892","14,2","ND","ND","ND","ND","ND"],
    [2482,"41892,04167","5,9","ND","ND","ND","ND","ND"],
    [2483,"41892,08333","2,5","ND","ND","ND","ND","ND"],
    [2484,"41892,125","0,3","ND","ND","ND","ND","ND"],
    [2485,"41892,16667","5","ND","ND","ND","ND","ND"],
    [2486,"41892,20833","6,2","ND","ND","ND","ND","ND"],
    [2487,"41892,25","12,5","ND","ND","ND","ND","ND"],
    [2488,"41892,29167","14,4","ND","ND","ND","ND","ND"],
    [2489,"41892,33333","29,4","ND","ND","ND","ND","ND"],
    [2490,"41892,375","27,3","ND","ND","ND","ND","ND"],
    [2491,"41892,41667","17,7","ND","ND","ND","ND","ND"],
    [2492,"41892,45833","13,8","ND","ND","ND","ND","ND"],
    [2493,"41892,5","11,7","ND","ND","ND","ND","ND"],
    [2494,"41892,54167","11,6","ND","ND","ND","ND","ND"],
    [2495,"41892,58333","23,6","ND","ND","ND","ND","ND"],
    [2496,"41892,625","69,8","ND","ND","ND","ND","ND"],
    [2497,"41892,66667","43,6","ND","ND","ND","ND","ND"],
    [2498,"41892,70833","46,7","ND","ND","ND","ND","ND"],
    [2499,"41892,75","47,5","ND","ND","ND","ND","ND"],
    [2500,"41892,79167","41,4","ND","ND","ND","ND","ND"],
    [2501,"41892,83333","36,6","ND","ND","ND","ND","ND"],
    [2502,"41892,875","39,2","ND","ND","ND","ND","ND"],
    [2503,"41892,91667","55,9","ND","ND","ND","ND","ND"],
    [2504,"41892,95833","64,3","ND","ND","ND","ND","ND"],
    [2505,"41922","39,3","ND","ND","ND","ND","ND"],
    [2506,"41922,04167","8,7","ND","ND","ND","ND","ND"],
    [2507,"41922,08333","3,6","ND","ND","ND","ND","ND"],
    [2508,"41922,125","3,6","ND","ND","ND","ND","ND"],
    [2509,"41922,16667","11,6","ND","ND","ND","ND","ND"],
    [2510,"41922,20833","16,4","ND","ND","ND","ND","ND"],
    [2511,"41922,25","18,7","ND","ND","ND","ND","ND"],
    [2512,"41922,29167","23,1","ND","ND","ND","ND","ND"],
    [2513,"41922,33333","35,7","ND","ND","ND","ND","ND"],
    [2514,"41922,375","35,2","ND","ND","ND","ND","ND"],
    [2515,"41922,41667","27,3","ND","ND","ND","ND","ND"],
    [2516,"41922,45833","30","ND","ND","ND","ND","ND"],
    [2517,"41922,5","20,7","ND","ND","ND","ND","ND"],
    [2518,"41922,54167","29,8","ND","ND","ND","ND","ND"],
    [2519,"41922,58333","35,7","ND","ND","ND","ND","ND"],
    [2520,"41922,625","35,8","ND","ND","ND","ND","ND"],
    [2521,"41922,66667","35,8","ND","ND","ND","ND","ND"],
    [2522,"41922,70833","37,9","ND","ND","ND","ND","ND"],
    [2523,"41922,75","35,1","ND","ND","ND","ND","ND"],
    [2524,"41922,79167","25,2","ND","ND","ND","ND","ND"],
    [2525,"41922,83333","25,2","ND","ND","ND","ND","ND"],
    [2526,"41922,875","33,5","ND","ND","ND","ND","ND"],
    [2527,"41922,91667","43,5","ND","ND","ND","ND","ND"],
    [2528,"41922,95833","39","ND","ND","ND","ND","ND"],
    [2529,"41953","47,9","ND","ND","ND","ND","ND"],
    [2530,"41953,04167","29,8","ND","ND","ND","ND","ND"],
    [2531,"41953,08333","31,6","ND","ND","ND","ND","ND"],
    [2532,"41953,125","23,2","ND","ND","ND","ND","ND"],
    [2533,"41953,16667","28,4","ND","ND","ND","ND","ND"],
    [2534,"41953,20833","29,9","ND","ND","ND","ND","ND"],
    [2535,"41953,25","25,1","ND","ND","ND","ND","ND"],
    [2536,"41953,29167","18,1","ND","ND","ND","ND","ND"],
    [2537,"41953,33333","23,2","ND","ND","ND","ND","ND"],
    [2538,"41953,375","34,1","ND","ND","ND","ND","ND"],
    [2539,"41953,41667","38,5","ND","ND","ND","ND","ND"],
    [2540,"41953,45833","37,1","ND","ND","ND","ND","ND"],
    [2541,"41953,5","28,1","ND","ND","ND","ND","ND"],
    [2542,"41953,54167","28,5","ND","ND","ND","ND","ND"],
    [2543,"41953,58333","42,7","ND","ND","ND","ND","ND"],
    [2544,"41953,625","37,2","ND","ND","ND","ND","ND"],
    [2545,"41953,66667","8,5","ND","ND","ND","ND","ND"],
    [2546,"41953,70833","19,6","ND","ND","ND","ND","ND"],
    [2547,"41953,75","24,2","ND","ND","ND","ND","ND"],
    [2548,"41953,79167","26","ND","ND","ND","ND","ND"],
    [2549,"41953,83333","34,5","ND","ND","ND","ND","ND"],
    [2550,"41953,875","31,7","ND","ND","ND","ND","ND"],
    [2551,"41953,91667","47,2","ND","ND","ND","ND","ND"],
    [2552,"41953,95833","43,5","ND","ND","ND","ND","ND"],
    [2553,"41983","64,1","ND","ND","ND","ND","ND"],
    [2554,"41983,04167","37,6","ND","ND","ND","ND","ND"],
    [2555,"41983,08333","24,7","ND","ND","ND","ND","ND"],
    [2556,"41983,125","21,7","ND","ND","ND","ND","ND"],
    [2557,"41983,16667","19,7","ND","ND","ND","ND","ND"],
    [2558,"41983,20833","17,3","ND","ND","ND","ND","ND"],
    [2559,"41983,25","18,2","ND","ND","ND","ND","ND"],
    [2560,"41983,29167","24,9","ND","ND","ND","ND","ND"],
    [2561,"41983,33333","33,9","ND","ND","ND","ND","ND"],
    [2562,"41983,375","38,4","ND","ND","ND","ND","ND"],
    [2563,"41983,41667","38,4","ND","ND","ND","ND","ND"],
    [2564,"41983,45833","58","ND","ND","ND","ND","ND"],
    [2565,"41983,5","47,9","ND","ND","ND","ND","ND"],
    [2566,"41983,54167","49,3","ND","ND","ND","ND","ND"],
    [2567,"41983,58333","49,2","ND","ND","ND","ND","ND"],
    [2568,"41983,625","56,3","ND","ND","ND","ND","ND"],
    [2569,"41983,66667","41,1","ND","ND","ND","ND","ND"],
    [2570,"41983,70833","46,7","ND","ND","ND","ND","ND"],
    [2571,"41983,75","44,7","ND","ND","ND","ND","ND"],
    [2572,"41983,79167","54,5","ND","ND","ND","ND","ND"],
    [2573,"41983,83333","70,7","ND","ND","ND","ND","ND"],
    [2574,"41983,875","52","ND","ND","ND","ND","ND"],
    [2575,"41983,91667","38,9","ND","ND","ND","ND","ND"],
    [2576,"41983,95833","34,2","ND","ND","ND","ND","ND"],
    [2577,"10/13/2014 00:00","37,8","ND","ND","ND","ND","ND"],
    [2578,"10/13/2014 01:00","47,5","ND","ND","ND","ND","ND"],
    [2579,"10/13/2014 02:00","55","ND","ND","ND","ND","ND"],
    [2580,"10/13/2014 03:00","41,7","ND","ND","ND","ND","ND"],
    [2581,"10/13/2014 04:00","41,2","ND","ND","ND","ND","ND"],
    [2582,"10/13/2014 05:00","39,6","ND","ND","ND","ND","ND"],
    [2583,"10/13/2014 06:00","36","ND","ND","ND","ND","ND"],
    [2584,"10/13/2014 07:00","40","ND","ND","ND","ND","ND"],
    [2585,"10/13/2014 08:00","45,5","ND","ND","ND","ND","ND"],
    [2586,"10/13/2014 09:00","65,4","ND","ND","ND","ND","ND"],
    [2587,"10/13/2014 10:00","61,5","ND","ND","ND","ND","ND"],
    [2588,"10/13/2014 11:00","44,6","ND","ND","ND","ND","ND"],
    [2589,"10/13/2014 12:00","40,1","ND","ND","ND","ND","ND"],
    [2590,"10/13/2014 13:00","49,5","ND","ND","ND","ND","ND"],
    [2591,"10/13/2014 14:00","45,8","ND","ND","ND","ND","ND"],
    [2592,"10/13/2014 15:00","58,7","ND","ND","ND","ND","ND"],
    [2593,"10/13/2014 16:00","48","ND","ND","ND","ND","ND"],
    [2594,"10/13/2014 17:00","49,8","ND","ND","ND","ND","ND"],
    [2595,"10/13/2014 18:00","23,2","ND","ND","ND","ND","ND"],
    [2596,"10/13/2014 19:00","19,7","ND","ND","ND","ND","ND"],
    [2597,"10/13/2014 20:00","16,1","ND","ND","ND","ND","ND"],
    [2598,"10/13/2014 21:00","16,1","ND","ND","ND","ND","ND"],
    [2599,"10/13/2014 22:00","37,4","ND","ND","ND","ND","ND"],
    [2600,"10/13/2014 23:00","45","ND","ND","ND","ND","ND"],
    [2601,"10/14/2014 00:00","33,2","ND","ND","ND","ND","ND"],
    [2602,"10/14/2014 01:00","37,5","ND","ND","ND","ND","ND"],
    [2603,"10/14/2014 02:00","29,2","ND","ND","ND","ND","ND"],
    [2604,"10/14/2014 03:00","33,2","ND","ND","ND","ND","ND"],
    [2605,"10/14/2014 04:00","33","ND","ND","ND","ND","ND"],
    [2606,"10/14/2014 05:00","37,3","ND","ND","ND","ND","ND"],
    [2607,"10/14/2014 06:00","44,7","ND","ND","ND","ND","ND"],
    [2608,"10/14/2014 07:00","72,9","ND","ND","ND","ND","ND"],
    [2609,"10/14/2014 08:00","88,3","ND","ND","ND","ND","ND"],
    [2610,"10/14/2014 09:00","82,6","ND","ND","ND","ND","ND"],
    [2611,"10/14/2014 10:00","64,4","ND","ND","ND","ND","ND"],
    [2612,"10/14/2014 11:00","59,8","ND","ND","ND","ND","ND"],
    [2613,"10/14/2014 12:00","46,3","ND","ND","ND","ND","ND"],
    [2614,"10/14/2014 13:00","35,5","ND","ND","ND","ND","ND"],
    [2615,"10/14/2014 14:00","38,2","ND","ND","ND","ND","ND"],
    [2616,"10/14/2014 15:00","43,4","ND","ND","ND","ND","ND"],
    [2617,"10/14/2014 16:00","39,4","ND","ND","ND","ND","ND"],
    [2618,"10/14/2014 17:00","22,8","ND","ND","ND","ND","ND"],
    [2619,"10/14/2014 18:00","20,3","ND","ND","ND","ND","ND"],
    [2620,"10/14/2014 19:00","22,3","ND","ND","ND","ND","ND"],
    [2621,"10/14/2014 20:00","19,2","ND","ND","ND","ND","ND"],
    [2622,"10/14/2014 21:00","18","ND","ND","ND","ND","ND"],
    [2623,"10/14/2014 22:00","31,1","ND","ND","ND","ND","ND"],
    [2624,"10/14/2014 23:00","39,2","ND","ND","ND","ND","ND"],
    [2625,"10/15/2014 00:00","83,1","ND","ND","ND","ND","ND"],
    [2626,"10/15/2014 01:00","51,4","ND","ND","ND","ND","ND"],
    [2627,"10/15/2014 02:00","48,2","ND","ND","ND","ND","ND"],
    [2628,"10/15/2014 03:00","44,9","ND","ND","ND","ND","ND"],
    [2629,"10/15/2014 04:00","41,7","ND","ND","ND","ND","ND"],
    [2630,"10/15/2014 05:00","42,7","ND","ND","ND","ND","ND"],
    [2631,"10/15/2014 06:00","42,6","ND","ND","ND","ND","ND"],
    [2632,"10/15/2014 07:00","57,3","ND","ND","ND","ND","ND"],
    [2633,"10/15/2014 08:00","57,3","ND","ND","ND","ND","ND"],
    [2634,"10/15/2014 09:00","65,6","ND","ND","ND","ND","ND"],
    [2635,"10/15/2014 10:00","71,8","ND","ND","ND","ND","ND"],
    [2636,"10/15/2014 11:00","66,3","ND","ND","ND","ND","ND"],
    [2637,"10/15/2014 12:00","74,7","ND","ND","ND","ND","ND"],
    [2638,"10/15/2014 13:00","77,2","ND","ND","ND","ND","ND"],
    [2639,"10/15/2014 14:00","71,6","ND","ND","ND","ND","ND"],
    [2640,"10/15/2014 15:00","57,4","ND","ND","ND","ND","ND"],
    [2641,"10/15/2014 16:00","18,1","ND","ND","ND","ND","ND"],
    [2642,"10/15/2014 17:00","14,9","ND","ND","ND","ND","ND"],
    [2643,"10/15/2014 18:00","13,3","ND","ND","ND","ND","ND"],
    [2644,"10/15/2014 19:00","15,8","ND","ND","ND","ND","ND"],
    [2645,"10/15/2014 20:00","16,7","ND","ND","ND","ND","ND"],
    [2646,"10/15/2014 21:00","7,6","ND","ND","ND","ND","ND"],
    [2647,"10/15/2014 22:00","36,6","ND","ND","ND","ND","ND"],
    [2648,"10/15/2014 23:00","68,1","ND","ND","ND","ND","ND"],
    [2649,"10/16/2014 00:00","48","ND","ND","ND","ND","ND"],
    [2650,"10/16/2014 01:00","57,4","ND","ND","ND","ND","ND"],
    [2651,"10/16/2014 02:00","46,5","ND","ND","ND","ND","ND"],
    [2652,"10/16/2014 03:00","50","ND","ND","ND","ND","ND"],
    [2653,"10/16/2014 04:00","39,6","ND","ND","ND","ND","ND"],
    [2654,"10/16/2014 05:00","37,9","ND","ND","ND","ND","ND"],
    [2655,"10/16/2014 06:00","40,1","ND","ND","ND","ND","ND"],
    [2656,"10/16/2014 07:00","42,6","ND","ND","ND","ND","ND"],
    [2657,"10/16/2014 08:00","65,2","ND","ND","ND","ND","ND"],
    [2658,"10/16/2014 09:00","57,1","ND","ND","ND","ND","ND"],
    [2659,"10/16/2014 10:00","55,8","ND","ND","ND","ND","ND"],
    [2660,"10/16/2014 11:00","50,4","ND","ND","ND","ND","ND"],
    [2661,"10/16/2014 12:00","42,9","ND","ND","ND","ND","ND"],
    [2662,"10/16/2014 13:00","46,5","ND","ND","ND","ND","ND"],
    [2663,"10/16/2014 14:00","51,4","ND","ND","ND","ND","ND"],
    [2664,"10/16/2014 15:00","64,3","ND","ND","ND","ND","ND"],
    [2665,"10/16/2014 16:00","59,1","ND","ND","ND","ND","ND"],
    [2666,"10/16/2014 17:00","52,8","ND","ND","ND","ND","ND"],
    [2667,"10/16/2014 18:00","26,1","ND","ND","ND","ND","ND"],
    [2668,"10/16/2014 19:00","19,4","ND","ND","ND","ND","ND"],
    [2669,"10/16/2014 20:00","17,9","ND","ND","ND","ND","ND"],
    [2670,"10/16/2014 21:00","35,3","ND","ND","ND","ND","ND"],
    [2671,"10/16/2014 22:00","36,1","ND","ND","ND","ND","ND"],
    [2672,"10/16/2014 23:00","62,8","ND","ND","ND","ND","ND"],
    [2673,"10/17/2014 00:00","33","ND","ND","ND","ND","ND"],
    [2674,"10/17/2014 01:00","56,2","ND","ND","ND","ND","ND"],
    [2675,"10/17/2014 02:00","35,6","ND","ND","ND","ND","ND"],
    [2676,"10/17/2014 03:00","43,3","ND","ND","ND","ND","ND"],
    [2677,"10/17/2014 04:00","36,9","ND","ND","ND","ND","ND"],
    [2678,"10/17/2014 05:00","45,3","ND","ND","ND","ND","ND"],
    [2679,"10/17/2014 06:00","42,9","ND","ND","ND","ND","ND"],
    [2680,"10/17/2014 07:00","68,8","ND","ND","ND","ND","ND"],
    [2681,"10/17/2014 08:00","77,7","ND","ND","ND","ND","ND"],
    [2682,"10/17/2014 09:00","90,2","ND","ND","ND","ND","ND"],
    [2683,"10/17/2014 10:00","98,3","ND","ND","ND","ND","ND"],
    [2684,"10/17/2014 11:00","104,2","ND","ND","ND","ND","ND"],
    [2685,"10/17/2014 12:00","75,7","ND","ND","ND","ND","ND"],
    [2686,"10/17/2014 13:00","78,4","ND","ND","ND","ND","ND"],
    [2687,"10/17/2014 14:00","50,8","ND","ND","ND","ND","ND"],
    [2688,"10/17/2014 15:00","10","ND","ND","ND","ND","ND"],
    [2689,"10/17/2014 16:00","26","ND","ND","ND","ND","ND"],
    [2690,"10/17/2014 17:00","19,6","ND","ND","ND","ND","ND"],
    [2691,"10/17/2014 18:00","16,8","ND","ND","ND","ND","ND"],
    [2692,"10/17/2014 19:00","13,2","ND","ND","ND","ND","ND"],
    [2693,"10/17/2014 20:00","15,3","ND","ND","ND","ND","ND"],
    [2694,"10/17/2014 21:00","45,7","ND","ND","ND","ND","ND"],
    [2695,"10/17/2014 22:00","56,6","ND","ND","ND","ND","ND"],
    [2696,"10/17/2014 23:00","42,7","ND","ND","ND","ND","ND"],
    [2697,"10/18/2014 00:00","27,3","ND","ND","ND","ND","ND"],
    [2698,"10/18/2014 01:00","15,4","ND","ND","ND","ND","ND"],
    [2699,"10/18/2014 02:00","11,8","ND","ND","ND","ND","ND"],
    [2700,"10/18/2014 03:00","13","ND","ND","ND","ND","ND"],
    [2701,"10/18/2014 04:00","10,1","ND","ND","ND","ND","ND"],
    [2702,"10/18/2014 05:00","13,6","ND","ND","ND","ND","ND"],
    [2703,"10/18/2014 06:00","12,1","ND","ND","ND","ND","ND"],
    [2704,"10/18/2014 07:00","15,6","ND","ND","ND","ND","ND"],
    [2705,"10/18/2014 08:00","24,5","ND","ND","ND","ND","ND"],
    [2706,"10/18/2014 09:00","33,4","ND","ND","ND","ND","ND"],
    [2707,"10/18/2014 10:00","19,8","ND","ND","ND","ND","ND"],
    [2708,"10/18/2014 11:00","29,5","ND","ND","ND","ND","ND"],
    [2709,"10/18/2014 12:00","45,4","ND","ND","ND","ND","ND"],
    [2710,"10/18/2014 13:00","37,7","ND","ND","ND","ND","ND"],
    [2711,"10/18/2014 14:00","27,1","ND","ND","ND","ND","ND"],
    [2712,"10/18/2014 15:00","31,7","ND","ND","ND","ND","ND"],
    [2713,"10/18/2014 16:00","32,5","ND","ND","ND","ND","ND"],
    [2714,"10/18/2014 17:00","29,2","ND","ND","ND","ND","ND"],
    [2715,"10/18/2014 18:00","21,9","ND","ND","ND","ND","ND"],
    [2716,"10/18/2014 19:00","22,3","ND","ND","ND","ND","ND"],
    [2717,"10/18/2014 20:00","10,6","ND","ND","ND","ND","ND"],
    [2718,"10/18/2014 21:00","10,6","ND","ND","ND","ND","ND"],
    [2719,"10/18/2014 22:00","44,9","ND","ND","ND","ND","ND"],
    [2720,"10/18/2014 23:00","6,7","ND","ND","ND","ND","ND"],
    [2721,"10/19/2014 00:00","23,7","ND","ND","ND","ND","ND"],
    [2722,"10/19/2014 01:00","6,9","ND","ND","ND","ND","ND"],
    [2723,"10/19/2014 02:00","7,9","ND","ND","ND","ND","ND"],
    [2724,"10/19/2014 03:00","13,3","ND","ND","ND","ND","ND"],
    [2725,"10/19/2014 04:00","14,6","ND","ND","ND","ND","ND"],
    [2726,"10/19/2014 05:00","11,3","ND","ND","ND","ND","ND"],
    [2727,"10/19/2014 06:00","1,5","ND","ND","ND","ND","ND"],
    [2728,"10/19/2014 07:00","6,5","ND","ND","ND","ND","ND"],
    [2729,"10/19/2014 08:00","12","ND","ND","ND","ND","ND"],
    [2730,"10/19/2014 09:00","14,3","ND","ND","ND","ND","ND"],
    [2731,"10/19/2014 10:00","19,3","ND","ND","ND","ND","ND"],
    [2732,"10/19/2014 11:00","26,9","ND","ND","ND","ND","ND"],
    [2733,"10/19/2014 12:00","10,2","ND","ND","ND","ND","ND"],
    [2734,"10/19/2014 13:00","13,3","ND","ND","ND","ND","ND"],
    [2735,"10/19/2014 14:00","16,8","ND","ND","ND","ND","ND"],
    [2736,"10/19/2014 15:00","20,9","ND","ND","ND","ND","ND"],
    [2737,"10/19/2014 16:00","23,6","ND","ND","ND","ND","ND"],
    [2738,"10/19/2014 17:00","9,3","ND","ND","ND","ND","ND"],
    [2739,"10/19/2014 18:00","9,1","ND","ND","ND","ND","ND"],
    [2740,"10/19/2014 19:00","21,8","ND","ND","ND","ND","ND"],
    [2741,"10/19/2014 20:00","42,6","ND","ND","ND","ND","ND"],
    [2742,"10/19/2014 21:00","36,6","ND","ND","ND","ND","ND"],
    [2743,"10/19/2014 22:00","48","ND","ND","ND","ND","ND"],
    [2744,"10/19/2014 23:00","31","ND","ND","ND","ND","ND"],
    [2745,"10/20/2014 00:00","21,5","ND","ND","ND","ND","ND"],
    [2746,"10/20/2014 01:00","22,9","ND","ND","ND","ND","ND"],
    [2747,"10/20/2014 02:00","20,5","ND","ND","ND","ND","ND"],
    [2748,"10/20/2014 03:00","13,5","ND","ND","ND","ND","ND"],
    [2749,"10/20/2014 04:00","16","ND","ND","ND","ND","ND"],
    [2750,"10/20/2014 05:00","21,8","ND","ND","ND","ND","ND"],
    [2751,"10/20/2014 06:00","23,3","ND","ND","ND","ND","ND"],
    [2752,"10/20/2014 07:00","38,2","ND","ND","ND","ND","ND"],
    [2753,"10/20/2014 08:00","50,6","ND","ND","ND","ND","ND"],
    [2754,"10/20/2014 09:00","52,4","ND","ND","ND","ND","ND"],
    [2755,"10/20/2014 10:00","38,6","ND","ND","ND","ND","ND"],
    [2756,"10/20/2014 11:00","69,9","ND","ND","ND","ND","ND"],
    [2757,"10/20/2014 12:00","59","ND","ND","ND","ND","ND"],
    [2758,"10/20/2014 13:00","36,3","ND","ND","ND","ND","ND"],
    [2759,"10/20/2014 14:00","56,9","ND","ND","ND","ND","ND"],
    [2760,"10/20/2014 15:00","46,3","ND","ND","ND","ND","ND"],
    [2761,"10/20/2014 16:00","46,3","ND","ND","ND","ND","ND"],
    [2762,"10/20/2014 17:00","41,1","ND","ND","ND","ND","ND"],
    [2763,"10/20/2014 18:00","11,7","ND","ND","ND","ND","ND"],
    [2764,"10/20/2014 19:00","21,4","ND","ND","ND","ND","ND"],
    [2765,"10/20/2014 20:00","38,1","ND","ND","ND","ND","ND"],
    [2766,"10/20/2014 21:00","15","ND","ND","ND","ND","ND"],
    [2767,"10/20/2014 22:00","24,9","ND","ND","ND","ND","ND"],
    [2768,"10/20/2014 23:00","21,3","ND","ND","ND","ND","ND"],
    [2769,"10/21/2014 00:00","53,4","ND","ND","ND","ND","ND"],
    [2770,"10/21/2014 01:00","31","ND","ND","ND","ND","ND"],
    [2771,"10/21/2014 02:00","17,4","ND","ND","ND","ND","ND"],
    [2772,"10/21/2014 03:00","24,2","ND","ND","ND","ND","ND"],
    [2773,"10/21/2014 04:00","23","ND","ND","ND","ND","ND"],
    [2774,"10/21/2014 05:00","24,8","ND","ND","ND","ND","ND"],
    [2775,"10/21/2014 06:00","29,1","ND","ND","ND","ND","ND"],
    [2776,"10/21/2014 07:00","42,8","ND","ND","ND","ND","ND"],
    [2777,"10/21/2014 08:00","59","ND","ND","ND","ND","ND"],
    [2778,"10/21/2014 09:00","97","ND","ND","ND","ND","ND"],
    [2779,"10/21/2014 10:00","53","ND","ND","ND","ND","ND"],
    [2780,"10/21/2014 11:00","77,9","ND","ND","ND","ND","ND"],
    [2781,"10/21/2014 12:00","47,6","ND","ND","ND","ND","ND"],
    [2782,"10/21/2014 13:00","36,8","ND","ND","ND","ND","ND"],
    [2783,"10/21/2014 14:00","36,9","ND","ND","ND","ND","ND"],
    [2784,"10/21/2014 15:00","32,6","ND","ND","ND","ND","ND"],
    [2785,"10/21/2014 16:00","43,8","ND","ND","ND","ND","ND"],
    [2786,"10/21/2014 17:00","43,8","ND","ND","ND","ND","ND"],
    [2787,"10/21/2014 18:00","44,6","ND","ND","ND","ND","ND"],
    [2788,"10/21/2014 19:00","29,2","ND","ND","ND","ND","ND"],
    [2789,"10/21/2014 20:00","23,5","ND","ND","ND","ND","ND"],
    [2790,"10/21/2014 21:00","11","ND","ND","ND","ND","ND"],
    [2791,"10/21/2014 22:00","30,3","ND","ND","ND","ND","ND"],
    [2792,"10/21/2014 23:00","73,6","ND","ND","ND","ND","ND"],
    [2793,"10/22/2014 00:00","12,1","ND","ND","ND","ND","ND"],
    [2794,"10/22/2014 01:00","50,8","ND","ND","ND","ND","ND"],
    [2795,"10/22/2014 02:00","42,6","ND","ND","ND","ND","ND"],
    [2796,"10/22/2014 03:00","40,8","ND","ND","ND","ND","ND"],
    [2797,"10/22/2014 04:00","34,6","ND","ND","ND","ND","ND"],
    [2798,"10/22/2014 05:00","33,9","ND","ND","ND","ND","ND"],
    [2799,"10/22/2014 06:00","47,2","ND","ND","ND","ND","ND"],
    [2800,"10/22/2014 07:00","61,5","ND","ND","ND","ND","ND"],
    [2801,"10/22/2014 08:00","84","ND","ND","ND","ND","ND"],
    [2802,"10/22/2014 09:00","91,6","ND","ND","ND","ND","ND"],
    [2803,"10/22/2014 10:00","70,1","ND","ND","ND","ND","ND"],
    [2804,"10/22/2014 11:00","53,3","ND","ND","ND","ND","ND"],
    [2805,"10/22/2014 12:00","59,4","ND","ND","ND","ND","ND"],
    [2806,"10/22/2014 13:00","15","ND","ND","ND","ND","ND"],
    [2807,"10/22/2014 14:00","3,1","ND","ND","ND","ND","ND"],
    [2808,"10/22/2014 15:00","7,1","ND","ND","ND","ND","ND"],
    [2809,"10/22/2014 16:00","3","ND","ND","ND","ND","ND"],
    [2810,"10/22/2014 17:00","29,8","ND","ND","ND","ND","ND"],
    [2811,"10/22/2014 18:00","29,8","ND","ND","ND","ND","ND"],
    [2812,"10/22/2014 19:00","25,9","ND","ND","ND","ND","ND"],
    [2813,"10/22/2014 20:00","34","ND","ND","ND","ND","ND"],
    [2814,"10/22/2014 21:00","26,1","ND","ND","ND","ND","ND"],
    [2815,"10/22/2014 22:00","12,9","ND","ND","ND","ND","ND"],
    [2816,"10/22/2014 23:00","9,7","ND","ND","ND","ND","ND"],
    [2817,"10/23/2014 00:00","32,4","ND","ND","ND","ND","ND"],
    [2818,"10/23/2014 01:00","11,4","ND","ND","ND","ND","ND"],
    [2819,"10/23/2014 02:00","13,2","ND","ND","ND","ND","ND"],
    [2820,"10/23/2014 03:00","8","ND","ND","ND","ND","ND"],
    [2821,"10/23/2014 04:00","13,3","ND","ND","ND","ND","ND"],
    [2822,"10/23/2014 05:00","19,8","ND","ND","ND","ND","ND"],
    [2823,"10/23/2014 06:00","20,2","ND","ND","ND","ND","ND"],
    [2824,"10/23/2014 07:00","34,8","ND","ND","ND","ND","ND"],
    [2825,"10/23/2014 08:00","44,4","ND","ND","ND","ND","ND"],
    [2826,"10/23/2014 09:00","47,4","ND","ND","ND","ND","ND"],
    [2827,"10/23/2014 10:00","47,4","ND","ND","ND","ND","ND"],
    [2828,"10/23/2014 11:00","30,8","ND","ND","ND","ND","ND"],
    [2829,"10/23/2014 12:00","24,7","ND","ND","ND","ND","ND"],
    [2830,"10/23/2014 13:00","56,7","ND","ND","ND","ND","ND"],
    [2831,"10/23/2014 14:00","57,7","ND","ND","ND","ND","ND"],
    [2832,"10/23/2014 15:00","24,9","ND","ND","ND","ND","ND"],
    [2833,"10/23/2014 16:00","7,6","ND","ND","ND","ND","ND"],
    [2834,"10/23/2014 17:00","51,5","ND","ND","ND","ND","ND"],
    [2835,"10/23/2014 18:00","18,3","ND","ND","ND","ND","ND"],
    [2836,"10/23/2014 19:00","34","ND","ND","ND","ND","ND"],
    [2837,"10/23/2014 20:00","35,7","ND","ND","ND","ND","ND"],
    [2838,"10/23/2014 21:00","42,9","ND","ND","ND","ND","ND"],
    [2839,"10/23/2014 22:00","37,2","ND","ND","ND","ND","ND"],
    [2840,"10/23/2014 23:00","54,7","ND","ND","ND","ND","ND"],
    [2841,"10/24/2014 00:00","49,4","ND","ND","ND","ND","ND"],
    [2842,"10/24/2014 01:00","31,3","ND","ND","ND","ND","ND"],
    [2843,"10/24/2014 02:00","22,9","ND","ND","ND","ND","ND"],
    [2844,"10/24/2014 03:00","19,9","ND","ND","ND","ND","ND"],
    [2845,"10/24/2014 04:00","33,5","ND","ND","ND","ND","ND"],
    [2846,"10/24/2014 05:00","29,2","ND","ND","ND","ND","ND"],
    [2847,"10/24/2014 06:00","47,8","ND","ND","ND","ND","ND"],
    [2848,"10/24/2014 07:00","66","ND","ND","ND","ND","ND"],
    [2849,"10/24/2014 08:00","73,8","ND","ND","ND","ND","ND"],
    [2850,"10/24/2014 09:00","67,7","ND","ND","ND","ND","ND"],
    [2851,"10/24/2014 10:00","70,2","ND","ND","ND","ND","ND"],
    [2852,"10/24/2014 11:00","80,9","ND","ND","ND","ND","ND"],
    [2853,"10/24/2014 12:00","55,9","ND","ND","ND","ND","ND"],
    [2854,"10/24/2014 13:00","36,7","ND","ND","ND","ND","ND"],
    [2855,"10/24/2014 14:00","47,2","ND","ND","ND","ND","ND"],
    [2856,"10/24/2014 15:00","35,4","ND","ND","ND","ND","ND"],
    [2857,"10/24/2014 16:00","ND","ND","ND","ND","ND","ND"],
    [2858,"10/24/2014 17:00","ND","ND","ND","ND","ND","ND"],
    [2859,"10/24/2014 18:00","ND","ND","ND","ND","ND","ND"],
    [2860,"10/24/2014 19:00","ND","ND","ND","ND","ND","ND"],
    [2861,"10/24/2014 20:00","37,2","ND","ND","ND","ND","ND"],
    [2862,"10/24/2014 21:00","45,4","ND","ND","ND","ND","ND"],
    [2863,"10/24/2014 22:00","29","ND","ND","ND","ND","ND"],
    [2864,"10/24/2014 23:00","42,3","ND","ND","ND","ND","ND"],
    [2865,"10/25/2014 00:00","31,9","ND","ND","ND","ND","ND"],
    [2866,"10/25/2014 01:00","32,9","ND","ND","ND","ND","ND"],
    [2867,"10/25/2014 02:00","28,4","ND","ND","ND","ND","ND"],
    [2868,"10/25/2014 03:00","31,1","ND","ND","ND","ND","ND"],
    [2869,"10/25/2014 04:00","19,9","ND","ND","ND","ND","ND"],
    [2870,"10/25/2014 05:00","9","ND","ND","ND","ND","ND"],
    [2871,"10/25/2014 06:00","8,3","ND","ND","ND","ND","ND"],
    [2872,"10/25/2014 07:00","13","ND","ND","ND","ND","ND"],
    [2873,"10/25/2014 08:00","16,9","ND","ND","ND","ND","ND"],
    [2874,"10/25/2014 09:00","23,5","ND","ND","ND","ND","ND"],
    [2875,"10/25/2014 10:00","27,8","ND","ND","ND","ND","ND"],
    [2876,"10/25/2014 11:00","26,1","ND","ND","ND","ND","ND"],
    [2877,"10/25/2014 12:00","19,5","ND","ND","ND","ND","ND"],
    [2878,"10/25/2014 13:00","15,6","ND","ND","ND","ND","ND"],
    [2879,"10/25/2014 14:00","15,7","ND","ND","ND","ND","ND"],
    [2880,"10/25/2014 15:00","15,9","ND","ND","ND","ND","ND"],
    [2881,"10/25/2014 16:00","20,9","ND","ND","ND","ND","ND"],
    [2882,"10/25/2014 17:00","22,6","ND","ND","ND","ND","ND"],
    [2883,"10/25/2014 18:00","18,8","ND","ND","ND","ND","ND"],
    [2884,"10/25/2014 19:00","10,1","ND","ND","ND","ND","ND"],
    [2885,"10/25/2014 20:00","10,2","ND","ND","ND","ND","ND"],
    [2886,"10/25/2014 21:00","19,1","ND","ND","ND","ND","ND"],
    [2887,"10/25/2014 22:00","23,7","ND","ND","ND","ND","ND"],
    [2888,"10/25/2014 23:00","28,8","ND","ND","ND","ND","ND"],
    [2889,"10/26/2014 00:00","27,7","ND","ND","ND","ND","ND"],
    [2890,"10/26/2014 01:00","30,1","ND","ND","ND","ND","ND"],
    [2891,"10/26/2014 02:00","37,3","ND","ND","ND","ND","ND"],
    [2892,"10/26/2014 03:00","30,8","ND","ND","ND","ND","ND"],
    [2893,"10/26/2014 04:00","25,1","ND","ND","ND","ND","ND"],
    [2894,"10/26/2014 05:00","24","ND","ND","ND","ND","ND"],
    [2895,"10/26/2014 06:00","12,1","ND","ND","ND","ND","ND"],
    [2896,"10/26/2014 07:00","13,7","ND","ND","ND","ND","ND"],
    [2897,"10/26/2014 08:00","14,1","ND","ND","ND","ND","ND"],
    [2898,"10/26/2014 09:00","11,7","ND","ND","ND","ND","ND"],
    [2899,"10/26/2014 10:00","11,4","ND","ND","ND","ND","ND"],
    [2900,"10/26/2014 11:00","10,8","ND","ND","ND","ND","ND"],
    [2901,"10/26/2014 12:00","8,3","ND","ND","ND","ND","ND"],
    [2902,"10/26/2014 13:00","10,1","ND","ND","ND","ND","ND"],
    [2903,"10/26/2014 14:00","13","ND","ND","ND","ND","ND"],
    [2904,"10/26/2014 15:00","12,1","ND","ND","ND","ND","ND"],
    [2905,"10/26/2014 16:00","11,1","ND","ND","ND","ND","ND"],
    [2906,"10/26/2014 17:00","8,4","ND","ND","ND","ND","ND"],
    [2907,"10/26/2014 18:00","15,6","ND","ND","ND","ND","ND"],
    [2908,"10/26/2014 19:00","20,3","ND","ND","ND","ND","ND"],
    [2909,"10/26/2014 20:00","27,9","ND","ND","ND","ND","ND"],
    [2910,"10/26/2014 21:00","25,4","ND","ND","ND","ND","ND"],
    [2911,"10/26/2014 22:00","23,3","ND","ND","ND","ND","ND"],
    [2912,"10/26/2014 23:00","31,7","ND","ND","ND","ND","ND"],
    [2913,"10/27/2014 00:00","67","ND","ND","ND","ND","ND"],
    [2914,"10/27/2014 01:00","29,8","ND","ND","ND","ND","ND"],
    [2915,"10/27/2014 02:00","24,2","ND","ND","ND","ND","ND"],
    [2916,"10/27/2014 03:00","25,1","ND","ND","ND","ND","ND"],
    [2917,"10/27/2014 04:00","26","ND","ND","ND","ND","ND"],
    [2918,"10/27/2014 05:00","24,7","ND","ND","ND","ND","ND"],
    [2919,"10/27/2014 06:00","31,4","ND","ND","ND","ND","ND"],
    [2920,"10/27/2014 07:00","45,8","ND","ND","ND","ND","ND"],
    [2921,"10/27/2014 08:00","70","ND","ND","ND","ND","ND"],
    [2922,"10/27/2014 09:00","55,2","ND","ND","ND","ND","ND"],
    [2923,"10/27/2014 10:00","62","ND","ND","ND","ND","ND"],
    [2924,"10/27/2014 11:00","81,7","ND","ND","ND","ND","ND"],
    [2925,"10/27/2014 12:00","61,1","ND","ND","ND","ND","ND"],
    [2926,"10/27/2014 13:00","49,2","ND","ND","ND","ND","ND"],
    [2927,"10/27/2014 14:00","52,7","ND","ND","ND","ND","ND"],
    [2928,"10/27/2014 15:00","53,3","ND","ND","ND","ND","ND"],
    [2929,"10/27/2014 16:00","49,8","ND","ND","ND","ND","ND"],
    [2930,"10/27/2014 17:00","50,1","ND","ND","ND","ND","ND"],
    [2931,"10/27/2014 18:00","27,9","ND","ND","ND","ND","ND"],
    [2932,"10/27/2014 19:00","12,8","ND","ND","ND","ND","ND"],
    [2933,"10/27/2014 20:00","13,9","ND","ND","ND","ND","ND"],
    [2934,"10/27/2014 21:00","16,8","ND","ND","ND","ND","ND"],
    [2935,"10/27/2014 22:00","33,5","ND","ND","ND","ND","ND"],
    [2936,"10/27/2014 23:00","62,2","ND","ND","ND","ND","ND"],
    [2937,"10/28/2014 00:00","43,6","ND","ND","ND","ND","ND"],
    [2938,"10/28/2014 01:00","43,9","ND","ND","ND","ND","ND"],
    [2939,"10/28/2014 02:00","45,3","ND","ND","ND","ND","ND"],
    [2940,"10/28/2014 03:00","44,1","ND","ND","ND","ND","ND"],
    [2941,"10/28/2014 04:00","40,6","ND","ND","ND","ND","ND"],
    [2942,"10/28/2014 05:00","41,6","ND","ND","ND","ND","ND"],
    [2943,"10/28/2014 06:00","41,2","ND","ND","ND","ND","ND"],
    [2944,"10/28/2014 07:00","59,4","ND","ND","ND","ND","ND"],
    [2945,"10/28/2014 08:00","80,1","ND","ND","ND","ND","ND"],
    [2946,"10/28/2014 09:00","75","ND","ND","ND","ND","ND"],
    [2947,"10/28/2014 10:00","61,9","ND","ND","ND","ND","ND"],
    [2948,"10/28/2014 11:00","46,1","ND","ND","ND","ND","ND"],
    [2949,"10/28/2014 12:00","40,2","ND","ND","ND","ND","ND"],
    [2950,"10/28/2014 13:00","32,2","ND","ND","ND","ND","ND"],
    [2951,"10/28/2014 14:00","25,5","ND","ND","ND","ND","ND"],
    [2952,"10/28/2014 15:00","5,9","ND","ND","ND","ND","ND"],
    [2953,"10/28/2014 16:00","7,5","ND","ND","ND","ND","ND"],
    [2954,"10/28/2014 17:00","26,3","ND","ND","ND","ND","ND"],
    [2955,"10/28/2014 18:00","46","ND","ND","ND","ND","ND"],
    [2956,"10/28/2014 19:00","66,7","ND","ND","ND","ND","ND"],
    [2957,"10/28/2014 20:00","54,4","ND","ND","ND","ND","ND"],
    [2958,"10/28/2014 21:00","15,7","ND","ND","ND","ND","ND"],
    [2959,"10/28/2014 22:00","41,8","ND","ND","ND","ND","ND"],
    [2960,"10/28/2014 23:00","71,9","ND","ND","ND","ND","ND"],
    [2961,"10/29/2014 00:00","21,6","ND","ND","ND","ND","ND"],
    [2962,"10/29/2014 01:00","36","ND","ND","ND","ND","ND"],
    [2963,"10/29/2014 02:00","29,6","ND","ND","ND","ND","ND"],
    [2964,"10/29/2014 03:00","30,7","ND","ND","ND","ND","ND"],
    [2965,"10/29/2014 04:00","27,4","ND","ND","ND","ND","ND"],
    [2966,"10/29/2014 05:00","32,2","ND","ND","ND","ND","ND"],
    [2967,"10/29/2014 06:00","37,2","ND","ND","ND","ND","ND"],
    [2968,"10/29/2014 07:00","52,2","ND","ND","ND","ND","ND"],
    [2969,"10/29/2014 08:00","66,6","ND","ND","ND","ND","ND"],
    [2970,"10/29/2014 09:00","74,2","ND","ND","ND","ND","ND"],
    [2971,"10/29/2014 10:00","79,4","ND","ND","ND","ND","ND"],
    [2972,"10/29/2014 11:00","53,4","ND","ND","ND","ND","ND"],
    [2973,"10/29/2014 12:00","52","ND","ND","ND","ND","ND"],
    [2974,"10/29/2014 13:00","51,8","ND","ND","ND","ND","ND"],
    [2975,"10/29/2014 14:00","33,4","ND","ND","ND","ND","ND"],
    [2976,"10/29/2014 15:00","31,6","ND","ND","ND","ND","ND"],
    [2977,"10/29/2014 16:00","18,6","ND","ND","ND","ND","ND"],
    [2978,"10/29/2014 17:00","11,1","ND","ND","ND","ND","ND"],
    [2979,"10/29/2014 18:00","14,7","ND","ND","ND","ND","ND"],
    [2980,"10/29/2014 19:00","15,9","ND","ND","ND","ND","ND"],
    [2981,"10/29/2014 20:00","14,3","ND","ND","ND","ND","ND"],
    [2982,"10/29/2014 21:00","10,8","ND","ND","ND","ND","ND"],
    [2983,"10/29/2014 22:00","14,3","ND","ND","ND","ND","ND"],
    [2984,"10/29/2014 23:00","18,6","ND","ND","ND","ND","ND"],
    [2985,"10/30/2014 00:00","22","ND","ND","ND","ND","ND"],
    [2986,"10/30/2014 01:00","32,3","ND","ND","ND","ND","ND"],
    [2987,"10/30/2014 02:00","30,8","ND","ND","ND","ND","ND"],
    [2988,"10/30/2014 03:00","7,8","ND","ND","ND","ND","ND"],
    [2989,"10/30/2014 04:00","2,7","ND","ND","ND","ND","ND"],
    [2990,"10/30/2014 05:00","10","ND","ND","ND","ND","ND"],
    [2991,"10/30/2014 06:00","9,3","ND","ND","ND","ND","ND"],
    [2992,"10/30/2014 07:00","20,4","ND","ND","ND","ND","ND"],
    [2993,"10/30/2014 08:00","39","ND","ND","ND","ND","ND"],
    [2994,"10/30/2014 09:00","44,8","ND","ND","ND","ND","ND"],
    [2995,"10/30/2014 10:00","44,8","ND","ND","ND","ND","ND"],
    [2996,"10/30/2014 11:00","27,2","ND","ND","ND","ND","ND"],
    [2997,"10/30/2014 12:00","21","ND","ND","ND","ND","ND"],
    [2998,"10/30/2014 13:00","25,7","ND","ND","ND","ND","ND"],
    [2999,"10/30/2014 14:00","20,2","ND","ND","ND","ND","ND"],
    [3000,"10/30/2014 15:00","13,2","ND","ND","ND","ND","ND"],
    [3001,"10/30/2014 16:00","15,4","ND","ND","ND","ND","ND"],
    [3002,"10/30/2014 17:00","29","ND","ND","ND","ND","ND"],
    [3003,"10/30/2014 18:00","33,6","ND","ND","ND","ND","ND"],
    [3004,"10/30/2014 19:00","59,2","ND","ND","ND","ND","ND"],
    [3005,"10/30/2014 20:00","64,2","ND","ND","ND","ND","ND"],
    [3006,"10/30/2014 21:00","39,8","ND","ND","ND","ND","ND"],
    [3007,"10/30/2014 22:00","30,8","ND","ND","ND","ND","ND"],
    [3008,"10/30/2014 23:00","49,9","ND","ND","ND","ND","ND"],
    [3009,"10/31/2014 00:00","46,5","ND","ND","ND","ND","ND"],
    [3010,"10/31/2014 01:00","24,2","ND","ND","ND","ND","ND"],
    [3011,"10/31/2014 02:00","21,8","ND","ND","ND","ND","ND"],
    [3012,"10/31/2014 03:00","14,2","ND","ND","ND","ND","ND"],
    [3013,"10/31/2014 04:00","7,1","ND","ND","ND","ND","ND"],
    [3014,"10/31/2014 05:00","10,2","ND","ND","ND","ND","ND"],
    [3015,"10/31/2014 06:00","10,6","ND","ND","ND","ND","ND"],
    [3016,"10/31/2014 07:00","13,4","ND","ND","ND","ND","ND"],
    [3017,"10/31/2014 08:00","27,7","ND","ND","ND","ND","ND"],
    [3018,"10/31/2014 09:00","34,6","ND","ND","ND","ND","ND"],
    [3019,"10/31/2014 10:00","52,1","ND","ND","ND","ND","ND"],
    [3020,"10/31/2014 11:00","45,4","ND","ND","ND","ND","ND"],
    [3021,"10/31/2014 12:00","35,3","ND","ND","ND","ND","ND"],
    [3022,"10/31/2014 13:00","24,3","ND","ND","ND","ND","ND"],
    [3023,"10/31/2014 14:00","19,2","ND","ND","ND","ND","ND"],
    [3024,"10/31/2014 15:00","21,5","ND","ND","ND","ND","ND"],
    [3025,"10/31/2014 16:00","23,4","ND","ND","ND","ND","ND"],
    [3026,"10/31/2014 17:00","44,5","ND","ND","ND","ND","ND"],
    [3027,"10/31/2014 18:00","50","ND","ND","ND","ND","ND"],
    [3028,"10/31/2014 19:00","16,5","ND","ND","ND","ND","ND"],
    [3029,"10/31/2014 20:00","15,3","ND","ND","ND","ND","ND"],
    [3030,"10/31/2014 21:00","20,5","ND","ND","ND","ND","ND"],
    [3031,"10/31/2014 22:00","34,7","ND","ND","ND","ND","ND"],
    [3032,"10/31/2014 23:00","46,8","ND","ND","ND","ND","ND"],
    [3033,"41650","35,2","ND","ND","ND","ND","ND"],
    [3034,"41650,04167","43","ND","ND","ND","ND","ND"],
    [3035,"41650,08333","31,3","ND","ND","ND","ND","ND"],
    [3036,"41650,125","33,1","ND","ND","ND","ND","ND"],
    [3037,"41650,16667","31,1","ND","ND","ND","ND","ND"],
    [3038,"41650,20833","41,1","ND","ND","ND","ND","ND"],
    [3039,"41650,25","40","ND","ND","ND","ND","ND"],
    [3040,"41650,29167","49,8","ND","ND","ND","ND","ND"],
    [3041,"41650,33333","57","ND","ND","ND","ND","ND"],
    [3042,"41650,375","58","ND","ND","ND","ND","ND"],
    [3043,"41650,41667","46,6","ND","ND","ND","ND","ND"],
    [3044,"41650,45833","43","ND","ND","ND","ND","ND"],
    [3045,"41650,5","52,2","ND","ND","ND","ND","ND"],
    [3046,"41650,54167","67","ND","ND","ND","ND","ND"],
    [3047,"41650,58333","55,3","ND","ND","ND","ND","ND"],
    [3048,"41650,625","54,9","ND","ND","ND","ND","ND"],
    [3049,"41650,66667","27,6","ND","ND","ND","ND","ND"],
    [3050,"41650,70833","7,7","ND","ND","ND","ND","ND"],
    [3051,"41650,75","14,4","ND","ND","ND","ND","ND"],
    [3052,"41650,79167","17,1","ND","ND","ND","ND","ND"],
    [3053,"41650,83333","14,7","ND","ND","ND","ND","ND"],
    [3054,"41650,875","19,1","ND","ND","ND","ND","ND"],
    [3055,"41650,91667","17,6","ND","ND","ND","ND","ND"],
    [3056,"41650,95833","23,3","ND","ND","ND","ND","ND"],
    [3057,"41681","55,2","ND","ND","ND","ND","ND"],
    [3058,"41681,04167","50,9","ND","ND","ND","ND","ND"],
    [3059,"41681,08333","39,4","ND","ND","ND","ND","ND"],
    [3060,"41681,125","48,4","ND","ND","ND","ND","ND"],
    [3061,"41681,16667","48,4","ND","ND","ND","ND","ND"],
    [3062,"41681,20833","26,3","ND","ND","ND","ND","ND"],
    [3063,"41681,25","22","ND","ND","ND","ND","ND"],
    [3064,"41681,29167","16,5","ND","ND","ND","ND","ND"],
    [3065,"41681,33333","16,8","ND","ND","ND","ND","ND"],
    [3066,"41681,375","24,3","ND","ND","ND","ND","ND"],
    [3067,"41681,41667","28,7","ND","ND","ND","ND","ND"],
    [3068,"41681,45833","42,9","ND","ND","ND","ND","ND"],
    [3069,"41681,5","35","ND","ND","ND","ND","ND"],
    [3070,"41681,54167","30,8","ND","ND","ND","ND","ND"],
    [3071,"41681,58333","22,8","ND","ND","ND","ND","ND"],
    [3072,"41681,625","26,1","ND","ND","ND","ND","ND"],
    [3073,"41681,66667","30,5","ND","ND","ND","ND","ND"],
    [3074,"41681,70833","35,1","ND","ND","ND","ND","ND"],
    [3075,"41681,75","42,2","ND","ND","ND","ND","ND"],
    [3076,"41681,79167","62,3","ND","ND","ND","ND","ND"],
    [3077,"41681,83333","56,9","ND","ND","ND","ND","ND"],
    [3078,"41681,875","52,6","ND","ND","ND","ND","ND"],
    [3079,"41681,91667","48,6","ND","ND","ND","ND","ND"],
    [3080,"41681,95833","60,2","ND","ND","ND","ND","ND"],
    [3081,"41709","28,9","ND","ND","ND","ND","ND"],
    [3082,"41709,04167","48,7","ND","ND","ND","ND","ND"],
    [3083,"41709,08333","54,6","ND","ND","ND","ND","ND"],
    [3084,"41709,125","45,5","ND","ND","ND","ND","ND"],
    [3085,"41709,16667","42,3","ND","ND","ND","ND","ND"],
    [3086,"41709,20833","46,6","ND","ND","ND","ND","ND"],
    [3087,"41709,25","41,5","ND","ND","ND","ND","ND"],
    [3088,"41709,29167","51,2","ND","ND","ND","ND","ND"],
    [3089,"41709,33333","57,6","ND","ND","ND","ND","ND"],
    [3090,"41709,375","51,2","ND","ND","ND","ND","ND"],
    [3091,"41709,41667","37","ND","ND","ND","ND","ND"],
    [3092,"41709,45833","43,3","ND","ND","ND","ND","ND"],
    [3093,"41709,5","35,8","ND","ND","ND","ND","ND"],
    [3094,"41709,54167","38,8","ND","ND","ND","ND","ND"],
    [3095,"41709,58333","38,8","ND","ND","ND","ND","ND"],
    [3096,"41709,625","46","ND","ND","ND","ND","ND"],
    [3097,"41709,66667","19,3","ND","ND","ND","ND","ND"],
    [3098,"41709,70833","10,7","ND","ND","ND","ND","ND"],
    [3099,"41709,75","10,9","ND","ND","ND","ND","ND"],
    [3100,"41709,79167","10","ND","ND","ND","ND","ND"],
    [3101,"41709,83333","15,6","ND","ND","ND","ND","ND"],
    [3102,"41709,875","37,4","ND","ND","ND","ND","ND"],
    [3103,"41709,91667","37,2","ND","ND","ND","ND","ND"],
    [3104,"41709,95833","29,6","ND","ND","ND","ND","ND"],
    [3105,"41740","26,4","ND","ND","ND","ND","ND"],
    [3106,"41740,04167","28","ND","ND","ND","ND","ND"],
    [3107,"41740,08333","25,1","ND","ND","ND","ND","ND"],
    [3108,"41740,125","20,8","ND","ND","ND","ND","ND"],
    [3109,"41740,16667","26,7","ND","ND","ND","ND","ND"],
    [3110,"41740,20833","24,5","ND","ND","ND","ND","ND"],
    [3111,"41740,25","48,8","ND","ND","ND","ND","ND"],
    [3112,"41740,29167","39,5","ND","ND","ND","ND","ND"],
    [3113,"41740,33333","54,2","ND","ND","ND","ND","ND"],
    [3114,"41740,375","53,3","ND","ND","ND","ND","ND"],
    [3115,"41740,41667","75,2","ND","ND","ND","ND","ND"],
    [3116,"41740,45833","44,8","ND","ND","ND","ND","ND"],
    [3117,"41740,5","37,4","ND","ND","ND","ND","ND"],
    [3118,"41740,54167","34,9","ND","ND","ND","ND","ND"],
    [3119,"41740,58333","22,5","ND","ND","ND","ND","ND"],
    [3120,"41740,625","5,4","ND","ND","ND","ND","ND"],
    [3121,"41740,66667","7,3","ND","ND","ND","ND","ND"],
    [3122,"41740,70833","8,4","ND","ND","ND","ND","ND"],
    [3123,"41740,75","10,7","ND","ND","ND","ND","ND"],
    [3124,"41740,79167","25","ND","ND","ND","ND","ND"],
    [3125,"41740,83333","32,5","ND","ND","ND","ND","ND"],
    [3126,"41740,875","19,9","ND","ND","ND","ND","ND"],
    [3127,"41740,91667","40","ND","ND","ND","ND","ND"],
    [3128,"41740,95833","15,8","ND","ND","ND","ND","ND"],
    [3129,"41770","26,4","ND","ND","ND","ND","ND"],
    [3130,"41770,04167","15,6","ND","ND","ND","ND","ND"],
    [3131,"41770,08333","12,1","ND","ND","ND","ND","ND"],
    [3132,"41770,125","8","ND","ND","ND","ND","ND"],
    [3133,"41770,16667","4,5","ND","ND","ND","ND","ND"],
    [3134,"41770,20833","6,4","ND","ND","ND","ND","ND"],
    [3135,"41770,25","10,7","ND","ND","ND","ND","ND"],
    [3136,"41770,29167","25,1","ND","ND","ND","ND","ND"],
    [3137,"41770,33333","33,1","ND","ND","ND","ND","ND"],
    [3138,"41770,375","39,6","ND","ND","ND","ND","ND"],
    [3139,"41770,41667","45,9","ND","ND","ND","ND","ND"],
    [3140,"41770,45833","21,9","ND","ND","ND","ND","ND"],
    [3141,"41770,5","18,5","ND","ND","ND","ND","ND"],
    [3142,"41770,54167","20,4","ND","ND","ND","ND","ND"],
    [3143,"41770,58333","22,5","ND","ND","ND","ND","ND"],
    [3144,"41770,625","29,6","ND","ND","ND","ND","ND"],
    [3145,"41770,66667","12,8","ND","ND","ND","ND","ND"],
    [3146,"41770,70833","12,6","ND","ND","ND","ND","ND"],
    [3147,"41770,75","17,1","ND","ND","ND","ND","ND"],
    [3148,"41770,79167","12,9","ND","ND","ND","ND","ND"],
    [3149,"41770,83333","16,1","ND","ND","ND","ND","ND"],
    [3150,"41770,875","17,4","ND","ND","ND","ND","ND"],
    [3151,"41770,91667","21,6","ND","ND","ND","ND","ND"],
    [3152,"41770,95833","41,5","ND","ND","ND","ND","ND"],
    [3153,"41801","27,7","ND","ND","ND","ND","ND"],
    [3154,"41801,04167","36,9","ND","ND","ND","ND","ND"],
    [3155,"41801,08333","26,4","ND","ND","ND","ND","ND"],
    [3156,"41801,125","14,6","ND","ND","ND","ND","ND"],
    [3157,"41801,16667","11,5","ND","ND","ND","ND","ND"],
    [3158,"41801,20833","15,5","ND","ND","ND","ND","ND"],
    [3159,"41801,25","14,7","ND","ND","ND","ND","ND"],
    [3160,"41801,29167","19","ND","ND","ND","ND","ND"],
    [3161,"41801,33333","27,6","ND","ND","ND","ND","ND"],
    [3162,"41801,375","36,3","ND","ND","ND","ND","ND"],
    [3163,"41801,41667","48,7","ND","ND","ND","ND","ND"],
    [3164,"41801,45833","37,8","ND","ND","ND","ND","ND"],
    [3165,"41801,5","28,4","ND","ND","ND","ND","ND"],
    [3166,"41801,54167","22,1","ND","ND","ND","ND","ND"],
    [3167,"41801,58333","22,1","ND","ND","ND","ND","ND"],
    [3168,"41801,625","22,1","ND","ND","ND","ND","ND"],
    [3169,"41801,66667","22,9","ND","ND","ND","ND","ND"],
    [3170,"41801,70833","14,1","ND","ND","ND","ND","ND"],
    [3171,"41801,75","8","ND","ND","ND","ND","ND"],
    [3172,"41801,79167","7,6","ND","ND","ND","ND","ND"],
    [3173,"41801,83333","11,9","ND","ND","ND","ND","ND"],
    [3174,"41801,875","11,6","ND","ND","ND","ND","ND"],
    [3175,"41801,91667","41,7","ND","ND","ND","ND","ND"],
    [3176,"41801,95833","31","ND","ND","ND","ND","ND"],
    [3177,"41831","53,1","ND","ND","ND","ND","ND"],
    [3178,"41831,04167","36,2","ND","ND","ND","ND","ND"],
    [3179,"41831,08333","30","ND","ND","ND","ND","ND"],
    [3180,"41831,125","23,1","ND","ND","ND","ND","ND"],
    [3181,"41831,16667","24,1","ND","ND","ND","ND","ND"],
    [3182,"41831,20833","29,2","ND","ND","ND","ND","ND"],
    [3183,"41831,25","29,6","ND","ND","ND","ND","ND"],
    [3184,"41831,29167","50","ND","ND","ND","ND","ND"],
    [3185,"41831,33333","66,6","ND","ND","ND","ND","ND"],
    [3186,"41831,375","61,8","ND","ND","ND","ND","ND"],
    [3187,"41831,41667","55,5","ND","ND","ND","ND","ND"],
    [3188,"41831,45833","35,8","ND","ND","ND","ND","ND"],
    [3189,"41831,5","39","ND","ND","ND","ND","ND"],
    [3190,"41831,54167","56,3","ND","ND","ND","ND","ND"],
    [3191,"41831,58333","44,8","ND","ND","ND","ND","ND"],
    [3192,"41831,625","45,6","ND","ND","ND","ND","ND"],
    [3193,"41831,66667","37,8","ND","ND","ND","ND","ND"],
    [3194,"41831,70833","13,9","ND","ND","ND","ND","ND"],
    [3195,"41831,75","14,9","ND","ND","ND","ND","ND"],
    [3196,"41831,79167","14,3","ND","ND","ND","ND","ND"],
    [3197,"41831,83333","13,4","ND","ND","ND","ND","ND"],
    [3198,"41831,875","13,9","ND","ND","ND","ND","ND"],
    [3199,"41831,91667","9,8","ND","ND","ND","ND","ND"],
    [3200,"41831,95833","32,2","ND","ND","ND","ND","ND"],
    [3201,"41862","51,3","ND","ND","ND","ND","ND"],
    [3202,"41862,04167","47,6","ND","ND","ND","ND","ND"],
    [3203,"41862,08333","42,6","ND","ND","ND","ND","ND"],
    [3204,"41862,125","40,1","ND","ND","ND","ND","ND"],
    [3205,"41862,16667","31,1","ND","ND","ND","ND","ND"],
    [3206,"41862,20833","15,4","ND","ND","ND","ND","ND"],
    [3207,"41862,25","15,8","ND","ND","ND","ND","ND"],
    [3208,"41862,29167","15,7","ND","ND","ND","ND","ND"],
    [3209,"41862,33333","16,8","ND","ND","ND","ND","ND"],
    [3210,"41862,375","8,2","ND","ND","ND","ND","ND"],
    [3211,"41862,41667","24","ND","ND","ND","ND","ND"],
    [3212,"41862,45833","24,6","ND","ND","ND","ND","ND"],
    [3213,"41862,5","20,6","ND","ND","ND","ND","ND"],
    [3214,"41862,54167","18","ND","ND","ND","ND","ND"],
    [3215,"41862,58333","24,2","ND","ND","ND","ND","ND"],
    [3216,"41862,625","23","ND","ND","ND","ND","ND"],
    [3217,"41862,66667","23,3","ND","ND","ND","ND","ND"],
    [3218,"41862,70833","23,9","ND","ND","ND","ND","ND"],
    [3219,"41862,75","25,7","ND","ND","ND","ND","ND"],
    [3220,"41862,79167","19,5","ND","ND","ND","ND","ND"],
    [3221,"41862,83333","46,5","ND","ND","ND","ND","ND"],
    [3222,"41862,875","31,7","ND","ND","ND","ND","ND"],
    [3223,"41862,91667","27,9","ND","ND","ND","ND","ND"],
    [3224,"41862,95833","42,5","ND","ND","ND","ND","ND"],
    [3225,"41893","37","ND","ND","ND","ND","ND"],
    [3226,"41893,04167","37","ND","ND","ND","ND","ND"],
    [3227,"41893,08333","38,1","ND","ND","ND","ND","ND"],
    [3228,"41893,125","35,3","ND","ND","ND","ND","ND"],
    [3229,"41893,16667","34,6","ND","ND","ND","ND","ND"],
    [3230,"41893,20833","34,9","ND","ND","ND","ND","ND"],
    [3231,"41893,25","35,5","ND","ND","ND","ND","ND"],
    [3232,"41893,29167","41,1","ND","ND","ND","ND","ND"],
    [3233,"41893,33333","41,1","ND","ND","ND","ND","ND"],
    [3234,"41893,375","46,7","ND","ND","ND","ND","ND"],
    [3235,"41893,41667","37,4","ND","ND","ND","ND","ND"],
    [3236,"41893,45833","40,1","ND","ND","ND","ND","ND"],
    [3237,"41893,5","37,5","ND","ND","ND","ND","ND"],
    [3238,"41893,54167","37,3","ND","ND","ND","ND","ND"],
    [3239,"41893,58333","46,1","ND","ND","ND","ND","ND"],
    [3240,"41893,625","22,9","ND","ND","ND","ND","ND"],
    [3241,"41893,66667","7,7","ND","ND","ND","ND","ND"],
    [3242,"41893,70833","5,5","ND","ND","ND","ND","ND"],
    [3243,"41893,75","8,9","ND","ND","ND","ND","ND"],
    [3244,"41893,79167","29,5","ND","ND","ND","ND","ND"],
    [3245,"41893,83333","20,9","ND","ND","ND","ND","ND"],
    [3246,"41893,875","21,7","ND","ND","ND","ND","ND"],
    [3247,"41893,91667","27,1","ND","ND","ND","ND","ND"],
    [3248,"41893,95833","39,1","ND","ND","ND","ND","ND"],
    [3249,"41923","25,6","ND","ND","ND","ND","ND"],
    [3250,"41923,04167","31,8","ND","ND","ND","ND","ND"],
    [3251,"41923,08333","24,7","ND","ND","ND","ND","ND"],
    [3252,"41923,125","21,8","ND","ND","ND","ND","ND"],
    [3253,"41923,16667","10,5","ND","ND","ND","ND","ND"],
    [3254,"41923,20833","9,5","ND","ND","ND","ND","ND"],
    [3255,"41923,25","8,3","ND","ND","ND","ND","ND"],
    [3256,"41923,29167","12,6","ND","ND","ND","ND","ND"],
    [3257,"41923,33333","10,7","ND","ND","ND","ND","ND"],
    [3258,"41923,375","10","ND","ND","ND","ND","ND"],
    [3259,"41923,41667","14,6","ND","ND","ND","ND","ND"],
    [3260,"41923,45833","17,7","ND","ND","ND","ND","ND"],
    [3261,"41923,5","11,1","ND","ND","ND","ND","ND"],
    [3262,"41923,54167","4,4","ND","ND","ND","ND","ND"],
    [3263,"41923,58333","2,7","ND","ND","ND","ND","ND"],
    [3264,"41923,625","8,1","ND","ND","ND","ND","ND"],
    [3265,"41923,66667","7,9","ND","ND","ND","ND","ND"],
    [3266,"41923,70833","14,6","ND","ND","ND","ND","ND"],
    [3267,"41923,75","12,3","ND","ND","ND","ND","ND"],
    [3268,"41923,79167","13","ND","ND","ND","ND","ND"],
    [3269,"41923,83333","35,9","ND","ND","ND","ND","ND"],
    [3270,"41923,875","43,1","ND","ND","ND","ND","ND"],
    [3271,"41923,91667","43,4","ND","ND","ND","ND","ND"],
    [3272,"41923,95833","39,2","ND","ND","ND","ND","ND"],
    [3273,"41954","21","ND","ND","ND","ND","ND"],
    [3274,"41954,04167","33,9","ND","ND","ND","ND","ND"],
    [3275,"41954,08333","25,7","ND","ND","ND","ND","ND"],
    [3276,"41954,125","27,4","ND","ND","ND","ND","ND"],
    [3277,"41954,16667","31","ND","ND","ND","ND","ND"],
    [3278,"41954,20833","31,3","ND","ND","ND","ND","ND"],
    [3279,"41954,25","26,8","ND","ND","ND","ND","ND"],
    [3280,"41954,29167","23,8","ND","ND","ND","ND","ND"],
    [3281,"41954,33333","16,1","ND","ND","ND","ND","ND"],
    [3282,"41954,375","18,3","ND","ND","ND","ND","ND"],
    [3283,"41954,41667","14,6","ND","ND","ND","ND","ND"],
    [3284,"41954,45833","18,4","ND","ND","ND","ND","ND"],
    [3285,"41954,5","15,1","ND","ND","ND","ND","ND"],
    [3286,"41954,54167","16,4","ND","ND","ND","ND","ND"],
    [3287,"41954,58333","8,2","ND","ND","ND","ND","ND"],
    [3288,"41954,625","22,7","ND","ND","ND","ND","ND"],
    [3289,"41954,66667","33,8","ND","ND","ND","ND","ND"],
    [3290,"41954,70833","39,7","ND","ND","ND","ND","ND"],
    [3291,"41954,75","5,9","ND","ND","ND","ND","ND"],
    [3292,"41954,79167","14,1","ND","ND","ND","ND","ND"],
    [3293,"41954,83333","27,3","ND","ND","ND","ND","ND"],
    [3294,"41954,875","23,5","ND","ND","ND","ND","ND"],
    [3295,"41954,91667","34,1","ND","ND","ND","ND","ND"],
    [3296,"41954,95833","21,8","ND","ND","ND","ND","ND"],
    [3297,"41984","40","ND","ND","ND","ND","ND"],
    [3298,"41984,04167","9,2","ND","ND","ND","ND","ND"],
    [3299,"41984,08333","6,7","ND","ND","ND","ND","ND"],
    [3300,"41984,125","4,1","ND","ND","ND","ND","ND"],
    [3301,"41984,16667","7,5","ND","ND","ND","ND","ND"],
    [3302,"41984,20833","6,5","ND","ND","ND","ND","ND"],
    [3303,"41984,25","6,7","ND","ND","ND","ND","ND"],
    [3304,"41984,29167","12,9","ND","ND","ND","ND","ND"],
    [3305,"41984,33333","16,5","ND","ND","ND","ND","ND"],
    [3306,"41984,375","21,4","ND","ND","ND","ND","ND"],
    [3307,"41984,41667","10","ND","ND","ND","ND","ND"],
    [3308,"41984,45833","8,5","ND","ND","ND","ND","ND"],
    [3309,"41984,5","9,7","ND","ND","ND","ND","ND"],
    [3310,"41984,54167","23","ND","ND","ND","ND","ND"],
    [3311,"41984,58333","20,7","ND","ND","ND","ND","ND"],
    [3312,"41984,625","26,1","ND","ND","ND","ND","ND"],
    [3313,"41984,66667","20,6","ND","ND","ND","ND","ND"],
    [3314,"41984,70833","17,2","ND","ND","ND","ND","ND"],
    [3315,"41984,75","22,7","ND","ND","ND","ND","ND"],
    [3316,"41984,79167","42,2","ND","ND","ND","ND","ND"],
    [3317,"41984,83333","47,3","ND","ND","ND","ND","ND"],
    [3318,"41984,875","37,9","ND","ND","ND","ND","ND"],
    [3319,"41984,91667","33,4","ND","ND","ND","ND","ND"],
    [3320,"41984,95833","44,3","ND","ND","ND","ND","ND"],
    [3321,"11/13/2014 00:00","43,1","ND","ND","ND","ND","ND"],
    [3322,"11/13/2014 01:00","36,4","ND","ND","ND","ND","ND"],
    [3323,"11/13/2014 02:00","25,9","ND","ND","ND","ND","ND"],
    [3324,"11/13/2014 03:00","24,7","ND","ND","ND","ND","ND"],
    [3325,"11/13/2014 04:00","28,1","ND","ND","ND","ND","ND"],
    [3326,"11/13/2014 05:00","29,4","ND","ND","ND","ND","ND"],
    [3327,"11/13/2014 06:00","34,8","ND","ND","ND","ND","ND"],
    [3328,"11/13/2014 07:00","55,1","ND","ND","ND","ND","ND"],
    [3329,"11/13/2014 08:00","73","ND","ND","ND","ND","ND"],
    [3330,"11/13/2014 09:00","66,4","ND","ND","ND","ND","ND"],
    [3331,"11/13/2014 10:00","47,1","ND","ND","ND","ND","ND"],
    [3332,"11/13/2014 11:00","30,2","ND","ND","ND","ND","ND"],
    [3333,"11/13/2014 12:00","27,8","ND","ND","ND","ND","ND"],
    [3334,"11/13/2014 13:00","35,3","ND","ND","ND","ND","ND"],
    [3335,"11/13/2014 14:00","33,3","ND","ND","ND","ND","ND"],
    [3336,"11/13/2014 15:00","42,4","ND","ND","ND","ND","ND"],
    [3337,"11/13/2014 16:00","42,4","ND","ND","ND","ND","ND"],
    [3338,"11/13/2014 17:00","39,8","ND","ND","ND","ND","ND"],
    [3339,"11/13/2014 18:00","45,7","ND","ND","ND","ND","ND"],
    [3340,"11/13/2014 19:00","60,9","ND","ND","ND","ND","ND"],
    [3341,"11/13/2014 20:00","62,3","ND","ND","ND","ND","ND"],
    [3342,"11/13/2014 21:00","55,4","ND","ND","ND","ND","ND"],
    [3343,"11/13/2014 22:00","77,2","ND","ND","ND","ND","ND"],
    [3344,"11/13/2014 23:00","34,2","ND","ND","ND","ND","ND"],
    [3345,"11/14/2014 00:00","48,4","ND","ND","ND","ND","ND"],
    [3346,"11/14/2014 01:00","32,4","ND","ND","ND","ND","ND"],
    [3347,"11/14/2014 02:00","29,1","ND","ND","ND","ND","ND"],
    [3348,"11/14/2014 03:00","28,5","ND","ND","ND","ND","ND"],
    [3349,"11/14/2014 04:00","29,2","ND","ND","ND","ND","ND"],
    [3350,"11/14/2014 05:00","29,4","ND","ND","ND","ND","ND"],
    [3351,"11/14/2014 06:00","33","ND","ND","ND","ND","ND"],
    [3352,"11/14/2014 07:00","42,1","ND","ND","ND","ND","ND"],
    [3353,"11/14/2014 08:00","67,4","ND","ND","ND","ND","ND"],
    [3354,"11/14/2014 09:00","57,4","ND","ND","ND","ND","ND"],
    [3355,"11/14/2014 10:00","80,1","ND","ND","ND","ND","ND"],
    [3356,"11/14/2014 11:00","70,1","ND","ND","ND","ND","ND"],
    [3357,"11/14/2014 12:00","42,6","ND","ND","ND","ND","ND"],
    [3358,"11/14/2014 13:00","42,5","ND","ND","ND","ND","ND"],
    [3359,"11/14/2014 14:00","47,9","ND","ND","ND","ND","ND"],
    [3360,"11/14/2014 15:00","55,2","ND","ND","ND","ND","ND"],
    [3361,"11/14/2014 16:00","55","ND","ND","ND","ND","ND"],
    [3362,"11/14/2014 17:00","52,7","ND","ND","ND","ND","ND"],
    [3363,"11/14/2014 18:00","25,1","ND","ND","ND","ND","ND"],
    [3364,"11/14/2014 19:00","33,6","ND","ND","ND","ND","ND"],
    [3365,"11/14/2014 20:00","38,4","ND","ND","ND","ND","ND"],
    [3366,"11/14/2014 21:00","51,2","ND","ND","ND","ND","ND"],
    [3367,"11/14/2014 22:00","47,6","ND","ND","ND","ND","ND"],
    [3368,"11/14/2014 23:00","61,8","ND","ND","ND","ND","ND"],
    [3369,"11/15/2014 00:00","18,7","ND","ND","ND","ND","ND"],
    [3370,"11/15/2014 01:00","39,8","ND","ND","ND","ND","ND"],
    [3371,"11/15/2014 02:00","29,1","ND","ND","ND","ND","ND"],
    [3372,"11/15/2014 03:00","26,5","ND","ND","ND","ND","ND"],
    [3373,"11/15/2014 04:00","29,2","ND","ND","ND","ND","ND"],
    [3374,"11/15/2014 05:00","30,9","ND","ND","ND","ND","ND"],
    [3375,"11/15/2014 06:00","26,5","ND","ND","ND","ND","ND"],
    [3376,"11/15/2014 07:00","37,8","ND","ND","ND","ND","ND"],
    [3377,"11/15/2014 08:00","43,2","ND","ND","ND","ND","ND"],
    [3378,"11/15/2014 09:00","60,3","ND","ND","ND","ND","ND"],
    [3379,"11/15/2014 10:00","48,3","ND","ND","ND","ND","ND"],
    [3380,"11/15/2014 11:00","35,6","ND","ND","ND","ND","ND"],
    [3381,"11/15/2014 12:00","38,4","ND","ND","ND","ND","ND"],
    [3382,"11/15/2014 13:00","29,7","ND","ND","ND","ND","ND"],
    [3383,"11/15/2014 14:00","46,2","ND","ND","ND","ND","ND"],
    [3384,"11/15/2014 15:00","49,8","ND","ND","ND","ND","ND"],
    [3385,"11/15/2014 16:00","10,4","ND","ND","ND","ND","ND"],
    [3386,"11/15/2014 17:00","13,3","ND","ND","ND","ND","ND"],
    [3387,"11/15/2014 18:00","14,7","ND","ND","ND","ND","ND"],
    [3388,"11/15/2014 19:00","12,4","ND","ND","ND","ND","ND"],
    [3389,"11/15/2014 20:00","31,7","ND","ND","ND","ND","ND"],
    [3390,"11/15/2014 21:00","38,6","ND","ND","ND","ND","ND"],
    [3391,"11/15/2014 22:00","30,4","ND","ND","ND","ND","ND"],
    [3392,"11/15/2014 23:00","26,4","ND","ND","ND","ND","ND"],
    [3393,"11/16/2014 00:00","44,9","ND","ND","ND","ND","ND"],
    [3394,"11/16/2014 01:00","19,1","ND","ND","ND","ND","ND"],
    [3395,"11/16/2014 02:00","16,8","ND","ND","ND","ND","ND"],
    [3396,"11/16/2014 03:00","16,8","ND","ND","ND","ND","ND"],
    [3397,"11/16/2014 04:00","19,2","ND","ND","ND","ND","ND"],
    [3398,"11/16/2014 05:00","35,8","ND","ND","ND","ND","ND"],
    [3399,"11/16/2014 06:00","36,7","ND","ND","ND","ND","ND"],
    [3400,"11/16/2014 07:00","47,6","ND","ND","ND","ND","ND"],
    [3401,"11/16/2014 08:00","56,7","ND","ND","ND","ND","ND"],
    [3402,"11/16/2014 09:00","44,1","ND","ND","ND","ND","ND"],
    [3403,"11/16/2014 10:00","32,3","ND","ND","ND","ND","ND"],
    [3404,"11/16/2014 11:00","38,2","ND","ND","ND","ND","ND"],
    [3405,"11/16/2014 12:00","40,2","ND","ND","ND","ND","ND"],
    [3406,"11/16/2014 13:00","40,7","ND","ND","ND","ND","ND"],
    [3407,"11/16/2014 14:00","35,6","ND","ND","ND","ND","ND"],
    [3408,"11/16/2014 15:00","34,7","ND","ND","ND","ND","ND"],
    [3409,"11/16/2014 16:00","34,7","ND","ND","ND","ND","ND"],
    [3410,"11/16/2014 17:00","35,4","ND","ND","ND","ND","ND"],
    [3411,"11/16/2014 18:00","32,1","ND","ND","ND","ND","ND"],
    [3412,"11/16/2014 19:00","37,7","ND","ND","ND","ND","ND"],
    [3413,"11/16/2014 20:00","44,5","ND","ND","ND","ND","ND"],
    [3414,"11/16/2014 21:00","47","ND","ND","ND","ND","ND"],
    [3415,"11/16/2014 22:00","48,2","ND","ND","ND","ND","ND"],
    [3416,"11/16/2014 23:00","47,9","ND","ND","ND","ND","ND"],
    [3417,"11/17/2014 00:00","57,2","ND","ND","ND","ND","ND"],
    [3418,"11/17/2014 01:00","39,1","ND","ND","ND","ND","ND"],
    [3419,"11/17/2014 02:00","36,9","ND","ND","ND","ND","ND"],
    [3420,"11/17/2014 03:00","39,8","ND","ND","ND","ND","ND"],
    [3421,"11/17/2014 04:00","36,9","ND","ND","ND","ND","ND"],
    [3422,"11/17/2014 05:00","36","ND","ND","ND","ND","ND"],
    [3423,"11/17/2014 06:00","36,5","ND","ND","ND","ND","ND"],
    [3424,"11/17/2014 07:00","45","ND","ND","ND","ND","ND"],
    [3425,"11/17/2014 08:00","52,7","ND","ND","ND","ND","ND"],
    [3426,"11/17/2014 09:00","58,6","ND","ND","ND","ND","ND"],
    [3427,"11/17/2014 10:00","51","ND","ND","ND","ND","ND"],
    [3428,"11/17/2014 11:00","39,5","ND","ND","ND","ND","ND"],
    [3429,"11/17/2014 12:00","36,8","ND","ND","ND","ND","ND"],
    [3430,"11/17/2014 13:00","40,1","ND","ND","ND","ND","ND"],
    [3431,"11/17/2014 14:00","45,1","ND","ND","ND","ND","ND"],
    [3432,"11/17/2014 15:00","49","ND","ND","ND","ND","ND"],
    [3433,"11/17/2014 16:00","41,6","ND","ND","ND","ND","ND"],
    [3434,"11/17/2014 17:00","41,1","ND","ND","ND","ND","ND"],
    [3435,"11/17/2014 18:00","16,1","ND","ND","ND","ND","ND"],
    [3436,"11/17/2014 19:00","3,8","ND","ND","ND","ND","ND"],
    [3437,"11/17/2014 20:00","10,8","ND","ND","ND","ND","ND"],
    [3438,"11/17/2014 21:00","15","ND","ND","ND","ND","ND"],
    [3439,"11/17/2014 22:00","15","ND","ND","ND","ND","ND"],
    [3440,"11/17/2014 23:00","25,4","ND","ND","ND","ND","ND"],
    [3441,"11/18/2014 00:00","34,8","ND","ND","ND","ND","ND"],
    [3442,"11/18/2014 01:00","37,3","ND","ND","ND","ND","ND"],
    [3443,"11/18/2014 02:00","39,9","ND","ND","ND","ND","ND"],
    [3444,"11/18/2014 03:00","28,1","ND","ND","ND","ND","ND"],
    [3445,"11/18/2014 04:00","31,6","ND","ND","ND","ND","ND"],
    [3446,"11/18/2014 05:00","30","ND","ND","ND","ND","ND"],
    [3447,"11/18/2014 06:00","30","ND","ND","ND","ND","ND"],
    [3448,"11/18/2014 07:00","41,1","ND","ND","ND","ND","ND"],
    [3449,"11/18/2014 08:00","59,1","ND","ND","ND","ND","ND"],
    [3450,"11/18/2014 09:00","72,1","ND","ND","ND","ND","ND"],
    [3451,"11/18/2014 10:00","57","ND","ND","ND","ND","ND"],
    [3452,"11/18/2014 11:00","39","ND","ND","ND","ND","ND"],
    [3453,"11/18/2014 12:00","36,3","ND","ND","ND","ND","ND"],
    [3454,"11/18/2014 13:00","38,2","ND","ND","ND","ND","ND"],
    [3455,"11/18/2014 14:00","37","ND","ND","ND","ND","ND"],
    [3456,"11/18/2014 15:00","45,6","ND","ND","ND","ND","ND"],
    [3457,"11/18/2014 16:00","28,9","ND","ND","ND","ND","ND"],
    [3458,"11/18/2014 17:00","7,5","ND","ND","ND","ND","ND"],
    [3459,"11/18/2014 18:00","16,7","ND","ND","ND","ND","ND"],
    [3460,"11/18/2014 19:00","16","ND","ND","ND","ND","ND"],
    [3461,"11/18/2014 20:00","3,2","ND","ND","ND","ND","ND"],
    [3462,"11/18/2014 21:00","16,7","ND","ND","ND","ND","ND"],
    [3463,"11/18/2014 22:00","30,2","ND","ND","ND","ND","ND"],
    [3464,"11/18/2014 23:00","44,8","ND","ND","ND","ND","ND"],
    [3465,"11/19/2014 00:00","30,7","ND","ND","ND","ND","ND"],
    [3466,"11/19/2014 01:00","35,3","ND","ND","ND","ND","ND"],
    [3467,"11/19/2014 02:00","35,3","ND","ND","ND","ND","ND"],
    [3468,"11/19/2014 03:00","32,3","ND","ND","ND","ND","ND"],
    [3469,"11/19/2014 04:00","14,3","ND","ND","ND","ND","ND"],
    [3470,"11/19/2014 05:00","1,9","ND","ND","ND","ND","ND"],
    [3471,"11/19/2014 06:00","4,1","ND","ND","ND","ND","ND"],
    [3472,"11/19/2014 07:00","7,6","ND","ND","ND","ND","ND"],
    [3473,"11/19/2014 08:00","12","ND","ND","ND","ND","ND"],
    [3474,"11/19/2014 09:00","15,4","ND","ND","ND","ND","ND"],
    [3475,"11/19/2014 10:00","14,2","ND","ND","ND","ND","ND"],
    [3476,"11/19/2014 11:00","9","ND","ND","ND","ND","ND"],
    [3477,"11/19/2014 12:00","14,5","ND","ND","ND","ND","ND"],
    [3478,"11/19/2014 13:00","12,3","ND","ND","ND","ND","ND"],
    [3479,"11/19/2014 14:00","8,7","ND","ND","ND","ND","ND"],
    [3480,"11/19/2014 15:00","6,9","ND","ND","ND","ND","ND"],
    [3481,"11/19/2014 16:00","17,7","ND","ND","ND","ND","ND"],
    [3482,"11/19/2014 17:00","28,7","ND","ND","ND","ND","ND"],
    [3483,"11/19/2014 18:00","46,8","ND","ND","ND","ND","ND"],
    [3484,"11/19/2014 19:00","82","ND","ND","ND","ND","ND"],
    [3485,"11/19/2014 20:00","107","ND","ND","ND","ND","ND"],
    [3486,"11/19/2014 21:00","107","ND","ND","ND","ND","ND"],
    [3487,"11/19/2014 22:00","53,8","ND","ND","ND","ND","ND"],
    [3488,"11/19/2014 23:00","40,4","ND","ND","ND","ND","ND"],
    [3489,"11/20/2014 00:00","53,8","ND","ND","ND","ND","ND"],
    [3490,"11/20/2014 01:00","67,4","ND","ND","ND","ND","ND"],
    [3491,"11/20/2014 02:00","20,7","ND","ND","ND","ND","ND"],
    [3492,"11/20/2014 03:00","20","ND","ND","ND","ND","ND"],
    [3493,"11/20/2014 04:00","21,2","ND","ND","ND","ND","ND"],
    [3494,"11/20/2014 05:00","25,2","ND","ND","ND","ND","ND"],
    [3495,"11/20/2014 06:00","37,5","ND","ND","ND","ND","ND"],
    [3496,"11/20/2014 07:00","46,8","ND","ND","ND","ND","ND"],
    [3497,"11/20/2014 08:00","76,2","ND","ND","ND","ND","ND"],
    [3498,"11/20/2014 09:00","102,5","ND","ND","ND","ND","ND"],
    [3499,"11/20/2014 10:00","135,7","ND","ND","ND","ND","ND"],
    [3500,"11/20/2014 11:00","97,6","ND","ND","ND","ND","ND"],
    [3501,"11/20/2014 12:00","91,1","ND","ND","ND","ND","ND"],
    [3502,"11/20/2014 13:00","70,2","ND","ND","ND","ND","ND"],
    [3503,"11/20/2014 14:00","54,6","ND","ND","ND","ND","ND"],
    [3504,"11/20/2014 15:00","59","ND","ND","ND","ND","ND"],
    [3505,"11/20/2014 16:00","19,3","ND","ND","ND","ND","ND"],
    [3506,"11/20/2014 17:00","26,7","ND","ND","ND","ND","ND"],
    [3507,"11/20/2014 18:00","26,7","ND","ND","ND","ND","ND"],
    [3508,"11/20/2014 19:00","13,6","ND","ND","ND","ND","ND"],
    [3509,"11/20/2014 20:00","25,9","ND","ND","ND","ND","ND"],
    [3510,"11/20/2014 21:00","42,7","ND","ND","ND","ND","ND"],
    [3511,"11/20/2014 22:00","50,5","ND","ND","ND","ND","ND"],
    [3512,"11/20/2014 23:00","61,5","ND","ND","ND","ND","ND"],
    [3513,"11/21/2014 00:00","50,4","ND","ND","ND","ND","ND"],
    [3514,"11/21/2014 01:00","53,3","ND","ND","ND","ND","ND"],
    [3515,"11/21/2014 02:00","50,6","ND","ND","ND","ND","ND"],
    [3516,"11/21/2014 03:00","29,3","ND","ND","ND","ND","ND"],
    [3517,"11/21/2014 04:00","32,5","ND","ND","ND","ND","ND"],
    [3518,"11/21/2014 05:00","38,8","ND","ND","ND","ND","ND"],
    [3519,"11/21/2014 06:00","34,4","ND","ND","ND","ND","ND"],
    [3520,"11/21/2014 07:00","55,5","ND","ND","ND","ND","ND"],
    [3521,"11/21/2014 08:00","62,4","ND","ND","ND","ND","ND"],
    [3522,"11/21/2014 09:00","68,5","ND","ND","ND","ND","ND"],
    [3523,"11/21/2014 10:00","46,1","ND","ND","ND","ND","ND"],
    [3524,"11/21/2014 11:00","26","ND","ND","ND","ND","ND"],
    [3525,"11/21/2014 12:00","31,1","ND","ND","ND","ND","ND"],
    [3526,"11/21/2014 13:00","48,2","ND","ND","ND","ND","ND"],
    [3527,"11/21/2014 14:00","30,2","ND","ND","ND","ND","ND"],
    [3528,"11/21/2014 15:00","15,6","ND","ND","ND","ND","ND"],
    [3529,"11/21/2014 16:00","11,6","ND","ND","ND","ND","ND"],
    [3530,"11/21/2014 17:00","13,9","ND","ND","ND","ND","ND"],
    [3531,"11/21/2014 18:00","13,4","ND","ND","ND","ND","ND"],
    [3532,"11/21/2014 19:00","15,3","ND","ND","ND","ND","ND"],
    [3533,"11/21/2014 20:00","44,5","ND","ND","ND","ND","ND"],
    [3534,"11/21/2014 21:00","63,2","ND","ND","ND","ND","ND"],
    [3535,"11/21/2014 22:00","60,7","ND","ND","ND","ND","ND"],
    [3536,"11/21/2014 23:00","57,6","ND","ND","ND","ND","ND"],
    [3537,"11/22/2014 00:00","33,3","ND","ND","ND","ND","ND"],
    [3538,"11/22/2014 01:00","28,4","ND","ND","ND","ND","ND"],
    [3539,"11/22/2014 02:00","9,5","ND","ND","ND","ND","ND"],
    [3540,"11/22/2014 03:00","28,5","ND","ND","ND","ND","ND"],
    [3541,"11/22/2014 04:00","28,5","ND","ND","ND","ND","ND"],
    [3542,"11/22/2014 05:00","13,6","ND","ND","ND","ND","ND"],
    [3543,"11/22/2014 06:00","17,4","ND","ND","ND","ND","ND"],
    [3544,"11/22/2014 07:00","14,2","ND","ND","ND","ND","ND"],
    [3545,"11/22/2014 08:00","28,3","ND","ND","ND","ND","ND"],
    [3546,"11/22/2014 09:00","33,8","ND","ND","ND","ND","ND"],
    [3547,"11/22/2014 10:00","30,6","ND","ND","ND","ND","ND"],
    [3548,"11/22/2014 11:00","36,5","ND","ND","ND","ND","ND"],
    [3549,"11/22/2014 12:00","25,5","ND","ND","ND","ND","ND"],
    [3550,"11/22/2014 13:00","26,3","ND","ND","ND","ND","ND"],
    [3551,"11/22/2014 14:00","41,6","ND","ND","ND","ND","ND"],
    [3552,"11/22/2014 15:00","23,7","ND","ND","ND","ND","ND"],
    [3553,"11/22/2014 16:00","28,3","ND","ND","ND","ND","ND"],
    [3554,"11/22/2014 17:00","12,1","ND","ND","ND","ND","ND"],
    [3555,"11/22/2014 18:00","8,4","ND","ND","ND","ND","ND"],
    [3556,"11/22/2014 19:00","10,5","ND","ND","ND","ND","ND"],
    [3557,"11/22/2014 20:00","28","ND","ND","ND","ND","ND"],
    [3558,"11/22/2014 21:00","62,9","ND","ND","ND","ND","ND"],
    [3559,"11/22/2014 22:00","35,6","ND","ND","ND","ND","ND"],
    [3560,"11/22/2014 23:00","38,3","ND","ND","ND","ND","ND"],
    [3561,"11/23/2014 00:00","64,6","ND","ND","ND","ND","ND"],
    [3562,"11/23/2014 01:00","36,6","ND","ND","ND","ND","ND"],
    [3563,"11/23/2014 02:00","31","ND","ND","ND","ND","ND"],
    [3564,"11/23/2014 03:00","31,9","ND","ND","ND","ND","ND"],
    [3565,"11/23/2014 04:00","35,2","ND","ND","ND","ND","ND"],
    [3566,"11/23/2014 05:00","34","ND","ND","ND","ND","ND"],
    [3567,"11/23/2014 06:00","36,4","ND","ND","ND","ND","ND"],
    [3568,"11/23/2014 07:00","33,3","ND","ND","ND","ND","ND"],
    [3569,"11/23/2014 08:00","41,8","ND","ND","ND","ND","ND"],
    [3570,"11/23/2014 09:00","56,2","ND","ND","ND","ND","ND"],
    [3571,"11/23/2014 10:00","52,5","ND","ND","ND","ND","ND"],
    [3572,"11/23/2014 11:00","27,8","ND","ND","ND","ND","ND"],
    [3573,"11/23/2014 12:00","33,8","ND","ND","ND","ND","ND"],
    [3574,"11/23/2014 13:00","35,1","ND","ND","ND","ND","ND"],
    [3575,"11/23/2014 14:00","36,4","ND","ND","ND","ND","ND"],
    [3576,"11/23/2014 15:00","46,5","ND","ND","ND","ND","ND"],
    [3577,"11/23/2014 16:00","53,5","ND","ND","ND","ND","ND"],
    [3578,"11/23/2014 17:00","26,7","ND","ND","ND","ND","ND"],
    [3579,"11/23/2014 18:00","12,9","ND","ND","ND","ND","ND"],
    [3580,"11/23/2014 19:00","16,2","ND","ND","ND","ND","ND"],
    [3581,"11/23/2014 20:00","13,7","ND","ND","ND","ND","ND"],
    [3582,"11/23/2014 21:00","26","ND","ND","ND","ND","ND"],
    [3583,"11/23/2014 22:00","32,9","ND","ND","ND","ND","ND"],
    [3584,"11/23/2014 23:00","68,1","ND","ND","ND","ND","ND"],
    [3585,"11/24/2014 00:00","31,6","ND","ND","ND","ND","ND"],
    [3586,"11/24/2014 01:00","52,3","ND","ND","ND","ND","ND"],
    [3587,"11/24/2014 02:00","39,3","ND","ND","ND","ND","ND"],
    [3588,"11/24/2014 03:00","41,2","ND","ND","ND","ND","ND"],
    [3589,"11/24/2014 04:00","31,7","ND","ND","ND","ND","ND"],
    [3590,"11/24/2014 05:00","33,8","ND","ND","ND","ND","ND"],
    [3591,"11/24/2014 06:00","39","ND","ND","ND","ND","ND"],
    [3592,"11/24/2014 07:00","50,9","ND","ND","ND","ND","ND"],
    [3593,"11/24/2014 08:00","73","ND","ND","ND","ND","ND"],
    [3594,"11/24/2014 09:00","73","ND","ND","ND","ND","ND"],
    [3595,"11/24/2014 10:00","68,4","ND","ND","ND","ND","ND"],
    [3596,"11/24/2014 11:00","47,5","ND","ND","ND","ND","ND"],
    [3597,"11/24/2014 12:00","43,4","ND","ND","ND","ND","ND"],
    [3598,"11/24/2014 13:00","47,6","ND","ND","ND","ND","ND"],
    [3599,"11/24/2014 14:00","65,9","ND","ND","ND","ND","ND"],
    [3600,"11/24/2014 15:00","32,4","ND","ND","ND","ND","ND"],
    [3601,"11/24/2014 16:00","15,4","ND","ND","ND","ND","ND"],
    [3602,"11/24/2014 17:00","16,9","ND","ND","ND","ND","ND"],
    [3603,"11/24/2014 18:00","18,3","ND","ND","ND","ND","ND"],
    [3604,"11/24/2014 19:00","17,3","ND","ND","ND","ND","ND"],
    [3605,"11/24/2014 20:00","12,9","ND","ND","ND","ND","ND"],
    [3606,"11/24/2014 21:00","11,6","ND","ND","ND","ND","ND"],
    [3607,"11/24/2014 22:00","59,7","ND","ND","ND","ND","ND"],
    [3608,"11/24/2014 23:00","62,6","ND","ND","ND","ND","ND"],
    [3609,"11/25/2014 00:00","31,5","ND","ND","ND","ND","ND"],
    [3610,"11/25/2014 01:00","26,1","ND","ND","ND","ND","ND"],
    [3611,"11/25/2014 02:00","36,1","ND","ND","ND","ND","ND"],
    [3612,"11/25/2014 03:00","20,6","ND","ND","ND","ND","ND"],
    [3613,"11/25/2014 04:00","25,2","ND","ND","ND","ND","ND"],
    [3614,"11/25/2014 05:00","22,8","ND","ND","ND","ND","ND"],
    [3615,"11/25/2014 06:00","38,9","ND","ND","ND","ND","ND"],
    [3616,"11/25/2014 07:00","45,9","ND","ND","ND","ND","ND"],
    [3617,"11/25/2014 08:00","68,6","ND","ND","ND","ND","ND"],
    [3618,"11/25/2014 09:00","72,6","ND","ND","ND","ND","ND"],
    [3619,"11/25/2014 10:00","66,6","ND","ND","ND","ND","ND"],
    [3620,"11/25/2014 11:00","38,7","ND","ND","ND","ND","ND"],
    [3621,"11/25/2014 12:00","32","ND","ND","ND","ND","ND"],
    [3622,"11/25/2014 13:00","35,4","ND","ND","ND","ND","ND"],
    [3623,"11/25/2014 14:00","21","ND","ND","ND","ND","ND"],
    [3624,"11/25/2014 15:00","14,1","ND","ND","ND","ND","ND"],
    [3625,"11/25/2014 16:00","1,4","ND","ND","ND","ND","ND"],
    [3626,"11/25/2014 17:00","8,3","ND","ND","ND","ND","ND"],
    [3627,"11/25/2014 18:00","10","ND","ND","ND","ND","ND"],
    [3628,"11/25/2014 19:00","47,7","ND","ND","ND","ND","ND"],
    [3629,"11/25/2014 20:00","35,5","ND","ND","ND","ND","ND"],
    [3630,"11/25/2014 21:00","32","ND","ND","ND","ND","ND"],
    [3631,"11/25/2014 22:00","37,6","ND","ND","ND","ND","ND"],
    [3632,"11/25/2014 23:00","33","ND","ND","ND","ND","ND"],
    [3633,"11/26/2014 00:00","32,1","ND","ND","ND","ND","ND"],
    [3634,"11/26/2014 01:00","32,1","ND","ND","ND","ND","ND"],
    [3635,"11/26/2014 02:00","16,1","ND","ND","ND","ND","ND"],
    [3636,"11/26/2014 03:00","6,7","ND","ND","ND","ND","ND"],
    [3637,"11/26/2014 04:00","6,7","ND","ND","ND","ND","ND"],
    [3638,"11/26/2014 05:00","5,7","ND","ND","ND","ND","ND"],
    [3639,"11/26/2014 06:00","9,9","ND","ND","ND","ND","ND"],
    [3640,"11/26/2014 07:00","10,1","ND","ND","ND","ND","ND"],
    [3641,"11/26/2014 08:00","13,3","ND","ND","ND","ND","ND"],
    [3642,"11/26/2014 09:00","21","ND","ND","ND","ND","ND"],
    [3643,"11/26/2014 10:00","14,4","ND","ND","ND","ND","ND"],
    [3644,"11/26/2014 11:00","30,5","ND","ND","ND","ND","ND"],
    [3645,"11/26/2014 12:00","41,3","ND","ND","ND","ND","ND"],
    [3646,"11/26/2014 13:00","38","ND","ND","ND","ND","ND"],
    [3647,"11/26/2014 14:00","39,8","ND","ND","ND","ND","ND"],
    [3648,"11/26/2014 15:00","34,8","ND","ND","ND","ND","ND"],
    [3649,"11/26/2014 16:00","12,1","ND","ND","ND","ND","ND"],
    [3650,"11/26/2014 17:00","30,7","ND","ND","ND","ND","ND"],
    [3651,"11/26/2014 18:00","38,8","ND","ND","ND","ND","ND"],
    [3652,"11/26/2014 19:00","28,3","ND","ND","ND","ND","ND"],
    [3653,"11/26/2014 20:00","50,5","ND","ND","ND","ND","ND"],
    [3654,"11/26/2014 21:00","57,5","ND","ND","ND","ND","ND"],
    [3655,"11/26/2014 22:00","53,9","ND","ND","ND","ND","ND"],
    [3656,"11/26/2014 23:00","50,4","ND","ND","ND","ND","ND"],
    [3657,"11/27/2014 00:00","51,4","ND","ND","ND","ND","ND"],
    [3658,"11/27/2014 01:00","19,1","ND","ND","ND","ND","ND"],
    [3659,"11/27/2014 02:00","ND","ND","ND","ND","ND","ND"],
    [3660,"11/27/2014 03:00","0,3","ND","ND","ND","ND","ND"],
    [3661,"11/27/2014 04:00","6,5","ND","ND","ND","ND","ND"],
    [3662,"11/27/2014 05:00","9,3","ND","ND","ND","ND","ND"],
    [3663,"11/27/2014 06:00","12,2","ND","ND","ND","ND","ND"],
    [3664,"11/27/2014 07:00","12,2","ND","ND","ND","ND","ND"],
    [3665,"11/27/2014 08:00","27,4","ND","ND","ND","ND","ND"],
    [3666,"11/27/2014 09:00","36,6","ND","ND","ND","ND","ND"],
    [3667,"11/27/2014 10:00","53,4","ND","ND","ND","ND","ND"],
    [3668,"11/27/2014 11:00","74,7","ND","ND","ND","ND","ND"],
    [3669,"11/27/2014 12:00","66,7","ND","ND","ND","ND","ND"],
    [3670,"11/27/2014 13:00","57,3","ND","ND","ND","ND","ND"],
    [3671,"11/27/2014 14:00","56,8","ND","ND","ND","ND","ND"],
    [3672,"11/27/2014 15:00","50,4","ND","ND","ND","ND","ND"],
    [3673,"11/27/2014 16:00","34,3","ND","ND","ND","ND","ND"],
    [3674,"11/27/2014 17:00","43,9","ND","ND","ND","ND","ND"],
    [3675,"11/27/2014 18:00","60,7","ND","ND","ND","ND","ND"],
    [3676,"11/27/2014 19:00","60,7","ND","ND","ND","ND","ND"],
    [3677,"11/27/2014 20:00","66,8","ND","ND","ND","ND","ND"],
    [3678,"11/27/2014 21:00","61,1","ND","ND","ND","ND","ND"],
    [3679,"11/27/2014 22:00","43,8","ND","ND","ND","ND","ND"],
    [3680,"11/27/2014 23:00","55,9","ND","ND","ND","ND","ND"],
    [3681,"11/28/2014 00:00","57,6","ND","ND","ND","ND","ND"],
    [3682,"11/28/2014 01:00","33,9","ND","ND","ND","ND","ND"],
    [3683,"11/28/2014 02:00","30","ND","ND","ND","ND","ND"],
    [3684,"11/28/2014 03:00","22","ND","ND","ND","ND","ND"],
    [3685,"11/28/2014 04:00","27,1","ND","ND","ND","ND","ND"],
    [3686,"11/28/2014 05:00","27,3","ND","ND","ND","ND","ND"],
    [3687,"11/28/2014 06:00","35,7","ND","ND","ND","ND","ND"],
    [3688,"11/28/2014 07:00","60,2","ND","ND","ND","ND","ND"],
    [3689,"11/28/2014 08:00","60,3","ND","ND","ND","ND","ND"],
    [3690,"11/28/2014 09:00","60,3","ND","ND","ND","ND","ND"],
    [3691,"11/28/2014 10:00","128,7","ND","ND","ND","ND","ND"],
    [3692,"11/28/2014 11:00","72,4","ND","ND","ND","ND","ND"],
    [3693,"11/28/2014 12:00","62,2","ND","ND","ND","ND","ND"],
    [3694,"11/28/2014 13:00","57,4","ND","ND","ND","ND","ND"],
    [3695,"11/28/2014 14:00","56,5","ND","ND","ND","ND","ND"],
    [3696,"11/28/2014 15:00","58,3","ND","ND","ND","ND","ND"],
    [3697,"11/28/2014 16:00","26,1","ND","ND","ND","ND","ND"],
    [3698,"11/28/2014 17:00","17,5","ND","ND","ND","ND","ND"],
    [3699,"11/28/2014 18:00","16,4","ND","ND","ND","ND","ND"],
    [3700,"11/28/2014 19:00","25,4","ND","ND","ND","ND","ND"],
    [3701,"11/28/2014 20:00","22,1","ND","ND","ND","ND","ND"],
    [3702,"11/28/2014 21:00","24,6","ND","ND","ND","ND","ND"],
    [3703,"11/28/2014 22:00","60,5","ND","ND","ND","ND","ND"],
    [3704,"11/28/2014 23:00","74,1","ND","ND","ND","ND","ND"],
    [3705,"11/29/2014 00:00","46","ND","ND","ND","ND","ND"],
    [3706,"11/29/2014 01:00","37,4","ND","ND","ND","ND","ND"],
    [3707,"11/29/2014 02:00","36,9","ND","ND","ND","ND","ND"],
    [3708,"11/29/2014 03:00","30","ND","ND","ND","ND","ND"],
    [3709,"11/29/2014 04:00","30,6","ND","ND","ND","ND","ND"],
    [3710,"11/29/2014 05:00","34,8","ND","ND","ND","ND","ND"],
    [3711,"11/29/2014 06:00","34,7","ND","ND","ND","ND","ND"],
    [3712,"11/29/2014 07:00","50,4","ND","ND","ND","ND","ND"],
    [3713,"11/29/2014 08:00","55,3","ND","ND","ND","ND","ND"],
    [3714,"11/29/2014 09:00","88,7","ND","ND","ND","ND","ND"],
    [3715,"11/29/2014 10:00","92,1","ND","ND","ND","ND","ND"],
    [3716,"11/29/2014 11:00","48,3","ND","ND","ND","ND","ND"],
    [3717,"11/29/2014 12:00","69,8","ND","ND","ND","ND","ND"],
    [3718,"11/29/2014 13:00","61,6","ND","ND","ND","ND","ND"],
    [3719,"11/29/2014 14:00","87,6","ND","ND","ND","ND","ND"],
    [3720,"11/29/2014 15:00","50,9","ND","ND","ND","ND","ND"],
    [3721,"11/29/2014 16:00","21","ND","ND","ND","ND","ND"],
    [3722,"11/29/2014 17:00","16","ND","ND","ND","ND","ND"],
    [3723,"11/29/2014 18:00","14,9","ND","ND","ND","ND","ND"],
    [3724,"11/29/2014 19:00","14,2","ND","ND","ND","ND","ND"],
    [3725,"11/29/2014 20:00","17,9","ND","ND","ND","ND","ND"],
    [3726,"11/29/2014 21:00","22,3","ND","ND","ND","ND","ND"],
    [3727,"11/29/2014 22:00","54,5","ND","ND","ND","ND","ND"],
    [3728,"11/29/2014 23:00","69,2","ND","ND","ND","ND","ND"],
    [3729,"11/30/2014 00:00","40,3","ND","ND","ND","ND","ND"],
    [3730,"11/30/2014 01:00","41,3","ND","ND","ND","ND","ND"],
    [3731,"11/30/2014 02:00","42,5","ND","ND","ND","ND","ND"],
    [3732,"11/30/2014 03:00","39","ND","ND","ND","ND","ND"],
    [3733,"11/30/2014 04:00","34","ND","ND","ND","ND","ND"],
    [3734,"11/30/2014 05:00","39,8","ND","ND","ND","ND","ND"],
    [3735,"11/30/2014 06:00","52","ND","ND","ND","ND","ND"],
    [3736,"11/30/2014 07:00","41,6","ND","ND","ND","ND","ND"],
    [3737,"11/30/2014 08:00","43,9","ND","ND","ND","ND","ND"],
    [3738,"11/30/2014 09:00","48,4","ND","ND","ND","ND","ND"],
    [3739,"11/30/2014 10:00","40,2","ND","ND","ND","ND","ND"],
    [3740,"11/30/2014 11:00","41,5","ND","ND","ND","ND","ND"],
    [3741,"11/30/2014 12:00","35","ND","ND","ND","ND","ND"],
    [3742,"11/30/2014 13:00","48,9","ND","ND","ND","ND","ND"],
    [3743,"11/30/2014 14:00","45","ND","ND","ND","ND","ND"],
    [3744,"11/30/2014 15:00","36,8","ND","ND","ND","ND","ND"],
    [3745,"11/30/2014 16:00","45,3","ND","ND","ND","ND","ND"],
    [3746,"11/30/2014 17:00","31,6","ND","ND","ND","ND","ND"],
    [3747,"11/30/2014 18:00","11,5","ND","ND","ND","ND","ND"],
    [3748,"11/30/2014 19:00","17,7","ND","ND","ND","ND","ND"],
    [3749,"11/30/2014 20:00","31,9","ND","ND","ND","ND","ND"],
    [3750,"11/30/2014 21:00","30,6","ND","ND","ND","ND","ND"],
    [3751,"11/30/2014 22:00","38,2","ND","ND","ND","ND","ND"],
    [3752,"11/30/2014 23:00","47,4","ND","ND","ND","ND","ND"],
    [3753,"41651","64,6","ND","ND","ND","ND","ND"],
    [3754,"41651,04167","40,3","ND","ND","ND","ND","ND"],
    [3755,"41651,08333","56,3","ND","ND","ND","ND","ND"],
    [3756,"41651,125","43,4","ND","ND","ND","ND","ND"],
    [3757,"41651,16667","43,2","ND","ND","ND","ND","ND"],
    [3758,"41651,20833","39,4","ND","ND","ND","ND","ND"],
    [3759,"41651,25","38,9","ND","ND","ND","ND","ND"],
    [3760,"41651,29167","44,8","ND","ND","ND","ND","ND"],
    [3761,"41651,33333","75","ND","ND","ND","ND","ND"],
    [3762,"41651,375","75","ND","ND","ND","ND","ND"],
    [3763,"41651,41667","66,4","ND","ND","ND","ND","ND"],
    [3764,"41651,45833","49,6","ND","ND","ND","ND","ND"],
    [3765,"41651,5","50,1","ND","ND","ND","ND","ND"],
    [3766,"41651,54167","53,4","ND","ND","ND","ND","ND"],
    [3767,"41651,58333","61,8","ND","ND","ND","ND","ND"],
    [3768,"41651,625","60,9","ND","ND","ND","ND","ND"],
    [3769,"41651,66667","37,2","ND","ND","ND","ND","ND"],
    [3770,"41651,70833","18,6","ND","ND","ND","ND","ND"],
    [3771,"41651,75","13,4","ND","ND","ND","ND","ND"],
    [3772,"41651,79167","21,8","ND","ND","ND","ND","ND"],
    [3773,"41651,83333","20,5","ND","ND","ND","ND","ND"],
    [3774,"41651,875","20,6","ND","ND","ND","ND","ND"],
    [3775,"41651,91667","22,6","ND","ND","ND","ND","ND"],
    [3776,"41651,95833","64,6","ND","ND","ND","ND","ND"],
    [3777,"41682","61,9","ND","ND","ND","ND","ND"],
    [3778,"41682,04167","41,5","ND","ND","ND","ND","ND"],
    [3779,"41682,08333","39,2","ND","ND","ND","ND","ND"],
    [3780,"41682,125","43,5","ND","ND","ND","ND","ND"],
    [3781,"41682,16667","38","ND","ND","ND","ND","ND"],
    [3782,"41682,20833","39,2","ND","ND","ND","ND","ND"],
    [3783,"41682,25","49,3","ND","ND","ND","ND","ND"],
    [3784,"41682,29167","57,5","ND","ND","ND","ND","ND"],
    [3785,"41682,33333","63,1","ND","ND","ND","ND","ND"],
    [3786,"41682,375","49,4","ND","ND","ND","ND","ND"],
    [3787,"41682,41667","41,3","ND","ND","ND","ND","ND"],
    [3788,"41682,45833","45,6","ND","ND","ND","ND","ND"],
    [3789,"41682,5","52,5","ND","ND","ND","ND","ND"],
    [3790,"41682,54167","52,5","ND","ND","ND","ND","ND"],
    [3791,"41682,58333","84,6","ND","ND","ND","ND","ND"],
    [3792,"41682,625","80,1","ND","ND","ND","ND","ND"],
    [3793,"41682,66667","39,5","ND","ND","ND","ND","ND"],
    [3794,"41682,70833","16,3","ND","ND","ND","ND","ND"],
    [3795,"41682,75","30","ND","ND","ND","ND","ND"],
    [3796,"41682,79167","23,2","ND","ND","ND","ND","ND"],
    [3797,"41682,83333","27,8","ND","ND","ND","ND","ND"],
    [3798,"41682,875","22,4","ND","ND","ND","ND","ND"],
    [3799,"41682,91667","31,8","ND","ND","ND","ND","ND"],
    [3800,"41682,95833","61,9","ND","ND","ND","ND","ND"],
    [3801,"41710","55,7","ND","ND","ND","ND","ND"],
    [3802,"41710,04167","57,4","ND","ND","ND","ND","ND"],
    [3803,"41710,08333","52,2","ND","ND","ND","ND","ND"],
    [3804,"41710,125","40","ND","ND","ND","ND","ND"],
    [3805,"41710,16667","27,2","ND","ND","ND","ND","ND"],
    [3806,"41710,20833","30,5","ND","ND","ND","ND","ND"],
    [3807,"41710,25","34,1","ND","ND","ND","ND","ND"],
    [3808,"41710,29167","47,2","ND","ND","ND","ND","ND"],
    [3809,"41710,33333","47,2","ND","ND","ND","ND","ND"],
    [3810,"41710,375","69","ND","ND","ND","ND","ND"],
    [3811,"41710,41667","66,7","ND","ND","ND","ND","ND"],
    [3812,"41710,45833","62,1","ND","ND","ND","ND","ND"],
    [3813,"41710,5","54,6","ND","ND","ND","ND","ND"],
    [3814,"41710,54167","55,2","ND","ND","ND","ND","ND"],
    [3815,"41710,58333","53,8","ND","ND","ND","ND","ND"],
    [3816,"41710,625","54","ND","ND","ND","ND","ND"],
    [3817,"41710,66667","23","ND","ND","ND","ND","ND"],
    [3818,"41710,70833","11,9","ND","ND","ND","ND","ND"],
    [3819,"41710,75","12,5","ND","ND","ND","ND","ND"],
    [3820,"41710,79167","22,6","ND","ND","ND","ND","ND"],
    [3821,"41710,83333","18,7","ND","ND","ND","ND","ND"],
    [3822,"41710,875","11,7","ND","ND","ND","ND","ND"],
    [3823,"41710,91667","42,1","ND","ND","ND","ND","ND"],
    [3824,"41710,95833","43,9","ND","ND","ND","ND","ND"],
    [3825,"41741","0,2","ND","ND","ND","ND","ND"],
    [3826,"41741,04167","32,7","ND","ND","ND","ND","ND"],
    [3827,"41741,08333","39,1","ND","ND","ND","ND","ND"],
    [3828,"41741,125","43,4","ND","ND","ND","ND","ND"],
    [3829,"41741,16667","44,4","ND","ND","ND","ND","ND"],
    [3830,"41741,20833","42,1","ND","ND","ND","ND","ND"],
    [3831,"41741,25","44,8","ND","ND","ND","ND","ND"],
    [3832,"41741,29167","49,9","ND","ND","ND","ND","ND"],
    [3833,"41741,33333","62,4","ND","ND","ND","ND","ND"],
    [3834,"41741,375","62,5","ND","ND","ND","ND","ND"],
    [3835,"41741,41667","70,3","ND","ND","ND","ND","ND"],
    [3836,"41741,45833","27,5","ND","ND","ND","ND","ND"],
    [3837,"41741,5","34","ND","ND","ND","ND","ND"],
    [3838,"41741,54167","32,4","ND","ND","ND","ND","ND"],
    [3839,"41741,58333","41,9","ND","ND","ND","ND","ND"],
    [3840,"41741,625","71,2","ND","ND","ND","ND","ND"],
    [3841,"41741,66667","23,8","ND","ND","ND","ND","ND"],
    [3842,"41741,70833","18,8","ND","ND","ND","ND","ND"],
    [3843,"41741,75","13,4","ND","ND","ND","ND","ND"],
    [3844,"41741,79167","13,3","ND","ND","ND","ND","ND"],
    [3845,"41741,83333","20,2","ND","ND","ND","ND","ND"],
    [3846,"41741,875","54,5","ND","ND","ND","ND","ND"],
    [3847,"41741,91667","46,1","ND","ND","ND","ND","ND"],
    [3848,"41741,95833","2,7","ND","ND","ND","ND","ND"],
    [3849,"41771","52,1","ND","ND","ND","ND","ND"],
    [3850,"41771,04167","13,8","ND","ND","ND","ND","ND"],
    [3851,"41771,08333","10,1","ND","ND","ND","ND","ND"],
    [3852,"41771,125","5,7","ND","ND","ND","ND","ND"],
    [3853,"41771,16667","5,7","ND","ND","ND","ND","ND"],
    [3854,"41771,20833","12,7","ND","ND","ND","ND","ND"],
    [3855,"41771,25","14,5","ND","ND","ND","ND","ND"],
    [3856,"41771,29167","28,1","ND","ND","ND","ND","ND"],
    [3857,"41771,33333","38","ND","ND","ND","ND","ND"],
    [3858,"41771,375","29,5","ND","ND","ND","ND","ND"],
    [3859,"41771,41667","51","ND","ND","ND","ND","ND"],
    [3860,"41771,45833","31,6","ND","ND","ND","ND","ND"],
    [3861,"41771,5","22,5","ND","ND","ND","ND","ND"],
    [3862,"41771,54167","44,9","ND","ND","ND","ND","ND"],
    [3863,"41771,58333","ND","ND","ND","ND","ND","ND"],
    [3864,"41771,625","33,7","ND","ND","ND","ND","ND"],
    [3865,"41771,66667","38,7","ND","ND","ND","ND","ND"],
    [3866,"41771,70833","46,9","ND","ND","ND","ND","ND"],
    [3867,"41771,75","38,2","ND","ND","ND","ND","ND"],
    [3868,"41771,79167","14,8","ND","ND","ND","ND","ND"],
    [3869,"41771,83333","51,3","ND","ND","ND","ND","ND"],
    [3870,"41771,875","52,7","ND","ND","ND","ND","ND"],
    [3871,"41771,91667","45,9","ND","ND","ND","ND","ND"],
    [3872,"41771,95833","39,4","ND","ND","ND","ND","ND"],
    [3873,"41802","28,2","ND","ND","ND","ND","ND"],
    [3874,"41802,04167","55,7","ND","ND","ND","ND","ND"],
    [3875,"41802,08333","40","ND","ND","ND","ND","ND"],
    [3876,"41802,125","51,2","ND","ND","ND","ND","ND"],
    [3877,"41802,16667","32,9","ND","ND","ND","ND","ND"],
    [3878,"41802,20833","26,5","ND","ND","ND","ND","ND"],
    [3879,"41802,25","33,3","ND","ND","ND","ND","ND"],
    [3880,"41802,29167","52","ND","ND","ND","ND","ND"],
    [3881,"41802,33333","48,3","ND","ND","ND","ND","ND"],
    [3882,"41802,375","45,9","ND","ND","ND","ND","ND"],
    [3883,"41802,41667","63,5","ND","ND","ND","ND","ND"],
    [3884,"41802,45833","30,8","ND","ND","ND","ND","ND"],
    [3885,"41802,5","23,6","ND","ND","ND","ND","ND"],
    [3886,"41802,54167","51,8","ND","ND","ND","ND","ND"],
    [3887,"41802,58333","57,2","ND","ND","ND","ND","ND"],
    [3888,"41802,625","29,5","ND","ND","ND","ND","ND"],
    [3889,"41802,66667","5,4","ND","ND","ND","ND","ND"],
    [3890,"41802,70833","14,7","ND","ND","ND","ND","ND"],
    [3891,"41802,75","25,9","ND","ND","ND","ND","ND"],
    [3892,"41802,79167","20,6","ND","ND","ND","ND","ND"],
    [3893,"41802,83333","16,8","ND","ND","ND","ND","ND"],
    [3894,"41802,875","35,4","ND","ND","ND","ND","ND"],
    [3895,"41802,91667","46,9","ND","ND","ND","ND","ND"],
    [3896,"41802,95833","41,9","ND","ND","ND","ND","ND"],
    [3897,"41832","112,7","ND","ND","ND","ND","ND"],
    [3898,"41832,04167","38,9","ND","ND","ND","ND","ND"],
    [3899,"41832,08333","35,6","ND","ND","ND","ND","ND"],
    [3900,"41832,125","31,1","ND","ND","ND","ND","ND"],
    [3901,"41832,16667","21,5","ND","ND","ND","ND","ND"],
    [3902,"41832,20833","21,3","ND","ND","ND","ND","ND"],
    [3903,"41832,25","21,3","ND","ND","ND","ND","ND"],
    [3904,"41832,29167","24,1","ND","ND","ND","ND","ND"],
    [3905,"41832,33333","33,4","ND","ND","ND","ND","ND"],
    [3906,"41832,375","34,8","ND","ND","ND","ND","ND"],
    [3907,"41832,41667","28","ND","ND","ND","ND","ND"],
    [3908,"41832,45833","30,6","ND","ND","ND","ND","ND"],
    [3909,"41832,5","22,9","ND","ND","ND","ND","ND"],
    [3910,"41832,54167","33,2","ND","ND","ND","ND","ND"],
    [3911,"41832,58333","32","ND","ND","ND","ND","ND"],
    [3912,"41832,625","21,1","ND","ND","ND","ND","ND"],
    [3913,"41832,66667","10,4","ND","ND","ND","ND","ND"],
    [3914,"41832,70833","14,8","ND","ND","ND","ND","ND"],
    [3915,"41832,75","10,2","ND","ND","ND","ND","ND"],
    [3916,"41832,79167","16","ND","ND","ND","ND","ND"],
    [3917,"41832,83333","47,6","ND","ND","ND","ND","ND"],
    [3918,"41832,875","114,1","ND","ND","ND","ND","ND"],
    [3919,"41832,91667","151,3","ND","ND","ND","ND","ND"],
    [3920,"41832,95833","133,3","ND","ND","ND","ND","ND"],
    [3921,"41863","49,6","ND","ND","ND","ND","ND"],
    [3922,"41863,04167","72,8","ND","ND","ND","ND","ND"],
    [3923,"41863,08333","58,2","ND","ND","ND","ND","ND"],
    [3924,"41863,125","53,7","ND","ND","ND","ND","ND"],
    [3925,"41863,16667","50,8","ND","ND","ND","ND","ND"],
    [3926,"41863,20833","42,2","ND","ND","ND","ND","ND"],
    [3927,"41863,25","35,8","ND","ND","ND","ND","ND"],
    [3928,"41863,29167","34,1","ND","ND","ND","ND","ND"],
    [3929,"41863,33333","44,1","ND","ND","ND","ND","ND"],
    [3930,"41863,375","40","ND","ND","ND","ND","ND"],
    [3931,"41863,41667","38,1","ND","ND","ND","ND","ND"],
    [3932,"41863,45833","46,8","ND","ND","ND","ND","ND"],
    [3933,"41863,5","56,2","ND","ND","ND","ND","ND"],
    [3934,"41863,54167","48,1","ND","ND","ND","ND","ND"],
    [3935,"41863,58333","36,9","ND","ND","ND","ND","ND"],
    [3936,"41863,625","43,3","ND","ND","ND","ND","ND"],
    [3937,"41863,66667","48,7","ND","ND","ND","ND","ND"],
    [3938,"41863,70833","17,5","ND","ND","ND","ND","ND"],
    [3939,"41863,75","19,7","ND","ND","ND","ND","ND"],
    [3940,"41863,79167","19,7","ND","ND","ND","ND","ND"],
    [3941,"41863,83333","19,9","ND","ND","ND","ND","ND"],
    [3942,"41863,875","15,9","ND","ND","ND","ND","ND"],
    [3943,"41863,91667","12,9","ND","ND","ND","ND","ND"],
    [3944,"41863,95833","38,3","ND","ND","ND","ND","ND"],
    [3945,"41894","76,1","ND","ND","ND","ND","ND"],
    [3946,"41894,04167","25,7","ND","ND","ND","ND","ND"],
    [3947,"41894,08333","36","ND","ND","ND","ND","ND"],
    [3948,"41894,125","21,7","ND","ND","ND","ND","ND"],
    [3949,"41894,16667","38,9","ND","ND","ND","ND","ND"],
    [3950,"41894,20833","21","ND","ND","ND","ND","ND"],
    [3951,"41894,25","21,3","ND","ND","ND","ND","ND"],
    [3952,"41894,29167","33,9","ND","ND","ND","ND","ND"],
    [3953,"41894,33333","42,2","ND","ND","ND","ND","ND"],
    [3954,"41894,375","44,1","ND","ND","ND","ND","ND"],
    [3955,"41894,41667","82,5","ND","ND","ND","ND","ND"],
    [3956,"41894,45833","26,4","ND","ND","ND","ND","ND"],
    [3957,"41894,5","10","ND","ND","ND","ND","ND"],
    [3958,"41894,54167","18,7","ND","ND","ND","ND","ND"],
    [3959,"41894,58333","12,1","ND","ND","ND","ND","ND"],
    [3960,"41894,625","3,1","ND","ND","ND","ND","ND"],
    [3961,"41894,66667","15,8","ND","ND","ND","ND","ND"],
    [3962,"41894,70833","34,1","ND","ND","ND","ND","ND"],
    [3963,"41894,75","22,4","ND","ND","ND","ND","ND"],
    [3964,"41894,79167","18,6","ND","ND","ND","ND","ND"],
    [3965,"41894,83333","53,6","ND","ND","ND","ND","ND"],
    [3966,"41894,875","62,9","ND","ND","ND","ND","ND"],
    [3967,"41894,91667","58,5","ND","ND","ND","ND","ND"],
    [3968,"41894,95833","40,8","ND","ND","ND","ND","ND"],
    [3969,"41924","41,7","ND","ND","ND","ND","ND"],
    [3970,"41924,04167","47","ND","ND","ND","ND","ND"],
    [3971,"41924,08333","27,1","ND","ND","ND","ND","ND"],
    [3972,"41924,125","27,2","ND","ND","ND","ND","ND"],
    [3973,"41924,16667","34,6","ND","ND","ND","ND","ND"],
    [3974,"41924,20833","23,8","ND","ND","ND","ND","ND"],
    [3975,"41924,25","56,5","ND","ND","ND","ND","ND"],
    [3976,"41924,29167","58,9","ND","ND","ND","ND","ND"],
    [3977,"41924,33333","49,6","ND","ND","ND","ND","ND"],
    [3978,"41924,375","89,5","ND","ND","ND","ND","ND"],
    [3979,"41924,41667","104,7","ND","ND","ND","ND","ND"],
    [3980,"41924,45833","86,2","ND","ND","ND","ND","ND"],
    [3981,"41924,5","60,6","ND","ND","ND","ND","ND"],
    [3982,"41924,54167","58,8","ND","ND","ND","ND","ND"],
    [3983,"41924,58333","49,8","ND","ND","ND","ND","ND"],
    [3984,"41924,625","61,9","ND","ND","ND","ND","ND"],
    [3985,"41924,66667","46,7","ND","ND","ND","ND","ND"],
    [3986,"41924,70833","22,1","ND","ND","ND","ND","ND"],
    [3987,"41924,75","62,9","ND","ND","ND","ND","ND"],
    [3988,"41924,79167","56,7","ND","ND","ND","ND","ND"],
    [3989,"41924,83333","40,4","ND","ND","ND","ND","ND"],
    [3990,"41924,875","47,5","ND","ND","ND","ND","ND"],
    [3991,"41924,91667","48","ND","ND","ND","ND","ND"],
    [3992,"41924,95833","ND","ND","ND","ND","ND","ND"],
    [3993,"41955","54,9","ND","ND","ND","ND","ND"],
    [3994,"41955,04167","44,1","ND","ND","ND","ND","ND"],
    [3995,"41955,08333","25,7","ND","ND","ND","ND","ND"],
    [3996,"41955,125","34,9","ND","ND","ND","ND","ND"],
    [3997,"41955,16667","20,8","ND","ND","ND","ND","ND"],
    [3998,"41955,20833","14,8","ND","ND","ND","ND","ND"],
    [3999,"41955,25","21,8","ND","ND","ND","ND","ND"],
    [4000,"41955,29167","39,4","ND","ND","ND","ND","ND"],
    [4001,"41955,33333","52","ND","ND","ND","ND","ND"],
    [4002,"41955,375","65,1","ND","ND","ND","ND","ND"],
    [4003,"41955,41667","48,2","ND","ND","ND","ND","ND"],
    [4004,"41955,45833","31,8","ND","ND","ND","ND","ND"],
    [4005,"41955,5","39,8","ND","ND","ND","ND","ND"],
    [4006,"41955,54167","ND","ND","ND","ND","ND","ND"],
    [4007,"41955,58333","ND","ND","ND","ND","ND","ND"],
    [4008,"41955,625","ND","ND","ND","ND","ND","ND"],
    [4009,"41955,66667","41,4","ND","ND","ND","ND","ND"],
    [4010,"41955,70833","52,5","ND","ND","ND","ND","ND"],
    [4011,"41955,75","53,7","ND","ND","ND","ND","ND"],
    [4012,"41955,79167","71,5","ND","ND","ND","ND","ND"],
    [4013,"41955,83333","61,6","ND","ND","ND","ND","ND"],
    [4014,"41955,875","61,5","ND","ND","ND","ND","ND"],
    [4015,"41955,91667","56,4","ND","ND","ND","ND","ND"],
    [4016,"41955,95833","52,4","ND","ND","ND","ND","ND"],
    [4017,"41985","34,5","ND","ND","ND","ND","ND"],
    [4018,"41985,04167","82,5","ND","ND","ND","ND","ND"],
    [4019,"41985,08333","30,8","ND","ND","ND","ND","ND"],
    [4020,"41985,125","42,3","ND","ND","ND","ND","ND"],
    [4021,"41985,16667","36,2","ND","ND","ND","ND","ND"],
    [4022,"41985,20833","34","ND","ND","ND","ND","ND"],
    [4023,"41985,25","39,4","ND","ND","ND","ND","ND"],
    [4024,"41985,29167","55,6","ND","ND","ND","ND","ND"],
    [4025,"41985,33333","36,2","ND","ND","ND","ND","ND"],
    [4026,"41985,375","35,4","ND","ND","ND","ND","ND"],
    [4027,"41985,41667","31,8","ND","ND","ND","ND","ND"],
    [4028,"41985,45833","30,4","ND","ND","ND","ND","ND"],
    [4029,"41985,5","40,4","ND","ND","ND","ND","ND"],
    [4030,"41985,54167","38,2","ND","ND","ND","ND","ND"],
    [4031,"41985,58333","34,9","ND","ND","ND","ND","ND"],
    [4032,"41985,625","35,9","ND","ND","ND","ND","ND"],
    [4033,"41985,66667","40,9","ND","ND","ND","ND","ND"],
    [4034,"41985,70833","19,9","ND","ND","ND","ND","ND"],
    [4035,"41985,75","10,9","ND","ND","ND","ND","ND"],
    [4036,"41985,79167","15,6","ND","ND","ND","ND","ND"],
    [4037,"41985,83333","15,6","ND","ND","ND","ND","ND"],
    [4038,"41985,875","36,2","ND","ND","ND","ND","ND"],
    [4039,"41985,91667","32,9","ND","ND","ND","ND","ND"],
    [4040,"41985,95833","40,7","ND","ND","ND","ND","ND"],
    [4041,"12/13/2014 00:00","32,3","ND","ND","ND","ND","ND"],
    [4042,"12/13/2014 01:00","43,3","ND","ND","ND","ND","ND"],
    [4043,"12/13/2014 02:00","27,3","ND","ND","ND","ND","ND"],
    [4044,"12/13/2014 03:00","5,2","ND","ND","ND","ND","ND"],
    [4045,"12/13/2014 04:00","4,6","ND","ND","ND","ND","ND"],
    [4046,"12/13/2014 05:00","6,8","ND","ND","ND","ND","ND"],
    [4047,"12/13/2014 06:00","6,3","ND","ND","ND","ND","ND"],
    [4048,"12/13/2014 07:00","10,4","ND","ND","ND","ND","ND"],
    [4049,"12/13/2014 08:00","16,3","ND","ND","ND","ND","ND"],
    [4050,"12/13/2014 09:00","21,7","ND","ND","ND","ND","ND"],
    [4051,"12/13/2014 10:00","19,7","ND","ND","ND","ND","ND"],
    [4052,"12/13/2014 11:00","16,7","ND","ND","ND","ND","ND"],
    [4053,"12/13/2014 12:00","29,4","ND","ND","ND","ND","ND"],
    [4054,"12/13/2014 13:00","48,1","ND","ND","ND","ND","ND"],
    [4055,"12/13/2014 14:00","48,1","ND","ND","ND","ND","ND"],
    [4056,"12/13/2014 15:00","14,3","ND","ND","ND","ND","ND"],
    [4057,"12/13/2014 16:00","16,9","ND","ND","ND","ND","ND"],
    [4058,"12/13/2014 17:00","14,2","ND","ND","ND","ND","ND"],
    [4059,"12/13/2014 18:00","24","ND","ND","ND","ND","ND"],
    [4060,"12/13/2014 19:00","25,1","ND","ND","ND","ND","ND"],
    [4061,"12/13/2014 20:00","17,8","ND","ND","ND","ND","ND"],
    [4062,"12/13/2014 21:00","15,6","ND","ND","ND","ND","ND"],
    [4063,"12/13/2014 22:00","18,1","ND","ND","ND","ND","ND"],
    [4064,"12/13/2014 23:00","22,6","ND","ND","ND","ND","ND"],
    [4065,"12/14/2014 00:00","55,8","ND","ND","ND","ND","ND"],
    [4066,"12/14/2014 01:00","30,2","ND","ND","ND","ND","ND"],
    [4067,"12/14/2014 02:00","19,1","ND","ND","ND","ND","ND"],
    [4068,"12/14/2014 03:00","17,5","ND","ND","ND","ND","ND"],
    [4069,"12/14/2014 04:00","16,5","ND","ND","ND","ND","ND"],
    [4070,"12/14/2014 05:00","18,7","ND","ND","ND","ND","ND"],
    [4071,"12/14/2014 06:00","19,3","ND","ND","ND","ND","ND"],
    [4072,"12/14/2014 07:00","22,4","ND","ND","ND","ND","ND"],
    [4073,"12/14/2014 08:00","28,1","ND","ND","ND","ND","ND"],
    [4074,"12/14/2014 09:00","28,4","ND","ND","ND","ND","ND"],
    [4075,"12/14/2014 10:00","29","ND","ND","ND","ND","ND"],
    [4076,"12/14/2014 11:00","19,9","ND","ND","ND","ND","ND"],
    [4077,"12/14/2014 12:00","23,4","ND","ND","ND","ND","ND"],
    [4078,"12/14/2014 13:00","22,9","ND","ND","ND","ND","ND"],
    [4079,"12/14/2014 14:00","26","ND","ND","ND","ND","ND"],
    [4080,"12/14/2014 15:00","30","ND","ND","ND","ND","ND"],
    [4081,"12/14/2014 16:00","30,6","ND","ND","ND","ND","ND"],
    [4082,"12/14/2014 17:00","37,5","ND","ND","ND","ND","ND"],
    [4083,"12/14/2014 18:00","14,5","ND","ND","ND","ND","ND"],
    [4084,"12/14/2014 19:00","13,1","ND","ND","ND","ND","ND"],
    [4085,"12/14/2014 20:00","21,7","ND","ND","ND","ND","ND"],
    [4086,"12/14/2014 21:00","18,7","ND","ND","ND","ND","ND"],
    [4087,"12/14/2014 22:00","22,4","ND","ND","ND","ND","ND"],
    [4088,"12/14/2014 23:00","46,3","ND","ND","ND","ND","ND"],
    [4089,"12/15/2014 00:00","54,3","ND","ND","ND","ND","ND"],
    [4090,"12/15/2014 01:00","28,6","ND","ND","ND","ND","ND"],
    [4091,"12/15/2014 02:00","24,6","ND","ND","ND","ND","ND"],
    [4092,"12/15/2014 03:00","21,2","ND","ND","ND","ND","ND"],
    [4093,"12/15/2014 04:00","20,8","ND","ND","ND","ND","ND"],
    [4094,"12/15/2014 05:00","20","ND","ND","ND","ND","ND"],
    [4095,"12/15/2014 06:00","27,3","ND","ND","ND","ND","ND"],
    [4096,"12/15/2014 07:00","37,3","ND","ND","ND","ND","ND"],
    [4097,"12/15/2014 08:00","37,3","ND","ND","ND","ND","ND"],
    [4098,"12/15/2014 09:00","62","ND","ND","ND","ND","ND"],
    [4099,"12/15/2014 10:00","50,2","ND","ND","ND","ND","ND"],
    [4100,"12/15/2014 11:00","51,9","ND","ND","ND","ND","ND"],
    [4101,"12/15/2014 12:00","45,8","ND","ND","ND","ND","ND"],
    [4102,"12/15/2014 13:00","31,2","ND","ND","ND","ND","ND"],
    [4103,"12/15/2014 14:00","36,2","ND","ND","ND","ND","ND"],
    [4104,"12/15/2014 15:00","54,5","ND","ND","ND","ND","ND"],
    [4105,"12/15/2014 16:00","60","ND","ND","ND","ND","ND"],
    [4106,"12/15/2014 17:00","21,6","ND","ND","ND","ND","ND"],
    [4107,"12/15/2014 18:00","17,3","ND","ND","ND","ND","ND"],
    [4108,"12/15/2014 19:00","19,8","ND","ND","ND","ND","ND"],
    [4109,"12/15/2014 20:00","18,6","ND","ND","ND","ND","ND"],
    [4110,"12/15/2014 21:00","18,6","ND","ND","ND","ND","ND"],
    [4111,"12/15/2014 22:00","62,5","ND","ND","ND","ND","ND"],
    [4112,"12/15/2014 23:00","67,1","ND","ND","ND","ND","ND"],
    [4113,"12/16/2014 00:00","58,7","ND","ND","ND","ND","ND"],
    [4114,"12/16/2014 01:00","47","ND","ND","ND","ND","ND"],
    [4115,"12/16/2014 02:00","53","ND","ND","ND","ND","ND"],
    [4116,"12/16/2014 03:00","49,4","ND","ND","ND","ND","ND"],
    [4117,"12/16/2014 04:00","40,5","ND","ND","ND","ND","ND"],
    [4118,"12/16/2014 05:00","39,3","ND","ND","ND","ND","ND"],
    [4119,"12/16/2014 06:00","34,6","ND","ND","ND","ND","ND"],
    [4120,"12/16/2014 07:00","53,6","ND","ND","ND","ND","ND"],
    [4121,"12/16/2014 08:00","61","ND","ND","ND","ND","ND"],
    [4122,"12/16/2014 09:00","71,4","ND","ND","ND","ND","ND"],
    [4123,"12/16/2014 10:00","82,2","ND","ND","ND","ND","ND"],
    [4124,"12/16/2014 11:00","62,1","ND","ND","ND","ND","ND"],
    [4125,"12/16/2014 12:00","40,3","ND","ND","ND","ND","ND"],
    [4126,"12/16/2014 13:00","48,4","ND","ND","ND","ND","ND"],
    [4127,"12/16/2014 14:00","61,3","ND","ND","ND","ND","ND"],
    [4128,"12/16/2014 15:00","66,2","ND","ND","ND","ND","ND"],
    [4129,"12/16/2014 16:00","55,3","ND","ND","ND","ND","ND"],
    [4130,"12/16/2014 17:00","51,2","ND","ND","ND","ND","ND"],
    [4131,"12/16/2014 18:00","25,4","ND","ND","ND","ND","ND"],
    [4132,"12/16/2014 19:00","22,5","ND","ND","ND","ND","ND"],
    [4133,"12/16/2014 20:00","24,6","ND","ND","ND","ND","ND"],
    [4134,"12/16/2014 21:00","46,1","ND","ND","ND","ND","ND"],
    [4135,"12/16/2014 22:00","60,6","ND","ND","ND","ND","ND"],
    [4136,"12/16/2014 23:00","65","ND","ND","ND","ND","ND"],
    [4137,"12/17/2014 00:00","43,3","ND","ND","ND","ND","ND"],
    [4138,"12/17/2014 01:00","42,9","ND","ND","ND","ND","ND"],
    [4139,"12/17/2014 02:00","27,4","ND","ND","ND","ND","ND"],
    [4140,"12/17/2014 03:00","25,2","ND","ND","ND","ND","ND"],
    [4141,"12/17/2014 04:00","29,5","ND","ND","ND","ND","ND"],
    [4142,"12/17/2014 05:00","28,4","ND","ND","ND","ND","ND"],
    [4143,"12/17/2014 06:00","74","ND","ND","ND","ND","ND"],
    [4144,"12/17/2014 07:00","43,8","ND","ND","ND","ND","ND"],
    [4145,"12/17/2014 08:00","51,9","ND","ND","ND","ND","ND"],
    [4146,"12/17/2014 09:00","70,4","ND","ND","ND","ND","ND"],
    [4147,"12/17/2014 10:00","73,7","ND","ND","ND","ND","ND"],
    [4148,"12/17/2014 11:00","47,5","ND","ND","ND","ND","ND"],
    [4149,"12/17/2014 12:00","46,6","ND","ND","ND","ND","ND"],
    [4150,"12/17/2014 13:00","43,5","ND","ND","ND","ND","ND"],
    [4151,"12/17/2014 14:00","23,7","ND","ND","ND","ND","ND"],
    [4152,"12/17/2014 15:00","1,2","ND","ND","ND","ND","ND"],
    [4153,"12/17/2014 16:00","1,6","ND","ND","ND","ND","ND"],
    [4154,"12/17/2014 17:00","14,5","ND","ND","ND","ND","ND"],
    [4155,"12/17/2014 18:00","21,3","ND","ND","ND","ND","ND"],
    [4156,"12/17/2014 19:00","47,5","ND","ND","ND","ND","ND"],
    [4157,"12/17/2014 20:00","40,3","ND","ND","ND","ND","ND"],
    [4158,"12/17/2014 21:00","28,4","ND","ND","ND","ND","ND"],
    [4159,"12/17/2014 22:00","44,3","ND","ND","ND","ND","ND"],
    [4160,"12/17/2014 23:00","55,5","ND","ND","ND","ND","ND"],
    [4161,"12/18/2014 00:00","36","ND","ND","ND","ND","ND"],
    [4162,"12/18/2014 01:00","57,2","ND","ND","ND","ND","ND"],
    [4163,"12/18/2014 02:00","37,4","ND","ND","ND","ND","ND"],
    [4164,"12/18/2014 03:00","33,9","ND","ND","ND","ND","ND"],
    [4165,"12/18/2014 04:00","34,3","ND","ND","ND","ND","ND"],
    [4166,"12/18/2014 05:00","35","ND","ND","ND","ND","ND"],
    [4167,"12/18/2014 06:00","48,6","ND","ND","ND","ND","ND"],
    [4168,"12/18/2014 07:00","52,1","ND","ND","ND","ND","ND"],
    [4169,"12/18/2014 08:00","60,2","ND","ND","ND","ND","ND"],
    [4170,"12/18/2014 09:00","78,8","ND","ND","ND","ND","ND"],
    [4171,"12/18/2014 10:00","85,5","ND","ND","ND","ND","ND"],
    [4172,"12/18/2014 11:00","70,2","ND","ND","ND","ND","ND"],
    [4173,"12/18/2014 12:00","41,1","ND","ND","ND","ND","ND"],
    [4174,"12/18/2014 13:00","42,1","ND","ND","ND","ND","ND"],
    [4175,"12/18/2014 14:00","43,7","ND","ND","ND","ND","ND"],
    [4176,"12/18/2014 15:00","47,4","ND","ND","ND","ND","ND"],
    [4177,"12/18/2014 16:00","16,1","ND","ND","ND","ND","ND"],
    [4178,"12/18/2014 17:00","16,4","ND","ND","ND","ND","ND"],
    [4179,"12/18/2014 18:00","20,2","ND","ND","ND","ND","ND"],
    [4180,"12/18/2014 19:00","17,5","ND","ND","ND","ND","ND"],
    [4181,"12/18/2014 20:00","15,6","ND","ND","ND","ND","ND"],
    [4182,"12/18/2014 21:00","25,2","ND","ND","ND","ND","ND"],
    [4183,"12/18/2014 22:00","41,4","ND","ND","ND","ND","ND"],
    [4184,"12/18/2014 23:00","41,6","ND","ND","ND","ND","ND"],
    [4185,"12/19/2014 00:00","39,1","ND","ND","ND","ND","ND"],
    [4186,"12/19/2014 01:00","31,6","ND","ND","ND","ND","ND"],
    [4187,"12/19/2014 02:00","24,2","ND","ND","ND","ND","ND"],
    [4188,"12/19/2014 03:00","27,9","ND","ND","ND","ND","ND"],
    [4189,"12/19/2014 04:00","26,3","ND","ND","ND","ND","ND"],
    [4190,"12/19/2014 05:00","24,8","ND","ND","ND","ND","ND"],
    [4191,"12/19/2014 06:00","33,2","ND","ND","ND","ND","ND"],
    [4192,"12/19/2014 07:00","39,2","ND","ND","ND","ND","ND"],
    [4193,"12/19/2014 08:00","47,2","ND","ND","ND","ND","ND"],
    [4194,"12/19/2014 09:00","47,2","ND","ND","ND","ND","ND"],
    [4195,"12/19/2014 10:00","50,9","ND","ND","ND","ND","ND"],
    [4196,"12/19/2014 11:00","41","ND","ND","ND","ND","ND"],
    [4197,"12/19/2014 12:00","33","ND","ND","ND","ND","ND"],
    [4198,"12/19/2014 13:00","45,7","ND","ND","ND","ND","ND"],
    [4199,"12/19/2014 14:00","54,2","ND","ND","ND","ND","ND"],
    [4200,"12/19/2014 15:00","40,1","ND","ND","ND","ND","ND"],
    [4201,"12/19/2014 16:00","10,7","ND","ND","ND","ND","ND"],
    [4202,"12/19/2014 17:00","14,5","ND","ND","ND","ND","ND"],
    [4203,"12/19/2014 18:00","22","ND","ND","ND","ND","ND"],
    [4204,"12/19/2014 19:00","13,9","ND","ND","ND","ND","ND"],
    [4205,"12/19/2014 20:00","18,3","ND","ND","ND","ND","ND"],
    [4206,"12/19/2014 21:00","17,7","ND","ND","ND","ND","ND"],
    [4207,"12/19/2014 22:00","43,9","ND","ND","ND","ND","ND"],
    [4208,"12/19/2014 23:00","38,4","ND","ND","ND","ND","ND"],
    [4209,"12/20/2014 00:00","52,7","ND","ND","ND","ND","ND"],
    [4210,"12/20/2014 01:00","35,8","ND","ND","ND","ND","ND"],
    [4211,"12/20/2014 02:00","29,1","ND","ND","ND","ND","ND"],
    [4212,"12/20/2014 03:00","29,1","ND","ND","ND","ND","ND"],
    [4213,"12/20/2014 04:00","30,8","ND","ND","ND","ND","ND"],
    [4214,"12/20/2014 05:00","22,5","ND","ND","ND","ND","ND"],
    [4215,"12/20/2014 06:00","27,1","ND","ND","ND","ND","ND"],
    [4216,"12/20/2014 07:00","24,9","ND","ND","ND","ND","ND"],
    [4217,"12/20/2014 08:00","37,3","ND","ND","ND","ND","ND"],
    [4218,"12/20/2014 09:00","48,4","ND","ND","ND","ND","ND"],
    [4219,"12/20/2014 10:00","57","ND","ND","ND","ND","ND"],
    [4220,"12/20/2014 11:00","66,9","ND","ND","ND","ND","ND"],
    [4221,"12/20/2014 12:00","55,1","ND","ND","ND","ND","ND"],
    [4222,"12/20/2014 13:00","46,8","ND","ND","ND","ND","ND"],
    [4223,"12/20/2014 14:00","61","ND","ND","ND","ND","ND"],
    [4224,"12/20/2014 15:00","42,7","ND","ND","ND","ND","ND"],
    [4225,"12/20/2014 16:00","25,1","ND","ND","ND","ND","ND"],
    [4226,"12/20/2014 17:00","21,4","ND","ND","ND","ND","ND"],
    [4227,"12/20/2014 18:00","22,3","ND","ND","ND","ND","ND"],
    [4228,"12/20/2014 19:00","27,6","ND","ND","ND","ND","ND"],
    [4229,"12/20/2014 20:00","20,9","ND","ND","ND","ND","ND"],
    [4230,"12/20/2014 21:00","49,8","ND","ND","ND","ND","ND"],
    [4231,"12/20/2014 22:00","62,5","ND","ND","ND","ND","ND"],
    [4232,"12/20/2014 23:00","55,6","ND","ND","ND","ND","ND"],
    [4233,"12/21/2014 00:00","49,3","ND","ND","ND","ND","ND"],
    [4234,"12/21/2014 01:00","41,5","ND","ND","ND","ND","ND"],
    [4235,"12/21/2014 02:00","33","ND","ND","ND","ND","ND"],
    [4236,"12/21/2014 03:00","35,3","ND","ND","ND","ND","ND"],
    [4237,"12/21/2014 04:00","32,5","ND","ND","ND","ND","ND"],
    [4238,"12/21/2014 05:00","33,7","ND","ND","ND","ND","ND"],
    [4239,"12/21/2014 06:00","35,5","ND","ND","ND","ND","ND"],
    [4240,"12/21/2014 07:00","36,2","ND","ND","ND","ND","ND"],
    [4241,"12/21/2014 08:00","44,3","ND","ND","ND","ND","ND"],
    [4242,"12/21/2014 09:00","47,6","ND","ND","ND","ND","ND"],
    [4243,"12/21/2014 10:00","36,8","ND","ND","ND","ND","ND"],
    [4244,"12/21/2014 11:00","38,5","ND","ND","ND","ND","ND"],
    [4245,"12/21/2014 12:00","54,1","ND","ND","ND","ND","ND"],
    [4246,"12/21/2014 13:00","44,6","ND","ND","ND","ND","ND"],
    [4247,"12/21/2014 14:00","47,5","ND","ND","ND","ND","ND"],
    [4248,"12/21/2014 15:00","61","ND","ND","ND","ND","ND"],
    [4249,"12/21/2014 16:00","49,5","ND","ND","ND","ND","ND"],
    [4250,"12/21/2014 17:00","27,9","ND","ND","ND","ND","ND"],
    [4251,"12/21/2014 18:00","28,6","ND","ND","ND","ND","ND"],
    [4252,"12/21/2014 19:00","28,5","ND","ND","ND","ND","ND"],
    [4253,"12/21/2014 20:00","15,2","ND","ND","ND","ND","ND"],
    [4254,"12/21/2014 21:00","37,7","ND","ND","ND","ND","ND"],
    [4255,"12/21/2014 22:00","44,8","ND","ND","ND","ND","ND"],
    [4256,"12/21/2014 23:00","37,7","ND","ND","ND","ND","ND"],
    [4257,"12/22/2014 00:00","74,1","ND","ND","ND","ND","ND"],
    [4258,"12/22/2014 01:00","45,2","ND","ND","ND","ND","ND"],
    [4259,"12/22/2014 02:00","34,2","ND","ND","ND","ND","ND"],
    [4260,"12/22/2014 03:00","35,2","ND","ND","ND","ND","ND"],
    [4261,"12/22/2014 04:00","35","ND","ND","ND","ND","ND"],
    [4262,"12/22/2014 05:00","30,5","ND","ND","ND","ND","ND"],
    [4263,"12/22/2014 06:00","28,2","ND","ND","ND","ND","ND"],
    [4264,"12/22/2014 07:00","37,2","ND","ND","ND","ND","ND"],
    [4265,"12/22/2014 08:00","49,2","ND","ND","ND","ND","ND"],
    [4266,"12/22/2014 09:00","83,5","ND","ND","ND","ND","ND"],
    [4267,"12/22/2014 10:00","77,6","ND","ND","ND","ND","ND"],
    [4268,"12/22/2014 11:00","75,6","ND","ND","ND","ND","ND"],
    [4269,"12/22/2014 12:00","55,6","ND","ND","ND","ND","ND"],
    [4270,"12/22/2014 13:00","38,7","ND","ND","ND","ND","ND"],
    [4271,"12/22/2014 14:00","43","ND","ND","ND","ND","ND"],
    [4272,"12/22/2014 15:00","49,1","ND","ND","ND","ND","ND"],
    [4273,"12/22/2014 16:00","49,2","ND","ND","ND","ND","ND"],
    [4274,"12/22/2014 17:00","60,6","ND","ND","ND","ND","ND"],
    [4275,"12/22/2014 18:00","49,2","ND","ND","ND","ND","ND"],
    [4276,"12/22/2014 19:00","49,2","ND","ND","ND","ND","ND"],
    [4277,"12/22/2014 20:00","23,6","ND","ND","ND","ND","ND"],
    [4278,"12/22/2014 21:00","27,1","ND","ND","ND","ND","ND"],
    [4279,"12/22/2014 22:00","42,5","ND","ND","ND","ND","ND"],
    [4280,"12/22/2014 23:00","72,3","ND","ND","ND","ND","ND"],
    [4281,"12/23/2014 00:00","66,6","ND","ND","ND","ND","ND"],
    [4282,"12/23/2014 01:00","52,2","ND","ND","ND","ND","ND"],
    [4283,"12/23/2014 02:00","49,5","ND","ND","ND","ND","ND"],
    [4284,"12/23/2014 03:00","52,5","ND","ND","ND","ND","ND"],
    [4285,"12/23/2014 04:00","49,9","ND","ND","ND","ND","ND"],
    [4286,"12/23/2014 05:00","44,5","ND","ND","ND","ND","ND"],
    [4287,"12/23/2014 06:00","39,2","ND","ND","ND","ND","ND"],
    [4288,"12/23/2014 07:00","49,8","ND","ND","ND","ND","ND"],
    [4289,"12/23/2014 08:00","59,5","ND","ND","ND","ND","ND"],
    [4290,"12/23/2014 09:00","67,3","ND","ND","ND","ND","ND"],
    [4291,"12/23/2014 10:00","74,1","ND","ND","ND","ND","ND"],
    [4292,"12/23/2014 11:00","51,3","ND","ND","ND","ND","ND"],
    [4293,"12/23/2014 12:00","42,7","ND","ND","ND","ND","ND"],
    [4294,"12/23/2014 13:00","51,1","ND","ND","ND","ND","ND"],
    [4295,"12/23/2014 14:00","57,1","ND","ND","ND","ND","ND"],
    [4296,"12/23/2014 15:00","57,1","ND","ND","ND","ND","ND"],
    [4297,"12/23/2014 16:00","38,1","ND","ND","ND","ND","ND"],
    [4298,"12/23/2014 17:00","20,1","ND","ND","ND","ND","ND"],
    [4299,"12/23/2014 18:00","25","ND","ND","ND","ND","ND"],
    [4300,"12/23/2014 19:00","24,5","ND","ND","ND","ND","ND"],
    [4301,"12/23/2014 20:00","23,9","ND","ND","ND","ND","ND"],
    [4302,"12/23/2014 21:00","19,7","ND","ND","ND","ND","ND"],
    [4303,"12/23/2014 22:00","43,3","ND","ND","ND","ND","ND"],
    [4304,"12/23/2014 23:00","67,7","ND","ND","ND","ND","ND"],
    [4305,"12/24/2014 00:00","74,1","ND","ND","ND","ND","ND"],
    [4306,"12/24/2014 01:00","59,5","ND","ND","ND","ND","ND"],
    [4307,"12/24/2014 02:00","59,5","ND","ND","ND","ND","ND"],
    [4308,"12/24/2014 03:00","36,9","ND","ND","ND","ND","ND"],
    [4309,"12/24/2014 04:00","33,4","ND","ND","ND","ND","ND"],
    [4310,"12/24/2014 05:00","27,4","ND","ND","ND","ND","ND"],
    [4311,"12/24/2014 06:00","33,1","ND","ND","ND","ND","ND"],
    [4312,"12/24/2014 07:00","43,5","ND","ND","ND","ND","ND"],
    [4313,"12/24/2014 08:00","47,7","ND","ND","ND","ND","ND"],
    [4314,"12/24/2014 09:00","60,7","ND","ND","ND","ND","ND"],
    [4315,"12/24/2014 10:00","48","ND","ND","ND","ND","ND"],
    [4316,"12/24/2014 11:00","40,1","ND","ND","ND","ND","ND"],
    [4317,"12/24/2014 12:00","41,5","ND","ND","ND","ND","ND"],
    [4318,"12/24/2014 13:00","48,2","ND","ND","ND","ND","ND"],
    [4319,"12/24/2014 14:00","48,9","ND","ND","ND","ND","ND"],
    [4320,"12/24/2014 15:00","16","ND","ND","ND","ND","ND"],
    [4321,"12/24/2014 16:00","6,8","ND","ND","ND","ND","ND"],
    [4322,"12/24/2014 17:00","13,7","ND","ND","ND","ND","ND"],
    [4323,"12/24/2014 18:00","18,7","ND","ND","ND","ND","ND"],
    [4324,"12/24/2014 19:00","18,7","ND","ND","ND","ND","ND"],
    [4325,"12/24/2014 20:00","20,3","ND","ND","ND","ND","ND"],
    [4326,"12/24/2014 21:00","21,9","ND","ND","ND","ND","ND"],
    [4327,"12/24/2014 22:00","23,1","ND","ND","ND","ND","ND"],
    [4328,"12/24/2014 23:00","40,9","ND","ND","ND","ND","ND"],
    [4329,"12/25/2014 00:00","30,8","ND","ND","ND","ND","ND"],
    [4330,"12/25/2014 01:00","56,6","ND","ND","ND","ND","ND"],
    [4331,"12/25/2014 02:00","90,8","ND","ND","ND","ND","ND"],
    [4332,"12/25/2014 03:00","52,5","ND","ND","ND","ND","ND"],
    [4333,"12/25/2014 04:00","59,7","ND","ND","ND","ND","ND"],
    [4334,"12/25/2014 05:00","50,4","ND","ND","ND","ND","ND"],
    [4335,"12/25/2014 06:00","38","ND","ND","ND","ND","ND"],
    [4336,"12/25/2014 07:00","34,4","ND","ND","ND","ND","ND"],
    [4337,"12/25/2014 08:00","42,2","ND","ND","ND","ND","ND"],
    [4338,"12/25/2014 09:00","40,5","ND","ND","ND","ND","ND"],
    [4339,"12/25/2014 10:00","48,2","ND","ND","ND","ND","ND"],
    [4340,"12/25/2014 11:00","52,5","ND","ND","ND","ND","ND"],
    [4341,"12/25/2014 12:00","41,4","ND","ND","ND","ND","ND"],
    [4342,"12/25/2014 13:00","37,4","ND","ND","ND","ND","ND"],
    [4343,"12/25/2014 14:00","34,4","ND","ND","ND","ND","ND"],
    [4344,"12/25/2014 15:00","36","ND","ND","ND","ND","ND"],
    [4345,"12/25/2014 16:00","16","ND","ND","ND","ND","ND"],
    [4346,"12/25/2014 17:00","13,1","ND","ND","ND","ND","ND"],
    [4347,"12/25/2014 18:00","15,4","ND","ND","ND","ND","ND"],
    [4348,"12/25/2014 19:00","20,4","ND","ND","ND","ND","ND"],
    [4349,"12/25/2014 20:00","14,8","ND","ND","ND","ND","ND"],
    [4350,"12/25/2014 21:00","18,4","ND","ND","ND","ND","ND"],
    [4351,"12/25/2014 22:00","18,4","ND","ND","ND","ND","ND"],
    [4352,"12/25/2014 23:00","38,9","ND","ND","ND","ND","ND"],
    [4353,"12/26/2014 00:00","43","ND","ND","ND","ND","ND"],
    [4354,"12/26/2014 01:00","33,4","ND","ND","ND","ND","ND"],
    [4355,"12/26/2014 02:00","29,5","ND","ND","ND","ND","ND"],
    [4356,"12/26/2014 03:00","28,7","ND","ND","ND","ND","ND"],
    [4357,"12/26/2014 04:00","19,1","ND","ND","ND","ND","ND"],
    [4358,"12/26/2014 05:00","25,8","ND","ND","ND","ND","ND"],
    [4359,"12/26/2014 06:00","21,8","ND","ND","ND","ND","ND"],
    [4360,"12/26/2014 07:00","29,6","ND","ND","ND","ND","ND"],
    [4361,"12/26/2014 08:00","44,4","ND","ND","ND","ND","ND"],
    [4362,"12/26/2014 09:00","45,1","ND","ND","ND","ND","ND"],
    [4363,"12/26/2014 10:00","44,8","ND","ND","ND","ND","ND"],
    [4364,"12/26/2014 11:00","42,8","ND","ND","ND","ND","ND"],
    [4365,"12/26/2014 12:00","46,2","ND","ND","ND","ND","ND"],
    [4366,"12/26/2014 13:00","48,2","ND","ND","ND","ND","ND"],
    [4367,"12/26/2014 14:00","49,1","ND","ND","ND","ND","ND"],
    [4368,"12/26/2014 15:00","37,1","ND","ND","ND","ND","ND"],
    [4369,"12/26/2014 16:00","13","ND","ND","ND","ND","ND"],
    [4370,"12/26/2014 17:00","16,6","ND","ND","ND","ND","ND"],
    [4371,"12/26/2014 18:00","19,2","ND","ND","ND","ND","ND"],
    [4372,"12/26/2014 19:00","19,1","ND","ND","ND","ND","ND"],
    [4373,"12/26/2014 20:00","31,9","ND","ND","ND","ND","ND"],
    [4374,"12/26/2014 21:00","30,5","ND","ND","ND","ND","ND"],
    [4375,"12/26/2014 22:00","33,5","ND","ND","ND","ND","ND"],
    [4376,"12/26/2014 23:00","45,2","ND","ND","ND","ND","ND"],
    [4377,"12/27/2014 00:00","56,2","ND","ND","ND","ND","ND"],
    [4378,"12/27/2014 01:00","44,1","ND","ND","ND","ND","ND"],
    [4379,"12/27/2014 02:00","35,4","ND","ND","ND","ND","ND"],
    [4380,"12/27/2014 03:00","28,5","ND","ND","ND","ND","ND"],
    [4381,"12/27/2014 04:00","57,6","ND","ND","ND","ND","ND"],
    [4382,"12/27/2014 05:00","28,4","ND","ND","ND","ND","ND"],
    [4383,"12/27/2014 06:00","35,7","ND","ND","ND","ND","ND"],
    [4384,"12/27/2014 07:00","32,9","ND","ND","ND","ND","ND"],
    [4385,"12/27/2014 08:00","44,9","ND","ND","ND","ND","ND"],
    [4386,"12/27/2014 09:00","59","ND","ND","ND","ND","ND"],
    [4387,"12/27/2014 10:00","64,9","ND","ND","ND","ND","ND"],
    [4388,"12/27/2014 11:00","78,8","ND","ND","ND","ND","ND"],
    [4389,"12/27/2014 12:00","63,6","ND","ND","ND","ND","ND"],
    [4390,"12/27/2014 13:00","63,4","ND","ND","ND","ND","ND"],
    [4391,"12/27/2014 14:00","55,1","ND","ND","ND","ND","ND"],
    [4392,"12/27/2014 15:00","45,5","ND","ND","ND","ND","ND"],
    [4393,"12/27/2014 16:00","17","ND","ND","ND","ND","ND"],
    [4394,"12/27/2014 17:00","19","ND","ND","ND","ND","ND"],
    [4395,"12/27/2014 18:00","30,1","ND","ND","ND","ND","ND"],
    [4396,"12/27/2014 19:00","31,7","ND","ND","ND","ND","ND"],
    [4397,"12/27/2014 20:00","24,3","ND","ND","ND","ND","ND"],
    [4398,"12/27/2014 21:00","21,6","ND","ND","ND","ND","ND"],
    [4399,"12/27/2014 22:00","12,6","ND","ND","ND","ND","ND"],
    [4400,"12/27/2014 23:00","39,3","ND","ND","ND","ND","ND"],
    [4401,"12/28/2014 00:00","46,5","ND","ND","ND","ND","ND"],
    [4402,"12/28/2014 01:00","55,6","ND","ND","ND","ND","ND"],
    [4403,"12/28/2014 02:00","69,1","ND","ND","ND","ND","ND"],
    [4404,"12/28/2014 03:00","48,9","ND","ND","ND","ND","ND"],
    [4405,"12/28/2014 04:00","49,2","ND","ND","ND","ND","ND"],
    [4406,"12/28/2014 05:00","37,1","ND","ND","ND","ND","ND"],
    [4407,"12/28/2014 06:00","34,4","ND","ND","ND","ND","ND"],
    [4408,"12/28/2014 07:00","41,1","ND","ND","ND","ND","ND"],
    [4409,"12/28/2014 08:00","39,7","ND","ND","ND","ND","ND"],
    [4410,"12/28/2014 09:00","34,9","ND","ND","ND","ND","ND"],
    [4411,"12/28/2014 10:00","75,7","ND","ND","ND","ND","ND"],
    [4412,"12/28/2014 11:00","57,9","ND","ND","ND","ND","ND"],
    [4413,"12/28/2014 12:00","40,1","ND","ND","ND","ND","ND"],
    [4414,"12/28/2014 13:00","47,2","ND","ND","ND","ND","ND"],
    [4415,"12/28/2014 14:00","45,5","ND","ND","ND","ND","ND"],
    [4416,"12/28/2014 15:00","27,6","ND","ND","ND","ND","ND"],
    [4417,"12/28/2014 16:00","14,7","ND","ND","ND","ND","ND"],
    [4418,"12/28/2014 17:00","24,3","ND","ND","ND","ND","ND"],
    [4419,"12/28/2014 18:00","20,5","ND","ND","ND","ND","ND"],
    [4420,"12/28/2014 19:00","27,8","ND","ND","ND","ND","ND"],
    [4421,"12/28/2014 20:00","30,2","ND","ND","ND","ND","ND"],
    [4422,"12/28/2014 21:00","35,3","ND","ND","ND","ND","ND"],
    [4423,"12/28/2014 22:00","36,7","ND","ND","ND","ND","ND"],
    [4424,"12/28/2014 23:00","54,1","ND","ND","ND","ND","ND"],
    [4425,"12/29/2014 00:00","35,4","ND","ND","ND","ND","ND"],
    [4426,"12/29/2014 01:00","30,9","ND","ND","ND","ND","ND"],
    [4427,"12/29/2014 02:00","24,2","ND","ND","ND","ND","ND"],
    [4428,"12/29/2014 03:00","31,5","ND","ND","ND","ND","ND"],
    [4429,"12/29/2014 04:00","31,5","ND","ND","ND","ND","ND"],
    [4430,"12/29/2014 05:00","20,6","ND","ND","ND","ND","ND"],
    [4431,"12/29/2014 06:00","24,3","ND","ND","ND","ND","ND"],
    [4432,"12/29/2014 07:00","33,4","ND","ND","ND","ND","ND"],
    [4433,"12/29/2014 08:00","49,2","ND","ND","ND","ND","ND"],
    [4434,"12/29/2014 09:00","43,7","ND","ND","ND","ND","ND"],
    [4435,"12/29/2014 10:00","56,6","ND","ND","ND","ND","ND"],
    [4436,"12/29/2014 11:00","77,3","ND","ND","ND","ND","ND"],
    [4437,"12/29/2014 12:00","47,7","ND","ND","ND","ND","ND"],
    [4438,"12/29/2014 13:00","37,9","ND","ND","ND","ND","ND"],
    [4439,"12/29/2014 14:00","44,8","ND","ND","ND","ND","ND"],
    [4440,"12/29/2014 15:00","62,6","ND","ND","ND","ND","ND"],
    [4441,"12/29/2014 16:00","50,4","ND","ND","ND","ND","ND"],
    [4442,"12/29/2014 17:00","31,8","ND","ND","ND","ND","ND"],
    [4443,"12/29/2014 18:00","25,9","ND","ND","ND","ND","ND"],
    [4444,"12/29/2014 19:00","29","ND","ND","ND","ND","ND"],
    [4445,"12/29/2014 20:00","17,5","ND","ND","ND","ND","ND"],
    [4446,"12/29/2014 21:00","32,5","ND","ND","ND","ND","ND"],
    [4447,"12/29/2014 22:00","23","ND","ND","ND","ND","ND"],
    [4448,"12/29/2014 23:00","55","ND","ND","ND","ND","ND"],
    [4449,"12/30/2014 00:00","62,5","ND","ND","ND","ND","ND"],
    [4450,"12/30/2014 01:00","31","ND","ND","ND","ND","ND"],
    [4451,"12/30/2014 02:00","23,5","ND","ND","ND","ND","ND"],
    [4452,"12/30/2014 03:00","33,7","ND","ND","ND","ND","ND"],
    [4453,"12/30/2014 04:00","35","ND","ND","ND","ND","ND"],
    [4454,"12/30/2014 05:00","30,6","ND","ND","ND","ND","ND"],
    [4455,"12/30/2014 06:00","41,4","ND","ND","ND","ND","ND"],
    [4456,"12/30/2014 07:00","29,5","ND","ND","ND","ND","ND"],
    [4457,"12/30/2014 08:00","49,6","ND","ND","ND","ND","ND"],
    [4458,"12/30/2014 09:00","46","ND","ND","ND","ND","ND"],
    [4459,"12/30/2014 10:00","37,8","ND","ND","ND","ND","ND"],
    [4460,"12/30/2014 11:00","27,5","ND","ND","ND","ND","ND"],
    [4461,"12/30/2014 12:00","25,7","ND","ND","ND","ND","ND"],
    [4462,"12/30/2014 13:00","33,8","ND","ND","ND","ND","ND"],
    [4463,"12/30/2014 14:00","26,9","ND","ND","ND","ND","ND"],
    [4464,"12/30/2014 15:00","30,6","ND","ND","ND","ND","ND"],
    [4465,"12/30/2014 16:00","36","ND","ND","ND","ND","ND"],
    [4466,"12/30/2014 17:00","52,3","ND","ND","ND","ND","ND"],
    [4467,"12/30/2014 18:00","27,4","ND","ND","ND","ND","ND"],
    [4468,"12/30/2014 19:00","33,1","ND","ND","ND","ND","ND"],
    [4469,"12/30/2014 20:00","32,7","ND","ND","ND","ND","ND"],
    [4470,"12/30/2014 21:00","30,3","ND","ND","ND","ND","ND"],
    [4471,"12/30/2014 22:00","33,1","ND","ND","ND","ND","ND"],
    [4472,"12/30/2014 23:00","71,4","ND","ND","ND","ND","ND"],
    [4473,"12/31/2014 00:00","77,5","ND","ND","ND","ND","ND"],
    [4474,"12/31/2014 01:00","66,5","ND","ND","ND","ND","ND"],
    [4475,"12/31/2014 02:00","43,7","ND","ND","ND","ND","ND"],
    [4476,"12/31/2014 03:00","36,6","ND","ND","ND","ND","ND"],
    [4477,"12/31/2014 04:00","33","ND","ND","ND","ND","ND"],
    [4478,"12/31/2014 05:00","33,8","ND","ND","ND","ND","ND"],
    [4479,"12/31/2014 06:00","38,9","ND","ND","ND","ND","ND"],
    [4480,"12/31/2014 07:00","51,1","ND","ND","ND","ND","ND"],
    [4481,"12/31/2014 08:00","57,1","ND","ND","ND","ND","ND"],
    [4482,"12/31/2014 09:00","58,6","ND","ND","ND","ND","ND"],
    [4483,"12/31/2014 10:00","45,9","ND","ND","ND","ND","ND"],
    [4484,"12/31/2014 11:00","39,7","ND","ND","ND","ND","ND"],
    [4485,"12/31/2014 12:00","38,8","ND","ND","ND","ND","ND"],
    [4486,"12/31/2014 13:00","36,1","ND","ND","ND","ND","ND"],
    [4487,"12/31/2014 14:00","35,6","ND","ND","ND","ND","ND"],
    [4488,"12/31/2014 15:00","39,8","ND","ND","ND","ND","ND"],
    [4489,"12/31/2014 16:00","32,8","ND","ND","ND","ND","ND"],
    [4490,"12/31/2014 17:00","17,9","ND","ND","ND","ND","ND"],
    [4491,"12/31/2014 18:00","24,4","ND","ND","ND","ND","ND"],
    [4492,"12/31/2014 19:00","20,7","ND","ND","ND","ND","ND"],
    [4493,"12/31/2014 20:00","17,4","ND","ND","ND","ND","ND"],
    [4494,"12/31/2014 21:00","31,1","ND","ND","ND","ND","ND"],
    [4495,"12/31/2014 22:00","56,5","ND","ND","ND","ND","ND"],
    [4496,"12/31/2014 23:00","67,5","ND","ND","ND","ND","ND"],
    [4497,"42005","48,3","ND","ND","ND","ND","ND"],
    [4498,"42005,04167","64","ND","ND","ND","ND","ND"],
    [4499,"42005,08333","178,1","ND","ND","ND","ND","ND"],
    [4500,"42005,125","107,1","ND","ND","ND","ND","ND"],
    [4501,"42005,16667","70,3","ND","ND","ND","ND","ND"],
    [4502,"42005,20833","69,7","ND","ND","ND","ND","ND"],
    [4503,"42005,25","54,8","ND","ND","ND","ND","ND"],
    [4504,"42005,29167","48,6","ND","ND","ND","ND","ND"],
    [4505,"42005,33333","47,3","ND","ND","ND","ND","ND"],
    [4506,"42005,375","56,2","ND","ND","ND","ND","ND"],
    [4507,"42005,41667","77,6","ND","ND","ND","ND","ND"],
    [4508,"42005,45833","65,8","ND","ND","ND","ND","ND"],
    [4509,"42005,5","63,4","ND","ND","ND","ND","ND"],
    [4510,"42005,54167","36,7","ND","ND","ND","ND","ND"],
    [4511,"42005,58333","32,1","ND","ND","ND","ND","ND"],
    [4512,"42005,625","27","ND","ND","ND","ND","ND"],
    [4513,"42005,66667","6,3","ND","ND","ND","ND","ND"],
    [4514,"42005,70833","16,4","ND","ND","ND","ND","ND"],
    [4515,"42005,75","24,8","ND","ND","ND","ND","ND"],
    [4516,"42005,79167","21,7","ND","ND","ND","ND","ND"],
    [4517,"42005,83333","15,5","ND","ND","ND","ND","ND"],
    [4518,"42005,875","20,8","ND","ND","ND","ND","ND"],
    [4519,"42005,91667","20,3","ND","ND","ND","ND","ND"],
    [4520,"42005,95833","49,9","ND","ND","ND","ND","ND"],
    [4521,"42036","35,3","ND","ND","ND","ND","ND"],
    [4522,"42036,04167","25,1","ND","ND","ND","ND","ND"],
    [4523,"42036,08333","29,6","ND","ND","ND","ND","ND"],
    [4524,"42036,125","23,9","ND","ND","ND","ND","ND"],
    [4525,"42036,16667","21,4","ND","ND","ND","ND","ND"],
    [4526,"42036,20833","21,7","ND","ND","ND","ND","ND"],
    [4527,"42036,25","22","ND","ND","ND","ND","ND"],
    [4528,"42036,29167","25,6","ND","ND","ND","ND","ND"],
    [4529,"42036,33333","43,8","ND","ND","ND","ND","ND"],
    [4530,"42036,375","48,5","ND","ND","ND","ND","ND"],
    [4531,"42036,41667","29,7","ND","ND","ND","ND","ND"],
    [4532,"42036,45833","22,2","ND","ND","ND","ND","ND"],
    [4533,"42036,5","28,7","ND","ND","ND","ND","ND"],
    [4534,"42036,54167","52,4","ND","ND","ND","ND","ND"],
    [4535,"42036,58333","45,6","ND","ND","ND","ND","ND"],
    [4536,"42036,625","48,1","ND","ND","ND","ND","ND"],
    [4537,"42036,66667","34,2","ND","ND","ND","ND","ND"],
    [4538,"42036,70833","18,7","ND","ND","ND","ND","ND"],
    [4539,"42036,75","26,3","ND","ND","ND","ND","ND"],
    [4540,"42036,79167","27","ND","ND","ND","ND","ND"],
    [4541,"42036,83333","25,5","ND","ND","ND","ND","ND"],
    [4542,"42036,875","17","ND","ND","ND","ND","ND"],
    [4543,"42036,91667","32,3","ND","ND","ND","ND","ND"],
    [4544,"42036,95833","27,1","ND","ND","ND","ND","ND"],
    [4545,"42064","52,8","ND","ND","ND","ND","ND"],
    [4546,"42064,04167","52,1","ND","ND","ND","ND","ND"],
    [4547,"42064,08333","37,5","ND","ND","ND","ND","ND"],
    [4548,"42064,125","37,5","ND","ND","ND","ND","ND"],
    [4549,"42064,16667","31,6","ND","ND","ND","ND","ND"],
    [4550,"42064,20833","34,3","ND","ND","ND","ND","ND"],
    [4551,"42064,25","31,7","ND","ND","ND","ND","ND"],
    [4552,"42064,29167","28,5","ND","ND","ND","ND","ND"],
    [4553,"42064,33333","38,8","ND","ND","ND","ND","ND"],
    [4554,"42064,375","48,3","ND","ND","ND","ND","ND"],
    [4555,"42064,41667","45,7","ND","ND","ND","ND","ND"],
    [4556,"42064,45833","56,4","ND","ND","ND","ND","ND"],
    [4557,"42064,5","44,7","ND","ND","ND","ND","ND"],
    [4558,"42064,54167","42,3","ND","ND","ND","ND","ND"],
    [4559,"42064,58333","45,1","ND","ND","ND","ND","ND"],
    [4560,"42064,625","41,6","ND","ND","ND","ND","ND"],
    [4561,"42064,66667","31,6","ND","ND","ND","ND","ND"],
    [4562,"42064,70833","24","ND","ND","ND","ND","ND"],
    [4563,"42064,75","22,1","ND","ND","ND","ND","ND"],
    [4564,"42064,79167","24,7","ND","ND","ND","ND","ND"],
    [4565,"42064,83333","27,1","ND","ND","ND","ND","ND"],
    [4566,"42064,875","27,9","ND","ND","ND","ND","ND"],
    [4567,"42064,91667","40,6","ND","ND","ND","ND","ND"],
    [4568,"42064,95833","39,5","ND","ND","ND","ND","ND"],
    [4569,"42095","55,4","ND","ND","ND","ND","ND"],
    [4570,"42095,04167","45,7","ND","ND","ND","ND","ND"],
    [4571,"42095,08333","49,8","ND","ND","ND","ND","ND"],
    [4572,"42095,125","31,2","ND","ND","ND","ND","ND"],
    [4573,"42095,16667","33,6","ND","ND","ND","ND","ND"],
    [4574,"42095,20833","55,6","ND","ND","ND","ND","ND"],
    [4575,"42095,25","29","ND","ND","ND","ND","ND"],
    [4576,"42095,29167","33,4","ND","ND","ND","ND","ND"],
    [4577,"42095,33333","33,5","ND","ND","ND","ND","ND"],
    [4578,"42095,375","44,6","ND","ND","ND","ND","ND"],
    [4579,"42095,41667","30,6","ND","ND","ND","ND","ND"],
    [4580,"42095,45833","41,3","ND","ND","ND","ND","ND"],
    [4581,"42095,5","47,7","ND","ND","ND","ND","ND"],
    [4582,"42095,54167","40,1","ND","ND","ND","ND","ND"],
    [4583,"42095,58333","42,4","ND","ND","ND","ND","ND"],
    [4584,"42095,625","51","ND","ND","ND","ND","ND"],
    [4585,"42095,66667","16,4","ND","ND","ND","ND","ND"],
    [4586,"42095,70833","17,5","ND","ND","ND","ND","ND"],
    [4587,"42095,75","28,6","ND","ND","ND","ND","ND"],
    [4588,"42095,79167","22,2","ND","ND","ND","ND","ND"],
    [4589,"42095,83333","22,3","ND","ND","ND","ND","ND"],
    [4590,"42095,875","30,1","ND","ND","ND","ND","ND"],
    [4591,"42095,91667","28,6","ND","ND","ND","ND","ND"],
    [4592,"42095,95833","46,6","ND","ND","ND","ND","ND"],
    [4593,"42125","44,9","ND","ND","ND","ND","ND"],
    [4594,"42125,04167","55,4","ND","ND","ND","ND","ND"],
    [4595,"42125,08333","27,3","ND","ND","ND","ND","ND"],
    [4596,"42125,125","23,6","ND","ND","ND","ND","ND"],
    [4597,"42125,16667","25,6","ND","ND","ND","ND","ND"],
    [4598,"42125,20833","21,4","ND","ND","ND","ND","ND"],
    [4599,"42125,25","28","ND","ND","ND","ND","ND"],
    [4600,"42125,29167","31,3","ND","ND","ND","ND","ND"],
    [4601,"42125,33333","48,3","ND","ND","ND","ND","ND"],
    [4602,"42125,375","48,6","ND","ND","ND","ND","ND"],
    [4603,"42125,41667","39,6","ND","ND","ND","ND","ND"],
    [4604,"42125,45833","34,9","ND","ND","ND","ND","ND"],
    [4605,"42125,5","24,1","ND","ND","ND","ND","ND"],
    [4606,"42125,54167","37,9","ND","ND","ND","ND","ND"],
    [4607,"42125,58333","52,1","ND","ND","ND","ND","ND"],
    [4608,"42125,625","39,4","ND","ND","ND","ND","ND"],
    [4609,"42125,66667","22,3","ND","ND","ND","ND","ND"],
    [4610,"42125,70833","21,5","ND","ND","ND","ND","ND"],
    [4611,"42125,75","17,2","ND","ND","ND","ND","ND"],
    [4612,"42125,79167","19,6","ND","ND","ND","ND","ND"],
    [4613,"42125,83333","20,6","ND","ND","ND","ND","ND"],
    [4614,"42125,875","22,4","ND","ND","ND","ND","ND"],
    [4615,"42125,91667","39,2","ND","ND","ND","ND","ND"],
    [4616,"42125,95833","59,7","ND","ND","ND","ND","ND"],
    [4617,"42156","52,2","ND","ND","ND","ND","ND"],
    [4618,"42156,04167","32,7","ND","ND","ND","ND","ND"],
    [4619,"42156,08333","30,9","ND","ND","ND","ND","ND"],
    [4620,"42156,125","23,6","ND","ND","ND","ND","ND"],
    [4621,"42156,16667","21,8","ND","ND","ND","ND","ND"],
    [4622,"42156,20833","46","ND","ND","ND","ND","ND"],
    [4623,"42156,25","46","ND","ND","ND","ND","ND"],
    [4624,"42156,29167","37,5","ND","ND","ND","ND","ND"],
    [4625,"42156,33333","55,5","ND","ND","ND","ND","ND"],
    [4626,"42156,375","66,3","ND","ND","ND","ND","ND"],
    [4627,"42156,41667","62,5","ND","ND","ND","ND","ND"],
    [4628,"42156,45833","45,1","ND","ND","ND","ND","ND"],
    [4629,"42156,5","40,3","ND","ND","ND","ND","ND"],
    [4630,"42156,54167","43,4","ND","ND","ND","ND","ND"],
    [4631,"42156,58333","57,3","ND","ND","ND","ND","ND"],
    [4632,"42156,625","64,4","ND","ND","ND","ND","ND"],
    [4633,"42156,66667","24,7","ND","ND","ND","ND","ND"],
    [4634,"42156,70833","23,8","ND","ND","ND","ND","ND"],
    [4635,"42156,75","24,6","ND","ND","ND","ND","ND"],
    [4636,"42156,79167","23,6","ND","ND","ND","ND","ND"],
    [4637,"42156,83333","25,3","ND","ND","ND","ND","ND"],
    [4638,"42156,875","37,9","ND","ND","ND","ND","ND"],
    [4639,"42156,91667","39,9","ND","ND","ND","ND","ND"],
    [4640,"42156,95833","40,7","ND","ND","ND","ND","ND"],
    [4641,"42186","79,1","ND","ND","ND","ND","ND"],
    [4642,"42186,04167","46","ND","ND","ND","ND","ND"],
    [4643,"42186,08333","27,2","ND","ND","ND","ND","ND"],
    [4644,"42186,125","26","ND","ND","ND","ND","ND"],
    [4645,"42186,16667","24,2","ND","ND","ND","ND","ND"],
    [4646,"42186,20833","24,7","ND","ND","ND","ND","ND"],
    [4647,"42186,25","28,4","ND","ND","ND","ND","ND"],
    [4648,"42186,29167","39,9","ND","ND","ND","ND","ND"],
    [4649,"42186,33333","50,5","ND","ND","ND","ND","ND"],
    [4650,"42186,375","68,9","ND","ND","ND","ND","ND"],
    [4651,"42186,41667","67,9","ND","ND","ND","ND","ND"],
    [4652,"42186,45833","53,2","ND","ND","ND","ND","ND"],
    [4653,"42186,5","48,8","ND","ND","ND","ND","ND"],
    [4654,"42186,54167","49,2","ND","ND","ND","ND","ND"],
    [4655,"42186,58333","53,1","ND","ND","ND","ND","ND"],
    [4656,"42186,625","69","ND","ND","ND","ND","ND"],
    [4657,"42186,66667","29,1","ND","ND","ND","ND","ND"],
    [4658,"42186,70833","22","ND","ND","ND","ND","ND"],
    [4659,"42186,75","32,4","ND","ND","ND","ND","ND"],
    [4660,"42186,79167","26","ND","ND","ND","ND","ND"],
    [4661,"42186,83333","25,9","ND","ND","ND","ND","ND"],
    [4662,"42186,875","26","ND","ND","ND","ND","ND"],
    [4663,"42186,91667","28,2","ND","ND","ND","ND","ND"],
    [4664,"42186,95833","62,7","ND","ND","ND","ND","ND"],
    [4665,"42217","41,5","ND","ND","ND","ND","ND"],
    [4666,"42217,04167","35,1","ND","ND","ND","ND","ND"],
    [4667,"42217,08333","50,5","ND","ND","ND","ND","ND"],
    [4668,"42217,125","30,8","ND","ND","ND","ND","ND"],
    [4669,"42217,16667","32,9","ND","ND","ND","ND","ND"],
    [4670,"42217,20833","35,2","ND","ND","ND","ND","ND"],
    [4671,"42217,25","40,7","ND","ND","ND","ND","ND"],
    [4672,"42217,29167","45,8","ND","ND","ND","ND","ND"],
    [4673,"42217,33333","65,2","ND","ND","ND","ND","ND"],
    [4674,"42217,375","84,9","ND","ND","ND","ND","ND"],
    [4675,"42217,41667","58,4","ND","ND","ND","ND","ND"],
    [4676,"42217,45833","53,5","ND","ND","ND","ND","ND"],
    [4677,"42217,5","63,3","ND","ND","ND","ND","ND"],
    [4678,"42217,54167","62,9","ND","ND","ND","ND","ND"],
    [4679,"42217,58333","58,6","ND","ND","ND","ND","ND"],
    [4680,"42217,625","62,1","ND","ND","ND","ND","ND"],
    [4681,"42217,66667","53,6","ND","ND","ND","ND","ND"],
    [4682,"42217,70833","34,4","ND","ND","ND","ND","ND"],
    [4683,"42217,75","26,8","ND","ND","ND","ND","ND"],
    [4684,"42217,79167","32,7","ND","ND","ND","ND","ND"],
    [4685,"42217,83333","34","ND","ND","ND","ND","ND"],
    [4686,"42217,875","22,1","ND","ND","ND","ND","ND"],
    [4687,"42217,91667","22,3","ND","ND","ND","ND","ND"],
    [4688,"42217,95833","29,7","ND","ND","ND","ND","ND"],
    [4689,"42248","59,3","ND","ND","ND","ND","ND"],
    [4690,"42248,04167","73","ND","ND","ND","ND","ND"],
    [4691,"42248,08333","55,8","ND","ND","ND","ND","ND"],
    [4692,"42248,125","45,7","ND","ND","ND","ND","ND"],
    [4693,"42248,16667","50,3","ND","ND","ND","ND","ND"],
    [4694,"42248,20833","99,3","ND","ND","ND","ND","ND"],
    [4695,"42248,25","38,4","ND","ND","ND","ND","ND"],
    [4696,"42248,29167","51","ND","ND","ND","ND","ND"],
    [4697,"42248,33333","60,8","ND","ND","ND","ND","ND"],
    [4698,"42248,375","60,8","ND","ND","ND","ND","ND"],
    [4699,"42248,41667","137,9","ND","ND","ND","ND","ND"],
    [4700,"42248,45833","117,6","ND","ND","ND","ND","ND"],
    [4701,"42248,5","85,5","ND","ND","ND","ND","ND"],
    [4702,"42248,54167","76,1","ND","ND","ND","ND","ND"],
    [4703,"42248,58333","67,4","ND","ND","ND","ND","ND"],
    [4704,"42248,625","32,4","ND","ND","ND","ND","ND"],
    [4705,"42248,66667","41,6","ND","ND","ND","ND","ND"],
    [4706,"42248,70833","37,1","ND","ND","ND","ND","ND"],
    [4707,"42248,75","24,3","ND","ND","ND","ND","ND"],
    [4708,"42248,79167","37,1","ND","ND","ND","ND","ND"],
    [4709,"42248,83333","26,5","ND","ND","ND","ND","ND"],
    [4710,"42248,875","23,9","ND","ND","ND","ND","ND"],
    [4711,"42248,91667","23,6","ND","ND","ND","ND","ND"],
    [4712,"42248,95833","64,9","ND","ND","ND","ND","ND"],
    [4713,"42278","49,1","ND","ND","ND","ND","ND"],
    [4714,"42278,04167","118,8","ND","ND","ND","ND","ND"],
    [4715,"42278,08333","59","ND","ND","ND","ND","ND"],
    [4716,"42278,125","46,6","ND","ND","ND","ND","ND"],
    [4717,"42278,16667","54,8","ND","ND","ND","ND","ND"],
    [4718,"42278,20833","14,7","ND","ND","ND","ND","ND"],
    [4719,"42278,25","41,1","ND","ND","ND","ND","ND"],
    [4720,"42278,29167","25","ND","ND","ND","ND","ND"],
    [4721,"42278,33333","54,8","ND","ND","ND","ND","ND"],
    [4722,"42278,375","41,9","ND","ND","ND","ND","ND"],
    [4723,"42278,41667","30,8","ND","ND","ND","ND","ND"],
    [4724,"42278,45833","49,6","ND","ND","ND","ND","ND"],
    [4725,"42278,5","46,3","ND","ND","ND","ND","ND"],
    [4726,"42278,54167","62","ND","ND","ND","ND","ND"],
    [4727,"42278,58333","47,3","ND","ND","ND","ND","ND"],
    [4728,"42278,625","11,6","ND","ND","ND","ND","ND"],
    [4729,"42278,66667","13","ND","ND","ND","ND","ND"],
    [4730,"42278,70833","13,4","ND","ND","ND","ND","ND"],
    [4731,"42278,75","17,3","ND","ND","ND","ND","ND"],
    [4732,"42278,79167","25,6","ND","ND","ND","ND","ND"],
    [4733,"42278,83333","29,2","ND","ND","ND","ND","ND"],
    [4734,"42278,875","32,9","ND","ND","ND","ND","ND"],
    [4735,"42278,91667","44,7","ND","ND","ND","ND","ND"],
    [4736,"42278,95833","61,8","ND","ND","ND","ND","ND"],
    [4737,"42309","62","ND","ND","ND","ND","ND"],
    [4738,"42309,04167","32,4","ND","ND","ND","ND","ND"],
    [4739,"42309,08333","33,7","ND","ND","ND","ND","ND"],
    [4740,"42309,125","27,3","ND","ND","ND","ND","ND"],
    [4741,"42309,16667","35,1","ND","ND","ND","ND","ND"],
    [4742,"42309,20833","30,3","ND","ND","ND","ND","ND"],
    [4743,"42309,25","30,6","ND","ND","ND","ND","ND"],
    [4744,"42309,29167","27,7","ND","ND","ND","ND","ND"],
    [4745,"42309,33333","47,8","ND","ND","ND","ND","ND"],
    [4746,"42309,375","55,9","ND","ND","ND","ND","ND"],
    [4747,"42309,41667","49,3","ND","ND","ND","ND","ND"],
    [4748,"42309,45833","49,3","ND","ND","ND","ND","ND"],
    [4749,"42309,5","49","ND","ND","ND","ND","ND"],
    [4750,"42309,54167","52,2","ND","ND","ND","ND","ND"],
    [4751,"42309,58333","52,2","ND","ND","ND","ND","ND"],
    [4752,"42309,625","56,1","ND","ND","ND","ND","ND"],
    [4753,"42309,66667","26,9","ND","ND","ND","ND","ND"],
    [4754,"42309,70833","9,2","ND","ND","ND","ND","ND"],
    [4755,"42309,75","28,6","ND","ND","ND","ND","ND"],
    [4756,"42309,79167","35","ND","ND","ND","ND","ND"],
    [4757,"42309,83333","32,2","ND","ND","ND","ND","ND"],
    [4758,"42309,875","40,5","ND","ND","ND","ND","ND"],
    [4759,"42309,91667","75,7","ND","ND","ND","ND","ND"],
    [4760,"42309,95833","72,8","ND","ND","ND","ND","ND"],
    [4761,"42339","53,2","ND","ND","ND","ND","ND"],
    [4762,"42339,04167","49,6","ND","ND","ND","ND","ND"],
    [4763,"42339,08333","ND","ND","ND","ND","ND","ND"],
    [4764,"42339,125","43,5","ND","ND","ND","ND","ND"],
    [4765,"42339,16667","73,5","ND","ND","ND","ND","ND"],
    [4766,"42339,20833","60,5","ND","ND","ND","ND","ND"],
    [4767,"42339,25","47,2","ND","ND","ND","ND","ND"],
    [4768,"42339,29167","35,3","ND","ND","ND","ND","ND"],
    [4769,"42339,33333","57,8","ND","ND","ND","ND","ND"],
    [4770,"42339,375","73","ND","ND","ND","ND","ND"],
    [4771,"42339,41667","71,2","ND","ND","ND","ND","ND"],
    [4772,"42339,45833","44,6","ND","ND","ND","ND","ND"],
    [4773,"42339,5","33,5","ND","ND","ND","ND","ND"],
    [4774,"42339,54167","44,3","ND","ND","ND","ND","ND"],
    [4775,"42339,58333","48,8","ND","ND","ND","ND","ND"],
    [4776,"42339,625","44,3","ND","ND","ND","ND","ND"],
    [4777,"42339,66667","46","ND","ND","ND","ND","ND"],
    [4778,"42339,70833","22","ND","ND","ND","ND","ND"],
    [4779,"42339,75","29,5","ND","ND","ND","ND","ND"],
    [4780,"42339,79167","27,5","ND","ND","ND","ND","ND"],
    [4781,"42339,83333","26","ND","ND","ND","ND","ND"],
    [4782,"42339,875","42,1","ND","ND","ND","ND","ND"],
    [4783,"42339,91667","64,1","ND","ND","ND","ND","ND"],
    [4784,"42339,95833","69,2","ND","ND","ND","ND","ND"],
    [4785,"01/13/2015 00:00","42,6","ND","ND","ND","ND","ND"],
    [4786,"01/13/2015 01:00","38,9","ND","ND","ND","ND","ND"],
    [4787,"01/13/2015 02:00","26,1","ND","ND","ND","ND","ND"],
    [4788,"01/13/2015 03:00","22,4","ND","ND","ND","ND","ND"],
    [4789,"01/13/2015 04:00","24,5","ND","ND","ND","ND","ND"],
    [4790,"01/13/2015 05:00","27","ND","ND","ND","ND","ND"],
    [4791,"01/13/2015 06:00","33,4","ND","ND","ND","ND","ND"],
    [4792,"01/13/2015 07:00","41,5","ND","ND","ND","ND","ND"],
    [4793,"01/13/2015 08:00","63,7","ND","ND","ND","ND","ND"],
    [4794,"01/13/2015 09:00","55,9","ND","ND","ND","ND","ND"],
    [4795,"01/13/2015 10:00","55,9","ND","ND","ND","ND","ND"],
    [4796,"01/13/2015 11:00","38,7","ND","ND","ND","ND","ND"],
    [4797,"01/13/2015 12:00","28,2","ND","ND","ND","ND","ND"],
    [4798,"01/13/2015 13:00","41,2","ND","ND","ND","ND","ND"],
    [4799,"01/13/2015 14:00","48,8","ND","ND","ND","ND","ND"],
    [4800,"01/13/2015 15:00","48,8","ND","ND","ND","ND","ND"],
    [4801,"01/13/2015 16:00","17,7","ND","ND","ND","ND","ND"],
    [4802,"01/13/2015 17:00","36","ND","ND","ND","ND","ND"],
    [4803,"01/13/2015 18:00","25,7","ND","ND","ND","ND","ND"],
    [4804,"01/13/2015 19:00","20,3","ND","ND","ND","ND","ND"],
    [4805,"01/13/2015 20:00","19,6","ND","ND","ND","ND","ND"],
    [4806,"01/13/2015 21:00","28,8","ND","ND","ND","ND","ND"],
    [4807,"01/13/2015 22:00","13,9","ND","ND","ND","ND","ND"],
    [4808,"01/13/2015 23:00","16,3","ND","ND","ND","ND","ND"],
    [4809,"01/14/2015 00:00","18,4","ND","ND","ND","ND","ND"],
    [4810,"01/14/2015 01:00","43,5","ND","ND","ND","ND","ND"],
    [4811,"01/14/2015 02:00","42,4","ND","ND","ND","ND","ND"],
    [4812,"01/14/2015 03:00","37,2","ND","ND","ND","ND","ND"],
    [4813,"01/14/2015 04:00","48,8","ND","ND","ND","ND","ND"],
    [4814,"01/14/2015 05:00","45,1","ND","ND","ND","ND","ND"],
    [4815,"01/14/2015 06:00","33,5","ND","ND","ND","ND","ND"],
    [4816,"01/14/2015 07:00","42,9","ND","ND","ND","ND","ND"],
    [4817,"01/14/2015 08:00","52","ND","ND","ND","ND","ND"],
    [4818,"01/14/2015 09:00","70,3","ND","ND","ND","ND","ND"],
    [4819,"01/14/2015 10:00","36,9","ND","ND","ND","ND","ND"],
    [4820,"01/14/2015 11:00","20,2","ND","ND","ND","ND","ND"],
    [4821,"01/14/2015 12:00","16,4","ND","ND","ND","ND","ND"],
    [4822,"01/14/2015 13:00","29,1","ND","ND","ND","ND","ND"],
    [4823,"01/14/2015 14:00","20,2","ND","ND","ND","ND","ND"],
    [4824,"01/14/2015 15:00","19,7","ND","ND","ND","ND","ND"],
    [4825,"01/14/2015 16:00","25,1","ND","ND","ND","ND","ND"],
    [4826,"01/14/2015 17:00","28,9","ND","ND","ND","ND","ND"],
    [4827,"01/14/2015 18:00","16,5","ND","ND","ND","ND","ND"],
    [4828,"01/14/2015 19:00","8,1","ND","ND","ND","ND","ND"],
    [4829,"01/14/2015 20:00","12,5","ND","ND","ND","ND","ND"],
    [4830,"01/14/2015 21:00","4,6","ND","ND","ND","ND","ND"],
    [4831,"01/14/2015 22:00","37,7","ND","ND","ND","ND","ND"],
    [4832,"01/14/2015 23:00","36,3","ND","ND","ND","ND","ND"],
    [4833,"01/15/2015 00:00","26,3","ND","ND","ND","ND","ND"],
    [4834,"01/15/2015 01:00","4,3","ND","ND","ND","ND","ND"],
    [4835,"01/15/2015 02:00","26,7","ND","ND","ND","ND","ND"],
    [4836,"01/15/2015 03:00","24,7","ND","ND","ND","ND","ND"],
    [4837,"01/15/2015 04:00","25,2","ND","ND","ND","ND","ND"],
    [4838,"01/15/2015 05:00","8,4","ND","ND","ND","ND","ND"],
    [4839,"01/15/2015 06:00","9,3","ND","ND","ND","ND","ND"],
    [4840,"01/15/2015 07:00","12,2","ND","ND","ND","ND","ND"],
    [4841,"01/15/2015 08:00","27,1","ND","ND","ND","ND","ND"],
    [4842,"01/15/2015 09:00","24,8","ND","ND","ND","ND","ND"],
    [4843,"01/15/2015 10:00","17,2","ND","ND","ND","ND","ND"],
    [4844,"01/15/2015 11:00","16,4","ND","ND","ND","ND","ND"],
    [4845,"01/15/2015 12:00","24,1","ND","ND","ND","ND","ND"],
    [4846,"01/15/2015 13:00","24,1","ND","ND","ND","ND","ND"],
    [4847,"01/15/2015 14:00","55,4","ND","ND","ND","ND","ND"],
    [4848,"01/15/2015 15:00","32,2","ND","ND","ND","ND","ND"],
    [4849,"01/15/2015 16:00","35,4","ND","ND","ND","ND","ND"],
    [4850,"01/15/2015 17:00","38,5","ND","ND","ND","ND","ND"],
    [4851,"01/15/2015 18:00","11,3","ND","ND","ND","ND","ND"],
    [4852,"01/15/2015 19:00","15","ND","ND","ND","ND","ND"],
    [4853,"01/15/2015 20:00","31","ND","ND","ND","ND","ND"],
    [4854,"01/15/2015 21:00","49,7","ND","ND","ND","ND","ND"],
    [4855,"01/15/2015 22:00","48,8","ND","ND","ND","ND","ND"],
    [4856,"01/15/2015 23:00","38","ND","ND","ND","ND","ND"],
    [4857,"01/16/2015 00:00","31,5","ND","ND","ND","ND","ND"],
    [4858,"01/16/2015 01:00","31,2","ND","ND","ND","ND","ND"],
    [4859,"01/16/2015 02:00","29,4","ND","ND","ND","ND","ND"],
    [4860,"01/16/2015 03:00","19,7","ND","ND","ND","ND","ND"],
    [4861,"01/16/2015 04:00","21,9","ND","ND","ND","ND","ND"],
    [4862,"01/16/2015 05:00","19,3","ND","ND","ND","ND","ND"],
    [4863,"01/16/2015 06:00","24,6","ND","ND","ND","ND","ND"],
    [4864,"01/16/2015 07:00","35,3","ND","ND","ND","ND","ND"],
    [4865,"01/16/2015 08:00","58,2","ND","ND","ND","ND","ND"],
    [4866,"01/16/2015 09:00","67,4","ND","ND","ND","ND","ND"],
    [4867,"01/16/2015 10:00","47,5","ND","ND","ND","ND","ND"],
    [4868,"01/16/2015 11:00","38,4","ND","ND","ND","ND","ND"],
    [4869,"01/16/2015 12:00","34,7","ND","ND","ND","ND","ND"],
    [4870,"01/16/2015 13:00","53,3","ND","ND","ND","ND","ND"],
    [4871,"01/16/2015 14:00","53,3","ND","ND","ND","ND","ND"],
    [4872,"01/16/2015 15:00","31,5","ND","ND","ND","ND","ND"],
    [4873,"01/16/2015 16:00","15","ND","ND","ND","ND","ND"],
    [4874,"01/16/2015 17:00","17,7","ND","ND","ND","ND","ND"],
    [4875,"01/16/2015 18:00","12,4","ND","ND","ND","ND","ND"],
    [4876,"01/16/2015 19:00","19,5","ND","ND","ND","ND","ND"],
    [4877,"01/16/2015 20:00","59,5","ND","ND","ND","ND","ND"],
    [4878,"01/16/2015 21:00","45,2","ND","ND","ND","ND","ND"],
    [4879,"01/16/2015 22:00","56,6","ND","ND","ND","ND","ND"],
    [4880,"01/16/2015 23:00","24,2","ND","ND","ND","ND","ND"],
    [4881,"01/17/2015 00:00","11,8","ND","ND","ND","ND","ND"],
    [4882,"01/17/2015 01:00","36,8","ND","ND","ND","ND","ND"],
    [4883,"01/17/2015 02:00","35,6","ND","ND","ND","ND","ND"],
    [4884,"01/17/2015 03:00","34,1","ND","ND","ND","ND","ND"],
    [4885,"01/17/2015 04:00","24,6","ND","ND","ND","ND","ND"],
    [4886,"01/17/2015 05:00","20,7","ND","ND","ND","ND","ND"],
    [4887,"01/17/2015 06:00","21,1","ND","ND","ND","ND","ND"],
    [4888,"01/17/2015 07:00","37,1","ND","ND","ND","ND","ND"],
    [4889,"01/17/2015 08:00","28,5","ND","ND","ND","ND","ND"],
    [4890,"01/17/2015 09:00","48,6","ND","ND","ND","ND","ND"],
    [4891,"01/17/2015 10:00","37,4","ND","ND","ND","ND","ND"],
    [4892,"01/17/2015 11:00","71,8","ND","ND","ND","ND","ND"],
    [4893,"01/17/2015 12:00","35,9","ND","ND","ND","ND","ND"],
    [4894,"01/17/2015 13:00","43,8","ND","ND","ND","ND","ND"],
    [4895,"01/17/2015 14:00","30,1","ND","ND","ND","ND","ND"],
    [4896,"01/17/2015 15:00","11,5","ND","ND","ND","ND","ND"],
    [4897,"01/17/2015 16:00","7,7","ND","ND","ND","ND","ND"],
    [4898,"01/17/2015 17:00","7,8","ND","ND","ND","ND","ND"],
    [4899,"01/17/2015 18:00","13","ND","ND","ND","ND","ND"],
    [4900,"01/17/2015 19:00","23,2","ND","ND","ND","ND","ND"],
    [4901,"01/17/2015 20:00","28,1","ND","ND","ND","ND","ND"],
    [4902,"01/17/2015 21:00","33,9","ND","ND","ND","ND","ND"],
    [4903,"01/17/2015 22:00","25,1","ND","ND","ND","ND","ND"],
    [4904,"01/17/2015 23:00","10,2","ND","ND","ND","ND","ND"],
    [4905,"01/18/2015 00:00","19,9","ND","ND","ND","ND","ND"],
    [4906,"01/18/2015 01:00","2,8","ND","ND","ND","ND","ND"],
    [4907,"01/18/2015 02:00","3,7","ND","ND","ND","ND","ND"],
    [4908,"01/18/2015 03:00","3,6","ND","ND","ND","ND","ND"],
    [4909,"01/18/2015 04:00","5,7","ND","ND","ND","ND","ND"],
    [4910,"01/18/2015 05:00","6,2","ND","ND","ND","ND","ND"],
    [4911,"01/18/2015 06:00","12,4","ND","ND","ND","ND","ND"],
    [4912,"01/18/2015 07:00","12,4","ND","ND","ND","ND","ND"],
    [4913,"01/18/2015 08:00","30,7","ND","ND","ND","ND","ND"],
    [4914,"01/18/2015 09:00","33","ND","ND","ND","ND","ND"],
    [4915,"01/18/2015 10:00","32,3","ND","ND","ND","ND","ND"],
    [4916,"01/18/2015 11:00","29,6","ND","ND","ND","ND","ND"],
    [4917,"01/18/2015 12:00","31","ND","ND","ND","ND","ND"],
    [4918,"01/18/2015 13:00","20,8","ND","ND","ND","ND","ND"],
    [4919,"01/18/2015 14:00","20,4","ND","ND","ND","ND","ND"],
    [4920,"01/18/2015 15:00","16,7","ND","ND","ND","ND","ND"],
    [4921,"01/18/2015 16:00","27,1","ND","ND","ND","ND","ND"],
    [4922,"01/18/2015 17:00","29,1","ND","ND","ND","ND","ND"],
    [4923,"01/18/2015 18:00","43,2","ND","ND","ND","ND","ND"],
    [4924,"01/18/2015 19:00","35,7","ND","ND","ND","ND","ND"],
    [4925,"01/18/2015 20:00","18,5","ND","ND","ND","ND","ND"],
    [4926,"01/18/2015 21:00","21,1","ND","ND","ND","ND","ND"],
    [4927,"01/18/2015 22:00","29,4","ND","ND","ND","ND","ND"],
    [4928,"01/18/2015 23:00","17,9","ND","ND","ND","ND","ND"],
    [4929,"01/19/2015 00:00","30,9","ND","ND","ND","ND","ND"],
    [4930,"01/19/2015 01:00","18,6","ND","ND","ND","ND","ND"],
    [4931,"01/19/2015 02:00","14,3","ND","ND","ND","ND","ND"],
    [4932,"01/19/2015 03:00","10,2","ND","ND","ND","ND","ND"],
    [4933,"01/19/2015 04:00","19,4","ND","ND","ND","ND","ND"],
    [4934,"01/19/2015 05:00","21,3","ND","ND","ND","ND","ND"],
    [4935,"01/19/2015 06:00","29","ND","ND","ND","ND","ND"],
    [4936,"01/19/2015 07:00","49,2","ND","ND","ND","ND","ND"],
    [4937,"01/19/2015 08:00","47,9","ND","ND","ND","ND","ND"],
    [4938,"01/19/2015 09:00","59,8","ND","ND","ND","ND","ND"],
    [4939,"01/19/2015 10:00","47,3","ND","ND","ND","ND","ND"],
    [4940,"01/19/2015 11:00","38,9","ND","ND","ND","ND","ND"],
    [4941,"01/19/2015 12:00","25,7","ND","ND","ND","ND","ND"],
    [4942,"01/19/2015 13:00","31,6","ND","ND","ND","ND","ND"],
    [4943,"01/19/2015 14:00","41,4","ND","ND","ND","ND","ND"],
    [4944,"01/19/2015 15:00","24","ND","ND","ND","ND","ND"],
    [4945,"01/19/2015 16:00","23,2","ND","ND","ND","ND","ND"],
    [4946,"01/19/2015 17:00","32,9","ND","ND","ND","ND","ND"],
    [4947,"01/19/2015 18:00","26,1","ND","ND","ND","ND","ND"],
    [4948,"01/19/2015 19:00","13,8","ND","ND","ND","ND","ND"],
    [4949,"01/19/2015 20:00","22,9","ND","ND","ND","ND","ND"],
    [4950,"01/19/2015 21:00","28,7","ND","ND","ND","ND","ND"],
    [4951,"01/19/2015 22:00","33,1","ND","ND","ND","ND","ND"],
    [4952,"01/19/2015 23:00","34,8","ND","ND","ND","ND","ND"],
    [4953,"01/20/2015 00:00","14,7","ND","ND","ND","ND","ND"],
    [4954,"01/20/2015 01:00","33,3","ND","ND","ND","ND","ND"],
    [4955,"01/20/2015 02:00","26,6","ND","ND","ND","ND","ND"],
    [4956,"01/20/2015 03:00","19,5","ND","ND","ND","ND","ND"],
    [4957,"01/20/2015 04:00","19,8","ND","ND","ND","ND","ND"],
    [4958,"01/20/2015 05:00","21,6","ND","ND","ND","ND","ND"],
    [4959,"01/20/2015 06:00","27,5","ND","ND","ND","ND","ND"],
    [4960,"01/20/2015 07:00","35,6","ND","ND","ND","ND","ND"],
    [4961,"01/20/2015 08:00","50,7","ND","ND","ND","ND","ND"],
    [4962,"01/20/2015 09:00","50,7","ND","ND","ND","ND","ND"],
    [4963,"01/20/2015 10:00","57","ND","ND","ND","ND","ND"],
    [4964,"01/20/2015 11:00","52,3","ND","ND","ND","ND","ND"],
    [4965,"01/20/2015 12:00","42","ND","ND","ND","ND","ND"],
    [4966,"01/20/2015 13:00","37,6","ND","ND","ND","ND","ND"],
    [4967,"01/20/2015 14:00","38,9","ND","ND","ND","ND","ND"],
    [4968,"01/20/2015 15:00","43,2","ND","ND","ND","ND","ND"],
    [4969,"01/20/2015 16:00","14","ND","ND","ND","ND","ND"],
    [4970,"01/20/2015 17:00","7,4","ND","ND","ND","ND","ND"],
    [4971,"01/20/2015 18:00","10,9","ND","ND","ND","ND","ND"],
    [4972,"01/20/2015 19:00","11,3","ND","ND","ND","ND","ND"],
    [4973,"01/20/2015 20:00","11,1","ND","ND","ND","ND","ND"],
    [4974,"01/20/2015 21:00","9,5","ND","ND","ND","ND","ND"],
    [4975,"01/20/2015 22:00","45,1","ND","ND","ND","ND","ND"],
    [4976,"01/20/2015 23:00","23,1","ND","ND","ND","ND","ND"],
    [4977,"01/21/2015 00:00","21,8","ND","ND","ND","ND","ND"],
    [4978,"01/21/2015 01:00","33","ND","ND","ND","ND","ND"],
    [4979,"01/21/2015 02:00","16,9","ND","ND","ND","ND","ND"],
    [4980,"01/21/2015 03:00","13,3","ND","ND","ND","ND","ND"],
    [4981,"01/21/2015 04:00","17,8","ND","ND","ND","ND","ND"],
    [4982,"01/21/2015 05:00","17,9","ND","ND","ND","ND","ND"],
    [4983,"01/21/2015 06:00","25,6","ND","ND","ND","ND","ND"],
    [4984,"01/21/2015 07:00","34","ND","ND","ND","ND","ND"],
    [4985,"01/21/2015 08:00","45","ND","ND","ND","ND","ND"],
    [4986,"01/21/2015 09:00","74,9","ND","ND","ND","ND","ND"],
    [4987,"01/21/2015 10:00","78,1","ND","ND","ND","ND","ND"],
    [4988,"01/21/2015 11:00","47,3","ND","ND","ND","ND","ND"],
    [4989,"01/21/2015 12:00","40,7","ND","ND","ND","ND","ND"],
    [4990,"01/21/2015 13:00","40,8","ND","ND","ND","ND","ND"],
    [4991,"01/21/2015 14:00","37,4","ND","ND","ND","ND","ND"],
    [4992,"01/21/2015 15:00","40,8","ND","ND","ND","ND","ND"],
    [4993,"01/21/2015 16:00","10,3","ND","ND","ND","ND","ND"],
    [4994,"01/21/2015 17:00","17,3","ND","ND","ND","ND","ND"],
    [4995,"01/21/2015 18:00","20,4","ND","ND","ND","ND","ND"],
    [4996,"01/21/2015 19:00","12,8","ND","ND","ND","ND","ND"],
    [4997,"01/21/2015 20:00","9,1","ND","ND","ND","ND","ND"],
    [4998,"01/21/2015 21:00","22,1","ND","ND","ND","ND","ND"],
    [4999,"01/21/2015 22:00","47,5","ND","ND","ND","ND","ND"],
    [5000,"01/21/2015 23:00","34,5","ND","ND","ND","ND","ND"],
    [5001,"01/22/2015 00:00","17,1","ND","ND","ND","ND","ND"],
    [5002,"01/22/2015 01:00","21","ND","ND","ND","ND","ND"],
    [5003,"01/22/2015 02:00","24,5","ND","ND","ND","ND","ND"],
    [5004,"01/22/2015 03:00","10,1","ND","ND","ND","ND","ND"],
    [5005,"01/22/2015 04:00","28,9","ND","ND","ND","ND","ND"],
    [5006,"01/22/2015 05:00","12,7","ND","ND","ND","ND","ND"],
    [5007,"01/22/2015 06:00","14,1","ND","ND","ND","ND","ND"],
    [5008,"01/22/2015 07:00","10,1","ND","ND","ND","ND","ND"],
    [5009,"01/22/2015 08:00","10,1","ND","ND","ND","ND","ND"],
    [5010,"01/22/2015 09:00","15,3","ND","ND","ND","ND","ND"],
    [5011,"01/22/2015 10:00","15,8","ND","ND","ND","ND","ND"],
    [5012,"01/22/2015 11:00","10,8","ND","ND","ND","ND","ND"],
    [5013,"01/22/2015 12:00","10,8","ND","ND","ND","ND","ND"],
    [5014,"01/22/2015 13:00","36,9","ND","ND","ND","ND","ND"],
    [5015,"01/22/2015 14:00","37,6","ND","ND","ND","ND","ND"],
    [5016,"01/22/2015 15:00","32,5","ND","ND","ND","ND","ND"],
    [5017,"01/22/2015 16:00","25,3","ND","ND","ND","ND","ND"],
    [5018,"01/22/2015 17:00","11,3","ND","ND","ND","ND","ND"],
    [5019,"01/22/2015 18:00","10,9","ND","ND","ND","ND","ND"],
    [5020,"01/22/2015 19:00","33,5","ND","ND","ND","ND","ND"],
    [5021,"01/22/2015 20:00","12,8","ND","ND","ND","ND","ND"],
    [5022,"01/22/2015 21:00","31,1","ND","ND","ND","ND","ND"],
    [5023,"01/22/2015 22:00","34,2","ND","ND","ND","ND","ND"],
    [5024,"01/22/2015 23:00","28,7","ND","ND","ND","ND","ND"],
    [5025,"01/23/2015 00:00","33,9","ND","ND","ND","ND","ND"],
    [5026,"01/23/2015 01:00","16,3","ND","ND","ND","ND","ND"],
    [5027,"01/23/2015 02:00","17,9","ND","ND","ND","ND","ND"],
    [5028,"01/23/2015 03:00","32,9","ND","ND","ND","ND","ND"],
    [5029,"01/23/2015 04:00","22,6","ND","ND","ND","ND","ND"],
    [5030,"01/23/2015 05:00","21,8","ND","ND","ND","ND","ND"],
    [5031,"01/23/2015 06:00","33,4","ND","ND","ND","ND","ND"],
    [5032,"01/23/2015 07:00","31,7","ND","ND","ND","ND","ND"],
    [5033,"01/23/2015 08:00","22,8","ND","ND","ND","ND","ND"],
    [5034,"01/23/2015 09:00","30,9","ND","ND","ND","ND","ND"],
    [5035,"01/23/2015 10:00","65,8","ND","ND","ND","ND","ND"],
    [5036,"01/23/2015 11:00","38,9","ND","ND","ND","ND","ND"],
    [5037,"01/23/2015 12:00","37,5","ND","ND","ND","ND","ND"],
    [5038,"01/23/2015 13:00","16,3","ND","ND","ND","ND","ND"],
    [5039,"01/23/2015 14:00","18,8","ND","ND","ND","ND","ND"],
    [5040,"01/23/2015 15:00","27,5","ND","ND","ND","ND","ND"],
    [5041,"01/23/2015 16:00","20,3","ND","ND","ND","ND","ND"],
    [5042,"01/23/2015 17:00","27,4","ND","ND","ND","ND","ND"],
    [5043,"01/23/2015 18:00","28,8","ND","ND","ND","ND","ND"],
    [5044,"01/23/2015 19:00","29,5","ND","ND","ND","ND","ND"],
    [5045,"01/23/2015 20:00","35","ND","ND","ND","ND","ND"],
    [5046,"01/23/2015 21:00","26,9","ND","ND","ND","ND","ND"],
    [5047,"01/23/2015 22:00","19,8","ND","ND","ND","ND","ND"],
    [5048,"01/23/2015 23:00","52,2","ND","ND","ND","ND","ND"],
    [5049,"01/24/2015 00:00","52","ND","ND","ND","ND","ND"],
    [5050,"01/24/2015 01:00","50,2","ND","ND","ND","ND","ND"],
    [5051,"01/24/2015 02:00","21,9","ND","ND","ND","ND","ND"],
    [5052,"01/24/2015 03:00","10,9","ND","ND","ND","ND","ND"],
    [5053,"01/24/2015 04:00","23,9","ND","ND","ND","ND","ND"],
    [5054,"01/24/2015 05:00","16","ND","ND","ND","ND","ND"],
    [5055,"01/24/2015 06:00","29,1","ND","ND","ND","ND","ND"],
    [5056,"01/24/2015 07:00","34,8","ND","ND","ND","ND","ND"],
    [5057,"01/24/2015 08:00","51,1","ND","ND","ND","ND","ND"],
    [5058,"01/24/2015 09:00","59,8","ND","ND","ND","ND","ND"],
    [5059,"01/24/2015 10:00","45,3","ND","ND","ND","ND","ND"],
    [5060,"01/24/2015 11:00","9,7","ND","ND","ND","ND","ND"],
    [5061,"01/24/2015 12:00","15,9","ND","ND","ND","ND","ND"],
    [5062,"01/24/2015 13:00","11,3","ND","ND","ND","ND","ND"],
    [5063,"01/24/2015 14:00","19,4","ND","ND","ND","ND","ND"],
    [5064,"01/24/2015 15:00","26,8","ND","ND","ND","ND","ND"],
    [5065,"01/24/2015 16:00","26,6","ND","ND","ND","ND","ND"],
    [5066,"01/24/2015 17:00","20,5","ND","ND","ND","ND","ND"],
    [5067,"01/24/2015 18:00","19,6","ND","ND","ND","ND","ND"],
    [5068,"01/24/2015 19:00","27,2","ND","ND","ND","ND","ND"],
    [5069,"01/24/2015 20:00","21","ND","ND","ND","ND","ND"],
    [5070,"01/24/2015 21:00","49,2","ND","ND","ND","ND","ND"],
    [5071,"01/24/2015 22:00","43","ND","ND","ND","ND","ND"],
    [5072,"01/24/2015 23:00","31,7","ND","ND","ND","ND","ND"],
    [5073,"01/25/2015 00:00","50,3","ND","ND","ND","ND","ND"],
    [5074,"01/25/2015 01:00","44,2","ND","ND","ND","ND","ND"],
    [5075,"01/25/2015 02:00","40,9","ND","ND","ND","ND","ND"],
    [5076,"01/25/2015 03:00","41,6","ND","ND","ND","ND","ND"],
    [5077,"01/25/2015 04:00","40,3","ND","ND","ND","ND","ND"],
    [5078,"01/25/2015 05:00","35,5","ND","ND","ND","ND","ND"],
    [5079,"01/25/2015 06:00","41,4","ND","ND","ND","ND","ND"],
    [5080,"01/25/2015 07:00","43,9","ND","ND","ND","ND","ND"],
    [5081,"01/25/2015 08:00","51,6","ND","ND","ND","ND","ND"],
    [5082,"01/25/2015 09:00","44,6","ND","ND","ND","ND","ND"],
    [5083,"01/25/2015 10:00","40,9","ND","ND","ND","ND","ND"],
    [5084,"01/25/2015 11:00","33,6","ND","ND","ND","ND","ND"],
    [5085,"01/25/2015 12:00","33","ND","ND","ND","ND","ND"],
    [5086,"01/25/2015 13:00","26,1","ND","ND","ND","ND","ND"],
    [5087,"01/25/2015 14:00","33,1","ND","ND","ND","ND","ND"],
    [5088,"01/25/2015 15:00","41,7","ND","ND","ND","ND","ND"],
    [5089,"01/25/2015 16:00","37","ND","ND","ND","ND","ND"],
    [5090,"01/25/2015 17:00","13,1","ND","ND","ND","ND","ND"],
    [5091,"01/25/2015 18:00","12,4","ND","ND","ND","ND","ND"],
    [5092,"01/25/2015 19:00","17,4","ND","ND","ND","ND","ND"],
    [5093,"01/25/2015 20:00","15,6","ND","ND","ND","ND","ND"],
    [5094,"01/25/2015 21:00","17","ND","ND","ND","ND","ND"],
    [5095,"01/25/2015 22:00","26,6","ND","ND","ND","ND","ND"],
    [5096,"01/25/2015 23:00","63,7","ND","ND","ND","ND","ND"],
    [5097,"01/26/2015 00:00","36,5","ND","ND","ND","ND","ND"],
    [5098,"01/26/2015 01:00","34,8","ND","ND","ND","ND","ND"],
    [5099,"01/26/2015 02:00","28,5","ND","ND","ND","ND","ND"],
    [5100,"01/26/2015 03:00","45,5","ND","ND","ND","ND","ND"],
    [5101,"01/26/2015 04:00","24,2","ND","ND","ND","ND","ND"],
    [5102,"01/26/2015 05:00","25,4","ND","ND","ND","ND","ND"],
    [5103,"01/26/2015 06:00","26","ND","ND","ND","ND","ND"],
    [5104,"01/26/2015 07:00","30,9","ND","ND","ND","ND","ND"],
    [5105,"01/26/2015 08:00","51,6","ND","ND","ND","ND","ND"],
    [5106,"01/26/2015 09:00","44,6","ND","ND","ND","ND","ND"],
    [5107,"01/26/2015 10:00","43,3","ND","ND","ND","ND","ND"],
    [5108,"01/26/2015 11:00","53,5","ND","ND","ND","ND","ND"],
    [5109,"01/26/2015 12:00","38,7","ND","ND","ND","ND","ND"],
    [5110,"01/26/2015 13:00","41,3","ND","ND","ND","ND","ND"],
    [5111,"01/26/2015 14:00","42,2","ND","ND","ND","ND","ND"],
    [5112,"01/26/2015 15:00","20,7","ND","ND","ND","ND","ND"],
    [5113,"01/26/2015 16:00","ND","ND","ND","ND","ND","ND"],
    [5114,"01/26/2015 17:00","ND","ND","ND","ND","ND","ND"],
    [5115,"01/26/2015 18:00","ND","ND","ND","ND","ND","ND"],
    [5116,"01/26/2015 19:00","21,8","ND","ND","ND","ND","ND"],
    [5117,"01/26/2015 20:00","27,6","ND","ND","ND","ND","ND"],
    [5118,"01/26/2015 21:00","15,5","ND","ND","ND","ND","ND"],
    [5119,"01/26/2015 22:00","36,6","ND","ND","ND","ND","ND"],
    [5120,"01/26/2015 23:00","33,8","ND","ND","ND","ND","ND"],
    [5121,"01/27/2015 00:00","47,2","ND","ND","ND","ND","ND"],
    [5122,"01/27/2015 01:00","31","ND","ND","ND","ND","ND"],
    [5123,"01/27/2015 02:00","26,1","ND","ND","ND","ND","ND"],
    [5124,"01/27/2015 03:00","34,6","ND","ND","ND","ND","ND"],
    [5125,"01/27/2015 04:00","26,2","ND","ND","ND","ND","ND"],
    [5126,"01/27/2015 05:00","28,7","ND","ND","ND","ND","ND"],
    [5127,"01/27/2015 06:00","32,4","ND","ND","ND","ND","ND"],
    [5128,"01/27/2015 07:00","39,9","ND","ND","ND","ND","ND"],
    [5129,"01/27/2015 08:00","59,1","ND","ND","ND","ND","ND"],
    [5130,"01/27/2015 09:00","55,9","ND","ND","ND","ND","ND"],
    [5131,"01/27/2015 10:00","73,5","ND","ND","ND","ND","ND"],
    [5132,"01/27/2015 11:00","58,3","ND","ND","ND","ND","ND"],
    [5133,"01/27/2015 12:00","44,6","ND","ND","ND","ND","ND"],
    [5134,"01/27/2015 13:00","46,5","ND","ND","ND","ND","ND"],
    [5135,"01/27/2015 14:00","20,3","ND","ND","ND","ND","ND"],
    [5136,"01/27/2015 15:00","9","ND","ND","ND","ND","ND"],
    [5137,"01/27/2015 16:00","8,1","ND","ND","ND","ND","ND"],
    [5138,"01/27/2015 17:00","11,1","ND","ND","ND","ND","ND"],
    [5139,"01/27/2015 18:00","24,6","ND","ND","ND","ND","ND"],
    [5140,"01/27/2015 19:00","51,4","ND","ND","ND","ND","ND"],
    [5141,"01/27/2015 20:00","48,5","ND","ND","ND","ND","ND"],
    [5142,"01/27/2015 21:00","52,8","ND","ND","ND","ND","ND"],
    [5143,"01/27/2015 22:00","44,9","ND","ND","ND","ND","ND"],
    [5144,"01/27/2015 23:00","58,7","ND","ND","ND","ND","ND"],
    [5145,"01/28/2015 00:00","45,2","ND","ND","ND","ND","ND"],
    [5146,"01/28/2015 01:00","42,2","ND","ND","ND","ND","ND"],
    [5147,"01/28/2015 02:00","34,3","ND","ND","ND","ND","ND"],
    [5148,"01/28/2015 03:00","29,9","ND","ND","ND","ND","ND"],
    [5149,"01/28/2015 04:00","37,8","ND","ND","ND","ND","ND"],
    [5150,"01/28/2015 05:00","40,2","ND","ND","ND","ND","ND"],
    [5151,"01/28/2015 06:00","42,3","ND","ND","ND","ND","ND"],
    [5152,"01/28/2015 07:00","50,1","ND","ND","ND","ND","ND"],
    [5153,"01/28/2015 08:00","50,1","ND","ND","ND","ND","ND"],
    [5154,"01/28/2015 09:00","78,7","ND","ND","ND","ND","ND"],
    [5155,"01/28/2015 10:00","70,4","ND","ND","ND","ND","ND"],
    [5156,"01/28/2015 11:00","64,5","ND","ND","ND","ND","ND"],
    [5157,"01/28/2015 12:00","48,3","ND","ND","ND","ND","ND"],
    [5158,"01/28/2015 13:00","72,7","ND","ND","ND","ND","ND"],
    [5159,"01/28/2015 14:00","73,8","ND","ND","ND","ND","ND"],
    [5160,"01/28/2015 15:00","57,7","ND","ND","ND","ND","ND"],
    [5161,"01/28/2015 16:00","57,8","ND","ND","ND","ND","ND"],
    [5162,"01/28/2015 17:00","47,8","ND","ND","ND","ND","ND"],
    [5163,"01/28/2015 18:00","24","ND","ND","ND","ND","ND"],
    [5164,"01/28/2015 19:00","19","ND","ND","ND","ND","ND"],
    [5165,"01/28/2015 20:00","20,8","ND","ND","ND","ND","ND"],
    [5166,"01/28/2015 21:00","17,1","ND","ND","ND","ND","ND"],
    [5167,"01/28/2015 22:00","14,8","ND","ND","ND","ND","ND"],
    [5168,"01/28/2015 23:00","45,8","ND","ND","ND","ND","ND"],
    [5169,"01/29/2015 00:00","44,2","ND","ND","ND","ND","ND"],
    [5170,"01/29/2015 01:00","39,4","ND","ND","ND","ND","ND"],
    [5171,"01/29/2015 02:00","33,8","ND","ND","ND","ND","ND"],
    [5172,"01/29/2015 03:00","37","ND","ND","ND","ND","ND"],
    [5173,"01/29/2015 04:00","30,8","ND","ND","ND","ND","ND"],
    [5174,"01/29/2015 05:00","32,2","ND","ND","ND","ND","ND"],
    [5175,"01/29/2015 06:00","38,6","ND","ND","ND","ND","ND"],
    [5176,"01/29/2015 07:00","48,2","ND","ND","ND","ND","ND"],
    [5177,"01/29/2015 08:00","79","ND","ND","ND","ND","ND"],
    [5178,"01/29/2015 09:00","90,6","ND","ND","ND","ND","ND"],
    [5179,"01/29/2015 10:00","49,3","ND","ND","ND","ND","ND"],
    [5180,"01/29/2015 11:00","36,9","ND","ND","ND","ND","ND"],
    [5181,"01/29/2015 12:00","40,6","ND","ND","ND","ND","ND"],
    [5182,"01/29/2015 13:00","56,2","ND","ND","ND","ND","ND"],
    [5183,"01/29/2015 14:00","55","ND","ND","ND","ND","ND"],
    [5184,"01/29/2015 15:00","63,3","ND","ND","ND","ND","ND"],
    [5185,"01/29/2015 16:00","52,3","ND","ND","ND","ND","ND"],
    [5186,"01/29/2015 17:00","28,4","ND","ND","ND","ND","ND"],
    [5187,"01/29/2015 18:00","28,5","ND","ND","ND","ND","ND"],
    [5188,"01/29/2015 19:00","23,6","ND","ND","ND","ND","ND"],
    [5189,"01/29/2015 20:00","19,3","ND","ND","ND","ND","ND"],
    [5190,"01/29/2015 21:00","11,9","ND","ND","ND","ND","ND"],
    [5191,"01/29/2015 22:00","13,1","ND","ND","ND","ND","ND"],
    [5192,"01/29/2015 23:00","43,3","ND","ND","ND","ND","ND"],
    [5193,"01/30/2015 00:00","26,9","ND","ND","ND","ND","ND"],
    [5194,"01/30/2015 01:00","34,8","ND","ND","ND","ND","ND"],
    [5195,"01/30/2015 02:00","16,6","ND","ND","ND","ND","ND"],
    [5196,"01/30/2015 03:00","22,7","ND","ND","ND","ND","ND"],
    [5197,"01/30/2015 04:00","23,5","ND","ND","ND","ND","ND"],
    [5198,"01/30/2015 05:00","25,2","ND","ND","ND","ND","ND"],
    [5199,"01/30/2015 06:00","24,8","ND","ND","ND","ND","ND"],
    [5200,"01/30/2015 07:00","40,5","ND","ND","ND","ND","ND"],
    [5201,"01/30/2015 08:00","48,1","ND","ND","ND","ND","ND"],
    [5202,"01/30/2015 09:00","48,9","ND","ND","ND","ND","ND"],
    [5203,"01/30/2015 10:00","44","ND","ND","ND","ND","ND"],
    [5204,"01/30/2015 11:00","28,1","ND","ND","ND","ND","ND"],
    [5205,"01/30/2015 12:00","10,1","ND","ND","ND","ND","ND"],
    [5206,"01/30/2015 13:00","30,1","ND","ND","ND","ND","ND"],
    [5207,"01/30/2015 14:00","30,1","ND","ND","ND","ND","ND"],
    [5208,"01/30/2015 15:00","26","ND","ND","ND","ND","ND"],
    [5209,"01/30/2015 16:00","30,4","ND","ND","ND","ND","ND"],
    [5210,"01/30/2015 17:00","19,6","ND","ND","ND","ND","ND"],
    [5211,"01/30/2015 18:00","13,2","ND","ND","ND","ND","ND"],
    [5212,"01/30/2015 19:00","14,8","ND","ND","ND","ND","ND"],
    [5213,"01/30/2015 20:00","13,7","ND","ND","ND","ND","ND"],
    [5214,"01/30/2015 21:00","9,9","ND","ND","ND","ND","ND"],
    [5215,"01/30/2015 22:00","32,8","ND","ND","ND","ND","ND"],
    [5216,"01/30/2015 23:00","21,8","ND","ND","ND","ND","ND"],
    [5217,"01/31/2015 00:00","47,8","ND","ND","ND","ND","ND"],
    [5218,"01/31/2015 01:00","22,6","ND","ND","ND","ND","ND"],
    [5219,"01/31/2015 02:00","16,3","ND","ND","ND","ND","ND"],
    [5220,"01/31/2015 03:00","15,9","ND","ND","ND","ND","ND"],
    [5221,"01/31/2015 04:00","18,8","ND","ND","ND","ND","ND"],
    [5222,"01/31/2015 05:00","24","ND","ND","ND","ND","ND"],
    [5223,"01/31/2015 06:00","21,2","ND","ND","ND","ND","ND"],
    [5224,"01/31/2015 07:00","21,6","ND","ND","ND","ND","ND"],
    [5225,"01/31/2015 08:00","30,4","ND","ND","ND","ND","ND"],
    [5226,"01/31/2015 09:00","28,4","ND","ND","ND","ND","ND"],
    [5227,"01/31/2015 10:00","27,2","ND","ND","ND","ND","ND"],
    [5228,"01/31/2015 11:00","34,4","ND","ND","ND","ND","ND"],
    [5229,"01/31/2015 12:00","22","ND","ND","ND","ND","ND"],
    [5230,"01/31/2015 13:00","20,3","ND","ND","ND","ND","ND"],
    [5231,"01/31/2015 14:00","29,3","ND","ND","ND","ND","ND"],
    [5232,"01/31/2015 15:00","30,9","ND","ND","ND","ND","ND"],
    [5233,"01/31/2015 16:00","28,8","ND","ND","ND","ND","ND"],
    [5234,"01/31/2015 17:00","15,2","ND","ND","ND","ND","ND"],
    [5235,"01/31/2015 18:00","10,5","ND","ND","ND","ND","ND"],
    [5236,"01/31/2015 19:00","11","ND","ND","ND","ND","ND"],
    [5237,"01/31/2015 20:00","16,1","ND","ND","ND","ND","ND"],
    [5238,"01/31/2015 21:00","10,7","ND","ND","ND","ND","ND"],
    [5239,"01/31/2015 22:00","25,5","ND","ND","ND","ND","ND"],
    [5240,"01/31/2015 23:00","23,7","ND","ND","ND","ND","ND"],
    [5241,"42006","34,6","ND","ND","ND","ND","ND"],
    [5242,"42006,04167","36","ND","ND","ND","ND","ND"],
    [5243,"42006,08333","41,4","ND","ND","ND","ND","ND"],
    [5244,"42006,125","41,7","ND","ND","ND","ND","ND"],
    [5245,"42006,16667","24,5","ND","ND","ND","ND","ND"],
    [5246,"42006,20833","40,5","ND","ND","ND","ND","ND"],
    [5247,"42006,25","31,5","ND","ND","ND","ND","ND"],
    [5248,"42006,29167","31,5","ND","ND","ND","ND","ND"],
    [5249,"42006,33333","34","ND","ND","ND","ND","ND"],
    [5250,"42006,375","29,3","ND","ND","ND","ND","ND"],
    [5251,"42006,41667","26,5","ND","ND","ND","ND","ND"],
    [5252,"42006,45833","24,6","ND","ND","ND","ND","ND"],
    [5253,"42006,5","24,6","ND","ND","ND","ND","ND"],
    [5254,"42006,54167","27,7","ND","ND","ND","ND","ND"],
    [5255,"42006,58333","30,4","ND","ND","ND","ND","ND"],
    [5256,"42006,625","31","ND","ND","ND","ND","ND"],
    [5257,"42006,66667","33,3","ND","ND","ND","ND","ND"],
    [5258,"42006,70833","15,5","ND","ND","ND","ND","ND"],
    [5259,"42006,75","13,1","ND","ND","ND","ND","ND"],
    [5260,"42006,79167","15,9","ND","ND","ND","ND","ND"],
    [5261,"42006,83333","18,5","ND","ND","ND","ND","ND"],
    [5262,"42006,875","14,6","ND","ND","ND","ND","ND"],
    [5263,"42006,91667","14,6","ND","ND","ND","ND","ND"],
    [5264,"42006,95833","12","ND","ND","ND","ND","ND"],
    [5265,"42037","16,5","ND","ND","ND","ND","ND"],
    [5266,"42037,04167","38,7","ND","ND","ND","ND","ND"],
    [5267,"42037,08333","35,2","ND","ND","ND","ND","ND"],
    [5268,"42037,125","33,5","ND","ND","ND","ND","ND"],
    [5269,"42037,16667","29,6","ND","ND","ND","ND","ND"],
    [5270,"42037,20833","26,4","ND","ND","ND","ND","ND"],
    [5271,"42037,25","26,4","ND","ND","ND","ND","ND"],
    [5272,"42037,29167","43,4","ND","ND","ND","ND","ND"],
    [5273,"42037,33333","59,1","ND","ND","ND","ND","ND"],
    [5274,"42037,375","62,6","ND","ND","ND","ND","ND"],
    [5275,"42037,41667","58,8","ND","ND","ND","ND","ND"],
    [5276,"42037,45833","39,6","ND","ND","ND","ND","ND"],
    [5277,"42037,5","28,8","ND","ND","ND","ND","ND"],
    [5278,"42037,54167","35,6","ND","ND","ND","ND","ND"],
    [5279,"42037,58333","45,2","ND","ND","ND","ND","ND"],
    [5280,"42037,625","53,5","ND","ND","ND","ND","ND"],
    [5281,"42037,66667","42,2","ND","ND","ND","ND","ND"],
    [5282,"42037,70833","36,9","ND","ND","ND","ND","ND"],
    [5283,"42037,75","30,4","ND","ND","ND","ND","ND"],
    [5284,"42037,79167","20,4","ND","ND","ND","ND","ND"],
    [5285,"42037,83333","16,2","ND","ND","ND","ND","ND"],
    [5286,"42037,875","9,4","ND","ND","ND","ND","ND"],
    [5287,"42037,91667","16","ND","ND","ND","ND","ND"],
    [5288,"42037,95833","36,2","ND","ND","ND","ND","ND"],
    [5289,"42065","42,8","ND","ND","ND","ND","ND"],
    [5290,"42065,04167","17,4","ND","ND","ND","ND","ND"],
    [5291,"42065,08333","24,8","ND","ND","ND","ND","ND"],
    [5292,"42065,125","32,1","ND","ND","ND","ND","ND"],
    [5293,"42065,16667","30,5","ND","ND","ND","ND","ND"],
    [5294,"42065,20833","18,6","ND","ND","ND","ND","ND"],
    [5295,"42065,25","11,4","ND","ND","ND","ND","ND"],
    [5296,"42065,29167","30,1","ND","ND","ND","ND","ND"],
    [5297,"42065,33333","58,4","ND","ND","ND","ND","ND"],
    [5298,"42065,375","59,4","ND","ND","ND","ND","ND"],
    [5299,"42065,41667","59,2","ND","ND","ND","ND","ND"],
    [5300,"42065,45833","57,2","ND","ND","ND","ND","ND"],
    [5301,"42065,5","13","ND","ND","ND","ND","ND"],
    [5302,"42065,54167","66,6","ND","ND","ND","ND","ND"],
    [5303,"42065,58333","50,5","ND","ND","ND","ND","ND"],
    [5304,"42065,625","44,9","ND","ND","ND","ND","ND"],
    [5305,"42065,66667","38,7","ND","ND","ND","ND","ND"],
    [5306,"42065,70833","33,7","ND","ND","ND","ND","ND"],
    [5307,"42065,75","23,7","ND","ND","ND","ND","ND"],
    [5308,"42065,79167","23","ND","ND","ND","ND","ND"],
    [5309,"42065,83333","14","ND","ND","ND","ND","ND"],
    [5310,"42065,875","13,3","ND","ND","ND","ND","ND"],
    [5311,"42065,91667","10,4","ND","ND","ND","ND","ND"],
    [5312,"42065,95833","28,2","ND","ND","ND","ND","ND"],
    [5313,"42096","65,4","ND","ND","ND","ND","ND"],
    [5314,"42096,04167","34,1","ND","ND","ND","ND","ND"],
    [5315,"42096,08333","32,7","ND","ND","ND","ND","ND"],
    [5316,"42096,125","22,4","ND","ND","ND","ND","ND"],
    [5317,"42096,16667","39,2","ND","ND","ND","ND","ND"],
    [5318,"42096,20833","29,7","ND","ND","ND","ND","ND"],
    [5319,"42096,25","30,2","ND","ND","ND","ND","ND"],
    [5320,"42096,29167","44,7","ND","ND","ND","ND","ND"],
    [5321,"42096,33333","55,6","ND","ND","ND","ND","ND"],
    [5322,"42096,375","59,3","ND","ND","ND","ND","ND"],
    [5323,"42096,41667","67,9","ND","ND","ND","ND","ND"],
    [5324,"42096,45833","59,1","ND","ND","ND","ND","ND"],
    [5325,"42096,5","40,2","ND","ND","ND","ND","ND"],
    [5326,"42096,54167","38,5","ND","ND","ND","ND","ND"],
    [5327,"42096,58333","40,3","ND","ND","ND","ND","ND"],
    [5328,"42096,625","38,5","ND","ND","ND","ND","ND"],
    [5329,"42096,66667","36,1","ND","ND","ND","ND","ND"],
    [5330,"42096,70833","37,2","ND","ND","ND","ND","ND"],
    [5331,"42096,75","27","ND","ND","ND","ND","ND"],
    [5332,"42096,79167","20,3","ND","ND","ND","ND","ND"],
    [5333,"42096,83333","18,6","ND","ND","ND","ND","ND"],
    [5334,"42096,875","17,5","ND","ND","ND","ND","ND"],
    [5335,"42096,91667","14","ND","ND","ND","ND","ND"],
    [5336,"42096,95833","46,7","ND","ND","ND","ND","ND"],
    [5337,"42126","35,1","ND","ND","ND","ND","ND"],
    [5338,"42126,04167","53,7","ND","ND","ND","ND","ND"],
    [5339,"42126,08333","33","ND","ND","ND","ND","ND"],
    [5340,"42126,125","20,9","ND","ND","ND","ND","ND"],
    [5341,"42126,16667","33,3","ND","ND","ND","ND","ND"],
    [5342,"42126,20833","32,6","ND","ND","ND","ND","ND"],
    [5343,"42126,25","30,8","ND","ND","ND","ND","ND"],
    [5344,"42126,29167","41,3","ND","ND","ND","ND","ND"],
    [5345,"42126,33333","72,9","ND","ND","ND","ND","ND"],
    [5346,"42126,375","78,6","ND","ND","ND","ND","ND"],
    [5347,"42126,41667","66,6","ND","ND","ND","ND","ND"],
    [5348,"42126,45833","67,3","ND","ND","ND","ND","ND"],
    [5349,"42126,5","106,5","ND","ND","ND","ND","ND"],
    [5350,"42126,54167","113","ND","ND","ND","ND","ND"],
    [5351,"42126,58333","50,6","ND","ND","ND","ND","ND"],
    [5352,"42126,625","7","ND","ND","ND","ND","ND"],
    [5353,"42126,66667","15","ND","ND","ND","ND","ND"],
    [5354,"42126,70833","11,2","ND","ND","ND","ND","ND"],
    [5355,"42126,75","10,8","ND","ND","ND","ND","ND"],
    [5356,"42126,79167","12,2","ND","ND","ND","ND","ND"],
    [5357,"42126,83333","22,9","ND","ND","ND","ND","ND"],
    [5358,"42126,875","10,6","ND","ND","ND","ND","ND"],
    [5359,"42126,91667","16,1","ND","ND","ND","ND","ND"],
    [5360,"42126,95833","25,8","ND","ND","ND","ND","ND"],
    [5361,"42157","53,7","ND","ND","ND","ND","ND"],
    [5362,"42157,04167","49,2","ND","ND","ND","ND","ND"],
    [5363,"42157,08333","37,6","ND","ND","ND","ND","ND"],
    [5364,"42157,125","36,6","ND","ND","ND","ND","ND"],
    [5365,"42157,16667","31,6","ND","ND","ND","ND","ND"],
    [5366,"42157,20833","30,2","ND","ND","ND","ND","ND"],
    [5367,"42157,25","33,5","ND","ND","ND","ND","ND"],
    [5368,"42157,29167","41,4","ND","ND","ND","ND","ND"],
    [5369,"42157,33333","48,7","ND","ND","ND","ND","ND"],
    [5370,"42157,375","48,1","ND","ND","ND","ND","ND"],
    [5371,"42157,41667","44,7","ND","ND","ND","ND","ND"],
    [5372,"42157,45833","35,6","ND","ND","ND","ND","ND"],
    [5373,"42157,5","27,7","ND","ND","ND","ND","ND"],
    [5374,"42157,54167","29,9","ND","ND","ND","ND","ND"],
    [5375,"42157,58333","32,2","ND","ND","ND","ND","ND"],
    [5376,"42157,625","37,1","ND","ND","ND","ND","ND"],
    [5377,"42157,66667","60","ND","ND","ND","ND","ND"],
    [5378,"42157,70833","60,4","ND","ND","ND","ND","ND"],
    [5379,"42157,75","56,1","ND","ND","ND","ND","ND"],
    [5380,"42157,79167","78,2","ND","ND","ND","ND","ND"],
    [5381,"42157,83333","67,5","ND","ND","ND","ND","ND"],
    [5382,"42157,875","25,2","ND","ND","ND","ND","ND"],
    [5383,"42157,91667","67","ND","ND","ND","ND","ND"],
    [5384,"42157,95833","55","ND","ND","ND","ND","ND"],
    [5385,"42187","36,2","ND","ND","ND","ND","ND"],
    [5386,"42187,04167","43,4","ND","ND","ND","ND","ND"],
    [5387,"42187,08333","40,4","ND","ND","ND","ND","ND"],
    [5388,"42187,125","28,9","ND","ND","ND","ND","ND"],
    [5389,"42187,16667","26,6","ND","ND","ND","ND","ND"],
    [5390,"42187,20833","27,2","ND","ND","ND","ND","ND"],
    [5391,"42187,25","24,8","ND","ND","ND","ND","ND"],
    [5392,"42187,29167","27,4","ND","ND","ND","ND","ND"],
    [5393,"42187,33333","18,9","ND","ND","ND","ND","ND"],
    [5394,"42187,375","15,2","ND","ND","ND","ND","ND"],
    [5395,"42187,41667","15","ND","ND","ND","ND","ND"],
    [5396,"42187,45833","20","ND","ND","ND","ND","ND"],
    [5397,"42187,5","21,7","ND","ND","ND","ND","ND"],
    [5398,"42187,54167","20,2","ND","ND","ND","ND","ND"],
    [5399,"42187,58333","22,4","ND","ND","ND","ND","ND"],
    [5400,"42187,625","42,4","ND","ND","ND","ND","ND"],
    [5401,"42187,66667","10,9","ND","ND","ND","ND","ND"],
    [5402,"42187,70833","19,1","ND","ND","ND","ND","ND"],
    [5403,"42187,75","21,6","ND","ND","ND","ND","ND"],
    [5404,"42187,79167","39,3","ND","ND","ND","ND","ND"],
    [5405,"42187,83333","43,4","ND","ND","ND","ND","ND"],
    [5406,"42187,875","45,7","ND","ND","ND","ND","ND"],
    [5407,"42187,91667","47,3","ND","ND","ND","ND","ND"],
    [5408,"42187,95833","52,1","ND","ND","ND","ND","ND"],
    [5409,"42218","15,2","ND","ND","ND","ND","ND"],
    [5410,"42218,04167","38,6","ND","ND","ND","ND","ND"],
    [5411,"42218,08333","30,9","ND","ND","ND","ND","ND"],
    [5412,"42218,125","39,3","ND","ND","ND","ND","ND"],
    [5413,"42218,16667","38,5","ND","ND","ND","ND","ND"],
    [5414,"42218,20833","16,8","ND","ND","ND","ND","ND"],
    [5415,"42218,25","16,4","ND","ND","ND","ND","ND"],
    [5416,"42218,29167","20","ND","ND","ND","ND","ND"],
    [5417,"42218,33333","22,3","ND","ND","ND","ND","ND"],
    [5418,"42218,375","19,7","ND","ND","ND","ND","ND"],
    [5419,"42218,41667","24,3","ND","ND","ND","ND","ND"],
    [5420,"42218,45833","19,6","ND","ND","ND","ND","ND"],
    [5421,"42218,5","23,2","ND","ND","ND","ND","ND"],
    [5422,"42218,54167","19,3","ND","ND","ND","ND","ND"],
    [5423,"42218,58333","12,8","ND","ND","ND","ND","ND"],
    [5424,"42218,625","10","ND","ND","ND","ND","ND"],
    [5425,"42218,66667","9,2","ND","ND","ND","ND","ND"],
    [5426,"42218,70833","2","ND","ND","ND","ND","ND"],
    [5427,"42218,75","19,3","ND","ND","ND","ND","ND"],
    [5428,"42218,79167","17,4","ND","ND","ND","ND","ND"],
    [5429,"42218,83333","11,3","ND","ND","ND","ND","ND"],
    [5430,"42218,875","14,8","ND","ND","ND","ND","ND"],
    [5431,"42218,91667","16,9","ND","ND","ND","ND","ND"],
    [5432,"42218,95833","15,1","ND","ND","ND","ND","ND"],
    [5433,"42249","28,9","ND","ND","ND","ND","ND"],
    [5434,"42249,04167","16","ND","ND","ND","ND","ND"],
    [5435,"42249,08333","8,1","ND","ND","ND","ND","ND"],
    [5436,"42249,125","2","ND","ND","ND","ND","ND"],
    [5437,"42249,16667","4,3","ND","ND","ND","ND","ND"],
    [5438,"42249,20833","5,1","ND","ND","ND","ND","ND"],
    [5439,"42249,25","4,8","ND","ND","ND","ND","ND"],
    [5440,"42249,29167","6,6","ND","ND","ND","ND","ND"],
    [5441,"42249,33333","6,4","ND","ND","ND","ND","ND"],
    [5442,"42249,375","16,2","ND","ND","ND","ND","ND"],
    [5443,"42249,41667","12,6","ND","ND","ND","ND","ND"],
    [5444,"42249,45833","14,4","ND","ND","ND","ND","ND"],
    [5445,"42249,5","19,4","ND","ND","ND","ND","ND"],
    [5446,"42249,54167","17","ND","ND","ND","ND","ND"],
    [5447,"42249,58333","23,3","ND","ND","ND","ND","ND"],
    [5448,"42249,625","26,8","ND","ND","ND","ND","ND"],
    [5449,"42249,66667","25,3","ND","ND","ND","ND","ND"],
    [5450,"42249,70833","24,1","ND","ND","ND","ND","ND"],
    [5451,"42249,75","20","ND","ND","ND","ND","ND"],
    [5452,"42249,79167","11,4","ND","ND","ND","ND","ND"],
    [5453,"42249,83333","27,7","ND","ND","ND","ND","ND"],
    [5454,"42249,875","25,1","ND","ND","ND","ND","ND"],
    [5455,"42249,91667","29,6","ND","ND","ND","ND","ND"],
    [5456,"42249,95833","27,4","ND","ND","ND","ND","ND"],
    [5457,"42279","27","ND","ND","ND","ND","ND"],
    [5458,"42279,04167","28,6","ND","ND","ND","ND","ND"],
    [5459,"42279,08333","28,6","ND","ND","ND","ND","ND"],
    [5460,"42279,125","6,1","ND","ND","ND","ND","ND"],
    [5461,"42279,16667","9,8","ND","ND","ND","ND","ND"],
    [5462,"42279,20833","11,5","ND","ND","ND","ND","ND"],
    [5463,"42279,25","15,4","ND","ND","ND","ND","ND"],
    [5464,"42279,29167","24,8","ND","ND","ND","ND","ND"],
    [5465,"42279,33333","24,8","ND","ND","ND","ND","ND"],
    [5466,"42279,375","22,2","ND","ND","ND","ND","ND"],
    [5467,"42279,41667","18,6","ND","ND","ND","ND","ND"],
    [5468,"42279,45833","14,2","ND","ND","ND","ND","ND"],
    [5469,"42279,5","8,8","ND","ND","ND","ND","ND"],
    [5470,"42279,54167","12,2","ND","ND","ND","ND","ND"],
    [5471,"42279,58333","13","ND","ND","ND","ND","ND"],
    [5472,"42279,625","17,6","ND","ND","ND","ND","ND"],
    [5473,"42279,66667","23,2","ND","ND","ND","ND","ND"],
    [5474,"42279,70833","22,8","ND","ND","ND","ND","ND"],
    [5475,"42279,75","13","ND","ND","ND","ND","ND"],
    [5476,"42279,79167","13,8","ND","ND","ND","ND","ND"],
    [5477,"42279,83333","13,8","ND","ND","ND","ND","ND"],
    [5478,"42279,875","15,9","ND","ND","ND","ND","ND"],
    [5479,"42279,91667","23,6","ND","ND","ND","ND","ND"],
    [5480,"42279,95833","22,7","ND","ND","ND","ND","ND"],
    [5481,"42310","50,4","ND","ND","ND","ND","ND"],
    [5482,"42310,04167","28,4","ND","ND","ND","ND","ND"],
    [5483,"42310,08333","18,4","ND","ND","ND","ND","ND"],
    [5484,"42310,125","17,5","ND","ND","ND","ND","ND"],
    [5485,"42310,16667","29,7","ND","ND","ND","ND","ND"],
    [5486,"42310,20833","34,4","ND","ND","ND","ND","ND"],
    [5487,"42310,25","35,1","ND","ND","ND","ND","ND"],
    [5488,"42310,29167","46,4","ND","ND","ND","ND","ND"],
    [5489,"42310,33333","56,4","ND","ND","ND","ND","ND"],
    [5490,"42310,375","64,9","ND","ND","ND","ND","ND"],
    [5491,"42310,41667","50,4","ND","ND","ND","ND","ND"],
    [5492,"42310,45833","39,1","ND","ND","ND","ND","ND"],
    [5493,"42310,5","32,9","ND","ND","ND","ND","ND"],
    [5494,"42310,54167","42,8","ND","ND","ND","ND","ND"],
    [5495,"42310,58333","70,5","ND","ND","ND","ND","ND"],
    [5496,"42310,625","70,4","ND","ND","ND","ND","ND"],
    [5497,"42310,66667","64,2","ND","ND","ND","ND","ND"],
    [5498,"42310,70833","40,6","ND","ND","ND","ND","ND"],
    [5499,"42310,75","17,3","ND","ND","ND","ND","ND"],
    [5500,"42310,79167","21,2","ND","ND","ND","ND","ND"],
    [5501,"42310,83333","14,6","ND","ND","ND","ND","ND"],
    [5502,"42310,875","12","ND","ND","ND","ND","ND"],
    [5503,"42310,91667","9,9","ND","ND","ND","ND","ND"],
    [5504,"42310,95833","19,8","ND","ND","ND","ND","ND"],
    [5505,"42340","46,4","ND","ND","ND","ND","ND"],
    [5506,"42340,04167","43,5","ND","ND","ND","ND","ND"],
    [5507,"42340,08333","40,6","ND","ND","ND","ND","ND"],
    [5508,"42340,125","38,1","ND","ND","ND","ND","ND"],
    [5509,"42340,16667","27,7","ND","ND","ND","ND","ND"],
    [5510,"42340,20833","37,1","ND","ND","ND","ND","ND"],
    [5511,"42340,25","40,4","ND","ND","ND","ND","ND"],
    [5512,"42340,29167","63,6","ND","ND","ND","ND","ND"],
    [5513,"42340,33333","74,2","ND","ND","ND","ND","ND"],
    [5514,"42340,375","72,8","ND","ND","ND","ND","ND"],
    [5515,"42340,41667","59,1","ND","ND","ND","ND","ND"],
    [5516,"42340,45833","45,4","ND","ND","ND","ND","ND"],
    [5517,"42340,5","44","ND","ND","ND","ND","ND"],
    [5518,"42340,54167","46,7","ND","ND","ND","ND","ND"],
    [5519,"42340,58333","44,7","ND","ND","ND","ND","ND"],
    [5520,"42340,625","45,4","ND","ND","ND","ND","ND"],
    [5521,"42340,66667","47,8","ND","ND","ND","ND","ND"],
    [5522,"42340,70833","16,9","ND","ND","ND","ND","ND"],
    [5523,"42340,75","16,2","ND","ND","ND","ND","ND"],
    [5524,"42340,79167","14,2","ND","ND","ND","ND","ND"],
    [5525,"42340,83333","11,2","ND","ND","ND","ND","ND"],
    [5526,"42340,875","11,6","ND","ND","ND","ND","ND"],
    [5527,"42340,91667","11,7","ND","ND","ND","ND","ND"],
    [5528,"42340,95833","20,7","ND","ND","ND","ND","ND"],
    [5529,"02/13/2015 00:00","67,3","ND","ND","ND","ND","ND"],
    [5530,"02/13/2015 01:00","30,9","ND","ND","ND","ND","ND"],
    [5531,"02/13/2015 02:00","26,7","ND","ND","ND","ND","ND"],
    [5532,"02/13/2015 03:00","32,9","ND","ND","ND","ND","ND"],
    [5533,"02/13/2015 04:00","32,9","ND","ND","ND","ND","ND"],
    [5534,"02/13/2015 05:00","46,6","ND","ND","ND","ND","ND"],
    [5535,"02/13/2015 06:00","41,7","ND","ND","ND","ND","ND"],
    [5536,"02/13/2015 07:00","67","ND","ND","ND","ND","ND"],
    [5537,"02/13/2015 08:00","75,3","ND","ND","ND","ND","ND"],
    [5538,"02/13/2015 09:00","74","ND","ND","ND","ND","ND"],
    [5539,"02/13/2015 10:00","57,7","ND","ND","ND","ND","ND"],
    [5540,"02/13/2015 11:00","41,9","ND","ND","ND","ND","ND"],
    [5541,"02/13/2015 12:00","42,4","ND","ND","ND","ND","ND"],
    [5542,"02/13/2015 13:00","47,7","ND","ND","ND","ND","ND"],
    [5543,"02/13/2015 14:00","58","ND","ND","ND","ND","ND"],
    [5544,"02/13/2015 15:00","67,2","ND","ND","ND","ND","ND"],
    [5545,"02/13/2015 16:00","69,9","ND","ND","ND","ND","ND"],
    [5546,"02/13/2015 17:00","40,9","ND","ND","ND","ND","ND"],
    [5547,"02/13/2015 18:00","20,1","ND","ND","ND","ND","ND"],
    [5548,"02/13/2015 19:00","20,9","ND","ND","ND","ND","ND"],
    [5549,"02/13/2015 20:00","14,8","ND","ND","ND","ND","ND"],
    [5550,"02/13/2015 21:00","32,7","ND","ND","ND","ND","ND"],
    [5551,"02/13/2015 22:00","32","ND","ND","ND","ND","ND"],
    [5552,"02/13/2015 23:00","47,4","ND","ND","ND","ND","ND"],
    [5553,"02/14/2015 00:00","50","ND","ND","ND","ND","ND"],
    [5554,"02/14/2015 01:00","44,5","ND","ND","ND","ND","ND"],
    [5555,"02/14/2015 02:00","40,2","ND","ND","ND","ND","ND"],
    [5556,"02/14/2015 03:00","39,4","ND","ND","ND","ND","ND"],
    [5557,"02/14/2015 04:00","37,4","ND","ND","ND","ND","ND"],
    [5558,"02/14/2015 05:00","32,8","ND","ND","ND","ND","ND"],
    [5559,"02/14/2015 06:00","30,5","ND","ND","ND","ND","ND"],
    [5560,"02/14/2015 07:00","39,9","ND","ND","ND","ND","ND"],
    [5561,"02/14/2015 08:00","46,8","ND","ND","ND","ND","ND"],
    [5562,"02/14/2015 09:00","60,9","ND","ND","ND","ND","ND"],
    [5563,"02/14/2015 10:00","68,4","ND","ND","ND","ND","ND"],
    [5564,"02/14/2015 11:00","68,4","ND","ND","ND","ND","ND"],
    [5565,"02/14/2015 12:00","31,3","ND","ND","ND","ND","ND"],
    [5566,"02/14/2015 13:00","37,5","ND","ND","ND","ND","ND"],
    [5567,"02/14/2015 14:00","48,1","ND","ND","ND","ND","ND"],
    [5568,"02/14/2015 15:00","51,7","ND","ND","ND","ND","ND"],
    [5569,"02/14/2015 16:00","101","ND","ND","ND","ND","ND"],
    [5570,"02/14/2015 17:00","0,7","ND","ND","ND","ND","ND"],
    [5571,"02/14/2015 18:00","20,4","ND","ND","ND","ND","ND"],
    [5572,"02/14/2015 19:00","24,1","ND","ND","ND","ND","ND"],
    [5573,"02/14/2015 20:00","66,3","ND","ND","ND","ND","ND"],
    [5574,"02/14/2015 21:00","28","ND","ND","ND","ND","ND"],
    [5575,"02/14/2015 22:00","61,6","ND","ND","ND","ND","ND"],
    [5576,"02/14/2015 23:00","52,6","ND","ND","ND","ND","ND"],
    [5577,"02/15/2015 00:00","40,7","ND","ND","ND","ND","ND"],
    [5578,"02/15/2015 01:00","54,6","ND","ND","ND","ND","ND"],
    [5579,"02/15/2015 02:00","50,6","ND","ND","ND","ND","ND"],
    [5580,"02/15/2015 03:00","45,4","ND","ND","ND","ND","ND"],
    [5581,"02/15/2015 04:00","38,2","ND","ND","ND","ND","ND"],
    [5582,"02/15/2015 05:00","35,6","ND","ND","ND","ND","ND"],
    [5583,"02/15/2015 06:00","32","ND","ND","ND","ND","ND"],
    [5584,"02/15/2015 07:00","38,6","ND","ND","ND","ND","ND"],
    [5585,"02/15/2015 08:00","39,6","ND","ND","ND","ND","ND"],
    [5586,"02/15/2015 09:00","48,8","ND","ND","ND","ND","ND"],
    [5587,"02/15/2015 10:00","69,6","ND","ND","ND","ND","ND"],
    [5588,"02/15/2015 11:00","41,4","ND","ND","ND","ND","ND"],
    [5589,"02/15/2015 12:00","42,4","ND","ND","ND","ND","ND"],
    [5590,"02/15/2015 13:00","44,5","ND","ND","ND","ND","ND"],
    [5591,"02/15/2015 14:00","39,8","ND","ND","ND","ND","ND"],
    [5592,"02/15/2015 15:00","44,9","ND","ND","ND","ND","ND"],
    [5593,"02/15/2015 16:00","13,7","ND","ND","ND","ND","ND"],
    [5594,"02/15/2015 17:00","8,8","ND","ND","ND","ND","ND"],
    [5595,"02/15/2015 18:00","8","ND","ND","ND","ND","ND"],
    [5596,"02/15/2015 19:00","14,7","ND","ND","ND","ND","ND"],
    [5597,"02/15/2015 20:00","15,1","ND","ND","ND","ND","ND"],
    [5598,"02/15/2015 21:00","28,2","ND","ND","ND","ND","ND"],
    [5599,"02/15/2015 22:00","27,9","ND","ND","ND","ND","ND"],
    [5600,"02/15/2015 23:00","37,1","ND","ND","ND","ND","ND"],
    [5601,"02/16/2015 00:00","45,1","ND","ND","ND","ND","ND"],
    [5602,"02/16/2015 01:00","21,4","ND","ND","ND","ND","ND"],
    [5603,"02/16/2015 02:00","14,9","ND","ND","ND","ND","ND"],
    [5604,"02/16/2015 03:00","14,2","ND","ND","ND","ND","ND"],
    [5605,"02/16/2015 04:00","14,2","ND","ND","ND","ND","ND"],
    [5606,"02/16/2015 05:00","20,4","ND","ND","ND","ND","ND"],
    [5607,"02/16/2015 06:00","25,9","ND","ND","ND","ND","ND"],
    [5608,"02/16/2015 07:00","34,8","ND","ND","ND","ND","ND"],
    [5609,"02/16/2015 08:00","49,9","ND","ND","ND","ND","ND"],
    [5610,"02/16/2015 09:00","55,6","ND","ND","ND","ND","ND"],
    [5611,"02/16/2015 10:00","59,6","ND","ND","ND","ND","ND"],
    [5612,"02/16/2015 11:00","54,9","ND","ND","ND","ND","ND"],
    [5613,"02/16/2015 12:00","59,2","ND","ND","ND","ND","ND"],
    [5614,"02/16/2015 13:00","39,1","ND","ND","ND","ND","ND"],
    [5615,"02/16/2015 14:00","40,9","ND","ND","ND","ND","ND"],
    [5616,"02/16/2015 15:00","46,7","ND","ND","ND","ND","ND"],
    [5617,"02/16/2015 16:00","35,6","ND","ND","ND","ND","ND"],
    [5618,"02/16/2015 17:00","20,3","ND","ND","ND","ND","ND"],
    [5619,"02/16/2015 18:00","28,9","ND","ND","ND","ND","ND"],
    [5620,"02/16/2015 19:00","19,6","ND","ND","ND","ND","ND"],
    [5621,"02/16/2015 20:00","14,4","ND","ND","ND","ND","ND"],
    [5622,"02/16/2015 21:00","12,9","ND","ND","ND","ND","ND"],
    [5623,"02/16/2015 22:00","28,6","ND","ND","ND","ND","ND"],
    [5624,"02/16/2015 23:00","48,6","ND","ND","ND","ND","ND"],
    [5625,"02/17/2015 00:00","34,5","ND","ND","ND","ND","ND"],
    [5626,"02/17/2015 01:00","45,4","ND","ND","ND","ND","ND"],
    [5627,"02/17/2015 02:00","39,5","ND","ND","ND","ND","ND"],
    [5628,"02/17/2015 03:00","35,8","ND","ND","ND","ND","ND"],
    [5629,"02/17/2015 04:00","37,2","ND","ND","ND","ND","ND"],
    [5630,"02/17/2015 05:00","30,3","ND","ND","ND","ND","ND"],
    [5631,"02/17/2015 06:00","34,2","ND","ND","ND","ND","ND"],
    [5632,"02/17/2015 07:00","54,5","ND","ND","ND","ND","ND"],
    [5633,"02/17/2015 08:00","61,2","ND","ND","ND","ND","ND"],
    [5634,"02/17/2015 09:00","42,2","ND","ND","ND","ND","ND"],
    [5635,"02/17/2015 10:00","28,5","ND","ND","ND","ND","ND"],
    [5636,"02/17/2015 11:00","39,7","ND","ND","ND","ND","ND"],
    [5637,"02/17/2015 12:00","38,9","ND","ND","ND","ND","ND"],
    [5638,"02/17/2015 13:00","39,9","ND","ND","ND","ND","ND"],
    [5639,"02/17/2015 14:00","52,1","ND","ND","ND","ND","ND"],
    [5640,"02/17/2015 15:00","42,3","ND","ND","ND","ND","ND"],
    [5641,"02/17/2015 16:00","16,1","ND","ND","ND","ND","ND"],
    [5642,"02/17/2015 17:00","18,1","ND","ND","ND","ND","ND"],
    [5643,"02/17/2015 18:00","18,3","ND","ND","ND","ND","ND"],
    [5644,"02/17/2015 19:00","23,2","ND","ND","ND","ND","ND"],
    [5645,"02/17/2015 20:00","14,3","ND","ND","ND","ND","ND"],
    [5646,"02/17/2015 21:00","8,6","ND","ND","ND","ND","ND"],
    [5647,"02/17/2015 22:00","25,3","ND","ND","ND","ND","ND"],
    [5648,"02/17/2015 23:00","51,8","ND","ND","ND","ND","ND"],
    [5649,"02/18/2015 00:00","30,6","ND","ND","ND","ND","ND"],
    [5650,"02/18/2015 01:00","24,1","ND","ND","ND","ND","ND"],
    [5651,"02/18/2015 02:00","33,4","ND","ND","ND","ND","ND"],
    [5652,"02/18/2015 03:00","24,5","ND","ND","ND","ND","ND"],
    [5653,"02/18/2015 04:00","28,2","ND","ND","ND","ND","ND"],
    [5654,"02/18/2015 05:00","28,4","ND","ND","ND","ND","ND"],
    [5655,"02/18/2015 06:00","26,3","ND","ND","ND","ND","ND"],
    [5656,"02/18/2015 07:00","60,4","ND","ND","ND","ND","ND"],
    [5657,"02/18/2015 08:00","58,8","ND","ND","ND","ND","ND"],
    [5658,"02/18/2015 09:00","58,8","ND","ND","ND","ND","ND"],
    [5659,"02/18/2015 10:00","45","ND","ND","ND","ND","ND"],
    [5660,"02/18/2015 11:00","40","ND","ND","ND","ND","ND"],
    [5661,"02/18/2015 12:00","36","ND","ND","ND","ND","ND"],
    [5662,"02/18/2015 13:00","57,7","ND","ND","ND","ND","ND"],
    [5663,"02/18/2015 14:00","16,9","ND","ND","ND","ND","ND"],
    [5664,"02/18/2015 15:00","4,9","ND","ND","ND","ND","ND"],
    [5665,"02/18/2015 16:00","7,4","ND","ND","ND","ND","ND"],
    [5666,"02/18/2015 17:00","15","ND","ND","ND","ND","ND"],
    [5667,"02/18/2015 18:00","17,1","ND","ND","ND","ND","ND"],
    [5668,"02/18/2015 19:00","15,5","ND","ND","ND","ND","ND"],
    [5669,"02/18/2015 20:00","11,8","ND","ND","ND","ND","ND"],
    [5670,"02/18/2015 21:00","31","ND","ND","ND","ND","ND"],
    [5671,"02/18/2015 22:00","39,3","ND","ND","ND","ND","ND"],
    [5672,"02/18/2015 23:00","14,3","ND","ND","ND","ND","ND"],
    [5673,"02/19/2015 00:00","23,6","ND","ND","ND","ND","ND"],
    [5674,"02/19/2015 01:00","34","ND","ND","ND","ND","ND"],
    [5675,"02/19/2015 02:00","35","ND","ND","ND","ND","ND"],
    [5676,"02/19/2015 03:00","36,5","ND","ND","ND","ND","ND"],
    [5677,"02/19/2015 04:00","31","ND","ND","ND","ND","ND"],
    [5678,"02/19/2015 05:00","28,1","ND","ND","ND","ND","ND"],
    [5679,"02/19/2015 06:00","27,8","ND","ND","ND","ND","ND"],
    [5680,"02/19/2015 07:00","58,7","ND","ND","ND","ND","ND"],
    [5681,"02/19/2015 08:00","65,9","ND","ND","ND","ND","ND"],
    [5682,"02/19/2015 09:00","62,5","ND","ND","ND","ND","ND"],
    [5683,"02/19/2015 10:00","58,1","ND","ND","ND","ND","ND"],
    [5684,"02/19/2015 11:00","47,1","ND","ND","ND","ND","ND"],
    [5685,"02/19/2015 12:00","40,9","ND","ND","ND","ND","ND"],
    [5686,"02/19/2015 13:00","43,2","ND","ND","ND","ND","ND"],
    [5687,"02/19/2015 14:00","41,4","ND","ND","ND","ND","ND"],
    [5688,"02/19/2015 15:00","43,1","ND","ND","ND","ND","ND"],
    [5689,"02/19/2015 16:00","34,7","ND","ND","ND","ND","ND"],
    [5690,"02/19/2015 17:00","19,8","ND","ND","ND","ND","ND"],
    [5691,"02/19/2015 18:00","19,8","ND","ND","ND","ND","ND"],
    [5692,"02/19/2015 19:00","23,6","ND","ND","ND","ND","ND"],
    [5693,"02/19/2015 20:00","23,3","ND","ND","ND","ND","ND"],
    [5694,"02/19/2015 21:00","14,3","ND","ND","ND","ND","ND"],
    [5695,"02/19/2015 22:00","27,7","ND","ND","ND","ND","ND"],
    [5696,"02/19/2015 23:00","24,2","ND","ND","ND","ND","ND"],
    [5697,"02/20/2015 00:00","61","ND","ND","ND","ND","ND"],
    [5698,"02/20/2015 01:00","38,7","ND","ND","ND","ND","ND"],
    [5699,"02/20/2015 02:00","47,7","ND","ND","ND","ND","ND"],
    [5700,"02/20/2015 03:00","36,9","ND","ND","ND","ND","ND"],
    [5701,"02/20/2015 04:00","32,6","ND","ND","ND","ND","ND"],
    [5702,"02/20/2015 05:00","32,3","ND","ND","ND","ND","ND"],
    [5703,"02/20/2015 06:00","44,3","ND","ND","ND","ND","ND"],
    [5704,"02/20/2015 07:00","47,9","ND","ND","ND","ND","ND"],
    [5705,"02/20/2015 08:00","55,7","ND","ND","ND","ND","ND"],
    [5706,"02/20/2015 09:00","53,6","ND","ND","ND","ND","ND"],
    [5707,"02/20/2015 10:00","55,3","ND","ND","ND","ND","ND"],
    [5708,"02/20/2015 11:00","53,9","ND","ND","ND","ND","ND"],
    [5709,"02/20/2015 12:00","37","ND","ND","ND","ND","ND"],
    [5710,"02/20/2015 13:00","39,8","ND","ND","ND","ND","ND"],
    [5711,"02/20/2015 14:00","46,7","ND","ND","ND","ND","ND"],
    [5712,"02/20/2015 15:00","52,8","ND","ND","ND","ND","ND"],
    [5713,"02/20/2015 16:00","59,7","ND","ND","ND","ND","ND"],
    [5714,"02/20/2015 17:00","54,6","ND","ND","ND","ND","ND"],
    [5715,"02/20/2015 18:00","39,8","ND","ND","ND","ND","ND"],
    [5716,"02/20/2015 19:00","21,7","ND","ND","ND","ND","ND"],
    [5717,"02/20/2015 20:00","17,6","ND","ND","ND","ND","ND"],
    [5718,"02/20/2015 21:00","14,3","ND","ND","ND","ND","ND"],
    [5719,"02/20/2015 22:00","39,3","ND","ND","ND","ND","ND"],
    [5720,"02/20/2015 23:00","53,7","ND","ND","ND","ND","ND"],
    [5721,"02/21/2015 00:00","73,5","ND","ND","ND","ND","ND"],
    [5722,"02/21/2015 01:00","42,4","ND","ND","ND","ND","ND"],
    [5723,"02/21/2015 02:00","39,8","ND","ND","ND","ND","ND"],
    [5724,"02/21/2015 03:00","30,2","ND","ND","ND","ND","ND"],
    [5725,"02/21/2015 04:00","24,8","ND","ND","ND","ND","ND"],
    [5726,"02/21/2015 05:00","24,6","ND","ND","ND","ND","ND"],
    [5727,"02/21/2015 06:00","25,5","ND","ND","ND","ND","ND"],
    [5728,"02/21/2015 07:00","29,6","ND","ND","ND","ND","ND"],
    [5729,"02/21/2015 08:00","49,1","ND","ND","ND","ND","ND"],
    [5730,"02/21/2015 09:00","49,8","ND","ND","ND","ND","ND"],
    [5731,"02/21/2015 10:00","59,2","ND","ND","ND","ND","ND"],
    [5732,"02/21/2015 11:00","59,2","ND","ND","ND","ND","ND"],
    [5733,"02/21/2015 12:00","43,7","ND","ND","ND","ND","ND"],
    [5734,"02/21/2015 13:00","31,7","ND","ND","ND","ND","ND"],
    [5735,"02/21/2015 14:00","47","ND","ND","ND","ND","ND"],
    [5736,"02/21/2015 15:00","50,8","ND","ND","ND","ND","ND"],
    [5737,"02/21/2015 16:00","55","ND","ND","ND","ND","ND"],
    [5738,"02/21/2015 17:00","39,1","ND","ND","ND","ND","ND"],
    [5739,"02/21/2015 18:00","24,6","ND","ND","ND","ND","ND"],
    [5740,"02/21/2015 19:00","26,7","ND","ND","ND","ND","ND"],
    [5741,"02/21/2015 20:00","27","ND","ND","ND","ND","ND"],
    [5742,"02/21/2015 21:00","32,3","ND","ND","ND","ND","ND"],
    [5743,"02/21/2015 22:00","28,5","ND","ND","ND","ND","ND"],
    [5744,"02/21/2015 23:00","30,6","ND","ND","ND","ND","ND"],
    [5745,"02/22/2015 00:00","64,7","ND","ND","ND","ND","ND"],
    [5746,"02/22/2015 01:00","63,7","ND","ND","ND","ND","ND"],
    [5747,"02/22/2015 02:00","52","ND","ND","ND","ND","ND"],
    [5748,"02/22/2015 03:00","48,2","ND","ND","ND","ND","ND"],
    [5749,"02/22/2015 04:00","39,1","ND","ND","ND","ND","ND"],
    [5750,"02/22/2015 05:00","37,9","ND","ND","ND","ND","ND"],
    [5751,"02/22/2015 06:00","38,3","ND","ND","ND","ND","ND"],
    [5752,"02/22/2015 07:00","42,7","ND","ND","ND","ND","ND"],
    [5753,"02/22/2015 08:00","46,4","ND","ND","ND","ND","ND"],
    [5754,"02/22/2015 09:00","45,1","ND","ND","ND","ND","ND"],
    [5755,"02/22/2015 10:00","63,4","ND","ND","ND","ND","ND"],
    [5756,"02/22/2015 11:00","53,1","ND","ND","ND","ND","ND"],
    [5757,"02/22/2015 12:00","44","ND","ND","ND","ND","ND"],
    [5758,"02/22/2015 13:00","55,9","ND","ND","ND","ND","ND"],
    [5759,"02/22/2015 14:00","51","ND","ND","ND","ND","ND"],
    [5760,"02/22/2015 15:00","53","ND","ND","ND","ND","ND"],
    [5761,"02/22/2015 16:00","45,1","ND","ND","ND","ND","ND"],
    [5762,"02/22/2015 17:00","27,6","ND","ND","ND","ND","ND"],
    [5763,"02/22/2015 18:00","25,4","ND","ND","ND","ND","ND"],
    [5764,"02/22/2015 19:00","27,1","ND","ND","ND","ND","ND"],
    [5765,"02/22/2015 20:00","31,7","ND","ND","ND","ND","ND"],
    [5766,"02/22/2015 21:00","28,5","ND","ND","ND","ND","ND"],
    [5767,"02/22/2015 22:00","28,5","ND","ND","ND","ND","ND"],
    [5768,"02/22/2015 23:00","47,8","ND","ND","ND","ND","ND"],
    [5769,"02/23/2015 00:00","60,1","ND","ND","ND","ND","ND"],
    [5770,"02/23/2015 01:00","50,8","ND","ND","ND","ND","ND"],
    [5771,"02/23/2015 02:00","30,5","ND","ND","ND","ND","ND"],
    [5772,"02/23/2015 03:00","39,2","ND","ND","ND","ND","ND"],
    [5773,"02/23/2015 04:00","30,4","ND","ND","ND","ND","ND"],
    [5774,"02/23/2015 05:00","37,6","ND","ND","ND","ND","ND"],
    [5775,"02/23/2015 06:00","46,9","ND","ND","ND","ND","ND"],
    [5776,"02/23/2015 07:00","55,9","ND","ND","ND","ND","ND"],
    [5777,"02/23/2015 08:00","72,5","ND","ND","ND","ND","ND"],
    [5778,"02/23/2015 09:00","81","ND","ND","ND","ND","ND"],
    [5779,"02/23/2015 10:00","54,4","ND","ND","ND","ND","ND"],
    [5780,"02/23/2015 11:00","63,1","ND","ND","ND","ND","ND"],
    [5781,"02/23/2015 12:00","53,2","ND","ND","ND","ND","ND"],
    [5782,"02/23/2015 13:00","58,2","ND","ND","ND","ND","ND"],
    [5783,"02/23/2015 14:00","40,8","ND","ND","ND","ND","ND"],
    [5784,"02/23/2015 15:00","39,5","ND","ND","ND","ND","ND"],
    [5785,"02/23/2015 16:00","20,8","ND","ND","ND","ND","ND"],
    [5786,"02/23/2015 17:00","19","ND","ND","ND","ND","ND"],
    [5787,"02/23/2015 18:00","19,4","ND","ND","ND","ND","ND"],
    [5788,"02/23/2015 19:00","19,6","ND","ND","ND","ND","ND"],
    [5789,"02/23/2015 20:00","20,1","ND","ND","ND","ND","ND"],
    [5790,"02/23/2015 21:00","30,6","ND","ND","ND","ND","ND"],
    [5791,"02/23/2015 22:00","35,3","ND","ND","ND","ND","ND"],
    [5792,"02/23/2015 23:00","76,6","ND","ND","ND","ND","ND"],
    [5793,"02/24/2015 00:00","47,1","ND","ND","ND","ND","ND"],
    [5794,"02/24/2015 01:00","42,5","ND","ND","ND","ND","ND"],
    [5795,"02/24/2015 02:00","47,8","ND","ND","ND","ND","ND"],
    [5796,"02/24/2015 03:00","57,3","ND","ND","ND","ND","ND"],
    [5797,"02/24/2015 04:00","46","ND","ND","ND","ND","ND"],
    [5798,"02/24/2015 05:00","47","ND","ND","ND","ND","ND"],
    [5799,"02/24/2015 06:00","37,8","ND","ND","ND","ND","ND"],
    [5800,"02/24/2015 07:00","55,5","ND","ND","ND","ND","ND"],
    [5801,"02/24/2015 08:00","80,4","ND","ND","ND","ND","ND"],
    [5802,"02/24/2015 09:00","88,2","ND","ND","ND","ND","ND"],
    [5803,"02/24/2015 10:00","82,1","ND","ND","ND","ND","ND"],
    [5804,"02/24/2015 11:00","64,1","ND","ND","ND","ND","ND"],
    [5805,"02/24/2015 12:00","46,4","ND","ND","ND","ND","ND"],
    [5806,"02/24/2015 13:00","41,8","ND","ND","ND","ND","ND"],
    [5807,"02/24/2015 14:00","64,7","ND","ND","ND","ND","ND"],
    [5808,"02/24/2015 15:00","19,8","ND","ND","ND","ND","ND"],
    [5809,"02/24/2015 16:00","16,6","ND","ND","ND","ND","ND"],
    [5810,"02/24/2015 17:00","17,6","ND","ND","ND","ND","ND"],
    [5811,"02/24/2015 18:00","17,6","ND","ND","ND","ND","ND"],
    [5812,"02/24/2015 19:00","18,9","ND","ND","ND","ND","ND"],
    [5813,"02/24/2015 20:00","28,7","ND","ND","ND","ND","ND"],
    [5814,"02/24/2015 21:00","43,7","ND","ND","ND","ND","ND"],
    [5815,"02/24/2015 22:00","38,1","ND","ND","ND","ND","ND"],
    [5816,"02/24/2015 23:00","51,5","ND","ND","ND","ND","ND"],
    [5817,"02/25/2015 00:00","58,3","ND","ND","ND","ND","ND"],
    [5818,"02/25/2015 01:00","40,4","ND","ND","ND","ND","ND"],
    [5819,"02/25/2015 02:00","40,4","ND","ND","ND","ND","ND"],
    [5820,"02/25/2015 03:00","47,5","ND","ND","ND","ND","ND"],
    [5821,"02/25/2015 04:00","42","ND","ND","ND","ND","ND"],
    [5822,"02/25/2015 05:00","28,5","ND","ND","ND","ND","ND"],
    [5823,"02/25/2015 06:00","28,5","ND","ND","ND","ND","ND"],
    [5824,"02/25/2015 07:00","53,8","ND","ND","ND","ND","ND"],
    [5825,"02/25/2015 08:00","70,2","ND","ND","ND","ND","ND"],
    [5826,"02/25/2015 09:00","76,1","ND","ND","ND","ND","ND"],
    [5827,"02/25/2015 10:00","73,5","ND","ND","ND","ND","ND"],
    [5828,"02/25/2015 11:00","61,2","ND","ND","ND","ND","ND"],
    [5829,"02/25/2015 12:00","51,1","ND","ND","ND","ND","ND"],
    [5830,"02/25/2015 13:00","44","ND","ND","ND","ND","ND"],
    [5831,"02/25/2015 14:00","50,4","ND","ND","ND","ND","ND"],
    [5832,"02/25/2015 15:00","58,2","ND","ND","ND","ND","ND"],
    [5833,"02/25/2015 16:00","26,2","ND","ND","ND","ND","ND"],
    [5834,"02/25/2015 17:00","20,4","ND","ND","ND","ND","ND"],
    [5835,"02/25/2015 18:00","25","ND","ND","ND","ND","ND"],
    [5836,"02/25/2015 19:00","20,8","ND","ND","ND","ND","ND"],
    [5837,"02/25/2015 20:00","25,6","ND","ND","ND","ND","ND"],
    [5838,"02/25/2015 21:00","16,1","ND","ND","ND","ND","ND"],
    [5839,"02/25/2015 22:00","15,8","ND","ND","ND","ND","ND"],
    [5840,"02/25/2015 23:00","52,4","ND","ND","ND","ND","ND"],
    [5841,"02/26/2015 00:00","51,3","ND","ND","ND","ND","ND"],
    [5842,"02/26/2015 01:00","53","ND","ND","ND","ND","ND"],
    [5843,"02/26/2015 02:00","41,7","ND","ND","ND","ND","ND"],
    [5844,"02/26/2015 03:00","32,4","ND","ND","ND","ND","ND"],
    [5845,"02/26/2015 04:00","30,7","ND","ND","ND","ND","ND"],
    [5846,"02/26/2015 05:00","25,6","ND","ND","ND","ND","ND"],
    [5847,"02/26/2015 06:00","31,4","ND","ND","ND","ND","ND"],
    [5848,"02/26/2015 07:00","59,6","ND","ND","ND","ND","ND"],
    [5849,"02/26/2015 08:00","97,6","ND","ND","ND","ND","ND"],
    [5850,"02/26/2015 09:00","87,1","ND","ND","ND","ND","ND"],
    [5851,"02/26/2015 10:00","76,4","ND","ND","ND","ND","ND"],
    [5852,"02/26/2015 11:00","60,7","ND","ND","ND","ND","ND"],
    [5853,"02/26/2015 12:00","50,3","ND","ND","ND","ND","ND"],
    [5854,"02/26/2015 13:00","53,1","ND","ND","ND","ND","ND"],
    [5855,"02/26/2015 14:00","48,6","ND","ND","ND","ND","ND"],
    [5856,"02/26/2015 15:00","42,1","ND","ND","ND","ND","ND"],
    [5857,"02/26/2015 16:00","23,3","ND","ND","ND","ND","ND"],
    [5858,"02/26/2015 17:00","32,5","ND","ND","ND","ND","ND"],
    [5859,"02/26/2015 18:00","34,2","ND","ND","ND","ND","ND"],
    [5860,"02/26/2015 19:00","21,4","ND","ND","ND","ND","ND"],
    [5861,"02/26/2015 20:00","20,6","ND","ND","ND","ND","ND"],
    [5862,"02/26/2015 21:00","10,9","ND","ND","ND","ND","ND"],
    [5863,"02/26/2015 22:00","16,5","ND","ND","ND","ND","ND"],
    [5864,"02/26/2015 23:00","11","ND","ND","ND","ND","ND"],
    [5865,"02/27/2015 00:00","33,9","ND","ND","ND","ND","ND"],
    [5866,"02/27/2015 01:00","48,9","ND","ND","ND","ND","ND"],
    [5867,"02/27/2015 02:00","33,4","ND","ND","ND","ND","ND"],
    [5868,"02/27/2015 03:00","42,9","ND","ND","ND","ND","ND"],
    [5869,"02/27/2015 04:00","34,5","ND","ND","ND","ND","ND"],
    [5870,"02/27/2015 05:00","27,3","ND","ND","ND","ND","ND"],
    [5871,"02/27/2015 06:00","34","ND","ND","ND","ND","ND"],
    [5872,"02/27/2015 07:00","31","ND","ND","ND","ND","ND"],
    [5873,"02/27/2015 08:00","46,2","ND","ND","ND","ND","ND"],
    [5874,"02/27/2015 09:00","58","ND","ND","ND","ND","ND"],
    [5875,"02/27/2015 10:00","55,2","ND","ND","ND","ND","ND"],
    [5876,"02/27/2015 11:00","31,4","ND","ND","ND","ND","ND"],
    [5877,"02/27/2015 12:00","39,7","ND","ND","ND","ND","ND"],
    [5878,"02/27/2015 13:00","43,8","ND","ND","ND","ND","ND"],
    [5879,"02/27/2015 14:00","54,8","ND","ND","ND","ND","ND"],
    [5880,"02/27/2015 15:00","33,2","ND","ND","ND","ND","ND"],
    [5881,"02/27/2015 16:00","16,4","ND","ND","ND","ND","ND"],
    [5882,"02/27/2015 17:00","ND","ND","ND","ND","ND","ND"],
    [5883,"02/27/2015 18:00","ND","ND","ND","ND","ND","ND"],
    [5884,"02/27/2015 19:00","ND","ND","ND","ND","ND","ND"],
    [5885,"02/27/2015 20:00","ND","ND","ND","ND","ND","ND"],
    [5886,"02/27/2015 21:00","40,4","ND","ND","ND","ND","ND"],
    [5887,"02/27/2015 22:00","53,8","ND","ND","ND","ND","ND"],
    [5888,"02/27/2015 23:00","36","ND","ND","ND","ND","ND"],
    [5889,"02/28/2015 00:00","60,2","ND","ND","ND","ND","ND"],
    [5890,"02/28/2015 01:00","24,7","ND","ND","ND","ND","ND"],
    [5891,"02/28/2015 02:00","25,3","ND","ND","ND","ND","ND"],
    [5892,"02/28/2015 03:00","21,7","ND","ND","ND","ND","ND"],
    [5893,"02/28/2015 04:00","24,5","ND","ND","ND","ND","ND"],
    [5894,"02/28/2015 05:00","29,4","ND","ND","ND","ND","ND"],
    [5895,"02/28/2015 06:00","42,5","ND","ND","ND","ND","ND"],
    [5896,"02/28/2015 07:00","48,6","ND","ND","ND","ND","ND"],
    [5897,"02/28/2015 08:00","63,4","ND","ND","ND","ND","ND"],
    [5898,"02/28/2015 09:00","53,8","ND","ND","ND","ND","ND"],
    [5899,"02/28/2015 10:00","70,4","ND","ND","ND","ND","ND"],
    [5900,"02/28/2015 11:00","42,3","ND","ND","ND","ND","ND"],
    [5901,"02/28/2015 12:00","42,1","ND","ND","ND","ND","ND"],
    [5902,"02/28/2015 13:00","48,6","ND","ND","ND","ND","ND"],
    [5903,"02/28/2015 14:00","61,8","ND","ND","ND","ND","ND"],
    [5904,"02/28/2015 15:00","47,4","ND","ND","ND","ND","ND"],
    [5905,"02/28/2015 16:00","9,9","ND","ND","ND","ND","ND"],
    [5906,"02/28/2015 17:00","19,5","ND","ND","ND","ND","ND"],
    [5907,"02/28/2015 18:00","13,9","ND","ND","ND","ND","ND"],
    [5908,"02/28/2015 19:00","19,8","ND","ND","ND","ND","ND"],
    [5909,"02/28/2015 20:00","16,1","ND","ND","ND","ND","ND"],
    [5910,"02/28/2015 21:00","14,3","ND","ND","ND","ND","ND"],
    [5911,"02/28/2015 22:00","68,7","ND","ND","ND","ND","ND"],
    [5912,"02/28/2015 23:00","52","ND","ND","ND","ND","ND"],
    [5913,"42007","ND","ND","ND","ND","ND","ND"],
    [5914,"42007,04167","56,1","ND","ND","ND","ND","ND"],
    [5915,"42007,08333","41,5","ND","ND","ND","ND","ND"],
    [5916,"42007,125","33,5","ND","ND","ND","ND","ND"],
    [5917,"42007,16667","34,1","ND","ND","ND","ND","ND"],
    [5918,"42007,20833","42,3","ND","ND","ND","ND","ND"],
    [5919,"42007,25","43,8","ND","ND","ND","ND","ND"],
    [5920,"42007,29167","28,6","ND","ND","ND","ND","ND"],
    [5921,"42007,33333","20,2","ND","ND","ND","ND","ND"],
    [5922,"42007,375","31,2","ND","ND","ND","ND","ND"],
    [5923,"42007,41667","33","ND","ND","ND","ND","ND"],
    [5924,"42007,45833","35,2","ND","ND","ND","ND","ND"],
    [5925,"42007,5","21,9","ND","ND","ND","ND","ND"],
    [5926,"42007,54167","21,4","ND","ND","ND","ND","ND"],
    [5927,"42007,58333","22,5","ND","ND","ND","ND","ND"],
    [5928,"42007,625","9,7","ND","ND","ND","ND","ND"],
    [5929,"42007,66667","13,4","ND","ND","ND","ND","ND"],
    [5930,"42007,70833","28","ND","ND","ND","ND","ND"],
    [5931,"42007,75","27,7","ND","ND","ND","ND","ND"],
    [5932,"42007,79167","35,6","ND","ND","ND","ND","ND"],
    [5933,"42007,83333","19,5","ND","ND","ND","ND","ND"],
    [5934,"42007,875","20,4","ND","ND","ND","ND","ND"],
    [5935,"42007,91667","6,1","ND","ND","ND","ND","ND"],
    [5936,"42007,95833","ND","ND","ND","ND","ND","ND"],
    [5937,"42038","41,3","ND","ND","ND","ND","ND"],
    [5938,"42038,04167","ND","ND","ND","ND","ND","ND"],
    [5939,"42038,08333","ND","ND","ND","ND","ND","ND"],
    [5940,"42038,125","ND","ND","ND","ND","ND","ND"],
    [5941,"42038,16667","ND","ND","ND","ND","ND","ND"],
    [5942,"42038,20833","18,7","ND","ND","ND","ND","ND"],
    [5943,"42038,25","29","ND","ND","ND","ND","ND"],
    [5944,"42038,29167","40,8","ND","ND","ND","ND","ND"],
    [5945,"42038,33333","35,1","ND","ND","ND","ND","ND"],
    [5946,"42038,375","32","ND","ND","ND","ND","ND"],
    [5947,"42038,41667","43,1","ND","ND","ND","ND","ND"],
    [5948,"42038,45833","35,9","ND","ND","ND","ND","ND"],
    [5949,"42038,5","28,3","ND","ND","ND","ND","ND"],
    [5950,"42038,54167","30,9","ND","ND","ND","ND","ND"],
    [5951,"42038,58333","41,7","ND","ND","ND","ND","ND"],
    [5952,"42038,625","44,6","ND","ND","ND","ND","ND"],
    [5953,"42038,66667","60,9","ND","ND","ND","ND","ND"],
    [5954,"42038,70833","25,5","ND","ND","ND","ND","ND"],
    [5955,"42038,75","16,1","ND","ND","ND","ND","ND"],
    [5956,"42038,79167","15,4","ND","ND","ND","ND","ND"],
    [5957,"42038,83333","11,1","ND","ND","ND","ND","ND"],
    [5958,"42038,875","14,7","ND","ND","ND","ND","ND"],
    [5959,"42038,91667","12,8","ND","ND","ND","ND","ND"],
    [5960,"42038,95833","38,6","ND","ND","ND","ND","ND"],
    [5961,"42066","29","ND","ND","ND","ND","ND"],
    [5962,"42066,04167","24,9","ND","ND","ND","ND","ND"],
    [5963,"42066,08333","33,1","ND","ND","ND","ND","ND"],
    [5964,"42066,125","21,5","ND","ND","ND","ND","ND"],
    [5965,"42066,16667","24,1","ND","ND","ND","ND","ND"],
    [5966,"42066,20833","32,9","ND","ND","ND","ND","ND"],
    [5967,"42066,25","39,8","ND","ND","ND","ND","ND"],
    [5968,"42066,29167","57,3","ND","ND","ND","ND","ND"],
    [5969,"42066,33333","50,1","ND","ND","ND","ND","ND"],
    [5970,"42066,375","31,8","ND","ND","ND","ND","ND"],
    [5971,"42066,41667","42,6","ND","ND","ND","ND","ND"],
    [5972,"42066,45833","52","ND","ND","ND","ND","ND"],
    [5973,"42066,5","18,9","ND","ND","ND","ND","ND"],
    [5974,"42066,54167","15,2","ND","ND","ND","ND","ND"],
    [5975,"42066,58333","7,2","ND","ND","ND","ND","ND"],
    [5976,"42066,625","17,5","ND","ND","ND","ND","ND"],
    [5977,"42066,66667","9,8","ND","ND","ND","ND","ND"],
    [5978,"42066,70833","8,7","ND","ND","ND","ND","ND"],
    [5979,"42066,75","14","ND","ND","ND","ND","ND"],
    [5980,"42066,79167","11,2","ND","ND","ND","ND","ND"],
    [5981,"42066,83333","9,2","ND","ND","ND","ND","ND"],
    [5982,"42066,875","5,4","ND","ND","ND","ND","ND"],
    [5983,"42066,91667","36","ND","ND","ND","ND","ND"],
    [5984,"42066,95833","34,6","ND","ND","ND","ND","ND"],
    [5985,"42097","29,1","ND","ND","ND","ND","ND"],
    [5986,"42097,04167","7,8","ND","ND","ND","ND","ND"],
    [5987,"42097,08333","9,1","ND","ND","ND","ND","ND"],
    [5988,"42097,125","4,5","ND","ND","ND","ND","ND"],
    [5989,"42097,16667","2,7","ND","ND","ND","ND","ND"],
    [5990,"42097,20833","4,9","ND","ND","ND","ND","ND"],
    [5991,"42097,25","15,3","ND","ND","ND","ND","ND"],
    [5992,"42097,29167","18,1","ND","ND","ND","ND","ND"],
    [5993,"42097,33333","15","ND","ND","ND","ND","ND"],
    [5994,"42097,375","11,1","ND","ND","ND","ND","ND"],
    [5995,"42097,41667","9,3","ND","ND","ND","ND","ND"],
    [5996,"42097,45833","18,6","ND","ND","ND","ND","ND"],
    [5997,"42097,5","10,7","ND","ND","ND","ND","ND"],
    [5998,"42097,54167","9,3","ND","ND","ND","ND","ND"],
    [5999,"42097,58333","24","ND","ND","ND","ND","ND"],
    [6000,"42097,625","21,1","ND","ND","ND","ND","ND"],
    [6001,"42097,66667","15,4","ND","ND","ND","ND","ND"],
    [6002,"42097,70833","1,8","ND","ND","ND","ND","ND"],
    [6003,"42097,75","1,8","ND","ND","ND","ND","ND"],
    [6004,"42097,79167","11,4","ND","ND","ND","ND","ND"],
    [6005,"42097,83333","30,2","ND","ND","ND","ND","ND"],
    [6006,"42097,875","45,9","ND","ND","ND","ND","ND"],
    [6007,"42097,91667","41,7","ND","ND","ND","ND","ND"],
    [6008,"42097,95833","25,3","ND","ND","ND","ND","ND"],
    [6009,"42127","35,1","ND","ND","ND","ND","ND"],
    [6010,"42127,04167","24","ND","ND","ND","ND","ND"],
    [6011,"42127,08333","22,6","ND","ND","ND","ND","ND"],
    [6012,"42127,125","28,3","ND","ND","ND","ND","ND"],
    [6013,"42127,16667","34,9","ND","ND","ND","ND","ND"],
    [6014,"42127,20833","31,7","ND","ND","ND","ND","ND"],
    [6015,"42127,25","36,8","ND","ND","ND","ND","ND"],
    [6016,"42127,29167","57,9","ND","ND","ND","ND","ND"],
    [6017,"42127,33333","69,8","ND","ND","ND","ND","ND"],
    [6018,"42127,375","69,7","ND","ND","ND","ND","ND"],
    [6019,"42127,41667","45,7","ND","ND","ND","ND","ND"],
    [6020,"42127,45833","40,3","ND","ND","ND","ND","ND"],
    [6021,"42127,5","9,6","ND","ND","ND","ND","ND"],
    [6022,"42127,54167","21,2","ND","ND","ND","ND","ND"],
    [6023,"42127,58333","37,3","ND","ND","ND","ND","ND"],
    [6024,"42127,625","28,6","ND","ND","ND","ND","ND"],
    [6025,"42127,66667","11,3","ND","ND","ND","ND","ND"],
    [6026,"42127,70833","15,3","ND","ND","ND","ND","ND"],
    [6027,"42127,75","14,8","ND","ND","ND","ND","ND"],
    [6028,"42127,79167","14,2","ND","ND","ND","ND","ND"],
    [6029,"42127,83333","30,1","ND","ND","ND","ND","ND"],
    [6030,"42127,875","55,4","ND","ND","ND","ND","ND"],
    [6031,"42127,91667","41,4","ND","ND","ND","ND","ND"],
    [6032,"42127,95833","42","ND","ND","ND","ND","ND"],
    [6033,"42158","28,6","ND","ND","ND","ND","ND"],
    [6034,"42158,04167","28","ND","ND","ND","ND","ND"],
    [6035,"42158,08333","23,6","ND","ND","ND","ND","ND"],
    [6036,"42158,125","27","ND","ND","ND","ND","ND"],
    [6037,"42158,16667","24,8","ND","ND","ND","ND","ND"],
    [6038,"42158,20833","29,1","ND","ND","ND","ND","ND"],
    [6039,"42158,25","38","ND","ND","ND","ND","ND"],
    [6040,"42158,29167","66,3","ND","ND","ND","ND","ND"],
    [6041,"42158,33333","62,8","ND","ND","ND","ND","ND"],
    [6042,"42158,375","64,2","ND","ND","ND","ND","ND"],
    [6043,"42158,41667","82,4","ND","ND","ND","ND","ND"],
    [6044,"42158,45833","74,9","ND","ND","ND","ND","ND"],
    [6045,"42158,5","74,3","ND","ND","ND","ND","ND"],
    [6046,"42158,54167","59,9","ND","ND","ND","ND","ND"],
    [6047,"42158,58333","20,1","ND","ND","ND","ND","ND"],
    [6048,"42158,625","19,1","ND","ND","ND","ND","ND"],
    [6049,"42158,66667","19","ND","ND","ND","ND","ND"],
    [6050,"42158,70833","11,9","ND","ND","ND","ND","ND"],
    [6051,"42158,75","45,9","ND","ND","ND","ND","ND"],
    [6052,"42158,79167","38,6","ND","ND","ND","ND","ND"],
    [6053,"42158,83333","32,6","ND","ND","ND","ND","ND"],
    [6054,"42158,875","19,8","ND","ND","ND","ND","ND"],
    [6055,"42158,91667","36","ND","ND","ND","ND","ND"],
    [6056,"42158,95833","21,6","ND","ND","ND","ND","ND"],
    [6057,"42188","39,2","ND","ND","ND","ND","ND"],
    [6058,"42188,04167","18,5","ND","ND","ND","ND","ND"],
    [6059,"42188,08333","16,6","ND","ND","ND","ND","ND"],
    [6060,"42188,125","19,7","ND","ND","ND","ND","ND"],
    [6061,"42188,16667","19","ND","ND","ND","ND","ND"],
    [6062,"42188,20833","44,3","ND","ND","ND","ND","ND"],
    [6063,"42188,25","34,2","ND","ND","ND","ND","ND"],
    [6064,"42188,29167","37,7","ND","ND","ND","ND","ND"],
    [6065,"42188,33333","41,6","ND","ND","ND","ND","ND"],
    [6066,"42188,375","58,2","ND","ND","ND","ND","ND"],
    [6067,"42188,41667","65,7","ND","ND","ND","ND","ND"],
    [6068,"42188,45833","27","ND","ND","ND","ND","ND"],
    [6069,"42188,5","40,6","ND","ND","ND","ND","ND"],
    [6070,"42188,54167","55,1","ND","ND","ND","ND","ND"],
    [6071,"42188,58333","58,1","ND","ND","ND","ND","ND"],
    [6072,"42188,625","35,5","ND","ND","ND","ND","ND"],
    [6073,"42188,66667","36,7","ND","ND","ND","ND","ND"],
    [6074,"42188,70833","15,3","ND","ND","ND","ND","ND"],
    [6075,"42188,75","15,6","ND","ND","ND","ND","ND"],
    [6076,"42188,79167","15,2","ND","ND","ND","ND","ND"],
    [6077,"42188,83333","27,8","ND","ND","ND","ND","ND"],
    [6078,"42188,875","51,1","ND","ND","ND","ND","ND"],
    [6079,"42188,91667","31,3","ND","ND","ND","ND","ND"],
    [6080,"42188,95833","50,1","ND","ND","ND","ND","ND"],
    [6081,"42219","47,4","ND","ND","ND","ND","ND"],
    [6082,"42219,04167","48,9","ND","ND","ND","ND","ND"],
    [6083,"42219,08333","56","ND","ND","ND","ND","ND"],
    [6084,"42219,125","46,3","ND","ND","ND","ND","ND"],
    [6085,"42219,16667","51","ND","ND","ND","ND","ND"],
    [6086,"42219,20833","44,1","ND","ND","ND","ND","ND"],
    [6087,"42219,25","35,5","ND","ND","ND","ND","ND"],
    [6088,"42219,29167","42","ND","ND","ND","ND","ND"],
    [6089,"42219,33333","49,9","ND","ND","ND","ND","ND"],
    [6090,"42219,375","50,2","ND","ND","ND","ND","ND"],
    [6091,"42219,41667","41,5","ND","ND","ND","ND","ND"],
    [6092,"42219,45833","52,3","ND","ND","ND","ND","ND"],
    [6093,"42219,5","44,8","ND","ND","ND","ND","ND"],
    [6094,"42219,54167","40,5","ND","ND","ND","ND","ND"],
    [6095,"42219,58333","41,3","ND","ND","ND","ND","ND"],
    [6096,"42219,625","36,7","ND","ND","ND","ND","ND"],
    [6097,"42219,66667","40,2","ND","ND","ND","ND","ND"],
    [6098,"42219,70833","50,6","ND","ND","ND","ND","ND"],
    [6099,"42219,75","25,5","ND","ND","ND","ND","ND"],
    [6100,"42219,79167","16,5","ND","ND","ND","ND","ND"],
    [6101,"42219,83333","9,9","ND","ND","ND","ND","ND"],
    [6102,"42219,875","22,5","ND","ND","ND","ND","ND"],
    [6103,"42219,91667","29,8","ND","ND","ND","ND","ND"],
    [6104,"42219,95833","34,7","ND","ND","ND","ND","ND"],
    [6105,"42250","53","ND","ND","ND","ND","ND"],
    [6106,"42250,04167","38","ND","ND","ND","ND","ND"],
    [6107,"42250,08333","19,7","ND","ND","ND","ND","ND"],
    [6108,"42250,125","18","ND","ND","ND","ND","ND"],
    [6109,"42250,16667","18,9","ND","ND","ND","ND","ND"],
    [6110,"42250,20833","23,7","ND","ND","ND","ND","ND"],
    [6111,"42250,25","38,4","ND","ND","ND","ND","ND"],
    [6112,"42250,29167","54,1","ND","ND","ND","ND","ND"],
    [6113,"42250,33333","54,6","ND","ND","ND","ND","ND"],
    [6114,"42250,375","56,2","ND","ND","ND","ND","ND"],
    [6115,"42250,41667","54,3","ND","ND","ND","ND","ND"],
    [6116,"42250,45833","41","ND","ND","ND","ND","ND"],
    [6117,"42250,5","52,4","ND","ND","ND","ND","ND"],
    [6118,"42250,54167","51,5","ND","ND","ND","ND","ND"],
    [6119,"42250,58333","51","ND","ND","ND","ND","ND"],
    [6120,"42250,625","39,1","ND","ND","ND","ND","ND"],
    [6121,"42250,66667","10","ND","ND","ND","ND","ND"],
    [6122,"42250,70833","12,8","ND","ND","ND","ND","ND"],
    [6123,"42250,75","7,9","ND","ND","ND","ND","ND"],
    [6124,"42250,79167","15,3","ND","ND","ND","ND","ND"],
    [6125,"42250,83333","7,7","ND","ND","ND","ND","ND"],
    [6126,"42250,875","10,1","ND","ND","ND","ND","ND"],
    [6127,"42250,91667","13,4","ND","ND","ND","ND","ND"],
    [6128,"42250,95833","32,1","ND","ND","ND","ND","ND"],
    [6129,"42280","23,5","ND","ND","ND","ND","ND"],
    [6130,"42280,04167","37,9","ND","ND","ND","ND","ND"],
    [6131,"42280,08333","46,5","ND","ND","ND","ND","ND"],
    [6132,"42280,125","44,1","ND","ND","ND","ND","ND"],
    [6133,"42280,16667","36,3","ND","ND","ND","ND","ND"],
    [6134,"42280,20833","33,5","ND","ND","ND","ND","ND"],
    [6135,"42280,25","48,5","ND","ND","ND","ND","ND"],
    [6136,"42280,29167","59,3","ND","ND","ND","ND","ND"],
    [6137,"42280,33333","64,3","ND","ND","ND","ND","ND"],
    [6138,"42280,375","66,5","ND","ND","ND","ND","ND"],
    [6139,"42280,41667","56,4","ND","ND","ND","ND","ND"],
    [6140,"42280,45833","40,9","ND","ND","ND","ND","ND"],
    [6141,"42280,5","43","ND","ND","ND","ND","ND"],
    [6142,"42280,54167","53,1","ND","ND","ND","ND","ND"],
    [6143,"42280,58333","49,8","ND","ND","ND","ND","ND"],
    [6144,"42280,625","49,8","ND","ND","ND","ND","ND"],
    [6145,"42280,66667","14,1","ND","ND","ND","ND","ND"],
    [6146,"42280,70833","17,6","ND","ND","ND","ND","ND"],
    [6147,"42280,75","13,4","ND","ND","ND","ND","ND"],
    [6148,"42280,79167","14","ND","ND","ND","ND","ND"],
    [6149,"42280,83333","11,5","ND","ND","ND","ND","ND"],
    [6150,"42280,875","12,6","ND","ND","ND","ND","ND"],
    [6151,"42280,91667","46","ND","ND","ND","ND","ND"],
    [6152,"42280,95833","14,6","ND","ND","ND","ND","ND"],
    [6153,"42311","49,2","ND","ND","ND","ND","ND"],
    [6154,"42311,04167","16,6","ND","ND","ND","ND","ND"],
    [6155,"42311,08333","16,8","ND","ND","ND","ND","ND"],
    [6156,"42311,125","1,7","ND","ND","ND","ND","ND"],
    [6157,"42311,16667","1,7","ND","ND","ND","ND","ND"],
    [6158,"42311,20833","27,6","ND","ND","ND","ND","ND"],
    [6159,"42311,25","43,4","ND","ND","ND","ND","ND"],
    [6160,"42311,29167","65,5","ND","ND","ND","ND","ND"],
    [6161,"42311,33333","71,6","ND","ND","ND","ND","ND"],
    [6162,"42311,375","57","ND","ND","ND","ND","ND"],
    [6163,"42311,41667","44,6","ND","ND","ND","ND","ND"],
    [6164,"42311,45833","54,6","ND","ND","ND","ND","ND"],
    [6165,"42311,5","46,8","ND","ND","ND","ND","ND"],
    [6166,"42311,54167","56,3","ND","ND","ND","ND","ND"],
    [6167,"42311,58333","50,5","ND","ND","ND","ND","ND"],
    [6168,"42311,625","53,5","ND","ND","ND","ND","ND"],
    [6169,"42311,66667","ND","ND","ND","ND","ND","ND"],
    [6170,"42311,70833","ND","ND","ND","ND","ND","ND"],
    [6171,"42311,75","ND","ND","ND","ND","ND","ND"],
    [6172,"42311,79167","ND","ND","ND","ND","ND","ND"],
    [6173,"42311,83333","17,5","ND","ND","ND","ND","ND"],
    [6174,"42311,875","11,8","ND","ND","ND","ND","ND"],
    [6175,"42311,91667","51,2","ND","ND","ND","ND","ND"],
    [6176,"42311,95833","53,2","ND","ND","ND","ND","ND"],
    [6177,"42341","21,5","ND","ND","ND","ND","ND"],
    [6178,"42341,04167","49,2","ND","ND","ND","ND","ND"],
    [6179,"42341,08333","32,8","ND","ND","ND","ND","ND"],
    [6180,"42341,125","30,2","ND","ND","ND","ND","ND"],
    [6181,"42341,16667","26,1","ND","ND","ND","ND","ND"],
    [6182,"42341,20833","28,9","ND","ND","ND","ND","ND"],
    [6183,"42341,25","48,2","ND","ND","ND","ND","ND"],
    [6184,"42341,29167","49,2","ND","ND","ND","ND","ND"],
    [6185,"42341,33333","39","ND","ND","ND","ND","ND"],
    [6186,"42341,375","32,5","ND","ND","ND","ND","ND"],
    [6187,"42341,41667","29,5","ND","ND","ND","ND","ND"],
    [6188,"42341,45833","31,1","ND","ND","ND","ND","ND"],
    [6189,"42341,5","38,3","ND","ND","ND","ND","ND"],
    [6190,"42341,54167","37,8","ND","ND","ND","ND","ND"],
    [6191,"42341,58333","29,9","ND","ND","ND","ND","ND"],
    [6192,"42341,625","12,9","ND","ND","ND","ND","ND"],
    [6193,"42341,66667","21,7","ND","ND","ND","ND","ND"],
    [6194,"42341,70833","30,8","ND","ND","ND","ND","ND"],
    [6195,"42341,75","21,4","ND","ND","ND","ND","ND"],
    [6196,"42341,79167","40,6","ND","ND","ND","ND","ND"],
    [6197,"42341,83333","34,4","ND","ND","ND","ND","ND"],
    [6198,"42341,875","31,7","ND","ND","ND","ND","ND"],
    [6199,"42341,91667","37,1","ND","ND","ND","ND","ND"],
    [6200,"42341,95833","29,2","ND","ND","ND","ND","ND"],
    [6201,"03/13/2015 00:00","15,6","ND","ND","ND","ND","ND"],
    [6202,"03/13/2015 01:00","28,2","ND","ND","ND","ND","ND"],
    [6203,"03/13/2015 02:00","40,4","ND","ND","ND","ND","ND"],
    [6204,"03/13/2015 03:00","34,5","ND","ND","ND","ND","ND"],
    [6205,"03/13/2015 04:00","30,8","ND","ND","ND","ND","ND"],
    [6206,"03/13/2015 05:00","30,8","ND","ND","ND","ND","ND"],
    [6207,"03/13/2015 06:00","39","ND","ND","ND","ND","ND"],
    [6208,"03/13/2015 07:00","65,5","ND","ND","ND","ND","ND"],
    [6209,"03/13/2015 08:00","57,9","ND","ND","ND","ND","ND"],
    [6210,"03/13/2015 09:00","64,9","ND","ND","ND","ND","ND"],
    [6211,"03/13/2015 10:00","93","ND","ND","ND","ND","ND"],
    [6212,"03/13/2015 11:00","66,4","ND","ND","ND","ND","ND"],
    [6213,"03/13/2015 12:00","45,7","ND","ND","ND","ND","ND"],
    [6214,"03/13/2015 13:00","45,2","ND","ND","ND","ND","ND"],
    [6215,"03/13/2015 14:00","42,6","ND","ND","ND","ND","ND"],
    [6216,"03/13/2015 15:00","14,1","ND","ND","ND","ND","ND"],
    [6217,"03/13/2015 16:00","17,5","ND","ND","ND","ND","ND"],
    [6218,"03/13/2015 17:00","23,8","ND","ND","ND","ND","ND"],
    [6219,"03/13/2015 18:00","16,9","ND","ND","ND","ND","ND"],
    [6220,"03/13/2015 19:00","34","ND","ND","ND","ND","ND"],
    [6221,"03/13/2015 20:00","24,8","ND","ND","ND","ND","ND"],
    [6222,"03/13/2015 21:00","30,5","ND","ND","ND","ND","ND"],
    [6223,"03/13/2015 22:00","18,8","ND","ND","ND","ND","ND"],
    [6224,"03/13/2015 23:00","19,6","ND","ND","ND","ND","ND"],
    [6225,"03/14/2015 00:00","31,3","ND","ND","ND","ND","ND"],
    [6226,"03/14/2015 01:00","13,5","ND","ND","ND","ND","ND"],
    [6227,"03/14/2015 02:00","9,7","ND","ND","ND","ND","ND"],
    [6228,"03/14/2015 03:00","9,7","ND","ND","ND","ND","ND"],
    [6229,"03/14/2015 04:00","14,5","ND","ND","ND","ND","ND"],
    [6230,"03/14/2015 05:00","18,7","ND","ND","ND","ND","ND"],
    [6231,"03/14/2015 06:00","21,3","ND","ND","ND","ND","ND"],
    [6232,"03/14/2015 07:00","33,6","ND","ND","ND","ND","ND"],
    [6233,"03/14/2015 08:00","40,3","ND","ND","ND","ND","ND"],
    [6234,"03/14/2015 09:00","42,5","ND","ND","ND","ND","ND"],
    [6235,"03/14/2015 10:00","77,2","ND","ND","ND","ND","ND"],
    [6236,"03/14/2015 11:00","48","ND","ND","ND","ND","ND"],
    [6237,"03/14/2015 12:00","45","ND","ND","ND","ND","ND"],
    [6238,"03/14/2015 13:00","19,2","ND","ND","ND","ND","ND"],
    [6239,"03/14/2015 14:00","3,6","ND","ND","ND","ND","ND"],
    [6240,"03/14/2015 15:00","3,9","ND","ND","ND","ND","ND"],
    [6241,"03/14/2015 16:00","13","ND","ND","ND","ND","ND"],
    [6242,"03/14/2015 17:00","25","ND","ND","ND","ND","ND"],
    [6243,"03/14/2015 18:00","46,8","ND","ND","ND","ND","ND"],
    [6244,"03/14/2015 19:00","46,8","ND","ND","ND","ND","ND"],
    [6245,"03/14/2015 20:00","38,4","ND","ND","ND","ND","ND"],
    [6246,"03/14/2015 21:00","42,8","ND","ND","ND","ND","ND"],
    [6247,"03/14/2015 22:00","36,8","ND","ND","ND","ND","ND"],
    [6248,"03/14/2015 23:00","36","ND","ND","ND","ND","ND"],
    [6249,"03/15/2015 00:00","31,3","ND","ND","ND","ND","ND"],
    [6250,"03/15/2015 01:00","27,9","ND","ND","ND","ND","ND"],
    [6251,"03/15/2015 02:00","33,1","ND","ND","ND","ND","ND"],
    [6252,"03/15/2015 03:00","33,1","ND","ND","ND","ND","ND"],
    [6253,"03/15/2015 04:00","24,3","ND","ND","ND","ND","ND"],
    [6254,"03/15/2015 05:00","37,9","ND","ND","ND","ND","ND"],
    [6255,"03/15/2015 06:00","52,8","ND","ND","ND","ND","ND"],
    [6256,"03/15/2015 07:00","44,1","ND","ND","ND","ND","ND"],
    [6257,"03/15/2015 08:00","49,5","ND","ND","ND","ND","ND"],
    [6258,"03/15/2015 09:00","65,3","ND","ND","ND","ND","ND"],
    [6259,"03/15/2015 10:00","62,3","ND","ND","ND","ND","ND"],
    [6260,"03/15/2015 11:00","43,3","ND","ND","ND","ND","ND"],
    [6261,"03/15/2015 12:00","35,3","ND","ND","ND","ND","ND"],
    [6262,"03/15/2015 13:00","34,7","ND","ND","ND","ND","ND"],
    [6263,"03/15/2015 14:00","36,1","ND","ND","ND","ND","ND"],
    [6264,"03/15/2015 15:00","34,9","ND","ND","ND","ND","ND"],
    [6265,"03/15/2015 16:00","39,4","ND","ND","ND","ND","ND"],
    [6266,"03/15/2015 17:00","30,2","ND","ND","ND","ND","ND"],
    [6267,"03/15/2015 18:00","20,2","ND","ND","ND","ND","ND"],
    [6268,"03/15/2015 19:00","13,6","ND","ND","ND","ND","ND"],
    [6269,"03/15/2015 20:00","14","ND","ND","ND","ND","ND"],
    [6270,"03/15/2015 21:00","13,1","ND","ND","ND","ND","ND"],
    [6271,"03/15/2015 22:00","13,3","ND","ND","ND","ND","ND"],
    [6272,"03/15/2015 23:00","42,8","ND","ND","ND","ND","ND"],
    [6273,"03/16/2015 00:00","44,7","ND","ND","ND","ND","ND"],
    [6274,"03/16/2015 01:00","26,8","ND","ND","ND","ND","ND"],
    [6275,"03/16/2015 02:00","20,1","ND","ND","ND","ND","ND"],
    [6276,"03/16/2015 03:00","18","ND","ND","ND","ND","ND"],
    [6277,"03/16/2015 04:00","16,3","ND","ND","ND","ND","ND"],
    [6278,"03/16/2015 05:00","17,8","ND","ND","ND","ND","ND"],
    [6279,"03/16/2015 06:00","14,3","ND","ND","ND","ND","ND"],
    [6280,"03/16/2015 07:00","22,3","ND","ND","ND","ND","ND"],
    [6281,"03/16/2015 08:00","20,8","ND","ND","ND","ND","ND"],
    [6282,"03/16/2015 09:00","19","ND","ND","ND","ND","ND"],
    [6283,"03/16/2015 10:00","21,8","ND","ND","ND","ND","ND"],
    [6284,"03/16/2015 11:00","26,3","ND","ND","ND","ND","ND"],
    [6285,"03/16/2015 12:00","48,1","ND","ND","ND","ND","ND"],
    [6286,"03/16/2015 13:00","43,2","ND","ND","ND","ND","ND"],
    [6287,"03/16/2015 14:00","45,7","ND","ND","ND","ND","ND"],
    [6288,"03/16/2015 15:00","32,8","ND","ND","ND","ND","ND"],
    [6289,"03/16/2015 16:00","17,6","ND","ND","ND","ND","ND"],
    [6290,"03/16/2015 17:00","11,4","ND","ND","ND","ND","ND"],
    [6291,"03/16/2015 18:00","32","ND","ND","ND","ND","ND"],
    [6292,"03/16/2015 19:00","52,6","ND","ND","ND","ND","ND"],
    [6293,"03/16/2015 20:00","43,6","ND","ND","ND","ND","ND"],
    [6294,"03/16/2015 21:00","43,6","ND","ND","ND","ND","ND"],
    [6295,"03/16/2015 22:00","41,4","ND","ND","ND","ND","ND"],
    [6296,"03/16/2015 23:00","31,4","ND","ND","ND","ND","ND"],
    [6297,"03/17/2015 00:00","14,6","ND","ND","ND","ND","ND"],
    [6298,"03/17/2015 01:00","41,6","ND","ND","ND","ND","ND"],
    [6299,"03/17/2015 02:00","42,2","ND","ND","ND","ND","ND"],
    [6300,"03/17/2015 03:00","28,5","ND","ND","ND","ND","ND"],
    [6301,"03/17/2015 04:00","38,1","ND","ND","ND","ND","ND"],
    [6302,"03/17/2015 05:00","27,1","ND","ND","ND","ND","ND"],
    [6303,"03/17/2015 06:00","25","ND","ND","ND","ND","ND"],
    [6304,"03/17/2015 07:00","29,3","ND","ND","ND","ND","ND"],
    [6305,"03/17/2015 08:00","51,4","ND","ND","ND","ND","ND"],
    [6306,"03/17/2015 09:00","55,8","ND","ND","ND","ND","ND"],
    [6307,"03/17/2015 10:00","41,8","ND","ND","ND","ND","ND"],
    [6308,"03/17/2015 11:00","64,3","ND","ND","ND","ND","ND"],
    [6309,"03/17/2015 12:00","64,3","ND","ND","ND","ND","ND"],
    [6310,"03/17/2015 13:00","39,3","ND","ND","ND","ND","ND"],
    [6311,"03/17/2015 14:00","35,8","ND","ND","ND","ND","ND"],
    [6312,"03/17/2015 15:00","18,8","ND","ND","ND","ND","ND"],
    [6313,"03/17/2015 16:00","17,2","ND","ND","ND","ND","ND"],
    [6314,"03/17/2015 17:00","19,4","ND","ND","ND","ND","ND"],
    [6315,"03/17/2015 18:00","16,4","ND","ND","ND","ND","ND"],
    [6316,"03/17/2015 19:00","17,3","ND","ND","ND","ND","ND"],
    [6317,"03/17/2015 20:00","9,7","ND","ND","ND","ND","ND"],
    [6318,"03/17/2015 21:00","11,1","ND","ND","ND","ND","ND"],
    [6319,"03/17/2015 22:00","16,2","ND","ND","ND","ND","ND"],
    [6320,"03/17/2015 23:00","16,4","ND","ND","ND","ND","ND"],
    [6321,"03/18/2015 00:00","33,7","ND","ND","ND","ND","ND"],
    [6322,"03/18/2015 01:00","12,9","ND","ND","ND","ND","ND"],
    [6323,"03/18/2015 02:00","8,6","ND","ND","ND","ND","ND"],
    [6324,"03/18/2015 03:00","10,1","ND","ND","ND","ND","ND"],
    [6325,"03/18/2015 04:00","3,5","ND","ND","ND","ND","ND"],
    [6326,"03/18/2015 05:00","10,1","ND","ND","ND","ND","ND"],
    [6327,"03/18/2015 06:00","21,1","ND","ND","ND","ND","ND"],
    [6328,"03/18/2015 07:00","33,8","ND","ND","ND","ND","ND"],
    [6329,"03/18/2015 08:00","39,9","ND","ND","ND","ND","ND"],
    [6330,"03/18/2015 09:00","40,9","ND","ND","ND","ND","ND"],
    [6331,"03/18/2015 10:00","23,6","ND","ND","ND","ND","ND"],
    [6332,"03/18/2015 11:00","20,8","ND","ND","ND","ND","ND"],
    [6333,"03/18/2015 12:00","20","ND","ND","ND","ND","ND"],
    [6334,"03/18/2015 13:00","21,6","ND","ND","ND","ND","ND"],
    [6335,"03/18/2015 14:00","22,3","ND","ND","ND","ND","ND"],
    [6336,"03/18/2015 15:00","14,2","ND","ND","ND","ND","ND"],
    [6337,"03/18/2015 16:00","19,3","ND","ND","ND","ND","ND"],
    [6338,"03/18/2015 17:00","ND","ND","ND","ND","ND","ND"],
    [6339,"03/18/2015 18:00","16,8","ND","ND","ND","ND","ND"],
    [6340,"03/18/2015 19:00","60,1","ND","ND","ND","ND","ND"],
    [6341,"03/18/2015 20:00","42,4","ND","ND","ND","ND","ND"],
    [6342,"03/18/2015 21:00","38,6","ND","ND","ND","ND","ND"],
    [6343,"03/18/2015 22:00","46,7","ND","ND","ND","ND","ND"],
    [6344,"03/18/2015 23:00","57,1","ND","ND","ND","ND","ND"],
    [6345,"03/19/2015 00:00","24,6","ND","ND","ND","ND","ND"],
    [6346,"03/19/2015 01:00","22,6","ND","ND","ND","ND","ND"],
    [6347,"03/19/2015 02:00","36,1","ND","ND","ND","ND","ND"],
    [6348,"03/19/2015 03:00","23,8","ND","ND","ND","ND","ND"],
    [6349,"03/19/2015 04:00","28","ND","ND","ND","ND","ND"],
    [6350,"03/19/2015 05:00","26,2","ND","ND","ND","ND","ND"],
    [6351,"03/19/2015 06:00","41,9","ND","ND","ND","ND","ND"],
    [6352,"03/19/2015 07:00","52,9","ND","ND","ND","ND","ND"],
    [6353,"03/19/2015 08:00","69","ND","ND","ND","ND","ND"],
    [6354,"03/19/2015 09:00","69,8","ND","ND","ND","ND","ND"],
    [6355,"03/19/2015 10:00","65,8","ND","ND","ND","ND","ND"],
    [6356,"03/19/2015 11:00","44,6","ND","ND","ND","ND","ND"],
    [6357,"03/19/2015 12:00","25,6","ND","ND","ND","ND","ND"],
    [6358,"03/19/2015 13:00","22,2","ND","ND","ND","ND","ND"],
    [6359,"03/19/2015 14:00","31,5","ND","ND","ND","ND","ND"],
    [6360,"03/19/2015 15:00","33,8","ND","ND","ND","ND","ND"],
    [6361,"03/19/2015 16:00","13,4","ND","ND","ND","ND","ND"],
    [6362,"03/19/2015 17:00","9,4","ND","ND","ND","ND","ND"],
    [6363,"03/19/2015 18:00","18,8","ND","ND","ND","ND","ND"],
    [6364,"03/19/2015 19:00","13","ND","ND","ND","ND","ND"],
    [6365,"03/19/2015 20:00","10,6","ND","ND","ND","ND","ND"],
    [6366,"03/19/2015 21:00","24","ND","ND","ND","ND","ND"],
    [6367,"03/19/2015 22:00","29,3","ND","ND","ND","ND","ND"],
    [6368,"03/19/2015 23:00","23","ND","ND","ND","ND","ND"],
    [6369,"03/20/2015 00:00","22,6","ND","ND","ND","ND","ND"],
    [6370,"03/20/2015 01:00","24,2","ND","ND","ND","ND","ND"],
    [6371,"03/20/2015 02:00","50,8","ND","ND","ND","ND","ND"],
    [6372,"03/20/2015 03:00","28,5","ND","ND","ND","ND","ND"],
    [6373,"03/20/2015 04:00","28,2","ND","ND","ND","ND","ND"],
    [6374,"03/20/2015 05:00","46,6","ND","ND","ND","ND","ND"],
    [6375,"03/20/2015 06:00","51,6","ND","ND","ND","ND","ND"],
    [6376,"03/20/2015 07:00","51,3","ND","ND","ND","ND","ND"],
    [6377,"03/20/2015 08:00","43,5","ND","ND","ND","ND","ND"],
    [6378,"03/20/2015 09:00","34,8","ND","ND","ND","ND","ND"],
    [6379,"03/20/2015 10:00","35,8","ND","ND","ND","ND","ND"],
    [6380,"03/20/2015 11:00","35,8","ND","ND","ND","ND","ND"],
    [6381,"03/20/2015 12:00","36,8","ND","ND","ND","ND","ND"],
    [6382,"03/20/2015 13:00","18,1","ND","ND","ND","ND","ND"],
    [6383,"03/20/2015 14:00","22,1","ND","ND","ND","ND","ND"],
    [6384,"03/20/2015 15:00","14,3","ND","ND","ND","ND","ND"],
    [6385,"03/20/2015 16:00","4,5","ND","ND","ND","ND","ND"],
    [6386,"03/20/2015 17:00","ND","ND","ND","ND","ND","ND"],
    [6387,"03/20/2015 18:00","14,1","ND","ND","ND","ND","ND"],
    [6388,"03/20/2015 19:00","41,6","ND","ND","ND","ND","ND"],
    [6389,"03/20/2015 20:00","45,4","ND","ND","ND","ND","ND"],
    [6390,"03/20/2015 21:00","47","ND","ND","ND","ND","ND"],
    [6391,"03/20/2015 22:00","30,2","ND","ND","ND","ND","ND"],
    [6392,"03/20/2015 23:00","28,5","ND","ND","ND","ND","ND"],
    [6393,"03/21/2015 00:00","22,2","ND","ND","ND","ND","ND"],
    [6394,"03/21/2015 01:00","20,7","ND","ND","ND","ND","ND"],
    [6395,"03/21/2015 02:00","17,2","ND","ND","ND","ND","ND"],
    [6396,"03/21/2015 03:00","4,3","ND","ND","ND","ND","ND"],
    [6397,"03/21/2015 04:00","13,2","ND","ND","ND","ND","ND"],
    [6398,"03/21/2015 05:00","28,3","ND","ND","ND","ND","ND"],
    [6399,"03/21/2015 06:00","36,6","ND","ND","ND","ND","ND"],
    [6400,"03/21/2015 07:00","64,7","ND","ND","ND","ND","ND"],
    [6401,"03/21/2015 08:00","32","ND","ND","ND","ND","ND"],
    [6402,"03/21/2015 09:00","39,9","ND","ND","ND","ND","ND"],
    [6403,"03/21/2015 10:00","21,4","ND","ND","ND","ND","ND"],
    [6404,"03/21/2015 11:00","21,3","ND","ND","ND","ND","ND"],
    [6405,"03/21/2015 12:00","26,5","ND","ND","ND","ND","ND"],
    [6406,"03/21/2015 13:00","27","ND","ND","ND","ND","ND"],
    [6407,"03/21/2015 14:00","30,2","ND","ND","ND","ND","ND"],
    [6408,"03/21/2015 15:00","29,8","ND","ND","ND","ND","ND"],
    [6409,"03/21/2015 16:00","20,8","ND","ND","ND","ND","ND"],
    [6410,"03/21/2015 17:00","18,7","ND","ND","ND","ND","ND"],
    [6411,"03/21/2015 18:00","23,9","ND","ND","ND","ND","ND"],
    [6412,"03/21/2015 19:00","10,8","ND","ND","ND","ND","ND"],
    [6413,"03/21/2015 20:00","33,2","ND","ND","ND","ND","ND"],
    [6414,"03/21/2015 21:00","37,6","ND","ND","ND","ND","ND"],
    [6415,"03/21/2015 22:00","59,4","ND","ND","ND","ND","ND"],
    [6416,"03/21/2015 23:00","48,3","ND","ND","ND","ND","ND"],
    [6417,"03/22/2015 00:00","40,9","ND","ND","ND","ND","ND"],
    [6418,"03/22/2015 01:00","49,1","ND","ND","ND","ND","ND"],
    [6419,"03/22/2015 02:00","27,4","ND","ND","ND","ND","ND"],
    [6420,"03/22/2015 03:00","22,3","ND","ND","ND","ND","ND"],
    [6421,"03/22/2015 04:00","27,2","ND","ND","ND","ND","ND"],
    [6422,"03/22/2015 05:00","33,1","ND","ND","ND","ND","ND"],
    [6423,"03/22/2015 06:00","22,5","ND","ND","ND","ND","ND"],
    [6424,"03/22/2015 07:00","29,6","ND","ND","ND","ND","ND"],
    [6425,"03/22/2015 08:00","31,2","ND","ND","ND","ND","ND"],
    [6426,"03/22/2015 09:00","47","ND","ND","ND","ND","ND"],
    [6427,"03/22/2015 10:00","42,8","ND","ND","ND","ND","ND"],
    [6428,"03/22/2015 11:00","33,2","ND","ND","ND","ND","ND"],
    [6429,"03/22/2015 12:00","29,2","ND","ND","ND","ND","ND"],
    [6430,"03/22/2015 13:00","32,7","ND","ND","ND","ND","ND"],
    [6431,"03/22/2015 14:00","39,4","ND","ND","ND","ND","ND"],
    [6432,"03/22/2015 15:00","27","ND","ND","ND","ND","ND"],
    [6433,"03/22/2015 16:00","22,5","ND","ND","ND","ND","ND"],
    [6434,"03/22/2015 17:00","21,9","ND","ND","ND","ND","ND"],
    [6435,"03/22/2015 18:00","12,6","ND","ND","ND","ND","ND"],
    [6436,"03/22/2015 19:00","13,2","ND","ND","ND","ND","ND"],
    [6437,"03/22/2015 20:00","14,5","ND","ND","ND","ND","ND"],
    [6438,"03/22/2015 21:00","36,4","ND","ND","ND","ND","ND"],
    [6439,"03/22/2015 22:00","56,1","ND","ND","ND","ND","ND"],
    [6440,"03/22/2015 23:00","35,8","ND","ND","ND","ND","ND"],
    [6441,"03/23/2015 00:00","37,5","ND","ND","ND","ND","ND"],
    [6442,"03/23/2015 01:00","26,7","ND","ND","ND","ND","ND"],
    [6443,"03/23/2015 02:00","36,1","ND","ND","ND","ND","ND"],
    [6444,"03/23/2015 03:00","26,5","ND","ND","ND","ND","ND"],
    [6445,"03/23/2015 04:00","33,2","ND","ND","ND","ND","ND"],
    [6446,"03/23/2015 05:00","26,8","ND","ND","ND","ND","ND"],
    [6447,"03/23/2015 06:00","29,9","ND","ND","ND","ND","ND"],
    [6448,"03/23/2015 07:00","40,7","ND","ND","ND","ND","ND"],
    [6449,"03/23/2015 08:00","53,6","ND","ND","ND","ND","ND"],
    [6450,"03/23/2015 09:00","51,7","ND","ND","ND","ND","ND"],
    [6451,"03/23/2015 10:00","39","ND","ND","ND","ND","ND"],
    [6452,"03/23/2015 11:00","32,3","ND","ND","ND","ND","ND"],
    [6453,"03/23/2015 12:00","32,9","ND","ND","ND","ND","ND"],
    [6454,"03/23/2015 13:00","32,9","ND","ND","ND","ND","ND"],
    [6455,"03/23/2015 14:00","33,9","ND","ND","ND","ND","ND"],
    [6456,"03/23/2015 15:00","23,7","ND","ND","ND","ND","ND"],
    [6457,"03/23/2015 16:00","20,6","ND","ND","ND","ND","ND"],
    [6458,"03/23/2015 17:00","19,6","ND","ND","ND","ND","ND"],
    [6459,"03/23/2015 18:00","35,8","ND","ND","ND","ND","ND"],
    [6460,"03/23/2015 19:00","39,9","ND","ND","ND","ND","ND"],
    [6461,"03/23/2015 20:00","37,4","ND","ND","ND","ND","ND"],
    [6462,"03/23/2015 21:00","30","ND","ND","ND","ND","ND"],
    [6463,"03/23/2015 22:00","30,3","ND","ND","ND","ND","ND"],
    [6464,"03/23/2015 23:00","30,6","ND","ND","ND","ND","ND"],
    [6465,"03/24/2015 00:00","46,1","ND","ND","ND","ND","ND"],
    [6466,"03/24/2015 01:00","33,7","ND","ND","ND","ND","ND"],
    [6467,"03/24/2015 02:00","32,2","ND","ND","ND","ND","ND"],
    [6468,"03/24/2015 03:00","29,6","ND","ND","ND","ND","ND"],
    [6469,"03/24/2015 04:00","28,2","ND","ND","ND","ND","ND"],
    [6470,"03/24/2015 05:00","28,7","ND","ND","ND","ND","ND"],
    [6471,"03/24/2015 06:00","37,2","ND","ND","ND","ND","ND"],
    [6472,"03/24/2015 07:00","59,9","ND","ND","ND","ND","ND"],
    [6473,"03/24/2015 08:00","96,5","ND","ND","ND","ND","ND"],
    [6474,"03/24/2015 09:00","105,1","ND","ND","ND","ND","ND"],
    [6475,"03/24/2015 10:00","65,1","ND","ND","ND","ND","ND"],
    [6476,"03/24/2015 11:00","41,7","ND","ND","ND","ND","ND"],
    [6477,"03/24/2015 12:00","35,5","ND","ND","ND","ND","ND"],
    [6478,"03/24/2015 13:00","35,9","ND","ND","ND","ND","ND"],
    [6479,"03/24/2015 14:00","41,9","ND","ND","ND","ND","ND"],
    [6480,"03/24/2015 15:00","43,3","ND","ND","ND","ND","ND"],
    [6481,"03/24/2015 16:00","43,3","ND","ND","ND","ND","ND"],
    [6482,"03/24/2015 17:00","25,8","ND","ND","ND","ND","ND"],
    [6483,"03/24/2015 18:00","27,9","ND","ND","ND","ND","ND"],
    [6484,"03/24/2015 19:00","19,2","ND","ND","ND","ND","ND"],
    [6485,"03/24/2015 20:00","12,7","ND","ND","ND","ND","ND"],
    [6486,"03/24/2015 21:00","49","ND","ND","ND","ND","ND"],
    [6487,"03/24/2015 22:00","56,2","ND","ND","ND","ND","ND"],
    [6488,"03/24/2015 23:00","54,1","ND","ND","ND","ND","ND"],
    [6489,"03/25/2015 00:00","29","ND","ND","ND","ND","ND"],
    [6490,"03/25/2015 01:00","49,8","ND","ND","ND","ND","ND"],
    [6491,"03/25/2015 02:00","45,7","ND","ND","ND","ND","ND"],
    [6492,"03/25/2015 03:00","40","ND","ND","ND","ND","ND"],
    [6493,"03/25/2015 04:00","43,5","ND","ND","ND","ND","ND"],
    [6494,"03/25/2015 05:00","32,1","ND","ND","ND","ND","ND"],
    [6495,"03/25/2015 06:00","39,1","ND","ND","ND","ND","ND"],
    [6496,"03/25/2015 07:00","72,1","ND","ND","ND","ND","ND"],
    [6497,"03/25/2015 08:00","68,3","ND","ND","ND","ND","ND"],
    [6498,"03/25/2015 09:00","59,6","ND","ND","ND","ND","ND"],
    [6499,"03/25/2015 10:00","57,6","ND","ND","ND","ND","ND"],
    [6500,"03/25/2015 11:00","54,6","ND","ND","ND","ND","ND"],
    [6501,"03/25/2015 12:00","49,7","ND","ND","ND","ND","ND"],
    [6502,"03/25/2015 13:00","43,5","ND","ND","ND","ND","ND"],
    [6503,"03/25/2015 14:00","17","ND","ND","ND","ND","ND"],
    [6504,"03/25/2015 15:00","16,5","ND","ND","ND","ND","ND"],
    [6505,"03/25/2015 16:00","15,5","ND","ND","ND","ND","ND"],
    [6506,"03/25/2015 17:00","18,3","ND","ND","ND","ND","ND"],
    [6507,"03/25/2015 18:00","20,3","ND","ND","ND","ND","ND"],
    [6508,"03/25/2015 19:00","15,3","ND","ND","ND","ND","ND"],
    [6509,"03/25/2015 20:00","19,7","ND","ND","ND","ND","ND"],
    [6510,"03/25/2015 21:00","23,9","ND","ND","ND","ND","ND"],
    [6511,"03/25/2015 22:00","28,5","ND","ND","ND","ND","ND"],
    [6512,"03/25/2015 23:00","34,2","ND","ND","ND","ND","ND"],
    [6513,"03/26/2015 00:00","38,6","ND","ND","ND","ND","ND"],
    [6514,"03/26/2015 01:00","32,6","ND","ND","ND","ND","ND"],
    [6515,"03/26/2015 02:00","30,6","ND","ND","ND","ND","ND"],
    [6516,"03/26/2015 03:00","27,9","ND","ND","ND","ND","ND"],
    [6517,"03/26/2015 04:00","27,7","ND","ND","ND","ND","ND"],
    [6518,"03/26/2015 05:00","27,2","ND","ND","ND","ND","ND"],
    [6519,"03/26/2015 06:00","53,2","ND","ND","ND","ND","ND"],
    [6520,"03/26/2015 07:00","66,6","ND","ND","ND","ND","ND"],
    [6521,"03/26/2015 08:00","70,3","ND","ND","ND","ND","ND"],
    [6522,"03/26/2015 09:00","68,8","ND","ND","ND","ND","ND"],
    [6523,"03/26/2015 10:00","61,9","ND","ND","ND","ND","ND"],
    [6524,"03/26/2015 11:00","39,9","ND","ND","ND","ND","ND"],
    [6525,"03/26/2015 12:00","38,9","ND","ND","ND","ND","ND"],
    [6526,"03/26/2015 13:00","34,6","ND","ND","ND","ND","ND"],
    [6527,"03/26/2015 14:00","35","ND","ND","ND","ND","ND"],
    [6528,"03/26/2015 15:00","21,5","ND","ND","ND","ND","ND"],
    [6529,"03/26/2015 16:00","15,2","ND","ND","ND","ND","ND"],
    [6530,"03/26/2015 17:00","16,4","ND","ND","ND","ND","ND"],
    [6531,"03/26/2015 18:00","22,6","ND","ND","ND","ND","ND"],
    [6532,"03/26/2015 19:00","26,5","ND","ND","ND","ND","ND"],
    [6533,"03/26/2015 20:00","36","ND","ND","ND","ND","ND"],
    [6534,"03/26/2015 21:00","42,7","ND","ND","ND","ND","ND"],
    [6535,"03/26/2015 22:00","57,7","ND","ND","ND","ND","ND"],
    [6536,"03/26/2015 23:00","42,8","ND","ND","ND","ND","ND"],
    [6537,"03/27/2015 00:00","65,9","ND","ND","ND","ND","ND"],
    [6538,"03/27/2015 01:00","29,3","ND","ND","ND","ND","ND"],
    [6539,"03/27/2015 02:00","24,8","ND","ND","ND","ND","ND"],
    [6540,"03/27/2015 03:00","31,4","ND","ND","ND","ND","ND"],
    [6541,"03/27/2015 04:00","40,7","ND","ND","ND","ND","ND"],
    [6542,"03/27/2015 05:00","46,2","ND","ND","ND","ND","ND"],
    [6543,"03/27/2015 06:00","55,9","ND","ND","ND","ND","ND"],
    [6544,"03/27/2015 07:00","74,7","ND","ND","ND","ND","ND"],
    [6545,"03/27/2015 08:00","61,1","ND","ND","ND","ND","ND"],
    [6546,"03/27/2015 09:00","67,3","ND","ND","ND","ND","ND"],
    [6547,"03/27/2015 10:00","67,3","ND","ND","ND","ND","ND"],
    [6548,"03/27/2015 11:00","50,3","ND","ND","ND","ND","ND"],
    [6549,"03/27/2015 12:00","38,8","ND","ND","ND","ND","ND"],
    [6550,"03/27/2015 13:00","43,2","ND","ND","ND","ND","ND"],
    [6551,"03/27/2015 14:00","38","ND","ND","ND","ND","ND"],
    [6552,"03/27/2015 15:00","37,6","ND","ND","ND","ND","ND"],
    [6553,"03/27/2015 16:00","69,5","ND","ND","ND","ND","ND"],
    [6554,"03/27/2015 17:00","31,4","ND","ND","ND","ND","ND"],
    [6555,"03/27/2015 18:00","32,9","ND","ND","ND","ND","ND"],
    [6556,"03/27/2015 19:00","20,8","ND","ND","ND","ND","ND"],
    [6557,"03/27/2015 20:00","33,5","ND","ND","ND","ND","ND"],
    [6558,"03/27/2015 21:00","30,8","ND","ND","ND","ND","ND"],
    [6559,"03/27/2015 22:00","30,8","ND","ND","ND","ND","ND"],
    [6560,"03/27/2015 23:00","65,3","ND","ND","ND","ND","ND"],
    [6561,"03/28/2015 00:00","22,6","ND","ND","ND","ND","ND"],
    [6562,"03/28/2015 01:00","65,3","ND","ND","ND","ND","ND"],
    [6563,"03/28/2015 02:00","36,7","ND","ND","ND","ND","ND"],
    [6564,"03/28/2015 03:00","37,3","ND","ND","ND","ND","ND"],
    [6565,"03/28/2015 04:00","36,3","ND","ND","ND","ND","ND"],
    [6566,"03/28/2015 05:00","43,8","ND","ND","ND","ND","ND"],
    [6567,"03/28/2015 06:00","56,4","ND","ND","ND","ND","ND"],
    [6568,"03/28/2015 07:00","70,7","ND","ND","ND","ND","ND"],
    [6569,"03/28/2015 08:00","70,1","ND","ND","ND","ND","ND"],
    [6570,"03/28/2015 09:00","73,3","ND","ND","ND","ND","ND"],
    [6571,"03/28/2015 10:00","36,6","ND","ND","ND","ND","ND"],
    [6572,"03/28/2015 11:00","25,2","ND","ND","ND","ND","ND"],
    [6573,"03/28/2015 12:00","39,9","ND","ND","ND","ND","ND"],
    [6574,"03/28/2015 13:00","41,9","ND","ND","ND","ND","ND"],
    [6575,"03/28/2015 14:00","13,2","ND","ND","ND","ND","ND"],
    [6576,"03/28/2015 15:00","10,7","ND","ND","ND","ND","ND"],
    [6577,"03/28/2015 16:00","15,5","ND","ND","ND","ND","ND"],
    [6578,"03/28/2015 17:00","7,8","ND","ND","ND","ND","ND"],
    [6579,"03/28/2015 18:00","29,9","ND","ND","ND","ND","ND"],
    [6580,"03/28/2015 19:00","49,9","ND","ND","ND","ND","ND"],
    [6581,"03/28/2015 20:00","46,1","ND","ND","ND","ND","ND"],
    [6582,"03/28/2015 21:00","21,8","ND","ND","ND","ND","ND"],
    [6583,"03/28/2015 22:00","21,8","ND","ND","ND","ND","ND"],
    [6584,"03/28/2015 23:00","20,2","ND","ND","ND","ND","ND"],
    [6585,"03/29/2015 00:00","26","ND","ND","ND","ND","ND"],
    [6586,"03/29/2015 01:00","22,4","ND","ND","ND","ND","ND"],
    [6587,"03/29/2015 02:00","31,3","ND","ND","ND","ND","ND"],
    [6588,"03/29/2015 03:00","37,6","ND","ND","ND","ND","ND"],
    [6589,"03/29/2015 04:00","37,6","ND","ND","ND","ND","ND"],
    [6590,"03/29/2015 05:00","27,2","ND","ND","ND","ND","ND"],
    [6591,"03/29/2015 06:00","18,4","ND","ND","ND","ND","ND"],
    [6592,"03/29/2015 07:00","20,1","ND","ND","ND","ND","ND"],
    [6593,"03/29/2015 08:00","22,1","ND","ND","ND","ND","ND"],
    [6594,"03/29/2015 09:00","21,5","ND","ND","ND","ND","ND"],
    [6595,"03/29/2015 10:00","6,5","ND","ND","ND","ND","ND"],
    [6596,"03/29/2015 11:00","8,3","ND","ND","ND","ND","ND"],
    [6597,"03/29/2015 12:00","11,6","ND","ND","ND","ND","ND"],
    [6598,"03/29/2015 13:00","7,5","ND","ND","ND","ND","ND"],
    [6599,"03/29/2015 14:00","8,7","ND","ND","ND","ND","ND"],
    [6600,"03/29/2015 15:00","8,7","ND","ND","ND","ND","ND"],
    [6601,"03/29/2015 16:00","20,5","ND","ND","ND","ND","ND"],
    [6602,"03/29/2015 17:00","19,5","ND","ND","ND","ND","ND"],
    [6603,"03/29/2015 18:00","23,6","ND","ND","ND","ND","ND"],
    [6604,"03/29/2015 19:00","23,6","ND","ND","ND","ND","ND"],
    [6605,"03/29/2015 20:00","28,7","ND","ND","ND","ND","ND"],
    [6606,"03/29/2015 21:00","28","ND","ND","ND","ND","ND"],
    [6607,"03/29/2015 22:00","28","ND","ND","ND","ND","ND"],
    [6608,"03/29/2015 23:00","24,3","ND","ND","ND","ND","ND"],
    [6609,"03/30/2015 00:00","34,2","ND","ND","ND","ND","ND"],
    [6610,"03/30/2015 01:00","19,9","ND","ND","ND","ND","ND"],
    [6611,"03/30/2015 02:00","30,1","ND","ND","ND","ND","ND"],
    [6612,"03/30/2015 03:00","18,8","ND","ND","ND","ND","ND"],
    [6613,"03/30/2015 04:00","18,1","ND","ND","ND","ND","ND"],
    [6614,"03/30/2015 05:00","17,6","ND","ND","ND","ND","ND"],
    [6615,"03/30/2015 06:00","23,1","ND","ND","ND","ND","ND"],
    [6616,"03/30/2015 07:00","39,7","ND","ND","ND","ND","ND"],
    [6617,"03/30/2015 08:00","50,6","ND","ND","ND","ND","ND"],
    [6618,"03/30/2015 09:00","47","ND","ND","ND","ND","ND"],
    [6619,"03/30/2015 10:00","29,3","ND","ND","ND","ND","ND"],
    [6620,"03/30/2015 11:00","41","ND","ND","ND","ND","ND"],
    [6621,"03/30/2015 12:00","40,2","ND","ND","ND","ND","ND"],
    [6622,"03/30/2015 13:00","43,1","ND","ND","ND","ND","ND"],
    [6623,"03/30/2015 14:00","48,2","ND","ND","ND","ND","ND"],
    [6624,"03/30/2015 15:00","18,6","ND","ND","ND","ND","ND"],
    [6625,"03/30/2015 16:00","23,3","ND","ND","ND","ND","ND"],
    [6626,"03/30/2015 17:00","10,6","ND","ND","ND","ND","ND"],
    [6627,"03/30/2015 18:00","20,8","ND","ND","ND","ND","ND"],
    [6628,"03/30/2015 19:00","26,6","ND","ND","ND","ND","ND"],
    [6629,"03/30/2015 20:00","41,8","ND","ND","ND","ND","ND"],
    [6630,"03/30/2015 21:00","42,4","ND","ND","ND","ND","ND"],
    [6631,"03/30/2015 22:00","42,4","ND","ND","ND","ND","ND"],
    [6632,"03/30/2015 23:00","34,4","ND","ND","ND","ND","ND"],
    [6633,"03/31/2015 00:00","72,6","ND","ND","ND","ND","ND"],
    [6634,"03/31/2015 01:00","26,9","ND","ND","ND","ND","ND"],
    [6635,"03/31/2015 02:00","26,3","ND","ND","ND","ND","ND"],
    [6636,"03/31/2015 03:00","25,6","ND","ND","ND","ND","ND"],
    [6637,"03/31/2015 04:00","25,9","ND","ND","ND","ND","ND"],
    [6638,"03/31/2015 05:00","34,8","ND","ND","ND","ND","ND"],
    [6639,"03/31/2015 06:00","49,4","ND","ND","ND","ND","ND"],
    [6640,"03/31/2015 07:00","86,9","ND","ND","ND","ND","ND"],
    [6641,"03/31/2015 08:00","97,1","ND","ND","ND","ND","ND"],
    [6642,"03/31/2015 09:00","134,8","ND","ND","ND","ND","ND"],
    [6643,"03/31/2015 10:00","106,9","ND","ND","ND","ND","ND"],
    [6644,"03/31/2015 11:00","73,1","ND","ND","ND","ND","ND"],
    [6645,"03/31/2015 12:00","45,8","ND","ND","ND","ND","ND"],
    [6646,"03/31/2015 13:00","45,4","ND","ND","ND","ND","ND"],
    [6647,"03/31/2015 14:00","40,8","ND","ND","ND","ND","ND"],
    [6648,"03/31/2015 15:00","47,4","ND","ND","ND","ND","ND"],
    [6649,"03/31/2015 16:00","50,5","ND","ND","ND","ND","ND"],
    [6650,"03/31/2015 17:00","38,5","ND","ND","ND","ND","ND"],
    [6651,"03/31/2015 18:00","28,5","ND","ND","ND","ND","ND"],
    [6652,"03/31/2015 19:00","25","ND","ND","ND","ND","ND"],
    [6653,"03/31/2015 20:00","32,8","ND","ND","ND","ND","ND"],
    [6654,"03/31/2015 21:00","32,4","ND","ND","ND","ND","ND"],
    [6655,"03/31/2015 22:00","35,1","ND","ND","ND","ND","ND"],
    [6656,"03/31/2015 23:00","48,9","ND","ND","ND","ND","ND"],
    [6657,"42008","27,2","ND","ND","ND","ND","ND"],
    [6658,"42008,04167","58","ND","ND","ND","ND","ND"],
    [6659,"42008,08333","48","ND","ND","ND","ND","ND"],
    [6660,"42008,125","54,4","ND","ND","ND","ND","ND"],
    [6661,"42008,16667","55,2","ND","ND","ND","ND","ND"],
    [6662,"42008,20833","53,3","ND","ND","ND","ND","ND"],
    [6663,"42008,25","63,1","ND","ND","ND","ND","ND"],
    [6664,"42008,29167","70,1","ND","ND","ND","ND","ND"],
    [6665,"42008,33333","49,7","ND","ND","ND","ND","ND"],
    [6666,"42008,375","44,5","ND","ND","ND","ND","ND"],
    [6667,"42008,41667","41,3","ND","ND","ND","ND","ND"],
    [6668,"42008,45833","18,1","ND","ND","ND","ND","ND"],
    [6669,"42008,5","20,3","ND","ND","ND","ND","ND"],
    [6670,"42008,54167","21,1","ND","ND","ND","ND","ND"],
    [6671,"42008,58333","29","ND","ND","ND","ND","ND"],
    [6672,"42008,625","21,8","ND","ND","ND","ND","ND"],
    [6673,"42008,66667","6,3","ND","ND","ND","ND","ND"],
    [6674,"42008,70833","7,3","ND","ND","ND","ND","ND"],
    [6675,"42008,75","15,9","ND","ND","ND","ND","ND"],
    [6676,"42008,79167","13,5","ND","ND","ND","ND","ND"],
    [6677,"42008,83333","32,2","ND","ND","ND","ND","ND"],
    [6678,"42008,875","22,2","ND","ND","ND","ND","ND"],
    [6679,"42008,91667","26,7","ND","ND","ND","ND","ND"],
    [6680,"42008,95833","29,1","ND","ND","ND","ND","ND"],
    [6681,"42039","37,3","ND","ND","ND","ND","ND"],
    [6682,"42039,04167","7,1","ND","ND","ND","ND","ND"],
    [6683,"42039,08333","21","ND","ND","ND","ND","ND"],
    [6684,"42039,125","20,4","ND","ND","ND","ND","ND"],
    [6685,"42039,16667","33,9","ND","ND","ND","ND","ND"],
    [6686,"42039,20833","26,7","ND","ND","ND","ND","ND"],
    [6687,"42039,25","43,2","ND","ND","ND","ND","ND"],
    [6688,"42039,29167","32,3","ND","ND","ND","ND","ND"],
    [6689,"42039,33333","33,6","ND","ND","ND","ND","ND"],
    [6690,"42039,375","34","ND","ND","ND","ND","ND"],
    [6691,"42039,41667","23,7","ND","ND","ND","ND","ND"],
    [6692,"42039,45833","20,5","ND","ND","ND","ND","ND"],
    [6693,"42039,5","15,6","ND","ND","ND","ND","ND"],
    [6694,"42039,54167","20,6","ND","ND","ND","ND","ND"],
    [6695,"42039,58333","19,2","ND","ND","ND","ND","ND"],
    [6696,"42039,625","19,2","ND","ND","ND","ND","ND"],
    [6697,"42039,66667","24,2","ND","ND","ND","ND","ND"],
    [6698,"42039,70833","10,9","ND","ND","ND","ND","ND"],
    [6699,"42039,75","10,2","ND","ND","ND","ND","ND"],
    [6700,"42039,79167","8,9","ND","ND","ND","ND","ND"],
    [6701,"42039,83333","11,4","ND","ND","ND","ND","ND"],
    [6702,"42039,875","19,3","ND","ND","ND","ND","ND"],
    [6703,"42039,91667","21,5","ND","ND","ND","ND","ND"],
    [6704,"42039,95833","44,9","ND","ND","ND","ND","ND"],
    [6705,"42067","23,1","ND","ND","ND","ND","ND"],
    [6706,"42067,04167","43,3","ND","ND","ND","ND","ND"],
    [6707,"42067,08333","36,7","ND","ND","ND","ND","ND"],
    [6708,"42067,125","40,7","ND","ND","ND","ND","ND"],
    [6709,"42067,16667","28,2","ND","ND","ND","ND","ND"],
    [6710,"42067,20833","28,8","ND","ND","ND","ND","ND"],
    [6711,"42067,25","24,8","ND","ND","ND","ND","ND"],
    [6712,"42067,29167","27","ND","ND","ND","ND","ND"],
    [6713,"42067,33333","33,4","ND","ND","ND","ND","ND"],
    [6714,"42067,375","36,8","ND","ND","ND","ND","ND"],
    [6715,"42067,41667","29,6","ND","ND","ND","ND","ND"],
    [6716,"42067,45833","11,9","ND","ND","ND","ND","ND"],
    [6717,"42067,5","21,7","ND","ND","ND","ND","ND"],
    [6718,"42067,54167","19,4","ND","ND","ND","ND","ND"],
    [6719,"42067,58333","33,6","ND","ND","ND","ND","ND"],
    [6720,"42067,625","38,4","ND","ND","ND","ND","ND"],
    [6721,"42067,66667","31,7","ND","ND","ND","ND","ND"],
    [6722,"42067,70833","14,7","ND","ND","ND","ND","ND"],
    [6723,"42067,75","14,9","ND","ND","ND","ND","ND"],
    [6724,"42067,79167","15","ND","ND","ND","ND","ND"],
    [6725,"42067,83333","23,9","ND","ND","ND","ND","ND"],
    [6726,"42067,875","19,7","ND","ND","ND","ND","ND"],
    [6727,"42067,91667","26,5","ND","ND","ND","ND","ND"],
    [6728,"42067,95833","24,8","ND","ND","ND","ND","ND"],
    [6729,"42098","50,3","ND","ND","ND","ND","ND"],
    [6730,"42098,04167","25,1","ND","ND","ND","ND","ND"],
    [6731,"42098,08333","26","ND","ND","ND","ND","ND"],
    [6732,"42098,125","22,3","ND","ND","ND","ND","ND"],
    [6733,"42098,16667","15,1","ND","ND","ND","ND","ND"],
    [6734,"42098,20833","27","ND","ND","ND","ND","ND"],
    [6735,"42098,25","35,2","ND","ND","ND","ND","ND"],
    [6736,"42098,29167","36,7","ND","ND","ND","ND","ND"],
    [6737,"42098,33333","37,6","ND","ND","ND","ND","ND"],
    [6738,"42098,375","37,6","ND","ND","ND","ND","ND"],
    [6739,"42098,41667","40,5","ND","ND","ND","ND","ND"],
    [6740,"42098,45833","43","ND","ND","ND","ND","ND"],
    [6741,"42098,5","36","ND","ND","ND","ND","ND"],
    [6742,"42098,54167","36,4","ND","ND","ND","ND","ND"],
    [6743,"42098,58333","45","ND","ND","ND","ND","ND"],
    [6744,"42098,625","18,9","ND","ND","ND","ND","ND"],
    [6745,"42098,66667","7,6","ND","ND","ND","ND","ND"],
    [6746,"42098,70833","31,5","ND","ND","ND","ND","ND"],
    [6747,"42098,75","35,1","ND","ND","ND","ND","ND"],
    [6748,"42098,79167","41,6","ND","ND","ND","ND","ND"],
    [6749,"42098,83333","39,9","ND","ND","ND","ND","ND"],
    [6750,"42098,875","49,5","ND","ND","ND","ND","ND"],
    [6751,"42098,91667","49,6","ND","ND","ND","ND","ND"],
    [6752,"42098,95833","26,3","ND","ND","ND","ND","ND"],
    [6753,"42128","58,6","ND","ND","ND","ND","ND"],
    [6754,"42128,04167","38,7","ND","ND","ND","ND","ND"],
    [6755,"42128,08333","31,4","ND","ND","ND","ND","ND"],
    [6756,"42128,125","24,8","ND","ND","ND","ND","ND"],
    [6757,"42128,16667","25,1","ND","ND","ND","ND","ND"],
    [6758,"42128,20833","31,3","ND","ND","ND","ND","ND"],
    [6759,"42128,25","33,8","ND","ND","ND","ND","ND"],
    [6760,"42128,29167","45,4","ND","ND","ND","ND","ND"],
    [6761,"42128,33333","36","ND","ND","ND","ND","ND"],
    [6762,"42128,375","38,8","ND","ND","ND","ND","ND"],
    [6763,"42128,41667","22,9","ND","ND","ND","ND","ND"],
    [6764,"42128,45833","18,5","ND","ND","ND","ND","ND"],
    [6765,"42128,5","32,9","ND","ND","ND","ND","ND"],
    [6766,"42128,54167","50,5","ND","ND","ND","ND","ND"],
    [6767,"42128,58333","51,1","ND","ND","ND","ND","ND"],
    [6768,"42128,625","36,2","ND","ND","ND","ND","ND"],
    [6769,"42128,66667","18,1","ND","ND","ND","ND","ND"],
    [6770,"42128,70833","31,5","ND","ND","ND","ND","ND"],
    [6771,"42128,75","47,4","ND","ND","ND","ND","ND"],
    [6772,"42128,79167","52,8","ND","ND","ND","ND","ND"],
    [6773,"42128,83333","58","ND","ND","ND","ND","ND"],
    [6774,"42128,875","53","ND","ND","ND","ND","ND"],
    [6775,"42128,91667","39,5","ND","ND","ND","ND","ND"],
    [6776,"42128,95833","46","ND","ND","ND","ND","ND"],
    [6777,"42159","40,6","ND","ND","ND","ND","ND"],
    [6778,"42159,04167","47,6","ND","ND","ND","ND","ND"],
    [6779,"42159,08333","55,1","ND","ND","ND","ND","ND"],
    [6780,"42159,125","31","ND","ND","ND","ND","ND"],
    [6781,"42159,16667","37","ND","ND","ND","ND","ND"],
    [6782,"42159,20833","37","ND","ND","ND","ND","ND"],
    [6783,"42159,25","39,2","ND","ND","ND","ND","ND"],
    [6784,"42159,29167","78,3","ND","ND","ND","ND","ND"],
    [6785,"42159,33333","59,9","ND","ND","ND","ND","ND"],
    [6786,"42159,375","37,8","ND","ND","ND","ND","ND"],
    [6787,"42159,41667","69,2","ND","ND","ND","ND","ND"],
    [6788,"42159,45833","45,9","ND","ND","ND","ND","ND"],
    [6789,"42159,5","42,7","ND","ND","ND","ND","ND"],
    [6790,"42159,54167","45,4","ND","ND","ND","ND","ND"],
    [6791,"42159,58333","44,4","ND","ND","ND","ND","ND"],
    [6792,"42159,625","46,2","ND","ND","ND","ND","ND"],
    [6793,"42159,66667","35","ND","ND","ND","ND","ND"],
    [6794,"42159,70833","18,1","ND","ND","ND","ND","ND"],
    [6795,"42159,75","30,4","ND","ND","ND","ND","ND"],
    [6796,"42159,79167","22,1","ND","ND","ND","ND","ND"],
    [6797,"42159,83333","19,2","ND","ND","ND","ND","ND"],
    [6798,"42159,875","20,3","ND","ND","ND","ND","ND"],
    [6799,"42159,91667","38,8","ND","ND","ND","ND","ND"],
    [6800,"42159,95833","41,9","ND","ND","ND","ND","ND"],
    [6801,"42189","26,8","ND","ND","ND","ND","ND"],
    [6802,"42189,04167","39,5","ND","ND","ND","ND","ND"],
    [6803,"42189,08333","33,1","ND","ND","ND","ND","ND"],
    [6804,"42189,125","33,1","ND","ND","ND","ND","ND"],
    [6805,"42189,16667","27,5","ND","ND","ND","ND","ND"],
    [6806,"42189,20833","36,5","ND","ND","ND","ND","ND"],
    [6807,"42189,25","32","ND","ND","ND","ND","ND"],
    [6808,"42189,29167","47,6","ND","ND","ND","ND","ND"],
    [6809,"42189,33333","54,4","ND","ND","ND","ND","ND"],
    [6810,"42189,375","57,2","ND","ND","ND","ND","ND"],
    [6811,"42189,41667","70,3","ND","ND","ND","ND","ND"],
    [6812,"42189,45833","55","ND","ND","ND","ND","ND"],
    [6813,"42189,5","40,8","ND","ND","ND","ND","ND"],
    [6814,"42189,54167","31,8","ND","ND","ND","ND","ND"],
    [6815,"42189,58333","27,6","ND","ND","ND","ND","ND"],
    [6816,"42189,625","23,6","ND","ND","ND","ND","ND"],
    [6817,"42189,66667","42,4","ND","ND","ND","ND","ND"],
    [6818,"42189,70833","20","ND","ND","ND","ND","ND"],
    [6819,"42189,75","13,8","ND","ND","ND","ND","ND"],
    [6820,"42189,79167","10,3","ND","ND","ND","ND","ND"],
    [6821,"42189,83333","37,9","ND","ND","ND","ND","ND"],
    [6822,"42189,875","18,5","ND","ND","ND","ND","ND"],
    [6823,"42189,91667","31,5","ND","ND","ND","ND","ND"],
    [6824,"42189,95833","25,7","ND","ND","ND","ND","ND"],
    [6825,"42220","39,5","ND","ND","ND","ND","ND"],
    [6826,"42220,04167","26,2","ND","ND","ND","ND","ND"],
    [6827,"42220,08333","20,9","ND","ND","ND","ND","ND"],
    [6828,"42220,125","17,8","ND","ND","ND","ND","ND"],
    [6829,"42220,16667","16,4","ND","ND","ND","ND","ND"],
    [6830,"42220,20833","16,4","ND","ND","ND","ND","ND"],
    [6831,"42220,25","32,9","ND","ND","ND","ND","ND"],
    [6832,"42220,29167","60,9","ND","ND","ND","ND","ND"],
    [6833,"42220,33333","81","ND","ND","ND","ND","ND"],
    [6834,"42220,375","87,7","ND","ND","ND","ND","ND"],
    [6835,"42220,41667","68,3","ND","ND","ND","ND","ND"],
    [6836,"42220,45833","43,9","ND","ND","ND","ND","ND"],
    [6837,"42220,5","41,2","ND","ND","ND","ND","ND"],
    [6838,"42220,54167","41,2","ND","ND","ND","ND","ND"],
    [6839,"42220,58333","32,5","ND","ND","ND","ND","ND"],
    [6840,"42220,625","24,1","ND","ND","ND","ND","ND"],
    [6841,"42220,66667","7,9","ND","ND","ND","ND","ND"],
    [6842,"42220,70833","52,5","ND","ND","ND","ND","ND"],
    [6843,"42220,75","32,8","ND","ND","ND","ND","ND"],
    [6844,"42220,79167","54,4","ND","ND","ND","ND","ND"],
    [6845,"42220,83333","61,2","ND","ND","ND","ND","ND"],
    [6846,"42220,875","44,6","ND","ND","ND","ND","ND"],
    [6847,"42220,91667","49,4","ND","ND","ND","ND","ND"],
    [6848,"42220,95833","49,4","ND","ND","ND","ND","ND"],
    [6849,"42251","40,8","ND","ND","ND","ND","ND"],
    [6850,"42251,04167","27,2","ND","ND","ND","ND","ND"],
    [6851,"42251,08333","30","ND","ND","ND","ND","ND"],
    [6852,"42251,125","32,6","ND","ND","ND","ND","ND"],
    [6853,"42251,16667","37,9","ND","ND","ND","ND","ND"],
    [6854,"42251,20833","28,2","ND","ND","ND","ND","ND"],
    [6855,"42251,25","56,8","ND","ND","ND","ND","ND"],
    [6856,"42251,29167","102,1","ND","ND","ND","ND","ND"],
    [6857,"42251,33333","91","ND","ND","ND","ND","ND"],
    [6858,"42251,375","96,5","ND","ND","ND","ND","ND"],
    [6859,"42251,41667","84,1","ND","ND","ND","ND","ND"],
    [6860,"42251,45833","64,8","ND","ND","ND","ND","ND"],
    [6861,"42251,5","47,2","ND","ND","ND","ND","ND"],
    [6862,"42251,54167","44,2","ND","ND","ND","ND","ND"],
    [6863,"42251,58333","49,5","ND","ND","ND","ND","ND"],
    [6864,"42251,625","49,6","ND","ND","ND","ND","ND"],
    [6865,"42251,66667","71","ND","ND","ND","ND","ND"],
    [6866,"42251,70833","29,1","ND","ND","ND","ND","ND"],
    [6867,"42251,75","11,7","ND","ND","ND","ND","ND"],
    [6868,"42251,79167","14","ND","ND","ND","ND","ND"],
    [6869,"42251,83333","14,9","ND","ND","ND","ND","ND"],
    [6870,"42251,875","32,3","ND","ND","ND","ND","ND"],
    [6871,"42251,91667","48,9","ND","ND","ND","ND","ND"],
    [6872,"42251,95833","34,8","ND","ND","ND","ND","ND"],
    [6873,"42281","12,6","ND","ND","ND","ND","ND"],
    [6874,"42281,04167","41,4","ND","ND","ND","ND","ND"],
    [6875,"42281,08333","35,4","ND","ND","ND","ND","ND"],
    [6876,"42281,125","40,3","ND","ND","ND","ND","ND"],
    [6877,"42281,16667","41","ND","ND","ND","ND","ND"],
    [6878,"42281,20833","49","ND","ND","ND","ND","ND"],
    [6879,"42281,25","53,8","ND","ND","ND","ND","ND"],
    [6880,"42281,29167","72,9","ND","ND","ND","ND","ND"],
    [6881,"42281,33333","100,4","ND","ND","ND","ND","ND"],
    [6882,"42281,375","90","ND","ND","ND","ND","ND"],
    [6883,"42281,41667","51,4","ND","ND","ND","ND","ND"],
    [6884,"42281,45833","53,8","ND","ND","ND","ND","ND"],
    [6885,"42281,5","56,6","ND","ND","ND","ND","ND"],
    [6886,"42281,54167","47,9","ND","ND","ND","ND","ND"],
    [6887,"42281,58333","45,6","ND","ND","ND","ND","ND"],
    [6888,"42281,625","38,9","ND","ND","ND","ND","ND"],
    [6889,"42281,66667","63,5","ND","ND","ND","ND","ND"],
    [6890,"42281,70833","30,9","ND","ND","ND","ND","ND"],
    [6891,"42281,75","29,4","ND","ND","ND","ND","ND"],
    [6892,"42281,79167","27,7","ND","ND","ND","ND","ND"],
    [6893,"42281,83333","27,6","ND","ND","ND","ND","ND"],
    [6894,"42281,875","17,5","ND","ND","ND","ND","ND"],
    [6895,"42281,91667","17,7","ND","ND","ND","ND","ND"],
    [6896,"42281,95833","42,4","ND","ND","ND","ND","ND"],
    [6897,"42312","56,3","ND","ND","ND","ND","ND"],
    [6898,"42312,04167","30","ND","ND","ND","ND","ND"],
    [6899,"42312,08333","27,2","ND","ND","ND","ND","ND"],
    [6900,"42312,125","29,9","ND","ND","ND","ND","ND"],
    [6901,"42312,16667","27,3","ND","ND","ND","ND","ND"],
    [6902,"42312,20833","25,2","ND","ND","ND","ND","ND"],
    [6903,"42312,25","56,2","ND","ND","ND","ND","ND"],
    [6904,"42312,29167","41","ND","ND","ND","ND","ND"],
    [6905,"42312,33333","41","ND","ND","ND","ND","ND"],
    [6906,"42312,375","56,6","ND","ND","ND","ND","ND"],
    [6907,"42312,41667","66,6","ND","ND","ND","ND","ND"],
    [6908,"42312,45833","60,1","ND","ND","ND","ND","ND"],
    [6909,"42312,5","56,2","ND","ND","ND","ND","ND"],
    [6910,"42312,54167","33,8","ND","ND","ND","ND","ND"],
    [6911,"42312,58333","16,4","ND","ND","ND","ND","ND"],
    [6912,"42312,625","12,5","ND","ND","ND","ND","ND"],
    [6913,"42312,66667","ND","ND","ND","ND","ND","ND"],
    [6914,"42312,70833","3,3","ND","ND","ND","ND","ND"],
    [6915,"42312,75","16,3","ND","ND","ND","ND","ND"],
    [6916,"42312,79167","50,7","ND","ND","ND","ND","ND"],
    [6917,"42312,83333","57","ND","ND","ND","ND","ND"],
    [6918,"42312,875","44","ND","ND","ND","ND","ND"],
    [6919,"42312,91667","42,5","ND","ND","ND","ND","ND"],
    [6920,"42312,95833","49,1","ND","ND","ND","ND","ND"],
    [6921,"42342","41,6","ND","ND","ND","ND","ND"],
    [6922,"42342,04167","36,6","ND","ND","ND","ND","ND"],
    [6923,"42342,08333","30,5","ND","ND","ND","ND","ND"],
    [6924,"42342,125","36,4","ND","ND","ND","ND","ND"],
    [6925,"42342,16667","45","ND","ND","ND","ND","ND"],
    [6926,"42342,20833","36,2","ND","ND","ND","ND","ND"],
    [6927,"42342,25","34,8","ND","ND","ND","ND","ND"],
    [6928,"42342,29167","39,3","ND","ND","ND","ND","ND"],
    [6929,"42342,33333","49,5","ND","ND","ND","ND","ND"],
    [6930,"42342,375","43,9","ND","ND","ND","ND","ND"],
    [6931,"42342,41667","43,9","ND","ND","ND","ND","ND"],
    [6932,"42342,45833","44,4","ND","ND","ND","ND","ND"],
    [6933,"42342,5","20,3","ND","ND","ND","ND","ND"],
    [6934,"42342,54167","38,1","ND","ND","ND","ND","ND"],
    [6935,"42342,58333","38,1","ND","ND","ND","ND","ND"],
    [6936,"42342,625","41,7","ND","ND","ND","ND","ND"],
    [6937,"42342,66667","41,9","ND","ND","ND","ND","ND"],
    [6938,"42342,70833","15,2","ND","ND","ND","ND","ND"],
    [6939,"42342,75","14,8","ND","ND","ND","ND","ND"],
    [6940,"42342,79167","16,1","ND","ND","ND","ND","ND"],
    [6941,"42342,83333","15,3","ND","ND","ND","ND","ND"],
    [6942,"42342,875","15,3","ND","ND","ND","ND","ND"],
    [6943,"42342,91667","34,5","ND","ND","ND","ND","ND"],
    [6944,"42342,95833","29,1","ND","ND","ND","ND","ND"],
    [6945,"04/13/2015 00:00","32,6","ND","ND","ND","ND","ND"],
    [6946,"04/13/2015 01:00","31,6","ND","ND","ND","ND","ND"],
    [6947,"04/13/2015 02:00","34,2","ND","ND","ND","ND","ND"],
    [6948,"04/13/2015 03:00","29,8","ND","ND","ND","ND","ND"],
    [6949,"04/13/2015 04:00","44,2","ND","ND","ND","ND","ND"],
    [6950,"04/13/2015 05:00","41,3","ND","ND","ND","ND","ND"],
    [6951,"04/13/2015 06:00","39,6","ND","ND","ND","ND","ND"],
    [6952,"04/13/2015 07:00","62,2","ND","ND","ND","ND","ND"],
    [6953,"04/13/2015 08:00","58,2","ND","ND","ND","ND","ND"],
    [6954,"04/13/2015 09:00","65,5","ND","ND","ND","ND","ND"],
    [6955,"04/13/2015 10:00","47","ND","ND","ND","ND","ND"],
    [6956,"04/13/2015 11:00","57","ND","ND","ND","ND","ND"],
    [6957,"04/13/2015 12:00","38,9","ND","ND","ND","ND","ND"],
    [6958,"04/13/2015 13:00","18,9","ND","ND","ND","ND","ND"],
    [6959,"04/13/2015 14:00","14,8","ND","ND","ND","ND","ND"],
    [6960,"04/13/2015 15:00","12,9","ND","ND","ND","ND","ND"],
    [6961,"04/13/2015 16:00","23,7","ND","ND","ND","ND","ND"],
    [6962,"04/13/2015 17:00","34,2","ND","ND","ND","ND","ND"],
    [6963,"04/13/2015 18:00","2,6","ND","ND","ND","ND","ND"],
    [6964,"04/13/2015 19:00","69,8","ND","ND","ND","ND","ND"],
    [6965,"04/13/2015 20:00","10,7","ND","ND","ND","ND","ND"],
    [6966,"04/13/2015 21:00","21,7","ND","ND","ND","ND","ND"],
    [6967,"04/13/2015 22:00","43,7","ND","ND","ND","ND","ND"],
    [6968,"04/13/2015 23:00","51,4","ND","ND","ND","ND","ND"],
    [6969,"04/14/2015 00:00","27,2","ND","ND","ND","ND","ND"],
    [6970,"04/14/2015 01:00","41,3","ND","ND","ND","ND","ND"],
    [6971,"04/14/2015 02:00","48","ND","ND","ND","ND","ND"],
    [6972,"04/14/2015 03:00","44","ND","ND","ND","ND","ND"],
    [6973,"04/14/2015 04:00","17,9","ND","ND","ND","ND","ND"],
    [6974,"04/14/2015 05:00","24,7","ND","ND","ND","ND","ND"],
    [6975,"04/14/2015 06:00","16,7","ND","ND","ND","ND","ND"],
    [6976,"04/14/2015 07:00","44,8","ND","ND","ND","ND","ND"],
    [6977,"04/14/2015 08:00","39,3","ND","ND","ND","ND","ND"],
    [6978,"04/14/2015 09:00","26,5","ND","ND","ND","ND","ND"],
    [6979,"04/14/2015 10:00","26,5","ND","ND","ND","ND","ND"],
    [6980,"04/14/2015 11:00","31,6","ND","ND","ND","ND","ND"],
    [6981,"04/14/2015 12:00","24,8","ND","ND","ND","ND","ND"],
    [6982,"04/14/2015 13:00","29,3","ND","ND","ND","ND","ND"],
    [6983,"04/14/2015 14:00","34,3","ND","ND","ND","ND","ND"],
    [6984,"04/14/2015 15:00","39,4","ND","ND","ND","ND","ND"],
    [6985,"04/14/2015 16:00","10,1","ND","ND","ND","ND","ND"],
    [6986,"04/14/2015 17:00","24,4","ND","ND","ND","ND","ND"],
    [6987,"04/14/2015 18:00","24,4","ND","ND","ND","ND","ND"],
    [6988,"04/14/2015 19:00","19,6","ND","ND","ND","ND","ND"],
    [6989,"04/14/2015 20:00","16,7","ND","ND","ND","ND","ND"],
    [6990,"04/14/2015 21:00","10,6","ND","ND","ND","ND","ND"],
    [6991,"04/14/2015 22:00","25,2","ND","ND","ND","ND","ND"],
    [6992,"04/14/2015 23:00","52,2","ND","ND","ND","ND","ND"],
    [6993,"04/15/2015 00:00","17,1","ND","ND","ND","ND","ND"],
    [6994,"04/15/2015 01:00","24","ND","ND","ND","ND","ND"],
    [6995,"04/15/2015 02:00","19,1","ND","ND","ND","ND","ND"],
    [6996,"04/15/2015 03:00","10,2","ND","ND","ND","ND","ND"],
    [6997,"04/15/2015 04:00","10,2","ND","ND","ND","ND","ND"],
    [6998,"04/15/2015 05:00","17","ND","ND","ND","ND","ND"],
    [6999,"04/15/2015 06:00","25,1","ND","ND","ND","ND","ND"],
    [7000,"04/15/2015 07:00","37,7","ND","ND","ND","ND","ND"],
    [7001,"04/15/2015 08:00","40,2","ND","ND","ND","ND","ND"],
    [7002,"04/15/2015 09:00","27","ND","ND","ND","ND","ND"],
    [7003,"04/15/2015 10:00","42,4","ND","ND","ND","ND","ND"],
    [7004,"04/15/2015 11:00","40","ND","ND","ND","ND","ND"],
    [7005,"04/15/2015 12:00","39,9","ND","ND","ND","ND","ND"],
    [7006,"04/15/2015 13:00","30,2","ND","ND","ND","ND","ND"],
    [7007,"04/15/2015 14:00","34,6","ND","ND","ND","ND","ND"],
    [7008,"04/15/2015 15:00","39,4","ND","ND","ND","ND","ND"],
    [7009,"04/15/2015 16:00","16,7","ND","ND","ND","ND","ND"],
    [7010,"04/15/2015 17:00","7,3","ND","ND","ND","ND","ND"],
    [7011,"04/15/2015 18:00","8,3","ND","ND","ND","ND","ND"],
    [7012,"04/15/2015 19:00","45,6","ND","ND","ND","ND","ND"],
    [7013,"04/15/2015 20:00","30,3","ND","ND","ND","ND","ND"],
    [7014,"04/15/2015 21:00","25,6","ND","ND","ND","ND","ND"],
    [7015,"04/15/2015 22:00","20,2","ND","ND","ND","ND","ND"],
    [7016,"04/15/2015 23:00","13,5","ND","ND","ND","ND","ND"],
    [7017,"04/16/2015 00:00","10,2","ND","ND","ND","ND","ND"],
    [7018,"04/16/2015 01:00","6,8","ND","ND","ND","ND","ND"],
    [7019,"04/16/2015 02:00","ND","ND","ND","ND","ND","ND"],
    [7020,"04/16/2015 03:00","6,2","ND","ND","ND","ND","ND"],
    [7021,"04/16/2015 04:00","1,1","ND","ND","ND","ND","ND"],
    [7022,"04/16/2015 05:00","7","ND","ND","ND","ND","ND"],
    [7023,"04/16/2015 06:00","12,8","ND","ND","ND","ND","ND"],
    [7024,"04/16/2015 07:00","30,4","ND","ND","ND","ND","ND"],
    [7025,"04/16/2015 08:00","43,8","ND","ND","ND","ND","ND"],
    [7026,"04/16/2015 09:00","22,8","ND","ND","ND","ND","ND"],
    [7027,"04/16/2015 10:00","36,5","ND","ND","ND","ND","ND"],
    [7028,"04/16/2015 11:00","36,5","ND","ND","ND","ND","ND"],
    [7029,"04/16/2015 12:00","52,9","ND","ND","ND","ND","ND"],
    [7030,"04/16/2015 13:00","43,5","ND","ND","ND","ND","ND"],
    [7031,"04/16/2015 14:00","38,1","ND","ND","ND","ND","ND"],
    [7032,"04/16/2015 15:00","24","ND","ND","ND","ND","ND"],
    [7033,"04/16/2015 16:00","0,7","ND","ND","ND","ND","ND"],
    [7034,"04/16/2015 17:00","6,2","ND","ND","ND","ND","ND"],
    [7035,"04/16/2015 18:00","25","ND","ND","ND","ND","ND"],
    [7036,"04/16/2015 19:00","14,7","ND","ND","ND","ND","ND"],
    [7037,"04/16/2015 20:00","29,9","ND","ND","ND","ND","ND"],
    [7038,"04/16/2015 21:00","46,5","ND","ND","ND","ND","ND"],
    [7039,"04/16/2015 22:00","39,8","ND","ND","ND","ND","ND"],
    [7040,"04/16/2015 23:00","19,3","ND","ND","ND","ND","ND"],
    [7041,"04/17/2015 00:00","36,7","ND","ND","ND","ND","ND"],
    [7042,"04/17/2015 01:00","4,1","ND","ND","ND","ND","ND"],
    [7043,"04/17/2015 02:00","5,7","ND","ND","ND","ND","ND"],
    [7044,"04/17/2015 03:00","ND","ND","ND","ND","ND","ND"],
    [7045,"04/17/2015 04:00","0,7","0,16","ND","ND","ND","ND"],
    [7046,"04/17/2015 05:00","2,6","0,05","ND","ND","ND","ND"],
    [7047,"04/17/2015 06:00","9,6","ND","ND","ND","ND","ND"],
    [7048,"04/17/2015 07:00","10,8","0,39","ND","ND","ND","ND"],
    [7049,"04/17/2015 08:00","7,3","0,1","ND","ND","ND","ND"],
    [7050,"04/17/2015 09:00","10,3","0,03","ND","ND","ND","ND"],
    [7051,"04/17/2015 10:00","7,7","0,52","ND","ND","ND","ND"],
    [7052,"04/17/2015 11:00","44,6","6,37","ND","ND","ND","ND"],
    [7053,"04/17/2015 12:00","43,7","21,01","ND","ND","ND","ND"],
    [7054,"04/17/2015 13:00","33,6","8,8","ND","ND","ND","ND"],
    [7055,"04/17/2015 14:00","38,8","6,84","ND","ND","ND","ND"],
    [7056,"04/17/2015 15:00","34,7","4,66","ND","ND","ND","ND"],
    [7057,"04/17/2015 16:00","40,7","3,67","ND","ND","ND","ND"],
    [7058,"04/17/2015 17:00","52,8","2,99","ND","ND","ND","ND"],
    [7059,"04/17/2015 18:00","70,4","2,23","ND","ND","ND","ND"],
    [7060,"04/17/2015 19:00","74,7","1,23","ND","ND","ND","ND"],
    [7061,"04/17/2015 20:00","59,2","1,05","ND","ND","ND","ND"],
    [7062,"04/17/2015 21:00","50,7","0,89","ND","ND","ND","ND"],
    [7063,"04/17/2015 22:00","56,6","0,89","ND","ND","ND","ND"],
    [7064,"04/17/2015 23:00","50,4","0,31","ND","ND","ND","ND"],
    [7065,"04/18/2015 00:00","35","0,79","ND","ND","ND","ND"],
    [7066,"04/18/2015 01:00","33,4","0,29","ND","ND","ND","ND"],
    [7067,"04/18/2015 02:00","29","0,1","ND","ND","ND","ND"],
    [7068,"04/18/2015 03:00","22,7","ND","ND","ND","ND","ND"],
    [7069,"04/18/2015 04:00","46,4","0,08","ND","ND","ND","ND"],
    [7070,"04/18/2015 05:00","31,3","ND","ND","ND","ND","ND"],
    [7071,"04/18/2015 06:00","59,6","0,47","ND","ND","ND","ND"],
    [7072,"04/18/2015 07:00","57,8","0,58","ND","ND","ND","ND"],
    [7073,"04/18/2015 08:00","66","8,2","ND","ND","ND","ND"],
    [7074,"04/18/2015 09:00","73,9","18,66","ND","ND","ND","ND"],
    [7075,"04/18/2015 10:00","65,1","19,05","ND","ND","ND","ND"],
    [7076,"04/18/2015 11:00","49,1","12,11","ND","ND","ND","ND"],
    [7077,"04/18/2015 12:00","49,2","7,28","ND","ND","ND","ND"],
    [7078,"04/18/2015 13:00","42,6","3,48","ND","ND","ND","ND"],
    [7079,"04/18/2015 14:00","38,8","3,12","ND","ND","ND","ND"],
    [7080,"04/18/2015 15:00","44,3","2,75","ND","ND","ND","ND"],
    [7081,"04/18/2015 16:00","32,2","0,47","ND","ND","ND","ND"],
    [7082,"04/18/2015 17:00","54,5","1,15","ND","ND","ND","ND"],
    [7083,"04/18/2015 18:00","21","0,55","ND","ND","ND","ND"],
    [7084,"04/18/2015 19:00","28,1","0,52","ND","ND","ND","ND"],
    [7085,"04/18/2015 20:00","54,2","1,55","ND","ND","ND","ND"],
    [7086,"04/18/2015 21:00","60,1","1,36","ND","ND","ND","ND"],
    [7087,"04/18/2015 22:00","49,6","1,31","ND","ND","ND","ND"],
    [7088,"04/18/2015 23:00","54,7","1,07","ND","ND","ND","ND"],
    [7089,"04/19/2015 00:00","32,4","0,16","ND","ND","ND","ND"],
    [7090,"04/19/2015 01:00","41","0,21","ND","ND","ND","ND"],
    [7091,"04/19/2015 02:00","ND","ND","ND","ND","ND","ND"],
    [7092,"04/19/2015 03:00","10,5","ND","ND","ND","ND","ND"],
    [7093,"04/19/2015 04:00","11,8","ND","ND","ND","ND","ND"],
    [7094,"04/19/2015 05:00","3,4","0,63","ND","ND","ND","ND"],
    [7095,"04/19/2015 06:00","6,7","2,02","ND","ND","ND","ND"],
    [7096,"04/19/2015 07:00","12,5","0,76","ND","ND","ND","ND"],
    [7097,"04/19/2015 08:00","18","0,76","ND","ND","ND","ND"],
    [7098,"04/19/2015 09:00","9","0,37","ND","ND","ND","ND"],
    [7099,"04/19/2015 10:00","14,6","0,16","ND","ND","ND","ND"],
    [7100,"04/19/2015 11:00","33,5","3,38","ND","ND","ND","ND"],
    [7101,"04/19/2015 12:00","25,7","9,96","ND","ND","ND","ND"],
    [7102,"04/19/2015 13:00","9,2","5,42","ND","ND","ND","ND"],
    [7103,"04/19/2015 14:00","27,8","7,49","ND","ND","ND","ND"],
    [7104,"04/19/2015 15:00","41,3","8,65","ND","ND","ND","ND"],
    [7105,"04/19/2015 16:00","27,6","4,95","ND","ND","ND","ND"],
    [7106,"04/19/2015 17:00","13,5","3,8","ND","ND","ND","ND"],
    [7107,"04/19/2015 18:00","50,9","3,25","ND","ND","ND","ND"],
    [7108,"04/19/2015 19:00","63","1,97","ND","ND","ND","ND"],
    [7109,"04/19/2015 20:00","52,1","1,31","ND","ND","ND","ND"],
    [7110,"04/19/2015 21:00","44,2","0,63","ND","ND","ND","ND"],
    [7111,"04/19/2015 22:00","46,9","1,07","ND","ND","ND","ND"],
    [7112,"04/19/2015 23:00","42,8","0,66","ND","ND","ND","ND"],
    [7113,"04/20/2015 00:00","8,5","ND","ND","ND","ND","ND"],
    [7114,"04/20/2015 01:00","32,4","0,08","ND","ND","ND","ND"],
    [7115,"04/20/2015 02:00","27,6","ND","ND","ND","ND","ND"],
    [7116,"04/20/2015 03:00","34,7","ND","ND","ND","ND","ND"],
    [7117,"04/20/2015 04:00","31,5","ND","ND","ND","ND","ND"],
    [7118,"04/20/2015 05:00","37,7","ND","ND","ND","ND","ND"],
    [7119,"04/20/2015 06:00","56","0,5","ND","ND","ND","ND"],
    [7120,"04/20/2015 07:00","83,9","1,94","ND","ND","ND","ND"],
    [7121,"04/20/2015 08:00","53,6","1,99","ND","ND","ND","ND"],
    [7122,"04/20/2015 09:00","43,7","4,53","ND","ND","ND","ND"],
    [7123,"04/20/2015 10:00","27,8","5","ND","ND","ND","ND"],
    [7124,"04/20/2015 11:00","33,5","6,05","ND","ND","ND","ND"],
    [7125,"04/20/2015 12:00","34,5","3,88","ND","ND","ND","ND"],
    [7126,"04/20/2015 13:00","46","2,96","ND","ND","ND","ND"],
    [7127,"04/20/2015 14:00","54,3","6,97","ND","ND","ND","ND"],
    [7128,"04/20/2015 15:00","27,8","2,41","ND","ND","ND","ND"],
    [7129,"04/20/2015 16:00","30,3","0,45","ND","ND","ND","ND"],
    [7130,"04/20/2015 17:00","21,5","0,03","ND","ND","ND","ND"],
    [7131,"04/20/2015 18:00","10,8","0,21","ND","ND","ND","ND"],
    [7132,"04/20/2015 19:00","15,5","0,39","ND","ND","ND","ND"],
    [7133,"04/20/2015 20:00","50","0,63","ND","ND","ND","ND"],
    [7134,"04/20/2015 21:00","0,9","0,24","ND","ND","ND","ND"],
    [7135,"04/20/2015 22:00","16,1","0,16","ND","ND","ND","ND"],
    [7136,"04/20/2015 23:00","8,7","ND","ND","ND","ND","ND"],
    [7137,"04/21/2015 00:00","42,3","0,42","ND","ND","ND","ND"],
    [7138,"04/21/2015 01:00","8,5","ND","ND","ND","ND","ND"],
    [7139,"04/21/2015 02:00","11,3","ND","ND","ND","ND","ND"],
    [7140,"04/21/2015 03:00","4,2","0,16","ND","ND","ND","ND"],
    [7141,"04/21/2015 04:00","20,6","ND","ND","ND","ND","ND"],
    [7142,"04/21/2015 05:00","8,4","ND","ND","ND","ND","ND"],
    [7143,"04/21/2015 06:00","34,9","0,13","ND","ND","ND","ND"],
    [7144,"04/21/2015 07:00","52,9","1,41","ND","ND","ND","ND"],
    [7145,"04/21/2015 08:00","28,3","1,68","ND","ND","ND","ND"],
    [7146,"04/21/2015 09:00","42,2","4,98","ND","ND","ND","ND"],
    [7147,"04/21/2015 10:00","61,5","9,69","ND","ND","ND","ND"],
    [7148,"04/21/2015 11:00","46,2","6,92","ND","ND","ND","ND"],
    [7149,"04/21/2015 12:00","29,7","3,77","ND","ND","ND","ND"],
    [7150,"04/21/2015 13:00","22,5","2,12","ND","ND","ND","ND"],
    [7151,"04/21/2015 14:00","25,7","1,7","ND","ND","ND","ND"],
    [7152,"04/21/2015 15:00","34,7","1,94","ND","ND","ND","ND"],
    [7153,"04/21/2015 16:00","36,9","3,48","ND","ND","ND","ND"],
    [7154,"04/21/2015 17:00","32,3","3,72","ND","ND","ND","ND"],
    [7155,"04/21/2015 18:00","60,6","2,15","ND","ND","ND","ND"],
    [7156,"04/21/2015 19:00","54,1","1,21","ND","ND","ND","ND"],
    [7157,"04/21/2015 20:00","49,5","1,21","ND","ND","ND","ND"],
    [7158,"04/21/2015 21:00","51,7","1,68","ND","ND","ND","ND"],
    [7159,"04/21/2015 22:00","66,1","1,6","ND","ND","ND","ND"],
    [7160,"04/21/2015 23:00","66,1","0,92","ND","ND","ND","ND"],
    [7161,"04/22/2015 00:00","37,4","0,34","ND","ND","ND","ND"],
    [7162,"04/22/2015 01:00","25","0,05","ND","ND","ND","ND"],
    [7163,"04/22/2015 02:00","27,5","ND","ND","ND","ND","ND"],
    [7164,"04/22/2015 03:00","30,5","0,05","ND","ND","ND","ND"],
    [7165,"04/22/2015 04:00","32,7","0,08","ND","ND","ND","ND"],
    [7166,"04/22/2015 05:00","34,3","0,1","ND","ND","ND","ND"],
    [7167,"04/22/2015 06:00","54,9","0,45","ND","ND","ND","ND"],
    [7168,"04/22/2015 07:00","78,3","1,21","ND","ND","ND","ND"],
    [7169,"04/22/2015 08:00","101,8","6,24","ND","ND","ND","ND"],
    [7170,"04/22/2015 09:00","94,9","10,43","ND","ND","ND","ND"],
    [7171,"04/22/2015 10:00","48,6","10,53","ND","ND","ND","ND"],
    [7172,"04/22/2015 11:00","39,4","8,86","ND","ND","ND","ND"],
    [7173,"04/22/2015 12:00","45,9","5,29","ND","ND","ND","ND"],
    [7174,"04/22/2015 13:00","46,6","4,51","ND","ND","ND","ND"],
    [7175,"04/22/2015 14:00","58,4","10,3","ND","ND","ND","ND"],
    [7176,"04/22/2015 15:00","39,1","4,27","ND","ND","ND","ND"],
    [7177,"04/22/2015 16:00","13,4","ND","ND","ND","ND","ND"],
    [7178,"04/22/2015 17:00","13,3","ND","ND","ND","ND","ND"],
    [7179,"04/22/2015 18:00","18,1","ND","ND","ND","ND","ND"],
    [7180,"04/22/2015 19:00","11,6","0,03","ND","ND","ND","ND"],
    [7181,"04/22/2015 20:00","9,6","ND","ND","ND","ND","ND"],
    [7182,"04/22/2015 21:00","23,7","0,5","ND","ND","ND","ND"],
    [7183,"04/22/2015 22:00","63,9","0,84","ND","ND","ND","ND"],
    [7184,"04/22/2015 23:00","44,8","1,34","ND","ND","ND","ND"],
    [7185,"04/23/2015 00:00","63,7","0,5","ND","ND","ND","ND"],
    [7186,"04/23/2015 01:00","26,3","ND","ND","ND","ND","ND"],
    [7187,"04/23/2015 02:00","26,3","0,18","ND","ND","ND","ND"],
    [7188,"04/23/2015 03:00","48,2","0,16","ND","ND","ND","ND"],
    [7189,"04/23/2015 04:00","25,8","0,03","ND","ND","ND","ND"],
    [7190,"04/23/2015 05:00","28,6","0,03","ND","ND","ND","ND"],
    [7191,"04/23/2015 06:00","41,3","0,63","ND","ND","ND","ND"],
    [7192,"04/23/2015 07:00","63,7","1,36","ND","ND","ND","ND"],
    [7193,"04/23/2015 08:00","61,6","3,93","ND","ND","ND","ND"],
    [7194,"04/23/2015 09:00","58,7","3,3","ND","ND","ND","ND"],
    [7195,"04/23/2015 10:00","73,4","1,97","ND","ND","ND","ND"],
    [7196,"04/23/2015 11:00","37,8","1,07","ND","ND","ND","ND"],
    [7197,"04/23/2015 12:00","27","1,83","ND","ND","ND","ND"],
    [7198,"04/23/2015 13:00","48,8","4,19","ND","ND","ND","ND"],
    [7199,"04/23/2015 14:00","50,8","3,41","ND","ND","ND","ND"],
    [7200,"04/23/2015 15:00","49","2,73","ND","ND","ND","ND"],
    [7201,"04/23/2015 16:00","45,5","1,49","ND","ND","ND","ND"],
    [7202,"04/23/2015 17:00","32,3","ND","ND","ND","ND","ND"],
    [7203,"04/23/2015 18:00","21,6","ND","ND","ND","ND","ND"],
    [7204,"04/23/2015 19:00","18","ND","ND","ND","ND","ND"],
    [7205,"04/23/2015 20:00","16,3","ND","ND","ND","ND","ND"],
    [7206,"04/23/2015 21:00","21","ND","ND","ND","ND","ND"],
    [7207,"04/23/2015 22:00","29,6","0,47","ND","ND","ND","ND"],
    [7208,"04/23/2015 23:00","71,9","1,47","ND","ND","ND","ND"],
    [7209,"04/24/2015 00:00","63,2","1,1","ND","ND","ND","ND"],
    [7210,"04/24/2015 01:00","54,2","1,7","ND","ND","ND","ND"],
    [7211,"04/24/2015 02:00","43,1","2,59","ND","ND","ND","ND"],
    [7212,"04/24/2015 03:00","53,4","1,1","ND","ND","ND","ND"],
    [7213,"04/24/2015 04:00","42,5","0,29","ND","ND","ND","ND"],
    [7214,"04/24/2015 05:00","36,4","ND","ND","ND","ND","ND"],
    [7215,"04/24/2015 06:00","56,5","0,42","ND","ND","ND","ND"],
    [7216,"04/24/2015 07:00","89,2","2,65","ND","ND","ND","ND"],
    [7217,"04/24/2015 08:00","93,2","4,85","ND","ND","ND","ND"],
    [7218,"04/24/2015 09:00","77,7","7,86","ND","ND","ND","ND"],
    [7219,"04/24/2015 10:00","75,5","7,39","ND","ND","ND","ND"],
    [7220,"04/24/2015 11:00","50,9","5,9","ND","ND","ND","ND"],
    [7221,"04/24/2015 12:00","22,6","5,06","ND","ND","ND","ND"],
    [7222,"04/24/2015 13:00","56,4","4,72","ND","ND","ND","ND"],
    [7223,"04/24/2015 14:00","24,9","0,76","ND","ND","ND","ND"],
    [7224,"04/24/2015 15:00","11,7","0,24","ND","ND","ND","ND"],
    [7225,"04/24/2015 16:00","14,9","0,05","ND","ND","ND","ND"],
    [7226,"04/24/2015 17:00","11,7","0,03","ND","ND","ND","ND"],
    [7227,"04/24/2015 18:00","14,9","0,08","ND","ND","ND","ND"],
    [7228,"04/24/2015 19:00","22,1","0,24","ND","ND","ND","ND"],
    [7229,"04/24/2015 20:00","16,3","0,42","ND","ND","ND","ND"],
    [7230,"04/24/2015 21:00","25,6","0,63","ND","ND","ND","ND"],
    [7231,"04/24/2015 22:00","36,9","0,76","ND","ND","ND","ND"],
    [7232,"04/24/2015 23:00","42,3","0,76","ND","ND","ND","ND"],
    [7233,"04/25/2015 00:00","43,8","0,79","ND","ND","ND","ND"],
    [7234,"04/25/2015 01:00","63,2","0,47","ND","ND","ND","ND"],
    [7235,"04/25/2015 02:00","31,5","0,31","ND","ND","ND","ND"],
    [7236,"04/25/2015 03:00","50","2,59","ND","ND","ND","ND"],
    [7237,"04/25/2015 04:00","40,6","0,76","ND","ND","ND","ND"],
    [7238,"04/25/2015 05:00","41,4","1,76","ND","ND","ND","ND"],
    [7239,"04/25/2015 06:00","42,8","2,49","ND","ND","ND","ND"],
    [7240,"04/25/2015 07:00","50,4","3,3","ND","ND","ND","ND"],
    [7241,"04/25/2015 08:00","59,6","9,62","ND","ND","ND","ND"],
    [7242,"04/25/2015 09:00","64,5","14,65","ND","ND","ND","ND"],
    [7243,"04/25/2015 10:00","68,1","11,95","ND","ND","ND","ND"],
    [7244,"04/25/2015 11:00","82,8","13,63","ND","ND","ND","ND"],
    [7245,"04/25/2015 12:00","90,2","13,1","ND","ND","ND","ND"],
    [7246,"04/25/2015 13:00","65,4","10,45","ND","ND","ND","ND"],
    [7247,"04/25/2015 14:00","45,5","8,65","ND","ND","ND","ND"],
    [7248,"04/25/2015 15:00","16,2","2,1","ND","ND","ND","ND"],
    [7249,"04/25/2015 16:00","14,5","0,71","ND","ND","ND","ND"],
    [7250,"04/25/2015 17:00","1,8","0,29","ND","ND","ND","ND"],
    [7251,"04/25/2015 18:00","12,1","0,21","ND","ND","ND","ND"],
    [7252,"04/25/2015 19:00","18,8","0,52","ND","ND","ND","ND"],
    [7253,"04/25/2015 20:00","36,7","0,73","ND","ND","ND","ND"],
    [7254,"04/25/2015 21:00","39,7","0,94","ND","ND","ND","ND"],
    [7255,"04/25/2015 22:00","47","1","ND","ND","ND","ND"],
    [7256,"04/25/2015 23:00","39","0,73","ND","ND","ND","ND"],
    [7257,"04/26/2015 00:00","55,1","0,45","ND","ND","ND","ND"],
    [7258,"04/26/2015 01:00","42,1","0,42","ND","ND","ND","ND"],
    [7259,"04/26/2015 02:00","26,4","0,16","ND","ND","ND","ND"],
    [7260,"04/26/2015 03:00","27,8","ND","ND","ND","ND","ND"],
    [7261,"04/26/2015 04:00","27,9","ND","ND","ND","ND","ND"],
    [7262,"04/26/2015 05:00","21,9","ND","ND","ND","ND","ND"],
    [7263,"04/26/2015 06:00","29,7","0,08","ND","ND","ND","ND"],
    [7264,"04/26/2015 07:00","36,5","0,26","ND","ND","ND","ND"],
    [7265,"04/26/2015 08:00","38,1","2,2","ND","ND","ND","ND"],
    [7266,"04/26/2015 09:00","50,6","13,68","ND","ND","ND","ND"],
    [7267,"04/26/2015 10:00","55,4","13,7","ND","ND","ND","ND"],
    [7268,"04/26/2015 11:00","44","5,82","ND","ND","ND","ND"],
    [7269,"04/26/2015 12:00","46,8","4,93","ND","ND","ND","ND"],
    [7270,"04/26/2015 13:00","45,9","3,88","ND","ND","ND","ND"],
    [7271,"04/26/2015 14:00","46,8","2,86","ND","ND","ND","ND"],
    [7272,"04/26/2015 15:00","52,2","2,23","ND","ND","ND","ND"],
    [7273,"04/26/2015 16:00","40,8","1,99","ND","ND","ND","ND"],
    [7274,"04/26/2015 17:00","23,2","0,5","ND","ND","ND","ND"],
    [7275,"04/26/2015 18:00","19,8","0,08","ND","ND","ND","ND"],
    [7276,"04/26/2015 19:00","17,7","0,16","ND","ND","ND","ND"],
    [7277,"04/26/2015 20:00","43,3","0,55","ND","ND","ND","ND"],
    [7278,"04/26/2015 21:00","32,9","0,5","ND","ND","ND","ND"],
    [7279,"04/26/2015 22:00","29,6","0,26","ND","ND","ND","ND"],
    [7280,"04/26/2015 23:00","30,4","0,31","ND","ND","ND","ND"],
    [7281,"04/27/2015 00:00","63,1","1,07","ND","ND","ND","ND"],
    [7282,"04/27/2015 01:00","26,4","0,45","ND","ND","ND","ND"],
    [7283,"04/27/2015 02:00","27,5","0,24","ND","ND","ND","ND"],
    [7284,"04/27/2015 03:00","21,6","0,16","ND","ND","ND","ND"],
    [7285,"04/27/2015 04:00","25,4","0,21","ND","ND","ND","ND"],
    [7286,"04/27/2015 05:00","32,6","0,5","ND","ND","ND","ND"],
    [7287,"04/27/2015 06:00","41,9","1,49","ND","ND","ND","ND"],
    [7288,"04/27/2015 07:00","67,6","2,91","ND","ND","ND","ND"],
    [7289,"04/27/2015 08:00","85,8","5,21","ND","ND","ND","ND"],
    [7290,"04/27/2015 09:00","78,3","6,92","ND","ND","ND","ND"],
    [7291,"04/27/2015 10:00","50,7","6,76","ND","ND","ND","ND"],
    [7292,"04/27/2015 11:00","56,7","5,21","ND","ND","ND","ND"],
    [7293,"04/27/2015 12:00","50,4","3,8","ND","ND","ND","ND"],
    [7294,"04/27/2015 13:00","53,8","4,11","ND","ND","ND","ND"],
    [7295,"04/27/2015 14:00","54,7","4,3","ND","ND","ND","ND"],
    [7296,"04/27/2015 15:00","57,8","2,38","ND","ND","ND","ND"],
    [7297,"04/27/2015 16:00","17,1","0,34","ND","ND","ND","ND"],
    [7298,"04/27/2015 17:00","28,6","0,05","ND","ND","ND","ND"],
    [7299,"04/27/2015 18:00","22,9","0,1","ND","ND","ND","ND"],
    [7300,"04/27/2015 19:00","28,3","0,05","ND","ND","ND","ND"],
    [7301,"04/27/2015 20:00","12","0,05","ND","ND","ND","ND"],
    [7302,"04/27/2015 21:00","14,4","0,86","ND","ND","ND","ND"],
    [7303,"04/27/2015 22:00","67,3","1,15","ND","ND","ND","ND"],
    [7304,"04/27/2015 23:00","39,7","1,05","ND","ND","ND","ND"],
    [7305,"04/28/2015 00:00","42,4","0,6","ND","ND","ND","ND"],
    [7306,"04/28/2015 01:00","63,3","0,73","ND","ND","ND","ND"],
    [7307,"04/28/2015 02:00","29,2","0,24","ND","ND","ND","ND"],
    [7308,"04/28/2015 03:00","39,7","0,13","ND","ND","ND","ND"],
    [7309,"04/28/2015 04:00","36,5","ND","ND","ND","ND","ND"],
    [7310,"04/28/2015 05:00","20,5","ND","ND","ND","ND","ND"],
    [7311,"04/28/2015 06:00","40,5","0,47","ND","ND","ND","ND"],
    [7312,"04/28/2015 07:00","57,9","1,26","ND","ND","ND","ND"],
    [7313,"04/28/2015 08:00","52,5","4,11","ND","ND","ND","ND"],
    [7314,"04/28/2015 09:00","52,1","10,95","ND","ND","ND","ND"],
    [7315,"04/28/2015 10:00","46,2","11,27","ND","ND","ND","ND"],
    [7316,"04/28/2015 11:00","54,1","12,29","ND","ND","ND","ND"],
    [7317,"04/28/2015 12:00","61,9","7,89","ND","ND","ND","ND"],
    [7318,"04/28/2015 13:00","68,2","10,56","ND","ND","ND","ND"],
    [7319,"04/28/2015 14:00","60","8,04","ND","ND","ND","ND"],
    [7320,"04/28/2015 15:00","14,1","0,47","ND","ND","ND","ND"],
    [7321,"04/28/2015 16:00","14,6","0,97","ND","ND","ND","ND"],
    [7322,"04/28/2015 17:00","14","0,31","ND","ND","ND","ND"],
    [7323,"04/28/2015 18:00","17,8","0,37","ND","ND","ND","ND"],
    [7324,"04/28/2015 19:00","15,7","0,71","ND","ND","ND","ND"],
    [7325,"04/28/2015 20:00","17,4","0,81","ND","ND","ND","ND"],
    [7326,"04/28/2015 21:00","30,9","1,34","ND","ND","ND","ND"],
    [7327,"04/28/2015 22:00","73,7","2,2","ND","ND","ND","ND"],
    [7328,"04/28/2015 23:00","57,1","1,26","ND","ND","ND","ND"],
    [7329,"04/29/2015 00:00","60,3","1,57","ND","ND","ND","ND"],
    [7330,"04/29/2015 01:00","32,1","0,45","ND","ND","ND","ND"],
    [7331,"04/29/2015 02:00","23,9","0,05","ND","ND","ND","ND"],
    [7332,"04/29/2015 03:00","23,9","ND","ND","ND","ND","ND"],
    [7333,"04/29/2015 04:00","28,2","0,03","ND","ND","ND","ND"],
    [7334,"04/29/2015 05:00","32,1","0,13","ND","ND","ND","ND"],
    [7335,"04/29/2015 06:00","34","1,02","ND","ND","ND","ND"],
    [7336,"04/29/2015 07:00","88","2,57","ND","ND","ND","ND"],
    [7337,"04/29/2015 08:00","81,5","7,42","ND","ND","ND","ND"],
    [7338,"04/29/2015 09:00","81,1","10,38","ND","ND","ND","ND"],
    [7339,"04/29/2015 10:00","ND","ND","ND","ND","ND","ND"],
    [7340,"04/29/2015 11:00","ND","45,17","ND","ND","ND","ND"],
    [7341,"04/29/2015 12:00","ND","8,96","ND","ND","ND","ND"],
    [7342,"04/29/2015 13:00","ND","6,52","ND","ND","ND","ND"],
    [7343,"04/29/2015 14:00","58,6","4,95","ND","ND","ND","ND"],
    [7344,"04/29/2015 15:00","44","2,2","ND","ND","ND","ND"],
    [7345,"04/29/2015 16:00","26,9","0,81","ND","ND","ND","ND"],
    [7346,"04/29/2015 17:00","27,3","0,47","ND","ND","ND","ND"],
    [7347,"04/29/2015 18:00","30,9","0,24","ND","ND","ND","ND"],
    [7348,"04/29/2015 19:00","23,8","0,21","ND","ND","ND","ND"],
    [7349,"04/29/2015 20:00","21,9","0,18","ND","ND","ND","ND"],
    [7350,"04/29/2015 21:00","31,3","1,13","ND","ND","ND","ND"],
    [7351,"04/29/2015 22:00","55,5","1,89","ND","ND","ND","ND"],
    [7352,"04/29/2015 23:00","58,9","2,02","ND","ND","ND","ND"],
    [7353,"04/30/2015 00:00","37,9","0,47","ND","ND","ND","ND"],
    [7354,"04/30/2015 01:00","48,8","1,55","ND","ND","ND","ND"],
    [7355,"04/30/2015 02:00","37,7","1,07","ND","ND","ND","ND"],
    [7356,"04/30/2015 03:00","34,5","0,55","ND","ND","ND","ND"],
    [7357,"04/30/2015 04:00","32,9","0,42","ND","ND","ND","ND"],
    [7358,"04/30/2015 05:00","32","0,42","ND","ND","ND","ND"],
    [7359,"04/30/2015 06:00","43","0,84","ND","ND","ND","ND"],
    [7360,"04/30/2015 07:00","77,1","2,62","ND","ND","ND","ND"],
    [7361,"04/30/2015 08:00","79,8","3,67","ND","ND","ND","ND"],
    [7362,"04/30/2015 09:00","71","6,87","ND","ND","ND","ND"],
    [7363,"04/30/2015 10:00","61,2","10,45","ND","ND","ND","ND"],
    [7364,"04/30/2015 11:00","48","6,6","ND","ND","ND","ND"],
    [7365,"04/30/2015 12:00","41,3","3,98","ND","ND","ND","ND"],
    [7366,"04/30/2015 13:00","39,2","4,09","ND","ND","ND","ND"],
    [7367,"04/30/2015 14:00","47,4","3,38","ND","ND","ND","ND"],
    [7368,"04/30/2015 15:00","32,7","ND","ND","ND","ND","ND"],
    [7369,"04/30/2015 16:00","28,8","ND","ND","ND","ND","ND"],
    [7370,"04/30/2015 17:00","21,9","ND","ND","ND","ND","ND"],
    [7371,"04/30/2015 18:00","20,7","ND","ND","ND","ND","ND"],
    [7372,"04/30/2015 19:00","16,3","ND","ND","ND","ND","ND"],
    [7373,"04/30/2015 20:00","13,3","ND","ND","ND","ND","ND"],
    [7374,"04/30/2015 21:00","15,3","ND","ND","ND","ND","ND"],
    [7375,"04/30/2015 22:00","40,5","ND","ND","ND","ND","ND"],
    [7376,"04/30/2015 23:00","26,7","0,42","ND","ND","ND","ND"],
    [7377,"42009","39","ND","ND","ND","ND","ND"],
    [7378,"42009,04167","41,7","ND","ND","ND","ND","ND"],
    [7379,"42009,08333","24,5","ND","ND","ND","ND","ND"],
    [7380,"42009,125","22,5","ND","ND","ND","ND","ND"],
    [7381,"42009,16667","20,4","0,13","ND","ND","ND","ND"],
    [7382,"42009,20833","19,3","ND","ND","ND","ND","ND"],
    [7383,"42009,25","21,5","ND","ND","ND","ND","ND"],
    [7384,"42009,29167","27,2","1,05","ND","ND","ND","ND"],
    [7385,"42009,33333","41,7","2,75","ND","ND","ND","ND"],
    [7386,"42009,375","48,8","6,31","ND","ND","ND","ND"],
    [7387,"42009,41667","34,9","3,04","ND","ND","ND","ND"],
    [7388,"42009,45833","28,6","1,49","ND","ND","ND","ND"],
    [7389,"42009,5","23,9","0,71","ND","ND","ND","ND"],
    [7390,"42009,54167","27,1","1,49","ND","ND","ND","ND"],
    [7391,"42009,58333","25,4","1,1","ND","ND","ND","ND"],
    [7392,"42009,625","25,3","0,55","ND","ND","ND","ND"],
    [7393,"42009,66667","32,8","2,04","ND","ND","ND","ND"],
    [7394,"42009,70833","38,8","1,91","ND","ND","ND","ND"],
    [7395,"42009,75","58,4","0,21","ND","ND","ND","ND"],
    [7396,"42009,79167","56,7","0,47","ND","ND","ND","ND"],
    [7397,"42009,83333","33,7","0,6","ND","ND","ND","ND"],
    [7398,"42009,875","40,1","0,39","ND","ND","ND","ND"],
    [7399,"42009,91667","57,8","ND","ND","ND","ND","ND"],
    [7400,"42009,95833","51,2","ND","ND","ND","ND","ND"],
    [7401,"42040","39,8","1,68","ND","ND","ND","ND"],
    [7402,"42040,04167","38","ND","ND","ND","ND","ND"],
    [7403,"42040,08333","30,4","ND","ND","ND","ND","ND"],
    [7404,"42040,125","32,2","ND","ND","ND","ND","ND"],
    [7405,"42040,16667","30,3","ND","ND","ND","ND","ND"],
    [7406,"42040,20833","31","ND","ND","ND","ND","ND"],
    [7407,"42040,25","34","ND","ND","ND","ND","ND"],
    [7408,"42040,29167","58,8","3,22","ND","ND","ND","ND"],
    [7409,"42040,33333","89,1","39,75","ND","ND","ND","ND"],
    [7410,"42040,375","90,6","ND","ND","ND","ND","ND"],
    [7411,"42040,41667","72","31,57","ND","ND","ND","ND"],
    [7412,"42040,45833","45,8","7,34","ND","ND","ND","ND"],
    [7413,"42040,5","31,8","3,51","ND","ND","ND","ND"],
    [7414,"42040,54167","59,3","6,87","ND","ND","ND","ND"],
    [7415,"42040,58333","47,5","2,07","ND","ND","ND","ND"],
    [7416,"42040,625","21,2","ND","ND","ND","ND","ND"],
    [7417,"42040,66667","16,6","ND","ND","ND","ND","ND"],
    [7418,"42040,70833","14,4","ND","ND","ND","ND","ND"],
    [7419,"42040,75","14,8","ND","ND","ND","ND","ND"],
    [7420,"42040,79167","16,1","ND","ND","ND","ND","ND"],
    [7421,"42040,83333","19","ND","ND","ND","ND","ND"],
    [7422,"42040,875","30,9","0,21","ND","ND","ND","ND"],
    [7423,"42040,91667","39","0,37","ND","ND","ND","ND"],
    [7424,"42040,95833","41,1","1,21","ND","ND","ND","ND"],
    [7425,"42068","36,9","ND","ND","ND","ND","ND"],
    [7426,"42068,04167","39,4","1,39","ND","ND","ND","ND"],
    [7427,"42068,08333","31,5","1,39","ND","ND","ND","ND"],
    [7428,"42068,125","29,9","1,91","ND","ND","ND","ND"],
    [7429,"42068,16667","27,3","0,52","ND","ND","ND","ND"],
    [7430,"42068,20833","25,4","0,08","ND","ND","ND","ND"],
    [7431,"42068,25","11,3","ND","ND","ND","ND","ND"],
    [7432,"42068,29167","14,6","ND","ND","ND","ND","ND"],
    [7433,"42068,33333","12,3","ND","ND","ND","ND","ND"],
    [7434,"42068,375","9,5","ND","ND","ND","ND","ND"],
    [7435,"42068,41667","13,6","ND","ND","ND","ND","ND"],
    [7436,"42068,45833","13,1","ND","ND","ND","ND","ND"],
    [7437,"42068,5","21,4","ND","ND","ND","ND","ND"],
    [7438,"42068,54167","19,6","ND","ND","ND","ND","ND"],
    [7439,"42068,58333","13","ND","ND","ND","ND","ND"],
    [7440,"42068,625","16,4","ND","ND","ND","ND","ND"],
    [7441,"42068,66667","19,2","ND","ND","ND","ND","ND"],
    [7442,"42068,70833","22,4","ND","ND","ND","ND","ND"],
    [7443,"42068,75","28,3","ND","ND","ND","ND","ND"],
    [7444,"42068,79167","31,8","ND","ND","ND","ND","ND"],
    [7445,"42068,83333","44,1","0,21","ND","ND","ND","ND"],
    [7446,"42068,875","57,8","ND","ND","ND","ND","ND"],
    [7447,"42068,91667","41,7","ND","ND","ND","ND","ND"],
    [7448,"42068,95833","39","ND","ND","ND","ND","ND"],
    [7449,"42099","31,7","ND","ND","ND","ND","ND"],
    [7450,"42099,04167","24,7","ND","ND","ND","ND","ND"],
    [7451,"42099,08333","28,8","ND","ND","ND","ND","ND"],
    [7452,"42099,125","27,3","ND","ND","ND","ND","ND"],
    [7453,"42099,16667","25,3","ND","ND","ND","ND","ND"],
    [7454,"42099,20833","29,9","ND","ND","ND","ND","ND"],
    [7455,"42099,25","35,9","0,81","ND","ND","ND","ND"],
    [7456,"42099,29167","68,5","0,84","ND","ND","ND","ND"],
    [7457,"42099,33333","84,8","3,98","ND","ND","ND","ND"],
    [7458,"42099,375","64,3","5,06","ND","ND","ND","ND"],
    [7459,"42099,41667","32,3","5,06","ND","ND","ND","ND"],
    [7460,"42099,45833","35,3","2,75","ND","ND","ND","ND"],
    [7461,"42099,5","33,5","1,94","ND","ND","ND","ND"],
    [7462,"42099,54167","33,9","1,62","ND","ND","ND","ND"],
    [7463,"42099,58333","37,7","0,76","ND","ND","ND","ND"],
    [7464,"42099,625","47,8","0,68","ND","ND","ND","ND"],
    [7465,"42099,66667","21,9","ND","ND","ND","ND","ND"],
    [7466,"42099,70833","15,4","ND","ND","ND","ND","ND"],
    [7467,"42099,75","14,7","ND","ND","ND","ND","ND"],
    [7468,"42099,79167","16,5","ND","ND","ND","ND","ND"],
    [7469,"42099,83333","34,4","0,1","ND","ND","ND","ND"],
    [7470,"42099,875","51,3","0,05","ND","ND","ND","ND"],
    [7471,"42099,91667","44,1","0,16","ND","ND","ND","ND"],
    [7472,"42099,95833","42,3","ND","ND","ND","ND","ND"],
    [7473,"42129","35,8","ND","ND","ND","ND","ND"],
    [7474,"42129,04167","26,9","ND","ND","ND","ND","ND"],
    [7475,"42129,08333","23,4","ND","ND","ND","ND","ND"],
    [7476,"42129,125","24,6","ND","ND","ND","ND","ND"],
    [7477,"42129,16667","32,3","ND","ND","ND","ND","ND"],
    [7478,"42129,20833","27,6","ND","ND","ND","ND","ND"],
    [7479,"42129,25","43,7","ND","ND","ND","ND","ND"],
    [7480,"42129,29167","71,3","0,29","ND","ND","ND","ND"],
    [7481,"42129,33333","53,8","2,07","ND","ND","ND","ND"],
    [7482,"42129,375","75","5,66","ND","ND","ND","ND"],
    [7483,"42129,41667","79,1","6,24","ND","ND","ND","ND"],
    [7484,"42129,45833","43,7","2,96","ND","ND","ND","ND"],
    [7485,"42129,5","43,8","1,41","ND","ND","ND","ND"],
    [7486,"42129,54167","40,6","0,58","ND","ND","ND","ND"],
    [7487,"42129,58333","46,6","0,39","ND","ND","ND","ND"],
    [7488,"42129,625","47,2","0,63","ND","ND","ND","ND"],
    [7489,"42129,66667","50,2","ND","ND","ND","ND","ND"],
    [7490,"42129,70833","19,8","ND","ND","ND","ND","ND"],
    [7491,"42129,75","22,1","ND","ND","ND","ND","ND"],
    [7492,"42129,79167","21,8","ND","ND","ND","ND","ND"],
    [7493,"42129,83333","20,8","ND","ND","ND","ND","ND"],
    [7494,"42129,875","61,6","0,71","ND","ND","ND","ND"],
    [7495,"42129,91667","51,3","1,34","ND","ND","ND","ND"],
    [7496,"42129,95833","51,7","0,18","ND","ND","ND","ND"],
    [7497,"42160","38,3","0,03","ND","ND","ND","ND"],
    [7498,"42160,04167","53,7","ND","ND","ND","ND","ND"],
    [7499,"42160,08333","44,4","ND","ND","ND","ND","ND"],
    [7500,"42160,125","38","ND","ND","ND","ND","ND"],
    [7501,"42160,16667","29,5","ND","ND","ND","ND","ND"],
    [7502,"42160,20833","37,2","ND","ND","ND","ND","ND"],
    [7503,"42160,25","41,2","ND","ND","ND","ND","ND"],
    [7504,"42160,29167","41,1","ND","ND","ND","ND","ND"],
    [7505,"42160,33333","10,3","ND","ND","ND","ND","ND"],
    [7506,"42160,375","26,2","3,67","ND","ND","ND","ND"],
    [7507,"42160,41667","26,2","29,95","ND","ND","ND","ND"],
    [7508,"42160,45833","42,4","11,71","ND","ND","ND","ND"],
    [7509,"42160,5","39,1","3,8","ND","ND","ND","ND"],
    [7510,"42160,54167","32,5","1,28","ND","ND","ND","ND"],
    [7511,"42160,58333","36,6","0,6","ND","ND","ND","ND"],
    [7512,"42160,625","39,5","0,34","ND","ND","ND","ND"],
    [7513,"42160,66667","47,5","0,34","ND","ND","ND","ND"],
    [7514,"42160,70833","34,4","0,26","ND","ND","ND","ND"],
    [7515,"42160,75","21,6","ND","ND","ND","ND","ND"],
    [7516,"42160,79167","36,3","ND","ND","ND","ND","ND"],
    [7517,"42160,83333","48,5","2,1","ND","ND","ND","ND"],
    [7518,"42160,875","53,4","2,59","ND","ND","ND","ND"],
    [7519,"42160,91667","46,1","0,29","ND","ND","ND","ND"],
    [7520,"42160,95833","44,5","0,18","ND","ND","ND","ND"],
    [7521,"42190","52,5","0,63","ND","ND","ND","ND"],
    [7522,"42190,04167","33,5","ND","ND","ND","ND","ND"],
    [7523,"42190,08333","26,9","ND","ND","ND","ND","ND"],
    [7524,"42190,125","24,1","ND","ND","ND","ND","ND"],
    [7525,"42190,16667","25,3","ND","ND","ND","ND","ND"],
    [7526,"42190,20833","32,2","ND","ND","ND","ND","ND"],
    [7527,"42190,25","43,4","ND","ND","ND","ND","ND"],
    [7528,"42190,29167","68,1","1,41","ND","ND","ND","ND"],
    [7529,"42190,33333","66","2,52","ND","ND","ND","ND"],
    [7530,"42190,375","46,7","4,69","ND","ND","ND","ND"],
    [7531,"42190,41667","32,2","4,66","ND","ND","ND","ND"],
    [7532,"42190,45833","35,6","4,06","ND","ND","ND","ND"],
    [7533,"42190,5","38,9","3,43","ND","ND","ND","ND"],
    [7534,"42190,54167","47,6","2,54","ND","ND","ND","ND"],
    [7535,"42190,58333","47,8","1,76","ND","ND","ND","ND"],
    [7536,"42190,625","10,2","0,03","ND","ND","ND","ND"],
    [7537,"42190,66667","9,1","ND","ND","ND","ND","ND"],
    [7538,"42190,70833","9,3","ND","ND","ND","ND","ND"],
    [7539,"42190,75","11,6","ND","ND","ND","ND","ND"],
    [7540,"42190,79167","12,4","0,73","ND","ND","ND","ND"],
    [7541,"42190,83333","43,3","1,31","ND","ND","ND","ND"],
    [7542,"42190,875","43,2","1,55","ND","ND","ND","ND"],
    [7543,"42190,91667","51,6","1,02","ND","ND","ND","ND"],
    [7544,"42190,95833","29,8","0,52","ND","ND","ND","ND"],
    [7545,"42221","46","0,66","ND","ND","ND","ND"],
    [7546,"42221,04167","22,1","0,16","ND","ND","ND","ND"],
    [7547,"42221,08333","23,9","0,37","ND","ND","ND","ND"],
    [7548,"42221,125","28,7","0,21","ND","ND","ND","ND"],
    [7549,"42221,16667","27,9","0,21","ND","ND","ND","ND"],
    [7550,"42221,20833","32,5","0,37","ND","ND","ND","ND"],
    [7551,"42221,25","42,5","0,73","ND","ND","ND","ND"],
    [7552,"42221,29167","62,3","4,06","ND","ND","ND","ND"],
    [7553,"42221,33333","75,9","6,79","ND","ND","ND","ND"],
    [7554,"42221,375","84,7","11,16","ND","ND","ND","ND"],
    [7555,"42221,41667","57,5","17,87","ND","ND","ND","ND"],
    [7556,"42221,45833","57,5","12,21","ND","ND","ND","ND"],
    [7557,"42221,5","52,4","10,66","ND","ND","ND","ND"],
    [7558,"42221,54167","41,3","8,02","ND","ND","ND","ND"],
    [7559,"42221,58333","54,3","4,3","ND","ND","ND","ND"],
    [7560,"42221,625","39,9","3,12","ND","ND","ND","ND"],
    [7561,"42221,66667","44,7","2,33","ND","ND","ND","ND"],
    [7562,"42221,70833","53,4","2,36","ND","ND","ND","ND"],
    [7563,"42221,75","49","1,02","ND","ND","ND","ND"],
    [7564,"42221,79167","24","0,71","ND","ND","ND","ND"],
    [7565,"42221,83333","39,8","0,68","ND","ND","ND","ND"],
    [7566,"42221,875","52,1","0,86","ND","ND","ND","ND"],
    [7567,"42221,91667","54","2,46","ND","ND","ND","ND"],
    [7568,"42221,95833","65,2","1,36","ND","ND","ND","ND"],
    [7569,"42252","48,5","1,23","ND","ND","ND","ND"],
    [7570,"42252,04167","37,5","0,5","ND","ND","ND","ND"],
    [7571,"42252,08333","31,9","0,31","ND","ND","ND","ND"],
    [7572,"42252,125","32,6","0,73","ND","ND","ND","ND"],
    [7573,"42252,16667","35,6","0,71","ND","ND","ND","ND"],
    [7574,"42252,20833","29,2","0,47","ND","ND","ND","ND"],
    [7575,"42252,25","36,9","0,81","ND","ND","ND","ND"],
    [7576,"42252,29167","51,8","1,31","ND","ND","ND","ND"],
    [7577,"42252,33333","63,4","3,2","ND","ND","ND","ND"],
    [7578,"42252,375","50,9","3,12","ND","ND","ND","ND"],
    [7579,"42252,41667","47","3,12","ND","ND","ND","ND"],
    [7580,"42252,45833","38,4","4,53","ND","ND","ND","ND"],
    [7581,"42252,5","49,6","4,24","ND","ND","ND","ND"],
    [7582,"42252,54167","48","3,22","ND","ND","ND","ND"],
    [7583,"42252,58333","53,8","2,41","ND","ND","ND","ND"],
    [7584,"42252,625","51,4","2,07","ND","ND","ND","ND"],
    [7585,"42252,66667","36,7","0,84","ND","ND","ND","ND"],
    [7586,"42252,70833","19,6","0,31","ND","ND","ND","ND"],
    [7587,"42252,75","16,6","0,16","ND","ND","ND","ND"],
    [7588,"42252,79167","18,7","0,26","ND","ND","ND","ND"],
    [7589,"42252,83333","24,4","1,1","ND","ND","ND","ND"],
    [7590,"42252,875","30,8","0,97","ND","ND","ND","ND"],
    [7591,"42252,91667","23,2","0,86","ND","ND","ND","ND"],
    [7592,"42252,95833","47","1,7","ND","ND","ND","ND"],
    [7593,"42282","26,9","0,37","ND","ND","ND","ND"],
    [7594,"42282,04167","34,6","1,21","ND","ND","ND","ND"],
    [7595,"42282,08333","37","0,86","ND","ND","ND","ND"],
    [7596,"42282,125","38","1,05","ND","ND","ND","ND"],
    [7597,"42282,16667","40,2","1,57","ND","ND","ND","ND"],
    [7598,"42282,20833","40,2","0,58","ND","ND","ND","ND"],
    [7599,"42282,25","21,1","0,03","ND","ND","ND","ND"],
    [7600,"42282,29167","29,4","0,52","ND","ND","ND","ND"],
    [7601,"42282,33333","25,3","3,46","ND","ND","ND","ND"],
    [7602,"42282,375","30,9","5,35","ND","ND","ND","ND"],
    [7603,"42282,41667","33,4","4,45","ND","ND","ND","ND"],
    [7604,"42282,45833","36","4,27","ND","ND","ND","ND"],
    [7605,"42282,5","42","4,74","ND","ND","ND","ND"],
    [7606,"42282,54167","44,3","4,45","ND","ND","ND","ND"],
    [7607,"42282,58333","44,8","5,45","ND","ND","ND","ND"],
    [7608,"42282,625","34,3","1,78","ND","ND","ND","ND"],
    [7609,"42282,66667","17","1,02","ND","ND","ND","ND"],
    [7610,"42282,70833","27,9","0,73","ND","ND","ND","ND"],
    [7611,"42282,75","20,1","0,37","ND","ND","ND","ND"],
    [7612,"42282,79167","20,6","0,71","ND","ND","ND","ND"],
    [7613,"42282,83333","28","1,05","ND","ND","ND","ND"],
    [7614,"42282,875","45,4","1,34","ND","ND","ND","ND"],
    [7615,"42282,91667","48,1","1,02","ND","ND","ND","ND"],
    [7616,"42282,95833","40,2","0,73","ND","ND","ND","ND"],
    [7617,"42313","35,7","0,37","ND","ND","ND","ND"],
    [7618,"42313,04167","23,5","0,42","ND","ND","ND","ND"],
    [7619,"42313,08333","30,4","0,66","ND","ND","ND","ND"],
    [7620,"42313,125","25,3","0,31","ND","ND","ND","ND"],
    [7621,"42313,16667","25,2","0,21","ND","ND","ND","ND"],
    [7622,"42313,20833","26,9","0,1","ND","ND","ND","ND"],
    [7623,"42313,25","36","0,45","ND","ND","ND","ND"],
    [7624,"42313,29167","ND","ND","ND","ND","ND","ND"],
    [7625,"42313,33333","72,3","2,57","ND","ND","ND","ND"],
    [7626,"42313,375","48,1","3,59","ND","ND","ND","ND"],
    [7627,"42313,41667","58,3","4,14","ND","ND","ND","ND"],
    [7628,"42313,45833","57,4","5,71","ND","ND","ND","ND"],
    [7629,"42313,5","64,1","6,26","ND","ND","ND","ND"],
    [7630,"42313,54167","60","7,6","ND","ND","ND","ND"],
    [7631,"42313,58333","62,9","10,53","ND","ND","ND","ND"],
    [7632,"42313,625","27,1","1,99","ND","ND","ND","ND"],
    [7633,"42313,66667","19,4","0,68","ND","ND","ND","ND"],
    [7634,"42313,70833","18,4","0,45","ND","ND","ND","ND"],
    [7635,"42313,75","21,6","0,6","ND","ND","ND","ND"],
    [7636,"42313,79167","26,1","1,83","ND","ND","ND","ND"],
    [7637,"42313,83333","42,2","0,47","ND","ND","ND","ND"],
    [7638,"42313,875","46,1","0,76","ND","ND","ND","ND"],
    [7639,"42313,91667","51,2","1,68","ND","ND","ND","ND"],
    [7640,"42313,95833","49,2","0,73","ND","ND","ND","ND"],
    [7641,"42343","63,2","1,52","ND","ND","ND","ND"],
    [7642,"42343,04167","34,7","0,16","ND","ND","ND","ND"],
    [7643,"42343,08333","27","0,05","ND","ND","ND","ND"],
    [7644,"42343,125","28","0,03","ND","ND","ND","ND"],
    [7645,"42343,16667","30,3","0,08","ND","ND","ND","ND"],
    [7646,"42343,20833","34","0,45","ND","ND","ND","ND"],
    [7647,"42343,25","53,4","1","ND","ND","ND","ND"],
    [7648,"42343,29167","53,4","1,83","ND","ND","ND","ND"],
    [7649,"42343,33333","55,3","4,22","ND","ND","ND","ND"],
    [7650,"42343,375","67,8","6,71","ND","ND","ND","ND"],
    [7651,"42343,41667","54,4","11,58","ND","ND","ND","ND"],
    [7652,"42343,45833","56,9","9,46","ND","ND","ND","ND"],
    [7653,"42343,5","53,7","5,45","ND","ND","ND","ND"],
    [7654,"42343,54167","59,9","3,72","ND","ND","ND","ND"],
    [7655,"42343,58333","70,1","3,25","ND","ND","ND","ND"],
    [7656,"42343,625","51,4","1,86","ND","ND","ND","ND"],
    [7657,"42343,66667","28,4","1,1","ND","ND","ND","ND"],
    [7658,"42343,70833","23,9","0,26","ND","ND","ND","ND"],
    [7659,"42343,75","21,7","0,18","ND","ND","ND","ND"],
    [7660,"42343,79167","20,2","0,1","ND","ND","ND","ND"],
    [7661,"42343,83333","20,7","ND","ND","ND","ND","ND"],
    [7662,"42343,875","39,6","0,5","ND","ND","ND","ND"],
    [7663,"42343,91667","50,3","1,28","ND","ND","ND","ND"],
    [7664,"42343,95833","50,3","1,65","ND","ND","ND","ND"],
    [7665,"05/13/2015 00:00","44,5","1,39","ND","ND","ND","ND"],
    [7666,"05/13/2015 01:00","50,1","0,73","ND","ND","ND","ND"],
    [7667,"05/13/2015 02:00","35,2","0,39","ND","ND","ND","ND"],
    [7668,"05/13/2015 03:00","30","0,13","ND","ND","ND","ND"],
    [7669,"05/13/2015 04:00","28,3","0,26","ND","ND","ND","ND"],
    [7670,"05/13/2015 05:00","29,8","0,42","ND","ND","ND","ND"],
    [7671,"05/13/2015 06:00","49,7","0,89","ND","ND","ND","ND"],
    [7672,"05/13/2015 07:00","80,6","2,28","ND","ND","ND","ND"],
    [7673,"05/13/2015 08:00","89,5","2,91","ND","ND","ND","ND"],
    [7674,"05/13/2015 09:00","68,5","6","ND","ND","ND","ND"],
    [7675,"05/13/2015 10:00","53,6","7,1","ND","ND","ND","ND"],
    [7676,"05/13/2015 11:00","55,6","10,01","ND","ND","ND","ND"],
    [7677,"05/13/2015 12:00","66","5,42","ND","ND","ND","ND"],
    [7678,"05/13/2015 13:00","60,5","3,59","ND","ND","ND","ND"],
    [7679,"05/13/2015 14:00","38,3","1,86","ND","ND","ND","ND"],
    [7680,"05/13/2015 15:00","27,4","2,25","ND","ND","ND","ND"],
    [7681,"05/13/2015 16:00","21,1","0,73","ND","ND","ND","ND"],
    [7682,"05/13/2015 17:00","16,9","0,29","ND","ND","ND","ND"],
    [7683,"05/13/2015 18:00","15,5","0,31","ND","ND","ND","ND"],
    [7684,"05/13/2015 19:00","39,2","1,62","ND","ND","ND","ND"],
    [7685,"05/13/2015 20:00","28,6","0,73","ND","ND","ND","ND"],
    [7686,"05/13/2015 21:00","22,9","0,97","ND","ND","ND","ND"],
    [7687,"05/13/2015 22:00","34,9","2,1","ND","ND","ND","ND"],
    [7688,"05/13/2015 23:00","45,1","1,68","ND","ND","ND","ND"],
    [7689,"05/14/2015 00:00","47,2","0,47","ND","ND","ND","ND"],
    [7690,"05/14/2015 01:00","52,2","1,28","ND","ND","ND","ND"],
    [7691,"05/14/2015 02:00","56,4","1,57","ND","ND","ND","ND"],
    [7692,"05/14/2015 03:00","42,2","0,86","ND","ND","ND","ND"],
    [7693,"05/14/2015 04:00","41,2","1,34","ND","ND","ND","ND"],
    [7694,"05/14/2015 05:00","42,5","0,94","ND","ND","ND","ND"],
    [7695,"05/14/2015 06:00","59,3","1,52","ND","ND","ND","ND"],
    [7696,"05/14/2015 07:00","87,7","2,31","ND","ND","ND","ND"],
    [7697,"05/14/2015 08:00","82,4","7,81","ND","ND","ND","ND"],
    [7698,"05/14/2015 09:00","55,2","12,87","ND","ND","ND","ND"],
    [7699,"05/14/2015 10:00","59,8","11,06","ND","ND","ND","ND"],
    [7700,"05/14/2015 11:00","46,6","7,57","ND","ND","ND","ND"],
    [7701,"05/14/2015 12:00","45,9","4,11","ND","ND","ND","ND"],
    [7702,"05/14/2015 13:00","27,4","3,51","ND","ND","ND","ND"],
    [7703,"05/14/2015 14:00","57,1","3,01","ND","ND","ND","ND"],
    [7704,"05/14/2015 15:00","17,4","0,18","ND","ND","ND","ND"],
    [7705,"05/14/2015 16:00","10,1","0,03","ND","ND","ND","ND"],
    [7706,"05/14/2015 17:00","21,3","ND","ND","ND","ND","ND"],
    [7707,"05/14/2015 18:00","19,3","0,03","ND","ND","ND","ND"],
    [7708,"05/14/2015 19:00","28,6","1,44","ND","ND","ND","ND"],
    [7709,"05/14/2015 20:00","42,5","1,65","ND","ND","ND","ND"],
    [7710,"05/14/2015 21:00","55,8","1,41","ND","ND","ND","ND"],
    [7711,"05/14/2015 22:00","50,1","2,93","ND","ND","ND","ND"],
    [7712,"05/14/2015 23:00","59,3","2,17","ND","ND","ND","ND"],
    [7713,"05/15/2015 00:00","50,4","2,8","ND","ND","ND","ND"],
    [7714,"05/15/2015 01:00","31,9","0,21","ND","ND","ND","ND"],
    [7715,"05/15/2015 02:00","27,3","0,03","ND","ND","ND","ND"],
    [7716,"05/15/2015 03:00","27,3","0,03","ND","ND","ND","ND"],
    [7717,"05/15/2015 04:00","29,1","0,08","ND","ND","ND","ND"],
    [7718,"05/15/2015 05:00","29,8","0,13","ND","ND","ND","ND"],
    [7719,"05/15/2015 06:00","36,7","0,81","ND","ND","ND","ND"],
    [7720,"05/15/2015 07:00","57","1,39","ND","ND","ND","ND"],
    [7721,"05/15/2015 08:00","55,5","2,78","ND","ND","ND","ND"],
    [7722,"05/15/2015 09:00","69,7","4,06","ND","ND","ND","ND"],
    [7723,"05/15/2015 10:00","61,4","4,8","ND","ND","ND","ND"],
    [7724,"05/15/2015 11:00","69,6","6,5","ND","ND","ND","ND"],
    [7725,"05/15/2015 12:00","67,6","5,29","ND","ND","ND","ND"],
    [7726,"05/15/2015 13:00","55,3","6,03","ND","ND","ND","ND"],
    [7727,"05/15/2015 14:00","43,9","8,46","ND","ND","ND","ND"],
    [7728,"05/15/2015 15:00","43,9","5,84","ND","ND","ND","ND"],
    [7729,"05/15/2015 16:00","42","3,51","ND","ND","ND","ND"],
    [7730,"05/15/2015 17:00","6,7","0,79","ND","ND","ND","ND"],
    [7731,"05/15/2015 18:00","11,7","0,55","ND","ND","ND","ND"],
    [7732,"05/15/2015 19:00","14","0,73","ND","ND","ND","ND"],
    [7733,"05/15/2015 20:00","14","0,89","ND","ND","ND","ND"],
    [7734,"05/15/2015 21:00","25,4","1,23","ND","ND","ND","ND"],
    [7735,"05/15/2015 22:00","52,8","1,6","ND","ND","ND","ND"],
    [7736,"05/15/2015 23:00","52,2","2,67","ND","ND","ND","ND"],
    [7737,"05/16/2015 00:00","42,7","1,13","ND","ND","ND","ND"],
    [7738,"05/16/2015 01:00","52,7","2,83","ND","ND","ND","ND"],
    [7739,"05/16/2015 02:00","44,8","2,57","ND","ND","ND","ND"],
    [7740,"05/16/2015 03:00","44,2","2,44","ND","ND","ND","ND"],
    [7741,"05/16/2015 04:00","48","2,36","ND","ND","ND","ND"],
    [7742,"05/16/2015 05:00","58,6","4,24","ND","ND","ND","ND"],
    [7743,"05/16/2015 06:00","39,9","4,72","ND","ND","ND","ND"],
    [7744,"05/16/2015 07:00","46,7","4,06","ND","ND","ND","ND"],
    [7745,"05/16/2015 08:00","34,1","4,74","ND","ND","ND","ND"],
    [7746,"05/16/2015 09:00","57,3","5,24","ND","ND","ND","ND"],
    [7747,"05/16/2015 10:00","53","7,44","ND","ND","ND","ND"],
    [7748,"05/16/2015 11:00","43,2","8,15","ND","ND","ND","ND"],
    [7749,"05/16/2015 12:00","52,3","6,45","ND","ND","ND","ND"],
    [7750,"05/16/2015 13:00","52,8","5,19","ND","ND","ND","ND"],
    [7751,"05/16/2015 14:00","60,1","4,64","ND","ND","ND","ND"],
    [7752,"05/16/2015 15:00","22","1,18","ND","ND","ND","ND"],
    [7753,"05/16/2015 16:00","10,4","0,55","ND","ND","ND","ND"],
    [7754,"05/16/2015 17:00","9,7","0,42","ND","ND","ND","ND"],
    [7755,"05/16/2015 18:00","9,2","0,29","ND","ND","ND","ND"],
    [7756,"05/16/2015 19:00","7,9","0,1","ND","ND","ND","ND"],
    [7757,"05/16/2015 20:00","24,9","1,21","ND","ND","ND","ND"],
    [7758,"05/16/2015 21:00","37,6","1,86","ND","ND","ND","ND"],
    [7759,"05/16/2015 22:00","30,6","1,44","ND","ND","ND","ND"],
    [7760,"05/16/2015 23:00","37,4","1,47","ND","ND","ND","ND"],
    [7761,"05/17/2015 00:00","38,6","0,58","ND","ND","ND","ND"],
    [7762,"05/17/2015 01:00","26","0,6","ND","ND","ND","ND"],
    [7763,"05/17/2015 02:00","16,2","0,47","ND","ND","ND","ND"],
    [7764,"05/17/2015 03:00","10,4","0,05","ND","ND","ND","ND"],
    [7765,"05/17/2015 04:00","10,7","0,1","ND","ND","ND","ND"],
    [7766,"05/17/2015 05:00","19,7","0,05","ND","ND","ND","ND"],
    [7767,"05/17/2015 06:00","25,5","0,13","ND","ND","ND","ND"],
    [7768,"05/17/2015 07:00","29","0,16","ND","ND","ND","ND"],
    [7769,"05/17/2015 08:00","21,2","0,97","ND","ND","ND","ND"],
    [7770,"05/17/2015 09:00","35,8","1,81","ND","ND","ND","ND"],
    [7771,"05/17/2015 10:00","44,3","3,77","ND","ND","ND","ND"],
    [7772,"05/17/2015 11:00","42,9","3,83","ND","ND","ND","ND"],
    [7773,"05/17/2015 12:00","38,9","2,88","ND","ND","ND","ND"],
    [7774,"05/17/2015 13:00","41,7","2,93","ND","ND","ND","ND"],
    [7775,"05/17/2015 14:00","35,5","2,8","ND","ND","ND","ND"],
    [7776,"05/17/2015 15:00","5","0,92","ND","ND","ND","ND"],
    [7777,"05/17/2015 16:00","5,1","0,24","ND","ND","ND","ND"],
    [7778,"05/17/2015 17:00","6,8","0,16","ND","ND","ND","ND"],
    [7779,"05/17/2015 18:00","7,3","0,13","ND","ND","ND","ND"],
    [7780,"05/17/2015 19:00","10,7","0,45","ND","ND","ND","ND"],
    [7781,"05/17/2015 20:00","22,7","0,39","ND","ND","ND","ND"],
    [7782,"05/17/2015 21:00","39,5","1","ND","ND","ND","ND"],
    [7783,"05/17/2015 22:00","37,5","0,97","ND","ND","ND","ND"],
    [7784,"05/17/2015 23:00","45,9","0,79","ND","ND","ND","ND"],
    [7785,"05/18/2015 00:00","43","0,55","ND","ND","ND","ND"],
    [7786,"05/18/2015 01:00","30,4","0,42","ND","ND","ND","ND"],
    [7787,"05/18/2015 02:00","29,9","0,37","ND","ND","ND","ND"],
    [7788,"05/18/2015 03:00","26,9","0,29","ND","ND","ND","ND"],
    [7789,"05/18/2015 04:00","43,8","1,13","ND","ND","ND","ND"],
    [7790,"05/18/2015 05:00","39,7","4,19","ND","ND","ND","ND"],
    [7791,"05/18/2015 06:00","38","2,12","ND","ND","ND","ND"],
    [7792,"05/18/2015 07:00","44,5","1,73","ND","ND","ND","ND"],
    [7793,"05/18/2015 08:00","44,8","2,44","ND","ND","ND","ND"],
    [7794,"05/18/2015 09:00","54,9","7,21","ND","ND","ND","ND"],
    [7795,"05/18/2015 10:00","55,5","11,87","ND","ND","ND","ND"],
    [7796,"05/18/2015 11:00","45,2","8,15","ND","ND","ND","ND"],
    [7797,"05/18/2015 12:00","45,7","7,39","ND","ND","ND","ND"],
    [7798,"05/18/2015 13:00","30","6,31","ND","ND","ND","ND"],
    [7799,"05/18/2015 14:00","40","10,19","ND","ND","ND","ND"],
    [7800,"05/18/2015 15:00","42,3","9,93","ND","ND","ND","ND"],
    [7801,"05/18/2015 16:00","25,2","1,52","ND","ND","ND","ND"],
    [7802,"05/18/2015 17:00","12,8","1,1","ND","ND","ND","ND"],
    [7803,"05/18/2015 18:00","19,9","6,42","ND","ND","ND","ND"],
    [7804,"05/18/2015 19:00","22,4","6,26","ND","ND","ND","ND"],
    [7805,"05/18/2015 20:00","35,7","2,73","ND","ND","ND","ND"],
    [7806,"05/18/2015 21:00","48,1","3,54","ND","ND","ND","ND"],
    [7807,"05/18/2015 22:00","52,4","0,94","ND","ND","ND","ND"],
    [7808,"05/18/2015 23:00","38,3","0,21","ND","ND","ND","ND"],
    [7809,"05/19/2015 00:00","49","2,25","ND","ND","ND","ND"],
    [7810,"05/19/2015 01:00","22,1","ND","ND","ND","ND","ND"],
    [7811,"05/19/2015 02:00","19,5","ND","ND","ND","ND","ND"],
    [7812,"05/19/2015 03:00","20,3","ND","ND","ND","ND","ND"],
    [7813,"05/19/2015 04:00","20,3","ND","ND","ND","ND","ND"],
    [7814,"05/19/2015 05:00","29,5","ND","ND","ND","ND","ND"],
    [7815,"05/19/2015 06:00","50,4","0,16","ND","ND","ND","ND"],
    [7816,"05/19/2015 07:00","65,3","2,04","ND","ND","ND","ND"],
    [7817,"05/19/2015 08:00","90,1","30,37","ND","ND","ND","ND"],
    [7818,"05/19/2015 09:00","73","27,54","ND","ND","ND","ND"],
    [7819,"05/19/2015 10:00","61,7","12,5","ND","ND","ND","ND"],
    [7820,"05/19/2015 11:00","34,1","7,23","ND","ND","ND","ND"],
    [7821,"05/19/2015 12:00","38,8","5,71","ND","ND","ND","ND"],
    [7822,"05/19/2015 13:00","46,9","4,77","ND","ND","ND","ND"],
    [7823,"05/19/2015 14:00","58,6","5,03","ND","ND","ND","ND"],
    [7824,"05/19/2015 15:00","23,2","0,86","ND","ND","ND","ND"],
    [7825,"05/19/2015 16:00","12","0,52","ND","ND","ND","ND"],
    [7826,"05/19/2015 17:00","6,2","0,18","ND","ND","ND","ND"],
    [7827,"05/19/2015 18:00","7,2","0,45","ND","ND","ND","ND"],
    [7828,"05/19/2015 19:00","15,3","0,31","ND","ND","ND","ND"],
    [7829,"05/19/2015 20:00","13,9","1","ND","ND","ND","ND"],
    [7830,"05/19/2015 21:00","49,5","1,78","ND","ND","ND","ND"],
    [7831,"05/19/2015 22:00","58,4","3,14","ND","ND","ND","ND"],
    [7832,"05/19/2015 23:00","63,7","1,36","ND","ND","ND","ND"],
    [7833,"05/20/2015 00:00","41,6","1,83","ND","ND","ND","ND"],
    [7834,"05/20/2015 01:00","39,9","1,13","ND","ND","ND","ND"],
    [7835,"05/20/2015 02:00","31,6","0,6","ND","ND","ND","ND"],
    [7836,"05/20/2015 03:00","25,2","0,31","ND","ND","ND","ND"],
    [7837,"05/20/2015 04:00","32,9","0,6","ND","ND","ND","ND"],
    [7838,"05/20/2015 05:00","32","0,73","ND","ND","ND","ND"],
    [7839,"05/20/2015 06:00","37,1","1,41","ND","ND","ND","ND"],
    [7840,"05/20/2015 07:00","58,5","3,28","ND","ND","ND","ND"],
    [7841,"05/20/2015 08:00","69,4","6,03","ND","ND","ND","ND"],
    [7842,"05/20/2015 09:00","54,3","8,38","ND","ND","ND","ND"],
    [7843,"05/20/2015 10:00","46,4","10,64","ND","ND","ND","ND"],
    [7844,"05/20/2015 11:00","45,7","7,47","ND","ND","ND","ND"],
    [7845,"05/20/2015 12:00","47,5","6,05","ND","ND","ND","ND"],
    [7846,"05/20/2015 13:00","38","10,22","ND","ND","ND","ND"],
    [7847,"05/20/2015 14:00","28,5","5,35","ND","ND","ND","ND"],
    [7848,"05/20/2015 15:00","14,8","1,31","ND","ND","ND","ND"],
    [7849,"05/20/2015 16:00","10,8","0,29","ND","ND","ND","ND"],
    [7850,"05/20/2015 17:00","11,7","0,34","ND","ND","ND","ND"],
    [7851,"05/20/2015 18:00","11,2","0,18","ND","ND","ND","ND"],
    [7852,"05/20/2015 19:00","17,3","0,58","ND","ND","ND","ND"],
    [7853,"05/20/2015 20:00","17,2","1,47","ND","ND","ND","ND"],
    [7854,"05/20/2015 21:00","41,5","2,25","ND","ND","ND","ND"],
    [7855,"05/20/2015 22:00","30,1","1,65","ND","ND","ND","ND"],
    [7856,"05/20/2015 23:00","36,3","1,15","ND","ND","ND","ND"],
    [7857,"05/21/2015 00:00","28,5","0,84","ND","ND","ND","ND"],
    [7858,"05/21/2015 01:00","40","1,62","ND","ND","ND","ND"],
    [7859,"05/21/2015 02:00","15,7","0,52","ND","ND","ND","ND"],
    [7860,"05/21/2015 03:00","29,2","0,08","ND","ND","ND","ND"],
    [7861,"05/21/2015 04:00","18,6","2,17","ND","ND","ND","ND"],
    [7862,"05/21/2015 05:00","38","5,87","ND","ND","ND","ND"],
    [7863,"05/21/2015 06:00","51,6","4,38","ND","ND","ND","ND"],
    [7864,"05/21/2015 07:00","58,1","3,9","ND","ND","ND","ND"],
    [7865,"05/21/2015 08:00","58,1","6,08","ND","ND","ND","ND"],
    [7866,"05/21/2015 09:00","56,3","8,86","ND","ND","ND","ND"],
    [7867,"05/21/2015 10:00","68,4","10,17","ND","ND","ND","ND"],
    [7868,"05/21/2015 11:00","55,3","7,28","ND","ND","ND","ND"],
    [7869,"05/21/2015 12:00","7,5","1,76","ND","ND","ND","ND"],
    [7870,"05/21/2015 13:00","14","0,94","ND","ND","ND","ND"],
    [7871,"05/21/2015 14:00","3,2","0,63","ND","ND","ND","ND"],
    [7872,"05/21/2015 15:00","7,5","0,42","ND","ND","ND","ND"],
    [7873,"05/21/2015 16:00","7,7","0,16","ND","ND","ND","ND"],
    [7874,"05/21/2015 17:00","2,6","0,26","ND","ND","ND","ND"],
    [7875,"05/21/2015 18:00","10,6","0,13","ND","ND","ND","ND"],
    [7876,"05/21/2015 19:00","10,9","0,26","ND","ND","ND","ND"],
    [7877,"05/21/2015 20:00","41,5","2,78","ND","ND","ND","ND"],
    [7878,"05/21/2015 21:00","56,7","2,65","ND","ND","ND","ND"],
    [7879,"05/21/2015 22:00","51,4","1,31","ND","ND","ND","ND"],
    [7880,"05/21/2015 23:00","30,3","1,02","ND","ND","ND","ND"],
    [7881,"05/22/2015 00:00","44,8","1,26","ND","ND","ND","ND"],
    [7882,"05/22/2015 01:00","25,5","0,39","ND","ND","ND","ND"],
    [7883,"05/22/2015 02:00","20,2","0,31","ND","ND","ND","ND"],
    [7884,"05/22/2015 03:00","20,3","0,08","ND","ND","ND","ND"],
    [7885,"05/22/2015 04:00","20,6","0,1","ND","ND","ND","ND"],
    [7886,"05/22/2015 05:00","29,8","0,31","ND","ND","ND","ND"],
    [7887,"05/22/2015 06:00","38,3","0,94","ND","ND","ND","ND"],
    [7888,"05/22/2015 07:00","56,4","4,32","ND","ND","ND","ND"],
    [7889,"05/22/2015 08:00","54,3","7,57","ND","ND","ND","ND"],
    [7890,"05/22/2015 09:00","52,4","17,27","ND","ND","ND","ND"],
    [7891,"05/22/2015 10:00","56,8","11,29","ND","ND","ND","ND"],
    [7892,"05/22/2015 11:00","50,6","5,11","ND","ND","ND","ND"],
    [7893,"05/22/2015 12:00","49,1","5,61","ND","ND","ND","ND"],
    [7894,"05/22/2015 13:00","42,7","6,47","ND","ND","ND","ND"],
    [7895,"05/22/2015 14:00","42,7","9,59","ND","ND","ND","ND"],
    [7896,"05/22/2015 15:00","34","3,46","ND","ND","ND","ND"],
    [7897,"05/22/2015 16:00","4,1","1,18","ND","ND","ND","ND"],
    [7898,"05/22/2015 17:00","19,8","1,02","ND","ND","ND","ND"],
    [7899,"05/22/2015 18:00","47,6","3,8","ND","ND","ND","ND"],
    [7900,"05/22/2015 19:00","58,2","2,33","ND","ND","ND","ND"],
    [7901,"05/22/2015 20:00","68,6","1,47","ND","ND","ND","ND"],
    [7902,"05/22/2015 21:00","48,7","1,7","ND","ND","ND","ND"],
    [7903,"05/22/2015 22:00","48,9","1,62","ND","ND","ND","ND"],
    [7904,"05/22/2015 23:00","55,7","2,52","ND","ND","ND","ND"],
    [7905,"05/23/2015 00:00","73,3","2,78","ND","ND","ND","ND"],
    [7906,"05/23/2015 01:00","34,8","0,94","ND","ND","ND","ND"],
    [7907,"05/23/2015 02:00","25","0,58","ND","ND","ND","ND"],
    [7908,"05/23/2015 03:00","24,9","0,39","ND","ND","ND","ND"],
    [7909,"05/23/2015 04:00","26,9","0,34","ND","ND","ND","ND"],
    [7910,"05/23/2015 05:00","25,9","0,5","ND","ND","ND","ND"],
    [7911,"05/23/2015 06:00","41,5","1,05","ND","ND","ND","ND"],
    [7912,"05/23/2015 07:00","63,7","1,7","ND","ND","ND","ND"],
    [7913,"05/23/2015 08:00","68,6","3,54","ND","ND","ND","ND"],
    [7914,"05/23/2015 09:00","55,8","5,4","ND","ND","ND","ND"],
    [7915,"05/23/2015 10:00","60,8","4,48","ND","ND","ND","ND"],
    [7916,"05/23/2015 11:00","60,6","5,42","ND","ND","ND","ND"],
    [7917,"05/23/2015 12:00","54","8,52","ND","ND","ND","ND"],
    [7918,"05/23/2015 13:00","67,7","7,97","ND","ND","ND","ND"],
    [7919,"05/23/2015 14:00","65,8","6,6","ND","ND","ND","ND"],
    [7920,"05/23/2015 15:00","62,9","6,08","ND","ND","ND","ND"],
    [7921,"05/23/2015 16:00","35,4","1,21","ND","ND","ND","ND"],
    [7922,"05/23/2015 17:00","14,2","2,23","ND","ND","ND","ND"],
    [7923,"05/23/2015 18:00","14,2","1,76","ND","ND","ND","ND"],
    [7924,"05/23/2015 19:00","28","2,2","ND","ND","ND","ND"],
    [7925,"05/23/2015 20:00","62,8","2,65","ND","ND","ND","ND"],
    [7926,"05/23/2015 21:00","49","2,12","ND","ND","ND","ND"],
    [7927,"05/23/2015 22:00","75,4","3,28","ND","ND","ND","ND"],
    [7928,"05/23/2015 23:00","86,6","3,33","ND","ND","ND","ND"],
    [7929,"05/24/2015 00:00","16,6","0,31","ND","ND","ND","ND"],
    [7930,"05/24/2015 01:00","43,7","1,99","ND","ND","ND","ND"],
    [7931,"05/24/2015 02:00","45,2","1,44","ND","ND","ND","ND"],
    [7932,"05/24/2015 03:00","41,3","1,21","ND","ND","ND","ND"],
    [7933,"05/24/2015 04:00","41,4","1","ND","ND","ND","ND"],
    [7934,"05/24/2015 05:00","34,9","1,07","ND","ND","ND","ND"],
    [7935,"05/24/2015 06:00","34,9","0,31","ND","ND","ND","ND"],
    [7936,"05/24/2015 07:00","33,4","0,42","ND","ND","ND","ND"],
    [7937,"05/24/2015 08:00","38,3","0,84","ND","ND","ND","ND"],
    [7938,"05/24/2015 09:00","35,5","4,93","ND","ND","ND","ND"],
    [7939,"05/24/2015 10:00","36,6","5,95","ND","ND","ND","ND"],
    [7940,"05/24/2015 11:00","28","7,7","ND","ND","ND","ND"],
    [7941,"05/24/2015 12:00","34,1","4,45","ND","ND","ND","ND"],
    [7942,"05/24/2015 13:00","7","0,63","ND","ND","ND","ND"],
    [7943,"05/24/2015 14:00","2","0,08","ND","ND","ND","ND"],
    [7944,"05/24/2015 15:00","0,5","ND","ND","ND","ND","ND"],
    [7945,"05/24/2015 16:00","5,7","0,26","ND","ND","ND","ND"],
    [7946,"05/24/2015 17:00","10,7","0,29","ND","ND","ND","ND"],
    [7947,"05/24/2015 18:00","12,7","0,55","ND","ND","ND","ND"],
    [7948,"05/24/2015 19:00","12,7","0,73","ND","ND","ND","ND"],
    [7949,"05/24/2015 20:00","14,7","0,84","ND","ND","ND","ND"],
    [7950,"05/24/2015 21:00","49,6","1,34","ND","ND","ND","ND"],
    [7951,"05/24/2015 22:00","54","0,58","ND","ND","ND","ND"],
    [7952,"05/24/2015 23:00","28,8","0,45","ND","ND","ND","ND"],
    [7953,"05/25/2015 00:00","27,7","0,31","ND","ND","ND","ND"],
    [7954,"05/25/2015 01:00","15,3","0,13","ND","ND","ND","ND"],
    [7955,"05/25/2015 02:00","34,7","0,55","ND","ND","ND","ND"],
    [7956,"05/25/2015 03:00","30,7","0,34","ND","ND","ND","ND"],
    [7957,"05/25/2015 04:00","31,9","0,63","ND","ND","ND","ND"],
    [7958,"05/25/2015 05:00","25","0,29","ND","ND","ND","ND"],
    [7959,"05/25/2015 06:00","30,3","0,58","ND","ND","ND","ND"],
    [7960,"05/25/2015 07:00","29,1","1,78","ND","ND","ND","ND"],
    [7961,"05/25/2015 08:00","26,5","2,1","ND","ND","ND","ND"],
    [7962,"05/25/2015 09:00","38","2,7","ND","ND","ND","ND"],
    [7963,"05/25/2015 10:00","26,4","3,2","ND","ND","ND","ND"],
    [7964,"05/25/2015 11:00","27,5","4,61","ND","ND","ND","ND"],
    [7965,"05/25/2015 12:00","38,7","5,48","ND","ND","ND","ND"],
    [7966,"05/25/2015 13:00","40,8","4,66","ND","ND","ND","ND"],
    [7967,"05/25/2015 14:00","35,6","3,3","ND","ND","ND","ND"],
    [7968,"05/25/2015 15:00","15,6","0,68","ND","ND","ND","ND"],
    [7969,"05/25/2015 16:00","3,2","0,34","ND","ND","ND","ND"],
    [7970,"05/25/2015 17:00","4,7","0,34","ND","ND","ND","ND"],
    [7971,"05/25/2015 18:00","7,7","0,29","ND","ND","ND","ND"],
    [7972,"05/25/2015 19:00","7,7","0,26","ND","ND","ND","ND"],
    [7973,"05/25/2015 20:00","21,7","0,45","ND","ND","ND","ND"],
    [7974,"05/25/2015 21:00","31,7","0,79","ND","ND","ND","ND"],
    [7975,"05/25/2015 22:00","39,2","1,62","ND","ND","ND","ND"],
    [7976,"05/25/2015 23:00","37,9","0,66","ND","ND","ND","ND"],
    [7977,"05/26/2015 00:00","60,3","0,39","ND","ND","ND","ND"],
    [7978,"05/26/2015 01:00","23,6","0,21","ND","ND","ND","ND"],
    [7979,"05/26/2015 02:00","23,6","0,13","ND","ND","ND","ND"],
    [7980,"05/26/2015 03:00","22","ND","ND","ND","ND","ND"],
    [7981,"05/26/2015 04:00","23,9","ND","ND","ND","ND","ND"],
    [7982,"05/26/2015 05:00","24,4","ND","ND","ND","ND","ND"],
    [7983,"05/26/2015 06:00","37,1","0,39","ND","ND","ND","ND"],
    [7984,"05/26/2015 07:00","61,9","1,49","ND","ND","ND","ND"],
    [7985,"05/26/2015 08:00","88","5,24","ND","ND","ND","ND"],
    [7986,"05/26/2015 09:00","87","9,62","ND","ND","ND","ND"],
    [7987,"05/26/2015 10:00","50,1","10,27","ND","ND","ND","ND"],
    [7988,"05/26/2015 11:00","33,9","5,16","ND","ND","ND","ND"],
    [7989,"05/26/2015 12:00","38,5","2,91","ND","ND","ND","ND"],
    [7990,"05/26/2015 13:00","46,4","2,44","ND","ND","ND","ND"],
    [7991,"05/26/2015 14:00","48,3","3,01","ND","ND","ND","ND"],
    [7992,"05/26/2015 15:00","45,8","2,36","ND","ND","ND","ND"],
    [7993,"05/26/2015 16:00","51,1","0,39","ND","ND","ND","ND"],
    [7994,"05/26/2015 17:00","10,7","ND","ND","ND","ND","ND"],
    [7995,"05/26/2015 18:00","10,7","ND","ND","ND","ND","ND"],
    [7996,"05/26/2015 19:00","14,5","ND","ND","ND","ND","ND"],
    [7997,"05/26/2015 20:00","5,6","ND","ND","ND","ND","ND"],
    [7998,"05/26/2015 21:00","9","ND","ND","ND","ND","ND"],
    [7999,"05/26/2015 22:00","67,9","0,45","ND","ND","ND","ND"],
    [8000,"05/26/2015 23:00","52,4","0,6","ND","ND","ND","ND"],
    [8001,"05/27/2015 00:00","27,7","ND","ND","ND","ND","ND"],
    [8002,"05/27/2015 01:00","18,5","ND","ND","ND","ND","ND"],
    [8003,"05/27/2015 02:00","24,2","ND","ND","ND","ND","ND"],
    [8004,"05/27/2015 03:00","25,4","ND","ND","ND","ND","ND"],
    [8005,"05/27/2015 04:00","19,6","ND","ND","ND","ND","ND"],
    [8006,"05/27/2015 05:00","30,9","ND","ND","ND","ND","ND"],
    [8007,"05/27/2015 06:00","38,8","ND","ND","ND","ND","ND"],
    [8008,"05/27/2015 07:00","46,4","0,16","ND","ND","ND","ND"],
    [8009,"05/27/2015 08:00","56,5","1,36","ND","ND","ND","ND"],
    [8010,"05/27/2015 09:00","46,7","1,65","ND","ND","ND","ND"],
    [8011,"05/27/2015 10:00","16,9","2,07","ND","ND","ND","ND"],
    [8012,"05/27/2015 11:00","24,1","ND","ND","ND","ND","ND"],
    [8013,"05/27/2015 12:00","18,8","4,93","ND","ND","ND","ND"],
    [8014,"05/27/2015 13:00","35,1","3,85","ND","ND","ND","ND"],
    [8015,"05/27/2015 14:00","30,3","2,25","ND","ND","ND","ND"],
    [8016,"05/27/2015 15:00","48,2","2,52","ND","ND","ND","ND"],
    [8017,"05/27/2015 16:00","30,8","0,79","ND","ND","ND","ND"],
    [8018,"05/27/2015 17:00","20,5","ND","ND","ND","ND","ND"],
    [8019,"05/27/2015 18:00","9,6","ND","ND","ND","ND","ND"],
    [8020,"05/27/2015 19:00","42,8","ND","ND","ND","ND","ND"],
    [8021,"05/27/2015 20:00","20,1","0,29","ND","ND","ND","ND"],
    [8022,"05/27/2015 21:00","11","1","ND","ND","ND","ND"],
    [8023,"05/27/2015 22:00","44,3","0,94","ND","ND","ND","ND"],
    [8024,"05/27/2015 23:00","32,8","0,5","ND","ND","ND","ND"],
    [8025,"05/28/2015 00:00","21,3","ND","ND","ND","ND","ND"],
    [8026,"05/28/2015 01:00","20,7","ND","ND","ND","ND","ND"],
    [8027,"05/28/2015 02:00","25,7","ND","ND","ND","ND","ND"],
    [8028,"05/28/2015 03:00","17,3","ND","ND","ND","ND","ND"],
    [8029,"05/28/2015 04:00","23,7","ND","ND","ND","ND","ND"],
    [8030,"05/28/2015 05:00","21,4","5","ND","ND","ND","ND"],
    [8031,"05/28/2015 06:00","32,8","11,92","ND","ND","ND","ND"],
    [8032,"05/28/2015 07:00","50,2","9,77","ND","ND","ND","ND"],
    [8033,"05/28/2015 08:00","39,1","8,12","ND","ND","ND","ND"],
    [8034,"05/28/2015 09:00","29,9","14,88","ND","ND","ND","ND"],
    [8035,"05/28/2015 10:00","29,4","34,12","ND","ND","ND","ND"],
    [8036,"05/28/2015 11:00","39,6","49,1","ND","ND","ND","ND"],
    [8037,"05/28/2015 12:00","34","25,78","ND","ND","ND","ND"],
    [8038,"05/28/2015 13:00","28,8","6","ND","ND","ND","ND"],
    [8039,"05/28/2015 14:00","8,9","5,37","ND","ND","ND","ND"],
    [8040,"05/28/2015 15:00","8,8","0,68","ND","ND","ND","ND"],
    [8041,"05/28/2015 16:00","2,8","ND","ND","ND","ND","ND"],
    [8042,"05/28/2015 17:00","6,7","ND","ND","ND","ND","ND"],
    [8043,"05/28/2015 18:00","10,3","ND","ND","ND","ND","ND"],
    [8044,"05/28/2015 19:00","14,8","ND","ND","ND","ND","ND"],
    [8045,"05/28/2015 20:00","18,3","0,31","ND","ND","ND","ND"],
    [8046,"05/28/2015 21:00","22,6","0,29","ND","ND","ND","ND"],
    [8047,"05/28/2015 22:00","37,9","1,68","ND","ND","ND","ND"],
    [8048,"05/28/2015 23:00","39,2","0,24","ND","ND","ND","ND"],
    [8049,"05/29/2015 00:00","48,1","2,57","ND","ND","ND","ND"],
    [8050,"05/29/2015 01:00","21,8","0,18","ND","ND","ND","ND"],
    [8051,"05/29/2015 02:00","19,1","ND","ND","ND","ND","ND"],
    [8052,"05/29/2015 03:00","22","ND","ND","ND","ND","ND"],
    [8053,"05/29/2015 04:00","12,7","ND","ND","ND","ND","ND"],
    [8054,"05/29/2015 05:00","23,2","ND","ND","ND","ND","ND"],
    [8055,"05/29/2015 06:00","36,3","0,47","ND","ND","ND","ND"],
    [8056,"05/29/2015 07:00","61,9","2,41","ND","ND","ND","ND"],
    [8057,"05/29/2015 08:00","78,9","2,49","ND","ND","ND","ND"],
    [8058,"05/29/2015 09:00","67,5","3,2","ND","ND","ND","ND"],
    [8059,"05/29/2015 10:00","32,6","2,2","ND","ND","ND","ND"],
    [8060,"05/29/2015 11:00","27,5","3,64","ND","ND","ND","ND"],
    [8061,"05/29/2015 12:00","27,5","2,46","ND","ND","ND","ND"],
    [8062,"05/29/2015 13:00","32,9","1,78","ND","ND","ND","ND"],
    [8063,"05/29/2015 14:00","23,5","2,49","ND","ND","ND","ND"],
    [8064,"05/29/2015 15:00","34","4,06","ND","ND","ND","ND"],
    [8065,"05/29/2015 16:00","41","5,16","ND","ND","ND","ND"],
    [8066,"05/29/2015 17:00","58,8","4,69","ND","ND","ND","ND"],
    [8067,"05/29/2015 18:00","59,4","2,59","ND","ND","ND","ND"],
    [8068,"05/29/2015 19:00","75,4","6,34","ND","ND","ND","ND"],
    [8069,"05/29/2015 20:00","69,5","3,51","ND","ND","ND","ND"],
    [8070,"05/29/2015 21:00","57,7","3,75","ND","ND","ND","ND"],
    [8071,"05/29/2015 22:00","61,5","3,8","ND","ND","ND","ND"],
    [8072,"05/29/2015 23:00","57,3","3,41","ND","ND","ND","ND"],
    [8073,"05/30/2015 00:00","34,8","ND","ND","ND","ND","ND"],
    [8074,"05/30/2015 01:00","39,7","2,12","ND","ND","ND","ND"],
    [8075,"05/30/2015 02:00","36,3","1,73","ND","ND","ND","ND"],
    [8076,"05/30/2015 03:00","38,1","2,12","ND","ND","ND","ND"],
    [8077,"05/30/2015 04:00","33","1,78","ND","ND","ND","ND"],
    [8078,"05/30/2015 05:00","37,9","1,6","ND","ND","ND","ND"],
    [8079,"05/30/2015 06:00","49","2,2","ND","ND","ND","ND"],
    [8080,"05/30/2015 07:00","54,9","2,52","ND","ND","ND","ND"],
    [8081,"05/30/2015 08:00","47","2,88","ND","ND","ND","ND"],
    [8082,"05/30/2015 09:00","36,5","7,6","ND","ND","ND","ND"],
    [8083,"05/30/2015 10:00","32,2","14,28","ND","ND","ND","ND"],
    [8084,"05/30/2015 11:00","24,5","10,64","ND","ND","ND","ND"],
    [8085,"05/30/2015 12:00","30,6","6,63","ND","ND","ND","ND"],
    [8086,"05/30/2015 13:00","40","4,51","ND","ND","ND","ND"],
    [8087,"05/30/2015 14:00","51","3,38","ND","ND","ND","ND"],
    [8088,"05/30/2015 15:00","40,7","2,25","ND","ND","ND","ND"],
    [8089,"05/30/2015 16:00","4,3","0,52","ND","ND","ND","ND"],
    [8090,"05/30/2015 17:00","20,9","ND","ND","ND","ND","ND"],
    [8091,"05/30/2015 18:00","7,5","ND","ND","ND","ND","ND"],
    [8092,"05/30/2015 19:00","26,1","0,03","ND","ND","ND","ND"],
    [8093,"05/30/2015 20:00","32,7","0,16","ND","ND","ND","ND"],
    [8094,"05/30/2015 21:00","40,3","0,1","ND","ND","ND","ND"],
    [8095,"05/30/2015 22:00","42,6","0,39","ND","ND","ND","ND"],
    [8096,"05/30/2015 23:00","44,1","0,03","ND","ND","ND","ND"],
    [8097,"05/31/2015 00:00","24,9","1,02","ND","ND","ND","ND"],
    [8098,"05/31/2015 01:00","35,9","ND","ND","ND","ND","ND"],
    [8099,"05/31/2015 02:00","34,1","ND","ND","ND","ND","ND"],
    [8100,"05/31/2015 03:00","31,2","ND","ND","ND","ND","ND"],
    [8101,"05/31/2015 04:00","37,4","ND","ND","ND","ND","ND"],
    [8102,"05/31/2015 05:00","34","ND","ND","ND","ND","ND"],
    [8103,"05/31/2015 06:00","34,7","ND","ND","ND","ND","ND"],
    [8104,"05/31/2015 07:00","44","0,58","ND","ND","ND","ND"],
    [8105,"05/31/2015 08:00","54,3","3,62","ND","ND","ND","ND"],
    [8106,"05/31/2015 09:00","44,1","5,97","ND","ND","ND","ND"],
    [8107,"05/31/2015 10:00","31,7","5,16","ND","ND","ND","ND"],
    [8108,"05/31/2015 11:00","26,7","5,76","ND","ND","ND","ND"],
    [8109,"05/31/2015 12:00","30,7","4,95","ND","ND","ND","ND"],
    [8110,"05/31/2015 13:00","32","3,38","ND","ND","ND","ND"],
    [8111,"05/31/2015 14:00","34,4","1,49","ND","ND","ND","ND"],
    [8112,"05/31/2015 15:00","8,2","0,21","ND","ND","ND","ND"],
    [8113,"05/31/2015 16:00","10,8","0,16","ND","ND","ND","ND"],
    [8114,"05/31/2015 17:00","10,8","0,21","ND","ND","ND","ND"],
    [8115,"05/31/2015 18:00","10","ND","ND","ND","ND","ND"],
    [8116,"05/31/2015 19:00","10,5","0,03","ND","ND","ND","ND"],
    [8117,"05/31/2015 20:00","9","0,1","ND","ND","ND","ND"],
    [8118,"05/31/2015 21:00","15,6","0,29","ND","ND","ND","ND"],
    [8119,"05/31/2015 22:00","26,5","0,97","ND","ND","ND","ND"],
    [8120,"05/31/2015 23:00","32,4","1,36","ND","ND","ND","ND"],
    [8121,"42010","36,7","0,86","ND","ND","ND","ND"],
    [8122,"42010,04167","20,5","0,63","ND","ND","ND","ND"],
    [8123,"42010,08333","18,3","0,45","ND","ND","ND","ND"],
    [8124,"42010,125","25","0,42","ND","ND","ND","ND"],
    [8125,"42010,16667","24,1","0,45","ND","ND","ND","ND"],
    [8126,"42010,20833","25,3","0,34","ND","ND","ND","ND"],
    [8127,"42010,25","30,3","0,68","ND","ND","ND","ND"],
    [8128,"42010,29167","44,5","1,44","ND","ND","ND","ND"],
    [8129,"42010,33333","48,5","3,88","ND","ND","ND","ND"],
    [8130,"42010,375","72,1","10,85","ND","ND","ND","ND"],
    [8131,"42010,41667","82,3","14,57","ND","ND","ND","ND"],
    [8132,"42010,45833","53,1","12,5","ND","ND","ND","ND"],
    [8133,"42010,5","36,1","9,22","ND","ND","ND","ND"],
    [8134,"42010,54167","38,5","8,18","ND","ND","ND","ND"],
    [8135,"42010,58333","47,9","7,78","ND","ND","ND","ND"],
    [8136,"42010,625","52,5","7,6","ND","ND","ND","ND"],
    [8137,"42010,66667","44,5","4,35","ND","ND","ND","ND"],
    [8138,"42010,70833","50,9","3,9","ND","ND","ND","ND"],
    [8139,"42010,75","32,9","1,62","ND","ND","ND","ND"],
    [8140,"42010,79167","23,9","1,21","ND","ND","ND","ND"],
    [8141,"42010,83333","10,4","0,73","ND","ND","ND","ND"],
    [8142,"42010,875","16,9","0,81","ND","ND","ND","ND"],
    [8143,"42010,91667","30","1,26","ND","ND","ND","ND"],
    [8144,"42010,95833","51,6","1,49","ND","ND","ND","ND"],
    [8145,"42041","31,1","ND","ND","ND","ND","ND"],
    [8146,"42041,04167","27,1","0,5","ND","ND","ND","ND"],
    [8147,"42041,08333","24,5","0,37","ND","ND","ND","ND"],
    [8148,"42041,125","29,2","0,45","ND","ND","ND","ND"],
    [8149,"42041,16667","25,5","0,31","ND","ND","ND","ND"],
    [8150,"42041,20833","35,5","0,47","ND","ND","ND","ND"],
    [8151,"42041,25","43,5","1,21","ND","ND","ND","ND"],
    [8152,"42041,29167","70,2","1,76","ND","ND","ND","ND"],
    [8153,"42041,33333","72,3","3,51","ND","ND","ND","ND"],
    [8154,"42041,375","99,3","10,82","ND","ND","ND","ND"],
    [8155,"42041,41667","124,1","7,02","ND","ND","ND","ND"],
    [8156,"42041,45833","97,8","6,92","ND","ND","ND","ND"],
    [8157,"42041,5","73","4,27","ND","ND","ND","ND"],
    [8158,"42041,54167","69,3","4,56","ND","ND","ND","ND"],
    [8159,"42041,58333","69,3","1,52","ND","ND","ND","ND"],
    [8160,"42041,625","11,3","ND","ND","ND","ND","ND"],
    [8161,"42041,66667","8","ND","ND","ND","ND","ND"],
    [8162,"42041,70833","16,3","ND","ND","ND","ND","ND"],
    [8163,"42041,75","10,9","ND","ND","ND","ND","ND"],
    [8164,"42041,79167","10,8","ND","ND","ND","ND","ND"],
    [8165,"42041,83333","9,7","ND","ND","ND","ND","ND"],
    [8166,"42041,875","23,9","0,6","ND","ND","ND","ND"],
    [8167,"42041,91667","64,4","1,23","ND","ND","ND","ND"],
    [8168,"42041,95833","41,7","ND","ND","ND","ND","ND"],
    [8169,"42069","52,5","2,15","ND","ND","ND","ND"],
    [8170,"42069,04167","47,6","0,13","ND","ND","ND","ND"],
    [8171,"42069,08333","51,1","0,68","ND","ND","ND","ND"],
    [8172,"42069,125","77,1","ND","ND","ND","ND","ND"],
    [8173,"42069,16667","32,1","ND","ND","ND","ND","ND"],
    [8174,"42069,20833","34,8","1,36","ND","ND","ND","ND"],
    [8175,"42069,25","55,6","1,52","ND","ND","ND","ND"],
    [8176,"42069,29167","70,7","1,94","ND","ND","ND","ND"],
    [8177,"42069,33333","56,6","4,4","ND","ND","ND","ND"],
    [8178,"42069,375","52","10,95","ND","ND","ND","ND"],
    [8179,"42069,41667","38,4","10,77","ND","ND","ND","ND"],
    [8180,"42069,45833","40,6","8,73","ND","ND","ND","ND"],
    [8181,"42069,5","47,3","6,42","ND","ND","ND","ND"],
    [8182,"42069,54167","47,6","4,95","ND","ND","ND","ND"],
    [8183,"42069,58333","42,2","4,45","ND","ND","ND","ND"],
    [8184,"42069,625","39,2","4,14","ND","ND","ND","ND"],
    [8185,"42069,66667","47,3","2,65","ND","ND","ND","ND"],
    [8186,"42069,70833","32,7","1,05","ND","ND","ND","ND"],
    [8187,"42069,75","11,8","0,55","ND","ND","ND","ND"],
    [8188,"42069,79167","10,3","0,58","ND","ND","ND","ND"],
    [8189,"42069,83333","11,4","0,45","ND","ND","ND","ND"],
    [8190,"42069,875","14,4","0,66","ND","ND","ND","ND"],
    [8191,"42069,91667","34,4","1,21","ND","ND","ND","ND"],
    [8192,"42069,95833","60,2","1,94","ND","ND","ND","ND"],
    [8193,"42100","23,9","1,57","ND","ND","ND","ND"],
    [8194,"42100,04167","38,7","1,44","ND","ND","ND","ND"],
    [8195,"42100,08333","29,4","0,94","ND","ND","ND","ND"],
    [8196,"42100,125","60,8","1,21","ND","ND","ND","ND"],
    [8197,"42100,16667","45,5","0,42","ND","ND","ND","ND"],
    [8198,"42100,20833","42","0,21","ND","ND","ND","ND"],
    [8199,"42100,25","34,8","0,66","ND","ND","ND","ND"],
    [8200,"42100,29167","46,4","1,62","ND","ND","ND","ND"],
    [8201,"42100,33333","54,1","3,48","ND","ND","ND","ND"],
    [8202,"42100,375","43","5,42","ND","ND","ND","ND"],
    [8203,"42100,41667","71,5","6,34","ND","ND","ND","ND"],
    [8204,"42100,45833","67,9","6,37","ND","ND","ND","ND"],
    [8205,"42100,5","51,7","5,79","ND","ND","ND","ND"],
    [8206,"42100,54167","64,2","9,46","ND","ND","ND","ND"],
    [8207,"42100,58333","53,5","7,81","ND","ND","ND","ND"],
    [8208,"42100,625","44,6","5,35","ND","ND","ND","ND"],
    [8209,"42100,66667","13,7","1,41","ND","ND","ND","ND"],
    [8210,"42100,70833","10,6","0,71","ND","ND","ND","ND"],
    [8211,"42100,75","11,6","0,6","ND","ND","ND","ND"],
    [8212,"42100,79167","10,6","0,37","ND","ND","ND","ND"],
    [8213,"42100,83333","4","0,18","ND","ND","ND","ND"],
    [8214,"42100,875","30","2,41","ND","ND","ND","ND"],
    [8215,"42100,91667","56,9","2,57","ND","ND","ND","ND"],
    [8216,"42100,95833","40,7","1,55","ND","ND","ND","ND"],
    [8217,"42130","42,7","1,21","ND","ND","ND","ND"],
    [8218,"42130,04167","31,3","3,07","ND","ND","ND","ND"],
    [8219,"42130,08333","46,8","1,65","ND","ND","ND","ND"],
    [8220,"42130,125","22,1","0,6","ND","ND","ND","ND"],
    [8221,"42130,16667","23,7","0,52","ND","ND","ND","ND"],
    [8222,"42130,20833","26,4","1,28","ND","ND","ND","ND"],
    [8223,"42130,25","37,8","2,73","ND","ND","ND","ND"],
    [8224,"42130,29167","39,4","2,96","ND","ND","ND","ND"],
    [8225,"42130,33333","60,2","5,27","ND","ND","ND","ND"],
    [8226,"42130,375","56,5","7,39","ND","ND","ND","ND"],
    [8227,"42130,41667","39,1","ND","ND","ND","ND","ND"],
    [8228,"42130,45833","36,7","5,84","ND","ND","ND","ND"],
    [8229,"42130,5","35,7","5,53","ND","ND","ND","ND"],
    [8230,"42130,54167","37,1","5,24","ND","ND","ND","ND"],
    [8231,"42130,58333","44,9","4,43","ND","ND","ND","ND"],
    [8232,"42130,625","55,1","9,12","ND","ND","ND","ND"],
    [8233,"42130,66667","11,1","1,31","ND","ND","ND","ND"],
    [8234,"42130,70833","10,6","0,55","ND","ND","ND","ND"],
    [8235,"42130,75","12,3","0,86","ND","ND","ND","ND"],
    [8236,"42130,79167","19,5","0,52","ND","ND","ND","ND"],
    [8237,"42130,83333","13,5","0,86","ND","ND","ND","ND"],
    [8238,"42130,875","53,7","1,55","ND","ND","ND","ND"],
    [8239,"42130,91667","68,5","1,73","ND","ND","ND","ND"],
    [8240,"42130,95833","47,8","1,41","ND","ND","ND","ND"],
    [8241,"42161","21,7","0,66","ND","ND","ND","ND"],
    [8242,"42161,04167","36","1,02","ND","ND","ND","ND"],
    [8243,"42161,08333","42,5","1,68","ND","ND","ND","ND"],
    [8244,"42161,125","55,4","1,26","ND","ND","ND","ND"],
    [8245,"42161,16667","33,2","1","ND","ND","ND","ND"],
    [8246,"42161,20833","29,7","0,97","ND","ND","ND","ND"],
    [8247,"42161,25","32,8","0,6","ND","ND","ND","ND"],
    [8248,"42161,29167","35","0,84","ND","ND","ND","ND"],
    [8249,"42161,33333","51,7","1,7","ND","ND","ND","ND"],
    [8250,"42161,375","44,2","4,69","ND","ND","ND","ND"],
    [8251,"42161,41667","74,9","14,73","ND","ND","ND","ND"],
    [8252,"42161,45833","56,5","22,82","ND","ND","ND","ND"],
    [8253,"42161,5","62,2","13,89","ND","ND","ND","ND"],
    [8254,"42161,54167","47,3","9,35","ND","ND","ND","ND"],
    [8255,"42161,58333","49,5","7,36","ND","ND","ND","ND"],
    [8256,"42161,625","20,3","4,61","ND","ND","ND","ND"],
    [8257,"42161,66667","9,5","0,89","ND","ND","ND","ND"],
    [8258,"42161,70833","5,9","0,63","ND","ND","ND","ND"],
    [8259,"42161,75","5,4","0,58","ND","ND","ND","ND"],
    [8260,"42161,79167","5,6","0,34","ND","ND","ND","ND"],
    [8261,"42161,83333","20,5","0,76","ND","ND","ND","ND"],
    [8262,"42161,875","40,6","1,49","ND","ND","ND","ND"],
    [8263,"42161,91667","46,1","1,26","ND","ND","ND","ND"],
    [8264,"42161,95833","31,6","0,76","ND","ND","ND","ND"],
    [8265,"42191","18,8","0,39","ND","ND","ND","ND"],
    [8266,"42191,04167","32,7","1,18","ND","ND","ND","ND"],
    [8267,"42191,08333","30,4","0,84","ND","ND","ND","ND"],
    [8268,"42191,125","58,1","0,84","ND","ND","ND","ND"],
    [8269,"42191,16667","30,9","0,63","ND","ND","ND","ND"],
    [8270,"42191,20833","30,9","0,34","ND","ND","ND","ND"],
    [8271,"42191,25","27","0,5","ND","ND","ND","ND"],
    [8272,"42191,29167","37,6","1,31","ND","ND","ND","ND"],
    [8273,"42191,33333","53,1","2,57","ND","ND","ND","ND"],
    [8274,"42191,375","55,3","4,35","ND","ND","ND","ND"],
    [8275,"42191,41667","47,5","8,96","ND","ND","ND","ND"],
    [8276,"42191,45833","26,1","8,12","ND","ND","ND","ND"],
    [8277,"42191,5","63,5","11,08","ND","ND","ND","ND"],
    [8278,"42191,54167","53,5","12,89","ND","ND","ND","ND"],
    [8279,"42191,58333","75,3","8,8","ND","ND","ND","ND"],
    [8280,"42191,625","5,8","1,23","ND","ND","ND","ND"],
    [8281,"42191,66667","3,7","0,73","ND","ND","ND","ND"],
    [8282,"42191,70833","5,1","0,5","ND","ND","ND","ND"],
    [8283,"42191,75","5,7","0,37","ND","ND","ND","ND"],
    [8284,"42191,79167","11,1","0,31","ND","ND","ND","ND"],
    [8285,"42191,83333","21,7","0,5","ND","ND","ND","ND"],
    [8286,"42191,875","39,1","0,66","ND","ND","ND","ND"],
    [8287,"42191,91667","28,9","0,52","ND","ND","ND","ND"],
    [8288,"42191,95833","15,7","0,13","ND","ND","ND","ND"],
    [8289,"42222","22,5","0,37","ND","ND","ND","ND"],
    [8290,"42222,04167","10,7","ND","ND","ND","ND","ND"],
    [8291,"42222,08333","11,8","ND","ND","ND","ND","ND"],
    [8292,"42222,125","10","ND","ND","ND","ND","ND"],
    [8293,"42222,16667","15,7","ND","ND","ND","ND","ND"],
    [8294,"42222,20833","18,8","ND","ND","ND","ND","ND"],
    [8295,"42222,25","23","ND","ND","ND","ND","ND"],
    [8296,"42222,29167","25,4","ND","ND","ND","ND","ND"],
    [8297,"42222,33333","25,1","0,68","ND","ND","ND","ND"],
    [8298,"42222,375","18,8","1,57","ND","ND","ND","ND"],
    [8299,"42222,41667","23,2","2,04","ND","ND","ND","ND"],
    [8300,"42222,45833","14,4","3,62","ND","ND","ND","ND"],
    [8301,"42222,5","11,6","2,41","ND","ND","ND","ND"],
    [8302,"42222,54167","11,6","1,78","ND","ND","ND","ND"],
    [8303,"42222,58333","20,5","0,05","ND","ND","ND","ND"],
    [8304,"42222,625","6,5","0,13","ND","ND","ND","ND"],
    [8305,"42222,66667","17,3","0,52","ND","ND","ND","ND"],
    [8306,"42222,70833","4,5","0,42","ND","ND","ND","ND"],
    [8307,"42222,75","8,1","0,21","ND","ND","ND","ND"],
    [8308,"42222,79167","46,2","0,45","ND","ND","ND","ND"],
    [8309,"42222,83333","3,7","0,63","ND","ND","ND","ND"],
    [8310,"42222,875","17,7","0,5","ND","ND","ND","ND"],
    [8311,"42222,91667","30,2","0,26","ND","ND","ND","ND"],
    [8312,"42222,95833","30,2","0,29","ND","ND","ND","ND"],
    [8313,"42253","28,8","0,34","ND","ND","ND","ND"],
    [8314,"42253,04167","34,6","0,1","ND","ND","ND","ND"],
    [8315,"42253,08333","14","ND","ND","ND","ND","ND"],
    [8316,"42253,125","17,1","0,03","ND","ND","ND","ND"],
    [8317,"42253,16667","19,2","ND","ND","ND","ND","ND"],
    [8318,"42253,20833","25,2","ND","ND","ND","ND","ND"],
    [8319,"42253,25","31,2","0,58","ND","ND","ND","ND"],
    [8320,"42253,29167","52,1","1,57","ND","ND","ND","ND"],
    [8321,"42253,33333","38,9","3,33","ND","ND","ND","ND"],
    [8322,"42253,375","59,7","2,44","ND","ND","ND","ND"],
    [8323,"42253,41667","50,2","2,54","ND","ND","ND","ND"],
    [8324,"42253,45833","56,1","2,65","ND","ND","ND","ND"],
    [8325,"42253,5","56,1","2,8","ND","ND","ND","ND"],
    [8326,"42253,54167","51,5","2,86","ND","ND","ND","ND"],
    [8327,"42253,58333","36,7","7,1","ND","ND","ND","ND"],
    [8328,"42253,625","44","9,96","ND","ND","ND","ND"],
    [8329,"42253,66667","27,5","0,97","ND","ND","ND","ND"],
    [8330,"42253,70833","6","0,76","ND","ND","ND","ND"],
    [8331,"42253,75","0,4","0,58","ND","ND","ND","ND"],
    [8332,"42253,79167","12,5","0,42","ND","ND","ND","ND"],
    [8333,"42253,83333","9,7","0,26","ND","ND","ND","ND"],
    [8334,"42253,875","5,1","0,13","ND","ND","ND","ND"],
    [8335,"42253,91667","27,4","1","ND","ND","ND","ND"],
    [8336,"42253,95833","45,4","1,47","ND","ND","ND","ND"],
    [8337,"42283","55,5","2,1","ND","ND","ND","ND"],
    [8338,"42283,04167","19,4","0,26","ND","ND","ND","ND"],
    [8339,"42283,08333","19,7","0,16","ND","ND","ND","ND"],
    [8340,"42283,125","18,4","0,89","ND","ND","ND","ND"],
    [8341,"42283,16667","13,8","1,47","ND","ND","ND","ND"],
    [8342,"42283,20833","23,4","0,58","ND","ND","ND","ND"],
    [8343,"42283,25","32,9","0,71","ND","ND","ND","ND"],
    [8344,"42283,29167","48,9","1,6","ND","ND","ND","ND"],
    [8345,"42283,33333","53,1","3,01","ND","ND","ND","ND"],
    [8346,"42283,375","63,8","3,93","ND","ND","ND","ND"],
    [8347,"42283,41667","63,8","12,37","ND","ND","ND","ND"],
    [8348,"42283,45833","60,4","21,15","ND","ND","ND","ND"],
    [8349,"42283,5","59,3","11,84","ND","ND","ND","ND"],
    [8350,"42283,54167","54,5","6,26","ND","ND","ND","ND"],
    [8351,"42283,58333","40,2","6","ND","ND","ND","ND"],
    [8352,"42283,625","38,7","6,87","ND","ND","ND","ND"],
    [8353,"42283,66667","42,1","7,07","ND","ND","ND","ND"],
    [8354,"42283,70833","46,1","6,34","ND","ND","ND","ND"],
    [8355,"42283,75","39,6","3,64","ND","ND","ND","ND"],
    [8356,"42283,79167","12,6","1,34","ND","ND","ND","ND"],
    [8357,"42283,83333","41,4","2,15","ND","ND","ND","ND"],
    [8358,"42283,875","43,9","2,49","ND","ND","ND","ND"],
    [8359,"42283,91667","26,6","1,91","ND","ND","ND","ND"],
    [8360,"42283,95833","34,1","1,83","ND","ND","ND","ND"],
    [8361,"42314","34,5","1,21","ND","ND","ND","ND"],
    [8362,"42314,04167","38,7","2,07","ND","ND","ND","ND"],
    [8363,"42314,08333","35,1","1,55","ND","ND","ND","ND"],
    [8364,"42314,125","17,5","0,86","ND","ND","ND","ND"],
    [8365,"42314,16667","23,2","0,68","ND","ND","ND","ND"],
    [8366,"42314,20833","25,7","0,73","ND","ND","ND","ND"],
    [8367,"42314,25","43,7","1,34","ND","ND","ND","ND"],
    [8368,"42314,29167","65","2,67","ND","ND","ND","ND"],
    [8369,"42314,33333","54,1","8,02","ND","ND","ND","ND"],
    [8370,"42314,375","43","9,72","ND","ND","ND","ND"],
    [8371,"42314,41667","45,2","9,64","ND","ND","ND","ND"],
    [8372,"42314,45833","42,7","9,77","ND","ND","ND","ND"],
    [8373,"42314,5","40,3","6,16","ND","ND","ND","ND"],
    [8374,"42314,54167","34,1","4,22","ND","ND","ND","ND"],
    [8375,"42314,58333","40,1","3,56","ND","ND","ND","ND"],
    [8376,"42314,625","45","3,38","ND","ND","ND","ND"],
    [8377,"42314,66667","48,4","3,28","ND","ND","ND","ND"],
    [8378,"42314,70833","55,6","3,43","ND","ND","ND","ND"],
    [8379,"42314,75","41,9","1,21","ND","ND","ND","ND"],
    [8380,"42314,79167","15,4","0,66","ND","ND","ND","ND"],
    [8381,"42314,83333","14,1","0,45","ND","ND","ND","ND"],
    [8382,"42314,875","15,8","0,63","ND","ND","ND","ND"],
    [8383,"42314,91667","46,9","1,65","ND","ND","ND","ND"],
    [8384,"42314,95833","57,6","1,89","ND","ND","ND","ND"],
    [8385,"42344","29,9","1,1","ND","ND","ND","ND"],
    [8386,"42344,04167","34,2","1,07","ND","ND","ND","ND"],
    [8387,"42344,08333","31,9","1,18","ND","ND","ND","ND"],
    [8388,"42344,125","32,7","0,97","ND","ND","ND","ND"],
    [8389,"42344,16667","32,6","0,92","ND","ND","ND","ND"],
    [8390,"42344,20833","38,4","1,1","ND","ND","ND","ND"],
    [8391,"42344,25","45,1","1,55","ND","ND","ND","ND"],
    [8392,"42344,29167","77,4","2,1","ND","ND","ND","ND"],
    [8393,"42344,33333","71","4,77","ND","ND","ND","ND"],
    [8394,"42344,375","80,1","10,87","ND","ND","ND","ND"],
    [8395,"42344,41667","65,3","10,56","ND","ND","ND","ND"],
    [8396,"42344,45833","46,8","6,94","ND","ND","ND","ND"],
    [8397,"42344,5","48,2","8,91","ND","ND","ND","ND"],
    [8398,"42344,54167","54,4","8,46","ND","ND","ND","ND"],
    [8399,"42344,58333","35,7","4,35","ND","ND","ND","ND"],
    [8400,"42344,625","7,8","1,02","ND","ND","ND","ND"],
    [8401,"42344,66667","16,8","0,66","ND","ND","ND","ND"],
    [8402,"42344,70833","9,6","0,37","ND","ND","ND","ND"],
    [8403,"42344,75","11,6","0,31","ND","ND","ND","ND"],
    [8404,"42344,79167","12,5","0,37","ND","ND","ND","ND"],
    [8405,"42344,83333","15,1","0,26","ND","ND","ND","ND"],
    [8406,"42344,875","47,3","1,83","ND","ND","ND","ND"],
    [8407,"42344,91667","51,6","2,59","ND","ND","ND","ND"],
    [8408,"42344,95833","40,1","1,83","ND","ND","ND","ND"],
    [8409,"06/13/2015 00:00","77,3","1,41","ND","ND","ND","ND"],
    [8410,"06/13/2015 01:00","28,6","0,92","ND","ND","ND","ND"],
    [8411,"06/13/2015 02:00","24","0,84","ND","ND","ND","ND"],
    [8412,"06/13/2015 03:00","24,9","1,26","ND","ND","ND","ND"],
    [8413,"06/13/2015 04:00","35,1","1,05","ND","ND","ND","ND"],
    [8414,"06/13/2015 05:00","24,8","0,73","ND","ND","ND","ND"],
    [8415,"06/13/2015 06:00","33,3","1,34","ND","ND","ND","ND"],
    [8416,"06/13/2015 07:00","33,3","2,57","ND","ND","ND","ND"],
    [8417,"06/13/2015 08:00","77,7","4,69","ND","ND","ND","ND"],
    [8418,"06/13/2015 09:00","51,5","10,53","ND","ND","ND","ND"],
    [8419,"06/13/2015 10:00","67,4","12,55","ND","ND","ND","ND"],
    [8420,"06/13/2015 11:00","80,2","13,15","ND","ND","ND","ND"],
    [8421,"06/13/2015 12:00","93","23,9","ND","ND","ND","ND"],
    [8422,"06/13/2015 13:00","74,3","16,01","ND","ND","ND","ND"],
    [8423,"06/13/2015 14:00","66","11,45","ND","ND","ND","ND"],
    [8424,"06/13/2015 15:00","74,8","10,38","ND","ND","ND","ND"],
    [8425,"06/13/2015 16:00","75,3","8,7","ND","ND","ND","ND"],
    [8426,"06/13/2015 17:00","63,7","7,44","ND","ND","ND","ND"],
    [8427,"06/13/2015 18:00","76,8","5,87","ND","ND","ND","ND"],
    [8428,"06/13/2015 19:00","57,8","2,44","ND","ND","ND","ND"],
    [8429,"06/13/2015 20:00","12,7","1,26","ND","ND","ND","ND"],
    [8430,"06/13/2015 21:00","30,8","1,34","ND","ND","ND","ND"],
    [8431,"06/13/2015 22:00","55","1,68","ND","ND","ND","ND"],
    [8432,"06/13/2015 23:00","88,2","3,51","ND","ND","ND","ND"],
    [8433,"06/14/2015 00:00","49,1","1,18","ND","ND","ND","ND"],
    [8434,"06/14/2015 01:00","77,3","1,05","ND","ND","ND","ND"],
    [8435,"06/14/2015 02:00","55,9","1,02","ND","ND","ND","ND"],
    [8436,"06/14/2015 03:00","50,3","0,71","ND","ND","ND","ND"],
    [8437,"06/14/2015 04:00","47,7","0,71","ND","ND","ND","ND"],
    [8438,"06/14/2015 05:00","55,6","0,68","ND","ND","ND","ND"],
    [8439,"06/14/2015 06:00","50,1","0,92","ND","ND","ND","ND"],
    [8440,"06/14/2015 07:00","56,5","0,86","ND","ND","ND","ND"],
    [8441,"06/14/2015 08:00","58","2,33","ND","ND","ND","ND"],
    [8442,"06/14/2015 09:00","52,9","4,4","ND","ND","ND","ND"],
    [8443,"06/14/2015 10:00","29,5","6,24","ND","ND","ND","ND"],
    [8444,"06/14/2015 11:00","40,1","7,68","ND","ND","ND","ND"],
    [8445,"06/14/2015 12:00","36","6,68","ND","ND","ND","ND"],
    [8446,"06/14/2015 13:00","47,5","5,53","ND","ND","ND","ND"],
    [8447,"06/14/2015 14:00","53,4","5","ND","ND","ND","ND"],
    [8448,"06/14/2015 15:00","42,4","2,31","ND","ND","ND","ND"],
    [8449,"06/14/2015 16:00","11,8","0,6","ND","ND","ND","ND"],
    [8450,"06/14/2015 17:00","14,3","0,42","ND","ND","ND","ND"],
    [8451,"06/14/2015 18:00","12","0,26","ND","ND","ND","ND"],
    [8452,"06/14/2015 19:00","9,7","0,37","ND","ND","ND","ND"],
    [8453,"06/14/2015 20:00","9,7","0,24","ND","ND","ND","ND"],
    [8454,"06/14/2015 21:00","8,1","0,16","ND","ND","ND","ND"],
    [8455,"06/14/2015 22:00","17,2","0,86","ND","ND","ND","ND"],
    [8456,"06/14/2015 23:00","52,7","1,44","ND","ND","ND","ND"],
    [8457,"06/15/2015 00:00","38,4","0,39","ND","ND","ND","ND"],
    [8458,"06/15/2015 01:00","47,2","1,41","ND","ND","ND","ND"],
    [8459,"06/15/2015 02:00","41,2","2,17","ND","ND","ND","ND"],
    [8460,"06/15/2015 03:00","40,5","2,62","ND","ND","ND","ND"],
    [8461,"06/15/2015 04:00","40,6","1,62","ND","ND","ND","ND"],
    [8462,"06/15/2015 05:00","38,7","1,62","ND","ND","ND","ND"],
    [8463,"06/15/2015 06:00","39","1,7","ND","ND","ND","ND"],
    [8464,"06/15/2015 07:00","49,2","1,91","ND","ND","ND","ND"],
    [8465,"06/15/2015 08:00","40,8","5,92","ND","ND","ND","ND"],
    [8466,"06/15/2015 09:00","63,1","10,22","ND","ND","ND","ND"],
    [8467,"06/15/2015 10:00","42,6","9,67","ND","ND","ND","ND"],
    [8468,"06/15/2015 11:00","44,6","7,86","ND","ND","ND","ND"],
    [8469,"06/15/2015 12:00","44,5","5,16","ND","ND","ND","ND"],
    [8470,"06/15/2015 13:00","42,5","3,64","ND","ND","ND","ND"],
    [8471,"06/15/2015 14:00","35,1","2,96","ND","ND","ND","ND"],
    [8472,"06/15/2015 15:00","44,9","3,14","ND","ND","ND","ND"],
    [8473,"06/15/2015 16:00","54,9","4,53","ND","ND","ND","ND"],
    [8474,"06/15/2015 17:00","14,2","1,1","ND","ND","ND","ND"],
    [8475,"06/15/2015 18:00","27,3","1,65","ND","ND","ND","ND"],
    [8476,"06/15/2015 19:00","42,2","2,91","ND","ND","ND","ND"],
    [8477,"06/15/2015 20:00","46,2","1,65","ND","ND","ND","ND"],
    [8478,"06/15/2015 21:00","48,8","2,38","ND","ND","ND","ND"],
    [8479,"06/15/2015 22:00","46,5","2,46","ND","ND","ND","ND"],
    [8480,"06/15/2015 23:00","39,6","1,13","ND","ND","ND","ND"],
    [8481,"06/16/2015 00:00","56,6","3,28","ND","ND","ND","ND"],
    [8482,"06/16/2015 01:00","25,6","0,05","ND","ND","ND","ND"],
    [8483,"06/16/2015 02:00","22,1","ND","ND","ND","ND","ND"],
    [8484,"06/16/2015 03:00","28,1","ND","ND","ND","ND","ND"],
    [8485,"06/16/2015 04:00","28,1","ND","ND","ND","ND","ND"],
    [8486,"06/16/2015 05:00","32,1","ND","ND","ND","ND","ND"],
    [8487,"06/16/2015 06:00","45,1","ND","ND","ND","ND","ND"],
    [8488,"06/16/2015 07:00","61,4","0,71","ND","ND","ND","ND"],
    [8489,"06/16/2015 08:00","63,2","2,44","ND","ND","ND","ND"],
    [8490,"06/16/2015 09:00","62,5","3,64","ND","ND","ND","ND"],
    [8491,"06/16/2015 10:00","51","4,35","ND","ND","ND","ND"],
    [8492,"06/16/2015 11:00","42,8","6,13","ND","ND","ND","ND"],
    [8493,"06/16/2015 12:00","54,7","4,93","ND","ND","ND","ND"],
    [8494,"06/16/2015 13:00","54,7","3,9","ND","ND","ND","ND"],
    [8495,"06/16/2015 14:00","38,7","2,83","ND","ND","ND","ND"],
    [8496,"06/16/2015 15:00","ND","1,26","ND","ND","ND","ND"],
    [8497,"06/16/2015 16:00","ND","0,26","ND","ND","ND","ND"],
    [8498,"06/16/2015 17:00","ND","ND","ND","ND","ND","ND"],
    [8499,"06/16/2015 18:00","ND","ND","ND","ND","ND","ND"],
    [8500,"06/16/2015 19:00","21,3","ND","ND","ND","ND","ND"],
    [8501,"06/16/2015 20:00","23,7","ND","ND","ND","ND","ND"],
    [8502,"06/16/2015 21:00","14,8","ND","ND","ND","ND","ND"],
    [8503,"06/16/2015 22:00","16,5","ND","ND","ND","ND","ND"],
    [8504,"06/16/2015 23:00","45,4","1,23","ND","ND","ND","ND"],
    [8505,"06/17/2015 00:00","44,4","0,63","ND","ND","ND","ND"],
    [8506,"06/17/2015 01:00","46,9","1,15","ND","ND","ND","ND"],
    [8507,"06/17/2015 02:00","35,8","5,03","ND","ND","ND","ND"],
    [8508,"06/17/2015 03:00","30,8","4,04","ND","ND","ND","ND"],
    [8509,"06/17/2015 04:00","25,2","2,25","ND","ND","ND","ND"],
    [8510,"06/17/2015 05:00","24,8","1,83","ND","ND","ND","ND"],
    [8511,"06/17/2015 06:00","24,8","1,97","ND","ND","ND","ND"],
    [8512,"06/17/2015 07:00","72,3","3,75","ND","ND","ND","ND"],
    [8513,"06/17/2015 08:00","81,3","9,62","ND","ND","ND","ND"],
    [8514,"06/17/2015 09:00","112,5","16,87","ND","ND","ND","ND"],
    [8515,"06/17/2015 10:00","102,5","15,96","ND","ND","ND","ND"],
    [8516,"06/17/2015 11:00","80,1","25,76","ND","ND","ND","ND"],
    [8517,"06/17/2015 12:00","58","11,87","ND","ND","ND","ND"],
    [8518,"06/17/2015 13:00","54,4","7,21","ND","ND","ND","ND"],
    [8519,"06/17/2015 14:00","41,1","7,31","ND","ND","ND","ND"],
    [8520,"06/17/2015 15:00","39","9,14","ND","ND","ND","ND"],
    [8521,"06/17/2015 16:00","47,1","6,84","ND","ND","ND","ND"],
    [8522,"06/17/2015 17:00","23,2","1,52","ND","ND","ND","ND"],
    [8523,"06/17/2015 18:00","22,4","1,34","ND","ND","ND","ND"],
    [8524,"06/17/2015 19:00","21,5","1,65","ND","ND","ND","ND"],
    [8525,"06/17/2015 20:00","22,5","1,57","ND","ND","ND","ND"],
    [8526,"06/17/2015 21:00","20,4","1,68","ND","ND","ND","ND"],
    [8527,"06/17/2015 22:00","33,9","2,99","ND","ND","ND","ND"],
    [8528,"06/17/2015 23:00","50,1","1,89","ND","ND","ND","ND"],
    [8529,"06/18/2015 00:00","51,6","3,33","ND","ND","ND","ND"],
    [8530,"06/18/2015 01:00","30","ND","ND","ND","ND","ND"],
    [8531,"06/18/2015 02:00","25,8","ND","ND","ND","ND","ND"],
    [8532,"06/18/2015 03:00","27","ND","ND","ND","ND","ND"],
    [8533,"06/18/2015 04:00","24,6","ND","ND","ND","ND","ND"],
    [8534,"06/18/2015 05:00","26,7","ND","ND","ND","ND","ND"],
    [8535,"06/18/2015 06:00","61","0,03","ND","ND","ND","ND"],
    [8536,"06/18/2015 07:00","73,6","1,18","ND","ND","ND","ND"],
    [8537,"06/18/2015 08:00","73,6","6,71","ND","ND","ND","ND"],
    [8538,"06/18/2015 09:00","65,4","17,97","ND","ND","ND","ND"],
    [8539,"06/18/2015 10:00","67,1","ND","ND","ND","ND","ND"],
    [8540,"06/18/2015 11:00","71,9","ND","ND","ND","ND","ND"],
    [8541,"06/18/2015 12:00","78,8","12,66","ND","ND","ND","ND"],
    [8542,"06/18/2015 13:00","63,4","9,33","ND","ND","ND","ND"],
    [8543,"06/18/2015 14:00","51,6","8,59","ND","ND","ND","ND"],
    [8544,"06/18/2015 15:00","65,7","12,71","ND","ND","ND","ND"],
    [8545,"06/18/2015 16:00","69,3","14,7","ND","ND","ND","ND"],
    [8546,"06/18/2015 17:00","57,4","10,59","ND","ND","ND","ND"],
    [8547,"06/18/2015 18:00","27,8","5,55","ND","ND","ND","ND"],
    [8548,"06/18/2015 19:00","29,5","5,32","ND","ND","ND","ND"],
    [8549,"06/18/2015 20:00","37,7","6,45","ND","ND","ND","ND"],
    [8550,"06/18/2015 21:00","34,8","4,51","ND","ND","ND","ND"],
    [8551,"06/18/2015 22:00","47,6","6,6","ND","ND","ND","ND"],
    [8552,"06/18/2015 23:00","61,3","5,58","ND","ND","ND","ND"],
    [8553,"06/19/2015 00:00","42,2","3,85","ND","ND","ND","ND"],
    [8554,"06/19/2015 01:00","40,1","1,86","ND","ND","ND","ND"],
    [8555,"06/19/2015 02:00","36","0,73","ND","ND","ND","ND"],
    [8556,"06/19/2015 03:00","36,1","0,5","ND","ND","ND","ND"],
    [8557,"06/19/2015 04:00","38,7","0,73","ND","ND","ND","ND"],
    [8558,"06/19/2015 05:00","38,8","0,89","ND","ND","ND","ND"],
    [8559,"06/19/2015 06:00","53,3","4,22","ND","ND","ND","ND"],
    [8560,"06/19/2015 07:00","74,4","6,5","ND","ND","ND","ND"],
    [8561,"06/19/2015 08:00","80,4","9,41","ND","ND","ND","ND"],
    [8562,"06/19/2015 09:00","114,5","13,23","ND","ND","ND","ND"],
    [8563,"06/19/2015 10:00","74,6","7,39","ND","ND","ND","ND"],
    [8564,"06/19/2015 11:00","56,3","7,28","ND","ND","ND","ND"],
    [8565,"06/19/2015 12:00","62,4","8,62","ND","ND","ND","ND"],
    [8566,"06/19/2015 13:00","60","8,73","ND","ND","ND","ND"],
    [8567,"06/19/2015 14:00","51,6","8,1","ND","ND","ND","ND"],
    [8568,"06/19/2015 15:00","47,1","5,24","ND","ND","ND","ND"],
    [8569,"06/19/2015 16:00","38,3","4,53","ND","ND","ND","ND"],
    [8570,"06/19/2015 17:00","50,8","6,37","ND","ND","ND","ND"],
    [8571,"06/19/2015 18:00","29,8","4,14","ND","ND","ND","ND"],
    [8572,"06/19/2015 19:00","28,9","3,8","ND","ND","ND","ND"],
    [8573,"06/19/2015 20:00","26,1","3,2","ND","ND","ND","ND"],
    [8574,"06/19/2015 21:00","45","5,9","ND","ND","ND","ND"],
    [8575,"06/19/2015 22:00","49,6","5,71","ND","ND","ND","ND"],
    [8576,"06/19/2015 23:00","61,4","3,43","ND","ND","ND","ND"],
    [8577,"06/20/2015 00:00","64,8","4,8","ND","ND","ND","ND"],
    [8578,"06/20/2015 01:00","36,6","3,9","ND","ND","ND","ND"],
    [8579,"06/20/2015 02:00","31,7","2,67","ND","ND","ND","ND"],
    [8580,"06/20/2015 03:00","25,8","1,78","ND","ND","ND","ND"],
    [8581,"06/20/2015 04:00","26,2","1,81","ND","ND","ND","ND"],
    [8582,"06/20/2015 05:00","30,3","2,7","ND","ND","ND","ND"],
    [8583,"06/20/2015 06:00","30,3","4,38","ND","ND","ND","ND"],
    [8584,"06/20/2015 07:00","48,1","6,13","ND","ND","ND","ND"],
    [8585,"06/20/2015 08:00","48,7","6,18","ND","ND","ND","ND"],
    [8586,"06/20/2015 09:00","45,1","8,54","ND","ND","ND","ND"],
    [8587,"06/20/2015 10:00","44","10,38","ND","ND","ND","ND"],
    [8588,"06/20/2015 11:00","40,4","12,03","ND","ND","ND","ND"],
    [8589,"06/20/2015 12:00","43,6","9,59","ND","ND","ND","ND"],
    [8590,"06/20/2015 13:00","42,7","6,24","ND","ND","ND","ND"],
    [8591,"06/20/2015 14:00","35,5","3,12","ND","ND","ND","ND"],
    [8592,"06/20/2015 15:00","38,5","2,65","ND","ND","ND","ND"],
    [8593,"06/20/2015 16:00","41,2","1,73","ND","ND","ND","ND"],
    [8594,"06/20/2015 17:00","38,1","1,52","ND","ND","ND","ND"],
    [8595,"06/20/2015 18:00","29,4","0,86","ND","ND","ND","ND"],
    [8596,"06/20/2015 19:00","21,4","0,37","ND","ND","ND","ND"],
    [8597,"06/20/2015 20:00","17,4","1,44","ND","ND","ND","ND"],
    [8598,"06/20/2015 21:00","37","3,62","ND","ND","ND","ND"],
    [8599,"06/20/2015 22:00","36,3","2,62","ND","ND","ND","ND"],
    [8600,"06/20/2015 23:00","30,9","2,83","ND","ND","ND","ND"],
    [8601,"06/21/2015 00:00","27,9","1,7","ND","ND","ND","ND"],
    [8602,"06/21/2015 01:00","49,9","4,51","ND","ND","ND","ND"],
    [8603,"06/21/2015 02:00","41,9","2,44","ND","ND","ND","ND"],
    [8604,"06/21/2015 03:00","31,3","2,28","ND","ND","ND","ND"],
    [8605,"06/21/2015 04:00","26,4","0,81","ND","ND","ND","ND"],
    [8606,"06/21/2015 05:00","29,7","0,6","ND","ND","ND","ND"],
    [8607,"06/21/2015 06:00","32,6","1,81","ND","ND","ND","ND"],
    [8608,"06/21/2015 07:00","41","1,99","ND","ND","ND","ND"],
    [8609,"06/21/2015 08:00","43,4","3,8","ND","ND","ND","ND"],
    [8610,"06/21/2015 09:00","46,4","8,36","ND","ND","ND","ND"],
    [8611,"06/21/2015 10:00","65,9","12,37","ND","ND","ND","ND"],
    [8612,"06/21/2015 11:00","54,5","12,03","ND","ND","ND","ND"],
    [8613,"06/21/2015 12:00","47,9","8,46","ND","ND","ND","ND"],
    [8614,"06/21/2015 13:00","43","9,96","ND","ND","ND","ND"],
    [8615,"06/21/2015 14:00","47,9","12,52","ND","ND","ND","ND"],
    [8616,"06/21/2015 15:00","46,4","13,52","ND","ND","ND","ND"],
    [8617,"06/21/2015 16:00","17,5","0,86","ND","ND","ND","ND"],
    [8618,"06/21/2015 17:00","17,3","0,79","ND","ND","ND","ND"],
    [8619,"06/21/2015 18:00","18,6","0,92","ND","ND","ND","ND"],
    [8620,"06/21/2015 19:00","17,2","0,66","ND","ND","ND","ND"],
    [8621,"06/21/2015 20:00","16,3","0,68","ND","ND","ND","ND"],
    [8622,"06/21/2015 21:00","10,4","0,81","ND","ND","ND","ND"],
    [8623,"06/21/2015 22:00","31,1","1,1","ND","ND","ND","ND"],
    [8624,"06/21/2015 23:00","35,4","2,54","ND","ND","ND","ND"],
    [8625,"06/22/2015 00:00","34,7","1,94","ND","ND","ND","ND"],
    [8626,"06/22/2015 01:00","18","2,2","ND","ND","ND","ND"],
    [8627,"06/22/2015 02:00","19,7","0,47","ND","ND","ND","ND"],
    [8628,"06/22/2015 03:00","22,2","1","ND","ND","ND","ND"],
    [8629,"06/22/2015 04:00","19,2","0,16","ND","ND","ND","ND"],
    [8630,"06/22/2015 05:00","20,2","0,29","ND","ND","ND","ND"],
    [8631,"06/22/2015 06:00","34,5","2,96","ND","ND","ND","ND"],
    [8632,"06/22/2015 07:00","56,5","7,94","ND","ND","ND","ND"],
    [8633,"06/22/2015 08:00","44,2","6,55","ND","ND","ND","ND"],
    [8634,"06/22/2015 09:00","57,9","6","ND","ND","ND","ND"],
    [8635,"06/22/2015 10:00","41,9","4,69","ND","ND","ND","ND"],
    [8636,"06/22/2015 11:00","40,4","6,21","ND","ND","ND","ND"],
    [8637,"06/22/2015 12:00","32,6","4,95","ND","ND","ND","ND"],
    [8638,"06/22/2015 13:00","32,7","4,22","ND","ND","ND","ND"],
    [8639,"06/22/2015 14:00","27,8","3,33","ND","ND","ND","ND"],
    [8640,"06/22/2015 15:00","34,9","3,62","ND","ND","ND","ND"],
    [8641,"06/22/2015 16:00","36,5","4,22","ND","ND","ND","ND"],
    [8642,"06/22/2015 17:00","43,4","6","ND","ND","ND","ND"],
    [8643,"06/22/2015 18:00","48,1","8,65","ND","ND","ND","ND"],
    [8644,"06/22/2015 19:00","95,2","4,61","ND","ND","ND","ND"],
    [8645,"06/22/2015 20:00","80,4","6,03","ND","ND","ND","ND"],
    [8646,"06/22/2015 21:00","57,5","7,21","ND","ND","ND","ND"],
    [8647,"06/22/2015 22:00","67,2","4,38","ND","ND","ND","ND"],
    [8648,"06/22/2015 23:00","54,9","2,1","ND","ND","ND","ND"],
    [8649,"06/23/2015 00:00","27","1,05","ND","ND","ND","ND"],
    [8650,"06/23/2015 01:00","31,8","1,34","ND","ND","ND","ND"],
    [8651,"06/23/2015 02:00","29,2","1,34","ND","ND","ND","ND"],
    [8652,"06/23/2015 03:00","36,2","1,78","ND","ND","ND","ND"],
    [8653,"06/23/2015 04:00","36,9","2,04","ND","ND","ND","ND"],
    [8654,"06/23/2015 05:00","28,2","2,99","ND","ND","ND","ND"],
    [8655,"06/23/2015 06:00","64,9","3,56","ND","ND","ND","ND"],
    [8656,"06/23/2015 07:00","83,2","10,48","ND","ND","ND","ND"],
    [8657,"06/23/2015 08:00","72,6","7,7","ND","ND","ND","ND"],
    [8658,"06/23/2015 09:00","83","12,81","ND","ND","ND","ND"],
    [8659,"06/23/2015 10:00","72,4","10,45","ND","ND","ND","ND"],
    [8660,"06/23/2015 11:00","59","9,93","ND","ND","ND","ND"],
    [8661,"06/23/2015 12:00","57,4","10,74","ND","ND","ND","ND"],
    [8662,"06/23/2015 13:00","57,8","8,75","ND","ND","ND","ND"],
    [8663,"06/23/2015 14:00","46,5","5,16","ND","ND","ND","ND"],
    [8664,"06/23/2015 15:00","25,4","2,73","ND","ND","ND","ND"],
    [8665,"06/23/2015 16:00","33,2","3,85","ND","ND","ND","ND"],
    [8666,"06/23/2015 17:00","44,2","5,5","ND","ND","ND","ND"],
    [8667,"06/23/2015 18:00","69","9,62","ND","ND","ND","ND"],
    [8668,"06/23/2015 19:00","131","7,34","ND","ND","ND","ND"],
    [8669,"06/23/2015 20:00","71,1","4,17","ND","ND","ND","ND"],
    [8670,"06/23/2015 21:00","48,5","7,36","ND","ND","ND","ND"],
    [8671,"06/23/2015 22:00","46,2","3,41","ND","ND","ND","ND"],
    [8672,"06/23/2015 23:00","33,6","1,94","ND","ND","ND","ND"],
    [8673,"06/24/2015 00:00","21,6","0,29","ND","ND","ND","ND"],
    [8674,"06/24/2015 01:00","14,9","0,08","ND","ND","ND","ND"],
    [8675,"06/24/2015 02:00","12,2","ND","ND","ND","ND","ND"],
    [8676,"06/24/2015 03:00","16,9","0,16","ND","ND","ND","ND"],
    [8677,"06/24/2015 04:00","13,1","ND","ND","ND","ND","ND"],
    [8678,"06/24/2015 05:00","17,5","0,16","ND","ND","ND","ND"],
    [8679,"06/24/2015 06:00","40,1","2,59","ND","ND","ND","ND"],
    [8680,"06/24/2015 07:00","64,8","5,11","ND","ND","ND","ND"],
    [8681,"06/24/2015 08:00","55,2","6,6","ND","ND","ND","ND"],
    [8682,"06/24/2015 09:00","60,9","9,3","ND","ND","ND","ND"],
    [8683,"06/24/2015 10:00","60,9","8,28","ND","ND","ND","ND"],
    [8684,"06/24/2015 11:00","63,5","6,79","ND","ND","ND","ND"],
    [8685,"06/24/2015 12:00","56","5,76","ND","ND","ND","ND"],
    [8686,"06/24/2015 13:00","41,6","3,59","ND","ND","ND","ND"],
    [8687,"06/24/2015 14:00","27,3","1,57","ND","ND","ND","ND"],
    [8688,"06/24/2015 15:00","19,3","1,47","ND","ND","ND","ND"],
    [8689,"06/24/2015 16:00","29,6","3,2","ND","ND","ND","ND"],
    [8690,"06/24/2015 17:00","39,3","2,44","ND","ND","ND","ND"],
    [8691,"06/24/2015 18:00","44","2,33","ND","ND","ND","ND"],
    [8692,"06/24/2015 19:00","67,6","2,78","ND","ND","ND","ND"],
    [8693,"06/24/2015 20:00","41,4","1,94","ND","ND","ND","ND"],
    [8694,"06/24/2015 21:00","48,4","8,07","ND","ND","ND","ND"],
    [8695,"06/24/2015 22:00","59,2","7,34","ND","ND","ND","ND"],
    [8696,"06/24/2015 23:00","51,4","6,24","ND","ND","ND","ND"],
    [8697,"06/25/2015 00:00","41,6","1,21","ND","ND","ND","ND"],
    [8698,"06/25/2015 01:00","17","0,86","ND","ND","ND","ND"],
    [8699,"06/25/2015 02:00","19,9","0,34","ND","ND","ND","ND"],
    [8700,"06/25/2015 03:00","11,5","ND","ND","ND","ND","ND"],
    [8701,"06/25/2015 04:00","10,8","ND","ND","ND","ND","ND"],
    [8702,"06/25/2015 05:00","14,9","0,47","ND","ND","ND","ND"],
    [8703,"06/25/2015 06:00","40,6","3,77","ND","ND","ND","ND"],
    [8704,"06/25/2015 07:00","70,6","5,74","ND","ND","ND","ND"],
    [8705,"06/25/2015 08:00","68,1","6,34","ND","ND","ND","ND"],
    [8706,"06/25/2015 09:00","64,9","25,73","ND","ND","ND","ND"],
    [8707,"06/25/2015 10:00","140,1","47,14","ND","ND","ND","ND"],
    [8708,"06/25/2015 11:00","61,9","14,57","ND","ND","ND","ND"],
    [8709,"06/25/2015 12:00","50,7","8,91","ND","ND","ND","ND"],
    [8710,"06/25/2015 13:00","44","5,61","ND","ND","ND","ND"],
    [8711,"06/25/2015 14:00","50,3","5,29","ND","ND","ND","ND"],
    [8712,"06/25/2015 15:00","50,6","5,55","ND","ND","ND","ND"],
    [8713,"06/25/2015 16:00","40,7","4,59","ND","ND","ND","ND"],
    [8714,"06/25/2015 17:00","39,2","5,32","ND","ND","ND","ND"],
    [8715,"06/25/2015 18:00","62,8","6,89","ND","ND","ND","ND"],
    [8716,"06/25/2015 19:00","50,6","3,51","ND","ND","ND","ND"],
    [8717,"06/25/2015 20:00","84,8","5,63","ND","ND","ND","ND"],
    [8718,"06/25/2015 21:00","81,3","7,39","ND","ND","ND","ND"],
    [8719,"06/25/2015 22:00","82,7","9,43","ND","ND","ND","ND"],
    [8720,"06/25/2015 23:00","30,9","1,86","ND","ND","ND","ND"],
    [8721,"06/26/2015 00:00","16,3","0,55","ND","ND","ND","ND"],
    [8722,"06/26/2015 01:00","25,6","0,73","ND","ND","ND","ND"],
    [8723,"06/26/2015 02:00","26,6","0,73","ND","ND","ND","ND"],
    [8724,"06/26/2015 03:00","23,7","0,5","ND","ND","ND","ND"],
    [8725,"06/26/2015 04:00","18,5","0,03","ND","ND","ND","ND"],
    [8726,"06/26/2015 05:00","18,2","0,39","ND","ND","ND","ND"],
    [8727,"06/26/2015 06:00","62,6","2,57","ND","ND","ND","ND"],
    [8728,"06/26/2015 07:00","65,5","6,63","ND","ND","ND","ND"],
    [8729,"06/26/2015 08:00","86,5","6,89","ND","ND","ND","ND"],
    [8730,"06/26/2015 09:00","59","5,35","ND","ND","ND","ND"],
    [8731,"06/26/2015 10:00","67,6","5,11","ND","ND","ND","ND"],
    [8732,"06/26/2015 11:00","56,3","5,97","ND","ND","ND","ND"],
    [8733,"06/26/2015 12:00","53,1","5,71","ND","ND","ND","ND"],
    [8734,"06/26/2015 13:00","48,8","4,14","ND","ND","ND","ND"],
    [8735,"06/26/2015 14:00","26,6","1,94","ND","ND","ND","ND"],
    [8736,"06/26/2015 15:00","40","2,52","ND","ND","ND","ND"],
    [8737,"06/26/2015 16:00","54","5,4","ND","ND","ND","ND"],
    [8738,"06/26/2015 17:00","71,2","4,56","ND","ND","ND","ND"],
    [8739,"06/26/2015 18:00","54","6","ND","ND","ND","ND"],
    [8740,"06/26/2015 19:00","57","3,14","ND","ND","ND","ND"],
    [8741,"06/26/2015 20:00","31,2","0,92","ND","ND","ND","ND"],
    [8742,"06/26/2015 21:00","24,4","2,67","ND","ND","ND","ND"],
    [8743,"06/26/2015 22:00","25,2","1,81","ND","ND","ND","ND"],
    [8744,"06/26/2015 23:00","25,3","0,79","ND","ND","ND","ND"],
    [8745,"06/27/2015 00:00","23,3","0,45","ND","ND","ND","ND"],
    [8746,"06/27/2015 01:00","4,9","ND","ND","ND","ND","ND"],
    [8747,"06/27/2015 02:00","6,8","0,31","ND","ND","ND","ND"],
    [8748,"06/27/2015 03:00","28,6","2,99","ND","ND","ND","ND"],
    [8749,"06/27/2015 04:00","58","2,46","ND","ND","ND","ND"],
    [8750,"06/27/2015 05:00","122,3","3,22","ND","ND","ND","ND"],
    [8751,"06/27/2015 06:00","40,7","1,65","ND","ND","ND","ND"],
    [8752,"06/27/2015 07:00","47,3","3,48","ND","ND","ND","ND"],
    [8753,"06/27/2015 08:00","58,4","4,3","ND","ND","ND","ND"],
    [8754,"06/27/2015 09:00","56,8","6,08","ND","ND","ND","ND"],
    [8755,"06/27/2015 10:00","98,9","11,5","ND","ND","ND","ND"],
    [8756,"06/27/2015 11:00","104,7","26,44","ND","ND","ND","ND"],
    [8757,"06/27/2015 12:00","67,5","18,47","ND","ND","ND","ND"],
    [8758,"06/27/2015 13:00","51,6","6,97","ND","ND","ND","ND"],
    [8759,"06/27/2015 14:00","39,7","4,22","ND","ND","ND","ND"],
    [8760,"06/27/2015 15:00","43,3","4,53","ND","ND","ND","ND"],
    [8761,"06/27/2015 16:00","40","1,31","ND","ND","ND","ND"],
    [8762,"06/27/2015 17:00","30,3","1,55","ND","ND","ND","ND"],
    [8763,"06/27/2015 18:00","24,1","2,07","ND","ND","ND","ND"],
    [8764,"06/27/2015 19:00","42,1","7,02","ND","ND","ND","ND"],
    [8765,"06/27/2015 20:00","56,6","5,14","ND","ND","ND","ND"],
    [8766,"06/27/2015 21:00","42,8","6,92","ND","ND","ND","ND"],
    [8767,"06/27/2015 22:00","23,5","0,86","ND","ND","ND","ND"],
    [8768,"06/27/2015 23:00","13","1,28","ND","ND","ND","ND"],
    [8769,"06/28/2015 00:00","25,5","2,62","ND","ND","ND","ND"],
    [8770,"06/28/2015 01:00","15,2","0,81","ND","ND","ND","ND"],
    [8771,"06/28/2015 02:00","17,1","0,31","ND","ND","ND","ND"],
    [8772,"06/28/2015 03:00","17,1","0,16","ND","ND","ND","ND"],
    [8773,"06/28/2015 04:00","16,6","0,16","ND","ND","ND","ND"],
    [8774,"06/28/2015 05:00","10,8","ND","ND","ND","ND","ND"],
    [8775,"06/28/2015 06:00","24,7","0,29","ND","ND","ND","ND"],
    [8776,"06/28/2015 07:00","33,9","2,38","ND","ND","ND","ND"],
    [8777,"06/28/2015 08:00","34,9","3,75","ND","ND","ND","ND"],
    [8778,"06/28/2015 09:00","34,6","3,3","ND","ND","ND","ND"],
    [8779,"06/28/2015 10:00","31,5","3,9","ND","ND","ND","ND"],
    [8780,"06/28/2015 11:00","35,7","5,21","ND","ND","ND","ND"],
    [8781,"06/28/2015 12:00","36,2","4,53","ND","ND","ND","ND"],
    [8782,"06/28/2015 13:00","41,8","5,32","ND","ND","ND","ND"],
    [8783,"06/28/2015 14:00","37,9","4,95","ND","ND","ND","ND"],
    [8784,"06/28/2015 15:00","51,6","4,4","ND","ND","ND","ND"],
    [8785,"06/28/2015 16:00","28,2","1,6","ND","ND","ND","ND"],
    [8786,"06/28/2015 17:00","23,8","1,76","ND","ND","ND","ND"],
    [8787,"06/28/2015 18:00","26,2","0,31","ND","ND","ND","ND"],
    [8788,"06/28/2015 19:00","23,5","0,37","ND","ND","ND","ND"],
    [8789,"06/28/2015 20:00","18,7","2,31","ND","ND","ND","ND"],
    [8790,"06/28/2015 21:00","33,5","2,7","ND","ND","ND","ND"],
    [8791,"06/28/2015 22:00","58,9","2,2","ND","ND","ND","ND"],
    [8792,"06/28/2015 23:00","25,1","1,52","ND","ND","ND","ND"],
    [8793,"06/29/2015 00:00","51,4","2,41","ND","ND","ND","ND"],
    [8794,"06/29/2015 01:00","33,9","1,1","ND","ND","ND","ND"],
    [8795,"06/29/2015 02:00","19,5","0,31","ND","ND","ND","ND"],
    [8796,"06/29/2015 03:00","19","ND","ND","ND","ND","ND"],
    [8797,"06/29/2015 04:00","23,4","0,13","ND","ND","ND","ND"],
    [8798,"06/29/2015 05:00","23,5","1,02","ND","ND","ND","ND"],
    [8799,"06/29/2015 06:00","27,8","0,79","ND","ND","ND","ND"],
    [8800,"06/29/2015 07:00","33,5","1,15","ND","ND","ND","ND"],
    [8801,"06/29/2015 08:00","45,7","5,63","ND","ND","ND","ND"],
    [8802,"06/29/2015 09:00","45,4","8,8","ND","ND","ND","ND"],
    [8803,"06/29/2015 10:00","37,8","7,83","ND","ND","ND","ND"],
    [8804,"06/29/2015 11:00","35,4","7,05","ND","ND","ND","ND"],
    [8805,"06/29/2015 12:00","43,5","7,15","ND","ND","ND","ND"],
    [8806,"06/29/2015 13:00","42,3","6,63","ND","ND","ND","ND"],
    [8807,"06/29/2015 14:00","42,3","7,49","ND","ND","ND","ND"],
    [8808,"06/29/2015 15:00","36,4","5,55","ND","ND","ND","ND"],
    [8809,"06/29/2015 16:00","10,6","6,63","ND","ND","ND","ND"],
    [8810,"06/29/2015 17:00","32,8","37,1","ND","ND","ND","ND"],
    [8811,"06/29/2015 18:00","44,9","1,83","ND","ND","ND","ND"],
    [8812,"06/29/2015 19:00","16,8","1","ND","ND","ND","ND"],
    [8813,"06/29/2015 20:00","12,4","0,71","ND","ND","ND","ND"],
    [8814,"06/29/2015 21:00","11,8","1,02","ND","ND","ND","ND"],
    [8815,"06/29/2015 22:00","40","1,89","ND","ND","ND","ND"],
    [8816,"06/29/2015 23:00","46,5","2,57","ND","ND","ND","ND"],
    [8817,"06/30/2015 00:00","41,1","2,44","ND","ND","ND","ND"],
    [8818,"06/30/2015 01:00","31,5","0,84","ND","ND","ND","ND"],
    [8819,"06/30/2015 02:00","28,3","0,42","ND","ND","ND","ND"],
    [8820,"06/30/2015 03:00","25,7","0,84","ND","ND","ND","ND"],
    [8821,"06/30/2015 04:00","30,3","0,63","ND","ND","ND","ND"],
    [8822,"06/30/2015 05:00","32,4","0,58","ND","ND","ND","ND"],
    [8823,"06/30/2015 06:00","37,2","2,1","ND","ND","ND","ND"],
    [8824,"06/30/2015 07:00","59,8","6,37","ND","ND","ND","ND"],
    [8825,"06/30/2015 08:00","70","9,77","ND","ND","ND","ND"],
    [8826,"06/30/2015 09:00","116,8","53,77","ND","ND","ND","ND"],
    [8827,"06/30/2015 10:00","97,6","20,39","ND","ND","ND","ND"],
    [8828,"06/30/2015 11:00","61,1","7,44","ND","ND","ND","ND"],
    [8829,"06/30/2015 12:00","48","5,55","ND","ND","ND","ND"],
    [8830,"06/30/2015 13:00","54,5","5,45","ND","ND","ND","ND"],
    [8831,"06/30/2015 14:00","64,5","6,45","ND","ND","ND","ND"],
    [8832,"06/30/2015 15:00","67,9","14,39","ND","ND","ND","ND"],
    [8833,"06/30/2015 16:00","50,3","7,39","ND","ND","ND","ND"],
    [8834,"06/30/2015 17:00","55,2","15,17","ND","ND","ND","ND"],
    [8835,"06/30/2015 18:00","41,3","4,77","ND","ND","ND","ND"],
    [8836,"06/30/2015 19:00","37,4","4,74","ND","ND","ND","ND"],
    [8837,"06/30/2015 20:00","72,4","5,66","ND","ND","ND","ND"],
    [8838,"06/30/2015 21:00","64,8","5,29","ND","ND","ND","ND"],
    [8839,"06/30/2015 22:00","67,5","5,4","ND","ND","ND","ND"],
    [8840,"06/30/2015 23:00","59,6","5,06","ND","ND","ND","ND"],
    [8841,"42011","64,8","3,75","ND","ND","ND","ND"],
    [8842,"42011,04167","33,2","1,62","ND","ND","ND","ND"],
    [8843,"42011,08333","27","1,36","ND","ND","ND","ND"],
    [8844,"42011,125","42,3","1,34","ND","ND","ND","ND"],
    [8845,"42011,16667","42,3","0,97","ND","ND","ND","ND"],
    [8846,"42011,20833","42,3","1,1","ND","ND","ND","ND"],
    [8847,"42011,25","61,7","3,12","ND","ND","ND","ND"],
    [8848,"42011,29167","113,6","9,98","ND","ND","ND","ND"],
    [8849,"42011,33333","121,1","10,98","ND","ND","ND","ND"],
    [8850,"42011,375","121,2","36,58","ND","ND","ND","ND"],
    [8851,"42011,41667","95,6","24,79","ND","ND","ND","ND"],
    [8852,"42011,45833","83,7","12,47","ND","ND","ND","ND"],
    [8853,"42011,5","73,8","9,28","ND","ND","ND","ND"],
    [8854,"42011,54167","69,6","9,12","ND","ND","ND","ND"],
    [8855,"42011,58333","64,7","6,5","ND","ND","ND","ND"],
    [8856,"42011,625","51,8","5,42","ND","ND","ND","ND"],
    [8857,"42011,66667","69,5","3,46","ND","ND","ND","ND"],
    [8858,"42011,70833","46,4","2,49","ND","ND","ND","ND"],
    [8859,"42011,75","42,9","1,97","ND","ND","ND","ND"],
    [8860,"42011,79167","42,9","2,65","ND","ND","ND","ND"],
    [8861,"42011,83333","40,6","4,64","ND","ND","ND","ND"],
    [8862,"42011,875","64,8","6,5","ND","ND","ND","ND"],
    [8863,"42011,91667","87,9","5,4","ND","ND","ND","ND"],
    [8864,"42011,95833","67,3","4,35","ND","ND","ND","ND"],
    [8865,"42042","62,7","3,75","ND","ND","ND","ND"],
    [8866,"42042,04167","50","1,94","ND","ND","ND","ND"],
    [8867,"42042,08333","40,2","1,26","ND","ND","ND","ND"],
    [8868,"42042,125","27,4","1,52","ND","ND","ND","ND"],
    [8869,"42042,16667","35","0,97","ND","ND","ND","ND"],
    [8870,"42042,20833","26,5","0,79","ND","ND","ND","ND"],
    [8871,"42042,25","40,6","3,33","ND","ND","ND","ND"],
    [8872,"42042,29167","62,2","4,9","ND","ND","ND","ND"],
    [8873,"42042,33333","83,3","7,81","ND","ND","ND","ND"],
    [8874,"42042,375","72,5","8,49","ND","ND","ND","ND"],
    [8875,"42042,41667","62","6,13","ND","ND","ND","ND"],
    [8876,"42042,45833","53","5,53","ND","ND","ND","ND"],
    [8877,"42042,5","73,7","7,65","ND","ND","ND","ND"],
    [8878,"42042,54167","68","6,26","ND","ND","ND","ND"],
    [8879,"42042,58333","60,3","4,32","ND","ND","ND","ND"],
    [8880,"42042,625","59,7","3,51","ND","ND","ND","ND"],
    [8881,"42042,66667","29,8","2,44","ND","ND","ND","ND"],
    [8882,"42042,70833","34,3","1,6","ND","ND","ND","ND"],
    [8883,"42042,75","20,8","3,04","ND","ND","ND","ND"],
    [8884,"42042,79167","36,7","5,03","ND","ND","ND","ND"],
    [8885,"42042,83333","56,6","5,95","ND","ND","ND","ND"],
    [8886,"42042,875","51,3","11,32","ND","ND","ND","ND"],
    [8887,"42042,91667","79,9","11,87","ND","ND","ND","ND"],
    [8888,"42042,95833","81,5","4,48","ND","ND","ND","ND"],
    [8889,"42070","70,2","4,06","ND","ND","ND","ND"],
    [8890,"42070,04167","38,5","1,97","ND","ND","ND","ND"],
    [8891,"42070,08333","27,7","1,68","ND","ND","ND","ND"],
    [8892,"42070,125","19,1","1,15","ND","ND","ND","ND"],
    [8893,"42070,16667","26,3","1,15","ND","ND","ND","ND"],
    [8894,"42070,20833","34,6","1,55","ND","ND","ND","ND"],
    [8895,"42070,25","34,6","3,04","ND","ND","ND","ND"],
    [8896,"42070,29167","76,9","6,08","ND","ND","ND","ND"],
    [8897,"42070,33333","87,5","11,06","ND","ND","ND","ND"],
    [8898,"42070,375","137,3","9,77","ND","ND","ND","ND"],
    [8899,"42070,41667","98,1","9,28","ND","ND","ND","ND"],
    [8900,"42070,45833","67,9","10,69","ND","ND","ND","ND"],
    [8901,"42070,5","60,4","8,38","ND","ND","ND","ND"],
    [8902,"42070,54167","39,1","5,08","ND","ND","ND","ND"],
    [8903,"42070,58333","49,1","4,98","ND","ND","ND","ND"],
    [8904,"42070,625","45,1","5","ND","ND","ND","ND"],
    [8905,"42070,66667","48,2","5,58","ND","ND","ND","ND"],
    [8906,"42070,70833","68,2","4,48","ND","ND","ND","ND"],
    [8907,"42070,75","28,1","2,1","ND","ND","ND","ND"],
    [8908,"42070,79167","23,9","2,52","ND","ND","ND","ND"],
    [8909,"42070,83333","23,9","3,12","ND","ND","ND","ND"],
    [8910,"42070,875","47,2","2,93","ND","ND","ND","ND"],
    [8911,"42070,91667","69,7","5,19","ND","ND","ND","ND"],
    [8912,"42070,95833","86,9","4,66","ND","ND","ND","ND"],
    [8913,"42101","52,4","6,39","ND","ND","ND","ND"],
    [8914,"42101,04167","37,6","2,15","ND","ND","ND","ND"],
    [8915,"42101,08333","36,6","2,88","ND","ND","ND","ND"],
    [8916,"42101,125","63,7","2,57","ND","ND","ND","ND"],
    [8917,"42101,16667","39,8","1,62","ND","ND","ND","ND"],
    [8918,"42101,20833","47,1","2,54","ND","ND","ND","ND"],
    [8919,"42101,25","56,8","3,88","ND","ND","ND","ND"],
    [8920,"42101,29167","56,8","4,45","ND","ND","ND","ND"],
    [8921,"42101,33333","68,2","8,59","ND","ND","ND","ND"],
    [8922,"42101,375","120,8","10,48","ND","ND","ND","ND"],
    [8923,"42101,41667","89,6","10,01","ND","ND","ND","ND"],
    [8924,"42101,45833","79,5","10,82","ND","ND","ND","ND"],
    [8925,"42101,5","101,1","15,8","ND","ND","ND","ND"],
    [8926,"42101,54167","105,1","19,21","ND","ND","ND","ND"],
    [8927,"42101,58333","106","32,1","ND","ND","ND","ND"],
    [8928,"42101,625","92,2","22,95","ND","ND","ND","ND"],
    [8929,"42101,66667","83,8","14,39","ND","ND","ND","ND"],
    [8930,"42101,70833","27,8","5,92","ND","ND","ND","ND"],
    [8931,"42101,75","29,3","6,11","ND","ND","ND","ND"],
    [8932,"42101,79167","51,9","4,85","ND","ND","ND","ND"],
    [8933,"42101,83333","54,2","6,73","ND","ND","ND","ND"],
    [8934,"42101,875","47,3","5,4","ND","ND","ND","ND"],
    [8935,"42101,91667","32,6","5,69","ND","ND","ND","ND"],
    [8936,"42101,95833","56,2","5,97","ND","ND","ND","ND"],
    [8937,"42131","41,5","4,48","ND","ND","ND","ND"],
    [8938,"42131,04167","40,2","4,32","ND","ND","ND","ND"],
    [8939,"42131,08333","41,7","4,14","ND","ND","ND","ND"],
    [8940,"42131,125","39,9","3,3","ND","ND","ND","ND"],
    [8941,"42131,16667","48,8","3,33","ND","ND","ND","ND"],
    [8942,"42131,20833","50,9","3,35","ND","ND","ND","ND"],
    [8943,"42131,25","50,4","3,77","ND","ND","ND","ND"],
    [8944,"42131,29167","50,4","4,59","ND","ND","ND","ND"],
    [8945,"42131,33333","60,8","7,42","ND","ND","ND","ND"],
    [8946,"42131,375","62,8","10,77","ND","ND","ND","ND"],
    [8947,"42131,41667","51,9","14,25","ND","ND","ND","ND"],
    [8948,"42131,45833","50,8","14,41","ND","ND","ND","ND"],
    [8949,"42131,5","75,8","14,73","ND","ND","ND","ND"],
    [8950,"42131,54167","81,8","10,11","ND","ND","ND","ND"],
    [8951,"42131,58333","11,5","2,59","ND","ND","ND","ND"],
    [8952,"42131,625","16,4","2,62","ND","ND","ND","ND"],
    [8953,"42131,66667","12,9","1,78","ND","ND","ND","ND"],
    [8954,"42131,70833","19,9","3,98","ND","ND","ND","ND"],
    [8955,"42131,75","19,8","2,2","ND","ND","ND","ND"],
    [8956,"42131,79167","18,5","2,36","ND","ND","ND","ND"],
    [8957,"42131,83333","44,5","3,93","ND","ND","ND","ND"],
    [8958,"42131,875","73","5,76","ND","ND","ND","ND"],
    [8959,"42131,91667","59,4","6,42","ND","ND","ND","ND"],
    [8960,"42131,95833","72,2","6,11","ND","ND","ND","ND"],
    [8961,"42162","36,8","1,52","ND","ND","ND","ND"],
    [8962,"42162,04167","29,7","2,23","ND","ND","ND","ND"],
    [8963,"42162,08333","40,3","2,91","ND","ND","ND","ND"],
    [8964,"42162,125","57,1","2,86","ND","ND","ND","ND"],
    [8965,"42162,16667","54,8","2,86","ND","ND","ND","ND"],
    [8966,"42162,20833","46","2,46","ND","ND","ND","ND"],
    [8967,"42162,25","39","3,25","ND","ND","ND","ND"],
    [8968,"42162,29167","46,8","5,97","ND","ND","ND","ND"],
    [8969,"42162,33333","53,6","8,7","ND","ND","ND","ND"],
    [8970,"42162,375","46,3","10,27","ND","ND","ND","ND"],
    [8971,"42162,41667","45,9","21,85","ND","ND","ND","ND"],
    [8972,"42162,45833","42,3","12,08","ND","ND","ND","ND"],
    [8973,"42162,5","44,5","9,8","ND","ND","ND","ND"],
    [8974,"42162,54167","48,9","6,79","ND","ND","ND","ND"],
    [8975,"42162,58333","12,1","2,33","ND","ND","ND","ND"],
    [8976,"42162,625","12,1","1,86","ND","ND","ND","ND"],
    [8977,"42162,66667","11,2","2,52","ND","ND","ND","ND"],
    [8978,"42162,70833","10,5","1,6","ND","ND","ND","ND"],
    [8979,"42162,75","10,2","2,99","ND","ND","ND","ND"],
    [8980,"42162,79167","37","6,45","ND","ND","ND","ND"],
    [8981,"42162,83333","47,2","3,67","ND","ND","ND","ND"],
    [8982,"42162,875","26,9","5,29","ND","ND","ND","ND"],
    [8983,"42162,91667","32,3","5,16","ND","ND","ND","ND"],
    [8984,"42162,95833","47,9","2,52","ND","ND","ND","ND"],
    [8985,"42192","39","3,14","ND","ND","ND","ND"],
    [8986,"42192,04167","37,9","1,99","ND","ND","ND","ND"],
    [8987,"42192,08333","45,2","1,15","ND","ND","ND","ND"],
    [8988,"42192,125","37,2","0,55","ND","ND","ND","ND"],
    [8989,"42192,16667","36,1","1,18","ND","ND","ND","ND"],
    [8990,"42192,20833","32,1","1,36","ND","ND","ND","ND"],
    [8991,"42192,25","26,6","1,57","ND","ND","ND","ND"],
    [8992,"42192,29167","29,9","2,75","ND","ND","ND","ND"],
    [8993,"42192,33333","33,8","3,46","ND","ND","ND","ND"],
    [8994,"42192,375","45,2","6,97","ND","ND","ND","ND"],
    [8995,"42192,41667","61,1","8,41","ND","ND","ND","ND"],
    [8996,"42192,45833","46,8","6,89","ND","ND","ND","ND"],
    [8997,"42192,5","36,3","4,85","ND","ND","ND","ND"],
    [8998,"42192,54167","32,2","4,32","ND","ND","ND","ND"],
    [8999,"42192,58333","29,5","4,32","ND","ND","ND","ND"],
    [9000,"42192,625","8,7","0,81","ND","ND","ND","ND"],
    [9001,"42192,66667","12","1,23","ND","ND","ND","ND"],
    [9002,"42192,70833","39,1","2,91","ND","ND","ND","ND"],
    [9003,"42192,75","16,7","5,55","ND","ND","ND","ND"],
    [9004,"42192,79167","41,4","3,85","ND","ND","ND","ND"],
    [9005,"42192,83333","24,5","2,78","ND","ND","ND","ND"],
    [9006,"42192,875","35,3","5,24","ND","ND","ND","ND"],
    [9007,"42192,91667","53,4","5,61","ND","ND","ND","ND"],
    [9008,"42192,95833","44,5","3,35","ND","ND","ND","ND"],
    [9009,"42223","40,1","0,16","ND","ND","ND","ND"],
    [9010,"42223,04167","21","1,86","ND","ND","ND","ND"],
    [9011,"42223,08333","27,4","2,04","ND","ND","ND","ND"],
    [9012,"42223,125","30,5","2,04","ND","ND","ND","ND"],
    [9013,"42223,16667","18,9","2,12","ND","ND","ND","ND"],
    [9014,"42223,20833","30,6","4,69","ND","ND","ND","ND"],
    [9015,"42223,25","33","3,98","ND","ND","ND","ND"],
    [9016,"42223,29167","50,5","8,28","ND","ND","ND","ND"],
    [9017,"42223,33333","63,9","7,89","ND","ND","ND","ND"],
    [9018,"42223,375","56,6","7,6","ND","ND","ND","ND"],
    [9019,"42223,41667","50,3","56,1","ND","ND","ND","ND"],
    [9020,"42223,45833","43,8","12,76","ND","ND","ND","ND"],
    [9021,"42223,5","37","4,3","ND","ND","ND","ND"],
    [9022,"42223,54167","43","3,43","ND","ND","ND","ND"],
    [9023,"42223,58333","43,1","2,67","ND","ND","ND","ND"],
    [9024,"42223,625","30,5","2,04","ND","ND","ND","ND"],
    [9025,"42223,66667","27,1","0,26","ND","ND","ND","ND"],
    [9026,"42223,70833","19","0,18","ND","ND","ND","ND"],
    [9027,"42223,75","20,9","0,1","ND","ND","ND","ND"],
    [9028,"42223,79167","24,6","0,08","ND","ND","ND","ND"],
    [9029,"42223,83333","17","0,26","ND","ND","ND","ND"],
    [9030,"42223,875","17","0,92","ND","ND","ND","ND"],
    [9031,"42223,91667","43,9","1,21","ND","ND","ND","ND"],
    [9032,"42223,95833","31,4","0,45","ND","ND","ND","ND"],
    [9033,"42254","49,6","1,02","ND","ND","ND","ND"],
    [9034,"42254,04167","38,5","0,34","ND","ND","ND","ND"],
    [9035,"42254,08333","47,8","1,23","ND","ND","ND","ND"],
    [9036,"42254,125","29,9","0,1","ND","ND","ND","ND"],
    [9037,"42254,16667","30,6","ND","ND","ND","ND","ND"],
    [9038,"42254,20833","39,8","ND","ND","ND","ND","ND"],
    [9039,"42254,25","42,5","ND","ND","ND","ND","ND"],
    [9040,"42254,29167","64","0,76","ND","ND","ND","ND"],
    [9041,"42254,33333","64","19","ND","ND","ND","ND"],
    [9042,"42254,375","50,2","23,77","ND","ND","ND","ND"],
    [9043,"42254,41667","49,2","17,97","ND","ND","ND","ND"],
    [9044,"42254,45833","40,8","11,76","ND","ND","ND","ND"],
    [9045,"42254,5","40,8","6,94","ND","ND","ND","ND"],
    [9046,"42254,54167","60","4,95","ND","ND","ND","ND"],
    [9047,"42254,58333","57","4,77","ND","ND","ND","ND"],
    [9048,"42254,625","33,4","1,1","ND","ND","ND","ND"],
    [9049,"42254,66667","14","0,39","ND","ND","ND","ND"],
    [9050,"42254,70833","30,3","0,58","ND","ND","ND","ND"],
    [9051,"42254,75","20,7","0,21","ND","ND","ND","ND"],
    [9052,"42254,79167","20,4","0,21","ND","ND","ND","ND"],
    [9053,"42254,83333","21,9","0,68","ND","ND","ND","ND"],
    [9054,"42254,875","30,4","0,97","ND","ND","ND","ND"],
    [9055,"42254,91667","52,4","2,36","ND","ND","ND","ND"],
    [9056,"42254,95833","74,6","2,36","ND","ND","ND","ND"],
    [9057,"42284","17,1","0,1","ND","ND","ND","ND"],
    [9058,"42284,04167","61,5","1,41","ND","ND","ND","ND"],
    [9059,"42284,08333","53,5","1,02","ND","ND","ND","ND"],
    [9060,"42284,125","39","0,45","ND","ND","ND","ND"],
    [9061,"42284,16667","40,9","0,42","ND","ND","ND","ND"],
    [9062,"42284,20833","41,5","0,16","ND","ND","ND","ND"],
    [9063,"42284,25","50,1","0,52","ND","ND","ND","ND"],
    [9064,"42284,29167","78,6","2,02","ND","ND","ND","ND"],
    [9065,"42284,33333","74,2","4,19","ND","ND","ND","ND"],
    [9066,"42284,375","82,2","7,26","ND","ND","ND","ND"],
    [9067,"42284,41667","73,6","11,53","ND","ND","ND","ND"],
    [9068,"42284,45833","63,8","11,87","ND","ND","ND","ND"],
    [9069,"42284,5","42,6","8,86","ND","ND","ND","ND"],
    [9070,"42284,54167","47,2","6,79","ND","ND","ND","ND"],
    [9071,"42284,58333","56,8","5,21","ND","ND","ND","ND"],
    [9072,"42284,625","56,3","2,38","ND","ND","ND","ND"],
    [9073,"42284,66667","28,6","0,5","ND","ND","ND","ND"],
    [9074,"42284,70833","24,8","0,05","ND","ND","ND","ND"],
    [9075,"42284,75","21","ND","ND","ND","ND","ND"],
    [9076,"42284,79167","25,6","ND","ND","ND","ND","ND"],
    [9077,"42284,83333","12,3","ND","ND","ND","ND","ND"],
    [9078,"42284,875","14,4","0,16","ND","ND","ND","ND"],
    [9079,"42284,91667","67,6","1,15","ND","ND","ND","ND"],
    [9080,"42284,95833","46,1","1,02","ND","ND","ND","ND"],
    [9081,"42315","33,4","2,25","ND","ND","ND","ND"],
    [9082,"42315,04167","28,7","0,92","ND","ND","ND","ND"],
    [9083,"42315,08333","66,7","0,68","ND","ND","ND","ND"],
    [9084,"42315,125","9,6","ND","ND","ND","ND","ND"],
    [9085,"42315,16667","20,5","ND","ND","ND","ND","ND"],
    [9086,"42315,20833","14,5","ND","ND","ND","ND","ND"],
    [9087,"42315,25","18,5","ND","ND","ND","ND","ND"],
    [9088,"42315,29167","29,2","ND","ND","ND","ND","ND"],
    [9089,"42315,33333","34,7","ND","ND","ND","ND","ND"],
    [9090,"42315,375","48,7","1","ND","ND","ND","ND"],
    [9091,"42315,41667","73,3","1,62","ND","ND","ND","ND"],
    [9092,"42315,45833","84,9","2,57","ND","ND","ND","ND"],
    [9093,"42315,5","74,4","4,59","ND","ND","ND","ND"],
    [9094,"42315,54167","64,5","6,21","ND","ND","ND","ND"],
    [9095,"42315,58333","61,6","5,97","ND","ND","ND","ND"],
    [9096,"42315,625","7,2","1,15","ND","ND","ND","ND"],
    [9097,"42315,66667","11","0,52","ND","ND","ND","ND"],
    [9098,"42315,70833","11,6","ND","ND","ND","ND","ND"],
    [9099,"42315,75","8,3","ND","ND","ND","ND","ND"],
    [9100,"42315,79167","6,3","ND","ND","ND","ND","ND"],
    [9101,"42315,83333","5,3","ND","ND","ND","ND","ND"],
    [9102,"42315,875","7,5","ND","ND","ND","ND","ND"],
    [9103,"42315,91667","34,6","0,34","ND","ND","ND","ND"],
    [9104,"42315,95833","36,5","1,57","ND","ND","ND","ND"],
    [9105,"42345","26,1","ND","ND","ND","ND","ND"],
    [9106,"42345,04167","31,3","1,26","ND","ND","ND","ND"],
    [9107,"42345,08333","32,4","0,63","ND","ND","ND","ND"],
    [9108,"42345,125","25,9","1,39","ND","ND","ND","ND"],
    [9109,"42345,16667","20,9","1,36","ND","ND","ND","ND"],
    [9110,"42345,20833","23,2","1,44","ND","ND","ND","ND"],
    [9111,"42345,25","27,7","0,39","ND","ND","ND","ND"],
    [9112,"42345,29167","9,2","0,29","ND","ND","ND","ND"],
    [9113,"42345,33333","26,3","1,47","ND","ND","ND","ND"],
    [9114,"42345,375","28","8,2","ND","ND","ND","ND"],
    [9115,"42345,41667","33,3","12,58","ND","ND","ND","ND"],
    [9116,"42345,45833","21,4","5,69","ND","ND","ND","ND"],
    [9117,"42345,5","27,2","3,35","ND","ND","ND","ND"],
    [9118,"42345,54167","26,4","3,01","ND","ND","ND","ND"],
    [9119,"42345,58333","31,3","3,09","ND","ND","ND","ND"],
    [9120,"42345,625","21,8","1,47","ND","ND","ND","ND"],
    [9121,"42345,66667","11,8","ND","ND","ND","ND","ND"],
    [9122,"42345,70833","1,6","ND","ND","ND","ND","ND"],
    [9123,"42345,75","14,2","ND","ND","ND","ND","ND"],
    [9124,"42345,79167","8","ND","ND","ND","ND","ND"],
    [9125,"42345,83333","11,3","ND","ND","ND","ND","ND"],
    [9126,"42345,875","11,5","ND","ND","ND","ND","ND"],
    [9127,"42345,91667","6,8","ND","ND","ND","ND","ND"],
    [9128,"42345,95833","17,7","0,29","ND","ND","ND","ND"],
    [9129,"07/13/2015 00:00","36","0,05","ND","ND","ND","ND"],
    [9130,"07/13/2015 01:00","12,3","ND","ND","ND","ND","ND"],
    [9131,"07/13/2015 02:00","19,4","ND","ND","ND","ND","ND"],
    [9132,"07/13/2015 03:00","19,3","ND","ND","ND","ND","ND"],
    [9133,"07/13/2015 04:00","19,2","ND","ND","ND","ND","ND"],
    [9134,"07/13/2015 05:00","24,8","2,07","ND","ND","ND","ND"],
    [9135,"07/13/2015 06:00","33,2","0,63","ND","ND","ND","ND"],
    [9136,"07/13/2015 07:00","44,5","0,94","ND","ND","ND","ND"],
    [9137,"07/13/2015 08:00","39,8","11,16","ND","ND","ND","ND"],
    [9138,"07/13/2015 09:00","31,5","16,17","ND","ND","ND","ND"],
    [9139,"07/13/2015 10:00","39,8","11,27","ND","ND","ND","ND"],
    [9140,"07/13/2015 11:00","26,3","8,25","ND","ND","ND","ND"],
    [9141,"07/13/2015 12:00","26,4","5,5","ND","ND","ND","ND"],
    [9142,"07/13/2015 13:00","25,4","4,11","ND","ND","ND","ND"],
    [9143,"07/13/2015 14:00","30,5","3,01","ND","ND","ND","ND"],
    [9144,"07/13/2015 15:00","42,7","0,97","ND","ND","ND","ND"],
    [9145,"07/13/2015 16:00","13,9","0,03","ND","ND","ND","ND"],
    [9146,"07/13/2015 17:00","23","ND","ND","ND","ND","ND"],
    [9147,"07/13/2015 18:00","21,4","ND","ND","ND","ND","ND"],
    [9148,"07/13/2015 19:00","17,5","ND","ND","ND","ND","ND"],
    [9149,"07/13/2015 20:00","14,2","ND","ND","ND","ND","ND"],
    [9150,"07/13/2015 21:00","18,3","ND","ND","ND","ND","ND"],
    [9151,"07/13/2015 22:00","51,5","0,58","ND","ND","ND","ND"],
    [9152,"07/13/2015 23:00","25,1","0,37","ND","ND","ND","ND"],
    [9153,"07/14/2015 00:00","42,1","1,23","ND","ND","ND","ND"],
    [9154,"07/14/2015 01:00","70","1,1","ND","ND","ND","ND"],
    [9155,"07/14/2015 02:00","51,9","1,89","ND","ND","ND","ND"],
    [9156,"07/14/2015 03:00","40,6","1,81","ND","ND","ND","ND"],
    [9157,"07/14/2015 04:00","25","0,66","ND","ND","ND","ND"],
    [9158,"07/14/2015 05:00","41","7,39","ND","ND","ND","ND"],
    [9159,"07/14/2015 06:00","57,3","6,08","ND","ND","ND","ND"],
    [9160,"07/14/2015 07:00","80,9","6,66","ND","ND","ND","ND"],
    [9161,"07/14/2015 08:00","97,8","8,31","ND","ND","ND","ND"],
    [9162,"07/14/2015 09:00","95,3","8,54","ND","ND","ND","ND"],
    [9163,"07/14/2015 10:00","55,2","9,07","ND","ND","ND","ND"],
    [9164,"07/14/2015 11:00","20,4","11,11","ND","ND","ND","ND"],
    [9165,"07/14/2015 12:00","33,9","9,41","ND","ND","ND","ND"],
    [9166,"07/14/2015 13:00","37,6","6,47","ND","ND","ND","ND"],
    [9167,"07/14/2015 14:00","44,8","5,19","ND","ND","ND","ND"],
    [9168,"07/14/2015 15:00","49,6","ND","ND","ND","ND","ND"],
    [9169,"07/14/2015 16:00","ND","6,52","ND","ND","ND","ND"],
    [9170,"07/14/2015 17:00","ND","5,16","ND","ND","ND","ND"],
    [9171,"07/14/2015 18:00","ND","1,86","ND","ND","ND","ND"],
    [9172,"07/14/2015 19:00","ND","1,7","ND","ND","ND","ND"],
    [9173,"07/14/2015 20:00","23,9","1,21","ND","ND","ND","ND"],
    [9174,"07/14/2015 21:00","41,5","1,39","ND","ND","ND","ND"],
    [9175,"07/14/2015 22:00","73,8","3,12","ND","ND","ND","ND"],
    [9176,"07/14/2015 23:00","61,9","1,99","ND","ND","ND","ND"],
    [9177,"07/15/2015 00:00","60,7","3,46","ND","ND","ND","ND"],
    [9178,"07/15/2015 01:00","46,3","1,02","ND","ND","ND","ND"],
    [9179,"07/15/2015 02:00","30,2","1,1","ND","ND","ND","ND"],
    [9180,"07/15/2015 03:00","37,7","1,49","ND","ND","ND","ND"],
    [9181,"07/15/2015 04:00","53,4","2,41","ND","ND","ND","ND"],
    [9182,"07/15/2015 05:00","35,6","1,52","ND","ND","ND","ND"],
    [9183,"07/15/2015 06:00","64,2","1,78","ND","ND","ND","ND"],
    [9184,"07/15/2015 07:00","81,4","3,85","ND","ND","ND","ND"],
    [9185,"07/15/2015 08:00","119,4","14,75","ND","ND","ND","ND"],
    [9186,"07/15/2015 09:00","123,6","34,9","ND","ND","ND","ND"],
    [9187,"07/15/2015 10:00","107,3","46,06","ND","ND","ND","ND"],
    [9188,"07/15/2015 11:00","95,8","34,61","ND","ND","ND","ND"],
    [9189,"07/15/2015 12:00","75,3","14,04","ND","ND","ND","ND"],
    [9190,"07/15/2015 13:00","75,5","12,11","ND","ND","ND","ND"],
    [9191,"07/15/2015 14:00","68,1","9,28","ND","ND","ND","ND"],
    [9192,"07/15/2015 15:00","45,6","5,27","ND","ND","ND","ND"],
    [9193,"07/15/2015 16:00","18,2","0,92","ND","ND","ND","ND"],
    [9194,"07/15/2015 17:00","14,8","0,81","ND","ND","ND","ND"],
    [9195,"07/15/2015 18:00","23,5","0,94","ND","ND","ND","ND"],
    [9196,"07/15/2015 19:00","13","0,84","ND","ND","ND","ND"],
    [9197,"07/15/2015 20:00","7,3","0,63","ND","ND","ND","ND"],
    [9198,"07/15/2015 21:00","16,2","0,66","ND","ND","ND","ND"],
    [9199,"07/15/2015 22:00","21,9","1,52","ND","ND","ND","ND"],
    [9200,"07/15/2015 23:00","50,8","2,12","ND","ND","ND","ND"],
    [9201,"07/16/2015 00:00","34,6","1,68","ND","ND","ND","ND"],
    [9202,"07/16/2015 01:00","61,9","4,77","ND","ND","ND","ND"],
    [9203,"07/16/2015 02:00","62","8,31","ND","ND","ND","ND"],
    [9204,"07/16/2015 03:00","56,6","7,78","ND","ND","ND","ND"],
    [9205,"07/16/2015 04:00","56,6","4,01","ND","ND","ND","ND"],
    [9206,"07/16/2015 05:00","43,7","7,23","ND","ND","ND","ND"],
    [9207,"07/16/2015 06:00","45,3","9,3","ND","ND","ND","ND"],
    [9208,"07/16/2015 07:00","64,9","7","ND","ND","ND","ND"],
    [9209,"07/16/2015 08:00","69,3","8,07","ND","ND","ND","ND"],
    [9210,"07/16/2015 09:00","76,8","11,92","ND","ND","ND","ND"],
    [9211,"07/16/2015 10:00","66,1","12,45","ND","ND","ND","ND"],
    [9212,"07/16/2015 11:00","17,5","5,92","ND","ND","ND","ND"],
    [9213,"07/16/2015 12:00","21,2","ND","ND","ND","ND","ND"],
    [9214,"07/16/2015 13:00","43,6","3,14","ND","ND","ND","ND"],
    [9215,"07/16/2015 14:00","23,5","3,38","ND","ND","ND","ND"],
    [9216,"07/16/2015 15:00","7,9","2,62","ND","ND","ND","ND"],
    [9217,"07/16/2015 16:00","19,2","2,41","ND","ND","ND","ND"],
    [9218,"07/16/2015 17:00","45,3","1,26","ND","ND","ND","ND"],
    [9219,"07/16/2015 18:00","22,9","1","ND","ND","ND","ND"],
    [9220,"07/16/2015 19:00","19,2","0,55","ND","ND","ND","ND"],
    [9221,"07/16/2015 20:00","19,4","0,5","ND","ND","ND","ND"],
    [9222,"07/16/2015 21:00","18,2","1,18","ND","ND","ND","ND"],
    [9223,"07/16/2015 22:00","35,1","1,52","ND","ND","ND","ND"],
    [9224,"07/16/2015 23:00","69,7","2,88","ND","ND","ND","ND"],
    [9225,"07/17/2015 00:00","56,8","3,43","ND","ND","ND","ND"],
    [9226,"07/17/2015 01:00","49,6","2,44","ND","ND","ND","ND"],
    [9227,"07/17/2015 02:00","31,9","1,62","ND","ND","ND","ND"],
    [9228,"07/17/2015 03:00","33,4","1,39","ND","ND","ND","ND"],
    [9229,"07/17/2015 04:00","25","1,47","ND","ND","ND","ND"],
    [9230,"07/17/2015 05:00","33","2,33","ND","ND","ND","ND"],
    [9231,"07/17/2015 06:00","46,8","3,38","ND","ND","ND","ND"],
    [9232,"07/17/2015 07:00","82","2,96","ND","ND","ND","ND"],
    [9233,"07/17/2015 08:00","72,2","5,82","ND","ND","ND","ND"],
    [9234,"07/17/2015 09:00","70,3","8,04","ND","ND","ND","ND"],
    [9235,"07/17/2015 10:00","47,6","9,54","ND","ND","ND","ND"],
    [9236,"07/17/2015 11:00","44,5","10,01","ND","ND","ND","ND"],
    [9237,"07/17/2015 12:00","36,6","8,96","ND","ND","ND","ND"],
    [9238,"07/17/2015 13:00","21,3","6,5","ND","ND","ND","ND"],
    [9239,"07/17/2015 14:00","26,5","4,72","ND","ND","ND","ND"],
    [9240,"07/17/2015 15:00","48,8","2,99","ND","ND","ND","ND"],
    [9241,"07/17/2015 16:00","28,2","1,65","ND","ND","ND","ND"],
    [9242,"07/17/2015 17:00","29,7","1,73","ND","ND","ND","ND"],
    [9243,"07/17/2015 18:00","35,4","1,21","ND","ND","ND","ND"],
    [9244,"07/17/2015 19:00","25,3","0,97","ND","ND","ND","ND"],
    [9245,"07/17/2015 20:00","23,8","0,71","ND","ND","ND","ND"],
    [9246,"07/17/2015 21:00","16,9","1,07","ND","ND","ND","ND"],
    [9247,"07/17/2015 22:00","30,6","1,55","ND","ND","ND","ND"],
    [9248,"07/17/2015 23:00","24,3","0,97","ND","ND","ND","ND"],
    [9249,"07/18/2015 00:00","58,1","3,14","ND","ND","ND","ND"],
    [9250,"07/18/2015 01:00","65,9","2,44","ND","ND","ND","ND"],
    [9251,"07/18/2015 02:00","65,9","1,76","ND","ND","ND","ND"],
    [9252,"07/18/2015 03:00","36,7","1,78","ND","ND","ND","ND"],
    [9253,"07/18/2015 04:00","33,8","1,55","ND","ND","ND","ND"],
    [9254,"07/18/2015 05:00","36","1,44","ND","ND","ND","ND"],
    [9255,"07/18/2015 06:00","41,1","1,52","ND","ND","ND","ND"],
    [9256,"07/18/2015 07:00","54,4","2,2","ND","ND","ND","ND"],
    [9257,"07/18/2015 08:00","73,3","4,85","ND","ND","ND","ND"],
    [9258,"07/18/2015 09:00","62,7","9,09","ND","ND","ND","ND"],
    [9259,"07/18/2015 10:00","56,6","16,93","ND","ND","ND","ND"],
    [9260,"07/18/2015 11:00","83","15,09","ND","ND","ND","ND"],
    [9261,"07/18/2015 12:00","82,1","15,46","ND","ND","ND","ND"],
    [9262,"07/18/2015 13:00","74,4","16,95","ND","ND","ND","ND"],
    [9263,"07/18/2015 14:00","81","16,3","ND","ND","ND","ND"],
    [9264,"07/18/2015 15:00","91,9","12","ND","ND","ND","ND"],
    [9265,"07/18/2015 16:00","33,7","5,45","ND","ND","ND","ND"],
    [9266,"07/18/2015 17:00","15,5","0,76","ND","ND","ND","ND"],
    [9267,"07/18/2015 18:00","22,4","0,94","ND","ND","ND","ND"],
    [9268,"07/18/2015 19:00","26,8","0,73","ND","ND","ND","ND"],
    [9269,"07/18/2015 20:00","17,5","0,37","ND","ND","ND","ND"],
    [9270,"07/18/2015 21:00","15,9","0,68","ND","ND","ND","ND"],
    [9271,"07/18/2015 22:00","40,1","1,83","ND","ND","ND","ND"],
    [9272,"07/18/2015 23:00","5,9","0,52","ND","ND","ND","ND"],
    [9273,"07/19/2015 00:00","21,8","1,1","ND","ND","ND","ND"],
    [9274,"07/19/2015 01:00","52,1","3,35","ND","ND","ND","ND"],
    [9275,"07/19/2015 02:00","49,1","4,32","ND","ND","ND","ND"],
    [9276,"07/19/2015 03:00","43,4","4,22","ND","ND","ND","ND"],
    [9277,"07/19/2015 04:00","47,3","2,86","ND","ND","ND","ND"],
    [9278,"07/19/2015 05:00","49,4","3,38","ND","ND","ND","ND"],
    [9279,"07/19/2015 06:00","36,1","2,67","ND","ND","ND","ND"],
    [9280,"07/19/2015 07:00","50,3","1,65","ND","ND","ND","ND"],
    [9281,"07/19/2015 08:00","56","5,4","ND","ND","ND","ND"],
    [9282,"07/19/2015 09:00","38,9","9,54","ND","ND","ND","ND"],
    [9283,"07/19/2015 10:00","36,4","9,33","ND","ND","ND","ND"],
    [9284,"07/19/2015 11:00","31,2","8,73","ND","ND","ND","ND"],
    [9285,"07/19/2015 12:00","25,6","6,16","ND","ND","ND","ND"],
    [9286,"07/19/2015 13:00","45,3","5,53","ND","ND","ND","ND"],
    [9287,"07/19/2015 14:00","43,5","4,61","ND","ND","ND","ND"],
    [9288,"07/19/2015 15:00","11,5","1,05","ND","ND","ND","ND"],
    [9289,"07/19/2015 16:00","10,7","0,45","ND","ND","ND","ND"],
    [9290,"07/19/2015 17:00","19,9","0,5","ND","ND","ND","ND"],
    [9291,"07/19/2015 18:00","17,6","0,42","ND","ND","ND","ND"],
    [9292,"07/19/2015 19:00","19","0,34","ND","ND","ND","ND"],
    [9293,"07/19/2015 20:00","10,6","0,63","ND","ND","ND","ND"],
    [9294,"07/19/2015 21:00","10,6","1,23","ND","ND","ND","ND"],
    [9295,"07/19/2015 22:00","32,7","1,36","ND","ND","ND","ND"],
    [9296,"07/19/2015 23:00","20,4","1,41","ND","ND","ND","ND"],
    [9297,"07/20/2015 00:00","31,9","1,47","ND","ND","ND","ND"],
    [9298,"07/20/2015 01:00","28,1","1,39","ND","ND","ND","ND"],
    [9299,"07/20/2015 02:00","23,8","1,02","ND","ND","ND","ND"],
    [9300,"07/20/2015 03:00","13,9","0,45","ND","ND","ND","ND"],
    [9301,"07/20/2015 04:00","17","0,1","ND","ND","ND","ND"],
    [9302,"07/20/2015 05:00","4,1","0,05","ND","ND","ND","ND"],
    [9303,"07/20/2015 06:00","14","ND","ND","ND","ND","ND"],
    [9304,"07/20/2015 07:00","10,1","0,34","ND","ND","ND","ND"],
    [9305,"07/20/2015 08:00","16,9","10,01","ND","ND","ND","ND"],
    [9306,"07/20/2015 09:00","19,2","18,21","ND","ND","ND","ND"],
    [9307,"07/20/2015 10:00","14,7","18,37","ND","ND","ND","ND"],
    [9308,"07/20/2015 11:00","18,4","11,71","ND","ND","ND","ND"],
    [9309,"07/20/2015 12:00","12,1","3,67","ND","ND","ND","ND"],
    [9310,"07/20/2015 13:00","29,8","2,07","ND","ND","ND","ND"],
    [9311,"07/20/2015 14:00","23,6","1,57","ND","ND","ND","ND"],
    [9312,"07/20/2015 15:00","21,9","1,52","ND","ND","ND","ND"],
    [9313,"07/20/2015 16:00","ND","1,39","ND","ND","ND","ND"],
    [9314,"07/20/2015 17:00","9,1","0,63","ND","ND","ND","ND"],
    [9315,"07/20/2015 18:00","7,2","0,42","ND","ND","ND","ND"],
    [9316,"07/20/2015 19:00","14,3","0,55","ND","ND","ND","ND"],
    [9317,"07/20/2015 20:00","20,8","0,92","ND","ND","ND","ND"],
    [9318,"07/20/2015 21:00","36,7","1,76","ND","ND","ND","ND"],
    [9319,"07/20/2015 22:00","23,1","1,28","ND","ND","ND","ND"],
    [9320,"07/20/2015 23:00","27,2","1,52","ND","ND","ND","ND"],
    [9321,"07/21/2015 00:00","43","3,04","ND","ND","ND","ND"],
    [9322,"07/21/2015 01:00","11,8","1,13","ND","ND","ND","ND"],
    [9323,"07/21/2015 02:00","16,3","1,05","ND","ND","ND","ND"],
    [9324,"07/21/2015 03:00","13,1","0,79","ND","ND","ND","ND"],
    [9325,"07/21/2015 04:00","12,3","0,86","ND","ND","ND","ND"],
    [9326,"07/21/2015 05:00","14,2","0,47","ND","ND","ND","ND"],
    [9327,"07/21/2015 06:00","27,3","1,41","ND","ND","ND","ND"],
    [9328,"07/21/2015 07:00","37,6","1,47","ND","ND","ND","ND"],
    [9329,"07/21/2015 08:00","37,4","4,74","ND","ND","ND","ND"],
    [9330,"07/21/2015 09:00","27","6,31","ND","ND","ND","ND"],
    [9331,"07/21/2015 10:00","27","3,54","ND","ND","ND","ND"],
    [9332,"07/21/2015 11:00","35,8","2,54","ND","ND","ND","ND"],
    [9333,"07/21/2015 12:00","26,1","2,04","ND","ND","ND","ND"],
    [9334,"07/21/2015 13:00","36,8","1,76","ND","ND","ND","ND"],
    [9335,"07/21/2015 14:00","33,3","1,55","ND","ND","ND","ND"],
    [9336,"07/21/2015 15:00","40,3","1,83","ND","ND","ND","ND"],
    [9337,"07/21/2015 16:00","39,4","1,57","ND","ND","ND","ND"],
    [9338,"07/21/2015 17:00","13,9","0,6","ND","ND","ND","ND"],
    [9339,"07/21/2015 18:00","12","0,47","ND","ND","ND","ND"],
    [9340,"07/21/2015 19:00","11,5","0,52","ND","ND","ND","ND"],
    [9341,"07/21/2015 20:00","10,5","0,5","ND","ND","ND","ND"],
    [9342,"07/21/2015 21:00","25,6","1,39","ND","ND","ND","ND"],
    [9343,"07/21/2015 22:00","32,5","0,92","ND","ND","ND","ND"],
    [9344,"07/21/2015 23:00","55,9","2,36","ND","ND","ND","ND"],
    [9345,"07/22/2015 00:00","16,3","0,03","ND","ND","ND","ND"],
    [9346,"07/22/2015 01:00","43","1,55","ND","ND","ND","ND"],
    [9347,"07/22/2015 02:00","26,7","2,1","ND","ND","ND","ND"],
    [9348,"07/22/2015 03:00","49,2","2,7","ND","ND","ND","ND"],
    [9349,"07/22/2015 04:00","31,9","1,65","ND","ND","ND","ND"],
    [9350,"07/22/2015 05:00","33,3","1,68","ND","ND","ND","ND"],
    [9351,"07/22/2015 06:00","39,8","1,91","ND","ND","ND","ND"],
    [9352,"07/22/2015 07:00","39,7","2,7","ND","ND","ND","ND"],
    [9353,"07/22/2015 08:00","40,2","3,77","ND","ND","ND","ND"],
    [9354,"07/22/2015 09:00","36,5","6,55","ND","ND","ND","ND"],
    [9355,"07/22/2015 10:00","32,9","6,84","ND","ND","ND","ND"],
    [9356,"07/22/2015 11:00","36","4,32","ND","ND","ND","ND"],
    [9357,"07/22/2015 12:00","35,4","3,62","ND","ND","ND","ND"],
    [9358,"07/22/2015 13:00","28,7","2,46","ND","ND","ND","ND"],
    [9359,"07/22/2015 14:00","28,8","1,57","ND","ND","ND","ND"],
    [9360,"07/22/2015 15:00","49","1,68","ND","ND","ND","ND"],
    [9361,"07/22/2015 16:00","10,4","0,24","ND","ND","ND","ND"],
    [9362,"07/22/2015 17:00","11,1","ND","ND","ND","ND","ND"],
    [9363,"07/22/2015 18:00","9,3","ND","ND","ND","ND","ND"],
    [9364,"07/22/2015 19:00","10,1","ND","ND","ND","ND","ND"],
    [9365,"07/22/2015 20:00","19","ND","ND","ND","ND","ND"],
    [9366,"07/22/2015 21:00","27,6","ND","ND","ND","ND","ND"],
    [9367,"07/22/2015 22:00","33,6","0,86","ND","ND","ND","ND"],
    [9368,"07/22/2015 23:00","21,9","0,05","ND","ND","ND","ND"],
    [9369,"07/23/2015 00:00","44,8","0,84","ND","ND","ND","ND"],
    [9370,"07/23/2015 01:00","18,5","ND","ND","ND","ND","ND"],
    [9371,"07/23/2015 02:00","18,1","ND","ND","ND","ND","ND"],
    [9372,"07/23/2015 03:00","12,4","ND","ND","ND","ND","ND"],
    [9373,"07/23/2015 04:00","31","0,39","ND","ND","ND","ND"],
    [9374,"07/23/2015 05:00","23,9","0,47","ND","ND","ND","ND"],
    [9375,"07/23/2015 06:00","25,6","0,42","ND","ND","ND","ND"],
    [9376,"07/23/2015 07:00","43,5","1,34","ND","ND","ND","ND"],
    [9377,"07/23/2015 08:00","47,5","3,54","ND","ND","ND","ND"],
    [9378,"07/23/2015 09:00","43,7","11,06","ND","ND","ND","ND"],
    [9379,"07/23/2015 10:00","56,2","8,49","ND","ND","ND","ND"],
    [9380,"07/23/2015 11:00","42,1","2,62","ND","ND","ND","ND"],
    [9381,"07/23/2015 12:00","ND","1,86","ND","ND","ND","ND"],
    [9382,"07/23/2015 13:00","ND","1,34","ND","ND","ND","ND"],
    [9383,"07/23/2015 14:00","ND","0,94","ND","ND","ND","ND"],
    [9384,"07/23/2015 15:00","31,8","0,81","ND","ND","ND","ND"],
    [9385,"07/23/2015 16:00","16,7","ND","ND","ND","ND","ND"],
    [9386,"07/23/2015 17:00","28,5","0,24","ND","ND","ND","ND"],
    [9387,"07/23/2015 18:00","16,2","0,08","ND","ND","ND","ND"],
    [9388,"07/23/2015 19:00","21,6","ND","ND","ND","ND","ND"],
    [9389,"07/23/2015 20:00","15,3","ND","ND","ND","ND","ND"],
    [9390,"07/23/2015 21:00","14,4","0,21","ND","ND","ND","ND"],
    [9391,"07/23/2015 22:00","33,2","0,71","ND","ND","ND","ND"],
    [9392,"07/23/2015 23:00","43,4","0,79","ND","ND","ND","ND"],
    [9393,"07/24/2015 00:00","61,9","1,94","ND","ND","ND","ND"],
    [9394,"07/24/2015 01:00","35,3","0,42","ND","ND","ND","ND"],
    [9395,"07/24/2015 02:00","27,7","0,79","ND","ND","ND","ND"],
    [9396,"07/24/2015 03:00","24,5","ND","ND","ND","ND","ND"],
    [9397,"07/24/2015 04:00","21","ND","ND","ND","ND","ND"],
    [9398,"07/24/2015 05:00","22,7","ND","ND","ND","ND","ND"],
    [9399,"07/24/2015 06:00","38,8","0,08","ND","ND","ND","ND"],
    [9400,"07/24/2015 07:00","69,8","1","ND","ND","ND","ND"],
    [9401,"07/24/2015 08:00","85,8","1,91","ND","ND","ND","ND"],
    [9402,"07/24/2015 09:00","76,3","5,69","ND","ND","ND","ND"],
    [9403,"07/24/2015 10:00","101,5","8,7","ND","ND","ND","ND"],
    [9404,"07/24/2015 11:00","76,3","8,15","ND","ND","ND","ND"],
    [9405,"07/24/2015 12:00","56","9,04","ND","ND","ND","ND"],
    [9406,"07/24/2015 13:00","64,1","10,8","ND","ND","ND","ND"],
    [9407,"07/24/2015 14:00","64,6","11,79","ND","ND","ND","ND"],
    [9408,"07/24/2015 15:00","56,2","9,09","ND","ND","ND","ND"],
    [9409,"07/24/2015 16:00","54,4","5,61","ND","ND","ND","ND"],
    [9410,"07/24/2015 17:00","40,5","2,67","ND","ND","ND","ND"],
    [9411,"07/24/2015 18:00","44,6","2,65","ND","ND","ND","ND"],
    [9412,"07/24/2015 19:00","95,9","1,7","ND","ND","ND","ND"],
    [9413,"07/24/2015 20:00","64","1,18","ND","ND","ND","ND"],
    [9414,"07/24/2015 21:00","50,2","1,07","ND","ND","ND","ND"],
    [9415,"07/24/2015 22:00","60,5","2,17","ND","ND","ND","ND"],
    [9416,"07/24/2015 23:00","55,4","2,46","ND","ND","ND","ND"],
    [9417,"07/25/2015 00:00","58,7","1,94","ND","ND","ND","ND"],
    [9418,"07/25/2015 01:00","34,6","1,28","ND","ND","ND","ND"],
    [9419,"07/25/2015 02:00","27,9","1,39","ND","ND","ND","ND"],
    [9420,"07/25/2015 03:00","26,8","1,23","ND","ND","ND","ND"],
    [9421,"07/25/2015 04:00","27,6","1,07","ND","ND","ND","ND"],
    [9422,"07/25/2015 05:00","28,3","0,81","ND","ND","ND","ND"],
    [9423,"07/25/2015 06:00","50,4","1,15","ND","ND","ND","ND"],
    [9424,"07/25/2015 07:00","62,2","1,65","ND","ND","ND","ND"],
    [9425,"07/25/2015 08:00","73,1","2,25","ND","ND","ND","ND"],
    [9426,"07/25/2015 09:00","63,9","2,31","ND","ND","ND","ND"],
    [9427,"07/25/2015 10:00","67,6","3,3","ND","ND","ND","ND"],
    [9428,"07/25/2015 11:00","47,7","3,69","ND","ND","ND","ND"],
    [9429,"07/25/2015 12:00","64,2","4,22","ND","ND","ND","ND"],
    [9430,"07/25/2015 13:00","60,1","5,9","ND","ND","ND","ND"],
    [9431,"07/25/2015 14:00","31","3,04","ND","ND","ND","ND"],
    [9432,"07/25/2015 15:00","22,6","2,36","ND","ND","ND","ND"],
    [9433,"07/25/2015 16:00","17,9","2,31","ND","ND","ND","ND"],
    [9434,"07/25/2015 17:00","24,2","1,97","ND","ND","ND","ND"],
    [9435,"07/25/2015 18:00","32,6","0,45","ND","ND","ND","ND"],
    [9436,"07/25/2015 19:00","56,3","2,23","ND","ND","ND","ND"],
    [9437,"07/25/2015 20:00","60,4","3,12","ND","ND","ND","ND"],
    [9438,"07/25/2015 21:00","62,8","4,77","ND","ND","ND","ND"],
    [9439,"07/25/2015 22:00","44,6","2,15","ND","ND","ND","ND"],
    [9440,"07/25/2015 23:00","46,3","1,23","ND","ND","ND","ND"],
    [9441,"07/26/2015 00:00","43,7","1,47","ND","ND","ND","ND"],
    [9442,"07/26/2015 01:00","44","2,02","ND","ND","ND","ND"],
    [9443,"07/26/2015 02:00","23,3","0,45","ND","ND","ND","ND"],
    [9444,"07/26/2015 03:00","26,5","0,39","ND","ND","ND","ND"],
    [9445,"07/26/2015 04:00","29,3","0,24","ND","ND","ND","ND"],
    [9446,"07/26/2015 05:00","25","0,24","ND","ND","ND","ND"],
    [9447,"07/26/2015 06:00","23,2","0,37","ND","ND","ND","ND"],
    [9448,"07/26/2015 07:00","39","0,47","ND","ND","ND","ND"],
    [9449,"07/26/2015 08:00","72,6","2,1","ND","ND","ND","ND"],
    [9450,"07/26/2015 09:00","87,1","4,59","ND","ND","ND","ND"],
    [9451,"07/26/2015 10:00","50,2","4,43","ND","ND","ND","ND"],
    [9452,"07/26/2015 11:00","32,1","5,82","ND","ND","ND","ND"],
    [9453,"07/26/2015 12:00","28,3","4,98","ND","ND","ND","ND"],
    [9454,"07/26/2015 13:00","48,2","6,92","ND","ND","ND","ND"],
    [9455,"07/26/2015 14:00","37,6","6,11","ND","ND","ND","ND"],
    [9456,"07/26/2015 15:00","38,4","6,05","ND","ND","ND","ND"],
    [9457,"07/26/2015 16:00","27,8","2,04","ND","ND","ND","ND"],
    [9458,"07/26/2015 17:00","21,8","0,86","ND","ND","ND","ND"],
    [9459,"07/26/2015 18:00","27,2","0,66","ND","ND","ND","ND"],
    [9460,"07/26/2015 19:00","25,7","1,07","ND","ND","ND","ND"],
    [9461,"07/26/2015 20:00","23,4","1,1","ND","ND","ND","ND"],
    [9462,"07/26/2015 21:00","19,1","0,42","ND","ND","ND","ND"],
    [9463,"07/26/2015 22:00","47,4","1,23","ND","ND","ND","ND"],
    [9464,"07/26/2015 23:00","55,3","2,38","ND","ND","ND","ND"],
    [9465,"07/27/2015 00:00","54,8","0,58","ND","ND","ND","ND"],
    [9466,"07/27/2015 01:00","34,4","0,58","ND","ND","ND","ND"],
    [9467,"07/27/2015 02:00","42,5","0,52","ND","ND","ND","ND"],
    [9468,"07/27/2015 03:00","29,8","0,24","ND","ND","ND","ND"],
    [9469,"07/27/2015 04:00","29,1","0,1","ND","ND","ND","ND"],
    [9470,"07/27/2015 05:00","25,3","0,18","ND","ND","ND","ND"],
    [9471,"07/27/2015 06:00","79,5","0,42","ND","ND","ND","ND"],
    [9472,"07/27/2015 07:00","75,2","1,26","ND","ND","ND","ND"],
    [9473,"07/27/2015 08:00","76,7","19,13","ND","ND","ND","ND"],
    [9474,"07/27/2015 09:00","83,6","20,54","ND","ND","ND","ND"],
    [9475,"07/27/2015 10:00","69,4","12,08","ND","ND","ND","ND"],
    [9476,"07/27/2015 11:00","51,3","10,3","ND","ND","ND","ND"],
    [9477,"07/27/2015 12:00","58,7","8,52","ND","ND","ND","ND"],
    [9478,"07/27/2015 13:00","53,9","6,52","ND","ND","ND","ND"],
    [9479,"07/27/2015 14:00","57,3","5,03","ND","ND","ND","ND"],
    [9480,"07/27/2015 15:00","47,6","3,62","ND","ND","ND","ND"],
    [9481,"07/27/2015 16:00","40","3,48","ND","ND","ND","ND"],
    [9482,"07/27/2015 17:00","35,8","1,91","ND","ND","ND","ND"],
    [9483,"07/27/2015 18:00","33,2","1","ND","ND","ND","ND"],
    [9484,"07/27/2015 19:00","29,6","0,86","ND","ND","ND","ND"],
    [9485,"07/27/2015 20:00","39,3","1,23","ND","ND","ND","ND"],
    [9486,"07/27/2015 21:00","23","0,29","ND","ND","ND","ND"],
    [9487,"07/27/2015 22:00","53,5","0,76","ND","ND","ND","ND"],
    [9488,"07/27/2015 23:00","77,3","2,02","ND","ND","ND","ND"],
    [9489,"07/28/2015 00:00","39,2","2,59","ND","ND","ND","ND"],
    [9490,"07/28/2015 01:00","42,8","0,52","ND","ND","ND","ND"],
    [9491,"07/28/2015 02:00","36,9","0,5","ND","ND","ND","ND"],
    [9492,"07/28/2015 03:00","33,6","0,45","ND","ND","ND","ND"],
    [9493,"07/28/2015 04:00","48","1,15","ND","ND","ND","ND"],
    [9494,"07/28/2015 05:00","61","1,05","ND","ND","ND","ND"],
    [9495,"07/28/2015 06:00","62,1","0,79","ND","ND","ND","ND"],
    [9496,"07/28/2015 07:00","83","1","ND","ND","ND","ND"],
    [9497,"07/28/2015 08:00","76,1","5,37","ND","ND","ND","ND"],
    [9498,"07/28/2015 09:00","55,7","18","ND","ND","ND","ND"],
    [9499,"07/28/2015 10:00","51,4","17,48","ND","ND","ND","ND"],
    [9500,"07/28/2015 11:00","43,5","9,59","ND","ND","ND","ND"],
    [9501,"07/28/2015 12:00","36,1","5,82","ND","ND","ND","ND"],
    [9502,"07/28/2015 13:00","44,5","5,24","ND","ND","ND","ND"],
    [9503,"07/28/2015 14:00","43","3,85","ND","ND","ND","ND"],
    [9504,"07/28/2015 15:00","44,5","1,62","ND","ND","ND","ND"],
    [9505,"07/28/2015 16:00","31,9","0,39","ND","ND","ND","ND"],
    [9506,"07/28/2015 17:00","19,4","ND","ND","ND","ND","ND"],
    [9507,"07/28/2015 18:00","18,5","ND","ND","ND","ND","ND"],
    [9508,"07/28/2015 19:00","19,1","ND","ND","ND","ND","ND"],
    [9509,"07/28/2015 20:00","15,2","ND","ND","ND","ND","ND"],
    [9510,"07/28/2015 21:00","15,1","0,03","ND","ND","ND","ND"],
    [9511,"07/28/2015 22:00","38,5","0,52","ND","ND","ND","ND"],
    [9512,"07/28/2015 23:00","44,4","1,28","ND","ND","ND","ND"],
    [9513,"07/29/2015 00:00","36,6","1,52","ND","ND","ND","ND"],
    [9514,"07/29/2015 01:00","35,5","0,73","ND","ND","ND","ND"],
    [9515,"07/29/2015 02:00","22,4","0,37","ND","ND","ND","ND"],
    [9516,"07/29/2015 03:00","23,6","0,26","ND","ND","ND","ND"],
    [9517,"07/29/2015 04:00","23,7","ND","ND","ND","ND","ND"],
    [9518,"07/29/2015 05:00","18,4","ND","ND","ND","ND","ND"],
    [9519,"07/29/2015 06:00","25,9","ND","ND","ND","ND","ND"],
    [9520,"07/29/2015 07:00","41,2","0,13","ND","ND","ND","ND"],
    [9521,"07/29/2015 08:00","45,9","0,73","ND","ND","ND","ND"],
    [9522,"07/29/2015 09:00","34,9","1,55","ND","ND","ND","ND"],
    [9523,"07/29/2015 10:00","51","3,2","ND","ND","ND","ND"],
    [9524,"07/29/2015 11:00","43,1","ND","ND","ND","ND","ND"],
    [9525,"07/29/2015 12:00","44,2","93,86","ND","ND","ND","ND"],
    [9526,"07/29/2015 13:00","47,9","6,18","ND","ND","ND","ND"],
    [9527,"07/29/2015 14:00","42,7","5,11","ND","ND","ND","ND"],
    [9528,"07/29/2015 15:00","64,5","4,24","ND","ND","ND","ND"],
    [9529,"07/29/2015 16:00","49,1","3,54","ND","ND","ND","ND"],
    [9530,"07/29/2015 17:00","38,7","3,51","ND","ND","ND","ND"],
    [9531,"07/29/2015 18:00","20,1","1,41","ND","ND","ND","ND"],
    [9532,"07/29/2015 19:00","20,2","1,28","ND","ND","ND","ND"],
    [9533,"07/29/2015 20:00","16,1","1,13","ND","ND","ND","ND"],
    [9534,"07/29/2015 21:00","15","0,63","ND","ND","ND","ND"],
    [9535,"07/29/2015 22:00","19,7","0,94","ND","ND","ND","ND"],
    [9536,"07/29/2015 23:00","46,2","1,97","ND","ND","ND","ND"],
    [9537,"07/30/2015 00:00","34,8","0,94","ND","ND","ND","ND"],
    [9538,"07/30/2015 01:00","37,4","1,55","ND","ND","ND","ND"],
    [9539,"07/30/2015 02:00","26,5","1,02","ND","ND","ND","ND"],
    [9540,"07/30/2015 03:00","20,4","0,63","ND","ND","ND","ND"],
    [9541,"07/30/2015 04:00","27,1","1","ND","ND","ND","ND"],
    [9542,"07/30/2015 05:00","51,1","1,49","ND","ND","ND","ND"],
    [9543,"07/30/2015 06:00","100,5","1,62","ND","ND","ND","ND"],
    [9544,"07/30/2015 07:00","69,9","2,62","ND","ND","ND","ND"],
    [9545,"07/30/2015 08:00","59,5","4,8","ND","ND","ND","ND"],
    [9546,"07/30/2015 09:00","107,5","11,82","ND","ND","ND","ND"],
    [9547,"07/30/2015 10:00","80,8","33,91","ND","ND","ND","ND"],
    [9548,"07/30/2015 11:00","64,3","23,01","ND","ND","ND","ND"],
    [9549,"07/30/2015 12:00","61,1","18,39","ND","ND","ND","ND"],
    [9550,"07/30/2015 13:00","74,4","11,11","ND","ND","ND","ND"],
    [9551,"07/30/2015 14:00","74,4","9,72","ND","ND","ND","ND"],
    [9552,"07/30/2015 15:00","45,7","6,47","ND","ND","ND","ND"],
    [9553,"07/30/2015 16:00","29","1,57","ND","ND","ND","ND"],
    [9554,"07/30/2015 17:00","23,9","1,26","ND","ND","ND","ND"],
    [9555,"07/30/2015 18:00","29,1","1,39","ND","ND","ND","ND"],
    [9556,"07/30/2015 19:00","39,4","1,23","ND","ND","ND","ND"],
    [9557,"07/30/2015 20:00","20,6","0,94","ND","ND","ND","ND"],
    [9558,"07/30/2015 21:00","44,2","2,07","ND","ND","ND","ND"],
    [9559,"07/30/2015 22:00","60,5","2,36","ND","ND","ND","ND"],
    [9560,"07/30/2015 23:00","34,3","1,28","ND","ND","ND","ND"],
    [9561,"07/31/2015 00:00","55,3","2,28","ND","ND","ND","ND"],
    [9562,"07/31/2015 01:00","27,4","0,76","ND","ND","ND","ND"],
    [9563,"07/31/2015 02:00","21,7","0,68","ND","ND","ND","ND"],
    [9564,"07/31/2015 03:00","25,2","0,97","ND","ND","ND","ND"],
    [9565,"07/31/2015 04:00","24,1","0,92","ND","ND","ND","ND"],
    [9566,"07/31/2015 05:00","27,6","1,02","ND","ND","ND","ND"],
    [9567,"07/31/2015 06:00","40,9","1,18","ND","ND","ND","ND"],
    [9568,"07/31/2015 07:00","62","1,99","ND","ND","ND","ND"],
    [9569,"07/31/2015 08:00","52,1","3,88","ND","ND","ND","ND"],
    [9570,"07/31/2015 09:00","58","9,9","ND","ND","ND","ND"],
    [9571,"07/31/2015 10:00","63,9","10,66","ND","ND","ND","ND"],
    [9572,"07/31/2015 11:00","46,8","7,7","ND","ND","ND","ND"],
    [9573,"07/31/2015 12:00","51,9","8,62","ND","ND","ND","ND"],
    [9574,"07/31/2015 13:00","43,9","6,63","ND","ND","ND","ND"],
    [9575,"07/31/2015 14:00","54,6","5,84","ND","ND","ND","ND"],
    [9576,"07/31/2015 15:00","56,1","5,66","ND","ND","ND","ND"],
    [9577,"07/31/2015 16:00","27,2","1,86","ND","ND","ND","ND"],
    [9578,"07/31/2015 17:00","26,9","2,1","ND","ND","ND","ND"],
    [9579,"07/31/2015 18:00","33,9","2,96","ND","ND","ND","ND"],
    [9580,"07/31/2015 19:00","25,9","1,97","ND","ND","ND","ND"],
    [9581,"07/31/2015 20:00","25,1","1,81","ND","ND","ND","ND"],
    [9582,"07/31/2015 21:00","29,2","1,76","ND","ND","ND","ND"],
    [9583,"07/31/2015 22:00","29,8","1,78","ND","ND","ND","ND"],
    [9584,"07/31/2015 23:00","16,6","1,05","ND","ND","ND","ND"],
    [9585,"42012","53","2,25","ND","ND","ND","ND"],
    [9586,"42012,04167","49,2","2,28","ND","ND","ND","ND"],
    [9587,"42012,08333","56","2,44","ND","ND","ND","ND"],
    [9588,"42012,125","44,5","1,78","ND","ND","ND","ND"],
    [9589,"42012,16667","36,6","1,44","ND","ND","ND","ND"],
    [9590,"42012,20833","35,8","1,47","ND","ND","ND","ND"],
    [9591,"42012,25","36,9","1,36","ND","ND","ND","ND"],
    [9592,"42012,29167","45,9","1,73","ND","ND","ND","ND"],
    [9593,"42012,33333","56,8","3,2","ND","ND","ND","ND"],
    [9594,"42012,375","97,7","6,79","ND","ND","ND","ND"],
    [9595,"42012,41667","65,5","9,2","ND","ND","ND","ND"],
    [9596,"42012,45833","51,1","10,11","ND","ND","ND","ND"],
    [9597,"42012,5","70,6","9,49","ND","ND","ND","ND"],
    [9598,"42012,54167","56,8","8,99","ND","ND","ND","ND"],
    [9599,"42012,58333","62,7","7,62","ND","ND","ND","ND"],
    [9600,"42012,625","71,1","7,52","ND","ND","ND","ND"],
    [9601,"42012,66667","73,8","21,72","ND","ND","ND","ND"],
    [9602,"42012,70833","28,7","3,8","ND","ND","ND","ND"],
    [9603,"42012,75","19,4","1,28","ND","ND","ND","ND"],
    [9604,"42012,79167","22,6","0,92","ND","ND","ND","ND"],
    [9605,"42012,83333","29,4","1,05","ND","ND","ND","ND"],
    [9606,"42012,875","41,7","1,6","ND","ND","ND","ND"],
    [9607,"42012,91667","60","2,93","ND","ND","ND","ND"],
    [9608,"42012,95833","61,8","2,67","ND","ND","ND","ND"],
    [9609,"42043","41,6","1,76","ND","ND","ND","ND"],
    [9610,"42043,04167","42,7","1,76","ND","ND","ND","ND"],
    [9611,"42043,08333","39","1,57","ND","ND","ND","ND"],
    [9612,"42043,125","45","1,73","ND","ND","ND","ND"],
    [9613,"42043,16667","40,7","1,47","ND","ND","ND","ND"],
    [9614,"42043,20833","37,3","1,44","ND","ND","ND","ND"],
    [9615,"42043,25","49,1","1,28","ND","ND","ND","ND"],
    [9616,"42043,29167","53,3","1,68","ND","ND","ND","ND"],
    [9617,"42043,33333","59,8","2,02","ND","ND","ND","ND"],
    [9618,"42043,375","69,1","4,06","ND","ND","ND","ND"],
    [9619,"42043,41667","73,3","6,79","ND","ND","ND","ND"],
    [9620,"42043,45833","56,1","12,71","ND","ND","ND","ND"],
    [9621,"42043,5","59,1","9,77","ND","ND","ND","ND"],
    [9622,"42043,54167","62,9","8,28","ND","ND","ND","ND"],
    [9623,"42043,58333","65","6,94","ND","ND","ND","ND"],
    [9624,"42043,625","57","6,05","ND","ND","ND","ND"],
    [9625,"42043,66667","52","5,11","ND","ND","ND","ND"],
    [9626,"42043,70833","27,6","2,31","ND","ND","ND","ND"],
    [9627,"42043,75","27,5","1,18","ND","ND","ND","ND"],
    [9628,"42043,79167","21,9","0,89","ND","ND","ND","ND"],
    [9629,"42043,83333","18,2","0,92","ND","ND","ND","ND"],
    [9630,"42043,875","19,4","0,94","ND","ND","ND","ND"],
    [9631,"42043,91667","57,8","1,99","ND","ND","ND","ND"],
    [9632,"42043,95833","59,1","2,23","ND","ND","ND","ND"],
    [9633,"42071","54,3","2,02","ND","ND","ND","ND"],
    [9634,"42071,04167","34,1","1,52","ND","ND","ND","ND"],
    [9635,"42071,08333","31,2","1,23","ND","ND","ND","ND"],
    [9636,"42071,125","29,3","1,13","ND","ND","ND","ND"],
    [9637,"42071,16667","30,6","1,49","ND","ND","ND","ND"],
    [9638,"42071,20833","30,7","1,81","ND","ND","ND","ND"],
    [9639,"42071,25","56,9","2,17","ND","ND","ND","ND"],
    [9640,"42071,29167","66,6","2,96","ND","ND","ND","ND"],
    [9641,"42071,33333","73,9","4,98","ND","ND","ND","ND"],
    [9642,"42071,375","98,5","7,36","ND","ND","ND","ND"],
    [9643,"42071,41667","65,4","9,22","ND","ND","ND","ND"],
    [9644,"42071,45833","46,7","10,8","ND","ND","ND","ND"],
    [9645,"42071,5","53,9","7,52","ND","ND","ND","ND"],
    [9646,"42071,54167","44,8","5,84","ND","ND","ND","ND"],
    [9647,"42071,58333","32,9","4,82","ND","ND","ND","ND"],
    [9648,"42071,625","21,4","3,75","ND","ND","ND","ND"],
    [9649,"42071,66667","31,2","2,23","ND","ND","ND","ND"],
    [9650,"42071,70833","33","1,44","ND","ND","ND","ND"],
    [9651,"42071,75","32,7","1,23","ND","ND","ND","ND"],
    [9652,"42071,79167","32","1,1","ND","ND","ND","ND"],
    [9653,"42071,83333","20,8","0,89","ND","ND","ND","ND"],
    [9654,"42071,875","30,6","1,91","ND","ND","ND","ND"],
    [9655,"42071,91667","28,8","1,28","ND","ND","ND","ND"],
    [9656,"42071,95833","50,7","1,81","ND","ND","ND","ND"],
    [9657,"42102","47,8","2,88","ND","ND","ND","ND"],
    [9658,"42102,04167","22,4","0,92","ND","ND","ND","ND"],
    [9659,"42102,08333","22,7","0,89","ND","ND","ND","ND"],
    [9660,"42102,125","25,5","1,15","ND","ND","ND","ND"],
    [9661,"42102,16667","24,2","1,68","ND","ND","ND","ND"],
    [9662,"42102,20833","24,9","1,81","ND","ND","ND","ND"],
    [9663,"42102,25","43,2","1,91","ND","ND","ND","ND"],
    [9664,"42102,29167","102,8","2,88","ND","ND","ND","ND"],
    [9665,"42102,33333","67","4,98","ND","ND","ND","ND"],
    [9666,"42102,375","90,1","10,4","ND","ND","ND","ND"],
    [9667,"42102,41667","60,9","20,49","ND","ND","ND","ND"],
    [9668,"42102,45833","67,2","16,01","ND","ND","ND","ND"],
    [9669,"42102,5","65,5","12,5","ND","ND","ND","ND"],
    [9670,"42102,54167","32","7,31","ND","ND","ND","ND"],
    [9671,"42102,58333","22,8","3,93","ND","ND","ND","ND"],
    [9672,"42102,625","20,5","2,59","ND","ND","ND","ND"],
    [9673,"42102,66667","25,7","2,86","ND","ND","ND","ND"],
    [9674,"42102,70833","41","2,65","ND","ND","ND","ND"],
    [9675,"42102,75","41","1,44","ND","ND","ND","ND"],
    [9676,"42102,79167","35,5","1,05","ND","ND","ND","ND"],
    [9677,"42102,83333","29,3","0,79","ND","ND","ND","ND"],
    [9678,"42102,875","17,8","0,89","ND","ND","ND","ND"],
    [9679,"42102,91667","28,2","1,15","ND","ND","ND","ND"],
    [9680,"42102,95833","66,6","2,36","ND","ND","ND","ND"],
    [9681,"42132","27,6","1,47","ND","ND","ND","ND"],
    [9682,"42132,04167","45,8","1,62","ND","ND","ND","ND"],
    [9683,"42132,08333","26,2","1,47","ND","ND","ND","ND"],
    [9684,"42132,125","25,4","2,28","ND","ND","ND","ND"],
    [9685,"42132,16667","28,4","2,28","ND","ND","ND","ND"],
    [9686,"42132,20833","24,1","1,81","ND","ND","ND","ND"],
    [9687,"42132,25","46,4","2,25","ND","ND","ND","ND"],
    [9688,"42132,29167","103,3","3,72","ND","ND","ND","ND"],
    [9689,"42132,33333","65,1","5,37","ND","ND","ND","ND"],
    [9690,"42132,375","67,6","8,96","ND","ND","ND","ND"],
    [9691,"42132,41667","64,7","9,54","ND","ND","ND","ND"],
    [9692,"42132,45833","69,2","10,48","ND","ND","ND","ND"],
    [9693,"42132,5","77,2","13,6","ND","ND","ND","ND"],
    [9694,"42132,54167","67,4","12,55","ND","ND","ND","ND"],
    [9695,"42132,58333","49","7,73","ND","ND","ND","ND"],
    [9696,"42132,625","31,3","4,38","ND","ND","ND","ND"],
    [9697,"42132,66667","22,2","2,96","ND","ND","ND","ND"],
    [9698,"42132,70833","29,1","2,93","ND","ND","ND","ND"],
    [9699,"42132,75","56,4","1,91","ND","ND","ND","ND"],
    [9700,"42132,79167","34","1,47","ND","ND","ND","ND"],
    [9701,"42132,83333","26","1,47","ND","ND","ND","ND"],
    [9702,"42132,875","44,4","1,94","ND","ND","ND","ND"],
    [9703,"42132,91667","40,9","2,33","ND","ND","ND","ND"],
    [9704,"42132,95833","49,8","1,91","ND","ND","ND","ND"],
    [9705,"42163","43,6","1,52","ND","ND","ND","ND"],
    [9706,"42163,04167","32,2","2,2","ND","ND","ND","ND"],
    [9707,"42163,08333","22","2,46","ND","ND","ND","ND"],
    [9708,"42163,125","22","1,02","ND","ND","ND","ND"],
    [9709,"42163,16667","35,7","1,15","ND","ND","ND","ND"],
    [9710,"42163,20833","23","1,02","ND","ND","ND","ND"],
    [9711,"42163,25","28,9","1,36","ND","ND","ND","ND"],
    [9712,"42163,29167","89,8","2,88","ND","ND","ND","ND"],
    [9713,"42163,33333","80,2","4,93","ND","ND","ND","ND"],
    [9714,"42163,375","54,3","4,93","ND","ND","ND","ND"],
    [9715,"42163,41667","42,6","7,49","ND","ND","ND","ND"],
    [9716,"42163,45833","31,6","5,61","ND","ND","ND","ND"],
    [9717,"42163,5","39,9","4,04","ND","ND","ND","ND"],
    [9718,"42163,54167","55","4,19","ND","ND","ND","ND"],
    [9719,"42163,58333","48,8","3,75","ND","ND","ND","ND"],
    [9720,"42163,625","56,5","4,14","ND","ND","ND","ND"],
    [9721,"42163,66667","47,2","3,07","ND","ND","ND","ND"],
    [9722,"42163,70833","26","1,34","ND","ND","ND","ND"],
    [9723,"42163,75","26,4","1,26","ND","ND","ND","ND"],
    [9724,"42163,79167","34,1","1,05","ND","ND","ND","ND"],
    [9725,"42163,83333","23","0,89","ND","ND","ND","ND"],
    [9726,"42163,875","25,5","1,41","ND","ND","ND","ND"],
    [9727,"42163,91667","25,5","1,44","ND","ND","ND","ND"],
    [9728,"42163,95833","19","0,81","ND","ND","ND","ND"],
    [9729,"42193","57","2,31","ND","ND","ND","ND"],
    [9730,"42193,04167","65,4","2,7","ND","ND","ND","ND"],
    [9731,"42193,08333","59,2","3,12","ND","ND","ND","ND"],
    [9732,"42193,125","36","1,68","ND","ND","ND","ND"],
    [9733,"42193,16667","61,3","6,24","ND","ND","ND","ND"],
    [9734,"42193,20833","56,4","4,95","ND","ND","ND","ND"],
    [9735,"42193,25","38,4","2,57","ND","ND","ND","ND"],
    [9736,"42193,29167","55,6","2,73","ND","ND","ND","ND"],
    [9737,"42193,33333","79,4","3,96","ND","ND","ND","ND"],
    [9738,"42193,375","74,7","4,48","ND","ND","ND","ND"],
    [9739,"42193,41667","103,7","53,51","ND","ND","ND","ND"],
    [9740,"42193,45833","98,4","70,77","ND","ND","ND","ND"],
    [9741,"42193,5","57,3","22,51","ND","ND","ND","ND"],
    [9742,"42193,54167","56,1","9,93","ND","ND","ND","ND"],
    [9743,"42193,58333","67,2","12,24","ND","ND","ND","ND"],
    [9744,"42193,625","9,3","1,47","ND","ND","ND","ND"],
    [9745,"42193,66667","7,3","0,89","ND","ND","ND","ND"],
    [9746,"42193,70833","13,7","0,97","ND","ND","ND","ND"],
    [9747,"42193,75","18,5","0,92","ND","ND","ND","ND"],
    [9748,"42193,79167","30,8","1,34","ND","ND","ND","ND"],
    [9749,"42193,83333","34,7","1,39","ND","ND","ND","ND"],
    [9750,"42193,875","16,8","0,73","ND","ND","ND","ND"],
    [9751,"42193,91667","44,5","1,44","ND","ND","ND","ND"],
    [9752,"42193,95833","74,9","2,88","ND","ND","ND","ND"],
    [9753,"42224","38,3","1,36","ND","ND","ND","ND"],
    [9754,"42224,04167","39,3","1,97","ND","ND","ND","ND"],
    [9755,"42224,08333","35,3","1,57","ND","ND","ND","ND"],
    [9756,"42224,125","40,4","1,41","ND","ND","ND","ND"],
    [9757,"42224,16667","37","1,21","ND","ND","ND","ND"],
    [9758,"42224,20833","43,7","1,62","ND","ND","ND","ND"],
    [9759,"42224,25","60,5","7,36","ND","ND","ND","ND"],
    [9760,"42224,29167","76,4","6,16","ND","ND","ND","ND"],
    [9761,"42224,33333","76,8","5,27","ND","ND","ND","ND"],
    [9762,"42224,375","91,3","33,12","ND","ND","ND","ND"],
    [9763,"42224,41667","91,3","30,58","ND","ND","ND","ND"],
    [9764,"42224,45833","92,5","24,03","ND","ND","ND","ND"],
    [9765,"42224,5","76,7","18,92","ND","ND","ND","ND"],
    [9766,"42224,54167","80,8","15,59","ND","ND","ND","ND"],
    [9767,"42224,58333","44,1","7,6","ND","ND","ND","ND"],
    [9768,"42224,625","19","1,52","ND","ND","ND","ND"],
    [9769,"42224,66667","26,8","1,07","ND","ND","ND","ND"],
    [9770,"42224,70833","29,4","2,23","ND","ND","ND","ND"],
    [9771,"42224,75","29,4","1,57","ND","ND","ND","ND"],
    [9772,"42224,79167","4,4","0,71","ND","ND","ND","ND"],
    [9773,"42224,83333","37,9","1,6","ND","ND","ND","ND"],
    [9774,"42224,875","54,3","2,28","ND","ND","ND","ND"],
    [9775,"42224,91667","60,6","2,25","ND","ND","ND","ND"],
    [9776,"42224,95833","36,7","1,68","ND","ND","ND","ND"],
    [9777,"42255","53,3","2,8","ND","ND","ND","ND"],
    [9778,"42255,04167","32,2","1,13","ND","ND","ND","ND"],
    [9779,"42255,08333","29,3","0,94","ND","ND","ND","ND"],
    [9780,"42255,125","39","0,97","ND","ND","ND","ND"],
    [9781,"42255,16667","36,5","1,55","ND","ND","ND","ND"],
    [9782,"42255,20833","39,3","1,36","ND","ND","ND","ND"],
    [9783,"42255,25","30,7","1,1","ND","ND","ND","ND"],
    [9784,"42255,29167","48,4","1,76","ND","ND","ND","ND"],
    [9785,"42255,33333","46","1,73","ND","ND","ND","ND"],
    [9786,"42255,375","61,5","2,99","ND","ND","ND","ND"],
    [9787,"42255,41667","51,1","8,38","ND","ND","ND","ND"],
    [9788,"42255,45833","27,4","13,02","ND","ND","ND","ND"],
    [9789,"42255,5","29,3","7,68","ND","ND","ND","ND"],
    [9790,"42255,54167","32,7","7,6","ND","ND","ND","ND"],
    [9791,"42255,58333","39,7","7,23","ND","ND","ND","ND"],
    [9792,"42255,625","55,7","7,05","ND","ND","ND","ND"],
    [9793,"42255,66667","23,5","5,55","ND","ND","ND","ND"],
    [9794,"42255,70833","9,1","1,36","ND","ND","ND","ND"],
    [9795,"42255,75","9,2","1,02","ND","ND","ND","ND"],
    [9796,"42255,79167","8,5","0,89","ND","ND","ND","ND"],
    [9797,"42255,83333","8,5","0,84","ND","ND","ND","ND"],
    [9798,"42255,875","4,9","0,84","ND","ND","ND","ND"],
    [9799,"42255,91667","8,3","0,86","ND","ND","ND","ND"],
    [9800,"42255,95833","60,6","2,62","ND","ND","ND","ND"],
    [9801,"42285","41,4","2,07","ND","ND","ND","ND"],
    [9802,"42285,04167","39,4","1,91","ND","ND","ND","ND"],
    [9803,"42285,08333","38,1","1,39","ND","ND","ND","ND"],
    [9804,"42285,125","36,6","1,39","ND","ND","ND","ND"],
    [9805,"42285,16667","38,7","1,36","ND","ND","ND","ND"],
    [9806,"42285,20833","32","1,21","ND","ND","ND","ND"],
    [9807,"42285,25","34,6","2,2","ND","ND","ND","ND"],
    [9808,"42285,29167","52,5","3,01","ND","ND","ND","ND"],
    [9809,"42285,33333","59,3","5,16","ND","ND","ND","ND"],
    [9810,"42285,375","48,6","8,31","ND","ND","ND","ND"],
    [9811,"42285,41667","39,3","12,5","ND","ND","ND","ND"],
    [9812,"42285,45833","35,8","11,71","ND","ND","ND","ND"],
    [9813,"42285,5","38,2","8,57","ND","ND","ND","ND"],
    [9814,"42285,54167","45,2","5,32","ND","ND","ND","ND"],
    [9815,"42285,58333","45,8","5,74","ND","ND","ND","ND"],
    [9816,"42285,625","37,1","6,76","ND","ND","ND","ND"],
    [9817,"42285,66667","25,4","3,75","ND","ND","ND","ND"],
    [9818,"42285,70833","17,5","1,28","ND","ND","ND","ND"],
    [9819,"42285,75","20,7","1","ND","ND","ND","ND"],
    [9820,"42285,79167","19,8","0,97","ND","ND","ND","ND"],
    [9821,"42285,83333","15,9","0,81","ND","ND","ND","ND"],
    [9822,"42285,875","14,9","1,07","ND","ND","ND","ND"],
    [9823,"42285,91667","29,8","2,12","ND","ND","ND","ND"],
    [9824,"42285,95833","38","2,49","ND","ND","ND","ND"],
    [9825,"42316","44","1,65","ND","ND","ND","ND"],
    [9826,"42316,04167","27,5","1,47","ND","ND","ND","ND"],
    [9827,"42316,08333","40,2","2,12","ND","ND","ND","ND"],
    [9828,"42316,125","28,1","1,86","ND","ND","ND","ND"],
    [9829,"42316,16667","30,1","1,73","ND","ND","ND","ND"],
    [9830,"42316,20833","33,9","1,52","ND","ND","ND","ND"],
    [9831,"42316,25","52,1","3,28","ND","ND","ND","ND"],
    [9832,"42316,29167","56,6","3,12","ND","ND","ND","ND"],
    [9833,"42316,33333","85,4","7,83","ND","ND","ND","ND"],
    [9834,"42316,375","60","13,15","ND","ND","ND","ND"],
    [9835,"42316,41667","58,3","17,61","ND","ND","ND","ND"],
    [9836,"42316,45833","70,3","ND","ND","ND","ND","ND"],
    [9837,"42316,5","70,7","48,42","ND","ND","ND","ND"],
    [9838,"42316,54167","84,1","21,56","ND","ND","ND","ND"],
    [9839,"42316,58333","58,8","14,86","ND","ND","ND","ND"],
    [9840,"42316,625","58,8","7,07","ND","ND","ND","ND"],
    [9841,"42316,66667","20,4","2,38","ND","ND","ND","ND"],
    [9842,"42316,70833","30,6","2,17","ND","ND","ND","ND"],
    [9843,"42316,75","33,1","1,68","ND","ND","ND","ND"],
    [9844,"42316,79167","18,1","1,34","ND","ND","ND","ND"],
    [9845,"42316,83333","11,9","0,94","ND","ND","ND","ND"],
    [9846,"42316,875","16,1","0,92","ND","ND","ND","ND"],
    [9847,"42316,91667","41,1","2,59","ND","ND","ND","ND"],
    [9848,"42316,95833","51,4","2,78","ND","ND","ND","ND"],
    [9849,"42346","89","3,07","ND","ND","ND","ND"],
    [9850,"42346,04167","29","1,31","ND","ND","ND","ND"],
    [9851,"42346,08333","47","2,23","ND","ND","ND","ND"],
    [9852,"42346,125","34,9","1,23","ND","ND","ND","ND"],
    [9853,"42346,16667","27,5","1,07","ND","ND","ND","ND"],
    [9854,"42346,20833","39,7","1,23","ND","ND","ND","ND"],
    [9855,"42346,25","56,3","1,26","ND","ND","ND","ND"],
    [9856,"42346,29167","75,8","3,85","ND","ND","ND","ND"],
    [9857,"42346,33333","73,8","12,16","ND","ND","ND","ND"],
    [9858,"42346,375","76,1","17,66","ND","ND","ND","ND"],
    [9859,"42346,41667","58,7","12,94","ND","ND","ND","ND"],
    [9860,"42346,45833","60,9","10,98","ND","ND","ND","ND"],
    [9861,"42346,5","57,9","9,25","ND","ND","ND","ND"],
    [9862,"42346,54167","68,8","9,07","ND","ND","ND","ND"],
    [9863,"42346,58333","30,3","5","ND","ND","ND","ND"],
    [9864,"42346,625","20,6","1,13","ND","ND","ND","ND"],
    [9865,"42346,66667","23,2","0,79","ND","ND","ND","ND"],
    [9866,"42346,70833","20,2","0,94","ND","ND","ND","ND"],
    [9867,"42346,75","20,6","0,68","ND","ND","ND","ND"],
    [9868,"42346,79167","16","0,89","ND","ND","ND","ND"],
    [9869,"42346,83333","37,9","5,4","ND","ND","ND","ND"],
    [9870,"42346,875","15,6","1,21","ND","ND","ND","ND"],
    [9871,"42346,91667","32,1","2,28","ND","ND","ND","ND"],
    [9872,"42346,95833","61,2","3,85","ND","ND","ND","ND"],
    [9873,"08/13/2015 00:00","81,3","4,01","ND","ND","ND","ND"],
    [9874,"08/13/2015 01:00","34","1,1","ND","ND","ND","ND"],
    [9875,"08/13/2015 02:00","21,3","0,89","ND","ND","ND","ND"],
    [9876,"08/13/2015 03:00","22,5","0,86","ND","ND","ND","ND"],
    [9877,"08/13/2015 04:00","22,5","0,97","ND","ND","ND","ND"],
    [9878,"08/13/2015 05:00","25","1,07","ND","ND","ND","ND"],
    [9879,"08/13/2015 06:00","40,1","1,31","ND","ND","ND","ND"],
    [9880,"08/13/2015 07:00","56,1","2,28","ND","ND","ND","ND"],
    [9881,"08/13/2015 08:00","62,4","3,2","ND","ND","ND","ND"],
    [9882,"08/13/2015 09:00","76,6","9,46","ND","ND","ND","ND"],
    [9883,"08/13/2015 10:00","79,9","12,21","ND","ND","ND","ND"],
    [9884,"08/13/2015 11:00","53,2","8,41","ND","ND","ND","ND"],
    [9885,"08/13/2015 12:00","76,3","7,94","ND","ND","ND","ND"],
    [9886,"08/13/2015 13:00","69,3","11,16","ND","ND","ND","ND"],
    [9887,"08/13/2015 14:00","62","17,06","ND","ND","ND","ND"],
    [9888,"08/13/2015 15:00","44,1","10,01","ND","ND","ND","ND"],
    [9889,"08/13/2015 16:00","16,6","2,54","ND","ND","ND","ND"],
    [9890,"08/13/2015 17:00","11,4","1,23","ND","ND","ND","ND"],
    [9891,"08/13/2015 18:00","10,8","0,97","ND","ND","ND","ND"],
    [9892,"08/13/2015 19:00","10,8","1,26","ND","ND","ND","ND"],
    [9893,"08/13/2015 20:00","11,9","1,1","ND","ND","ND","ND"],
    [9894,"08/13/2015 21:00","6,8","0,94","ND","ND","ND","ND"],
    [9895,"08/13/2015 22:00","11,2","1,73","ND","ND","ND","ND"],
    [9896,"08/13/2015 23:00","57,6","4,3","ND","ND","ND","ND"],
    [9897,"08/14/2015 00:00","38,6","3,09","ND","ND","ND","ND"],
    [9898,"08/14/2015 01:00","65,1","3,77","ND","ND","ND","ND"],
    [9899,"08/14/2015 02:00","53,1","5,71","ND","ND","ND","ND"],
    [9900,"08/14/2015 03:00","60,4","4,9","ND","ND","ND","ND"],
    [9901,"08/14/2015 04:00","32,8","2,33","ND","ND","ND","ND"],
    [9902,"08/14/2015 05:00","34,8","2,38","ND","ND","ND","ND"],
    [9903,"08/14/2015 06:00","50,9","2,67","ND","ND","ND","ND"],
    [9904,"08/14/2015 07:00","85,8","3,41","ND","ND","ND","ND"],
    [9905,"08/14/2015 08:00","93,2","6,87","ND","ND","ND","ND"],
    [9906,"08/14/2015 09:00","85,1","9,33","ND","ND","ND","ND"],
    [9907,"08/14/2015 10:00","76,6","9,28","ND","ND","ND","ND"],
    [9908,"08/14/2015 11:00","60,5","9,04","ND","ND","ND","ND"],
    [9909,"08/14/2015 12:00","49,5","7,78","ND","ND","ND","ND"],
    [9910,"08/14/2015 13:00","57,7","6,31","ND","ND","ND","ND"],
    [9911,"08/14/2015 14:00","54,1","8,52","ND","ND","ND","ND"],
    [9912,"08/14/2015 15:00","39,6","9,54","ND","ND","ND","ND"],
    [9913,"08/14/2015 16:00","4,4","1,49","ND","ND","ND","ND"],
    [9914,"08/14/2015 17:00","8,9","1,31","ND","ND","ND","ND"],
    [9915,"08/14/2015 18:00","6,9","1,28","ND","ND","ND","ND"],
    [9916,"08/14/2015 19:00","7,8","1,23","ND","ND","ND","ND"],
    [9917,"08/14/2015 20:00","25,3","1,36","ND","ND","ND","ND"],
    [9918,"08/14/2015 21:00","53,9","2,8","ND","ND","ND","ND"],
    [9919,"08/14/2015 22:00","47,7","3,56","ND","ND","ND","ND"],
    [9920,"08/14/2015 23:00","43,3","3,38","ND","ND","ND","ND"],
    [9921,"08/15/2015 00:00","46,1","2,36","ND","ND","ND","ND"],
    [9922,"08/15/2015 01:00","36,3","2,91","ND","ND","ND","ND"],
    [9923,"08/15/2015 02:00","31","2,31","ND","ND","ND","ND"],
    [9924,"08/15/2015 03:00","27,1","2,15","ND","ND","ND","ND"],
    [9925,"08/15/2015 04:00","33","1,86","ND","ND","ND","ND"],
    [9926,"08/15/2015 05:00","17,5","1,31","ND","ND","ND","ND"],
    [9927,"08/15/2015 06:00","16,6","1,15","ND","ND","ND","ND"],
    [9928,"08/15/2015 07:00","26,5","1,55","ND","ND","ND","ND"],
    [9929,"08/15/2015 08:00","34,9","2,07","ND","ND","ND","ND"],
    [9930,"08/15/2015 09:00","18,8","2,07","ND","ND","ND","ND"],
    [9931,"08/15/2015 10:00","40,4","3,41","ND","ND","ND","ND"],
    [9932,"08/15/2015 11:00","48,7","6","ND","ND","ND","ND"],
    [9933,"08/15/2015 12:00","58","7,55","ND","ND","ND","ND"],
    [9934,"08/15/2015 13:00","53,6","5,92","ND","ND","ND","ND"],
    [9935,"08/15/2015 14:00","53,6","4,51","ND","ND","ND","ND"],
    [9936,"08/15/2015 15:00","29,6","3,25","ND","ND","ND","ND"],
    [9937,"08/15/2015 16:00","11,5","1,97","ND","ND","ND","ND"],
    [9938,"08/15/2015 17:00","17","1,86","ND","ND","ND","ND"],
    [9939,"08/15/2015 18:00","7,6","1,28","ND","ND","ND","ND"],
    [9940,"08/15/2015 19:00","11,1","1,1","ND","ND","ND","ND"],
    [9941,"08/15/2015 20:00","9,9","1","ND","ND","ND","ND"],
    [9942,"08/15/2015 21:00","9,5","1,05","ND","ND","ND","ND"],
    [9943,"08/15/2015 22:00","31,8","1,89","ND","ND","ND","ND"],
    [9944,"08/15/2015 23:00","40","2,36","ND","ND","ND","ND"],
    [9945,"08/16/2015 00:00","45,2","2,41","ND","ND","ND","ND"],
    [9946,"08/16/2015 01:00","42","2,7","ND","ND","ND","ND"],
    [9947,"08/16/2015 02:00","35,6","3,04","ND","ND","ND","ND"],
    [9948,"08/16/2015 03:00","33,9","2,67","ND","ND","ND","ND"],
    [9949,"08/16/2015 04:00","34","1,76","ND","ND","ND","ND"],
    [9950,"08/16/2015 05:00","40,6","2,38","ND","ND","ND","ND"],
    [9951,"08/16/2015 06:00","30,4","2,31","ND","ND","ND","ND"],
    [9952,"08/16/2015 07:00","23,5","1,78","ND","ND","ND","ND"],
    [9953,"08/16/2015 08:00","20,9","2,2","ND","ND","ND","ND"],
    [9954,"08/16/2015 09:00","44,8","14,99","ND","ND","ND","ND"],
    [9955,"08/16/2015 10:00","41,6","20,88","ND","ND","ND","ND"],
    [9956,"08/16/2015 11:00","42,9","13","ND","ND","ND","ND"],
    [9957,"08/16/2015 12:00","38,1","10,04","ND","ND","ND","ND"],
    [9958,"08/16/2015 13:00","45","9,51","ND","ND","ND","ND"],
    [9959,"08/16/2015 14:00","37","7,7","ND","ND","ND","ND"],
    [9960,"08/16/2015 15:00","43,7","6,39","ND","ND","ND","ND"],
    [9961,"08/16/2015 16:00","38,6","6,16","ND","ND","ND","ND"],
    [9962,"08/16/2015 17:00","58,7","5,74","ND","ND","ND","ND"],
    [9963,"08/16/2015 18:00","18,1","1,83","ND","ND","ND","ND"],
    [9964,"08/16/2015 19:00","8,8","1,31","ND","ND","ND","ND"],
    [9965,"08/16/2015 20:00","11,3","1,18","ND","ND","ND","ND"],
    [9966,"08/16/2015 21:00","8,8","0,92","ND","ND","ND","ND"],
    [9967,"08/16/2015 22:00","10,6","1","ND","ND","ND","ND"],
    [9968,"08/16/2015 23:00","62,3","3,2","ND","ND","ND","ND"],
    [9969,"08/17/2015 00:00","36,7","2,38","ND","ND","ND","ND"],
    [9970,"08/17/2015 01:00","26,8","1,68","ND","ND","ND","ND"],
    [9971,"08/17/2015 02:00","26,8","1,55","ND","ND","ND","ND"],
    [9972,"08/17/2015 03:00","27,1","1,68","ND","ND","ND","ND"],
    [9973,"08/17/2015 04:00","24,3","2,36","ND","ND","ND","ND"],
    [9974,"08/17/2015 05:00","26","2,23","ND","ND","ND","ND"],
    [9975,"08/17/2015 06:00","34,4","2,83","ND","ND","ND","ND"],
    [9976,"08/17/2015 07:00","24,5","2,23","ND","ND","ND","ND"],
    [9977,"08/17/2015 08:00","51,3","3,46","ND","ND","ND","ND"],
    [9978,"08/17/2015 09:00","26,8","7,6","ND","ND","ND","ND"],
    [9979,"08/17/2015 10:00","38,3","14,33","ND","ND","ND","ND"],
    [9980,"08/17/2015 11:00","28,3","12,13","ND","ND","ND","ND"],
    [9981,"08/17/2015 12:00","31,2","6,66","ND","ND","ND","ND"],
    [9982,"08/17/2015 13:00","26","4,48","ND","ND","ND","ND"],
    [9983,"08/17/2015 14:00","19,1","3,56","ND","ND","ND","ND"],
    [9984,"08/17/2015 15:00","10,6","1,21","ND","ND","ND","ND"],
    [9985,"08/17/2015 16:00","8,6","1,21","ND","ND","ND","ND"],
    [9986,"08/17/2015 17:00","17,2","0,84","ND","ND","ND","ND"],
    [9987,"08/17/2015 18:00","14,1","0,89","ND","ND","ND","ND"],
    [9988,"08/17/2015 19:00","16,5","0,79","ND","ND","ND","ND"],
    [9989,"08/17/2015 20:00","14,1","0,76","ND","ND","ND","ND"],
    [9990,"08/17/2015 21:00","8,9","0,68","ND","ND","ND","ND"],
    [9991,"08/17/2015 22:00","8,9","0,86","ND","ND","ND","ND"],
    [9992,"08/17/2015 23:00","40,8","2,02","ND","ND","ND","ND"],
    [9993,"08/18/2015 00:00","49,6","3,17","ND","ND","ND","ND"],
    [9994,"08/18/2015 01:00","33,5","1,28","ND","ND","ND","ND"],
    [9995,"08/18/2015 02:00","23,9","4,01","ND","ND","ND","ND"],
    [9996,"08/18/2015 03:00","16,2","1,44","ND","ND","ND","ND"],
    [9997,"08/18/2015 04:00","16,2","1,1","ND","ND","ND","ND"],
    [9998,"08/18/2015 05:00","19,4","1,02","ND","ND","ND","ND"],
    [9999,"08/18/2015 06:00","27,5","1,13","ND","ND","ND","ND"],
    [10000,"08/18/2015 07:00","54,8","2,44","ND","ND","ND","ND"],
    [10001,"08/18/2015 08:00","75,1","6,13","ND","ND","ND","ND"],
    [10002,"08/18/2015 09:00","48,6","9,25","ND","ND","ND","ND"],
    [10003,"08/18/2015 10:00","48,6","8,91","ND","ND","ND","ND"],
    [10004,"08/18/2015 11:00","37,9","9,85","ND","ND","ND","ND"],
    [10005,"08/18/2015 12:00","59","11,21","ND","ND","ND","ND"],
    [10006,"08/18/2015 13:00","58,1","11,29","ND","ND","ND","ND"],
    [10007,"08/18/2015 14:00","57,9","16,01","ND","ND","ND","ND"],
    [10008,"08/18/2015 15:00","31,4","11,29","ND","ND","ND","ND"],
    [10009,"08/18/2015 16:00","59,9","8,38","ND","ND","ND","ND"],
    [10010,"08/18/2015 17:00","55,4","5,16","ND","ND","ND","ND"],
    [10011,"08/18/2015 18:00","25,2","2,8","ND","ND","ND","ND"],
    [10012,"08/18/2015 19:00","19,4","2,38","ND","ND","ND","ND"],
    [10013,"08/18/2015 20:00","16,7","2,12","ND","ND","ND","ND"],
    [10014,"08/18/2015 21:00","9,3","1,23","ND","ND","ND","ND"],
    [10015,"08/18/2015 22:00","19,5","1,39","ND","ND","ND","ND"],
    [10016,"08/18/2015 23:00","54,4","2,65","ND","ND","ND","ND"],
    [10017,"08/19/2015 00:00","45,1","2,91","ND","ND","ND","ND"],
    [10018,"08/19/2015 01:00","31,2","2,12","ND","ND","ND","ND"],
    [10019,"08/19/2015 02:00","26","1,99","ND","ND","ND","ND"],
    [10020,"08/19/2015 03:00","17,8","1,68","ND","ND","ND","ND"],
    [10021,"08/19/2015 04:00","46,7","2,12","ND","ND","ND","ND"],
    [10022,"08/19/2015 05:00","24,1","1,7","ND","ND","ND","ND"],
    [10023,"08/19/2015 06:00","35,1","1,91","ND","ND","ND","ND"],
    [10024,"08/19/2015 07:00","68,9","2,65","ND","ND","ND","ND"],
    [10025,"08/19/2015 08:00","75,1","4,14","ND","ND","ND","ND"],
    [10026,"08/19/2015 09:00","58,2","6,58","ND","ND","ND","ND"],
    [10027,"08/19/2015 10:00","40,1","5,63","ND","ND","ND","ND"],
    [10028,"08/19/2015 11:00","46,9","6,34","ND","ND","ND","ND"],
    [10029,"08/19/2015 12:00","36,6","5,42","ND","ND","ND","ND"],
    [10030,"08/19/2015 13:00","41,5","4,27","ND","ND","ND","ND"],
    [10031,"08/19/2015 14:00","38,3","4,82","ND","ND","ND","ND"],
    [10032,"08/19/2015 15:00","29,1","4,4","ND","ND","ND","ND"],
    [10033,"08/19/2015 16:00","34,3","4,38","ND","ND","ND","ND"],
    [10034,"08/19/2015 17:00","43,9","5,03","ND","ND","ND","ND"],
    [10035,"08/19/2015 18:00","80,5","5,48","ND","ND","ND","ND"],
    [10036,"08/19/2015 19:00","45,3","3,12","ND","ND","ND","ND"],
    [10037,"08/19/2015 20:00","36,3","2,2","ND","ND","ND","ND"],
    [10038,"08/19/2015 21:00","20,7","1,62","ND","ND","ND","ND"],
    [10039,"08/19/2015 22:00","29,4","2,93","ND","ND","ND","ND"],
    [10040,"08/19/2015 23:00","59,7","4,04","ND","ND","ND","ND"],
    [10041,"08/20/2015 00:00","19,6","1,36","ND","ND","ND","ND"],
    [10042,"08/20/2015 01:00","36,5","2,44","ND","ND","ND","ND"],
    [10043,"08/20/2015 02:00","32,2","2,02","ND","ND","ND","ND"],
    [10044,"08/20/2015 03:00","33,6","2,59","ND","ND","ND","ND"],
    [10045,"08/20/2015 04:00","29,6","2,78","ND","ND","ND","ND"],
    [10046,"08/20/2015 05:00","23,7","2,33","ND","ND","ND","ND"],
    [10047,"08/20/2015 06:00","44,2","1,94","ND","ND","ND","ND"],
    [10048,"08/20/2015 07:00","67,4","2,7","ND","ND","ND","ND"],
    [10049,"08/20/2015 08:00","54,5","5,58","ND","ND","ND","ND"],
    [10050,"08/20/2015 09:00","45,8","13,94","ND","ND","ND","ND"],
    [10051,"08/20/2015 10:00","55,6","15,38","ND","ND","ND","ND"],
    [10052,"08/20/2015 11:00","46,5","14,36","ND","ND","ND","ND"],
    [10053,"08/20/2015 12:00","38,2","8,59","ND","ND","ND","ND"],
    [10054,"08/20/2015 13:00","2","2,41","ND","ND","ND","ND"],
    [10055,"08/20/2015 14:00","49,8","1,78","ND","ND","ND","ND"],
    [10056,"08/20/2015 15:00","35","1,47","ND","ND","ND","ND"],
    [10057,"08/20/2015 16:00","25","1,36","ND","ND","ND","ND"],
    [10058,"08/20/2015 17:00","30,7","1,41","ND","ND","ND","ND"],
    [10059,"08/20/2015 18:00","28","1,1","ND","ND","ND","ND"],
    [10060,"08/20/2015 19:00","21,1","1,23","ND","ND","ND","ND"],
    [10061,"08/20/2015 20:00","23,5","1,47","ND","ND","ND","ND"],
    [10062,"08/20/2015 21:00","23,5","0,84","ND","ND","ND","ND"],
    [10063,"08/20/2015 22:00","40,8","1,76","ND","ND","ND","ND"],
    [10064,"08/20/2015 23:00","52,5","2,88","ND","ND","ND","ND"],
    [10065,"08/21/2015 00:00","6,4","1,41","ND","ND","ND","ND"],
    [10066,"08/21/2015 01:00","35,6","2,1","ND","ND","ND","ND"],
    [10067,"08/21/2015 02:00","53,1","8,46","ND","ND","ND","ND"],
    [10068,"08/21/2015 03:00","47,5","10,25","ND","ND","ND","ND"],
    [10069,"08/21/2015 04:00","25,8","4,64","ND","ND","ND","ND"],
    [10070,"08/21/2015 05:00","19,6","3,04","ND","ND","ND","ND"],
    [10071,"08/21/2015 06:00","42","2,49","ND","ND","ND","ND"],
    [10072,"08/21/2015 07:00","65,1","3,04","ND","ND","ND","ND"],
    [10073,"08/21/2015 08:00","99,6","5,14","ND","ND","ND","ND"],
    [10074,"08/21/2015 09:00","84","24,21","ND","ND","ND","ND"],
    [10075,"08/21/2015 10:00","70,9","51,7","ND","ND","ND","ND"],
    [10076,"08/21/2015 11:00","62,9","21,64","ND","ND","ND","ND"],
    [10077,"08/21/2015 12:00","47,3","13,55","ND","ND","ND","ND"],
    [10078,"08/21/2015 13:00","60,3","11,9","ND","ND","ND","ND"],
    [10079,"08/21/2015 14:00","46,2","7,57","ND","ND","ND","ND"],
    [10080,"08/21/2015 15:00","41","4,32","ND","ND","ND","ND"],
    [10081,"08/21/2015 16:00","39","3,35","ND","ND","ND","ND"],
    [10082,"08/21/2015 17:00","65","2,49","ND","ND","ND","ND"],
    [10083,"08/21/2015 18:00","30,9","1,76","ND","ND","ND","ND"],
    [10084,"08/21/2015 19:00","32,3","1,73","ND","ND","ND","ND"],
    [10085,"08/21/2015 20:00","23","1,81","ND","ND","ND","ND"],
    [10086,"08/21/2015 21:00","24,7","1,52","ND","ND","ND","ND"],
    [10087,"08/21/2015 22:00","18","0,97","ND","ND","ND","ND"],
    [10088,"08/21/2015 23:00","17,2","0,66","ND","ND","ND","ND"],
    [10089,"08/22/2015 00:00","85,5","3,93","ND","ND","ND","ND"],
    [10090,"08/22/2015 01:00","43,1","1,76","ND","ND","ND","ND"],
    [10091,"08/22/2015 02:00","37,6","2,04","ND","ND","ND","ND"],
    [10092,"08/22/2015 03:00","30,3","1,57","ND","ND","ND","ND"],
    [10093,"08/22/2015 04:00","31,9","1,62","ND","ND","ND","ND"],
    [10094,"08/22/2015 05:00","29,7","1,78","ND","ND","ND","ND"],
    [10095,"08/22/2015 06:00","34,9","1,99","ND","ND","ND","ND"],
    [10096,"08/22/2015 07:00","91,9","2,78","ND","ND","ND","ND"],
    [10097,"08/22/2015 08:00","74","4,48","ND","ND","ND","ND"],
    [10098,"08/22/2015 09:00","90,4","11,42","ND","ND","ND","ND"],
    [10099,"08/22/2015 10:00","91,9","9,46","ND","ND","ND","ND"],
    [10100,"08/22/2015 11:00","61,7","6,89","ND","ND","ND","ND"],
    [10101,"08/22/2015 12:00","87,4","8,46","ND","ND","ND","ND"],
    [10102,"08/22/2015 13:00","68,4","6,66","ND","ND","ND","ND"],
    [10103,"08/22/2015 14:00","72,9","6,71","ND","ND","ND","ND"],
    [10104,"08/22/2015 15:00","79,1","4,14","ND","ND","ND","ND"],
    [10105,"08/22/2015 16:00","49,8","3,09","ND","ND","ND","ND"],
    [10106,"08/22/2015 17:00","40,8","2,59","ND","ND","ND","ND"],
    [10107,"08/22/2015 18:00","47,2","2,12","ND","ND","ND","ND"],
    [10108,"08/22/2015 19:00","34,8","1,31","ND","ND","ND","ND"],
    [10109,"08/22/2015 20:00","22,3","1,28","ND","ND","ND","ND"],
    [10110,"08/22/2015 21:00","24,4","1,57","ND","ND","ND","ND"],
    [10111,"08/22/2015 22:00","33,8","2,62","ND","ND","ND","ND"],
    [10112,"08/22/2015 23:00","79,2","4,87","ND","ND","ND","ND"],
    [10113,"08/23/2015 00:00","49,7","3,8","ND","ND","ND","ND"],
    [10114,"08/23/2015 01:00","70,7","3,07","ND","ND","ND","ND"],
    [10115,"08/23/2015 02:00","62,3","2,65","ND","ND","ND","ND"],
    [10116,"08/23/2015 03:00","49","2,25","ND","ND","ND","ND"],
    [10117,"08/23/2015 04:00","48,6","1,99","ND","ND","ND","ND"],
    [10118,"08/23/2015 05:00","50,3","1,7","ND","ND","ND","ND"],
    [10119,"08/23/2015 06:00","48,5","1,81","ND","ND","ND","ND"],
    [10120,"08/23/2015 07:00","60,3","2,2","ND","ND","ND","ND"],
    [10121,"08/23/2015 08:00","61,4","4,74","ND","ND","ND","ND"],
    [10122,"08/23/2015 09:00","58,6","14,62","ND","ND","ND","ND"],
    [10123,"08/23/2015 10:00","49,6","12,68","ND","ND","ND","ND"],
    [10124,"08/23/2015 11:00","44,9","10,3","ND","ND","ND","ND"],
    [10125,"08/23/2015 12:00","53,6","8,75","ND","ND","ND","ND"],
    [10126,"08/23/2015 13:00","74,8","10,56","ND","ND","ND","ND"],
    [10127,"08/23/2015 14:00","41,6","9,46","ND","ND","ND","ND"],
    [10128,"08/23/2015 15:00","26,3","1,83","ND","ND","ND","ND"],
    [10129,"08/23/2015 16:00","16,4","1,02","ND","ND","ND","ND"],
    [10130,"08/23/2015 17:00","22,3","1,15","ND","ND","ND","ND"],
    [10131,"08/23/2015 18:00","28,5","0,94","ND","ND","ND","ND"],
    [10132,"08/23/2015 19:00","20,9","0,79","ND","ND","ND","ND"],
    [10133,"08/23/2015 20:00","20,9","0,97","ND","ND","ND","ND"],
    [10134,"08/23/2015 21:00","12,9","0,97","ND","ND","ND","ND"],
    [10135,"08/23/2015 22:00","35","1,7","ND","ND","ND","ND"],
    [10136,"08/23/2015 23:00","49,7","3,2","ND","ND","ND","ND"],
    [10137,"08/24/2015 00:00","55,5","2,04","ND","ND","ND","ND"],
    [10138,"08/24/2015 01:00","45,8","2,75","ND","ND","ND","ND"],
    [10139,"08/24/2015 02:00","43,7","3,67","ND","ND","ND","ND"],
    [10140,"08/24/2015 03:00","41,2","8,1","ND","ND","ND","ND"],
    [10141,"08/24/2015 04:00","38,4","6,68","ND","ND","ND","ND"],
    [10142,"08/24/2015 05:00","46,5","6,34","ND","ND","ND","ND"],
    [10143,"08/24/2015 06:00","53,7","3,07","ND","ND","ND","ND"],
    [10144,"08/24/2015 07:00","50,4","2,52","ND","ND","ND","ND"],
    [10145,"08/24/2015 08:00","51,4","4,61","ND","ND","ND","ND"],
    [10146,"08/24/2015 09:00","44,2","8,7","ND","ND","ND","ND"],
    [10147,"08/24/2015 10:00","34,1","8,28","ND","ND","ND","ND"],
    [10148,"08/24/2015 11:00","ND","42,32","ND","ND","ND","ND"],
    [10149,"08/24/2015 12:00","ND","ND","ND","ND","ND","ND"],
    [10150,"08/24/2015 13:00","ND","5,03","ND","ND","ND","ND"],
    [10151,"08/24/2015 14:00","ND","3,67","ND","ND","ND","ND"],
    [10152,"08/24/2015 15:00","32,7","2,65","ND","ND","ND","ND"],
    [10153,"08/24/2015 16:00","36,4","2,96","ND","ND","ND","ND"],
    [10154,"08/24/2015 17:00","23,6","1,49","ND","ND","ND","ND"],
    [10155,"08/24/2015 18:00","21,1","1,13","ND","ND","ND","ND"],
    [10156,"08/24/2015 19:00","15,7","1,05","ND","ND","ND","ND"],
    [10157,"08/24/2015 20:00","15,5","1,02","ND","ND","ND","ND"],
    [10158,"08/24/2015 21:00","12,5","0,84","ND","ND","ND","ND"],
    [10159,"08/24/2015 22:00","13,4","0,86","ND","ND","ND","ND"],
    [10160,"08/24/2015 23:00","69","2,57","ND","ND","ND","ND"],
    [10161,"08/25/2015 00:00","45,3","1,78","ND","ND","ND","ND"],
    [10162,"08/25/2015 01:00","18,1","1,18","ND","ND","ND","ND"],
    [10163,"08/25/2015 02:00","34,9","1,78","ND","ND","ND","ND"],
    [10164,"08/25/2015 03:00","20,6","1","ND","ND","ND","ND"],
    [10165,"08/25/2015 04:00","26","1,05","ND","ND","ND","ND"],
    [10166,"08/25/2015 05:00","29,5","1,21","ND","ND","ND","ND"],
    [10167,"08/25/2015 06:00","41,6","1,34","ND","ND","ND","ND"],
    [10168,"08/25/2015 07:00","61","2,23","ND","ND","ND","ND"],
    [10169,"08/25/2015 08:00","70,3","5,35","ND","ND","ND","ND"],
    [10170,"08/25/2015 09:00","64,3","10,69","ND","ND","ND","ND"],
    [10171,"08/25/2015 10:00","58,2","13,21","ND","ND","ND","ND"],
    [10172,"08/25/2015 11:00","54,4","10,61","ND","ND","ND","ND"],
    [10173,"08/25/2015 12:00","59,4","7,7","ND","ND","ND","ND"],
    [10174,"08/25/2015 13:00","53,9","7,62","ND","ND","ND","ND"],
    [10175,"08/25/2015 14:00","54,8","6,66","ND","ND","ND","ND"],
    [10176,"08/25/2015 15:00","51,3","4,66","ND","ND","ND","ND"],
    [10177,"08/25/2015 16:00","34,3","2,62","ND","ND","ND","ND"],
    [10178,"08/25/2015 17:00","30,8","1,68","ND","ND","ND","ND"],
    [10179,"08/25/2015 18:00","20,8","0,97","ND","ND","ND","ND"],
    [10180,"08/25/2015 19:00","18","0,97","ND","ND","ND","ND"],
    [10181,"08/25/2015 20:00","13","0,79","ND","ND","ND","ND"],
    [10182,"08/25/2015 21:00","13,9","1,07","ND","ND","ND","ND"],
    [10183,"08/25/2015 22:00","35,8","1,78","ND","ND","ND","ND"],
    [10184,"08/25/2015 23:00","71,8","3,54","ND","ND","ND","ND"],
    [10185,"08/26/2015 00:00","65","3,59","ND","ND","ND","ND"],
    [10186,"08/26/2015 01:00","42","1,91","ND","ND","ND","ND"],
    [10187,"08/26/2015 02:00","41,2","3,07","ND","ND","ND","ND"],
    [10188,"08/26/2015 03:00","63,7","9,85","ND","ND","ND","ND"],
    [10189,"08/26/2015 04:00","53,4","9,09","ND","ND","ND","ND"],
    [10190,"08/26/2015 05:00","50,4","5,24","ND","ND","ND","ND"],
    [10191,"08/26/2015 06:00","65,3","4,24","ND","ND","ND","ND"],
    [10192,"08/26/2015 07:00","70,9","6,97","ND","ND","ND","ND"],
    [10193,"08/26/2015 08:00","85","9,59","ND","ND","ND","ND"],
    [10194,"08/26/2015 09:00","85","14,78","ND","ND","ND","ND"],
    [10195,"08/26/2015 10:00","59,4","11,63","ND","ND","ND","ND"],
    [10196,"08/26/2015 11:00","46,9","6,81","ND","ND","ND","ND"],
    [10197,"08/26/2015 12:00","46,9","7,62","ND","ND","ND","ND"],
    [10198,"08/26/2015 13:00","72,1","17,45","ND","ND","ND","ND"],
    [10199,"08/26/2015 14:00","59,2","16,17","ND","ND","ND","ND"],
    [10200,"08/26/2015 15:00","16,6","1,83","ND","ND","ND","ND"],
    [10201,"08/26/2015 16:00","16,1","1,02","ND","ND","ND","ND"],
    [10202,"08/26/2015 17:00","14,7","1,05","ND","ND","ND","ND"],
    [10203,"08/26/2015 18:00","17,5","1,23","ND","ND","ND","ND"],
    [10204,"08/26/2015 19:00","19,8","1","ND","ND","ND","ND"],
    [10205,"08/26/2015 20:00","13,7","0,97","ND","ND","ND","ND"],
    [10206,"08/26/2015 21:00","13,7","0,92","ND","ND","ND","ND"],
    [10207,"08/26/2015 22:00","9,2","0,68","ND","ND","ND","ND"],
    [10208,"08/26/2015 23:00","41,4","2,04","ND","ND","ND","ND"],
    [10209,"08/27/2015 00:00","55,7","2,07","ND","ND","ND","ND"],
    [10210,"08/27/2015 01:00","56,4","2,65","ND","ND","ND","ND"],
    [10211,"08/27/2015 02:00","57,1","3,64","ND","ND","ND","ND"],
    [10212,"08/27/2015 03:00","36,9","3,51","ND","ND","ND","ND"],
    [10213,"08/27/2015 04:00","38,2","5,63","ND","ND","ND","ND"],
    [10214,"08/27/2015 05:00","32,9","3,04","ND","ND","ND","ND"],
    [10215,"08/27/2015 06:00","53,8","2,02","ND","ND","ND","ND"],
    [10216,"08/27/2015 07:00","77","4,72","ND","ND","ND","ND"],
    [10217,"08/27/2015 08:00","87,6","7,42","ND","ND","ND","ND"],
    [10218,"08/27/2015 09:00","93,3","12,11","ND","ND","ND","ND"],
    [10219,"08/27/2015 10:00","64,9","12,13","ND","ND","ND","ND"],
    [10220,"08/27/2015 11:00","46,7","9,25","ND","ND","ND","ND"],
    [10221,"08/27/2015 12:00","54,1","9,77","ND","ND","ND","ND"],
    [10222,"08/27/2015 13:00","63","9,59","ND","ND","ND","ND"],
    [10223,"08/27/2015 14:00","57,9","7,83","ND","ND","ND","ND"],
    [10224,"08/27/2015 15:00","66,8","7,21","ND","ND","ND","ND"],
    [10225,"08/27/2015 16:00","40,4","3,77","ND","ND","ND","ND"],
    [10226,"08/27/2015 17:00","23,2","1,21","ND","ND","ND","ND"],
    [10227,"08/27/2015 18:00","22,5","1,02","ND","ND","ND","ND"],
    [10228,"08/27/2015 19:00","21,8","1,18","ND","ND","ND","ND"],
    [10229,"08/27/2015 20:00","21,8","1,89","ND","ND","ND","ND"],
    [10230,"08/27/2015 21:00","49,6","1,89","ND","ND","ND","ND"],
    [10231,"08/27/2015 22:00","58,9","2,07","ND","ND","ND","ND"],
    [10232,"08/27/2015 23:00","48,5","2,07","ND","ND","ND","ND"],
    [10233,"08/28/2015 00:00","88,2","4,77","ND","ND","ND","ND"],
    [10234,"08/28/2015 01:00","57,1","2,44","ND","ND","ND","ND"],
    [10235,"08/28/2015 02:00","67,5","3,01","ND","ND","ND","ND"],
    [10236,"08/28/2015 03:00","56,6","3,01","ND","ND","ND","ND"],
    [10237,"08/28/2015 04:00","50,8","2,78","ND","ND","ND","ND"],
    [10238,"08/28/2015 05:00","52,8","2,15","ND","ND","ND","ND"],
    [10239,"08/28/2015 06:00","61,8","2,52","ND","ND","ND","ND"],
    [10240,"08/28/2015 07:00","86,7","3,96","ND","ND","ND","ND"],
    [10241,"08/28/2015 08:00","89,9","10,11","ND","ND","ND","ND"],
    [10242,"08/28/2015 09:00","92","40,77","ND","ND","ND","ND"],
    [10243,"08/28/2015 10:00","82,8","16,11","ND","ND","ND","ND"],
    [10244,"08/28/2015 11:00","70,4","18,39","ND","ND","ND","ND"],
    [10245,"08/28/2015 12:00","58","13,31","ND","ND","ND","ND"],
    [10246,"08/28/2015 13:00","52,5","7,68","ND","ND","ND","ND"],
    [10247,"08/28/2015 14:00","39,2","4,77","ND","ND","ND","ND"],
    [10248,"08/28/2015 15:00","50,4","2,93","ND","ND","ND","ND"],
    [10249,"08/28/2015 16:00","31,4","1,23","ND","ND","ND","ND"],
    [10250,"08/28/2015 17:00","36,6","0,86","ND","ND","ND","ND"],
    [10251,"08/28/2015 18:00","23,3","0,76","ND","ND","ND","ND"],
    [10252,"08/28/2015 19:00","18,2","1,26","ND","ND","ND","ND"],
    [10253,"08/28/2015 20:00","33,2","1,68","ND","ND","ND","ND"],
    [10254,"08/28/2015 21:00","47","2,28","ND","ND","ND","ND"],
    [10255,"08/28/2015 22:00","38,6","2,12","ND","ND","ND","ND"],
    [10256,"08/28/2015 23:00","46,1","2,59","ND","ND","ND","ND"],
    [10257,"08/29/2015 00:00","51,8","2,28","ND","ND","ND","ND"],
    [10258,"08/29/2015 01:00","75,7","3,67","ND","ND","ND","ND"],
    [10259,"08/29/2015 02:00","65,4","2,78","ND","ND","ND","ND"],
    [10260,"08/29/2015 03:00","54,2","2,38","ND","ND","ND","ND"],
    [10261,"08/29/2015 04:00","54,9","2,33","ND","ND","ND","ND"],
    [10262,"08/29/2015 05:00","52","2,33","ND","ND","ND","ND"],
    [10263,"08/29/2015 06:00","53,4","2,41","ND","ND","ND","ND"],
    [10264,"08/29/2015 07:00","53,4","2,67","ND","ND","ND","ND"],
    [10265,"08/29/2015 08:00","121,7","7,23","ND","ND","ND","ND"],
    [10266,"08/29/2015 09:00","88,9","9,75","ND","ND","ND","ND"],
    [10267,"08/29/2015 10:00","67","9,33","ND","ND","ND","ND"],
    [10268,"08/29/2015 11:00","48,8","6,16","ND","ND","ND","ND"],
    [10269,"08/29/2015 12:00","48,8","4,66","ND","ND","ND","ND"],
    [10270,"08/29/2015 13:00","21,2","2,75","ND","ND","ND","ND"],
    [10271,"08/29/2015 14:00","23","2,73","ND","ND","ND","ND"],
    [10272,"08/29/2015 15:00","47,3","2,91","ND","ND","ND","ND"],
    [10273,"08/29/2015 16:00","30,1","1,57","ND","ND","ND","ND"],
    [10274,"08/29/2015 17:00","66,6","1,21","ND","ND","ND","ND"],
    [10275,"08/29/2015 18:00","30","1,47","ND","ND","ND","ND"],
    [10276,"08/29/2015 19:00","34","1,65","ND","ND","ND","ND"],
    [10277,"08/29/2015 20:00","24,5","1,21","ND","ND","ND","ND"],
    [10278,"08/29/2015 21:00","38,1","1,99","ND","ND","ND","ND"],
    [10279,"08/29/2015 22:00","46,5","2,23","ND","ND","ND","ND"],
    [10280,"08/29/2015 23:00","90","4,32","ND","ND","ND","ND"],
    [10281,"08/30/2015 00:00","42","2,12","ND","ND","ND","ND"],
    [10282,"08/30/2015 01:00","51,6","2,38","ND","ND","ND","ND"],
    [10283,"08/30/2015 02:00","52,1","2,07","ND","ND","ND","ND"],
    [10284,"08/30/2015 03:00","45,8","1,99","ND","ND","ND","ND"],
    [10285,"08/30/2015 04:00","45,2","2,07","ND","ND","ND","ND"],
    [10286,"08/30/2015 05:00","44,6","1,94","ND","ND","ND","ND"],
    [10287,"08/30/2015 06:00","39,1","1,83","ND","ND","ND","ND"],
    [10288,"08/30/2015 07:00","53,8","1,94","ND","ND","ND","ND"],
    [10289,"08/30/2015 08:00","52,6","2,93","ND","ND","ND","ND"],
    [10290,"08/30/2015 09:00","80,1","5,45","ND","ND","ND","ND"],
    [10291,"08/30/2015 10:00","55,7","6,37","ND","ND","ND","ND"],
    [10292,"08/30/2015 11:00","65,8","7,65","ND","ND","ND","ND"],
    [10293,"08/30/2015 12:00","83,4","19,23","ND","ND","ND","ND"],
    [10294,"08/30/2015 13:00","73,3","13,73","ND","ND","ND","ND"],
    [10295,"08/30/2015 14:00","76,8","15,59","ND","ND","ND","ND"],
    [10296,"08/30/2015 15:00","59,2","9,98","ND","ND","ND","ND"],
    [10297,"08/30/2015 16:00","24,3","2,67","ND","ND","ND","ND"],
    [10298,"08/30/2015 17:00","22,8","2,15","ND","ND","ND","ND"],
    [10299,"08/30/2015 18:00","34,4","2,7","ND","ND","ND","ND"],
    [10300,"08/30/2015 19:00","25,8","1,7","ND","ND","ND","ND"],
    [10301,"08/30/2015 20:00","27","1,7","ND","ND","ND","ND"],
    [10302,"08/30/2015 21:00","23,2","1,49","ND","ND","ND","ND"],
    [10303,"08/30/2015 22:00","41,6","2,02","ND","ND","ND","ND"],
    [10304,"08/30/2015 23:00","42,9","2,12","ND","ND","ND","ND"],
    [10305,"08/31/2015 00:00","50,9","2,44","ND","ND","ND","ND"],
    [10306,"08/31/2015 01:00","55,6","2,17","ND","ND","ND","ND"],
    [10307,"08/31/2015 02:00","35,6","1,94","ND","ND","ND","ND"],
    [10308,"08/31/2015 03:00","39,7","1,86","ND","ND","ND","ND"],
    [10309,"08/31/2015 04:00","60","2,99","ND","ND","ND","ND"],
    [10310,"08/31/2015 05:00","65,5","3,69","ND","ND","ND","ND"],
    [10311,"08/31/2015 06:00","98,9","2,7","ND","ND","ND","ND"],
    [10312,"08/31/2015 07:00","88,5","2,65","ND","ND","ND","ND"],
    [10313,"08/31/2015 08:00","79,9","5,37","ND","ND","ND","ND"],
    [10314,"08/31/2015 09:00","79,3","8,07","ND","ND","ND","ND"],
    [10315,"08/31/2015 10:00","86,4","14,96","ND","ND","ND","ND"],
    [10316,"08/31/2015 11:00","99,1","15,9","ND","ND","ND","ND"],
    [10317,"08/31/2015 12:00","87,9","15,72","ND","ND","ND","ND"],
    [10318,"08/31/2015 13:00","81","19,84","ND","ND","ND","ND"],
    [10319,"08/31/2015 14:00","56,1","9,56","ND","ND","ND","ND"],
    [10320,"08/31/2015 15:00","41,6","5,42","ND","ND","ND","ND"],
    [10321,"08/31/2015 16:00","27","3,88","ND","ND","ND","ND"],
    [10322,"08/31/2015 17:00","39","1,97","ND","ND","ND","ND"],
    [10323,"08/31/2015 18:00","23,6","1,39","ND","ND","ND","ND"],
    [10324,"08/31/2015 19:00","27","1,55","ND","ND","ND","ND"],
    [10325,"08/31/2015 20:00","21,5","1,39","ND","ND","ND","ND"],
    [10326,"08/31/2015 21:00","17,7","1,21","ND","ND","ND","ND"],
    [10327,"08/31/2015 22:00","32,7","2,23","ND","ND","ND","ND"],
    [10328,"08/31/2015 23:00","89,8","3,83","ND","ND","ND","ND"],
    [10329,"42013","ND","1,89","ND","ND","ND","ND"],
    [10330,"42013,04167","39,8","2,15","ND","ND","ND","ND"],
    [10331,"42013,08333","42,8","2,36","ND","ND","ND","ND"],
    [10332,"42013,125","38,8","1,94","ND","ND","ND","ND"],
    [10333,"42013,16667","37,4","2,23","ND","ND","ND","ND"],
    [10334,"42013,20833","47,3","2,54","ND","ND","ND","ND"],
    [10335,"42013,25","65","2,57","ND","ND","ND","ND"],
    [10336,"42013,29167","104,2","3,3","ND","ND","ND","ND"],
    [10337,"42013,33333","91","7,55","ND","ND","ND","ND"],
    [10338,"42013,375","88,5","11,11","ND","ND","ND","ND"],
    [10339,"42013,41667","47,9","17,9","ND","ND","ND","ND"],
    [10340,"42013,45833","52,1","10,98","ND","ND","ND","ND"],
    [10341,"42013,5","59,1","9,77","ND","ND","ND","ND"],
    [10342,"42013,54167","50,7","9,14","ND","ND","ND","ND"],
    [10343,"42013,58333","50,7","6,18","ND","ND","ND","ND"],
    [10344,"42013,625","77,5","7,02","ND","ND","ND","ND"],
    [10345,"42013,66667","39,3","2,65","ND","ND","ND","ND"],
    [10346,"42013,70833","28,1","1,23","ND","ND","ND","ND"],
    [10347,"42013,75","21,4","1,18","ND","ND","ND","ND"],
    [10348,"42013,79167","23,1","1,31","ND","ND","ND","ND"],
    [10349,"42013,83333","18,9","1,36","ND","ND","ND","ND"],
    [10350,"42013,875","37,6","1,91","ND","ND","ND","ND"],
    [10351,"42013,91667","53,6","2,78","ND","ND","ND","ND"],
    [10352,"42013,95833","81,2","3,48","ND","ND","ND","ND"],
    [10353,"42044","48,9","1,97","ND","ND","ND","ND"],
    [10354,"42044,04167","43,8","1,78","ND","ND","ND","ND"],
    [10355,"42044,08333","34,7","1,62","ND","ND","ND","ND"],
    [10356,"42044,125","35,8","1,86","ND","ND","ND","ND"],
    [10357,"42044,16667","60","2,62","ND","ND","ND","ND"],
    [10358,"42044,20833","57,8","4,19","ND","ND","ND","ND"],
    [10359,"42044,25","61,3","2,62","ND","ND","ND","ND"],
    [10360,"42044,29167","86,4","4,11","ND","ND","ND","ND"],
    [10361,"42044,33333","87,9","7,26","ND","ND","ND","ND"],
    [10362,"42044,375","62,1","11,84","ND","ND","ND","ND"],
    [10363,"42044,41667","63,5","ND","ND","ND","ND","ND"],
    [10364,"42044,45833","59,9","12,16","ND","ND","ND","ND"],
    [10365,"42044,5","48,4","9,22","ND","ND","ND","ND"],
    [10366,"42044,54167","50,8","7,78","ND","ND","ND","ND"],
    [10367,"42044,58333","42,5","5,58","ND","ND","ND","ND"],
    [10368,"42044,625","28,4","3,69","ND","ND","ND","ND"],
    [10369,"42044,66667","56,4","2,75","ND","ND","ND","ND"],
    [10370,"42044,70833","41,6","3,41","ND","ND","ND","ND"],
    [10371,"42044,75","39,7","2,59","ND","ND","ND","ND"],
    [10372,"42044,79167","36,7","2,2","ND","ND","ND","ND"],
    [10373,"42044,83333","32,4","2,04","ND","ND","ND","ND"],
    [10374,"42044,875","27,1","2,12","ND","ND","ND","ND"],
    [10375,"42044,91667","30,8","2,02","ND","ND","ND","ND"],
    [10376,"42044,95833","32,6","1,76","ND","ND","ND","ND"],
    [10377,"42072","55","2,25","ND","ND","ND","ND"],
    [10378,"42072,04167","36,3","1,57","ND","ND","ND","ND"],
    [10379,"42072,08333","31","1,55","ND","ND","ND","ND"],
    [10380,"42072,125","35","2,86","ND","ND","ND","ND"],
    [10381,"42072,16667","37,6","5","ND","ND","ND","ND"],
    [10382,"42072,20833","28,8","3,04","ND","ND","ND","ND"],
    [10383,"42072,25","54,7","2,46","ND","ND","ND","ND"],
    [10384,"42072,29167","89,4","3,83","ND","ND","ND","ND"],
    [10385,"42072,33333","88","3,8","ND","ND","ND","ND"],
    [10386,"42072,375","91,3","8,38","ND","ND","ND","ND"],
    [10387,"42072,41667","67,4","8,41","ND","ND","ND","ND"],
    [10388,"42072,45833","60,1","7,73","ND","ND","ND","ND"],
    [10389,"42072,5","58,3","11,9","ND","ND","ND","ND"],
    [10390,"42072,54167","56,2","13,44","ND","ND","ND","ND"],
    [10391,"42072,58333","51,2","8,91","ND","ND","ND","ND"],
    [10392,"42072,625","44","6,73","ND","ND","ND","ND"],
    [10393,"42072,66667","65,4","4,09","ND","ND","ND","ND"],
    [10394,"42072,70833","39,1","1,89","ND","ND","ND","ND"],
    [10395,"42072,75","41","1,18","ND","ND","ND","ND"],
    [10396,"42072,79167","24,2","0,86","ND","ND","ND","ND"],
    [10397,"42072,83333","16,6","0,97","ND","ND","ND","ND"],
    [10398,"42072,875","17,9","1,26","ND","ND","ND","ND"],
    [10399,"42072,91667","17,5","1,49","ND","ND","ND","ND"],
    [10400,"42072,95833","57,5","2,25","ND","ND","ND","ND"],
    [10401,"42103","61,1","2,44","ND","ND","ND","ND"],
    [10402,"42103,04167","39,9","1,73","ND","ND","ND","ND"],
    [10403,"42103,08333","39,6","1,91","ND","ND","ND","ND"],
    [10404,"42103,125","37,9","1,73","ND","ND","ND","ND"],
    [10405,"42103,16667","37,3","1,99","ND","ND","ND","ND"],
    [10406,"42103,20833","47,2","2,46","ND","ND","ND","ND"],
    [10407,"42103,25","63,8","2,59","ND","ND","ND","ND"],
    [10408,"42103,29167","78,9","3,28","ND","ND","ND","ND"],
    [10409,"42103,33333","78,9","6,24","ND","ND","ND","ND"],
    [10410,"42103,375","63,6","6,63","ND","ND","ND","ND"],
    [10411,"42103,41667","43,6","5,16","ND","ND","ND","ND"],
    [10412,"42103,45833","35","5,97","ND","ND","ND","ND"],
    [10413,"42103,5","52,8","6,03","ND","ND","ND","ND"],
    [10414,"42103,54167","60,3","5,58","ND","ND","ND","ND"],
    [10415,"42103,58333","57,3","6,39","ND","ND","ND","ND"],
    [10416,"42103,625","26,4","1,49","ND","ND","ND","ND"],
    [10417,"42103,66667","35,7","0,79","ND","ND","ND","ND"],
    [10418,"42103,70833","36,6","0,76","ND","ND","ND","ND"],
    [10419,"42103,75","29,2","0,84","ND","ND","ND","ND"],
    [10420,"42103,79167","35,8","0,97","ND","ND","ND","ND"],
    [10421,"42103,83333","20,6","1,02","ND","ND","ND","ND"],
    [10422,"42103,875","45,9","1,49","ND","ND","ND","ND"],
    [10423,"42103,91667","60,8","2,54","ND","ND","ND","ND"],
    [10424,"42103,95833","70,3","2,73","ND","ND","ND","ND"],
    [10425,"42133","81,6","3,77","ND","ND","ND","ND"],
    [10426,"42133,04167","55,3","2,41","ND","ND","ND","ND"],
    [10427,"42133,08333","79,6","5,11","ND","ND","ND","ND"],
    [10428,"42133,125","67","7,13","ND","ND","ND","ND"],
    [10429,"42133,16667","43,5","2,75","ND","ND","ND","ND"],
    [10430,"42133,20833","49,1","2,54","ND","ND","ND","ND"],
    [10431,"42133,25","57,5","2,49","ND","ND","ND","ND"],
    [10432,"42133,29167","63,8","3,43","ND","ND","ND","ND"],
    [10433,"42133,33333","108,1","5,37","ND","ND","ND","ND"],
    [10434,"42133,375","131,1","10,06","ND","ND","ND","ND"],
    [10435,"42133,41667","131","19,97","ND","ND","ND","ND"],
    [10436,"42133,45833","106,2","20,1","ND","ND","ND","ND"],
    [10437,"42133,5","84,9","18,08","ND","ND","ND","ND"],
    [10438,"42133,54167","89,8","16,8","ND","ND","ND","ND"],
    [10439,"42133,58333","49","12,39","ND","ND","ND","ND"],
    [10440,"42133,625","10,2","1,68","ND","ND","ND","ND"],
    [10441,"42133,66667","12,6","1,18","ND","ND","ND","ND"],
    [10442,"42133,70833","15,2","1,18","ND","ND","ND","ND"],
    [10443,"42133,75","18,6","1,18","ND","ND","ND","ND"],
    [10444,"42133,79167","18,4","1,07","ND","ND","ND","ND"],
    [10445,"42133,83333","15,7","0,94","ND","ND","ND","ND"],
    [10446,"42133,875","7,9","0,84","ND","ND","ND","ND"],
    [10447,"42133,91667","28,8","1,34","ND","ND","ND","ND"],
    [10448,"42133,95833","78,4","2,65","ND","ND","ND","ND"],
    [10449,"42164","33,8","1,65","ND","ND","ND","ND"],
    [10450,"42164,04167","67,2","3,25","ND","ND","ND","ND"],
    [10451,"42164,08333","64,2","2,1","ND","ND","ND","ND"],
    [10452,"42164,125","61,6","4,06","ND","ND","ND","ND"],
    [10453,"42164,16667","47,9","8,12","ND","ND","ND","ND"],
    [10454,"42164,20833","47,9","6,52","ND","ND","ND","ND"],
    [10455,"42164,25","54,6","4,85","ND","ND","ND","ND"],
    [10456,"42164,29167","55,9","3,75","ND","ND","ND","ND"],
    [10457,"42164,33333","60,7","4,93","ND","ND","ND","ND"],
    [10458,"42164,375","74,3","13,15","ND","ND","ND","ND"],
    [10459,"42164,41667","74,8","41,58","ND","ND","ND","ND"],
    [10460,"42164,45833","55,8","23,48","ND","ND","ND","ND"],
    [10461,"42164,5","54,6","17,42","ND","ND","ND","ND"],
    [10462,"42164,54167","52,9","11,06","ND","ND","ND","ND"],
    [10463,"42164,58333","48,9","7,86","ND","ND","ND","ND"],
    [10464,"42164,625","23,8","4,17","ND","ND","ND","ND"],
    [10465,"42164,66667","19,6","1,36","ND","ND","ND","ND"],
    [10466,"42164,70833","18,7","1,13","ND","ND","ND","ND"],
    [10467,"42164,75","23,8","0,94","ND","ND","ND","ND"],
    [10468,"42164,79167","18,4","0,94","ND","ND","ND","ND"],
    [10469,"42164,83333","78,1","3,75","ND","ND","ND","ND"],
    [10470,"42164,875","58,6","2,8","ND","ND","ND","ND"],
    [10471,"42164,91667","47","1,89","ND","ND","ND","ND"],
    [10472,"42164,95833","45,9","1,76","ND","ND","ND","ND"],
    [10473,"42194","77,6","3,46","ND","ND","ND","ND"],
    [10474,"42194,04167","31,1","1,31","ND","ND","ND","ND"],
    [10475,"42194,08333","33,1","1,15","ND","ND","ND","ND"],
    [10476,"42194,125","28,7","1,13","ND","ND","ND","ND"],
    [10477,"42194,16667","32,9","1,13","ND","ND","ND","ND"],
    [10478,"42194,20833","32,3","1,13","ND","ND","ND","ND"],
    [10479,"42194,25","52,3","1,44","ND","ND","ND","ND"],
    [10480,"42194,29167","74,6","2,17","ND","ND","ND","ND"],
    [10481,"42194,33333","85,8","3,01","ND","ND","ND","ND"],
    [10482,"42194,375","91,7","5,84","ND","ND","ND","ND"],
    [10483,"42194,41667","66,6","10,35","ND","ND","ND","ND"],
    [10484,"42194,45833","41,7","12,68","ND","ND","ND","ND"],
    [10485,"42194,5","35,3","6,16","ND","ND","ND","ND"],
    [10486,"42194,54167","45,7","7,1","ND","ND","ND","ND"],
    [10487,"42194,58333","40,3","5,14","ND","ND","ND","ND"],
    [10488,"42194,625","37,7","4,09","ND","ND","ND","ND"],
    [10489,"42194,66667","48,9","3,2","ND","ND","ND","ND"],
    [10490,"42194,70833","37,8","2,15","ND","ND","ND","ND"],
    [10491,"42194,75","37,1","1,6","ND","ND","ND","ND"],
    [10492,"42194,79167","28","1,39","ND","ND","ND","ND"],
    [10493,"42194,83333","19,3","1,07","ND","ND","ND","ND"],
    [10494,"42194,875","18,3","0,97","ND","ND","ND","ND"],
    [10495,"42194,91667","9,5","0,92","ND","ND","ND","ND"],
    [10496,"42194,95833","22,5","1,34","ND","ND","ND","ND"],
    [10497,"42225","70,7","3,25","ND","ND","ND","ND"],
    [10498,"42225,04167","58,9","2,36","ND","ND","ND","ND"],
    [10499,"42225,08333","32,9","1,47","ND","ND","ND","ND"],
    [10500,"42225,125","32,5","1,52","ND","ND","ND","ND"],
    [10501,"42225,16667","27","1,44","ND","ND","ND","ND"],
    [10502,"42225,20833","26,9","1,39","ND","ND","ND","ND"],
    [10503,"42225,25","46,8","3,56","ND","ND","ND","ND"],
    [10504,"42225,29167","72,8","3,93","ND","ND","ND","ND"],
    [10505,"42225,33333","74,7","5,71","ND","ND","ND","ND"],
    [10506,"42225,375","73","18,47","ND","ND","ND","ND"],
    [10507,"42225,41667","48,7","13,57","ND","ND","ND","ND"],
    [10508,"42225,45833","56,6","16,27","ND","ND","ND","ND"],
    [10509,"42225,5","56","9,69","ND","ND","ND","ND"],
    [10510,"42225,54167","55,2","7,78","ND","ND","ND","ND"],
    [10511,"42225,58333","64,9","6,55","ND","ND","ND","ND"],
    [10512,"42225,625","45,7","3,07","ND","ND","ND","ND"],
    [10513,"42225,66667","30","1,49","ND","ND","ND","ND"],
    [10514,"42225,70833","33,8","1","ND","ND","ND","ND"],
    [10515,"42225,75","28,1","1,05","ND","ND","ND","ND"],
    [10516,"42225,79167","20,2","1,05","ND","ND","ND","ND"],
    [10517,"42225,83333","21,9","1,21","ND","ND","ND","ND"],
    [10518,"42225,875","19,1","0,79","ND","ND","ND","ND"],
    [10519,"42225,91667","19,8","1,18","ND","ND","ND","ND"],
    [10520,"42225,95833","70,7","3,22","ND","ND","ND","ND"],
    [10521,"42256","33,5","2,54","ND","ND","ND","ND"],
    [10522,"42256,04167","39,3","1,94","ND","ND","ND","ND"],
    [10523,"42256,08333","23","1,99","ND","ND","ND","ND"],
    [10524,"42256,125","32,2","1,76","ND","ND","ND","ND"],
    [10525,"42256,16667","28","1,94","ND","ND","ND","ND"],
    [10526,"42256,20833","40,1","1,81","ND","ND","ND","ND"],
    [10527,"42256,25","48,4","3,64","ND","ND","ND","ND"],
    [10528,"42256,29167","70,1","6,94","ND","ND","ND","ND"],
    [10529,"42256,33333","65,3","5","ND","ND","ND","ND"],
    [10530,"42256,375","37","5,45","ND","ND","ND","ND"],
    [10531,"42256,41667","30,5","4,06","ND","ND","ND","ND"],
    [10532,"42256,45833","29,1","3,93","ND","ND","ND","ND"],
    [10533,"42256,5","31","4,19","ND","ND","ND","ND"],
    [10534,"42256,54167","29,5","3,38","ND","ND","ND","ND"],
    [10535,"42256,58333","34,1","2,91","ND","ND","ND","ND"],
    [10536,"42256,625","26,4","1,89","ND","ND","ND","ND"],
    [10537,"42256,66667","13,6","0,81","ND","ND","ND","ND"],
    [10538,"42256,70833","16","0,73","ND","ND","ND","ND"],
    [10539,"42256,75","20","0,76","ND","ND","ND","ND"],
    [10540,"42256,79167","7,3","0,89","ND","ND","ND","ND"],
    [10541,"42256,83333","28,6","1,39","ND","ND","ND","ND"],
    [10542,"42256,875","54","2,65","ND","ND","ND","ND"],
    [10543,"42256,91667","55,1","2,23","ND","ND","ND","ND"],
    [10544,"42256,95833","37,2","2,88","ND","ND","ND","ND"],
    [10545,"42286","33,6","1,68","ND","ND","ND","ND"],
    [10546,"42286,04167","19,5","3,22","ND","ND","ND","ND"],
    [10547,"42286,08333","25,6","2,52","ND","ND","ND","ND"],
    [10548,"42286,125","42,8","3,93","ND","ND","ND","ND"],
    [10549,"42286,16667","31","3,01","ND","ND","ND","ND"],
    [10550,"42286,20833","34,1","3,17","ND","ND","ND","ND"],
    [10551,"42286,25","39,7","4,3","ND","ND","ND","ND"],
    [10552,"42286,29167","66,4","3,88","ND","ND","ND","ND"],
    [10553,"42286,33333","59","13,21","ND","ND","ND","ND"],
    [10554,"42286,375","44,8","11,66","ND","ND","ND","ND"],
    [10555,"42286,41667","49,2","9,67","ND","ND","ND","ND"],
    [10556,"42286,45833","51,5","9,59","ND","ND","ND","ND"],
    [10557,"42286,5","52,2","9,46","ND","ND","ND","ND"],
    [10558,"42286,54167","32,2","6,11","ND","ND","ND","ND"],
    [10559,"42286,58333","16,7","1,39","ND","ND","ND","ND"],
    [10560,"42286,625","15,4","1,18","ND","ND","ND","ND"],
    [10561,"42286,66667","17,9","1,07","ND","ND","ND","ND"],
    [10562,"42286,70833","17,5","0,89","ND","ND","ND","ND"],
    [10563,"42286,75","13,9","0,81","ND","ND","ND","ND"],
    [10564,"42286,79167","10,5","0,92","ND","ND","ND","ND"],
    [10565,"42286,83333","21,1","1,13","ND","ND","ND","ND"],
    [10566,"42286,875","44,2","2,04","ND","ND","ND","ND"],
    [10567,"42286,91667","46,9","2,73","ND","ND","ND","ND"],
    [10568,"42286,95833","37,6","1,73","ND","ND","ND","ND"],
    [10569,"42317","53,2","3,46","ND","ND","ND","ND"],
    [10570,"42317,04167","31","1,73","ND","ND","ND","ND"],
    [10571,"42317,08333","27","1,86","ND","ND","ND","ND"],
    [10572,"42317,125","28,3","1,86","ND","ND","ND","ND"],
    [10573,"42317,16667","28,3","1,83","ND","ND","ND","ND"],
    [10574,"42317,20833","30,8","2,1","ND","ND","ND","ND"],
    [10575,"42317,25","39,4","3,46","ND","ND","ND","ND"],
    [10576,"42317,29167","53,9","4,8","ND","ND","ND","ND"],
    [10577,"42317,33333","50,3","6,31","ND","ND","ND","ND"],
    [10578,"42317,375","54,4","5,76","ND","ND","ND","ND"],
    [10579,"42317,41667","53,4","5,45","ND","ND","ND","ND"],
    [10580,"42317,45833","45,1","6,76","ND","ND","ND","ND"],
    [10581,"42317,5","74,3","7,42","ND","ND","ND","ND"],
    [10582,"42317,54167","59,1","11,56","ND","ND","ND","ND"],
    [10583,"42317,58333","47,6","15,01","ND","ND","ND","ND"],
    [10584,"42317,625","39","19,73","ND","ND","ND","ND"],
    [10585,"42317,66667","31,9","5,97","ND","ND","ND","ND"],
    [10586,"42317,70833","33,7","5,58","ND","ND","ND","ND"],
    [10587,"42317,75","50,2","3,69","ND","ND","ND","ND"],
    [10588,"42317,79167","95,6","3,96","ND","ND","ND","ND"],
    [10589,"42317,83333","101,4","3,35","ND","ND","ND","ND"],
    [10590,"42317,875","82,8","3,07","ND","ND","ND","ND"],
    [10591,"42317,91667","86,6","4,22","ND","ND","ND","ND"],
    [10592,"42317,95833","58,5","4,19","ND","ND","ND","ND"],
    [10593,"42347","60,1","3,04","ND","ND","ND","ND"],
    [10594,"42347,04167","38,5","2,8","ND","ND","ND","ND"],
    [10595,"42347,08333","46,1","2,93","ND","ND","ND","ND"],
    [10596,"42347,125","35,8","3,43","ND","ND","ND","ND"],
    [10597,"42347,16667","38","2,36","ND","ND","ND","ND"],
    [10598,"42347,20833","36,4","2,36","ND","ND","ND","ND"],
    [10599,"42347,25","41,1","1,76","ND","ND","ND","ND"],
    [10600,"42347,29167","79,2","2,52","ND","ND","ND","ND"],
    [10601,"42347,33333","103,7","3,77","ND","ND","ND","ND"],
    [10602,"42347,375","111,3","10,56","ND","ND","ND","ND"],
    [10603,"42347,41667","74,1","8,78","ND","ND","ND","ND"],
    [10604,"42347,45833","86,9","5,71","ND","ND","ND","ND"],
    [10605,"42347,5","69,6","5,97","ND","ND","ND","ND"],
    [10606,"42347,54167","57,7","5,76","ND","ND","ND","ND"],
    [10607,"42347,58333","44,8","4,51","ND","ND","ND","ND"],
    [10608,"42347,625","36,6","3,56","ND","ND","ND","ND"],
    [10609,"42347,66667","74,4","3,04","ND","ND","ND","ND"],
    [10610,"42347,70833","57","3,69","ND","ND","ND","ND"],
    [10611,"42347,75","40","2,25","ND","ND","ND","ND"],
    [10612,"42347,79167","38,4","1,65","ND","ND","ND","ND"],
    [10613,"42347,83333","26,9","1,28","ND","ND","ND","ND"],
    [10614,"42347,875","22,8","1,44","ND","ND","ND","ND"],
    [10615,"42347,91667","60","2,78","ND","ND","ND","ND"],
    [10616,"42347,95833","68,3","4,06","ND","ND","ND","ND"],
    [10617,"09/13/2015 00:00","58,5","2,33","ND","ND","ND","ND"],
    [10618,"09/13/2015 01:00","72,4","2,73","ND","ND","ND","ND"],
    [10619,"09/13/2015 02:00","41,3","2,15","ND","ND","ND","ND"],
    [10620,"09/13/2015 03:00","34,5","2,04","ND","ND","ND","ND"],
    [10621,"09/13/2015 04:00","35,9","1,81","ND","ND","ND","ND"],
    [10622,"09/13/2015 05:00","30,2","1,49","ND","ND","ND","ND"],
    [10623,"09/13/2015 06:00","39","1,49","ND","ND","ND","ND"],
    [10624,"09/13/2015 07:00","49,5","2,12","ND","ND","ND","ND"],
    [10625,"09/13/2015 08:00","51,3","3,59","ND","ND","ND","ND"],
    [10626,"09/13/2015 09:00","68,9","12,39","ND","ND","ND","ND"],
    [10627,"09/13/2015 10:00","54,4","15,3","ND","ND","ND","ND"],
    [10628,"09/13/2015 11:00","52","11,48","ND","ND","ND","ND"],
    [10629,"09/13/2015 12:00","37,7","8,62","ND","ND","ND","ND"],
    [10630,"09/13/2015 13:00","39,5","6,42","ND","ND","ND","ND"],
    [10631,"09/13/2015 14:00","59,2","5,74","ND","ND","ND","ND"],
    [10632,"09/13/2015 15:00","42,6","5,19","ND","ND","ND","ND"],
    [10633,"09/13/2015 16:00","39,6","3,62","ND","ND","ND","ND"],
    [10634,"09/13/2015 17:00","48,3","2,1","ND","ND","ND","ND"],
    [10635,"09/13/2015 18:00","31,1","1,23","ND","ND","ND","ND"],
    [10636,"09/13/2015 19:00","20,6","1,23","ND","ND","ND","ND"],
    [10637,"09/13/2015 20:00","15,7","1,76","ND","ND","ND","ND"],
    [10638,"09/13/2015 21:00","65,1","2,67","ND","ND","ND","ND"],
    [10639,"09/13/2015 22:00","89","3,51","ND","ND","ND","ND"],
    [10640,"09/13/2015 23:00","60,8","2,91","ND","ND","ND","ND"],
    [10641,"09/14/2015 00:00","55,3","2,28","ND","ND","ND","ND"],
    [10642,"09/14/2015 01:00","71,4","2,49","ND","ND","ND","ND"],
    [10643,"09/14/2015 02:00","49,3","2,23","ND","ND","ND","ND"],
    [10644,"09/14/2015 03:00","41,8","2,04","ND","ND","ND","ND"],
    [10645,"09/14/2015 04:00","33,4","1,73","ND","ND","ND","ND"],
    [10646,"09/14/2015 05:00","38,1","2,02","ND","ND","ND","ND"],
    [10647,"09/14/2015 06:00","81,9","2,52","ND","ND","ND","ND"],
    [10648,"09/14/2015 07:00","105,9","3,46","ND","ND","ND","ND"],
    [10649,"09/14/2015 08:00","81,4","4,95","ND","ND","ND","ND"],
    [10650,"09/14/2015 09:00","98","25,7","ND","ND","ND","ND"],
    [10651,"09/14/2015 10:00","136","ND","ND","ND","ND","ND"],
    [10652,"09/14/2015 11:00","69","114,27","ND","ND","ND","ND"],
    [10653,"09/14/2015 12:00","79,1","13,91","ND","ND","ND","ND"],
    [10654,"09/14/2015 13:00","68,7","11,71","ND","ND","ND","ND"],
    [10655,"09/14/2015 14:00","38,9","6,13","ND","ND","ND","ND"],
    [10656,"09/14/2015 15:00","18,1","2,57","ND","ND","ND","ND"],
    [10657,"09/14/2015 16:00","100,1","4,72","ND","ND","ND","ND"],
    [10658,"09/14/2015 17:00","62,2","2,96","ND","ND","ND","ND"],
    [10659,"09/14/2015 18:00","46,1","1,57","ND","ND","ND","ND"],
    [10660,"09/14/2015 19:00","31,7","1,6","ND","ND","ND","ND"],
    [10661,"09/14/2015 20:00","35,3","1,41","ND","ND","ND","ND"],
    [10662,"09/14/2015 21:00","26,7","1,47","ND","ND","ND","ND"],
    [10663,"09/14/2015 22:00","26,7","1,36","ND","ND","ND","ND"],
    [10664,"09/14/2015 23:00","19,6","1,57","ND","ND","ND","ND"],
    [10665,"09/15/2015 00:00","57,6","1,94","ND","ND","ND","ND"],
    [10666,"09/15/2015 01:00","48,1","1,55","ND","ND","ND","ND"],
    [10667,"09/15/2015 02:00","57,2","1,49","ND","ND","ND","ND"],
    [10668,"09/15/2015 03:00","39,4","1,81","ND","ND","ND","ND"],
    [10669,"09/15/2015 04:00","39,2","1,89","ND","ND","ND","ND"],
    [10670,"09/15/2015 05:00","40,3","2,93","ND","ND","ND","ND"],
    [10671,"09/15/2015 06:00","61,2","3,3","ND","ND","ND","ND"],
    [10672,"09/15/2015 07:00","98,6","3,28","ND","ND","ND","ND"],
    [10673,"09/15/2015 08:00","80,8","6,63","ND","ND","ND","ND"],
    [10674,"09/15/2015 09:00","116,2","10,64","ND","ND","ND","ND"],
    [10675,"09/15/2015 10:00","75,9","13,23","ND","ND","ND","ND"],
    [10676,"09/15/2015 11:00","75,9","13,83","ND","ND","ND","ND"],
    [10677,"09/15/2015 12:00","70,4","10,66","ND","ND","ND","ND"],
    [10678,"09/15/2015 13:00","58,5","7,68","ND","ND","ND","ND"],
    [10679,"09/15/2015 14:00","72,7","5,58","ND","ND","ND","ND"],
    [10680,"09/15/2015 15:00","98,4","7,26","ND","ND","ND","ND"],
    [10681,"09/15/2015 16:00","49,8","2,78","ND","ND","ND","ND"],
    [10682,"09/15/2015 17:00","42,3","1,68","ND","ND","ND","ND"],
    [10683,"09/15/2015 18:00","54","1,1","ND","ND","ND","ND"],
    [10684,"09/15/2015 19:00","36,4","1,07","ND","ND","ND","ND"],
    [10685,"09/15/2015 20:00","29,5","1,02","ND","ND","ND","ND"],
    [10686,"09/15/2015 21:00","35,1","1,6","ND","ND","ND","ND"],
    [10687,"09/15/2015 22:00","36,1","1,83","ND","ND","ND","ND"],
    [10688,"09/15/2015 23:00","48,5","2,25","ND","ND","ND","ND"],
    [10689,"09/16/2015 00:00","65,5","3,14","ND","ND","ND","ND"],
    [10690,"09/16/2015 01:00","54,3","1,78","ND","ND","ND","ND"],
    [10691,"09/16/2015 02:00","46,5","1,55","ND","ND","ND","ND"],
    [10692,"09/16/2015 03:00","50","1,65","ND","ND","ND","ND"],
    [10693,"09/16/2015 04:00","51,4","2,31","ND","ND","ND","ND"],
    [10694,"09/16/2015 05:00","41,4","1,73","ND","ND","ND","ND"],
    [10695,"09/16/2015 06:00","55,4","1,73","ND","ND","ND","ND"],
    [10696,"09/16/2015 07:00","119,7","3,54","ND","ND","ND","ND"],
    [10697,"09/16/2015 08:00","88,1","6,5","ND","ND","ND","ND"],
    [10698,"09/16/2015 09:00","69,7","14,02","ND","ND","ND","ND"],
    [10699,"09/16/2015 10:00","61,4","13,08","ND","ND","ND","ND"],
    [10700,"09/16/2015 11:00","74,2","10,38","ND","ND","ND","ND"],
    [10701,"09/16/2015 12:00","80,5","17,24","ND","ND","ND","ND"],
    [10702,"09/16/2015 13:00","85,4","26,12","ND","ND","ND","ND"],
    [10703,"09/16/2015 14:00","32,5","4,69","ND","ND","ND","ND"],
    [10704,"09/16/2015 15:00","34","3,85","ND","ND","ND","ND"],
    [10705,"09/16/2015 16:00","80,1","5,82","ND","ND","ND","ND"],
    [10706,"09/16/2015 17:00","ND","18,08","ND","ND","ND","ND"],
    [10707,"09/16/2015 18:00","ND","13,28","ND","ND","ND","ND"],
    [10708,"09/16/2015 19:00","120,4","7,15","ND","ND","ND","ND"],
    [10709,"09/16/2015 20:00","85,9","4,95","ND","ND","ND","ND"],
    [10710,"09/16/2015 21:00","69,4","6,63","ND","ND","ND","ND"],
    [10711,"09/16/2015 22:00","69,4","4,77","ND","ND","ND","ND"],
    [10712,"09/16/2015 23:00","56,3","3,33","ND","ND","ND","ND"],
    [10713,"09/17/2015 00:00","7,6","1,62","ND","ND","ND","ND"],
    [10714,"09/17/2015 01:00","56,9","4,01","ND","ND","ND","ND"],
    [10715,"09/17/2015 02:00","45,4","6,05","ND","ND","ND","ND"],
    [10716,"09/17/2015 03:00","56,2","4,01","ND","ND","ND","ND"],
    [10717,"09/17/2015 04:00","38,7","6,6","ND","ND","ND","ND"],
    [10718,"09/17/2015 05:00","40,6","7,15","ND","ND","ND","ND"],
    [10719,"09/17/2015 06:00","61,8","5,4","ND","ND","ND","ND"],
    [10720,"09/17/2015 07:00","61,8","5,82","ND","ND","ND","ND"],
    [10721,"09/17/2015 08:00","70,6","7,78","ND","ND","ND","ND"],
    [10722,"09/17/2015 09:00","55","12,05","ND","ND","ND","ND"],
    [10723,"09/17/2015 10:00","46,3","8,2","ND","ND","ND","ND"],
    [10724,"09/17/2015 11:00","37,7","7,26","ND","ND","ND","ND"],
    [10725,"09/17/2015 12:00","30,9","5,16","ND","ND","ND","ND"],
    [10726,"09/17/2015 13:00","54,5","5,4","ND","ND","ND","ND"],
    [10727,"09/17/2015 14:00","68,7","8,75","ND","ND","ND","ND"],
    [10728,"09/17/2015 15:00","67,6","19,23","ND","ND","ND","ND"],
    [10729,"09/17/2015 16:00","28,5","2,65","ND","ND","ND","ND"],
    [10730,"09/17/2015 17:00","32,8","2,04","ND","ND","ND","ND"],
    [10731,"09/17/2015 18:00","32,6","2,54","ND","ND","ND","ND"],
    [10732,"09/17/2015 19:00","69,4","1,81","ND","ND","ND","ND"],
    [10733,"09/17/2015 20:00","17,2","1,6","ND","ND","ND","ND"],
    [10734,"09/17/2015 21:00","2","1,41","ND","ND","ND","ND"],
    [10735,"09/17/2015 22:00","38,3","2,59","ND","ND","ND","ND"],
    [10736,"09/17/2015 23:00","22,2","2,44","ND","ND","ND","ND"],
    [10737,"09/18/2015 00:00","19,8","2,7","ND","ND","ND","ND"],
    [10738,"09/18/2015 01:00","22,1","0,94","ND","ND","ND","ND"],
    [10739,"09/18/2015 02:00","21,9","0,94","ND","ND","ND","ND"],
    [10740,"09/18/2015 03:00","15,9","0,63","ND","ND","ND","ND"],
    [10741,"09/18/2015 04:00","13,9","2,1","ND","ND","ND","ND"],
    [10742,"09/18/2015 05:00","22,2","3,22","ND","ND","ND","ND"],
    [10743,"09/18/2015 06:00","38,5","2,31","ND","ND","ND","ND"],
    [10744,"09/18/2015 07:00","38,5","2,46","ND","ND","ND","ND"],
    [10745,"09/18/2015 08:00","41,7","4,06","ND","ND","ND","ND"],
    [10746,"09/18/2015 09:00","64,5","5,71","ND","ND","ND","ND"],
    [10747,"09/18/2015 10:00","64,5","5,9","ND","ND","ND","ND"],
    [10748,"09/18/2015 11:00","48,9","9,41","ND","ND","ND","ND"],
    [10749,"09/18/2015 12:00","39,1","14,73","ND","ND","ND","ND"],
    [10750,"09/18/2015 13:00","36,6","9,28","ND","ND","ND","ND"],
    [10751,"09/18/2015 14:00","6,3","5,45","ND","ND","ND","ND"],
    [10752,"09/18/2015 15:00","6,3","1,15","ND","ND","ND","ND"],
    [10753,"09/18/2015 16:00","25,5","0,92","ND","ND","ND","ND"],
    [10754,"09/18/2015 17:00","19,5","0,94","ND","ND","ND","ND"],
    [10755,"09/18/2015 18:00","31,9","1,49","ND","ND","ND","ND"],
    [10756,"09/18/2015 19:00","31","1,68","ND","ND","ND","ND"],
    [10757,"09/18/2015 20:00","8,2","1,44","ND","ND","ND","ND"],
    [10758,"09/18/2015 21:00","11","1,18","ND","ND","ND","ND"],
    [10759,"09/18/2015 22:00","38,7","1,7","ND","ND","ND","ND"],
    [10760,"09/18/2015 23:00","18,3","2,1","ND","ND","ND","ND"],
    [10761,"09/19/2015 00:00","25","2,96","ND","ND","ND","ND"],
    [10762,"09/19/2015 01:00","13,5","2,23","ND","ND","ND","ND"],
    [10763,"09/19/2015 02:00","16,8","1,89","ND","ND","ND","ND"],
    [10764,"09/19/2015 03:00","23","2,04","ND","ND","ND","ND"],
    [10765,"09/19/2015 04:00","20,8","1,65","ND","ND","ND","ND"],
    [10766,"09/19/2015 05:00","20,5","1,47","ND","ND","ND","ND"],
    [10767,"09/19/2015 06:00","19,2","1,15","ND","ND","ND","ND"],
    [10768,"09/19/2015 07:00","40","1,55","ND","ND","ND","ND"],
    [10769,"09/19/2015 08:00","40","6,16","ND","ND","ND","ND"],
    [10770,"09/19/2015 09:00","35,6","6,37","ND","ND","ND","ND"],
    [10771,"09/19/2015 10:00","32,5","4,85","ND","ND","ND","ND"],
    [10772,"09/19/2015 11:00","36,3","4,59","ND","ND","ND","ND"],
    [10773,"09/19/2015 12:00","40,4","4,38","ND","ND","ND","ND"],
    [10774,"09/19/2015 13:00","51,7","4,59","ND","ND","ND","ND"],
    [10775,"09/19/2015 14:00","47,1","5,21","ND","ND","ND","ND"],
    [10776,"09/19/2015 15:00","28,3","1,97","ND","ND","ND","ND"],
    [10777,"09/19/2015 16:00","20,4","0,84","ND","ND","ND","ND"],
    [10778,"09/19/2015 17:00","32,6","0,89","ND","ND","ND","ND"],
    [10779,"09/19/2015 18:00","15,6","0,68","ND","ND","ND","ND"],
    [10780,"09/19/2015 19:00","21","0,81","ND","ND","ND","ND"],
    [10781,"09/19/2015 20:00","64,1","5,21","ND","ND","ND","ND"],
    [10782,"09/19/2015 21:00","64,1","3,59","ND","ND","ND","ND"],
    [10783,"09/19/2015 22:00","38,3","3,59","ND","ND","ND","ND"],
    [10784,"09/19/2015 23:00","35,4","4,09","ND","ND","ND","ND"],
    [10785,"09/20/2015 00:00","37,4","4,4","ND","ND","ND","ND"],
    [10786,"09/20/2015 01:00","28,4","2,78","ND","ND","ND","ND"],
    [10787,"09/20/2015 02:00","35,7","6,71","ND","ND","ND","ND"],
    [10788,"09/20/2015 03:00","35,1","5,55","ND","ND","ND","ND"],
    [10789,"09/20/2015 04:00","36,9","5,06","ND","ND","ND","ND"],
    [10790,"09/20/2015 05:00","32,3","3,62","ND","ND","ND","ND"],
    [10791,"09/20/2015 06:00","29,7","4,9","ND","ND","ND","ND"],
    [10792,"09/20/2015 07:00","41","4,87","ND","ND","ND","ND"],
    [10793,"09/20/2015 08:00","78","21,51","ND","ND","ND","ND"],
    [10794,"09/20/2015 09:00","49,8","21,41","ND","ND","ND","ND"],
    [10795,"09/20/2015 10:00","38,8","9,25","ND","ND","ND","ND"],
    [10796,"09/20/2015 11:00","38,8","8,99","ND","ND","ND","ND"],
    [10797,"09/20/2015 12:00","40,9","9,83","ND","ND","ND","ND"],
    [10798,"09/20/2015 13:00","33","8,62","ND","ND","ND","ND"],
    [10799,"09/20/2015 14:00","51,5","7,42","ND","ND","ND","ND"],
    [10800,"09/20/2015 15:00","22","10,64","ND","ND","ND","ND"],
    [10801,"09/20/2015 16:00","18,9","8,65","ND","ND","ND","ND"],
    [10802,"09/20/2015 17:00","19,3","2,91","ND","ND","ND","ND"],
    [10803,"09/20/2015 18:00","17,3","2,41","ND","ND","ND","ND"],
    [10804,"09/20/2015 19:00","18,1","2,25","ND","ND","ND","ND"],
    [10805,"09/20/2015 20:00","25,1","2,46","ND","ND","ND","ND"],
    [10806,"09/20/2015 21:00","42,6","2,8","ND","ND","ND","ND"],
    [10807,"09/20/2015 22:00","52,6","3,3","ND","ND","ND","ND"],
    [10808,"09/20/2015 23:00","49,5","3,41","ND","ND","ND","ND"],
    [10809,"09/21/2015 00:00","50,3","4,14","ND","ND","ND","ND"],
    [10810,"09/21/2015 01:00","30,1","3,2","ND","ND","ND","ND"],
    [10811,"09/21/2015 02:00","30,1","2,49","ND","ND","ND","ND"],
    [10812,"09/21/2015 03:00","23,9","2,33","ND","ND","ND","ND"],
    [10813,"09/21/2015 04:00","25","2,33","ND","ND","ND","ND"],
    [10814,"09/21/2015 05:00","31,9","2,36","ND","ND","ND","ND"],
    [10815,"09/21/2015 06:00","47","2,86","ND","ND","ND","ND"],
    [10816,"09/21/2015 07:00","79,3","4,43","ND","ND","ND","ND"],
    [10817,"09/21/2015 08:00","87,8","6,34","ND","ND","ND","ND"],
    [10818,"09/21/2015 09:00","80,5","8,73","ND","ND","ND","ND"],
    [10819,"09/21/2015 10:00","69,1","21,04","ND","ND","ND","ND"],
    [10820,"09/21/2015 11:00","40,4","10,9","ND","ND","ND","ND"],
    [10821,"09/21/2015 12:00","40,4","7,31","ND","ND","ND","ND"],
    [10822,"09/21/2015 13:00","50,7","7,23","ND","ND","ND","ND"],
    [10823,"09/21/2015 14:00","15,5","3,25","ND","ND","ND","ND"],
    [10824,"09/21/2015 15:00","38,3","5,71","ND","ND","ND","ND"],
    [10825,"09/21/2015 16:00","23","3,69","ND","ND","ND","ND"],
    [10826,"09/21/2015 17:00","34,5","2,25","ND","ND","ND","ND"],
    [10827,"09/21/2015 18:00","50,1","2,1","ND","ND","ND","ND"],
    [10828,"09/21/2015 19:00","19,1","2,23","ND","ND","ND","ND"],
    [10829,"09/21/2015 20:00","19,7","2,41","ND","ND","ND","ND"],
    [10830,"09/21/2015 21:00","20,4","2,54","ND","ND","ND","ND"],
    [10831,"09/21/2015 22:00","38,3","3,25","ND","ND","ND","ND"],
    [10832,"09/21/2015 23:00","51,4","4,43","ND","ND","ND","ND"],
    [10833,"09/22/2015 00:00","51,3","3,38","ND","ND","ND","ND"],
    [10834,"09/22/2015 01:00","44,8","4,17","ND","ND","ND","ND"],
    [10835,"09/22/2015 02:00","38,5","3,75","ND","ND","ND","ND"],
    [10836,"09/22/2015 03:00","42,5","5,76","ND","ND","ND","ND"],
    [10837,"09/22/2015 04:00","36,9","4,17","ND","ND","ND","ND"],
    [10838,"09/22/2015 05:00","43,8","3,64","ND","ND","ND","ND"],
    [10839,"09/22/2015 06:00","62,9","3,14","ND","ND","ND","ND"],
    [10840,"09/22/2015 07:00","96,6","3,98","ND","ND","ND","ND"],
    [10841,"09/22/2015 08:00","85,4","8,41","ND","ND","ND","ND"],
    [10842,"09/22/2015 09:00","63,4","17,14","ND","ND","ND","ND"],
    [10843,"09/22/2015 10:00","52,7","18,58","ND","ND","ND","ND"],
    [10844,"09/22/2015 11:00","53,1","13,28","ND","ND","ND","ND"],
    [10845,"09/22/2015 12:00","63","15,12","ND","ND","ND","ND"],
    [10846,"09/22/2015 13:00","57,1","18,53","ND","ND","ND","ND"],
    [10847,"09/22/2015 14:00","49,9","11,69","ND","ND","ND","ND"],
    [10848,"09/22/2015 15:00","31,1","4,17","ND","ND","ND","ND"],
    [10849,"09/22/2015 16:00","35,6","3,48","ND","ND","ND","ND"],
    [10850,"09/22/2015 17:00","39,8","2,67","ND","ND","ND","ND"],
    [10851,"09/22/2015 18:00","38,9","2,1","ND","ND","ND","ND"],
    [10852,"09/22/2015 19:00","21,3","1,97","ND","ND","ND","ND"],
    [10853,"09/22/2015 20:00","10,2","2,02","ND","ND","ND","ND"],
    [10854,"09/22/2015 21:00","25,4","2,33","ND","ND","ND","ND"],
    [10855,"09/22/2015 22:00","56,2","3,2","ND","ND","ND","ND"],
    [10856,"09/22/2015 23:00","52,8","3,75","ND","ND","ND","ND"],
    [10857,"09/23/2015 00:00","51,4","3,09","ND","ND","ND","ND"],
    [10858,"09/23/2015 01:00","40,8","4,66","ND","ND","ND","ND"],
    [10859,"09/23/2015 02:00","41","4,17","ND","ND","ND","ND"],
    [10860,"09/23/2015 03:00","31,7","3,64","ND","ND","ND","ND"],
    [10861,"09/23/2015 04:00","31","2,67","ND","ND","ND","ND"],
    [10862,"09/23/2015 05:00","31,6","2,57","ND","ND","ND","ND"],
    [10863,"09/23/2015 06:00","53,7","2,7","ND","ND","ND","ND"],
    [10864,"09/23/2015 07:00","95","3,69","ND","ND","ND","ND"],
    [10865,"09/23/2015 08:00","73,9","9,25","ND","ND","ND","ND"],
    [10866,"09/23/2015 09:00","66,8","17,92","ND","ND","ND","ND"],
    [10867,"09/23/2015 10:00","61,4","14,7","ND","ND","ND","ND"],
    [10868,"09/23/2015 11:00","49,2","11,37","ND","ND","ND","ND"],
    [10869,"09/23/2015 12:00","51,6","9,33","ND","ND","ND","ND"],
    [10870,"09/23/2015 13:00","43,1","14,07","ND","ND","ND","ND"],
    [10871,"09/23/2015 14:00","45,1","17,84","ND","ND","ND","ND"],
    [10872,"09/23/2015 15:00","34,4","7,15","ND","ND","ND","ND"],
    [10873,"09/23/2015 16:00","17,1","4,48","ND","ND","ND","ND"],
    [10874,"09/23/2015 17:00","37,2","2,93","ND","ND","ND","ND"],
    [10875,"09/23/2015 18:00","24,8","2,83","ND","ND","ND","ND"],
    [10876,"09/23/2015 19:00","21,8","2,75","ND","ND","ND","ND"],
    [10877,"09/23/2015 20:00","14,6","2,44","ND","ND","ND","ND"],
    [10878,"09/23/2015 21:00","24,8","2,73","ND","ND","ND","ND"],
    [10879,"09/23/2015 22:00","41,9","3,22","ND","ND","ND","ND"],
    [10880,"09/23/2015 23:00","52,1","3,07","ND","ND","ND","ND"],
    [10881,"09/24/2015 00:00","75,4","3,17","ND","ND","ND","ND"],
    [10882,"09/24/2015 01:00","76,4","3,88","ND","ND","ND","ND"],
    [10883,"09/24/2015 02:00","53,8","5,37","ND","ND","ND","ND"],
    [10884,"09/24/2015 03:00","53,3","4,19","ND","ND","ND","ND"],
    [10885,"09/24/2015 04:00","42,6","4,69","ND","ND","ND","ND"],
    [10886,"09/24/2015 05:00","38,1","3,2","ND","ND","ND","ND"],
    [10887,"09/24/2015 06:00","77,2","3,17","ND","ND","ND","ND"],
    [10888,"09/24/2015 07:00","88,7","4,77","ND","ND","ND","ND"],
    [10889,"09/24/2015 08:00","88,1","8,12","ND","ND","ND","ND"],
    [10890,"09/24/2015 09:00","91,8","10,95","ND","ND","ND","ND"],
    [10891,"09/24/2015 10:00","69,9","11,56","ND","ND","ND","ND"],
    [10892,"09/24/2015 11:00","ND","7,6","ND","ND","ND","ND"],
    [10893,"09/24/2015 12:00","ND","6,13","ND","ND","ND","ND"],
    [10894,"09/24/2015 13:00","ND","6,39","ND","ND","ND","ND"],
    [10895,"09/24/2015 14:00","ND","12,76","ND","ND","ND","ND"],
    [10896,"09/24/2015 15:00","58,1","8,7","ND","ND","ND","ND"],
    [10897,"09/24/2015 16:00","40,8","3,3","ND","ND","ND","ND"],
    [10898,"09/24/2015 17:00","32,5","1,81","ND","ND","ND","ND"],
    [10899,"09/24/2015 18:00","25,8","1,21","ND","ND","ND","ND"],
    [10900,"09/24/2015 19:00","24,6","1,05","ND","ND","ND","ND"],
    [10901,"09/24/2015 20:00","17,3","0,94","ND","ND","ND","ND"],
    [10902,"09/24/2015 21:00","12,2","0,94","ND","ND","ND","ND"],
    [10903,"09/24/2015 22:00","43,9","1,97","ND","ND","ND","ND"],
    [10904,"09/24/2015 23:00","72,7","4,24","ND","ND","ND","ND"],
    [10905,"09/25/2015 00:00","59,7","2,25","ND","ND","ND","ND"],
    [10906,"09/25/2015 01:00","51,1","2,02","ND","ND","ND","ND"],
    [10907,"09/25/2015 02:00","46,7","2,2","ND","ND","ND","ND"],
    [10908,"09/25/2015 03:00","38,3","1,99","ND","ND","ND","ND"],
    [10909,"09/25/2015 04:00","38,3","2,52","ND","ND","ND","ND"],
    [10910,"09/25/2015 05:00","35,4","2,12","ND","ND","ND","ND"],
    [10911,"09/25/2015 06:00","78","1,97","ND","ND","ND","ND"],
    [10912,"09/25/2015 07:00","77,3","3,59","ND","ND","ND","ND"],
    [10913,"09/25/2015 08:00","74,3","10,59","ND","ND","ND","ND"],
    [10914,"09/25/2015 09:00","64,1","16,06","ND","ND","ND","ND"],
    [10915,"09/25/2015 10:00","77,6","12,18","ND","ND","ND","ND"],
    [10916,"09/25/2015 11:00","55,6","9,8","ND","ND","ND","ND"],
    [10917,"09/25/2015 12:00","66,7","9,07","ND","ND","ND","ND"],
    [10918,"09/25/2015 13:00","70","8,83","ND","ND","ND","ND"],
    [10919,"09/25/2015 14:00","62,6","8,94","ND","ND","ND","ND"],
    [10920,"09/25/2015 15:00","66,8","7,23","ND","ND","ND","ND"],
    [10921,"09/25/2015 16:00","30,1","2,93","ND","ND","ND","ND"],
    [10922,"09/25/2015 17:00","37,7","2,25","ND","ND","ND","ND"],
    [10923,"09/25/2015 18:00","42,5","1,52","ND","ND","ND","ND"],
    [10924,"09/25/2015 19:00","38","1,26","ND","ND","ND","ND"],
    [10925,"09/25/2015 20:00","30","1,18","ND","ND","ND","ND"],
    [10926,"09/25/2015 21:00","19,6","1,34","ND","ND","ND","ND"],
    [10927,"09/25/2015 22:00","34,5","1,76","ND","ND","ND","ND"],
    [10928,"09/25/2015 23:00","42,7","2,12","ND","ND","ND","ND"],
    [10929,"09/26/2015 00:00","60,2","2,1","ND","ND","ND","ND"],
    [10930,"09/26/2015 01:00","45,8","1,94","ND","ND","ND","ND"],
    [10931,"09/26/2015 02:00","38,1","1,81","ND","ND","ND","ND"],
    [10932,"09/26/2015 03:00","40","1,57","ND","ND","ND","ND"],
    [10933,"09/26/2015 04:00","62,5","2,2","ND","ND","ND","ND"],
    [10934,"09/26/2015 05:00","37,9","2,12","ND","ND","ND","ND"],
    [10935,"09/26/2015 06:00","43,8","1,91","ND","ND","ND","ND"],
    [10936,"09/26/2015 07:00","59,1","2,75","ND","ND","ND","ND"],
    [10937,"09/26/2015 08:00","70,2","5,82","ND","ND","ND","ND"],
    [10938,"09/26/2015 09:00","81,5","13,57","ND","ND","ND","ND"],
    [10939,"09/26/2015 10:00","75,9","15,96","ND","ND","ND","ND"],
    [10940,"09/26/2015 11:00","72,4","14,18","ND","ND","ND","ND"],
    [10941,"09/26/2015 12:00","63,9","10,74","ND","ND","ND","ND"],
    [10942,"09/26/2015 13:00","39,1","6,71","ND","ND","ND","ND"],
    [10943,"09/26/2015 14:00","41,6","4,3","ND","ND","ND","ND"],
    [10944,"09/26/2015 15:00","44,5","3,17","ND","ND","ND","ND"],
    [10945,"09/26/2015 16:00","31,5","1,86","ND","ND","ND","ND"],
    [10946,"09/26/2015 17:00","35,7","1,39","ND","ND","ND","ND"],
    [10947,"09/26/2015 18:00","33","2,65","ND","ND","ND","ND"],
    [10948,"09/26/2015 19:00","25","1,52","ND","ND","ND","ND"],
    [10949,"09/26/2015 20:00","23,7","1,23","ND","ND","ND","ND"],
    [10950,"09/26/2015 21:00","21,9","1,44","ND","ND","ND","ND"],
    [10951,"09/26/2015 22:00","63,8","3,04","ND","ND","ND","ND"],
    [10952,"09/26/2015 23:00","54,2","2,41","ND","ND","ND","ND"],
    [10953,"09/27/2015 00:00","54,2","3,93","ND","ND","ND","ND"],
    [10954,"09/27/2015 01:00","55,1","2,07","ND","ND","ND","ND"],
    [10955,"09/27/2015 02:00","48,7","2,46","ND","ND","ND","ND"],
    [10956,"09/27/2015 03:00","39,9","3,04","ND","ND","ND","ND"],
    [10957,"09/27/2015 04:00","43,7","3,12","ND","ND","ND","ND"],
    [10958,"09/27/2015 05:00","47,2","4,27","ND","ND","ND","ND"],
    [10959,"09/27/2015 06:00","48,9","3,41","ND","ND","ND","ND"],
    [10960,"09/27/2015 07:00","62,3","3,35","ND","ND","ND","ND"],
    [10961,"09/27/2015 08:00","56,2","6,87","ND","ND","ND","ND"],
    [10962,"09/27/2015 09:00","52,3","19,78","ND","ND","ND","ND"],
    [10963,"09/27/2015 10:00","42,5","17,77","ND","ND","ND","ND"],
    [10964,"09/27/2015 11:00","38,9","9,2","ND","ND","ND","ND"],
    [10965,"09/27/2015 12:00","45,7","7,49","ND","ND","ND","ND"],
    [10966,"09/27/2015 13:00","37,6","5,45","ND","ND","ND","ND"],
    [10967,"09/27/2015 14:00","31,6","3,33","ND","ND","ND","ND"],
    [10968,"09/27/2015 15:00","19,5","2,75","ND","ND","ND","ND"],
    [10969,"09/27/2015 16:00","50,5","1,73","ND","ND","ND","ND"],
    [10970,"09/27/2015 17:00","33,9","1,23","ND","ND","ND","ND"],
    [10971,"09/27/2015 18:00","46,3","0,86","ND","ND","ND","ND"],
    [10972,"09/27/2015 19:00","24,8","1,15","ND","ND","ND","ND"],
    [10973,"09/27/2015 20:00","24,8","1,02","ND","ND","ND","ND"],
    [10974,"09/27/2015 21:00","24,4","1,44","ND","ND","ND","ND"],
    [10975,"09/27/2015 22:00","43,6","2,23","ND","ND","ND","ND"],
    [10976,"09/27/2015 23:00","61,5","3,51","ND","ND","ND","ND"],
    [10977,"09/28/2015 00:00","52,8","3,07","ND","ND","ND","ND"],
    [10978,"09/28/2015 01:00","39,5","2,46","ND","ND","ND","ND"],
    [10979,"09/28/2015 02:00","51,6","9,46","ND","ND","ND","ND"],
    [10980,"09/28/2015 03:00","44,2","10,04","ND","ND","ND","ND"],
    [10981,"09/28/2015 04:00","38,6","5,55","ND","ND","ND","ND"],
    [10982,"09/28/2015 05:00","36,8","4,4","ND","ND","ND","ND"],
    [10983,"09/28/2015 06:00","69,9","3,77","ND","ND","ND","ND"],
    [10984,"09/28/2015 07:00","85,9","4,43","ND","ND","ND","ND"],
    [10985,"09/28/2015 08:00","73,2","12,29","ND","ND","ND","ND"],
    [10986,"09/28/2015 09:00","64,1","22,53","ND","ND","ND","ND"],
    [10987,"09/28/2015 10:00","59,3","14,54","ND","ND","ND","ND"],
    [10988,"09/28/2015 11:00","65,2","12,18","ND","ND","ND","ND"],
    [10989,"09/28/2015 12:00","61,9","10,27","ND","ND","ND","ND"],
    [10990,"09/28/2015 13:00","50","7,78","ND","ND","ND","ND"],
    [10991,"09/28/2015 14:00","54,1","5,21","ND","ND","ND","ND"],
    [10992,"09/28/2015 15:00","50","3,22","ND","ND","ND","ND"],
    [10993,"09/28/2015 16:00","44,1","1,49","ND","ND","ND","ND"],
    [10994,"09/28/2015 17:00","43,8","1,26","ND","ND","ND","ND"],
    [10995,"09/28/2015 18:00","40,4","1,34","ND","ND","ND","ND"],
    [10996,"09/28/2015 19:00","31,7","1,28","ND","ND","ND","ND"],
    [10997,"09/28/2015 20:00","21,8","1,26","ND","ND","ND","ND"],
    [10998,"09/28/2015 21:00","17,7","1,1","ND","ND","ND","ND"],
    [10999,"09/28/2015 22:00","26,5","1,81","ND","ND","ND","ND"],
    [11000,"09/28/2015 23:00","22,6","1,36","ND","ND","ND","ND"],
    [11001,"09/29/2015 00:00","75,1","2,93","ND","ND","ND","ND"],
    [11002,"09/29/2015 01:00","58,4","6,47","ND","ND","ND","ND"],
    [11003,"09/29/2015 02:00","53,5","7,47","ND","ND","ND","ND"],
    [11004,"09/29/2015 03:00","57,8","5,5","ND","ND","ND","ND"],
    [11005,"09/29/2015 04:00","52,7","5,45","ND","ND","ND","ND"],
    [11006,"09/29/2015 05:00","46,9","5,84","ND","ND","ND","ND"],
    [11007,"09/29/2015 06:00","53","6,63","ND","ND","ND","ND"],
    [11008,"09/29/2015 07:00","66,8","8,86","ND","ND","ND","ND"],
    [11009,"09/29/2015 08:00","62,7","12,63","ND","ND","ND","ND"],
    [11010,"09/29/2015 09:00","67,6","14,49","ND","ND","ND","ND"],
    [11011,"09/29/2015 10:00","59,5","14,33","ND","ND","ND","ND"],
    [11012,"09/29/2015 11:00","70,6","12,16","ND","ND","ND","ND"],
    [11013,"09/29/2015 12:00","78,1","11,42","ND","ND","ND","ND"],
    [11014,"09/29/2015 13:00","80,9","25,73","ND","ND","ND","ND"],
    [11015,"09/29/2015 14:00","25,8","6,11","ND","ND","ND","ND"],
    [11016,"09/29/2015 15:00","25","1,49","ND","ND","ND","ND"],
    [11017,"09/29/2015 16:00","32,4","1,23","ND","ND","ND","ND"],
    [11018,"09/29/2015 17:00","24,7","1,65","ND","ND","ND","ND"],
    [11019,"09/29/2015 18:00","21,4","1,23","ND","ND","ND","ND"],
    [11020,"09/29/2015 19:00","21,4","1,6","ND","ND","ND","ND"],
    [11021,"09/29/2015 20:00","25,2","1,49","ND","ND","ND","ND"],
    [11022,"09/29/2015 21:00","14,9","1,02","ND","ND","ND","ND"],
    [11023,"09/29/2015 22:00","37","1,91","ND","ND","ND","ND"],
    [11024,"09/29/2015 23:00","76,4","3,54","ND","ND","ND","ND"],
    [11025,"09/30/2015 00:00","22,3","1,47","ND","ND","ND","ND"],
    [11026,"09/30/2015 01:00","68,4","2,31","ND","ND","ND","ND"],
    [11027,"09/30/2015 02:00","48,1","1,23","ND","ND","ND","ND"],
    [11028,"09/30/2015 03:00","40,3","1,05","ND","ND","ND","ND"],
    [11029,"09/30/2015 04:00","35,7","1,02","ND","ND","ND","ND"],
    [11030,"09/30/2015 05:00","42,8","2,12","ND","ND","ND","ND"],
    [11031,"09/30/2015 06:00","43,7","3,46","ND","ND","ND","ND"],
    [11032,"09/30/2015 07:00","28,6","2,78","ND","ND","ND","ND"],
    [11033,"09/30/2015 08:00","21","3,12","ND","ND","ND","ND"],
    [11034,"09/30/2015 09:00","14,4","2,59","ND","ND","ND","ND"],
    [11035,"09/30/2015 10:00","21,8","3,04","ND","ND","ND","ND"],
    [11036,"09/30/2015 11:00","29,5","2,1","ND","ND","ND","ND"],
    [11037,"09/30/2015 12:00","16,2","3,69","ND","ND","ND","ND"],
    [11038,"09/30/2015 13:00","13,9","2,78","ND","ND","ND","ND"],
    [11039,"09/30/2015 14:00","17,7","2,65","ND","ND","ND","ND"],
    [11040,"09/30/2015 15:00","19","3,01","ND","ND","ND","ND"],
    [11041,"09/30/2015 16:00","28,1","3,43","ND","ND","ND","ND"],
    [11042,"09/30/2015 17:00","36,7","4,69","ND","ND","ND","ND"],
    [11043,"09/30/2015 18:00","21,5","2,44","ND","ND","ND","ND"],
    [11044,"09/30/2015 19:00","27,1","1,52","ND","ND","ND","ND"],
    [11045,"09/30/2015 20:00","37,9","2,23","ND","ND","ND","ND"],
    [11046,"09/30/2015 21:00","37,9","2,12","ND","ND","ND","ND"],
    [11047,"09/30/2015 22:00","32,5","2,23","ND","ND","ND","ND"],
    [11048,"09/30/2015 23:00","37,3","2,28","ND","ND","ND","ND"],
    [11049,"42014","22,5","1,34","ND","ND","ND","ND"],
    [11050,"42014,04167","17,6","1,02","ND","ND","ND","ND"],
    [11051,"42014,08333","13,4","0,89","ND","ND","ND","ND"],
    [11052,"42014,125","18,3","0,84","ND","ND","ND","ND"],
    [11053,"42014,16667","15,7","0,79","ND","ND","ND","ND"],
    [11054,"42014,20833","19,4","1,05","ND","ND","ND","ND"],
    [11055,"42014,25","35,1","1,28","ND","ND","ND","ND"],
    [11056,"42014,29167","46,5","2,04","ND","ND","ND","ND"],
    [11057,"42014,33333","47","2,93","ND","ND","ND","ND"],
    [11058,"42014,375","28,4","3,69","ND","ND","ND","ND"],
    [11059,"42014,41667","22","3,59","ND","ND","ND","ND"],
    [11060,"42014,45833","31","2,49","ND","ND","ND","ND"],
    [11061,"42014,5","34","2,62","ND","ND","ND","ND"],
    [11062,"42014,54167","13","1,91","ND","ND","ND","ND"],
    [11063,"42014,58333","11,4","0,86","ND","ND","ND","ND"],
    [11064,"42014,625","12,5","0,84","ND","ND","ND","ND"],
    [11065,"42014,66667","26,7","1,1","ND","ND","ND","ND"],
    [11066,"42014,70833","26,7","1,65","ND","ND","ND","ND"],
    [11067,"42014,75","35,2","2,54","ND","ND","ND","ND"],
    [11068,"42014,79167","31,4","1,52","ND","ND","ND","ND"],
    [11069,"42014,83333","27,7","1,76","ND","ND","ND","ND"],
    [11070,"42014,875","44,5","1,68","ND","ND","ND","ND"],
    [11071,"42014,91667","21,5","1,44","ND","ND","ND","ND"],
    [11072,"42014,95833","20","1,55","ND","ND","ND","ND"],
    [11073,"42045","52,3","3,04","ND","ND","ND","ND"],
    [11074,"42045,04167","17","1,1","ND","ND","ND","ND"],
    [11075,"42045,08333","18,3","0,79","ND","ND","ND","ND"],
    [11076,"42045,125","18,5","0,97","ND","ND","ND","ND"],
    [11077,"42045,16667","18,6","0,71","ND","ND","ND","ND"],
    [11078,"42045,20833","19,1","0,73","ND","ND","ND","ND"],
    [11079,"42045,25","29,6","0,86","ND","ND","ND","ND"],
    [11080,"42045,29167","47,7","1,47","ND","ND","ND","ND"],
    [11081,"42045,33333","61","2,41","ND","ND","ND","ND"],
    [11082,"42045,375","79,7","3,88","ND","ND","ND","ND"],
    [11083,"42045,41667","79,7","9,25","ND","ND","ND","ND"],
    [11084,"42045,45833","71","93,33","ND","ND","ND","ND"],
    [11085,"42045,5","67,2","7,86","ND","ND","ND","ND"],
    [11086,"42045,54167","56,3","5,53","ND","ND","ND","ND"],
    [11087,"42045,58333","38,4","4,8","ND","ND","ND","ND"],
    [11088,"42045,625","42","6,18","ND","ND","ND","ND"],
    [11089,"42045,66667","27","5","ND","ND","ND","ND"],
    [11090,"42045,70833","16,7","1,49","ND","ND","ND","ND"],
    [11091,"42045,75","15","1,28","ND","ND","ND","ND"],
    [11092,"42045,79167","19,4","1,57","ND","ND","ND","ND"],
    [11093,"42045,83333","20,9","1,7","ND","ND","ND","ND"],
    [11094,"42045,875","23","1,7","ND","ND","ND","ND"],
    [11095,"42045,91667","37,4","2,59","ND","ND","ND","ND"],
    [11096,"42045,95833","56,2","2,57","ND","ND","ND","ND"],
    [11097,"42073","37","2,15","ND","ND","ND","ND"],
    [11098,"42073,04167","52,8","2,93","ND","ND","ND","ND"],
    [11099,"42073,08333","36,4","2,75","ND","ND","ND","ND"],
    [11100,"42073,125","41,9","2,25","ND","ND","ND","ND"],
    [11101,"42073,16667","36,2","2,44","ND","ND","ND","ND"],
    [11102,"42073,20833","30,7","2,52","ND","ND","ND","ND"],
    [11103,"42073,25","36,8","2,44","ND","ND","ND","ND"],
    [11104,"42073,29167","63,1","3,2","ND","ND","ND","ND"],
    [11105,"42073,33333","58,8","4,77","ND","ND","ND","ND"],
    [11106,"42073,375","58","8,28","ND","ND","ND","ND"],
    [11107,"42073,41667","47,9","7,68","ND","ND","ND","ND"],
    [11108,"42073,45833","35,9","6,55","ND","ND","ND","ND"],
    [11109,"42073,5","43,7","5,63","ND","ND","ND","ND"],
    [11110,"42073,54167","43,7","4,48","ND","ND","ND","ND"],
    [11111,"42073,58333","34,1","4,22","ND","ND","ND","ND"],
    [11112,"42073,625","37","3,62","ND","ND","ND","ND"],
    [11113,"42073,66667","39,6","4,14","ND","ND","ND","ND"],
    [11114,"42073,70833","27","3,2","ND","ND","ND","ND"],
    [11115,"42073,75","21,9","1,83","ND","ND","ND","ND"],
    [11116,"42073,79167","21","1,47","ND","ND","ND","ND"],
    [11117,"42073,83333","24,1","1,68","ND","ND","ND","ND"],
    [11118,"42073,875","17","1,21","ND","ND","ND","ND"],
    [11119,"42073,91667","49,4","1,94","ND","ND","ND","ND"],
    [11120,"42073,95833","57,4","2,31","ND","ND","ND","ND"],
    [11121,"42104","48,5","3,77","ND","ND","ND","ND"],
    [11122,"42104,04167","45","2,04","ND","ND","ND","ND"],
    [11123,"42104,08333","43,2","1,91","ND","ND","ND","ND"],
    [11124,"42104,125","40,4","1,81","ND","ND","ND","ND"],
    [11125,"42104,16667","49,3","3,85","ND","ND","ND","ND"],
    [11126,"42104,20833","44,8","2,93","ND","ND","ND","ND"],
    [11127,"42104,25","48,7","3,85","ND","ND","ND","ND"],
    [11128,"42104,29167","63,7","5,92","ND","ND","ND","ND"],
    [11129,"42104,33333","60,3","8,8","ND","ND","ND","ND"],
    [11130,"42104,375","40,7","10,72","ND","ND","ND","ND"],
    [11131,"42104,41667","49,2","10,11","ND","ND","ND","ND"],
    [11132,"42104,45833","60,5","8,83","ND","ND","ND","ND"],
    [11133,"42104,5","31,8","5","ND","ND","ND","ND"],
    [11134,"42104,54167","27,7","3,98","ND","ND","ND","ND"],
    [11135,"42104,58333","8,1","3,01","ND","ND","ND","ND"],
    [11136,"42104,625","6,9","1,97","ND","ND","ND","ND"],
    [11137,"42104,66667","33,4","1,44","ND","ND","ND","ND"],
    [11138,"42104,70833","15,8","1,07","ND","ND","ND","ND"],
    [11139,"42104,75","14,7","0,89","ND","ND","ND","ND"],
    [11140,"42104,79167","12,6","1,07","ND","ND","ND","ND"],
    [11141,"42104,83333","16,1","1,26","ND","ND","ND","ND"],
    [11142,"42104,875","19,6","1,52","ND","ND","ND","ND"],
    [11143,"42104,91667","15,2","1,6","ND","ND","ND","ND"],
    [11144,"42104,95833","58,8","2,99","ND","ND","ND","ND"],
    [11145,"42134","54,6","3,96","ND","ND","ND","ND"],
    [11146,"42134,04167","44,8","2,8","ND","ND","ND","ND"],
    [11147,"42134,08333","38,7","2,67","ND","ND","ND","ND"],
    [11148,"42134,125","43,2","3,48","ND","ND","ND","ND"],
    [11149,"42134,16667","43,2","2,25","ND","ND","ND","ND"],
    [11150,"42134,20833","30,9","2,12","ND","ND","ND","ND"],
    [11151,"42134,25","45,5","2,31","ND","ND","ND","ND"],
    [11152,"42134,29167","55,1","3,01","ND","ND","ND","ND"],
    [11153,"42134,33333","49,9","13,36","ND","ND","ND","ND"],
    [11154,"42134,375","49","18,29","ND","ND","ND","ND"],
    [11155,"42134,41667","63,3","24,39","ND","ND","ND","ND"],
    [11156,"42134,45833","62,7","19,31","ND","ND","ND","ND"],
    [11157,"42134,5","55,9","13,99","ND","ND","ND","ND"],
    [11158,"42134,54167","39,3","8,23","ND","ND","ND","ND"],
    [11159,"42134,58333","15,2","2,46","ND","ND","ND","ND"],
    [11160,"42134,625","18,8","1,36","ND","ND","ND","ND"],
    [11161,"42134,66667","20,3","1,21","ND","ND","ND","ND"],
    [11162,"42134,70833","21,1","1,26","ND","ND","ND","ND"],
    [11163,"42134,75","20,4","1,36","ND","ND","ND","ND"],
    [11164,"42134,79167","15,8","1,23","ND","ND","ND","ND"],
    [11165,"42134,83333","13,6","1,13","ND","ND","ND","ND"],
    [11166,"42134,875","33,3","1,89","ND","ND","ND","ND"],
    [11167,"42134,91667","75,8","3,98","ND","ND","ND","ND"],
    [11168,"42134,95833","67,7","4,66","ND","ND","ND","ND"],
    [11169,"42165","40,4","4,01","ND","ND","ND","ND"],
    [11170,"42165,04167","32,9","2,28","ND","ND","ND","ND"],
    [11171,"42165,08333","39,1","2,65","ND","ND","ND","ND"],
    [11172,"42165,125","42,7","4,06","ND","ND","ND","ND"],
    [11173,"42165,16667","28,7","2,12","ND","ND","ND","ND"],
    [11174,"42165,20833","32,1","1,91","ND","ND","ND","ND"],
    [11175,"42165,25","45,2","2,46","ND","ND","ND","ND"],
    [11176,"42165,29167","61,6","3,35","ND","ND","ND","ND"],
    [11177,"42165,33333","71","9,14","ND","ND","ND","ND"],
    [11178,"42165,375","70,6","12,97","ND","ND","ND","ND"],
    [11179,"42165,41667","45,5","15,67","ND","ND","ND","ND"],
    [11180,"42165,45833","48,8","12,5","ND","ND","ND","ND"],
    [11181,"42165,5","46,1","10,77","ND","ND","ND","ND"],
    [11182,"42165,54167","47","8,94","ND","ND","ND","ND"],
    [11183,"42165,58333","43,7","7,26","ND","ND","ND","ND"],
    [11184,"42165,625","35,4","5,08","ND","ND","ND","ND"],
    [11185,"42165,66667","14,8","1,31","ND","ND","ND","ND"],
    [11186,"42165,70833","20,5","1,23","ND","ND","ND","ND"],
    [11187,"42165,75","26,6","1,31","ND","ND","ND","ND"],
    [11188,"42165,79167","17,5","1,23","ND","ND","ND","ND"],
    [11189,"42165,83333","19,7","1,23","ND","ND","ND","ND"],
    [11190,"42165,875","15,5","1,23","ND","ND","ND","ND"],
    [11191,"42165,91667","13","1,39","ND","ND","ND","ND"],
    [11192,"42165,95833","48,6","2,62","ND","ND","ND","ND"],
    [11193,"42195","56,5","2,7","ND","ND","ND","ND"],
    [11194,"42195,04167","27,1","2,02","ND","ND","ND","ND"],
    [11195,"42195,08333","26,2","2,04","ND","ND","ND","ND"],
    [11196,"42195,125","45,8","2,86","ND","ND","ND","ND"],
    [11197,"42195,16667","54,1","7,28","ND","ND","ND","ND"],
    [11198,"42195,20833","37,2","5,24","ND","ND","ND","ND"],
    [11199,"42195,25","47,9","4,14","ND","ND","ND","ND"],
    [11200,"42195,29167","61,1","4,35","ND","ND","ND","ND"],
    [11201,"42195,33333","63,9","10,01","ND","ND","ND","ND"],
    [11202,"42195,375","76","14,75","ND","ND","ND","ND"],
    [11203,"42195,41667","73,6","21,15","ND","ND","ND","ND"],
    [11204,"42195,45833","74,9","22,32","ND","ND","ND","ND"],
    [11205,"42195,5","63,2","17,79","ND","ND","ND","ND"],
    [11206,"42195,54167","42,5","10,04","ND","ND","ND","ND"],
    [11207,"42195,58333","55,5","23,53","ND","ND","ND","ND"],
    [11208,"42195,625","46,5","25","ND","ND","ND","ND"],
    [11209,"42195,66667","38,1","12,66","ND","ND","ND","ND"],
    [11210,"42195,70833","15,8","2,1","ND","ND","ND","ND"],
    [11211,"42195,75","17,5","2,23","ND","ND","ND","ND"],
    [11212,"42195,79167","19,2","1,78","ND","ND","ND","ND"],
    [11213,"42195,83333","15","1,39","ND","ND","ND","ND"],
    [11214,"42195,875","15,2","1,21","ND","ND","ND","ND"],
    [11215,"42195,91667","42,9","2,38","ND","ND","ND","ND"],
    [11216,"42195,95833","59,9","3,12","ND","ND","ND","ND"],
    [11217,"42226","51,7","2,36","ND","ND","ND","ND"],
    [11218,"42226,04167","43,7","1,94","ND","ND","ND","ND"],
    [11219,"42226,08333","49,9","2,44","ND","ND","ND","ND"],
    [11220,"42226,125","60","3,07","ND","ND","ND","ND"],
    [11221,"42226,16667","36,7","1,91","ND","ND","ND","ND"],
    [11222,"42226,20833","35,3","1,49","ND","ND","ND","ND"],
    [11223,"42226,25","54,6","1,81","ND","ND","ND","ND"],
    [11224,"42226,29167","65,9","2,54","ND","ND","ND","ND"],
    [11225,"42226,33333","60,2","5,66","ND","ND","ND","ND"],
    [11226,"42226,375","61,4","12,42","ND","ND","ND","ND"],
    [11227,"42226,41667","45,1","9,96","ND","ND","ND","ND"],
    [11228,"42226,45833","58,3","10,82","ND","ND","ND","ND"],
    [11229,"42226,5","69,9","12,47","ND","ND","ND","ND"],
    [11230,"42226,54167","39,1","10,01","ND","ND","ND","ND"],
    [11231,"42226,58333","26,4","3,77","ND","ND","ND","ND"],
    [11232,"42226,625","19,5","1,81","ND","ND","ND","ND"],
    [11233,"42226,66667","22,8","1,34","ND","ND","ND","ND"],
    [11234,"42226,70833","27,6","1,41","ND","ND","ND","ND"],
    [11235,"42226,75","27,7","1,26","ND","ND","ND","ND"],
    [11236,"42226,79167","21,1","1,23","ND","ND","ND","ND"],
    [11237,"42226,83333","16,5","1,26","ND","ND","ND","ND"],
    [11238,"42226,875","30,4","2,12","ND","ND","ND","ND"],
    [11239,"42226,91667","69,5","2,67","ND","ND","ND","ND"],
    [11240,"42226,95833","69,5","3,38","ND","ND","ND","ND"],
    [11241,"42257","50,2","3,09","ND","ND","ND","ND"],
    [11242,"42257,04167","38,2","1,6","ND","ND","ND","ND"],
    [11243,"42257,08333","59,2","1,83","ND","ND","ND","ND"],
    [11244,"42257,125","41,4","2,07","ND","ND","ND","ND"],
    [11245,"42257,16667","56,1","2,83","ND","ND","ND","ND"],
    [11246,"42257,20833","35,1","2,52","ND","ND","ND","ND"],
    [11247,"42257,25","49","2,52","ND","ND","ND","ND"],
    [11248,"42257,29167","66,7","3,56","ND","ND","ND","ND"],
    [11249,"42257,33333","75,7","9,51","ND","ND","ND","ND"],
    [11250,"42257,375","93,1","18,66","ND","ND","ND","ND"],
    [11251,"42257,41667","88,9","31,84","ND","ND","ND","ND"],
    [11252,"42257,45833","60","21,8","ND","ND","ND","ND"],
    [11253,"42257,5","51","14,07","ND","ND","ND","ND"],
    [11254,"42257,54167","57,3","9,2","ND","ND","ND","ND"],
    [11255,"42257,58333","35,6","7,49","ND","ND","ND","ND"],
    [11256,"42257,625","14,3","1,89","ND","ND","ND","ND"],
    [11257,"42257,66667","10,5","1,34","ND","ND","ND","ND"],
    [11258,"42257,70833","11,5","1,39","ND","ND","ND","ND"],
    [11259,"42257,75","11,1","1,49","ND","ND","ND","ND"],
    [11260,"42257,79167","32,6","2,28","ND","ND","ND","ND"],
    [11261,"42257,83333","51,2","2,67","ND","ND","ND","ND"],
    [11262,"42257,875","68,1","3,14","ND","ND","ND","ND"],
    [11263,"42257,91667","63","3,04","ND","ND","ND","ND"],
    [11264,"42257,95833","62,1","3,3","ND","ND","ND","ND"],
    [11265,"42287","16,1","0,97","ND","ND","ND","ND"],
    [11266,"42287,04167","44,9","2,96","ND","ND","ND","ND"],
    [11267,"42287,08333","34","2,75","ND","ND","ND","ND"],
    [11268,"42287,125","35","2,88","ND","ND","ND","ND"],
    [11269,"42287,16667","43","2,54","ND","ND","ND","ND"],
    [11270,"42287,20833","49,9","4,19","ND","ND","ND","ND"],
    [11271,"42287,25","55,7","4,72","ND","ND","ND","ND"],
    [11272,"42287,29167","52,8","5,06","ND","ND","ND","ND"],
    [11273,"42287,33333","63,4","6,39","ND","ND","ND","ND"],
    [11274,"42287,375","49,7","6,11","ND","ND","ND","ND"],
    [11275,"42287,41667","50","5,69","ND","ND","ND","ND"],
    [11276,"42287,45833","54,3","6,13","ND","ND","ND","ND"],
    [11277,"42287,5","51,1","5,08","ND","ND","ND","ND"],
    [11278,"42287,54167","61,2","6,31","ND","ND","ND","ND"],
    [11279,"42287,58333","61,2","7,23","ND","ND","ND","ND"],
    [11280,"42287,625","8,5","1,47","ND","ND","ND","ND"],
    [11281,"42287,66667","44","1,18","ND","ND","ND","ND"],
    [11282,"42287,70833","15,3","1,18","ND","ND","ND","ND"],
    [11283,"42287,75","51,4","1,57","ND","ND","ND","ND"],
    [11284,"42287,79167","42,9","1,15","ND","ND","ND","ND"],
    [11285,"42287,83333","21,1","1,23","ND","ND","ND","ND"],
    [11286,"42287,875","19","1,47","ND","ND","ND","ND"],
    [11287,"42287,91667","19,2","1,15","ND","ND","ND","ND"],
    [11288,"42287,95833","19,1","1,18","ND","ND","ND","ND"],
    [11289,"42318","27,7","1,21","ND","ND","ND","ND"],
    [11290,"42318,04167","17,7","1","ND","ND","ND","ND"],
    [11291,"42318,08333","15,6","1,02","ND","ND","ND","ND"],
    [11292,"42318,125","24","0,92","ND","ND","ND","ND"],
    [11293,"42318,16667","24","0,97","ND","ND","ND","ND"],
    [11294,"42318,20833","23,2","0,97","ND","ND","ND","ND"],
    [11295,"42318,25","18,9","0,97","ND","ND","ND","ND"],
    [11296,"42318,29167","31,3","1","ND","ND","ND","ND"],
    [11297,"42318,33333","29,1","1,21","ND","ND","ND","ND"],
    [11298,"42318,375","30,5","1,39","ND","ND","ND","ND"],
    [11299,"42318,41667","31,1","3,59","ND","ND","ND","ND"],
    [11300,"42318,45833","35,5","5,32","ND","ND","ND","ND"],
    [11301,"42318,5","34,6","5,48","ND","ND","ND","ND"],
    [11302,"42318,54167","20,2","3,46","ND","ND","ND","ND"],
    [11303,"42318,58333","27,6","2,23","ND","ND","ND","ND"],
    [11304,"42318,625","23,5","1,91","ND","ND","ND","ND"],
    [11305,"42318,66667","ND","1,18","ND","ND","ND","ND"],
    [11306,"42318,70833","6,7","1,15","ND","ND","ND","ND"],
    [11307,"42318,75","3,9","1,05","ND","ND","ND","ND"],
    [11308,"42318,79167","10,5","0,92","ND","ND","ND","ND"],
    [11309,"42318,83333","25,7","1,15","ND","ND","ND","ND"],
    [11310,"42318,875","21,2","1,13","ND","ND","ND","ND"],
    [11311,"42318,91667","41,7","1,55","ND","ND","ND","ND"],
    [11312,"42318,95833","42,1","1,57","ND","ND","ND","ND"],
    [11313,"42348","22,1","1,52","ND","ND","ND","ND"],
    [11314,"42348,04167","24,3","1,13","ND","ND","ND","ND"],
    [11315,"42348,08333","26,1","1,18","ND","ND","ND","ND"],
    [11316,"42348,125","27","1,07","ND","ND","ND","ND"],
    [11317,"42348,16667","30,6","1,05","ND","ND","ND","ND"],
    [11318,"42348,20833","28,1","0,97","ND","ND","ND","ND"],
    [11319,"42348,25","34,9","1,28","ND","ND","ND","ND"],
    [11320,"42348,29167","41,7","1,68","ND","ND","ND","ND"],
    [11321,"42348,33333","45,7","3,59","ND","ND","ND","ND"],
    [11322,"42348,375","29,7","8,59","ND","ND","ND","ND"],
    [11323,"42348,41667","28","17,84","ND","ND","ND","ND"],
    [11324,"42348,45833","19,9","12,34","ND","ND","ND","ND"],
    [11325,"42348,5","30,8","7,55","ND","ND","ND","ND"],
    [11326,"42348,54167","46,4","7,39","ND","ND","ND","ND"],
    [11327,"42348,58333","16,6","8,36","ND","ND","ND","ND"],
    [11328,"42348,625","11","3,25","ND","ND","ND","ND"],
    [11329,"42348,66667","10,8","3,46","ND","ND","ND","ND"],
    [11330,"42348,70833","39,6","2,96","ND","ND","ND","ND"],
    [11331,"42348,75","31,3","2,33","ND","ND","ND","ND"],
    [11332,"42348,79167","31,3","1,89","ND","ND","ND","ND"],
    [11333,"42348,83333","20,5","1,83","ND","ND","ND","ND"],
    [11334,"42348,875","32,8","2,2","ND","ND","ND","ND"],
    [11335,"42348,91667","43,8","2,83","ND","ND","ND","ND"],
    [11336,"42348,95833","26,3","2,02","ND","ND","ND","ND"],
    [11337,"10/13/2015 00:00","25,7","1,07","ND","ND","ND","ND"],
    [11338,"10/13/2015 01:00","17,3","1,31","ND","ND","ND","ND"],
    [11339,"10/13/2015 02:00","19,7","1,31","ND","ND","ND","ND"],
    [11340,"10/13/2015 03:00","25,6","1,28","ND","ND","ND","ND"],
    [11341,"10/13/2015 04:00","23,1","1,23","ND","ND","ND","ND"],
    [11342,"10/13/2015 05:00","28,1","1,15","ND","ND","ND","ND"],
    [11343,"10/13/2015 06:00","47,8","1,49","ND","ND","ND","ND"],
    [11344,"10/13/2015 07:00","70,1","2,46","ND","ND","ND","ND"],
    [11345,"10/13/2015 08:00","72,9","3,22","ND","ND","ND","ND"],
    [11346,"10/13/2015 09:00","89,9","6","ND","ND","ND","ND"],
    [11347,"10/13/2015 10:00","74,8","6,37","ND","ND","ND","ND"],
    [11348,"10/13/2015 11:00","47,4","8,41","ND","ND","ND","ND"],
    [11349,"10/13/2015 12:00","19,5","6,92","ND","ND","ND","ND"],
    [11350,"10/13/2015 13:00","10,3","2,57","ND","ND","ND","ND"],
    [11351,"10/13/2015 14:00","10,3","1,62","ND","ND","ND","ND"],
    [11352,"10/13/2015 15:00","31,3","1,26","ND","ND","ND","ND"],
    [11353,"10/13/2015 16:00","1,1","1,15","ND","ND","ND","ND"],
    [11354,"10/13/2015 17:00","0,5","1,15","ND","ND","ND","ND"],
    [11355,"10/13/2015 18:00","36,8","1,05","ND","ND","ND","ND"],
    [11356,"10/13/2015 19:00","18,4","1,39","ND","ND","ND","ND"],
    [11357,"10/13/2015 20:00","19,1","1,49","ND","ND","ND","ND"],
    [11358,"10/13/2015 21:00","18","1,26","ND","ND","ND","ND"],
    [11359,"10/13/2015 22:00","19,4","1,15","ND","ND","ND","ND"],
    [11360,"10/13/2015 23:00","23","1,44","ND","ND","ND","ND"],
    [11361,"10/14/2015 00:00","39,4","2,31","ND","ND","ND","ND"],
    [11362,"10/14/2015 01:00","33,6","1,97","ND","ND","ND","ND"],
    [11363,"10/14/2015 02:00","46,9","7,44","ND","ND","ND","ND"],
    [11364,"10/14/2015 03:00","30,6","12,05","ND","ND","ND","ND"],
    [11365,"10/14/2015 04:00","15,7","5,06","ND","ND","ND","ND"],
    [11366,"10/14/2015 05:00","4,6","2,23","ND","ND","ND","ND"],
    [11367,"10/14/2015 06:00","15,3","2,23","ND","ND","ND","ND"],
    [11368,"10/14/2015 07:00","19,3","3,14","ND","ND","ND","ND"],
    [11369,"10/14/2015 08:00","19,2","4,77","ND","ND","ND","ND"],
    [11370,"10/14/2015 09:00","30,3","10,98","ND","ND","ND","ND"],
    [11371,"10/14/2015 10:00","15,8","6,97","ND","ND","ND","ND"],
    [11372,"10/14/2015 11:00","23,2","5,63","ND","ND","ND","ND"],
    [11373,"10/14/2015 12:00","21,1","5,42","ND","ND","ND","ND"],
    [11374,"10/14/2015 13:00","15,9","5,5","ND","ND","ND","ND"],
    [11375,"10/14/2015 14:00","25,5","5,11","ND","ND","ND","ND"],
    [11376,"10/14/2015 15:00","25,9","4,19","ND","ND","ND","ND"],
    [11377,"10/14/2015 16:00","35,2","3,98","ND","ND","ND","ND"],
    [11378,"10/14/2015 17:00","53,9","4,64","ND","ND","ND","ND"],
    [11379,"10/14/2015 18:00","68,7","5,53","ND","ND","ND","ND"],
    [11380,"10/14/2015 19:00","68,7","5,16","ND","ND","ND","ND"],
    [11381,"10/14/2015 20:00","63","2,91","ND","ND","ND","ND"],
    [11382,"10/14/2015 21:00","53,6","2,67","ND","ND","ND","ND"],
    [11383,"10/14/2015 22:00","45,7","2,2","ND","ND","ND","ND"],
    [11384,"10/14/2015 23:00","49,1","1,86","ND","ND","ND","ND"],
    [11385,"10/15/2015 00:00","34,5","3,64","ND","ND","ND","ND"],
    [11386,"10/15/2015 01:00","25,9","2,1","ND","ND","ND","ND"],
    [11387,"10/15/2015 02:00","15,6","1,73","ND","ND","ND","ND"],
    [11388,"10/15/2015 03:00","6,8","0,71","ND","ND","ND","ND"],
    [11389,"10/15/2015 04:00","0,8","0,63","ND","ND","ND","ND"],
    [11390,"10/15/2015 05:00","3","0,5","ND","ND","ND","ND"],
    [11391,"10/15/2015 06:00","3","0,55","ND","ND","ND","ND"],
    [11392,"10/15/2015 07:00","23,6","1,57","ND","ND","ND","ND"],
    [11393,"10/15/2015 08:00","23,6","1,83","ND","ND","ND","ND"],
    [11394,"10/15/2015 09:00","36,9","2,38","ND","ND","ND","ND"],
    [11395,"10/15/2015 10:00","41,3","2,28","ND","ND","ND","ND"],
    [11396,"10/15/2015 11:00","43,5","3,14","ND","ND","ND","ND"],
    [11397,"10/15/2015 12:00","47,4","3,85","ND","ND","ND","ND"],
    [11398,"10/15/2015 13:00","26,8","2,36","ND","ND","ND","ND"],
    [11399,"10/15/2015 14:00","28,7","3,43","ND","ND","ND","ND"],
    [11400,"10/15/2015 15:00","20,5","51,78","ND","ND","ND","ND"],
    [11401,"10/15/2015 16:00","13,7","122,71","ND","ND","ND","ND"],
    [11402,"10/15/2015 17:00","12","3,09","ND","ND","ND","ND"],
    [11403,"10/15/2015 18:00","25,6","5,11","ND","ND","ND","ND"],
    [11404,"10/15/2015 19:00","31","10,87","ND","ND","ND","ND"],
    [11405,"10/15/2015 20:00","18,5","9,54","ND","ND","ND","ND"],
    [11406,"10/15/2015 21:00","48,4","7,52","ND","ND","ND","ND"],
    [11407,"10/15/2015 22:00","43,8","8,52","ND","ND","ND","ND"],
    [11408,"10/15/2015 23:00","41","7,05","ND","ND","ND","ND"],
    [11409,"10/16/2015 00:00","38,8","8,15","ND","ND","ND","ND"],
    [11410,"10/16/2015 01:00","33,2","2,78","ND","ND","ND","ND"],
    [11411,"10/16/2015 02:00","51,6","6,34","ND","ND","ND","ND"],
    [11412,"10/16/2015 03:00","30","2,46","ND","ND","ND","ND"],
    [11413,"10/16/2015 04:00","24,9","1,49","ND","ND","ND","ND"],
    [11414,"10/16/2015 05:00","35","1,68","ND","ND","ND","ND"],
    [11415,"10/16/2015 06:00","42,2","2,67","ND","ND","ND","ND"],
    [11416,"10/16/2015 07:00","30,7","6,18","ND","ND","ND","ND"],
    [11417,"10/16/2015 08:00","20,7","6,97","ND","ND","ND","ND"],
    [11418,"10/16/2015 09:00","16,6","4,64","ND","ND","ND","ND"],
    [11419,"10/16/2015 10:00","15,3","3,01","ND","ND","ND","ND"],
    [11420,"10/16/2015 11:00","21,3","2,31","ND","ND","ND","ND"],
    [11421,"10/16/2015 12:00","14","1,89","ND","ND","ND","ND"],
    [11422,"10/16/2015 13:00","13,6","2,38","ND","ND","ND","ND"],
    [11423,"10/16/2015 14:00","25,4","2,96","ND","ND","ND","ND"],
    [11424,"10/16/2015 15:00","29","4,9","ND","ND","ND","ND"],
    [11425,"10/16/2015 16:00","28","4,59","ND","ND","ND","ND"],
    [11426,"10/16/2015 17:00","39,3","2,2","ND","ND","ND","ND"],
    [11427,"10/16/2015 18:00","15,3","2,91","ND","ND","ND","ND"],
    [11428,"10/16/2015 19:00","17,9","5,9","ND","ND","ND","ND"],
    [11429,"10/16/2015 20:00","27","13,44","ND","ND","ND","ND"],
    [11430,"10/16/2015 21:00","31,1","8,25","ND","ND","ND","ND"],
    [11431,"10/16/2015 22:00","35,4","12,26","ND","ND","ND","ND"],
    [11432,"10/16/2015 23:00","33,9","7,97","ND","ND","ND","ND"],
    [11433,"10/17/2015 00:00","40,5","6,84","ND","ND","ND","ND"],
    [11434,"10/17/2015 01:00","26,8","4,24","ND","ND","ND","ND"],
    [11435,"10/17/2015 02:00","23,1","2,54","ND","ND","ND","ND"],
    [11436,"10/17/2015 03:00","25,6","1,62","ND","ND","ND","ND"],
    [11437,"10/17/2015 04:00","44,3","7,07","ND","ND","ND","ND"],
    [11438,"10/17/2015 05:00","36,1","2,73","ND","ND","ND","ND"],
    [11439,"10/17/2015 06:00","46,2","4,4","ND","ND","ND","ND"],
    [11440,"10/17/2015 07:00","46,2","9,75","ND","ND","ND","ND"],
    [11441,"10/17/2015 08:00","43,7","8,44","ND","ND","ND","ND"],
    [11442,"10/17/2015 09:00","93,9","56,89","ND","ND","ND","ND"],
    [11443,"10/17/2015 10:00","80,4","49,47","ND","ND","ND","ND"],
    [11444,"10/17/2015 11:00","53,3","29,22","ND","ND","ND","ND"],
    [11445,"10/17/2015 12:00","43,6","18,24","ND","ND","ND","ND"],
    [11446,"10/17/2015 13:00","46,2","11,14","ND","ND","ND","ND"],
    [11447,"10/17/2015 14:00","49,6","8,96","ND","ND","ND","ND"],
    [11448,"10/17/2015 15:00","32,9","5,92","ND","ND","ND","ND"],
    [11449,"10/17/2015 16:00","10,8","3,14","ND","ND","ND","ND"],
    [11450,"10/17/2015 17:00","12,1","2,44","ND","ND","ND","ND"],
    [11451,"10/17/2015 18:00","13,7","2,49","ND","ND","ND","ND"],
    [11452,"10/17/2015 19:00","9,4","3,38","ND","ND","ND","ND"],
    [11453,"10/17/2015 20:00","9,7","3,43","ND","ND","ND","ND"],
    [11454,"10/17/2015 21:00","12,1","3,22","ND","ND","ND","ND"],
    [11455,"10/17/2015 22:00","13,8","3,59","ND","ND","ND","ND"],
    [11456,"10/17/2015 23:00","39,7","7,65","ND","ND","ND","ND"],
    [11457,"10/18/2015 00:00","35,7","4,24","ND","ND","ND","ND"],
    [11458,"10/18/2015 01:00","30,5","5,42","ND","ND","ND","ND"],
    [11459,"10/18/2015 02:00","41,7","6,24","ND","ND","ND","ND"],
    [11460,"10/18/2015 03:00","35,5","4,19","ND","ND","ND","ND"],
    [11461,"10/18/2015 04:00","29,2","3,43","ND","ND","ND","ND"],
    [11462,"10/18/2015 05:00","28,1","3,3","ND","ND","ND","ND"],
    [11463,"10/18/2015 06:00","32,7","2,62","ND","ND","ND","ND"],
    [11464,"10/18/2015 07:00","45,2","4,22","ND","ND","ND","ND"],
    [11465,"10/18/2015 08:00","44,3","6,11","ND","ND","ND","ND"],
    [11466,"10/18/2015 09:00","54,2","6,6","ND","ND","ND","ND"],
    [11467,"10/18/2015 10:00","49,8","9,62","ND","ND","ND","ND"],
    [11468,"10/18/2015 11:00","27,5","13,18","ND","ND","ND","ND"],
    [11469,"10/18/2015 12:00","16,9","9,54","ND","ND","ND","ND"],
    [11470,"10/18/2015 13:00","25,6","7,83","ND","ND","ND","ND"],
    [11471,"10/18/2015 14:00","4,3","3,17","ND","ND","ND","ND"],
    [11472,"10/18/2015 15:00","9,7","2,15","ND","ND","ND","ND"],
    [11473,"10/18/2015 16:00","6,1","1,49","ND","ND","ND","ND"],
    [11474,"10/18/2015 17:00","23,1","2,12","ND","ND","ND","ND"],
    [11475,"10/18/2015 18:00","26,3","4,17","ND","ND","ND","ND"],
    [11476,"10/18/2015 19:00","30,8","7,7","ND","ND","ND","ND"],
    [11477,"10/18/2015 20:00","31,8","6,42","ND","ND","ND","ND"],
    [11478,"10/18/2015 21:00","39,7","7,7","ND","ND","ND","ND"],
    [11479,"10/18/2015 22:00","32,9","6,45","ND","ND","ND","ND"],
    [11480,"10/18/2015 23:00","32,8","9,01","ND","ND","ND","ND"],
    [11481,"10/19/2015 00:00","49,9","5,79","ND","ND","ND","ND"],
    [11482,"10/19/2015 01:00","18,8","2,57","ND","ND","ND","ND"],
    [11483,"10/19/2015 02:00","27,5","2,88","ND","ND","ND","ND"],
    [11484,"10/19/2015 03:00","38,6","2,41","ND","ND","ND","ND"],
    [11485,"10/19/2015 04:00","24,9","2,83","ND","ND","ND","ND"],
    [11486,"10/19/2015 05:00","31,5","2,12","ND","ND","ND","ND"],
    [11487,"10/19/2015 06:00","45,2","3,28","ND","ND","ND","ND"],
    [11488,"10/19/2015 07:00","72,9","9,28","ND","ND","ND","ND"],
    [11489,"10/19/2015 08:00","110,7","22,25","ND","ND","ND","ND"],
    [11490,"10/19/2015 09:00","103,3","42,61","ND","ND","ND","ND"],
    [11491,"10/19/2015 10:00","40,4","24,32","ND","ND","ND","ND"],
    [11492,"10/19/2015 11:00","36,5","16,95","ND","ND","ND","ND"],
    [11493,"10/19/2015 12:00","37,1","12","ND","ND","ND","ND"],
    [11494,"10/19/2015 13:00","33,9","8,67","ND","ND","ND","ND"],
    [11495,"10/19/2015 14:00","32,7","6,6","ND","ND","ND","ND"],
    [11496,"10/19/2015 15:00","32,7","5,27","ND","ND","ND","ND"],
    [11497,"10/19/2015 16:00","32","4,11","ND","ND","ND","ND"],
    [11498,"10/19/2015 17:00","24,1","3,43","ND","ND","ND","ND"],
    [11499,"10/19/2015 18:00","17,6","3,51","ND","ND","ND","ND"],
    [11500,"10/19/2015 19:00","19,5","5,63","ND","ND","ND","ND"],
    [11501,"10/19/2015 20:00","16","3,38","ND","ND","ND","ND"],
    [11502,"10/19/2015 21:00","24,2","4,04","ND","ND","ND","ND"],
    [11503,"10/19/2015 22:00","28,2","7,55","ND","ND","ND","ND"],
    [11504,"10/19/2015 23:00","37,8","5,58","ND","ND","ND","ND"],
    [11505,"10/20/2015 00:00","55,8","2,7","ND","ND","ND","ND"],
    [11506,"10/20/2015 01:00","35,3","3,09","ND","ND","ND","ND"],
    [11507,"10/20/2015 02:00","34,1","2,04","ND","ND","ND","ND"],
    [11508,"10/20/2015 03:00","35,5","2,02","ND","ND","ND","ND"],
    [11509,"10/20/2015 04:00","31,8","2,36","ND","ND","ND","ND"],
    [11510,"10/20/2015 05:00","32,6","1,81","ND","ND","ND","ND"],
    [11511,"10/20/2015 06:00","55,3","5,14","ND","ND","ND","ND"],
    [11512,"10/20/2015 07:00","70,5","8,75","ND","ND","ND","ND"],
    [11513,"10/20/2015 08:00","63,5","8,41","ND","ND","ND","ND"],
    [11514,"10/20/2015 09:00","64,6","13,47","ND","ND","ND","ND"],
    [11515,"10/20/2015 10:00","45,5","13,34","ND","ND","ND","ND"],
    [11516,"10/20/2015 11:00","39","9,14","ND","ND","ND","ND"],
    [11517,"10/20/2015 12:00","49,6","8,07","ND","ND","ND","ND"],
    [11518,"10/20/2015 13:00","49,6","7,07","ND","ND","ND","ND"],
    [11519,"10/20/2015 14:00","5,6","3,48","ND","ND","ND","ND"],
    [11520,"10/20/2015 15:00","9,6","1,97","ND","ND","ND","ND"],
    [11521,"10/20/2015 16:00","13,5","1,41","ND","ND","ND","ND"],
    [11522,"10/20/2015 17:00","20","1,23","ND","ND","ND","ND"],
    [11523,"10/20/2015 18:00","16,5","1,07","ND","ND","ND","ND"],
    [11524,"10/20/2015 19:00","17,2","1,05","ND","ND","ND","ND"],
    [11525,"10/20/2015 20:00","15,8","1,18","ND","ND","ND","ND"],
    [11526,"10/20/2015 21:00","9,8","1,18","ND","ND","ND","ND"],
    [11527,"10/20/2015 22:00","20,8","1,21","ND","ND","ND","ND"],
    [11528,"10/20/2015 23:00","61,2","1,78","ND","ND","ND","ND"],
    [11529,"10/21/2015 00:00","48,7","2,04","ND","ND","ND","ND"],
    [11530,"10/21/2015 01:00","50","2,52","ND","ND","ND","ND"],
    [11531,"10/21/2015 02:00","34,6","1,7","ND","ND","ND","ND"],
    [11532,"10/21/2015 03:00","31,4","1,76","ND","ND","ND","ND"],
    [11533,"10/21/2015 04:00","30,5","2,25","ND","ND","ND","ND"],
    [11534,"10/21/2015 05:00","34","2,07","ND","ND","ND","ND"],
    [11535,"10/21/2015 06:00","71,3","1,89","ND","ND","ND","ND"],
    [11536,"10/21/2015 07:00","72,8","3,12","ND","ND","ND","ND"],
    [11537,"10/21/2015 08:00","90,3","6,42","ND","ND","ND","ND"],
    [11538,"10/21/2015 09:00","61,1","9,69","ND","ND","ND","ND"],
    [11539,"10/21/2015 10:00","61,6","9,9","ND","ND","ND","ND"],
    [11540,"10/21/2015 11:00","40,7","8,54","ND","ND","ND","ND"],
    [11541,"10/21/2015 12:00","66","10,38","ND","ND","ND","ND"],
    [11542,"10/21/2015 13:00","59,7","12,29","ND","ND","ND","ND"],
    [11543,"10/21/2015 14:00","30,9","7,7","ND","ND","ND","ND"],
    [11544,"10/21/2015 15:00","23,8","1,94","ND","ND","ND","ND"],
    [11545,"10/21/2015 16:00","23,5","1,31","ND","ND","ND","ND"],
    [11546,"10/21/2015 17:00","23,5","1,18","ND","ND","ND","ND"],
    [11547,"10/21/2015 18:00","19,5","1,15","ND","ND","ND","ND"],
    [11548,"10/21/2015 19:00","15,2","1,13","ND","ND","ND","ND"],
    [11549,"10/21/2015 20:00","11,3","1,02","ND","ND","ND","ND"],
    [11550,"10/21/2015 21:00","36,1","1,28","ND","ND","ND","ND"],
    [11551,"10/21/2015 22:00","66,3","2,52","ND","ND","ND","ND"],
    [11552,"10/21/2015 23:00","66,3","2,83","ND","ND","ND","ND"],
    [11553,"10/22/2015 00:00","38","2,88","ND","ND","ND","ND"],
    [11554,"10/22/2015 01:00","36,1","1,6","ND","ND","ND","ND"],
    [11555,"10/22/2015 02:00","26,9","1,26","ND","ND","ND","ND"],
    [11556,"10/22/2015 03:00","31,8","1,36","ND","ND","ND","ND"],
    [11557,"10/22/2015 04:00","36,2","1,76","ND","ND","ND","ND"],
    [11558,"10/22/2015 05:00","47,6","2,83","ND","ND","ND","ND"],
    [11559,"10/22/2015 06:00","63,2","3,54","ND","ND","ND","ND"],
    [11560,"10/22/2015 07:00","66,8","3,72","ND","ND","ND","ND"],
    [11561,"10/22/2015 08:00","64,1","7,83","ND","ND","ND","ND"],
    [11562,"10/22/2015 09:00","67,6","10,77","ND","ND","ND","ND"],
    [11563,"10/22/2015 10:00","59,7","20,6","ND","ND","ND","ND"],
    [11564,"10/22/2015 11:00","41,4","12,03","ND","ND","ND","ND"],
    [11565,"10/22/2015 12:00","50,5","9,9","ND","ND","ND","ND"],
    [11566,"10/22/2015 13:00","29,5","7,05","ND","ND","ND","ND"],
    [11567,"10/22/2015 14:00","25,3","2,49","ND","ND","ND","ND"],
    [11568,"10/22/2015 15:00","14,7","1,55","ND","ND","ND","ND"],
    [11569,"10/22/2015 16:00","12,3","1,18","ND","ND","ND","ND"],
    [11570,"10/22/2015 17:00","18,9","1,13","ND","ND","ND","ND"],
    [11571,"10/22/2015 18:00","20,2","1,18","ND","ND","ND","ND"],
    [11572,"10/22/2015 19:00","29","1,52","ND","ND","ND","ND"],
    [11573,"10/22/2015 20:00","15,4","1,41","ND","ND","ND","ND"],
    [11574,"10/22/2015 21:00","37,9","1,6","ND","ND","ND","ND"],
    [11575,"10/22/2015 22:00","37,7","2,1","ND","ND","ND","ND"],
    [11576,"10/22/2015 23:00","50,3","3,69","ND","ND","ND","ND"],
    [11577,"10/23/2015 00:00","11,2","1,1","ND","ND","ND","ND"],
    [11578,"10/23/2015 01:00","28","1,81","ND","ND","ND","ND"],
    [11579,"10/23/2015 02:00","27,6","1,81","ND","ND","ND","ND"],
    [11580,"10/23/2015 03:00","31,1","2,15","ND","ND","ND","ND"],
    [11581,"10/23/2015 04:00","42,4","2,36","ND","ND","ND","ND"],
    [11582,"10/23/2015 05:00","39,6","3,22","ND","ND","ND","ND"],
    [11583,"10/23/2015 06:00","49,9","1,7","ND","ND","ND","ND"],
    [11584,"10/23/2015 07:00","38,4","1,62","ND","ND","ND","ND"],
    [11585,"10/23/2015 08:00","34,9","2,1","ND","ND","ND","ND"],
    [11586,"10/23/2015 09:00","31,2","4,22","ND","ND","ND","ND"],
    [11587,"10/23/2015 10:00","54,5","15,67","ND","ND","ND","ND"],
    [11588,"10/23/2015 11:00","35,7","18,13","ND","ND","ND","ND"],
    [11589,"10/23/2015 12:00","54,5","10,53","ND","ND","ND","ND"],
    [11590,"10/23/2015 13:00","3,4","4,35","ND","ND","ND","ND"],
    [11591,"10/23/2015 14:00","12,2","1,34","ND","ND","ND","ND"],
    [11592,"10/23/2015 15:00","23,5","1,1","ND","ND","ND","ND"],
    [11593,"10/23/2015 16:00","6,3","1,15","ND","ND","ND","ND"],
    [11594,"10/23/2015 17:00","30,4","1,31","ND","ND","ND","ND"],
    [11595,"10/23/2015 18:00","43,9","1,99","ND","ND","ND","ND"],
    [11596,"10/23/2015 19:00","34,1","1,7","ND","ND","ND","ND"],
    [11597,"10/23/2015 20:00","28,4","1,23","ND","ND","ND","ND"],
    [11598,"10/23/2015 21:00","19,1","1,02","ND","ND","ND","ND"],
    [11599,"10/23/2015 22:00","23,9","1,39","ND","ND","ND","ND"],
    [11600,"10/23/2015 23:00","11,2","1,15","ND","ND","ND","ND"],
    [11601,"10/24/2015 00:00","26,7","1,36","ND","ND","ND","ND"],
    [11602,"10/24/2015 01:00","9,6","0,81","ND","ND","ND","ND"],
    [11603,"10/24/2015 02:00","20","0,79","ND","ND","ND","ND"],
    [11604,"10/24/2015 03:00","15","0,6","ND","ND","ND","ND"],
    [11605,"10/24/2015 04:00","20,1","0,71","ND","ND","ND","ND"],
    [11606,"10/24/2015 05:00","42,5","1,78","ND","ND","ND","ND"],
    [11607,"10/24/2015 06:00","70,1","13,1","ND","ND","ND","ND"],
    [11608,"10/24/2015 07:00","72","36,89","ND","ND","ND","ND"],
    [11609,"10/24/2015 08:00","79,5","35,58","ND","ND","ND","ND"],
    [11610,"10/24/2015 09:00","48,6","23,14","ND","ND","ND","ND"],
    [11611,"10/24/2015 10:00","29","9,64","ND","ND","ND","ND"],
    [11612,"10/24/2015 11:00","25,2","5,53","ND","ND","ND","ND"],
    [11613,"10/24/2015 12:00","32","5,42","ND","ND","ND","ND"],
    [11614,"10/24/2015 13:00","37,1","4,51","ND","ND","ND","ND"],
    [11615,"10/24/2015 14:00","34,4","3,8","ND","ND","ND","ND"],
    [11616,"10/24/2015 15:00","12,4","2,17","ND","ND","ND","ND"],
    [11617,"10/24/2015 16:00","7","1,36","ND","ND","ND","ND"],
    [11618,"10/24/2015 17:00","9,4","1,05","ND","ND","ND","ND"],
    [11619,"10/24/2015 18:00","5,7","1,05","ND","ND","ND","ND"],
    [11620,"10/24/2015 19:00","9,3","1,07","ND","ND","ND","ND"],
    [11621,"10/24/2015 20:00","13,5","0,89","ND","ND","ND","ND"],
    [11622,"10/24/2015 21:00","33,6","1,49","ND","ND","ND","ND"],
    [11623,"10/24/2015 22:00","23,2","1,36","ND","ND","ND","ND"],
    [11624,"10/24/2015 23:00","16,4","1,31","ND","ND","ND","ND"],
    [11625,"10/25/2015 00:00","13,1","0,39","ND","ND","ND","ND"],
    [11626,"10/25/2015 01:00","13,7","1,21","ND","ND","ND","ND"],
    [11627,"10/25/2015 02:00","15,7","1,34","ND","ND","ND","ND"],
    [11628,"10/25/2015 03:00","15,3","1,44","ND","ND","ND","ND"],
    [11629,"10/25/2015 04:00","11,7","1,18","ND","ND","ND","ND"],
    [11630,"10/25/2015 05:00","11,7","1,05","ND","ND","ND","ND"],
    [11631,"10/25/2015 06:00","14,7","0,92","ND","ND","ND","ND"],
    [11632,"10/25/2015 07:00","25,6","1,13","ND","ND","ND","ND"],
    [11633,"10/25/2015 08:00","12,8","1,55","ND","ND","ND","ND"],
    [11634,"10/25/2015 09:00","23,3","2,91","ND","ND","ND","ND"],
    [11635,"10/25/2015 10:00","16,6","3,72","ND","ND","ND","ND"],
    [11636,"10/25/2015 11:00","20,2","2,38","ND","ND","ND","ND"],
    [11637,"10/25/2015 12:00","12,9","2,1","ND","ND","ND","ND"],
    [11638,"10/25/2015 13:00","17,3","2,04","ND","ND","ND","ND"],
    [11639,"10/25/2015 14:00","26","1,99","ND","ND","ND","ND"],
    [11640,"10/25/2015 15:00","15,7","5,08","ND","ND","ND","ND"],
    [11641,"10/25/2015 16:00","20,5","1,86","ND","ND","ND","ND"],
    [11642,"10/25/2015 17:00","ND","0,94","ND","ND","ND","ND"],
    [11643,"10/25/2015 18:00","32","0,94","ND","ND","ND","ND"],
    [11644,"10/25/2015 19:00","26,7","0,92","ND","ND","ND","ND"],
    [11645,"10/25/2015 20:00","12,6","0,94","ND","ND","ND","ND"],
    [11646,"10/25/2015 21:00","15,3","0,79","ND","ND","ND","ND"],
    [11647,"10/25/2015 22:00","9,3","0,76","ND","ND","ND","ND"],
    [11648,"10/25/2015 23:00","10,5","0,6","ND","ND","ND","ND"],
    [11649,"10/26/2015 00:00","33,3","1,65","ND","ND","ND","ND"],
    [11650,"10/26/2015 01:00","18,1","0,45","ND","ND","ND","ND"],
    [11651,"10/26/2015 02:00","17,8","0,31","ND","ND","ND","ND"],
    [11652,"10/26/2015 03:00","19,6","0,29","ND","ND","ND","ND"],
    [11653,"10/26/2015 04:00","24,1","0,47","ND","ND","ND","ND"],
    [11654,"10/26/2015 05:00","26,2","0,42","ND","ND","ND","ND"],
    [11655,"10/26/2015 06:00","46,1","0,63","ND","ND","ND","ND"],
    [11656,"10/26/2015 07:00","56,7","1,15","ND","ND","ND","ND"],
    [11657,"10/26/2015 08:00","42","1,86","ND","ND","ND","ND"],
    [11658,"10/26/2015 09:00","46,1","2,54","ND","ND","ND","ND"],
    [11659,"10/26/2015 10:00","37,5","3,72","ND","ND","ND","ND"],
    [11660,"10/26/2015 11:00","30,9","7,05","ND","ND","ND","ND"],
    [11661,"10/26/2015 12:00","36,4","90,24","ND","ND","ND","ND"],
    [11662,"10/26/2015 13:00","36,4","4,22","ND","ND","ND","ND"],
    [11663,"10/26/2015 14:00","47,6","4,95","ND","ND","ND","ND"],
    [11664,"10/26/2015 15:00","56,2","10,09","ND","ND","ND","ND"],
    [11665,"10/26/2015 16:00","15,5","14,25","ND","ND","ND","ND"],
    [11666,"10/26/2015 17:00","14,6","1,73","ND","ND","ND","ND"],
    [11667,"10/26/2015 18:00","10,3","1,28","ND","ND","ND","ND"],
    [11668,"10/26/2015 19:00","12,3","1,23","ND","ND","ND","ND"],
    [11669,"10/26/2015 20:00","11,4","1,07","ND","ND","ND","ND"],
    [11670,"10/26/2015 21:00","11,6","0,94","ND","ND","ND","ND"],
    [11671,"10/26/2015 22:00","10,3","1,28","ND","ND","ND","ND"],
    [11672,"10/26/2015 23:00","50,7","1,94","ND","ND","ND","ND"],
    [11673,"10/27/2015 00:00","42,5","1,86","ND","ND","ND","ND"],
    [11674,"10/27/2015 01:00","25,4","2,17","ND","ND","ND","ND"],
    [11675,"10/27/2015 02:00","29,9","2,25","ND","ND","ND","ND"],
    [11676,"10/27/2015 03:00","29,4","1,49","ND","ND","ND","ND"],
    [11677,"10/27/2015 04:00","33","2,67","ND","ND","ND","ND"],
    [11678,"10/27/2015 05:00","34,2","2,33","ND","ND","ND","ND"],
    [11679,"10/27/2015 06:00","38,1","1,57","ND","ND","ND","ND"],
    [11680,"10/27/2015 07:00","46","2,38","ND","ND","ND","ND"],
    [11681,"10/27/2015 08:00","57,2","6","ND","ND","ND","ND"],
    [11682,"10/27/2015 09:00","77","8,2","ND","ND","ND","ND"],
    [11683,"10/27/2015 10:00","87,8","21,62","ND","ND","ND","ND"],
    [11684,"10/27/2015 11:00","57,2","77,19","ND","ND","ND","ND"],
    [11685,"10/27/2015 12:00","25,3","28,32","ND","ND","ND","ND"],
    [11686,"10/27/2015 13:00","24,9","10,01","ND","ND","ND","ND"],
    [11687,"10/27/2015 14:00","17,5","9,72","ND","ND","ND","ND"],
    [11688,"10/27/2015 15:00","5,5","2,33","ND","ND","ND","ND"],
    [11689,"10/27/2015 16:00","6,3","1,47","ND","ND","ND","ND"],
    [11690,"10/27/2015 17:00","26,4","3,8","ND","ND","ND","ND"],
    [11691,"10/27/2015 18:00","30,6","10,74","ND","ND","ND","ND"],
    [11692,"10/27/2015 19:00","45,2","5,29","ND","ND","ND","ND"],
    [11693,"10/27/2015 20:00","39,7","3,62","ND","ND","ND","ND"],
    [11694,"10/27/2015 21:00","47,4","3,3","ND","ND","ND","ND"],
    [11695,"10/27/2015 22:00","55,8","2,62","ND","ND","ND","ND"],
    [11696,"10/27/2015 23:00","45","2,8","ND","ND","ND","ND"],
    [11697,"10/28/2015 00:00","46,7","2,17","ND","ND","ND","ND"],
    [11698,"10/28/2015 01:00","30,5","1,26","ND","ND","ND","ND"],
    [11699,"10/28/2015 02:00","26,9","1,07","ND","ND","ND","ND"],
    [11700,"10/28/2015 03:00","35,5","1,13","ND","ND","ND","ND"],
    [11701,"10/28/2015 04:00","31,9","1,13","ND","ND","ND","ND"],
    [11702,"10/28/2015 05:00","37,8","1,62","ND","ND","ND","ND"],
    [11703,"10/28/2015 06:00","45,8","1,6","ND","ND","ND","ND"],
    [11704,"10/28/2015 07:00","66,2","2,93","ND","ND","ND","ND"],
    [11705,"10/28/2015 08:00","62","3,85","ND","ND","ND","ND"],
    [11706,"10/28/2015 09:00","63,1","6,39","ND","ND","ND","ND"],
    [11707,"10/28/2015 10:00","55,1","6,94","ND","ND","ND","ND"],
    [11708,"10/28/2015 11:00","38,9","6,08","ND","ND","ND","ND"],
    [11709,"10/28/2015 12:00","52,3","5,29","ND","ND","ND","ND"],
    [11710,"10/28/2015 13:00","57,3","7,21","ND","ND","ND","ND"],
    [11711,"10/28/2015 14:00","43","11,56","ND","ND","ND","ND"],
    [11712,"10/28/2015 15:00","ND","ND","ND","ND","ND","ND"],
    [11713,"10/28/2015 16:00","ND","ND","ND","ND","ND","ND"],
    [11714,"10/28/2015 17:00","ND","5,21","ND","ND","ND","ND"],
    [11715,"10/28/2015 18:00","ND","2,38","ND","ND","ND","ND"],
    [11716,"10/28/2015 19:00","ND","1,07","ND","ND","ND","ND"],
    [11717,"10/28/2015 20:00","ND","2,38","ND","ND","ND","ND"],
    [11718,"10/28/2015 21:00","45,6","2,73","ND","ND","ND","ND"],
    [11719,"10/28/2015 22:00","40,2","2,96","ND","ND","ND","ND"],
    [11720,"10/28/2015 23:00","46,7","2,04","ND","ND","ND","ND"],
    [11721,"10/29/2015 00:00","38,5","1,99","ND","ND","ND","ND"],
    [11722,"10/29/2015 01:00","36,2","1,81","ND","ND","ND","ND"],
    [11723,"10/29/2015 02:00","27,2","1,49","ND","ND","ND","ND"],
    [11724,"10/29/2015 03:00","28,2","1,6","ND","ND","ND","ND"],
    [11725,"10/29/2015 04:00","25,7","1,26","ND","ND","ND","ND"],
    [11726,"10/29/2015 05:00","26,8","1,02","ND","ND","ND","ND"],
    [11727,"10/29/2015 06:00","41,5","1,39","ND","ND","ND","ND"],
    [11728,"10/29/2015 07:00","58,2","2,28","ND","ND","ND","ND"],
    [11729,"10/29/2015 08:00","58,1","8,33","ND","ND","ND","ND"],
    [11730,"10/29/2015 09:00","54,6","10,98","ND","ND","ND","ND"],
    [11731,"10/29/2015 10:00","51,4","16,25","ND","ND","ND","ND"],
    [11732,"10/29/2015 11:00","62","11,87","ND","ND","ND","ND"],
    [11733,"10/29/2015 12:00","74,9","10,06","ND","ND","ND","ND"],
    [11734,"10/29/2015 13:00","26,3","7,49","ND","ND","ND","ND"],
    [11735,"10/29/2015 14:00","17","1,99","ND","ND","ND","ND"],
    [11736,"10/29/2015 15:00","14,5","1,1","ND","ND","ND","ND"],
    [11737,"10/29/2015 16:00","16,8","0,89","ND","ND","ND","ND"],
    [11738,"10/29/2015 17:00","27,2","1","ND","ND","ND","ND"],
    [11739,"10/29/2015 18:00","19,2","1,02","ND","ND","ND","ND"],
    [11740,"10/29/2015 19:00","19,2","1,23","ND","ND","ND","ND"],
    [11741,"10/29/2015 20:00","52,8","2,2","ND","ND","ND","ND"],
    [11742,"10/29/2015 21:00","52","2,75","ND","ND","ND","ND"],
    [11743,"10/29/2015 22:00","52,4","2,25","ND","ND","ND","ND"],
    [11744,"10/29/2015 23:00","42,6","2,2","ND","ND","ND","ND"],
    [11745,"10/30/2015 00:00","56,4","3,09","ND","ND","ND","ND"],
    [11746,"10/30/2015 01:00","37,9","1,91","ND","ND","ND","ND"],
    [11747,"10/30/2015 02:00","54,2","2,65","ND","ND","ND","ND"],
    [11748,"10/30/2015 03:00","37,7","3,38","ND","ND","ND","ND"],
    [11749,"10/30/2015 04:00","42,4","5,35","ND","ND","ND","ND"],
    [11750,"10/30/2015 05:00","23,6","3,38","ND","ND","ND","ND"],
    [11751,"10/30/2015 06:00","16,4","1,62","ND","ND","ND","ND"],
    [11752,"10/30/2015 07:00","23,3","1,76","ND","ND","ND","ND"],
    [11753,"10/30/2015 08:00","26,7","1,97","ND","ND","ND","ND"],
    [11754,"10/30/2015 09:00","27,4","2,83","ND","ND","ND","ND"],
    [11755,"10/30/2015 10:00","30,6","5,84","ND","ND","ND","ND"],
    [11756,"10/30/2015 11:00","28","5,97","ND","ND","ND","ND"],
    [11757,"10/30/2015 12:00","25,3","4,22","ND","ND","ND","ND"],
    [11758,"10/30/2015 13:00","27,9","3,69","ND","ND","ND","ND"],
    [11759,"10/30/2015 14:00","39,1","5,14","ND","ND","ND","ND"],
    [11760,"10/30/2015 15:00","14,3","3,72","ND","ND","ND","ND"],
    [11761,"10/30/2015 16:00","8","0,94","ND","ND","ND","ND"],
    [11762,"10/30/2015 17:00","15,2","0,76","ND","ND","ND","ND"],
    [11763,"10/30/2015 18:00","17,8","1,49","ND","ND","ND","ND"],
    [11764,"10/30/2015 19:00","57,3","2,88","ND","ND","ND","ND"],
    [11765,"10/30/2015 20:00","36,5","2,49","ND","ND","ND","ND"],
    [11766,"10/30/2015 21:00","21,5","1,57","ND","ND","ND","ND"],
    [11767,"10/30/2015 22:00","71,9","4,45","ND","ND","ND","ND"],
    [11768,"10/30/2015 23:00","107,3","3,17","ND","ND","ND","ND"],
    [11769,"10/31/2015 00:00","44,1","1,73","ND","ND","ND","ND"],
    [11770,"10/31/2015 01:00","38,7","1,97","ND","ND","ND","ND"],
    [11771,"10/31/2015 02:00","32,2","1,78","ND","ND","ND","ND"],
    [11772,"10/31/2015 03:00","27","1,28","ND","ND","ND","ND"],
    [11773,"10/31/2015 04:00","30,7","1,41","ND","ND","ND","ND"],
    [11774,"10/31/2015 05:00","33,9","1,36","ND","ND","ND","ND"],
    [11775,"10/31/2015 06:00","48,8","2,25","ND","ND","ND","ND"],
    [11776,"10/31/2015 07:00","56","2,99","ND","ND","ND","ND"],
    [11777,"10/31/2015 08:00","74,6","12,37","ND","ND","ND","ND"],
    [11778,"10/31/2015 09:00","66,3","29,43","ND","ND","ND","ND"],
    [11779,"10/31/2015 10:00","75,6","15,25","ND","ND","ND","ND"],
    [11780,"10/31/2015 11:00","49,5","7,36","ND","ND","ND","ND"],
    [11781,"10/31/2015 12:00","41,6","5,95","ND","ND","ND","ND"],
    [11782,"10/31/2015 13:00","20,6","3,3","ND","ND","ND","ND"],
    [11783,"10/31/2015 14:00","11,1","1,26","ND","ND","ND","ND"],
    [11784,"10/31/2015 15:00","3,7","0,97","ND","ND","ND","ND"],
    [11785,"10/31/2015 16:00","9,4","0,86","ND","ND","ND","ND"],
    [11786,"10/31/2015 17:00","21,1","1,21","ND","ND","ND","ND"],
    [11787,"10/31/2015 18:00","32,8","2,2","ND","ND","ND","ND"],
    [11788,"10/31/2015 19:00","15,7","1,52","ND","ND","ND","ND"],
    [11789,"10/31/2015 20:00","33,8","1,49","ND","ND","ND","ND"],
    [11790,"10/31/2015 21:00","52,3","2,62","ND","ND","ND","ND"],
    [11791,"10/31/2015 22:00","45","2,96","ND","ND","ND","ND"],
    [11792,"10/31/2015 23:00","45,6","1,7","ND","ND","ND","ND"],
    [11793,"42015","8,6","1","ND","ND","ND","ND"],
    [11794,"42015,04167","70,7","3,14","ND","ND","ND","ND"],
    [11795,"42015,08333","40,5","3,83","ND","ND","ND","ND"],
    [11796,"42015,125","52,6","4,3","ND","ND","ND","ND"],
    [11797,"42015,16667","44,4","3,43","ND","ND","ND","ND"],
    [11798,"42015,20833","10,6","2,67","ND","ND","ND","ND"],
    [11799,"42015,25","8,7","1,21","ND","ND","ND","ND"],
    [11800,"42015,29167","5,4","0,84","ND","ND","ND","ND"],
    [11801,"42015,33333","13,1","0,97","ND","ND","ND","ND"],
    [11802,"42015,375","12,4","0,86","ND","ND","ND","ND"],
    [11803,"42015,41667","4,1","1,05","ND","ND","ND","ND"],
    [11804,"42015,45833","10,8","0,73","ND","ND","ND","ND"],
    [11805,"42015,5","5,4","1,02","ND","ND","ND","ND"],
    [11806,"42015,54167","5,6","1,23","ND","ND","ND","ND"],
    [11807,"42015,58333","14,4","1,65","ND","ND","ND","ND"],
    [11808,"42015,625","18,6","1,65","ND","ND","ND","ND"],
    [11809,"42015,66667","26,9","1,7","ND","ND","ND","ND"],
    [11810,"42015,70833","7,8","1,34","ND","ND","ND","ND"],
    [11811,"42015,75","29,8","1,41","ND","ND","ND","ND"],
    [11812,"42015,79167","35,9","1,55","ND","ND","ND","ND"],
    [11813,"42015,83333","39,7","2,1","ND","ND","ND","ND"],
    [11814,"42015,875","48,1","3,07","ND","ND","ND","ND"],
    [11815,"42015,91667","32","1,21","ND","ND","ND","ND"],
    [11816,"42015,95833","6,5","1","ND","ND","ND","ND"],
    [11817,"42046","24,1","0,81","ND","ND","ND","ND"],
    [11818,"42046,04167","9,1","0,68","ND","ND","ND","ND"],
    [11819,"42046,08333","16","0,58","ND","ND","ND","ND"],
    [11820,"42046,125","12","0,58","ND","ND","ND","ND"],
    [11821,"42046,16667","13,1","3,46","ND","ND","ND","ND"],
    [11822,"42046,20833","11,2","3,51","ND","ND","ND","ND"],
    [11823,"42046,25","13,7","0,92","ND","ND","ND","ND"],
    [11824,"42046,29167","13,7","0,79","ND","ND","ND","ND"],
    [11825,"42046,33333","12,8","1,13","ND","ND","ND","ND"],
    [11826,"42046,375","9,1","1,21","ND","ND","ND","ND"],
    [11827,"42046,41667","6,8","1,73","ND","ND","ND","ND"],
    [11828,"42046,45833","8,5","1,62","ND","ND","ND","ND"],
    [11829,"42046,5","7,6","1,6","ND","ND","ND","ND"],
    [11830,"42046,54167","19,8","1,28","ND","ND","ND","ND"],
    [11831,"42046,58333","ND","1,36","ND","ND","ND","ND"],
    [11832,"42046,625","23,4","1,28","ND","ND","ND","ND"],
    [11833,"42046,66667","26,4","1,13","ND","ND","ND","ND"],
    [11834,"42046,70833","24,2","0,81","ND","ND","ND","ND"],
    [11835,"42046,75","15,7","0,86","ND","ND","ND","ND"],
    [11836,"42046,79167","4,4","0,76","ND","ND","ND","ND"],
    [11837,"42046,83333","16,3","0,89","ND","ND","ND","ND"],
    [11838,"42046,875","26,3","1,02","ND","ND","ND","ND"],
    [11839,"42046,91667","27,2","0,97","ND","ND","ND","ND"],
    [11840,"42046,95833","26,4","0,84","ND","ND","ND","ND"],
    [11841,"42074","40,3","1,26","ND","ND","ND","ND"],
    [11842,"42074,04167","24,5","0,84","ND","ND","ND","ND"],
    [11843,"42074,08333","24,5","0,84","ND","ND","ND","ND"],
    [11844,"42074,125","26,5","0,47","ND","ND","ND","ND"],
    [11845,"42074,16667","27,2","0,52","ND","ND","ND","ND"],
    [11846,"42074,20833","30,6","0,79","ND","ND","ND","ND"],
    [11847,"42074,25","48,8","0,92","ND","ND","ND","ND"],
    [11848,"42074,29167","59,8","1,78","ND","ND","ND","ND"],
    [11849,"42074,33333","66,7","4,01","ND","ND","ND","ND"],
    [11850,"42074,375","44,6","5,03","ND","ND","ND","ND"],
    [11851,"42074,41667","29,3","4,56","ND","ND","ND","ND"],
    [11852,"42074,45833","ND","54,42","ND","ND","ND","ND"],
    [11853,"42074,5","ND","4,3","ND","ND","ND","ND"],
    [11854,"42074,54167","ND","2,86","ND","ND","ND","ND"],
    [11855,"42074,58333","ND","2,44","ND","ND","ND","ND"],
    [11856,"42074,625","35","2,15","ND","ND","ND","ND"],
    [11857,"42074,66667","37,1","1,83","ND","ND","ND","ND"],
    [11858,"42074,70833","13,3","1,15","ND","ND","ND","ND"],
    [11859,"42074,75","15,9","0,89","ND","ND","ND","ND"],
    [11860,"42074,79167","14","0,86","ND","ND","ND","ND"],
    [11861,"42074,83333","11,9","0,81","ND","ND","ND","ND"],
    [11862,"42074,875","28,6","1,6","ND","ND","ND","ND"],
    [11863,"42074,91667","57,5","2,54","ND","ND","ND","ND"],
    [11864,"42074,95833","62","2,54","ND","ND","ND","ND"],
    [11865,"42105","45,2","1,47","ND","ND","ND","ND"],
    [11866,"42105,04167","50","1,39","ND","ND","ND","ND"],
    [11867,"42105,08333","44,1","1,49","ND","ND","ND","ND"],
    [11868,"42105,125","48,8","2,59","ND","ND","ND","ND"],
    [11869,"42105,16667","41,2","2,23","ND","ND","ND","ND"],
    [11870,"42105,20833","46,5","2,02","ND","ND","ND","ND"],
    [11871,"42105,25","53,4","2,12","ND","ND","ND","ND"],
    [11872,"42105,29167","78","2,62","ND","ND","ND","ND"],
    [11873,"42105,33333","55,2","5,48","ND","ND","ND","ND"],
    [11874,"42105,375","26,4","3,62","ND","ND","ND","ND"],
    [11875,"42105,41667","13,7","2,7","ND","ND","ND","ND"],
    [11876,"42105,45833","15,9","2,46","ND","ND","ND","ND"],
    [11877,"42105,5","22,5","2,57","ND","ND","ND","ND"],
    [11878,"42105,54167","38,1","2,73","ND","ND","ND","ND"],
    [11879,"42105,58333","44,3","4,11","ND","ND","ND","ND"],
    [11880,"42105,625","44,6","2,96","ND","ND","ND","ND"],
    [11881,"42105,66667","11,4","1,13","ND","ND","ND","ND"],
    [11882,"42105,70833","18,2","1,36","ND","ND","ND","ND"],
    [11883,"42105,75","20,3","1,73","ND","ND","ND","ND"],
    [11884,"42105,79167","34,7","1,89","ND","ND","ND","ND"],
    [11885,"42105,83333","47,1","1,83","ND","ND","ND","ND"],
    [11886,"42105,875","67,7","2,91","ND","ND","ND","ND"],
    [11887,"42105,91667","66,4","2,62","ND","ND","ND","ND"],
    [11888,"42105,95833","52,8","1,73","ND","ND","ND","ND"],
    [11889,"42135","44,7","3,98","ND","ND","ND","ND"],
    [11890,"42135,04167","38,4","1,7","ND","ND","ND","ND"],
    [11891,"42135,08333","28,2","1,21","ND","ND","ND","ND"],
    [11892,"42135,125","41","0,89","ND","ND","ND","ND"],
    [11893,"42135,16667","37","0,73","ND","ND","ND","ND"],
    [11894,"42135,20833","34,6","0,97","ND","ND","ND","ND"],
    [11895,"42135,25","20","1,1","ND","ND","ND","ND"],
    [11896,"42135,29167","0,5","1,78","ND","ND","ND","ND"],
    [11897,"42135,33333","40,3","2,52","ND","ND","ND","ND"],
    [11898,"42135,375","50,6","3,8","ND","ND","ND","ND"],
    [11899,"42135,41667","45,7","4,74","ND","ND","ND","ND"],
    [11900,"42135,45833","45,4","4,87","ND","ND","ND","ND"],
    [11901,"42135,5","54,4","5,55","ND","ND","ND","ND"],
    [11902,"42135,54167","61,5","13,36","ND","ND","ND","ND"],
    [11903,"42135,58333","36,8","8,12","ND","ND","ND","ND"],
    [11904,"42135,625","30,7","9,46","ND","ND","ND","ND"],
    [11905,"42135,66667","38,9","7,39","ND","ND","ND","ND"],
    [11906,"42135,70833","34,6","6,31","ND","ND","ND","ND"],
    [11907,"42135,75","18,4","1,55","ND","ND","ND","ND"],
    [11908,"42135,79167","58,4","2,31","ND","ND","ND","ND"],
    [11909,"42135,83333","58,4","2,86","ND","ND","ND","ND"],
    [11910,"42135,875","46,3","2,38","ND","ND","ND","ND"],
    [11911,"42135,91667","37,5","2,62","ND","ND","ND","ND"],
    [11912,"42135,95833","49,5","2,25","ND","ND","ND","ND"],
    [11913,"42166","44,3","2,78","ND","ND","ND","ND"],
    [11914,"42166,04167","29,1","2,25","ND","ND","ND","ND"],
    [11915,"42166,08333","25,2","1,62","ND","ND","ND","ND"],
    [11916,"42166,125","12,3","0,97","ND","ND","ND","ND"],
    [11917,"42166,16667","8,8","1","ND","ND","ND","ND"],
    [11918,"42166,20833","17,9","0,97","ND","ND","ND","ND"],
    [11919,"42166,25","26,3","1,13","ND","ND","ND","ND"],
    [11920,"42166,29167","50,6","3,22","ND","ND","ND","ND"],
    [11921,"42166,33333","63","4,53","ND","ND","ND","ND"],
    [11922,"42166,375","48","2,88","ND","ND","ND","ND"],
    [11923,"42166,41667","43,7","2,15","ND","ND","ND","ND"],
    [11924,"42166,45833","33,1","1,97","ND","ND","ND","ND"],
    [11925,"42166,5","21,3","2,15","ND","ND","ND","ND"],
    [11926,"42166,54167","25,8","2,86","ND","ND","ND","ND"],
    [11927,"42166,58333","33,5","3,98","ND","ND","ND","ND"],
    [11928,"42166,625","25,8","1,81","ND","ND","ND","ND"],
    [11929,"42166,66667","12,8","0,89","ND","ND","ND","ND"],
    [11930,"42166,70833","13,5","0,92","ND","ND","ND","ND"],
    [11931,"42166,75","14,9","0,92","ND","ND","ND","ND"],
    [11932,"42166,79167","10,5","0,92","ND","ND","ND","ND"],
    [11933,"42166,83333","9,7","1","ND","ND","ND","ND"],
    [11934,"42166,875","10,7","0,76","ND","ND","ND","ND"],
    [11935,"42166,91667","38,4","3,22","ND","ND","ND","ND"],
    [11936,"42166,95833","41,7","7","ND","ND","ND","ND"],
    [11937,"42196","32","0,97","ND","ND","ND","ND"],
    [11938,"42196,04167","32","3,07","ND","ND","ND","ND"],
    [11939,"42196,08333","29,8","2,17","ND","ND","ND","ND"],
    [11940,"42196,125","18,7","2,49","ND","ND","ND","ND"],
    [11941,"42196,16667","19,5","1,94","ND","ND","ND","ND"],
    [11942,"42196,20833","16,5","1,28","ND","ND","ND","ND"],
    [11943,"42196,25","13,7","1,13","ND","ND","ND","ND"],
    [11944,"42196,29167","19,3","1,6","ND","ND","ND","ND"],
    [11945,"42196,33333","24,1","1,83","ND","ND","ND","ND"],
    [11946,"42196,375","31,9","2,38","ND","ND","ND","ND"],
    [11947,"42196,41667","28,5","3,3","ND","ND","ND","ND"],
    [11948,"42196,45833","25","2,93","ND","ND","ND","ND"],
    [11949,"42196,5","31,9","6,03","ND","ND","ND","ND"],
    [11950,"42196,54167","47,9","12,08","ND","ND","ND","ND"],
    [11951,"42196,58333","36,9","7,36","ND","ND","ND","ND"],
    [11952,"42196,625","45,4","7,18","ND","ND","ND","ND"],
    [11953,"42196,66667","11,6","1,94","ND","ND","ND","ND"],
    [11954,"42196,70833","21,8","2,44","ND","ND","ND","ND"],
    [11955,"42196,75","18,6","1,44","ND","ND","ND","ND"],
    [11956,"42196,79167","22,9","1,55","ND","ND","ND","ND"],
    [11957,"42196,83333","15,1","1,18","ND","ND","ND","ND"],
    [11958,"42196,875","23,2","1,89","ND","ND","ND","ND"],
    [11959,"42196,91667","20,7","1,28","ND","ND","ND","ND"],
    [11960,"42196,95833","29,1","1,36","ND","ND","ND","ND"],
    [11961,"42227","29","1,91","ND","ND","ND","ND"],
    [11962,"42227,04167","25,3","0,89","ND","ND","ND","ND"],
    [11963,"42227,08333","28,8","1,05","ND","ND","ND","ND"],
    [11964,"42227,125","28","2,12","ND","ND","ND","ND"],
    [11965,"42227,16667","25,4","3,12","ND","ND","ND","ND"],
    [11966,"42227,20833","28,3","2,49","ND","ND","ND","ND"],
    [11967,"42227,25","30,3","2,23","ND","ND","ND","ND"],
    [11968,"42227,29167","41,7","2,65","ND","ND","ND","ND"],
    [11969,"42227,33333","50,2","6,08","ND","ND","ND","ND"],
    [11970,"42227,375","61,4","10,53","ND","ND","ND","ND"],
    [11971,"42227,41667","48,1","15,12","ND","ND","ND","ND"],
    [11972,"42227,45833","42,5","13,55","ND","ND","ND","ND"],
    [11973,"42227,5","43,7","8,1","ND","ND","ND","ND"],
    [11974,"42227,54167","38,5","5,4","ND","ND","ND","ND"],
    [11975,"42227,58333","37,3","4,35","ND","ND","ND","ND"],
    [11976,"42227,625","35,2","3,54","ND","ND","ND","ND"],
    [11977,"42227,66667","35","2,96","ND","ND","ND","ND"],
    [11978,"42227,70833","25","1,78","ND","ND","ND","ND"],
    [11979,"42227,75","25","1,1","ND","ND","ND","ND"],
    [11980,"42227,79167","25,3","2,38","ND","ND","ND","ND"],
    [11981,"42227,83333","26,5","2,41","ND","ND","ND","ND"],
    [11982,"42227,875","32,6","2,04","ND","ND","ND","ND"],
    [11983,"42227,91667","39","2,28","ND","ND","ND","ND"],
    [11984,"42227,95833","27,4","2,46","ND","ND","ND","ND"],
    [11985,"42258","46","1,34","ND","ND","ND","ND"],
    [11986,"42258,04167","29","1,21","ND","ND","ND","ND"],
    [11987,"42258,08333","44,7","2,28","ND","ND","ND","ND"],
    [11988,"42258,125","31,8","4,87","ND","ND","ND","ND"],
    [11989,"42258,16667","39,2","17,5","ND","ND","ND","ND"],
    [11990,"42258,20833","15,8","3,46","ND","ND","ND","ND"],
    [11991,"42258,25","13,9","1,7","ND","ND","ND","ND"],
    [11992,"42258,29167","24,2","1,7","ND","ND","ND","ND"],
    [11993,"42258,33333","29,4","2,1","ND","ND","ND","ND"],
    [11994,"42258,375","32,6","3,62","ND","ND","ND","ND"],
    [11995,"42258,41667","48,7","5,06","ND","ND","ND","ND"],
    [11996,"42258,45833","62,9","6,92","ND","ND","ND","ND"],
    [11997,"42258,5","84,6","10,56","ND","ND","ND","ND"],
    [11998,"42258,54167","51,7","5,71","ND","ND","ND","ND"],
    [11999,"42258,58333","47,7","3,88","ND","ND","ND","ND"],
    [12000,"42258,625","9,7","1,31","ND","ND","ND","ND"],
    [12001,"42258,66667","9,1","1,07","ND","ND","ND","ND"],
    [12002,"42258,70833","22,2","1,44","ND","ND","ND","ND"],
    [12003,"42258,75","33,3","2,23","ND","ND","ND","ND"],
    [12004,"42258,79167","51","3,33","ND","ND","ND","ND"],
    [12005,"42258,83333","52,1","3,09","ND","ND","ND","ND"],
    [12006,"42258,875","60,5","2,36","ND","ND","ND","ND"],
    [12007,"42258,91667","76,1","1,78","ND","ND","ND","ND"],
    [12008,"42258,95833","41,2","1,47","ND","ND","ND","ND"],
    [12009,"42288","57,8","2,52","ND","ND","ND","ND"],
    [12010,"42288,04167","29","1,18","ND","ND","ND","ND"],
    [12011,"42288,08333","29,4","1","ND","ND","ND","ND"],
    [12012,"42288,125","27","1,26","ND","ND","ND","ND"],
    [12013,"42288,16667","60,3","42,66","ND","ND","ND","ND"],
    [12014,"42288,20833","45,1","9,83","ND","ND","ND","ND"],
    [12015,"42288,25","62,3","10,04","ND","ND","ND","ND"],
    [12016,"42288,29167","103,7","10,06","ND","ND","ND","ND"],
    [12017,"42288,33333","93,1","13,02","ND","ND","ND","ND"],
    [12018,"42288,375","76,5","17,66","ND","ND","ND","ND"],
    [12019,"42288,41667","78,7","15,09","ND","ND","ND","ND"],
    [12020,"42288,45833","74,9","17,29","ND","ND","ND","ND"],
    [12021,"42288,5","57,2","9,8","ND","ND","ND","ND"],
    [12022,"42288,54167","44,6","5,82","ND","ND","ND","ND"],
    [12023,"42288,58333","48,4","6,81","ND","ND","ND","ND"],
    [12024,"42288,625","52,5","8,02","ND","ND","ND","ND"],
    [12025,"42288,66667","16,1","1,47","ND","ND","ND","ND"],
    [12026,"42288,70833","15,1","1,18","ND","ND","ND","ND"],
    [12027,"42288,75","15,3","0,94","ND","ND","ND","ND"],
    [12028,"42288,79167","15,3","0,92","ND","ND","ND","ND"],
    [12029,"42288,83333","11,7","0,86","ND","ND","ND","ND"],
    [12030,"42288,875","9,5","0,81","ND","ND","ND","ND"],
    [12031,"42288,91667","42,8","1,73","ND","ND","ND","ND"],
    [12032,"42288,95833","49","2,2","ND","ND","ND","ND"],
    [12033,"42319","43,3","1,41","ND","ND","ND","ND"],
    [12034,"42319,04167","42","2,04","ND","ND","ND","ND"],
    [12035,"42319,08333","32,9","2,25","ND","ND","ND","ND"],
    [12036,"42319,125","26,8","2,44","ND","ND","ND","ND"],
    [12037,"42319,16667","26,8","2,78","ND","ND","ND","ND"],
    [12038,"42319,20833","28,5","1,47","ND","ND","ND","ND"],
    [12039,"42319,25","39,5","1,6","ND","ND","ND","ND"],
    [12040,"42319,29167","60","1,78","ND","ND","ND","ND"],
    [12041,"42319,33333","63,6","3,59","ND","ND","ND","ND"],
    [12042,"42319,375","68,6","4,93","ND","ND","ND","ND"],
    [12043,"42319,41667","74","5,66","ND","ND","ND","ND"],
    [12044,"42319,45833","72,7","7,13","ND","ND","ND","ND"],
    [12045,"42319,5","68,5","9,38","ND","ND","ND","ND"],
    [12046,"42319,54167","40,7","6,52","ND","ND","ND","ND"],
    [12047,"42319,58333","49,5","5,29","ND","ND","ND","ND"],
    [12048,"42319,625","54,8","5,37","ND","ND","ND","ND"],
    [12049,"42319,66667","48,4","4,66","ND","ND","ND","ND"],
    [12050,"42319,70833","40,8","5","ND","ND","ND","ND"],
    [12051,"42319,75","20,4","1,97","ND","ND","ND","ND"],
    [12052,"42319,79167","15,9","1,34","ND","ND","ND","ND"],
    [12053,"42319,83333","34,1","1,39","ND","ND","ND","ND"],
    [12054,"42319,875","44,4","1,6","ND","ND","ND","ND"],
    [12055,"42319,91667","42,5","1,62","ND","ND","ND","ND"],
    [12056,"42319,95833","43","1,6","ND","ND","ND","ND"],
    [12057,"42349","67,3","2,88","ND","ND","ND","ND"],
    [12058,"42349,04167","40,9","1,31","ND","ND","ND","ND"],
    [12059,"42349,08333","52,9","1,34","ND","ND","ND","ND"],
    [12060,"42349,125","57,6","2,04","ND","ND","ND","ND"],
    [12061,"42349,16667","47,7","1,41","ND","ND","ND","ND"],
    [12062,"42349,20833","50,3","1,39","ND","ND","ND","ND"],
    [12063,"42349,25","54,4","1,21","ND","ND","ND","ND"],
    [12064,"42349,29167","87,5","2,33","ND","ND","ND","ND"],
    [12065,"42349,33333","106","7,57","ND","ND","ND","ND"],
    [12066,"42349,375","67,5","28,74","ND","ND","ND","ND"],
    [12067,"42349,41667","70,9","ND","ND","ND","ND","ND"],
    [12068,"42349,45833","101,3","21,41","ND","ND","ND","ND"],
    [12069,"42349,5","106,7","15,59","ND","ND","ND","ND"],
    [12070,"42349,54167","59,6","9,17","ND","ND","ND","ND"],
    [12071,"42349,58333","50,9","8,57","ND","ND","ND","ND"],
    [12072,"42349,625","39,7","5,4","ND","ND","ND","ND"],
    [12073,"42349,66667","19,5","1,44","ND","ND","ND","ND"],
    [12074,"42349,70833","14,9","1,13","ND","ND","ND","ND"],
    [12075,"42349,75","19,5","1,23","ND","ND","ND","ND"],
    [12076,"42349,79167","15,9","1,18","ND","ND","ND","ND"],
    [12077,"42349,83333","15,9","0,76","ND","ND","ND","ND"],
    [12078,"42349,875","12,7","1,07","ND","ND","ND","ND"],
    [12079,"42349,91667","37,1","2,02","ND","ND","ND","ND"],
    [12080,"42349,95833","68,2","3,59","ND","ND","ND","ND"],
    [12081,"11/13/2015 00:00","78,5","4,43","ND","ND","ND","ND"],
    [12082,"11/13/2015 01:00","50,1","1,76","ND","ND","ND","ND"],
    [12083,"11/13/2015 02:00","53,4","2,93","ND","ND","ND","ND"],
    [12084,"11/13/2015 03:00","61,5","6,81","ND","ND","ND","ND"],
    [12085,"11/13/2015 04:00","48,4","4,95","ND","ND","ND","ND"],
    [12086,"11/13/2015 05:00","56,5","3,48","ND","ND","ND","ND"],
    [12087,"11/13/2015 06:00","80,9","3,69","ND","ND","ND","ND"],
    [12088,"11/13/2015 07:00","84,7","3,28","ND","ND","ND","ND"],
    [12089,"11/13/2015 08:00","83,7","4,45","ND","ND","ND","ND"],
    [12090,"11/13/2015 09:00","66,8","12,24","ND","ND","ND","ND"],
    [12091,"11/13/2015 10:00","47,7","15,41","ND","ND","ND","ND"],
    [12092,"11/13/2015 11:00","42,5","11,21","ND","ND","ND","ND"],
    [12093,"11/13/2015 12:00","54,7","11,27","ND","ND","ND","ND"],
    [12094,"11/13/2015 13:00","59,2","10,25","ND","ND","ND","ND"],
    [12095,"11/13/2015 14:00","76,1","7,89","ND","ND","ND","ND"],
    [12096,"11/13/2015 15:00","73,7","16,01","ND","ND","ND","ND"],
    [12097,"11/13/2015 16:00","38,7","9,64","ND","ND","ND","ND"],
    [12098,"11/13/2015 17:00","29,5","3,43","ND","ND","ND","ND"],
    [12099,"11/13/2015 18:00","20","1,34","ND","ND","ND","ND"],
    [12100,"11/13/2015 19:00","19,7","1,47","ND","ND","ND","ND"],
    [12101,"11/13/2015 20:00","18,6","1,41","ND","ND","ND","ND"],
    [12102,"11/13/2015 21:00","35,8","2,36","ND","ND","ND","ND"],
    [12103,"11/13/2015 22:00","39,4","2,62","ND","ND","ND","ND"],
    [12104,"11/13/2015 23:00","41,5","2,2","ND","ND","ND","ND"],
    [12105,"11/14/2015 00:00","32,2","1,6","ND","ND","ND","ND"],
    [12106,"11/14/2015 01:00","58,4","2,62","ND","ND","ND","ND"],
    [12107,"11/14/2015 02:00","49,3","2,2","ND","ND","ND","ND"],
    [12108,"11/14/2015 03:00","47,2","1,81","ND","ND","ND","ND"],
    [12109,"11/14/2015 04:00","46,2","1,36","ND","ND","ND","ND"],
    [12110,"11/14/2015 05:00","40,1","1,21","ND","ND","ND","ND"],
    [12111,"11/14/2015 06:00","44,4","1,36","ND","ND","ND","ND"],
    [12112,"11/14/2015 07:00","58,1","2,23","ND","ND","ND","ND"],
    [12113,"11/14/2015 08:00","56,1","12,32","ND","ND","ND","ND"],
    [12114,"11/14/2015 09:00","66,9","12,42","ND","ND","ND","ND"],
    [12115,"11/14/2015 10:00","67,5","14,41","ND","ND","ND","ND"],
    [12116,"11/14/2015 11:00","46,9","10,82","ND","ND","ND","ND"],
    [12117,"11/14/2015 12:00","43,4","5,69","ND","ND","ND","ND"],
    [12118,"11/14/2015 13:00","45,1","4,72","ND","ND","ND","ND"],
    [12119,"11/14/2015 14:00","27,4","2,38","ND","ND","ND","ND"],
    [12120,"11/14/2015 15:00","16,4","1,21","ND","ND","ND","ND"],
    [12121,"11/14/2015 16:00","9,5","0,89","ND","ND","ND","ND"],
    [12122,"11/14/2015 17:00","17,8","1,73","ND","ND","ND","ND"],
    [12123,"11/14/2015 18:00","18,9","1,1","ND","ND","ND","ND"],
    [12124,"11/14/2015 19:00","11,7","1","ND","ND","ND","ND"],
    [12125,"11/14/2015 20:00","12,2","0,89","ND","ND","ND","ND"],
    [12126,"11/14/2015 21:00","34,2","1,97","ND","ND","ND","ND"],
    [12127,"11/14/2015 22:00","27,5","2,46","ND","ND","ND","ND"],
    [12128,"11/14/2015 23:00","25,6","1,94","ND","ND","ND","ND"],
    [12129,"11/15/2015 00:00","33,4","1,55","ND","ND","ND","ND"],
    [12130,"11/15/2015 01:00","22,2","1,39","ND","ND","ND","ND"],
    [12131,"11/15/2015 02:00","25,3","1,23","ND","ND","ND","ND"],
    [12132,"11/15/2015 03:00","23,4","1,07","ND","ND","ND","ND"],
    [12133,"11/15/2015 04:00","17,8","0,86","ND","ND","ND","ND"],
    [12134,"11/15/2015 05:00","21","0,94","ND","ND","ND","ND"],
    [12135,"11/15/2015 06:00","26,3","1,05","ND","ND","ND","ND"],
    [12136,"11/15/2015 07:00","31,3","1,1","ND","ND","ND","ND"],
    [12137,"11/15/2015 08:00","31,4","1,31","ND","ND","ND","ND"],
    [12138,"11/15/2015 09:00","41","2,65","ND","ND","ND","ND"],
    [12139,"11/15/2015 10:00","44,6","3,72","ND","ND","ND","ND"],
    [12140,"11/15/2015 11:00","45","5,24","ND","ND","ND","ND"],
    [12141,"11/15/2015 12:00","45","7,86","ND","ND","ND","ND"],
    [12142,"11/15/2015 13:00","65,7","8,86","ND","ND","ND","ND"],
    [12143,"11/15/2015 14:00","59,6","17,74","ND","ND","ND","ND"],
    [12144,"11/15/2015 15:00","10","9,2","ND","ND","ND","ND"],
    [12145,"11/15/2015 16:00","5,2","1,55","ND","ND","ND","ND"],
    [12146,"11/15/2015 17:00","10,4","1,13","ND","ND","ND","ND"],
    [12147,"11/15/2015 18:00","9","1,1","ND","ND","ND","ND"],
    [12148,"11/15/2015 19:00","8,3","1,05","ND","ND","ND","ND"],
    [12149,"11/15/2015 20:00","19,4","1,26","ND","ND","ND","ND"],
    [12150,"11/15/2015 21:00","36,1","1,55","ND","ND","ND","ND"],
    [12151,"11/15/2015 22:00","41,9","1,86","ND","ND","ND","ND"],
    [12152,"11/15/2015 23:00","34,1","1,62","ND","ND","ND","ND"],
    [12153,"11/16/2015 00:00","8,5","3,56","ND","ND","ND","ND"],
    [12154,"11/16/2015 01:00","29,6","1,34","ND","ND","ND","ND"],
    [12155,"11/16/2015 02:00","43,1","1,68","ND","ND","ND","ND"],
    [12156,"11/16/2015 03:00","36,5","1,47","ND","ND","ND","ND"],
    [12157,"11/16/2015 04:00","31","1,68","ND","ND","ND","ND"],
    [12158,"11/16/2015 05:00","37,7","2,2","ND","ND","ND","ND"],
    [12159,"11/16/2015 06:00","36,3","1,83","ND","ND","ND","ND"],
    [12160,"11/16/2015 07:00","44,7","2,67","ND","ND","ND","ND"],
    [12161,"11/16/2015 08:00","44,7","3,35","ND","ND","ND","ND"],
    [12162,"11/16/2015 09:00","48,9","5,03","ND","ND","ND","ND"],
    [12163,"11/16/2015 10:00","48","11,84","ND","ND","ND","ND"],
    [12164,"11/16/2015 11:00","53,9","11,87","ND","ND","ND","ND"],
    [12165,"11/16/2015 12:00","53,6","10,95","ND","ND","ND","ND"],
    [12166,"11/16/2015 13:00","46,2","9,33","ND","ND","ND","ND"],
    [12167,"11/16/2015 14:00","33,3","6,63","ND","ND","ND","ND"],
    [12168,"11/16/2015 15:00","6,6","2,38","ND","ND","ND","ND"],
    [12169,"11/16/2015 16:00","8,3","1,26","ND","ND","ND","ND"],
    [12170,"11/16/2015 17:00","7,9","1,23","ND","ND","ND","ND"],
    [12171,"11/16/2015 18:00","10","1,1","ND","ND","ND","ND"],
    [12172,"11/16/2015 19:00","6,3","1,07","ND","ND","ND","ND"],
    [12173,"11/16/2015 20:00","11,8","1,6","ND","ND","ND","ND"],
    [12174,"11/16/2015 21:00","15,8","1,18","ND","ND","ND","ND"],
    [12175,"11/16/2015 22:00","37,5","1,97","ND","ND","ND","ND"],
    [12176,"11/16/2015 23:00","40,2","3,17","ND","ND","ND","ND"],
    [12177,"11/17/2015 00:00","36,9","2,93","ND","ND","ND","ND"],
    [12178,"11/17/2015 01:00","19,4","1,99","ND","ND","ND","ND"],
    [12179,"11/17/2015 02:00","7,5","1,15","ND","ND","ND","ND"],
    [12180,"11/17/2015 03:00","8,2","1,34","ND","ND","ND","ND"],
    [12181,"11/17/2015 04:00","14","1,02","ND","ND","ND","ND"],
    [12182,"11/17/2015 05:00","14","0,92","ND","ND","ND","ND"],
    [12183,"11/17/2015 06:00","21,1","1,13","ND","ND","ND","ND"],
    [12184,"11/17/2015 07:00","30,9","1,44","ND","ND","ND","ND"],
    [12185,"11/17/2015 08:00","50,3","2,67","ND","ND","ND","ND"],
    [12186,"11/17/2015 09:00","44","2,75","ND","ND","ND","ND"],
    [12187,"11/17/2015 10:00","58,1","4,69","ND","ND","ND","ND"],
    [12188,"11/17/2015 11:00","47,6","5,14","ND","ND","ND","ND"],
    [12189,"11/17/2015 12:00","48","6,66","ND","ND","ND","ND"],
    [12190,"11/17/2015 13:00","33,6","7,42","ND","ND","ND","ND"],
    [12191,"11/17/2015 14:00","30,4","3,72","ND","ND","ND","ND"],
    [12192,"11/17/2015 15:00","18,4","1,94","ND","ND","ND","ND"],
    [12193,"11/17/2015 16:00","18,1","2,25","ND","ND","ND","ND"],
    [12194,"11/17/2015 17:00","37,1","2,25","ND","ND","ND","ND"],
    [12195,"11/17/2015 18:00","47,8","2,96","ND","ND","ND","ND"],
    [12196,"11/17/2015 19:00","53,9","4,38","ND","ND","ND","ND"],
    [12197,"11/17/2015 20:00","36,4","4,72","ND","ND","ND","ND"],
    [12198,"11/17/2015 21:00","26,5","5,29","ND","ND","ND","ND"],
    [12199,"11/17/2015 22:00","42,6","3,38","ND","ND","ND","ND"],
    [12200,"11/17/2015 23:00","52,9","3,2","ND","ND","ND","ND"],
    [12201,"11/18/2015 00:00","49,4","2,28","ND","ND","ND","ND"],
    [12202,"11/18/2015 01:00","30,2","2,04","ND","ND","ND","ND"],
    [12203,"11/18/2015 02:00","24,8","1,76","ND","ND","ND","ND"],
    [12204,"11/18/2015 03:00","5","1,23","ND","ND","ND","ND"],
    [12205,"11/18/2015 04:00","13,6","2,46","ND","ND","ND","ND"],
    [12206,"11/18/2015 05:00","8,9","2,31","ND","ND","ND","ND"],
    [12207,"11/18/2015 06:00","19,5","1,97","ND","ND","ND","ND"],
    [12208,"11/18/2015 07:00","24,5","1,7","ND","ND","ND","ND"],
    [12209,"11/18/2015 08:00","17","1,91","ND","ND","ND","ND"],
    [12210,"11/18/2015 09:00","19,7","2,78","ND","ND","ND","ND"],
    [12211,"11/18/2015 10:00","20,6","2,44","ND","ND","ND","ND"],
    [12212,"11/18/2015 11:00","19,5","2,96","ND","ND","ND","ND"],
    [12213,"11/18/2015 12:00","29,5","4,24","ND","ND","ND","ND"],
    [12214,"11/18/2015 13:00","24,4","2,73","ND","ND","ND","ND"],
    [12215,"11/18/2015 14:00","24,3","1,97","ND","ND","ND","ND"],
    [12216,"11/18/2015 15:00","33,2","1,91","ND","ND","ND","ND"],
    [12217,"11/18/2015 16:00","22,3","1,41","ND","ND","ND","ND"],
    [12218,"11/18/2015 17:00","7,2","1,73","ND","ND","ND","ND"],
    [12219,"11/18/2015 18:00","12,4","1,55","ND","ND","ND","ND"],
    [12220,"11/18/2015 19:00","42,7","2,83","ND","ND","ND","ND"],
    [12221,"11/18/2015 20:00","45,2","3,88","ND","ND","ND","ND"],
    [12222,"11/18/2015 21:00","61,6","3,88","ND","ND","ND","ND"],
    [12223,"11/18/2015 22:00","42,8","3,33","ND","ND","ND","ND"],
    [12224,"11/18/2015 23:00","29","2,33","ND","ND","ND","ND"],
    [12225,"11/19/2015 00:00","35,2","2,07","ND","ND","ND","ND"],
    [12226,"11/19/2015 01:00","22,9","1,83","ND","ND","ND","ND"],
    [12227,"11/19/2015 02:00","21,8","1,23","ND","ND","ND","ND"],
    [12228,"11/19/2015 03:00","23,3","1,15","ND","ND","ND","ND"],
    [12229,"11/19/2015 04:00","21,6","1,31","ND","ND","ND","ND"],
    [12230,"11/19/2015 05:00","25,6","1,18","ND","ND","ND","ND"],
    [12231,"11/19/2015 06:00","38,7","1,41","ND","ND","ND","ND"],
    [12232,"11/19/2015 07:00","38,7","1,83","ND","ND","ND","ND"],
    [12233,"11/19/2015 08:00","44,5","2,41","ND","ND","ND","ND"],
    [12234,"11/19/2015 09:00","34,6","2,59","ND","ND","ND","ND"],
    [12235,"11/19/2015 10:00","31,9","3,41","ND","ND","ND","ND"],
    [12236,"11/19/2015 11:00","30,8","4,09","ND","ND","ND","ND"],
    [12237,"11/19/2015 12:00","30,1","4,61","ND","ND","ND","ND"],
    [12238,"11/19/2015 13:00","33","4,06","ND","ND","ND","ND"],
    [12239,"11/19/2015 14:00","30","4,48","ND","ND","ND","ND"],
    [12240,"11/19/2015 15:00","32,3","2,99","ND","ND","ND","ND"],
    [12241,"11/19/2015 16:00","36,7","2,36","ND","ND","ND","ND"],
    [12242,"11/19/2015 17:00","23","1,76","ND","ND","ND","ND"],
    [12243,"11/19/2015 18:00","20,5","1,49","ND","ND","ND","ND"],
    [12244,"11/19/2015 19:00","20,5","1,23","ND","ND","ND","ND"],
    [12245,"11/19/2015 20:00","11,6","1","ND","ND","ND","ND"],
    [12246,"11/19/2015 21:00","23,7","3,09","ND","ND","ND","ND"],
    [12247,"11/19/2015 22:00","32,7","5,69","ND","ND","ND","ND"],
    [12248,"11/19/2015 23:00","40,7","3,46","ND","ND","ND","ND"],
    [12249,"11/20/2015 00:00","21,2","1,81","ND","ND","ND","ND"],
    [12250,"11/20/2015 01:00","30,5","2,46","ND","ND","ND","ND"],
    [12251,"11/20/2015 02:00","26,6","2,44","ND","ND","ND","ND"],
    [12252,"11/20/2015 03:00","25,6","1,41","ND","ND","ND","ND"],
    [12253,"11/20/2015 04:00","25,6","1,21","ND","ND","ND","ND"],
    [12254,"11/20/2015 05:00","26,8","1,21","ND","ND","ND","ND"],
    [12255,"11/20/2015 06:00","57,9","1,52","ND","ND","ND","ND"],
    [12256,"11/20/2015 07:00","79","1,97","ND","ND","ND","ND"],
    [12257,"11/20/2015 08:00","79","2,57","ND","ND","ND","ND"],
    [12258,"11/20/2015 09:00","55,9","3,72","ND","ND","ND","ND"],
    [12259,"11/20/2015 10:00","39,2","3,62","ND","ND","ND","ND"],
    [12260,"11/20/2015 11:00","28,6","2,83","ND","ND","ND","ND"],
    [12261,"11/20/2015 12:00","40,9","3,41","ND","ND","ND","ND"],
    [12262,"11/20/2015 13:00","32,3","3,14","ND","ND","ND","ND"],
    [12263,"11/20/2015 14:00","23,3","2,73","ND","ND","ND","ND"],
    [12264,"11/20/2015 15:00","13,5","1,62","ND","ND","ND","ND"],
    [12265,"11/20/2015 16:00","14","1,07","ND","ND","ND","ND"],
    [12266,"11/20/2015 17:00","15,5","1,23","ND","ND","ND","ND"],
    [12267,"11/20/2015 18:00","15,1","1,23","ND","ND","ND","ND"],
    [12268,"11/20/2015 19:00","13,3","1,02","ND","ND","ND","ND"],
    [12269,"11/20/2015 20:00","47,9","3,01","ND","ND","ND","ND"],
    [12270,"11/20/2015 21:00","36","2,36","ND","ND","ND","ND"],
    [12271,"11/20/2015 22:00","26","1,83","ND","ND","ND","ND"],
    [12272,"11/20/2015 23:00","20,4","2,12","ND","ND","ND","ND"],
    [12273,"11/21/2015 00:00","68,9","3,43","ND","ND","ND","ND"],
    [12274,"11/21/2015 01:00","21,7","1,65","ND","ND","ND","ND"],
    [12275,"11/21/2015 02:00","23,1","1,78","ND","ND","ND","ND"],
    [12276,"11/21/2015 03:00","34,8","2,7","ND","ND","ND","ND"],
    [12277,"11/21/2015 04:00","31,9","7,13","ND","ND","ND","ND"],
    [12278,"11/21/2015 05:00","42,3","10,64","ND","ND","ND","ND"],
    [12279,"11/21/2015 06:00","48,2","4,95","ND","ND","ND","ND"],
    [12280,"11/21/2015 07:00","53,7","3,17","ND","ND","ND","ND"],
    [12281,"11/21/2015 08:00","56,2","3,54","ND","ND","ND","ND"],
    [12282,"11/21/2015 09:00","53,8","4,27","ND","ND","ND","ND"],
    [12283,"11/21/2015 10:00","30,2","2,99","ND","ND","ND","ND"],
    [12284,"11/21/2015 11:00","17,7","5,29","ND","ND","ND","ND"],
    [12285,"11/21/2015 12:00","16,8","4,8","ND","ND","ND","ND"],
    [12286,"11/21/2015 13:00","37,9","4,3","ND","ND","ND","ND"],
    [12287,"11/21/2015 14:00","33","3,98","ND","ND","ND","ND"],
    [12288,"11/21/2015 15:00","30,3","3,07","ND","ND","ND","ND"],
    [12289,"11/21/2015 16:00","18,4","2,96","ND","ND","ND","ND"],
    [12290,"11/21/2015 17:00","41,9","4,9","ND","ND","ND","ND"],
    [12291,"11/21/2015 18:00","64,4","6,45","ND","ND","ND","ND"],
    [12292,"11/21/2015 19:00","59,4","4,22","ND","ND","ND","ND"],
    [12293,"11/21/2015 20:00","68,2","3,14","ND","ND","ND","ND"],
    [12294,"11/21/2015 21:00","43,4","2,62","ND","ND","ND","ND"],
    [12295,"11/21/2015 22:00","61","3,04","ND","ND","ND","ND"],
    [12296,"11/21/2015 23:00","83,9","3,8","ND","ND","ND","ND"],
    [12297,"11/22/2015 00:00","36,9","2,17","ND","ND","ND","ND"],
    [12298,"11/22/2015 01:00","62,1","2,67","ND","ND","ND","ND"],
    [12299,"11/22/2015 02:00","45,9","1,89","ND","ND","ND","ND"],
    [12300,"11/22/2015 03:00","49,6","2,62","ND","ND","ND","ND"],
    [12301,"11/22/2015 04:00","21,1","3,28","ND","ND","ND","ND"],
    [12302,"11/22/2015 05:00","20,1","1,6","ND","ND","ND","ND"],
    [12303,"11/22/2015 06:00","18,8","1,28","ND","ND","ND","ND"],
    [12304,"11/22/2015 07:00","19,6","1,91","ND","ND","ND","ND"],
    [12305,"11/22/2015 08:00","10,6","1,76","ND","ND","ND","ND"],
    [12306,"11/22/2015 09:00","11,1","1,73","ND","ND","ND","ND"],
    [12307,"11/22/2015 10:00","22,2","2,12","ND","ND","ND","ND"],
    [12308,"11/22/2015 11:00","23,6","3,48","ND","ND","ND","ND"],
    [12309,"11/22/2015 12:00","33,9","7,7","ND","ND","ND","ND"],
    [12310,"11/22/2015 13:00","29,3","6,73","ND","ND","ND","ND"],
    [12311,"11/22/2015 14:00","30,1","6,18","ND","ND","ND","ND"],
    [12312,"11/22/2015 15:00","34,8","6,84","ND","ND","ND","ND"],
    [12313,"11/22/2015 16:00","33,7","5,71","ND","ND","ND","ND"],
    [12314,"11/22/2015 17:00","16,5","6,26","ND","ND","ND","ND"],
    [12315,"11/22/2015 18:00","19,9","1,89","ND","ND","ND","ND"],
    [12316,"11/22/2015 19:00","35,3","1,97","ND","ND","ND","ND"],
    [12317,"11/22/2015 20:00","39,6","2,28","ND","ND","ND","ND"],
    [12318,"11/22/2015 21:00","51,3","3,25","ND","ND","ND","ND"],
    [12319,"11/22/2015 22:00","39,2","3,3","ND","ND","ND","ND"],
    [12320,"11/22/2015 23:00","36,8","2,75","ND","ND","ND","ND"],
    [12321,"11/23/2015 00:00","22,6","1,55","ND","ND","ND","ND"],
    [12322,"11/23/2015 01:00","33,6","1,86","ND","ND","ND","ND"],
    [12323,"11/23/2015 02:00","24,4","1,34","ND","ND","ND","ND"],
    [12324,"11/23/2015 03:00","26,7","1,1","ND","ND","ND","ND"],
    [12325,"11/23/2015 04:00","26,1","0,97","ND","ND","ND","ND"],
    [12326,"11/23/2015 05:00","35,9","1,02","ND","ND","ND","ND"],
    [12327,"11/23/2015 06:00","41,7","1,28","ND","ND","ND","ND"],
    [12328,"11/23/2015 07:00","71,9","2,49","ND","ND","ND","ND"],
    [12329,"11/23/2015 08:00","88,3","3,98","ND","ND","ND","ND"],
    [12330,"11/23/2015 09:00","92,1","31,57","ND","ND","ND","ND"],
    [12331,"11/23/2015 10:00","56,4","53,85","ND","ND","ND","ND"],
    [12332,"11/23/2015 11:00","43,7","11,01","ND","ND","ND","ND"],
    [12333,"11/23/2015 12:00","43,7","9,33","ND","ND","ND","ND"],
    [12334,"11/23/2015 13:00","51,6","9,93","ND","ND","ND","ND"],
    [12335,"11/23/2015 14:00","49,6","7,94","ND","ND","ND","ND"],
    [12336,"11/23/2015 15:00","40","2,8","ND","ND","ND","ND"],
    [12337,"11/23/2015 16:00","12,8","1,68","ND","ND","ND","ND"],
    [12338,"11/23/2015 17:00","9,8","1,55","ND","ND","ND","ND"],
    [12339,"11/23/2015 18:00","12,5","1,28","ND","ND","ND","ND"],
    [12340,"11/23/2015 19:00","13,2","1,34","ND","ND","ND","ND"],
    [12341,"11/23/2015 20:00","16,2","1,47","ND","ND","ND","ND"],
    [12342,"11/23/2015 21:00","40,8","1,7","ND","ND","ND","ND"],
    [12343,"11/23/2015 22:00","51,1","2,02","ND","ND","ND","ND"],
    [12344,"11/23/2015 23:00","32,7","1,68","ND","ND","ND","ND"],
    [12345,"11/24/2015 00:00","31,8","1,99","ND","ND","ND","ND"],
    [12346,"11/24/2015 01:00","24,1","1,49","ND","ND","ND","ND"],
    [12347,"11/24/2015 02:00","24,3","1,86","ND","ND","ND","ND"],
    [12348,"11/24/2015 03:00","27,4","1,76","ND","ND","ND","ND"],
    [12349,"11/24/2015 04:00","32,6","2,73","ND","ND","ND","ND"],
    [12350,"11/24/2015 05:00","36,1","2,83","ND","ND","ND","ND"],
    [12351,"11/24/2015 06:00","54,1","2,75","ND","ND","ND","ND"],
    [12352,"11/24/2015 07:00","72,9","4,35","ND","ND","ND","ND"],
    [12353,"11/24/2015 08:00","71,5","9,14","ND","ND","ND","ND"],
    [12354,"11/24/2015 09:00","62,5","14,75","ND","ND","ND","ND"],
    [12355,"11/24/2015 10:00","38,6","77,17","ND","ND","ND","ND"],
    [12356,"11/24/2015 11:00","54,3","10,06","ND","ND","ND","ND"],
    [12357,"11/24/2015 12:00","57,7","12,55","ND","ND","ND","ND"],
    [12358,"11/24/2015 13:00","50,2","10,74","ND","ND","ND","ND"],
    [12359,"11/24/2015 14:00","44","8,23","ND","ND","ND","ND"],
    [12360,"11/24/2015 15:00","10,8","2,8","ND","ND","ND","ND"],
    [12361,"11/24/2015 16:00","11,2","1,68","ND","ND","ND","ND"],
    [12362,"11/24/2015 17:00","10,7","1,41","ND","ND","ND","ND"],
    [12363,"11/24/2015 18:00","1,2","1,36","ND","ND","ND","ND"],
    [12364,"11/24/2015 19:00","11,9","1,31","ND","ND","ND","ND"],
    [12365,"11/24/2015 20:00","42,1","1,68","ND","ND","ND","ND"],
    [12366,"11/24/2015 21:00","27,3","1,78","ND","ND","ND","ND"],
    [12367,"11/24/2015 22:00","35,6","2,33","ND","ND","ND","ND"],
    [12368,"11/24/2015 23:00","30,4","2,2","ND","ND","ND","ND"],
    [12369,"11/25/2015 00:00","60,7","3,75","ND","ND","ND","ND"],
    [12370,"11/25/2015 01:00","20,8","1,44","ND","ND","ND","ND"],
    [12371,"11/25/2015 02:00","13,8","1,47","ND","ND","ND","ND"],
    [12372,"11/25/2015 03:00","13,4","1","ND","ND","ND","ND"],
    [12373,"11/25/2015 04:00","16,7","0,94","ND","ND","ND","ND"],
    [12374,"11/25/2015 05:00","21,3","0,86","ND","ND","ND","ND"],
    [12375,"11/25/2015 06:00","28,4","1,21","ND","ND","ND","ND"],
    [12376,"11/25/2015 07:00","41,8","1,83","ND","ND","ND","ND"],
    [12377,"11/25/2015 08:00","74,1","4,93","ND","ND","ND","ND"],
    [12378,"11/25/2015 09:00","94,1","23,84","ND","ND","ND","ND"],
    [12379,"11/25/2015 10:00","56,8","16,72","ND","ND","ND","ND"],
    [12380,"11/25/2015 11:00","39,6","6,26","ND","ND","ND","ND"],
    [12381,"11/25/2015 12:00","27,9","3,3","ND","ND","ND","ND"],
    [12382,"11/25/2015 13:00","37,3","5,29","ND","ND","ND","ND"],
    [12383,"11/25/2015 14:00","56,1","6","ND","ND","ND","ND"],
    [12384,"11/25/2015 15:00","52","4,4","ND","ND","ND","ND"],
    [12385,"11/25/2015 16:00","31,8","3,77","ND","ND","ND","ND"],
    [12386,"11/25/2015 17:00","13,1","1,94","ND","ND","ND","ND"],
    [12387,"11/25/2015 18:00","14,4","1,47","ND","ND","ND","ND"],
    [12388,"11/25/2015 19:00","52,7","2,02","ND","ND","ND","ND"],
    [12389,"11/25/2015 20:00","34,4","2,46","ND","ND","ND","ND"],
    [12390,"11/25/2015 21:00","67,2","3,12","ND","ND","ND","ND"],
    [12391,"11/25/2015 22:00","67,3","3,75","ND","ND","ND","ND"],
    [12392,"11/25/2015 23:00","67,9","3,77","ND","ND","ND","ND"],
    [12393,"11/26/2015 00:00","46,7","3,22","ND","ND","ND","ND"],
    [12394,"11/26/2015 01:00","46,4","3,07","ND","ND","ND","ND"],
    [12395,"11/26/2015 02:00","49,4","3,07","ND","ND","ND","ND"],
    [12396,"11/26/2015 03:00","43","2,67","ND","ND","ND","ND"],
    [12397,"11/26/2015 04:00","65,5","3,54","ND","ND","ND","ND"],
    [12398,"11/26/2015 05:00","53","3,9","ND","ND","ND","ND"],
    [12399,"11/26/2015 06:00","60,7","3,04","ND","ND","ND","ND"],
    [12400,"11/26/2015 07:00","70,1","3,54","ND","ND","ND","ND"],
    [12401,"11/26/2015 08:00","57,5","5,97","ND","ND","ND","ND"],
    [12402,"11/26/2015 09:00","55,6","10,27","ND","ND","ND","ND"],
    [12403,"11/26/2015 10:00","62,6","14,67","ND","ND","ND","ND"],
    [12404,"11/26/2015 11:00","66","14,91","ND","ND","ND","ND"],
    [12405,"11/26/2015 12:00","51,2","10,09","ND","ND","ND","ND"],
    [12406,"11/26/2015 13:00","47,3","7,26","ND","ND","ND","ND"],
    [12407,"11/26/2015 14:00","47,2","5,71","ND","ND","ND","ND"],
    [12408,"11/26/2015 15:00","50,1","4,51","ND","ND","ND","ND"],
    [12409,"11/26/2015 16:00","17,9","1,73","ND","ND","ND","ND"],
    [12410,"11/26/2015 17:00","14","1,39","ND","ND","ND","ND"],
    [12411,"11/26/2015 18:00","17","1,39","ND","ND","ND","ND"],
    [12412,"11/26/2015 19:00","14,4","1,47","ND","ND","ND","ND"],
    [12413,"11/26/2015 20:00","25,9","1,81","ND","ND","ND","ND"],
    [12414,"11/26/2015 21:00","32,9","2,23","ND","ND","ND","ND"],
    [12415,"11/26/2015 22:00","37,1","2,78","ND","ND","ND","ND"],
    [12416,"11/26/2015 23:00","40,1","2,86","ND","ND","ND","ND"],
    [12417,"11/27/2015 00:00","49,8","3,33","ND","ND","ND","ND"],
    [12418,"11/27/2015 01:00","25,6","2,91","ND","ND","ND","ND"],
    [12419,"11/27/2015 02:00","46,9","11,79","ND","ND","ND","ND"],
    [12420,"11/27/2015 03:00","43,9","15,12","ND","ND","ND","ND"],
    [12421,"11/27/2015 04:00","45,2","15,2","ND","ND","ND","ND"],
    [12422,"11/27/2015 05:00","39,2","5,66","ND","ND","ND","ND"],
    [12423,"11/27/2015 06:00","43,5","3,83","ND","ND","ND","ND"],
    [12424,"11/27/2015 07:00","66,9","5,45","ND","ND","ND","ND"],
    [12425,"11/27/2015 08:00","61","13,97","ND","ND","ND","ND"],
    [12426,"11/27/2015 09:00","105,6","12,5","ND","ND","ND","ND"],
    [12427,"11/27/2015 10:00","99","47,06","ND","ND","ND","ND"],
    [12428,"11/27/2015 11:00","64,1","39,23","ND","ND","ND","ND"],
    [12429,"11/27/2015 12:00","49,5","14,78","ND","ND","ND","ND"],
    [12430,"11/27/2015 13:00","56,2","16,9","ND","ND","ND","ND"],
    [12431,"11/27/2015 14:00","49,4","14,62","ND","ND","ND","ND"],
    [12432,"11/27/2015 15:00","40,4","12,42","ND","ND","ND","ND"],
    [12433,"11/27/2015 16:00","18,4","3,04","ND","ND","ND","ND"],
    [12434,"11/27/2015 17:00","15,2","1,91","ND","ND","ND","ND"],
    [12435,"11/27/2015 18:00","26,2","2,15","ND","ND","ND","ND"],
    [12436,"11/27/2015 19:00","51,5","3,14","ND","ND","ND","ND"],
    [12437,"11/27/2015 20:00","59,5","3,83","ND","ND","ND","ND"],
    [12438,"11/27/2015 21:00","55,8","3,62","ND","ND","ND","ND"],
    [12439,"11/27/2015 22:00","66,2","3,83","ND","ND","ND","ND"],
    [12440,"11/27/2015 23:00","51,2","3,28","ND","ND","ND","ND"],
    [12441,"11/28/2015 00:00","35,1","2,65","ND","ND","ND","ND"],
    [12442,"11/28/2015 01:00","49,9","3,88","ND","ND","ND","ND"],
    [12443,"11/28/2015 02:00","53,5","6,37","ND","ND","ND","ND"],
    [12444,"11/28/2015 03:00","53,6","4,38","ND","ND","ND","ND"],
    [12445,"11/28/2015 04:00","49,2","5,16","ND","ND","ND","ND"],
    [12446,"11/28/2015 05:00","50,1","4,56","ND","ND","ND","ND"],
    [12447,"11/28/2015 06:00","48,3","4,51","ND","ND","ND","ND"],
    [12448,"11/28/2015 07:00","57,6","3,67","ND","ND","ND","ND"],
    [12449,"11/28/2015 08:00","58,2","4,11","ND","ND","ND","ND"],
    [12450,"11/28/2015 09:00","90,6","5,66","ND","ND","ND","ND"],
    [12451,"11/28/2015 10:00","63,7","7,78","ND","ND","ND","ND"],
    [12452,"11/28/2015 11:00","84,6","6,6","ND","ND","ND","ND"],
    [12453,"11/28/2015 12:00","77,7","7,05","ND","ND","ND","ND"],
    [12454,"11/28/2015 13:00","28,9","4,51","ND","ND","ND","ND"],
    [12455,"11/28/2015 14:00","3,6","1,78","ND","ND","ND","ND"],
    [12456,"11/28/2015 15:00","0,8","1,7","ND","ND","ND","ND"],
    [12457,"11/28/2015 16:00","13,9","1,49","ND","ND","ND","ND"],
    [12458,"11/28/2015 17:00","9,2","1,52","ND","ND","ND","ND"],
    [12459,"11/28/2015 18:00","12,6","1,65","ND","ND","ND","ND"],
    [12460,"11/28/2015 19:00","12,6","1,47","ND","ND","ND","ND"],
    [12461,"11/28/2015 20:00","21","1,41","ND","ND","ND","ND"],
    [12462,"11/28/2015 21:00","42","1,99","ND","ND","ND","ND"],
    [12463,"11/28/2015 22:00","40,6","2,52","ND","ND","ND","ND"],
    [12464,"11/28/2015 23:00","46,5","2,75","ND","ND","ND","ND"],
    [12465,"11/29/2015 00:00","43,6","1,86","ND","ND","ND","ND"],
    [12466,"11/29/2015 01:00","25,9","1,97","ND","ND","ND","ND"],
    [12467,"11/29/2015 02:00","22,2","1,76","ND","ND","ND","ND"],
    [12468,"11/29/2015 03:00","23,9","1,65","ND","ND","ND","ND"],
    [12469,"11/29/2015 04:00","27,9","1,68","ND","ND","ND","ND"],
    [12470,"11/29/2015 05:00","19,5","2,1","ND","ND","ND","ND"],
    [12471,"11/29/2015 06:00","24,6","1,78","ND","ND","ND","ND"],
    [12472,"11/29/2015 07:00","34,1","1,83","ND","ND","ND","ND"],
    [12473,"11/29/2015 08:00","38,3","4,04","ND","ND","ND","ND"],
    [12474,"11/29/2015 09:00","37,3","11,06","ND","ND","ND","ND"],
    [12475,"11/29/2015 10:00","42,6","14,23","ND","ND","ND","ND"],
    [12476,"11/29/2015 11:00","32,9","8,15","ND","ND","ND","ND"],
    [12477,"11/29/2015 12:00","35,2","5,84","ND","ND","ND","ND"],
    [12478,"11/29/2015 13:00","34,9","4,72","ND","ND","ND","ND"],
    [12479,"11/29/2015 14:00","44,3","4,3","ND","ND","ND","ND"],
    [12480,"11/29/2015 15:00","48,1","5,27","ND","ND","ND","ND"],
    [12481,"11/29/2015 16:00","50,8","5,66","ND","ND","ND","ND"],
    [12482,"11/29/2015 17:00","25","1,99","ND","ND","ND","ND"],
    [12483,"11/29/2015 18:00","17,2","1,21","ND","ND","ND","ND"],
    [12484,"11/29/2015 19:00","16,1","1,34","ND","ND","ND","ND"],
    [12485,"11/29/2015 20:00","26,9","1,57","ND","ND","ND","ND"],
    [12486,"11/29/2015 21:00","58,3","2,99","ND","ND","ND","ND"],
    [12487,"11/29/2015 22:00","72","3,48","ND","ND","ND","ND"],
    [12488,"11/29/2015 23:00","57,5","2,46","ND","ND","ND","ND"],
    [12489,"11/30/2015 00:00","57,2","3,83","ND","ND","ND","ND"],
    [12490,"11/30/2015 01:00","42,7","1,62","ND","ND","ND","ND"],
    [12491,"11/30/2015 02:00","42,7","1,57","ND","ND","ND","ND"],
    [12492,"11/30/2015 03:00","46,1","2,41","ND","ND","ND","ND"],
    [12493,"11/30/2015 04:00","34,6","1,83","ND","ND","ND","ND"],
    [12494,"11/30/2015 05:00","39,9","1,6","ND","ND","ND","ND"],
    [12495,"11/30/2015 06:00","54,3","1,65","ND","ND","ND","ND"],
    [12496,"11/30/2015 07:00","77,1","2,54","ND","ND","ND","ND"],
    [12497,"11/30/2015 08:00","70,1","6,68","ND","ND","ND","ND"],
    [12498,"11/30/2015 09:00","53,6","9,28","ND","ND","ND","ND"],
    [12499,"11/30/2015 10:00","46,7","9,01","ND","ND","ND","ND"],
    [12500,"11/30/2015 11:00","38,7","6,16","ND","ND","ND","ND"],
    [12501,"11/30/2015 12:00","37,7","4,98","ND","ND","ND","ND"],
    [12502,"11/30/2015 13:00","51,3","4,06","ND","ND","ND","ND"],
    [12503,"11/30/2015 14:00","59,3","5,32","ND","ND","ND","ND"],
    [12504,"11/30/2015 15:00","19,7","1,99","ND","ND","ND","ND"],
    [12505,"11/30/2015 16:00","17,3","3,28","ND","ND","ND","ND"],
    [12506,"11/30/2015 17:00","21,2","2,41","ND","ND","ND","ND"],
    [12507,"11/30/2015 18:00","16,7","1,34","ND","ND","ND","ND"],
    [12508,"11/30/2015 19:00","17,1","1,31","ND","ND","ND","ND"],
    [12509,"11/30/2015 20:00","17,1","1,31","ND","ND","ND","ND"],
    [12510,"11/30/2015 21:00","33,9","1,91","ND","ND","ND","ND"],
    [12511,"11/30/2015 22:00","59,2","2,2","ND","ND","ND","ND"],
    [12512,"11/30/2015 23:00","64","3,62","ND","ND","ND","ND"],
    [12513,"42016","60,4","2,54","ND","ND","ND","ND"],
    [12514,"42016,04167","49,2","3,77","ND","ND","ND","ND"],
    [12515,"42016,08333","53,6","3,85","ND","ND","ND","ND"],
    [12516,"42016,125","53,9","3,98","ND","ND","ND","ND"],
    [12517,"42016,16667","40","2,49","ND","ND","ND","ND"],
    [12518,"42016,20833","46,1","2,04","ND","ND","ND","ND"],
    [12519,"42016,25","52,5","2,33","ND","ND","ND","ND"],
    [12520,"42016,29167","66,5","2,99","ND","ND","ND","ND"],
    [12521,"42016,33333","63,3","5,16","ND","ND","ND","ND"],
    [12522,"42016,375","72","16,51","ND","ND","ND","ND"],
    [12523,"42016,41667","65,8","9,72","ND","ND","ND","ND"],
    [12524,"42016,45833","69,2","6,97","ND","ND","ND","ND"],
    [12525,"42016,5","34,6","5,92","ND","ND","ND","ND"],
    [12526,"42016,54167","45,3","3,72","ND","ND","ND","ND"],
    [12527,"42016,58333","38,1","4,85","ND","ND","ND","ND"],
    [12528,"42016,625","39,2","6,24","ND","ND","ND","ND"],
    [12529,"42016,66667","47,7","4,64","ND","ND","ND","ND"],
    [12530,"42016,70833","10,7","2,46","ND","ND","ND","ND"],
    [12531,"42016,75","22,8","2,38","ND","ND","ND","ND"],
    [12532,"42016,79167","25,4","2,1","ND","ND","ND","ND"],
    [12533,"42016,83333","20","2,12","ND","ND","ND","ND"],
    [12534,"42016,875","27,2","2,49","ND","ND","ND","ND"],
    [12535,"42016,91667","35","2,12","ND","ND","ND","ND"],
    [12536,"42016,95833","18,3","1,89","ND","ND","ND","ND"],
    [12537,"42047","29,4","2,23","ND","ND","ND","ND"],
    [12538,"42047,04167","42,5","3,43","ND","ND","ND","ND"],
    [12539,"42047,08333","50,9","4,14","ND","ND","ND","ND"],
    [12540,"42047,125","42,8","3,48","ND","ND","ND","ND"],
    [12541,"42047,16667","35,6","2,57","ND","ND","ND","ND"],
    [12542,"42047,20833","24,1","1,78","ND","ND","ND","ND"],
    [12543,"42047,25","56,6","2,33","ND","ND","ND","ND"],
    [12544,"42047,29167","82,4","3,62","ND","ND","ND","ND"],
    [12545,"42047,33333","54","6,84","ND","ND","ND","ND"],
    [12546,"42047,375","46,3","10,27","ND","ND","ND","ND"],
    [12547,"42047,41667","46,3","10,53","ND","ND","ND","ND"],
    [12548,"42047,45833","60,2","11,42","ND","ND","ND","ND"],
    [12549,"42047,5","65,1","9,54","ND","ND","ND","ND"],
    [12550,"42047,54167","44,3","7,57","ND","ND","ND","ND"],
    [12551,"42047,58333","21,7","5,16","ND","ND","ND","ND"],
    [12552,"42047,625","44,5","3,96","ND","ND","ND","ND"],
    [12553,"42047,66667","35,7","4,95","ND","ND","ND","ND"],
    [12554,"42047,70833","53,4","3,67","ND","ND","ND","ND"],
    [12555,"42047,75","43,2","3,25","ND","ND","ND","ND"],
    [12556,"42047,79167","69,9","3,54","ND","ND","ND","ND"],
    [12557,"42047,83333","46,5","3,41","ND","ND","ND","ND"],
    [12558,"42047,875","38","3,12","ND","ND","ND","ND"],
    [12559,"42047,91667","70,4","4,24","ND","ND","ND","ND"],
    [12560,"42047,95833","51,9","3,07","ND","ND","ND","ND"],
    [12561,"42075","54,1","2,73","ND","ND","ND","ND"],
    [12562,"42075,04167","24,7","1,89","ND","ND","ND","ND"],
    [12563,"42075,08333","28,1","1,65","ND","ND","ND","ND"],
    [12564,"42075,125","23,8","1,6","ND","ND","ND","ND"],
    [12565,"42075,16667","30,4","1,6","ND","ND","ND","ND"],
    [12566,"42075,20833","28,9","1,57","ND","ND","ND","ND"],
    [12567,"42075,25","31,7","1,76","ND","ND","ND","ND"],
    [12568,"42075,29167","71,9","3,01","ND","ND","ND","ND"],
    [12569,"42075,33333","67,4","3,88","ND","ND","ND","ND"],
    [12570,"42075,375","157,7","17,22","ND","ND","ND","ND"],
    [12571,"42075,41667","125,2","13,05","ND","ND","ND","ND"],
    [12572,"42075,45833","102,4","26,07","ND","ND","ND","ND"],
    [12573,"42075,5","73,8","16,32","ND","ND","ND","ND"],
    [12574,"42075,54167","90,8","13,36","ND","ND","ND","ND"],
    [12575,"42075,58333","63,9","18,73","ND","ND","ND","ND"],
    [12576,"42075,625","57,8","12","ND","ND","ND","ND"],
    [12577,"42075,66667","54,9","7,21","ND","ND","ND","ND"],
    [12578,"42075,70833","60,2","6,79","ND","ND","ND","ND"],
    [12579,"42075,75","106,3","6,68","ND","ND","ND","ND"],
    [12580,"42075,79167","58,7","3,62","ND","ND","ND","ND"],
    [12581,"42075,83333","36,8","2,67","ND","ND","ND","ND"],
    [12582,"42075,875","26,7","2,12","ND","ND","ND","ND"],
    [12583,"42075,91667","29,5","2,1","ND","ND","ND","ND"],
    [12584,"42075,95833","17,3","1,55","ND","ND","ND","ND"],
    [12585,"42106","34,3","2,57","ND","ND","ND","ND"],
    [12586,"42106,04167","45,4","2,28","ND","ND","ND","ND"],
    [12587,"42106,08333","32,6","1,83","ND","ND","ND","ND"],
    [12588,"42106,125","41,6","2,33","ND","ND","ND","ND"],
    [12589,"42106,16667","44,4","2,38","ND","ND","ND","ND"],
    [12590,"42106,20833","48,4","2,33","ND","ND","ND","ND"],
    [12591,"42106,25","59,6","2,67","ND","ND","ND","ND"],
    [12592,"42106,29167","78,1","3,77","ND","ND","ND","ND"],
    [12593,"42106,33333","84,1","5,08","ND","ND","ND","ND"],
    [12594,"42106,375","89,8","13,36","ND","ND","ND","ND"],
    [12595,"42106,41667","147,4","26,86","ND","ND","ND","ND"],
    [12596,"42106,45833","111,3","36,97","ND","ND","ND","ND"],
    [12597,"42106,5","116,3","21,59","ND","ND","ND","ND"],
    [12598,"42106,54167","82,8","16,93","ND","ND","ND","ND"],
    [12599,"42106,58333","69,1","14,49","ND","ND","ND","ND"],
    [12600,"42106,625","73,6","16,11","ND","ND","ND","ND"],
    [12601,"42106,66667","64,6","15,54","ND","ND","ND","ND"],
    [12602,"42106,70833","63,7","19,55","ND","ND","ND","ND"],
    [12603,"42106,75","53,3","8,83","ND","ND","ND","ND"],
    [12604,"42106,79167","77,6","6,39","ND","ND","ND","ND"],
    [12605,"42106,83333","98,1","5,82","ND","ND","ND","ND"],
    [12606,"42106,875","78,9","5,42","ND","ND","ND","ND"],
    [12607,"42106,91667","70,3","4,22","ND","ND","ND","ND"],
    [12608,"42106,95833","54,1","3,51","ND","ND","ND","ND"],
    [12609,"42136","55,8","2,28","ND","ND","ND","ND"],
    [12610,"42136,04167","30,2","2,31","ND","ND","ND","ND"],
    [12611,"42136,08333","32,3","2,04","ND","ND","ND","ND"],
    [12612,"42136,125","45,6","2,25","ND","ND","ND","ND"],
    [12613,"42136,16667","51,8","3,41","ND","ND","ND","ND"],
    [12614,"42136,20833","44,2","2,99","ND","ND","ND","ND"],
    [12615,"42136,25","55,1","2,65","ND","ND","ND","ND"],
    [12616,"42136,29167","75","2,99","ND","ND","ND","ND"],
    [12617,"42136,33333","87,6","4,35","ND","ND","ND","ND"],
    [12618,"42136,375","74,3","5,06","ND","ND","ND","ND"],
    [12619,"42136,41667","62,4","5,27","ND","ND","ND","ND"],
    [12620,"42136,45833","46,6","4,04","ND","ND","ND","ND"],
    [12621,"42136,5","55","3,48","ND","ND","ND","ND"],
    [12622,"42136,54167","71,5","4,09","ND","ND","ND","ND"],
    [12623,"42136,58333","70,6","4,38","ND","ND","ND","ND"],
    [12624,"42136,625","16,9","1,81","ND","ND","ND","ND"],
    [12625,"42136,66667","10,2","1,68","ND","ND","ND","ND"],
    [12626,"42136,70833","13,2","1,44","ND","ND","ND","ND"],
    [12627,"42136,75","14,2","1,44","ND","ND","ND","ND"],
    [12628,"42136,79167","26,2","1,6","ND","ND","ND","ND"],
    [12629,"42136,83333","69,2","2,2","ND","ND","ND","ND"],
    [12630,"42136,875","61,3","2,59","ND","ND","ND","ND"],
    [12631,"42136,91667","84,7","2,62","ND","ND","ND","ND"],
    [12632,"42136,95833","74,8","2,96","ND","ND","ND","ND"],
    [12633,"42167","40,9","2,41","ND","ND","ND","ND"],
    [12634,"42167,04167","42,3","1,86","ND","ND","ND","ND"],
    [12635,"42167,08333","37,5","1,65","ND","ND","ND","ND"],
    [12636,"42167,125","38,4","1,49","ND","ND","ND","ND"],
    [12637,"42167,16667","37,5","1,62","ND","ND","ND","ND"],
    [12638,"42167,20833","41,7","1,62","ND","ND","ND","ND"],
    [12639,"42167,25","45,1","1,68","ND","ND","ND","ND"],
    [12640,"42167,29167","50,6","1,94","ND","ND","ND","ND"],
    [12641,"42167,33333","50,5","3,77","ND","ND","ND","ND"],
    [12642,"42167,375","55,3","11,48","ND","ND","ND","ND"],
    [12643,"42167,41667","45","12,34","ND","ND","ND","ND"],
    [12644,"42167,45833","39,3","9,09","ND","ND","ND","ND"],
    [12645,"42167,5","39,4","7,07","ND","ND","ND","ND"],
    [12646,"42167,54167","38,4","5,4","ND","ND","ND","ND"],
    [12647,"42167,58333","53,2","5,19","ND","ND","ND","ND"],
    [12648,"42167,625","53,2","3,28","ND","ND","ND","ND"],
    [12649,"42167,66667","27","1,31","ND","ND","ND","ND"],
    [12650,"42167,70833","24,8","1,41","ND","ND","ND","ND"],
    [12651,"42167,75","19,1","1,23","ND","ND","ND","ND"],
    [12652,"42167,79167","14,1","1,18","ND","ND","ND","ND"],
    [12653,"42167,83333","35,9","1,34","ND","ND","ND","ND"],
    [12654,"42167,875","46,3","1,78","ND","ND","ND","ND"],
    [12655,"42167,91667","46,2","2,15","ND","ND","ND","ND"],
    [12656,"42167,95833","47,9","2,12","ND","ND","ND","ND"],
    [12657,"42197","80,9","5,42","ND","ND","ND","ND"],
    [12658,"42197,04167","30,9","1,55","ND","ND","ND","ND"],
    [12659,"42197,08333","27,7","1,36","ND","ND","ND","ND"],
    [12660,"42197,125","43,5","2,02","ND","ND","ND","ND"],
    [12661,"42197,16667","46,3","2,25","ND","ND","ND","ND"],
    [12662,"42197,20833","33,2","1,76","ND","ND","ND","ND"],
    [12663,"42197,25","45,2","1,91","ND","ND","ND","ND"],
    [12664,"42197,29167","65,4","3,64","ND","ND","ND","ND"],
    [12665,"42197,33333","80,2","4,98","ND","ND","ND","ND"],
    [12666,"42197,375","58,4","8,57","ND","ND","ND","ND"],
    [12667,"42197,41667","82,7","14,54","ND","ND","ND","ND"],
    [12668,"42197,45833","57,4","12,45","ND","ND","ND","ND"],
    [12669,"42197,5","53,2","8,59","ND","ND","ND","ND"],
    [12670,"42197,54167","59,5","7,15","ND","ND","ND","ND"],
    [12671,"42197,58333","44,8","5,21","ND","ND","ND","ND"],
    [12672,"42197,625","56,4","5,03","ND","ND","ND","ND"],
    [12673,"42197,66667","30,1","2,54","ND","ND","ND","ND"],
    [12674,"42197,70833","17,5","1,7","ND","ND","ND","ND"],
    [12675,"42197,75","20,6","1,57","ND","ND","ND","ND"],
    [12676,"42197,79167","19,5","1,65","ND","ND","ND","ND"],
    [12677,"42197,83333","27,4","2,25","ND","ND","ND","ND"],
    [12678,"42197,875","42,1","4,74","ND","ND","ND","ND"],
    [12679,"42197,91667","96,5","7,65","ND","ND","ND","ND"],
    [12680,"42197,95833","80,9","5,66","ND","ND","ND","ND"],
    [12681,"42228","53,1","2,41","ND","ND","ND","ND"],
    [12682,"42228,04167","77,3","4,69","ND","ND","ND","ND"],
    [12683,"42228,08333","70,6","6,16","ND","ND","ND","ND"],
    [12684,"42228,125","64,4","5,11","ND","ND","ND","ND"],
    [12685,"42228,16667","57,1","4,17","ND","ND","ND","ND"],
    [12686,"42228,20833","60","3,64","ND","ND","ND","ND"],
    [12687,"42228,25","42,7","3,56","ND","ND","ND","ND"],
    [12688,"42228,29167","42,2","3,43","ND","ND","ND","ND"],
    [12689,"42228,33333","47,1","5,32","ND","ND","ND","ND"],
    [12690,"42228,375","47,1","8,49","ND","ND","ND","ND"],
    [12691,"42228,41667","41,6","12,52","ND","ND","ND","ND"],
    [12692,"42228,45833","27","7,73","ND","ND","ND","ND"],
    [12693,"42228,5","41,5","6,79","ND","ND","ND","ND"],
    [12694,"42228,54167","49,2","5,79","ND","ND","ND","ND"],
    [12695,"42228,58333","48,5","4,74","ND","ND","ND","ND"],
    [12696,"42228,625","24,5","2,38","ND","ND","ND","ND"],
    [12697,"42228,66667","21,6","1,39","ND","ND","ND","ND"],
    [12698,"42228,70833","18,4","1,23","ND","ND","ND","ND"],
    [12699,"42228,75","21,3","1,23","ND","ND","ND","ND"],
    [12700,"42228,79167","24,3","1,57","ND","ND","ND","ND"],
    [12701,"42228,83333","50,4","2,25","ND","ND","ND","ND"],
    [12702,"42228,875","32,8","2,1","ND","ND","ND","ND"],
    [12703,"42228,91667","50,5","2,46","ND","ND","ND","ND"],
    [12704,"42228,95833","63,6","3,28","ND","ND","ND","ND"],
    [12705,"42259","37,7","2,25","ND","ND","ND","ND"],
    [12706,"42259,04167","43,6","4,04","ND","ND","ND","ND"],
    [12707,"42259,08333","42,1","4,3","ND","ND","ND","ND"],
    [12708,"42259,125","25","3,09","ND","ND","ND","ND"],
    [12709,"42259,16667","41,1","2,62","ND","ND","ND","ND"],
    [12710,"42259,20833","58,4","4,3","ND","ND","ND","ND"],
    [12711,"42259,25","85,3","3,35","ND","ND","ND","ND"],
    [12712,"42259,29167","66,5","3,85","ND","ND","ND","ND"],
    [12713,"42259,33333","85,2","5,87","ND","ND","ND","ND"],
    [12714,"42259,375","70,8","9,2","ND","ND","ND","ND"],
    [12715,"42259,41667","62","10,59","ND","ND","ND","ND"],
    [12716,"42259,45833","45,5","8,36","ND","ND","ND","ND"],
    [12717,"42259,5","71,8","7,89","ND","ND","ND","ND"],
    [12718,"42259,54167","68","6,73","ND","ND","ND","ND"],
    [12719,"42259,58333","57,3","6,58","ND","ND","ND","ND"],
    [12720,"42259,625","69","7,21","ND","ND","ND","ND"],
    [12721,"42259,66667","19,5","2,33","ND","ND","ND","ND"],
    [12722,"42259,70833","25,2","1,55","ND","ND","ND","ND"],
    [12723,"42259,75","18,1","1,23","ND","ND","ND","ND"],
    [12724,"42259,79167","9,3","1,34","ND","ND","ND","ND"],
    [12725,"42259,83333","41,4","1,41","ND","ND","ND","ND"],
    [12726,"42259,875","32,4","2,91","ND","ND","ND","ND"],
    [12727,"42259,91667","31,7","3,28","ND","ND","ND","ND"],
    [12728,"42259,95833","41,3","2,17","ND","ND","ND","ND"],
    [12729,"42289","75,1","4,56","ND","ND","ND","ND"],
    [12730,"42289,04167","40","1,73","ND","ND","ND","ND"],
    [12731,"42289,08333","31,2","1,76","ND","ND","ND","ND"],
    [12732,"42289,125","28,8","1,55","ND","ND","ND","ND"],
    [12733,"42289,16667","43,4","2,23","ND","ND","ND","ND"],
    [12734,"42289,20833","20,7","1,7","ND","ND","ND","ND"],
    [12735,"42289,25","30,8","1,99","ND","ND","ND","ND"],
    [12736,"42289,29167","52,2","3,48","ND","ND","ND","ND"],
    [12737,"42289,33333","72,9","5,53","ND","ND","ND","ND"],
    [12738,"42289,375","75,1","7,62","ND","ND","ND","ND"],
    [12739,"42289,41667","48,3","10,48","ND","ND","ND","ND"],
    [12740,"42289,45833","45,4","6,55","ND","ND","ND","ND"],
    [12741,"42289,5","39","4,22","ND","ND","ND","ND"],
    [12742,"42289,54167","40,3","3,38","ND","ND","ND","ND"],
    [12743,"42289,58333","33,7","2,91","ND","ND","ND","ND"],
    [12744,"42289,625","43,1","3,04","ND","ND","ND","ND"],
    [12745,"42289,66667","40,1","2,57","ND","ND","ND","ND"],
    [12746,"42289,70833","20,7","2,07","ND","ND","ND","ND"],
    [12747,"42289,75","25,9","1,91","ND","ND","ND","ND"],
    [12748,"42289,79167","27,2","1,81","ND","ND","ND","ND"],
    [12749,"42289,83333","22,8","2,04","ND","ND","ND","ND"],
    [12750,"42289,875","22,4","1,83","ND","ND","ND","ND"],
    [12751,"42289,91667","62,8","2,88","ND","ND","ND","ND"],
    [12752,"42289,95833","76,5","4,38","ND","ND","ND","ND"],
    [12753,"42320","69,5","3,38","ND","ND","ND","ND"],
    [12754,"42320,04167","52,7","2,44","ND","ND","ND","ND"],
    [12755,"42320,08333","36,6","1,89","ND","ND","ND","ND"],
    [12756,"42320,125","34,9","1,78","ND","ND","ND","ND"],
    [12757,"42320,16667","35,3","1,68","ND","ND","ND","ND"],
    [12758,"42320,20833","34,5","1,89","ND","ND","ND","ND"],
    [12759,"42320,25","46","2,02","ND","ND","ND","ND"],
    [12760,"42320,29167","73,9","3,3","ND","ND","ND","ND"],
    [12761,"42320,33333","110,2","6,05","ND","ND","ND","ND"],
    [12762,"42320,375","63","8,07","ND","ND","ND","ND"],
    [12763,"42320,41667","64,3","10,19","ND","ND","ND","ND"],
    [12764,"42320,45833","ND","ND","ND","ND","ND","ND"],
    [12765,"42320,5","ND","86,83","ND","ND","ND","ND"],
    [12766,"42320,54167","ND","6,92","ND","ND","ND","ND"],
    [12767,"42320,58333","ND","6","ND","ND","ND","ND"],
    [12768,"42320,625","53,8","7,65","ND","ND","ND","ND"],
    [12769,"42320,66667","19,1","1,83","ND","ND","ND","ND"],
    [12770,"42320,70833","22,9","1,57","ND","ND","ND","ND"],
    [12771,"42320,75","26,1","1,47","ND","ND","ND","ND"],
    [12772,"42320,79167","17,1","1,34","ND","ND","ND","ND"],
    [12773,"42320,83333","14,8","1,31","ND","ND","ND","ND"],
    [12774,"42320,875","15,8","1,41","ND","ND","ND","ND"],
    [12775,"42320,91667","54,3","3,04","ND","ND","ND","ND"],
    [12776,"42320,95833","59,8","4,11","ND","ND","ND","ND"],
    [12777,"42350","79,2","2,52","ND","ND","ND","ND"],
    [12778,"42350,04167","52,9","2,93","ND","ND","ND","ND"],
    [12779,"42350,08333","36,5","2,49","ND","ND","ND","ND"],
    [12780,"42350,125","27,7","2,12","ND","ND","ND","ND"],
    [12781,"42350,16667","27,2","1,7","ND","ND","ND","ND"],
    [12782,"42350,20833","28","1,62","ND","ND","ND","ND"],
    [12783,"42350,25","38","2,04","ND","ND","ND","ND"],
    [12784,"42350,29167","48","2,44","ND","ND","ND","ND"],
    [12785,"42350,33333","58,1","4,69","ND","ND","ND","ND"],
    [12786,"42350,375","58,2","13,7","ND","ND","ND","ND"],
    [12787,"42350,41667","57,9","20,83","ND","ND","ND","ND"],
    [12788,"42350,45833","50,5","12,26","ND","ND","ND","ND"],
    [12789,"42350,5","49,2","7,89","ND","ND","ND","ND"],
    [12790,"42350,54167","49,6","6","ND","ND","ND","ND"],
    [12791,"42350,58333","53,1","5,11","ND","ND","ND","ND"],
    [12792,"42350,625","66,1","5,14","ND","ND","ND","ND"],
    [12793,"42350,66667","33,5","1,81","ND","ND","ND","ND"],
    [12794,"42350,70833","31","1,44","ND","ND","ND","ND"],
    [12795,"42350,75","24,2","1,36","ND","ND","ND","ND"],
    [12796,"42350,79167","22,5","1,44","ND","ND","ND","ND"],
    [12797,"42350,83333","26,4","1,76","ND","ND","ND","ND"],
    [12798,"42350,875","41,9","1,99","ND","ND","ND","ND"],
    [12799,"42350,91667","62,4","2,99","ND","ND","ND","ND"],
    [12800,"42350,95833","60,2","2,49","ND","ND","ND","ND"],
    [12801,"12/13/2015 00:00","43,5","2,33","ND","ND","ND","ND"],
    [12802,"12/13/2015 01:00","49,3","2,54","ND","ND","ND","ND"],
    [12803,"12/13/2015 02:00","39","2,33","ND","ND","ND","ND"],
    [12804,"12/13/2015 03:00","37,5","2,88","ND","ND","ND","ND"],
    [12805,"12/13/2015 04:00","35,7","2,62","ND","ND","ND","ND"],
    [12806,"12/13/2015 05:00","32,8","2,78","ND","ND","ND","ND"],
    [12807,"12/13/2015 06:00","32,5","3,09","ND","ND","ND","ND"],
    [12808,"12/13/2015 07:00","42,6","4,43","ND","ND","ND","ND"],
    [12809,"12/13/2015 08:00","54,6","5,63","ND","ND","ND","ND"],
    [12810,"12/13/2015 09:00","71,4","9,14","ND","ND","ND","ND"],
    [12811,"12/13/2015 10:00","44,3","13,78","ND","ND","ND","ND"],
    [12812,"12/13/2015 11:00","44,6","12,73","ND","ND","ND","ND"],
    [12813,"12/13/2015 12:00","34,4","8,02","ND","ND","ND","ND"],
    [12814,"12/13/2015 13:00","38,7","4,8","ND","ND","ND","ND"],
    [12815,"12/13/2015 14:00","19,5","1,49","ND","ND","ND","ND"],
    [12816,"12/13/2015 15:00","23,7","1,26","ND","ND","ND","ND"],
    [12817,"12/13/2015 16:00","17,4","1,39","ND","ND","ND","ND"],
    [12818,"12/13/2015 17:00","31,4","1,26","ND","ND","ND","ND"],
    [12819,"12/13/2015 18:00","28","1,18","ND","ND","ND","ND"],
    [12820,"12/13/2015 19:00","16,1","1,18","ND","ND","ND","ND"],
    [12821,"12/13/2015 20:00","18,6","1,31","ND","ND","ND","ND"],
    [12822,"12/13/2015 21:00","39","2,1","ND","ND","ND","ND"],
    [12823,"12/13/2015 22:00","43,6","2,25","ND","ND","ND","ND"],
    [12824,"12/13/2015 23:00","49,9","3,33","ND","ND","ND","ND"],
    [12825,"12/14/2015 00:00","54,3","2,91","ND","ND","ND","ND"],
    [12826,"12/14/2015 01:00","32,3","1,81","ND","ND","ND","ND"],
    [12827,"12/14/2015 02:00","30,4","1,78","ND","ND","ND","ND"],
    [12828,"12/14/2015 03:00","27,6","1,7","ND","ND","ND","ND"],
    [12829,"12/14/2015 04:00","27,6","1,81","ND","ND","ND","ND"],
    [12830,"12/14/2015 05:00","32,3","2,52","ND","ND","ND","ND"],
    [12831,"12/14/2015 06:00","47,9","3,09","ND","ND","ND","ND"],
    [12832,"12/14/2015 07:00","64,8","6,42","ND","ND","ND","ND"],
    [12833,"12/14/2015 08:00","69,1","7,86","ND","ND","ND","ND"],
    [12834,"12/14/2015 09:00","84,8","9,25","ND","ND","ND","ND"],
    [12835,"12/14/2015 10:00","68,5","11,32","ND","ND","ND","ND"],
    [12836,"12/14/2015 11:00","35,3","9,22","ND","ND","ND","ND"],
    [12837,"12/14/2015 12:00","49","8,8","ND","ND","ND","ND"],
    [12838,"12/14/2015 13:00","58,2","8,54","ND","ND","ND","ND"],
    [12839,"12/14/2015 14:00","55,5","8,04","ND","ND","ND","ND"],
    [12840,"12/14/2015 15:00","27,4","3,59","ND","ND","ND","ND"],
    [12841,"12/14/2015 16:00","18,3","1,91","ND","ND","ND","ND"],
    [12842,"12/14/2015 17:00","25,2","1,78","ND","ND","ND","ND"],
    [12843,"12/14/2015 18:00","24,8","1,47","ND","ND","ND","ND"],
    [12844,"12/14/2015 19:00","15,8","1,31","ND","ND","ND","ND"],
    [12845,"12/14/2015 20:00","21,7","1,41","ND","ND","ND","ND"],
    [12846,"12/14/2015 21:00","16,8","1,23","ND","ND","ND","ND"],
    [12847,"12/14/2015 22:00","18,5","1,57","ND","ND","ND","ND"],
    [12848,"12/14/2015 23:00","44,9","2,38","ND","ND","ND","ND"],
    [12849,"12/15/2015 00:00","58,4","2,59","ND","ND","ND","ND"],
    [12850,"12/15/2015 01:00","35,1","2,36","ND","ND","ND","ND"],
    [12851,"12/15/2015 02:00","31,3","2,59","ND","ND","ND","ND"],
    [12852,"12/15/2015 03:00","39,8","2,65","ND","ND","ND","ND"],
    [12853,"12/15/2015 04:00","39,7","2,1","ND","ND","ND","ND"],
    [12854,"12/15/2015 05:00","27,7","2,04","ND","ND","ND","ND"],
    [12855,"12/15/2015 06:00","17,4","1,83","ND","ND","ND","ND"],
    [12856,"12/15/2015 07:00","25,5","2,49","ND","ND","ND","ND"],
    [12857,"12/15/2015 08:00","39,6","4,85","ND","ND","ND","ND"],
    [12858,"12/15/2015 09:00","46,7","7,55","ND","ND","ND","ND"],
    [12859,"12/15/2015 10:00","32,8","6,89","ND","ND","ND","ND"],
    [12860,"12/15/2015 11:00","26,3","4,56","ND","ND","ND","ND"],
    [12861,"12/15/2015 12:00","20,8","3,01","ND","ND","ND","ND"],
    [12862,"12/15/2015 13:00","15,2","2,25","ND","ND","ND","ND"],
    [12863,"12/15/2015 14:00","28,2","2,75","ND","ND","ND","ND"],
    [12864,"12/15/2015 15:00","34,3","3,75","ND","ND","ND","ND"],
    [12865,"12/15/2015 16:00","39","3,22","ND","ND","ND","ND"],
    [12866,"12/15/2015 17:00","39","3,46","ND","ND","ND","ND"],
    [12867,"12/15/2015 18:00","32,4","2,54","ND","ND","ND","ND"],
    [12868,"12/15/2015 19:00","21,2","1,83","ND","ND","ND","ND"],
    [12869,"12/15/2015 20:00","35,5","1,73","ND","ND","ND","ND"],
    [12870,"12/15/2015 21:00","53,6","2,02","ND","ND","ND","ND"],
    [12871,"12/15/2015 22:00","41,5","2,2","ND","ND","ND","ND"],
    [12872,"12/15/2015 23:00","62,6","3,14","ND","ND","ND","ND"],
    [12873,"12/16/2015 00:00","45,4","4,4","ND","ND","ND","ND"],
    [12874,"12/16/2015 01:00","44,4","2,25","ND","ND","ND","ND"],
    [12875,"12/16/2015 02:00","41,2","2,2","ND","ND","ND","ND"],
    [12876,"12/16/2015 03:00","39,2","2,46","ND","ND","ND","ND"],
    [12877,"12/16/2015 04:00","40,5","3,04","ND","ND","ND","ND"],
    [12878,"12/16/2015 05:00","33","2,1","ND","ND","ND","ND"],
    [12879,"12/16/2015 06:00","35,4","1,76","ND","ND","ND","ND"],
    [12880,"12/16/2015 07:00","46,6","2,15","ND","ND","ND","ND"],
    [12881,"12/16/2015 08:00","50,5","3,14","ND","ND","ND","ND"],
    [12882,"12/16/2015 09:00","45,5","5,4","ND","ND","ND","ND"],
    [12883,"12/16/2015 10:00","51,9","11,48","ND","ND","ND","ND"],
    [12884,"12/16/2015 11:00","48,3","10,51","ND","ND","ND","ND"],
    [12885,"12/16/2015 12:00","50,4","6,45","ND","ND","ND","ND"],
    [12886,"12/16/2015 13:00","55,1","5,19","ND","ND","ND","ND"],
    [12887,"12/16/2015 14:00","52,6","5,16","ND","ND","ND","ND"],
    [12888,"12/16/2015 15:00","42,1","7,62","ND","ND","ND","ND"],
    [12889,"12/16/2015 16:00","18,1","2,02","ND","ND","ND","ND"],
    [12890,"12/16/2015 17:00","24,7","2,07","ND","ND","ND","ND"],
    [12891,"12/16/2015 18:00","26,3","1,52","ND","ND","ND","ND"],
    [12892,"12/16/2015 19:00","22,1","1,55","ND","ND","ND","ND"],
    [12893,"12/16/2015 20:00","28,7","2,04","ND","ND","ND","ND"],
    [12894,"12/16/2015 21:00","61","3,01","ND","ND","ND","ND"],
    [12895,"12/16/2015 22:00","47,7","2,73","ND","ND","ND","ND"],
    [12896,"12/16/2015 23:00","44,4","2,67","ND","ND","ND","ND"],
    [12897,"12/17/2015 00:00","43,9","3,01","ND","ND","ND","ND"],
    [12898,"12/17/2015 01:00","41,2","4,8","ND","ND","ND","ND"],
    [12899,"12/17/2015 02:00","34,1","7,34","ND","ND","ND","ND"],
    [12900,"12/17/2015 03:00","31,9","4,22","ND","ND","ND","ND"],
    [12901,"12/17/2015 04:00","35","2,67","ND","ND","ND","ND"],
    [12902,"12/17/2015 05:00","24,6","1,6","ND","ND","ND","ND"],
    [12903,"12/17/2015 06:00","26,4","1,7","ND","ND","ND","ND"],
    [12904,"12/17/2015 07:00","22","1,83","ND","ND","ND","ND"],
    [12905,"12/17/2015 08:00","25,6","1,68","ND","ND","ND","ND"],
    [12906,"12/17/2015 09:00","20,5","1,6","ND","ND","ND","ND"],
    [12907,"12/17/2015 10:00","21,1","1,78","ND","ND","ND","ND"],
    [12908,"12/17/2015 11:00","17","1,81","ND","ND","ND","ND"],
    [12909,"12/17/2015 12:00","29,4","2,41","ND","ND","ND","ND"],
    [12910,"12/17/2015 13:00","50,1","23,71","ND","ND","ND","ND"],
    [12911,"12/17/2015 14:00","30,9","13,39","ND","ND","ND","ND"],
    [12912,"12/17/2015 15:00","19,7","4,24","ND","ND","ND","ND"],
    [12913,"12/17/2015 16:00","19,7","4,59","ND","ND","ND","ND"],
    [12914,"12/17/2015 17:00","52,7","4,43","ND","ND","ND","ND"],
    [12915,"12/17/2015 18:00","59,1","3,41","ND","ND","ND","ND"],
    [12916,"12/17/2015 19:00","49","3,01","ND","ND","ND","ND"],
    [12917,"12/17/2015 20:00","37,6","2,49","ND","ND","ND","ND"],
    [12918,"12/17/2015 21:00","30,6","2,15","ND","ND","ND","ND"],
    [12919,"12/17/2015 22:00","44,4","2,91","ND","ND","ND","ND"],
    [12920,"12/17/2015 23:00","25,4","2,57","ND","ND","ND","ND"],
    [12921,"12/18/2015 00:00","31,9","2,33","ND","ND","ND","ND"],
    [12922,"12/18/2015 01:00","28,8","2,57","ND","ND","ND","ND"],
    [12923,"12/18/2015 02:00","28,3","2,46","ND","ND","ND","ND"],
    [12924,"12/18/2015 03:00","24,5","2,54","ND","ND","ND","ND"],
    [12925,"12/18/2015 04:00","24,5","2,15","ND","ND","ND","ND"],
    [12926,"12/18/2015 05:00","27,2","2,28","ND","ND","ND","ND"],
    [12927,"12/18/2015 06:00","39,7","3,12","ND","ND","ND","ND"],
    [12928,"12/18/2015 07:00","50,5","3,22","ND","ND","ND","ND"],
    [12929,"12/18/2015 08:00","80,2","4,95","ND","ND","ND","ND"],
    [12930,"12/18/2015 09:00","83,1","7,18","ND","ND","ND","ND"],
    [12931,"12/18/2015 10:00","75,7","13,97","ND","ND","ND","ND"],
    [12932,"12/18/2015 11:00","86,9","12,63","ND","ND","ND","ND"],
    [12933,"12/18/2015 12:00","62,6","8,31","ND","ND","ND","ND"],
    [12934,"12/18/2015 13:00","61,6","7,99","ND","ND","ND","ND"],
    [12935,"12/18/2015 14:00","59,3","10,09","ND","ND","ND","ND"],
    [12936,"12/18/2015 15:00","10,8","2,25","ND","ND","ND","ND"],
    [12937,"12/18/2015 16:00","15,2","1,55","ND","ND","ND","ND"],
    [12938,"12/18/2015 17:00","21,6","1,57","ND","ND","ND","ND"],
    [12939,"12/18/2015 18:00","17,7","1,7","ND","ND","ND","ND"],
    [12940,"12/18/2015 19:00","43,9","2,1","ND","ND","ND","ND"],
    [12941,"12/18/2015 20:00","34,4","2,57","ND","ND","ND","ND"],
    [12942,"12/18/2015 21:00","46,4","3,3","ND","ND","ND","ND"],
    [12943,"12/18/2015 22:00","39,9","2,46","ND","ND","ND","ND"],
    [12944,"12/18/2015 23:00","28,8","2,31","ND","ND","ND","ND"],
    [12945,"12/19/2015 00:00","74,7","4,19","ND","ND","ND","ND"],
    [12946,"12/19/2015 01:00","36,5","2,52","ND","ND","ND","ND"],
    [12947,"12/19/2015 02:00","29","2,44","ND","ND","ND","ND"],
    [12948,"12/19/2015 03:00","40,5","2,38","ND","ND","ND","ND"],
    [12949,"12/19/2015 04:00","23,6","1,76","ND","ND","ND","ND"],
    [12950,"12/19/2015 05:00","24,9","1,62","ND","ND","ND","ND"],
    [12951,"12/19/2015 06:00","26,9","1,31","ND","ND","ND","ND"],
    [12952,"12/19/2015 07:00","35,8","1,78","ND","ND","ND","ND"],
    [12953,"12/19/2015 08:00","46,6","2,67","ND","ND","ND","ND"],
    [12954,"12/19/2015 09:00","92,5","11,92","ND","ND","ND","ND"],
    [12955,"12/19/2015 10:00","96,7","16,61","ND","ND","ND","ND"],
    [12956,"12/19/2015 11:00","71,3","15,43","ND","ND","ND","ND"],
    [12957,"12/19/2015 12:00","57,2","15,17","ND","ND","ND","ND"],
    [12958,"12/19/2015 13:00","62,5","11,76","ND","ND","ND","ND"],
    [12959,"12/19/2015 14:00","70,2","10,87","ND","ND","ND","ND"],
    [12960,"12/19/2015 15:00","85","9,64","ND","ND","ND","ND"],
    [12961,"12/19/2015 16:00","75,5","7,7","ND","ND","ND","ND"],
    [12962,"12/19/2015 17:00","22,4","2,67","ND","ND","ND","ND"],
    [12963,"12/19/2015 18:00","18,4","1,89","ND","ND","ND","ND"],
    [12964,"12/19/2015 19:00","22,4","1,65","ND","ND","ND","ND"],
    [12965,"12/19/2015 20:00","12,4","1,41","ND","ND","ND","ND"],
    [12966,"12/19/2015 21:00","25,6","1,65","ND","ND","ND","ND"],
    [12967,"12/19/2015 22:00","29,3","1,94","ND","ND","ND","ND"],
    [12968,"12/19/2015 23:00","70,8","3,56","ND","ND","ND","ND"],
    [12969,"12/20/2015 00:00","54,2","2,52","ND","ND","ND","ND"],
    [12970,"12/20/2015 01:00","54,7","2,88","ND","ND","ND","ND"],
    [12971,"12/20/2015 02:00","61","2,57","ND","ND","ND","ND"],
    [12972,"12/20/2015 03:00","47,4","2,65","ND","ND","ND","ND"],
    [12973,"12/20/2015 04:00","56,3","2,54","ND","ND","ND","ND"],
    [12974,"12/20/2015 05:00","46","2,07","ND","ND","ND","ND"],
    [12975,"12/20/2015 06:00","44,3","1,81","ND","ND","ND","ND"],
    [12976,"12/20/2015 07:00","48,4","1,89","ND","ND","ND","ND"],
    [12977,"12/20/2015 08:00","57,8","2,8","ND","ND","ND","ND"],
    [12978,"12/20/2015 09:00","48","8,91","ND","ND","ND","ND"],
    [12979,"12/20/2015 10:00","41,7","10,14","ND","ND","ND","ND"],
    [12980,"12/20/2015 11:00","45,8","11,11","ND","ND","ND","ND"],
    [12981,"12/20/2015 12:00","50,7","11,03","ND","ND","ND","ND"],
    [12982,"12/20/2015 13:00","56,3","9,09","ND","ND","ND","ND"],
    [12983,"12/20/2015 14:00","66,1","7,89","ND","ND","ND","ND"],
    [12984,"12/20/2015 15:00","53,3","7,07","ND","ND","ND","ND"],
    [12985,"12/20/2015 16:00","43,6","4,8","ND","ND","ND","ND"],
    [12986,"12/20/2015 17:00","28,3","2,41","ND","ND","ND","ND"],
    [12987,"12/20/2015 18:00","39,7","1,89","ND","ND","ND","ND"],
    [12988,"12/20/2015 19:00","21,5","1,47","ND","ND","ND","ND"],
    [12989,"12/20/2015 20:00","17,9","1,28","ND","ND","ND","ND"],
    [12990,"12/20/2015 21:00","21,5","1,52","ND","ND","ND","ND"],
    [12991,"12/20/2015 22:00","59,8","2,88","ND","ND","ND","ND"],
    [12992,"12/20/2015 23:00","52,2","3,3","ND","ND","ND","ND"],
    [12993,"12/21/2015 00:00","56,5","2,52","ND","ND","ND","ND"],
    [12994,"12/21/2015 01:00","37,2","1,91","ND","ND","ND","ND"],
    [12995,"12/21/2015 02:00","29,6","1,7","ND","ND","ND","ND"],
    [12996,"12/21/2015 03:00","27,5","1,52","ND","ND","ND","ND"],
    [12997,"12/21/2015 04:00","27,2","1,65","ND","ND","ND","ND"],
    [12998,"12/21/2015 05:00","26,1","1,62","ND","ND","ND","ND"],
    [12999,"12/21/2015 06:00","34,1","2,04","ND","ND","ND","ND"],
    [13000,"12/21/2015 07:00","78,1","3,41","ND","ND","ND","ND"],
    [13001,"12/21/2015 08:00","64,2","4,11","ND","ND","ND","ND"],
    [13002,"12/21/2015 09:00","56,5","7,73","ND","ND","ND","ND"],
    [13003,"12/21/2015 10:00","59,1","10,9","ND","ND","ND","ND"],
    [13004,"12/21/2015 11:00","50,8","10,66","ND","ND","ND","ND"],
    [13005,"12/21/2015 12:00","53,9","7,97","ND","ND","ND","ND"],
    [13006,"12/21/2015 13:00","46,2","6,03","ND","ND","ND","ND"],
    [13007,"12/21/2015 14:00","45","5,21","ND","ND","ND","ND"],
    [13008,"12/21/2015 15:00","61","3,93","ND","ND","ND","ND"],
    [13009,"12/21/2015 16:00","25,9","1,81","ND","ND","ND","ND"],
    [13010,"12/21/2015 17:00","26,2","1,39","ND","ND","ND","ND"],
    [13011,"12/21/2015 18:00","17,7","1,15","ND","ND","ND","ND"],
    [13012,"12/21/2015 19:00","17,7","1,47","ND","ND","ND","ND"],
    [13013,"12/21/2015 20:00","18,4","1,57","ND","ND","ND","ND"],
    [13014,"12/21/2015 21:00","38,6","1,99","ND","ND","ND","ND"],
    [13015,"12/21/2015 22:00","70,4","3,59","ND","ND","ND","ND"],
    [13016,"12/21/2015 23:00","79,1","3,62","ND","ND","ND","ND"],
    [13017,"12/22/2015 00:00","59,6","3,25","ND","ND","ND","ND"],
    [13018,"12/22/2015 01:00","38,2","2,41","ND","ND","ND","ND"],
    [13019,"12/22/2015 02:00","38,2","1,99","ND","ND","ND","ND"],
    [13020,"12/22/2015 03:00","25,3","2,07","ND","ND","ND","ND"],
    [13021,"12/22/2015 04:00","27,9","2,23","ND","ND","ND","ND"],
    [13022,"12/22/2015 05:00","31,1","2,1","ND","ND","ND","ND"],
    [13023,"12/22/2015 06:00","38,2","2,12","ND","ND","ND","ND"],
    [13024,"12/22/2015 07:00","38,2","2,93","ND","ND","ND","ND"],
    [13025,"12/22/2015 08:00","67,7","5,61","ND","ND","ND","ND"],
    [13026,"12/22/2015 09:00","76,2","7,07","ND","ND","ND","ND"],
    [13027,"12/22/2015 10:00","70,6","7,89","ND","ND","ND","ND"],
    [13028,"12/22/2015 11:00","63,2","8,52","ND","ND","ND","ND"],
    [13029,"12/22/2015 12:00","67","17,03","ND","ND","ND","ND"],
    [13030,"12/22/2015 13:00","45,4","13,18","ND","ND","ND","ND"],
    [13031,"12/22/2015 14:00","18,6","3,96","ND","ND","ND","ND"],
    [13032,"12/22/2015 15:00","28,3","2,54","ND","ND","ND","ND"],
    [13033,"12/22/2015 16:00","22,7","1,39","ND","ND","ND","ND"],
    [13034,"12/22/2015 17:00","24,3","1,26","ND","ND","ND","ND"],
    [13035,"12/22/2015 18:00","30,3","1,39","ND","ND","ND","ND"],
    [13036,"12/22/2015 19:00","28,7","1,68","ND","ND","ND","ND"],
    [13037,"12/22/2015 20:00","36","1,49","ND","ND","ND","ND"],
    [13038,"12/22/2015 21:00","30,4","1,99","ND","ND","ND","ND"],
    [13039,"12/22/2015 22:00","56","2,59","ND","ND","ND","ND"],
    [13040,"12/22/2015 23:00","62","3,96","ND","ND","ND","ND"],
    [13041,"12/23/2015 00:00","49,6","1,94","ND","ND","ND","ND"],
    [13042,"12/23/2015 01:00","57,1","2,44","ND","ND","ND","ND"],
    [13043,"12/23/2015 02:00","38,2","1,81","ND","ND","ND","ND"],
    [13044,"12/23/2015 03:00","30,8","1,81","ND","ND","ND","ND"],
    [13045,"12/23/2015 04:00","32,5","2,78","ND","ND","ND","ND"],
    [13046,"12/23/2015 05:00","32,7","2,86","ND","ND","ND","ND"],
    [13047,"12/23/2015 06:00","46,8","3,67","ND","ND","ND","ND"],
    [13048,"12/23/2015 07:00","58,7","4,04","ND","ND","ND","ND"],
    [13049,"12/23/2015 08:00","74,4","6,63","ND","ND","ND","ND"],
    [13050,"12/23/2015 09:00","74,6","11,74","ND","ND","ND","ND"],
    [13051,"12/23/2015 10:00","64,2","22,14","ND","ND","ND","ND"],
    [13052,"12/23/2015 11:00","58,3","73,94","ND","ND","ND","ND"],
    [13053,"12/23/2015 12:00","52,8","32,07","ND","ND","ND","ND"],
    [13054,"12/23/2015 13:00","55","10,85","ND","ND","ND","ND"],
    [13055,"12/23/2015 14:00","69,9","7,6","ND","ND","ND","ND"],
    [13056,"12/23/2015 15:00","28,7","1,99","ND","ND","ND","ND"],
    [13057,"12/23/2015 16:00","17,7","1,26","ND","ND","ND","ND"],
    [13058,"12/23/2015 17:00","22,2","1,15","ND","ND","ND","ND"],
    [13059,"12/23/2015 18:00","18,2","1,18","ND","ND","ND","ND"],
    [13060,"12/23/2015 19:00","23,5","1,39","ND","ND","ND","ND"],
    [13061,"12/23/2015 20:00","22,9","1,23","ND","ND","ND","ND"],
    [13062,"12/23/2015 21:00","22,4","1,39","ND","ND","ND","ND"],
    [13063,"12/23/2015 22:00","65,9","2,75","ND","ND","ND","ND"],
    [13064,"12/23/2015 23:00","64,8","2,62","ND","ND","ND","ND"],
    [13065,"12/24/2015 00:00","78","5,4","ND","ND","ND","ND"],
    [13066,"12/24/2015 01:00","41,7","1,65","ND","ND","ND","ND"],
    [13067,"12/24/2015 02:00","37,5","1,55","ND","ND","ND","ND"],
    [13068,"12/24/2015 03:00","33,1","1,39","ND","ND","ND","ND"],
    [13069,"12/24/2015 04:00","34","1,52","ND","ND","ND","ND"],
    [13070,"12/24/2015 05:00","31,8","1,68","ND","ND","ND","ND"],
    [13071,"12/24/2015 06:00","39,3","1,81","ND","ND","ND","ND"],
    [13072,"12/24/2015 07:00","51,6","2,33","ND","ND","ND","ND"],
    [13073,"12/24/2015 08:00","59,2","6,18","ND","ND","ND","ND"],
    [13074,"12/24/2015 09:00","65,4","19,05","ND","ND","ND","ND"],
    [13075,"12/24/2015 10:00","66,5","19,31","ND","ND","ND","ND"],
    [13076,"12/24/2015 11:00","71,6","18,05","ND","ND","ND","ND"],
    [13077,"12/24/2015 12:00","74,2","15,77","ND","ND","ND","ND"],
    [13078,"12/24/2015 13:00","79,7","12,68","ND","ND","ND","ND"],
    [13079,"12/24/2015 14:00","62,6","8,75","ND","ND","ND","ND"],
    [13080,"12/24/2015 15:00","22,5","2,15","ND","ND","ND","ND"],
    [13081,"12/24/2015 16:00","23","1,81","ND","ND","ND","ND"],
    [13082,"12/24/2015 17:00","24,8","1,34","ND","ND","ND","ND"],
    [13083,"12/24/2015 18:00","24,7","1,23","ND","ND","ND","ND"],
    [13084,"12/24/2015 19:00","20","1,7","ND","ND","ND","ND"],
    [13085,"12/24/2015 20:00","22,3","1,55","ND","ND","ND","ND"],
    [13086,"12/24/2015 21:00","22,9","1,83","ND","ND","ND","ND"],
    [13087,"12/24/2015 22:00","60","3,46","ND","ND","ND","ND"],
    [13088,"12/24/2015 23:00","76,6","4,43","ND","ND","ND","ND"],
    [13089,"12/25/2015 00:00","44,6","2,23","ND","ND","ND","ND"],
    [13090,"12/25/2015 01:00","60,4","7,23","ND","ND","ND","ND"],
    [13091,"12/25/2015 02:00","60,2","5,27","ND","ND","ND","ND"],
    [13092,"12/25/2015 03:00","50,3","3,9","ND","ND","ND","ND"],
    [13093,"12/25/2015 04:00","40,8","2,7","ND","ND","ND","ND"],
    [13094,"12/25/2015 05:00","43,3","2,52","ND","ND","ND","ND"],
    [13095,"12/25/2015 06:00","39,5","2,46","ND","ND","ND","ND"],
    [13096,"12/25/2015 07:00","44,2","2,31","ND","ND","ND","ND"],
    [13097,"12/25/2015 08:00","49,6","3,54","ND","ND","ND","ND"],
    [13098,"12/25/2015 09:00","84","7,57","ND","ND","ND","ND"],
    [13099,"12/25/2015 10:00","85,5","8,33","ND","ND","ND","ND"],
    [13100,"12/25/2015 11:00","60,3","13,99","ND","ND","ND","ND"],
    [13101,"12/25/2015 12:00","47,5","10,51","ND","ND","ND","ND"],
    [13102,"12/25/2015 13:00","36,7","7","ND","ND","ND","ND"],
    [13103,"12/25/2015 14:00","37,6","5,69","ND","ND","ND","ND"],
    [13104,"12/25/2015 15:00","41,4","4,9","ND","ND","ND","ND"],
    [13105,"12/25/2015 16:00","41,4","5,21","ND","ND","ND","ND"],
    [13106,"12/25/2015 17:00","46,3","2,91","ND","ND","ND","ND"],
    [13107,"12/25/2015 18:00","28,6","1,34","ND","ND","ND","ND"],
    [13108,"12/25/2015 19:00","40,9","1,34","ND","ND","ND","ND"],
    [13109,"12/25/2015 20:00","19","1,39","ND","ND","ND","ND"],
    [13110,"12/25/2015 21:00","34,3","1,97","ND","ND","ND","ND"],
    [13111,"12/25/2015 22:00","47,4","2,57","ND","ND","ND","ND"],
    [13112,"12/25/2015 23:00","53,1","2,62","ND","ND","ND","ND"],
    [13113,"12/26/2015 00:00","54,6","2,12","ND","ND","ND","ND"],
    [13114,"12/26/2015 01:00","42,7","1,91","ND","ND","ND","ND"],
    [13115,"12/26/2015 02:00","34,5","1,73","ND","ND","ND","ND"],
    [13116,"12/26/2015 03:00","36,5","1,57","ND","ND","ND","ND"],
    [13117,"12/26/2015 04:00","33,9","1,44","ND","ND","ND","ND"],
    [13118,"12/26/2015 05:00","35,4","1,49","ND","ND","ND","ND"],
    [13119,"12/26/2015 06:00","39,8","1,49","ND","ND","ND","ND"],
    [13120,"12/26/2015 07:00","56,2","1,91","ND","ND","ND","ND"],
    [13121,"12/26/2015 08:00","95,3","3,22","ND","ND","ND","ND"],
    [13122,"12/26/2015 09:00","83","6,16","ND","ND","ND","ND"],
    [13123,"12/26/2015 10:00","68,7","8,44","ND","ND","ND","ND"],
    [13124,"12/26/2015 11:00","61,1","9,93","ND","ND","ND","ND"],
    [13125,"12/26/2015 12:00","61,1","9,85","ND","ND","ND","ND"],
    [13126,"12/26/2015 13:00","49,7","8,44","ND","ND","ND","ND"],
    [13127,"12/26/2015 14:00","16,1","3,51","ND","ND","ND","ND"],
    [13128,"12/26/2015 15:00","22,8","1,52","ND","ND","ND","ND"],
    [13129,"12/26/2015 16:00","18,9","1,21","ND","ND","ND","ND"],
    [13130,"12/26/2015 17:00","22,7","1,07","ND","ND","ND","ND"],
    [13131,"12/26/2015 18:00","23,9","1,31","ND","ND","ND","ND"],
    [13132,"12/26/2015 19:00","28,4","1,34","ND","ND","ND","ND"],
    [13133,"12/26/2015 20:00","29,6","1,44","ND","ND","ND","ND"],
    [13134,"12/26/2015 21:00","30,4","1,18","ND","ND","ND","ND"],
    [13135,"12/26/2015 22:00","35,2","1,91","ND","ND","ND","ND"],
    [13136,"12/26/2015 23:00","57,3","3,22","ND","ND","ND","ND"],
    [13137,"12/27/2015 00:00","79,1","3,35","ND","ND","ND","ND"],
    [13138,"12/27/2015 01:00","46,1","1,94","ND","ND","ND","ND"],
    [13139,"12/27/2015 02:00","39,1","1,73","ND","ND","ND","ND"],
    [13140,"12/27/2015 03:00","32,8","1,7","ND","ND","ND","ND"],
    [13141,"12/27/2015 04:00","42","2,2","ND","ND","ND","ND"],
    [13142,"12/27/2015 05:00","31,3","2,73","ND","ND","ND","ND"],
    [13143,"12/27/2015 06:00","35,1","2,31","ND","ND","ND","ND"],
    [13144,"12/27/2015 07:00","39,3","2,33","ND","ND","ND","ND"],
    [13145,"12/27/2015 08:00","58,3","3,33","ND","ND","ND","ND"],
    [13146,"12/27/2015 09:00","57,7","7,13","ND","ND","ND","ND"],
    [13147,"12/27/2015 10:00","67,9","17,37","ND","ND","ND","ND"],
    [13148,"12/27/2015 11:00","74,1","17,27","ND","ND","ND","ND"],
    [13149,"12/27/2015 12:00","45,8","10,11","ND","ND","ND","ND"],
    [13150,"12/27/2015 13:00","45","9,12","ND","ND","ND","ND"],
    [13151,"12/27/2015 14:00","50,2","7,99","ND","ND","ND","ND"],
    [13152,"12/27/2015 15:00","52,3","5,69","ND","ND","ND","ND"],
    [13153,"12/27/2015 16:00","31,4","2,36","ND","ND","ND","ND"],
    [13154,"12/27/2015 17:00","26,9","1,7","ND","ND","ND","ND"],
    [13155,"12/27/2015 18:00","39,1","1,47","ND","ND","ND","ND"],
    [13156,"12/27/2015 19:00","30,2","1,39","ND","ND","ND","ND"],
    [13157,"12/27/2015 20:00","38,7","1,68","ND","ND","ND","ND"],
    [13158,"12/27/2015 21:00","44,8","1,68","ND","ND","ND","ND"],
    [13159,"12/27/2015 22:00","35,6","1,89","ND","ND","ND","ND"],
    [13160,"12/27/2015 23:00","71,2","3,25","ND","ND","ND","ND"],
    [13161,"12/28/2015 00:00","69,8","2,8","ND","ND","ND","ND"],
    [13162,"12/28/2015 01:00","52,1","3,41","ND","ND","ND","ND"],
    [13163,"12/28/2015 02:00","52,3","2,44","ND","ND","ND","ND"],
    [13164,"12/28/2015 03:00","45,8","2,07","ND","ND","ND","ND"],
    [13165,"12/28/2015 04:00","43,6","1,89","ND","ND","ND","ND"],
    [13166,"12/28/2015 05:00","41,7","1,89","ND","ND","ND","ND"],
    [13167,"12/28/2015 06:00","47,7","2,1","ND","ND","ND","ND"],
    [13168,"12/28/2015 07:00","61,2","2,44","ND","ND","ND","ND"],
    [13169,"12/28/2015 08:00","76,2","4,24","ND","ND","ND","ND"],
    [13170,"12/28/2015 09:00","66,7","10,14","ND","ND","ND","ND"],
    [13171,"12/28/2015 10:00","51","14,1","ND","ND","ND","ND"],
    [13172,"12/28/2015 11:00","50,5","ND","ND","ND","ND","ND"],
    [13173,"12/28/2015 12:00","35,5","8,38","ND","ND","ND","ND"],
    [13174,"12/28/2015 13:00","44,5","8,1","ND","ND","ND","ND"],
    [13175,"12/28/2015 14:00","57,5","7,76","ND","ND","ND","ND"],
    [13176,"12/28/2015 15:00","56,7","7,23","ND","ND","ND","ND"],
    [13177,"12/28/2015 16:00","57,7","6,29","ND","ND","ND","ND"],
    [13178,"12/28/2015 17:00","77,2","5,21","ND","ND","ND","ND"],
    [13179,"12/28/2015 18:00","41,3","1,99","ND","ND","ND","ND"],
    [13180,"12/28/2015 19:00","34,9","1,76","ND","ND","ND","ND"],
    [13181,"12/28/2015 20:00","29,9","1,68","ND","ND","ND","ND"],
    [13182,"12/28/2015 21:00","22,2","1,41","ND","ND","ND","ND"],
    [13183,"12/28/2015 22:00","27,3","1,68","ND","ND","ND","ND"],
    [13184,"12/28/2015 23:00","87,5","2,96","ND","ND","ND","ND"],
    [13185,"12/29/2015 00:00","49,7","2,59","ND","ND","ND","ND"],
    [13186,"12/29/2015 01:00","59,3","3,22","ND","ND","ND","ND"],
    [13187,"12/29/2015 02:00","44,3","2,17","ND","ND","ND","ND"],
    [13188,"12/29/2015 03:00","33","1,55","ND","ND","ND","ND"],
    [13189,"12/29/2015 04:00","54,6","1,57","ND","ND","ND","ND"],
    [13190,"12/29/2015 05:00","32,1","1,57","ND","ND","ND","ND"],
    [13191,"12/29/2015 06:00","38,4","1,89","ND","ND","ND","ND"],
    [13192,"12/29/2015 07:00","58,3","2,17","ND","ND","ND","ND"],
    [13193,"12/29/2015 08:00","91,5","4,01","ND","ND","ND","ND"],
    [13194,"12/29/2015 09:00","97,2","11,97","ND","ND","ND","ND"],
    [13195,"12/29/2015 10:00","61,8","17,9","ND","ND","ND","ND"],
    [13196,"12/29/2015 11:00","49,2","10,72","ND","ND","ND","ND"],
    [13197,"12/29/2015 12:00","53,2","8,52","ND","ND","ND","ND"],
    [13198,"12/29/2015 13:00","54,9","8,59","ND","ND","ND","ND"],
    [13199,"12/29/2015 14:00","57,8","7,1","ND","ND","ND","ND"],
    [13200,"12/29/2015 15:00","66,5","4,4","ND","ND","ND","ND"],
    [13201,"12/29/2015 16:00","31,3","1,76","ND","ND","ND","ND"],
    [13202,"12/29/2015 17:00","31,7","1,57","ND","ND","ND","ND"],
    [13203,"12/29/2015 18:00","35,6","1,57","ND","ND","ND","ND"],
    [13204,"12/29/2015 19:00","23,9","1,15","ND","ND","ND","ND"],
    [13205,"12/29/2015 20:00","23,6","1,28","ND","ND","ND","ND"],
    [13206,"12/29/2015 21:00","25,6","1,81","ND","ND","ND","ND"],
    [13207,"12/29/2015 22:00","95,4","3,17","ND","ND","ND","ND"],
    [13208,"12/29/2015 23:00","57","2,96","ND","ND","ND","ND"],
    [13209,"12/30/2015 00:00","51,1","2,54","ND","ND","ND","ND"],
    [13210,"12/30/2015 01:00","46,3","2,02","ND","ND","ND","ND"],
    [13211,"12/30/2015 02:00","33,9","1,73","ND","ND","ND","ND"],
    [13212,"12/30/2015 03:00","24,7","1,49","ND","ND","ND","ND"],
    [13213,"12/30/2015 04:00","25,8","1,31","ND","ND","ND","ND"],
    [13214,"12/30/2015 05:00","37,1","1,65","ND","ND","ND","ND"],
    [13215,"12/30/2015 06:00","44","1,62","ND","ND","ND","ND"],
    [13216,"12/30/2015 07:00","55","1,99","ND","ND","ND","ND"],
    [13217,"12/30/2015 08:00","69,1","5,11","ND","ND","ND","ND"],
    [13218,"12/30/2015 09:00","63,8","12,97","ND","ND","ND","ND"],
    [13219,"12/30/2015 10:00","58,7","11,74","ND","ND","ND","ND"],
    [13220,"12/30/2015 11:00","46,2","10,93","ND","ND","ND","ND"],
    [13221,"12/30/2015 12:00","53,7","8,57","ND","ND","ND","ND"],
    [13222,"12/30/2015 13:00","67,7","8,04","ND","ND","ND","ND"],
    [13223,"12/30/2015 14:00","48,5","9,3","ND","ND","ND","ND"],
    [13224,"12/30/2015 15:00","34,1","4,48","ND","ND","ND","ND"],
    [13225,"12/30/2015 16:00","33,4","3,12","ND","ND","ND","ND"],
    [13226,"12/30/2015 17:00","35,8","2,33","ND","ND","ND","ND"],
    [13227,"12/30/2015 18:00","33","1,55","ND","ND","ND","ND"],
    [13228,"12/30/2015 19:00","26,6","1,44","ND","ND","ND","ND"],
    [13229,"12/30/2015 20:00","34","1,78","ND","ND","ND","ND"],
    [13230,"12/30/2015 21:00","33,4","2,12","ND","ND","ND","ND"],
    [13231,"12/30/2015 22:00","66,5","2,86","ND","ND","ND","ND"],
    [13232,"12/30/2015 23:00","55","3,51","ND","ND","ND","ND"],
    [13233,"12/31/2015 00:00","60,6","5,32","ND","ND","ND","ND"],
    [13234,"12/31/2015 01:00","39,6","1,81","ND","ND","ND","ND"],
    [13235,"12/31/2015 02:00","33,8","1,6","ND","ND","ND","ND"],
    [13236,"12/31/2015 03:00","28,9","1,49","ND","ND","ND","ND"],
    [13237,"12/31/2015 04:00","35,1","1,76","ND","ND","ND","ND"],
    [13238,"12/31/2015 05:00","31","1,55","ND","ND","ND","ND"],
    [13239,"12/31/2015 06:00","40,6","1,41","ND","ND","ND","ND"],
    [13240,"12/31/2015 07:00","56,1","1,97","ND","ND","ND","ND"],
    [13241,"12/31/2015 08:00","69,9","3,43","ND","ND","ND","ND"],
    [13242,"12/31/2015 09:00","52,6","7,86","ND","ND","ND","ND"],
    [13243,"12/31/2015 10:00","52,6","13,49","ND","ND","ND","ND"],
    [13244,"12/31/2015 11:00","53,5","13,68","ND","ND","ND","ND"],
    [13245,"12/31/2015 12:00","55,8","11,08","ND","ND","ND","ND"],
    [13246,"12/31/2015 13:00","47,6","8,15","ND","ND","ND","ND"],
    [13247,"12/31/2015 14:00","46,9","6,37","ND","ND","ND","ND"],
    [13248,"12/31/2015 15:00","29,5","2,75","ND","ND","ND","ND"],
    [13249,"12/31/2015 16:00","31,7","1,94","ND","ND","ND","ND"],
    [13250,"12/31/2015 17:00","26,4","1,57","ND","ND","ND","ND"],
    [13251,"12/31/2015 18:00","28,4","1,28","ND","ND","ND","ND"],
    [13252,"12/31/2015 19:00","20,8","1,28","ND","ND","ND","ND"],
    [13253,"12/31/2015 20:00","12,1","1,28","ND","ND","ND","ND"],
    [13254,"12/31/2015 21:00","15,1","1,39","ND","ND","ND","ND"],
    [13255,"12/31/2015 22:00","31,1","1,68","ND","ND","ND","ND"],
    [13256,"12/31/2015 23:00","60,6","2,49","ND","ND","ND","ND"],
    [13257,"42370","42,9","2,15","ND","ND","ND","ND"],
    [13258,"42370,04167","77,9","6,76","ND","ND","ND","ND"],
    [13259,"42370,08333","103","7,15","ND","ND","ND","ND"],
    [13260,"42370,125","75,4","4,77","ND","ND","ND","ND"],
    [13261,"42370,16667","52,4","3,72","ND","ND","ND","ND"],
    [13262,"42370,20833","46,9","2,75","ND","ND","ND","ND"],
    [13263,"42370,25","41,3","2,49","ND","ND","ND","ND"],
    [13264,"42370,29167","43,2","2,25","ND","ND","ND","ND"],
    [13265,"42370,33333","40,9","3,28","ND","ND","ND","ND"],
    [13266,"42370,375","37,7","10,06","ND","ND","ND","ND"],
    [13267,"42370,41667","30,7","12,47","ND","ND","ND","ND"],
    [13268,"42370,45833","25","11,08","ND","ND","ND","ND"],
    [13269,"42370,5","28,5","8,7","ND","ND","ND","ND"],
    [13270,"42370,54167","33,6","7,68","ND","ND","ND","ND"],
    [13271,"42370,58333","30,6","7,47","ND","ND","ND","ND"],
    [13272,"42370,625","17,4","2,52","ND","ND","ND","ND"],
    [13273,"42370,66667","27,9","1,57","ND","ND","ND","ND"],
    [13274,"42370,70833","19,5","1,21","ND","ND","ND","ND"],
    [13275,"42370,75","25","1,23","ND","ND","ND","ND"],
    [13276,"42370,79167","24,7","1,18","ND","ND","ND","ND"],
    [13277,"42370,83333","25,5","1,28","ND","ND","ND","ND"],
    [13278,"42370,875","12,9","1,23","ND","ND","ND","ND"],
    [13279,"42370,91667","26","1,49","ND","ND","ND","ND"],
    [13280,"42370,95833","40,9","2,02","ND","ND","ND","ND"],
    [13281,"42401","48,5","2,15","ND","ND","ND","ND"],
    [13282,"42401,04167","38,3","2,88","ND","ND","ND","ND"],
    [13283,"42401,08333","31,1","2,96","ND","ND","ND","ND"],
    [13284,"42401,125","32,2","3,62","ND","ND","ND","ND"],
    [13285,"42401,16667","22,6","5,55","ND","ND","ND","ND"],
    [13286,"42401,20833","28","4,06","ND","ND","ND","ND"],
    [13287,"42401,25","41,4","3,46","ND","ND","ND","ND"],
    [13288,"42401,29167","32,8","1,89","ND","ND","ND","ND"],
    [13289,"42401,33333","28,7","1,73","ND","ND","ND","ND"],
    [13290,"42401,375","28,3","2,2","ND","ND","ND","ND"],
    [13291,"42401,41667","43,4","3,46","ND","ND","ND","ND"],
    [13292,"42401,45833","28,2","3,17","ND","ND","ND","ND"],
    [13293,"42401,5","19,7","4,06","ND","ND","ND","ND"],
    [13294,"42401,54167","24,7","3,9","ND","ND","ND","ND"],
    [13295,"42401,58333","31,8","3,43","ND","ND","ND","ND"],
    [13296,"42401,625","21,6","2,44","ND","ND","ND","ND"],
    [13297,"42401,66667","16,1","1,68","ND","ND","ND","ND"],
    [13298,"42401,70833","10","1,26","ND","ND","ND","ND"],
    [13299,"42401,75","17,8","1,18","ND","ND","ND","ND"],
    [13300,"42401,79167","17","1,26","ND","ND","ND","ND"],
    [13301,"42401,83333","13,9","1,28","ND","ND","ND","ND"],
    [13302,"42401,875","46,7","1,73","ND","ND","ND","ND"],
    [13303,"42401,91667","23,6","1,83","ND","ND","ND","ND"],
    [13304,"42401,95833","31,1","1,73","ND","ND","ND","ND"],
    [13305,"42430","28,6","1,39","ND","ND","ND","ND"],
    [13306,"42430,04167","35,1","1,78","ND","ND","ND","ND"],
    [13307,"42430,08333","18,8","1,44","ND","ND","ND","ND"],
    [13308,"42430,125","20,5","1,62","ND","ND","ND","ND"],
    [13309,"42430,16667","15,4","2,23","ND","ND","ND","ND"],
    [13310,"42430,20833","22,4","2,17","ND","ND","ND","ND"],
    [13311,"42430,25","24","2,07","ND","ND","ND","ND"],
    [13312,"42430,29167","24","2,17","ND","ND","ND","ND"],
    [13313,"42430,33333","38,7","4,48","ND","ND","ND","ND"],
    [13314,"42430,375","41,8","30,68","ND","ND","ND","ND"],
    [13315,"42430,41667","40,6","31,05","ND","ND","ND","ND"],
    [13316,"42430,45833","34,2","14,33","ND","ND","ND","ND"],
    [13317,"42430,5","22,5","4,4","ND","ND","ND","ND"],
    [13318,"42430,54167","28,7","4,3","ND","ND","ND","ND"],
    [13319,"42430,58333","29,1","4,8","ND","ND","ND","ND"],
    [13320,"42430,625","20,7","3,96","ND","ND","ND","ND"],
    [13321,"42430,66667","22,1","1,65","ND","ND","ND","ND"],
    [13322,"42430,70833","18,1","1,44","ND","ND","ND","ND"],
    [13323,"42430,75","16,4","1,31","ND","ND","ND","ND"],
    [13324,"42430,79167","8,6","1,26","ND","ND","ND","ND"],
    [13325,"42430,83333","18,9","1,34","ND","ND","ND","ND"],
    [13326,"42430,875","55,6","1,99","ND","ND","ND","ND"],
    [13327,"42430,91667","30,5","1,83","ND","ND","ND","ND"],
    [13328,"42430,95833","23,8","1,65","ND","ND","ND","ND"],
    [13329,"42461","28,6","2,17","ND","ND","ND","ND"],
    [13330,"42461,04167","18,1","1,39","ND","ND","ND","ND"],
    [13331,"42461,08333","30,2","2,04","ND","ND","ND","ND"],
    [13332,"42461,125","23,4","2,83","ND","ND","ND","ND"],
    [13333,"42461,16667","32","2,46","ND","ND","ND","ND"],
    [13334,"42461,20833","24,5","1,81","ND","ND","ND","ND"],
    [13335,"42461,25","20,4","1,83","ND","ND","ND","ND"],
    [13336,"42461,29167","26,3","2,31","ND","ND","ND","ND"],
    [13337,"42461,33333","23,5","2,59","ND","ND","ND","ND"],
    [13338,"42461,375","29,3","2,78","ND","ND","ND","ND"],
    [13339,"42461,41667","57,9","4,3","ND","ND","ND","ND"],
    [13340,"42461,45833","57,9","4,53","ND","ND","ND","ND"],
    [13341,"42461,5","51,6","5,48","ND","ND","ND","ND"],
    [13342,"42461,54167","34,9","7,39","ND","ND","ND","ND"],
    [13343,"42461,58333","18,8","17,5","ND","ND","ND","ND"],
    [13344,"42461,625","ND","2,57","ND","ND","ND","ND"],
    [13345,"42461,66667","6,4","1,94","ND","ND","ND","ND"],
    [13346,"42461,70833","14,1","2,49","ND","ND","ND","ND"],
    [13347,"42461,75","28,6","2,17","ND","ND","ND","ND"],
    [13348,"42461,79167","51","2,25","ND","ND","ND","ND"],
    [13349,"42461,83333","42,8","2,91","ND","ND","ND","ND"],
    [13350,"42461,875","33,6","3,2","ND","ND","ND","ND"],
    [13351,"42461,91667","43,2","3,22","ND","ND","ND","ND"],
    [13352,"42461,95833","33,9","2,2","ND","ND","ND","ND"],
    [13353,"42491","54,2","2,7","ND","ND","ND","ND"],
    [13354,"42491,04167","18,7","1,91","ND","ND","ND","ND"],
    [13355,"42491,08333","28,4","1,76","ND","ND","ND","ND"],
    [13356,"42491,125","26,5","1,78","ND","ND","ND","ND"],
    [13357,"42491,16667","21,5","1,7","ND","ND","ND","ND"],
    [13358,"42491,20833","25,3","1,83","ND","ND","ND","ND"],
    [13359,"42491,25","32","1,68","ND","ND","ND","ND"],
    [13360,"42491,29167","43,9","2,38","ND","ND","ND","ND"],
    [13361,"42491,33333","43,9","3,62","ND","ND","ND","ND"],
    [13362,"42491,375","63,7","9,3","ND","ND","ND","ND"],
    [13363,"42491,41667","48,3","10,48","ND","ND","ND","ND"],
    [13364,"42491,45833","42,5","8,12","ND","ND","ND","ND"],
    [13365,"42491,5","45,8","5,74","ND","ND","ND","ND"],
    [13366,"42491,54167","40,6","5,79","ND","ND","ND","ND"],
    [13367,"42491,58333","40,7","6,55","ND","ND","ND","ND"],
    [13368,"42491,625","39,8","9,17","ND","ND","ND","ND"],
    [13369,"42491,66667","15,2","2,15","ND","ND","ND","ND"],
    [13370,"42491,70833","18,7","1,31","ND","ND","ND","ND"],
    [13371,"42491,75","22,8","1,31","ND","ND","ND","ND"],
    [13372,"42491,79167","19,6","1,47","ND","ND","ND","ND"],
    [13373,"42491,83333","19,3","1,34","ND","ND","ND","ND"],
    [13374,"42491,875","24,2","1,89","ND","ND","ND","ND"],
    [13375,"42491,91667","51,8","2,15","ND","ND","ND","ND"],
    [13376,"42491,95833","48,2","3,28","ND","ND","ND","ND"],
    [13377,"42522","35,6","2,33","ND","ND","ND","ND"],
    [13378,"42522,04167","40,7","2,49","ND","ND","ND","ND"],
    [13379,"42522,08333","40,7","4,51","ND","ND","ND","ND"],
    [13380,"42522,125","28,4","5,66","ND","ND","ND","ND"],
    [13381,"42522,16667","33,1","3,48","ND","ND","ND","ND"],
    [13382,"42522,20833","33,1","3,17","ND","ND","ND","ND"],
    [13383,"42522,25","30,9","2,7","ND","ND","ND","ND"],
    [13384,"42522,29167","36,4","4,61","ND","ND","ND","ND"],
    [13385,"42522,33333","37,2","4,59","ND","ND","ND","ND"],
    [13386,"42522,375","30,8","4,22","ND","ND","ND","ND"],
    [13387,"42522,41667","23,5","4,24","ND","ND","ND","ND"],
    [13388,"42522,45833","28,4","6","ND","ND","ND","ND"],
    [13389,"42522,5","27,1","8,2","ND","ND","ND","ND"],
    [13390,"42522,54167","26,1","5,95","ND","ND","ND","ND"],
    [13391,"42522,58333","26,1","3,62","ND","ND","ND","ND"],
    [13392,"42522,625","9,2","1,91","ND","ND","ND","ND"],
    [13393,"42522,66667","32,2","9,01","ND","ND","ND","ND"],
    [13394,"42522,70833","6,3","2,86","ND","ND","ND","ND"],
    [13395,"42522,75","11","1,73","ND","ND","ND","ND"],
    [13396,"42522,79167","8,2","1,52","ND","ND","ND","ND"],
    [13397,"42522,83333","12,7","1,41","ND","ND","ND","ND"],
    [13398,"42522,875","37,3","2,04","ND","ND","ND","ND"],
    [13399,"42522,91667","32,7","1,86","ND","ND","ND","ND"],
    [13400,"42522,95833","32,7","2,75","ND","ND","ND","ND"],
    [13401,"42552","41,1","2,62","ND","ND","ND","ND"],
    [13402,"42552,04167","20","1,86","ND","ND","ND","ND"],
    [13403,"42552,08333","23,3","1,41","ND","ND","ND","ND"],
    [13404,"42552,125","22,9","1,76","ND","ND","ND","ND"],
    [13405,"42552,16667","23","1,86","ND","ND","ND","ND"],
    [13406,"42552,20833","14,5","1,99","ND","ND","ND","ND"],
    [13407,"42552,25","32,4","1,62","ND","ND","ND","ND"],
    [13408,"42552,29167","35,3","1,86","ND","ND","ND","ND"],
    [13409,"42552,33333","41,7","4,17","ND","ND","ND","ND"],
    [13410,"42552,375","42,6","20,99","ND","ND","ND","ND"],
    [13411,"42552,41667","32,3","ND","ND","ND","ND","ND"],
    [13412,"42552,45833","25,2","14,28","ND","ND","ND","ND"],
    [13413,"42552,5","30,8","12,97","ND","ND","ND","ND"],
    [13414,"42552,54167","24,7","8,8","ND","ND","ND","ND"],
    [13415,"42552,58333","32,4","6,94","ND","ND","ND","ND"],
    [13416,"42552,625","46","6,29","ND","ND","ND","ND"],
    [13417,"42552,66667","10","1,62","ND","ND","ND","ND"],
    [13418,"42552,70833","14,3","1,44","ND","ND","ND","ND"],
    [13419,"42552,75","14,2","1,52","ND","ND","ND","ND"],
    [13420,"42552,79167","11,3","1,36","ND","ND","ND","ND"],
    [13421,"42552,83333","14,3","1,34","ND","ND","ND","ND"],
    [13422,"42552,875","16,5","1,21","ND","ND","ND","ND"],
    [13423,"42552,91667","16,4","1,52","ND","ND","ND","ND"],
    [13424,"42552,95833","53,9","3,14","ND","ND","ND","ND"],
    [13425,"42583","40,1","2,2","ND","ND","ND","ND"],
    [13426,"42583,04167","22,8","1,76","ND","ND","ND","ND"],
    [13427,"42583,08333","20,6","1,55","ND","ND","ND","ND"],
    [13428,"42583,125","20,7","1,97","ND","ND","ND","ND"],
    [13429,"42583,16667","21,9","1,94","ND","ND","ND","ND"],
    [13430,"42583,20833","36,5","2,25","ND","ND","ND","ND"],
    [13431,"42583,25","47,8","2,54","ND","ND","ND","ND"],
    [13432,"42583,29167","51","2,91","ND","ND","ND","ND"],
    [13433,"42583,33333","51","2,88","ND","ND","ND","ND"],
    [13434,"42583,375","61,6","5,06","ND","ND","ND","ND"],
    [13435,"42583,41667","79,8","21,12","ND","ND","ND","ND"],
    [13436,"42583,45833","44,7","14,86","ND","ND","ND","ND"],
    [13437,"42583,5","35,5","8,8","ND","ND","ND","ND"],
    [13438,"42583,54167","46,6","8,49","ND","ND","ND","ND"],
    [13439,"42583,58333","63,2","12,87","ND","ND","ND","ND"],
    [13440,"42583,625","50,9","8,73","ND","ND","ND","ND"],
    [13441,"42583,66667","24,3","3,93","ND","ND","ND","ND"],
    [13442,"42583,70833","15,8","1,62","ND","ND","ND","ND"],
    [13443,"42583,75","10,3","1,41","ND","ND","ND","ND"],
    [13444,"42583,79167","10,2","1,55","ND","ND","ND","ND"],
    [13445,"42583,83333","24,8","1,52","ND","ND","ND","ND"],
    [13446,"42583,875","49,5","2,44","ND","ND","ND","ND"],
    [13447,"42583,91667","52,9","2,8","ND","ND","ND","ND"],
    [13448,"42583,95833","51,7","2,33","ND","ND","ND","ND"],
    [13449,"42614","47","3,46","ND","ND","ND","ND"],
    [13450,"42614,04167","33,3","1,78","ND","ND","ND","ND"],
    [13451,"42614,08333","24,3","1,55","ND","ND","ND","ND"],
    [13452,"42614,125","25,2","1,94","ND","ND","ND","ND"],
    [13453,"42614,16667","17,5","1,6","ND","ND","ND","ND"],
    [13454,"42614,20833","21","1,52","ND","ND","ND","ND"],
    [13455,"42614,25","24,1","1,7","ND","ND","ND","ND"],
    [13456,"42614,29167","38,1","2,28","ND","ND","ND","ND"],
    [13457,"42614,33333","50,9","2,83","ND","ND","ND","ND"],
    [13458,"42614,375","43,6","5,19","ND","ND","ND","ND"],
    [13459,"42614,41667","31,7","7,31","ND","ND","ND","ND"],
    [13460,"42614,45833","30,9","5,97","ND","ND","ND","ND"],
    [13461,"42614,5","31,2","6,84","ND","ND","ND","ND"],
    [13462,"42614,54167","38,8","8,46","ND","ND","ND","ND"],
    [13463,"42614,58333","40,6","5,29","ND","ND","ND","ND"],
    [13464,"42614,625","41,2","1,89","ND","ND","ND","ND"],
    [13465,"42614,66667","19,7","2,15","ND","ND","ND","ND"],
    [13466,"42614,70833","3,5","1,52","ND","ND","ND","ND"],
    [13467,"42614,75","7,3","1,26","ND","ND","ND","ND"],
    [13468,"42614,79167","4,2","1,07","ND","ND","ND","ND"],
    [13469,"42614,83333","14,5","1,26","ND","ND","ND","ND"],
    [13470,"42614,875","47,6","2,46","ND","ND","ND","ND"],
    [13471,"42614,91667","65,5","3,3","ND","ND","ND","ND"],
    [13472,"42614,95833","81,7","3,64","ND","ND","ND","ND"],
    [13473,"42644","23,5","1,89","ND","ND","ND","ND"],
    [13474,"42644,04167","40,7","3,12","ND","ND","ND","ND"],
    [13475,"42644,08333","28","3,67","ND","ND","ND","ND"],
    [13476,"42644,125","29,9","2,23","ND","ND","ND","ND"],
    [13477,"42644,16667","47,8","2,91","ND","ND","ND","ND"],
    [13478,"42644,20833","44,6","3,28","ND","ND","ND","ND"],
    [13479,"42644,25","31,3","2,96","ND","ND","ND","ND"],
    [13480,"42644,29167","46,8","3,41","ND","ND","ND","ND"],
    [13481,"42644,33333","34,9","10,8","ND","ND","ND","ND"],
    [13482,"42644,375","19,4","8,73","ND","ND","ND","ND"],
    [13483,"42644,41667","19,4","3,54","ND","ND","ND","ND"],
    [13484,"42644,45833","6,6","3,2","ND","ND","ND","ND"],
    [13485,"42644,5","4,3","2,65","ND","ND","ND","ND"],
    [13486,"42644,54167","4,3","4,19","ND","ND","ND","ND"],
    [13487,"42644,58333","10,5","4,06","ND","ND","ND","ND"],
    [13488,"42644,625","19,9","3,01","ND","ND","ND","ND"],
    [13489,"42644,66667","39,6","2,2","ND","ND","ND","ND"],
    [13490,"42644,70833","15,2","2,52","ND","ND","ND","ND"],
    [13491,"42644,75","ND","1,57","ND","ND","ND","ND"],
    [13492,"42644,79167","22,8","1,78","ND","ND","ND","ND"],
    [13493,"42644,83333","35,2","1,55","ND","ND","ND","ND"],
    [13494,"42644,875","22,6","1,68","ND","ND","ND","ND"],
    [13495,"42644,91667","26,4","2,04","ND","ND","ND","ND"],
    [13496,"42644,95833","14,6","2,12","ND","ND","ND","ND"],
    [13497,"42675","24,2","6,6","ND","ND","ND","ND"],
    [13498,"42675,04167","3,3","1,41","ND","ND","ND","ND"],
    [13499,"42675,08333","6,3","1,1","ND","ND","ND","ND"],
    [13500,"42675,125","10,6","1,15","ND","ND","ND","ND"],
    [13501,"42675,16667","13","1","ND","ND","ND","ND"],
    [13502,"42675,20833","11,7","1,21","ND","ND","ND","ND"],
    [13503,"42675,25","27,9","2,93","ND","ND","ND","ND"],
    [13504,"42675,29167","28,5","3,67","ND","ND","ND","ND"],
    [13505,"42675,33333","33,4","11,29","ND","ND","ND","ND"],
    [13506,"42675,375","37,5","12,97","ND","ND","ND","ND"],
    [13507,"42675,41667","22,1","9,72","ND","ND","ND","ND"],
    [13508,"42675,45833","21,7","7,7","ND","ND","ND","ND"],
    [13509,"42675,5","28,4","6,79","ND","ND","ND","ND"],
    [13510,"42675,54167","11,1","5,5","ND","ND","ND","ND"],
    [13511,"42675,58333","13,8","2,75","ND","ND","ND","ND"],
    [13512,"42675,625","9,8","1,76","ND","ND","ND","ND"],
    [13513,"42675,66667","12","1,44","ND","ND","ND","ND"],
    [13514,"42675,70833","8,8","1,36","ND","ND","ND","ND"],
    [13515,"42675,75","7,3","1,47","ND","ND","ND","ND"],
    [13516,"42675,79167","11,8","1,49","ND","ND","ND","ND"],
    [13517,"42675,83333","12,3","1,73","ND","ND","ND","ND"],
    [13518,"42675,875","30,1","2,07","ND","ND","ND","ND"],
    [13519,"42675,91667","53,7","2,96","ND","ND","ND","ND"],
    [13520,"42675,95833","31,5","4,64","ND","ND","ND","ND"],
    [13521,"42705","50,2","2,12","ND","ND","ND","ND"],
    [13522,"42705,04167","24,7","4,48","ND","ND","ND","ND"],
    [13523,"42705,08333","17,7","2,75","ND","ND","ND","ND"],
    [13524,"42705,125","10,5","1,91","ND","ND","ND","ND"],
    [13525,"42705,16667","15,5","1,7","ND","ND","ND","ND"],
    [13526,"42705,20833","19,5","1,6","ND","ND","ND","ND"],
    [13527,"42705,25","34,4","1,91","ND","ND","ND","ND"],
    [13528,"42705,29167","36,7","2,23","ND","ND","ND","ND"],
    [13529,"42705,33333","52","4,11","ND","ND","ND","ND"],
    [13530,"42705,375","20,2","5,76","ND","ND","ND","ND"],
    [13531,"42705,41667","35,5","10,19","ND","ND","ND","ND"],
    [13532,"42705,45833","30","9,51","ND","ND","ND","ND"],
    [13533,"42705,5","29,3","7,15","ND","ND","ND","ND"],
    [13534,"42705,54167","29","5,29","ND","ND","ND","ND"],
    [13535,"42705,58333","31,3","4,77","ND","ND","ND","ND"],
    [13536,"42705,625","34,3","3,93","ND","ND","ND","ND"],
    [13537,"42705,66667","13","1,44","ND","ND","ND","ND"],
    [13538,"42705,70833","10,3","1,39","ND","ND","ND","ND"],
    [13539,"42705,75","12,3","1,28","ND","ND","ND","ND"],
    [13540,"42705,79167","10,7","1,7","ND","ND","ND","ND"],
    [13541,"42705,83333","12,5","1,78","ND","ND","ND","ND"],
    [13542,"42705,875","18,7","2,04","ND","ND","ND","ND"],
    [13543,"42705,91667","35,6","2,1","ND","ND","ND","ND"],
    [13544,"42705,95833","48,6","2,46","ND","ND","ND","ND"],
    [13545,"01/13/2016 00:00","52,9","4,43","ND","ND","ND","ND"],
    [13546,"01/13/2016 01:00","24,4","1,49","ND","ND","ND","ND"],
    [13547,"01/13/2016 02:00","26,4","1,47","ND","ND","ND","ND"],
    [13548,"01/13/2016 03:00","24,7","1,44","ND","ND","ND","ND"],
    [13549,"01/13/2016 04:00","27,3","1,36","ND","ND","ND","ND"],
    [13550,"01/13/2016 05:00","23,1","1,28","ND","ND","ND","ND"],
    [13551,"01/13/2016 06:00","42,4","1,62","ND","ND","ND","ND"],
    [13552,"01/13/2016 07:00","42,4","3,04","ND","ND","ND","ND"],
    [13553,"01/13/2016 08:00","64,6","4,72","ND","ND","ND","ND"],
    [13554,"01/13/2016 09:00","50","7,02","ND","ND","ND","ND"],
    [13555,"01/13/2016 10:00","46,8","6,71","ND","ND","ND","ND"],
    [13556,"01/13/2016 11:00","36","9,2","ND","ND","ND","ND"],
    [13557,"01/13/2016 12:00","32,3","8,12","ND","ND","ND","ND"],
    [13558,"01/13/2016 13:00","46,8","6,37","ND","ND","ND","ND"],
    [13559,"01/13/2016 14:00","53,2","6,26","ND","ND","ND","ND"],
    [13560,"01/13/2016 15:00","14,3","2,25","ND","ND","ND","ND"],
    [13561,"01/13/2016 16:00","14","1,47","ND","ND","ND","ND"],
    [13562,"01/13/2016 17:00","17,9","1,55","ND","ND","ND","ND"],
    [13563,"01/13/2016 18:00","16,7","1,44","ND","ND","ND","ND"],
    [13564,"01/13/2016 19:00","14,7","1,41","ND","ND","ND","ND"],
    [13565,"01/13/2016 20:00","13,5","1,34","ND","ND","ND","ND"],
    [13566,"01/13/2016 21:00","11,8","1,34","ND","ND","ND","ND"],
    [13567,"01/13/2016 22:00","35,9","2,04","ND","ND","ND","ND"],
    [13568,"01/13/2016 23:00","52,9","4,85","ND","ND","ND","ND"],
    [13569,"01/14/2016 00:00","37,4","2,46","ND","ND","ND","ND"],
    [13570,"01/14/2016 01:00","36","2,65","ND","ND","ND","ND"],
    [13571,"01/14/2016 02:00","34,5","8,15","ND","ND","ND","ND"],
    [13572,"01/14/2016 03:00","44,5","9,59","ND","ND","ND","ND"],
    [13573,"01/14/2016 04:00","51,8","12,58","ND","ND","ND","ND"],
    [13574,"01/14/2016 05:00","51,4","10,17","ND","ND","ND","ND"],
    [13575,"01/14/2016 06:00","49","6,24","ND","ND","ND","ND"],
    [13576,"01/14/2016 07:00","66,5","6,79","ND","ND","ND","ND"],
    [13577,"01/14/2016 08:00","72,8","14,39","ND","ND","ND","ND"],
    [13578,"01/14/2016 09:00","73","15,43","ND","ND","ND","ND"],
    [13579,"01/14/2016 10:00","43,7","13,36","ND","ND","ND","ND"],
    [13580,"01/14/2016 11:00","36,6","11,92","ND","ND","ND","ND"],
    [13581,"01/14/2016 12:00","51,1","18,26","ND","ND","ND","ND"],
    [13582,"01/14/2016 13:00","62","16,56","ND","ND","ND","ND"],
    [13583,"01/14/2016 14:00","65,3","12,68","ND","ND","ND","ND"],
    [13584,"01/14/2016 15:00","45,3","6,58","ND","ND","ND","ND"],
    [13585,"01/14/2016 16:00","23,5","2,07","ND","ND","ND","ND"],
    [13586,"01/14/2016 17:00","18,4","1,73","ND","ND","ND","ND"],
    [13587,"01/14/2016 18:00","28,2","1,73","ND","ND","ND","ND"],
    [13588,"01/14/2016 19:00","24,4","1,76","ND","ND","ND","ND"],
    [13589,"01/14/2016 20:00","15,8","1,73","ND","ND","ND","ND"],
    [13590,"01/14/2016 21:00","12,5","1,91","ND","ND","ND","ND"],
    [13591,"01/14/2016 22:00","48,4","3,3","ND","ND","ND","ND"],
    [13592,"01/14/2016 23:00","62,4","4,48","ND","ND","ND","ND"],
    [13593,"01/15/2016 00:00","75,2","2,67","ND","ND","ND","ND"],
    [13594,"01/15/2016 01:00","33,1","1,89","ND","ND","ND","ND"],
    [13595,"01/15/2016 02:00","28,8","1,83","ND","ND","ND","ND"],
    [13596,"01/15/2016 03:00","30,3","1,76","ND","ND","ND","ND"],
    [13597,"01/15/2016 04:00","34,4","1,91","ND","ND","ND","ND"],
    [13598,"01/15/2016 05:00","42,4","1,94","ND","ND","ND","ND"],
    [13599,"01/15/2016 06:00","45,5","2,23","ND","ND","ND","ND"],
    [13600,"01/15/2016 07:00","59,9","2,91","ND","ND","ND","ND"],
    [13601,"01/15/2016 08:00","84,5","4,38","ND","ND","ND","ND"],
    [13602,"01/15/2016 09:00","64,6","8,62","ND","ND","ND","ND"],
    [13603,"01/15/2016 10:00","43,2","14,86","ND","ND","ND","ND"],
    [13604,"01/15/2016 11:00","39,5","12,24","ND","ND","ND","ND"],
    [13605,"01/15/2016 12:00","45,9","9,46","ND","ND","ND","ND"],
    [13606,"01/15/2016 13:00","57,3","8,86","ND","ND","ND","ND"],
    [13607,"01/15/2016 14:00","57,2","7,76","ND","ND","ND","ND"],
    [13608,"01/15/2016 15:00","62,2","6,31","ND","ND","ND","ND"],
    [13609,"01/15/2016 16:00","72,7","5,58","ND","ND","ND","ND"],
    [13610,"01/15/2016 17:00","39,6","2,67","ND","ND","ND","ND"],
    [13611,"01/15/2016 18:00","23,3","1,91","ND","ND","ND","ND"],
    [13612,"01/15/2016 19:00","27,8","1,76","ND","ND","ND","ND"],
    [13613,"01/15/2016 20:00","29,4","1,97","ND","ND","ND","ND"],
    [13614,"01/15/2016 21:00","40,6","2,25","ND","ND","ND","ND"],
    [13615,"01/15/2016 22:00","47,1","2,44","ND","ND","ND","ND"],
    [13616,"01/15/2016 23:00","79,3","2,67","ND","ND","ND","ND"],
    [13617,"01/16/2016 00:00","46,4","2,23","ND","ND","ND","ND"],
    [13618,"01/16/2016 01:00","49,8","2,65","ND","ND","ND","ND"],
    [13619,"01/16/2016 02:00","44,9","2,1","ND","ND","ND","ND"],
    [13620,"01/16/2016 03:00","42,2","2,23","ND","ND","ND","ND"],
    [13621,"01/16/2016 04:00","37,3","2,73","ND","ND","ND","ND"],
    [13622,"01/16/2016 05:00","41,6","3,17","ND","ND","ND","ND"],
    [13623,"01/16/2016 06:00","54,1","3,62","ND","ND","ND","ND"],
    [13624,"01/16/2016 07:00","73,7","4,82","ND","ND","ND","ND"],
    [13625,"01/16/2016 08:00","83,2","5,53","ND","ND","ND","ND"],
    [13626,"01/16/2016 09:00","67,7","11,92","ND","ND","ND","ND"],
    [13627,"01/16/2016 10:00","60,9","19,7","ND","ND","ND","ND"],
    [13628,"01/16/2016 11:00","55,7","13","ND","ND","ND","ND"],
    [13629,"01/16/2016 12:00","60","8,78","ND","ND","ND","ND"],
    [13630,"01/16/2016 13:00","67,9","7,26","ND","ND","ND","ND"],
    [13631,"01/16/2016 14:00","74,2","14,15","ND","ND","ND","ND"],
    [13632,"01/16/2016 15:00","19,9","3,51","ND","ND","ND","ND"],
    [13633,"01/16/2016 16:00","22,5","1,47","ND","ND","ND","ND"],
    [13634,"01/16/2016 17:00","26,4","1,76","ND","ND","ND","ND"],
    [13635,"01/16/2016 18:00","32,2","2,12","ND","ND","ND","ND"],
    [13636,"01/16/2016 19:00","17,2","1,55","ND","ND","ND","ND"],
    [13637,"01/16/2016 20:00","25,8","1,81","ND","ND","ND","ND"],
    [13638,"01/16/2016 21:00","29,5","1,99","ND","ND","ND","ND"],
    [13639,"01/16/2016 22:00","41,6","2,31","ND","ND","ND","ND"],
    [13640,"01/16/2016 23:00","56,9","3,54","ND","ND","ND","ND"],
    [13641,"01/17/2016 00:00","57,3","3,83","ND","ND","ND","ND"],
    [13642,"01/17/2016 01:00","54","2,28","ND","ND","ND","ND"],
    [13643,"01/17/2016 02:00","43,6","2,59","ND","ND","ND","ND"],
    [13644,"01/17/2016 03:00","41,8","2,54","ND","ND","ND","ND"],
    [13645,"01/17/2016 04:00","36,3","2,33","ND","ND","ND","ND"],
    [13646,"01/17/2016 05:00","40,8","2,12","ND","ND","ND","ND"],
    [13647,"01/17/2016 06:00","34,1","2,07","ND","ND","ND","ND"],
    [13648,"01/17/2016 07:00","41,6","2,33","ND","ND","ND","ND"],
    [13649,"01/17/2016 08:00","41,6","3,2","ND","ND","ND","ND"],
    [13650,"01/17/2016 09:00","49,3","7,62","ND","ND","ND","ND"],
    [13651,"01/17/2016 10:00","46,2","18,39","ND","ND","ND","ND"],
    [13652,"01/17/2016 11:00","41,1","15,43","ND","ND","ND","ND"],
    [13653,"01/17/2016 12:00","36,4","12,6","ND","ND","ND","ND"],
    [13654,"01/17/2016 13:00","46,4","9,83","ND","ND","ND","ND"],
    [13655,"01/17/2016 14:00","51","7,68","ND","ND","ND","ND"],
    [13656,"01/17/2016 15:00","30,7","3,51","ND","ND","ND","ND"],
    [13657,"01/17/2016 16:00","23,5","1,47","ND","ND","ND","ND"],
    [13658,"01/17/2016 17:00","17,9","1,78","ND","ND","ND","ND"],
    [13659,"01/17/2016 18:00","19,2","1,39","ND","ND","ND","ND"],
    [13660,"01/17/2016 19:00","13","1,18","ND","ND","ND","ND"],
    [13661,"01/17/2016 20:00","10,3","1,34","ND","ND","ND","ND"],
    [13662,"01/17/2016 21:00","20,8","1,39","ND","ND","ND","ND"],
    [13663,"01/17/2016 22:00","22","1,62","ND","ND","ND","ND"],
    [13664,"01/17/2016 23:00","39,6","2,54","ND","ND","ND","ND"],
    [13665,"01/18/2016 00:00","43,5","2,15","ND","ND","ND","ND"],
    [13666,"01/18/2016 01:00","40","4,85","ND","ND","ND","ND"],
    [13667,"01/18/2016 02:00","30,7","3,04","ND","ND","ND","ND"],
    [13668,"01/18/2016 03:00","24,7","2,57","ND","ND","ND","ND"],
    [13669,"01/18/2016 04:00","22","2,46","ND","ND","ND","ND"],
    [13670,"01/18/2016 05:00","38","8,07","ND","ND","ND","ND"],
    [13671,"01/18/2016 06:00","45,6","8,7","ND","ND","ND","ND"],
    [13672,"01/18/2016 07:00","70,8","5,11","ND","ND","ND","ND"],
    [13673,"01/18/2016 08:00","64,4","6,21","ND","ND","ND","ND"],
    [13674,"01/18/2016 09:00","51,4","ND","ND","ND","ND","ND"],
    [13675,"01/18/2016 10:00","65,2","30,97","ND","ND","ND","ND"],
    [13676,"01/18/2016 11:00","49,8","22,9","ND","ND","ND","ND"],
    [13677,"01/18/2016 12:00","45","13,47","ND","ND","ND","ND"],
    [13678,"01/18/2016 13:00","44,2","9,35","ND","ND","ND","ND"],
    [13679,"01/18/2016 14:00","37,5","5,82","ND","ND","ND","ND"],
    [13680,"01/18/2016 15:00","37,4","3,09","ND","ND","ND","ND"],
    [13681,"01/18/2016 16:00","30,1","2,28","ND","ND","ND","ND"],
    [13682,"01/18/2016 17:00","28,7","1,73","ND","ND","ND","ND"],
    [13683,"01/18/2016 18:00","30,2","1,6","ND","ND","ND","ND"],
    [13684,"01/18/2016 19:00","26,6","1,83","ND","ND","ND","ND"],
    [13685,"01/18/2016 20:00","22","1,68","ND","ND","ND","ND"],
    [13686,"01/18/2016 21:00","19,7","1,65","ND","ND","ND","ND"],
    [13687,"01/18/2016 22:00","29,3","1,89","ND","ND","ND","ND"],
    [13688,"01/18/2016 23:00","65,8","3,3","ND","ND","ND","ND"],
    [13689,"01/19/2016 00:00","63,6","3,75","ND","ND","ND","ND"],
    [13690,"01/19/2016 01:00","34,6","1,83","ND","ND","ND","ND"],
    [13691,"01/19/2016 02:00","33,5","1,99","ND","ND","ND","ND"],
    [13692,"01/19/2016 03:00","29,4","2,25","ND","ND","ND","ND"],
    [13693,"01/19/2016 04:00","27,9","2,28","ND","ND","ND","ND"],
    [13694,"01/19/2016 05:00","26,8","2,23","ND","ND","ND","ND"],
    [13695,"01/19/2016 06:00","40,6","2,59","ND","ND","ND","ND"],
    [13696,"01/19/2016 07:00","55,4","3,51","ND","ND","ND","ND"],
    [13697,"01/19/2016 08:00","72,4","5,71","ND","ND","ND","ND"],
    [13698,"01/19/2016 09:00","57,2","16,64","ND","ND","ND","ND"],
    [13699,"01/19/2016 10:00","70,4","26,23","ND","ND","ND","ND"],
    [13700,"01/19/2016 11:00","43,8","15,62","ND","ND","ND","ND"],
    [13701,"01/19/2016 12:00","41,5","8,31","ND","ND","ND","ND"],
    [13702,"01/19/2016 13:00","ND","6,05","ND","ND","ND","ND"],
    [13703,"01/19/2016 14:00","ND","5,55","ND","ND","ND","ND"],
    [13704,"01/19/2016 15:00","ND","3,51","ND","ND","ND","ND"],
    [13705,"01/19/2016 16:00","23,9","1,91","ND","ND","ND","ND"],
    [13706,"01/19/2016 17:00","28,3","1,62","ND","ND","ND","ND"],
    [13707,"01/19/2016 18:00","28,3","1,49","ND","ND","ND","ND"],
    [13708,"01/19/2016 19:00","21,9","1,39","ND","ND","ND","ND"],
    [13709,"01/19/2016 20:00","19,3","1,44","ND","ND","ND","ND"],
    [13710,"01/19/2016 21:00","34,3","1,97","ND","ND","ND","ND"],
    [13711,"01/19/2016 22:00","53,7","3,59","ND","ND","ND","ND"],
    [13712,"01/19/2016 23:00","68","4,19","ND","ND","ND","ND"],
    [13713,"01/20/2016 00:00","61","2,88","ND","ND","ND","ND"],
    [13714,"01/20/2016 01:00","44,8","2,49","ND","ND","ND","ND"],
    [13715,"01/20/2016 02:00","32,8","2,28","ND","ND","ND","ND"],
    [13716,"01/20/2016 03:00","38,7","2,04","ND","ND","ND","ND"],
    [13717,"01/20/2016 04:00","29,6","1,99","ND","ND","ND","ND"],
    [13718,"01/20/2016 05:00","32,2","2,04","ND","ND","ND","ND"],
    [13719,"01/20/2016 06:00","37,4","2,52","ND","ND","ND","ND"],
    [13720,"01/20/2016 07:00","66,3","3,2","ND","ND","ND","ND"],
    [13721,"01/20/2016 08:00","64,4","5,87","ND","ND","ND","ND"],
    [13722,"01/20/2016 09:00","58,9","9,51","ND","ND","ND","ND"],
    [13723,"01/20/2016 10:00","59","17,29","ND","ND","ND","ND"],
    [13724,"01/20/2016 11:00","47,9","15,15","ND","ND","ND","ND"],
    [13725,"01/20/2016 12:00","47,1","9,35","ND","ND","ND","ND"],
    [13726,"01/20/2016 13:00","51,9","7,23","ND","ND","ND","ND"],
    [13727,"01/20/2016 14:00","65,7","6,08","ND","ND","ND","ND"],
    [13728,"01/20/2016 15:00","55,6","4,72","ND","ND","ND","ND"],
    [13729,"01/20/2016 16:00","20,1","1,55","ND","ND","ND","ND"],
    [13730,"01/20/2016 17:00","21,8","1,52","ND","ND","ND","ND"],
    [13731,"01/20/2016 18:00","26","1,52","ND","ND","ND","ND"],
    [13732,"01/20/2016 19:00","23,7","1,62","ND","ND","ND","ND"],
    [13733,"01/20/2016 20:00","19,8","1,76","ND","ND","ND","ND"],
    [13734,"01/20/2016 21:00","19,7","1,47","ND","ND","ND","ND"],
    [13735,"01/20/2016 22:00","42,2","2,17","ND","ND","ND","ND"],
    [13736,"01/20/2016 23:00","75,3","3,83","ND","ND","ND","ND"],
    [13737,"01/21/2016 00:00","48,9","2,36","ND","ND","ND","ND"],
    [13738,"01/21/2016 01:00","50,4","2,23","ND","ND","ND","ND"],
    [13739,"01/21/2016 02:00","42,8","2,04","ND","ND","ND","ND"],
    [13740,"01/21/2016 03:00","46,3","2,07","ND","ND","ND","ND"],
    [13741,"01/21/2016 04:00","56,4","8,65","ND","ND","ND","ND"],
    [13742,"01/21/2016 05:00","43,9","6,84","ND","ND","ND","ND"],
    [13743,"01/21/2016 06:00","54,5","3,8","ND","ND","ND","ND"],
    [13744,"01/21/2016 07:00","71,3","3,75","ND","ND","ND","ND"],
    [13745,"01/21/2016 08:00","84,9","6,42","ND","ND","ND","ND"],
    [13746,"01/21/2016 09:00","60,7","19,39","ND","ND","ND","ND"],
    [13747,"01/21/2016 10:00","60,6","20,28","ND","ND","ND","ND"],
    [13748,"01/21/2016 11:00","46,5","15,8","ND","ND","ND","ND"],
    [13749,"01/21/2016 12:00","53,9","14,44","ND","ND","ND","ND"],
    [13750,"01/21/2016 13:00","53,5","9,51","ND","ND","ND","ND"],
    [13751,"01/21/2016 14:00","41,2","4,98","ND","ND","ND","ND"],
    [13752,"01/21/2016 15:00","24","1,76","ND","ND","ND","ND"],
    [13753,"01/21/2016 16:00","15,5","1,62","ND","ND","ND","ND"],
    [13754,"01/21/2016 17:00","15,5","1,57","ND","ND","ND","ND"],
    [13755,"01/21/2016 18:00","22,7","1,57","ND","ND","ND","ND"],
    [13756,"01/21/2016 19:00","17,7","1,44","ND","ND","ND","ND"],
    [13757,"01/21/2016 20:00","14,1","1,49","ND","ND","ND","ND"],
    [13758,"01/21/2016 21:00","22","1,83","ND","ND","ND","ND"],
    [13759,"01/21/2016 22:00","61,3","3,09","ND","ND","ND","ND"],
    [13760,"01/21/2016 23:00","72,9","3,17","ND","ND","ND","ND"],
    [13761,"01/22/2016 00:00","39,5","2,57","ND","ND","ND","ND"],
    [13762,"01/22/2016 01:00","66,9","2,54","ND","ND","ND","ND"],
    [13763,"01/22/2016 02:00","41,6","2,91","ND","ND","ND","ND"],
    [13764,"01/22/2016 03:00","27,7","2,1","ND","ND","ND","ND"],
    [13765,"01/22/2016 04:00","31,4","2,04","ND","ND","ND","ND"],
    [13766,"01/22/2016 05:00","48,7","3,75","ND","ND","ND","ND"],
    [13767,"01/22/2016 06:00","64,4","3,48","ND","ND","ND","ND"],
    [13768,"01/22/2016 07:00","85,3","4,82","ND","ND","ND","ND"],
    [13769,"01/22/2016 08:00","90,3","6,76","ND","ND","ND","ND"],
    [13770,"01/22/2016 09:00","92,9","8,04","ND","ND","ND","ND"],
    [13771,"01/22/2016 10:00","42,8","10,17","ND","ND","ND","ND"],
    [13772,"01/22/2016 11:00","41,2","8,78","ND","ND","ND","ND"],
    [13773,"01/22/2016 12:00","51,3","5,74","ND","ND","ND","ND"],
    [13774,"01/22/2016 13:00","50,8","5,66","ND","ND","ND","ND"],
    [13775,"01/22/2016 14:00","36,9","4,24","ND","ND","ND","ND"],
    [13776,"01/22/2016 15:00","58,8","10,14","ND","ND","ND","ND"],
    [13777,"01/22/2016 16:00","61","10,09","ND","ND","ND","ND"],
    [13778,"01/22/2016 17:00","49","5,97","ND","ND","ND","ND"],
    [13779,"01/22/2016 18:00","35,4","2,33","ND","ND","ND","ND"],
    [13780,"01/22/2016 19:00","31,1","2,2","ND","ND","ND","ND"],
    [13781,"01/22/2016 20:00","39,7","2,75","ND","ND","ND","ND"],
    [13782,"01/22/2016 21:00","97,5","3,62","ND","ND","ND","ND"],
    [13783,"01/22/2016 22:00","78,7","3,2","ND","ND","ND","ND"],
    [13784,"01/22/2016 23:00","74,5","3,51","ND","ND","ND","ND"],
    [13785,"01/23/2016 00:00","52,5","2,7","ND","ND","ND","ND"],
    [13786,"01/23/2016 01:00","61","2,96","ND","ND","ND","ND"],
    [13787,"01/23/2016 02:00","61","6,6","ND","ND","ND","ND"],
    [13788,"01/23/2016 03:00","47,6","4,9","ND","ND","ND","ND"],
    [13789,"01/23/2016 04:00","44","4,53","ND","ND","ND","ND"],
    [13790,"01/23/2016 05:00","48,7","4,17","ND","ND","ND","ND"],
    [13791,"01/23/2016 06:00","48,7","10,69","ND","ND","ND","ND"],
    [13792,"01/23/2016 07:00","64,3","7,73","ND","ND","ND","ND"],
    [13793,"01/23/2016 08:00","70,7","9,54","ND","ND","ND","ND"],
    [13794,"01/23/2016 09:00","51,6","6,13","ND","ND","ND","ND"],
    [13795,"01/23/2016 10:00","51,6","3,09","ND","ND","ND","ND"],
    [13796,"01/23/2016 11:00","26,5","3,25","ND","ND","ND","ND"],
    [13797,"01/23/2016 12:00","39,4","3,51","ND","ND","ND","ND"],
    [13798,"01/23/2016 13:00","18,7","2,07","ND","ND","ND","ND"],
    [13799,"01/23/2016 14:00","20","1,78","ND","ND","ND","ND"],
    [13800,"01/23/2016 15:00","13,3","1,65","ND","ND","ND","ND"],
    [13801,"01/23/2016 16:00","13,4","1,47","ND","ND","ND","ND"],
    [13802,"01/23/2016 17:00","16","1,68","ND","ND","ND","ND"],
    [13803,"01/23/2016 18:00","17,7","1,78","ND","ND","ND","ND"],
    [13804,"01/23/2016 19:00","41,4","1,99","ND","ND","ND","ND"],
    [13805,"01/23/2016 20:00","22,4","1,83","ND","ND","ND","ND"],
    [13806,"01/23/2016 21:00","14,6","1,55","ND","ND","ND","ND"],
    [13807,"01/23/2016 22:00","23,9","1,83","ND","ND","ND","ND"],
    [13808,"01/23/2016 23:00","31,8","2,17","ND","ND","ND","ND"],
    [13809,"01/24/2016 00:00","35,6","4,38","ND","ND","ND","ND"],
    [13810,"01/24/2016 01:00","59,6","4,06","ND","ND","ND","ND"],
    [13811,"01/24/2016 02:00","44,5","2,67","ND","ND","ND","ND"],
    [13812,"01/24/2016 03:00","36,5","2,52","ND","ND","ND","ND"],
    [13813,"01/24/2016 04:00","56,5","6,81","ND","ND","ND","ND"],
    [13814,"01/24/2016 05:00","54,6","7,65","ND","ND","ND","ND"],
    [13815,"01/24/2016 06:00","49,7","4,3","ND","ND","ND","ND"],
    [13816,"01/24/2016 07:00","48,1","3,14","ND","ND","ND","ND"],
    [13817,"01/24/2016 08:00","53,8","4,24","ND","ND","ND","ND"],
    [13818,"01/24/2016 09:00","63,3","7,81","ND","ND","ND","ND"],
    [13819,"01/24/2016 10:00","58,9","19,39","ND","ND","ND","ND"],
    [13820,"01/24/2016 11:00","42,8","16,09","ND","ND","ND","ND"],
    [13821,"01/24/2016 12:00","42","11,42","ND","ND","ND","ND"],
    [13822,"01/24/2016 13:00","49","8,62","ND","ND","ND","ND"],
    [13823,"01/24/2016 14:00","54,6","7,57","ND","ND","ND","ND"],
    [13824,"01/24/2016 15:00","29","3,98","ND","ND","ND","ND"],
    [13825,"01/24/2016 16:00","23,4","1,83","ND","ND","ND","ND"],
    [13826,"01/24/2016 17:00","21,2","1,44","ND","ND","ND","ND"],
    [13827,"01/24/2016 18:00","21,5","1,52","ND","ND","ND","ND"],
    [13828,"01/24/2016 19:00","20,6","1,39","ND","ND","ND","ND"],
    [13829,"01/24/2016 20:00","17,8","1,49","ND","ND","ND","ND"],
    [13830,"01/24/2016 21:00","8,4","1,21","ND","ND","ND","ND"],
    [13831,"01/24/2016 22:00","13,1","1,21","ND","ND","ND","ND"],
    [13832,"01/24/2016 23:00","37,3","2,44","ND","ND","ND","ND"],
    [13833,"01/25/2016 00:00","34,8","1,83","ND","ND","ND","ND"],
    [13834,"01/25/2016 01:00","38","4,14","ND","ND","ND","ND"],
    [13835,"01/25/2016 02:00","27,2","2,31","ND","ND","ND","ND"],
    [13836,"01/25/2016 03:00","19,8","13,1","ND","ND","ND","ND"],
    [13837,"01/25/2016 04:00","27,3","19,44","ND","ND","ND","ND"],
    [13838,"01/25/2016 05:00","25,6","13,26","ND","ND","ND","ND"],
    [13839,"01/25/2016 06:00","34,4","10,66","ND","ND","ND","ND"],
    [13840,"01/25/2016 07:00","46,8","8,8","ND","ND","ND","ND"],
    [13841,"01/25/2016 08:00","59,5","11,5","ND","ND","ND","ND"],
    [13842,"01/25/2016 09:00","59,5","9,41","ND","ND","ND","ND"],
    [13843,"01/25/2016 10:00","61,8","9,33","ND","ND","ND","ND"],
    [13844,"01/25/2016 11:00","53,1","14,33","ND","ND","ND","ND"],
    [13845,"01/25/2016 12:00","38,8","24,84","ND","ND","ND","ND"],
    [13846,"01/25/2016 13:00","37,8","8,75","ND","ND","ND","ND"],
    [13847,"01/25/2016 14:00","35,4","10,59","ND","ND","ND","ND"],
    [13848,"01/25/2016 15:00","39,9","9,56","ND","ND","ND","ND"],
    [13849,"01/25/2016 16:00","42,2","7,34","ND","ND","ND","ND"],
    [13850,"01/25/2016 17:00","43,9","4,95","ND","ND","ND","ND"],
    [13851,"01/25/2016 18:00","22,3","1,94","ND","ND","ND","ND"],
    [13852,"01/25/2016 19:00","44,9","2,67","ND","ND","ND","ND"],
    [13853,"01/25/2016 20:00","61,2","2,78","ND","ND","ND","ND"],
    [13854,"01/25/2016 21:00","38,8","2,59","ND","ND","ND","ND"],
    [13855,"01/25/2016 22:00","34,5","2,31","ND","ND","ND","ND"],
    [13856,"01/25/2016 23:00","38,3","1,94","ND","ND","ND","ND"],
    [13857,"01/26/2016 00:00","40,6","1,7","ND","ND","ND","ND"],
    [13858,"01/26/2016 01:00","22,9","1,55","ND","ND","ND","ND"],
    [13859,"01/26/2016 02:00","22,7","1,31","ND","ND","ND","ND"],
    [13860,"01/26/2016 03:00","25,5","1,39","ND","ND","ND","ND"],
    [13861,"01/26/2016 04:00","23","1,28","ND","ND","ND","ND"],
    [13862,"01/26/2016 05:00","25,3","1,44","ND","ND","ND","ND"],
    [13863,"01/26/2016 06:00","39,1","1,76","ND","ND","ND","ND"],
    [13864,"01/26/2016 07:00","56,7","2,15","ND","ND","ND","ND"],
    [13865,"01/26/2016 08:00","62,4","3,28","ND","ND","ND","ND"],
    [13866,"01/26/2016 09:00","94,9","4,61","ND","ND","ND","ND"],
    [13867,"01/26/2016 10:00","55,1","6,58","ND","ND","ND","ND"],
    [13868,"01/26/2016 11:00","36,3","6,13","ND","ND","ND","ND"],
    [13869,"01/26/2016 12:00","42,3","ND","ND","ND","ND","ND"],
    [13870,"01/26/2016 13:00","49,3","4,93","ND","ND","ND","ND"],
    [13871,"01/26/2016 14:00","53,1","4,61","ND","ND","ND","ND"],
    [13872,"01/26/2016 15:00","25,5","2,23","ND","ND","ND","ND"],
    [13873,"01/26/2016 16:00","14,2","1,57","ND","ND","ND","ND"],
    [13874,"01/26/2016 17:00","16,2","1,52","ND","ND","ND","ND"],
    [13875,"01/26/2016 18:00","16,5","1,47","ND","ND","ND","ND"],
    [13876,"01/26/2016 19:00","18,9","1,6","ND","ND","ND","ND"],
    [13877,"01/26/2016 20:00","18,4","1,78","ND","ND","ND","ND"],
    [13878,"01/26/2016 21:00","17,2","1,73","ND","ND","ND","ND"],
    [13879,"01/26/2016 22:00","51","2,12","ND","ND","ND","ND"],
    [13880,"01/26/2016 23:00","56,9","2,8","ND","ND","ND","ND"],
    [13881,"01/27/2016 00:00","31,2","1,86","ND","ND","ND","ND"],
    [13882,"01/27/2016 01:00","37,3","1,52","ND","ND","ND","ND"],
    [13883,"01/27/2016 02:00","34,4","1,62","ND","ND","ND","ND"],
    [13884,"01/27/2016 03:00","34,4","1,68","ND","ND","ND","ND"],
    [13885,"01/27/2016 04:00","34,3","2,02","ND","ND","ND","ND"],
    [13886,"01/27/2016 05:00","37,9","2,04","ND","ND","ND","ND"],
    [13887,"01/27/2016 06:00","44,5","2,33","ND","ND","ND","ND"],
    [13888,"01/27/2016 07:00","70,5","2,91","ND","ND","ND","ND"],
    [13889,"01/27/2016 08:00","77,4","4,64","ND","ND","ND","ND"],
    [13890,"01/27/2016 09:00","58,5","11,97","ND","ND","ND","ND"],
    [13891,"01/27/2016 10:00","59","12,47","ND","ND","ND","ND"],
    [13892,"01/27/2016 11:00","51,7","11,37","ND","ND","ND","ND"],
    [13893,"01/27/2016 12:00","55,9","8,38","ND","ND","ND","ND"],
    [13894,"01/27/2016 13:00","67,3","6,55","ND","ND","ND","ND"],
    [13895,"01/27/2016 14:00","63,4","7,18","ND","ND","ND","ND"],
    [13896,"01/27/2016 15:00","20,9","2,38","ND","ND","ND","ND"],
    [13897,"01/27/2016 16:00","19,6","1,6","ND","ND","ND","ND"],
    [13898,"01/27/2016 17:00","17,9","1,52","ND","ND","ND","ND"],
    [13899,"01/27/2016 18:00","20,1","1,44","ND","ND","ND","ND"],
    [13900,"01/27/2016 19:00","16,6","1,41","ND","ND","ND","ND"],
    [13901,"01/27/2016 20:00","12,9","1,47","ND","ND","ND","ND"],
    [13902,"01/27/2016 21:00","24,8","1,81","ND","ND","ND","ND"],
    [13903,"01/27/2016 22:00","57,4","3,01","ND","ND","ND","ND"],
    [13904,"01/27/2016 23:00","48,8","2,62","ND","ND","ND","ND"],
    [13905,"01/28/2016 00:00","35,2","1,99","ND","ND","ND","ND"],
    [13906,"01/28/2016 01:00","28,5","1,65","ND","ND","ND","ND"],
    [13907,"01/28/2016 02:00","38,1","1,62","ND","ND","ND","ND"],
    [13908,"01/28/2016 03:00","27,6","1,91","ND","ND","ND","ND"],
    [13909,"01/28/2016 04:00","30,4","1,89","ND","ND","ND","ND"],
    [13910,"01/28/2016 05:00","42","2,46","ND","ND","ND","ND"],
    [13911,"01/28/2016 06:00","53,5","3,17","ND","ND","ND","ND"],
    [13912,"01/28/2016 07:00","75,2","3,51","ND","ND","ND","ND"],
    [13913,"01/28/2016 08:00","75,2","5,48","ND","ND","ND","ND"],
    [13914,"01/28/2016 09:00","55","24","ND","ND","ND","ND"],
    [13915,"01/28/2016 10:00","64,7","22,61","ND","ND","ND","ND"],
    [13916,"01/28/2016 11:00","57,8","12,11","ND","ND","ND","ND"],
    [13917,"01/28/2016 12:00","62","9,2","ND","ND","ND","ND"],
    [13918,"01/28/2016 13:00","60,6","9,46","ND","ND","ND","ND"],
    [13919,"01/28/2016 14:00","19,3","2,12","ND","ND","ND","ND"],
    [13920,"01/28/2016 15:00","25,7","1,57","ND","ND","ND","ND"],
    [13921,"01/28/2016 16:00","20,3","1,34","ND","ND","ND","ND"],
    [13922,"01/28/2016 17:00","17,9","1,47","ND","ND","ND","ND"],
    [13923,"01/28/2016 18:00","17,2","1,47","ND","ND","ND","ND"],
    [13924,"01/28/2016 19:00","17,6","1,68","ND","ND","ND","ND"],
    [13925,"01/28/2016 20:00","15,8","1,68","ND","ND","ND","ND"],
    [13926,"01/28/2016 21:00","23,6","1,86","ND","ND","ND","ND"],
    [13927,"01/28/2016 22:00","52,1","2,33","ND","ND","ND","ND"],
    [13928,"01/28/2016 23:00","51,5","2,59","ND","ND","ND","ND"],
    [13929,"01/29/2016 00:00","32,1","2,33","ND","ND","ND","ND"],
    [13930,"01/29/2016 01:00","23,6","1,7","ND","ND","ND","ND"],
    [13931,"01/29/2016 02:00","22,7","1,52","ND","ND","ND","ND"],
    [13932,"01/29/2016 03:00","25,2","1,83","ND","ND","ND","ND"],
    [13933,"01/29/2016 04:00","28,4","1,94","ND","ND","ND","ND"],
    [13934,"01/29/2016 05:00","43,5","1,97","ND","ND","ND","ND"],
    [13935,"01/29/2016 06:00","37,7","2,25","ND","ND","ND","ND"],
    [13936,"01/29/2016 07:00","67,2","3,77","ND","ND","ND","ND"],
    [13937,"01/29/2016 08:00","55,9","4,3","ND","ND","ND","ND"],
    [13938,"01/29/2016 09:00","67,8","11,74","ND","ND","ND","ND"],
    [13939,"01/29/2016 10:00","69,5","31,05","ND","ND","ND","ND"],
    [13940,"01/29/2016 11:00","59,4","20,86","ND","ND","ND","ND"],
    [13941,"01/29/2016 12:00","36,2","9,77","ND","ND","ND","ND"],
    [13942,"01/29/2016 13:00","21,2","3,54","ND","ND","ND","ND"],
    [13943,"01/29/2016 14:00","23,9","2,7","ND","ND","ND","ND"],
    [13944,"01/29/2016 15:00","24,1","1,81","ND","ND","ND","ND"],
    [13945,"01/29/2016 16:00","19,8","1,49","ND","ND","ND","ND"],
    [13946,"01/29/2016 17:00","34,1","1,76","ND","ND","ND","ND"],
    [13947,"01/29/2016 18:00","36,1","1,94","ND","ND","ND","ND"],
    [13948,"01/29/2016 19:00","49,3","3,04","ND","ND","ND","ND"],
    [13949,"01/29/2016 20:00","48,5","3,12","ND","ND","ND","ND"],
    [13950,"01/29/2016 21:00","47,1","2,52","ND","ND","ND","ND"],
    [13951,"01/29/2016 22:00","75,1","2,41","ND","ND","ND","ND"],
    [13952,"01/29/2016 23:00","57,5","2,31","ND","ND","ND","ND"],
    [13953,"01/30/2016 00:00","39,5","1,94","ND","ND","ND","ND"],
    [13954,"01/30/2016 01:00","35,9","2,54","ND","ND","ND","ND"],
    [13955,"01/30/2016 02:00","38,8","2,25","ND","ND","ND","ND"],
    [13956,"01/30/2016 03:00","39,2","2,23","ND","ND","ND","ND"],
    [13957,"01/30/2016 04:00","35,4","1,91","ND","ND","ND","ND"],
    [13958,"01/30/2016 05:00","22,9","1,52","ND","ND","ND","ND"],
    [13959,"01/30/2016 06:00","24","1,52","ND","ND","ND","ND"],
    [13960,"01/30/2016 07:00","27,5","1,62","ND","ND","ND","ND"],
    [13961,"01/30/2016 08:00","51,8","2,52","ND","ND","ND","ND"],
    [13962,"01/30/2016 09:00","47,2","2,86","ND","ND","ND","ND"],
    [13963,"01/30/2016 10:00","32,8","2,46","ND","ND","ND","ND"],
    [13964,"01/30/2016 11:00","20,1","2,52","ND","ND","ND","ND"],
    [13965,"01/30/2016 12:00","24,2","2,75","ND","ND","ND","ND"],
    [13966,"01/30/2016 13:00","30,8","2,96","ND","ND","ND","ND"],
    [13967,"01/30/2016 14:00","34,8","2,49","ND","ND","ND","ND"],
    [13968,"01/30/2016 15:00","33,4","2,2","ND","ND","ND","ND"],
    [13969,"01/30/2016 16:00","18,2","1,44","ND","ND","ND","ND"],
    [13970,"01/30/2016 17:00","23,5","1,47","ND","ND","ND","ND"],
    [13971,"01/30/2016 18:00","15,7","1,47","ND","ND","ND","ND"],
    [13972,"01/30/2016 19:00","21,7","1,55","ND","ND","ND","ND"],
    [13973,"01/30/2016 20:00","29,2","1,6","ND","ND","ND","ND"],
    [13974,"01/30/2016 21:00","36,4","2,52","ND","ND","ND","ND"],
    [13975,"01/30/2016 22:00","60,6","2,8","ND","ND","ND","ND"],
    [13976,"01/30/2016 23:00","55,2","2,28","ND","ND","ND","ND"],
    [13977,"01/31/2016 00:00","35,2","1,97","ND","ND","ND","ND"],
    [13978,"01/31/2016 01:00","36,3","1,89","ND","ND","ND","ND"],
    [13979,"01/31/2016 02:00","30","1,65","ND","ND","ND","ND"],
    [13980,"01/31/2016 03:00","24,9","1,47","ND","ND","ND","ND"],
    [13981,"01/31/2016 04:00","24,7","1,62","ND","ND","ND","ND"],
    [13982,"01/31/2016 05:00","30,9","1,7","ND","ND","ND","ND"],
    [13983,"01/31/2016 06:00","33","1,73","ND","ND","ND","ND"],
    [13984,"01/31/2016 07:00","43,1","2,41","ND","ND","ND","ND"],
    [13985,"01/31/2016 08:00","40,1","2,44","ND","ND","ND","ND"],
    [13986,"01/31/2016 09:00","54","6,45","ND","ND","ND","ND"],
    [13987,"01/31/2016 10:00","62,3","6,66","ND","ND","ND","ND"],
    [13988,"01/31/2016 11:00","42,4","5,61","ND","ND","ND","ND"],
    [13989,"01/31/2016 12:00","47","5,63","ND","ND","ND","ND"],
    [13990,"01/31/2016 13:00","40","5,35","ND","ND","ND","ND"],
    [13991,"01/31/2016 14:00","28,1","6,55","ND","ND","ND","ND"],
    [13992,"01/31/2016 15:00","24,8","2,12","ND","ND","ND","ND"],
    [13993,"01/31/2016 16:00","29,2","1,7","ND","ND","ND","ND"],
    [13994,"01/31/2016 17:00","24,7","1,47","ND","ND","ND","ND"],
    [13995,"01/31/2016 18:00","26,6","1,39","ND","ND","ND","ND"],
    [13996,"01/31/2016 19:00","24,2","1,44","ND","ND","ND","ND"],
    [13997,"01/31/2016 20:00","24,3","1,52","ND","ND","ND","ND"],
    [13998,"01/31/2016 21:00","25,1","1,65","ND","ND","ND","ND"],
    [13999,"01/31/2016 22:00","44,7","2,49","ND","ND","ND","ND"],
    [14000,"01/31/2016 23:00","43,2","2,96","ND","ND","ND","ND"],
    [14001,"42371","ND","ND","ND","ND","ND","ND"],
    [14002,"42371,04167","32,5","1,83","ND","ND","ND","ND"],
    [14003,"42371,08333","32,1","1,96","ND","ND","ND","ND"],
    [14004,"42371,125","31,9","1,83","ND","ND","ND","ND"],
    [14005,"42371,16667","34,4","2,33","ND","ND","ND","ND"],
    [14006,"42371,20833","34,8","2,1","ND","ND","ND","ND"],
    [14007,"42371,25","46,4","2,36","ND","ND","ND","ND"],
    [14008,"42371,29167","65,6","3,35","ND","ND","ND","ND"],
    [14009,"42371,33333","75,3","4,99","ND","ND","ND","ND"],
    [14010,"42371,375","56,3","5,77","ND","ND","ND","ND"],
    [14011,"42371,41667","46,8","11,36","ND","ND","ND","ND"],
    [14012,"42371,45833","41,2","8,01","ND","ND","ND","ND"],
    [14013,"42371,5","43,5","7,04","ND","ND","ND","ND"],
    [14014,"42371,54167","48,7","5,88","ND","ND","ND","ND"],
    [14015,"42371,58333","48,7","5,88","ND","ND","ND","ND"],
    [14016,"42371,625","32,2","2,07","ND","ND","ND","ND"],
    [14017,"42371,66667","32,4","1,64","ND","ND","ND","ND"],
    [14018,"42371,70833","26,5","1,54","ND","ND","ND","ND"],
    [14019,"42371,75","25,6","1,37","ND","ND","ND","ND"],
    [14020,"42371,79167","25,1","1,58","ND","ND","ND","ND"],
    [14021,"42371,83333","22","1,48","ND","ND","ND","ND"],
    [14022,"42371,875","23,3","1,5","ND","ND","ND","ND"],
    [14023,"42371,91667","45","1,84","ND","ND","ND","ND"],
    [14024,"42371,95833","58,3","2,95","ND","ND","ND","ND"],
    [14025,"42402","45,4","1,88","ND","ND","ND","ND"],
    [14026,"42402,04167","37,3","1,74","ND","ND","ND","ND"],
    [14027,"42402,08333","31,9","1,74","ND","ND","ND","ND"],
    [14028,"42402,125","39,2","2,05","ND","ND","ND","ND"],
    [14029,"42402,16667","38,4","2,52","ND","ND","ND","ND"],
    [14030,"42402,20833","38,6","3,95","ND","ND","ND","ND"],
    [14031,"42402,25","51,5","6,56","ND","ND","ND","ND"],
    [14032,"42402,29167","68,1","3,1","ND","ND","ND","ND"],
    [14033,"42402,33333","80,6","4,8","ND","ND","ND","ND"],
    [14034,"42402,375","89,9","10,5","ND","ND","ND","ND"],
    [14035,"42402,41667","65","17,94","ND","ND","ND","ND"],
    [14036,"42402,45833","53,6","15,41","ND","ND","ND","ND"],
    [14037,"42402,5","53,6","9,88","ND","ND","ND","ND"],
    [14038,"42402,54167","73,8","9,8","ND","ND","ND","ND"],
    [14039,"42402,58333","55,1","10,61","ND","ND","ND","ND"],
    [14040,"42402,625","31,7","1,89","ND","ND","ND","ND"],
    [14041,"42402,66667","23,8","1,45","ND","ND","ND","ND"],
    [14042,"42402,70833","16,7","1,56","ND","ND","ND","ND"],
    [14043,"42402,75","18,8","1,6","ND","ND","ND","ND"],
    [14044,"42402,79167","23","1,66","ND","ND","ND","ND"],
    [14045,"42402,83333","21,9","1,5","ND","ND","ND","ND"],
    [14046,"42402,875","25,3","1,91","ND","ND","ND","ND"],
    [14047,"42402,91667","48,7","2,45","ND","ND","ND","ND"],
    [14048,"42402,95833","18,3","2,14","ND","ND","ND","ND"],
    [14049,"42431","46,3","2,32","ND","ND","ND","ND"],
    [14050,"42431,04167","43,5","2,39","ND","ND","ND","ND"],
    [14051,"42431,08333","43","4,22","ND","ND","ND","ND"],
    [14052,"42431,125","32,9","2,75","ND","ND","ND","ND"],
    [14053,"42431,16667","29,6","2,03","ND","ND","ND","ND"],
    [14054,"42431,20833","29,1","1,74","ND","ND","ND","ND"],
    [14055,"42431,25","43","2,4","ND","ND","ND","ND"],
    [14056,"42431,29167","72,1","3,28","ND","ND","ND","ND"],
    [14057,"42431,33333","79,3","4,88","ND","ND","ND","ND"],
    [14058,"42431,375","59,3","7,42","ND","ND","ND","ND"],
    [14059,"42431,41667","76,5","0","ND","ND","ND","ND"],
    [14060,"42431,45833","53,1","8,16","ND","ND","ND","ND"],
    [14061,"42431,5","48,5","6,74","ND","ND","ND","ND"],
    [14062,"42431,54167","51","6,33","ND","ND","ND","ND"],
    [14063,"42431,58333","62,8","5,59","ND","ND","ND","ND"],
    [14064,"42431,625","63,7","4,43","ND","ND","ND","ND"],
    [14065,"42431,66667","30,7","1,65","ND","ND","ND","ND"],
    [14066,"42431,70833","28,1","1,55","ND","ND","ND","ND"],
    [14067,"42431,75","26,6","1,57","ND","ND","ND","ND"],
    [14068,"42431,79167","26,6","1,56","ND","ND","ND","ND"],
    [14069,"42431,83333","26,8","1,67","ND","ND","ND","ND"],
    [14070,"42431,875","24,1","1,77","ND","ND","ND","ND"],
    [14071,"42431,91667","14,3","1,46","ND","ND","ND","ND"],
    [14072,"42431,95833","52,3","1,99","ND","ND","ND","ND"],
    [14073,"42462","43,3","2,03","ND","ND","ND","ND"],
    [14074,"42462,04167","43,7","1,91","ND","ND","ND","ND"],
    [14075,"42462,08333","51,4","6,04","ND","ND","ND","ND"],
    [14076,"42462,125","37,6","4,69","ND","ND","ND","ND"],
    [14077,"42462,16667","39,8","3,54","ND","ND","ND","ND"],
    [14078,"42462,20833","40,5","3,33","ND","ND","ND","ND"],
    [14079,"42462,25","48,8","3,65","ND","ND","ND","ND"],
    [14080,"42462,29167","65,7","19,47","ND","ND","ND","ND"],
    [14081,"42462,33333","79,6","16,41","ND","ND","ND","ND"],
    [14082,"42462,375","73,1","24,89","ND","ND","ND","ND"],
    [14083,"42462,41667","60","21,16","ND","ND","ND","ND"],
    [14084,"42462,45833","66,1","15,16","ND","ND","ND","ND"],
    [14085,"42462,5","50,2","10,48","ND","ND","ND","ND"],
    [14086,"42462,54167","21,3","3,55","ND","ND","ND","ND"],
    [14087,"42462,58333","24,2","1,94","ND","ND","ND","ND"],
    [14088,"42462,625","24,2","2,42","ND","ND","ND","ND"],
    [14089,"42462,66667","9,7","1,62","ND","ND","ND","ND"],
    [14090,"42462,70833","8","1,38","ND","ND","ND","ND"],
    [14091,"42462,75","20,5","1,85","ND","ND","ND","ND"],
    [14092,"42462,79167","35,4","3,12","ND","ND","ND","ND"],
    [14093,"42462,83333","41,4","4,65","ND","ND","ND","ND"],
    [14094,"42462,875","23","3,07","ND","ND","ND","ND"],
    [14095,"42462,91667","24,4","3,05","ND","ND","ND","ND"],
    [14096,"42462,95833","21,4","2","ND","ND","ND","ND"],
    [14097,"42492","13,8","2,01","ND","ND","ND","ND"],
    [14098,"42492,04167","18,8","1,84","ND","ND","ND","ND"],
    [14099,"42492,08333","13,5","1,43","ND","ND","ND","ND"],
    [14100,"42492,125","9,1","1,32","ND","ND","ND","ND"],
    [14101,"42492,16667","8,4","1,23","ND","ND","ND","ND"],
    [14102,"42492,20833","12,4","1,31","ND","ND","ND","ND"],
    [14103,"42492,25","21,1","1,41","ND","ND","ND","ND"],
    [14104,"42492,29167","27,7","2,09","ND","ND","ND","ND"],
    [14105,"42492,33333","39,4","2,73","ND","ND","ND","ND"],
    [14106,"42492,375","39","4,01","ND","ND","ND","ND"],
    [14107,"42492,41667","47,1","6,25","ND","ND","ND","ND"],
    [14108,"42492,45833","59,3","9,23","ND","ND","ND","ND"],
    [14109,"42492,5","50,9","16,01","ND","ND","ND","ND"],
    [14110,"42492,54167","33,8","31,43","ND","ND","ND","ND"],
    [14111,"42492,58333","21,8","6,33","ND","ND","ND","ND"],
    [14112,"42492,625","25,4","3,94","ND","ND","ND","ND"],
    [14113,"42492,66667","19,6","3,55","ND","ND","ND","ND"],
    [14114,"42492,70833","11,8","2,02","ND","ND","ND","ND"],
    [14115,"42492,75","15,4","2,4","ND","ND","ND","ND"],
    [14116,"42492,79167","39,3","3,21","ND","ND","ND","ND"],
    [14117,"42492,83333","131,6","3,91","ND","ND","ND","ND"],
    [14118,"42492,875","74,8","4,49","ND","ND","ND","ND"],
    [14119,"42492,91667","71,7","4,4","ND","ND","ND","ND"],
    [14120,"42492,95833","63,5","4,14","ND","ND","ND","ND"],
    [14121,"42523","45,9","4,33","ND","ND","ND","ND"],
    [14122,"42523,04167","39","4,44","ND","ND","ND","ND"],
    [14123,"42523,08333","32,9","4,24","ND","ND","ND","ND"],
    [14124,"42523,125","34,3","3,37","ND","ND","ND","ND"],
    [14125,"42523,16667","34,3","2,41","ND","ND","ND","ND"],
    [14126,"42523,20833","29,5","2,23","ND","ND","ND","ND"],
    [14127,"42523,25","40,8","2,3","ND","ND","ND","ND"],
    [14128,"42523,29167","56,8","2,73","ND","ND","ND","ND"],
    [14129,"42523,33333","97,5","13,17","ND","ND","ND","ND"],
    [14130,"42523,375","91,1","19,22","ND","ND","ND","ND"],
    [14131,"42523,41667","86,9","56,01","ND","ND","ND","ND"],
    [14132,"42523,45833","49,9","33,6","ND","ND","ND","ND"],
    [14133,"42523,5","60","15,7","ND","ND","ND","ND"],
    [14134,"42523,54167","57,4","10,16","ND","ND","ND","ND"],
    [14135,"42523,58333","58,2","7,18","ND","ND","ND","ND"],
    [14136,"42523,625","54,5","5,75","ND","ND","ND","ND"],
    [14137,"42523,66667","55,4","5,39","ND","ND","ND","ND"],
    [14138,"42523,70833","48,5","5,26","ND","ND","ND","ND"],
    [14139,"42523,75","46,1","4,11","ND","ND","ND","ND"],
    [14140,"42523,79167","40,9","3,65","ND","ND","ND","ND"],
    [14141,"42523,83333","39,3","3,67","ND","ND","ND","ND"],
    [14142,"42523,875","26,1","2,82","ND","ND","ND","ND"],
    [14143,"42523,91667","28,6","2,7","ND","ND","ND","ND"],
    [14144,"42523,95833","29,2","2,57","ND","ND","ND","ND"],
    [14145,"42553","53,1","3,26","ND","ND","ND","ND"],
    [14146,"42553,04167","51,3","3,07","ND","ND","ND","ND"],
    [14147,"42553,08333","56,3","3,5","ND","ND","ND","ND"],
    [14148,"42553,125","48,4","4,59","ND","ND","ND","ND"],
    [14149,"42553,16667","42,6","2,72","ND","ND","ND","ND"],
    [14150,"42553,20833","53,4","6,72","ND","ND","ND","ND"],
    [14151,"42553,25","56,1","5,05","ND","ND","ND","ND"],
    [14152,"42553,29167","60,4","7,36","ND","ND","ND","ND"],
    [14153,"42553,33333","56","8,9","ND","ND","ND","ND"],
    [14154,"42553,375","55,7","15,4","ND","ND","ND","ND"],
    [14155,"42553,41667","47,6","12,01","ND","ND","ND","ND"],
    [14156,"42553,45833","42,7","12,04","ND","ND","ND","ND"],
    [14157,"42553,5","42,7","8,54","ND","ND","ND","ND"],
    [14158,"42553,54167","45,4","6,53","ND","ND","ND","ND"],
    [14159,"42553,58333","53,3","5,56","ND","ND","ND","ND"],
    [14160,"42553,625","35,3","5,3","ND","ND","ND","ND"],
    [14161,"42553,66667","23,5","1,76","ND","ND","ND","ND"],
    [14162,"42553,70833","23,1","1,55","ND","ND","ND","ND"],
    [14163,"42553,75","19,3","1,6","ND","ND","ND","ND"],
    [14164,"42553,79167","19","1,6","ND","ND","ND","ND"],
    [14165,"42553,83333","19,1","1,63","ND","ND","ND","ND"],
    [14166,"42553,875","21,6","1,95","ND","ND","ND","ND"],
    [14167,"42553,91667","38,3","2,44","ND","ND","ND","ND"],
    [14168,"42553,95833","38,3","2,85","ND","ND","ND","ND"],
    [14169,"42584","30,5","3,02","ND","ND","ND","ND"],
    [14170,"42584,04167","27","1,97","ND","ND","ND","ND"],
    [14171,"42584,08333","27,5","1,81","ND","ND","ND","ND"],
    [14172,"42584,125","30,2","1,92","ND","ND","ND","ND"],
    [14173,"42584,16667","29,9","1,98","ND","ND","ND","ND"],
    [14174,"42584,20833","34,5","2,29","ND","ND","ND","ND"],
    [14175,"42584,25","66,1","3,76","ND","ND","ND","ND"],
    [14176,"42584,29167","70,6","2,96","ND","ND","ND","ND"],
    [14177,"42584,33333","78,5","6,89","ND","ND","ND","ND"],
    [14178,"42584,375","81,5","14,82","ND","ND","ND","ND"],
    [14179,"42584,41667","76,9","19,83","ND","ND","ND","ND"],
    [14180,"42584,45833","54,2","20,11","ND","ND","ND","ND"],
    [14181,"42584,5","51","17,5","ND","ND","ND","ND"],
    [14182,"42584,54167","52,5","10,97","ND","ND","ND","ND"],
    [14183,"42584,58333","46,3","8,28","ND","ND","ND","ND"],
    [14184,"42584,625","60,4","7,81","ND","ND","ND","ND"],
    [14185,"42584,66667","66,2","7,31","ND","ND","ND","ND"],
    [14186,"42584,70833","56,1","6,6","ND","ND","ND","ND"],
    [14187,"42584,75","96,9","6,11","ND","ND","ND","ND"],
    [14188,"42584,79167","94","4,34","ND","ND","ND","ND"],
    [14189,"42584,83333","68,3","2,92","ND","ND","ND","ND"],
    [14190,"42584,875","64,6","2,57","ND","ND","ND","ND"],
    [14191,"42584,91667","57,5","2,53","ND","ND","ND","ND"],
    [14192,"42584,95833","46","2,28","ND","ND","ND","ND"],
    [14193,"42615","48,3","2,3","ND","ND","ND","ND"],
    [14194,"42615,04167","42,5","2,2","ND","ND","ND","ND"],
    [14195,"42615,08333","41,4","2,18","ND","ND","ND","ND"],
    [14196,"42615,125","41,4","2,39","ND","ND","ND","ND"],
    [14197,"42615,16667","45,2","2,75","ND","ND","ND","ND"],
    [14198,"42615,20833","30,6","1,92","ND","ND","ND","ND"],
    [14199,"42615,25","66,2","2,16","ND","ND","ND","ND"],
    [14200,"42615,29167","84,5","3,25","ND","ND","ND","ND"],
    [14201,"42615,33333","82,5","4,83","ND","ND","ND","ND"],
    [14202,"42615,375","74,2","8,02","ND","ND","ND","ND"],
    [14203,"42615,41667","65,3","11,11","ND","ND","ND","ND"],
    [14204,"42615,45833","65,3","13,63","ND","ND","ND","ND"],
    [14205,"42615,5","61,4","9,6","ND","ND","ND","ND"],
    [14206,"42615,54167","55,2","6,18","ND","ND","ND","ND"],
    [14207,"42615,58333","25,7","3,1","ND","ND","ND","ND"],
    [14208,"42615,625","18,9","2,2","ND","ND","ND","ND"],
    [14209,"42615,66667","20,9","1,68","ND","ND","ND","ND"],
    [14210,"42615,70833","17,5","1,63","ND","ND","ND","ND"],
    [14211,"42615,75","20,6","1,58","ND","ND","ND","ND"],
    [14212,"42615,79167","23,5","1,56","ND","ND","ND","ND"],
    [14213,"42615,83333","19,8","1,81","ND","ND","ND","ND"],
    [14214,"42615,875","42,7","2,36","ND","ND","ND","ND"],
    [14215,"42615,91667","72,5","3,37","ND","ND","ND","ND"],
    [14216,"42615,95833","81,1","3,02","ND","ND","ND","ND"],
    [14217,"42645","52,6","2,38","ND","ND","ND","ND"],
    [14218,"42645,04167","46,4","2,05","ND","ND","ND","ND"],
    [14219,"42645,08333","37,4","1,98","ND","ND","ND","ND"],
    [14220,"42645,125","39,7","2,07","ND","ND","ND","ND"],
    [14221,"42645,16667","32,5","1,75","ND","ND","ND","ND"],
    [14222,"42645,20833","35,9","1,81","ND","ND","ND","ND"],
    [14223,"42645,25","58,5","3,03","ND","ND","ND","ND"],
    [14224,"42645,29167","86","4,6","ND","ND","ND","ND"],
    [14225,"42645,33333","97,5","7,35","ND","ND","ND","ND"],
    [14226,"42645,375","79,5","9,86","ND","ND","ND","ND"],
    [14227,"42645,41667","67,8","10,56","ND","ND","ND","ND"],
    [14228,"42645,45833","60,7","11,31","ND","ND","ND","ND"],
    [14229,"42645,5","53,5","8,28","ND","ND","ND","ND"],
    [14230,"42645,54167","51,6","6,93","ND","ND","ND","ND"],
    [14231,"42645,58333","61,4","5,89","ND","ND","ND","ND"],
    [14232,"42645,625","59,4","5,64","ND","ND","ND","ND"],
    [14233,"42645,66667","44,7","4,52","ND","ND","ND","ND"],
    [14234,"42645,70833","29","2,27","ND","ND","ND","ND"],
    [14235,"42645,75","27,3","2,08","ND","ND","ND","ND"],
    [14236,"42645,79167","27,2","1,81","ND","ND","ND","ND"],
    [14237,"42645,83333","22,1","1,7","ND","ND","ND","ND"],
    [14238,"42645,875","17,1","1,68","ND","ND","ND","ND"],
    [14239,"42645,91667","28,9","1,91","ND","ND","ND","ND"],
    [14240,"42645,95833","60,3","3,17","ND","ND","ND","ND"],
    [14241,"42676","42,3","3,27","ND","ND","ND","ND"],
    [14242,"42676,04167","43,3","3,21","ND","ND","ND","ND"],
    [14243,"42676,08333","33,1","4,79","ND","ND","ND","ND"],
    [14244,"42676,125","27","3,29","ND","ND","ND","ND"],
    [14245,"42676,16667","41,2","2,37","ND","ND","ND","ND"],
    [14246,"42676,20833","33,5","2,04","ND","ND","ND","ND"],
    [14247,"42676,25","48,3","2,31","ND","ND","ND","ND"],
    [14248,"42676,29167","77,5","5,64","ND","ND","ND","ND"],
    [14249,"42676,33333","84,3","8,26","ND","ND","ND","ND"],
    [14250,"42676,375","78,8","8,46","ND","ND","ND","ND"],
    [14251,"42676,41667","53,6","10,58","ND","ND","ND","ND"],
    [14252,"42676,45833","40,1","10","ND","ND","ND","ND"],
    [14253,"42676,5","41,9","12","ND","ND","ND","ND"],
    [14254,"42676,54167","25","6,12","ND","ND","ND","ND"],
    [14255,"42676,58333","33","4,65","ND","ND","ND","ND"],
    [14256,"42676,625","10","2,12","ND","ND","ND","ND"],
    [14257,"42676,66667","19,5","1,86","ND","ND","ND","ND"],
    [14258,"42676,70833","12","1,65","ND","ND","ND","ND"],
    [14259,"42676,75","11,9","1,61","ND","ND","ND","ND"],
    [14260,"42676,79167","11,6","1,52","ND","ND","ND","ND"],
    [14261,"42676,83333","9,4","1,52","ND","ND","ND","ND"],
    [14262,"42676,875","29,9","1,94","ND","ND","ND","ND"],
    [14263,"42676,91667","38,5","3,03","ND","ND","ND","ND"],
    [14264,"42676,95833","41,9","3,92","ND","ND","ND","ND"],
    [14265,"42706","19","2,73","ND","ND","ND","ND"],
    [14266,"42706,04167","28,5","2,71","ND","ND","ND","ND"],
    [14267,"42706,08333","29,4","3,49","ND","ND","ND","ND"],
    [14268,"42706,125","25,6","2,8","ND","ND","ND","ND"],
    [14269,"42706,16667","27","2,37","ND","ND","ND","ND"],
    [14270,"42706,20833","28,1","2,67","ND","ND","ND","ND"],
    [14271,"42706,25","37,2","3,63","ND","ND","ND","ND"],
    [14272,"42706,29167","57,6","5,23","ND","ND","ND","ND"],
    [14273,"42706,33333","65,6","5,16","ND","ND","ND","ND"],
    [14274,"42706,375","72,8","10,53","ND","ND","ND","ND"],
    [14275,"42706,41667","54,9","8,51","ND","ND","ND","ND"],
    [14276,"42706,45833","33,9","8,29","ND","ND","ND","ND"],
    [14277,"42706,5","33","8,22","ND","ND","ND","ND"],
    [14278,"42706,54167","40,1","6,84","ND","ND","ND","ND"],
    [14279,"42706,58333","33,2","4,13","ND","ND","ND","ND"],
    [14280,"42706,625","17,7","1,7","ND","ND","ND","ND"],
    [14281,"42706,66667","16,8","1,65","ND","ND","ND","ND"],
    [14282,"42706,70833","16,2","1,49","ND","ND","ND","ND"],
    [14283,"42706,75","13,8","1,66","ND","ND","ND","ND"],
    [14284,"42706,79167","42,1","2,86","ND","ND","ND","ND"],
    [14285,"42706,83333","31,5","3,08","ND","ND","ND","ND"],
    [14286,"42706,875","39,8","3,13","ND","ND","ND","ND"],
    [14287,"42706,91667","71,5","3,87","ND","ND","ND","ND"],
    [14288,"42706,95833","53,2","3,96","ND","ND","ND","ND"],
    [14289,"02/13/2016 00:00","73,1","4,18","ND","ND","ND","ND"],
    [14290,"02/13/2016 01:00","48,4","3,47","ND","ND","ND","ND"],
    [14291,"02/13/2016 02:00","48,4","11,47","ND","ND","ND","ND"],
    [14292,"02/13/2016 03:00","56,9","13,93","ND","ND","ND","ND"],
    [14293,"02/13/2016 04:00","79,6","7,33","ND","ND","ND","ND"],
    [14294,"02/13/2016 05:00","57,1","8,9","ND","ND","ND","ND"],
    [14295,"02/13/2016 06:00","36,6","12,01","ND","ND","ND","ND"],
    [14296,"02/13/2016 07:00","134,6","7,95","ND","ND","ND","ND"],
    [14297,"02/13/2016 08:00","55,7","6,85","ND","ND","ND","ND"],
    [14298,"02/13/2016 09:00","70,6","10,73","ND","ND","ND","ND"],
    [14299,"02/13/2016 10:00","73,1","13,61","ND","ND","ND","ND"],
    [14300,"02/13/2016 11:00","47,4","14,7","ND","ND","ND","ND"],
    [14301,"02/13/2016 12:00","36,5","8,57","ND","ND","ND","ND"],
    [14302,"02/13/2016 13:00","26,8","5,79","ND","ND","ND","ND"],
    [14303,"02/13/2016 14:00","40,5","4,73","ND","ND","ND","ND"],
    [14304,"02/13/2016 15:00","40,5","3,07","ND","ND","ND","ND"],
    [14305,"02/13/2016 16:00","23,3","2,42","ND","ND","ND","ND"],
    [14306,"02/13/2016 17:00","19,4","2,11","ND","ND","ND","ND"],
    [14307,"02/13/2016 18:00","23,2","1,85","ND","ND","ND","ND"],
    [14308,"02/13/2016 19:00","17","1,8","ND","ND","ND","ND"],
    [14309,"02/13/2016 20:00","12,2","1,71","ND","ND","ND","ND"],
    [14310,"02/13/2016 21:00","15,8","2,02","ND","ND","ND","ND"],
    [14311,"02/13/2016 22:00","16","2,21","ND","ND","ND","ND"],
    [14312,"02/13/2016 23:00","54,3","2,63","ND","ND","ND","ND"],
    [14313,"02/14/2016 00:00","52,9","2,87","ND","ND","ND","ND"],
    [14314,"02/14/2016 01:00","35,1","3,75","ND","ND","ND","ND"],
    [14315,"02/14/2016 02:00","38,2","3,33","ND","ND","ND","ND"],
    [14316,"02/14/2016 03:00","41,1","4,07","ND","ND","ND","ND"],
    [14317,"02/14/2016 04:00","44,4","4,05","ND","ND","ND","ND"],
    [14318,"02/14/2016 05:00","38","4,22","ND","ND","ND","ND"],
    [14319,"02/14/2016 06:00","38,7","4,11","ND","ND","ND","ND"],
    [14320,"02/14/2016 07:00","42,4","3,57","ND","ND","ND","ND"],
    [14321,"02/14/2016 08:00","52,9","3,92","ND","ND","ND","ND"],
    [14322,"02/14/2016 09:00","51,2","5,55","ND","ND","ND","ND"],
    [14323,"02/14/2016 10:00","48,1","8,39","ND","ND","ND","ND"],
    [14324,"02/14/2016 11:00","42,5","8,45","ND","ND","ND","ND"],
    [14325,"02/14/2016 12:00","38,4","7,05","ND","ND","ND","ND"],
    [14326,"02/14/2016 13:00","38","6,02","ND","ND","ND","ND"],
    [14327,"02/14/2016 14:00","35,1","5,75","ND","ND","ND","ND"],
    [14328,"02/14/2016 15:00","35,1","5,73","ND","ND","ND","ND"],
    [14329,"02/14/2016 16:00","36,7","4,34","ND","ND","ND","ND"],
    [14330,"02/14/2016 17:00","28,4","3,8","ND","ND","ND","ND"],
    [14331,"02/14/2016 18:00","28,6","3,53","ND","ND","ND","ND"],
    [14332,"02/14/2016 19:00","20,7","3,25","ND","ND","ND","ND"],
    [14333,"02/14/2016 20:00","21,4","3,22","ND","ND","ND","ND"],
    [14334,"02/14/2016 21:00","17,2","3,12","ND","ND","ND","ND"],
    [14335,"02/14/2016 22:00","22,9","3,29","ND","ND","ND","ND"],
    [14336,"02/14/2016 23:00","47,6","4,06","ND","ND","ND","ND"],
    [14337,"02/15/2016 00:00","40,2","4,26","ND","ND","ND","ND"],
    [14338,"02/15/2016 01:00","27,9","3,79","ND","ND","ND","ND"],
    [14339,"02/15/2016 02:00","26,1","3,34","ND","ND","ND","ND"],
    [14340,"02/15/2016 03:00","21,4","3,4","ND","ND","ND","ND"],
    [14341,"02/15/2016 04:00","19,2","3,42","ND","ND","ND","ND"],
    [14342,"02/15/2016 05:00","18,7","3,43","ND","ND","ND","ND"],
    [14343,"02/15/2016 06:00","64,1","3,65","ND","ND","ND","ND"],
    [14344,"02/15/2016 07:00","66,6","4,2","ND","ND","ND","ND"],
    [14345,"02/15/2016 08:00","74,1","5,75","ND","ND","ND","ND"],
    [14346,"02/15/2016 09:00","78,2","8,68","ND","ND","ND","ND"],
    [14347,"02/15/2016 10:00","85,6","11,51","ND","ND","ND","ND"],
    [14348,"02/15/2016 11:00","38,4","10,59","ND","ND","ND","ND"],
    [14349,"02/15/2016 12:00","44","8,22","ND","ND","ND","ND"],
    [14350,"02/15/2016 13:00","49,3","8,12","ND","ND","ND","ND"],
    [14351,"02/15/2016 14:00","48,5","8,42","ND","ND","ND","ND"],
    [14352,"02/15/2016 15:00","53,4","8,71","ND","ND","ND","ND"],
    [14353,"02/15/2016 16:00","41,1","5,73","ND","ND","ND","ND"],
    [14354,"02/15/2016 17:00","28,5","4,74","ND","ND","ND","ND"],
    [14355,"02/15/2016 18:00","28","4,63","ND","ND","ND","ND"],
    [14356,"02/15/2016 19:00","24,9","4,91","ND","ND","ND","ND"],
    [14357,"02/15/2016 20:00","28,1","4,35","ND","ND","ND","ND"],
    [14358,"02/15/2016 21:00","47,7","4,92","ND","ND","ND","ND"],
    [14359,"02/15/2016 22:00","54,7","4,86","ND","ND","ND","ND"],
    [14360,"02/15/2016 23:00","68,6","5,65","ND","ND","ND","ND"],
    [14361,"02/16/2016 00:00","51,7","4,8","ND","ND","ND","ND"],
    [14362,"02/16/2016 01:00","38,6","4,55","ND","ND","ND","ND"],
    [14363,"02/16/2016 02:00","31,9","4,48","ND","ND","ND","ND"],
    [14364,"02/16/2016 03:00","31,5","4,21","ND","ND","ND","ND"],
    [14365,"02/16/2016 04:00","34,1","3,94","ND","ND","ND","ND"],
    [14366,"02/16/2016 05:00","39,4","4,29","ND","ND","ND","ND"],
    [14367,"02/16/2016 06:00","65,4","4,72","ND","ND","ND","ND"],
    [14368,"02/16/2016 07:00","83,8","5,45","ND","ND","ND","ND"],
    [14369,"02/16/2016 08:00","87,5","6,17","ND","ND","ND","ND"],
    [14370,"02/16/2016 09:00","109,4","6,89","ND","ND","ND","ND"],
    [14371,"02/16/2016 10:00","71,7","9,44","ND","ND","ND","ND"],
    [14372,"02/16/2016 11:00","55","7,49","ND","ND","ND","ND"],
    [14373,"02/16/2016 12:00","66,7","7,09","ND","ND","ND","ND"],
    [14374,"02/16/2016 13:00","66,5","7,52","ND","ND","ND","ND"],
    [14375,"02/16/2016 14:00","76,4","8,63","ND","ND","ND","ND"],
    [14376,"02/16/2016 15:00","74,2","9,24","ND","ND","ND","ND"],
    [14377,"02/16/2016 16:00","77,3","9,49","ND","ND","ND","ND"],
    [14378,"02/16/2016 17:00","95","9,69","ND","ND","ND","ND"],
    [14379,"02/16/2016 18:00","42,8","6,59","ND","ND","ND","ND"],
    [14380,"02/16/2016 19:00","31,3","5,01","ND","ND","ND","ND"],
    [14381,"02/16/2016 20:00","39,1","5,72","ND","ND","ND","ND"],
    [14382,"02/16/2016 21:00","24,3","5,13","ND","ND","ND","ND"],
    [14383,"02/16/2016 22:00","43,9","5,32","ND","ND","ND","ND"],
    [14384,"02/16/2016 23:00","69,2","5,68","ND","ND","ND","ND"],
    [14385,"02/17/2016 00:00","68,1","5,59","ND","ND","ND","ND"],
    [14386,"02/17/2016 01:00","59,9","5,25","ND","ND","ND","ND"],
    [14387,"02/17/2016 02:00","51,5","5,34","ND","ND","ND","ND"],
    [14388,"02/17/2016 03:00","47,4","5,08","ND","ND","ND","ND"],
    [14389,"02/17/2016 04:00","47,7","4,93","ND","ND","ND","ND"],
    [14390,"02/17/2016 05:00","51,9","4,85","ND","ND","ND","ND"],
    [14391,"02/17/2016 06:00","67,6","5,13","ND","ND","ND","ND"],
    [14392,"02/17/2016 07:00","96,5","5,93","ND","ND","ND","ND"],
    [14393,"02/17/2016 08:00","90,5","6,82","ND","ND","ND","ND"],
    [14394,"02/17/2016 09:00","102,4","10,49","ND","ND","ND","ND"],
    [14395,"02/17/2016 10:00","65,6","19,29","ND","ND","ND","ND"],
    [14396,"02/17/2016 11:00","54,4","0","ND","ND","ND","ND"],
    [14397,"02/17/2016 12:00","48,7","8,05","ND","ND","ND","ND"],
    [14398,"02/17/2016 13:00","49","6,85","ND","ND","ND","ND"],
    [14399,"02/17/2016 14:00","21,7","4,51","ND","ND","ND","ND"],
    [14400,"02/17/2016 15:00","17,9","4,26","ND","ND","ND","ND"],
    [14401,"02/17/2016 16:00","21,1","4,51","ND","ND","ND","ND"],
    [14402,"02/17/2016 17:00","28,4","4,74","ND","ND","ND","ND"],
    [14403,"02/17/2016 18:00","31,8","4,61","ND","ND","ND","ND"],
    [14404,"02/17/2016 19:00","20,2","4,41","ND","ND","ND","ND"],
    [14405,"02/17/2016 20:00","33,1","4,81","ND","ND","ND","ND"],
    [14406,"02/17/2016 21:00","36,5","4,87","ND","ND","ND","ND"],
    [14407,"02/17/2016 22:00","38,2","4,97","ND","ND","ND","ND"],
    [14408,"02/17/2016 23:00","37,8","4,88","ND","ND","ND","ND"],
    [14409,"02/18/2016 00:00","32,2","4,47","ND","ND","ND","ND"],
    [14410,"02/18/2016 01:00","19,1","4,17","ND","ND","ND","ND"],
    [14411,"02/18/2016 02:00","31,1","4,58","ND","ND","ND","ND"],
    [14412,"02/18/2016 03:00","36,3","5,5","ND","ND","ND","ND"],
    [14413,"02/18/2016 04:00","24,9","5,19","ND","ND","ND","ND"],
    [14414,"02/18/2016 05:00","29,6","4,59","ND","ND","ND","ND"],
    [14415,"02/18/2016 06:00","45,3","4,91","ND","ND","ND","ND"],
    [14416,"02/18/2016 07:00","61,5","5,74","ND","ND","ND","ND"],
    [14417,"02/18/2016 08:00","67,2","5,65","ND","ND","ND","ND"],
    [14418,"02/18/2016 09:00","71,6","8,12","ND","ND","ND","ND"],
    [14419,"02/18/2016 10:00","64,6","13,31","ND","ND","ND","ND"],
    [14420,"02/18/2016 11:00","64,1","16,19","ND","ND","ND","ND"],
    [14421,"02/18/2016 12:00","46,8","12,92","ND","ND","ND","ND"],
    [14422,"02/18/2016 13:00","50,3","10,84","ND","ND","ND","ND"],
    [14423,"02/18/2016 14:00","39,7","8,14","ND","ND","ND","ND"],
    [14424,"02/18/2016 15:00","46,8","6,7","ND","ND","ND","ND"],
    [14425,"02/18/2016 16:00","53,1","6,13","ND","ND","ND","ND"],
    [14426,"02/18/2016 17:00","51,4","5,68","ND","ND","ND","ND"],
    [14427,"02/18/2016 18:00","26,7","4,75","ND","ND","ND","ND"],
    [14428,"02/18/2016 19:00","22","4,62","ND","ND","ND","ND"],
    [14429,"02/18/2016 20:00","14","4,44","ND","ND","ND","ND"],
    [14430,"02/18/2016 21:00","43,9","4,9","ND","ND","ND","ND"],
    [14431,"02/18/2016 22:00","57,8","5,94","ND","ND","ND","ND"],
    [14432,"02/18/2016 23:00","82,1","6","ND","ND","ND","ND"],
    [14433,"02/19/2016 00:00","58,3","5","ND","ND","ND","ND"],
    [14434,"02/19/2016 01:00","58,3","4,74","ND","ND","ND","ND"],
    [14435,"02/19/2016 02:00","40","4,55","ND","ND","ND","ND"],
    [14436,"02/19/2016 03:00","41,6","4,95","ND","ND","ND","ND"],
    [14437,"02/19/2016 04:00","38,6","4,8","ND","ND","ND","ND"],
    [14438,"02/19/2016 05:00","38,3","4,39","ND","ND","ND","ND"],
    [14439,"02/19/2016 06:00","48,7","4,4","ND","ND","ND","ND"],
    [14440,"02/19/2016 07:00","75,8","9,18","ND","ND","ND","ND"],
    [14441,"02/19/2016 08:00","125,5","11,43","ND","ND","ND","ND"],
    [14442,"02/19/2016 09:00","79,5","12,77","ND","ND","ND","ND"],
    [14443,"02/19/2016 10:00","52","17,95","ND","ND","ND","ND"],
    [14444,"02/19/2016 11:00","50,6","10,88","ND","ND","ND","ND"],
    [14445,"02/19/2016 12:00","43,5","8,04","ND","ND","ND","ND"],
    [14446,"02/19/2016 13:00","44,9","7,07","ND","ND","ND","ND"],
    [14447,"02/19/2016 14:00","38","6,19","ND","ND","ND","ND"],
    [14448,"02/19/2016 15:00","42,5","5,35","ND","ND","ND","ND"],
    [14449,"02/19/2016 16:00","39,7","4,73","ND","ND","ND","ND"],
    [14450,"02/19/2016 17:00","31,1","4,61","ND","ND","ND","ND"],
    [14451,"02/19/2016 18:00","40,4","4,5","ND","ND","ND","ND"],
    [14452,"02/19/2016 19:00","32,1","4,35","ND","ND","ND","ND"],
    [14453,"02/19/2016 20:00","25,3","4,13","ND","ND","ND","ND"],
    [14454,"02/19/2016 21:00","18,7","3,78","ND","ND","ND","ND"],
    [14455,"02/19/2016 22:00","17,6","3,7","ND","ND","ND","ND"],
    [14456,"02/19/2016 23:00","30,9","4,05","ND","ND","ND","ND"],
    [14457,"02/20/2016 00:00","59","4,31","ND","ND","ND","ND"],
    [14458,"02/20/2016 01:00","40,9","4,23","ND","ND","ND","ND"],
    [14459,"02/20/2016 02:00","27,1","4,07","ND","ND","ND","ND"],
    [14460,"02/20/2016 03:00","30,6","3,93","ND","ND","ND","ND"],
    [14461,"02/20/2016 04:00","37,8","4,44","ND","ND","ND","ND"],
    [14462,"02/20/2016 05:00","42,7","4,61","ND","ND","ND","ND"],
    [14463,"02/20/2016 06:00","35","4,4","ND","ND","ND","ND"],
    [14464,"02/20/2016 07:00","47,4","4,21","ND","ND","ND","ND"],
    [14465,"02/20/2016 08:00","102,7","7,23","ND","ND","ND","ND"],
    [14466,"02/20/2016 09:00","66,9","13,67","ND","ND","ND","ND"],
    [14467,"02/20/2016 10:00","72,9","13,87","ND","ND","ND","ND"],
    [14468,"02/20/2016 11:00","56,1","9,93","ND","ND","ND","ND"],
    [14469,"02/20/2016 12:00","68,3","8,6","ND","ND","ND","ND"],
    [14470,"02/20/2016 13:00","66,2","7,87","ND","ND","ND","ND"],
    [14471,"02/20/2016 14:00","21,3","4,41","ND","ND","ND","ND"],
    [14472,"02/20/2016 15:00","27,6","3,84","ND","ND","ND","ND"],
    [14473,"02/20/2016 16:00","34,1","3,87","ND","ND","ND","ND"],
    [14474,"02/20/2016 17:00","27","3,57","ND","ND","ND","ND"],
    [14475,"02/20/2016 18:00","18,3","3,64","ND","ND","ND","ND"],
    [14476,"02/20/2016 19:00","11,7","3,59","ND","ND","ND","ND"],
    [14477,"02/20/2016 20:00","13,8","3,56","ND","ND","ND","ND"],
    [14478,"02/20/2016 21:00","15,1","3,39","ND","ND","ND","ND"],
    [14479,"02/20/2016 22:00","30,9","4,18","ND","ND","ND","ND"],
    [14480,"02/20/2016 23:00","16,4","4,91","ND","ND","ND","ND"],
    [14481,"02/21/2016 00:00","46,2","3,77","ND","ND","ND","ND"],
    [14482,"02/21/2016 01:00","8,8","3,66","ND","ND","ND","ND"],
    [14483,"02/21/2016 02:00","19,4","3,48","ND","ND","ND","ND"],
    [14484,"02/21/2016 03:00","4,8","3,64","ND","ND","ND","ND"],
    [14485,"02/21/2016 04:00","15,3","3,56","ND","ND","ND","ND"],
    [14486,"02/21/2016 05:00","14,4","3,26","ND","ND","ND","ND"],
    [14487,"02/21/2016 06:00","15,1","3,25","ND","ND","ND","ND"],
    [14488,"02/21/2016 07:00","20,6","3,83","ND","ND","ND","ND"],
    [14489,"02/21/2016 08:00","32,3","13,49","ND","ND","ND","ND"],
    [14490,"02/21/2016 09:00","32,8","12,68","ND","ND","ND","ND"],
    [14491,"02/21/2016 10:00","41,5","11,07","ND","ND","ND","ND"],
    [14492,"02/21/2016 11:00","41","21,71","ND","ND","ND","ND"],
    [14493,"02/21/2016 12:00","25,3","18,5","ND","ND","ND","ND"],
    [14494,"02/21/2016 13:00","27,3","8,02","ND","ND","ND","ND"],
    [14495,"02/21/2016 14:00","35,5","5,63","ND","ND","ND","ND"],
    [14496,"02/21/2016 15:00","17,7","4,48","ND","ND","ND","ND"],
    [14497,"02/21/2016 16:00","18,8","3,54","ND","ND","ND","ND"],
    [14498,"02/21/2016 17:00","26,3","5,1","ND","ND","ND","ND"],
    [14499,"02/21/2016 18:00","ND","6,22","ND","ND","ND","ND"],
    [14500,"02/21/2016 19:00","16,8","4,39","ND","ND","ND","ND"],
    [14501,"02/21/2016 20:00","24,1","5,74","ND","ND","ND","ND"],
    [14502,"02/21/2016 21:00","34,1","5,17","ND","ND","ND","ND"],
    [14503,"02/21/2016 22:00","15,7","5,07","ND","ND","ND","ND"],
    [14504,"02/21/2016 23:00","26","4,43","ND","ND","ND","ND"],
    [14505,"02/22/2016 00:00","11,9","3,89","ND","ND","ND","ND"],
    [14506,"02/22/2016 01:00","13,1","3,81","ND","ND","ND","ND"],
    [14507,"02/22/2016 02:00","7,9","3,69","ND","ND","ND","ND"],
    [14508,"02/22/2016 03:00","7,7","3,34","ND","ND","ND","ND"],
    [14509,"02/22/2016 04:00","9,2","3,44","ND","ND","ND","ND"],
    [14510,"02/22/2016 05:00","11,4","3,25","ND","ND","ND","ND"],
    [14511,"02/22/2016 06:00","18,7","3,54","ND","ND","ND","ND"],
    [14512,"02/22/2016 07:00","20,8","5,39","ND","ND","ND","ND"],
    [14513,"02/22/2016 08:00","19,8","6,09","ND","ND","ND","ND"],
    [14514,"02/22/2016 09:00","24,4","5,86","ND","ND","ND","ND"],
    [14515,"02/22/2016 10:00","32,5","6,14","ND","ND","ND","ND"],
    [14516,"02/22/2016 11:00","22,6","5,63","ND","ND","ND","ND"],
    [14517,"02/22/2016 12:00","25,7","4,82","ND","ND","ND","ND"],
    [14518,"02/22/2016 13:00","21,8","4,06","ND","ND","ND","ND"],
    [14519,"02/22/2016 14:00","22,2","3,93","ND","ND","ND","ND"],
    [14520,"02/22/2016 15:00","33,6","4,58","ND","ND","ND","ND"],
    [14521,"02/22/2016 16:00","41,3","9,56","ND","ND","ND","ND"],
    [14522,"02/22/2016 17:00","44,7","9,86","ND","ND","ND","ND"],
    [14523,"02/22/2016 18:00","38,4","8,09","ND","ND","ND","ND"],
    [14524,"02/22/2016 19:00","19","4,88","ND","ND","ND","ND"],
    [14525,"02/22/2016 20:00","40,9","5","ND","ND","ND","ND"],
    [14526,"02/22/2016 21:00","42,7","5,29","ND","ND","ND","ND"],
    [14527,"02/22/2016 22:00","46,1","5,32","ND","ND","ND","ND"],
    [14528,"02/22/2016 23:00","43,9","4,45","ND","ND","ND","ND"],
    [14529,"02/23/2016 00:00","45,5","4,28","ND","ND","ND","ND"],
    [14530,"02/23/2016 01:00","34,4","4,01","ND","ND","ND","ND"],
    [14531,"02/23/2016 02:00","34,7","4,05","ND","ND","ND","ND"],
    [14532,"02/23/2016 03:00","37,8","3,81","ND","ND","ND","ND"],
    [14533,"02/23/2016 04:00","28,3","4","ND","ND","ND","ND"],
    [14534,"02/23/2016 05:00","41,5","3,88","ND","ND","ND","ND"],
    [14535,"02/23/2016 06:00","41,9","4,11","ND","ND","ND","ND"],
    [14536,"02/23/2016 07:00","78,2","4,83","ND","ND","ND","ND"],
    [14537,"02/23/2016 08:00","79","5,13","ND","ND","ND","ND"],
    [14538,"02/23/2016 09:00","55,2","5,98","ND","ND","ND","ND"],
    [14539,"02/23/2016 10:00","36,6","5,46","ND","ND","ND","ND"],
    [14540,"02/23/2016 11:00","46,6","5,31","ND","ND","ND","ND"],
    [14541,"02/23/2016 12:00","44,8","5,44","ND","ND","ND","ND"],
    [14542,"02/23/2016 13:00","50","5,26","ND","ND","ND","ND"],
    [14543,"02/23/2016 14:00","50","5,06","ND","ND","ND","ND"],
    [14544,"02/23/2016 15:00","29,2","4,02","ND","ND","ND","ND"],
    [14545,"02/23/2016 16:00","11","3,56","ND","ND","ND","ND"],
    [14546,"02/23/2016 17:00","12","3,53","ND","ND","ND","ND"],
    [14547,"02/23/2016 18:00","32,4","4,24","ND","ND","ND","ND"],
    [14548,"02/23/2016 19:00","44,3","4,95","ND","ND","ND","ND"],
    [14549,"02/23/2016 20:00","65,5","5,01","ND","ND","ND","ND"],
    [14550,"02/23/2016 21:00","54,8","5,18","ND","ND","ND","ND"],
    [14551,"02/23/2016 22:00","51","4,32","ND","ND","ND","ND"],
    [14552,"02/23/2016 23:00","46,5","4,13","ND","ND","ND","ND"],
    [14553,"02/24/2016 00:00","46,8","4,14","ND","ND","ND","ND"],
    [14554,"02/24/2016 01:00","61,8","4,52","ND","ND","ND","ND"],
    [14555,"02/24/2016 02:00","35,3","4,1","ND","ND","ND","ND"],
    [14556,"02/24/2016 03:00","39,3","3,87","ND","ND","ND","ND"],
    [14557,"02/24/2016 04:00","33,5","3,64","ND","ND","ND","ND"],
    [14558,"02/24/2016 05:00","37,8","3,6","ND","ND","ND","ND"],
    [14559,"02/24/2016 06:00","55,1","4,09","ND","ND","ND","ND"],
    [14560,"02/24/2016 07:00","74,7","4,41","ND","ND","ND","ND"],
    [14561,"02/24/2016 08:00","75,5","5,12","ND","ND","ND","ND"],
    [14562,"02/24/2016 09:00","ND","5,55","ND","ND","ND","ND"],
    [14563,"02/24/2016 10:00","ND","8,87","ND","ND","ND","ND"],
    [14564,"02/24/2016 11:00","ND","14,02","ND","ND","ND","ND"],
    [14565,"02/24/2016 12:00","ND","10,2","ND","ND","ND","ND"],
    [14566,"02/24/2016 13:00","31,4","6,69","ND","ND","ND","ND"],
    [14567,"02/24/2016 14:00","9,6","4,27","ND","ND","ND","ND"],
    [14568,"02/24/2016 15:00","15","4,2","ND","ND","ND","ND"],
    [14569,"02/24/2016 16:00","ND","4,02","ND","ND","ND","ND"],
    [14570,"02/24/2016 17:00","ND","4,63","ND","ND","ND","ND"],
    [14571,"02/24/2016 18:00","ND","4,9","ND","ND","ND","ND"],
    [14572,"02/24/2016 19:00","ND","10,13","ND","ND","ND","ND"],
    [14573,"02/24/2016 20:00","65,3","20,77","ND","ND","ND","ND"],
    [14574,"02/24/2016 21:00","63,9","9,26","ND","ND","ND","ND"],
    [14575,"02/24/2016 22:00","71,5","7,86","ND","ND","ND","ND"],
    [14576,"02/24/2016 23:00","62","8,92","ND","ND","ND","ND"],
    [14577,"02/25/2016 00:00","42,2","6,35","ND","ND","ND","ND"],
    [14578,"02/25/2016 01:00","30,1","5,08","ND","ND","ND","ND"],
    [14579,"02/25/2016 02:00","29,4","4,79","ND","ND","ND","ND"],
    [14580,"02/25/2016 03:00","45,1","5,75","ND","ND","ND","ND"],
    [14581,"02/25/2016 04:00","49,4","5,69","ND","ND","ND","ND"],
    [14582,"02/25/2016 05:00","33,9","4,75","ND","ND","ND","ND"],
    [14583,"02/25/2016 06:00","50,8","4,34","ND","ND","ND","ND"],
    [14584,"02/25/2016 07:00","69,2","4,6","ND","ND","ND","ND"],
    [14585,"02/25/2016 08:00","70,1","4,93","ND","ND","ND","ND"],
    [14586,"02/25/2016 09:00","57,2","5,66","ND","ND","ND","ND"],
    [14587,"02/25/2016 10:00","65,4","5,99","ND","ND","ND","ND"],
    [14588,"02/25/2016 11:00","57,5","6,6","ND","ND","ND","ND"],
    [14589,"02/25/2016 12:00","42,5","6,96","ND","ND","ND","ND"],
    [14590,"02/25/2016 13:00","49,1","5,92","ND","ND","ND","ND"],
    [14591,"02/25/2016 14:00","10,2","3,5","ND","ND","ND","ND"],
    [14592,"02/25/2016 15:00","14,1","3,29","ND","ND","ND","ND"],
    [14593,"02/25/2016 16:00","11","3,26","ND","ND","ND","ND"],
    [14594,"02/25/2016 17:00","13","3,28","ND","ND","ND","ND"],
    [14595,"02/25/2016 18:00","13,7","3,21","ND","ND","ND","ND"],
    [14596,"02/25/2016 19:00","42,6","4,94","ND","ND","ND","ND"],
    [14597,"02/25/2016 20:00","37,4","4,14","ND","ND","ND","ND"],
    [14598,"02/25/2016 21:00","32,2","3,91","ND","ND","ND","ND"],
    [14599,"02/25/2016 22:00","38,7","3,8","ND","ND","ND","ND"],
    [14600,"02/25/2016 23:00","16,1","3,49","ND","ND","ND","ND"],
    [14601,"02/26/2016 00:00","16,6","3","ND","ND","ND","ND"],
    [14602,"02/26/2016 01:00","10,7","3,01","ND","ND","ND","ND"],
    [14603,"02/26/2016 02:00","24","3,1","ND","ND","ND","ND"],
    [14604,"02/26/2016 03:00","9,8","3,06","ND","ND","ND","ND"],
    [14605,"02/26/2016 04:00","20,7","2,94","ND","ND","ND","ND"],
    [14606,"02/26/2016 05:00","18,6","3,02","ND","ND","ND","ND"],
    [14607,"02/26/2016 06:00","16,9","3,03","ND","ND","ND","ND"],
    [14608,"02/26/2016 07:00","28,5","3,09","ND","ND","ND","ND"],
    [14609,"02/26/2016 08:00","20,6","3,39","ND","ND","ND","ND"],
    [14610,"02/26/2016 09:00","28","3,27","ND","ND","ND","ND"],
    [14611,"02/26/2016 10:00","34,8","3,29","ND","ND","ND","ND"],
    [14612,"02/26/2016 11:00","25,1","3,03","ND","ND","ND","ND"],
    [14613,"02/26/2016 12:00","14,6","3,02","ND","ND","ND","ND"],
    [14614,"02/26/2016 13:00","22,9","3,14","ND","ND","ND","ND"],
    [14615,"02/26/2016 14:00","42,7","3,33","ND","ND","ND","ND"],
    [14616,"02/26/2016 15:00","44,8","4,59","ND","ND","ND","ND"],
    [14617,"02/26/2016 16:00","28,3","4,54","ND","ND","ND","ND"],
    [14618,"02/26/2016 17:00","18,5","3,4","ND","ND","ND","ND"],
    [14619,"02/26/2016 18:00","24","3,43","ND","ND","ND","ND"],
    [14620,"02/26/2016 19:00","22,3","3,24","ND","ND","ND","ND"],
    [14621,"02/26/2016 20:00","39,5","3,36","ND","ND","ND","ND"],
    [14622,"02/26/2016 21:00","19,4","3,19","ND","ND","ND","ND"],
    [14623,"02/26/2016 22:00","26","3,12","ND","ND","ND","ND"],
    [14624,"02/26/2016 23:00","35,6","3,23","ND","ND","ND","ND"],
    [14625,"02/27/2016 00:00","25,6","3,14","ND","ND","ND","ND"],
    [14626,"02/27/2016 01:00","26,2","3,03","ND","ND","ND","ND"],
    [14627,"02/27/2016 02:00","26,6","2,9","ND","ND","ND","ND"],
    [14628,"02/27/2016 03:00","34,1","3,57","ND","ND","ND","ND"],
    [14629,"02/27/2016 04:00","26,7","3,38","ND","ND","ND","ND"],
    [14630,"02/27/2016 05:00","26,1","2,98","ND","ND","ND","ND"],
    [14631,"02/27/2016 06:00","24,1","2,86","ND","ND","ND","ND"],
    [14632,"02/27/2016 07:00","32,3","3,16","ND","ND","ND","ND"],
    [14633,"02/27/2016 08:00","47,6","3,85","ND","ND","ND","ND"],
    [14634,"02/27/2016 09:00","61,4","6,43","ND","ND","ND","ND"],
    [14635,"02/27/2016 10:00","59,3","7,6","ND","ND","ND","ND"],
    [14636,"02/27/2016 11:00","38,6","6,7","ND","ND","ND","ND"],
    [14637,"02/27/2016 12:00","30,6","4,39","ND","ND","ND","ND"],
    [14638,"02/27/2016 13:00","35,9","6,03","ND","ND","ND","ND"],
    [14639,"02/27/2016 14:00","41,8","4,94","ND","ND","ND","ND"],
    [14640,"02/27/2016 15:00","36,5","4,11","ND","ND","ND","ND"],
    [14641,"02/27/2016 16:00","13,8","3","ND","ND","ND","ND"],
    [14642,"02/27/2016 17:00","9,3","2,8","ND","ND","ND","ND"],
    [14643,"02/27/2016 18:00","7,5","2,56","ND","ND","ND","ND"],
    [14644,"02/27/2016 19:00","10,5","2,65","ND","ND","ND","ND"],
    [14645,"02/27/2016 20:00","10","2,73","ND","ND","ND","ND"],
    [14646,"02/27/2016 21:00","25,3","2,9","ND","ND","ND","ND"],
    [14647,"02/27/2016 22:00","45","4,08","ND","ND","ND","ND"],
    [14648,"02/27/2016 23:00","53,2","5,19","ND","ND","ND","ND"],
    [14649,"02/28/2016 00:00","42,6","5,63","ND","ND","ND","ND"],
    [14650,"02/28/2016 01:00","39,8","4,63","ND","ND","ND","ND"],
    [14651,"02/28/2016 02:00","50,2","4,7","ND","ND","ND","ND"],
    [14652,"02/28/2016 03:00","40,1","4,37","ND","ND","ND","ND"],
    [14653,"02/28/2016 04:00","40,6","3,61","ND","ND","ND","ND"],
    [14654,"02/28/2016 05:00","27,1","3,44","ND","ND","ND","ND"],
    [14655,"02/28/2016 06:00","45,2","3,59","ND","ND","ND","ND"],
    [14656,"02/28/2016 07:00","35,5","3,68","ND","ND","ND","ND"],
    [14657,"02/28/2016 08:00","40","3,63","ND","ND","ND","ND"],
    [14658,"02/28/2016 09:00","40","7,77","ND","ND","ND","ND"],
    [14659,"02/28/2016 10:00","57","9,7","ND","ND","ND","ND"],
    [14660,"02/28/2016 11:00","46","10,81","ND","ND","ND","ND"],
    [14661,"02/28/2016 12:00","38,4","12,71","ND","ND","ND","ND"],
    [14662,"02/28/2016 13:00","54,6","8,13","ND","ND","ND","ND"],
    [14663,"02/28/2016 14:00","38,9","6,85","ND","ND","ND","ND"],
    [14664,"02/28/2016 15:00","15,9","3,91","ND","ND","ND","ND"],
    [14665,"02/28/2016 16:00","15,3","3,12","ND","ND","ND","ND"],
    [14666,"02/28/2016 17:00","13,7","2,88","ND","ND","ND","ND"],
    [14667,"02/28/2016 18:00","11,9","2,63","ND","ND","ND","ND"],
    [14668,"02/28/2016 19:00","12","2,86","ND","ND","ND","ND"],
    [14669,"02/28/2016 20:00","25,4","3,25","ND","ND","ND","ND"],
    [14670,"02/28/2016 21:00","36,6","3,71","ND","ND","ND","ND"],
    [14671,"02/28/2016 22:00","47,1","4,12","ND","ND","ND","ND"],
    [14672,"02/28/2016 23:00","37","3,58","ND","ND","ND","ND"],
    [14673,"02/29/2016 00:00","36,4","3,31","ND","ND","ND","ND"],
    [14674,"02/29/2016 01:00","18","3,13","ND","ND","ND","ND"],
    [14675,"02/29/2016 02:00","24","3,36","ND","ND","ND","ND"],
    [14676,"02/29/2016 03:00","30","3,29","ND","ND","ND","ND"],
    [14677,"02/29/2016 04:00","20,1","2,85","ND","ND","ND","ND"],
    [14678,"02/29/2016 05:00","25,8","2,62","ND","ND","ND","ND"],
    [14679,"02/29/2016 06:00","28,4","2,88","ND","ND","ND","ND"],
    [14680,"02/29/2016 07:00","37,9","3,13","ND","ND","ND","ND"],
    [14681,"02/29/2016 08:00","45,9","3,63","ND","ND","ND","ND"],
    [14682,"02/29/2016 09:00","44","4,15","ND","ND","ND","ND"],
    [14683,"02/29/2016 10:00","32,4","5,5","ND","ND","ND","ND"],
    [14684,"02/29/2016 11:00","38,6","10,54","ND","ND","ND","ND"],
    [14685,"02/29/2016 12:00","33","9,41","ND","ND","ND","ND"],
    [14686,"02/29/2016 13:00","38,5","7,22","ND","ND","ND","ND"],
    [14687,"02/29/2016 14:00","30,1","4,67","ND","ND","ND","ND"],
    [14688,"02/29/2016 15:00","8,3","2,92","ND","ND","ND","ND"],
    [14689,"02/29/2016 16:00","8,3","2,84","ND","ND","ND","ND"],
    [14690,"02/29/2016 17:00","10,3","2,68","ND","ND","ND","ND"],
    [14691,"02/29/2016 18:00","13,9","2,55","ND","ND","ND","ND"],
    [14692,"02/29/2016 19:00","10,6","2,55","ND","ND","ND","ND"],
    [14693,"02/29/2016 20:00","10,5","2,58","ND","ND","ND","ND"],
    [14694,"02/29/2016 21:00","11,3","2,61","ND","ND","ND","ND"],
    [14695,"02/29/2016 22:00","33,4","3,07","ND","ND","ND","ND"],
    [14696,"02/29/2016 23:00","44,7","5,99","ND","ND","ND","ND"],
    [14697,"42372","40,1","6,05","ND","ND","ND","ND"],
    [14698,"42372,04167","34,3","6,03","ND","ND","ND","ND"],
    [14699,"42372,08333","32,3","4,9","ND","ND","ND","ND"],
    [14700,"42372,125","28,5","4,04","ND","ND","ND","ND"],
    [14701,"42372,16667","26,6","5,4","ND","ND","ND","ND"],
    [14702,"42372,20833","30,6","4,35","ND","ND","ND","ND"],
    [14703,"42372,25","36,5","3,98","ND","ND","ND","ND"],
    [14704,"42372,29167","56,9","4,14","ND","ND","ND","ND"],
    [14705,"42372,33333","40,1","4,51","ND","ND","ND","ND"],
    [14706,"42372,375","54","7,42","ND","ND","ND","ND"],
    [14707,"42372,41667","50,7","10,69","ND","ND","ND","ND"],
    [14708,"42372,45833","45,7","8,8","ND","ND","ND","ND"],
    [14709,"42372,5","57,8","8,1","ND","ND","ND","ND"],
    [14710,"42372,54167","20,4","5,21","ND","ND","ND","ND"],
    [14711,"42372,58333","20,4","4,74","ND","ND","ND","ND"],
    [14712,"42372,625","18,5","3,25","ND","ND","ND","ND"],
    [14713,"42372,66667","14,6","2,65","ND","ND","ND","ND"],
    [14714,"42372,70833","15,1","2,62","ND","ND","ND","ND"],
    [14715,"42372,75","13,9","2,46","ND","ND","ND","ND"],
    [14716,"42372,79167","14","2,41","ND","ND","ND","ND"],
    [14717,"42372,83333","31","3,12","ND","ND","ND","ND"],
    [14718,"42372,875","29,2","3,46","ND","ND","ND","ND"],
    [14719,"42372,91667","38,8","3,3","ND","ND","ND","ND"],
    [14720,"42372,95833","29,7","3,12","ND","ND","ND","ND"],
    [14721,"42403","29,9","3,35","ND","ND","ND","ND"],
    [14722,"42403,04167","16,9","2,65","ND","ND","ND","ND"],
    [14723,"42403,08333","29,4","3,83","ND","ND","ND","ND"],
    [14724,"42403,125","24,6","7,07","ND","ND","ND","ND"],
    [14725,"42403,16667","18,5","5,14","ND","ND","ND","ND"],
    [14726,"42403,20833","13,7","3,2","ND","ND","ND","ND"],
    [14727,"42403,25","14,7","3,17","ND","ND","ND","ND"],
    [14728,"42403,29167","21,7","3,96","ND","ND","ND","ND"],
    [14729,"42403,33333","26,2","4,4","ND","ND","ND","ND"],
    [14730,"42403,375","27,7","3,9","ND","ND","ND","ND"],
    [14731,"42403,41667","43,8","4,35","ND","ND","ND","ND"],
    [14732,"42403,45833","32,2","165,84","ND","ND","ND","ND"],
    [14733,"42403,5","ND","6,73","ND","ND","ND","ND"],
    [14734,"42403,54167","ND","7,05","ND","ND","ND","ND"],
    [14735,"42403,58333","ND","20,15","ND","ND","ND","ND"],
    [14736,"42403,625","ND","12,84","ND","ND","ND","ND"],
    [14737,"42403,66667","36,1","10,09","ND","ND","ND","ND"],
    [14738,"42403,70833","21,7","6,55","ND","ND","ND","ND"],
    [14739,"42403,75","21,7","4,8","ND","ND","ND","ND"],
    [14740,"42403,79167","33,5","6,97","ND","ND","ND","ND"],
    [14741,"42403,83333","57,2","5,27","ND","ND","ND","ND"],
    [14742,"42403,875","45,1","4,38","ND","ND","ND","ND"],
    [14743,"42403,91667","36,2","3,98","ND","ND","ND","ND"],
    [14744,"42403,95833","36,2","3,54","ND","ND","ND","ND"],
    [14745,"42432","24,8","4,45","ND","ND","ND","ND"],
    [14746,"42432,04167","39,6","3,72","ND","ND","ND","ND"],
    [14747,"42432,08333","32,9","3,59","ND","ND","ND","ND"],
    [14748,"42432,125","33,7","3,51","ND","ND","ND","ND"],
    [14749,"42432,16667","37,5","4,3","ND","ND","ND","ND"],
    [14750,"42432,20833","41,8","4,72","ND","ND","ND","ND"],
    [14751,"42432,25","52,2","5,19","ND","ND","ND","ND"],
    [14752,"42432,29167","63,2","7,6","ND","ND","ND","ND"],
    [14753,"42432,33333","63,3","6,79","ND","ND","ND","ND"],
    [14754,"42432,375","60,5","5,61","ND","ND","ND","ND"],
    [14755,"42432,41667","83,3","8,04","ND","ND","ND","ND"],
    [14756,"42432,45833","66","6,45","ND","ND","ND","ND"],
    [14757,"42432,5","43,1","4,66","ND","ND","ND","ND"],
    [14758,"42432,54167","58,4","4,51","ND","ND","ND","ND"],
    [14759,"42432,58333","39,8","3,85","ND","ND","ND","ND"],
    [14760,"42432,625","17,5","2,7","ND","ND","ND","ND"],
    [14761,"42432,66667","11,2","2,59","ND","ND","ND","ND"],
    [14762,"42432,70833","13,3","2,73","ND","ND","ND","ND"],
    [14763,"42432,75","11,3","3,64","ND","ND","ND","ND"],
    [14764,"42432,79167","16,6","4,22","ND","ND","ND","ND"],
    [14765,"42432,83333","27,1","4,32","ND","ND","ND","ND"],
    [14766,"42432,875","35","4,74","ND","ND","ND","ND"],
    [14767,"42432,91667","30,7","5,16","ND","ND","ND","ND"],
    [14768,"42432,95833","21,1","4,56","ND","ND","ND","ND"],
    [14769,"42463","42,3","3,12","ND","ND","ND","ND"],
    [14770,"42463,04167","29,6","4,48","ND","ND","ND","ND"],
    [14771,"42463,08333","29,8","4,48","ND","ND","ND","ND"],
    [14772,"42463,125","34","9,51","ND","ND","ND","ND"],
    [14773,"42463,16667","26","6,63","ND","ND","ND","ND"],
    [14774,"42463,20833","29,9","8,36","ND","ND","ND","ND"],
    [14775,"42463,25","5,6","4,77","ND","ND","ND","ND"],
    [14776,"42463,29167","17,6","4,95","ND","ND","ND","ND"],
    [14777,"42463,33333","35","5,82","ND","ND","ND","ND"],
    [14778,"42463,375","36","5,63","ND","ND","ND","ND"],
    [14779,"42463,41667","25,7","5,45","ND","ND","ND","ND"],
    [14780,"42463,45833","24,3","4,74","ND","ND","ND","ND"],
    [14781,"42463,5","15,8","3,28","ND","ND","ND","ND"],
    [14782,"42463,54167","5,8","2,91","ND","ND","ND","ND"],
    [14783,"42463,58333","20,3","3,62","ND","ND","ND","ND"],
    [14784,"42463,625","22,4","2,99","ND","ND","ND","ND"],
    [14785,"42463,66667","28,1","2,75","ND","ND","ND","ND"],
    [14786,"42463,70833","13,7","2,91","ND","ND","ND","ND"],
    [14787,"42463,75","17,6","3,28","ND","ND","ND","ND"],
    [14788,"42463,79167","23,4","3,67","ND","ND","ND","ND"],
    [14789,"42463,83333","17,6","3,12","ND","ND","ND","ND"],
    [14790,"42463,875","20,6","2,8","ND","ND","ND","ND"],
    [14791,"42463,91667","28,9","2,7","ND","ND","ND","ND"],
    [14792,"42463,95833","50","2,8","ND","ND","ND","ND"],
    [14793,"42493","30,9","2,99","ND","ND","ND","ND"],
    [14794,"42493,04167","31,6","3,07","ND","ND","ND","ND"],
    [14795,"42493,08333","28,5","2,88","ND","ND","ND","ND"],
    [14796,"42493,125","27","2,57","ND","ND","ND","ND"],
    [14797,"42493,16667","24,7","2,38","ND","ND","ND","ND"],
    [14798,"42493,20833","29,7","2,44","ND","ND","ND","ND"],
    [14799,"42493,25","44,1","2,7","ND","ND","ND","ND"],
    [14800,"42493,29167","51","2,75","ND","ND","ND","ND"],
    [14801,"42493,33333","52,2","4,17","ND","ND","ND","ND"],
    [14802,"42493,375","74,6","11,53","ND","ND","ND","ND"],
    [14803,"42493,41667","51,2","14,23","ND","ND","ND","ND"],
    [14804,"42493,45833","36,4","8,99","ND","ND","ND","ND"],
    [14805,"42493,5","52,6","7,65","ND","ND","ND","ND"],
    [14806,"42493,54167","64,4","8,54","ND","ND","ND","ND"],
    [14807,"42493,58333","64,4","6,94","ND","ND","ND","ND"],
    [14808,"42493,625","5,9","3,2","ND","ND","ND","ND"],
    [14809,"42493,66667","10,8","2,75","ND","ND","ND","ND"],
    [14810,"42493,70833","9,9","2,49","ND","ND","ND","ND"],
    [14811,"42493,75","9,9","2,38","ND","ND","ND","ND"],
    [14812,"42493,79167","10,1","2,36","ND","ND","ND","ND"],
    [14813,"42493,83333","10,6","2,33","ND","ND","ND","ND"],
    [14814,"42493,875","27,7","2,67","ND","ND","ND","ND"],
    [14815,"42493,91667","39,4","3,28","ND","ND","ND","ND"],
    [14816,"42493,95833","39,2","2,99","ND","ND","ND","ND"],
    [14817,"42524","19,7","2,54","ND","ND","ND","ND"],
    [14818,"42524,04167","33,2","2,99","ND","ND","ND","ND"],
    [14819,"42524,08333","20,8","2,65","ND","ND","ND","ND"],
    [14820,"42524,125","19,9","2,28","ND","ND","ND","ND"],
    [14821,"42524,16667","15,5","2,15","ND","ND","ND","ND"],
    [14822,"42524,20833","15,4","2,1","ND","ND","ND","ND"],
    [14823,"42524,25","17,2","2,46","ND","ND","ND","ND"],
    [14824,"42524,29167","12,9","2,33","ND","ND","ND","ND"],
    [14825,"42524,33333","12,8","2,23","ND","ND","ND","ND"],
    [14826,"42524,375","16,2","2,33","ND","ND","ND","ND"],
    [14827,"42524,41667","22,4","3,25","ND","ND","ND","ND"],
    [14828,"42524,45833","23,8","6,76","ND","ND","ND","ND"],
    [14829,"42524,5","31,3","8,62","ND","ND","ND","ND"],
    [14830,"42524,54167","31,3","4,43","ND","ND","ND","ND"],
    [14831,"42524,58333","ND","2,7","ND","ND","ND","ND"],
    [14832,"42524,625","6,6","2,57","ND","ND","ND","ND"],
    [14833,"42524,66667","6,1","2,33","ND","ND","ND","ND"],
    [14834,"42524,70833","32,6","2,8","ND","ND","ND","ND"],
    [14835,"42524,75","18,9","2,62","ND","ND","ND","ND"],
    [14836,"42524,79167","13","2,7","ND","ND","ND","ND"],
    [14837,"42524,83333","12,1","2,57","ND","ND","ND","ND"],
    [14838,"42524,875","22,1","2,54","ND","ND","ND","ND"],
    [14839,"42524,91667","22,1","2,8","ND","ND","ND","ND"],
    [14840,"42524,95833","35,4","2,52","ND","ND","ND","ND"],
    [14841,"42554","32,8","4,14","ND","ND","ND","ND"],
    [14842,"42554,04167","23","2,33","ND","ND","ND","ND"],
    [14843,"42554,08333","17,2","2,12","ND","ND","ND","ND"],
    [14844,"42554,125","24,7","2,28","ND","ND","ND","ND"],
    [14845,"42554,16667","21,2","2,31","ND","ND","ND","ND"],
    [14846,"42554,20833","31,4","2,44","ND","ND","ND","ND"],
    [14847,"42554,25","46","2,54","ND","ND","ND","ND"],
    [14848,"42554,29167","59,1","3,04","ND","ND","ND","ND"],
    [14849,"42554,33333","61,1","4,27","ND","ND","ND","ND"],
    [14850,"42554,375","103","11,5","ND","ND","ND","ND"],
    [14851,"42554,41667","99,7","20,83","ND","ND","ND","ND"],
    [14852,"42554,45833","70,6","24","ND","ND","ND","ND"],
    [14853,"42554,5","47,5","15,2","ND","ND","ND","ND"],
    [14854,"42554,54167","44,3","8,44","ND","ND","ND","ND"],
    [14855,"42554,58333","43,7","7,44","ND","ND","ND","ND"],
    [14856,"42554,625","27,2","5,11","ND","ND","ND","ND"],
    [14857,"42554,66667","13,7","3,07","ND","ND","ND","ND"],
    [14858,"42554,70833","16,7","2,75","ND","ND","ND","ND"],
    [14859,"42554,75","17,8","2,65","ND","ND","ND","ND"],
    [14860,"42554,79167","30,1","3,22","ND","ND","ND","ND"],
    [14861,"42554,83333","40,5","3,48","ND","ND","ND","ND"],
    [14862,"42554,875","28,2","3,41","ND","ND","ND","ND"],
    [14863,"42554,91667","29,1","3,38","ND","ND","ND","ND"],
    [14864,"42554,95833","29,7","5,63","ND","ND","ND","ND"],
    [14865,"42585","38,9","2,88","ND","ND","ND","ND"],
    [14866,"42585,04167","23","3,17","ND","ND","ND","ND"],
    [14867,"42585,08333","29,1","2,83","ND","ND","ND","ND"],
    [14868,"42585,125","27,4","2,83","ND","ND","ND","ND"],
    [14869,"42585,16667","21,4","2,62","ND","ND","ND","ND"],
    [14870,"42585,20833","30","2,78","ND","ND","ND","ND"],
    [14871,"42585,25","53,5","2,78","ND","ND","ND","ND"],
    [14872,"42585,29167","88,1","3,56","ND","ND","ND","ND"],
    [14873,"42585,33333","73,1","3,62","ND","ND","ND","ND"],
    [14874,"42585,375","111","7,26","ND","ND","ND","ND"],
    [14875,"42585,41667","119,6","9,62","ND","ND","ND","ND"],
    [14876,"42585,45833","76,3","8,04","ND","ND","ND","ND"],
    [14877,"42585,5","56,4","6,39","ND","ND","ND","ND"],
    [14878,"42585,54167","42,6","5,48","ND","ND","ND","ND"],
    [14879,"42585,58333","47,7","4,72","ND","ND","ND","ND"],
    [14880,"42585,625","55,6","5,87","ND","ND","ND","ND"],
    [14881,"42585,66667","46","4,24","ND","ND","ND","ND"],
    [14882,"42585,70833","17,7","3,2","ND","ND","ND","ND"],
    [14883,"42585,75","18","2,67","ND","ND","ND","ND"],
    [14884,"42585,79167","22,1","2,7","ND","ND","ND","ND"],
    [14885,"42585,83333","42,5","3,07","ND","ND","ND","ND"],
    [14886,"42585,875","41","2,83","ND","ND","ND","ND"],
    [14887,"42585,91667","47,7","3,09","ND","ND","ND","ND"],
    [14888,"42585,95833","47,9","3,09","ND","ND","ND","ND"],
    [14889,"42616","41,6","2,07","ND","ND","ND","ND"],
    [14890,"42616,04167","36,8","2,73","ND","ND","ND","ND"],
    [14891,"42616,08333","30,6","2,54","ND","ND","ND","ND"],
    [14892,"42616,125","31,4","2,67","ND","ND","ND","ND"],
    [14893,"42616,16667","34,1","2,78","ND","ND","ND","ND"],
    [14894,"42616,20833","37,8","2,57","ND","ND","ND","ND"],
    [14895,"42616,25","47,3","2,83","ND","ND","ND","ND"],
    [14896,"42616,29167","74,4","3,75","ND","ND","ND","ND"],
    [14897,"42616,33333","73,2","5,4","ND","ND","ND","ND"],
    [14898,"42616,375","90,7","8,18","ND","ND","ND","ND"],
    [14899,"42616,41667","101","8,18","ND","ND","ND","ND"],
    [14900,"42616,45833","63,4","103,53","ND","ND","ND","ND"],
    [14901,"42616,5","54","6,5","ND","ND","ND","ND"],
    [14902,"42616,54167","56,2","6,6","ND","ND","ND","ND"],
    [14903,"42616,58333","57,6","4,85","ND","ND","ND","ND"],
    [14904,"42616,625","28,4","1,78","ND","ND","ND","ND"],
    [14905,"42616,66667","23,1","1,31","ND","ND","ND","ND"],
    [14906,"42616,70833","22,6","1,34","ND","ND","ND","ND"],
    [14907,"42616,75","26","1,31","ND","ND","ND","ND"],
    [14908,"42616,79167","27","1,57","ND","ND","ND","ND"],
    [14909,"42616,83333","48,4","2,52","ND","ND","ND","ND"],
    [14910,"42616,875","55,8","2,2","ND","ND","ND","ND"],
    [14911,"42616,91667","59,2","2,04","ND","ND","ND","ND"],
    [14912,"42616,95833","44,2","1,81","ND","ND","ND","ND"],
    [14913,"42646","28,3","2,99","ND","ND","ND","ND"],
    [14914,"42646,04167","41,6","3,12","ND","ND","ND","ND"],
    [14915,"42646,08333","50","3,25","ND","ND","ND","ND"],
    [14916,"42646,125","34","1,89","ND","ND","ND","ND"],
    [14917,"42646,16667","32,5","1,57","ND","ND","ND","ND"],
    [14918,"42646,20833","31,2","1,44","ND","ND","ND","ND"],
    [14919,"42646,25","44,9","1,6","ND","ND","ND","ND"],
    [14920,"42646,29167","78,3","2,44","ND","ND","ND","ND"],
    [14921,"42646,33333","85","3,09","ND","ND","ND","ND"],
    [14922,"42646,375","80,4","4,14","ND","ND","ND","ND"],
    [14923,"42646,41667","77,6","5,19","ND","ND","ND","ND"],
    [14924,"42646,45833","71,6","3,93","ND","ND","ND","ND"],
    [14925,"42646,5","61,9","4,01","ND","ND","ND","ND"],
    [14926,"42646,54167","70","3,8","ND","ND","ND","ND"],
    [14927,"42646,58333","31,5","2,7","ND","ND","ND","ND"],
    [14928,"42646,625","20,9","1,89","ND","ND","ND","ND"],
    [14929,"42646,66667","15,9","1,62","ND","ND","ND","ND"],
    [14930,"42646,70833","27,1","1,73","ND","ND","ND","ND"],
    [14931,"42646,75","20,4","1,68","ND","ND","ND","ND"],
    [14932,"42646,79167","20","1,62","ND","ND","ND","ND"],
    [14933,"42646,83333","72,8","5,69","ND","ND","ND","ND"],
    [14934,"42646,875","39,4","3,98","ND","ND","ND","ND"],
    [14935,"42646,91667","45,2","3,54","ND","ND","ND","ND"],
    [14936,"42646,95833","41,1","3,35","ND","ND","ND","ND"],
    [14937,"42677","41,5","2,31","ND","ND","ND","ND"],
    [14938,"42677,04167","21,1","2,25","ND","ND","ND","ND"],
    [14939,"42677,08333","24,6","2,38","ND","ND","ND","ND"],
    [14940,"42677,125","26,9","2,1","ND","ND","ND","ND"],
    [14941,"42677,16667","25,8","2,52","ND","ND","ND","ND"],
    [14942,"42677,20833","24,4","2,28","ND","ND","ND","ND"],
    [14943,"42677,25","29,7","3,14","ND","ND","ND","ND"],
    [14944,"42677,29167","37,7","6,11","ND","ND","ND","ND"],
    [14945,"42677,33333","58,1","6,81","ND","ND","ND","ND"],
    [14946,"42677,375","55,7","6,08","ND","ND","ND","ND"],
    [14947,"42677,41667","57,7","5,24","ND","ND","ND","ND"],
    [14948,"42677,45833","39,3","6,6","ND","ND","ND","ND"],
    [14949,"42677,5","56,4","7,89","ND","ND","ND","ND"],
    [14950,"42677,54167","49,4","7,55","ND","ND","ND","ND"],
    [14951,"42677,58333","47,1","5,84","ND","ND","ND","ND"],
    [14952,"42677,625","49,5","4,22","ND","ND","ND","ND"],
    [14953,"42677,66667","39,8","3,28","ND","ND","ND","ND"],
    [14954,"42677,70833","26,4","2,49","ND","ND","ND","ND"],
    [14955,"42677,75","17,8","1,89","ND","ND","ND","ND"],
    [14956,"42677,79167","23","1,83","ND","ND","ND","ND"],
    [14957,"42677,83333","28,6","1,7","ND","ND","ND","ND"],
    [14958,"42677,875","52,1","2,15","ND","ND","ND","ND"],
    [14959,"42677,91667","48,2","2,02","ND","ND","ND","ND"],
    [14960,"42677,95833","51,1","2,57","ND","ND","ND","ND"],
    [14961,"42707","46,8","2,8","ND","ND","ND","ND"],
    [14962,"42707,04167","48,1","1,99","ND","ND","ND","ND"],
    [14963,"42707,08333","32,1","1,62","ND","ND","ND","ND"],
    [14964,"42707,125","30,9","1,52","ND","ND","ND","ND"],
    [14965,"42707,16667","27,1","1,62","ND","ND","ND","ND"],
    [14966,"42707,20833","25,2","1,52","ND","ND","ND","ND"],
    [14967,"42707,25","36,4","1,76","ND","ND","ND","ND"],
    [14968,"42707,29167","41,9","1,97","ND","ND","ND","ND"],
    [14969,"42707,33333","44,4","2,25","ND","ND","ND","ND"],
    [14970,"42707,375","57,9","3,56","ND","ND","ND","ND"],
    [14971,"42707,41667","50,7","3,62","ND","ND","ND","ND"],
    [14972,"42707,45833","30,4","2,49","ND","ND","ND","ND"],
    [14973,"42707,5","27,5","2,65","ND","ND","ND","ND"],
    [14974,"42707,54167","26,2","2,7","ND","ND","ND","ND"],
    [14975,"42707,58333","14,8","1,94","ND","ND","ND","ND"],
    [14976,"42707,625","7","1,52","ND","ND","ND","ND"],
    [14977,"42707,66667","11,4","1,39","ND","ND","ND","ND"],
    [14978,"42707,70833","16,5","1,62","ND","ND","ND","ND"],
    [14979,"42707,75","54,1","4,38","ND","ND","ND","ND"],
    [14980,"42707,79167","71,7","6,16","ND","ND","ND","ND"],
    [14981,"42707,83333","55,6","4,17","ND","ND","ND","ND"],
    [14982,"42707,875","53,4","3,14","ND","ND","ND","ND"],
    [14983,"42707,91667","52,8","2,96","ND","ND","ND","ND"],
    [14984,"42707,95833","64,5","3,38","ND","ND","ND","ND"],
    [14985,"03/13/2016 00:00","32,4","2,28","ND","ND","ND","ND"],
    [14986,"03/13/2016 01:00","40,6","2,31","ND","ND","ND","ND"],
    [14987,"03/13/2016 02:00","35,5","2,23","ND","ND","ND","ND"],
    [14988,"03/13/2016 03:00","40,5","2,02","ND","ND","ND","ND"],
    [14989,"03/13/2016 04:00","44,5","2,04","ND","ND","ND","ND"],
    [14990,"03/13/2016 05:00","54","2,57","ND","ND","ND","ND"],
    [14991,"03/13/2016 06:00","55,3","2,52","ND","ND","ND","ND"],
    [14992,"03/13/2016 07:00","63,2","2,93","ND","ND","ND","ND"],
    [14993,"03/13/2016 08:00","73,6","3,51","ND","ND","ND","ND"],
    [14994,"03/13/2016 09:00","71,2","3,64","ND","ND","ND","ND"],
    [14995,"03/13/2016 10:00","60","8,52","ND","ND","ND","ND"],
    [14996,"03/13/2016 11:00","42,9","6,6","ND","ND","ND","ND"],
    [14997,"03/13/2016 12:00","48,7","6,87","ND","ND","ND","ND"],
    [14998,"03/13/2016 13:00","41,8","4,77","ND","ND","ND","ND"],
    [14999,"03/13/2016 14:00","31,4","3,46","ND","ND","ND","ND"],
    [15000,"03/13/2016 15:00","17,5","2,75","ND","ND","ND","ND"],
    [15001,"03/13/2016 16:00","28,4","2,57","ND","ND","ND","ND"],
    [15002,"03/13/2016 17:00","23","2,33","ND","ND","ND","ND"],
    [15003,"03/13/2016 18:00","24","2,44","ND","ND","ND","ND"],
    [15004,"03/13/2016 19:00","35,8","3,07","ND","ND","ND","ND"],
    [15005,"03/13/2016 20:00","30,9","2,67","ND","ND","ND","ND"],
    [15006,"03/13/2016 21:00","53,9","3,3","ND","ND","ND","ND"],
    [15007,"03/13/2016 22:00","32,5","3,69","ND","ND","ND","ND"],
    [15008,"03/13/2016 23:00","33,3","4,17","ND","ND","ND","ND"],
    [15009,"03/14/2016 00:00","37","2,91","ND","ND","ND","ND"],
    [15010,"03/14/2016 01:00","36,6","2,65","ND","ND","ND","ND"],
    [15011,"03/14/2016 02:00","34,2","2,73","ND","ND","ND","ND"],
    [15012,"03/14/2016 03:00","35,6","3,28","ND","ND","ND","ND"],
    [15013,"03/14/2016 04:00","36,4","3,43","ND","ND","ND","ND"],
    [15014,"03/14/2016 05:00","36,4","4,19","ND","ND","ND","ND"],
    [15015,"03/14/2016 06:00","40,9","3,93","ND","ND","ND","ND"],
    [15016,"03/14/2016 07:00","53","4,27","ND","ND","ND","ND"],
    [15017,"03/14/2016 08:00","90","5,19","ND","ND","ND","ND"],
    [15018,"03/14/2016 09:00","126,7","18,37","ND","ND","ND","ND"],
    [15019,"03/14/2016 10:00","64,9","10,87","ND","ND","ND","ND"],
    [15020,"03/14/2016 11:00","49,7","8,62","ND","ND","ND","ND"],
    [15021,"03/14/2016 12:00","59,8","6,55","ND","ND","ND","ND"],
    [15022,"03/14/2016 13:00","48,8","5,76","ND","ND","ND","ND"],
    [15023,"03/14/2016 14:00","54,6","5,32","ND","ND","ND","ND"],
    [15024,"03/14/2016 15:00","63,8","6,37","ND","ND","ND","ND"],
    [15025,"03/14/2016 16:00","47,4","5,61","ND","ND","ND","ND"],
    [15026,"03/14/2016 17:00","35,3","3,46","ND","ND","ND","ND"],
    [15027,"03/14/2016 18:00","24,3","3,22","ND","ND","ND","ND"],
    [15028,"03/14/2016 19:00","24,9","3,17","ND","ND","ND","ND"],
    [15029,"03/14/2016 20:00","38,4","3,67","ND","ND","ND","ND"],
    [15030,"03/14/2016 21:00","65,5","4,38","ND","ND","ND","ND"],
    [15031,"03/14/2016 22:00","49,3","3,48","ND","ND","ND","ND"],
    [15032,"03/14/2016 23:00","44,2","2,99","ND","ND","ND","ND"],
    [15033,"03/15/2016 00:00","33","3,75","ND","ND","ND","ND"],
    [15034,"03/15/2016 01:00","30,7","2,91","ND","ND","ND","ND"],
    [15035,"03/15/2016 02:00","30,9","2,93","ND","ND","ND","ND"],
    [15036,"03/15/2016 03:00","35,2","2,88","ND","ND","ND","ND"],
    [15037,"03/15/2016 04:00","40,4","4,14","ND","ND","ND","ND"],
    [15038,"03/15/2016 05:00","24,3","3,38","ND","ND","ND","ND"],
    [15039,"03/15/2016 06:00","28,8","3,43","ND","ND","ND","ND"],
    [15040,"03/15/2016 07:00","30,5","3,69","ND","ND","ND","ND"],
    [15041,"03/15/2016 08:00","34,7","3,88","ND","ND","ND","ND"],
    [15042,"03/15/2016 09:00","51,5","4,82","ND","ND","ND","ND"],
    [15043,"03/15/2016 10:00","39,2","6,18","ND","ND","ND","ND"],
    [15044,"03/15/2016 11:00","38,8","4,87","ND","ND","ND","ND"],
    [15045,"03/15/2016 12:00","38,5","4,11","ND","ND","ND","ND"],
    [15046,"03/15/2016 13:00","30,2","3,62","ND","ND","ND","ND"],
    [15047,"03/15/2016 14:00","38,5","3,43","ND","ND","ND","ND"],
    [15048,"03/15/2016 15:00","44,2","3,35","ND","ND","ND","ND"],
    [15049,"03/15/2016 16:00","45,6","3,28","ND","ND","ND","ND"],
    [15050,"03/15/2016 17:00","33,7","2,99","ND","ND","ND","ND"],
    [15051,"03/15/2016 18:00","28,6","3,01","ND","ND","ND","ND"],
    [15052,"03/15/2016 19:00","27,8","2,93","ND","ND","ND","ND"],
    [15053,"03/15/2016 20:00","23,7","2,88","ND","ND","ND","ND"],
    [15054,"03/15/2016 21:00","19","2,78","ND","ND","ND","ND"],
    [15055,"03/15/2016 22:00","47,9","4,09","ND","ND","ND","ND"],
    [15056,"03/15/2016 23:00","36,7","4,72","ND","ND","ND","ND"],
    [15057,"03/16/2016 00:00","23,8","2,33","ND","ND","ND","ND"],
    [15058,"03/16/2016 01:00","39,4","3,85","ND","ND","ND","ND"],
    [15059,"03/16/2016 02:00","24,7","2,49","ND","ND","ND","ND"],
    [15060,"03/16/2016 03:00","26,2","2,67","ND","ND","ND","ND"],
    [15061,"03/16/2016 04:00","29,1","2,1","ND","ND","ND","ND"],
    [15062,"03/16/2016 05:00","36,7","2,2","ND","ND","ND","ND"],
    [15063,"03/16/2016 06:00","80,8","3,04","ND","ND","ND","ND"],
    [15064,"03/16/2016 07:00","87,3","3,54","ND","ND","ND","ND"],
    [15065,"03/16/2016 08:00","92,9","3,3","ND","ND","ND","ND"],
    [15066,"03/16/2016 09:00","98,3","6,63","ND","ND","ND","ND"],
    [15067,"03/16/2016 10:00","65,1","11,5","ND","ND","ND","ND"],
    [15068,"03/16/2016 11:00","58,7","5,82","ND","ND","ND","ND"],
    [15069,"03/16/2016 12:00","45,4","3,93","ND","ND","ND","ND"],
    [15070,"03/16/2016 13:00","52,2","3,43","ND","ND","ND","ND"],
    [15071,"03/16/2016 14:00","17,9","1,91","ND","ND","ND","ND"],
    [15072,"03/16/2016 15:00","13,5","1,78","ND","ND","ND","ND"],
    [15073,"03/16/2016 16:00","17,5","1,65","ND","ND","ND","ND"],
    [15074,"03/16/2016 17:00","17,5","1,44","ND","ND","ND","ND"],
    [15075,"03/16/2016 18:00","17,2","1,36","ND","ND","ND","ND"],
    [15076,"03/16/2016 19:00","11,1","1,86","ND","ND","ND","ND"],
    [15077,"03/16/2016 20:00","44,3","2,86","ND","ND","ND","ND"],
    [15078,"03/16/2016 21:00","54,3","8,8","ND","ND","ND","ND"],
    [15079,"03/16/2016 22:00","47,3","8,59","ND","ND","ND","ND"],
    [15080,"03/16/2016 23:00","49,8","4,17","ND","ND","ND","ND"],
    [15081,"03/17/2016 00:00","17,1","0,84","ND","ND","ND","ND"],
    [15082,"03/17/2016 01:00","23,9","1,89","ND","ND","ND","ND"],
    [15083,"03/17/2016 02:00","15,7","1,68","ND","ND","ND","ND"],
    [15084,"03/17/2016 03:00","17,6","1,52","ND","ND","ND","ND"],
    [15085,"03/17/2016 04:00","14,3","1,57","ND","ND","ND","ND"],
    [15086,"03/17/2016 05:00","15,3","1,52","ND","ND","ND","ND"],
    [15087,"03/17/2016 06:00","24,5","1,62","ND","ND","ND","ND"],
    [15088,"03/17/2016 07:00","31,4","2,2","ND","ND","ND","ND"],
    [15089,"03/17/2016 08:00","36,1","2,59","ND","ND","ND","ND"],
    [15090,"03/17/2016 09:00","9,6","1,81","ND","ND","ND","ND"],
    [15091,"03/17/2016 10:00","15,3","1,99","ND","ND","ND","ND"],
    [15092,"03/17/2016 11:00","14,6","2,1","ND","ND","ND","ND"],
    [15093,"03/17/2016 12:00","26,6","1,73","ND","ND","ND","ND"],
    [15094,"03/17/2016 13:00","19,7","1,62","ND","ND","ND","ND"],
    [15095,"03/17/2016 14:00","6","1,31","ND","ND","ND","ND"],
    [15096,"03/17/2016 15:00","14","1,28","ND","ND","ND","ND"],
    [15097,"03/17/2016 16:00","13,1","1,15","ND","ND","ND","ND"],
    [15098,"03/17/2016 17:00","11,3","0,81","ND","ND","ND","ND"],
    [15099,"03/17/2016 18:00","9,3","1,02","ND","ND","ND","ND"],
    [15100,"03/17/2016 19:00","17,5","1,1","ND","ND","ND","ND"],
    [15101,"03/17/2016 20:00","40,4","2,44","ND","ND","ND","ND"],
    [15102,"03/17/2016 21:00","24","1,26","ND","ND","ND","ND"],
    [15103,"03/17/2016 22:00","12,7","1,02","ND","ND","ND","ND"],
    [15104,"03/17/2016 23:00","9,7","0,79","ND","ND","ND","ND"],
    [15105,"03/18/2016 00:00","41,8","1,6","ND","ND","ND","ND"],
    [15106,"03/18/2016 01:00","9,1","1,02","ND","ND","ND","ND"],
    [15107,"03/18/2016 02:00","20,4","1,07","ND","ND","ND","ND"],
    [15108,"03/18/2016 03:00","17,4","0,84","ND","ND","ND","ND"],
    [15109,"03/18/2016 04:00","17,4","0,84","ND","ND","ND","ND"],
    [15110,"03/18/2016 05:00","32,7","1,05","ND","ND","ND","ND"],
    [15111,"03/18/2016 06:00","38","2,46","ND","ND","ND","ND"],
    [15112,"03/18/2016 07:00","51,5","2,49","ND","ND","ND","ND"],
    [15113,"03/18/2016 08:00","65,4","3,07","ND","ND","ND","ND"],
    [15114,"03/18/2016 09:00","49,2","3,69","ND","ND","ND","ND"],
    [15115,"03/18/2016 10:00","39,3","3,12","ND","ND","ND","ND"],
    [15116,"03/18/2016 11:00","42,6","3,88","ND","ND","ND","ND"],
    [15117,"03/18/2016 12:00","40,9","4,53","ND","ND","ND","ND"],
    [15118,"03/18/2016 13:00","51,4","4,69","ND","ND","ND","ND"],
    [15119,"03/18/2016 14:00","35,5","3,38","ND","ND","ND","ND"],
    [15120,"03/18/2016 15:00","28,9","2,31","ND","ND","ND","ND"],
    [15121,"03/18/2016 16:00","27,7","1,55","ND","ND","ND","ND"],
    [15122,"03/18/2016 17:00","25,6","1,52","ND","ND","ND","ND"],
    [15123,"03/18/2016 18:00","21,3","1,31","ND","ND","ND","ND"],
    [15124,"03/18/2016 19:00","16,9","1,47","ND","ND","ND","ND"],
    [15125,"03/18/2016 20:00","17,6","1,21","ND","ND","ND","ND"],
    [15126,"03/18/2016 21:00","26","1,13","ND","ND","ND","ND"],
    [15127,"03/18/2016 22:00","48,4","1,49","ND","ND","ND","ND"],
    [15128,"03/18/2016 23:00","55,7","1,86","ND","ND","ND","ND"],
    [15129,"03/19/2016 00:00","42,7","1,55","ND","ND","ND","ND"],
    [15130,"03/19/2016 01:00","37,8","1,55","ND","ND","ND","ND"],
    [15131,"03/19/2016 02:00","36,5","1,7","ND","ND","ND","ND"],
    [15132,"03/19/2016 03:00","38,3","1,49","ND","ND","ND","ND"],
    [15133,"03/19/2016 04:00","43,9","1,34","ND","ND","ND","ND"],
    [15134,"03/19/2016 05:00","38,4","1,13","ND","ND","ND","ND"],
    [15135,"03/19/2016 06:00","48,1","1,31","ND","ND","ND","ND"],
    [15136,"03/19/2016 07:00","64,9","1,7","ND","ND","ND","ND"],
    [15137,"03/19/2016 08:00","60,7","2,23","ND","ND","ND","ND"],
    [15138,"03/19/2016 09:00","65,9","4,61","ND","ND","ND","ND"],
    [15139,"03/19/2016 10:00","57,1","6,89","ND","ND","ND","ND"],
    [15140,"03/19/2016 11:00","50,4","6,26","ND","ND","ND","ND"],
    [15141,"03/19/2016 12:00","58","6,24","ND","ND","ND","ND"],
    [15142,"03/19/2016 13:00","48,2","3,98","ND","ND","ND","ND"],
    [15143,"03/19/2016 14:00","50,5","3,51","ND","ND","ND","ND"],
    [15144,"03/19/2016 15:00","65,3","3,43","ND","ND","ND","ND"],
    [15145,"03/19/2016 16:00","28,9","1,47","ND","ND","ND","ND"],
    [15146,"03/19/2016 17:00","17,5","1,05","ND","ND","ND","ND"],
    [15147,"03/19/2016 18:00","17","0,81","ND","ND","ND","ND"],
    [15148,"03/19/2016 19:00","12,3","0,71","ND","ND","ND","ND"],
    [15149,"03/19/2016 20:00","10,3","0,6","ND","ND","ND","ND"],
    [15150,"03/19/2016 21:00","12,1","0,68","ND","ND","ND","ND"],
    [15151,"03/19/2016 22:00","13","0,79","ND","ND","ND","ND"],
    [15152,"03/19/2016 23:00","51,3","1,44","ND","ND","ND","ND"],
    [15153,"03/20/2016 00:00","27,7","1,55","ND","ND","ND","ND"],
    [15154,"03/20/2016 01:00","46,8","1,21","ND","ND","ND","ND"],
    [15155,"03/20/2016 02:00","36","1,18","ND","ND","ND","ND"],
    [15156,"03/20/2016 03:00","45,7","3,72","ND","ND","ND","ND"],
    [15157,"03/20/2016 04:00","47,4","4,14","ND","ND","ND","ND"],
    [15158,"03/20/2016 05:00","42","3,72","ND","ND","ND","ND"],
    [15159,"03/20/2016 06:00","37,2","2,36","ND","ND","ND","ND"],
    [15160,"03/20/2016 07:00","43,8","2,31","ND","ND","ND","ND"],
    [15161,"03/20/2016 08:00","47,5","3,07","ND","ND","ND","ND"],
    [15162,"03/20/2016 09:00","30,8","3,12","ND","ND","ND","ND"],
    [15163,"03/20/2016 10:00","35,2","3,38","ND","ND","ND","ND"],
    [15164,"03/20/2016 11:00","29,2","2,65","ND","ND","ND","ND"],
    [15165,"03/20/2016 12:00","25,9","2,88","ND","ND","ND","ND"],
    [15166,"03/20/2016 13:00","24,9","2,41","ND","ND","ND","ND"],
    [15167,"03/20/2016 14:00","23,9","1,86","ND","ND","ND","ND"],
    [15168,"03/20/2016 15:00","6,1","1,23","ND","ND","ND","ND"],
    [15169,"03/20/2016 16:00","10,3","1,13","ND","ND","ND","ND"],
    [15170,"03/20/2016 17:00","4,7","1,15","ND","ND","ND","ND"],
    [15171,"03/20/2016 18:00","16,3","1,02","ND","ND","ND","ND"],
    [15172,"03/20/2016 19:00","15,8","0,97","ND","ND","ND","ND"],
    [15173,"03/20/2016 20:00","14,4","0,86","ND","ND","ND","ND"],
    [15174,"03/20/2016 21:00","10,4","0,92","ND","ND","ND","ND"],
    [15175,"03/20/2016 22:00","14,3","1","ND","ND","ND","ND"],
    [15176,"03/20/2016 23:00","34","0,97","ND","ND","ND","ND"],
    [15177,"03/21/2016 00:00","39,9","1,52","ND","ND","ND","ND"],
    [15178,"03/21/2016 01:00","23,7","0,92","ND","ND","ND","ND"],
    [15179,"03/21/2016 02:00","16,6","0,76","ND","ND","ND","ND"],
    [15180,"03/21/2016 03:00","14,4","0,84","ND","ND","ND","ND"],
    [15181,"03/21/2016 04:00","19,1","0,79","ND","ND","ND","ND"],
    [15182,"03/21/2016 05:00","18,8","0,63","ND","ND","ND","ND"],
    [15183,"03/21/2016 06:00","21,4","0,81","ND","ND","ND","ND"],
    [15184,"03/21/2016 07:00","25,4","0,89","ND","ND","ND","ND"],
    [15185,"03/21/2016 08:00","32,8","1,02","ND","ND","ND","ND"],
    [15186,"03/21/2016 09:00","44","1,83","ND","ND","ND","ND"],
    [15187,"03/21/2016 10:00","23","4,22","ND","ND","ND","ND"],
    [15188,"03/21/2016 11:00","26,4","5,79","ND","ND","ND","ND"],
    [15189,"03/21/2016 12:00","26,8","5,16","ND","ND","ND","ND"],
    [15190,"03/21/2016 13:00","36,5","3,93","ND","ND","ND","ND"],
    [15191,"03/21/2016 14:00","34,9","3,22","ND","ND","ND","ND"],
    [15192,"03/21/2016 15:00","31,3","4,3","ND","ND","ND","ND"],
    [15193,"03/21/2016 16:00","42,6","9,51","ND","ND","ND","ND"],
    [15194,"03/21/2016 17:00","46,7","7,97","ND","ND","ND","ND"],
    [15195,"03/21/2016 18:00","38,1","4,53","ND","ND","ND","ND"],
    [15196,"03/21/2016 19:00","27,6","2,04","ND","ND","ND","ND"],
    [15197,"03/21/2016 20:00","40,3","1,76","ND","ND","ND","ND"],
    [15198,"03/21/2016 21:00","18,7","1,18","ND","ND","ND","ND"],
    [15199,"03/21/2016 22:00","12,7","0,94","ND","ND","ND","ND"],
    [15200,"03/21/2016 23:00","12,7","1,36","ND","ND","ND","ND"],
    [15201,"03/22/2016 00:00","45,2","1,62","ND","ND","ND","ND"],
    [15202,"03/22/2016 01:00","43,8","1,31","ND","ND","ND","ND"],
    [15203,"03/22/2016 02:00","41","1,76","ND","ND","ND","ND"],
    [15204,"03/22/2016 03:00","28,5","1,15","ND","ND","ND","ND"],
    [15205,"03/22/2016 04:00","36,8","0,92","ND","ND","ND","ND"],
    [15206,"03/22/2016 05:00","37,9","0,97","ND","ND","ND","ND"],
    [15207,"03/22/2016 06:00","51,3","1,13","ND","ND","ND","ND"],
    [15208,"03/22/2016 07:00","50","1,7","ND","ND","ND","ND"],
    [15209,"03/22/2016 08:00","51,3","2,36","ND","ND","ND","ND"],
    [15210,"03/22/2016 09:00","66,7","4,14","ND","ND","ND","ND"],
    [15211,"03/22/2016 10:00","40,8","7,39","ND","ND","ND","ND"],
    [15212,"03/22/2016 11:00","50,1","5,4","ND","ND","ND","ND"],
    [15213,"03/22/2016 12:00","44,2","4,27","ND","ND","ND","ND"],
    [15214,"03/22/2016 13:00","46,7","4,01","ND","ND","ND","ND"],
    [15215,"03/22/2016 14:00","47,8","2,96","ND","ND","ND","ND"],
    [15216,"03/22/2016 15:00","47,5","2,38","ND","ND","ND","ND"],
    [15217,"03/22/2016 16:00","19,4","0,94","ND","ND","ND","ND"],
    [15218,"03/22/2016 17:00","20,4","0,68","ND","ND","ND","ND"],
    [15219,"03/22/2016 18:00","20,4","0,71","ND","ND","ND","ND"],
    [15220,"03/22/2016 19:00","18,4","0,63","ND","ND","ND","ND"],
    [15221,"03/22/2016 20:00","13,1","0,6","ND","ND","ND","ND"],
    [15222,"03/22/2016 21:00","13,6","0,42","ND","ND","ND","ND"],
    [15223,"03/22/2016 22:00","51,1","1,47","ND","ND","ND","ND"],
    [15224,"03/22/2016 23:00","52,3","1,68","ND","ND","ND","ND"],
    [15225,"03/23/2016 00:00","51,1","1,1","ND","ND","ND","ND"],
    [15226,"03/23/2016 01:00","49,2","1,39","ND","ND","ND","ND"],
    [15227,"03/23/2016 02:00","34,7","1,47","ND","ND","ND","ND"],
    [15228,"03/23/2016 03:00","50","2,41","ND","ND","ND","ND"],
    [15229,"03/23/2016 04:00","55,1","2,46","ND","ND","ND","ND"],
    [15230,"03/23/2016 05:00","44,5","3,3","ND","ND","ND","ND"],
    [15231,"03/23/2016 06:00","35,7","3,07","ND","ND","ND","ND"],
    [15232,"03/23/2016 07:00","36,2","1,39","ND","ND","ND","ND"],
    [15233,"03/23/2016 08:00","31,3","1,7","ND","ND","ND","ND"],
    [15234,"03/23/2016 09:00","30,7","2,12","ND","ND","ND","ND"],
    [15235,"03/23/2016 10:00","43,5","5,66","ND","ND","ND","ND"],
    [15236,"03/23/2016 11:00","38,5","3,43","ND","ND","ND","ND"],
    [15237,"03/23/2016 12:00","33,6","2,73","ND","ND","ND","ND"],
    [15238,"03/23/2016 13:00","29","1,99","ND","ND","ND","ND"],
    [15239,"03/23/2016 14:00","31,2","1,83","ND","ND","ND","ND"],
    [15240,"03/23/2016 15:00","31,2","2,02","ND","ND","ND","ND"],
    [15241,"03/23/2016 16:00","22,6","1,34","ND","ND","ND","ND"],
    [15242,"03/23/2016 17:00","22,7","0,94","ND","ND","ND","ND"],
    [15243,"03/23/2016 18:00","20,4","0,86","ND","ND","ND","ND"],
    [15244,"03/23/2016 19:00","18,6","0,84","ND","ND","ND","ND"],
    [15245,"03/23/2016 20:00","26,1","0,81","ND","ND","ND","ND"],
    [15246,"03/23/2016 21:00","35,8","0,84","ND","ND","ND","ND"],
    [15247,"03/23/2016 22:00","38,3","0,89","ND","ND","ND","ND"],
    [15248,"03/23/2016 23:00","44,3","0,86","ND","ND","ND","ND"],
    [15249,"03/24/2016 00:00","43,3","0,89","ND","ND","ND","ND"],
    [15250,"03/24/2016 01:00","49,4","1,21","ND","ND","ND","ND"],
    [15251,"03/24/2016 02:00","32,2","0,86","ND","ND","ND","ND"],
    [15252,"03/24/2016 03:00","37,8","0,81","ND","ND","ND","ND"],
    [15253,"03/24/2016 04:00","33,8","0,89","ND","ND","ND","ND"],
    [15254,"03/24/2016 05:00","42,8","0,89","ND","ND","ND","ND"],
    [15255,"03/24/2016 06:00","39,4","0,86","ND","ND","ND","ND"],
    [15256,"03/24/2016 07:00","44,6","0,94","ND","ND","ND","ND"],
    [15257,"03/24/2016 08:00","58,2","1,21","ND","ND","ND","ND"],
    [15258,"03/24/2016 09:00","70,8","17,48","ND","ND","ND","ND"],
    [15259,"03/24/2016 10:00","49,4","10,72","ND","ND","ND","ND"],
    [15260,"03/24/2016 11:00","48,2","7,07","ND","ND","ND","ND"],
    [15261,"03/24/2016 12:00","60,5","5,19","ND","ND","ND","ND"],
    [15262,"03/24/2016 13:00","46,3","3,64","ND","ND","ND","ND"],
    [15263,"03/24/2016 14:00","54,2","2,96","ND","ND","ND","ND"],
    [15264,"03/24/2016 15:00","49","2,15","ND","ND","ND","ND"],
    [15265,"03/24/2016 16:00","13,7","0,63","ND","ND","ND","ND"],
    [15266,"03/24/2016 17:00","20,4","0,52","ND","ND","ND","ND"],
    [15267,"03/24/2016 18:00","19,2","0,55","ND","ND","ND","ND"],
    [15268,"03/24/2016 19:00","16,6","0,42","ND","ND","ND","ND"],
    [15269,"03/24/2016 20:00","19,9","0,63","ND","ND","ND","ND"],
    [15270,"03/24/2016 21:00","20,8","0,63","ND","ND","ND","ND"],
    [15271,"03/24/2016 22:00","31,8","0,81","ND","ND","ND","ND"],
    [15272,"03/24/2016 23:00","44,1","1,15","ND","ND","ND","ND"],
    [15273,"03/25/2016 00:00","27,8","0,79","ND","ND","ND","ND"],
    [15274,"03/25/2016 01:00","44","0,89","ND","ND","ND","ND"],
    [15275,"03/25/2016 02:00","30,4","0,81","ND","ND","ND","ND"],
    [15276,"03/25/2016 03:00","33,3","0,68","ND","ND","ND","ND"],
    [15277,"03/25/2016 04:00","28,9","0,84","ND","ND","ND","ND"],
    [15278,"03/25/2016 05:00","34,6","0,89","ND","ND","ND","ND"],
    [15279,"03/25/2016 06:00","37,8","1,05","ND","ND","ND","ND"],
    [15280,"03/25/2016 07:00","39,8","1,23","ND","ND","ND","ND"],
    [15281,"03/25/2016 08:00","48,1","2,02","ND","ND","ND","ND"],
    [15282,"03/25/2016 09:00","52,2","3,85","ND","ND","ND","ND"],
    [15283,"03/25/2016 10:00","36","5,76","ND","ND","ND","ND"],
    [15284,"03/25/2016 11:00","45,3","9,54","ND","ND","ND","ND"],
    [15285,"03/25/2016 12:00","37,1","9,83","ND","ND","ND","ND"],
    [15286,"03/25/2016 13:00","31,7","6,11","ND","ND","ND","ND"],
    [15287,"03/25/2016 14:00","37,6","4,56","ND","ND","ND","ND"],
    [15288,"03/25/2016 15:00","42,2","3,96","ND","ND","ND","ND"],
    [15289,"03/25/2016 16:00","34,5","2,31","ND","ND","ND","ND"],
    [15290,"03/25/2016 17:00","22","0,81","ND","ND","ND","ND"],
    [15291,"03/25/2016 18:00","15,4","0,55","ND","ND","ND","ND"],
    [15292,"03/25/2016 19:00","15,3","0,5","ND","ND","ND","ND"],
    [15293,"03/25/2016 20:00","14,8","0,55","ND","ND","ND","ND"],
    [15294,"03/25/2016 21:00","38,5","0,94","ND","ND","ND","ND"],
    [15295,"03/25/2016 22:00","28,9","1","ND","ND","ND","ND"],
    [15296,"03/25/2016 23:00","27,1","0,81","ND","ND","ND","ND"],
    [15297,"03/26/2016 00:00","42,4","1,44","ND","ND","ND","ND"],
    [15298,"03/26/2016 01:00","36,5","0,71","ND","ND","ND","ND"],
    [15299,"03/26/2016 02:00","35,6","1,18","ND","ND","ND","ND"],
    [15300,"03/26/2016 03:00","30,4","0,86","ND","ND","ND","ND"],
    [15301,"03/26/2016 04:00","35,4","1,49","ND","ND","ND","ND"],
    [15302,"03/26/2016 05:00","32,7","1","ND","ND","ND","ND"],
    [15303,"03/26/2016 06:00","43,5","1,02","ND","ND","ND","ND"],
    [15304,"03/26/2016 07:00","48,9","1,57","ND","ND","ND","ND"],
    [15305,"03/26/2016 08:00","40,7","3,77","ND","ND","ND","ND"],
    [15306,"03/26/2016 09:00","52","7,18","ND","ND","ND","ND"],
    [15307,"03/26/2016 10:00","30,8","5,27","ND","ND","ND","ND"],
    [15308,"03/26/2016 11:00","31,5","3,25","ND","ND","ND","ND"],
    [15309,"03/26/2016 12:00","31,5","2,57","ND","ND","ND","ND"],
    [15310,"03/26/2016 13:00","56,2","2,7","ND","ND","ND","ND"],
    [15311,"03/26/2016 14:00","53,3","3,93","ND","ND","ND","ND"],
    [15312,"03/26/2016 15:00","24,4","1,7","ND","ND","ND","ND"],
    [15313,"03/26/2016 16:00","17,7","0,79","ND","ND","ND","ND"],
    [15314,"03/26/2016 17:00","17,9","0,71","ND","ND","ND","ND"],
    [15315,"03/26/2016 18:00","18,4","0,52","ND","ND","ND","ND"],
    [15316,"03/26/2016 19:00","16,6","0,47","ND","ND","ND","ND"],
    [15317,"03/26/2016 20:00","15,3","0,5","ND","ND","ND","ND"],
    [15318,"03/26/2016 21:00","17,1","0,66","ND","ND","ND","ND"],
    [15319,"03/26/2016 22:00","19,7","0,92","ND","ND","ND","ND"],
    [15320,"03/26/2016 23:00","10,2","0,39","ND","ND","ND","ND"],
    [15321,"03/27/2016 00:00","37,6","1,76","ND","ND","ND","ND"],
    [15322,"03/27/2016 01:00","39,8","4,38","ND","ND","ND","ND"],
    [15323,"03/27/2016 02:00","39,3","5,76","ND","ND","ND","ND"],
    [15324,"03/27/2016 03:00","43,6","2,57","ND","ND","ND","ND"],
    [15325,"03/27/2016 04:00","39,4","1,83","ND","ND","ND","ND"],
    [15326,"03/27/2016 05:00","28,2","1,05","ND","ND","ND","ND"],
    [15327,"03/27/2016 06:00","25,4","0,92","ND","ND","ND","ND"],
    [15328,"03/27/2016 07:00","24,8","0,94","ND","ND","ND","ND"],
    [15329,"03/27/2016 08:00","35,1","1,34","ND","ND","ND","ND"],
    [15330,"03/27/2016 09:00","33,1","2,88","ND","ND","ND","ND"],
    [15331,"03/27/2016 10:00","41,6","8,18","ND","ND","ND","ND"],
    [15332,"03/27/2016 11:00","36,8","11,48","ND","ND","ND","ND"],
    [15333,"03/27/2016 12:00","35,5","9,12","ND","ND","ND","ND"],
    [15334,"03/27/2016 13:00","24,6","6","ND","ND","ND","ND"],
    [15335,"03/27/2016 14:00","15,6","1,47","ND","ND","ND","ND"],
    [15336,"03/27/2016 15:00","18,2","0,89","ND","ND","ND","ND"],
    [15337,"03/27/2016 16:00","15,5","0,68","ND","ND","ND","ND"],
    [15338,"03/27/2016 17:00","21,1","0,39","ND","ND","ND","ND"],
    [15339,"03/27/2016 18:00","10","0,42","ND","ND","ND","ND"],
    [15340,"03/27/2016 19:00","5,3","0,5","ND","ND","ND","ND"],
    [15341,"03/27/2016 20:00","9,9","0,84","ND","ND","ND","ND"],
    [15342,"03/27/2016 21:00","38,3","1,65","ND","ND","ND","ND"],
    [15343,"03/27/2016 22:00","9,8","1,76","ND","ND","ND","ND"],
    [15344,"03/27/2016 23:00","51,6","1,97","ND","ND","ND","ND"],
    [15345,"03/28/2016 00:00","37,3","0,68","ND","ND","ND","ND"],
    [15346,"03/28/2016 01:00","29,5","1,23","ND","ND","ND","ND"],
    [15347,"03/28/2016 02:00","25,5","1","ND","ND","ND","ND"],
    [15348,"03/28/2016 03:00","24,4","1,1","ND","ND","ND","ND"],
    [15349,"03/28/2016 04:00","26,1","0,97","ND","ND","ND","ND"],
    [15350,"03/28/2016 05:00","24,2","0,94","ND","ND","ND","ND"],
    [15351,"03/28/2016 06:00","35,1","1,07","ND","ND","ND","ND"],
    [15352,"03/28/2016 07:00","65,7","1,52","ND","ND","ND","ND"],
    [15353,"03/28/2016 08:00","83,4","2,59","ND","ND","ND","ND"],
    [15354,"03/28/2016 09:00","55,1","3,88","ND","ND","ND","ND"],
    [15355,"03/28/2016 10:00","34,5","4,45","ND","ND","ND","ND"],
    [15356,"03/28/2016 11:00","45,9","3,8","ND","ND","ND","ND"],
    [15357,"03/28/2016 12:00","43","ND","ND","ND","ND","ND"],
    [15358,"03/28/2016 13:00","48,7","2,65","ND","ND","ND","ND"],
    [15359,"03/28/2016 14:00","27,8","1,91","ND","ND","ND","ND"],
    [15360,"03/28/2016 15:00","25,4","0,03","ND","ND","ND","ND"],
    [15361,"03/28/2016 16:00","23,4","ND","ND","ND","ND","ND"],
    [15362,"03/28/2016 17:00","27,3","ND","ND","ND","ND","ND"],
    [15363,"03/28/2016 18:00","26,5","ND","ND","ND","ND","ND"],
    [15364,"03/28/2016 19:00","55,6","0,45","ND","ND","ND","ND"],
    [15365,"03/28/2016 20:00","61,7","1,21","ND","ND","ND","ND"],
    [15366,"03/28/2016 21:00","56,5","1,28","ND","ND","ND","ND"],
    [15367,"03/28/2016 22:00","74","0,76","ND","ND","ND","ND"],
    [15368,"03/28/2016 23:00","52,9","0,21","ND","ND","ND","ND"],
    [15369,"03/29/2016 00:00","49,1","0,31","ND","ND","ND","ND"],
    [15370,"03/29/2016 01:00","52,3","2,99","ND","ND","ND","ND"],
    [15371,"03/29/2016 02:00","40,2","3,09","ND","ND","ND","ND"],
    [15372,"03/29/2016 03:00","43,3","3,41","ND","ND","ND","ND"],
    [15373,"03/29/2016 04:00","29,5","2,02","ND","ND","ND","ND"],
    [15374,"03/29/2016 05:00","32,7","1,39","ND","ND","ND","ND"],
    [15375,"03/29/2016 06:00","54,2","1,28","ND","ND","ND","ND"],
    [15376,"03/29/2016 07:00","74,2","1,34","ND","ND","ND","ND"],
    [15377,"03/29/2016 08:00","98,4","3,69","ND","ND","ND","ND"],
    [15378,"03/29/2016 09:00","72,2","3,59","ND","ND","ND","ND"],
    [15379,"03/29/2016 10:00","43,4","1,76","ND","ND","ND","ND"],
    [15380,"03/29/2016 11:00","55,7","5,82","ND","ND","ND","ND"],
    [15381,"03/29/2016 12:00","54,1","7,28","ND","ND","ND","ND"],
    [15382,"03/29/2016 13:00","57,5","4,77","ND","ND","ND","ND"],
    [15383,"03/29/2016 14:00","63,5","3,35","ND","ND","ND","ND"],
    [15384,"03/29/2016 15:00","68,5","2,41","ND","ND","ND","ND"],
    [15385,"03/29/2016 16:00","38,4","ND","ND","ND","ND","ND"],
    [15386,"03/29/2016 17:00","38,4","ND","ND","ND","ND","ND"],
    [15387,"03/29/2016 18:00","23,6","ND","ND","ND","ND","ND"],
    [15388,"03/29/2016 19:00","24,5","ND","ND","ND","ND","ND"],
    [15389,"03/29/2016 20:00","18,1","ND","ND","ND","ND","ND"],
    [15390,"03/29/2016 21:00","29,7","ND","ND","ND","ND","ND"],
    [15391,"03/29/2016 22:00","73,7","0,66","ND","ND","ND","ND"],
    [15392,"03/29/2016 23:00","72,5","0,86","ND","ND","ND","ND"],
    [15393,"03/30/2016 00:00","48,3","0,76","ND","ND","ND","ND"],
    [15394,"03/30/2016 01:00","49,1","0,05","ND","ND","ND","ND"],
    [15395,"03/30/2016 02:00","46","0,18","ND","ND","ND","ND"],
    [15396,"03/30/2016 03:00","43,5","0,34","ND","ND","ND","ND"],
    [15397,"03/30/2016 04:00","57,1","0,89","ND","ND","ND","ND"],
    [15398,"03/30/2016 05:00","32,7","ND","ND","ND","ND","ND"],
    [15399,"03/30/2016 06:00","39,4","0,13","ND","ND","ND","ND"],
    [15400,"03/30/2016 07:00","27,8","0,73","ND","ND","ND","ND"],
    [15401,"03/30/2016 08:00","26,9","0,39","ND","ND","ND","ND"],
    [15402,"03/30/2016 09:00","34,9","0,79","ND","ND","ND","ND"],
    [15403,"03/30/2016 10:00","36,1","0,71","ND","ND","ND","ND"],
    [15404,"03/30/2016 11:00","36,4","1,02","ND","ND","ND","ND"],
    [15405,"03/30/2016 12:00","38","8,7","ND","ND","ND","ND"],
    [15406,"03/30/2016 13:00","35,7","16,72","ND","ND","ND","ND"],
    [15407,"03/30/2016 14:00","43,5","9,3","ND","ND","ND","ND"],
    [15408,"03/30/2016 15:00","49,4","4,24","ND","ND","ND","ND"],
    [15409,"03/30/2016 16:00","40,8","2,2","ND","ND","ND","ND"],
    [15410,"03/30/2016 17:00","43,1","1,26","ND","ND","ND","ND"],
    [15411,"03/30/2016 18:00","8,6","0,24","ND","ND","ND","ND"],
    [15412,"03/30/2016 19:00","36,3","0,47","ND","ND","ND","ND"],
    [15413,"03/30/2016 20:00","72,5","0,66","ND","ND","ND","ND"],
    [15414,"03/30/2016 21:00","6,6","0,18","ND","ND","ND","ND"],
    [15415,"03/30/2016 22:00","14","0,31","ND","ND","ND","ND"],
    [15416,"03/30/2016 23:00","18,8","0,52","ND","ND","ND","ND"],
    [15417,"03/31/2016 00:00","52,5","1,94","ND","ND","ND","ND"],
    [15418,"03/31/2016 01:00","9","ND","ND","ND","ND","ND"],
    [15419,"03/31/2016 02:00","2,3","ND","ND","ND","ND","ND"],
    [15420,"03/31/2016 03:00","10,5","ND","ND","ND","ND","ND"],
    [15421,"03/31/2016 04:00","13,9","ND","ND","ND","ND","ND"],
    [15422,"03/31/2016 05:00","19,7","ND","ND","ND","ND","ND"],
    [15423,"03/31/2016 06:00","24,6","ND","ND","ND","ND","ND"],
    [15424,"03/31/2016 07:00","48,2","0,5","ND","ND","ND","ND"],
    [15425,"03/31/2016 08:00","45","0,89","ND","ND","ND","ND"],
    [15426,"03/31/2016 09:00","56,6","1,07","ND","ND","ND","ND"],
    [15427,"03/31/2016 10:00","57,3","1,62","ND","ND","ND","ND"],
    [15428,"03/31/2016 11:00","53,7","5,9","ND","ND","ND","ND"],
    [15429,"03/31/2016 12:00","42","6,45","ND","ND","ND","ND"],
    [15430,"03/31/2016 13:00","48,5","6,11","ND","ND","ND","ND"],
    [15431,"03/31/2016 14:00","44,3","3,62","ND","ND","ND","ND"],
    [15432,"03/31/2016 15:00","39,1","1,52","ND","ND","ND","ND"],
    [15433,"03/31/2016 16:00","40,8","1,13","ND","ND","ND","ND"],
    [15434,"03/31/2016 17:00","47,4","1,73","ND","ND","ND","ND"],
    [15435,"03/31/2016 18:00","40,6","2,31","ND","ND","ND","ND"],
    [15436,"03/31/2016 19:00","26,9","0,52","ND","ND","ND","ND"],
    [15437,"03/31/2016 20:00","34,2","0,34","ND","ND","ND","ND"],
    [15438,"03/31/2016 21:00","64,7","1,02","ND","ND","ND","ND"],
    [15439,"03/31/2016 22:00","51,2","1,76","ND","ND","ND","ND"],
    [15440,"03/31/2016 23:00","52,5","1,68","ND","ND","ND","ND"],
    [15441,"42373","41","2,46","ND","ND","ND","ND"],
    [15442,"42373,04167","31,8","1,21","ND","ND","ND","ND"],
    [15443,"42373,08333","30,3","1,68","ND","ND","ND","ND"],
    [15444,"42373,125","37,9","1,39","ND","ND","ND","ND"],
    [15445,"42373,16667","41,9","1,65","ND","ND","ND","ND"],
    [15446,"42373,20833","45,2","1,39","ND","ND","ND","ND"],
    [15447,"42373,25","62,2","1,57","ND","ND","ND","ND"],
    [15448,"42373,29167","78,9","4,17","ND","ND","ND","ND"],
    [15449,"42373,33333","23,5","2,36","ND","ND","ND","ND"],
    [15450,"42373,375","22,6","0,94","ND","ND","ND","ND"],
    [15451,"42373,41667","23,8","0,73","ND","ND","ND","ND"],
    [15452,"42373,45833","23,8","0,58","ND","ND","ND","ND"],
    [15453,"42373,5","23,2","0,34","ND","ND","ND","ND"],
    [15454,"42373,54167","25,1","0,24","ND","ND","ND","ND"],
    [15455,"42373,58333","28,6","0,24","ND","ND","ND","ND"],
    [15456,"42373,625","13,1","0,03","ND","ND","ND","ND"],
    [15457,"42373,66667","9,6","ND","ND","ND","ND","ND"],
    [15458,"42373,70833","8,2","ND","ND","ND","ND","ND"],
    [15459,"42373,75","14,4","ND","ND","ND","ND","ND"],
    [15460,"42373,79167","17,2","ND","ND","ND","ND","ND"],
    [15461,"42373,83333","63,3","0,39","ND","ND","ND","ND"],
    [15462,"42373,875","44,9","0,63","ND","ND","ND","ND"],
    [15463,"42373,91667","54,8","1,76","ND","ND","ND","ND"],
    [15464,"42373,95833","49,1","1,99","ND","ND","ND","ND"],
    [15465,"42404","36,9","0,18","ND","ND","ND","ND"],
    [15466,"42404,04167","31,6","1,99","ND","ND","ND","ND"],
    [15467,"42404,08333","16,3","0,55","ND","ND","ND","ND"],
    [15468,"42404,125","7,2","ND","ND","ND","ND","ND"],
    [15469,"42404,16667","9,2","ND","ND","ND","ND","ND"],
    [15470,"42404,20833","10,5","ND","ND","ND","ND","ND"],
    [15471,"42404,25","11,1","ND","ND","ND","ND","ND"],
    [15472,"42404,29167","18,6","0,21","ND","ND","ND","ND"],
    [15473,"42404,33333","14,7","0,34","ND","ND","ND","ND"],
    [15474,"42404,375","14,7","0,42","ND","ND","ND","ND"],
    [15475,"42404,41667","17,3","0,47","ND","ND","ND","ND"],
    [15476,"42404,45833","16,2","0,6","ND","ND","ND","ND"],
    [15477,"42404,5","6,5","0,29","ND","ND","ND","ND"],
    [15478,"42404,54167","0,8","0,26","ND","ND","ND","ND"],
    [15479,"42404,58333","9,7","0,31","ND","ND","ND","ND"],
    [15480,"42404,625","17,7","0,52","ND","ND","ND","ND"],
    [15481,"42404,66667","22","1,49","ND","ND","ND","ND"],
    [15482,"42404,70833","14,6","0,71","ND","ND","ND","ND"],
    [15483,"42404,75","13,8","0,79","ND","ND","ND","ND"],
    [15484,"42404,79167","21","0,52","ND","ND","ND","ND"],
    [15485,"42404,83333","25,5","0,55","ND","ND","ND","ND"],
    [15486,"42404,875","25,4","0,6","ND","ND","ND","ND"],
    [15487,"42404,91667","25,5","0,45","ND","ND","ND","ND"],
    [15488,"42404,95833","32,5","0,34","ND","ND","ND","ND"],
    [15489,"42433","33,5","0,89","ND","ND","ND","ND"],
    [15490,"42433,04167","29,3","0,29","ND","ND","ND","ND"],
    [15491,"42433,08333","17,8","0,18","ND","ND","ND","ND"],
    [15492,"42433,125","22,8","0","ND","ND","ND","ND"],
    [15493,"42433,16667","21,7","0,1","ND","ND","ND","ND"],
    [15494,"42433,20833","26,9","0,05","ND","ND","ND","ND"],
    [15495,"42433,25","45,3","0,52","ND","ND","ND","ND"],
    [15496,"42433,29167","33,4","0,45","ND","ND","ND","ND"],
    [15497,"42433,33333","41,3","0,52","ND","ND","ND","ND"],
    [15498,"42433,375","62,7","1,55","ND","ND","ND","ND"],
    [15499,"42433,41667","76,5","6,89","ND","ND","ND","ND"],
    [15500,"42433,45833","61,5","11,32","ND","ND","ND","ND"],
    [15501,"42433,5","53,1","5,37","ND","ND","ND","ND"],
    [15502,"42433,54167","43,7","3,22","ND","ND","ND","ND"],
    [15503,"42433,58333","41,5","1,86","ND","ND","ND","ND"],
    [15504,"42433,625","49,7","2,02","ND","ND","ND","ND"],
    [15505,"42433,66667","49,7","2,2","ND","ND","ND","ND"],
    [15506,"42433,70833","46,2","2,59","ND","ND","ND","ND"],
    [15507,"42433,75","20,7","0,66","ND","ND","ND","ND"],
    [15508,"42433,79167","38,9","0,6","ND","ND","ND","ND"],
    [15509,"42433,83333","59,3","0,89","ND","ND","ND","ND"],
    [15510,"42433,875","65,6","1","ND","ND","ND","ND"],
    [15511,"42433,91667","49,8","0,89","ND","ND","ND","ND"],
    [15512,"42433,95833","68,8","0,52","ND","ND","ND","ND"],
    [15513,"42464","43,2","0,55","ND","ND","ND","ND"],
    [15514,"42464,04167","48,8","1,57","ND","ND","ND","ND"],
    [15515,"42464,08333","36,1","1,52","ND","ND","ND","ND"],
    [15516,"42464,125","35,5","0,47","ND","ND","ND","ND"],
    [15517,"42464,16667","32,9","0,6","ND","ND","ND","ND"],
    [15518,"42464,20833","42","1,52","ND","ND","ND","ND"],
    [15519,"42464,25","33,7","1,05","ND","ND","ND","ND"],
    [15520,"42464,29167","46,1","1,26","ND","ND","ND","ND"],
    [15521,"42464,33333","55,3","1,52","ND","ND","ND","ND"],
    [15522,"42464,375","55,2","0,89","ND","ND","ND","ND"],
    [15523,"42464,41667","63,5","1,23","ND","ND","ND","ND"],
    [15524,"42464,45833","99,2","3,83","ND","ND","ND","ND"],
    [15525,"42464,5","49,6","8,83","ND","ND","ND","ND"],
    [15526,"42464,54167","29,6","3,93","ND","ND","ND","ND"],
    [15527,"42464,58333","51,3","3,38","ND","ND","ND","ND"],
    [15528,"42464,625","41,5","4,11","ND","ND","ND","ND"],
    [15529,"42464,66667","32,3","5,08","ND","ND","ND","ND"],
    [15530,"42464,70833","ND","4,4","ND","ND","ND","ND"],
    [15531,"42464,75","ND","9,43","ND","ND","ND","ND"],
    [15532,"42464,79167","ND","3,28","ND","ND","ND","ND"],
    [15533,"42464,83333","ND","5,97","ND","ND","ND","ND"],
    [15534,"42464,875","55,2","3,17","ND","ND","ND","ND"],
    [15535,"42464,91667","38,2","1,52","ND","ND","ND","ND"],
    [15536,"42464,95833","40,7","1","ND","ND","ND","ND"],
    [15537,"42494","43,5","0,34","ND","ND","ND","ND"],
    [15538,"42494,04167","34,3","0,47","ND","ND","ND","ND"],
    [15539,"42494,08333","40,9","0,55","ND","ND","ND","ND"],
    [15540,"42494,125","35","0,55","ND","ND","ND","ND"],
    [15541,"42494,16667","40,8","0,39","ND","ND","ND","ND"],
    [15542,"42494,20833","45,9","0,13","ND","ND","ND","ND"],
    [15543,"42494,25","60,9","0,47","ND","ND","ND","ND"],
    [15544,"42494,29167","86,9","4,04","ND","ND","ND","ND"],
    [15545,"42494,33333","71,6","3,09","ND","ND","ND","ND"],
    [15546,"42494,375","67","7,44","ND","ND","ND","ND"],
    [15547,"42494,41667","67","12,52","ND","ND","ND","ND"],
    [15548,"42494,45833","60,4","5,63","ND","ND","ND","ND"],
    [15549,"42494,5","62,8","2,52","ND","ND","ND","ND"],
    [15550,"42494,54167","56","1,78","ND","ND","ND","ND"],
    [15551,"42494,58333","59,8","1,76","ND","ND","ND","ND"],
    [15552,"42494,625","61,2","1,81","ND","ND","ND","ND"],
    [15553,"42494,66667","38,6","0,63","ND","ND","ND","ND"],
    [15554,"42494,70833","25,4","0,03","ND","ND","ND","ND"],
    [15555,"42494,75","25,2","ND","ND","ND","ND","ND"],
    [15556,"42494,79167","27,7","ND","ND","ND","ND","ND"],
    [15557,"42494,83333","50,1","0,6","ND","ND","ND","ND"],
    [15558,"42494,875","147,6","0,55","ND","ND","ND","ND"],
    [15559,"42494,91667","65,9","0,68","ND","ND","ND","ND"],
    [15560,"42494,95833","47,7","0,37","ND","ND","ND","ND"],
    [15561,"42525","33","0,1","ND","ND","ND","ND"],
    [15562,"42525,04167","48,3","0,18","ND","ND","ND","ND"],
    [15563,"42525,08333","40,7","0,34","ND","ND","ND","ND"],
    [15564,"42525,125","39,5","0,16","ND","ND","ND","ND"],
    [15565,"42525,16667","40,2","0,24","ND","ND","ND","ND"],
    [15566,"42525,20833","44","0,29","ND","ND","ND","ND"],
    [15567,"42525,25","70,4","0,42","ND","ND","ND","ND"],
    [15568,"42525,29167","83,3","1,1","ND","ND","ND","ND"],
    [15569,"42525,33333","91","1,99","ND","ND","ND","ND"],
    [15570,"42525,375","77,2","2,46","ND","ND","ND","ND"],
    [15571,"42525,41667","64,9","4,56","ND","ND","ND","ND"],
    [15572,"42525,45833","56,7","4,35","ND","ND","ND","ND"],
    [15573,"42525,5","60,5","4,09","ND","ND","ND","ND"],
    [15574,"42525,54167","53,1","2,33","ND","ND","ND","ND"],
    [15575,"42525,58333","60","1,34","ND","ND","ND","ND"],
    [15576,"42525,625","62","1,07","ND","ND","ND","ND"],
    [15577,"42525,66667","58,8","0,71","ND","ND","ND","ND"],
    [15578,"42525,70833","33,3","ND","ND","ND","ND","ND"],
    [15579,"42525,75","27,9","ND","ND","ND","ND","ND"],
    [15580,"42525,79167","26,9","ND","ND","ND","ND","ND"],
    [15581,"42525,83333","23,9","ND","ND","ND","ND","ND"],
    [15582,"42525,875","44,7","0,42","ND","ND","ND","ND"],
    [15583,"42525,91667","45,2","1,05","ND","ND","ND","ND"],
    [15584,"42525,95833","30","0,24","ND","ND","ND","ND"],
    [15585,"42555","42,2","0,92","ND","ND","ND","ND"],
    [15586,"42555,04167","32,2","0,21","ND","ND","ND","ND"],
    [15587,"42555,08333","31,5","0,29","ND","ND","ND","ND"],
    [15588,"42555,125","33,2","0,71","ND","ND","ND","ND"],
    [15589,"42555,16667","26,9","0,1","ND","ND","ND","ND"],
    [15590,"42555,20833","28,6","0,05","ND","ND","ND","ND"],
    [15591,"42555,25","54,7","2,33","ND","ND","ND","ND"],
    [15592,"42555,29167","64","5,58","ND","ND","ND","ND"],
    [15593,"42555,33333","67,2","3,33","ND","ND","ND","ND"],
    [15594,"42555,375","74,4","7,13","ND","ND","ND","ND"],
    [15595,"42555,41667","56,6","9,35","ND","ND","ND","ND"],
    [15596,"42555,45833","40,4","3,72","ND","ND","ND","ND"],
    [15597,"42555,5","39,1","1,39","ND","ND","ND","ND"],
    [15598,"42555,54167","45,3","0,66","ND","ND","ND","ND"],
    [15599,"42555,58333","19,8","ND","ND","ND","ND","ND"],
    [15600,"42555,625","18,9","ND","ND","ND","ND","ND"],
    [15601,"42555,66667","19","ND","ND","ND","ND","ND"],
    [15602,"42555,70833","16,2","ND","ND","ND","ND","ND"],
    [15603,"42555,75","15,6","ND","ND","ND","ND","ND"],
    [15604,"42555,79167","14,2","ND","ND","ND","ND","ND"],
    [15605,"42555,83333","13,7","ND","ND","ND","ND","ND"],
    [15606,"42555,875","15","ND","ND","ND","ND","ND"],
    [15607,"42555,91667","17,4","ND","ND","ND","ND","ND"],
    [15608,"42555,95833","27,4","0,37","ND","ND","ND","ND"],
    [15609,"42586","41,2","1,1","ND","ND","ND","ND"],
    [15610,"42586,04167","43,9","1,13","ND","ND","ND","ND"],
    [15611,"42586,08333","33,3","1,44","ND","ND","ND","ND"],
    [15612,"42586,125","38","2,59","ND","ND","ND","ND"],
    [15613,"42586,16667","38","1,41","ND","ND","ND","ND"],
    [15614,"42586,20833","38,8","0,79","ND","ND","ND","ND"],
    [15615,"42586,25","57,3","0,86","ND","ND","ND","ND"],
    [15616,"42586,29167","82,1","1,73","ND","ND","ND","ND"],
    [15617,"42586,33333","78,4","4,04","ND","ND","ND","ND"],
    [15618,"42586,375","87,7","8,18","ND","ND","ND","ND"],
    [15619,"42586,41667","63,4","8,91","ND","ND","ND","ND"],
    [15620,"42586,45833","49,5","5,84","ND","ND","ND","ND"],
    [15621,"42586,5","47,9","3,01","ND","ND","ND","ND"],
    [15622,"42586,54167","51","2,17","ND","ND","ND","ND"],
    [15623,"42586,58333","56,4","1,41","ND","ND","ND","ND"],
    [15624,"42586,625","28","ND","ND","ND","ND","ND"],
    [15625,"42586,66667","25,3","ND","ND","ND","ND","ND"],
    [15626,"42586,70833","29,9","ND","ND","ND","ND","ND"],
    [15627,"42586,75","32,7","ND","ND","ND","ND","ND"],
    [15628,"42586,79167","21,5","ND","ND","ND","ND","ND"],
    [15629,"42586,83333","20,4","ND","ND","ND","ND","ND"],
    [15630,"42586,875","16,6","ND","ND","ND","ND","ND"],
    [15631,"42586,91667","50,3","0,81","ND","ND","ND","ND"],
    [15632,"42586,95833","54,4","1,89","ND","ND","ND","ND"],
    [15633,"42617","36,3","1,15","ND","ND","ND","ND"],
    [15634,"42617,04167","29","0,52","ND","ND","ND","ND"],
    [15635,"42617,08333","31,3","1,21","ND","ND","ND","ND"],
    [15636,"42617,125","35,6","0,94","ND","ND","ND","ND"],
    [15637,"42617,16667","34,1","0,76","ND","ND","ND","ND"],
    [15638,"42617,20833","33,6","0,37","ND","ND","ND","ND"],
    [15639,"42617,25","22,5","0,34","ND","ND","ND","ND"],
    [15640,"42617,29167","25","0,81","ND","ND","ND","ND"],
    [15641,"42617,33333","25,4","0,5","ND","ND","ND","ND"],
    [15642,"42617,375","35,6","1,36","ND","ND","ND","ND"],
    [15643,"42617,41667","35,6","1,99","ND","ND","ND","ND"],
    [15644,"42617,45833","37,7","3,69","ND","ND","ND","ND"],
    [15645,"42617,5","43,9","7,02","ND","ND","ND","ND"],
    [15646,"42617,54167","38,8","3,62","ND","ND","ND","ND"],
    [15647,"42617,58333","44,6","2,78","ND","ND","ND","ND"],
    [15648,"42617,625","46,5","1,86","ND","ND","ND","ND"],
    [15649,"42617,66667","37,2","2,12","ND","ND","ND","ND"],
    [15650,"42617,70833","44,8","2,57","ND","ND","ND","ND"],
    [15651,"42617,75","48,6","2,07","ND","ND","ND","ND"],
    [15652,"42617,79167","52,5","1,49","ND","ND","ND","ND"],
    [15653,"42617,83333","38,9","1,47","ND","ND","ND","ND"],
    [15654,"42617,875","53,3","1,55","ND","ND","ND","ND"],
    [15655,"42617,91667","47,4","1,7","ND","ND","ND","ND"],
    [15656,"42617,95833","36,1","1,36","ND","ND","ND","ND"],
    [15657,"42647","10","1,41","ND","ND","ND","ND"],
    [15658,"42647,04167","36,3","1,13","ND","ND","ND","ND"],
    [15659,"42647,08333","30,7","1","ND","ND","ND","ND"],
    [15660,"42647,125","34,1","1,07","ND","ND","ND","ND"],
    [15661,"42647,16667","31,7","0,84","ND","ND","ND","ND"],
    [15662,"42647,20833","36,6","0,94","ND","ND","ND","ND"],
    [15663,"42647,25","38,8","0,89","ND","ND","ND","ND"],
    [15664,"42647,29167","53,6","1,21","ND","ND","ND","ND"],
    [15665,"42647,33333","54,1","1,36","ND","ND","ND","ND"],
    [15666,"42647,375","54,9","1,47","ND","ND","ND","ND"],
    [15667,"42647,41667","37,1","1,39","ND","ND","ND","ND"],
    [15668,"42647,45833","45,9","1,41","ND","ND","ND","ND"],
    [15669,"42647,5","65,4","3,12","ND","ND","ND","ND"],
    [15670,"42647,54167","50,3","7,97","ND","ND","ND","ND"],
    [15671,"42647,58333","43,8","9,49","ND","ND","ND","ND"],
    [15672,"42647,625","44,5","7,7","ND","ND","ND","ND"],
    [15673,"42647,66667","33,1","5,74","ND","ND","ND","ND"],
    [15674,"42647,70833","9,6","1,39","ND","ND","ND","ND"],
    [15675,"42647,75","12,9","0,97","ND","ND","ND","ND"],
    [15676,"42647,79167","11","0,73","ND","ND","ND","ND"],
    [15677,"42647,83333","20,6","2,17","ND","ND","ND","ND"],
    [15678,"42647,875","72,9","21,07","ND","ND","ND","ND"],
    [15679,"42647,91667","18,7","8,96","ND","ND","ND","ND"],
    [15680,"42647,95833","10,7","1,78","ND","ND","ND","ND"],
    [15681,"42678","11,1","0,47","ND","ND","ND","ND"],
    [15682,"42678,04167","5","0,86","ND","ND","ND","ND"],
    [15683,"42678,08333","7,4","1","ND","ND","ND","ND"],
    [15684,"42678,125","10,6","0,86","ND","ND","ND","ND"],
    [15685,"42678,16667","9,7","0,81","ND","ND","ND","ND"],
    [15686,"42678,20833","15,2","0,86","ND","ND","ND","ND"],
    [15687,"42678,25","27,7","1,13","ND","ND","ND","ND"],
    [15688,"42678,29167","46,5","1,91","ND","ND","ND","ND"],
    [15689,"42678,33333","65,8","3,09","ND","ND","ND","ND"],
    [15690,"42678,375","62,6","2,57","ND","ND","ND","ND"],
    [15691,"42678,41667","49,7","1,91","ND","ND","ND","ND"],
    [15692,"42678,45833","30","1,6","ND","ND","ND","ND"],
    [15693,"42678,5","19,3","1,23","ND","ND","ND","ND"],
    [15694,"42678,54167","19,4","1,23","ND","ND","ND","ND"],
    [15695,"42678,58333","23","1,21","ND","ND","ND","ND"],
    [15696,"42678,625","26,7","1","ND","ND","ND","ND"],
    [15697,"42678,66667","22,2","0,73","ND","ND","ND","ND"],
    [15698,"42678,70833","35,5","1","ND","ND","ND","ND"],
    [15699,"42678,75","26","0,89","ND","ND","ND","ND"],
    [15700,"42678,79167","35,2","1,02","ND","ND","ND","ND"],
    [15701,"42678,83333","41,7","1,23","ND","ND","ND","ND"],
    [15702,"42678,875","38,8","1,15","ND","ND","ND","ND"],
    [15703,"42678,91667","35,8","1,57","ND","ND","ND","ND"],
    [15704,"42678,95833","30,3","1,1","ND","ND","ND","ND"],
    [15705,"42708","44,2","1,7","ND","ND","ND","ND"],
    [15706,"42708,04167","6,2","0,6","ND","ND","ND","ND"],
    [15707,"42708,08333","7,4","1","ND","ND","ND","ND"],
    [15708,"42708,125","10,3","1,73","ND","ND","ND","ND"],
    [15709,"42708,16667","5,8","1,1","ND","ND","ND","ND"],
    [15710,"42708,20833","10,3","0,94","ND","ND","ND","ND"],
    [15711,"42708,25","13,2","3,35","ND","ND","ND","ND"],
    [15712,"42708,29167","13,2","2,59","ND","ND","ND","ND"],
    [15713,"42708,33333","16,7","1,89","ND","ND","ND","ND"],
    [15714,"42708,375","17,9","1,68","ND","ND","ND","ND"],
    [15715,"42708,41667","6,8","1,28","ND","ND","ND","ND"],
    [15716,"42708,45833","2,8","182,05","ND","ND","ND","ND"],
    [15717,"42708,5","15","1,52","ND","ND","ND","ND"],
    [15718,"42708,54167","8,1","1,34","ND","ND","ND","ND"],
    [15719,"42708,58333","22,4","1,31","ND","ND","ND","ND"],
    [15720,"42708,625","17,1","1,36","ND","ND","ND","ND"],
    [15721,"42708,66667","37,3","11,32","ND","ND","ND","ND"],
    [15722,"42708,70833","54,4","12,11","ND","ND","ND","ND"],
    [15723,"42708,75","45,1","3,43","ND","ND","ND","ND"],
    [15724,"42708,79167","26,6","2,23","ND","ND","ND","ND"],
    [15725,"42708,83333","27,3","1,68","ND","ND","ND","ND"],
    [15726,"42708,875","32,9","1,6","ND","ND","ND","ND"],
    [15727,"42708,91667","42,2","1,78","ND","ND","ND","ND"],
    [15728,"42708,95833","39,2","1,55","ND","ND","ND","ND"],
    [15729,"04/13/2016 00:00","33,2","3,46","ND","ND","ND","ND"],
    [15730,"04/13/2016 01:00","44,2","1,36","ND","ND","ND","ND"],
    [15731,"04/13/2016 02:00","22","1,36","ND","ND","ND","ND"],
    [15732,"04/13/2016 03:00","23,3","1,52","ND","ND","ND","ND"],
    [15733,"04/13/2016 04:00","22,6","1","ND","ND","ND","ND"],
    [15734,"04/13/2016 05:00","27,3","1,15","ND","ND","ND","ND"],
    [15735,"04/13/2016 06:00","24,9","1,13","ND","ND","ND","ND"],
    [15736,"04/13/2016 07:00","39,3","1,62","ND","ND","ND","ND"],
    [15737,"04/13/2016 08:00","36,1","1,65","ND","ND","ND","ND"],
    [15738,"04/13/2016 09:00","43","10,74","ND","ND","ND","ND"],
    [15739,"04/13/2016 10:00","44,3","20,02","ND","ND","ND","ND"],
    [15740,"04/13/2016 11:00","43,1","11,58","ND","ND","ND","ND"],
    [15741,"04/13/2016 12:00","40,4","8,54","ND","ND","ND","ND"],
    [15742,"04/13/2016 13:00","38,4","5,06","ND","ND","ND","ND"],
    [15743,"04/13/2016 14:00","36","2,78","ND","ND","ND","ND"],
    [15744,"04/13/2016 15:00","46","2,07","ND","ND","ND","ND"],
    [15745,"04/13/2016 16:00","53,1","1,76","ND","ND","ND","ND"],
    [15746,"04/13/2016 17:00","40,3","1,47","ND","ND","ND","ND"],
    [15747,"04/13/2016 18:00","22,8","1,26","ND","ND","ND","ND"],
    [15748,"04/13/2016 19:00","18,1","1,07","ND","ND","ND","ND"],
    [15749,"04/13/2016 20:00","18,1","1,39","ND","ND","ND","ND"],
    [15750,"04/13/2016 21:00","34,2","1,57","ND","ND","ND","ND"],
    [15751,"04/13/2016 22:00","42,1","1,89","ND","ND","ND","ND"],
    [15752,"04/13/2016 23:00","61,6","2,73","ND","ND","ND","ND"],
    [15753,"04/14/2016 00:00","34,4","2,41","ND","ND","ND","ND"],
    [15754,"04/14/2016 01:00","26,2","3,07","ND","ND","ND","ND"],
    [15755,"04/14/2016 02:00","24,9","2,23","ND","ND","ND","ND"],
    [15756,"04/14/2016 03:00","28,2","2,02","ND","ND","ND","ND"],
    [15757,"04/14/2016 04:00","25,6","2,54","ND","ND","ND","ND"],
    [15758,"04/14/2016 05:00","32,8","2,31","ND","ND","ND","ND"],
    [15759,"04/14/2016 06:00","52,8","2,38","ND","ND","ND","ND"],
    [15760,"04/14/2016 07:00","83,1","2,36","ND","ND","ND","ND"],
    [15761,"04/14/2016 08:00","77,1","2,88","ND","ND","ND","ND"],
    [15762,"04/14/2016 09:00","79,6","11,29","ND","ND","ND","ND"],
    [15763,"04/14/2016 10:00","58,6","9,2","ND","ND","ND","ND"],
    [15764,"04/14/2016 11:00","57,6","4,64","ND","ND","ND","ND"],
    [15765,"04/14/2016 12:00","59,7","4,22","ND","ND","ND","ND"],
    [15766,"04/14/2016 13:00","61,3","2,67","ND","ND","ND","ND"],
    [15767,"04/14/2016 14:00","16,7","1","ND","ND","ND","ND"],
    [15768,"04/14/2016 15:00","11,9","0,79","ND","ND","ND","ND"],
    [15769,"04/14/2016 16:00","13","0,68","ND","ND","ND","ND"],
    [15770,"04/14/2016 17:00","13,2","0,58","ND","ND","ND","ND"],
    [15771,"04/14/2016 18:00","12,8","0,71","ND","ND","ND","ND"],
    [15772,"04/14/2016 19:00","12,4","0,58","ND","ND","ND","ND"],
    [15773,"04/14/2016 20:00","12,1","0,76","ND","ND","ND","ND"],
    [15774,"04/14/2016 21:00","54,4","1,76","ND","ND","ND","ND"],
    [15775,"04/14/2016 22:00","54,4","2,17","ND","ND","ND","ND"],
    [15776,"04/14/2016 23:00","52,8","2,57","ND","ND","ND","ND"],
    [15777,"04/15/2016 00:00","23,7","0,97","ND","ND","ND","ND"],
    [15778,"04/15/2016 01:00","28","2,1","ND","ND","ND","ND"],
    [15779,"04/15/2016 02:00","31,9","2,17","ND","ND","ND","ND"],
    [15780,"04/15/2016 03:00","27,3","2,28","ND","ND","ND","ND"],
    [15781,"04/15/2016 04:00","32,2","1,86","ND","ND","ND","ND"],
    [15782,"04/15/2016 05:00","42","1,7","ND","ND","ND","ND"],
    [15783,"04/15/2016 06:00","62,9","2,1","ND","ND","ND","ND"],
    [15784,"04/15/2016 07:00","77","2,38","ND","ND","ND","ND"],
    [15785,"04/15/2016 08:00","77,2","3,17","ND","ND","ND","ND"],
    [15786,"04/15/2016 09:00","63,9","6,81","ND","ND","ND","ND"],
    [15787,"04/15/2016 10:00","54,7","7,23","ND","ND","ND","ND"],
    [15788,"04/15/2016 11:00","54,1","6,76","ND","ND","ND","ND"],
    [15789,"04/15/2016 12:00","45,9","5,4","ND","ND","ND","ND"],
    [15790,"04/15/2016 13:00","47,5","3,54","ND","ND","ND","ND"],
    [15791,"04/15/2016 14:00","52,7","2,8","ND","ND","ND","ND"],
    [15792,"04/15/2016 15:00","48,4","1,81","ND","ND","ND","ND"],
    [15793,"04/15/2016 16:00","48,4","0,84","ND","ND","ND","ND"],
    [15794,"04/15/2016 17:00","21","0,68","ND","ND","ND","ND"],
    [15795,"04/15/2016 18:00","20,4","0,71","ND","ND","ND","ND"],
    [15796,"04/15/2016 19:00","14,2","0,6","ND","ND","ND","ND"],
    [15797,"04/15/2016 20:00","42,7","0,97","ND","ND","ND","ND"],
    [15798,"04/15/2016 21:00","33,7","0,89","ND","ND","ND","ND"],
    [15799,"04/15/2016 22:00","39,5","1,36","ND","ND","ND","ND"],
    [15800,"04/15/2016 23:00","53,7","1,65","ND","ND","ND","ND"],
    [15801,"04/16/2016 00:00","60,1","1,81","ND","ND","ND","ND"],
    [15802,"04/16/2016 01:00","27,6","1,15","ND","ND","ND","ND"],
    [15803,"04/16/2016 02:00","6,7","0,63","ND","ND","ND","ND"],
    [15804,"04/16/2016 03:00","3,8","0,39","ND","ND","ND","ND"],
    [15805,"04/16/2016 04:00","11,9","0,31","ND","ND","ND","ND"],
    [15806,"04/16/2016 05:00","21,3","0,5","ND","ND","ND","ND"],
    [15807,"04/16/2016 06:00","21,3","0,63","ND","ND","ND","ND"],
    [15808,"04/16/2016 07:00","22","0,89","ND","ND","ND","ND"],
    [15809,"04/16/2016 08:00","30,3","1,31","ND","ND","ND","ND"],
    [15810,"04/16/2016 09:00","39,1","6","ND","ND","ND","ND"],
    [15811,"04/16/2016 10:00","54,4","23,87","ND","ND","ND","ND"],
    [15812,"04/16/2016 11:00","59","15,3","ND","ND","ND","ND"],
    [15813,"04/16/2016 12:00","50,2","7,1","ND","ND","ND","ND"],
    [15814,"04/16/2016 13:00","41,9","3,62","ND","ND","ND","ND"],
    [15815,"04/16/2016 14:00","36,8","4,48","ND","ND","ND","ND"],
    [15816,"04/16/2016 15:00","26,2","4,59","ND","ND","ND","ND"],
    [15817,"04/16/2016 16:00","7,4","1,13","ND","ND","ND","ND"],
    [15818,"04/16/2016 17:00","6,6","0,79","ND","ND","ND","ND"],
    [15819,"04/16/2016 18:00","31,6","1,36","ND","ND","ND","ND"],
    [15820,"04/16/2016 19:00","56,2","1,76","ND","ND","ND","ND"],
    [15821,"04/16/2016 20:00","45,6","1,89","ND","ND","ND","ND"],
    [15822,"04/16/2016 21:00","58,3","1,81","ND","ND","ND","ND"],
    [15823,"04/16/2016 22:00","53,7","1,76","ND","ND","ND","ND"],
    [15824,"04/16/2016 23:00","60,1","1,78","ND","ND","ND","ND"],
    [15825,"04/17/2016 00:00","38,2","1,28","ND","ND","ND","ND"],
    [15826,"04/17/2016 01:00","33,8","1,41","ND","ND","ND","ND"],
    [15827,"04/17/2016 02:00","27,3","1,05","ND","ND","ND","ND"],
    [15828,"04/17/2016 03:00","37","1,26","ND","ND","ND","ND"],
    [15829,"04/17/2016 04:00","50,8","1,7","ND","ND","ND","ND"],
    [15830,"04/17/2016 05:00","41,7","1,68","ND","ND","ND","ND"],
    [15831,"04/17/2016 06:00","50,1","2,2","ND","ND","ND","ND"],
    [15832,"04/17/2016 07:00","48,7","2,23","ND","ND","ND","ND"],
    [15833,"04/17/2016 08:00","46","4,24","ND","ND","ND","ND"],
    [15834,"04/17/2016 09:00","52,5","10,17","ND","ND","ND","ND"],
    [15835,"04/17/2016 10:00","52,3","23,66","ND","ND","ND","ND"],
    [15836,"04/17/2016 11:00","47,8","7,42","ND","ND","ND","ND"],
    [15837,"04/17/2016 12:00","53,2","7,81","ND","ND","ND","ND"],
    [15838,"04/17/2016 13:00","50,7","5,37","ND","ND","ND","ND"],
    [15839,"04/17/2016 14:00","52,2","3,93","ND","ND","ND","ND"],
    [15840,"04/17/2016 15:00","57,2","4,04","ND","ND","ND","ND"],
    [15841,"04/17/2016 16:00","53,6","4,35","ND","ND","ND","ND"],
    [15842,"04/17/2016 17:00","25,7","1,7","ND","ND","ND","ND"],
    [15843,"04/17/2016 18:00","22","1,07","ND","ND","ND","ND"],
    [15844,"04/17/2016 19:00","21,6","0,79","ND","ND","ND","ND"],
    [15845,"04/17/2016 20:00","27,3","1,07","ND","ND","ND","ND"],
    [15846,"04/17/2016 21:00","40,2","1,31","ND","ND","ND","ND"],
    [15847,"04/17/2016 22:00","45,4","1,47","ND","ND","ND","ND"],
    [15848,"04/17/2016 23:00","58,7","2,02","ND","ND","ND","ND"],
    [15849,"04/18/2016 00:00","51,3","1,1","ND","ND","ND","ND"],
    [15850,"04/18/2016 01:00","28,7","0,89","ND","ND","ND","ND"],
    [15851,"04/18/2016 02:00","34,7","0,76","ND","ND","ND","ND"],
    [15852,"04/18/2016 03:00","42,3","1,26","ND","ND","ND","ND"],
    [15853,"04/18/2016 04:00","49","2,33","ND","ND","ND","ND"],
    [15854,"04/18/2016 05:00","54,9","2,41","ND","ND","ND","ND"],
    [15855,"04/18/2016 06:00","56,5","1,68","ND","ND","ND","ND"],
    [15856,"04/18/2016 07:00","90,9","2,07","ND","ND","ND","ND"],
    [15857,"04/18/2016 08:00","71,6","2,36","ND","ND","ND","ND"],
    [15858,"04/18/2016 09:00","72,1","3,46","ND","ND","ND","ND"],
    [15859,"04/18/2016 10:00","72,7","11,97","ND","ND","ND","ND"],
    [15860,"04/18/2016 11:00","51,6","5,95","ND","ND","ND","ND"],
    [15861,"04/18/2016 12:00","47,8","4,85","ND","ND","ND","ND"],
    [15862,"04/18/2016 13:00","50,4","4,43","ND","ND","ND","ND"],
    [15863,"04/18/2016 14:00","51,5","3,14","ND","ND","ND","ND"],
    [15864,"04/18/2016 15:00","13,5","1,07","ND","ND","ND","ND"],
    [15865,"04/18/2016 16:00","20,7","0,79","ND","ND","ND","ND"],
    [15866,"04/18/2016 17:00","18,1","0,92","ND","ND","ND","ND"],
    [15867,"04/18/2016 18:00","23,6","0,73","ND","ND","ND","ND"],
    [15868,"04/18/2016 19:00","22,4","0,86","ND","ND","ND","ND"],
    [15869,"04/18/2016 20:00","18,5","0,73","ND","ND","ND","ND"],
    [15870,"04/18/2016 21:00","35,8","0,89","ND","ND","ND","ND"],
    [15871,"04/18/2016 22:00","55,7","1,86","ND","ND","ND","ND"],
    [15872,"04/18/2016 23:00","61","1,57","ND","ND","ND","ND"],
    [15873,"04/19/2016 00:00","71,6","1,73","ND","ND","ND","ND"],
    [15874,"04/19/2016 01:00","39,4","1,13","ND","ND","ND","ND"],
    [15875,"04/19/2016 02:00","37","0,89","ND","ND","ND","ND"],
    [15876,"04/19/2016 03:00","38","0,89","ND","ND","ND","ND"],
    [15877,"04/19/2016 04:00","34,2","0,92","ND","ND","ND","ND"],
    [15878,"04/19/2016 05:00","37","0,79","ND","ND","ND","ND"],
    [15879,"04/19/2016 06:00","52,3","0,94","ND","ND","ND","ND"],
    [15880,"04/19/2016 07:00","78,6","1,76","ND","ND","ND","ND"],
    [15881,"04/19/2016 08:00","87,1","3,64","ND","ND","ND","ND"],
    [15882,"04/19/2016 09:00","77,2","5,16","ND","ND","ND","ND"],
    [15883,"04/19/2016 10:00","52,2","3,75","ND","ND","ND","ND"],
    [15884,"04/19/2016 11:00","53,1","3,69","ND","ND","ND","ND"],
    [15885,"04/19/2016 12:00","78,2","4,4","ND","ND","ND","ND"],
    [15886,"04/19/2016 13:00","70,6","3,33","ND","ND","ND","ND"],
    [15887,"04/19/2016 14:00","36,3","1,89","ND","ND","ND","ND"],
    [15888,"04/19/2016 15:00","22,5","1,1","ND","ND","ND","ND"],
    [15889,"04/19/2016 16:00","16,9","0,79","ND","ND","ND","ND"],
    [15890,"04/19/2016 17:00","28,6","1,02","ND","ND","ND","ND"],
    [15891,"04/19/2016 18:00","31,3","0,92","ND","ND","ND","ND"],
    [15892,"04/19/2016 19:00","31,7","0,92","ND","ND","ND","ND"],
    [15893,"04/19/2016 20:00","26,9","0,52","ND","ND","ND","ND"],
    [15894,"04/19/2016 21:00","13,3","0,52","ND","ND","ND","ND"],
    [15895,"04/19/2016 22:00","29,7","1,18","ND","ND","ND","ND"],
    [15896,"04/19/2016 23:00","58,4","1,91","ND","ND","ND","ND"],
    [15897,"04/20/2016 00:00","40,6","2,44","ND","ND","ND","ND"],
    [15898,"04/20/2016 01:00","58,2","1,97","ND","ND","ND","ND"],
    [15899,"04/20/2016 02:00","41,5","1,86","ND","ND","ND","ND"],
    [15900,"04/20/2016 03:00","40,8","2,04","ND","ND","ND","ND"],
    [15901,"04/20/2016 04:00","48,1","2,91","ND","ND","ND","ND"],
    [15902,"04/20/2016 05:00","40,7","3,09","ND","ND","ND","ND"],
    [15903,"04/20/2016 06:00","52,5","4,22","ND","ND","ND","ND"],
    [15904,"04/20/2016 07:00","69,5","4,56","ND","ND","ND","ND"],
    [15905,"04/20/2016 08:00","66,4","7,28","ND","ND","ND","ND"],
    [15906,"04/20/2016 09:00","72,5","11,11","ND","ND","ND","ND"],
    [15907,"04/20/2016 10:00","122,8","9,83","ND","ND","ND","ND"],
    [15908,"04/20/2016 11:00","75,2","186,69","ND","ND","ND","ND"],
    [15909,"04/20/2016 12:00","61,7","4,95","ND","ND","ND","ND"],
    [15910,"04/20/2016 13:00","65,3","3,59","ND","ND","ND","ND"],
    [15911,"04/20/2016 14:00","50,6","2,59","ND","ND","ND","ND"],
    [15912,"04/20/2016 15:00","17,5","0,94","ND","ND","ND","ND"],
    [15913,"04/20/2016 16:00","25,1","0,71","ND","ND","ND","ND"],
    [15914,"04/20/2016 17:00","19,4","0,47","ND","ND","ND","ND"],
    [15915,"04/20/2016 18:00","16","0,5","ND","ND","ND","ND"],
    [15916,"04/20/2016 19:00","19,7","0,47","ND","ND","ND","ND"],
    [15917,"04/20/2016 20:00","32,1","1,18","ND","ND","ND","ND"],
    [15918,"04/20/2016 21:00","50,4","2,04","ND","ND","ND","ND"],
    [15919,"04/20/2016 22:00","53,8","2,07","ND","ND","ND","ND"],
    [15920,"04/20/2016 23:00","50,5","1,89","ND","ND","ND","ND"],
    [15921,"04/21/2016 00:00","56,9","2,59","ND","ND","ND","ND"],
    [15922,"04/21/2016 01:00","29,6","1,68","ND","ND","ND","ND"],
    [15923,"04/21/2016 02:00","25,9","1,94","ND","ND","ND","ND"],
    [15924,"04/21/2016 03:00","30,2","1,99","ND","ND","ND","ND"],
    [15925,"04/21/2016 04:00","28,4","1,47","ND","ND","ND","ND"],
    [15926,"04/21/2016 05:00","37,2","1,18","ND","ND","ND","ND"],
    [15927,"04/21/2016 06:00","47,9","2,59","ND","ND","ND","ND"],
    [15928,"04/21/2016 07:00","73,1","2,36","ND","ND","ND","ND"],
    [15929,"04/21/2016 08:00","80","2,73","ND","ND","ND","ND"],
    [15930,"04/21/2016 09:00","57,1","32,73","ND","ND","ND","ND"],
    [15931,"04/21/2016 10:00","68,1","17,69","ND","ND","ND","ND"],
    [15932,"04/21/2016 11:00","43,3","7,23","ND","ND","ND","ND"],
    [15933,"04/21/2016 12:00","44,4","4,82","ND","ND","ND","ND"],
    [15934,"04/21/2016 13:00","45,2","3,51","ND","ND","ND","ND"],
    [15935,"04/21/2016 14:00","52,2","3,14","ND","ND","ND","ND"],
    [15936,"04/21/2016 15:00","42,7","2,75","ND","ND","ND","ND"],
    [15937,"04/21/2016 16:00","44,7","2,28","ND","ND","ND","ND"],
    [15938,"04/21/2016 17:00","54,2","1,34","ND","ND","ND","ND"],
    [15939,"04/21/2016 18:00","24,1","0,81","ND","ND","ND","ND"],
    [15940,"04/21/2016 19:00","19,3","0,63","ND","ND","ND","ND"],
    [15941,"04/21/2016 20:00","13,3","0,45","ND","ND","ND","ND"],
    [15942,"04/21/2016 21:00","12,6","0,52","ND","ND","ND","ND"],
    [15943,"04/21/2016 22:00","51,5","2,02","ND","ND","ND","ND"],
    [15944,"04/21/2016 23:00","72,8","2,57","ND","ND","ND","ND"],
    [15945,"04/22/2016 00:00","54,6","2,1","ND","ND","ND","ND"],
    [15946,"04/22/2016 01:00","35,1","2,2","ND","ND","ND","ND"],
    [15947,"04/22/2016 02:00","39","1,52","ND","ND","ND","ND"],
    [15948,"04/22/2016 03:00","43,4","2,65","ND","ND","ND","ND"],
    [15949,"04/22/2016 04:00","39,5","2,57","ND","ND","ND","ND"],
    [15950,"04/22/2016 05:00","41,5","2,52","ND","ND","ND","ND"],
    [15951,"04/22/2016 06:00","51,3","2,86","ND","ND","ND","ND"],
    [15952,"04/22/2016 07:00","82,5","2,7","ND","ND","ND","ND"],
    [15953,"04/22/2016 08:00","82,5","6,5","ND","ND","ND","ND"],
    [15954,"04/22/2016 09:00","61,8","10,43","ND","ND","ND","ND"],
    [15955,"04/22/2016 10:00","60,5","8,28","ND","ND","ND","ND"],
    [15956,"04/22/2016 11:00","52,3","7,26","ND","ND","ND","ND"],
    [15957,"04/22/2016 12:00","48,9","6,16","ND","ND","ND","ND"],
    [15958,"04/22/2016 13:00","58,1","5,97","ND","ND","ND","ND"],
    [15959,"04/22/2016 14:00","66,8","4,17","ND","ND","ND","ND"],
    [15960,"04/22/2016 15:00","69,7","4,27","ND","ND","ND","ND"],
    [15961,"04/22/2016 16:00","42,1","2,75","ND","ND","ND","ND"],
    [15962,"04/22/2016 17:00","27,5","1,34","ND","ND","ND","ND"],
    [15963,"04/22/2016 18:00","93,2","4,04","ND","ND","ND","ND"],
    [15964,"04/22/2016 19:00","23,2","2,1","ND","ND","ND","ND"],
    [15965,"04/22/2016 20:00","7,8","0,89","ND","ND","ND","ND"],
    [15966,"04/22/2016 21:00","44,4","1,41","ND","ND","ND","ND"],
    [15967,"04/22/2016 22:00","50,1","1,83","ND","ND","ND","ND"],
    [15968,"04/22/2016 23:00","36","1,36","ND","ND","ND","ND"],
    [15969,"04/23/2016 00:00","39","1,52","ND","ND","ND","ND"],
    [15970,"04/23/2016 01:00","34,7","2,2","ND","ND","ND","ND"],
    [15971,"04/23/2016 02:00","39,3","1,91","ND","ND","ND","ND"],
    [15972,"04/23/2016 03:00","64,7","2,67","ND","ND","ND","ND"],
    [15973,"04/23/2016 04:00","45,6","2,02","ND","ND","ND","ND"],
    [15974,"04/23/2016 05:00","44","1,47","ND","ND","ND","ND"],
    [15975,"04/23/2016 06:00","40,7","1,41","ND","ND","ND","ND"],
    [15976,"04/23/2016 07:00","59,7","1,99","ND","ND","ND","ND"],
    [15977,"04/23/2016 08:00","63,9","2,41","ND","ND","ND","ND"],
    [15978,"04/23/2016 09:00","48,5","3,01","ND","ND","ND","ND"],
    [15979,"04/23/2016 10:00","31,1","1,97","ND","ND","ND","ND"],
    [15980,"04/23/2016 11:00","18,9","1,47","ND","ND","ND","ND"],
    [15981,"04/23/2016 12:00","27,1","1,7","ND","ND","ND","ND"],
    [15982,"04/23/2016 13:00","29,3","1,81","ND","ND","ND","ND"],
    [15983,"04/23/2016 14:00","36","1,73","ND","ND","ND","ND"],
    [15984,"04/23/2016 15:00","10,4","0,63","ND","ND","ND","ND"],
    [15985,"04/23/2016 16:00","8,2","0,52","ND","ND","ND","ND"],
    [15986,"04/23/2016 17:00","8,2","0,52","ND","ND","ND","ND"],
    [15987,"04/23/2016 18:00","13,7","0,63","ND","ND","ND","ND"],
    [15988,"04/23/2016 19:00","20","0,71","ND","ND","ND","ND"],
    [15989,"04/23/2016 20:00","34,1","1,02","ND","ND","ND","ND"],
    [15990,"04/23/2016 21:00","45,6","2,17","ND","ND","ND","ND"],
    [15991,"04/23/2016 22:00","30,2","2,04","ND","ND","ND","ND"],
    [15992,"04/23/2016 23:00","31,6","1,94","ND","ND","ND","ND"],
    [15993,"04/24/2016 00:00","13,8","1,26","ND","ND","ND","ND"],
    [15994,"04/24/2016 01:00","37,7","1,18","ND","ND","ND","ND"],
    [15995,"04/24/2016 02:00","24","1,05","ND","ND","ND","ND"],
    [15996,"04/24/2016 03:00","26","1,41","ND","ND","ND","ND"],
    [15997,"04/24/2016 04:00","23,1","1,13","ND","ND","ND","ND"],
    [15998,"04/24/2016 05:00","23,9","1,39","ND","ND","ND","ND"],
    [15999,"04/24/2016 06:00","31,8","2,91","ND","ND","ND","ND"],
    [16000,"04/24/2016 07:00","33","2,23","ND","ND","ND","ND"],
    [16001,"04/24/2016 08:00","36,3","3,54","ND","ND","ND","ND"],
    [16002,"04/24/2016 09:00","29,7","5,42","ND","ND","ND","ND"],
    [16003,"04/24/2016 10:00","33,8","4,95","ND","ND","ND","ND"],
    [16004,"04/24/2016 11:00","39,4","4,51","ND","ND","ND","ND"],
    [16005,"04/24/2016 12:00","59,1","4,77","ND","ND","ND","ND"],
    [16006,"04/24/2016 13:00","37,2","2,1","ND","ND","ND","ND"],
    [16007,"04/24/2016 14:00","17,2","1,28","ND","ND","ND","ND"],
    [16008,"04/24/2016 15:00","7,3","1,39","ND","ND","ND","ND"],
    [16009,"04/24/2016 16:00","29,7","2,59","ND","ND","ND","ND"],
    [16010,"04/24/2016 17:00","25,9","2,99","ND","ND","ND","ND"],
    [16011,"04/24/2016 18:00","30,6","3,07","ND","ND","ND","ND"],
    [16012,"04/24/2016 19:00","19,9","1,73","ND","ND","ND","ND"],
    [16013,"04/24/2016 20:00","13,5","1,41","ND","ND","ND","ND"],
    [16014,"04/24/2016 21:00","19,3","1,44","ND","ND","ND","ND"],
    [16015,"04/24/2016 22:00","17,6","1,49","ND","ND","ND","ND"],
    [16016,"04/24/2016 23:00","14,3","1,21","ND","ND","ND","ND"],
    [16017,"04/25/2016 00:00","28,1","0,89","ND","ND","ND","ND"],
    [16018,"04/25/2016 01:00","10,1","1,07","ND","ND","ND","ND"],
    [16019,"04/25/2016 02:00","8,4","0,92","ND","ND","ND","ND"],
    [16020,"04/25/2016 03:00","11,4","0,76","ND","ND","ND","ND"],
    [16021,"04/25/2016 04:00","13,4","0,84","ND","ND","ND","ND"],
    [16022,"04/25/2016 05:00","16,6","0,81","ND","ND","ND","ND"],
    [16023,"04/25/2016 06:00","20,5","0,73","ND","ND","ND","ND"],
    [16024,"04/25/2016 07:00","21,2","1,44","ND","ND","ND","ND"],
    [16025,"04/25/2016 08:00","36,9","5,5","ND","ND","ND","ND"],
    [16026,"04/25/2016 09:00","45,6","5,63","ND","ND","ND","ND"],
    [16027,"04/25/2016 10:00","50,1","5,5","ND","ND","ND","ND"],
    [16028,"04/25/2016 11:00","30,8","6,5","ND","ND","ND","ND"],
    [16029,"04/25/2016 12:00","33,8","5,76","ND","ND","ND","ND"],
    [16030,"04/25/2016 13:00","37,1","3,69","ND","ND","ND","ND"],
    [16031,"04/25/2016 14:00","43,4","2,99","ND","ND","ND","ND"],
    [16032,"04/25/2016 15:00","42,9","3,33","ND","ND","ND","ND"],
    [16033,"04/25/2016 16:00","47,2","2,86","ND","ND","ND","ND"],
    [16034,"04/25/2016 17:00","56","2,78","ND","ND","ND","ND"],
    [16035,"04/25/2016 18:00","62,4","2,57","ND","ND","ND","ND"],
    [16036,"04/25/2016 19:00","40,1","1,73","ND","ND","ND","ND"],
    [16037,"04/25/2016 20:00","15,1","1,26","ND","ND","ND","ND"],
    [16038,"04/25/2016 21:00","49,2","1,68","ND","ND","ND","ND"],
    [16039,"04/25/2016 22:00","34,5","2,57","ND","ND","ND","ND"],
    [16040,"04/25/2016 23:00","28,1","1,34","ND","ND","ND","ND"],
    [16041,"04/26/2016 00:00","45,1","1,94","ND","ND","ND","ND"],
    [16042,"04/26/2016 01:00","17,7","0,79","ND","ND","ND","ND"],
    [16043,"04/26/2016 02:00","18,9","0,94","ND","ND","ND","ND"],
    [16044,"04/26/2016 03:00","15,3","1,18","ND","ND","ND","ND"],
    [16045,"04/26/2016 04:00","12,7","0,86","ND","ND","ND","ND"],
    [16046,"04/26/2016 05:00","8","0,97","ND","ND","ND","ND"],
    [16047,"04/26/2016 06:00","13,5","0,89","ND","ND","ND","ND"],
    [16048,"04/26/2016 07:00","13,5","1,05","ND","ND","ND","ND"],
    [16049,"04/26/2016 08:00","17,1","1,39","ND","ND","ND","ND"],
    [16050,"04/26/2016 09:00","10","1,26","ND","ND","ND","ND"],
    [16051,"04/26/2016 10:00","5,7","0,79","ND","ND","ND","ND"],
    [16052,"04/26/2016 11:00","10,9","1,18","ND","ND","ND","ND"],
    [16053,"04/26/2016 12:00","14,4","0,89","ND","ND","ND","ND"],
    [16054,"04/26/2016 13:00","19,8","0,94","ND","ND","ND","ND"],
    [16055,"04/26/2016 14:00","25,1","1,1","ND","ND","ND","ND"],
    [16056,"04/26/2016 15:00","13,1","0,6","ND","ND","ND","ND"],
    [16057,"04/26/2016 16:00","15,6","0,47","ND","ND","ND","ND"],
    [16058,"04/26/2016 17:00","16,6","0,81","ND","ND","ND","ND"],
    [16059,"04/26/2016 18:00","19,3","1","ND","ND","ND","ND"],
    [16060,"04/26/2016 19:00","20,8","1,05","ND","ND","ND","ND"],
    [16061,"04/26/2016 20:00","37,7","2,2","ND","ND","ND","ND"],
    [16062,"04/26/2016 21:00","57,3","2,33","ND","ND","ND","ND"],
    [16063,"04/26/2016 22:00","38,8","1,7","ND","ND","ND","ND"],
    [16064,"04/26/2016 23:00","42,3","2,46","ND","ND","ND","ND"],
    [16065,"04/27/2016 00:00","23,8","0,81","ND","ND","ND","ND"],
    [16066,"04/27/2016 01:00","40","3,8","ND","ND","ND","ND"],
    [16067,"04/27/2016 02:00","28,2","3,3","ND","ND","ND","ND"],
    [16068,"04/27/2016 03:00","26","1,55","ND","ND","ND","ND"],
    [16069,"04/27/2016 04:00","19,6","1,65","ND","ND","ND","ND"],
    [16070,"04/27/2016 05:00","10,7","1,26","ND","ND","ND","ND"],
    [16071,"04/27/2016 06:00","16,7","1,13","ND","ND","ND","ND"],
    [16072,"04/27/2016 07:00","19","1,18","ND","ND","ND","ND"],
    [16073,"04/27/2016 08:00","19,6","1,73","ND","ND","ND","ND"],
    [16074,"04/27/2016 09:00","11,7","1,36","ND","ND","ND","ND"],
    [16075,"04/27/2016 10:00","24,1","1,49","ND","ND","ND","ND"],
    [16076,"04/27/2016 11:00","25,5","1,44","ND","ND","ND","ND"],
    [16077,"04/27/2016 12:00","34,6","1,55","ND","ND","ND","ND"],
    [16078,"04/27/2016 13:00","31,4","1,6","ND","ND","ND","ND"],
    [16079,"04/27/2016 14:00","48,1","2,1","ND","ND","ND","ND"],
    [16080,"04/27/2016 15:00","45,5","3,43","ND","ND","ND","ND"],
    [16081,"04/27/2016 16:00","29,9","4,8","ND","ND","ND","ND"],
    [16082,"04/27/2016 17:00","14","0,73","ND","ND","ND","ND"],
    [16083,"04/27/2016 18:00","14,4","0,68","ND","ND","ND","ND"],
    [16084,"04/27/2016 19:00","33,6","1,02","ND","ND","ND","ND"],
    [16085,"04/27/2016 20:00","22,5","1,15","ND","ND","ND","ND"],
    [16086,"04/27/2016 21:00","31,9","1,21","ND","ND","ND","ND"],
    [16087,"04/27/2016 22:00","32,5","1,28","ND","ND","ND","ND"],
    [16088,"04/27/2016 23:00","25,3","1","ND","ND","ND","ND"],
    [16089,"04/28/2016 00:00","11,7","2,25","ND","ND","ND","ND"],
    [16090,"04/28/2016 01:00","20,2","0,84","ND","ND","ND","ND"],
    [16091,"04/28/2016 02:00","16,7","0,79","ND","ND","ND","ND"],
    [16092,"04/28/2016 03:00","16,8","0,81","ND","ND","ND","ND"],
    [16093,"04/28/2016 04:00","19,7","0,66","ND","ND","ND","ND"],
    [16094,"04/28/2016 05:00","24,4","0,63","ND","ND","ND","ND"],
    [16095,"04/28/2016 06:00","22,4","0,84","ND","ND","ND","ND"],
    [16096,"04/28/2016 07:00","15,2","1,34","ND","ND","ND","ND"],
    [16097,"04/28/2016 08:00","16,2","1,65","ND","ND","ND","ND"],
    [16098,"04/28/2016 09:00","14,9","1,65","ND","ND","ND","ND"],
    [16099,"04/28/2016 10:00","6","2,62","ND","ND","ND","ND"],
    [16100,"04/28/2016 11:00","14,2","2,75","ND","ND","ND","ND"],
    [16101,"04/28/2016 12:00","21,9","2,07","ND","ND","ND","ND"],
    [16102,"04/28/2016 13:00","25,7","1,31","ND","ND","ND","ND"],
    [16103,"04/28/2016 14:00","19,6","1,39","ND","ND","ND","ND"],
    [16104,"04/28/2016 15:00","27,2","1,78","ND","ND","ND","ND"],
    [16105,"04/28/2016 16:00","43","2,88","ND","ND","ND","ND"],
    [16106,"04/28/2016 17:00","51,2","13,76","ND","ND","ND","ND"],
    [16107,"04/28/2016 18:00","42,4","20,23","ND","ND","ND","ND"],
    [16108,"04/28/2016 19:00","40,1","21,01","ND","ND","ND","ND"],
    [16109,"04/28/2016 20:00","64,8","29,24","ND","ND","ND","ND"],
    [16110,"04/28/2016 21:00","39,8","11,03","ND","ND","ND","ND"],
    [16111,"04/28/2016 22:00","13,1","3,01","ND","ND","ND","ND"],
    [16112,"04/28/2016 23:00","18,3","2,44","ND","ND","ND","ND"],
    [16113,"04/29/2016 00:00","42,2","2,67","ND","ND","ND","ND"],
    [16114,"04/29/2016 01:00","15,9","2,41","ND","ND","ND","ND"],
    [16115,"04/29/2016 02:00","18,2","1,7","ND","ND","ND","ND"],
    [16116,"04/29/2016 03:00","21,3","1,57","ND","ND","ND","ND"],
    [16117,"04/29/2016 04:00","15,8","1,13","ND","ND","ND","ND"],
    [16118,"04/29/2016 05:00","17,7","0,92","ND","ND","ND","ND"],
    [16119,"04/29/2016 06:00","32,4","1,31","ND","ND","ND","ND"],
    [16120,"04/29/2016 07:00","32,4","1,78","ND","ND","ND","ND"],
    [16121,"04/29/2016 08:00","59,1","2,17","ND","ND","ND","ND"],
    [16122,"04/29/2016 09:00","55,6","2,1","ND","ND","ND","ND"],
    [16123,"04/29/2016 10:00","58,3","2,41","ND","ND","ND","ND"],
    [16124,"04/29/2016 11:00","58,3","2,1","ND","ND","ND","ND"],
    [16125,"04/29/2016 12:00","49,1","1,62","ND","ND","ND","ND"],
    [16126,"04/29/2016 13:00","51,1","1,36","ND","ND","ND","ND"],
    [16127,"04/29/2016 14:00","47","1","ND","ND","ND","ND"],
    [16128,"04/29/2016 15:00","45,8","1,15","ND","ND","ND","ND"],
    [16129,"04/29/2016 16:00","35,6","1,76","ND","ND","ND","ND"],
    [16130,"04/29/2016 17:00","13","0,89","ND","ND","ND","ND"],
    [16131,"04/29/2016 18:00","16,6","1","ND","ND","ND","ND"],
    [16132,"04/29/2016 19:00","49,4","1,23","ND","ND","ND","ND"],
    [16133,"04/29/2016 20:00","61,1","1,31","ND","ND","ND","ND"],
    [16134,"04/29/2016 21:00","56,1","1,68","ND","ND","ND","ND"],
    [16135,"04/29/2016 22:00","54,3","2,33","ND","ND","ND","ND"],
    [16136,"04/29/2016 23:00","60,3","2,2","ND","ND","ND","ND"],
    [16137,"04/30/2016 00:00","22,9","15,51","ND","ND","ND","ND"],
    [16138,"04/30/2016 01:00","45,1","2,07","ND","ND","ND","ND"],
    [16139,"04/30/2016 02:00","33,7","2,04","ND","ND","ND","ND"],
    [16140,"04/30/2016 03:00","32","1,39","ND","ND","ND","ND"],
    [16141,"04/30/2016 04:00","31,3","1,18","ND","ND","ND","ND"],
    [16142,"04/30/2016 05:00","26,6","1","ND","ND","ND","ND"],
    [16143,"04/30/2016 06:00","48,8","1,05","ND","ND","ND","ND"],
    [16144,"04/30/2016 07:00","66","1,28","ND","ND","ND","ND"],
    [16145,"04/30/2016 08:00","54,4","1,94","ND","ND","ND","ND"],
    [16146,"04/30/2016 09:00","79,4","3,04","ND","ND","ND","ND"],
    [16147,"04/30/2016 10:00","70,3","2,83","ND","ND","ND","ND"],
    [16148,"04/30/2016 11:00","38,5","2,31","ND","ND","ND","ND"],
    [16149,"04/30/2016 12:00","19,6","1,57","ND","ND","ND","ND"],
    [16150,"04/30/2016 13:00","8","1,13","ND","ND","ND","ND"],
    [16151,"04/30/2016 14:00","31,4","0,97","ND","ND","ND","ND"],
    [16152,"04/30/2016 15:00","5,3","0,73","ND","ND","ND","ND"],
    [16153,"04/30/2016 16:00","10,4","0,71","ND","ND","ND","ND"],
    [16154,"04/30/2016 17:00","33,2","2,2","ND","ND","ND","ND"],
    [16155,"04/30/2016 18:00","6","1,81","ND","ND","ND","ND"],
    [16156,"04/30/2016 19:00","20,8","1,39","ND","ND","ND","ND"],
    [16157,"04/30/2016 20:00","18","1,86","ND","ND","ND","ND"],
    [16158,"04/30/2016 21:00","23,9","10,43","ND","ND","ND","ND"],
    [16159,"04/30/2016 22:00","29","29,35","ND","ND","ND","ND"],
    [16160,"04/30/2016 23:00","28,8","14,33","ND","ND","ND","ND"],
    [16161,"42374","51,8","ND","ND","ND","ND","ND"],
    [16162,"42374,04167","32,5","11,35","ND","ND","ND","ND"],
    [16163,"42374,08333","20","5,14","ND","ND","ND","ND"],
    [16164,"42374,125","26,8","4,06","ND","ND","ND","ND"],
    [16165,"42374,16667","26,8","3,77","ND","ND","ND","ND"],
    [16166,"42374,20833","44,6","3,41","ND","ND","ND","ND"],
    [16167,"42374,25","53,4","3,07","ND","ND","ND","ND"],
    [16168,"42374,29167","55","3,04","ND","ND","ND","ND"],
    [16169,"42374,33333","55,9","3,9","ND","ND","ND","ND"],
    [16170,"42374,375","52,6","4,72","ND","ND","ND","ND"],
    [16171,"42374,41667","59,2","5,29","ND","ND","ND","ND"],
    [16172,"42374,45833","63,3","4,9","ND","ND","ND","ND"],
    [16173,"42374,5","56","3,48","ND","ND","ND","ND"],
    [16174,"42374,54167","58,2","3,12","ND","ND","ND","ND"],
    [16175,"42374,58333","44,5","2,36","ND","ND","ND","ND"],
    [16176,"42374,625","32,3","1,73","ND","ND","ND","ND"],
    [16177,"42374,66667","35,7","1,86","ND","ND","ND","ND"],
    [16178,"42374,70833","47,3","2,36","ND","ND","ND","ND"],
    [16179,"42374,75","87,7","2,88","ND","ND","ND","ND"],
    [16180,"42374,79167","73","1,89","ND","ND","ND","ND"],
    [16181,"42374,83333","62,8","1,57","ND","ND","ND","ND"],
    [16182,"42374,875","53,2","1,62","ND","ND","ND","ND"],
    [16183,"42374,91667","51,2","1,83","ND","ND","ND","ND"],
    [16184,"42374,95833","49,8","1,89","ND","ND","ND","ND"],
    [16185,"42405","51,8","1,83","ND","ND","ND","ND"],
    [16186,"42405,04167","42,1","1,7","ND","ND","ND","ND"],
    [16187,"42405,08333","39,9","1,49","ND","ND","ND","ND"],
    [16188,"42405,125","ND","1,07","ND","ND","ND","ND"],
    [16189,"42405,16667","8,3","0,84","ND","ND","ND","ND"],
    [16190,"42405,20833","7,7","0,92","ND","ND","ND","ND"],
    [16191,"42405,25","15,9","1,07","ND","ND","ND","ND"],
    [16192,"42405,29167","19,8","1,78","ND","ND","ND","ND"],
    [16193,"42405,33333","14,5","2,04","ND","ND","ND","ND"],
    [16194,"42405,375","22,3","2,41","ND","ND","ND","ND"],
    [16195,"42405,41667","18,8","1,68","ND","ND","ND","ND"],
    [16196,"42405,45833","19,6","1,7","ND","ND","ND","ND"],
    [16197,"42405,5","30,7","1,76","ND","ND","ND","ND"],
    [16198,"42405,54167","27,6","1,55","ND","ND","ND","ND"],
    [16199,"42405,58333","35,9","1,28","ND","ND","ND","ND"],
    [16200,"42405,625","29,5","1,07","ND","ND","ND","ND"],
    [16201,"42405,66667","34,4","1,6","ND","ND","ND","ND"],
    [16202,"42405,70833","42,8","2,36","ND","ND","ND","ND"],
    [16203,"42405,75","65,2","8,41","ND","ND","ND","ND"],
    [16204,"42405,79167","82,1","ND","ND","ND","ND","ND"],
    [16205,"42405,83333","69,3","3,48","ND","ND","ND","ND"],
    [16206,"42405,875","67,5","3,43","ND","ND","ND","ND"],
    [16207,"42405,91667","61,7","3,69","ND","ND","ND","ND"],
    [16208,"42405,95833","68,2","2,96","ND","ND","ND","ND"],
    [16209,"42434","52","2,93","ND","ND","ND","ND"],
    [16210,"42434,04167","28,8","2,23","ND","ND","ND","ND"],
    [16211,"42434,08333","35","2,36","ND","ND","ND","ND"],
    [16212,"42434,125","28,4","2,07","ND","ND","ND","ND"],
    [16213,"42434,16667","32,4","2,65","ND","ND","ND","ND"],
    [16214,"42434,20833","34,5","2,15","ND","ND","ND","ND"],
    [16215,"42434,25","72,2","1,97","ND","ND","ND","ND"],
    [16216,"42434,29167","83","2,57","ND","ND","ND","ND"],
    [16217,"42434,33333","88,4","3,88","ND","ND","ND","ND"],
    [16218,"42434,375","61","4,59","ND","ND","ND","ND"],
    [16219,"42434,41667","35,9","4,14","ND","ND","ND","ND"],
    [16220,"42434,45833","36,1","2,44","ND","ND","ND","ND"],
    [16221,"42434,5","45,9","2,93","ND","ND","ND","ND"],
    [16222,"42434,54167","31,9","2,62","ND","ND","ND","ND"],
    [16223,"42434,58333","41,7","3,98","ND","ND","ND","ND"],
    [16224,"42434,625","13,6","1,83","ND","ND","ND","ND"],
    [16225,"42434,66667","54,9","0,81","ND","ND","ND","ND"],
    [16226,"42434,70833","11,6","0,86","ND","ND","ND","ND"],
    [16227,"42434,75","15,5","0,81","ND","ND","ND","ND"],
    [16228,"42434,79167","15","0,86","ND","ND","ND","ND"],
    [16229,"42434,83333","38,8","1,44","ND","ND","ND","ND"],
    [16230,"42434,875","59,2","2,96","ND","ND","ND","ND"],
    [16231,"42434,91667","36,3","2,25","ND","ND","ND","ND"],
    [16232,"42434,95833","31,6","1,99","ND","ND","ND","ND"],
    [16233,"42465","29,6","2,07","ND","ND","ND","ND"],
    [16234,"42465,04167","21","1,78","ND","ND","ND","ND"],
    [16235,"42465,08333","24,2","1,76","ND","ND","ND","ND"],
    [16236,"42465,125","24","1,49","ND","ND","ND","ND"],
    [16237,"42465,16667","20,5","1,34","ND","ND","ND","ND"],
    [16238,"42465,20833","20,7","1,13","ND","ND","ND","ND"],
    [16239,"42465,25","26,8","1,34","ND","ND","ND","ND"],
    [16240,"42465,29167","29,8","1,99","ND","ND","ND","ND"],
    [16241,"42465,33333","18","2,44","ND","ND","ND","ND"],
    [16242,"42465,375","37,6","6,71","ND","ND","ND","ND"],
    [16243,"42465,41667","28,7","10,06","ND","ND","ND","ND"],
    [16244,"42465,45833","37,7","2,91","ND","ND","ND","ND"],
    [16245,"42465,5","35,8","2,33","ND","ND","ND","ND"],
    [16246,"42465,54167","39,8","2,46","ND","ND","ND","ND"],
    [16247,"42465,58333","56,1","3,67","ND","ND","ND","ND"],
    [16248,"42465,625","41,6","4,85","ND","ND","ND","ND"],
    [16249,"42465,66667","3,9","1,36","ND","ND","ND","ND"],
    [16250,"42465,70833","23,6","0,86","ND","ND","ND","ND"],
    [16251,"42465,75","8,3","0,81","ND","ND","ND","ND"],
    [16252,"42465,79167","12,6","0,73","ND","ND","ND","ND"],
    [16253,"42465,83333","39,8","1,28","ND","ND","ND","ND"],
    [16254,"42465,875","65,2","2,07","ND","ND","ND","ND"],
    [16255,"42465,91667","69,6","2,8","ND","ND","ND","ND"],
    [16256,"42465,95833","60,9","3,96","ND","ND","ND","ND"],
    [16257,"42495","48,6","2,88","ND","ND","ND","ND"],
    [16258,"42495,04167","39,6","2,36","ND","ND","ND","ND"],
    [16259,"42495,08333","31,7","2,28","ND","ND","ND","ND"],
    [16260,"42495,125","32,6","2,2","ND","ND","ND","ND"],
    [16261,"42495,16667","31,5","1,94","ND","ND","ND","ND"],
    [16262,"42495,20833","39,3","1,55","ND","ND","ND","ND"],
    [16263,"42495,25","74,1","2,49","ND","ND","ND","ND"],
    [16264,"42495,29167","73,7","2,44","ND","ND","ND","ND"],
    [16265,"42495,33333","71","2,83","ND","ND","ND","ND"],
    [16266,"42495,375","49,4","4,9","ND","ND","ND","ND"],
    [16267,"42495,41667","37,4","6,39","ND","ND","ND","ND"],
    [16268,"42495,45833","43,6","9,12","ND","ND","ND","ND"],
    [16269,"42495,5","41,9","5,69","ND","ND","ND","ND"],
    [16270,"42495,54167","54,4","3,46","ND","ND","ND","ND"],
    [16271,"42495,58333","74,1","2,73","ND","ND","ND","ND"],
    [16272,"42495,625","6,1","1,13","ND","ND","ND","ND"],
    [16273,"42495,66667","10,7","0,86","ND","ND","ND","ND"],
    [16274,"42495,70833","9,6","1,02","ND","ND","ND","ND"],
    [16275,"42495,75","12,2","0,97","ND","ND","ND","ND"],
    [16276,"42495,79167","17","1,15","ND","ND","ND","ND"],
    [16277,"42495,83333","48,6","1,31","ND","ND","ND","ND"],
    [16278,"42495,875","41,7","1,83","ND","ND","ND","ND"],
    [16279,"42495,91667","35,9","2,31","ND","ND","ND","ND"],
    [16280,"42495,95833","26,2","1,81","ND","ND","ND","ND"],
    [16281,"42526","29,2","1,86","ND","ND","ND","ND"],
    [16282,"42526,04167","39,1","1,44","ND","ND","ND","ND"],
    [16283,"42526,08333","18,8","1,47","ND","ND","ND","ND"],
    [16284,"42526,125","25","1,86","ND","ND","ND","ND"],
    [16285,"42526,16667","16,2","1,34","ND","ND","ND","ND"],
    [16286,"42526,20833","63","2,75","ND","ND","ND","ND"],
    [16287,"42526,25","70","8,83","ND","ND","ND","ND"],
    [16288,"42526,29167","70","9,35","ND","ND","ND","ND"],
    [16289,"42526,33333","77,9","17,66","ND","ND","ND","ND"],
    [16290,"42526,375","51,5","18,68","ND","ND","ND","ND"],
    [16291,"42526,41667","53,6","11,53","ND","ND","ND","ND"],
    [16292,"42526,45833","52,6","8,31","ND","ND","ND","ND"],
    [16293,"42526,5","53","6,24","ND","ND","ND","ND"],
    [16294,"42526,54167","39,5","3,56","ND","ND","ND","ND"],
    [16295,"42526,58333","8,2","1,26","ND","ND","ND","ND"],
    [16296,"42526,625","40,1","1,44","ND","ND","ND","ND"],
    [16297,"42526,66667","ND","1,89","ND","ND","ND","ND"],
    [16298,"42526,70833","6,1","1,02","ND","ND","ND","ND"],
    [16299,"42526,75","10,1","0,86","ND","ND","ND","ND"],
    [16300,"42526,79167","39","1,89","ND","ND","ND","ND"],
    [16301,"42526,83333","44,8","2,46","ND","ND","ND","ND"],
    [16302,"42526,875","25,3","1,76","ND","ND","ND","ND"],
    [16303,"42526,91667","23,5","1,49","ND","ND","ND","ND"],
    [16304,"42526,95833","14,7","1,49","ND","ND","ND","ND"],
    [16305,"42556","11","1,26","ND","ND","ND","ND"],
    [16306,"42556,04167","11,2","1,26","ND","ND","ND","ND"],
    [16307,"42556,08333","7,5","1,26","ND","ND","ND","ND"],
    [16308,"42556,125","5,1","0,94","ND","ND","ND","ND"],
    [16309,"42556,16667","6","0,81","ND","ND","ND","ND"],
    [16310,"42556,20833","15,4","0,94","ND","ND","ND","ND"],
    [16311,"42556,25","12,6","0,97","ND","ND","ND","ND"],
    [16312,"42556,29167","22,2","1,47","ND","ND","ND","ND"],
    [16313,"42556,33333","20,3","1,49","ND","ND","ND","ND"],
    [16314,"42556,375","38,6","1,91","ND","ND","ND","ND"],
    [16315,"42556,41667","26,4","1,68","ND","ND","ND","ND"],
    [16316,"42556,45833","27,2","1,62","ND","ND","ND","ND"],
    [16317,"42556,5","22,6","1,49","ND","ND","ND","ND"],
    [16318,"42556,54167","31,2","1,55","ND","ND","ND","ND"],
    [16319,"42556,58333","39,7","2,12","ND","ND","ND","ND"],
    [16320,"42556,625","40","6,37","ND","ND","ND","ND"],
    [16321,"42556,66667","39","10,66","ND","ND","ND","ND"],
    [16322,"42556,70833","10,8","3,77","ND","ND","ND","ND"],
    [16323,"42556,75","16,2","1,15","ND","ND","ND","ND"],
    [16324,"42556,79167","32,2","1,52","ND","ND","ND","ND"],
    [16325,"42556,83333","49,9","2,25","ND","ND","ND","ND"],
    [16326,"42556,875","39","1,62","ND","ND","ND","ND"],
    [16327,"42556,91667","50,5","2,12","ND","ND","ND","ND"],
    [16328,"42556,95833","49,7","1,81","ND","ND","ND","ND"],
    [16329,"42587","44,4","1,65","ND","ND","ND","ND"],
    [16330,"42587,04167","51,5","1,78","ND","ND","ND","ND"],
    [16331,"42587,08333","22","1,34","ND","ND","ND","ND"],
    [16332,"42587,125","48,2","1,49","ND","ND","ND","ND"],
    [16333,"42587,16667","41,8","1,55","ND","ND","ND","ND"],
    [16334,"42587,20833","43,3","1,57","ND","ND","ND","ND"],
    [16335,"42587,25","37,7","1,39","ND","ND","ND","ND"],
    [16336,"42587,29167","49,3","1,44","ND","ND","ND","ND"],
    [16337,"42587,33333","51,9","1,52","ND","ND","ND","ND"],
    [16338,"42587,375","47,9","1,99","ND","ND","ND","ND"],
    [16339,"42587,41667","43,8","1,97","ND","ND","ND","ND"],
    [16340,"42587,45833","39,4","1,7","ND","ND","ND","ND"],
    [16341,"42587,5","28,8","1,49","ND","ND","ND","ND"],
    [16342,"42587,54167","33,3","1,7","ND","ND","ND","ND"],
    [16343,"42587,58333","45,7","2,07","ND","ND","ND","ND"],
    [16344,"42587,625","24","2,62","ND","ND","ND","ND"],
    [16345,"42587,66667","2,4","1,13","ND","ND","ND","ND"],
    [16346,"42587,70833","5,7","0,84","ND","ND","ND","ND"],
    [16347,"42587,75","11,4","0,86","ND","ND","ND","ND"],
    [16348,"42587,79167","9","0,73","ND","ND","ND","ND"],
    [16349,"42587,83333","11,9","0,92","ND","ND","ND","ND"],
    [16350,"42587,875","26,6","0,84","ND","ND","ND","ND"],
    [16351,"42587,91667","22,6","0,94","ND","ND","ND","ND"],
    [16352,"42587,95833","22,4","1,28","ND","ND","ND","ND"],
    [16353,"42618","17,3","1,28","ND","ND","ND","ND"],
    [16354,"42618,04167","23,1","1,07","ND","ND","ND","ND"],
    [16355,"42618,08333","16,1","1,05","ND","ND","ND","ND"],
    [16356,"42618,125","15,4","0,94","ND","ND","ND","ND"],
    [16357,"42618,16667","13,1","0,58","ND","ND","ND","ND"],
    [16358,"42618,20833","15,6","0,63","ND","ND","ND","ND"],
    [16359,"42618,25","13,3","0,76","ND","ND","ND","ND"],
    [16360,"42618,29167","17,8","0,86","ND","ND","ND","ND"],
    [16361,"42618,33333","21,4","0,97","ND","ND","ND","ND"],
    [16362,"42618,375","18,9","1,15","ND","ND","ND","ND"],
    [16363,"42618,41667","14,8","1,21","ND","ND","ND","ND"],
    [16364,"42618,45833","23,7","1,02","ND","ND","ND","ND"],
    [16365,"42618,5","24,6","1,05","ND","ND","ND","ND"],
    [16366,"42618,54167","25,1","1,13","ND","ND","ND","ND"],
    [16367,"42618,58333","24","1,36","ND","ND","ND","ND"],
    [16368,"42618,625","13,7","1,05","ND","ND","ND","ND"],
    [16369,"42618,66667","36,1","1,21","ND","ND","ND","ND"],
    [16370,"42618,70833","23,6","1,49","ND","ND","ND","ND"],
    [16371,"42618,75","29,5","1,65","ND","ND","ND","ND"],
    [16372,"42618,79167","38,6","4,53","ND","ND","ND","ND"],
    [16373,"42618,83333","53,1","2,17","ND","ND","ND","ND"],
    [16374,"42618,875","39,9","5,11","ND","ND","ND","ND"],
    [16375,"42618,91667","33,3","3,33","ND","ND","ND","ND"],
    [16376,"42618,95833","20,9","1,57","ND","ND","ND","ND"],
    [16377,"42648","17,9","1,13","ND","ND","ND","ND"],
    [16378,"42648,04167","17,4","1,07","ND","ND","ND","ND"],
    [16379,"42648,08333","15,1","0,94","ND","ND","ND","ND"],
    [16380,"42648,125","9","3,69","ND","ND","ND","ND"],
    [16381,"42648,16667","ND","2,17","ND","ND","ND","ND"],
    [16382,"42648,20833","9,1","1,49","ND","ND","ND","ND"],
    [16383,"42648,25","11,2","1,62","ND","ND","ND","ND"],
    [16384,"42648,29167","14,1","2,52","ND","ND","ND","ND"],
    [16385,"42648,33333","22,3","3,25","ND","ND","ND","ND"],
    [16386,"42648,375","29,9","5,24","ND","ND","ND","ND"],
    [16387,"42648,41667","24,8","7,36","ND","ND","ND","ND"],
    [16388,"42648,45833","38","10,38","ND","ND","ND","ND"],
    [16389,"42648,5","32,2","16,87","ND","ND","ND","ND"],
    [16390,"42648,54167","37","25,65","ND","ND","ND","ND"],
    [16391,"42648,58333","30,2","8,67","ND","ND","ND","ND"],
    [16392,"42648,625","31,8","4,69","ND","ND","ND","ND"],
    [16393,"42648,66667","22,7","3,62","ND","ND","ND","ND"],
    [16394,"42648,70833","35,4","1,55","ND","ND","ND","ND"],
    [16395,"42648,75","38,2","2,17","ND","ND","ND","ND"],
    [16396,"42648,79167","20","1,86","ND","ND","ND","ND"],
    [16397,"42648,83333","17,3","1,65","ND","ND","ND","ND"],
    [16398,"42648,875","52,8","1,94","ND","ND","ND","ND"],
    [16399,"42648,91667","33,5","1,7","ND","ND","ND","ND"],
    [16400,"42648,95833","24,1","1,34","ND","ND","ND","ND"],
    [16401,"42679","25,9","1,41","ND","ND","ND","ND"],
    [16402,"42679,04167","28,3","1,31","ND","ND","ND","ND"],
    [16403,"42679,08333","20,3","1,23","ND","ND","ND","ND"],
    [16404,"42679,125","17,2","1,28","ND","ND","ND","ND"],
    [16405,"42679,16667","16,7","1,15","ND","ND","ND","ND"],
    [16406,"42679,20833","15","1,13","ND","ND","ND","ND"],
    [16407,"42679,25","22,5","1,49","ND","ND","ND","ND"],
    [16408,"42679,29167","34,2","1,94","ND","ND","ND","ND"],
    [16409,"42679,33333","14,9","2,93","ND","ND","ND","ND"],
    [16410,"42679,375","30,5","4,11","ND","ND","ND","ND"],
    [16411,"42679,41667","57","3,2","ND","ND","ND","ND"],
    [16412,"42679,45833","71,7","8,57","ND","ND","ND","ND"],
    [16413,"42679,5","55,3","6,92","ND","ND","ND","ND"],
    [16414,"42679,54167","61,7","4,38","ND","ND","ND","ND"],
    [16415,"42679,58333","46,3","2,96","ND","ND","ND","ND"],
    [16416,"42679,625","61,7","4,06","ND","ND","ND","ND"],
    [16417,"42679,66667","70,4","3,22","ND","ND","ND","ND"],
    [16418,"42679,70833","65,9","4,27","ND","ND","ND","ND"],
    [16419,"42679,75","76","4,14","ND","ND","ND","ND"],
    [16420,"42679,79167","13,7","1,18","ND","ND","ND","ND"],
    [16421,"42679,83333","19,6","1,05","ND","ND","ND","ND"],
    [16422,"42679,875","49,9","1,7","ND","ND","ND","ND"],
    [16423,"42679,91667","80,5","3,35","ND","ND","ND","ND"],
    [16424,"42679,95833","66","2,25","ND","ND","ND","ND"],
    [16425,"42709","69","1,89","ND","ND","ND","ND"],
    [16426,"42709,04167","39,2","1,44","ND","ND","ND","ND"],
    [16427,"42709,08333","36,3","1,26","ND","ND","ND","ND"],
    [16428,"42709,125","38,7","1,18","ND","ND","ND","ND"],
    [16429,"42709,16667","48","1,21","ND","ND","ND","ND"],
    [16430,"42709,20833","38,7","1,15","ND","ND","ND","ND"],
    [16431,"42709,25","90,3","1,49","ND","ND","ND","ND"],
    [16432,"42709,29167","102,1","1,73","ND","ND","ND","ND"],
    [16433,"42709,33333","99,6","3,12","ND","ND","ND","ND"],
    [16434,"42709,375","56,8","4,56","ND","ND","ND","ND"],
    [16435,"42709,41667","85,5","7,44","ND","ND","ND","ND"],
    [16436,"42709,45833","59,1","7,44","ND","ND","ND","ND"],
    [16437,"42709,5","44","4,98","ND","ND","ND","ND"],
    [16438,"42709,54167","49,9","3,56","ND","ND","ND","ND"],
    [16439,"42709,58333","51,7","2,73","ND","ND","ND","ND"],
    [16440,"42709,625","53,1","2,36","ND","ND","ND","ND"],
    [16441,"42709,66667","57,6","1,99","ND","ND","ND","ND"],
    [16442,"42709,70833","39,3","1,21","ND","ND","ND","ND"],
    [16443,"42709,75","23,3","0,86","ND","ND","ND","ND"],
    [16444,"42709,79167","17,5","0,76","ND","ND","ND","ND"],
    [16445,"42709,83333","28,7","1,02","ND","ND","ND","ND"],
    [16446,"42709,875","45,9","1,34","ND","ND","ND","ND"],
    [16447,"42709,91667","68,4","1,7","ND","ND","ND","ND"],
    [16448,"42709,95833","51,9","1,55","ND","ND","ND","ND"],
    [16449,"05/13/2016 00:00","42,5","1,15","ND","ND","ND","ND"],
    [16450,"05/13/2016 01:00","43","1,07","ND","ND","ND","ND"],
    [16451,"05/13/2016 02:00","49,6","1,13","ND","ND","ND","ND"],
    [16452,"05/13/2016 03:00","43,6","0,97","ND","ND","ND","ND"],
    [16453,"05/13/2016 04:00","39,3","1","ND","ND","ND","ND"],
    [16454,"05/13/2016 05:00","40,7","0,92","ND","ND","ND","ND"],
    [16455,"05/13/2016 06:00","64,8","1,07","ND","ND","ND","ND"],
    [16456,"05/13/2016 07:00","93,8","1,73","ND","ND","ND","ND"],
    [16457,"05/13/2016 08:00","73,8","3,67","ND","ND","ND","ND"],
    [16458,"05/13/2016 09:00","57,8","4,77","ND","ND","ND","ND"],
    [16459,"05/13/2016 10:00","58,4","3,96","ND","ND","ND","ND"],
    [16460,"05/13/2016 11:00","44,4","3,09","ND","ND","ND","ND"],
    [16461,"05/13/2016 12:00","56,7","2,75","ND","ND","ND","ND"],
    [16462,"05/13/2016 13:00","50,2","2,28","ND","ND","ND","ND"],
    [16463,"05/13/2016 14:00","54,7","2,25","ND","ND","ND","ND"],
    [16464,"05/13/2016 15:00","63,6","2,54","ND","ND","ND","ND"],
    [16465,"05/13/2016 16:00","28,6","1,1","ND","ND","ND","ND"],
    [16466,"05/13/2016 17:00","25,5","1","ND","ND","ND","ND"],
    [16467,"05/13/2016 18:00","22","1","ND","ND","ND","ND"],
    [16468,"05/13/2016 19:00","20,6","0,76","ND","ND","ND","ND"],
    [16469,"05/13/2016 20:00","45,4","1,62","ND","ND","ND","ND"],
    [16470,"05/13/2016 21:00","49,1","1,97","ND","ND","ND","ND"],
    [16471,"05/13/2016 22:00","61,1","1,91","ND","ND","ND","ND"],
    [16472,"05/13/2016 23:00","76,1","2,52","ND","ND","ND","ND"],
    [16473,"05/14/2016 00:00","54,5","2,2","ND","ND","ND","ND"],
    [16474,"05/14/2016 01:00","52,1","2,28","ND","ND","ND","ND"],
    [16475,"05/14/2016 02:00","38,3","1,55","ND","ND","ND","ND"],
    [16476,"05/14/2016 03:00","26,7","1,39","ND","ND","ND","ND"],
    [16477,"05/14/2016 04:00","26,4","1,44","ND","ND","ND","ND"],
    [16478,"05/14/2016 05:00","25,1","1,18","ND","ND","ND","ND"],
    [16479,"05/14/2016 06:00","34,3","1,02","ND","ND","ND","ND"],
    [16480,"05/14/2016 07:00","67,4","1,36","ND","ND","ND","ND"],
    [16481,"05/14/2016 08:00","93,7","3,67","ND","ND","ND","ND"],
    [16482,"05/14/2016 09:00","103","19,65","ND","ND","ND","ND"],
    [16483,"05/14/2016 10:00","75,2","15,62","ND","ND","ND","ND"],
    [16484,"05/14/2016 11:00","79,5","9,59","ND","ND","ND","ND"],
    [16485,"05/14/2016 12:00","55,4","6,11","ND","ND","ND","ND"],
    [16486,"05/14/2016 13:00","70,8","3,59","ND","ND","ND","ND"],
    [16487,"05/14/2016 14:00","70,4","6,21","ND","ND","ND","ND"],
    [16488,"05/14/2016 15:00","12,6","4,32","ND","ND","ND","ND"],
    [16489,"05/14/2016 16:00","14,3","1,31","ND","ND","ND","ND"],
    [16490,"05/14/2016 17:00","20","1,21","ND","ND","ND","ND"],
    [16491,"05/14/2016 18:00","18,4","1,15","ND","ND","ND","ND"],
    [16492,"05/14/2016 19:00","29,1","1,21","ND","ND","ND","ND"],
    [16493,"05/14/2016 20:00","45,6","1,62","ND","ND","ND","ND"],
    [16494,"05/14/2016 21:00","49,4","1,86","ND","ND","ND","ND"],
    [16495,"05/14/2016 22:00","67,1","1,91","ND","ND","ND","ND"],
    [16496,"05/14/2016 23:00","80","2,17","ND","ND","ND","ND"],
    [16497,"05/15/2016 00:00","78,9","2,36","ND","ND","ND","ND"],
    [16498,"05/15/2016 01:00","ND","1,65","ND","ND","ND","ND"],
    [16499,"05/15/2016 02:00","45","1,31","ND","ND","ND","ND"],
    [16500,"05/15/2016 03:00","21,6","1,02","ND","ND","ND","ND"],
    [16501,"05/15/2016 04:00","3,6","0,81","ND","ND","ND","ND"],
    [16502,"05/15/2016 05:00","19,8","1","ND","ND","ND","ND"],
    [16503,"05/15/2016 06:00","20,1","0,89","ND","ND","ND","ND"],
    [16504,"05/15/2016 07:00","27,4","1,02","ND","ND","ND","ND"],
    [16505,"05/15/2016 08:00","27,8","1,57","ND","ND","ND","ND"],
    [16506,"05/15/2016 09:00","27","1,26","ND","ND","ND","ND"],
    [16507,"05/15/2016 10:00","32,6","2,41","ND","ND","ND","ND"],
    [16508,"05/15/2016 11:00","34,5","2,7","ND","ND","ND","ND"],
    [16509,"05/15/2016 12:00","27,5","2,41","ND","ND","ND","ND"],
    [16510,"05/15/2016 13:00","25,7","2,02","ND","ND","ND","ND"],
    [16511,"05/15/2016 14:00","27,8","1,39","ND","ND","ND","ND"],
    [16512,"05/15/2016 15:00","31,8","1,31","ND","ND","ND","ND"],
    [16513,"05/15/2016 16:00","44","1,62","ND","ND","ND","ND"],
    [16514,"05/15/2016 17:00","25,2","1,65","ND","ND","ND","ND"],
    [16515,"05/15/2016 18:00","14,4","0,73","ND","ND","ND","ND"],
    [16516,"05/15/2016 19:00","19,1","0,66","ND","ND","ND","ND"],
    [16517,"05/15/2016 20:00","4,8","0,55","ND","ND","ND","ND"],
    [16518,"05/15/2016 21:00","9,2","0,86","ND","ND","ND","ND"],
    [16519,"05/15/2016 22:00","54,9","1,52","ND","ND","ND","ND"],
    [16520,"05/15/2016 23:00","48,2","1,7","ND","ND","ND","ND"],
    [16521,"05/16/2016 00:00","29,2","1,57","ND","ND","ND","ND"],
    [16522,"05/16/2016 01:00","24,9","1,05","ND","ND","ND","ND"],
    [16523,"05/16/2016 02:00","20,3","0,94","ND","ND","ND","ND"],
    [16524,"05/16/2016 03:00","30,9","0,81","ND","ND","ND","ND"],
    [16525,"05/16/2016 04:00","32","1,28","ND","ND","ND","ND"],
    [16526,"05/16/2016 05:00","27,4","1,1","ND","ND","ND","ND"],
    [16527,"05/16/2016 06:00","38,8","1,15","ND","ND","ND","ND"],
    [16528,"05/16/2016 07:00","93,6","2,59","ND","ND","ND","ND"],
    [16529,"05/16/2016 08:00","88,9","3,01","ND","ND","ND","ND"],
    [16530,"05/16/2016 09:00","70,9","5,19","ND","ND","ND","ND"],
    [16531,"05/16/2016 10:00","57","7,1","ND","ND","ND","ND"],
    [16532,"05/16/2016 11:00","46,8","5,97","ND","ND","ND","ND"],
    [16533,"05/16/2016 12:00","53,5","5,63","ND","ND","ND","ND"],
    [16534,"05/16/2016 13:00","47,1","5,48","ND","ND","ND","ND"],
    [16535,"05/16/2016 14:00","40,2","3,69","ND","ND","ND","ND"],
    [16536,"05/16/2016 15:00","38,1","3,41","ND","ND","ND","ND"],
    [16537,"05/16/2016 16:00","41,4","2,52","ND","ND","ND","ND"],
    [16538,"05/16/2016 17:00","18,8","1,02","ND","ND","ND","ND"],
    [16539,"05/16/2016 18:00","13,8","0,76","ND","ND","ND","ND"],
    [16540,"05/16/2016 19:00","16,1","1,05","ND","ND","ND","ND"],
    [16541,"05/16/2016 20:00","33,1","1,15","ND","ND","ND","ND"],
    [16542,"05/16/2016 21:00","37","1,44","ND","ND","ND","ND"],
    [16543,"05/16/2016 22:00","57","2,17","ND","ND","ND","ND"],
    [16544,"05/16/2016 23:00","51,2","1,89","ND","ND","ND","ND"],
    [16545,"05/17/2016 00:00","34","1,41","ND","ND","ND","ND"],
    [16546,"05/17/2016 01:00","34","1,23","ND","ND","ND","ND"],
    [16547,"05/17/2016 02:00","33,4","2,75","ND","ND","ND","ND"],
    [16548,"05/17/2016 03:00","24","1,73","ND","ND","ND","ND"],
    [16549,"05/17/2016 04:00","32,5","1,39","ND","ND","ND","ND"],
    [16550,"05/17/2016 05:00","20","1,13","ND","ND","ND","ND"],
    [16551,"05/17/2016 06:00","34,1","1,28","ND","ND","ND","ND"],
    [16552,"05/17/2016 07:00","71,5","1,94","ND","ND","ND","ND"],
    [16553,"05/17/2016 08:00","63,2","2,65","ND","ND","ND","ND"],
    [16554,"05/17/2016 09:00","58,5","3,93","ND","ND","ND","ND"],
    [16555,"05/17/2016 10:00","35,9","4,72","ND","ND","ND","ND"],
    [16556,"05/17/2016 11:00","30,9","3,88","ND","ND","ND","ND"],
    [16557,"05/17/2016 12:00","48,3","3,72","ND","ND","ND","ND"],
    [16558,"05/17/2016 13:00","45,5","2,96","ND","ND","ND","ND"],
    [16559,"05/17/2016 14:00","39","2,52","ND","ND","ND","ND"],
    [16560,"05/17/2016 15:00","28,6","1,73","ND","ND","ND","ND"],
    [16561,"05/17/2016 16:00","17,3","0,89","ND","ND","ND","ND"],
    [16562,"05/17/2016 17:00","19","0,66","ND","ND","ND","ND"],
    [16563,"05/17/2016 18:00","8,7","0,71","ND","ND","ND","ND"],
    [16564,"05/17/2016 19:00","14,2","0,86","ND","ND","ND","ND"],
    [16565,"05/17/2016 20:00","13,3","0,6","ND","ND","ND","ND"],
    [16566,"05/17/2016 21:00","13,9","0,86","ND","ND","ND","ND"],
    [16567,"05/17/2016 22:00","33,9","2,49","ND","ND","ND","ND"],
    [16568,"05/17/2016 23:00","45,9","2,75","ND","ND","ND","ND"],
    [16569,"05/18/2016 00:00","36,5","2,04","ND","ND","ND","ND"],
    [16570,"05/18/2016 01:00","14,7","1,78","ND","ND","ND","ND"],
    [16571,"05/18/2016 02:00","21,5","1,44","ND","ND","ND","ND"],
    [16572,"05/18/2016 03:00","17,8","1,36","ND","ND","ND","ND"],
    [16573,"05/18/2016 04:00","17,1","1,21","ND","ND","ND","ND"],
    [16574,"05/18/2016 05:00","19,9","1,1","ND","ND","ND","ND"],
    [16575,"05/18/2016 06:00","34,2","1,1","ND","ND","ND","ND"],
    [16576,"05/18/2016 07:00","59,1","2,02","ND","ND","ND","ND"],
    [16577,"05/18/2016 08:00","79,4","5,55","ND","ND","ND","ND"],
    [16578,"05/18/2016 09:00","68,3","6,66","ND","ND","ND","ND"],
    [16579,"05/18/2016 10:00","41,3","5,74","ND","ND","ND","ND"],
    [16580,"05/18/2016 11:00","42,3","5,87","ND","ND","ND","ND"],
    [16581,"05/18/2016 12:00","32,4","3,69","ND","ND","ND","ND"],
    [16582,"05/18/2016 13:00","32,7","3,41","ND","ND","ND","ND"],
    [16583,"05/18/2016 14:00","39,9","2,75","ND","ND","ND","ND"],
    [16584,"05/18/2016 15:00","49,8","2,2","ND","ND","ND","ND"],
    [16585,"05/18/2016 16:00","52","3,04","ND","ND","ND","ND"],
    [16586,"05/18/2016 17:00","16,9","1,23","ND","ND","ND","ND"],
    [16587,"05/18/2016 18:00","16,9","1,02","ND","ND","ND","ND"],
    [16588,"05/18/2016 19:00","36,4","1,47","ND","ND","ND","ND"],
    [16589,"05/18/2016 20:00","30,1","1,28","ND","ND","ND","ND"],
    [16590,"05/18/2016 21:00","51,6","1,7","ND","ND","ND","ND"],
    [16591,"05/18/2016 22:00","61,6","1,76","ND","ND","ND","ND"],
    [16592,"05/18/2016 23:00","73,9","2,15","ND","ND","ND","ND"],
    [16593,"05/19/2016 00:00","42,8","2,23","ND","ND","ND","ND"],
    [16594,"05/19/2016 01:00","33,8","1,81","ND","ND","ND","ND"],
    [16595,"05/19/2016 02:00","48,1","1,91","ND","ND","ND","ND"],
    [16596,"05/19/2016 03:00","24,2","1,18","ND","ND","ND","ND"],
    [16597,"05/19/2016 04:00","23,2","1,28","ND","ND","ND","ND"],
    [16598,"05/19/2016 05:00","22","1,1","ND","ND","ND","ND"],
    [16599,"05/19/2016 06:00","20,3","1,31","ND","ND","ND","ND"],
    [16600,"05/19/2016 07:00","31,3","1,57","ND","ND","ND","ND"],
    [16601,"05/19/2016 08:00","38,9","2,04","ND","ND","ND","ND"],
    [16602,"05/19/2016 09:00","54,5","2,1","ND","ND","ND","ND"],
    [16603,"05/19/2016 10:00","35","2,04","ND","ND","ND","ND"],
    [16604,"05/19/2016 11:00","ND","1,86","ND","ND","ND","ND"],
    [16605,"05/19/2016 12:00","ND","2,54","ND","ND","ND","ND"],
    [16606,"05/19/2016 13:00","ND","2,31","ND","ND","ND","ND"],
    [16607,"05/19/2016 14:00","ND","2,02","ND","ND","ND","ND"],
    [16608,"05/19/2016 15:00","56,4","2,23","ND","ND","ND","ND"],
    [16609,"05/19/2016 16:00","43,3","2,28","ND","ND","ND","ND"],
    [16610,"05/19/2016 17:00","46,1","3,12","ND","ND","ND","ND"],
    [16611,"05/19/2016 18:00","34,9","2,96","ND","ND","ND","ND"],
    [16612,"05/19/2016 19:00","18,7","1,13","ND","ND","ND","ND"],
    [16613,"05/19/2016 20:00","52","2,65","ND","ND","ND","ND"],
    [16614,"05/19/2016 21:00","41,4","1,91","ND","ND","ND","ND"],
    [16615,"05/19/2016 22:00","38","1,44","ND","ND","ND","ND"],
    [16616,"05/19/2016 23:00","53,3","1,55","ND","ND","ND","ND"],
    [16617,"05/20/2016 00:00","82,5","1,89","ND","ND","ND","ND"],
    [16618,"05/20/2016 01:00","36,7","1,31","ND","ND","ND","ND"],
    [16619,"05/20/2016 02:00","34,9","1,18","ND","ND","ND","ND"],
    [16620,"05/20/2016 03:00","34,8","1,05","ND","ND","ND","ND"],
    [16621,"05/20/2016 04:00","38,4","1,1","ND","ND","ND","ND"],
    [16622,"05/20/2016 05:00","44,4","1,02","ND","ND","ND","ND"],
    [16623,"05/20/2016 06:00","56,9","1,23","ND","ND","ND","ND"],
    [16624,"05/20/2016 07:00","108,1","2,44","ND","ND","ND","ND"],
    [16625,"05/20/2016 08:00","82,8","3,38","ND","ND","ND","ND"],
    [16626,"05/20/2016 09:00","78,2","10,51","ND","ND","ND","ND"],
    [16627,"05/20/2016 10:00","62,3","8,91","ND","ND","ND","ND"],
    [16628,"05/20/2016 11:00","48,9","5,19","ND","ND","ND","ND"],
    [16629,"05/20/2016 12:00","56,5","4,45","ND","ND","ND","ND"],
    [16630,"05/20/2016 13:00","64,5","3,48","ND","ND","ND","ND"],
    [16631,"05/20/2016 14:00","67,6","3,43","ND","ND","ND","ND"],
    [16632,"05/20/2016 15:00","41,5","2,46","ND","ND","ND","ND"],
    [16633,"05/20/2016 16:00","14","1,13","ND","ND","ND","ND"],
    [16634,"05/20/2016 17:00","15,4","1,1","ND","ND","ND","ND"],
    [16635,"05/20/2016 18:00","30,4","1,07","ND","ND","ND","ND"],
    [16636,"05/20/2016 19:00","17,6","0,86","ND","ND","ND","ND"],
    [16637,"05/20/2016 20:00","17,5","0,79","ND","ND","ND","ND"],
    [16638,"05/20/2016 21:00","29,5","1,26","ND","ND","ND","ND"],
    [16639,"05/20/2016 22:00","52,3","2,07","ND","ND","ND","ND"],
    [16640,"05/20/2016 23:00","20,8","1,49","ND","ND","ND","ND"],
    [16641,"05/21/2016 00:00","43,7","1,81","ND","ND","ND","ND"],
    [16642,"05/21/2016 01:00","41,9","3,14","ND","ND","ND","ND"],
    [16643,"05/21/2016 02:00","50,2","1,86","ND","ND","ND","ND"],
    [16644,"05/21/2016 03:00","36,3","1,31","ND","ND","ND","ND"],
    [16645,"05/21/2016 04:00","38,4","1,21","ND","ND","ND","ND"],
    [16646,"05/21/2016 05:00","44,8","1,15","ND","ND","ND","ND"],
    [16647,"05/21/2016 06:00","44,6","1,23","ND","ND","ND","ND"],
    [16648,"05/21/2016 07:00","50,4","1,39","ND","ND","ND","ND"],
    [16649,"05/21/2016 08:00","53,2","2,73","ND","ND","ND","ND"],
    [16650,"05/21/2016 09:00","43,3","9,51","ND","ND","ND","ND"],
    [16651,"05/21/2016 10:00","39,1","10,38","ND","ND","ND","ND"],
    [16652,"05/21/2016 11:00","54,9","8,73","ND","ND","ND","ND"],
    [16653,"05/21/2016 12:00","59,1","6,89","ND","ND","ND","ND"],
    [16654,"05/21/2016 13:00","63,4","5,06","ND","ND","ND","ND"],
    [16655,"05/21/2016 14:00","62,3","4,19","ND","ND","ND","ND"],
    [16656,"05/21/2016 15:00","40,6","2,67","ND","ND","ND","ND"],
    [16657,"05/21/2016 16:00","9,2","1,02","ND","ND","ND","ND"],
    [16658,"05/21/2016 17:00","13","1","ND","ND","ND","ND"],
    [16659,"05/21/2016 18:00","14","0,84","ND","ND","ND","ND"],
    [16660,"05/21/2016 19:00","11,8","0,81","ND","ND","ND","ND"],
    [16661,"05/21/2016 20:00","18,2","1,41","ND","ND","ND","ND"],
    [16662,"05/21/2016 21:00","15,6","0,89","ND","ND","ND","ND"],
    [16663,"05/21/2016 22:00","19,9","1,05","ND","ND","ND","ND"],
    [16664,"05/21/2016 23:00","44,6","1,55","ND","ND","ND","ND"],
    [16665,"05/22/2016 00:00","52,1","1,05","ND","ND","ND","ND"],
    [16666,"05/22/2016 01:00","33,6","1,36","ND","ND","ND","ND"],
    [16667,"05/22/2016 02:00","38,1","1,34","ND","ND","ND","ND"],
    [16668,"05/22/2016 03:00","44,6","1,52","ND","ND","ND","ND"],
    [16669,"05/22/2016 04:00","39,8","1,15","ND","ND","ND","ND"],
    [16670,"05/22/2016 05:00","20,7","0,97","ND","ND","ND","ND"],
    [16671,"05/22/2016 06:00","40,8","0,97","ND","ND","ND","ND"],
    [16672,"05/22/2016 07:00","45,2","1,6","ND","ND","ND","ND"],
    [16673,"05/22/2016 08:00","49,8","1,6","ND","ND","ND","ND"],
    [16674,"05/22/2016 09:00","41,6","2,88","ND","ND","ND","ND"],
    [16675,"05/22/2016 10:00","44,5","3,07","ND","ND","ND","ND"],
    [16676,"05/22/2016 11:00","45,5","3,07","ND","ND","ND","ND"],
    [16677,"05/22/2016 12:00","48,3","2,96","ND","ND","ND","ND"],
    [16678,"05/22/2016 13:00","50,8","2,57","ND","ND","ND","ND"],
    [16679,"05/22/2016 14:00","46,1","3,2","ND","ND","ND","ND"],
    [16680,"05/22/2016 15:00","27,9","4,3","ND","ND","ND","ND"],
    [16681,"05/22/2016 16:00","23,1","4,64","ND","ND","ND","ND"],
    [16682,"05/22/2016 17:00","13,1","1,23","ND","ND","ND","ND"],
    [16683,"05/22/2016 18:00","13,2","0,92","ND","ND","ND","ND"],
    [16684,"05/22/2016 19:00","9,7","0,81","ND","ND","ND","ND"],
    [16685,"05/22/2016 20:00","10,9","1,1","ND","ND","ND","ND"],
    [16686,"05/22/2016 21:00","17,9","1,18","ND","ND","ND","ND"],
    [16687,"05/22/2016 22:00","37,2","1,99","ND","ND","ND","ND"],
    [16688,"05/22/2016 23:00","45,3","2,04","ND","ND","ND","ND"],
    [16689,"05/23/2016 00:00","42,2","1,6","ND","ND","ND","ND"],
    [16690,"05/23/2016 01:00","38,3","1,52","ND","ND","ND","ND"],
    [16691,"05/23/2016 02:00","30,7","1,94","ND","ND","ND","ND"],
    [16692,"05/23/2016 03:00","29","1,21","ND","ND","ND","ND"],
    [16693,"05/23/2016 04:00","26,2","1,26","ND","ND","ND","ND"],
    [16694,"05/23/2016 05:00","26,8","1","ND","ND","ND","ND"],
    [16695,"05/23/2016 06:00","39,5","1,31","ND","ND","ND","ND"],
    [16696,"05/23/2016 07:00","59,4","1,65","ND","ND","ND","ND"],
    [16697,"05/23/2016 08:00","65,4","3,14","ND","ND","ND","ND"],
    [16698,"05/23/2016 09:00","65,3","7,52","ND","ND","ND","ND"],
    [16699,"05/23/2016 10:00","53,3","7,73","ND","ND","ND","ND"],
    [16700,"05/23/2016 11:00","59,9","5,45","ND","ND","ND","ND"],
    [16701,"05/23/2016 12:00","62,7","5,08","ND","ND","ND","ND"],
    [16702,"05/23/2016 13:00","62,1","4,01","ND","ND","ND","ND"],
    [16703,"05/23/2016 14:00","61,4","4,14","ND","ND","ND","ND"],
    [16704,"05/23/2016 15:00","13","1,28","ND","ND","ND","ND"],
    [16705,"05/23/2016 16:00","20,9","1,07","ND","ND","ND","ND"],
    [16706,"05/23/2016 17:00","21,1","0,94","ND","ND","ND","ND"],
    [16707,"05/23/2016 18:00","19,2","0,89","ND","ND","ND","ND"],
    [16708,"05/23/2016 19:00","20,8","1,02","ND","ND","ND","ND"],
    [16709,"05/23/2016 20:00","45,1","1,86","ND","ND","ND","ND"],
    [16710,"05/23/2016 21:00","45,6","2,41","ND","ND","ND","ND"],
    [16711,"05/23/2016 22:00","67,3","2,41","ND","ND","ND","ND"],
    [16712,"05/23/2016 23:00","69,3","3,14","ND","ND","ND","ND"],
    [16713,"05/24/2016 00:00","50,3","2,57","ND","ND","ND","ND"],
    [16714,"05/24/2016 01:00","40,5","2,15","ND","ND","ND","ND"],
    [16715,"05/24/2016 02:00","43,6","3,14","ND","ND","ND","ND"],
    [16716,"05/24/2016 03:00","41,5","3,85","ND","ND","ND","ND"],
    [16717,"05/24/2016 04:00","40,6","2,67","ND","ND","ND","ND"],
    [16718,"05/24/2016 05:00","42,6","2,2","ND","ND","ND","ND"],
    [16719,"05/24/2016 06:00","52,9","2,12","ND","ND","ND","ND"],
    [16720,"05/24/2016 07:00","68,8","3,07","ND","ND","ND","ND"],
    [16721,"05/24/2016 08:00","64,4","3,28","ND","ND","ND","ND"],
    [16722,"05/24/2016 09:00","64,4","5,42","ND","ND","ND","ND"],
    [16723,"05/24/2016 10:00","103,2","10,56","ND","ND","ND","ND"],
    [16724,"05/24/2016 11:00","69,2","8,49","ND","ND","ND","ND"],
    [16725,"05/24/2016 12:00","63,6","9,07","ND","ND","ND","ND"],
    [16726,"05/24/2016 13:00","65,5","9,41","ND","ND","ND","ND"],
    [16727,"05/24/2016 14:00","57,1","5,95","ND","ND","ND","ND"],
    [16728,"05/24/2016 15:00","43,8","4,85","ND","ND","ND","ND"],
    [16729,"05/24/2016 16:00","16,8","1,7","ND","ND","ND","ND"],
    [16730,"05/24/2016 17:00","26,1","1,78","ND","ND","ND","ND"],
    [16731,"05/24/2016 18:00","31","1,41","ND","ND","ND","ND"],
    [16732,"05/24/2016 19:00","26","1,36","ND","ND","ND","ND"],
    [16733,"05/24/2016 20:00","18,6","1,39","ND","ND","ND","ND"],
    [16734,"05/24/2016 21:00","10,4","0,89","ND","ND","ND","ND"],
    [16735,"05/24/2016 22:00","24,8","1,28","ND","ND","ND","ND"],
    [16736,"05/24/2016 23:00","44,6","1,89","ND","ND","ND","ND"],
    [16737,"05/25/2016 00:00","66","2,99","ND","ND","ND","ND"],
    [16738,"05/25/2016 01:00","61,1","3,09","ND","ND","ND","ND"],
    [16739,"05/25/2016 02:00","30,1","1,6","ND","ND","ND","ND"],
    [16740,"05/25/2016 03:00","27,4","1,41","ND","ND","ND","ND"],
    [16741,"05/25/2016 04:00","32,5","1,57","ND","ND","ND","ND"],
    [16742,"05/25/2016 05:00","26,9","1,47","ND","ND","ND","ND"],
    [16743,"05/25/2016 06:00","35,6","2,12","ND","ND","ND","ND"],
    [16744,"05/25/2016 07:00","56,1","2,15","ND","ND","ND","ND"],
    [16745,"05/25/2016 08:00","81,7","3,33","ND","ND","ND","ND"],
    [16746,"05/25/2016 09:00","59,3","4,22","ND","ND","ND","ND"],
    [16747,"05/25/2016 10:00","38,2","ND","ND","ND","ND","ND"],
    [16748,"05/25/2016 11:00","36,9","5,29","ND","ND","ND","ND"],
    [16749,"05/25/2016 12:00","44,4","3,72","ND","ND","ND","ND"],
    [16750,"05/25/2016 13:00","55,4","3,09","ND","ND","ND","ND"],
    [16751,"05/25/2016 14:00","56,3","3,88","ND","ND","ND","ND"],
    [16752,"05/25/2016 15:00","56","9,09","ND","ND","ND","ND"],
    [16753,"05/25/2016 16:00","56","7,28","ND","ND","ND","ND"],
    [16754,"05/25/2016 17:00","32,6","2,54","ND","ND","ND","ND"],
    [16755,"05/25/2016 18:00","24,8","1,05","ND","ND","ND","ND"],
    [16756,"05/25/2016 19:00","18","0,73","ND","ND","ND","ND"],
    [16757,"05/25/2016 20:00","17,6","0,92","ND","ND","ND","ND"],
    [16758,"05/25/2016 21:00","54,4","3,96","ND","ND","ND","ND"],
    [16759,"05/25/2016 22:00","29,8","1,65","ND","ND","ND","ND"],
    [16760,"05/25/2016 23:00","28,4","1,23","ND","ND","ND","ND"],
    [16761,"05/26/2016 00:00","22","0,84","ND","ND","ND","ND"],
    [16762,"05/26/2016 01:00","20,8","0,89","ND","ND","ND","ND"],
    [16763,"05/26/2016 02:00","20,5","1,02","ND","ND","ND","ND"],
    [16764,"05/26/2016 03:00","35,5","1,15","ND","ND","ND","ND"],
    [16765,"05/26/2016 04:00","27,6","1,55","ND","ND","ND","ND"],
    [16766,"05/26/2016 05:00","22","1,73","ND","ND","ND","ND"],
    [16767,"05/26/2016 06:00","9,1","2,04","ND","ND","ND","ND"],
    [16768,"05/26/2016 07:00","19,4","13,02","ND","ND","ND","ND"],
    [16769,"05/26/2016 08:00","22","11,63","ND","ND","ND","ND"],
    [16770,"05/26/2016 09:00","23,4","6","ND","ND","ND","ND"],
    [16771,"05/26/2016 10:00","27","3,38","ND","ND","ND","ND"],
    [16772,"05/26/2016 11:00","34,3","3,04","ND","ND","ND","ND"],
    [16773,"05/26/2016 12:00","44,3","3,85","ND","ND","ND","ND"],
    [16774,"05/26/2016 13:00","30,5","3,77","ND","ND","ND","ND"],
    [16775,"05/26/2016 14:00","16,6","4,09","ND","ND","ND","ND"],
    [16776,"05/26/2016 15:00","15,3","3,2","ND","ND","ND","ND"],
    [16777,"05/26/2016 16:00","23,1","2,49","ND","ND","ND","ND"],
    [16778,"05/26/2016 17:00","42,9","1,89","ND","ND","ND","ND"],
    [16779,"05/26/2016 18:00","53,8","1,81","ND","ND","ND","ND"],
    [16780,"05/26/2016 19:00","67,8","2,17","ND","ND","ND","ND"],
    [16781,"05/26/2016 20:00","60,6","2,38","ND","ND","ND","ND"],
    [16782,"05/26/2016 21:00","69,4","3,38","ND","ND","ND","ND"],
    [16783,"05/26/2016 22:00","56,4","3,3","ND","ND","ND","ND"],
    [16784,"05/26/2016 23:00","32,1","2,38","ND","ND","ND","ND"],
    [16785,"05/27/2016 00:00","40,1","2,04","ND","ND","ND","ND"],
    [16786,"05/27/2016 01:00","31,1","1,91","ND","ND","ND","ND"],
    [16787,"05/27/2016 02:00","23,3","2,44","ND","ND","ND","ND"],
    [16788,"05/27/2016 03:00","27,7","1,99","ND","ND","ND","ND"],
    [16789,"05/27/2016 04:00","29,3","2,02","ND","ND","ND","ND"],
    [16790,"05/27/2016 05:00","23,2","1,34","ND","ND","ND","ND"],
    [16791,"05/27/2016 06:00","66,2","1,81","ND","ND","ND","ND"],
    [16792,"05/27/2016 07:00","92,1","3,04","ND","ND","ND","ND"],
    [16793,"05/27/2016 08:00","83,1","3,35","ND","ND","ND","ND"],
    [16794,"05/27/2016 09:00","62,5","6","ND","ND","ND","ND"],
    [16795,"05/27/2016 10:00","64,5","8,02","ND","ND","ND","ND"],
    [16796,"05/27/2016 11:00","71,4","9,51","ND","ND","ND","ND"],
    [16797,"05/27/2016 12:00","75,6","14,59","ND","ND","ND","ND"],
    [16798,"05/27/2016 13:00","83,1","13,28","ND","ND","ND","ND"],
    [16799,"05/27/2016 14:00","78,1","13,26","ND","ND","ND","ND"],
    [16800,"05/27/2016 15:00","53,1","8,41","ND","ND","ND","ND"],
    [16801,"05/27/2016 16:00","49,1","5,37","ND","ND","ND","ND"],
    [16802,"05/27/2016 17:00","18,9","1,65","ND","ND","ND","ND"],
    [16803,"05/27/2016 18:00","20,9","1,39","ND","ND","ND","ND"],
    [16804,"05/27/2016 19:00","23,9","1,47","ND","ND","ND","ND"],
    [16805,"05/27/2016 20:00","54,8","2,31","ND","ND","ND","ND"],
    [16806,"05/27/2016 21:00","69,6","2,99","ND","ND","ND","ND"],
    [16807,"05/27/2016 22:00","65,4","3,46","ND","ND","ND","ND"],
    [16808,"05/27/2016 23:00","67,6","4,17","ND","ND","ND","ND"],
    [16809,"05/28/2016 00:00","44,9","3,41","ND","ND","ND","ND"],
    [16810,"05/28/2016 01:00","32,9","2,93","ND","ND","ND","ND"],
    [16811,"05/28/2016 02:00","35,6","2,36","ND","ND","ND","ND"],
    [16812,"05/28/2016 03:00","34,5","2,7","ND","ND","ND","ND"],
    [16813,"05/28/2016 04:00","34,4","3,28","ND","ND","ND","ND"],
    [16814,"05/28/2016 05:00","56,6","7,28","ND","ND","ND","ND"],
    [16815,"05/28/2016 06:00","52,1","5,4","ND","ND","ND","ND"],
    [16816,"05/28/2016 07:00","68,9","3,72","ND","ND","ND","ND"],
    [16817,"05/28/2016 08:00","66,7","4,24","ND","ND","ND","ND"],
    [16818,"05/28/2016 09:00","131,1","7,21","ND","ND","ND","ND"],
    [16819,"05/28/2016 10:00","161,6","29,95","ND","ND","ND","ND"],
    [16820,"05/28/2016 11:00","85,4","32,41","ND","ND","ND","ND"],
    [16821,"05/28/2016 12:00","68","12,92","ND","ND","ND","ND"],
    [16822,"05/28/2016 13:00","59,5","6,29","ND","ND","ND","ND"],
    [16823,"05/28/2016 14:00","60,6","5,11","ND","ND","ND","ND"],
    [16824,"05/28/2016 15:00","47,8","3,83","ND","ND","ND","ND"],
    [16825,"05/28/2016 16:00","3,6","1,65","ND","ND","ND","ND"],
    [16826,"05/28/2016 17:00","1,9","1,34","ND","ND","ND","ND"],
    [16827,"05/28/2016 18:00","15,6","2,17","ND","ND","ND","ND"],
    [16828,"05/28/2016 19:00","19,8","3,46","ND","ND","ND","ND"],
    [16829,"05/28/2016 20:00","21,3","3,3","ND","ND","ND","ND"],
    [16830,"05/28/2016 21:00","21,3","3,14","ND","ND","ND","ND"],
    [16831,"05/28/2016 22:00","15,3","2,7","ND","ND","ND","ND"],
    [16832,"05/28/2016 23:00","19,7","2,44","ND","ND","ND","ND"],
    [16833,"05/29/2016 00:00","20,9","1,97","ND","ND","ND","ND"],
    [16834,"05/29/2016 01:00","22,1","1,55","ND","ND","ND","ND"],
    [16835,"05/29/2016 02:00","17,2","1,41","ND","ND","ND","ND"],
    [16836,"05/29/2016 03:00","23","1,41","ND","ND","ND","ND"],
    [16837,"05/29/2016 04:00","24,5","1,41","ND","ND","ND","ND"],
    [16838,"05/29/2016 05:00","20,1","1,18","ND","ND","ND","ND"],
    [16839,"05/29/2016 06:00","33,9","1,41","ND","ND","ND","ND"],
    [16840,"05/29/2016 07:00","54","1,55","ND","ND","ND","ND"],
    [16841,"05/29/2016 08:00","45,2","1,78","ND","ND","ND","ND"],
    [16842,"05/29/2016 09:00","45","2,07","ND","ND","ND","ND"],
    [16843,"05/29/2016 10:00","28,6","1,86","ND","ND","ND","ND"],
    [16844,"05/29/2016 11:00","24,9","1,7","ND","ND","ND","ND"],
    [16845,"05/29/2016 12:00","38,1","1,86","ND","ND","ND","ND"],
    [16846,"05/29/2016 13:00","42,5","2,49","ND","ND","ND","ND"],
    [16847,"05/29/2016 14:00","38","4,82","ND","ND","ND","ND"],
    [16848,"05/29/2016 15:00","14,9","3,59","ND","ND","ND","ND"],
    [16849,"05/29/2016 16:00","11,2","1,23","ND","ND","ND","ND"],
    [16850,"05/29/2016 17:00","8,5","1,1","ND","ND","ND","ND"],
    [16851,"05/29/2016 18:00","8,8","0,97","ND","ND","ND","ND"],
    [16852,"05/29/2016 19:00","6,3","0,84","ND","ND","ND","ND"],
    [16853,"05/29/2016 20:00","15,1","1","ND","ND","ND","ND"],
    [16854,"05/29/2016 21:00","39,5","1,94","ND","ND","ND","ND"],
    [16855,"05/29/2016 22:00","30,9","1,65","ND","ND","ND","ND"],
    [16856,"05/29/2016 23:00","27,1","1,6","ND","ND","ND","ND"],
    [16857,"05/30/2016 00:00","32","1,55","ND","ND","ND","ND"],
    [16858,"05/30/2016 01:00","20,9","1,52","ND","ND","ND","ND"],
    [16859,"05/30/2016 02:00","20,9","1,31","ND","ND","ND","ND"],
    [16860,"05/30/2016 03:00","21,6","1,21","ND","ND","ND","ND"],
    [16861,"05/30/2016 04:00","25","1,13","ND","ND","ND","ND"],
    [16862,"05/30/2016 05:00","26","1,23","ND","ND","ND","ND"],
    [16863,"05/30/2016 06:00","26","1,41","ND","ND","ND","ND"],
    [16864,"05/30/2016 07:00","36,6","2,7","ND","ND","ND","ND"],
    [16865,"05/30/2016 08:00","42,7","4,35","ND","ND","ND","ND"],
    [16866,"05/30/2016 09:00","31,4","3,77","ND","ND","ND","ND"],
    [16867,"05/30/2016 10:00","26,2","2,54","ND","ND","ND","ND"],
    [16868,"05/30/2016 11:00","24,5","2,99","ND","ND","ND","ND"],
    [16869,"05/30/2016 12:00","24,9","3,33","ND","ND","ND","ND"],
    [16870,"05/30/2016 13:00","39","2,83","ND","ND","ND","ND"],
    [16871,"05/30/2016 14:00","48","3,04","ND","ND","ND","ND"],
    [16872,"05/30/2016 15:00","52,4","3,77","ND","ND","ND","ND"],
    [16873,"05/30/2016 16:00","58,1","3,64","ND","ND","ND","ND"],
    [16874,"05/30/2016 17:00","34,4","3,46","ND","ND","ND","ND"],
    [16875,"05/30/2016 18:00","32,2","3,2","ND","ND","ND","ND"],
    [16876,"05/30/2016 19:00","9,8","1,73","ND","ND","ND","ND"],
    [16877,"05/30/2016 20:00","6","1,05","ND","ND","ND","ND"],
    [16878,"05/30/2016 21:00","20,2","1,34","ND","ND","ND","ND"],
    [16879,"05/30/2016 22:00","42,7","1,76","ND","ND","ND","ND"],
    [16880,"05/30/2016 23:00","16,8","1,36","ND","ND","ND","ND"],
    [16881,"05/31/2016 00:00","24","0,81","ND","ND","ND","ND"],
    [16882,"05/31/2016 01:00","17,4","0,97","ND","ND","ND","ND"],
    [16883,"05/31/2016 02:00","12,6","0,81","ND","ND","ND","ND"],
    [16884,"05/31/2016 03:00","16,3","0,81","ND","ND","ND","ND"],
    [16885,"05/31/2016 04:00","13,1","0,79","ND","ND","ND","ND"],
    [16886,"05/31/2016 05:00","16,1","0,71","ND","ND","ND","ND"],
    [16887,"05/31/2016 06:00","13,2","1,26","ND","ND","ND","ND"],
    [16888,"05/31/2016 07:00","13,6","3,98","ND","ND","ND","ND"],
    [16889,"05/31/2016 08:00","26,5","2,59","ND","ND","ND","ND"],
    [16890,"05/31/2016 09:00","13,4","1,89","ND","ND","ND","ND"],
    [16891,"05/31/2016 10:00","34,1","2,57","ND","ND","ND","ND"],
    [16892,"05/31/2016 11:00","32","7,39","ND","ND","ND","ND"],
    [16893,"05/31/2016 12:00","35,8","8,88","ND","ND","ND","ND"],
    [16894,"05/31/2016 13:00","28,8","5,24","ND","ND","ND","ND"],
    [16895,"05/31/2016 14:00","31,9","2,78","ND","ND","ND","ND"],
    [16896,"05/31/2016 15:00","32,5","2,88","ND","ND","ND","ND"],
    [16897,"05/31/2016 16:00","32,4","2,54","ND","ND","ND","ND"],
    [16898,"05/31/2016 17:00","31,1","2,57","ND","ND","ND","ND"],
    [16899,"05/31/2016 18:00","30,5","3,17","ND","ND","ND","ND"],
    [16900,"05/31/2016 19:00","42,3","3,75","ND","ND","ND","ND"],
    [16901,"05/31/2016 20:00","56,1","2,36","ND","ND","ND","ND"],
    [16902,"05/31/2016 21:00","56,3","8,02","ND","ND","ND","ND"],
    [16903,"05/31/2016 22:00","47,9","3,64","ND","ND","ND","ND"],
    [16904,"05/31/2016 23:00","42,2","2,67","ND","ND","ND","ND"],
    [16905,"42375","25,2","1,89","ND","ND","ND","ND"],
    [16906,"42375,04167","25,7","2,59","ND","ND","ND","ND"],
    [16907,"42375,08333","25,3","3,43","ND","ND","ND","ND"],
    [16908,"42375,125","22,3","2,23","ND","ND","ND","ND"],
    [16909,"42375,16667","26,3","3,17","ND","ND","ND","ND"],
    [16910,"42375,20833","35,4","2,54","ND","ND","ND","ND"],
    [16911,"42375,25","44,8","2,67","ND","ND","ND","ND"],
    [16912,"42375,29167","76","3,3","ND","ND","ND","ND"],
    [16913,"42375,33333","105,6","4,32","ND","ND","ND","ND"],
    [16914,"42375,375","66","6,16","ND","ND","ND","ND"],
    [16915,"42375,41667","67,5","6,87","ND","ND","ND","ND"],
    [16916,"42375,45833","66,1","6,24","ND","ND","ND","ND"],
    [16917,"42375,5","69","6,94","ND","ND","ND","ND"],
    [16918,"42375,54167","56,9","6","ND","ND","ND","ND"],
    [16919,"42375,58333","47","4,45","ND","ND","ND","ND"],
    [16920,"42375,625","47","2,49","ND","ND","ND","ND"],
    [16921,"42375,66667","11,6","1,21","ND","ND","ND","ND"],
    [16922,"42375,70833","11,2","1,02","ND","ND","ND","ND"],
    [16923,"42375,75","14,4","0,86","ND","ND","ND","ND"],
    [16924,"42375,79167","11,6","0,73","ND","ND","ND","ND"],
    [16925,"42375,83333","8,9","0,68","ND","ND","ND","ND"],
    [16926,"42375,875","7,9","0,73","ND","ND","ND","ND"],
    [16927,"42375,91667","40,4","2,15","ND","ND","ND","ND"],
    [16928,"42375,95833","26,7","2,33","ND","ND","ND","ND"],
    [16929,"42406","18,7","2,75","ND","ND","ND","ND"],
    [16930,"42406,04167","23","3,28","ND","ND","ND","ND"],
    [16931,"42406,08333","18,9","1,94","ND","ND","ND","ND"],
    [16932,"42406,125","18","1,94","ND","ND","ND","ND"],
    [16933,"42406,16667","21,4","2,04","ND","ND","ND","ND"],
    [16934,"42406,20833","22,2","2,28","ND","ND","ND","ND"],
    [16935,"42406,25","48,4","2,57","ND","ND","ND","ND"],
    [16936,"42406,29167","56,1","2,46","ND","ND","ND","ND"],
    [16937,"42406,33333","71,7","6,42","ND","ND","ND","ND"],
    [16938,"42406,375","70","9,25","ND","ND","ND","ND"],
    [16939,"42406,41667","51,2","8,1","ND","ND","ND","ND"],
    [16940,"42406,45833","64,3","6,6","ND","ND","ND","ND"],
    [16941,"42406,5","ND","7,97","ND","ND","ND","ND"],
    [16942,"42406,54167","ND","7,97","ND","ND","ND","ND"],
    [16943,"42406,58333","ND","3,85","ND","ND","ND","ND"],
    [16944,"42406,625","ND","1,68","ND","ND","ND","ND"],
    [16945,"42406,66667","13","1,31","ND","ND","ND","ND"],
    [16946,"42406,70833","8,4","1,26","ND","ND","ND","ND"],
    [16947,"42406,75","9","1,23","ND","ND","ND","ND"],
    [16948,"42406,79167","11,3","1,1","ND","ND","ND","ND"],
    [16949,"42406,83333","15,1","1,31","ND","ND","ND","ND"],
    [16950,"42406,875","17,4","1,31","ND","ND","ND","ND"],
    [16951,"42406,91667","25,7","1,62","ND","ND","ND","ND"],
    [16952,"42406,95833","44,3","2,67","ND","ND","ND","ND"],
    [16953,"42435","39,2","3,3","ND","ND","ND","ND"],
    [16954,"42435,04167","30,5","3,54","ND","ND","ND","ND"],
    [16955,"42435,08333","28,7","2,46","ND","ND","ND","ND"],
    [16956,"42435,125","25,8","3,98","ND","ND","ND","ND"],
    [16957,"42435,16667","22,3","2,41","ND","ND","ND","ND"],
    [16958,"42435,20833","22,1","2,25","ND","ND","ND","ND"],
    [16959,"42435,25","31,8","2,04","ND","ND","ND","ND"],
    [16960,"42435,29167","59,5","2,8","ND","ND","ND","ND"],
    [16961,"42435,33333","38,5","4,09","ND","ND","ND","ND"],
    [16962,"42435,375","22,2","2,59","ND","ND","ND","ND"],
    [16963,"42435,41667","11,3","2,67","ND","ND","ND","ND"],
    [16964,"42435,45833","20,6","3,67","ND","ND","ND","ND"],
    [16965,"42435,5","31,4","3,09","ND","ND","ND","ND"],
    [16966,"42435,54167","38,9","2,57","ND","ND","ND","ND"],
    [16967,"42435,58333","35,6","3,25","ND","ND","ND","ND"],
    [16968,"42435,625","43,4","3,69","ND","ND","ND","ND"],
    [16969,"42435,66667","44","3,46","ND","ND","ND","ND"],
    [16970,"42435,70833","47,1","3,22","ND","ND","ND","ND"],
    [16971,"42435,75","42,7","3,64","ND","ND","ND","ND"],
    [16972,"42435,79167","82,3","4,3","ND","ND","ND","ND"],
    [16973,"42435,83333","74,9","3,2","ND","ND","ND","ND"],
    [16974,"42435,875","62,1","3,54","ND","ND","ND","ND"],
    [16975,"42435,91667","49,7","4,14","ND","ND","ND","ND"],
    [16976,"42435,95833","72","6,13","ND","ND","ND","ND"],
    [16977,"42466","59,6","4,48","ND","ND","ND","ND"],
    [16978,"42466,04167","52,9","4,8","ND","ND","ND","ND"],
    [16979,"42466,08333","47,8","3,54","ND","ND","ND","ND"],
    [16980,"42466,125","37,5","2,57","ND","ND","ND","ND"],
    [16981,"42466,16667","41,9","8,59","ND","ND","ND","ND"],
    [16982,"42466,20833","12,2","10,64","ND","ND","ND","ND"],
    [16983,"42466,25","5,5","1,52","ND","ND","ND","ND"],
    [16984,"42466,29167","16,5","1,7","ND","ND","ND","ND"],
    [16985,"42466,33333","18,7","1,68","ND","ND","ND","ND"],
    [16986,"42466,375","16,4","1,68","ND","ND","ND","ND"],
    [16987,"42466,41667","25,6","1,81","ND","ND","ND","ND"],
    [16988,"42466,45833","25,8","1,83","ND","ND","ND","ND"],
    [16989,"42466,5","25,5","1,6","ND","ND","ND","ND"],
    [16990,"42466,54167","32,1","1,62","ND","ND","ND","ND"],
    [16991,"42466,58333","37,9","1,65","ND","ND","ND","ND"],
    [16992,"42466,625","38,7","2,31","ND","ND","ND","ND"],
    [16993,"42466,66667","31,5","2,57","ND","ND","ND","ND"],
    [16994,"42466,70833","26,3","2,57","ND","ND","ND","ND"],
    [16995,"42466,75","55,5","2,52","ND","ND","ND","ND"],
    [16996,"42466,79167","43,6","2,75","ND","ND","ND","ND"],
    [16997,"42466,83333","48,5","2,31","ND","ND","ND","ND"],
    [16998,"42466,875","38","2,54","ND","ND","ND","ND"],
    [16999,"42466,91667","58,5","2,57","ND","ND","ND","ND"],
    [17000,"42466,95833","53,7","2,02","ND","ND","ND","ND"],
    [17001,"42496","40,4","1,89","ND","ND","ND","ND"],
    [17002,"42496,04167","38,7","1,6","ND","ND","ND","ND"],
    [17003,"42496,08333","31,2","1,49","ND","ND","ND","ND"],
    [17004,"42496,125","34,5","1,55","ND","ND","ND","ND"],
    [17005,"42496,16667","33,5","1,49","ND","ND","ND","ND"],
    [17006,"42496,20833","32,5","1,52","ND","ND","ND","ND"],
    [17007,"42496,25","43","1,78","ND","ND","ND","ND"],
    [17008,"42496,29167","42,8","2,23","ND","ND","ND","ND"],
    [17009,"42496,33333","61,3","4,8","ND","ND","ND","ND"],
    [17010,"42496,375","58","9,38","ND","ND","ND","ND"],
    [17011,"42496,41667","61,1","8,78","ND","ND","ND","ND"],
    [17012,"42496,45833","44,9","5,69","ND","ND","ND","ND"],
    [17013,"42496,5","45,1","4,77","ND","ND","ND","ND"],
    [17014,"42496,54167","42,1","4,87","ND","ND","ND","ND"],
    [17015,"42496,58333","41,8","6,26","ND","ND","ND","ND"],
    [17016,"42496,625","16,6","2,52","ND","ND","ND","ND"],
    [17017,"42496,66667","10,8","1","ND","ND","ND","ND"],
    [17018,"42496,70833","10,6","0,92","ND","ND","ND","ND"],
    [17019,"42496,75","11,6","0,84","ND","ND","ND","ND"],
    [17020,"42496,79167","8,4","0,73","ND","ND","ND","ND"],
    [17021,"42496,83333","22,4","1,31","ND","ND","ND","ND"],
    [17022,"42496,875","25,2","2,02","ND","ND","ND","ND"],
    [17023,"42496,91667","37,5","1,89","ND","ND","ND","ND"],
    [17024,"42496,95833","28,1","1,83","ND","ND","ND","ND"],
    [17025,"42527","24,4","1,65","ND","ND","ND","ND"],
    [17026,"42527,04167","25,8","1,7","ND","ND","ND","ND"],
    [17027,"42527,08333","27,2","1,6","ND","ND","ND","ND"],
    [17028,"42527,125","27,2","1,6","ND","ND","ND","ND"],
    [17029,"42527,16667","21,2","1,49","ND","ND","ND","ND"],
    [17030,"42527,20833","26,7","1,81","ND","ND","ND","ND"],
    [17031,"42527,25","33,2","1,91","ND","ND","ND","ND"],
    [17032,"42527,29167","28,8","1,94","ND","ND","ND","ND"],
    [17033,"42527,33333","22,4","1,89","ND","ND","ND","ND"],
    [17034,"42527,375","52,4","2,33","ND","ND","ND","ND"],
    [17035,"42527,41667","55,1","5,11","ND","ND","ND","ND"],
    [17036,"42527,45833","43,1","6,34","ND","ND","ND","ND"],
    [17037,"42527,5","52,9","6,66","ND","ND","ND","ND"],
    [17038,"42527,54167","7","1,57","ND","ND","ND","ND"],
    [17039,"42527,58333","6,2","0,97","ND","ND","ND","ND"],
    [17040,"42527,625","4,5","0,84","ND","ND","ND","ND"],
    [17041,"42527,66667","4,3","0,89","ND","ND","ND","ND"],
    [17042,"42527,70833","7,5","0,92","ND","ND","ND","ND"],
    [17043,"42527,75","7,5","1,02","ND","ND","ND","ND"],
    [17044,"42527,79167","30,1","1,91","ND","ND","ND","ND"],
    [17045,"42527,83333","33,9","2,2","ND","ND","ND","ND"],
    [17046,"42527,875","25,4","1,73","ND","ND","ND","ND"],
    [17047,"42527,91667","19,9","1,68","ND","ND","ND","ND"],
    [17048,"42527,95833","23,2","1,68","ND","ND","ND","ND"],
    [17049,"42557","25,6","1,36","ND","ND","ND","ND"],
    [17050,"42557,04167","22,1","1,44","ND","ND","ND","ND"],
    [17051,"42557,08333","24,7","1,34","ND","ND","ND","ND"],
    [17052,"42557,125","24,1","1,36","ND","ND","ND","ND"],
    [17053,"42557,16667","21,9","1,07","ND","ND","ND","ND"],
    [17054,"42557,20833","29,5","1,68","ND","ND","ND","ND"],
    [17055,"42557,25","51","1,99","ND","ND","ND","ND"],
    [17056,"42557,29167","58,6","2,23","ND","ND","ND","ND"],
    [17057,"42557,33333","49,7","3,64","ND","ND","ND","ND"],
    [17058,"42557,375","88","13,65","ND","ND","ND","ND"],
    [17059,"42557,41667","78,4","14,33","ND","ND","ND","ND"],
    [17060,"42557,45833","48,2","7,55","ND","ND","ND","ND"],
    [17061,"42557,5","40,1","5,11","ND","ND","ND","ND"],
    [17062,"42557,54167","43,9","3,96","ND","ND","ND","ND"],
    [17063,"42557,58333","51","3,75","ND","ND","ND","ND"],
    [17064,"42557,625","47","3,25","ND","ND","ND","ND"],
    [17065,"42557,66667","24","1,81","ND","ND","ND","ND"],
    [17066,"42557,70833","12,6","1,26","ND","ND","ND","ND"],
    [17067,"42557,75","11","1,28","ND","ND","ND","ND"],
    [17068,"42557,79167","14,3","1,21","ND","ND","ND","ND"],
    [17069,"42557,83333","33,8","2,41","ND","ND","ND","ND"],
    [17070,"42557,875","36,6","9,67","ND","ND","ND","ND"],
    [17071,"42557,91667","32,4","14,2","ND","ND","ND","ND"],
    [17072,"42557,95833","14,8","3,07","ND","ND","ND","ND"],
    [17073,"42588","11,4","1,89","ND","ND","ND","ND"],
    [17074,"42588,04167","12,1","1,47","ND","ND","ND","ND"],
    [17075,"42588,08333","13,4","1,57","ND","ND","ND","ND"],
    [17076,"42588,125","16,2","1,94","ND","ND","ND","ND"],
    [17077,"42588,16667","15,6","2,02","ND","ND","ND","ND"],
    [17078,"42588,20833","19","1,78","ND","ND","ND","ND"],
    [17079,"42588,25","29","1,91","ND","ND","ND","ND"],
    [17080,"42588,29167","43,9","2,41","ND","ND","ND","ND"],
    [17081,"42588,33333","56","5,69","ND","ND","ND","ND"],
    [17082,"42588,375","42,5","4,4","ND","ND","ND","ND"],
    [17083,"42588,41667","56","4,56","ND","ND","ND","ND"],
    [17084,"42588,45833","33,4","3,48","ND","ND","ND","ND"],
    [17085,"42588,5","33,3","3,04","ND","ND","ND","ND"],
    [17086,"42588,54167","34,1","3,67","ND","ND","ND","ND"],
    [17087,"42588,58333","41,2","3,88","ND","ND","ND","ND"],
    [17088,"42588,625","41,3","4,98","ND","ND","ND","ND"],
    [17089,"42588,66667","39,5","6,37","ND","ND","ND","ND"],
    [17090,"42588,70833","38,1","4,35","ND","ND","ND","ND"],
    [17091,"42588,75","50,1","5","ND","ND","ND","ND"],
    [17092,"42588,79167","56,2","3,07","ND","ND","ND","ND"],
    [17093,"42588,83333","17,5","1,47","ND","ND","ND","ND"],
    [17094,"42588,875","23,8","1,6","ND","ND","ND","ND"],
    [17095,"42588,91667","40,9","2,07","ND","ND","ND","ND"],
    [17096,"42588,95833","34,5","1,94","ND","ND","ND","ND"],
    [17097,"42619","34,2","2,28","ND","ND","ND","ND"],
    [17098,"42619,04167","33,8","1,89","ND","ND","ND","ND"],
    [17099,"42619,08333","28,5","1,78","ND","ND","ND","ND"],
    [17100,"42619,125","25,2","2,25","ND","ND","ND","ND"],
    [17101,"42619,16667","23,5","1,97","ND","ND","ND","ND"],
    [17102,"42619,20833","29,4","2,02","ND","ND","ND","ND"],
    [17103,"42619,25","26,1","1,62","ND","ND","ND","ND"],
    [17104,"42619,29167","29,8","2,23","ND","ND","ND","ND"],
    [17105,"42619,33333","33,2","2,75","ND","ND","ND","ND"],
    [17106,"42619,375","41,7","2,59","ND","ND","ND","ND"],
    [17107,"42619,41667","38,8","2,36","ND","ND","ND","ND"],
    [17108,"42619,45833","58,7","5,53","ND","ND","ND","ND"],
    [17109,"42619,5","77,6","16,09","ND","ND","ND","ND"],
    [17110,"42619,54167","47,8","4,87","ND","ND","ND","ND"],
    [17111,"42619,58333","38,7","3,04","ND","ND","ND","ND"],
    [17112,"42619,625","33,4","2,25","ND","ND","ND","ND"],
    [17113,"42619,66667","7,1","1,15","ND","ND","ND","ND"],
    [17114,"42619,70833","7,1","1,1","ND","ND","ND","ND"],
    [17115,"42619,75","33,4","1,49","ND","ND","ND","ND"],
    [17116,"42619,79167","22,4","1,65","ND","ND","ND","ND"],
    [17117,"42619,83333","10,8","1,21","ND","ND","ND","ND"],
    [17118,"42619,875","29,2","1,62","ND","ND","ND","ND"],
    [17119,"42619,91667","46,1","1,81","ND","ND","ND","ND"],
    [17120,"42619,95833","43,8","2,07","ND","ND","ND","ND"],
    [17121,"42649","58,5","2,46","ND","ND","ND","ND"],
    [17122,"42649,04167","35,3","2,33","ND","ND","ND","ND"],
    [17123,"42649,08333","31,7","2,41","ND","ND","ND","ND"],
    [17124,"42649,125","33,3","1,99","ND","ND","ND","ND"],
    [17125,"42649,16667","25,8","1,91","ND","ND","ND","ND"],
    [17126,"42649,20833","33,8","2,52","ND","ND","ND","ND"],
    [17127,"42649,25","16,7","4,93","ND","ND","ND","ND"],
    [17128,"42649,29167","39,8","3,14","ND","ND","ND","ND"],
    [17129,"42649,33333","36,1","4,11","ND","ND","ND","ND"],
    [17130,"42649,375","45,4","6,68","ND","ND","ND","ND"],
    [17131,"42649,41667","38,4","11,74","ND","ND","ND","ND"],
    [17132,"42649,45833","ND","7,6","ND","ND","ND","ND"],
    [17133,"42649,5","ND","7,62","ND","ND","ND","ND"],
    [17134,"42649,54167","ND","4,69","ND","ND","ND","ND"],
    [17135,"42649,58333","ND","4,35","ND","ND","ND","ND"],
    [17136,"42649,625","53,2","4,38","ND","ND","ND","ND"],
    [17137,"42649,66667","55,2","4,11","ND","ND","ND","ND"],
    [17138,"42649,70833","50,4","3,62","ND","ND","ND","ND"],
    [17139,"42649,75","16,8","1,49","ND","ND","ND","ND"],
    [17140,"42649,79167","13,5","1,13","ND","ND","ND","ND"],
    [17141,"42649,83333","5,8","0,94","ND","ND","ND","ND"],
    [17142,"42649,875","20,2","1,26","ND","ND","ND","ND"],
    [17143,"42649,91667","56,2","2,59","ND","ND","ND","ND"],
    [17144,"42649,95833","48,3","2,8","ND","ND","ND","ND"],
    [17145,"42680","44","2,54","ND","ND","ND","ND"],
    [17146,"42680,04167","40","3,01","ND","ND","ND","ND"],
    [17147,"42680,08333","39,8","2,49","ND","ND","ND","ND"],
    [17148,"42680,125","33,6","2,52","ND","ND","ND","ND"],
    [17149,"42680,16667","31,4","2,75","ND","ND","ND","ND"],
    [17150,"42680,20833","39,4","2,31","ND","ND","ND","ND"],
    [17151,"42680,25","39,4","3,38","ND","ND","ND","ND"],
    [17152,"42680,29167","46,5","3,35","ND","ND","ND","ND"],
    [17153,"42680,33333","72,7","3,59","ND","ND","ND","ND"],
    [17154,"42680,375","94,4","6,73","ND","ND","ND","ND"],
    [17155,"42680,41667","54","8,25","ND","ND","ND","ND"],
    [17156,"42680,45833","39,6","6,94","ND","ND","ND","ND"],
    [17157,"42680,5","46,6","5,71","ND","ND","ND","ND"],
    [17158,"42680,54167","58,1","4,93","ND","ND","ND","ND"],
    [17159,"42680,58333","60,1","3,83","ND","ND","ND","ND"],
    [17160,"42680,625","65,3","3,46","ND","ND","ND","ND"],
    [17161,"42680,66667","31,4","1,86","ND","ND","ND","ND"],
    [17162,"42680,70833","26,8","1,21","ND","ND","ND","ND"],
    [17163,"42680,75","15,6","1,1","ND","ND","ND","ND"],
    [17164,"42680,79167","15,2","1,02","ND","ND","ND","ND"],
    [17165,"42680,83333","15,6","1","ND","ND","ND","ND"],
    [17166,"42680,875","15,2","1,02","ND","ND","ND","ND"],
    [17167,"42680,91667","27","1,62","ND","ND","ND","ND"],
    [17168,"42680,95833","69,6","2,28","ND","ND","ND","ND"],
    [17169,"42710","56,8","1,78","ND","ND","ND","ND"],
    [17170,"42710,04167","42,3","1,73","ND","ND","ND","ND"],
    [17171,"42710,08333","39,8","1,44","ND","ND","ND","ND"],
    [17172,"42710,125","41,2","1,49","ND","ND","ND","ND"],
    [17173,"42710,16667","42,2","1,31","ND","ND","ND","ND"],
    [17174,"42710,20833","34,2","1,31","ND","ND","ND","ND"],
    [17175,"42710,25","34,2","1,31","ND","ND","ND","ND"],
    [17176,"42710,29167","46,1","1,62","ND","ND","ND","ND"],
    [17177,"42710,33333","49,3","2,38","ND","ND","ND","ND"],
    [17178,"42710,375","47,2","4,85","ND","ND","ND","ND"],
    [17179,"42710,41667","47,2","5,87","ND","ND","ND","ND"],
    [17180,"42710,45833","38,9","9,22","ND","ND","ND","ND"],
    [17181,"42710,5","59,9","5,53","ND","ND","ND","ND"],
    [17182,"42710,54167","57,2","5,32","ND","ND","ND","ND"],
    [17183,"42710,58333","56,8","3,69","ND","ND","ND","ND"],
    [17184,"42710,625","43,5","2,41","ND","ND","ND","ND"],
    [17185,"42710,66667","17,1","1,02","ND","ND","ND","ND"],
    [17186,"42710,70833","14,6","1,05","ND","ND","ND","ND"],
    [17187,"42710,75","14,8","1","ND","ND","ND","ND"],
    [17188,"42710,79167","13,3","0,89","ND","ND","ND","ND"],
    [17189,"42710,83333","15,2","1,13","ND","ND","ND","ND"],
    [17190,"42710,875","38,7","1,81","ND","ND","ND","ND"],
    [17191,"42710,91667","47,8","2,07","ND","ND","ND","ND"],
    [17192,"42710,95833","48","1,62","ND","ND","ND","ND"],
    [17193,"06/13/2016 00:00","35,4","1,62","ND","ND","ND","ND"],
    [17194,"06/13/2016 01:00","30,7","1,34","ND","ND","ND","ND"],
    [17195,"06/13/2016 02:00","31,5","1,1","ND","ND","ND","ND"],
    [17196,"06/13/2016 03:00","26,3","1,05","ND","ND","ND","ND"],
    [17197,"06/13/2016 04:00","25,5","1,02","ND","ND","ND","ND"],
    [17198,"06/13/2016 05:00","29","1,02","ND","ND","ND","ND"],
    [17199,"06/13/2016 06:00","38,5","1,23","ND","ND","ND","ND"],
    [17200,"06/13/2016 07:00","76,1","2,36","ND","ND","ND","ND"],
    [17201,"06/13/2016 08:00","76,3","3,41","ND","ND","ND","ND"],
    [17202,"06/13/2016 09:00","45,9","5,24","ND","ND","ND","ND"],
    [17203,"06/13/2016 10:00","54,8","6,26","ND","ND","ND","ND"],
    [17204,"06/13/2016 11:00","55,8","5,29","ND","ND","ND","ND"],
    [17205,"06/13/2016 12:00","43,3","4,19","ND","ND","ND","ND"],
    [17206,"06/13/2016 13:00","54,6","4,35","ND","ND","ND","ND"],
    [17207,"06/13/2016 14:00","37","2,02","ND","ND","ND","ND"],
    [17208,"06/13/2016 15:00","9,8","1,13","ND","ND","ND","ND"],
    [17209,"06/13/2016 16:00","27,3","1,26","ND","ND","ND","ND"],
    [17210,"06/13/2016 17:00","30","1,41","ND","ND","ND","ND"],
    [17211,"06/13/2016 18:00","33,6","1,89","ND","ND","ND","ND"],
    [17212,"06/13/2016 19:00","51,5","2,07","ND","ND","ND","ND"],
    [17213,"06/13/2016 20:00","37,9","2,7","ND","ND","ND","ND"],
    [17214,"06/13/2016 21:00","37,7","2,62","ND","ND","ND","ND"],
    [17215,"06/13/2016 22:00","40","1,91","ND","ND","ND","ND"],
    [17216,"06/13/2016 23:00","58,2","1,94","ND","ND","ND","ND"],
    [17217,"06/14/2016 00:00","27,3","2,04","ND","ND","ND","ND"],
    [17218,"06/14/2016 01:00","18,3","1,99","ND","ND","ND","ND"],
    [17219,"06/14/2016 02:00","16,2","1,99","ND","ND","ND","ND"],
    [17220,"06/14/2016 03:00","24,5","1,91","ND","ND","ND","ND"],
    [17221,"06/14/2016 04:00","23,6","2,28","ND","ND","ND","ND"],
    [17222,"06/14/2016 05:00","31,7","2,25","ND","ND","ND","ND"],
    [17223,"06/14/2016 06:00","31,7","3,3","ND","ND","ND","ND"],
    [17224,"06/14/2016 07:00","64,9","2,83","ND","ND","ND","ND"],
    [17225,"06/14/2016 08:00","70,1","2,93","ND","ND","ND","ND"],
    [17226,"06/14/2016 09:00","40,2","2,33","ND","ND","ND","ND"],
    [17227,"06/14/2016 10:00","31,5","1,86","ND","ND","ND","ND"],
    [17228,"06/14/2016 11:00","42,6","1,97","ND","ND","ND","ND"],
    [17229,"06/14/2016 12:00","51,7","2,25","ND","ND","ND","ND"],
    [17230,"06/14/2016 13:00","66,1","3,75","ND","ND","ND","ND"],
    [17231,"06/14/2016 14:00","59,2","6,66","ND","ND","ND","ND"],
    [17232,"06/14/2016 15:00","54,5","7","ND","ND","ND","ND"],
    [17233,"06/14/2016 16:00","29,1","2,96","ND","ND","ND","ND"],
    [17234,"06/14/2016 17:00","11,2","1,1","ND","ND","ND","ND"],
    [17235,"06/14/2016 18:00","14,7","1,28","ND","ND","ND","ND"],
    [17236,"06/14/2016 19:00","13,1","1,13","ND","ND","ND","ND"],
    [17237,"06/14/2016 20:00","15,3","1,21","ND","ND","ND","ND"],
    [17238,"06/14/2016 21:00","14,2","1,05","ND","ND","ND","ND"],
    [17239,"06/14/2016 22:00","22","1,55","ND","ND","ND","ND"],
    [17240,"06/14/2016 23:00","42,3","1,76","ND","ND","ND","ND"],
    [17241,"06/15/2016 00:00","32,9","2,17","ND","ND","ND","ND"],
    [17242,"06/15/2016 01:00","29,5","1,99","ND","ND","ND","ND"],
    [17243,"06/15/2016 02:00","29,7","1,91","ND","ND","ND","ND"],
    [17244,"06/15/2016 03:00","26,8","2,2","ND","ND","ND","ND"],
    [17245,"06/15/2016 04:00","30,9","2,1","ND","ND","ND","ND"],
    [17246,"06/15/2016 05:00","28,1","2,33","ND","ND","ND","ND"],
    [17247,"06/15/2016 06:00","38,1","2,07","ND","ND","ND","ND"],
    [17248,"06/15/2016 07:00","68","2,7","ND","ND","ND","ND"],
    [17249,"06/15/2016 08:00","63","5,9","ND","ND","ND","ND"],
    [17250,"06/15/2016 09:00","55,6","8,36","ND","ND","ND","ND"],
    [17251,"06/15/2016 10:00","44,6","8,44","ND","ND","ND","ND"],
    [17252,"06/15/2016 11:00","41","6,71","ND","ND","ND","ND"],
    [17253,"06/15/2016 12:00","41,8","5,19","ND","ND","ND","ND"],
    [17254,"06/15/2016 13:00","42,5","5,4","ND","ND","ND","ND"],
    [17255,"06/15/2016 14:00","50,2","5,48","ND","ND","ND","ND"],
    [17256,"06/15/2016 15:00","53,5","5,08","ND","ND","ND","ND"],
    [17257,"06/15/2016 16:00","58,3","3,12","ND","ND","ND","ND"],
    [17258,"06/15/2016 17:00","21","1,02","ND","ND","ND","ND"],
    [17259,"06/15/2016 18:00","25","1,02","ND","ND","ND","ND"],
    [17260,"06/15/2016 19:00","12,7","0,94","ND","ND","ND","ND"],
    [17261,"06/15/2016 20:00","13,4","0,97","ND","ND","ND","ND"],
    [17262,"06/15/2016 21:00","14,4","1,1","ND","ND","ND","ND"],
    [17263,"06/15/2016 22:00","57,8","1,91","ND","ND","ND","ND"],
    [17264,"06/15/2016 23:00","54,7","2,2","ND","ND","ND","ND"],
    [17265,"06/16/2016 00:00","39,7","2,17","ND","ND","ND","ND"],
    [17266,"06/16/2016 01:00","38,6","2,15","ND","ND","ND","ND"],
    [17267,"06/16/2016 02:00","30,7","2,36","ND","ND","ND","ND"],
    [17268,"06/16/2016 03:00","30,2","1,91","ND","ND","ND","ND"],
    [17269,"06/16/2016 04:00","30,6","1,86","ND","ND","ND","ND"],
    [17270,"06/16/2016 05:00","33,7","1,68","ND","ND","ND","ND"],
    [17271,"06/16/2016 06:00","55,6","2,07","ND","ND","ND","ND"],
    [17272,"06/16/2016 07:00","72,5","2,54","ND","ND","ND","ND"],
    [17273,"06/16/2016 08:00","68,5","3,12","ND","ND","ND","ND"],
    [17274,"06/16/2016 09:00","98,7","9,62","ND","ND","ND","ND"],
    [17275,"06/16/2016 10:00","86,1","10,35","ND","ND","ND","ND"],
    [17276,"06/16/2016 11:00","57,6","7,44","ND","ND","ND","ND"],
    [17277,"06/16/2016 12:00","42,2","4,95","ND","ND","ND","ND"],
    [17278,"06/16/2016 13:00","51,6","4,56","ND","ND","ND","ND"],
    [17279,"06/16/2016 14:00","55,9","3,77","ND","ND","ND","ND"],
    [17280,"06/16/2016 15:00","64,1","2,86","ND","ND","ND","ND"],
    [17281,"06/16/2016 16:00","36,7","4,24","ND","ND","ND","ND"],
    [17282,"06/16/2016 17:00","16,7","1,28","ND","ND","ND","ND"],
    [17283,"06/16/2016 18:00","22,3","1,1","ND","ND","ND","ND"],
    [17284,"06/16/2016 19:00","22,3","1","ND","ND","ND","ND"],
    [17285,"06/16/2016 20:00","14","1,02","ND","ND","ND","ND"],
    [17286,"06/16/2016 21:00","28,7","1,65","ND","ND","ND","ND"],
    [17287,"06/16/2016 22:00","61,9","2,38","ND","ND","ND","ND"],
    [17288,"06/16/2016 23:00","58,3","2,52","ND","ND","ND","ND"],
    [17289,"06/17/2016 00:00","46,7","2,36","ND","ND","ND","ND"],
    [17290,"06/17/2016 01:00","41,4","2,12","ND","ND","ND","ND"],
    [17291,"06/17/2016 02:00","32,8","2,02","ND","ND","ND","ND"],
    [17292,"06/17/2016 03:00","27,4","1,73","ND","ND","ND","ND"],
    [17293,"06/17/2016 04:00","31","1,52","ND","ND","ND","ND"],
    [17294,"06/17/2016 05:00","34,9","1,36","ND","ND","ND","ND"],
    [17295,"06/17/2016 06:00","48,9","1,78","ND","ND","ND","ND"],
    [17296,"06/17/2016 07:00","68,6","2,93","ND","ND","ND","ND"],
    [17297,"06/17/2016 08:00","90,5","3,43","ND","ND","ND","ND"],
    [17298,"06/17/2016 09:00","90,5","3,8","ND","ND","ND","ND"],
    [17299,"06/17/2016 10:00","74,5","4,82","ND","ND","ND","ND"],
    [17300,"06/17/2016 11:00","90,4","7","ND","ND","ND","ND"],
    [17301,"06/17/2016 12:00","83,6","9,49","ND","ND","ND","ND"],
    [17302,"06/17/2016 13:00","85,2","8,99","ND","ND","ND","ND"],
    [17303,"06/17/2016 14:00","66,1","6,16","ND","ND","ND","ND"],
    [17304,"06/17/2016 15:00","68,2","5,24","ND","ND","ND","ND"],
    [17305,"06/17/2016 16:00","50,6","3,25","ND","ND","ND","ND"],
    [17306,"06/17/2016 17:00","13,6","1,26","ND","ND","ND","ND"],
    [17307,"06/17/2016 18:00","23,5","1,21","ND","ND","ND","ND"],
    [17308,"06/17/2016 19:00","18,3","1,1","ND","ND","ND","ND"],
    [17309,"06/17/2016 20:00","27,1","1,34","ND","ND","ND","ND"],
    [17310,"06/17/2016 21:00","32","1,99","ND","ND","ND","ND"],
    [17311,"06/17/2016 22:00","40,3","2,1","ND","ND","ND","ND"],
    [17312,"06/17/2016 23:00","68,8","3,17","ND","ND","ND","ND"],
    [17313,"06/18/2016 00:00","58,7","2,65","ND","ND","ND","ND"],
    [17314,"06/18/2016 01:00","45,5","2,8","ND","ND","ND","ND"],
    [17315,"06/18/2016 02:00","41,3","2,38","ND","ND","ND","ND"],
    [17316,"06/18/2016 03:00","47,1","2,73","ND","ND","ND","ND"],
    [17317,"06/18/2016 04:00","43,3","2,07","ND","ND","ND","ND"],
    [17318,"06/18/2016 05:00","39,9","1,99","ND","ND","ND","ND"],
    [17319,"06/18/2016 06:00","57,8","1,89","ND","ND","ND","ND"],
    [17320,"06/18/2016 07:00","50,9","2,1","ND","ND","ND","ND"],
    [17321,"06/18/2016 08:00","65","3,14","ND","ND","ND","ND"],
    [17322,"06/18/2016 09:00","68","5,55","ND","ND","ND","ND"],
    [17323,"06/18/2016 10:00","70,9","5,58","ND","ND","ND","ND"],
    [17324,"06/18/2016 11:00","54,6","6,58","ND","ND","ND","ND"],
    [17325,"06/18/2016 12:00","54,2","5,35","ND","ND","ND","ND"],
    [17326,"06/18/2016 13:00","68,3","4,59","ND","ND","ND","ND"],
    [17327,"06/18/2016 14:00","56,1","3,22","ND","ND","ND","ND"],
    [17328,"06/18/2016 15:00","16,2","1,49","ND","ND","ND","ND"],
    [17329,"06/18/2016 16:00","17,6","1,28","ND","ND","ND","ND"],
    [17330,"06/18/2016 17:00","14,4","1,13","ND","ND","ND","ND"],
    [17331,"06/18/2016 18:00","17,5","0,97","ND","ND","ND","ND"],
    [17332,"06/18/2016 19:00","25,1","1,52","ND","ND","ND","ND"],
    [17333,"06/18/2016 20:00","59,5","2,07","ND","ND","ND","ND"],
    [17334,"06/18/2016 21:00","51","2,49","ND","ND","ND","ND"],
    [17335,"06/18/2016 22:00","73,2","2,8","ND","ND","ND","ND"],
    [17336,"06/18/2016 23:00","51,5","2,28","ND","ND","ND","ND"],
    [17337,"06/19/2016 00:00","54,6","1,99","ND","ND","ND","ND"],
    [17338,"06/19/2016 01:00","40,2","1,81","ND","ND","ND","ND"],
    [17339,"06/19/2016 02:00","35,9","1,78","ND","ND","ND","ND"],
    [17340,"06/19/2016 03:00","39,5","1,55","ND","ND","ND","ND"],
    [17341,"06/19/2016 04:00","53,2","1,65","ND","ND","ND","ND"],
    [17342,"06/19/2016 05:00","55,9","1,44","ND","ND","ND","ND"],
    [17343,"06/19/2016 06:00","21,4","1,52","ND","ND","ND","ND"],
    [17344,"06/19/2016 07:00","23,6","1,55","ND","ND","ND","ND"],
    [17345,"06/19/2016 08:00","18,9","1,44","ND","ND","ND","ND"],
    [17346,"06/19/2016 09:00","24,9","2,07","ND","ND","ND","ND"],
    [17347,"06/19/2016 10:00","34,1","3,85","ND","ND","ND","ND"],
    [17348,"06/19/2016 11:00","34,1","4,17","ND","ND","ND","ND"],
    [17349,"06/19/2016 12:00","32,3","3,43","ND","ND","ND","ND"],
    [17350,"06/19/2016 13:00","29,6","3,38","ND","ND","ND","ND"],
    [17351,"06/19/2016 14:00","37,9","3,3","ND","ND","ND","ND"],
    [17352,"06/19/2016 15:00","4,9","1,34","ND","ND","ND","ND"],
    [17353,"06/19/2016 16:00","8,5","1,15","ND","ND","ND","ND"],
    [17354,"06/19/2016 17:00","9,1","1,18","ND","ND","ND","ND"],
    [17355,"06/19/2016 18:00","9,3","0,97","ND","ND","ND","ND"],
    [17356,"06/19/2016 19:00","11,6","1,07","ND","ND","ND","ND"],
    [17357,"06/19/2016 20:00","18,8","1,31","ND","ND","ND","ND"],
    [17358,"06/19/2016 21:00","16,9","1,6","ND","ND","ND","ND"],
    [17359,"06/19/2016 22:00","31,6","1,34","ND","ND","ND","ND"],
    [17360,"06/19/2016 23:00","26,3","1,23","ND","ND","ND","ND"],
    [17361,"06/20/2016 00:00","26,7","1,31","ND","ND","ND","ND"],
    [17362,"06/20/2016 01:00","18,4","1","ND","ND","ND","ND"],
    [17363,"06/20/2016 02:00","22,5","1,44","ND","ND","ND","ND"],
    [17364,"06/20/2016 03:00","20","1,07","ND","ND","ND","ND"],
    [17365,"06/20/2016 04:00","13,1","1,05","ND","ND","ND","ND"],
    [17366,"06/20/2016 05:00","19,8","1,18","ND","ND","ND","ND"],
    [17367,"06/20/2016 06:00","7,9","1,26","ND","ND","ND","ND"],
    [17368,"06/20/2016 07:00","20,6","1,86","ND","ND","ND","ND"],
    [17369,"06/20/2016 08:00","25,3","2,15","ND","ND","ND","ND"],
    [17370,"06/20/2016 09:00","29,4","2,28","ND","ND","ND","ND"],
    [17371,"06/20/2016 10:00","30,6","2,49","ND","ND","ND","ND"],
    [17372,"06/20/2016 11:00","30,6","2,15","ND","ND","ND","ND"],
    [17373,"06/20/2016 12:00","28","2,31","ND","ND","ND","ND"],
    [17374,"06/20/2016 13:00","29,9","2,38","ND","ND","ND","ND"],
    [17375,"06/20/2016 14:00","39","2,1","ND","ND","ND","ND"],
    [17376,"06/20/2016 15:00","12,2","1,44","ND","ND","ND","ND"],
    [17377,"06/20/2016 16:00","6,8","1,15","ND","ND","ND","ND"],
    [17378,"06/20/2016 17:00","14,9","1,1","ND","ND","ND","ND"],
    [17379,"06/20/2016 18:00","4","1,13","ND","ND","ND","ND"],
    [17380,"06/20/2016 19:00","23,6","1,78","ND","ND","ND","ND"],
    [17381,"06/20/2016 20:00","45,9","2,31","ND","ND","ND","ND"],
    [17382,"06/20/2016 21:00","43","2,59","ND","ND","ND","ND"],
    [17383,"06/20/2016 22:00","43","1,91","ND","ND","ND","ND"],
    [17384,"06/20/2016 23:00","16,7","1,36","ND","ND","ND","ND"],
    [17385,"06/21/2016 00:00","17,6","1,83","ND","ND","ND","ND"],
    [17386,"06/21/2016 01:00","17,8","1,41","ND","ND","ND","ND"],
    [17387,"06/21/2016 02:00","17,6","1,41","ND","ND","ND","ND"],
    [17388,"06/21/2016 03:00","13,4","1,26","ND","ND","ND","ND"],
    [17389,"06/21/2016 04:00","15,7","1,02","ND","ND","ND","ND"],
    [17390,"06/21/2016 05:00","23,1","1,05","ND","ND","ND","ND"],
    [17391,"06/21/2016 06:00","36,3","1,39","ND","ND","ND","ND"],
    [17392,"06/21/2016 07:00","58,9","1,83","ND","ND","ND","ND"],
    [17393,"06/21/2016 08:00","58,9","3,9","ND","ND","ND","ND"],
    [17394,"06/21/2016 09:00","68,5","5,84","ND","ND","ND","ND"],
    [17395,"06/21/2016 10:00","60,8","6,08","ND","ND","ND","ND"],
    [17396,"06/21/2016 11:00","48,8","5,11","ND","ND","ND","ND"],
    [17397,"06/21/2016 12:00","46,4","4,85","ND","ND","ND","ND"],
    [17398,"06/21/2016 13:00","28,8","3,72","ND","ND","ND","ND"],
    [17399,"06/21/2016 14:00","37,4","2,88","ND","ND","ND","ND"],
    [17400,"06/21/2016 15:00","39,5","2,67","ND","ND","ND","ND"],
    [17401,"06/21/2016 16:00","42,7","2,62","ND","ND","ND","ND"],
    [17402,"06/21/2016 17:00","24,4","1,31","ND","ND","ND","ND"],
    [17403,"06/21/2016 18:00","15,7","1,18","ND","ND","ND","ND"],
    [17404,"06/21/2016 19:00","15,9","1,21","ND","ND","ND","ND"],
    [17405,"06/21/2016 20:00","32,5","1,7","ND","ND","ND","ND"],
    [17406,"06/21/2016 21:00","27,4","1,78","ND","ND","ND","ND"],
    [17407,"06/21/2016 22:00","61,2","1,65","ND","ND","ND","ND"],
    [17408,"06/21/2016 23:00","42,4","1,55","ND","ND","ND","ND"],
    [17409,"06/22/2016 00:00","35,5","1,34","ND","ND","ND","ND"],
    [17410,"06/22/2016 01:00","36,4","1,18","ND","ND","ND","ND"],
    [17411,"06/22/2016 02:00","26,2","1,21","ND","ND","ND","ND"],
    [17412,"06/22/2016 03:00","31,8","1,13","ND","ND","ND","ND"],
    [17413,"06/22/2016 04:00","38,7","1,34","ND","ND","ND","ND"],
    [17414,"06/22/2016 05:00","34,6","1,44","ND","ND","ND","ND"],
    [17415,"06/22/2016 06:00","55,9","1,65","ND","ND","ND","ND"],
    [17416,"06/22/2016 07:00","81,8","2,12","ND","ND","ND","ND"],
    [17417,"06/22/2016 08:00","82","3,59","ND","ND","ND","ND"],
    [17418,"06/22/2016 09:00","79","4,77","ND","ND","ND","ND"],
    [17419,"06/22/2016 10:00","74,6","5,32","ND","ND","ND","ND"],
    [17420,"06/22/2016 11:00","63,4","5,14","ND","ND","ND","ND"],
    [17421,"06/22/2016 12:00","47,9","4,82","ND","ND","ND","ND"],
    [17422,"06/22/2016 13:00","60,2","3,85","ND","ND","ND","ND"],
    [17423,"06/22/2016 14:00","64,6","4,09","ND","ND","ND","ND"],
    [17424,"06/22/2016 15:00","20,7","2,54","ND","ND","ND","ND"],
    [17425,"06/22/2016 16:00","19,9","1,7","ND","ND","ND","ND"],
    [17426,"06/22/2016 17:00","12,3","1,34","ND","ND","ND","ND"],
    [17427,"06/22/2016 18:00","12,3","1,34","ND","ND","ND","ND"],
    [17428,"06/22/2016 19:00","14,3","1,26","ND","ND","ND","ND"],
    [17429,"06/22/2016 20:00","19,2","1,26","ND","ND","ND","ND"],
    [17430,"06/22/2016 21:00","26,9","1,68","ND","ND","ND","ND"],
    [17431,"06/22/2016 22:00","30,2","1,91","ND","ND","ND","ND"],
    [17432,"06/22/2016 23:00","43,2","1,99","ND","ND","ND","ND"],
    [17433,"06/23/2016 00:00","47,5","2,38","ND","ND","ND","ND"],
    [17434,"06/23/2016 01:00","40,4","2,44","ND","ND","ND","ND"],
    [17435,"06/23/2016 02:00","33,5","2,49","ND","ND","ND","ND"],
    [17436,"06/23/2016 03:00","34,6","2,04","ND","ND","ND","ND"],
    [17437,"06/23/2016 04:00","48,4","2,04","ND","ND","ND","ND"],
    [17438,"06/23/2016 05:00","59,9","1,91","ND","ND","ND","ND"],
    [17439,"06/23/2016 06:00","63,4","2,44","ND","ND","ND","ND"],
    [17440,"06/23/2016 07:00","59,9","2,91","ND","ND","ND","ND"],
    [17441,"06/23/2016 08:00","57","3,54","ND","ND","ND","ND"],
    [17442,"06/23/2016 09:00","49,1","7,81","ND","ND","ND","ND"],
    [17443,"06/23/2016 10:00","56","12,68","ND","ND","ND","ND"],
    [17444,"06/23/2016 11:00","59,3","13,63","ND","ND","ND","ND"],
    [17445,"06/23/2016 12:00","71,2","9,75","ND","ND","ND","ND"],
    [17446,"06/23/2016 13:00","68,8","7,68","ND","ND","ND","ND"],
    [17447,"06/23/2016 14:00","62,6","5,84","ND","ND","ND","ND"],
    [17448,"06/23/2016 15:00","47,3","2,86","ND","ND","ND","ND"],
    [17449,"06/23/2016 16:00","14,6","1,39","ND","ND","ND","ND"],
    [17450,"06/23/2016 17:00","16,3","1,26","ND","ND","ND","ND"],
    [17451,"06/23/2016 18:00","12,6","1,28","ND","ND","ND","ND"],
    [17452,"06/23/2016 19:00","10,9","1,13","ND","ND","ND","ND"],
    [17453,"06/23/2016 20:00","11,9","1,44","ND","ND","ND","ND"],
    [17454,"06/23/2016 21:00","8,7","1,34","ND","ND","ND","ND"],
    [17455,"06/23/2016 22:00","32,3","1,81","ND","ND","ND","ND"],
    [17456,"06/23/2016 23:00","46,5","2,46","ND","ND","ND","ND"],
    [17457,"06/24/2016 00:00","53,1","4,01","ND","ND","ND","ND"],
    [17458,"06/24/2016 01:00","43,8","2,41","ND","ND","ND","ND"],
    [17459,"06/24/2016 02:00","29,6","2,38","ND","ND","ND","ND"],
    [17460,"06/24/2016 03:00","43,7","2,44","ND","ND","ND","ND"],
    [17461,"06/24/2016 04:00","37,2","3,04","ND","ND","ND","ND"],
    [17462,"06/24/2016 05:00","37,3","2,04","ND","ND","ND","ND"],
    [17463,"06/24/2016 06:00","55","2,15","ND","ND","ND","ND"],
    [17464,"06/24/2016 07:00","52,6","2,57","ND","ND","ND","ND"],
    [17465,"06/24/2016 08:00","54,2","2,91","ND","ND","ND","ND"],
    [17466,"06/24/2016 09:00","65","4,77","ND","ND","ND","ND"],
    [17467,"06/24/2016 10:00","50,6","7,81","ND","ND","ND","ND"],
    [17468,"06/24/2016 11:00","44,9","8,86","ND","ND","ND","ND"],
    [17469,"06/24/2016 12:00","47,2","6,13","ND","ND","ND","ND"],
    [17470,"06/24/2016 13:00","58,3","5,42","ND","ND","ND","ND"],
    [17471,"06/24/2016 14:00","39,3","5,11","ND","ND","ND","ND"],
    [17472,"06/24/2016 15:00","11,9","1,7","ND","ND","ND","ND"],
    [17473,"06/24/2016 16:00","15,6","1,41","ND","ND","ND","ND"],
    [17474,"06/24/2016 17:00","4,6","1,26","ND","ND","ND","ND"],
    [17475,"06/24/2016 18:00","10,1","1,15","ND","ND","ND","ND"],
    [17476,"06/24/2016 19:00","5,2","1,15","ND","ND","ND","ND"],
    [17477,"06/24/2016 20:00","5,9","0,97","ND","ND","ND","ND"],
    [17478,"06/24/2016 21:00","18,9","1,86","ND","ND","ND","ND"],
    [17479,"06/24/2016 22:00","44,4","5,48","ND","ND","ND","ND"],
    [17480,"06/24/2016 23:00","17,7","1,97","ND","ND","ND","ND"],
    [17481,"06/25/2016 00:00","21","1,62","ND","ND","ND","ND"],
    [17482,"06/25/2016 01:00","23,4","1,52","ND","ND","ND","ND"],
    [17483,"06/25/2016 02:00","15,9","1,83","ND","ND","ND","ND"],
    [17484,"06/25/2016 03:00","11,9","1,68","ND","ND","ND","ND"],
    [17485,"06/25/2016 04:00","15,4","1,65","ND","ND","ND","ND"],
    [17486,"06/25/2016 05:00","23,7","1,81","ND","ND","ND","ND"],
    [17487,"06/25/2016 06:00","20","1,62","ND","ND","ND","ND"],
    [17488,"06/25/2016 07:00","39,6","1,78","ND","ND","ND","ND"],
    [17489,"06/25/2016 08:00","46,5","2,44","ND","ND","ND","ND"],
    [17490,"06/25/2016 09:00","40,8","2,17","ND","ND","ND","ND"],
    [17491,"06/25/2016 10:00","48,9","2,25","ND","ND","ND","ND"],
    [17492,"06/25/2016 11:00","55,6","2,36","ND","ND","ND","ND"],
    [17493,"06/25/2016 12:00","29,6","2,17","ND","ND","ND","ND"],
    [17494,"06/25/2016 13:00","31","1,94","ND","ND","ND","ND"],
    [17495,"06/25/2016 14:00","36,8","2,02","ND","ND","ND","ND"],
    [17496,"06/25/2016 15:00","23","1,83","ND","ND","ND","ND"],
    [17497,"06/25/2016 16:00","36,8","1,52","ND","ND","ND","ND"],
    [17498,"06/25/2016 17:00","16,2","1,1","ND","ND","ND","ND"],
    [17499,"06/25/2016 18:00","11","1,1","ND","ND","ND","ND"],
    [17500,"06/25/2016 19:00","13,1","1,13","ND","ND","ND","ND"],
    [17501,"06/25/2016 20:00","18,8","1,34","ND","ND","ND","ND"],
    [17502,"06/25/2016 21:00","17,1","1,23","ND","ND","ND","ND"],
    [17503,"06/25/2016 22:00","39,8","1,78","ND","ND","ND","ND"],
    [17504,"06/25/2016 23:00","44,3","1,91","ND","ND","ND","ND"],
    [17505,"06/26/2016 00:00","39,8","1,81","ND","ND","ND","ND"],
    [17506,"06/26/2016 01:00","33,4","1,39","ND","ND","ND","ND"],
    [17507,"06/26/2016 02:00","28,4","1,34","ND","ND","ND","ND"],
    [17508,"06/26/2016 03:00","38,4","1,52","ND","ND","ND","ND"],
    [17509,"06/26/2016 04:00","31,4","1,36","ND","ND","ND","ND"],
    [17510,"06/26/2016 05:00","29,9","1,26","ND","ND","ND","ND"],
    [17511,"06/26/2016 06:00","34,4","1,36","ND","ND","ND","ND"],
    [17512,"06/26/2016 07:00","28,5","1,7","ND","ND","ND","ND"],
    [17513,"06/26/2016 08:00","ND","2,75","ND","ND","ND","ND"],
    [17514,"06/26/2016 09:00","13,1","1,62","ND","ND","ND","ND"],
    [17515,"06/26/2016 10:00","9","1,41","ND","ND","ND","ND"],
    [17516,"06/26/2016 11:00","21,4","2,04","ND","ND","ND","ND"],
    [17517,"06/26/2016 12:00","33","3,01","ND","ND","ND","ND"],
    [17518,"06/26/2016 13:00","30,8","2,96","ND","ND","ND","ND"],
    [17519,"06/26/2016 14:00","26,7","2,57","ND","ND","ND","ND"],
    [17520,"06/26/2016 15:00","33,1","2,31","ND","ND","ND","ND"],
    [17521,"06/26/2016 16:00","35,2","2,12","ND","ND","ND","ND"],
    [17522,"06/26/2016 17:00","43,1","1,7","ND","ND","ND","ND"],
    [17523,"06/26/2016 18:00","61,4","1,89","ND","ND","ND","ND"],
    [17524,"06/26/2016 19:00","39,3","1,62","ND","ND","ND","ND"],
    [17525,"06/26/2016 20:00","13,4","1,41","ND","ND","ND","ND"],
    [17526,"06/26/2016 21:00","24,1","1,49","ND","ND","ND","ND"],
    [17527,"06/26/2016 22:00","18,3","1,39","ND","ND","ND","ND"],
    [17528,"06/26/2016 23:00","43,9","1,89","ND","ND","ND","ND"],
    [17529,"06/27/2016 00:00","23,6","1,23","ND","ND","ND","ND"],
    [17530,"06/27/2016 01:00","25,9","1,34","ND","ND","ND","ND"],
    [17531,"06/27/2016 02:00","20,9","1,26","ND","ND","ND","ND"],
    [17532,"06/27/2016 03:00","31,4","1,15","ND","ND","ND","ND"],
    [17533,"06/27/2016 04:00","33,9","1,18","ND","ND","ND","ND"],
    [17534,"06/27/2016 05:00","31,6","1,34","ND","ND","ND","ND"],
    [17535,"06/27/2016 06:00","31,6","1,44","ND","ND","ND","ND"],
    [17536,"06/27/2016 07:00","87,9","2,12","ND","ND","ND","ND"],
    [17537,"06/27/2016 08:00","85,8","5,14","ND","ND","ND","ND"],
    [17538,"06/27/2016 09:00","96,5","54,84","ND","ND","ND","ND"],
    [17539,"06/27/2016 10:00","84","29,87","ND","ND","ND","ND"],
    [17540,"06/27/2016 11:00","72,8","6,58","ND","ND","ND","ND"],
    [17541,"06/27/2016 12:00","66,1","4,14","ND","ND","ND","ND"],
    [17542,"06/27/2016 13:00","55,3","2,23","ND","ND","ND","ND"],
    [17543,"06/27/2016 14:00","32,8","2,04","ND","ND","ND","ND"],
    [17544,"06/27/2016 15:00","33","1,94","ND","ND","ND","ND"],
    [17545,"06/27/2016 16:00","37,6","2,86","ND","ND","ND","ND"],
    [17546,"06/27/2016 17:00","20,7","5,63","ND","ND","ND","ND"],
    [17547,"06/27/2016 18:00","24,6","6,34","ND","ND","ND","ND"],
    [17548,"06/27/2016 19:00","16,7","5,21","ND","ND","ND","ND"],
    [17549,"06/27/2016 20:00","9,8","3,54","ND","ND","ND","ND"],
    [17550,"06/27/2016 21:00","17","5,16","ND","ND","ND","ND"],
    [17551,"06/27/2016 22:00","62,6","8,86","ND","ND","ND","ND"],
    [17552,"06/27/2016 23:00","51,2","9,09","ND","ND","ND","ND"],
    [17553,"06/28/2016 00:00","45,5","7,21","ND","ND","ND","ND"],
    [17554,"06/28/2016 01:00","28,1","6,05","ND","ND","ND","ND"],
    [17555,"06/28/2016 02:00","25,2","4,77","ND","ND","ND","ND"],
    [17556,"06/28/2016 03:00","44,2","7,78","ND","ND","ND","ND"],
    [17557,"06/28/2016 04:00","28,1","5,69","ND","ND","ND","ND"],
    [17558,"06/28/2016 05:00","31,3","5,24","ND","ND","ND","ND"],
    [17559,"06/28/2016 06:00","56","8,15","ND","ND","ND","ND"],
    [17560,"06/28/2016 07:00","62,1","28,51","ND","ND","ND","ND"],
    [17561,"06/28/2016 08:00","91,4","21,17","ND","ND","ND","ND"],
    [17562,"06/28/2016 09:00","54,8","15,98","ND","ND","ND","ND"],
    [17563,"06/28/2016 10:00","76,3","14,96","ND","ND","ND","ND"],
    [17564,"06/28/2016 11:00","75","17,14","ND","ND","ND","ND"],
    [17565,"06/28/2016 12:00","59,9","13,57","ND","ND","ND","ND"],
    [17566,"06/28/2016 13:00","48,7","12,76","ND","ND","ND","ND"],
    [17567,"06/28/2016 14:00","56,6","11,9","ND","ND","ND","ND"],
    [17568,"06/28/2016 15:00","57,2","12,18","ND","ND","ND","ND"],
    [17569,"06/28/2016 16:00","46,1","7,42","ND","ND","ND","ND"],
    [17570,"06/28/2016 17:00","20,1","6,52","ND","ND","ND","ND"],
    [17571,"06/28/2016 18:00","19,6","7,44","ND","ND","ND","ND"],
    [17572,"06/28/2016 19:00","14,6","6,11","ND","ND","ND","ND"],
    [17573,"06/28/2016 20:00","5,9","3,48","ND","ND","ND","ND"],
    [17574,"06/28/2016 21:00","21,9","7,31","ND","ND","ND","ND"],
    [17575,"06/28/2016 22:00","49,1","11,63","ND","ND","ND","ND"],
    [17576,"06/28/2016 23:00","44,1","12,29","ND","ND","ND","ND"],
    [17577,"06/29/2016 00:00","36,6","6,71","ND","ND","ND","ND"],
    [17578,"06/29/2016 01:00","33,2","6,47","ND","ND","ND","ND"],
    [17579,"06/29/2016 02:00","33,5","5,63","ND","ND","ND","ND"],
    [17580,"06/29/2016 03:00","25,5","4,24","ND","ND","ND","ND"],
    [17581,"06/29/2016 04:00","14,9","3,77","ND","ND","ND","ND"],
    [17582,"06/29/2016 05:00","25,4","3,59","ND","ND","ND","ND"],
    [17583,"06/29/2016 06:00","34,2","5,37","ND","ND","ND","ND"],
    [17584,"06/29/2016 07:00","39,4","9,9","ND","ND","ND","ND"],
    [17585,"06/29/2016 08:00","83,3","20,62","ND","ND","ND","ND"],
    [17586,"06/29/2016 09:00","63,1","13,99","ND","ND","ND","ND"],
    [17587,"06/29/2016 10:00","55,2","14,57","ND","ND","ND","ND"],
    [17588,"06/29/2016 11:00","58","13,1","ND","ND","ND","ND"],
    [17589,"06/29/2016 12:00","51,6","14,44","ND","ND","ND","ND"],
    [17590,"06/29/2016 13:00","50,3","13,76","ND","ND","ND","ND"],
    [17591,"06/29/2016 14:00","59,4","12,05","ND","ND","ND","ND"],
    [17592,"06/29/2016 15:00","53,7","10,17","ND","ND","ND","ND"],
    [17593,"06/29/2016 16:00","19,7","7,99","ND","ND","ND","ND"],
    [17594,"06/29/2016 17:00","21,5","7,99","ND","ND","ND","ND"],
    [17595,"06/29/2016 18:00","24,3","7,34","ND","ND","ND","ND"],
    [17596,"06/29/2016 19:00","13,4","5,32","ND","ND","ND","ND"],
    [17597,"06/29/2016 20:00","24,4","8,04","ND","ND","ND","ND"],
    [17598,"06/29/2016 21:00","33,4","10,14","ND","ND","ND","ND"],
    [17599,"06/29/2016 22:00","48,7","10,22","ND","ND","ND","ND"],
    [17600,"06/29/2016 23:00","46,6","9,8","ND","ND","ND","ND"],
    [17601,"06/30/2016 00:00","26,7","5,37","ND","ND","ND","ND"],
    [17602,"06/30/2016 01:00","29,2","4,38","ND","ND","ND","ND"],
    [17603,"06/30/2016 02:00","31,8","5,55","ND","ND","ND","ND"],
    [17604,"06/30/2016 03:00","37,7","4,3","ND","ND","ND","ND"],
    [17605,"06/30/2016 04:00","31,4","2,96","ND","ND","ND","ND"],
    [17606,"06/30/2016 05:00","36","4,53","ND","ND","ND","ND"],
    [17607,"06/30/2016 06:00","43,8","4,53","ND","ND","ND","ND"],
    [17608,"06/30/2016 07:00","70","11,71","ND","ND","ND","ND"],
    [17609,"06/30/2016 08:00","62","11,21","ND","ND","ND","ND"],
    [17610,"06/30/2016 09:00","54,3","9,14","ND","ND","ND","ND"],
    [17611,"06/30/2016 10:00","45,5","7,73","ND","ND","ND","ND"],
    [17612,"06/30/2016 11:00","58,3","10,04","ND","ND","ND","ND"],
    [17613,"06/30/2016 12:00","52","11,63","ND","ND","ND","ND"],
    [17614,"06/30/2016 13:00","45,7","10,06","ND","ND","ND","ND"],
    [17615,"06/30/2016 14:00","49,8","9,25","ND","ND","ND","ND"],
    [17616,"06/30/2016 15:00","28,9","9,07","ND","ND","ND","ND"],
    [17617,"06/30/2016 16:00","21,6","6,66","ND","ND","ND","ND"],
    [17618,"06/30/2016 17:00","17,2","5,03","ND","ND","ND","ND"],
    [17619,"06/30/2016 18:00","10,6","6","ND","ND","ND","ND"],
    [17620,"06/30/2016 19:00","9,5","6,87","ND","ND","ND","ND"],
    [17621,"06/30/2016 20:00","13,6","5,4","ND","ND","ND","ND"],
    [17622,"06/30/2016 21:00","52,1","6,97","ND","ND","ND","ND"],
    [17623,"06/30/2016 22:00","45,6","6,39","ND","ND","ND","ND"],
    [17624,"06/30/2016 23:00","37,8","5,55","ND","ND","ND","ND"],
    [17625,"42376","34,9","7,83","ND","ND","ND","ND"],
    [17626,"42376,04167","24,3","ND","ND","ND","ND","ND"],
    [17627,"42376,08333","20,9","ND","ND","ND","ND","ND"],
    [17628,"42376,125","22,8","ND","ND","ND","ND","ND"],
    [17629,"42376,16667","19,9","ND","ND","ND","ND","ND"],
    [17630,"42376,20833","21,8","ND","ND","ND","ND","ND"],
    [17631,"42376,25","35","ND","ND","ND","ND","ND"],
    [17632,"42376,29167","46,3","ND","ND","ND","ND","ND"],
    [17633,"42376,33333","52,8","ND","ND","ND","ND","ND"],
    [17634,"42376,375","58","ND","ND","ND","ND","ND"],
    [17635,"42376,41667","49,6","ND","ND","ND","ND","ND"],
    [17636,"42376,45833","37,1","ND","ND","ND","ND","ND"],
    [17637,"42376,5","40,5","ND","ND","ND","ND","ND"],
    [17638,"42376,54167","56,6","ND","ND","ND","ND","ND"],
    [17639,"42376,58333","60,4","ND","ND","ND","ND","ND"],
    [17640,"42376,625","10,3","ND","ND","ND","ND","ND"],
    [17641,"42376,66667","1","ND","ND","ND","ND","ND"],
    [17642,"42376,70833","14","ND","ND","ND","ND","ND"],
    [17643,"42376,75","15","ND","ND","ND","ND","ND"],
    [17644,"42376,79167","9,4","ND","ND","ND","ND","ND"],
    [17645,"42376,83333","8,2","ND","ND","ND","ND","ND"],
    [17646,"42376,875","20","ND","ND","ND","ND","ND"],
    [17647,"42376,91667","50,3","ND","ND","ND","ND","ND"],
    [17648,"42376,95833","45,4","ND","ND","ND","ND","ND"],
    [17649,"42407","32,8","ND","ND","ND","ND","ND"],
    [17650,"42407,04167","26,1","ND","ND","ND","ND","ND"],
    [17651,"42407,08333","19,8","ND","ND","ND","ND","ND"],
    [17652,"42407,125","19,5","ND","ND","ND","ND","ND"],
    [17653,"42407,16667","12,9","ND","ND","ND","ND","ND"],
    [17654,"42407,20833","28,7","ND","ND","ND","ND","ND"],
    [17655,"42407,25","27,9","ND","ND","ND","ND","ND"],
    [17656,"42407,29167","35,6","ND","ND","ND","ND","ND"],
    [17657,"42407,33333","37,7","ND","ND","ND","ND","ND"],
    [17658,"42407,375","47","ND","ND","ND","ND","ND"],
    [17659,"42407,41667","58,5","ND","ND","ND","ND","ND"],
    [17660,"42407,45833","70,2","ND","ND","ND","ND","ND"],
    [17661,"42407,5","61,2","ND","ND","ND","ND","ND"],
    [17662,"42407,54167","45,2","ND","ND","ND","ND","ND"],
    [17663,"42407,58333","32","ND","ND","ND","ND","ND"],
    [17664,"42407,625","6","ND","ND","ND","ND","ND"],
    [17665,"42407,66667","17,9","ND","ND","ND","ND","ND"],
    [17666,"42407,70833","3,9","ND","ND","ND","ND","ND"],
    [17667,"42407,75","9,2","ND","ND","ND","ND","ND"],
    [17668,"42407,79167","10,1","ND","ND","ND","ND","ND"],
    [17669,"42407,83333","8,3","ND","ND","ND","ND","ND"],
    [17670,"42407,875","7,8","ND","ND","ND","ND","ND"],
    [17671,"42407,91667","41,9","ND","ND","ND","ND","ND"],
    [17672,"42407,95833","32,7","ND","ND","ND","ND","ND"],
    [17673,"42436","24,1","ND","ND","ND","ND","ND"],
    [17674,"42436,04167","24,8","ND","ND","ND","ND","ND"],
    [17675,"42436,08333","26,9","ND","ND","ND","ND","ND"],
    [17676,"42436,125","12,4","ND","ND","ND","ND","ND"],
    [17677,"42436,16667","28,9","ND","ND","ND","ND","ND"],
    [17678,"42436,20833","32,6","ND","ND","ND","ND","ND"],
    [17679,"42436,25","17,6","ND","ND","ND","ND","ND"],
    [17680,"42436,29167","15,3","ND","ND","ND","ND","ND"],
    [17681,"42436,33333","18,1","ND","ND","ND","ND","ND"],
    [17682,"42436,375","9,6","ND","ND","ND","ND","ND"],
    [17683,"42436,41667","19,5","ND","ND","ND","ND","ND"],
    [17684,"42436,45833","17,1","ND","ND","ND","ND","ND"],
    [17685,"42436,5","24,3","ND","ND","ND","ND","ND"],
    [17686,"42436,54167","30,5","ND","ND","ND","ND","ND"],
    [17687,"42436,58333","39,9","ND","ND","ND","ND","ND"],
    [17688,"42436,625","35,1","ND","ND","ND","ND","ND"],
    [17689,"42436,66667","7,1","ND","ND","ND","ND","ND"],
    [17690,"42436,70833","8,6","ND","ND","ND","ND","ND"],
    [17691,"42436,75","5,8","ND","ND","ND","ND","ND"],
    [17692,"42436,79167","2,1","ND","ND","ND","ND","ND"],
    [17693,"42436,83333","7,9","ND","ND","ND","ND","ND"],
    [17694,"42436,875","33,9","ND","ND","ND","ND","ND"],
    [17695,"42436,91667","49,4","ND","ND","ND","ND","ND"],
    [17696,"42436,95833","34,8","ND","ND","ND","ND","ND"],
    [17697,"42467","28,3","ND","ND","ND","ND","ND"],
    [17698,"42467,04167","27,2","ND","ND","ND","ND","ND"],
    [17699,"42467,08333","22,7","ND","ND","ND","ND","ND"],
    [17700,"42467,125","18,9","ND","ND","ND","ND","ND"],
    [17701,"42467,16667","24,8","ND","ND","ND","ND","ND"],
    [17702,"42467,20833","28,4","ND","ND","ND","ND","ND"],
    [17703,"42467,25","39,4","ND","ND","ND","ND","ND"],
    [17704,"42467,29167","23,9","ND","ND","ND","ND","ND"],
    [17705,"42467,33333","23,2","ND","ND","ND","ND","ND"],
    [17706,"42467,375","31,1","ND","ND","ND","ND","ND"],
    [17707,"42467,41667","13,7","ND","ND","ND","ND","ND"],
    [17708,"42467,45833","22,2","ND","ND","ND","ND","ND"],
    [17709,"42467,5","19,4","ND","ND","ND","ND","ND"],
    [17710,"42467,54167","27,2","ND","ND","ND","ND","ND"],
    [17711,"42467,58333","19,6","ND","ND","ND","ND","ND"],
    [17712,"42467,625","35,6","ND","ND","ND","ND","ND"],
    [17713,"42467,66667","40,9","ND","ND","ND","ND","ND"],
    [17714,"42467,70833","11","ND","ND","ND","ND","ND"],
    [17715,"42467,75","8,8","ND","ND","ND","ND","ND"],
    [17716,"42467,79167","17,3","ND","ND","ND","ND","ND"],
    [17717,"42467,83333","41,3","ND","ND","ND","ND","ND"],
    [17718,"42467,875","43,7","ND","ND","ND","ND","ND"],
    [17719,"42467,91667","33,6","ND","ND","ND","ND","ND"],
    [17720,"42467,95833","27,6","ND","ND","ND","ND","ND"],
    [17721,"42497","31","ND","ND","ND","ND","ND"],
    [17722,"42497,04167","21,5","ND","ND","ND","ND","ND"],
    [17723,"42497,08333","21,9","ND","ND","ND","ND","ND"],
    [17724,"42497,125","19,6","ND","ND","ND","ND","ND"],
    [17725,"42497,16667","26,4","ND","ND","ND","ND","ND"],
    [17726,"42497,20833","44,7","ND","ND","ND","ND","ND"],
    [17727,"42497,25","44,7","ND","ND","ND","ND","ND"],
    [17728,"42497,29167","44,4","ND","ND","ND","ND","ND"],
    [17729,"42497,33333","63,3","ND","ND","ND","ND","ND"],
    [17730,"42497,375","42,2","ND","ND","ND","ND","ND"],
    [17731,"42497,41667","34,5","ND","ND","ND","ND","ND"],
    [17732,"42497,45833","ND","ND","ND","ND","ND","ND"],
    [17733,"42497,5","ND","ND","ND","ND","ND","ND"],
    [17734,"42497,54167","ND","ND","ND","ND","ND","ND"],
    [17735,"42497,58333","ND","ND","ND","ND","ND","ND"],
    [17736,"42497,625","30,1","ND","ND","ND","ND","ND"],
    [17737,"42497,66667","7,7","ND","ND","ND","ND","ND"],
    [17738,"42497,70833","7,6","ND","ND","ND","ND","ND"],
    [17739,"42497,75","9,2","ND","ND","ND","ND","ND"],
    [17740,"42497,79167","3,7","ND","ND","ND","ND","ND"],
    [17741,"42497,83333","30,8","ND","ND","ND","ND","ND"],
    [17742,"42497,875","81,9","ND","ND","ND","ND","ND"],
    [17743,"42497,91667","74,6","ND","ND","ND","ND","ND"],
    [17744,"42497,95833","ND","ND","ND","ND","ND","ND"],
    [17745,"42528","ND","ND","ND","ND","ND","ND"],
    [17746,"42528,04167","ND","ND","ND","ND","ND","ND"],
    [17747,"42528,08333","ND","ND","ND","ND","ND","ND"],
    [17748,"42528,125","ND","ND","ND","ND","ND","ND"],
    [17749,"42528,16667","ND","ND","ND","ND","ND","ND"],
    [17750,"42528,20833","ND","ND","ND","ND","ND","ND"],
    [17751,"42528,25","ND","ND","ND","ND","ND","ND"],
    [17752,"42528,29167","ND","ND","ND","ND","ND","ND"],
    [17753,"42528,33333","ND","ND","ND","ND","ND","ND"],
    [17754,"42528,375","ND","ND","ND","ND","ND","ND"],
    [17755,"42528,41667","ND","ND","ND","ND","ND","ND"],
    [17756,"42528,45833","ND","ND","ND","ND","ND","ND"],
    [17757,"42528,5","ND","ND","ND","ND","ND","ND"],
    [17758,"42528,54167","ND","ND","ND","ND","ND","ND"],
    [17759,"42528,58333","ND","ND","ND","ND","ND","ND"],
    [17760,"42528,625","ND","ND","ND","ND","ND","ND"],
    [17761,"42528,66667","ND","ND","ND","ND","ND","ND"],
    [17762,"42528,70833","ND","ND","ND","ND","ND","ND"],
    [17763,"42528,75","ND","ND","ND","ND","ND","ND"],
    [17764,"42528,79167","ND","ND","ND","ND","ND","ND"],
    [17765,"42528,83333","ND","ND","ND","ND","ND","ND"],
    [17766,"42528,875","ND","ND","ND","ND","ND","ND"],
    [17767,"42528,91667","ND","ND","ND","ND","ND","ND"],
    [17768,"42528,95833","ND","ND","ND","ND","ND","ND"],
    [17769,"42558","ND","ND","ND","ND","ND","ND"],
    [17770,"42558,04167","ND","ND","ND","ND","ND","ND"],
    [17771,"42558,08333","ND","ND","ND","ND","ND","ND"],
    [17772,"42558,125","ND","ND","ND","ND","ND","ND"],
    [17773,"42558,16667","ND","ND","ND","ND","ND","ND"],
    [17774,"42558,20833","ND","ND","ND","ND","ND","ND"],
    [17775,"42558,25","ND","ND","ND","ND","ND","ND"],
    [17776,"42558,29167","ND","ND","ND","ND","ND","ND"],
    [17777,"42558,33333","ND","ND","ND","ND","ND","ND"],
    [17778,"42558,375","ND","ND","ND","ND","ND","ND"],
    [17779,"42558,41667","ND","ND","ND","ND","ND","ND"],
    [17780,"42558,45833","ND","ND","ND","ND","ND","ND"],
    [17781,"42558,5","ND","ND","ND","ND","ND","ND"],
    [17782,"42558,54167","ND","ND","ND","ND","ND","ND"],
    [17783,"42558,58333","ND","ND","ND","ND","ND","ND"],
    [17784,"42558,625","ND","ND","ND","ND","ND","ND"],
    [17785,"42558,66667","ND","ND","ND","ND","ND","ND"],
    [17786,"42558,70833","ND","ND","ND","ND","ND","ND"],
    [17787,"42558,75","ND","ND","ND","ND","ND","ND"],
    [17788,"42558,79167","ND","ND","ND","ND","ND","ND"],
    [17789,"42558,83333","ND","ND","ND","ND","ND","ND"],
    [17790,"42558,875","ND","ND","ND","ND","ND","ND"],
    [17791,"42558,91667","ND","ND","ND","ND","ND","ND"],
    [17792,"42558,95833","ND","ND","ND","ND","ND","ND"],
    [17793,"42589","ND","ND","ND","ND","ND","ND"],
    [17794,"42589,04167","ND","ND","ND","ND","ND","ND"],
    [17795,"42589,08333","ND","ND","ND","ND","ND","ND"],
    [17796,"42589,125","ND","ND","ND","ND","ND","ND"],
    [17797,"42589,16667","ND","ND","ND","ND","ND","ND"],
    [17798,"42589,20833","ND","ND","ND","ND","ND","ND"],
    [17799,"42589,25","ND","ND","ND","ND","ND","ND"],
    [17800,"42589,29167","ND","ND","ND","ND","ND","ND"],
    [17801,"42589,33333","ND","ND","ND","ND","ND","ND"],
    [17802,"42589,375","ND","ND","ND","ND","ND","ND"],
    [17803,"42589,41667","ND","ND","ND","ND","ND","ND"],
    [17804,"42589,45833","ND","ND","ND","ND","ND","ND"],
    [17805,"42589,5","ND","ND","ND","ND","ND","ND"],
    [17806,"42589,54167","ND","ND","ND","ND","ND","ND"],
    [17807,"42589,58333","ND","ND","ND","ND","ND","ND"],
    [17808,"42589,625","ND","ND","ND","ND","ND","ND"],
    [17809,"42589,66667","ND","ND","ND","ND","ND","ND"],
    [17810,"42589,70833","ND","ND","ND","ND","ND","ND"],
    [17811,"42589,75","ND","ND","ND","ND","ND","ND"],
    [17812,"42589,79167","ND","ND","ND","ND","ND","ND"],
    [17813,"42589,83333","ND","ND","ND","ND","ND","ND"],
    [17814,"42589,875","ND","ND","ND","ND","ND","ND"],
    [17815,"42589,91667","ND","ND","ND","ND","ND","ND"],
    [17816,"42589,95833","ND","ND","ND","ND","ND","ND"],
    [17817,"42620","ND","ND","ND","ND","ND","ND"],
    [17818,"42620,04167","ND","ND","ND","ND","ND","ND"],
    [17819,"42620,08333","ND","ND","ND","ND","ND","ND"],
    [17820,"42620,125","ND","ND","ND","ND","ND","ND"],
    [17821,"42620,16667","ND","ND","ND","ND","ND","ND"],
    [17822,"42620,20833","ND","ND","ND","ND","ND","ND"],
    [17823,"42620,25","ND","ND","ND","ND","ND","ND"],
    [17824,"42620,29167","ND","ND","ND","ND","ND","ND"],
    [17825,"42620,33333","ND","ND","ND","ND","ND","ND"],
    [17826,"42620,375","ND","ND","ND","ND","ND","ND"],
    [17827,"42620,41667","ND","ND","ND","ND","ND","ND"],
    [17828,"42620,45833","ND","ND","ND","ND","ND","ND"],
    [17829,"42620,5","ND","ND","ND","ND","ND","ND"],
    [17830,"42620,54167","ND","ND","ND","ND","ND","ND"],
    [17831,"42620,58333","ND","ND","ND","ND","ND","ND"],
    [17832,"42620,625","ND","ND","ND","ND","ND","ND"],
    [17833,"42620,66667","ND","ND","ND","ND","ND","ND"],
    [17834,"42620,70833","ND","ND","ND","ND","ND","ND"],
    [17835,"42620,75","ND","ND","ND","ND","ND","ND"],
    [17836,"42620,79167","ND","ND","ND","ND","ND","ND"],
    [17837,"42620,83333","ND","ND","ND","ND","ND","ND"],
    [17838,"42620,875","ND","ND","ND","ND","ND","ND"],
    [17839,"42620,91667","ND","ND","ND","ND","ND","ND"],
    [17840,"42620,95833","ND","ND","ND","ND","ND","ND"],
    [17841,"42650","ND","ND","ND","ND","ND","ND"],
    [17842,"42650,04167","ND","ND","ND","ND","ND","ND"],
    [17843,"42650,08333","ND","ND","ND","ND","ND","ND"],
    [17844,"42650,125","ND","ND","ND","ND","ND","ND"],
    [17845,"42650,16667","ND","ND","ND","ND","ND","ND"],
    [17846,"42650,20833","ND","ND","ND","ND","ND","ND"],
    [17847,"42650,25","ND","ND","ND","ND","ND","ND"],
    [17848,"42650,29167","ND","ND","ND","ND","ND","ND"],
    [17849,"42650,33333","ND","ND","ND","ND","ND","ND"],
    [17850,"42650,375","ND","ND","ND","ND","ND","ND"],
    [17851,"42650,41667","ND","ND","ND","ND","ND","ND"],
    [17852,"42650,45833","ND","ND","ND","ND","ND","ND"],
    [17853,"42650,5","ND","ND","ND","ND","ND","ND"],
    [17854,"42650,54167","ND","ND","ND","ND","ND","ND"],
    [17855,"42650,58333","ND","ND","ND","ND","ND","ND"],
    [17856,"42650,625","ND","ND","ND","ND","ND","ND"],
    [17857,"42650,66667","ND","ND","ND","ND","ND","ND"],
    [17858,"42650,70833","ND","ND","ND","ND","ND","ND"],
    [17859,"42650,75","ND","ND","ND","ND","ND","ND"],
    [17860,"42650,79167","ND","ND","ND","ND","ND","ND"],
    [17861,"42650,83333","ND","ND","ND","ND","ND","ND"],
    [17862,"42650,875","ND","ND","ND","ND","ND","ND"],
    [17863,"42650,91667","ND","ND","ND","ND","ND","ND"],
    [17864,"42650,95833","ND","ND","ND","ND","ND","ND"],
    [17865,"42681","ND","ND","ND","ND","ND","ND"],
    [17866,"42681,04167","ND","ND","ND","ND","ND","ND"],
    [17867,"42681,08333","ND","ND","ND","ND","ND","ND"],
    [17868,"42681,125","ND","ND","ND","ND","ND","ND"],
    [17869,"42681,16667","ND","ND","ND","ND","ND","ND"],
    [17870,"42681,20833","ND","ND","ND","ND","ND","ND"],
    [17871,"42681,25","ND","ND","ND","ND","ND","ND"],
    [17872,"42681,29167","ND","ND","ND","ND","ND","ND"],
    [17873,"42681,33333","ND","ND","ND","ND","ND","ND"],
    [17874,"42681,375","ND","ND","ND","ND","ND","ND"],
    [17875,"42681,41667","ND","ND","ND","ND","ND","ND"],
    [17876,"42681,45833","ND","ND","ND","ND","ND","ND"],
    [17877,"42681,5","ND","ND","ND","ND","ND","ND"],
    [17878,"42681,54167","ND","ND","ND","ND","ND","ND"],
    [17879,"42681,58333","ND","ND","ND","ND","ND","ND"],
    [17880,"42681,625","ND","ND","ND","ND","ND","ND"],
    [17881,"42681,66667","ND","ND","ND","ND","ND","ND"],
    [17882,"42681,70833","ND","ND","ND","ND","ND","ND"],
    [17883,"42681,75","ND","ND","ND","ND","ND","ND"],
    [17884,"42681,79167","ND","ND","ND","ND","ND","ND"],
    [17885,"42681,83333","ND","ND","ND","ND","ND","ND"],
    [17886,"42681,875","ND","ND","ND","ND","ND","ND"],
    [17887,"42681,91667","ND","ND","ND","ND","ND","ND"],
    [17888,"42681,95833","ND","ND","ND","ND","ND","ND"],
    [17889,"42711","ND","ND","ND","ND","ND","ND"],
    [17890,"42711,04167","ND","ND","ND","ND","ND","ND"],
    [17891,"42711,08333","ND","ND","ND","ND","ND","ND"],
    [17892,"42711,125","ND","ND","ND","ND","ND","ND"],
    [17893,"42711,16667","ND","ND","ND","ND","ND","ND"],
    [17894,"42711,20833","ND","ND","ND","ND","ND","ND"],
    [17895,"42711,25","ND","ND","ND","ND","ND","ND"],
    [17896,"42711,29167","ND","ND","ND","ND","ND","ND"],
    [17897,"42711,33333","ND","ND","ND","ND","ND","ND"],
    [17898,"42711,375","ND","ND","ND","ND","ND","ND"],
    [17899,"42711,41667","ND","ND","ND","ND","ND","ND"],
    [17900,"42711,45833","ND","ND","ND","ND","ND","ND"],
    [17901,"42711,5","ND","ND","ND","ND","ND","ND"],
    [17902,"42711,54167","ND","ND","ND","ND","ND","ND"],
    [17903,"42711,58333","ND","ND","ND","ND","ND","ND"],
    [17904,"42711,625","ND","ND","ND","ND","ND","ND"],
    [17905,"42711,66667","ND","ND","ND","ND","ND","ND"],
    [17906,"42711,70833","ND","1,41","ND","ND","ND","ND"],
    [17907,"42711,75","ND","1,31","ND","ND","ND","ND"],
    [17908,"42711,79167","ND","1,26","ND","ND","ND","ND"],
    [17909,"42711,83333","ND","1,13","ND","ND","ND","ND"],
    [17910,"42711,875","ND","1,31","ND","ND","ND","ND"],
    [17911,"42711,91667","ND","2,46","ND","ND","ND","ND"],
    [17912,"42711,95833","ND","2,86","ND","ND","ND","ND"],
    [17913,"07/13/2016 00:00","ND","2,57","ND","ND","ND","ND"],
    [17914,"07/13/2016 01:00","ND","1,86","ND","ND","ND","ND"],
    [17915,"07/13/2016 02:00","ND","1,65","ND","ND","ND","ND"],
    [17916,"07/13/2016 03:00","ND","1,52","ND","ND","ND","ND"],
    [17917,"07/13/2016 04:00","ND","1,7","ND","ND","ND","ND"],
    [17918,"07/13/2016 05:00","ND","1,65","ND","ND","ND","ND"],
    [17919,"07/13/2016 06:00","ND","2,23","ND","ND","ND","ND"],
    [17920,"07/13/2016 07:00","ND","3,54","ND","ND","ND","ND"],
    [17921,"07/13/2016 08:00","ND","5,45","ND","ND","ND","ND"],
    [17922,"07/13/2016 09:00","ND","6,58","ND","ND","ND","ND"],
    [17923,"07/13/2016 10:00","ND","4,74","ND","ND","ND","ND"],
    [17924,"07/13/2016 11:00","ND","4,06","ND","ND","ND","ND"],
    [17925,"07/13/2016 12:00","ND","4,45","ND","ND","ND","ND"],
    [17926,"07/13/2016 13:00","ND","6,16","ND","ND","ND","ND"],
    [17927,"07/13/2016 14:00","ND","7,13","ND","ND","ND","ND"],
    [17928,"07/13/2016 15:00","ND","1,44","ND","ND","ND","ND"],
    [17929,"07/13/2016 16:00","ND","1,31","ND","ND","ND","ND"],
    [17930,"07/13/2016 17:00","ND","1,13","ND","ND","ND","ND"],
    [17931,"07/13/2016 18:00","ND","1,21","ND","ND","ND","ND"],
    [17932,"07/13/2016 19:00","ND","1,18","ND","ND","ND","ND"],
    [17933,"07/13/2016 20:00","ND","1,6","ND","ND","ND","ND"],
    [17934,"07/13/2016 21:00","ND","2,33","ND","ND","ND","ND"],
    [17935,"07/13/2016 22:00","ND","1,91","ND","ND","ND","ND"],
    [17936,"07/13/2016 23:00","ND","1,94","ND","ND","ND","ND"],
    [17937,"07/14/2016 00:00","ND","2,44","ND","ND","ND","ND"],
    [17938,"07/14/2016 01:00","ND","2,41","ND","ND","ND","ND"],
    [17939,"07/14/2016 02:00","ND","1,86","ND","ND","ND","ND"],
    [17940,"07/14/2016 03:00","ND","2,25","ND","ND","ND","ND"],
    [17941,"07/14/2016 04:00","ND","1,73","ND","ND","ND","ND"],
    [17942,"07/14/2016 05:00","ND","1,68","ND","ND","ND","ND"],
    [17943,"07/14/2016 06:00","ND","1,86","ND","ND","ND","ND"],
    [17944,"07/14/2016 07:00","ND","2,07","ND","ND","ND","ND"],
    [17945,"07/14/2016 08:00","ND","2,33","ND","ND","ND","ND"],
    [17946,"07/14/2016 09:00","ND","4,04","ND","ND","ND","ND"],
    [17947,"07/14/2016 10:00","ND","8,28","ND","ND","ND","ND"],
    [17948,"07/14/2016 11:00","ND","11,29","ND","ND","ND","ND"],
    [17949,"07/14/2016 12:00","ND","8,23","ND","ND","ND","ND"],
    [17950,"07/14/2016 13:00","ND","6,52","ND","ND","ND","ND"],
    [17951,"07/14/2016 14:00","ND","5,53","ND","ND","ND","ND"],
    [17952,"07/14/2016 15:00","ND","5,87","ND","ND","ND","ND"],
    [17953,"07/14/2016 16:00","ND","1,52","ND","ND","ND","ND"],
    [17954,"07/14/2016 17:00","ND","1,47","ND","ND","ND","ND"],
    [17955,"07/14/2016 18:00","ND","1,36","ND","ND","ND","ND"],
    [17956,"07/14/2016 19:00","ND","1,36","ND","ND","ND","ND"],
    [17957,"07/14/2016 20:00","ND","2,73","ND","ND","ND","ND"],
    [17958,"07/14/2016 21:00","ND","2,44","ND","ND","ND","ND"],
    [17959,"07/14/2016 22:00","ND","1,78","ND","ND","ND","ND"],
    [17960,"07/14/2016 23:00","ND","2,02","ND","ND","ND","ND"],
    [17961,"07/15/2016 00:00","ND","1,89","ND","ND","ND","ND"],
    [17962,"07/15/2016 01:00","ND","1,94","ND","ND","ND","ND"],
    [17963,"07/15/2016 02:00","ND","2,7","ND","ND","ND","ND"],
    [17964,"07/15/2016 03:00","ND","2,2","ND","ND","ND","ND"],
    [17965,"07/15/2016 04:00","ND","4,61","ND","ND","ND","ND"],
    [17966,"07/15/2016 05:00","ND","2,59","ND","ND","ND","ND"],
    [17967,"07/15/2016 06:00","ND","2,17","ND","ND","ND","ND"],
    [17968,"07/15/2016 07:00","ND","2,17","ND","ND","ND","ND"],
    [17969,"07/15/2016 08:00","ND","3,07","ND","ND","ND","ND"],
    [17970,"07/15/2016 09:00","ND","4,04","ND","ND","ND","ND"],
    [17971,"07/15/2016 10:00","ND","4,64","ND","ND","ND","ND"],
    [17972,"07/15/2016 11:00","ND","3,85","ND","ND","ND","ND"],
    [17973,"07/15/2016 12:00","ND","2,59","ND","ND","ND","ND"],
    [17974,"07/15/2016 13:00","ND","6,03","ND","ND","ND","ND"],
    [17975,"07/15/2016 14:00","ND","4,51","ND","ND","ND","ND"],
    [17976,"07/15/2016 15:00","ND","2,25","ND","ND","ND","ND"],
    [17977,"07/15/2016 16:00","ND","1,39","ND","ND","ND","ND"],
    [17978,"07/15/2016 17:00","ND","1,15","ND","ND","ND","ND"],
    [17979,"07/15/2016 18:00","ND","1,21","ND","ND","ND","ND"],
    [17980,"07/15/2016 19:00","ND","1,23","ND","ND","ND","ND"],
    [17981,"07/15/2016 20:00","ND","1,23","ND","ND","ND","ND"],
    [17982,"07/15/2016 21:00","ND","1,31","ND","ND","ND","ND"],
    [17983,"07/15/2016 22:00","ND","2,91","ND","ND","ND","ND"],
    [17984,"07/15/2016 23:00","ND","3,48","ND","ND","ND","ND"],
    [17985,"07/16/2016 00:00","ND","2,54","ND","ND","ND","ND"],
    [17986,"07/16/2016 01:00","ND","2,96","ND","ND","ND","ND"],
    [17987,"07/16/2016 02:00","ND","1,62","ND","ND","ND","ND"],
    [17988,"07/16/2016 03:00","ND","1,28","ND","ND","ND","ND"],
    [17989,"07/16/2016 04:00","ND","1,26","ND","ND","ND","ND"],
    [17990,"07/16/2016 05:00","ND","1,39","ND","ND","ND","ND"],
    [17991,"07/16/2016 06:00","ND","1,78","ND","ND","ND","ND"],
    [17992,"07/16/2016 07:00","ND","2,36","ND","ND","ND","ND"],
    [17993,"07/16/2016 08:00","ND","9,46","ND","ND","ND","ND"],
    [17994,"07/16/2016 09:00","ND","16,9","ND","ND","ND","ND"],
    [17995,"07/16/2016 10:00","ND","4,61","ND","ND","ND","ND"],
    [17996,"07/16/2016 11:00","ND","4,38","ND","ND","ND","ND"],
    [17997,"07/16/2016 12:00","ND","3,72","ND","ND","ND","ND"],
    [17998,"07/16/2016 13:00","ND","3,28","ND","ND","ND","ND"],
    [17999,"07/16/2016 14:00","ND","6,08","ND","ND","ND","ND"],
    [18000,"07/16/2016 15:00","ND","5,66","ND","ND","ND","ND"],
    [18001,"07/16/2016 16:00","ND","3,41","ND","ND","ND","ND"],
    [18002,"07/16/2016 17:00","ND","3,04","ND","ND","ND","ND"],
    [18003,"07/16/2016 18:00","ND","2,83","ND","ND","ND","ND"],
    [18004,"07/16/2016 19:00","ND","2,49","ND","ND","ND","ND"],
    [18005,"07/16/2016 20:00","ND","2,41","ND","ND","ND","ND"],
    [18006,"07/16/2016 21:00","ND","2,15","ND","ND","ND","ND"],
    [18007,"07/16/2016 22:00","ND","1,83","ND","ND","ND","ND"],
    [18008,"07/16/2016 23:00","ND","2,25","ND","ND","ND","ND"],
    [18009,"07/17/2016 00:00","ND","2,02","ND","ND","ND","ND"],
    [18010,"07/17/2016 01:00","ND","2,1","ND","ND","ND","ND"],
    [18011,"07/17/2016 02:00","ND","2,36","ND","ND","ND","ND"],
    [18012,"07/17/2016 03:00","ND","2,57","ND","ND","ND","ND"],
    [18013,"07/17/2016 04:00","ND","2,1","ND","ND","ND","ND"],
    [18014,"07/17/2016 05:00","ND","2,46","ND","ND","ND","ND"],
    [18015,"07/17/2016 06:00","ND","2,12","ND","ND","ND","ND"],
    [18016,"07/17/2016 07:00","ND","1,83","ND","ND","ND","ND"],
    [18017,"07/17/2016 08:00","ND","2,44","ND","ND","ND","ND"],
    [18018,"07/17/2016 09:00","ND","3,54","ND","ND","ND","ND"],
    [18019,"07/17/2016 10:00","ND","5,21","ND","ND","ND","ND"],
    [18020,"07/17/2016 11:00","ND","3,35","ND","ND","ND","ND"],
    [18021,"07/17/2016 12:00","ND","3,98","ND","ND","ND","ND"],
    [18022,"07/17/2016 13:00","ND","7,31","ND","ND","ND","ND"],
    [18023,"07/17/2016 14:00","ND","5,06","ND","ND","ND","ND"],
    [18024,"07/17/2016 15:00","ND","2,44","ND","ND","ND","ND"],
    [18025,"07/17/2016 16:00","ND","1,23","ND","ND","ND","ND"],
    [18026,"07/17/2016 17:00","ND","1,05","ND","ND","ND","ND"],
    [18027,"07/17/2016 18:00","ND","1,05","ND","ND","ND","ND"],
    [18028,"07/17/2016 19:00","ND","1,28","ND","ND","ND","ND"],
    [18029,"07/17/2016 20:00","ND","2,02","ND","ND","ND","ND"],
    [18030,"07/17/2016 21:00","ND","1,94","ND","ND","ND","ND"],
    [18031,"07/17/2016 22:00","ND","2,25","ND","ND","ND","ND"],
    [18032,"07/17/2016 23:00","ND","1,76","ND","ND","ND","ND"],
    [18033,"07/18/2016 00:00","ND","1,57","ND","ND","ND","ND"],
    [18034,"07/18/2016 01:00","ND","1,47","ND","ND","ND","ND"],
    [18035,"07/18/2016 02:00","ND","1,49","ND","ND","ND","ND"],
    [18036,"07/18/2016 03:00","ND","1,41","ND","ND","ND","ND"],
    [18037,"07/18/2016 04:00","ND","2,23","ND","ND","ND","ND"],
    [18038,"07/18/2016 05:00","ND","1,41","ND","ND","ND","ND"],
    [18039,"07/18/2016 06:00","ND","1,94","ND","ND","ND","ND"],
    [18040,"07/18/2016 07:00","ND","1,94","ND","ND","ND","ND"],
    [18041,"07/18/2016 08:00","ND","2,46","ND","ND","ND","ND"],
    [18042,"07/18/2016 09:00","ND","2,8","ND","ND","ND","ND"],
    [18043,"07/18/2016 10:00","ND","3,85","ND","ND","ND","ND"],
    [18044,"07/18/2016 11:00","ND","3,48","ND","ND","ND","ND"],
    [18045,"07/18/2016 12:00","ND","3,75","ND","ND","ND","ND"],
    [18046,"07/18/2016 13:00","ND","3,12","ND","ND","ND","ND"],
    [18047,"07/18/2016 14:00","ND","2,46","ND","ND","ND","ND"],
    [18048,"07/18/2016 15:00","ND","1,99","ND","ND","ND","ND"],
    [18049,"07/18/2016 16:00","ND","1,62","ND","ND","ND","ND"],
    [18050,"07/18/2016 17:00","ND","1,02","ND","ND","ND","ND"],
    [18051,"07/18/2016 18:00","ND","1,31","ND","ND","ND","ND"],
    [18052,"07/18/2016 19:00","ND","1,31","ND","ND","ND","ND"],
    [18053,"07/18/2016 20:00","ND","1,36","ND","ND","ND","ND"],
    [18054,"07/18/2016 21:00","ND","1,81","ND","ND","ND","ND"],
    [18055,"07/18/2016 22:00","ND","1,7","ND","ND","ND","ND"],
    [18056,"07/18/2016 23:00","ND","1,49","ND","ND","ND","ND"],
    [18057,"07/19/2016 00:00","ND","1,57","ND","ND","ND","ND"],
    [18058,"07/19/2016 01:00","ND","2,02","ND","ND","ND","ND"],
    [18059,"07/19/2016 02:00","ND","2,25","ND","ND","ND","ND"],
    [18060,"07/19/2016 03:00","ND","2,02","ND","ND","ND","ND"],
    [18061,"07/19/2016 04:00","ND","1,52","ND","ND","ND","ND"],
    [18062,"07/19/2016 05:00","ND","1,52","ND","ND","ND","ND"],
    [18063,"07/19/2016 06:00","ND","1,55","ND","ND","ND","ND"],
    [18064,"07/19/2016 07:00","ND","1,7","ND","ND","ND","ND"],
    [18065,"07/19/2016 08:00","ND","2,75","ND","ND","ND","ND"],
    [18066,"07/19/2016 09:00","ND","3,64","ND","ND","ND","ND"],
    [18067,"07/19/2016 10:00","ND","ND","ND","ND","ND","ND"],
    [18068,"07/19/2016 11:00","ND","ND","ND","ND","ND","ND"],
    [18069,"07/19/2016 12:00","ND","ND","ND","ND","ND","ND"],
    [18070,"07/19/2016 13:00","ND","ND","ND","ND","ND","ND"],
    [18071,"07/19/2016 14:00","ND","ND","ND","ND","ND","ND"],
    [18072,"07/19/2016 15:00","ND","ND","ND","ND","ND","ND"],
    [18073,"07/19/2016 16:00","ND","ND","ND","ND","ND","ND"],
    [18074,"07/19/2016 17:00","ND","ND","ND","ND","ND","ND"],
    [18075,"07/19/2016 18:00","ND","ND","ND","ND","ND","ND"],
    [18076,"07/19/2016 19:00","ND","ND","ND","ND","ND","ND"],
    [18077,"07/19/2016 20:00","ND","ND","ND","ND","ND","ND"],
    [18078,"07/19/2016 21:00","ND","ND","ND","ND","ND","ND"],
    [18079,"07/19/2016 22:00","ND","ND","ND","ND","ND","ND"],
    [18080,"07/19/2016 23:00","ND","ND","ND","ND","ND","ND"],
    [18081,"07/20/2016 00:00","ND","ND","ND","ND","ND","ND"],
    [18082,"07/20/2016 01:00","ND","ND","ND","ND","ND","ND"],
    [18083,"07/20/2016 02:00","ND","ND","ND","ND","ND","ND"],
    [18084,"07/20/2016 03:00","ND","ND","ND","ND","ND","ND"],
    [18085,"07/20/2016 04:00","ND","ND","ND","ND","ND","ND"],
    [18086,"07/20/2016 05:00","ND","ND","ND","ND","ND","ND"],
    [18087,"07/20/2016 06:00","ND","ND","ND","ND","ND","ND"],
    [18088,"07/20/2016 07:00","ND","ND","ND","ND","ND","ND"],
    [18089,"07/20/2016 08:00","ND","ND","ND","ND","ND","ND"],
    [18090,"07/20/2016 09:00","ND","ND","ND","ND","ND","ND"],
    [18091,"07/20/2016 10:00","ND","ND","ND","ND","ND","ND"],
    [18092,"07/20/2016 11:00","ND","ND","ND","ND","ND","ND"],
    [18093,"07/20/2016 12:00","ND","ND","ND","ND","ND","ND"],
    [18094,"07/20/2016 13:00","ND","ND","ND","ND","ND","ND"],
    [18095,"07/20/2016 14:00","ND","ND","ND","ND","ND","ND"],
    [18096,"07/20/2016 15:00","ND","ND","ND","ND","ND","ND"],
    [18097,"07/20/2016 16:00","ND","ND","ND","ND","ND","ND"],
    [18098,"07/20/2016 17:00","ND","ND","ND","ND","ND","ND"],
    [18099,"07/20/2016 18:00","ND","ND","ND","ND","ND","ND"],
    [18100,"07/20/2016 19:00","ND","ND","ND","ND","ND","ND"],
    [18101,"07/20/2016 20:00","ND","ND","ND","ND","ND","ND"],
    [18102,"07/20/2016 21:00","ND","ND","ND","ND","ND","ND"],
    [18103,"07/20/2016 22:00","ND","ND","ND","ND","ND","ND"],
    [18104,"07/20/2016 23:00","ND","ND","ND","ND","ND","ND"],
    [18105,"07/21/2016 00:00","ND","ND","ND","ND","ND","ND"],
    [18106,"07/21/2016 01:00","ND","ND","ND","ND","ND","ND"],
    [18107,"07/21/2016 02:00","ND","ND","ND","ND","ND","ND"],
    [18108,"07/21/2016 03:00","ND","ND","ND","ND","ND","ND"],
    [18109,"07/21/2016 04:00","ND","ND","ND","ND","ND","ND"],
    [18110,"07/21/2016 05:00","ND","ND","ND","ND","ND","ND"],
    [18111,"07/21/2016 06:00","ND","ND","ND","ND","ND","ND"],
    [18112,"07/21/2016 07:00","ND","ND","ND","ND","ND","ND"],
    [18113,"07/21/2016 08:00","ND","ND","ND","ND","ND","ND"],
    [18114,"07/21/2016 09:00","ND","ND","ND","ND","ND","ND"],
    [18115,"07/21/2016 10:00","ND","ND","ND","ND","ND","ND"],
    [18116,"07/21/2016 11:00","ND","ND","ND","ND","ND","ND"],
    [18117,"07/21/2016 12:00","ND","ND","ND","ND","ND","ND"],
    [18118,"07/21/2016 13:00","ND","ND","ND","ND","ND","ND"],
    [18119,"07/21/2016 14:00","ND","ND","ND","ND","ND","ND"],
    [18120,"07/21/2016 15:00","ND","ND","ND","ND","ND","ND"],
    [18121,"07/21/2016 16:00","ND","ND","ND","ND","ND","ND"],
    [18122,"07/21/2016 17:00","ND","ND","ND","ND","ND","ND"],
    [18123,"07/21/2016 18:00","ND","ND","ND","ND","ND","ND"],
    [18124,"07/21/2016 19:00","ND","ND","ND","ND","ND","ND"],
    [18125,"07/21/2016 20:00","ND","ND","ND","ND","ND","ND"],
    [18126,"07/21/2016 21:00","ND","ND","ND","ND","ND","ND"],
    [18127,"07/21/2016 22:00","ND","ND","ND","ND","ND","ND"],
    [18128,"07/21/2016 23:00","ND","ND","ND","ND","ND","ND"],
    [18129,"07/22/2016 00:00","ND","ND","ND","ND","ND","ND"],
    [18130,"07/22/2016 01:00","ND","ND","ND","ND","ND","ND"],
    [18131,"07/22/2016 02:00","ND","ND","ND","ND","ND","ND"],
    [18132,"07/22/2016 03:00","ND","ND","ND","ND","ND","ND"],
    [18133,"07/22/2016 04:00","ND","ND","ND","ND","ND","ND"],
    [18134,"07/22/2016 05:00","ND","ND","ND","ND","ND","ND"],
    [18135,"07/22/2016 06:00","ND","ND","ND","ND","ND","ND"],
    [18136,"07/22/2016 07:00","ND","ND","ND","ND","ND","ND"],
    [18137,"07/22/2016 08:00","ND","ND","ND","ND","ND","ND"],
    [18138,"07/22/2016 09:00","ND","ND","ND","ND","ND","ND"],
    [18139,"07/22/2016 10:00","ND","ND","ND","ND","ND","ND"],
    [18140,"07/22/2016 11:00","ND","ND","ND","ND","ND","ND"],
    [18141,"07/22/2016 12:00","ND","ND","ND","ND","ND","ND"],
    [18142,"07/22/2016 13:00","ND","ND","ND","ND","ND","ND"],
    [18143,"07/22/2016 14:00","ND","ND","ND","ND","ND","ND"],
    [18144,"07/22/2016 15:00","ND","ND","ND","ND","ND","ND"],
    [18145,"07/22/2016 16:00","ND","ND","ND","ND","ND","ND"],
    [18146,"07/22/2016 17:00","ND","ND","ND","ND","ND","ND"],
    [18147,"07/22/2016 18:00","ND","ND","ND","ND","ND","ND"],
    [18148,"07/22/2016 19:00","ND","ND","ND","ND","ND","ND"],
    [18149,"07/22/2016 20:00","ND","ND","ND","ND","ND","ND"],
    [18150,"07/22/2016 21:00","ND","ND","ND","ND","ND","ND"],
    [18151,"07/22/2016 22:00","ND","ND","ND","ND","ND","ND"],
    [18152,"07/22/2016 23:00","ND","ND","ND","ND","ND","ND"],
    [18153,"07/23/2016 00:00","ND","ND","ND","ND","ND","ND"],
    [18154,"07/23/2016 01:00","ND","ND","ND","ND","ND","ND"],
    [18155,"07/23/2016 02:00","ND","ND","ND","ND","ND","ND"],
    [18156,"07/23/2016 03:00","ND","ND","ND","ND","ND","ND"],
    [18157,"07/23/2016 04:00","ND","ND","ND","ND","ND","ND"],
    [18158,"07/23/2016 05:00","ND","ND","ND","ND","ND","ND"],
    [18159,"07/23/2016 06:00","ND","ND","ND","ND","ND","ND"],
    [18160,"07/23/2016 07:00","ND","ND","ND","ND","ND","ND"],
    [18161,"07/23/2016 08:00","ND","ND","ND","ND","ND","ND"],
    [18162,"07/23/2016 09:00","ND","ND","ND","ND","ND","ND"],
    [18163,"07/23/2016 10:00","ND","ND","ND","ND","ND","ND"],
    [18164,"07/23/2016 11:00","ND","ND","ND","ND","ND","ND"],
    [18165,"07/23/2016 12:00","ND","ND","ND","ND","ND","ND"],
    [18166,"07/23/2016 13:00","ND","ND","ND","ND","ND","ND"],
    [18167,"07/23/2016 14:00","ND","ND","ND","ND","ND","ND"],
    [18168,"07/23/2016 15:00","ND","ND","ND","ND","ND","ND"],
    [18169,"07/23/2016 16:00","ND","ND","ND","ND","ND","ND"],
    [18170,"07/23/2016 17:00","ND","ND","ND","ND","ND","ND"],
    [18171,"07/23/2016 18:00","ND","ND","ND","ND","ND","ND"],
    [18172,"07/23/2016 19:00","ND","ND","ND","ND","ND","ND"],
    [18173,"07/23/2016 20:00","ND","ND","ND","ND","ND","ND"],
    [18174,"07/23/2016 21:00","ND","ND","ND","ND","ND","ND"],
    [18175,"07/23/2016 22:00","ND","ND","ND","ND","ND","ND"],
    [18176,"07/23/2016 23:00","ND","ND","ND","ND","ND","ND"],
    [18177,"07/24/2016 00:00","ND","ND","ND","ND","ND","ND"],
    [18178,"07/24/2016 01:00","ND","ND","ND","ND","ND","ND"],
    [18179,"07/24/2016 02:00","ND","ND","ND","ND","ND","ND"],
    [18180,"07/24/2016 03:00","ND","ND","ND","ND","ND","ND"],
    [18181,"07/24/2016 04:00","ND","ND","ND","ND","ND","ND"],
    [18182,"07/24/2016 05:00","ND","ND","ND","ND","ND","ND"],
    [18183,"07/24/2016 06:00","ND","ND","ND","ND","ND","ND"],
    [18184,"07/24/2016 07:00","ND","ND","ND","ND","ND","ND"],
    [18185,"07/24/2016 08:00","ND","ND","ND","ND","ND","ND"],
    [18186,"07/24/2016 09:00","ND","ND","ND","ND","ND","ND"],
    [18187,"07/24/2016 10:00","ND","ND","ND","ND","ND","ND"],
    [18188,"07/24/2016 11:00","ND","ND","ND","ND","ND","ND"],
    [18189,"07/24/2016 12:00","ND","ND","ND","ND","ND","ND"],
    [18190,"07/24/2016 13:00","ND","ND","ND","ND","ND","ND"],
    [18191,"07/24/2016 14:00","ND","ND","ND","ND","ND","ND"],
    [18192,"07/24/2016 15:00","ND","ND","ND","ND","ND","ND"],
    [18193,"07/24/2016 16:00","ND","ND","ND","ND","ND","ND"],
    [18194,"07/24/2016 17:00","ND","ND","ND","ND","ND","ND"],
    [18195,"07/24/2016 18:00","ND","ND","ND","ND","ND","ND"],
    [18196,"07/24/2016 19:00","ND","ND","ND","ND","ND","ND"],
    [18197,"07/24/2016 20:00","ND","ND","ND","ND","ND","ND"],
    [18198,"07/24/2016 21:00","ND","ND","ND","ND","ND","ND"],
    [18199,"07/24/2016 22:00","ND","ND","ND","ND","ND","ND"],
    [18200,"07/24/2016 23:00","ND","ND","ND","ND","ND","ND"],
    [18201,"07/25/2016 00:00","ND","ND","ND","ND","ND","ND"],
    [18202,"07/25/2016 01:00","ND","ND","ND","ND","ND","ND"],
    [18203,"07/25/2016 02:00","ND","ND","ND","ND","ND","ND"],
    [18204,"07/25/2016 03:00","ND","ND","ND","ND","ND","ND"],
    [18205,"07/25/2016 04:00","ND","ND","ND","ND","ND","ND"],
    [18206,"07/25/2016 05:00","ND","ND","ND","ND","ND","ND"],
    [18207,"07/25/2016 06:00","ND","ND","ND","ND","ND","ND"],
    [18208,"07/25/2016 07:00","ND","ND","ND","ND","ND","ND"],
    [18209,"07/25/2016 08:00","ND","ND","ND","ND","ND","ND"],
    [18210,"07/25/2016 09:00","ND","ND","ND","ND","ND","ND"],
    [18211,"07/25/2016 10:00","ND","ND","ND","ND","ND","ND"],
    [18212,"07/25/2016 11:00","ND","ND","ND","ND","ND","ND"],
    [18213,"07/25/2016 12:00","ND","ND","ND","ND","ND","ND"],
    [18214,"07/25/2016 13:00","ND","ND","ND","ND","ND","ND"],
    [18215,"07/25/2016 14:00","ND","ND","ND","ND","ND","ND"],
    [18216,"07/25/2016 15:00","ND","ND","ND","ND","ND","ND"],
    [18217,"07/25/2016 16:00","ND","ND","ND","ND","ND","ND"],
    [18218,"07/25/2016 17:00","ND","ND","ND","ND","ND","ND"],
    [18219,"07/25/2016 18:00","ND","ND","ND","ND","ND","ND"],
    [18220,"07/25/2016 19:00","ND","ND","ND","ND","ND","ND"],
    [18221,"07/25/2016 20:00","ND","ND","ND","ND","ND","ND"],
    [18222,"07/25/2016 21:00","ND","ND","ND","ND","ND","ND"],
    [18223,"07/25/2016 22:00","ND","ND","ND","ND","ND","ND"],
    [18224,"07/25/2016 23:00","ND","ND","ND","ND","ND","ND"],
    [18225,"07/26/2016 00:00","ND","ND","ND","ND","ND","ND"],
    [18226,"07/26/2016 01:00","ND","ND","ND","ND","ND","ND"],
    [18227,"07/26/2016 02:00","ND","ND","ND","ND","ND","ND"],
    [18228,"07/26/2016 03:00","ND","ND","ND","ND","ND","ND"],
    [18229,"07/26/2016 04:00","ND","ND","ND","ND","ND","ND"],
    [18230,"07/26/2016 05:00","ND","ND","ND","ND","ND","ND"],
    [18231,"07/26/2016 06:00","ND","ND","ND","ND","ND","ND"],
    [18232,"07/26/2016 07:00","ND","ND","ND","ND","ND","ND"],
    [18233,"07/26/2016 08:00","ND","ND","ND","ND","ND","ND"],
    [18234,"07/26/2016 09:00","ND","ND","ND","ND","ND","ND"],
    [18235,"07/26/2016 10:00","ND","ND","ND","ND","ND","ND"],
    [18236,"07/26/2016 11:00","ND","ND","ND","ND","ND","ND"],
    [18237,"07/26/2016 12:00","ND","ND","ND","ND","ND","ND"],
    [18238,"07/26/2016 13:00","ND","ND","ND","ND","ND","ND"],
    [18239,"07/26/2016 14:00","ND","ND","ND","ND","ND","ND"],
    [18240,"07/26/2016 15:00","ND","ND","ND","ND","ND","ND"],
    [18241,"07/26/2016 16:00","ND","ND","ND","ND","ND","ND"],
    [18242,"07/26/2016 17:00","ND","ND","ND","ND","ND","ND"],
    [18243,"07/26/2016 18:00","ND","ND","ND","ND","ND","ND"],
    [18244,"07/26/2016 19:00","ND","ND","ND","ND","ND","ND"],
    [18245,"07/26/2016 20:00","ND","ND","ND","ND","ND","ND"],
    [18246,"07/26/2016 21:00","ND","ND","ND","ND","ND","ND"],
    [18247,"07/26/2016 22:00","ND","ND","ND","ND","ND","ND"],
    [18248,"07/26/2016 23:00","ND","ND","ND","ND","ND","ND"],
    [18249,"07/27/2016 00:00","ND","ND","ND","ND","ND","ND"],
    [18250,"07/27/2016 01:00","ND","ND","ND","ND","ND","ND"],
    [18251,"07/27/2016 02:00","ND","ND","ND","ND","ND","ND"],
    [18252,"07/27/2016 03:00","ND","ND","ND","ND","ND","ND"],
    [18253,"07/27/2016 04:00","ND","ND","ND","ND","ND","ND"],
    [18254,"07/27/2016 05:00","ND","ND","ND","ND","ND","ND"],
    [18255,"07/27/2016 06:00","ND","ND","ND","ND","ND","ND"],
    [18256,"07/27/2016 07:00","ND","ND","ND","ND","ND","ND"],
    [18257,"07/27/2016 08:00","ND","ND","ND","ND","ND","ND"],
    [18258,"07/27/2016 09:00","ND","ND","ND","ND","ND","ND"],
    [18259,"07/27/2016 10:00","ND","ND","ND","ND","ND","ND"],
    [18260,"07/27/2016 11:00","ND","ND","ND","ND","ND","ND"],
    [18261,"07/27/2016 12:00","ND","ND","ND","ND","ND","ND"],
    [18262,"07/27/2016 13:00","ND","ND","ND","ND","ND","ND"],
    [18263,"07/27/2016 14:00","ND","ND","ND","ND","ND","ND"],
    [18264,"07/27/2016 15:00","ND","ND","ND","ND","ND","ND"],
    [18265,"07/27/2016 16:00","ND","ND","ND","ND","ND","ND"],
    [18266,"07/27/2016 17:00","ND","ND","ND","ND","ND","ND"],
    [18267,"07/27/2016 18:00","ND","ND","ND","ND","ND","ND"],
    [18268,"07/27/2016 19:00","ND","ND","ND","ND","ND","ND"],
    [18269,"07/27/2016 20:00","ND","ND","ND","ND","ND","ND"],
    [18270,"07/27/2016 21:00","ND","ND","ND","ND","ND","ND"],
    [18271,"07/27/2016 22:00","ND","ND","ND","ND","ND","ND"],
    [18272,"07/27/2016 23:00","ND","ND","ND","ND","ND","ND"],
    [18273,"07/28/2016 00:00","ND","ND","ND","ND","ND","ND"],
    [18274,"07/28/2016 01:00","ND","ND","ND","ND","ND","ND"],
    [18275,"07/28/2016 02:00","ND","ND","ND","ND","ND","ND"],
    [18276,"07/28/2016 03:00","ND","ND","ND","ND","ND","ND"],
    [18277,"07/28/2016 04:00","ND","ND","ND","ND","ND","ND"],
    [18278,"07/28/2016 05:00","ND","ND","ND","ND","ND","ND"],
    [18279,"07/28/2016 06:00","ND","ND","ND","ND","ND","ND"],
    [18280,"07/28/2016 07:00","ND","ND","ND","ND","ND","ND"],
    [18281,"07/28/2016 08:00","ND","ND","ND","ND","ND","ND"],
    [18282,"07/28/2016 09:00","ND","ND","ND","ND","ND","ND"],
    [18283,"07/28/2016 10:00","ND","ND","ND","ND","ND","ND"],
    [18284,"07/28/2016 11:00","ND","ND","ND","ND","ND","ND"],
    [18285,"07/28/2016 12:00","ND","ND","ND","ND","ND","ND"],
    [18286,"07/28/2016 13:00","ND","ND","ND","ND","ND","ND"],
    [18287,"07/28/2016 14:00","ND","ND","ND","ND","ND","ND"],
    [18288,"07/28/2016 15:00","ND","ND","ND","ND","ND","ND"],
    [18289,"07/28/2016 16:00","ND","ND","ND","ND","ND","ND"],
    [18290,"07/28/2016 17:00","ND","ND","ND","ND","ND","ND"],
    [18291,"07/28/2016 18:00","ND","ND","ND","ND","ND","ND"],
    [18292,"07/28/2016 19:00","ND","ND","ND","ND","ND","ND"],
    [18293,"07/28/2016 20:00","ND","ND","ND","ND","ND","ND"],
    [18294,"07/28/2016 21:00","ND","ND","ND","ND","ND","ND"],
    [18295,"07/28/2016 22:00","ND","ND","ND","ND","ND","ND"],
    [18296,"07/28/2016 23:00","ND","ND","ND","ND","ND","ND"],
    [18297,"07/29/2016 00:00","ND","ND","ND","ND","ND","ND"],
    [18298,"07/29/2016 01:00","ND","ND","ND","ND","ND","ND"],
    [18299,"07/29/2016 02:00","ND","ND","ND","ND","ND","ND"],
    [18300,"07/29/2016 03:00","ND","ND","ND","ND","ND","ND"],
    [18301,"07/29/2016 04:00","ND","ND","ND","ND","ND","ND"],
    [18302,"07/29/2016 05:00","ND","ND","ND","ND","ND","ND"],
    [18303,"07/29/2016 06:00","ND","ND","ND","ND","ND","ND"],
    [18304,"07/29/2016 07:00","ND","ND","ND","ND","ND","ND"],
    [18305,"07/29/2016 08:00","ND","ND","ND","ND","ND","ND"],
    [18306,"07/29/2016 09:00","ND","ND","ND","ND","ND","ND"],
    [18307,"07/29/2016 10:00","ND","ND","ND","ND","ND","ND"],
    [18308,"07/29/2016 11:00","ND","ND","ND","ND","ND","ND"],
    [18309,"07/29/2016 12:00","ND","ND","ND","ND","ND","ND"],
    [18310,"07/29/2016 13:00","ND","ND","ND","ND","ND","ND"],
    [18311,"07/29/2016 14:00","ND","ND","ND","ND","ND","ND"],
    [18312,"07/29/2016 15:00","ND","ND","ND","ND","ND","ND"],
    [18313,"07/29/2016 16:00","ND","ND","ND","ND","ND","ND"],
    [18314,"07/29/2016 17:00","ND","ND","ND","ND","ND","ND"],
    [18315,"07/29/2016 18:00","ND","ND","ND","ND","ND","ND"],
    [18316,"07/29/2016 19:00","ND","ND","ND","ND","ND","ND"],
    [18317,"07/29/2016 20:00","ND","ND","ND","ND","ND","ND"],
    [18318,"07/29/2016 21:00","ND","ND","ND","ND","ND","ND"],
    [18319,"07/29/2016 22:00","ND","ND","ND","ND","ND","ND"],
    [18320,"07/29/2016 23:00","ND","ND","ND","ND","ND","ND"],
    [18321,"07/30/2016 00:00","ND","ND","ND","ND","ND","ND"],
    [18322,"07/30/2016 01:00","ND","ND","ND","ND","ND","ND"],
    [18323,"07/30/2016 02:00","ND","ND","ND","ND","ND","ND"],
    [18324,"07/30/2016 03:00","ND","ND","ND","ND","ND","ND"],
    [18325,"07/30/2016 04:00","ND","ND","ND","ND","ND","ND"],
    [18326,"07/30/2016 05:00","ND","ND","ND","ND","ND","ND"],
    [18327,"07/30/2016 06:00","ND","ND","ND","ND","ND","ND"],
    [18328,"07/30/2016 07:00","ND","ND","ND","ND","ND","ND"],
    [18329,"07/30/2016 08:00","ND","ND","ND","ND","ND","ND"],
    [18330,"07/30/2016 09:00","ND","ND","ND","ND","ND","ND"],
    [18331,"07/30/2016 10:00","ND","ND","ND","ND","ND","ND"],
    [18332,"07/30/2016 11:00","ND","ND","ND","ND","ND","ND"],
    [18333,"07/30/2016 12:00","ND","ND","ND","ND","ND","ND"],
    [18334,"07/30/2016 13:00","ND","ND","ND","ND","ND","ND"],
    [18335,"07/30/2016 14:00","ND","ND","ND","ND","ND","ND"],
    [18336,"07/30/2016 15:00","ND","ND","ND","ND","ND","ND"],
    [18337,"07/30/2016 16:00","ND","ND","ND","ND","ND","ND"],
    [18338,"07/30/2016 17:00","ND","ND","ND","ND","ND","ND"],
    [18339,"07/30/2016 18:00","ND","ND","ND","ND","ND","ND"],
    [18340,"07/30/2016 19:00","ND","ND","ND","ND","ND","ND"],
    [18341,"07/30/2016 20:00","ND","ND","ND","ND","ND","ND"],
    [18342,"07/30/2016 21:00","ND","ND","ND","ND","ND","ND"],
    [18343,"07/30/2016 22:00","ND","ND","ND","ND","ND","ND"],
    [18344,"07/30/2016 23:00","ND","ND","ND","ND","ND","ND"],
    [18345,"07/31/2016 00:00","ND","ND","ND","ND","ND","ND"],
    [18346,"07/31/2016 01:00","ND","ND","ND","ND","ND","ND"],
    [18347,"07/31/2016 02:00","ND","ND","ND","ND","ND","ND"],
    [18348,"07/31/2016 03:00","ND","ND","ND","ND","ND","ND"],
    [18349,"07/31/2016 04:00","ND","ND","ND","ND","ND","ND"],
    [18350,"07/31/2016 05:00","ND","ND","ND","ND","ND","ND"],
    [18351,"07/31/2016 06:00","ND","ND","ND","ND","ND","ND"],
    [18352,"07/31/2016 07:00","ND","ND","ND","ND","ND","ND"],
    [18353,"07/31/2016 08:00","ND","ND","ND","ND","ND","ND"],
    [18354,"07/31/2016 09:00","ND","ND","ND","ND","ND","ND"],
    [18355,"07/31/2016 10:00","ND","ND","ND","ND","ND","ND"],
    [18356,"07/31/2016 11:00","ND","ND","ND","ND","ND","ND"],
    [18357,"07/31/2016 12:00","ND","ND","ND","ND","ND","ND"],
    [18358,"07/31/2016 13:00","ND","ND","ND","ND","ND","ND"],
    [18359,"07/31/2016 14:00","ND","ND","ND","ND","ND","ND"],
    [18360,"07/31/2016 15:00","ND","ND","ND","ND","ND","ND"],
    [18361,"07/31/2016 16:00","ND","ND","ND","ND","ND","ND"],
    [18362,"07/31/2016 17:00","ND","ND","ND","ND","ND","ND"],
    [18363,"07/31/2016 18:00","ND","ND","ND","ND","ND","ND"],
    [18364,"07/31/2016 19:00","ND","ND","ND","ND","ND","ND"],
    [18365,"07/31/2016 20:00","ND","ND","ND","ND","ND","ND"],
    [18366,"07/31/2016 21:00","ND","ND","ND","ND","ND","ND"],
    [18367,"07/31/2016 22:00","ND","ND","ND","ND","ND","ND"],
    [18368,"07/31/2016 23:00","ND","ND","ND","ND","ND","ND"],
    [18369,"42377","ND","ND","ND","ND","ND","ND"],
    [18370,"42377,04167","ND","ND","ND","ND","ND","ND"],
    [18371,"42377,08333","ND","ND","ND","ND","ND","ND"],
    [18372,"42377,125","ND","ND","ND","ND","ND","ND"],
    [18373,"42377,16667","ND","ND","ND","ND","ND","ND"],
    [18374,"42377,20833","ND","ND","ND","ND","ND","ND"],
    [18375,"42377,25","ND","ND","ND","ND","ND","ND"],
    [18376,"42377,29167","ND","ND","ND","ND","ND","ND"],
    [18377,"42377,33333","ND","ND","ND","ND","ND","ND"],
    [18378,"42377,375","ND","ND","ND","ND","ND","ND"],
    [18379,"42377,41667","ND","ND","ND","ND","ND","ND"],
    [18380,"42377,45833","ND","ND","ND","ND","ND","ND"],
    [18381,"42377,5","ND","ND","ND","ND","ND","ND"],
    [18382,"42377,54167","ND","ND","ND","ND","ND","ND"],
    [18383,"42377,58333","ND","ND","ND","ND","ND","ND"],
    [18384,"42377,625","ND","ND","ND","ND","ND","ND"],
    [18385,"42377,66667","ND","ND","ND","ND","ND","ND"],
    [18386,"42377,70833","ND","ND","ND","ND","ND","ND"],
    [18387,"42377,75","ND","ND","ND","ND","ND","ND"],
    [18388,"42377,79167","ND","ND","ND","ND","ND","ND"],
    [18389,"42377,83333","ND","ND","ND","ND","ND","ND"],
    [18390,"42377,875","ND","ND","ND","ND","ND","ND"],
    [18391,"42377,91667","ND","ND","ND","ND","ND","ND"],
    [18392,"42377,95833","ND","ND","ND","ND","ND","ND"],
    [18393,"42408","ND","ND","ND","ND","ND","ND"],
    [18394,"42408,04167","ND","ND","ND","ND","ND","ND"],
    [18395,"42408,08333","ND","ND","ND","ND","ND","ND"],
    [18396,"42408,125","ND","ND","ND","ND","ND","ND"],
    [18397,"42408,16667","ND","ND","ND","ND","ND","ND"],
    [18398,"42408,20833","ND","ND","ND","ND","ND","ND"],
    [18399,"42408,25","ND","ND","ND","ND","ND","ND"],
    [18400,"42408,29167","ND","ND","ND","ND","ND","ND"],
    [18401,"42408,33333","ND","ND","ND","ND","ND","ND"],
    [18402,"42408,375","ND","ND","ND","ND","ND","ND"],
    [18403,"42408,41667","ND","ND","ND","ND","ND","ND"],
    [18404,"42408,45833","ND","ND","ND","ND","ND","ND"],
    [18405,"42408,5","ND","ND","ND","ND","ND","ND"],
    [18406,"42408,54167","ND","ND","ND","ND","ND","ND"],
    [18407,"42408,58333","ND","ND","ND","ND","ND","ND"],
    [18408,"42408,625","ND","ND","ND","ND","ND","ND"],
    [18409,"42408,66667","ND","ND","ND","ND","ND","ND"],
    [18410,"42408,70833","ND","ND","ND","ND","ND","ND"],
    [18411,"42408,75","ND","ND","ND","ND","ND","ND"],
    [18412,"42408,79167","ND","ND","ND","ND","ND","ND"],
    [18413,"42408,83333","ND","ND","ND","ND","ND","ND"],
    [18414,"42408,875","ND","ND","ND","ND","ND","ND"],
    [18415,"42408,91667","ND","ND","ND","ND","ND","ND"],
    [18416,"42408,95833","ND","ND","ND","ND","ND","ND"],
    [18417,"42437","ND","ND","ND","ND","ND","ND"],
    [18418,"42437,04167","ND","ND","ND","ND","ND","ND"],
    [18419,"42437,08333","ND","ND","ND","ND","ND","ND"],
    [18420,"42437,125","ND","ND","ND","ND","ND","ND"],
    [18421,"42437,16667","ND","ND","ND","ND","ND","ND"],
    [18422,"42437,20833","ND","ND","ND","ND","ND","ND"],
    [18423,"42437,25","ND","ND","ND","ND","ND","ND"],
    [18424,"42437,29167","ND","ND","ND","ND","ND","ND"],
    [18425,"42437,33333","ND","ND","ND","ND","ND","ND"],
    [18426,"42437,375","ND","ND","ND","ND","ND","ND"],
    [18427,"42437,41667","ND","ND","ND","ND","ND","ND"],
    [18428,"42437,45833","ND","ND","ND","ND","ND","ND"],
    [18429,"42437,5","ND","ND","ND","ND","ND","ND"],
    [18430,"42437,54167","ND","ND","ND","ND","ND","ND"],
    [18431,"42437,58333","ND","ND","ND","ND","ND","ND"],
    [18432,"42437,625","ND","ND","ND","ND","ND","ND"],
    [18433,"42437,66667","ND","ND","ND","ND","ND","ND"],
    [18434,"42437,70833","ND","ND","ND","ND","ND","ND"],
    [18435,"42437,75","ND","ND","ND","ND","ND","ND"],
    [18436,"42437,79167","ND","ND","ND","ND","ND","ND"],
    [18437,"42437,83333","ND","ND","ND","ND","ND","ND"],
    [18438,"42437,875","ND","ND","ND","ND","ND","ND"],
    [18439,"42437,91667","ND","ND","ND","ND","ND","ND"],
    [18440,"42437,95833","ND","ND","ND","ND","ND","ND"],
    [18441,"42468","ND","ND","ND","ND","ND","ND"],
    [18442,"42468,04167","ND","ND","ND","ND","ND","ND"],
    [18443,"42468,08333","ND","ND","ND","ND","ND","ND"],
    [18444,"42468,125","ND","ND","ND","ND","ND","ND"],
    [18445,"42468,16667","ND","ND","ND","ND","ND","ND"],
    [18446,"42468,20833","ND","ND","ND","ND","ND","ND"],
    [18447,"42468,25","ND","ND","ND","ND","ND","ND"],
    [18448,"42468,29167","ND","ND","ND","ND","ND","ND"],
    [18449,"42468,33333","ND","ND","ND","ND","ND","ND"],
    [18450,"42468,375","ND","ND","ND","ND","ND","ND"],
    [18451,"42468,41667","ND","ND","ND","ND","ND","ND"],
    [18452,"42468,45833","ND","ND","ND","ND","ND","ND"],
    [18453,"42468,5","ND","ND","ND","ND","ND","ND"],
    [18454,"42468,54167","ND","ND","ND","ND","ND","ND"],
    [18455,"42468,58333","ND","ND","ND","ND","ND","ND"],
    [18456,"42468,625","ND","ND","ND","ND","ND","ND"],
    [18457,"42468,66667","ND","ND","ND","ND","ND","ND"],
    [18458,"42468,70833","ND","ND","ND","ND","ND","ND"],
    [18459,"42468,75","ND","ND","ND","ND","ND","ND"],
    [18460,"42468,79167","ND","ND","ND","ND","ND","ND"],
    [18461,"42468,83333","ND","ND","ND","ND","ND","ND"],
    [18462,"42468,875","ND","ND","ND","ND","ND","ND"],
    [18463,"42468,91667","ND","ND","ND","ND","ND","ND"],
    [18464,"42468,95833","ND","ND","ND","ND","ND","ND"],
    [18465,"42498","ND","ND","ND","ND","ND","ND"],
    [18466,"42498,04167","ND","ND","ND","ND","ND","ND"],
    [18467,"42498,08333","ND","ND","ND","ND","ND","ND"],
    [18468,"42498,125","ND","ND","ND","ND","ND","ND"],
    [18469,"42498,16667","ND","ND","ND","ND","ND","ND"],
    [18470,"42498,20833","ND","ND","ND","ND","ND","ND"],
    [18471,"42498,25","ND","ND","ND","ND","ND","ND"],
    [18472,"42498,29167","ND","ND","ND","ND","ND","ND"],
    [18473,"42498,33333","ND","ND","ND","ND","ND","ND"],
    [18474,"42498,375","ND","ND","ND","ND","ND","ND"],
    [18475,"42498,41667","ND","ND","ND","ND","ND","ND"],
    [18476,"42498,45833","ND","ND","ND","ND","ND","ND"],
    [18477,"42498,5","ND","ND","ND","ND","ND","ND"],
    [18478,"42498,54167","ND","ND","ND","ND","ND","ND"],
    [18479,"42498,58333","ND","ND","ND","ND","ND","ND"],
    [18480,"42498,625","ND","ND","ND","ND","ND","ND"],
    [18481,"42498,66667","ND","ND","ND","ND","ND","ND"],
    [18482,"42498,70833","ND","ND","ND","ND","ND","ND"],
    [18483,"42498,75","ND","ND","ND","ND","ND","ND"],
    [18484,"42498,79167","ND","ND","ND","ND","ND","ND"],
    [18485,"42498,83333","ND","ND","ND","ND","ND","ND"],
    [18486,"42498,875","ND","ND","ND","ND","ND","ND"],
    [18487,"42498,91667","ND","ND","ND","ND","ND","ND"],
    [18488,"42498,95833","ND","ND","ND","ND","ND","ND"],
    [18489,"42529","ND","ND","ND","ND","ND","ND"],
    [18490,"42529,04167","ND","ND","ND","ND","ND","ND"],
    [18491,"42529,08333","ND","ND","ND","ND","ND","ND"],
    [18492,"42529,125","ND","ND","ND","ND","ND","ND"],
    [18493,"42529,16667","ND","ND","ND","ND","ND","ND"],
    [18494,"42529,20833","ND","ND","ND","ND","ND","ND"],
    [18495,"42529,25","ND","ND","ND","ND","ND","ND"],
    [18496,"42529,29167","ND","ND","ND","ND","ND","ND"],
    [18497,"42529,33333","ND","ND","ND","ND","ND","ND"],
    [18498,"42529,375","ND","ND","ND","ND","ND","ND"],
    [18499,"42529,41667","ND","ND","ND","ND","ND","ND"],
    [18500,"42529,45833","ND","ND","ND","ND","ND","ND"],
    [18501,"42529,5","ND","ND","ND","ND","ND","ND"],
    [18502,"42529,54167","ND","ND","ND","ND","ND","ND"],
    [18503,"42529,58333","ND","ND","ND","ND","ND","ND"],
    [18504,"42529,625","ND","ND","ND","ND","ND","ND"],
    [18505,"42529,66667","ND","ND","ND","ND","ND","ND"],
    [18506,"42529,70833","ND","ND","ND","ND","ND","ND"],
    [18507,"42529,75","ND","ND","ND","ND","ND","ND"],
    [18508,"42529,79167","ND","ND","ND","ND","ND","ND"],
    [18509,"42529,83333","ND","ND","ND","ND","ND","ND"],
    [18510,"42529,875","ND","ND","ND","ND","ND","ND"],
    [18511,"42529,91667","ND","ND","ND","ND","ND","ND"],
    [18512,"42529,95833","ND","ND","ND","ND","ND","ND"],
    [18513,"42559","ND","ND","ND","ND","ND","ND"],
    [18514,"42559,04167","ND","ND","ND","ND","ND","ND"],
    [18515,"42559,08333","ND","ND","ND","ND","ND","ND"],
    [18516,"42559,125","ND","ND","ND","ND","ND","ND"],
    [18517,"42559,16667","ND","ND","ND","ND","ND","ND"],
    [18518,"42559,20833","ND","ND","ND","ND","ND","ND"],
    [18519,"42559,25","ND","ND","ND","ND","ND","ND"],
    [18520,"42559,29167","ND","ND","ND","ND","ND","ND"],
    [18521,"42559,33333","ND","ND","ND","ND","ND","ND"],
    [18522,"42559,375","ND","ND","ND","ND","ND","ND"],
    [18523,"42559,41667","ND","ND","ND","ND","ND","ND"],
    [18524,"42559,45833","ND","ND","ND","ND","ND","ND"],
    [18525,"42559,5","ND","ND","ND","ND","ND","ND"],
    [18526,"42559,54167","ND","ND","ND","ND","ND","ND"],
    [18527,"42559,58333","ND","ND","ND","ND","ND","ND"],
    [18528,"42559,625","ND","ND","ND","ND","ND","ND"],
    [18529,"42559,66667","ND","ND","ND","ND","ND","ND"],
    [18530,"42559,70833","ND","ND","ND","ND","ND","ND"],
    [18531,"42559,75","ND","ND","ND","ND","ND","ND"],
    [18532,"42559,79167","ND","ND","ND","ND","ND","ND"],
    [18533,"42559,83333","ND","ND","ND","ND","ND","ND"],
    [18534,"42559,875","ND","ND","ND","ND","ND","ND"],
    [18535,"42559,91667","ND","ND","ND","ND","ND","ND"],
    [18536,"42559,95833","ND","ND","ND","ND","ND","ND"],
    [18537,"42590","ND","ND","ND","ND","ND","ND"],
    [18538,"42590,04167","ND","ND","ND","ND","ND","ND"],
    [18539,"42590,08333","ND","ND","ND","ND","ND","ND"],
    [18540,"42590,125","ND","ND","ND","ND","ND","ND"],
    [18541,"42590,16667","ND","ND","ND","ND","ND","ND"],
    [18542,"42590,20833","ND","ND","ND","ND","ND","ND"],
    [18543,"42590,25","ND","ND","ND","ND","ND","ND"],
    [18544,"42590,29167","ND","ND","ND","ND","ND","ND"],
    [18545,"42590,33333","ND","ND","ND","ND","ND","ND"],
    [18546,"42590,375","ND","ND","ND","ND","ND","ND"],
    [18547,"42590,41667","ND","ND","ND","ND","ND","ND"],
    [18548,"42590,45833","ND","ND","ND","ND","ND","ND"],
    [18549,"42590,5","ND","ND","ND","ND","ND","ND"],
    [18550,"42590,54167","ND","ND","ND","ND","ND","ND"],
    [18551,"42590,58333","ND","ND","ND","ND","ND","ND"],
    [18552,"42590,625","ND","ND","ND","ND","ND","ND"],
    [18553,"42590,66667","ND","ND","ND","ND","ND","ND"],
    [18554,"42590,70833","ND","ND","ND","ND","ND","ND"],
    [18555,"42590,75","ND","ND","ND","ND","ND","ND"],
    [18556,"42590,79167","ND","ND","ND","ND","ND","ND"],
    [18557,"42590,83333","ND","ND","ND","ND","ND","ND"],
    [18558,"42590,875","ND","ND","ND","ND","ND","ND"],
    [18559,"42590,91667","ND","ND","ND","ND","ND","ND"],
    [18560,"42590,95833","ND","ND","ND","ND","ND","ND"],
    [18561,"42621","ND","ND","ND","ND","ND","ND"],
    [18562,"42621,04167","ND","ND","ND","ND","ND","ND"],
    [18563,"42621,08333","ND","ND","ND","ND","ND","ND"],
    [18564,"42621,125","ND","ND","ND","ND","ND","ND"],
    [18565,"42621,16667","ND","ND","ND","ND","ND","ND"],
    [18566,"42621,20833","ND","ND","ND","ND","ND","ND"],
    [18567,"42621,25","ND","ND","ND","ND","ND","ND"],
    [18568,"42621,29167","ND","ND","ND","ND","ND","ND"],
    [18569,"42621,33333","ND","ND","ND","ND","ND","ND"],
    [18570,"42621,375","ND","ND","ND","ND","ND","ND"],
    [18571,"42621,41667","ND","ND","ND","ND","ND","ND"],
    [18572,"42621,45833","ND","ND","ND","ND","ND","ND"],
    [18573,"42621,5","ND","ND","ND","ND","ND","ND"],
    [18574,"42621,54167","ND","ND","ND","ND","ND","ND"],
    [18575,"42621,58333","ND","ND","ND","ND","ND","ND"],
    [18576,"42621,625","ND","ND","ND","ND","ND","ND"],
    [18577,"42621,66667","ND","ND","ND","ND","ND","ND"],
    [18578,"42621,70833","ND","ND","ND","ND","ND","ND"],
    [18579,"42621,75","ND","ND","ND","ND","ND","ND"],
    [18580,"42621,79167","ND","ND","ND","ND","ND","ND"],
    [18581,"42621,83333","ND","ND","ND","ND","ND","ND"],
    [18582,"42621,875","ND","ND","ND","ND","ND","ND"],
    [18583,"42621,91667","ND","ND","ND","ND","ND","ND"],
    [18584,"42621,95833","ND","ND","ND","ND","ND","ND"],
    [18585,"42651","ND","ND","ND","ND","ND","ND"],
    [18586,"42651,04167","ND","ND","ND","ND","ND","ND"],
    [18587,"42651,08333","ND","ND","ND","ND","ND","ND"],
    [18588,"42651,125","ND","ND","ND","ND","ND","ND"],
    [18589,"42651,16667","ND","ND","ND","ND","ND","ND"],
    [18590,"42651,20833","ND","ND","ND","ND","ND","ND"],
    [18591,"42651,25","ND","ND","ND","ND","ND","ND"],
    [18592,"42651,29167","ND","ND","ND","ND","ND","ND"],
    [18593,"42651,33333","ND","ND","ND","ND","ND","ND"],
    [18594,"42651,375","ND","ND","ND","ND","ND","ND"],
    [18595,"42651,41667","ND","9,01","ND","ND","ND","ND"],
    [18596,"42651,45833","ND","6,37","ND","ND","ND","ND"],
    [18597,"42651,5","ND","6,21","ND","ND","ND","ND"],
    [18598,"42651,54167","ND","6,13","ND","ND","ND","ND"],
    [18599,"42651,58333","28,8","5,29","ND","ND","ND","ND"],
    [18600,"42651,625","40,6","6,31","ND","ND","ND","ND"],
    [18601,"42651,66667","25,4","2,65","ND","ND","ND","ND"],
    [18602,"42651,70833","17,2","2,57","ND","ND","ND","ND"],
    [18603,"42651,75","21,3","2,73","ND","ND","ND","ND"],
    [18604,"42651,79167","19,9","2,57","ND","ND","ND","ND"],
    [18605,"42651,83333","18,1","2,52","ND","ND","ND","ND"],
    [18606,"42651,875","18,7","2,52","ND","ND","ND","ND"],
    [18607,"42651,91667","37,4","3,14","ND","ND","ND","ND"],
    [18608,"42651,95833","43,7","3,3","ND","ND","ND","ND"],
    [18609,"42682","40,8","3,33","ND","ND","ND","ND"],
    [18610,"42682,04167","36,6","2,88","ND","ND","ND","ND"],
    [18611,"42682,08333","28,9","2,54","ND","ND","ND","ND"],
    [18612,"42682,125","25,8","2,41","ND","ND","ND","ND"],
    [18613,"42682,16667","34,9","2,41","ND","ND","ND","ND"],
    [18614,"42682,20833","30,4","2,46","ND","ND","ND","ND"],
    [18615,"42682,25","48,2","2,57","ND","ND","ND","ND"],
    [18616,"42682,29167","48,2","2,62","ND","ND","ND","ND"],
    [18617,"42682,33333","59,2","3,12","ND","ND","ND","ND"],
    [18618,"42682,375","56,3","5,24","ND","ND","ND","ND"],
    [18619,"42682,41667","54,7","7,7","ND","ND","ND","ND"],
    [18620,"42682,45833","37","7,18","ND","ND","ND","ND"],
    [18621,"42682,5","39,1","6,58","ND","ND","ND","ND"],
    [18622,"42682,54167","44,6","5,97","ND","ND","ND","ND"],
    [18623,"42682,58333","47","5","ND","ND","ND","ND"],
    [18624,"42682,625","50,7","5,53","ND","ND","ND","ND"],
    [18625,"42682,66667","50,7","3,01","ND","ND","ND","ND"],
    [18626,"42682,70833","23,9","2,59","ND","ND","ND","ND"],
    [18627,"42682,75","23,8","2,23","ND","ND","ND","ND"],
    [18628,"42682,79167","24,6","2,41","ND","ND","ND","ND"],
    [18629,"42682,83333","16,9","2,33","ND","ND","ND","ND"],
    [18630,"42682,875","13,5","1,99","ND","ND","ND","ND"],
    [18631,"42682,91667","14,4","2,38","ND","ND","ND","ND"],
    [18632,"42682,95833","39,8","2,62","ND","ND","ND","ND"],
    [18633,"42712","39,9","2,83","ND","ND","ND","ND"],
    [18634,"42712,04167","50,7","3,09","ND","ND","ND","ND"],
    [18635,"42712,08333","37,3","2,83","ND","ND","ND","ND"],
    [18636,"42712,125","36,3","2,54","ND","ND","ND","ND"],
    [18637,"42712,16667","30,2","2,44","ND","ND","ND","ND"],
    [18638,"42712,20833","29,8","2,33","ND","ND","ND","ND"],
    [18639,"42712,25","47,2","2,59","ND","ND","ND","ND"],
    [18640,"42712,29167","49,3","3,22","ND","ND","ND","ND"],
    [18641,"42712,33333","49,3","3,62","ND","ND","ND","ND"],
    [18642,"42712,375","41,8","4,69","ND","ND","ND","ND"],
    [18643,"42712,41667","33,8","6,34","ND","ND","ND","ND"],
    [18644,"42712,45833","33,9","5,61","ND","ND","ND","ND"],
    [18645,"42712,5","36,3","5,71","ND","ND","ND","ND"],
    [18646,"42712,54167","38","4,9","ND","ND","ND","ND"],
    [18647,"42712,58333","41,8","5,16","ND","ND","ND","ND"],
    [18648,"42712,625","43,1","6,16","ND","ND","ND","ND"],
    [18649,"42712,66667","37,6","3,88","ND","ND","ND","ND"],
    [18650,"42712,70833","30,3","2,49","ND","ND","ND","ND"],
    [18651,"42712,75","28,7","2,44","ND","ND","ND","ND"],
    [18652,"42712,79167","26,2","2,49","ND","ND","ND","ND"],
    [18653,"42712,83333","27,8","2,62","ND","ND","ND","ND"],
    [18654,"42712,875","27,3","2,59","ND","ND","ND","ND"],
    [18655,"42712,91667","35,1","3,3","ND","ND","ND","ND"],
    [18656,"42712,95833","61,1","3,43","ND","ND","ND","ND"],
    [18657,"08/13/2016 00:00","58,1","2,96","ND","ND","ND","ND"],
    [18658,"08/13/2016 01:00","43,8","3,01","ND","ND","ND","ND"],
    [18659,"08/13/2016 02:00","45,3","2,67","ND","ND","ND","ND"],
    [18660,"08/13/2016 03:00","34,9","2,59","ND","ND","ND","ND"],
    [18661,"08/13/2016 04:00","38,5","2,59","ND","ND","ND","ND"],
    [18662,"08/13/2016 05:00","38,5","2,57","ND","ND","ND","ND"],
    [18663,"08/13/2016 06:00","42,9","2,7","ND","ND","ND","ND"],
    [18664,"08/13/2016 07:00","51,1","2,78","ND","ND","ND","ND"],
    [18665,"08/13/2016 08:00","56,4","3,93","ND","ND","ND","ND"],
    [18666,"08/13/2016 09:00","55,3","4,45","ND","ND","ND","ND"],
    [18667,"08/13/2016 10:00","50,2","6,47","ND","ND","ND","ND"],
    [18668,"08/13/2016 11:00","49,3","8,28","ND","ND","ND","ND"],
    [18669,"08/13/2016 12:00","46","6,21","ND","ND","ND","ND"],
    [18670,"08/13/2016 13:00","39,7","5,71","ND","ND","ND","ND"],
    [18671,"08/13/2016 14:00","42,6","5,53","ND","ND","ND","ND"],
    [18672,"08/13/2016 15:00","47,1","4,74","ND","ND","ND","ND"],
    [18673,"08/13/2016 16:00","43,6","4,82","ND","ND","ND","ND"],
    [18674,"08/13/2016 17:00","38,4","2,46","ND","ND","ND","ND"],
    [18675,"08/13/2016 18:00","24,7","2,46","ND","ND","ND","ND"],
    [18676,"08/13/2016 19:00","23,7","2,44","ND","ND","ND","ND"],
    [18677,"08/13/2016 20:00","21,1","2,57","ND","ND","ND","ND"],
    [18678,"08/13/2016 21:00","25,5","2,75","ND","ND","ND","ND"],
    [18679,"08/13/2016 22:00","53,7","3,12","ND","ND","ND","ND"],
    [18680,"08/13/2016 23:00","76,2","3,09","ND","ND","ND","ND"],
    [18681,"08/14/2016 00:00","64,8","2,86","ND","ND","ND","ND"],
    [18682,"08/14/2016 01:00","52,4","2,62","ND","ND","ND","ND"],
    [18683,"08/14/2016 02:00","45,3","2,44","ND","ND","ND","ND"],
    [18684,"08/14/2016 03:00","54,5","2,44","ND","ND","ND","ND"],
    [18685,"08/14/2016 04:00","45","2,36","ND","ND","ND","ND"],
    [18686,"08/14/2016 05:00","37,7","2,23","ND","ND","ND","ND"],
    [18687,"08/14/2016 06:00","43,6","2,23","ND","ND","ND","ND"],
    [18688,"08/14/2016 07:00","43,6","2,36","ND","ND","ND","ND"],
    [18689,"08/14/2016 08:00","45,7","2,67","ND","ND","ND","ND"],
    [18690,"08/14/2016 09:00","39","5,14","ND","ND","ND","ND"],
    [18691,"08/14/2016 10:00","40,1","7,02","ND","ND","ND","ND"],
    [18692,"08/14/2016 11:00","46,9","8,41","ND","ND","ND","ND"],
    [18693,"08/14/2016 12:00","45,8","8,2","ND","ND","ND","ND"],
    [18694,"08/14/2016 13:00","42,4","7,26","ND","ND","ND","ND"],
    [18695,"08/14/2016 14:00","39,7","5,97","ND","ND","ND","ND"],
    [18696,"08/14/2016 15:00","25,5","2,52","ND","ND","ND","ND"],
    [18697,"08/14/2016 16:00","22,4","2,41","ND","ND","ND","ND"],
    [18698,"08/14/2016 17:00","25","2,17","ND","ND","ND","ND"],
    [18699,"08/14/2016 18:00","17,7","2,02","ND","ND","ND","ND"],
    [18700,"08/14/2016 19:00","19,1","2,02","ND","ND","ND","ND"],
    [18701,"08/14/2016 20:00","13,9","1,99","ND","ND","ND","ND"],
    [18702,"08/14/2016 21:00","32,3","2,96","ND","ND","ND","ND"],
    [18703,"08/14/2016 22:00","50,2","3,09","ND","ND","ND","ND"],
    [18704,"08/14/2016 23:00","51,4","3,09","ND","ND","ND","ND"],
    [18705,"08/15/2016 00:00","55,9","3,77","ND","ND","ND","ND"],
    [18706,"08/15/2016 01:00","45,1","3,17","ND","ND","ND","ND"],
    [18707,"08/15/2016 02:00","44,8","3,01","ND","ND","ND","ND"],
    [18708,"08/15/2016 03:00","33,5","2,54","ND","ND","ND","ND"],
    [18709,"08/15/2016 04:00","29,2","3,3","ND","ND","ND","ND"],
    [18710,"08/15/2016 05:00","23,9","2,7","ND","ND","ND","ND"],
    [18711,"08/15/2016 06:00","42,2","2,78","ND","ND","ND","ND"],
    [18712,"08/15/2016 07:00","30,2","2,52","ND","ND","ND","ND"],
    [18713,"08/15/2016 08:00","38,1","2,8","ND","ND","ND","ND"],
    [18714,"08/15/2016 09:00","41,8","3,9","ND","ND","ND","ND"],
    [18715,"08/15/2016 10:00","39","7,86","ND","ND","ND","ND"],
    [18716,"08/15/2016 11:00","36,5","9,69","ND","ND","ND","ND"],
    [18717,"08/15/2016 12:00","36,1","7,18","ND","ND","ND","ND"],
    [18718,"08/15/2016 13:00","37,6","7,28","ND","ND","ND","ND"],
    [18719,"08/15/2016 14:00","23,1","3,35","ND","ND","ND","ND"],
    [18720,"08/15/2016 15:00","8","2,36","ND","ND","ND","ND"],
    [18721,"08/15/2016 16:00","8,7","2,12","ND","ND","ND","ND"],
    [18722,"08/15/2016 17:00","13,6","1,99","ND","ND","ND","ND"],
    [18723,"08/15/2016 18:00","12","1,86","ND","ND","ND","ND"],
    [18724,"08/15/2016 19:00","11,7","1,91","ND","ND","ND","ND"],
    [18725,"08/15/2016 20:00","9,1","2,15","ND","ND","ND","ND"],
    [18726,"08/15/2016 21:00","13","2,44","ND","ND","ND","ND"],
    [18727,"08/15/2016 22:00","24,2","3,07","ND","ND","ND","ND"],
    [18728,"08/15/2016 23:00","40,5","3,17","ND","ND","ND","ND"],
    [18729,"08/16/2016 00:00","43,5","3,2","ND","ND","ND","ND"],
    [18730,"08/16/2016 01:00","57,9","2,78","ND","ND","ND","ND"],
    [18731,"08/16/2016 02:00","23,8","2,2","ND","ND","ND","ND"],
    [18732,"08/16/2016 03:00","23,8","2,15","ND","ND","ND","ND"],
    [18733,"08/16/2016 04:00","19,1","2,12","ND","ND","ND","ND"],
    [18734,"08/16/2016 05:00","21,8","2,25","ND","ND","ND","ND"],
    [18735,"08/16/2016 06:00","32,4","2,31","ND","ND","ND","ND"],
    [18736,"08/16/2016 07:00","59,9","2,65","ND","ND","ND","ND"],
    [18737,"08/16/2016 08:00","46,4","2,99","ND","ND","ND","ND"],
    [18738,"08/16/2016 09:00","65,6","4,85","ND","ND","ND","ND"],
    [18739,"08/16/2016 10:00","46,1","6,31","ND","ND","ND","ND"],
    [18740,"08/16/2016 11:00","45,2","7,91","ND","ND","ND","ND"],
    [18741,"08/16/2016 12:00","53","7,94","ND","ND","ND","ND"],
    [18742,"08/16/2016 13:00","39,6","6,45","ND","ND","ND","ND"],
    [18743,"08/16/2016 14:00","44,9","5,63","ND","ND","ND","ND"],
    [18744,"08/16/2016 15:00","42,4","4,85","ND","ND","ND","ND"],
    [18745,"08/16/2016 16:00","10,3","2,57","ND","ND","ND","ND"],
    [18746,"08/16/2016 17:00","13,1","2,36","ND","ND","ND","ND"],
    [18747,"08/16/2016 18:00","14,2","2,23","ND","ND","ND","ND"],
    [18748,"08/16/2016 19:00","13,2","2,28","ND","ND","ND","ND"],
    [18749,"08/16/2016 20:00","12,1","2,2","ND","ND","ND","ND"],
    [18750,"08/16/2016 21:00","12,6","2,31","ND","ND","ND","ND"],
    [18751,"08/16/2016 22:00","21,7","2,44","ND","ND","ND","ND"],
    [18752,"08/16/2016 23:00","32,7","2,83","ND","ND","ND","ND"],
    [18753,"08/17/2016 00:00","17,4","2,49","ND","ND","ND","ND"],
    [18754,"08/17/2016 01:00","13,8","2,31","ND","ND","ND","ND"],
    [18755,"08/17/2016 02:00","19,8","2,25","ND","ND","ND","ND"],
    [18756,"08/17/2016 03:00","36,9","3,64","ND","ND","ND","ND"],
    [18757,"08/17/2016 04:00","31,2","3,2","ND","ND","ND","ND"],
    [18758,"08/17/2016 05:00","30,5","2,59","ND","ND","ND","ND"],
    [18759,"08/17/2016 06:00","45,4","3,14","ND","ND","ND","ND"],
    [18760,"08/17/2016 07:00","52,8","3,96","ND","ND","ND","ND"],
    [18761,"08/17/2016 08:00","46,7","4,22","ND","ND","ND","ND"],
    [18762,"08/17/2016 09:00","31,9","3,9","ND","ND","ND","ND"],
    [18763,"08/17/2016 10:00","21,4","5","ND","ND","ND","ND"],
    [18764,"08/17/2016 11:00","25,5","7,34","ND","ND","ND","ND"],
    [18765,"08/17/2016 12:00","25,5","5,74","ND","ND","ND","ND"],
    [18766,"08/17/2016 13:00","30,9","4,82","ND","ND","ND","ND"],
    [18767,"08/17/2016 14:00","38,5","4,32","ND","ND","ND","ND"],
    [18768,"08/17/2016 15:00","40,5","4,87","ND","ND","ND","ND"],
    [18769,"08/17/2016 16:00","19,4","2,44","ND","ND","ND","ND"],
    [18770,"08/17/2016 17:00","15,3","2,15","ND","ND","ND","ND"],
    [18771,"08/17/2016 18:00","13,9","2,36","ND","ND","ND","ND"],
    [18772,"08/17/2016 19:00","10,2","2,2","ND","ND","ND","ND"],
    [18773,"08/17/2016 20:00","13,8","2,28","ND","ND","ND","ND"],
    [18774,"08/17/2016 21:00","13,9","2,1","ND","ND","ND","ND"],
    [18775,"08/17/2016 22:00","15,2","2,28","ND","ND","ND","ND"],
    [18776,"08/17/2016 23:00","45,1","2,75","ND","ND","ND","ND"],
    [18777,"08/18/2016 00:00","38,8","2,78","ND","ND","ND","ND"],
    [18778,"08/18/2016 01:00","27,6","2,96","ND","ND","ND","ND"],
    [18779,"08/18/2016 02:00","30,9","3,17","ND","ND","ND","ND"],
    [18780,"08/18/2016 03:00","30,3","2,62","ND","ND","ND","ND"],
    [18781,"08/18/2016 04:00","18,7","2,44","ND","ND","ND","ND"],
    [18782,"08/18/2016 05:00","24,8","2,41","ND","ND","ND","ND"],
    [18783,"08/18/2016 06:00","35,8","2,78","ND","ND","ND","ND"],
    [18784,"08/18/2016 07:00","67,7","3,09","ND","ND","ND","ND"],
    [18785,"08/18/2016 08:00","53","3,51","ND","ND","ND","ND"],
    [18786,"08/18/2016 09:00","58,3","4,22","ND","ND","ND","ND"],
    [18787,"08/18/2016 10:00","66,3","10,64","ND","ND","ND","ND"],
    [18788,"08/18/2016 11:00","38,4","10,25","ND","ND","ND","ND"],
    [18789,"08/18/2016 12:00","31,6","8,49","ND","ND","ND","ND"],
    [18790,"08/18/2016 13:00","38,6","6,52","ND","ND","ND","ND"],
    [18791,"08/18/2016 14:00","41,3","5,79","ND","ND","ND","ND"],
    [18792,"08/18/2016 15:00","42","4,51","ND","ND","ND","ND"],
    [18793,"08/18/2016 16:00","22","2,73","ND","ND","ND","ND"],
    [18794,"08/18/2016 17:00","25,5","2,59","ND","ND","ND","ND"],
    [18795,"08/18/2016 18:00","20,8","2,54","ND","ND","ND","ND"],
    [18796,"08/18/2016 19:00","14,7","2,44","ND","ND","ND","ND"],
    [18797,"08/18/2016 20:00","9,4","2,38","ND","ND","ND","ND"],
    [18798,"08/18/2016 21:00","7,7","2,23","ND","ND","ND","ND"],
    [18799,"08/18/2016 22:00","7,7","2,12","ND","ND","ND","ND"],
    [18800,"08/18/2016 23:00","8,2","2,15","ND","ND","ND","ND"],
    [18801,"08/19/2016 00:00","31,8","2,91","ND","ND","ND","ND"],
    [18802,"08/19/2016 01:00","36,5","3,43","ND","ND","ND","ND"],
    [18803,"08/19/2016 02:00","36,8","3,28","ND","ND","ND","ND"],
    [18804,"08/19/2016 03:00","33,2","2,86","ND","ND","ND","ND"],
    [18805,"08/19/2016 04:00","34,3","2,83","ND","ND","ND","ND"],
    [18806,"08/19/2016 05:00","34,4","2,59","ND","ND","ND","ND"],
    [18807,"08/19/2016 06:00","44,1","2,57","ND","ND","ND","ND"],
    [18808,"08/19/2016 07:00","48,2","2,88","ND","ND","ND","ND"],
    [18809,"08/19/2016 08:00","48","2,93","ND","ND","ND","ND"],
    [18810,"08/19/2016 09:00","46,5","4,27","ND","ND","ND","ND"],
    [18811,"08/19/2016 10:00","28,6","4,64","ND","ND","ND","ND"],
    [18812,"08/19/2016 11:00","25,6","4,45","ND","ND","ND","ND"],
    [18813,"08/19/2016 12:00","29,8","3,9","ND","ND","ND","ND"],
    [18814,"08/19/2016 13:00","31,3","4,32","ND","ND","ND","ND"],
    [18815,"08/19/2016 14:00","37,1","4,45","ND","ND","ND","ND"],
    [18816,"08/19/2016 15:00","29,8","2,46","ND","ND","ND","ND"],
    [18817,"08/19/2016 16:00","20,7","2,2","ND","ND","ND","ND"],
    [18818,"08/19/2016 17:00","19,6","2,07","ND","ND","ND","ND"],
    [18819,"08/19/2016 18:00","18,8","2,1","ND","ND","ND","ND"],
    [18820,"08/19/2016 19:00","13,8","2,1","ND","ND","ND","ND"],
    [18821,"08/19/2016 20:00","8,8","2,02","ND","ND","ND","ND"],
    [18822,"08/19/2016 21:00","36,9","2,91","ND","ND","ND","ND"],
    [18823,"08/19/2016 22:00","51,5","2,88","ND","ND","ND","ND"],
    [18824,"08/19/2016 23:00","60,5","2,62","ND","ND","ND","ND"],
    [18825,"08/20/2016 00:00","33,3","2,88","ND","ND","ND","ND"],
    [18826,"08/20/2016 01:00","28","2,59","ND","ND","ND","ND"],
    [18827,"08/20/2016 02:00","26,5","2,41","ND","ND","ND","ND"],
    [18828,"08/20/2016 03:00","26,2","2,36","ND","ND","ND","ND"],
    [18829,"08/20/2016 04:00","23,5","2,12","ND","ND","ND","ND"],
    [18830,"08/20/2016 05:00","29","2,31","ND","ND","ND","ND"],
    [18831,"08/20/2016 06:00","29,5","2,36","ND","ND","ND","ND"],
    [18832,"08/20/2016 07:00","45,6","2,57","ND","ND","ND","ND"],
    [18833,"08/20/2016 08:00","39","2,8","ND","ND","ND","ND"],
    [18834,"08/20/2016 09:00","40","3,8","ND","ND","ND","ND"],
    [18835,"08/20/2016 10:00","44,7","5,84","ND","ND","ND","ND"],
    [18836,"08/20/2016 11:00","65","5,82","ND","ND","ND","ND"],
    [18837,"08/20/2016 12:00","58,4","6,79","ND","ND","ND","ND"],
    [18838,"08/20/2016 13:00","56,3","6,84","ND","ND","ND","ND"],
    [18839,"08/20/2016 14:00","54,1","6,42","ND","ND","ND","ND"],
    [18840,"08/20/2016 15:00","43,7","5,5","ND","ND","ND","ND"],
    [18841,"08/20/2016 16:00","38","3,43","ND","ND","ND","ND"],
    [18842,"08/20/2016 17:00","26,8","2,33","ND","ND","ND","ND"],
    [18843,"08/20/2016 18:00","23,9","2,12","ND","ND","ND","ND"],
    [18844,"08/20/2016 19:00","16,9","2,04","ND","ND","ND","ND"],
    [18845,"08/20/2016 20:00","23,1","2,02","ND","ND","ND","ND"],
    [18846,"08/20/2016 21:00","11,2","2,15","ND","ND","ND","ND"],
    [18847,"08/20/2016 22:00","12,8","2,38","ND","ND","ND","ND"],
    [18848,"08/20/2016 23:00","40,5","2,83","ND","ND","ND","ND"],
    [18849,"08/21/2016 00:00","40,5","2,62","ND","ND","ND","ND"],
    [18850,"08/21/2016 01:00","39,2","2,62","ND","ND","ND","ND"],
    [18851,"08/21/2016 02:00","23,7","2,44","ND","ND","ND","ND"],
    [18852,"08/21/2016 03:00","22,7","2,46","ND","ND","ND","ND"],
    [18853,"08/21/2016 04:00","21,6","2,38","ND","ND","ND","ND"],
    [18854,"08/21/2016 05:00","21,9","2,41","ND","ND","ND","ND"],
    [18855,"08/21/2016 06:00","23,1","2,38","ND","ND","ND","ND"],
    [18856,"08/21/2016 07:00","28,5","2,28","ND","ND","ND","ND"],
    [18857,"08/21/2016 08:00","35,1","2,62","ND","ND","ND","ND"],
    [18858,"08/21/2016 09:00","47,7","3,93","ND","ND","ND","ND"],
    [18859,"08/21/2016 10:00","35,9","9,17","ND","ND","ND","ND"],
    [18860,"08/21/2016 11:00","28,4","11,58","ND","ND","ND","ND"],
    [18861,"08/21/2016 12:00","29,9","6,97","ND","ND","ND","ND"],
    [18862,"08/21/2016 13:00","29,9","4,64","ND","ND","ND","ND"],
    [18863,"08/21/2016 14:00","18,5","4,14","ND","ND","ND","ND"],
    [18864,"08/21/2016 15:00","13,7","3,56","ND","ND","ND","ND"],
    [18865,"08/21/2016 16:00","30,5","2,93","ND","ND","ND","ND"],
    [18866,"08/21/2016 17:00","32,8","2,28","ND","ND","ND","ND"],
    [18867,"08/21/2016 18:00","24,6","2,12","ND","ND","ND","ND"],
    [18868,"08/21/2016 19:00","17,7","2,12","ND","ND","ND","ND"],
    [18869,"08/21/2016 20:00","18,3","2,23","ND","ND","ND","ND"],
    [18870,"08/21/2016 21:00","15,8","2,25","ND","ND","ND","ND"],
    [18871,"08/21/2016 22:00","17,4","2,38","ND","ND","ND","ND"],
    [18872,"08/21/2016 23:00","22,2","2,83","ND","ND","ND","ND"],
    [18873,"08/22/2016 00:00","29,8","2,59","ND","ND","ND","ND"],
    [18874,"08/22/2016 01:00","21,9","2,38","ND","ND","ND","ND"],
    [18875,"08/22/2016 02:00","16","2,41","ND","ND","ND","ND"],
    [18876,"08/22/2016 03:00","17,3","2,28","ND","ND","ND","ND"],
    [18877,"08/22/2016 04:00","17,9","2,44","ND","ND","ND","ND"],
    [18878,"08/22/2016 05:00","17,7","2,38","ND","ND","ND","ND"],
    [18879,"08/22/2016 06:00","30,7","2,49","ND","ND","ND","ND"],
    [18880,"08/22/2016 07:00","51,8","3,14","ND","ND","ND","ND"],
    [18881,"08/22/2016 08:00","84","3,51","ND","ND","ND","ND"],
    [18882,"08/22/2016 09:00","53,7","6,11","ND","ND","ND","ND"],
    [18883,"08/22/2016 10:00","43,3","6,24","ND","ND","ND","ND"],
    [18884,"08/22/2016 11:00","45,1","6,18","ND","ND","ND","ND"],
    [18885,"08/22/2016 12:00","41,8","7,76","ND","ND","ND","ND"],
    [18886,"08/22/2016 13:00","41,7","8,94","ND","ND","ND","ND"],
    [18887,"08/22/2016 14:00","36,4","8,57","ND","ND","ND","ND"],
    [18888,"08/22/2016 15:00","17,1","4,95","ND","ND","ND","ND"],
    [18889,"08/22/2016 16:00","21,9","4,51","ND","ND","ND","ND"],
    [18890,"08/22/2016 17:00","40,7","3,22","ND","ND","ND","ND"],
    [18891,"08/22/2016 18:00","34,2","2,83","ND","ND","ND","ND"],
    [18892,"08/22/2016 19:00","43,6","2,8","ND","ND","ND","ND"],
    [18893,"08/22/2016 20:00","26,2","3,12","ND","ND","ND","ND"],
    [18894,"08/22/2016 21:00","26,2","2,88","ND","ND","ND","ND"],
    [18895,"08/22/2016 22:00","23,8","2,88","ND","ND","ND","ND"],
    [18896,"08/22/2016 23:00","20,9","2,83","ND","ND","ND","ND"],
    [18897,"08/23/2016 00:00","16,4","2,73","ND","ND","ND","ND"],
    [18898,"08/23/2016 01:00","11,1","2,49","ND","ND","ND","ND"],
    [18899,"08/23/2016 02:00","13,7","2,38","ND","ND","ND","ND"],
    [18900,"08/23/2016 03:00","13,8","2,7","ND","ND","ND","ND"],
    [18901,"08/23/2016 04:00","21,7","2,57","ND","ND","ND","ND"],
    [18902,"08/23/2016 05:00","13,5","2,62","ND","ND","ND","ND"],
    [18903,"08/23/2016 06:00","44,4","2,86","ND","ND","ND","ND"],
    [18904,"08/23/2016 07:00","45,4","3,01","ND","ND","ND","ND"],
    [18905,"08/23/2016 08:00","83,8","4,22","ND","ND","ND","ND"],
    [18906,"08/23/2016 09:00","86,4","4,74","ND","ND","ND","ND"],
    [18907,"08/23/2016 10:00","89,7","6,52","ND","ND","ND","ND"],
    [18908,"08/23/2016 11:00","82,9","7,39","ND","ND","ND","ND"],
    [18909,"08/23/2016 12:00","37,9","6,42","ND","ND","ND","ND"],
    [18910,"08/23/2016 13:00","17,8","4,01","ND","ND","ND","ND"],
    [18911,"08/23/2016 14:00","11,5","3,12","ND","ND","ND","ND"],
    [18912,"08/23/2016 15:00","14,4","3,22","ND","ND","ND","ND"],
    [18913,"08/23/2016 16:00","36,4","2,7","ND","ND","ND","ND"],
    [18914,"08/23/2016 17:00","36,5","2,36","ND","ND","ND","ND"],
    [18915,"08/23/2016 18:00","31,1","2,02","ND","ND","ND","ND"],
    [18916,"08/23/2016 19:00","24,8","1,99","ND","ND","ND","ND"],
    [18917,"08/23/2016 20:00","17,8","1,94","ND","ND","ND","ND"],
    [18918,"08/23/2016 21:00","19","2,28","ND","ND","ND","ND"],
    [18919,"08/23/2016 22:00","36,3","2,78","ND","ND","ND","ND"],
    [18920,"08/23/2016 23:00","27,6","2,96","ND","ND","ND","ND"],
    [18921,"08/24/2016 00:00","63,4","2,93","ND","ND","ND","ND"],
    [18922,"08/24/2016 01:00","37,9","2,96","ND","ND","ND","ND"],
    [18923,"08/24/2016 02:00","39,3","2,96","ND","ND","ND","ND"],
    [18924,"08/24/2016 03:00","33,9","2,86","ND","ND","ND","ND"],
    [18925,"08/24/2016 04:00","24,9","2,54","ND","ND","ND","ND"],
    [18926,"08/24/2016 05:00","28,4","2,41","ND","ND","ND","ND"],
    [18927,"08/24/2016 06:00","54,6","2,52","ND","ND","ND","ND"],
    [18928,"08/24/2016 07:00","87,6","3,3","ND","ND","ND","ND"],
    [18929,"08/24/2016 08:00","47,2","3,07","ND","ND","ND","ND"],
    [18930,"08/24/2016 09:00","62,4","6,89","ND","ND","ND","ND"],
    [18931,"08/24/2016 10:00","61,5","6,89","ND","ND","ND","ND"],
    [18932,"08/24/2016 11:00","27,5","4,35","ND","ND","ND","ND"],
    [18933,"08/24/2016 12:00","25,1","3,72","ND","ND","ND","ND"],
    [18934,"08/24/2016 13:00","33,9","4,32","ND","ND","ND","ND"],
    [18935,"08/24/2016 14:00","49,6","7,26","ND","ND","ND","ND"],
    [18936,"08/24/2016 15:00","54,4","10,32","ND","ND","ND","ND"],
    [18937,"08/24/2016 16:00","23,3","2,62","ND","ND","ND","ND"],
    [18938,"08/24/2016 17:00","18,2","2,36","ND","ND","ND","ND"],
    [18939,"08/24/2016 18:00","20,9","2,28","ND","ND","ND","ND"],
    [18940,"08/24/2016 19:00","20,4","2,28","ND","ND","ND","ND"],
    [18941,"08/24/2016 20:00","19,2","2,15","ND","ND","ND","ND"],
    [18942,"08/24/2016 21:00","16,6","2,15","ND","ND","ND","ND"],
    [18943,"08/24/2016 22:00","25,3","2,52","ND","ND","ND","ND"],
    [18944,"08/24/2016 23:00","21,7","2,65","ND","ND","ND","ND"],
    [18945,"08/25/2016 00:00","51,8","2,99","ND","ND","ND","ND"],
    [18946,"08/25/2016 01:00","36,5","3,17","ND","ND","ND","ND"],
    [18947,"08/25/2016 02:00","39,6","3,35","ND","ND","ND","ND"],
    [18948,"08/25/2016 03:00","43,9","2,8","ND","ND","ND","ND"],
    [18949,"08/25/2016 04:00","41,7","2,57","ND","ND","ND","ND"],
    [18950,"08/25/2016 05:00","31,3","2,62","ND","ND","ND","ND"],
    [18951,"08/25/2016 06:00","45,4","3,46","ND","ND","ND","ND"],
    [18952,"08/25/2016 07:00","67,5","4,11","ND","ND","ND","ND"],
    [18953,"08/25/2016 08:00","51,4","4,24","ND","ND","ND","ND"],
    [18954,"08/25/2016 09:00","33,1","4,4","ND","ND","ND","ND"],
    [18955,"08/25/2016 10:00","29,1","5,53","ND","ND","ND","ND"],
    [18956,"08/25/2016 11:00","29,9","5,42","ND","ND","ND","ND"],
    [18957,"08/25/2016 12:00","42,6","6,81","ND","ND","ND","ND"],
    [18958,"08/25/2016 13:00","39,9","5,53","ND","ND","ND","ND"],
    [18959,"08/25/2016 14:00","39","2,57","ND","ND","ND","ND"],
    [18960,"08/25/2016 15:00","22,9","2,15","ND","ND","ND","ND"],
    [18961,"08/25/2016 16:00","18,8","2,36","ND","ND","ND","ND"],
    [18962,"08/25/2016 17:00","18,6","2,1","ND","ND","ND","ND"],
    [18963,"08/25/2016 18:00","18,7","2,12","ND","ND","ND","ND"],
    [18964,"08/25/2016 19:00","15,9","2,12","ND","ND","ND","ND"],
    [18965,"08/25/2016 20:00","14,5","2,2","ND","ND","ND","ND"],
    [18966,"08/25/2016 21:00","14,2","2,25","ND","ND","ND","ND"],
    [18967,"08/25/2016 22:00","37,5","2,91","ND","ND","ND","ND"],
    [18968,"08/25/2016 23:00","35","2,93","ND","ND","ND","ND"],
    [18969,"08/26/2016 00:00","28,5","3,01","ND","ND","ND","ND"],
    [18970,"08/26/2016 01:00","21,4","2,78","ND","ND","ND","ND"],
    [18971,"08/26/2016 02:00","24,5","2,46","ND","ND","ND","ND"],
    [18972,"08/26/2016 03:00","24,5","2,15","ND","ND","ND","ND"],
    [18973,"08/26/2016 04:00","25,3","2,2","ND","ND","ND","ND"],
    [18974,"08/26/2016 05:00","30,3","2,25","ND","ND","ND","ND"],
    [18975,"08/26/2016 06:00","33,6","3,14","ND","ND","ND","ND"],
    [18976,"08/26/2016 07:00","44,6","2,96","ND","ND","ND","ND"],
    [18977,"08/26/2016 08:00","58,3","3,43","ND","ND","ND","ND"],
    [18978,"08/26/2016 09:00","75,1","7,13","ND","ND","ND","ND"],
    [18979,"08/26/2016 10:00","67","10,64","ND","ND","ND","ND"],
    [18980,"08/26/2016 11:00","65,5","17,53","ND","ND","ND","ND"],
    [18981,"08/26/2016 12:00","45,7","12,52","ND","ND","ND","ND"],
    [18982,"08/26/2016 13:00","34,6","7,68","ND","ND","ND","ND"],
    [18983,"08/26/2016 14:00","17","3,28","ND","ND","ND","ND"],
    [18984,"08/26/2016 15:00","14","2,8","ND","ND","ND","ND"],
    [18985,"08/26/2016 16:00","12,3","2,65","ND","ND","ND","ND"],
    [18986,"08/26/2016 17:00","14,8","2,38","ND","ND","ND","ND"],
    [18987,"08/26/2016 18:00","18,2","2,33","ND","ND","ND","ND"],
    [18988,"08/26/2016 19:00","16,1","2,36","ND","ND","ND","ND"],
    [18989,"08/26/2016 20:00","9,9","2,38","ND","ND","ND","ND"],
    [18990,"08/26/2016 21:00","30,4","2,8","ND","ND","ND","ND"],
    [18991,"08/26/2016 22:00","31,7","3,04","ND","ND","ND","ND"],
    [18992,"08/26/2016 23:00","30,8","3,09","ND","ND","ND","ND"],
    [18993,"08/27/2016 00:00","19,5","3,09","ND","ND","ND","ND"],
    [18994,"08/27/2016 01:00","16,7","2,99","ND","ND","ND","ND"],
    [18995,"08/27/2016 02:00","20","2,73","ND","ND","ND","ND"],
    [18996,"08/27/2016 03:00","19,4","2,65","ND","ND","ND","ND"],
    [18997,"08/27/2016 04:00","18,3","2,52","ND","ND","ND","ND"],
    [18998,"08/27/2016 05:00","18,3","2,52","ND","ND","ND","ND"],
    [18999,"08/27/2016 06:00","19,6","2,46","ND","ND","ND","ND"],
    [19000,"08/27/2016 07:00","32,8","2,91","ND","ND","ND","ND"],
    [19001,"08/27/2016 08:00","41,6","3,12","ND","ND","ND","ND"],
    [19002,"08/27/2016 09:00","56,8","4,14","ND","ND","ND","ND"],
    [19003,"08/27/2016 10:00","42,6","5,03","ND","ND","ND","ND"],
    [19004,"08/27/2016 11:00","41,2","5,29","ND","ND","ND","ND"],
    [19005,"08/27/2016 12:00","30,1","5,97","ND","ND","ND","ND"],
    [19006,"08/27/2016 13:00","25,5","5,08","ND","ND","ND","ND"],
    [19007,"08/27/2016 14:00","30,2","4,45","ND","ND","ND","ND"],
    [19008,"08/27/2016 15:00","36,9","4,32","ND","ND","ND","ND"],
    [19009,"08/27/2016 16:00","40,6","4,4","ND","ND","ND","ND"],
    [19010,"08/27/2016 17:00","37,6","4,66","ND","ND","ND","ND"],
    [19011,"08/27/2016 18:00","42,9","2,7","ND","ND","ND","ND"],
    [19012,"08/27/2016 19:00","42,9","2,25","ND","ND","ND","ND"],
    [19013,"08/27/2016 20:00","13,6","2,17","ND","ND","ND","ND"],
    [19014,"08/27/2016 21:00","9,6","2,25","ND","ND","ND","ND"],
    [19015,"08/27/2016 22:00","15,1","2,49","ND","ND","ND","ND"],
    [19016,"08/27/2016 23:00","41,2","2,93","ND","ND","ND","ND"],
    [19017,"08/28/2016 00:00","52,9","2,91","ND","ND","ND","ND"],
    [19018,"08/28/2016 01:00","41,6","2,7","ND","ND","ND","ND"],
    [19019,"08/28/2016 02:00","36,8","2,62","ND","ND","ND","ND"],
    [19020,"08/28/2016 03:00","34,5","2,52","ND","ND","ND","ND"],
    [19021,"08/28/2016 04:00","36,3","2,38","ND","ND","ND","ND"],
    [19022,"08/28/2016 05:00","37,9","2,52","ND","ND","ND","ND"],
    [19023,"08/28/2016 06:00","41,2","2,59","ND","ND","ND","ND"],
    [19024,"08/28/2016 07:00","39,1","2,62","ND","ND","ND","ND"],
    [19025,"08/28/2016 08:00","49","3,59","ND","ND","ND","ND"],
    [19026,"08/28/2016 09:00","44,1","4,61","ND","ND","ND","ND"],
    [19027,"08/28/2016 10:00","46,1","6,71","ND","ND","ND","ND"],
    [19028,"08/28/2016 11:00","33,1","6,89","ND","ND","ND","ND"],
    [19029,"08/28/2016 12:00","34,1","6,73","ND","ND","ND","ND"],
    [19030,"08/28/2016 13:00","38,5","6,21","ND","ND","ND","ND"],
    [19031,"08/28/2016 14:00","34,7","5,45","ND","ND","ND","ND"],
    [19032,"08/28/2016 15:00","31","2,88","ND","ND","ND","ND"],
    [19033,"08/28/2016 16:00","20,6","2,33","ND","ND","ND","ND"],
    [19034,"08/28/2016 17:00","17,7","2,2","ND","ND","ND","ND"],
    [19035,"08/28/2016 18:00","28,8","2,2","ND","ND","ND","ND"],
    [19036,"08/28/2016 19:00","16,1","2,28","ND","ND","ND","ND"],
    [19037,"08/28/2016 20:00","13,2","2,36","ND","ND","ND","ND"],
    [19038,"08/28/2016 21:00","17,8","2,57","ND","ND","ND","ND"],
    [19039,"08/28/2016 22:00","43,1","2,65","ND","ND","ND","ND"],
    [19040,"08/28/2016 23:00","30,8","2,41","ND","ND","ND","ND"],
    [19041,"08/29/2016 00:00","16,6","2,38","ND","ND","ND","ND"],
    [19042,"08/29/2016 01:00","13,5","2,33","ND","ND","ND","ND"],
    [19043,"08/29/2016 02:00","18,8","2,31","ND","ND","ND","ND"],
    [19044,"08/29/2016 03:00","14,3","2,2","ND","ND","ND","ND"],
    [19045,"08/29/2016 04:00","10,1","2,12","ND","ND","ND","ND"],
    [19046,"08/29/2016 05:00","19,1","2,41","ND","ND","ND","ND"],
    [19047,"08/29/2016 06:00","25,5","2,62","ND","ND","ND","ND"],
    [19048,"08/29/2016 07:00","41,4","2,73","ND","ND","ND","ND"],
    [19049,"08/29/2016 08:00","40,3","3,67","ND","ND","ND","ND"],
    [19050,"08/29/2016 09:00","41,3","6,08","ND","ND","ND","ND"],
    [19051,"08/29/2016 10:00","30,8","6,37","ND","ND","ND","ND"],
    [19052,"08/29/2016 11:00","31,7","6,13","ND","ND","ND","ND"],
    [19053,"08/29/2016 12:00","40,7","6,11","ND","ND","ND","ND"],
    [19054,"08/29/2016 13:00","40,7","9,35","ND","ND","ND","ND"],
    [19055,"08/29/2016 14:00","41,7","11,61","ND","ND","ND","ND"],
    [19056,"08/29/2016 15:00","11,7","2,67","ND","ND","ND","ND"],
    [19057,"08/29/2016 16:00","9,1","2,33","ND","ND","ND","ND"],
    [19058,"08/29/2016 17:00","12,6","2,31","ND","ND","ND","ND"],
    [19059,"08/29/2016 18:00","13,6","2,46","ND","ND","ND","ND"],
    [19060,"08/29/2016 19:00","12,9","2,1","ND","ND","ND","ND"],
    [19061,"08/29/2016 20:00","9,6","2,04","ND","ND","ND","ND"],
    [19062,"08/29/2016 21:00","8,1","1,91","ND","ND","ND","ND"],
    [19063,"08/29/2016 22:00","4,8","2,02","ND","ND","ND","ND"],
    [19064,"08/29/2016 23:00","39","3,22","ND","ND","ND","ND"],
    [19065,"08/30/2016 00:00","42,8","3,04","ND","ND","ND","ND"],
    [19066,"08/30/2016 01:00","29,9","3,17","ND","ND","ND","ND"],
    [19067,"08/30/2016 02:00","29,9","2,67","ND","ND","ND","ND"],
    [19068,"08/30/2016 03:00","34,6","2,67","ND","ND","ND","ND"],
    [19069,"08/30/2016 04:00","41,4","2,62","ND","ND","ND","ND"],
    [19070,"08/30/2016 05:00","34,6","2,54","ND","ND","ND","ND"],
    [19071,"08/30/2016 06:00","38,3","2,75","ND","ND","ND","ND"],
    [19072,"08/30/2016 07:00","45,2","3,04","ND","ND","ND","ND"],
    [19073,"08/30/2016 08:00","50,6","3,83","ND","ND","ND","ND"],
    [19074,"08/30/2016 09:00","47,7","4,19","ND","ND","ND","ND"],
    [19075,"08/30/2016 10:00","49,5","4,66","ND","ND","ND","ND"],
    [19076,"08/30/2016 11:00","44,8","5,9","ND","ND","ND","ND"],
    [19077,"08/30/2016 12:00","35,9","7,02","ND","ND","ND","ND"],
    [19078,"08/30/2016 13:00","37,1","6,5","ND","ND","ND","ND"],
    [19079,"08/30/2016 14:00","42,1","6,63","ND","ND","ND","ND"],
    [19080,"08/30/2016 15:00","45,6","8,7","ND","ND","ND","ND"],
    [19081,"08/30/2016 16:00","42,8","9,01","ND","ND","ND","ND"],
    [19082,"08/30/2016 17:00","17","3,38","ND","ND","ND","ND"],
    [19083,"08/30/2016 18:00","14,7","2,73","ND","ND","ND","ND"],
    [19084,"08/30/2016 19:00","12","2,75","ND","ND","ND","ND"],
    [19085,"08/30/2016 20:00","18,1","2,62","ND","ND","ND","ND"],
    [19086,"08/30/2016 21:00","10,8","2,2","ND","ND","ND","ND"],
    [19087,"08/30/2016 22:00","13,4","2,7","ND","ND","ND","ND"],
    [19088,"08/30/2016 23:00","36","2,93","ND","ND","ND","ND"],
    [19089,"08/31/2016 00:00","40,2","3,33","ND","ND","ND","ND"],
    [19090,"08/31/2016 01:00","44,8","2,91","ND","ND","ND","ND"],
    [19091,"08/31/2016 02:00","38,8","2,83","ND","ND","ND","ND"],
    [19092,"08/31/2016 03:00","27","2,8","ND","ND","ND","ND"],
    [19093,"08/31/2016 04:00","28,3","2,59","ND","ND","ND","ND"],
    [19094,"08/31/2016 05:00","41","2,8","ND","ND","ND","ND"],
    [19095,"08/31/2016 06:00","49,2","2,8","ND","ND","ND","ND"],
    [19096,"08/31/2016 07:00","61,6","3,35","ND","ND","ND","ND"],
    [19097,"08/31/2016 08:00","58,3","4,04","ND","ND","ND","ND"],
    [19098,"08/31/2016 09:00","49,7","7,02","ND","ND","ND","ND"],
    [19099,"08/31/2016 10:00","61","10,01","ND","ND","ND","ND"],
    [19100,"08/31/2016 11:00","53,8","10,35","ND","ND","ND","ND"],
    [19101,"08/31/2016 12:00","50,9","10,66","ND","ND","ND","ND"],
    [19102,"08/31/2016 13:00","47,8","11,92","ND","ND","ND","ND"],
    [19103,"08/31/2016 14:00","44,1","8,7","ND","ND","ND","ND"],
    [19104,"08/31/2016 15:00","19,2","4,22","ND","ND","ND","ND"],
    [19105,"08/31/2016 16:00","12,3","2,65","ND","ND","ND","ND"],
    [19106,"08/31/2016 17:00","19,3","2,7","ND","ND","ND","ND"],
    [19107,"08/31/2016 18:00","35,4","3,04","ND","ND","ND","ND"],
    [19108,"08/31/2016 19:00","30,2","3,48","ND","ND","ND","ND"],
    [19109,"08/31/2016 20:00","40","3,83","ND","ND","ND","ND"],
    [19110,"08/31/2016 21:00","20,1","3,04","ND","ND","ND","ND"],
    [19111,"08/31/2016 22:00","17,5","2,59","ND","ND","ND","ND"],
    [19112,"08/31/2016 23:00","10,7","2,59","ND","ND","ND","ND"],
    [19113,"42378","18,3","2,54","ND","ND","ND","ND"],
    [19114,"42378,04167","13,3","ND","ND","ND","ND","ND"],
    [19115,"42378,08333","14,9","ND","ND","ND","ND","ND"],
    [19116,"42378,125","16,3","ND","ND","ND","ND","ND"],
    [19117,"42378,16667","15,4","ND","ND","ND","ND","ND"],
    [19118,"42378,20833","14,8","ND","ND","ND","ND","ND"],
    [19119,"42378,25","12,4","ND","ND","ND","ND","ND"],
    [19120,"42378,29167","16,3","0","ND","ND","ND","ND"],
    [19121,"42378,33333","19,4","0,34","ND","ND","ND","ND"],
    [19122,"42378,375","20,3","0,71","ND","ND","ND","ND"],
    [19123,"42378,41667","18,7","0,79","ND","ND","ND","ND"],
    [19124,"42378,45833","16,8","0,47","ND","ND","ND","ND"],
    [19125,"42378,5","12,7","ND","ND","ND","ND","ND"],
    [19126,"42378,54167","10","ND","ND","ND","ND","ND"],
    [19127,"42378,58333","18,3","ND","ND","ND","ND","ND"],
    [19128,"42378,625","19,6","ND","ND","ND","ND","ND"],
    [19129,"42378,66667","24","ND","ND","ND","ND","ND"],
    [19130,"42378,70833","16,7","ND","ND","ND","ND","ND"],
    [19131,"42378,75","9,9","ND","ND","ND","ND","ND"],
    [19132,"42378,79167","11,1","ND","ND","ND","ND","ND"],
    [19133,"42378,83333","29,6","ND","ND","ND","ND","ND"],
    [19134,"42378,875","29,6","ND","ND","ND","ND","ND"],
    [19135,"42378,91667","21,7","ND","ND","ND","ND","ND"],
    [19136,"42378,95833","49,2","ND","ND","ND","ND","ND"],
    [19137,"42409","26,8","ND","ND","ND","ND","ND"],
    [19138,"42409,04167","19,8","ND","ND","ND","ND","ND"],
    [19139,"42409,08333","16,9","ND","ND","ND","ND","ND"],
    [19140,"42409,125","14,5","ND","ND","ND","ND","ND"],
    [19141,"42409,16667","13,5","ND","ND","ND","ND","ND"],
    [19142,"42409,20833","22,5","ND","ND","ND","ND","ND"],
    [19143,"42409,25","42,5","0,1","ND","ND","ND","ND"],
    [19144,"42409,29167","47,1","0,45","ND","ND","ND","ND"],
    [19145,"42409,33333","51,2","0,63","ND","ND","ND","ND"],
    [19146,"42409,375","47,7","1,86","ND","ND","ND","ND"],
    [19147,"42409,41667","26,9","3,2","ND","ND","ND","ND"],
    [19148,"42409,45833","21,7","2,7","ND","ND","ND","ND"],
    [19149,"42409,5","24,3","1,83","ND","ND","ND","ND"],
    [19150,"42409,54167","35,3","1,49","ND","ND","ND","ND"],
    [19151,"42409,58333","48,2","3,98","ND","ND","ND","ND"],
    [19152,"42409,625","28,9","2,75","ND","ND","ND","ND"],
    [19153,"42409,66667","11,4","ND","ND","ND","ND","ND"],
    [19154,"42409,70833","15,4","ND","ND","ND","ND","ND"],
    [19155,"42409,75","17,3","ND","ND","ND","ND","ND"],
    [19156,"42409,79167","17,3","ND","ND","ND","ND","ND"],
    [19157,"42409,83333","15,1","ND","ND","ND","ND","ND"],
    [19158,"42409,875","12,4","ND","ND","ND","ND","ND"],
    [19159,"42409,91667","17,9","ND","ND","ND","ND","ND"],
    [19160,"42409,95833","29","ND","ND","ND","ND","ND"],
    [19161,"42438","20,9","ND","ND","ND","ND","ND"],
    [19162,"42438,04167","19,7","ND","ND","ND","ND","ND"],
    [19163,"42438,08333","16,4","ND","ND","ND","ND","ND"],
    [19164,"42438,125","20,5","ND","ND","ND","ND","ND"],
    [19165,"42438,16667","21,2","ND","ND","ND","ND","ND"],
    [19166,"42438,20833","25,2","ND","ND","ND","ND","ND"],
    [19167,"42438,25","25,2","ND","ND","ND","ND","ND"],
    [19168,"42438,29167","42,4","ND","ND","ND","ND","ND"],
    [19169,"42438,33333","49","0,16","ND","ND","ND","ND"],
    [19170,"42438,375","44,3","2,12","ND","ND","ND","ND"],
    [19171,"42438,41667","37,4","3,2","ND","ND","ND","ND"],
    [19172,"42438,45833","37,1","2,96","ND","ND","ND","ND"],
    [19173,"42438,5","37,6","3,12","ND","ND","ND","ND"],
    [19174,"42438,54167","39,9","2,93","ND","ND","ND","ND"],
    [19175,"42438,58333","37,2","4,4","ND","ND","ND","ND"],
    [19176,"42438,625","33,3","2,04","ND","ND","ND","ND"],
    [19177,"42438,66667","22,2","0,03","ND","ND","ND","ND"],
    [19178,"42438,70833","18,6","ND","ND","ND","ND","ND"],
    [19179,"42438,75","14","ND","ND","ND","ND","ND"],
    [19180,"42438,79167","16,2","ND","ND","ND","ND","ND"],
    [19181,"42438,83333","11,3","ND","ND","ND","ND","ND"],
    [19182,"42438,875","6,4","ND","ND","ND","ND","ND"],
    [19183,"42438,91667","6,4","ND","ND","ND","ND","ND"],
    [19184,"42438,95833","46,1","ND","ND","ND","ND","ND"],
    [19185,"42469","26,1","ND","ND","ND","ND","ND"],
    [19186,"42469,04167","22,1","ND","ND","ND","ND","ND"],
    [19187,"42469,08333","27","ND","ND","ND","ND","ND"],
    [19188,"42469,125","23,7","ND","ND","ND","ND","ND"],
    [19189,"42469,16667","26,6","ND","ND","ND","ND","ND"],
    [19190,"42469,20833","26,5","ND","ND","ND","ND","ND"],
    [19191,"42469,25","24,1","ND","ND","ND","ND","ND"],
    [19192,"42469,29167","32,4","ND","ND","ND","ND","ND"],
    [19193,"42469,33333","34,3","0,31","ND","ND","ND","ND"],
    [19194,"42469,375","36,4","1,62","ND","ND","ND","ND"],
    [19195,"42469,41667","32,8","1,86","ND","ND","ND","ND"],
    [19196,"42469,45833","26,4","3,85","ND","ND","ND","ND"],
    [19197,"42469,5","26,9","3,2","ND","ND","ND","ND"],
    [19198,"42469,54167","25,4","2,25","ND","ND","ND","ND"],
    [19199,"42469,58333","25,4","1,52","ND","ND","ND","ND"],
    [19200,"42469,625","14,8","ND","ND","ND","ND","ND"],
    [19201,"42469,66667","9,2","ND","ND","ND","ND","ND"],
    [19202,"42469,70833","25,4","ND","ND","ND","ND","ND"],
    [19203,"42469,75","13,5","ND","ND","ND","ND","ND"],
    [19204,"42469,79167","35,9","ND","ND","ND","ND","ND"],
    [19205,"42469,83333","26,5","ND","ND","ND","ND","ND"],
    [19206,"42469,875","16,8","ND","ND","ND","ND","ND"],
    [19207,"42469,91667","20,5","ND","ND","ND","ND","ND"],
    [19208,"42469,95833","23,2","ND","ND","ND","ND","ND"],
    [19209,"42499","23,1","ND","ND","ND","ND","ND"],
    [19210,"42499,04167","17,2","ND","ND","ND","ND","ND"],
    [19211,"42499,08333","21","ND","ND","ND","ND","ND"],
    [19212,"42499,125","10,9","ND","ND","ND","ND","ND"],
    [19213,"42499,16667","12,1","ND","ND","ND","ND","ND"],
    [19214,"42499,20833","14,7","ND","ND","ND","ND","ND"],
    [19215,"42499,25","32","ND","ND","ND","ND","ND"],
    [19216,"42499,29167","43,5","ND","ND","ND","ND","ND"],
    [19217,"42499,33333","52,2","0,55","ND","ND","ND","ND"],
    [19218,"42499,375","45,6","1,05","ND","ND","ND","ND"],
    [19219,"42499,41667","47","1","ND","ND","ND","ND"],
    [19220,"42499,45833","55,9","1,28","ND","ND","ND","ND"],
    [19221,"42499,5","44,2","1,18","ND","ND","ND","ND"],
    [19222,"42499,54167","32,8","1,44","ND","ND","ND","ND"],
    [19223,"42499,58333","37,1","1,78","ND","ND","ND","ND"],
    [19224,"42499,625","32,9","1,34","ND","ND","ND","ND"],
    [19225,"42499,66667","13,3","ND","ND","ND","ND","ND"],
    [19226,"42499,70833","11,9","ND","ND","ND","ND","ND"],
    [19227,"42499,75","14,7","ND","ND","ND","ND","ND"],
    [19228,"42499,79167","14,3","ND","ND","ND","ND","ND"],
    [19229,"42499,83333","11,7","ND","ND","ND","ND","ND"],
    [19230,"42499,875","5,5","ND","ND","ND","ND","ND"],
    [19231,"42499,91667","13,7","ND","ND","ND","ND","ND"],
    [19232,"42499,95833","30,9","ND","ND","ND","ND","ND"],
    [19233,"42530","29","ND","ND","ND","ND","ND"],
    [19234,"42530,04167","31,4","ND","ND","ND","ND","ND"],
    [19235,"42530,08333","23,6","ND","ND","ND","ND","ND"],
    [19236,"42530,125","24,3","ND","ND","ND","ND","ND"],
    [19237,"42530,16667","28,3","ND","ND","ND","ND","ND"],
    [19238,"42530,20833","25,2","ND","ND","ND","ND","ND"],
    [19239,"42530,25","34,7","0,03","ND","ND","ND","ND"],
    [19240,"42530,29167","46,3","0,21","ND","ND","ND","ND"],
    [19241,"42530,33333","40,9","0,55","ND","ND","ND","ND"],
    [19242,"42530,375","52,6","2,99","ND","ND","ND","ND"],
    [19243,"42530,41667","36,9","5,48","ND","ND","ND","ND"],
    [19244,"42530,45833","53,8","5,53","ND","ND","ND","ND"],
    [19245,"42530,5","ND","7,34","ND","ND","ND","ND"],
    [19246,"42530,54167","ND","7,34","ND","ND","ND","ND"],
    [19247,"42530,58333","ND","4,45","ND","ND","ND","ND"],
    [19248,"42530,625","ND","ND","ND","ND","ND","ND"],
    [19249,"42530,66667","10,9","ND","ND","ND","ND","ND"],
    [19250,"42530,70833","12,3","21,75","ND","ND","ND","ND"],
    [19251,"42530,75","26,1","ND","ND","ND","ND","ND"],
    [19252,"42530,79167","28","ND","ND","ND","ND","ND"],
    [19253,"42530,83333","23","ND","ND","ND","ND","ND"],
    [19254,"42530,875","10","ND","ND","ND","ND","ND"],
    [19255,"42530,91667","17,3","ND","ND","ND","ND","ND"],
    [19256,"42530,95833","14,5","ND","ND","ND","ND","ND"],
    [19257,"42560","8,7","ND","ND","ND","ND","ND"],
    [19258,"42560,04167","16,6","ND","ND","ND","ND","ND"],
    [19259,"42560,08333","10","ND","ND","ND","ND","ND"],
    [19260,"42560,125","11,8","ND","ND","ND","ND","ND"],
    [19261,"42560,16667","14,2","ND","ND","ND","ND","ND"],
    [19262,"42560,20833","14,8","ND","ND","ND","ND","ND"],
    [19263,"42560,25","45,4","ND","ND","ND","ND","ND"],
    [19264,"42560,29167","54,3","ND","ND","ND","ND","ND"],
    [19265,"42560,33333","62,2","ND","ND","ND","ND","ND"],
    [19266,"42560,375","100,1","0,76","ND","ND","ND","ND"],
    [19267,"42560,41667","94,5","7,02","ND","ND","ND","ND"],
    [19268,"42560,45833","72,4","14,1","ND","ND","ND","ND"],
    [19269,"42560,5","48,8","9,8","ND","ND","ND","ND"],
    [19270,"42560,54167","32,6","4,85","ND","ND","ND","ND"],
    [19271,"42560,58333","46,7","6,42","ND","ND","ND","ND"],
    [19272,"42560,625","35,9","5,06","ND","ND","ND","ND"],
    [19273,"42560,66667","ND","3,25","ND","ND","ND","ND"],
    [19274,"42560,70833","39","1,68","ND","ND","ND","ND"],
    [19275,"42560,75","55,4","1,15","ND","ND","ND","ND"],
    [19276,"42560,79167","42","0,6","ND","ND","ND","ND"],
    [19277,"42560,83333","41,5","0,37","ND","ND","ND","ND"],
    [19278,"42560,875","37,9","0,5","ND","ND","ND","ND"],
    [19279,"42560,91667","48,2","ND","ND","ND","ND","ND"],
    [19280,"42560,95833","39,4","ND","ND","ND","ND","ND"],
    [19281,"42591","30,4","ND","ND","ND","ND","ND"],
    [19282,"42591,04167","30","ND","ND","ND","ND","ND"],
    [19283,"42591,08333","50,7","ND","ND","ND","ND","ND"],
    [19284,"42591,125","46,7","ND","ND","ND","ND","ND"],
    [19285,"42591,16667","28,5","ND","ND","ND","ND","ND"],
    [19286,"42591,20833","40","ND","ND","ND","ND","ND"],
    [19287,"42591,25","52,5","ND","ND","ND","ND","ND"],
    [19288,"42591,29167","59,9","ND","ND","ND","ND","ND"],
    [19289,"42591,33333","65,5","0,13","ND","ND","ND","ND"],
    [19290,"42591,375","57,1","0,16","ND","ND","ND","ND"],
    [19291,"42591,41667","51,9","0,73","ND","ND","ND","ND"],
    [19292,"42591,45833","40,7","1,05","ND","ND","ND","ND"],
    [19293,"42591,5","42","0,89","ND","ND","ND","ND"],
    [19294,"42591,54167","48,7","1,05","ND","ND","ND","ND"],
    [19295,"42591,58333","58,7","1,13","ND","ND","ND","ND"],
    [19296,"42591,625","71,9","2,7","ND","ND","ND","ND"],
    [19297,"42591,66667","40,4","0,42","ND","ND","ND","ND"],
    [19298,"42591,70833","20,8","ND","ND","ND","ND","ND"],
    [19299,"42591,75","18,8","ND","ND","ND","ND","ND"],
    [19300,"42591,79167","17,8","ND","ND","ND","ND","ND"],
    [19301,"42591,83333","11,3","ND","ND","ND","ND","ND"],
    [19302,"42591,875","12,5","ND","ND","ND","ND","ND"],
    [19303,"42591,91667","41,5","ND","ND","ND","ND","ND"],
    [19304,"42591,95833","44,1","ND","ND","ND","ND","ND"],
    [19305,"42622","31,8","ND","ND","ND","ND","ND"],
    [19306,"42622,04167","30,2","ND","ND","ND","ND","ND"],
    [19307,"42622,08333","39,6","ND","ND","ND","ND","ND"],
    [19308,"42622,125","27,3","ND","ND","ND","ND","ND"],
    [19309,"42622,16667","29,6","ND","ND","ND","ND","ND"],
    [19310,"42622,20833","38,6","ND","ND","ND","ND","ND"],
    [19311,"42622,25","38,3","ND","ND","ND","ND","ND"],
    [19312,"42622,29167","36,9","ND","ND","ND","ND","ND"],
    [19313,"42622,33333","17,8","ND","ND","ND","ND","ND"],
    [19314,"42622,375","29,9","0,66","ND","ND","ND","ND"],
    [19315,"42622,41667","40,3","1,05","ND","ND","ND","ND"],
    [19316,"42622,45833","29,4","0,63","ND","ND","ND","ND"],
    [19317,"42622,5","35,2","0,47","ND","ND","ND","ND"],
    [19318,"42622,54167","39,8","0,24","ND","ND","ND","ND"],
    [19319,"42622,58333","32,7","0,13","ND","ND","ND","ND"],
    [19320,"42622,625","25,2","ND","ND","ND","ND","ND"],
    [19321,"42622,66667","17,4","ND","ND","ND","ND","ND"],
    [19322,"42622,70833","15,4","ND","ND","ND","ND","ND"],
    [19323,"42622,75","15,5","ND","ND","ND","ND","ND"],
    [19324,"42622,79167","17,7","ND","ND","ND","ND","ND"],
    [19325,"42622,83333","20,2","ND","ND","ND","ND","ND"],
    [19326,"42622,875","22,4","ND","ND","ND","ND","ND"],
    [19327,"42622,91667","46,4","ND","ND","ND","ND","ND"],
    [19328,"42622,95833","38,8","ND","ND","ND","ND","ND"],
    [19329,"42652","43,8","ND","ND","ND","ND","ND"],
    [19330,"42652,04167","31,9","ND","ND","ND","ND","ND"],
    [19331,"42652,08333","21,2","ND","ND","ND","ND","ND"],
    [19332,"42652,125","54,1","ND","ND","ND","ND","ND"],
    [19333,"42652,16667","37","ND","ND","ND","ND","ND"],
    [19334,"42652,20833","41,7","ND","ND","ND","ND","ND"],
    [19335,"42652,25","43,3","ND","ND","ND","ND","ND"],
    [19336,"42652,29167","39,4","0,13","ND","ND","ND","ND"],
    [19337,"42652,33333","48,7","1,13","ND","ND","ND","ND"],
    [19338,"42652,375","51,5","1,23","ND","ND","ND","ND"],
    [19339,"42652,41667","48,1","2,44","ND","ND","ND","ND"],
    [19340,"42652,45833","32,2","2,36","ND","ND","ND","ND"],
    [19341,"42652,5","32,2","1,47","ND","ND","ND","ND"],
    [19342,"42652,54167","39,7","1,55","ND","ND","ND","ND"],
    [19343,"42652,58333","45,3","0,94","ND","ND","ND","ND"],
    [19344,"42652,625","23,8","ND","ND","ND","ND","ND"],
    [19345,"42652,66667","18","ND","ND","ND","ND","ND"],
    [19346,"42652,70833","8,4","ND","ND","ND","ND","ND"],
    [19347,"42652,75","14,2","ND","ND","ND","ND","ND"],
    [19348,"42652,79167","18,3","ND","ND","ND","ND","ND"],
    [19349,"42652,83333","12,9","ND","ND","ND","ND","ND"],
    [19350,"42652,875","24,8","ND","ND","ND","ND","ND"],
    [19351,"42652,91667","47,6","ND","ND","ND","ND","ND"],
    [19352,"42652,95833","50,5","ND","ND","ND","ND","ND"],
    [19353,"42683","46,7","ND","ND","ND","ND","ND"],
    [19354,"42683,04167","36,7","ND","ND","ND","ND","ND"],
    [19355,"42683,08333","45,9","ND","ND","ND","ND","ND"],
    [19356,"42683,125","40,9","0,08","ND","ND","ND","ND"],
    [19357,"42683,16667","19,8","ND","ND","ND","ND","ND"],
    [19358,"42683,20833","20","ND","ND","ND","ND","ND"],
    [19359,"42683,25","23,2","ND","ND","ND","ND","ND"],
    [19360,"42683,29167","24,7","ND","ND","ND","ND","ND"],
    [19361,"42683,33333","32,6","ND","ND","ND","ND","ND"],
    [19362,"42683,375","40,1","1,07","ND","ND","ND","ND"],
    [19363,"42683,41667","46,2","2,1","ND","ND","ND","ND"],
    [19364,"42683,45833","40,1","1,13","ND","ND","ND","ND"],
    [19365,"42683,5","30","0,81","ND","ND","ND","ND"],
    [19366,"42683,54167","2","ND","ND","ND","ND","ND"],
    [19367,"42683,58333","2,7","ND","ND","ND","ND","ND"],
    [19368,"42683,625","2,4","ND","ND","ND","ND","ND"],
    [19369,"42683,66667","7,4","ND","ND","ND","ND","ND"],
    [19370,"42683,70833","12,9","ND","ND","ND","ND","ND"],
    [19371,"42683,75","19,6","ND","ND","ND","ND","ND"],
    [19372,"42683,79167","29,1","ND","ND","ND","ND","ND"],
    [19373,"42683,83333","22,1","ND","ND","ND","ND","ND"],
    [19374,"42683,875","22,8","ND","ND","ND","ND","ND"],
    [19375,"42683,91667","29","ND","ND","ND","ND","ND"],
    [19376,"42683,95833","27,6","ND","ND","ND","ND","ND"],
    [19377,"42713","18,2","ND","ND","ND","ND","ND"],
    [19378,"42713,04167","19,5","ND","ND","ND","ND","ND"],
    [19379,"42713,08333","17,9","ND","ND","ND","ND","ND"],
    [19380,"42713,125","18","ND","ND","ND","ND","ND"],
    [19381,"42713,16667","18,9","ND","ND","ND","ND","ND"],
    [19382,"42713,20833","20","ND","ND","ND","ND","ND"],
    [19383,"42713,25","32,6","ND","ND","ND","ND","ND"],
    [19384,"42713,29167","49,4","ND","ND","ND","ND","ND"],
    [19385,"42713,33333","56,4","ND","ND","ND","ND","ND"],
    [19386,"42713,375","70","0,52","ND","ND","ND","ND"],
    [19387,"42713,41667","46,6","0,5","ND","ND","ND","ND"],
    [19388,"42713,45833","40,9","0,76","ND","ND","ND","ND"],
    [19389,"42713,5","39,3","1,15","ND","ND","ND","ND"],
    [19390,"42713,54167","30,7","0,34","ND","ND","ND","ND"],
    [19391,"42713,58333","31,1","0,5","ND","ND","ND","ND"],
    [19392,"42713,625","51,4","1,36","ND","ND","ND","ND"],
    [19393,"42713,66667","15","ND","ND","ND","ND","ND"],
    [19394,"42713,70833","13,1","ND","ND","ND","ND","ND"],
    [19395,"42713,75","15,5","ND","ND","ND","ND","ND"],
    [19396,"42713,79167","11,5","ND","ND","ND","ND","ND"],
    [19397,"42713,83333","9,2","ND","ND","ND","ND","ND"],
    [19398,"42713,875","17,6","ND","ND","ND","ND","ND"],
    [19399,"42713,91667","17,6","ND","ND","ND","ND","ND"],
    [19400,"42713,95833","30,9","ND","ND","ND","ND","ND"],
    [19401,"09/13/2016 00:00","26,1","ND","ND","ND","ND","ND"],
    [19402,"09/13/2016 01:00","34,5","ND","ND","ND","ND","ND"],
    [19403,"09/13/2016 02:00","35","ND","ND","ND","ND","ND"],
    [19404,"09/13/2016 03:00","23,4","ND","ND","ND","ND","ND"],
    [19405,"09/13/2016 04:00","20,8","ND","ND","ND","ND","ND"],
    [19406,"09/13/2016 05:00","25,5","ND","ND","ND","ND","ND"],
    [19407,"09/13/2016 06:00","31,6","ND","ND","ND","ND","ND"],
    [19408,"09/13/2016 07:00","48,9","ND","ND","ND","ND","ND"],
    [19409,"09/13/2016 08:00","36","ND","ND","ND","ND","ND"],
    [19410,"09/13/2016 09:00","50,3","0,71","ND","ND","ND","ND"],
    [19411,"09/13/2016 10:00","73","1,02","ND","ND","ND","ND"],
    [19412,"09/13/2016 11:00","69,1","1,7","ND","ND","ND","ND"],
    [19413,"09/13/2016 12:00","77","3,51","ND","ND","ND","ND"],
    [19414,"09/13/2016 13:00","59,5","4,56","ND","ND","ND","ND"],
    [19415,"09/13/2016 14:00","27,4","1,13","ND","ND","ND","ND"],
    [19416,"09/13/2016 15:00","71,7","ND","ND","ND","ND","ND"],
    [19417,"09/13/2016 16:00","103,8","0,08","ND","ND","ND","ND"],
    [19418,"09/13/2016 17:00","26,2","ND","ND","ND","ND","ND"],
    [19419,"09/13/2016 18:00","18,1","ND","ND","ND","ND","ND"],
    [19420,"09/13/2016 19:00","13,4","ND","ND","ND","ND","ND"],
    [19421,"09/13/2016 20:00","40,3","ND","ND","ND","ND","ND"],
    [19422,"09/13/2016 21:00","20,4","ND","ND","ND","ND","ND"],
    [19423,"09/13/2016 22:00","11,2","ND","ND","ND","ND","ND"],
    [19424,"09/13/2016 23:00","12,7","ND","ND","ND","ND","ND"],
    [19425,"09/14/2016 00:00","6,4","ND","ND","ND","ND","ND"],
    [19426,"09/14/2016 01:00","6,4","ND","ND","ND","ND","ND"],
    [19427,"09/14/2016 02:00","8,3","ND","ND","ND","ND","ND"],
    [19428,"09/14/2016 03:00","ND","ND","ND","ND","ND","ND"],
    [19429,"09/14/2016 04:00","ND","ND","ND","ND","ND","ND"],
    [19430,"09/14/2016 05:00","8,5","ND","ND","ND","ND","ND"],
    [19431,"09/14/2016 06:00","10,2","ND","ND","ND","ND","ND"],
    [19432,"09/14/2016 07:00","28","ND","ND","ND","ND","ND"],
    [19433,"09/14/2016 08:00","43,2","ND","ND","ND","ND","ND"],
    [19434,"09/14/2016 09:00","21,1","ND","ND","ND","ND","ND"],
    [19435,"09/14/2016 10:00","13,3","ND","ND","ND","ND","ND"],
    [19436,"09/14/2016 11:00","25,2","ND","ND","ND","ND","ND"],
    [19437,"09/14/2016 12:00","16,5","ND","ND","ND","ND","ND"],
    [19438,"09/14/2016 13:00","14,8","ND","ND","ND","ND","ND"],
    [19439,"09/14/2016 14:00","10,9","ND","ND","ND","ND","ND"],
    [19440,"09/14/2016 15:00","36,8","0,63","ND","ND","ND","ND"],
    [19441,"09/14/2016 16:00","26,3","ND","ND","ND","ND","ND"],
    [19442,"09/14/2016 17:00","26,4","ND","ND","ND","ND","ND"],
    [19443,"09/14/2016 18:00","47,6","0,45","ND","ND","ND","ND"],
    [19444,"09/14/2016 19:00","39,6","0,08","ND","ND","ND","ND"],
    [19445,"09/14/2016 20:00","51,2","0,08","ND","ND","ND","ND"],
    [19446,"09/14/2016 21:00","49,1","0,03","ND","ND","ND","ND"],
    [19447,"09/14/2016 22:00","50,3","ND","ND","ND","ND","ND"],
    [19448,"09/14/2016 23:00","44","ND","ND","ND","ND","ND"],
    [19449,"09/15/2016 00:00","18,6","0,05","ND","ND","ND","ND"],
    [19450,"09/15/2016 01:00","26,8","ND","ND","ND","ND","ND"],
    [19451,"09/15/2016 02:00","22,1","ND","ND","ND","ND","ND"],
    [19452,"09/15/2016 03:00","15,8","ND","ND","ND","ND","ND"],
    [19453,"09/15/2016 04:00","20,2","ND","ND","ND","ND","ND"],
    [19454,"09/15/2016 05:00","21","0,1","ND","ND","ND","ND"],
    [19455,"09/15/2016 06:00","36,5","0,05","ND","ND","ND","ND"],
    [19456,"09/15/2016 07:00","35,9","ND","ND","ND","ND","ND"],
    [19457,"09/15/2016 08:00","50,7","0,26","ND","ND","ND","ND"],
    [19458,"09/15/2016 09:00","50,7","0,24","ND","ND","ND","ND"],
    [19459,"09/15/2016 10:00","36","0,18","ND","ND","ND","ND"],
    [19460,"09/15/2016 11:00","35,3","0,34","ND","ND","ND","ND"],
    [19461,"09/15/2016 12:00","41,8","2,25","ND","ND","ND","ND"],
    [19462,"09/15/2016 13:00","45,2","2,59","ND","ND","ND","ND"],
    [19463,"09/15/2016 14:00","38,3","1,44","ND","ND","ND","ND"],
    [19464,"09/15/2016 15:00","40,5","1,55","ND","ND","ND","ND"],
    [19465,"09/15/2016 16:00","37,6","0,92","ND","ND","ND","ND"],
    [19466,"09/15/2016 17:00","12,9","ND","ND","ND","ND","ND"],
    [19467,"09/15/2016 18:00","13,5","ND","ND","ND","ND","ND"],
    [19468,"09/15/2016 19:00","20,2","ND","ND","ND","ND","ND"],
    [19469,"09/15/2016 20:00","20,7","ND","ND","ND","ND","ND"],
    [19470,"09/15/2016 21:00","36,5","ND","ND","ND","ND","ND"],
    [19471,"09/15/2016 22:00","41,5","ND","ND","ND","ND","ND"],
    [19472,"09/15/2016 23:00","55,2","ND","ND","ND","ND","ND"],
    [19473,"09/16/2016 00:00","44","ND","ND","ND","ND","ND"],
    [19474,"09/16/2016 01:00","42,5","ND","ND","ND","ND","ND"],
    [19475,"09/16/2016 02:00","37,1","ND","ND","ND","ND","ND"],
    [19476,"09/16/2016 03:00","44","ND","ND","ND","ND","ND"],
    [19477,"09/16/2016 04:00","32,1","ND","ND","ND","ND","ND"],
    [19478,"09/16/2016 05:00","36,1","ND","ND","ND","ND","ND"],
    [19479,"09/16/2016 06:00","51,3","ND","ND","ND","ND","ND"],
    [19480,"09/16/2016 07:00","69,4","0,05","ND","ND","ND","ND"],
    [19481,"09/16/2016 08:00","112,9","1,1","ND","ND","ND","ND"],
    [19482,"09/16/2016 09:00","70,7","2,44","ND","ND","ND","ND"],
    [19483,"09/16/2016 10:00","59,4","2,31","ND","ND","ND","ND"],
    [19484,"09/16/2016 11:00","49,6","1,52","ND","ND","ND","ND"],
    [19485,"09/16/2016 12:00","39,4","0,94","ND","ND","ND","ND"],
    [19486,"09/16/2016 13:00","51,6","1,26","ND","ND","ND","ND"],
    [19487,"09/16/2016 14:00","44,4","2,07","ND","ND","ND","ND"],
    [19488,"09/16/2016 15:00","53,8","4,14","ND","ND","ND","ND"],
    [19489,"09/16/2016 16:00","49,1","3,83","ND","ND","ND","ND"],
    [19490,"09/16/2016 17:00","45,4","0,24","ND","ND","ND","ND"],
    [19491,"09/16/2016 18:00","24,7","ND","ND","ND","ND","ND"],
    [19492,"09/16/2016 19:00","21,8","ND","ND","ND","ND","ND"],
    [19493,"09/16/2016 20:00","19,1","ND","ND","ND","ND","ND"],
    [19494,"09/16/2016 21:00","17,4","ND","ND","ND","ND","ND"],
    [19495,"09/16/2016 22:00","44,9","0,24","ND","ND","ND","ND"],
    [19496,"09/16/2016 23:00","55,2","0,16","ND","ND","ND","ND"],
    [19497,"09/17/2016 00:00","41,5","ND","ND","ND","ND","ND"],
    [19498,"09/17/2016 01:00","34,4","ND","ND","ND","ND","ND"],
    [19499,"09/17/2016 02:00","30,2","ND","ND","ND","ND","ND"],
    [19500,"09/17/2016 03:00","29,2","ND","ND","ND","ND","ND"],
    [19501,"09/17/2016 04:00","33,9","ND","ND","ND","ND","ND"],
    [19502,"09/17/2016 05:00","34,6","ND","ND","ND","ND","ND"],
    [19503,"09/17/2016 06:00","37,5","ND","ND","ND","ND","ND"],
    [19504,"09/17/2016 07:00","44,5","ND","ND","ND","ND","ND"],
    [19505,"09/17/2016 08:00","54,9","0,16","ND","ND","ND","ND"],
    [19506,"09/17/2016 09:00","50,7","1,73","ND","ND","ND","ND"],
    [19507,"09/17/2016 10:00","40,4","2,33","ND","ND","ND","ND"],
    [19508,"09/17/2016 11:00","40,8","1,47","ND","ND","ND","ND"],
    [19509,"09/17/2016 12:00","44","1,83","ND","ND","ND","ND"],
    [19510,"09/17/2016 13:00","52,7","2,12","ND","ND","ND","ND"],
    [19511,"09/17/2016 14:00","50,1","0,34","ND","ND","ND","ND"],
    [19512,"09/17/2016 15:00","14,6","ND","ND","ND","ND","ND"],
    [19513,"09/17/2016 16:00","14,6","ND","ND","ND","ND","ND"],
    [19514,"09/17/2016 17:00","8,4","ND","ND","ND","ND","ND"],
    [19515,"09/17/2016 18:00","8,4","ND","ND","ND","ND","ND"],
    [19516,"09/17/2016 19:00","41","0,1","ND","ND","ND","ND"],
    [19517,"09/17/2016 20:00","48,7","0,08","ND","ND","ND","ND"],
    [19518,"09/17/2016 21:00","55,8","ND","ND","ND","ND","ND"],
    [19519,"09/17/2016 22:00","30","ND","ND","ND","ND","ND"],
    [19520,"09/17/2016 23:00","38,3","ND","ND","ND","ND","ND"],
    [19521,"09/18/2016 00:00","42,6","ND","ND","ND","ND","ND"],
    [19522,"09/18/2016 01:00","43,6","ND","ND","ND","ND","ND"],
    [19523,"09/18/2016 02:00","31,1","ND","ND","ND","ND","ND"],
    [19524,"09/18/2016 03:00","31,1","ND","ND","ND","ND","ND"],
    [19525,"09/18/2016 04:00","37,5","ND","ND","ND","ND","ND"],
    [19526,"09/18/2016 05:00","32,8","ND","ND","ND","ND","ND"],
    [19527,"09/18/2016 06:00","36,8","ND","ND","ND","ND","ND"],
    [19528,"09/18/2016 07:00","43,7","ND","ND","ND","ND","ND"],
    [19529,"09/18/2016 08:00","24","ND","ND","ND","ND","ND"],
    [19530,"09/18/2016 09:00","24,6","ND","ND","ND","ND","ND"],
    [19531,"09/18/2016 10:00","16,7","0","ND","ND","ND","ND"],
    [19532,"09/18/2016 11:00","20,9","0,31","ND","ND","ND","ND"],
    [19533,"09/18/2016 12:00","20,9","0,24","ND","ND","ND","ND"],
    [19534,"09/18/2016 13:00","25,6","0,16","ND","ND","ND","ND"],
    [19535,"09/18/2016 14:00","40,4","0,05","ND","ND","ND","ND"],
    [19536,"09/18/2016 15:00","10,5","ND","ND","ND","ND","ND"],
    [19537,"09/18/2016 16:00","24,1","ND","ND","ND","ND","ND"],
    [19538,"09/18/2016 17:00","8,1","ND","ND","ND","ND","ND"],
    [19539,"09/18/2016 18:00","7,3","ND","ND","ND","ND","ND"],
    [19540,"09/18/2016 19:00","22,8","ND","ND","ND","ND","ND"],
    [19541,"09/18/2016 20:00","36","ND","ND","ND","ND","ND"],
    [19542,"09/18/2016 21:00","33,1","ND","ND","ND","ND","ND"],
    [19543,"09/18/2016 22:00","35,5","ND","ND","ND","ND","ND"],
    [19544,"09/18/2016 23:00","23,4","ND","ND","ND","ND","ND"],
    [19545,"09/19/2016 00:00","23,9","ND","ND","ND","ND","ND"],
    [19546,"09/19/2016 01:00","40","ND","ND","ND","ND","ND"],
    [19547,"09/19/2016 02:00","21,7","ND","ND","ND","ND","ND"],
    [19548,"09/19/2016 03:00","23,7","ND","ND","ND","ND","ND"],
    [19549,"09/19/2016 04:00","17,9","ND","ND","ND","ND","ND"],
    [19550,"09/19/2016 05:00","26,5","ND","ND","ND","ND","ND"],
    [19551,"09/19/2016 06:00","51,6","ND","ND","ND","ND","ND"],
    [19552,"09/19/2016 07:00","51,4","ND","ND","ND","ND","ND"],
    [19553,"09/19/2016 08:00","58,9","ND","ND","ND","ND","ND"],
    [19554,"09/19/2016 09:00","94,4","1,52","ND","ND","ND","ND"],
    [19555,"09/19/2016 10:00","62,6","3,54","ND","ND","ND","ND"],
    [19556,"09/19/2016 11:00","46,1","5,32","ND","ND","ND","ND"],
    [19557,"09/19/2016 12:00","37","2,91","ND","ND","ND","ND"],
    [19558,"09/19/2016 13:00","36","2,2","ND","ND","ND","ND"],
    [19559,"09/19/2016 14:00","27,6","1,15","ND","ND","ND","ND"],
    [19560,"09/19/2016 15:00","27,6","0,24","ND","ND","ND","ND"],
    [19561,"09/19/2016 16:00","25,7","ND","ND","ND","ND","ND"],
    [19562,"09/19/2016 17:00","19,6","ND","ND","ND","ND","ND"],
    [19563,"09/19/2016 18:00","24,3","ND","ND","ND","ND","ND"],
    [19564,"09/19/2016 19:00","38,6","ND","ND","ND","ND","ND"],
    [19565,"09/19/2016 20:00","35,7","ND","ND","ND","ND","ND"],
    [19566,"09/19/2016 21:00","30,7","ND","ND","ND","ND","ND"],
    [19567,"09/19/2016 22:00","46,6","ND","ND","ND","ND","ND"],
    [19568,"09/19/2016 23:00","37","ND","ND","ND","ND","ND"],
    [19569,"09/20/2016 00:00","25,2","ND","ND","ND","ND","ND"],
    [19570,"09/20/2016 01:00","20,1","ND","ND","ND","ND","ND"],
    [19571,"09/20/2016 02:00","20,1","ND","ND","ND","ND","ND"],
    [19572,"09/20/2016 03:00","28,1","ND","ND","ND","ND","ND"],
    [19573,"09/20/2016 04:00","27,7","ND","ND","ND","ND","ND"],
    [19574,"09/20/2016 05:00","35,7","ND","ND","ND","ND","ND"],
    [19575,"09/20/2016 06:00","49","ND","ND","ND","ND","ND"],
    [19576,"09/20/2016 07:00","64,6","0,05","ND","ND","ND","ND"],
    [19577,"09/20/2016 08:00","82,2","1,02","ND","ND","ND","ND"],
    [19578,"09/20/2016 09:00","89,5","9,14","ND","ND","ND","ND"],
    [19579,"09/20/2016 10:00","60,7","8,73","ND","ND","ND","ND"],
    [19580,"09/20/2016 11:00","53,9","7,47","ND","ND","ND","ND"],
    [19581,"09/20/2016 12:00","58,3","5,84","ND","ND","ND","ND"],
    [19582,"09/20/2016 13:00","47","4,09","ND","ND","ND","ND"],
    [19583,"09/20/2016 14:00","44,9","0,47","ND","ND","ND","ND"],
    [19584,"09/20/2016 15:00","22,2","ND","ND","ND","ND","ND"],
    [19585,"09/20/2016 16:00","27,7","ND","ND","ND","ND","ND"],
    [19586,"09/20/2016 17:00","22,6","ND","ND","ND","ND","ND"],
    [19587,"09/20/2016 18:00","21,4","ND","ND","ND","ND","ND"],
    [19588,"09/20/2016 19:00","16","ND","ND","ND","ND","ND"],
    [19589,"09/20/2016 20:00","56,2","ND","ND","ND","ND","ND"],
    [19590,"09/20/2016 21:00","65,8","0,76","ND","ND","ND","ND"],
    [19591,"09/20/2016 22:00","47,7","0,16","ND","ND","ND","ND"],
    [19592,"09/20/2016 23:00","48,2","0,16","ND","ND","ND","ND"],
    [19593,"09/21/2016 00:00","27,5","ND","ND","ND","ND","ND"],
    [19594,"09/21/2016 01:00","24,7","ND","ND","ND","ND","ND"],
    [19595,"09/21/2016 02:00","21,4","ND","ND","ND","ND","ND"],
    [19596,"09/21/2016 03:00","22,8","ND","ND","ND","ND","ND"],
    [19597,"09/21/2016 04:00","22,8","ND","ND","ND","ND","ND"],
    [19598,"09/21/2016 05:00","29,3","ND","ND","ND","ND","ND"],
    [19599,"09/21/2016 06:00","41,2","ND","ND","ND","ND","ND"],
    [19600,"09/21/2016 07:00","56,8","ND","ND","ND","ND","ND"],
    [19601,"09/21/2016 08:00","56,6","0,16","ND","ND","ND","ND"],
    [19602,"09/21/2016 09:00","45,7","2,12","ND","ND","ND","ND"],
    [19603,"09/21/2016 10:00","40,1","3,51","ND","ND","ND","ND"],
    [19604,"09/21/2016 11:00","43,6","2,59","ND","ND","ND","ND"],
    [19605,"09/21/2016 12:00","53,1","1,94","ND","ND","ND","ND"],
    [19606,"09/21/2016 13:00","67,1","2,33","ND","ND","ND","ND"],
    [19607,"09/21/2016 14:00","26,1","ND","ND","ND","ND","ND"],
    [19608,"09/21/2016 15:00","16","ND","ND","ND","ND","ND"],
    [19609,"09/21/2016 16:00","17,5","ND","ND","ND","ND","ND"],
    [19610,"09/21/2016 17:00","17,8","ND","ND","ND","ND","ND"],
    [19611,"09/21/2016 18:00","17,7","ND","ND","ND","ND","ND"],
    [19612,"09/21/2016 19:00","15,1","ND","ND","ND","ND","ND"],
    [19613,"09/21/2016 20:00","9,4","ND","ND","ND","ND","ND"],
    [19614,"09/21/2016 21:00","10,6","ND","ND","ND","ND","ND"],
    [19615,"09/21/2016 22:00","50,8","ND","ND","ND","ND","ND"],
    [19616,"09/21/2016 23:00","36,3","ND","ND","ND","ND","ND"],
    [19617,"09/22/2016 00:00","13,4","ND","ND","ND","ND","ND"],
    [19618,"09/22/2016 01:00","21,9","ND","ND","ND","ND","ND"],
    [19619,"09/22/2016 02:00","18,9","ND","ND","ND","ND","ND"],
    [19620,"09/22/2016 03:00","23,8","ND","ND","ND","ND","ND"],
    [19621,"09/22/2016 04:00","27,1","ND","ND","ND","ND","ND"],
    [19622,"09/22/2016 05:00","35,6","ND","ND","ND","ND","ND"],
    [19623,"09/22/2016 06:00","36,4","ND","ND","ND","ND","ND"],
    [19624,"09/22/2016 07:00","49,1","ND","ND","ND","ND","ND"],
    [19625,"09/22/2016 08:00","40,5","0,03","ND","ND","ND","ND"],
    [19626,"09/22/2016 09:00","40","1,15","ND","ND","ND","ND"],
    [19627,"09/22/2016 10:00","45,7","1,73","ND","ND","ND","ND"],
    [19628,"09/22/2016 11:00","36,3","1,13","ND","ND","ND","ND"],
    [19629,"09/22/2016 12:00","50,3","1,26","ND","ND","ND","ND"],
    [19630,"09/22/2016 13:00","46,3","1,44","ND","ND","ND","ND"],
    [19631,"09/22/2016 14:00","46,3","1,6","ND","ND","ND","ND"],
    [19632,"09/22/2016 15:00","17,5","ND","ND","ND","ND","ND"],
    [19633,"09/22/2016 16:00","16,1","ND","ND","ND","ND","ND"],
    [19634,"09/22/2016 17:00","19","ND","ND","ND","ND","ND"],
    [19635,"09/22/2016 18:00","21,4","ND","ND","ND","ND","ND"],
    [19636,"09/22/2016 19:00","16","ND","ND","ND","ND","ND"],
    [19637,"09/22/2016 20:00","13,7","ND","ND","ND","ND","ND"],
    [19638,"09/22/2016 21:00","25,1","ND","ND","ND","ND","ND"],
    [19639,"09/22/2016 22:00","23,7","ND","ND","ND","ND","ND"],
    [19640,"09/22/2016 23:00","13,4","ND","ND","ND","ND","ND"],
    [19641,"09/23/2016 00:00","25,8","ND","ND","ND","ND","ND"],
    [19642,"09/23/2016 01:00","11,3","ND","ND","ND","ND","ND"],
    [19643,"09/23/2016 02:00","11,6","ND","ND","ND","ND","ND"],
    [19644,"09/23/2016 03:00","11,1","ND","ND","ND","ND","ND"],
    [19645,"09/23/2016 04:00","15,6","ND","ND","ND","ND","ND"],
    [19646,"09/23/2016 05:00","14,7","ND","ND","ND","ND","ND"],
    [19647,"09/23/2016 06:00","31","ND","ND","ND","ND","ND"],
    [19648,"09/23/2016 07:00","48,7","ND","ND","ND","ND","ND"],
    [19649,"09/23/2016 08:00","45","ND","ND","ND","ND","ND"],
    [19650,"09/23/2016 09:00","52","0,26","ND","ND","ND","ND"],
    [19651,"09/23/2016 10:00","35","1,52","ND","ND","ND","ND"],
    [19652,"09/23/2016 11:00","32,9","1,52","ND","ND","ND","ND"],
    [19653,"09/23/2016 12:00","27,8","1,41","ND","ND","ND","ND"],
    [19654,"09/23/2016 13:00","29,6","0,84","ND","ND","ND","ND"],
    [19655,"09/23/2016 14:00","31,5","0,68","ND","ND","ND","ND"],
    [19656,"09/23/2016 15:00","30,2","0,52","ND","ND","ND","ND"],
    [19657,"09/23/2016 16:00","36,3","ND","ND","ND","ND","ND"],
    [19658,"09/23/2016 17:00","24,6","ND","ND","ND","ND","ND"],
    [19659,"09/23/2016 18:00","20","ND","ND","ND","ND","ND"],
    [19660,"09/23/2016 19:00","16,8","ND","ND","ND","ND","ND"],
    [19661,"09/23/2016 20:00","13,4","ND","ND","ND","ND","ND"],
    [19662,"09/23/2016 21:00","10,2","ND","ND","ND","ND","ND"],
    [19663,"09/23/2016 22:00","43,1","ND","ND","ND","ND","ND"],
    [19664,"09/23/2016 23:00","62,9","ND","ND","ND","ND","ND"],
    [19665,"09/24/2016 00:00","33,2","ND","ND","ND","ND","ND"],
    [19666,"09/24/2016 01:00","40,3","ND","ND","ND","ND","ND"],
    [19667,"09/24/2016 02:00","84,3","ND","ND","ND","ND","ND"],
    [19668,"09/24/2016 03:00","40,1","ND","ND","ND","ND","ND"],
    [19669,"09/24/2016 04:00","44,2","ND","ND","ND","ND","ND"],
    [19670,"09/24/2016 05:00","35,7","ND","ND","ND","ND","ND"],
    [19671,"09/24/2016 06:00","26,8","ND","ND","ND","ND","ND"],
    [19672,"09/24/2016 07:00","30,9","ND","ND","ND","ND","ND"],
    [19673,"09/24/2016 08:00","45,5","ND","ND","ND","ND","ND"],
    [19674,"09/24/2016 09:00","38,1","ND","ND","ND","ND","ND"],
    [19675,"09/24/2016 10:00","42,9","ND","ND","ND","ND","ND"],
    [19676,"09/24/2016 11:00","60,3","0,68","ND","ND","ND","ND"],
    [19677,"09/24/2016 12:00","62,2","1,86","ND","ND","ND","ND"],
    [19678,"09/24/2016 13:00","54,6","1,83","ND","ND","ND","ND"],
    [19679,"09/24/2016 14:00","40,7","2,17","ND","ND","ND","ND"],
    [19680,"09/24/2016 15:00","47,7","1,65","ND","ND","ND","ND"],
    [19681,"09/24/2016 16:00","15,1","0,6","ND","ND","ND","ND"],
    [19682,"09/24/2016 17:00","10,7","ND","ND","ND","ND","ND"],
    [19683,"09/24/2016 18:00","21,3","ND","ND","ND","ND","ND"],
    [19684,"09/24/2016 19:00","12,2","ND","ND","ND","ND","ND"],
    [19685,"09/24/2016 20:00","11,9","ND","ND","ND","ND","ND"],
    [19686,"09/24/2016 21:00","29,9","ND","ND","ND","ND","ND"],
    [19687,"09/24/2016 22:00","53,9","ND","ND","ND","ND","ND"],
    [19688,"09/24/2016 23:00","29,9","ND","ND","ND","ND","ND"],
    [19689,"09/25/2016 00:00","24,5","ND","ND","ND","ND","ND"],
    [19690,"09/25/2016 01:00","33,8","ND","ND","ND","ND","ND"],
    [19691,"09/25/2016 02:00","33,7","ND","ND","ND","ND","ND"],
    [19692,"09/25/2016 03:00","32,7","ND","ND","ND","ND","ND"],
    [19693,"09/25/2016 04:00","26,5","ND","ND","ND","ND","ND"],
    [19694,"09/25/2016 05:00","28,7","ND","ND","ND","ND","ND"],
    [19695,"09/25/2016 06:00","36,1","ND","ND","ND","ND","ND"],
    [19696,"09/25/2016 07:00","57,2","ND","ND","ND","ND","ND"],
    [19697,"09/25/2016 08:00","68","0","ND","ND","ND","ND"],
    [19698,"09/25/2016 09:00","59,2","2,54","ND","ND","ND","ND"],
    [19699,"09/25/2016 10:00","40,2","2,75","ND","ND","ND","ND"],
    [19700,"09/25/2016 11:00","38,8","3,35","ND","ND","ND","ND"],
    [19701,"09/25/2016 12:00","33,8","1,89","ND","ND","ND","ND"],
    [19702,"09/25/2016 13:00","31,6","1,39","ND","ND","ND","ND"],
    [19703,"09/25/2016 14:00","36,2","1,36","ND","ND","ND","ND"],
    [19704,"09/25/2016 15:00","29,9","0,55","ND","ND","ND","ND"],
    [19705,"09/25/2016 16:00","28,9","ND","ND","ND","ND","ND"],
    [19706,"09/25/2016 17:00","17,8","ND","ND","ND","ND","ND"],
    [19707,"09/25/2016 18:00","16,8","ND","ND","ND","ND","ND"],
    [19708,"09/25/2016 19:00","22,9","ND","ND","ND","ND","ND"],
    [19709,"09/25/2016 20:00","27,6","ND","ND","ND","ND","ND"],
    [19710,"09/25/2016 21:00","15,3","ND","ND","ND","ND","ND"],
    [19711,"09/25/2016 22:00","15,3","ND","ND","ND","ND","ND"],
    [19712,"09/25/2016 23:00","30,7","ND","ND","ND","ND","ND"],
    [19713,"09/26/2016 00:00","46,6","ND","ND","ND","ND","ND"],
    [19714,"09/26/2016 01:00","42,2","ND","ND","ND","ND","ND"],
    [19715,"09/26/2016 02:00","35,4","0,21","ND","ND","ND","ND"],
    [19716,"09/26/2016 03:00","42,6","0,05","ND","ND","ND","ND"],
    [19717,"09/26/2016 04:00","22","ND","ND","ND","ND","ND"],
    [19718,"09/26/2016 05:00","26,2","ND","ND","ND","ND","ND"],
    [19719,"09/26/2016 06:00","29,5","ND","ND","ND","ND","ND"],
    [19720,"09/26/2016 07:00","42,8","ND","ND","ND","ND","ND"],
    [19721,"09/26/2016 08:00","47,3","ND","ND","ND","ND","ND"],
    [19722,"09/26/2016 09:00","43,9","0,39","ND","ND","ND","ND"],
    [19723,"09/26/2016 10:00","57,7","1,73","ND","ND","ND","ND"],
    [19724,"09/26/2016 11:00","48,7","2,33","ND","ND","ND","ND"],
    [19725,"09/26/2016 12:00","47","2,41","ND","ND","ND","ND"],
    [19726,"09/26/2016 13:00","40,9","2,17","ND","ND","ND","ND"],
    [19727,"09/26/2016 14:00","45,6","1,28","ND","ND","ND","ND"],
    [19728,"09/26/2016 15:00","43,1","ND","ND","ND","ND","ND"],
    [19729,"09/26/2016 16:00","21,9","ND","ND","ND","ND","ND"],
    [19730,"09/26/2016 17:00","9,8","ND","ND","ND","ND","ND"],
    [19731,"09/26/2016 18:00","11,7","ND","ND","ND","ND","ND"],
    [19732,"09/26/2016 19:00","10,1","ND","ND","ND","ND","ND"],
    [19733,"09/26/2016 20:00","15,1","ND","ND","ND","ND","ND"],
    [19734,"09/26/2016 21:00","60,2","ND","ND","ND","ND","ND"],
    [19735,"09/26/2016 22:00","60,1","ND","ND","ND","ND","ND"],
    [19736,"09/26/2016 23:00","60,1","ND","ND","ND","ND","ND"],
    [19737,"09/27/2016 00:00","36,7","ND","ND","ND","ND","ND"],
    [19738,"09/27/2016 01:00","28,3","ND","ND","ND","ND","ND"],
    [19739,"09/27/2016 02:00","20,7","ND","ND","ND","ND","ND"],
    [19740,"09/27/2016 03:00","29","ND","ND","ND","ND","ND"],
    [19741,"09/27/2016 04:00","28","ND","ND","ND","ND","ND"],
    [19742,"09/27/2016 05:00","32,5","ND","ND","ND","ND","ND"],
    [19743,"09/27/2016 06:00","42,9","ND","ND","ND","ND","ND"],
    [19744,"09/27/2016 07:00","70,2","ND","ND","ND","ND","ND"],
    [19745,"09/27/2016 08:00","55,5","ND","ND","ND","ND","ND"],
    [19746,"09/27/2016 09:00","76","1,21","ND","ND","ND","ND"],
    [19747,"09/27/2016 10:00","75,8","3,56","ND","ND","ND","ND"],
    [19748,"09/27/2016 11:00","ND","4,19","ND","ND","ND","ND"],
    [19749,"09/27/2016 12:00","ND","2,38","ND","ND","ND","ND"],
    [19750,"09/27/2016 13:00","ND","2,41","ND","ND","ND","ND"],
    [19751,"09/27/2016 14:00","ND","2,25","ND","ND","ND","ND"],
    [19752,"09/27/2016 15:00","27,1","ND","ND","ND","ND","ND"],
    [19753,"09/27/2016 16:00","16,6","ND","ND","ND","ND","ND"],
    [19754,"09/27/2016 17:00","15,1","ND","ND","ND","ND","ND"],
    [19755,"09/27/2016 18:00","15,9","ND","ND","ND","ND","ND"],
    [19756,"09/27/2016 19:00","16,8","ND","ND","ND","ND","ND"],
    [19757,"09/27/2016 20:00","12","ND","ND","ND","ND","ND"],
    [19758,"09/27/2016 21:00","18,5","ND","ND","ND","ND","ND"],
    [19759,"09/27/2016 22:00","46,2","ND","ND","ND","ND","ND"],
    [19760,"09/27/2016 23:00","34,9","ND","ND","ND","ND","ND"],
    [19761,"09/28/2016 00:00","18,7","ND","ND","ND","ND","ND"],
    [19762,"09/28/2016 01:00","20,6","ND","ND","ND","ND","ND"],
    [19763,"09/28/2016 02:00","24,7","ND","ND","ND","ND","ND"],
    [19764,"09/28/2016 03:00","38,9","ND","ND","ND","ND","ND"],
    [19765,"09/28/2016 04:00","33,7","ND","ND","ND","ND","ND"],
    [19766,"09/28/2016 05:00","27,8","ND","ND","ND","ND","ND"],
    [19767,"09/28/2016 06:00","37,3","ND","ND","ND","ND","ND"],
    [19768,"09/28/2016 07:00","60,4","0,13","ND","ND","ND","ND"],
    [19769,"09/28/2016 08:00","79,6","0,52","ND","ND","ND","ND"],
    [19770,"09/28/2016 09:00","76,1","2,86","ND","ND","ND","ND"],
    [19771,"09/28/2016 10:00","72,8","6,79","ND","ND","ND","ND"],
    [19772,"09/28/2016 11:00","59,6","4,35","ND","ND","ND","ND"],
    [19773,"09/28/2016 12:00","37","2,73","ND","ND","ND","ND"],
    [19774,"09/28/2016 13:00","45,5","2,17","ND","ND","ND","ND"],
    [19775,"09/28/2016 14:00","52,2","1,62","ND","ND","ND","ND"],
    [19776,"09/28/2016 15:00","19,4","0,18","ND","ND","ND","ND"],
    [19777,"09/28/2016 16:00","10,8","ND","ND","ND","ND","ND"],
    [19778,"09/28/2016 17:00","11,2","ND","ND","ND","ND","ND"],
    [19779,"09/28/2016 18:00","15,7","ND","ND","ND","ND","ND"],
    [19780,"09/28/2016 19:00","11,8","ND","ND","ND","ND","ND"],
    [19781,"09/28/2016 20:00","22,4","ND","ND","ND","ND","ND"],
    [19782,"09/28/2016 21:00","26,7","ND","ND","ND","ND","ND"],
    [19783,"09/28/2016 22:00","52","0,03","ND","ND","ND","ND"],
    [19784,"09/28/2016 23:00","42,3","ND","ND","ND","ND","ND"],
    [19785,"09/29/2016 00:00","25,6","ND","ND","ND","ND","ND"],
    [19786,"09/29/2016 01:00","31,1","ND","ND","ND","ND","ND"],
    [19787,"09/29/2016 02:00","49,5","ND","ND","ND","ND","ND"],
    [19788,"09/29/2016 03:00","42,4","ND","ND","ND","ND","ND"],
    [19789,"09/29/2016 04:00","39,8","ND","ND","ND","ND","ND"],
    [19790,"09/29/2016 05:00","49,4","ND","ND","ND","ND","ND"],
    [19791,"09/29/2016 06:00","61,5","ND","ND","ND","ND","ND"],
    [19792,"09/29/2016 07:00","80,9","ND","ND","ND","ND","ND"],
    [19793,"09/29/2016 08:00","66,6","ND","ND","ND","ND","ND"],
    [19794,"09/29/2016 09:00","52,8","0,89","ND","ND","ND","ND"],
    [19795,"09/29/2016 10:00","43,3","1,91","ND","ND","ND","ND"],
    [19796,"09/29/2016 11:00","41,8","1,86","ND","ND","ND","ND"],
    [19797,"09/29/2016 12:00","42,7","1,49","ND","ND","ND","ND"],
    [19798,"09/29/2016 13:00","34,8","0,39","ND","ND","ND","ND"],
    [19799,"09/29/2016 14:00","28,9","ND","ND","ND","ND","ND"],
    [19800,"09/29/2016 15:00","ND","ND","ND","ND","ND","ND"],
    [19801,"09/29/2016 16:00","7,5","ND","ND","ND","ND","ND"],
    [19802,"09/29/2016 17:00","51,4","0,05","ND","ND","ND","ND"],
    [19803,"09/29/2016 18:00","23,8","ND","ND","ND","ND","ND"],
    [19804,"09/29/2016 19:00","38,4","ND","ND","ND","ND","ND"],
    [19805,"09/29/2016 20:00","55,1","ND","ND","ND","ND","ND"],
    [19806,"09/29/2016 21:00","43,1","0,08","ND","ND","ND","ND"],
    [19807,"09/29/2016 22:00","51,5","ND","ND","ND","ND","ND"],
    [19808,"09/29/2016 23:00","19,6","ND","ND","ND","ND","ND"],
    [19809,"09/30/2016 00:00","31,4","ND","ND","ND","ND","ND"],
    [19810,"09/30/2016 01:00","72,4","0,26","ND","ND","ND","ND"],
    [19811,"09/30/2016 02:00","52,7","ND","ND","ND","ND","ND"],
    [19812,"09/30/2016 03:00","54,3","ND","ND","ND","ND","ND"],
    [19813,"09/30/2016 04:00","44,4","ND","ND","ND","ND","ND"],
    [19814,"09/30/2016 05:00","41,5","ND","ND","ND","ND","ND"],
    [19815,"09/30/2016 06:00","46,3","ND","ND","ND","ND","ND"],
    [19816,"09/30/2016 07:00","76,3","0,18","ND","ND","ND","ND"],
    [19817,"09/30/2016 08:00","77,7","0,37","ND","ND","ND","ND"],
    [19818,"09/30/2016 09:00","53,8","3,01","ND","ND","ND","ND"],
    [19819,"09/30/2016 10:00","51,4","4,4","ND","ND","ND","ND"],
    [19820,"09/30/2016 11:00","62,9","2,91","ND","ND","ND","ND"],
    [19821,"09/30/2016 12:00","61,6","3,14","ND","ND","ND","ND"],
    [19822,"09/30/2016 13:00","50,6","2,57","ND","ND","ND","ND"],
    [19823,"09/30/2016 14:00","8,8","ND","ND","ND","ND","ND"],
    [19824,"09/30/2016 15:00","3,2","ND","ND","ND","ND","ND"],
    [19825,"09/30/2016 16:00","47,3","ND","ND","ND","ND","ND"],
    [19826,"09/30/2016 17:00","41,4","ND","ND","ND","ND","ND"],
    [19827,"09/30/2016 18:00","25,4","ND","ND","ND","ND","ND"],
    [19828,"09/30/2016 19:00","15,8","ND","ND","ND","ND","ND"],
    [19829,"09/30/2016 20:00","22,7","ND","ND","ND","ND","ND"],
    [19830,"09/30/2016 21:00","16,3","ND","ND","ND","ND","ND"],
    [19831,"09/30/2016 22:00","13,8","ND","ND","ND","ND","ND"],
    [19832,"09/30/2016 23:00","12,2","ND","ND","ND","ND","ND"],
    [19833,"42379","10","ND","ND","ND","ND","ND"],
    [19834,"42379,04167","7,3","ND","ND","ND","ND","ND"],
    [19835,"42379,08333","3,8","ND","ND","ND","ND","ND"],
    [19836,"42379,125","3,3","ND","ND","ND","ND","ND"],
    [19837,"42379,16667","3,8","ND","ND","ND","ND","ND"],
    [19838,"42379,20833","1,2","ND","ND","ND","ND","ND"],
    [19839,"42379,25","7,6","ND","ND","ND","ND","ND"],
    [19840,"42379,29167","12,6","ND","ND","ND","ND","ND"],
    [19841,"42379,33333","20,7","ND","ND","ND","ND","ND"],
    [19842,"42379,375","2,4","ND","ND","ND","ND","ND"],
    [19843,"42379,41667","20","ND","ND","ND","ND","ND"],
    [19844,"42379,45833","22,4","ND","ND","ND","ND","ND"],
    [19845,"42379,5","37,3","ND","ND","ND","ND","ND"],
    [19846,"42379,54167","46,1","ND","ND","ND","ND","ND"],
    [19847,"42379,58333","36,6","ND","ND","ND","ND","ND"],
    [19848,"42379,625","ND","ND","ND","ND","ND","ND"],
    [19849,"42379,66667","ND","ND","ND","ND","ND","ND"],
    [19850,"42379,70833","ND","ND","ND","ND","ND","ND"],
    [19851,"42379,75","36,8","ND","ND","ND","ND","ND"],
    [19852,"42379,79167","37,6","ND","ND","ND","ND","ND"],
    [19853,"42379,83333","40,3","ND","ND","ND","ND","ND"],
    [19854,"42379,875","47,3","ND","ND","ND","ND","ND"],
    [19855,"42379,91667","32,5","ND","ND","ND","ND","ND"],
    [19856,"42379,95833","32,5","ND","ND","ND","ND","ND"],
    [19857,"42410","37,6","ND","ND","ND","ND","ND"],
    [19858,"42410,04167","22,5","ND","ND","ND","ND","ND"],
    [19859,"42410,08333","15,7","ND","ND","ND","ND","ND"],
    [19860,"42410,125","16","ND","ND","ND","ND","ND"],
    [19861,"42410,16667","15,7","ND","ND","ND","ND","ND"],
    [19862,"42410,20833","21,2","ND","ND","ND","ND","ND"],
    [19863,"42410,25","22,7","ND","ND","ND","ND","ND"],
    [19864,"42410,29167","32,2","ND","ND","ND","ND","ND"],
    [19865,"42410,33333","25,4","ND","ND","ND","ND","ND"],
    [19866,"42410,375","28,7","ND","ND","ND","ND","ND"],
    [19867,"42410,41667","21,4","1","ND","ND","ND","ND"],
    [19868,"42410,45833","24,8","0,73","ND","ND","ND","ND"],
    [19869,"42410,5","20,8","0,45","ND","ND","ND","ND"],
    [19870,"42410,54167","26,3","0,24","ND","ND","ND","ND"],
    [19871,"42410,58333","27","ND","ND","ND","ND","ND"],
    [19872,"42410,625","23,9","ND","ND","ND","ND","ND"],
    [19873,"42410,66667","12,7","ND","ND","ND","ND","ND"],
    [19874,"42410,70833","11","ND","ND","ND","ND","ND"],
    [19875,"42410,75","25,7","ND","ND","ND","ND","ND"],
    [19876,"42410,79167","25,1","ND","ND","ND","ND","ND"],
    [19877,"42410,83333","17,3","ND","ND","ND","ND","ND"],
    [19878,"42410,875","21,2","ND","ND","ND","ND","ND"],
    [19879,"42410,91667","7,6","ND","ND","ND","ND","ND"],
    [19880,"42410,95833","6,1","ND","ND","ND","ND","ND"],
    [19881,"42439","17,8","ND","ND","ND","ND","ND"],
    [19882,"42439,04167","15,8","ND","ND","ND","ND","ND"],
    [19883,"42439,08333","13,5","ND","ND","ND","ND","ND"],
    [19884,"42439,125","4,9","ND","ND","ND","ND","ND"],
    [19885,"42439,16667","12","ND","ND","ND","ND","ND"],
    [19886,"42439,20833","19,9","ND","ND","ND","ND","ND"],
    [19887,"42439,25","23,1","ND","ND","ND","ND","ND"],
    [19888,"42439,29167","32,3","ND","ND","ND","ND","ND"],
    [19889,"42439,33333","51,6","ND","ND","ND","ND","ND"],
    [19890,"42439,375","73,7","0,21","ND","ND","ND","ND"],
    [19891,"42439,41667","34,5","ND","ND","ND","ND","ND"],
    [19892,"42439,45833","21,5","0,55","ND","ND","ND","ND"],
    [19893,"42439,5","14,5","ND","ND","ND","ND","ND"],
    [19894,"42439,54167","10,8","ND","ND","ND","ND","ND"],
    [19895,"42439,58333","26,1","ND","ND","ND","ND","ND"],
    [19896,"42439,625","26,6","ND","ND","ND","ND","ND"],
    [19897,"42439,66667","5,3","ND","ND","ND","ND","ND"],
    [19898,"42439,70833","11,2","ND","ND","ND","ND","ND"],
    [19899,"42439,75","10,7","ND","ND","ND","ND","ND"],
    [19900,"42439,79167","10,7","ND","ND","ND","ND","ND"],
    [19901,"42439,83333","12,1","ND","ND","ND","ND","ND"],
    [19902,"42439,875","8,1","ND","ND","ND","ND","ND"],
    [19903,"42439,91667","44,1","ND","ND","ND","ND","ND"],
    [19904,"42439,95833","32,2","ND","ND","ND","ND","ND"],
    [19905,"42470","43,5","ND","ND","ND","ND","ND"],
    [19906,"42470,04167","0,5","ND","ND","ND","ND","ND"],
    [19907,"42470,08333","19,4","ND","ND","ND","ND","ND"],
    [19908,"42470,125","8,7","ND","ND","ND","ND","ND"],
    [19909,"42470,16667","16,9","ND","ND","ND","ND","ND"],
    [19910,"42470,20833","19,2","ND","ND","ND","ND","ND"],
    [19911,"42470,25","13,1","ND","ND","ND","ND","ND"],
    [19912,"42470,29167","ND","ND","ND","ND","ND","ND"],
    [19913,"42470,33333","2,8","ND","ND","ND","ND","ND"],
    [19914,"42470,375","9,1","ND","ND","ND","ND","ND"],
    [19915,"42470,41667","25","ND","ND","ND","ND","ND"],
    [19916,"42470,45833","33,9","ND","ND","ND","ND","ND"],
    [19917,"42470,5","22","0,08","ND","ND","ND","ND"],
    [19918,"42470,54167","31,5","1,47","ND","ND","ND","ND"],
    [19919,"42470,58333","31,2","0,5","ND","ND","ND","ND"],
    [19920,"42470,625","22,9","ND","ND","ND","ND","ND"],
    [19921,"42470,66667","3,9","ND","ND","ND","ND","ND"],
    [19922,"42470,70833","10,8","ND","ND","ND","ND","ND"],
    [19923,"42470,75","33,2","ND","ND","ND","ND","ND"],
    [19924,"42470,79167","39,3","ND","ND","ND","ND","ND"],
    [19925,"42470,83333","17,6","ND","ND","ND","ND","ND"],
    [19926,"42470,875","15,9","ND","ND","ND","ND","ND"],
    [19927,"42470,91667","27,5","ND","ND","ND","ND","ND"],
    [19928,"42470,95833","40,2","ND","ND","ND","ND","ND"],
    [19929,"42500","23,2","ND","ND","ND","ND","ND"],
    [19930,"42500,04167","20,1","ND","ND","ND","ND","ND"],
    [19931,"42500,08333","18,6","ND","ND","ND","ND","ND"],
    [19932,"42500,125","21","ND","ND","ND","ND","ND"],
    [19933,"42500,16667","28,2","ND","ND","ND","ND","ND"],
    [19934,"42500,20833","30,8","ND","ND","ND","ND","ND"],
    [19935,"42500,25","40","ND","ND","ND","ND","ND"],
    [19936,"42500,29167","92,1","ND","ND","ND","ND","ND"],
    [19937,"42500,33333","71,5","ND","ND","ND","ND","ND"],
    [19938,"42500,375","40,4","0,42","ND","ND","ND","ND"],
    [19939,"42500,41667","61,7","6,79","ND","ND","ND","ND"],
    [19940,"42500,45833","60,7","8,1","ND","ND","ND","ND"],
    [19941,"42500,5","46","5,4","ND","ND","ND","ND"],
    [19942,"42500,54167","38,6","3,75","ND","ND","ND","ND"],
    [19943,"42500,58333","42,5","4,45","ND","ND","ND","ND"],
    [19944,"42500,625","53,2","1,23","ND","ND","ND","ND"],
    [19945,"42500,66667","7,8","ND","ND","ND","ND","ND"],
    [19946,"42500,70833","4,9","ND","ND","ND","ND","ND"],
    [19947,"42500,75","14,2","ND","ND","ND","ND","ND"],
    [19948,"42500,79167","24,9","ND","ND","ND","ND","ND"],
    [19949,"42500,83333","25,6","ND","ND","ND","ND","ND"],
    [19950,"42500,875","10,4","ND","ND","ND","ND","ND"],
    [19951,"42500,91667","23,8","ND","ND","ND","ND","ND"],
    [19952,"42500,95833","23,8","ND","ND","ND","ND","ND"],
    [19953,"42531","30,9","ND","ND","ND","ND","ND"],
    [19954,"42531,04167","19,5","ND","ND","ND","ND","ND"],
    [19955,"42531,08333","21,3","ND","ND","ND","ND","ND"],
    [19956,"42531,125","27,6","ND","ND","ND","ND","ND"],
    [19957,"42531,16667","23,4","ND","ND","ND","ND","ND"],
    [19958,"42531,20833","29,9","ND","ND","ND","ND","ND"],
    [19959,"42531,25","52,5","ND","ND","ND","ND","ND"],
    [19960,"42531,29167","83,1","ND","ND","ND","ND","ND"],
    [19961,"42531,33333","58,9","0,08","ND","ND","ND","ND"],
    [19962,"42531,375","49,5","2,52","ND","ND","ND","ND"],
    [19963,"42531,41667","40,7","2,65","ND","ND","ND","ND"],
    [19964,"42531,45833","21,1","2,99","ND","ND","ND","ND"],
    [19965,"42531,5","28,8","1,13","ND","ND","ND","ND"],
    [19966,"42531,54167","48,7","ND","ND","ND","ND","ND"],
    [19967,"42531,58333","13,9","ND","ND","ND","ND","ND"],
    [19968,"42531,625","ND","ND","ND","ND","ND","ND"],
    [19969,"42531,66667","15,4","ND","ND","ND","ND","ND"],
    [19970,"42531,70833","39","ND","ND","ND","ND","ND"],
    [19971,"42531,75","25,8","ND","ND","ND","ND","ND"],
    [19972,"42531,79167","19,1","ND","ND","ND","ND","ND"],
    [19973,"42531,83333","30,3","ND","ND","ND","ND","ND"],
    [19974,"42531,875","29","ND","ND","ND","ND","ND"],
    [19975,"42531,91667","29,8","0","ND","ND","ND","ND"],
    [19976,"42531,95833","32,5","ND","ND","ND","ND","ND"],
    [19977,"42561","24,3","ND","ND","ND","ND","ND"],
    [19978,"42561,04167","20,7","ND","ND","ND","ND","ND"],
    [19979,"42561,08333","25,1","ND","ND","ND","ND","ND"],
    [19980,"42561,125","9,7","ND","ND","ND","ND","ND"],
    [19981,"42561,16667","23,4","ND","ND","ND","ND","ND"],
    [19982,"42561,20833","21,1","ND","ND","ND","ND","ND"],
    [19983,"42561,25","21,1","ND","ND","ND","ND","ND"],
    [19984,"42561,29167","43","ND","ND","ND","ND","ND"],
    [19985,"42561,33333","64,6","0,08","ND","ND","ND","ND"],
    [19986,"42561,375","44,1","0,13","ND","ND","ND","ND"],
    [19987,"42561,41667","32,2","0,39","ND","ND","ND","ND"],
    [19988,"42561,45833","24,5","0,97","ND","ND","ND","ND"],
    [19989,"42561,5","30,9","1,73","ND","ND","ND","ND"],
    [19990,"42561,54167","28,2","0,63","ND","ND","ND","ND"],
    [19991,"42561,58333","31,2","0,37","ND","ND","ND","ND"],
    [19992,"42561,625","25,9","ND","ND","ND","ND","ND"],
    [19993,"42561,66667","40","ND","ND","ND","ND","ND"],
    [19994,"42561,70833","10,7","ND","ND","ND","ND","ND"],
    [19995,"42561,75","25,4","ND","ND","ND","ND","ND"],
    [19996,"42561,79167","5,2","ND","ND","ND","ND","ND"],
    [19997,"42561,83333","29,8","ND","ND","ND","ND","ND"],
    [19998,"42561,875","34,6","ND","ND","ND","ND","ND"],
    [19999,"42561,91667","34,3","ND","ND","ND","ND","ND"],
    [20000,"42561,95833","38,3","ND","ND","ND","ND","ND"],
    [20001,"42592","38,6","ND","ND","ND","ND","ND"],
    [20002,"42592,04167","37,2","ND","ND","ND","ND","ND"],
    [20003,"42592,08333","31,6","ND","ND","ND","ND","ND"],
    [20004,"42592,125","42,6","ND","ND","ND","ND","ND"],
    [20005,"42592,16667","42,6","ND","ND","ND","ND","ND"],
    [20006,"42592,20833","36,7","ND","ND","ND","ND","ND"],
    [20007,"42592,25","42,4","ND","ND","ND","ND","ND"],
    [20008,"42592,29167","41,8","ND","ND","ND","ND","ND"],
    [20009,"42592,33333","41,8","ND","ND","ND","ND","ND"],
    [20010,"42592,375","46,2","ND","ND","ND","ND","ND"],
    [20011,"42592,41667","36,5","ND","ND","ND","ND","ND"],
    [20012,"42592,45833","28,3","ND","ND","ND","ND","ND"],
    [20013,"42592,5","30,6","ND","ND","ND","ND","ND"],
    [20014,"42592,54167","41,9","0,45","ND","ND","ND","ND"],
    [20015,"42592,58333","47,5","1,99","ND","ND","ND","ND"],
    [20016,"42592,625","30,6","2,25","ND","ND","ND","ND"],
    [20017,"42592,66667","13,7","0,21","ND","ND","ND","ND"],
    [20018,"42592,70833","10,7","ND","ND","ND","ND","ND"],
    [20019,"42592,75","37,3","ND","ND","ND","ND","ND"],
    [20020,"42592,79167","33,1","ND","ND","ND","ND","ND"],
    [20021,"42592,83333","23,1","ND","ND","ND","ND","ND"],
    [20022,"42592,875","38,2","ND","ND","ND","ND","ND"],
    [20023,"42592,91667","38,2","ND","ND","ND","ND","ND"],
    [20024,"42592,95833","38,3","ND","ND","ND","ND","ND"],
    [20025,"42623","27,5","ND","ND","ND","ND","ND"],
    [20026,"42623,04167","23","ND","ND","ND","ND","ND"],
    [20027,"42623,08333","11,9","ND","ND","ND","ND","ND"],
    [20028,"42623,125","11,3","ND","ND","ND","ND","ND"],
    [20029,"42623,16667","16,7","ND","ND","ND","ND","ND"],
    [20030,"42623,20833","4,9","ND","ND","ND","ND","ND"],
    [20031,"42623,25","6,6","ND","ND","ND","ND","ND"],
    [20032,"42623,29167","10,3","ND","ND","ND","ND","ND"],
    [20033,"42623,33333","17,4","ND","ND","ND","ND","ND"],
    [20034,"42623,375","7,1","ND","ND","ND","ND","ND"],
    [20035,"42623,41667","7","ND","ND","ND","ND","ND"],
    [20036,"42623,45833","17,2","ND","ND","ND","ND","ND"],
    [20037,"42623,5","3,7","ND","ND","ND","ND","ND"],
    [20038,"42623,54167","13,9","ND","ND","ND","ND","ND"],
    [20039,"42623,58333","11,5","ND","ND","ND","ND","ND"],
    [20040,"42623,625","20,2","ND","ND","ND","ND","ND"],
    [20041,"42623,66667","32,5","ND","ND","ND","ND","ND"],
    [20042,"42623,70833","19,8","ND","ND","ND","ND","ND"],
    [20043,"42623,75","27","ND","ND","ND","ND","ND"],
    [20044,"42623,79167","32,2","ND","ND","ND","ND","ND"],
    [20045,"42623,83333","37,8","ND","ND","ND","ND","ND"],
    [20046,"42623,875","37,2","ND","ND","ND","ND","ND"],
    [20047,"42623,91667","36,5","ND","ND","ND","ND","ND"],
    [20048,"42623,95833","17,7","ND","ND","ND","ND","ND"],
    [20049,"42653","19,2","ND","ND","ND","ND","ND"],
    [20050,"42653,04167","14,1","ND","ND","ND","ND","ND"],
    [20051,"42653,08333","14,4","ND","ND","ND","ND","ND"],
    [20052,"42653,125","19","0,08","ND","ND","ND","ND"],
    [20053,"42653,16667","20,4","ND","ND","ND","ND","ND"],
    [20054,"42653,20833","26,2","ND","ND","ND","ND","ND"],
    [20055,"42653,25","37,8","ND","ND","ND","ND","ND"],
    [20056,"42653,29167","47,3","ND","ND","ND","ND","ND"],
    [20057,"42653,33333","74,7","0,39","ND","ND","ND","ND"],
    [20058,"42653,375","78,3","0,6","ND","ND","ND","ND"],
    [20059,"42653,41667","51,1","1,89","ND","ND","ND","ND"],
    [20060,"42653,45833","36","1,99","ND","ND","ND","ND"],
    [20061,"42653,5","19,3","1,76","ND","ND","ND","ND"],
    [20062,"42653,54167","29,8","0,79","ND","ND","ND","ND"],
    [20063,"42653,58333","36,3","0,52","ND","ND","ND","ND"],
    [20064,"42653,625","45,6","0,68","ND","ND","ND","ND"],
    [20065,"42653,66667","9,2","ND","ND","ND","ND","ND"],
    [20066,"42653,70833","10,7","ND","ND","ND","ND","ND"],
    [20067,"42653,75","13,1","ND","ND","ND","ND","ND"],
    [20068,"42653,79167","11,3","ND","ND","ND","ND","ND"],
    [20069,"42653,83333","9,5","ND","ND","ND","ND","ND"],
    [20070,"42653,875","13,5","ND","ND","ND","ND","ND"],
    [20071,"42653,91667","55,1","ND","ND","ND","ND","ND"],
    [20072,"42653,95833","35,9","ND","ND","ND","ND","ND"],
    [20073,"42684","38,2","ND","ND","ND","ND","ND"],
    [20074,"42684,04167","42,8","ND","ND","ND","ND","ND"],
    [20075,"42684,08333","29,5","ND","ND","ND","ND","ND"],
    [20076,"42684,125","22,7","ND","ND","ND","ND","ND"],
    [20077,"42684,16667","28,2","ND","ND","ND","ND","ND"],
    [20078,"42684,20833","33","ND","ND","ND","ND","ND"],
    [20079,"42684,25","48,1","ND","ND","ND","ND","ND"],
    [20080,"42684,29167","56,3","ND","ND","ND","ND","ND"],
    [20081,"42684,33333","49,3","ND","ND","ND","ND","ND"],
    [20082,"42684,375","61,5","ND","ND","ND","ND","ND"],
    [20083,"42684,41667","37,1","0,71","ND","ND","ND","ND"],
    [20084,"42684,45833","ND","1,6","ND","ND","ND","ND"],
    [20085,"42684,5","46,4","ND","ND","ND","ND","ND"],
    [20086,"42684,54167","ND","ND","ND","ND","ND","ND"],
    [20087,"42684,58333","ND","ND","ND","ND","ND","ND"],
    [20088,"42684,625","35,6","ND","ND","ND","ND","ND"],
    [20089,"42684,66667","28,9","ND","ND","ND","ND","ND"],
    [20090,"42684,70833","29,7","ND","ND","ND","ND","ND"],
    [20091,"42684,75","32,2","ND","ND","ND","ND","ND"],
    [20092,"42684,79167","48","ND","ND","ND","ND","ND"],
    [20093,"42684,83333","39,2","ND","ND","ND","ND","ND"],
    [20094,"42684,875","39,7","ND","ND","ND","ND","ND"],
    [20095,"42684,91667","37,3","ND","ND","ND","ND","ND"],
    [20096,"42684,95833","33,2","ND","ND","ND","ND","ND"],
    [20097,"42714","29,1","ND","ND","ND","ND","ND"],
    [20098,"42714,04167","32,8","ND","ND","ND","ND","ND"],
    [20099,"42714,08333","31,9","ND","ND","ND","ND","ND"],
    [20100,"42714,125","85,1","ND","ND","ND","ND","ND"],
    [20101,"42714,16667","25,1","ND","ND","ND","ND","ND"],
    [20102,"42714,20833","32,5","ND","ND","ND","ND","ND"],
    [20103,"42714,25","36,9","ND","ND","ND","ND","ND"],
    [20104,"42714,29167","65,3","ND","ND","ND","ND","ND"],
    [20105,"42714,33333","80,4","ND","ND","ND","ND","ND"],
    [20106,"42714,375","95,8","0,39","ND","ND","ND","ND"],
    [20107,"42714,41667","84","1,47","ND","ND","ND","ND"],
    [20108,"42714,45833","57,5","2,65","ND","ND","ND","ND"],
    [20109,"42714,5","59,8","2,8","ND","ND","ND","ND"],
    [20110,"42714,54167","40,3","2,54","ND","ND","ND","ND"],
    [20111,"42714,58333","43,5","2,93","ND","ND","ND","ND"],
    [20112,"42714,625","40,6","2,8","ND","ND","ND","ND"],
    [20113,"42714,66667","34,4","2,15","ND","ND","ND","ND"],
    [20114,"42714,70833","43,2","1,73","ND","ND","ND","ND"],
    [20115,"42714,75","9,6","ND","ND","ND","ND","ND"],
    [20116,"42714,79167","3,1","ND","ND","ND","ND","ND"],
    [20117,"42714,83333","25,9","ND","ND","ND","ND","ND"],
    [20118,"42714,875","19,4","ND","ND","ND","ND","ND"],
    [20119,"42714,91667","41,5","ND","ND","ND","ND","ND"],
    [20120,"42714,95833","56,5","0,16","ND","ND","ND","ND"],
    [20121,"10/13/2016 00:00","30,2","ND","ND","ND","ND","ND"],
    [20122,"10/13/2016 01:00","20","ND","ND","ND","ND","ND"],
    [20123,"10/13/2016 02:00","36,2","ND","ND","ND","ND","ND"],
    [20124,"10/13/2016 03:00","29,3","ND","ND","ND","ND","ND"],
    [20125,"10/13/2016 04:00","31","ND","ND","ND","ND","ND"],
    [20126,"10/13/2016 05:00","42,6","ND","ND","ND","ND","ND"],
    [20127,"10/13/2016 06:00","38,7","ND","ND","ND","ND","ND"],
    [20128,"10/13/2016 07:00","81,4","ND","ND","ND","ND","ND"],
    [20129,"10/13/2016 08:00","60,5","ND","ND","ND","ND","ND"],
    [20130,"10/13/2016 09:00","47,7","0,31","ND","ND","ND","ND"],
    [20131,"10/13/2016 10:00","31,2","0,68","ND","ND","ND","ND"],
    [20132,"10/13/2016 11:00","45,8","1,44","ND","ND","ND","ND"],
    [20133,"10/13/2016 12:00","43,5","1,47","ND","ND","ND","ND"],
    [20134,"10/13/2016 13:00","39,6","1,13","ND","ND","ND","ND"],
    [20135,"10/13/2016 14:00","42,9","0,63","ND","ND","ND","ND"],
    [20136,"10/13/2016 15:00","13,6","0,39","ND","ND","ND","ND"],
    [20137,"10/13/2016 16:00","9,6","ND","ND","ND","ND","ND"],
    [20138,"10/13/2016 17:00","19,6","ND","ND","ND","ND","ND"],
    [20139,"10/13/2016 18:00","13,3","ND","ND","ND","ND","ND"],
    [20140,"10/13/2016 19:00","42,6","ND","ND","ND","ND","ND"],
    [20141,"10/13/2016 20:00","32,4","ND","ND","ND","ND","ND"],
    [20142,"10/13/2016 21:00","69,1","0,81","ND","ND","ND","ND"],
    [20143,"10/13/2016 22:00","90,4","0,42","ND","ND","ND","ND"],
    [20144,"10/13/2016 23:00","83,3","0,24","ND","ND","ND","ND"],
    [20145,"10/14/2016 00:00","32,4","ND","ND","ND","ND","ND"],
    [20146,"10/14/2016 01:00","41,8","ND","ND","ND","ND","ND"],
    [20147,"10/14/2016 02:00","25,4","ND","ND","ND","ND","ND"],
    [20148,"10/14/2016 03:00","16,5","ND","ND","ND","ND","ND"],
    [20149,"10/14/2016 04:00","2,3","ND","ND","ND","ND","ND"],
    [20150,"10/14/2016 05:00","11","ND","ND","ND","ND","ND"],
    [20151,"10/14/2016 06:00","28,3","ND","ND","ND","ND","ND"],
    [20152,"10/14/2016 07:00","34,5","ND","ND","ND","ND","ND"],
    [20153,"10/14/2016 08:00","58,7","2,31","ND","ND","ND","ND"],
    [20154,"10/14/2016 09:00","50","3,14","ND","ND","ND","ND"],
    [20155,"10/14/2016 10:00","88,6","2,33","ND","ND","ND","ND"],
    [20156,"10/14/2016 11:00","38,5","1,49","ND","ND","ND","ND"],
    [20157,"10/14/2016 12:00","33,4","0,92","ND","ND","ND","ND"],
    [20158,"10/14/2016 13:00","31,6","0,1","ND","ND","ND","ND"],
    [20159,"10/14/2016 14:00","30,4","ND","ND","ND","ND","ND"],
    [20160,"10/14/2016 15:00","39,8","ND","ND","ND","ND","ND"],
    [20161,"10/14/2016 16:00","47,5","ND","ND","ND","ND","ND"],
    [20162,"10/14/2016 17:00","45,1","0,21","ND","ND","ND","ND"],
    [20163,"10/14/2016 18:00","35,8","0,31","ND","ND","ND","ND"],
    [20164,"10/14/2016 19:00","15,2","0,05","ND","ND","ND","ND"],
    [20165,"10/14/2016 20:00","31,9","0,39","ND","ND","ND","ND"],
    [20166,"10/14/2016 21:00","35,9","ND","ND","ND","ND","ND"],
    [20167,"10/14/2016 22:00","58,9","ND","ND","ND","ND","ND"],
    [20168,"10/14/2016 23:00","59","ND","ND","ND","ND","ND"],
    [20169,"10/15/2016 00:00","35,2","ND","ND","ND","ND","ND"],
    [20170,"10/15/2016 01:00","35,2","ND","ND","ND","ND","ND"],
    [20171,"10/15/2016 02:00","36,3","ND","ND","ND","ND","ND"],
    [20172,"10/15/2016 03:00","42,7","ND","ND","ND","ND","ND"],
    [20173,"10/15/2016 04:00","44,9","ND","ND","ND","ND","ND"],
    [20174,"10/15/2016 05:00","38,1","ND","ND","ND","ND","ND"],
    [20175,"10/15/2016 06:00","54,2","ND","ND","ND","ND","ND"],
    [20176,"10/15/2016 07:00","54,9","ND","ND","ND","ND","ND"],
    [20177,"10/15/2016 08:00","55,9","ND","ND","ND","ND","ND"],
    [20178,"10/15/2016 09:00","58,9","0,03","ND","ND","ND","ND"],
    [20179,"10/15/2016 10:00","68,8","0,97","ND","ND","ND","ND"],
    [20180,"10/15/2016 11:00","56,1","1,13","ND","ND","ND","ND"],
    [20181,"10/15/2016 12:00","4,4","ND","ND","ND","ND","ND"],
    [20182,"10/15/2016 13:00","ND","ND","ND","ND","ND","ND"],
    [20183,"10/15/2016 14:00","ND","ND","ND","ND","ND","ND"],
    [20184,"10/15/2016 15:00","15,5","ND","ND","ND","ND","ND"],
    [20185,"10/15/2016 16:00","10,6","ND","ND","ND","ND","ND"],
    [20186,"10/15/2016 17:00","27,1","ND","ND","ND","ND","ND"],
    [20187,"10/15/2016 18:00","43,1","ND","ND","ND","ND","ND"],
    [20188,"10/15/2016 19:00","45,5","ND","ND","ND","ND","ND"],
    [20189,"10/15/2016 20:00","ND","ND","ND","ND","ND","ND"],
    [20190,"10/15/2016 21:00","22,5","ND","ND","ND","ND","ND"],
    [20191,"10/15/2016 22:00","25,9","ND","ND","ND","ND","ND"],
    [20192,"10/15/2016 23:00","16,7","ND","ND","ND","ND","ND"],
    [20193,"10/16/2016 00:00","14,1","ND","ND","ND","ND","ND"],
    [20194,"10/16/2016 01:00","21,1","ND","ND","ND","ND","ND"],
    [20195,"10/16/2016 02:00","29,8","ND","ND","ND","ND","ND"],
    [20196,"10/16/2016 03:00","17","ND","ND","ND","ND","ND"],
    [20197,"10/16/2016 04:00","30,2","ND","ND","ND","ND","ND"],
    [20198,"10/16/2016 05:00","26,5","ND","ND","ND","ND","ND"],
    [20199,"10/16/2016 06:00","32,6","ND","ND","ND","ND","ND"],
    [20200,"10/16/2016 07:00","37,8","ND","ND","ND","ND","ND"],
    [20201,"10/16/2016 08:00","38,7","ND","ND","ND","ND","ND"],
    [20202,"10/16/2016 09:00","30,9","0,08","ND","ND","ND","ND"],
    [20203,"10/16/2016 10:00","32,4","0,37","ND","ND","ND","ND"],
    [20204,"10/16/2016 11:00","22,4","1,13","ND","ND","ND","ND"],
    [20205,"10/16/2016 12:00","29,8","0,18","ND","ND","ND","ND"],
    [20206,"10/16/2016 13:00","30,3","ND","ND","ND","ND","ND"],
    [20207,"10/16/2016 14:00","50,2","ND","ND","ND","ND","ND"],
    [20208,"10/16/2016 15:00","40,7","0,5","ND","ND","ND","ND"],
    [20209,"10/16/2016 16:00","34,8","0,05","ND","ND","ND","ND"],
    [20210,"10/16/2016 17:00","17","ND","ND","ND","ND","ND"],
    [20211,"10/16/2016 18:00","2,8","ND","ND","ND","ND","ND"],
    [20212,"10/16/2016 19:00","1,2","ND","ND","ND","ND","ND"],
    [20213,"10/16/2016 20:00","5,7","ND","ND","ND","ND","ND"],
    [20214,"10/16/2016 21:00","9,7","ND","ND","ND","ND","ND"],
    [20215,"10/16/2016 22:00","36,7","ND","ND","ND","ND","ND"],
    [20216,"10/16/2016 23:00","33,5","ND","ND","ND","ND","ND"],
    [20217,"10/17/2016 00:00","43","ND","ND","ND","ND","ND"],
    [20218,"10/17/2016 01:00","30,3","ND","ND","ND","ND","ND"],
    [20219,"10/17/2016 02:00","28,4","ND","ND","ND","ND","ND"],
    [20220,"10/17/2016 03:00","35,5","ND","ND","ND","ND","ND"],
    [20221,"10/17/2016 04:00","30,2","ND","ND","ND","ND","ND"],
    [20222,"10/17/2016 05:00","30","ND","ND","ND","ND","ND"],
    [20223,"10/17/2016 06:00","24,7","ND","ND","ND","ND","ND"],
    [20224,"10/17/2016 07:00","33","ND","ND","ND","ND","ND"],
    [20225,"10/17/2016 08:00","34,1","ND","ND","ND","ND","ND"],
    [20226,"10/17/2016 09:00","29,3","0,45","ND","ND","ND","ND"],
    [20227,"10/17/2016 10:00","19,8","ND","ND","ND","ND","ND"],
    [20228,"10/17/2016 11:00","23,1","ND","ND","ND","ND","ND"],
    [20229,"10/17/2016 12:00","19,5","ND","ND","ND","ND","ND"],
    [20230,"10/17/2016 13:00","31,4","ND","ND","ND","ND","ND"],
    [20231,"10/17/2016 14:00","8,6","ND","ND","ND","ND","ND"],
    [20232,"10/17/2016 15:00","27","ND","ND","ND","ND","ND"],
    [20233,"10/17/2016 16:00","27","ND","ND","ND","ND","ND"],
    [20234,"10/17/2016 17:00","5,7","ND","ND","ND","ND","ND"],
    [20235,"10/17/2016 18:00","8","ND","ND","ND","ND","ND"],
    [20236,"10/17/2016 19:00","35,8","ND","ND","ND","ND","ND"],
    [20237,"10/17/2016 20:00","29,1","ND","ND","ND","ND","ND"],
    [20238,"10/17/2016 21:00","29,1","ND","ND","ND","ND","ND"],
    [20239,"10/17/2016 22:00","42,3","ND","ND","ND","ND","ND"],
    [20240,"10/17/2016 23:00","62,3","ND","ND","ND","ND","ND"],
    [20241,"10/18/2016 00:00","25,8","ND","ND","ND","ND","ND"],
    [20242,"10/18/2016 01:00","23","ND","ND","ND","ND","ND"],
    [20243,"10/18/2016 02:00","29","ND","ND","ND","ND","ND"],
    [20244,"10/18/2016 03:00","39,7","ND","ND","ND","ND","ND"],
    [20245,"10/18/2016 04:00","20,2","ND","ND","ND","ND","ND"],
    [20246,"10/18/2016 05:00","16,6","ND","ND","ND","ND","ND"],
    [20247,"10/18/2016 06:00","16,1","ND","ND","ND","ND","ND"],
    [20248,"10/18/2016 07:00","17,9","ND","ND","ND","ND","ND"],
    [20249,"10/18/2016 08:00","33","0,13","ND","ND","ND","ND"],
    [20250,"10/18/2016 09:00","26,6","0,29","ND","ND","ND","ND"],
    [20251,"10/18/2016 10:00","26,8","0,16","ND","ND","ND","ND"],
    [20252,"10/18/2016 11:00","11,7","ND","ND","ND","ND","ND"],
    [20253,"10/18/2016 12:00","18,6","ND","ND","ND","ND","ND"],
    [20254,"10/18/2016 13:00","19,9","0,08","ND","ND","ND","ND"],
    [20255,"10/18/2016 14:00","31,1","0,45","ND","ND","ND","ND"],
    [20256,"10/18/2016 15:00","51,9","ND","ND","ND","ND","ND"],
    [20257,"10/18/2016 16:00","13,3","ND","ND","ND","ND","ND"],
    [20258,"10/18/2016 17:00","9,8","0,1","ND","ND","ND","ND"],
    [20259,"10/18/2016 18:00","27,5","ND","ND","ND","ND","ND"],
    [20260,"10/18/2016 19:00","24,6","0,1","ND","ND","ND","ND"],
    [20261,"10/18/2016 20:00","43,5","ND","ND","ND","ND","ND"],
    [20262,"10/18/2016 21:00","60,6","ND","ND","ND","ND","ND"],
    [20263,"10/18/2016 22:00","37,9","ND","ND","ND","ND","ND"],
    [20264,"10/18/2016 23:00","42,7","ND","ND","ND","ND","ND"],
    [20265,"10/19/2016 00:00","25,6","ND","ND","ND","ND","ND"],
    [20266,"10/19/2016 01:00","33,3","ND","ND","ND","ND","ND"],
    [20267,"10/19/2016 02:00","62,8","ND","ND","ND","ND","ND"],
    [20268,"10/19/2016 03:00","31","ND","ND","ND","ND","ND"],
    [20269,"10/19/2016 04:00","25,8","ND","ND","ND","ND","ND"],
    [20270,"10/19/2016 05:00","29,1","ND","ND","ND","ND","ND"],
    [20271,"10/19/2016 06:00","51,2","ND","ND","ND","ND","ND"],
    [20272,"10/19/2016 07:00","71","ND","ND","ND","ND","ND"],
    [20273,"10/19/2016 08:00","71,8","0,6","ND","ND","ND","ND"],
    [20274,"10/19/2016 09:00","84,4","1,05","ND","ND","ND","ND"],
    [20275,"10/19/2016 10:00","59,6","0,84","ND","ND","ND","ND"],
    [20276,"10/19/2016 11:00","41,1","1,26","ND","ND","ND","ND"],
    [20277,"10/19/2016 12:00","60,4","1,78","ND","ND","ND","ND"],
    [20278,"10/19/2016 13:00","52,6","2,02","ND","ND","ND","ND"],
    [20279,"10/19/2016 14:00","41,6","2,1","ND","ND","ND","ND"],
    [20280,"10/19/2016 15:00","8,6","0,03","ND","ND","ND","ND"],
    [20281,"10/19/2016 16:00","13,7","ND","ND","ND","ND","ND"],
    [20282,"10/19/2016 17:00","14,2","ND","ND","ND","ND","ND"],
    [20283,"10/19/2016 18:00","9,6","ND","ND","ND","ND","ND"],
    [20284,"10/19/2016 19:00","10,4","ND","ND","ND","ND","ND"],
    [20285,"10/19/2016 20:00","18,4","ND","ND","ND","ND","ND"],
    [20286,"10/19/2016 21:00","32","ND","ND","ND","ND","ND"],
    [20287,"10/19/2016 22:00","56,8","0,05","ND","ND","ND","ND"],
    [20288,"10/19/2016 23:00","33,7","ND","ND","ND","ND","ND"],
    [20289,"10/20/2016 00:00","36,7","ND","ND","ND","ND","ND"],
    [20290,"10/20/2016 01:00","29,7","ND","ND","ND","ND","ND"],
    [20291,"10/20/2016 02:00","24,8","ND","ND","ND","ND","ND"],
    [20292,"10/20/2016 03:00","21,6","ND","ND","ND","ND","ND"],
    [20293,"10/20/2016 04:00","35","ND","ND","ND","ND","ND"],
    [20294,"10/20/2016 05:00","23,7","ND","ND","ND","ND","ND"],
    [20295,"10/20/2016 06:00","47,5","ND","ND","ND","ND","ND"],
    [20296,"10/20/2016 07:00","42,3","0,08","ND","ND","ND","ND"],
    [20297,"10/20/2016 08:00","54,2","0,18","ND","ND","ND","ND"],
    [20298,"10/20/2016 09:00","57,9","0,34","ND","ND","ND","ND"],
    [20299,"10/20/2016 10:00","39","0,45","ND","ND","ND","ND"],
    [20300,"10/20/2016 11:00","48","1,83","ND","ND","ND","ND"],
    [20301,"10/20/2016 12:00","48,1","3,09","ND","ND","ND","ND"],
    [20302,"10/20/2016 13:00","52,2","1,76","ND","ND","ND","ND"],
    [20303,"10/20/2016 14:00","35,2","0,79","ND","ND","ND","ND"],
    [20304,"10/20/2016 15:00","34","0,89","ND","ND","ND","ND"],
    [20305,"10/20/2016 16:00","15,6","0,81","ND","ND","ND","ND"],
    [20306,"10/20/2016 17:00","21,4","ND","ND","ND","ND","ND"],
    [20307,"10/20/2016 18:00","17,3","ND","ND","ND","ND","ND"],
    [20308,"10/20/2016 19:00","22,2","ND","ND","ND","ND","ND"],
    [20309,"10/20/2016 20:00","14,1","ND","ND","ND","ND","ND"],
    [20310,"10/20/2016 21:00","8,6","ND","ND","ND","ND","ND"],
    [20311,"10/20/2016 22:00","17,6","ND","ND","ND","ND","ND"],
    [20312,"10/20/2016 23:00","62,9","ND","ND","ND","ND","ND"],
    [20313,"10/21/2016 00:00","54,5","ND","ND","ND","ND","ND"],
    [20314,"10/21/2016 01:00","37,9","ND","ND","ND","ND","ND"],
    [20315,"10/21/2016 02:00","31,3","ND","ND","ND","ND","ND"],
    [20316,"10/21/2016 03:00","31,8","ND","ND","ND","ND","ND"],
    [20317,"10/21/2016 04:00","33,3","ND","ND","ND","ND","ND"],
    [20318,"10/21/2016 05:00","35,2","ND","ND","ND","ND","ND"],
    [20319,"10/21/2016 06:00","51,6","ND","ND","ND","ND","ND"],
    [20320,"10/21/2016 07:00","77,1","0,03","ND","ND","ND","ND"],
    [20321,"10/21/2016 08:00","92,4","0,24","ND","ND","ND","ND"],
    [20322,"10/21/2016 09:00","59,9","0,73","ND","ND","ND","ND"],
    [20323,"10/21/2016 10:00","57,4","0,79","ND","ND","ND","ND"],
    [20324,"10/21/2016 11:00","42,1","0,89","ND","ND","ND","ND"],
    [20325,"10/21/2016 12:00","58,9","1,02","ND","ND","ND","ND"],
    [20326,"10/21/2016 13:00","29,7","1,41","ND","ND","ND","ND"],
    [20327,"10/21/2016 14:00","18,6","ND","ND","ND","ND","ND"],
    [20328,"10/21/2016 15:00","11,4","ND","ND","ND","ND","ND"],
    [20329,"10/21/2016 16:00","30","ND","ND","ND","ND","ND"],
    [20330,"10/21/2016 17:00","16,1","ND","ND","ND","ND","ND"],
    [20331,"10/21/2016 18:00","19,7","ND","ND","ND","ND","ND"],
    [20332,"10/21/2016 19:00","10","ND","ND","ND","ND","ND"],
    [20333,"10/21/2016 20:00","9,4","ND","ND","ND","ND","ND"],
    [20334,"10/21/2016 21:00","58,2","ND","ND","ND","ND","ND"],
    [20335,"10/21/2016 22:00","53,2","0,05","ND","ND","ND","ND"],
    [20336,"10/21/2016 23:00","43,6","ND","ND","ND","ND","ND"],
    [20337,"10/22/2016 00:00","13","ND","ND","ND","ND","ND"],
    [20338,"10/22/2016 01:00","31,9","ND","ND","ND","ND","ND"],
    [20339,"10/22/2016 02:00","23,5","ND","ND","ND","ND","ND"],
    [20340,"10/22/2016 03:00","21,6","ND","ND","ND","ND","ND"],
    [20341,"10/22/2016 04:00","39,8","ND","ND","ND","ND","ND"],
    [20342,"10/22/2016 05:00","36,3","ND","ND","ND","ND","ND"],
    [20343,"10/22/2016 06:00","36,8","ND","ND","ND","ND","ND"],
    [20344,"10/22/2016 07:00","37,5","ND","ND","ND","ND","ND"],
    [20345,"10/22/2016 08:00","41,3","ND","ND","ND","ND","ND"],
    [20346,"10/22/2016 09:00","61,7","ND","ND","ND","ND","ND"],
    [20347,"10/22/2016 10:00","47,2","ND","ND","ND","ND","ND"],
    [20348,"10/22/2016 11:00","45,4","ND","ND","ND","ND","ND"],
    [20349,"10/22/2016 12:00","49,8","0,16","ND","ND","ND","ND"],
    [20350,"10/22/2016 13:00","37","ND","ND","ND","ND","ND"],
    [20351,"10/22/2016 14:00","16,9","ND","ND","ND","ND","ND"],
    [20352,"10/22/2016 15:00","14,7","ND","ND","ND","ND","ND"],
    [20353,"10/22/2016 16:00","ND","ND","ND","ND","ND","ND"],
    [20354,"10/22/2016 17:00","15,4","ND","ND","ND","ND","ND"],
    [20355,"10/22/2016 18:00","8,2","ND","ND","ND","ND","ND"],
    [20356,"10/22/2016 19:00","25,5","ND","ND","ND","ND","ND"],
    [20357,"10/22/2016 20:00","22,6","ND","ND","ND","ND","ND"],
    [20358,"10/22/2016 21:00","26,2","ND","ND","ND","ND","ND"],
    [20359,"10/22/2016 22:00","33,9","ND","ND","ND","ND","ND"],
    [20360,"10/22/2016 23:00","41,3","ND","ND","ND","ND","ND"],
    [20361,"10/23/2016 00:00","43,5","ND","ND","ND","ND","ND"],
    [20362,"10/23/2016 01:00","30,9","ND","ND","ND","ND","ND"],
    [20363,"10/23/2016 02:00","25,2","ND","ND","ND","ND","ND"],
    [20364,"10/23/2016 03:00","5,1","ND","ND","ND","ND","ND"],
    [20365,"10/23/2016 04:00","8,4","ND","ND","ND","ND","ND"],
    [20366,"10/23/2016 05:00","7,6","ND","ND","ND","ND","ND"],
    [20367,"10/23/2016 06:00","8,2","ND","ND","ND","ND","ND"],
    [20368,"10/23/2016 07:00","ND","ND","ND","ND","ND","ND"],
    [20369,"10/23/2016 08:00","6,7","ND","ND","ND","ND","ND"],
    [20370,"10/23/2016 09:00","2,6","ND","ND","ND","ND","ND"],
    [20371,"10/23/2016 10:00","0,2","ND","ND","ND","ND","ND"],
    [20372,"10/23/2016 11:00","2,5","ND","ND","ND","ND","ND"],
    [20373,"10/23/2016 12:00","16,8","ND","ND","ND","ND","ND"],
    [20374,"10/23/2016 13:00","0,7","ND","ND","ND","ND","ND"],
    [20375,"10/23/2016 14:00","ND","ND","ND","ND","ND","ND"],
    [20376,"10/23/2016 15:00","ND","ND","ND","ND","ND","ND"],
    [20377,"10/23/2016 16:00","41,8","ND","ND","ND","ND","ND"],
    [20378,"10/23/2016 17:00","28,9","ND","ND","ND","ND","ND"],
    [20379,"10/23/2016 18:00","11,2","ND","ND","ND","ND","ND"],
    [20380,"10/23/2016 19:00","8,7","ND","ND","ND","ND","ND"],
    [20381,"10/23/2016 20:00","18,5","ND","ND","ND","ND","ND"],
    [20382,"10/23/2016 21:00","16,3","ND","ND","ND","ND","ND"],
    [20383,"10/23/2016 22:00","35,7","ND","ND","ND","ND","ND"],
    [20384,"10/23/2016 23:00","30,1","ND","ND","ND","ND","ND"],
    [20385,"10/24/2016 00:00","20,4","ND","ND","ND","ND","ND"],
    [20386,"10/24/2016 01:00","14,6","ND","ND","ND","ND","ND"],
    [20387,"10/24/2016 02:00","24,5","ND","ND","ND","ND","ND"],
    [20388,"10/24/2016 03:00","14,1","ND","ND","ND","ND","ND"],
    [20389,"10/24/2016 04:00","20,8","ND","ND","ND","ND","ND"],
    [20390,"10/24/2016 05:00","29,9","ND","ND","ND","ND","ND"],
    [20391,"10/24/2016 06:00","34","ND","ND","ND","ND","ND"],
    [20392,"10/24/2016 07:00","56,7","ND","ND","ND","ND","ND"],
    [20393,"10/24/2016 08:00","32,6","ND","ND","ND","ND","ND"],
    [20394,"10/24/2016 09:00","54,7","0,79","ND","ND","ND","ND"],
    [20395,"10/24/2016 10:00","46,9","0,97","ND","ND","ND","ND"],
    [20396,"10/24/2016 11:00","49,8","5,42","ND","ND","ND","ND"],
    [20397,"10/24/2016 12:00","24,7","1,68","ND","ND","ND","ND"],
    [20398,"10/24/2016 13:00","0,5","ND","ND","ND","ND","ND"],
    [20399,"10/24/2016 14:00","5,5","ND","ND","ND","ND","ND"],
    [20400,"10/24/2016 15:00","12,1","ND","ND","ND","ND","ND"],
    [20401,"10/24/2016 16:00","15,3","ND","ND","ND","ND","ND"],
    [20402,"10/24/2016 17:00","31,1","ND","ND","ND","ND","ND"],
    [20403,"10/24/2016 18:00","19,9","ND","ND","ND","ND","ND"],
    [20404,"10/24/2016 19:00","13,3","ND","ND","ND","ND","ND"],
    [20405,"10/24/2016 20:00","30,7","ND","ND","ND","ND","ND"],
    [20406,"10/24/2016 21:00","49,6","ND","ND","ND","ND","ND"],
    [20407,"10/24/2016 22:00","16,7","ND","ND","ND","ND","ND"],
    [20408,"10/24/2016 23:00","21,5","ND","ND","ND","ND","ND"],
    [20409,"10/25/2016 00:00","0,8","ND","ND","ND","ND","ND"],
    [20410,"10/25/2016 01:00","7,2","ND","ND","ND","ND","ND"],
    [20411,"10/25/2016 02:00","6","ND","ND","ND","ND","ND"],
    [20412,"10/25/2016 03:00","11,2","ND","ND","ND","ND","ND"],
    [20413,"10/25/2016 04:00","ND","ND","ND","ND","ND","ND"],
    [20414,"10/25/2016 05:00","23,6","ND","ND","ND","ND","ND"],
    [20415,"10/25/2016 06:00","14,5","ND","ND","ND","ND","ND"],
    [20416,"10/25/2016 07:00","24,7","ND","ND","ND","ND","ND"],
    [20417,"10/25/2016 08:00","15,9","ND","ND","ND","ND","ND"],
    [20418,"10/25/2016 09:00","31,1","ND","ND","ND","ND","ND"],
    [20419,"10/25/2016 10:00","27,2","ND","ND","ND","ND","ND"],
    [20420,"10/25/2016 11:00","33,8","ND","ND","ND","ND","ND"],
    [20421,"10/25/2016 12:00","55,6","ND","ND","ND","ND","ND"],
    [20422,"10/25/2016 13:00","46,6","0,31","ND","ND","ND","ND"],
    [20423,"10/25/2016 14:00","45,3","0,24","ND","ND","ND","ND"],
    [20424,"10/25/2016 15:00","37,4","0,24","ND","ND","ND","ND"],
    [20425,"10/25/2016 16:00","26,3","ND","ND","ND","ND","ND"],
    [20426,"10/25/2016 17:00","19,6","ND","ND","ND","ND","ND"],
    [20427,"10/25/2016 18:00","12,5","ND","ND","ND","ND","ND"],
    [20428,"10/25/2016 19:00","ND","ND","ND","ND","ND","ND"],
    [20429,"10/25/2016 20:00","ND","ND","ND","ND","ND","ND"],
    [20430,"10/25/2016 21:00","ND","ND","ND","ND","ND","ND"],
    [20431,"10/25/2016 22:00","31,5","ND","ND","ND","ND","ND"],
    [20432,"10/25/2016 23:00","5,1","ND","ND","ND","ND","ND"],
    [20433,"10/26/2016 00:00","13,8","ND","ND","ND","ND","ND"],
    [20434,"10/26/2016 01:00","13,7","ND","ND","ND","ND","ND"],
    [20435,"10/26/2016 02:00","24,1","ND","ND","ND","ND","ND"],
    [20436,"10/26/2016 03:00","12,4","ND","ND","ND","ND","ND"],
    [20437,"10/26/2016 04:00","17,7","ND","ND","ND","ND","ND"],
    [20438,"10/26/2016 05:00","18,7","ND","ND","ND","ND","ND"],
    [20439,"10/26/2016 06:00","29,5","ND","ND","ND","ND","ND"],
    [20440,"10/26/2016 07:00","62,3","0,24","ND","ND","ND","ND"],
    [20441,"10/26/2016 08:00","87,5","0,34","ND","ND","ND","ND"],
    [20442,"10/26/2016 09:00","40","ND","ND","ND","ND","ND"],
    [20443,"10/26/2016 10:00","64,1","ND","ND","ND","ND","ND"],
    [20444,"10/26/2016 11:00","50,1","ND","ND","ND","ND","ND"],
    [20445,"10/26/2016 12:00","41,7","ND","ND","ND","ND","ND"],
    [20446,"10/26/2016 13:00","55,8","ND","ND","ND","ND","ND"],
    [20447,"10/26/2016 14:00","24,9","ND","ND","ND","ND","ND"],
    [20448,"10/26/2016 15:00","2,7","ND","ND","ND","ND","ND"],
    [20449,"10/26/2016 16:00","2,7","ND","ND","ND","ND","ND"],
    [20450,"10/26/2016 17:00","6,8","ND","ND","ND","ND","ND"],
    [20451,"10/26/2016 18:00","14,9","ND","ND","ND","ND","ND"],
    [20452,"10/26/2016 19:00","18,6","ND","ND","ND","ND","ND"],
    [20453,"10/26/2016 20:00","43,1","0,45","ND","ND","ND","ND"],
    [20454,"10/26/2016 21:00","49,1","ND","ND","ND","ND","ND"],
    [20455,"10/26/2016 22:00","36,6","ND","ND","ND","ND","ND"],
    [20456,"10/26/2016 23:00","28,8","ND","ND","ND","ND","ND"],
    [20457,"10/27/2016 00:00","20,2","ND","ND","ND","ND","ND"],
    [20458,"10/27/2016 01:00","24,7","ND","ND","ND","ND","ND"],
    [20459,"10/27/2016 02:00","24,1","ND","ND","ND","ND","ND"],
    [20460,"10/27/2016 03:00","22,6","ND","ND","ND","ND","ND"],
    [20461,"10/27/2016 04:00","21,5","ND","ND","ND","ND","ND"],
    [20462,"10/27/2016 05:00","25,4","ND","ND","ND","ND","ND"],
    [20463,"10/27/2016 06:00","38","ND","ND","ND","ND","ND"],
    [20464,"10/27/2016 07:00","60","ND","ND","ND","ND","ND"],
    [20465,"10/27/2016 08:00","76,4","0,21","ND","ND","ND","ND"],
    [20466,"10/27/2016 09:00","51,2","ND","ND","ND","ND","ND"],
    [20467,"10/27/2016 10:00","40,6","ND","ND","ND","ND","ND"],
    [20468,"10/27/2016 11:00","31,9","ND","ND","ND","ND","ND"],
    [20469,"10/27/2016 12:00","19,1","ND","ND","ND","ND","ND"],
    [20470,"10/27/2016 13:00","23,2","ND","ND","ND","ND","ND"],
    [20471,"10/27/2016 14:00","47","ND","ND","ND","ND","ND"],
    [20472,"10/27/2016 15:00","33,9","ND","ND","ND","ND","ND"],
    [20473,"10/27/2016 16:00","14,8","ND","ND","ND","ND","ND"],
    [20474,"10/27/2016 17:00","16,6","ND","ND","ND","ND","ND"],
    [20475,"10/27/2016 18:00","10,3","ND","ND","ND","ND","ND"],
    [20476,"10/27/2016 19:00","10,4","ND","ND","ND","ND","ND"],
    [20477,"10/27/2016 20:00","10,5","ND","ND","ND","ND","ND"],
    [20478,"10/27/2016 21:00","10,5","ND","ND","ND","ND","ND"],
    [20479,"10/27/2016 22:00","27,9","ND","ND","ND","ND","ND"],
    [20480,"10/27/2016 23:00","41,1","ND","ND","ND","ND","ND"],
    [20481,"10/28/2016 00:00","34,5","ND","ND","ND","ND","ND"],
    [20482,"10/28/2016 01:00","28,6","ND","ND","ND","ND","ND"],
    [20483,"10/28/2016 02:00","15,8","ND","ND","ND","ND","ND"],
    [20484,"10/28/2016 03:00","29,4","ND","ND","ND","ND","ND"],
    [20485,"10/28/2016 04:00","22,9","ND","ND","ND","ND","ND"],
    [20486,"10/28/2016 05:00","30,1","ND","ND","ND","ND","ND"],
    [20487,"10/28/2016 06:00","42,4","ND","ND","ND","ND","ND"],
    [20488,"10/28/2016 07:00","15","ND","ND","ND","ND","ND"],
    [20489,"10/28/2016 08:00","16,6","ND","ND","ND","ND","ND"],
    [20490,"10/28/2016 09:00","13,3","ND","ND","ND","ND","ND"],
    [20491,"10/28/2016 10:00","31,6","ND","ND","ND","ND","ND"],
    [20492,"10/28/2016 11:00","20,5","ND","ND","ND","ND","ND"],
    [20493,"10/28/2016 12:00","24,9","ND","ND","ND","ND","ND"],
    [20494,"10/28/2016 13:00","24,4","ND","ND","ND","ND","ND"],
    [20495,"10/28/2016 14:00","27,8","ND","ND","ND","ND","ND"],
    [20496,"10/28/2016 15:00","64,4","ND","ND","ND","ND","ND"],
    [20497,"10/28/2016 16:00","64,4","ND","ND","ND","ND","ND"],
    [20498,"10/28/2016 17:00","62","ND","ND","ND","ND","ND"],
    [20499,"10/28/2016 18:00","ND","ND","ND","ND","ND","ND"],
    [20500,"10/28/2016 19:00","30,9","ND","ND","ND","ND","ND"],
    [20501,"10/28/2016 20:00","14,7","ND","ND","ND","ND","ND"],
    [20502,"10/28/2016 21:00","56,1","ND","ND","ND","ND","ND"],
    [20503,"10/28/2016 22:00","63,5","ND","ND","ND","ND","ND"],
    [20504,"10/28/2016 23:00","35,7","ND","ND","ND","ND","ND"],
    [20505,"10/29/2016 00:00","17,2","ND","ND","ND","ND","ND"],
    [20506,"10/29/2016 01:00","26,7","ND","ND","ND","ND","ND"],
    [20507,"10/29/2016 02:00","50,2","ND","ND","ND","ND","ND"],
    [20508,"10/29/2016 03:00","ND","ND","ND","ND","ND","ND"],
    [20509,"10/29/2016 04:00","ND","ND","ND","ND","ND","ND"],
    [20510,"10/29/2016 05:00","ND","ND","ND","ND","ND","ND"],
    [20511,"10/29/2016 06:00","ND","ND","ND","ND","ND","ND"],
    [20512,"10/29/2016 07:00","ND","ND","ND","ND","ND","ND"],
    [20513,"10/29/2016 08:00","28,2","ND","ND","ND","ND","ND"],
    [20514,"10/29/2016 09:00","1,2","ND","ND","ND","ND","ND"],
    [20515,"10/29/2016 10:00","25","ND","ND","ND","ND","ND"],
    [20516,"10/29/2016 11:00","15,3","ND","ND","ND","ND","ND"],
    [20517,"10/29/2016 12:00","28,9","ND","ND","ND","ND","ND"],
    [20518,"10/29/2016 13:00","32,8","ND","ND","ND","ND","ND"],
    [20519,"10/29/2016 14:00","29,2","ND","ND","ND","ND","ND"],
    [20520,"10/29/2016 15:00","32,1","ND","ND","ND","ND","ND"],
    [20521,"10/29/2016 16:00","36,5","ND","ND","ND","ND","ND"],
    [20522,"10/29/2016 17:00","36,1","ND","ND","ND","ND","ND"],
    [20523,"10/29/2016 18:00","26,9","ND","ND","ND","ND","ND"],
    [20524,"10/29/2016 19:00","40","ND","ND","ND","ND","ND"],
    [20525,"10/29/2016 20:00","38,8","ND","ND","ND","ND","ND"],
    [20526,"10/29/2016 21:00","38,1","ND","ND","ND","ND","ND"],
    [20527,"10/29/2016 22:00","47,3","ND","ND","ND","ND","ND"],
    [20528,"10/29/2016 23:00","46,7","ND","ND","ND","ND","ND"],
    [20529,"10/30/2016 00:00","39","ND","ND","ND","ND","ND"],
    [20530,"10/30/2016 01:00","39,7","ND","ND","ND","ND","ND"],
    [20531,"10/30/2016 02:00","36,3","ND","ND","ND","ND","ND"],
    [20532,"10/30/2016 03:00","35,5","ND","ND","ND","ND","ND"],
    [20533,"10/30/2016 04:00","32,4","ND","ND","ND","ND","ND"],
    [20534,"10/30/2016 05:00","31,6","ND","ND","ND","ND","ND"],
    [20535,"10/30/2016 06:00","44,3","ND","ND","ND","ND","ND"],
    [20536,"10/30/2016 07:00","35,9","ND","ND","ND","ND","ND"],
    [20537,"10/30/2016 08:00","41,6","ND","ND","ND","ND","ND"],
    [20538,"10/30/2016 09:00","37,5","ND","ND","ND","ND","ND"],
    [20539,"10/30/2016 10:00","36,6","ND","ND","ND","ND","ND"],
    [20540,"10/30/2016 11:00","38,2","ND","ND","ND","ND","ND"],
    [20541,"10/30/2016 12:00","34,1","ND","ND","ND","ND","ND"],
    [20542,"10/30/2016 13:00","32,9","ND","ND","ND","ND","ND"],
    [20543,"10/30/2016 14:00","31,9","ND","ND","ND","ND","ND"],
    [20544,"10/30/2016 15:00","15,5","ND","ND","ND","ND","ND"],
    [20545,"10/30/2016 16:00","4","ND","ND","ND","ND","ND"],
    [20546,"10/30/2016 17:00","16,4","ND","ND","ND","ND","ND"],
    [20547,"10/30/2016 18:00","16","ND","ND","ND","ND","ND"],
    [20548,"10/30/2016 19:00","20,3","ND","ND","ND","ND","ND"],
    [20549,"10/30/2016 20:00","11,6","ND","ND","ND","ND","ND"],
    [20550,"10/30/2016 21:00","10,9","ND","ND","ND","ND","ND"],
    [20551,"10/30/2016 22:00","29,5","ND","ND","ND","ND","ND"],
    [20552,"10/30/2016 23:00","31,2","ND","ND","ND","ND","ND"],
    [20553,"10/31/2016 00:00","31,8","ND","ND","ND","ND","ND"],
    [20554,"10/31/2016 01:00","24,3","ND","ND","ND","ND","ND"],
    [20555,"10/31/2016 02:00","23,7","ND","ND","ND","ND","ND"],
    [20556,"10/31/2016 03:00","20,5","ND","ND","ND","ND","ND"],
    [20557,"10/31/2016 04:00","30","ND","ND","ND","ND","ND"],
    [20558,"10/31/2016 05:00","19","ND","ND","ND","ND","ND"],
    [20559,"10/31/2016 06:00","ND","ND","ND","ND","ND","ND"],
    [20560,"10/31/2016 07:00","62,3","ND","ND","ND","ND","ND"],
    [20561,"10/31/2016 08:00","37,2","0,13","ND","ND","ND","ND"],
    [20562,"10/31/2016 09:00","52,6","0,26","ND","ND","ND","ND"],
    [20563,"10/31/2016 10:00","35,3","ND","ND","ND","ND","ND"],
    [20564,"10/31/2016 11:00","32,7","ND","ND","ND","ND","ND"],
    [20565,"10/31/2016 12:00","28,6","ND","ND","ND","ND","ND"],
    [20566,"10/31/2016 13:00","5,7","ND","ND","ND","ND","ND"],
    [20567,"10/31/2016 14:00","4,5","ND","ND","ND","ND","ND"],
    [20568,"10/31/2016 15:00","6","ND","ND","ND","ND","ND"],
    [20569,"10/31/2016 16:00","21,7","ND","ND","ND","ND","ND"],
    [20570,"10/31/2016 17:00","20,1","ND","ND","ND","ND","ND"],
    [20571,"10/31/2016 18:00","25,4","ND","ND","ND","ND","ND"],
    [20572,"10/31/2016 19:00","21","ND","ND","ND","ND","ND"],
    [20573,"10/31/2016 20:00","20,4","ND","ND","ND","ND","ND"],
    [20574,"10/31/2016 21:00","ND","ND","ND","ND","ND","ND"],
    [20575,"10/31/2016 22:00","15,6","ND","ND","ND","ND","ND"],
    [20576,"10/31/2016 23:00","19,3","ND","ND","ND","ND","ND"],
    [20577,"42380","17,5","ND","ND","ND","ND","ND"],
    [20578,"42380,04167","34,5","ND","ND","ND","ND","ND"],
    [20579,"42380,08333","2,4","ND","ND","ND","ND","ND"],
    [20580,"42380,125","13,7","ND","ND","ND","ND","ND"],
    [20581,"42380,16667","15,4","ND","ND","ND","ND","ND"],
    [20582,"42380,20833","32,6","ND","ND","ND","ND","ND"],
    [20583,"42380,25","25,7","ND","ND","ND","ND","ND"],
    [20584,"42380,29167","58,5","0,03","ND","ND","ND","ND"],
    [20585,"42380,33333","64,4","0,1","ND","ND","ND","ND"],
    [20586,"42380,375","39,6","ND","ND","ND","ND","ND"],
    [20587,"42380,41667","43,3","ND","ND","ND","ND","ND"],
    [20588,"42380,45833","26,5","ND","ND","ND","ND","ND"],
    [20589,"42380,5","24,3","ND","ND","ND","ND","ND"],
    [20590,"42380,54167","27,2","ND","ND","ND","ND","ND"],
    [20591,"42380,58333","43,9","ND","ND","ND","ND","ND"],
    [20592,"42380,625","43,9","ND","ND","ND","ND","ND"],
    [20593,"42380,66667","68,3","ND","ND","ND","ND","ND"],
    [20594,"42380,70833","15,6","ND","ND","ND","ND","ND"],
    [20595,"42380,75","3,3","ND","ND","ND","ND","ND"],
    [20596,"42380,79167","15,9","0,29","ND","ND","ND","ND"],
    [20597,"42380,83333","40,9","ND","ND","ND","ND","ND"],
    [20598,"42380,875","38,2","ND","ND","ND","ND","ND"],
    [20599,"42380,91667","30,8","ND","ND","ND","ND","ND"],
    [20600,"42380,95833","30,1","ND","ND","ND","ND","ND"],
    [20601,"42411","36,6","0,24","ND","ND","ND","ND"],
    [20602,"42411,04167","23,5","ND","ND","ND","ND","ND"],
    [20603,"42411,08333","20,6","ND","ND","ND","ND","ND"],
    [20604,"42411,125","18,8","ND","ND","ND","ND","ND"],
    [20605,"42411,16667","ND","ND","ND","ND","ND","ND"],
    [20606,"42411,20833","ND","ND","ND","ND","ND","ND"],
    [20607,"42411,25","39,5","ND","ND","ND","ND","ND"],
    [20608,"42411,29167","54,9","0,13","ND","ND","ND","ND"],
    [20609,"42411,33333","ND","0,16","ND","ND","ND","ND"],
    [20610,"42411,375","32,6","ND","ND","ND","ND","ND"],
    [20611,"42411,41667","34,9","ND","ND","ND","ND","ND"],
    [20612,"42411,45833","28,9","ND","ND","ND","ND","ND"],
    [20613,"42411,5","33,4","ND","ND","ND","ND","ND"],
    [20614,"42411,54167","16,1","ND","ND","ND","ND","ND"],
    [20615,"42411,58333","10,4","ND","ND","ND","ND","ND"],
    [20616,"42411,625","35","ND","ND","ND","ND","ND"],
    [20617,"42411,66667","17,8","ND","ND","ND","ND","ND"],
    [20618,"42411,70833","9,9","ND","ND","ND","ND","ND"],
    [20619,"42411,75","10,3","ND","ND","ND","ND","ND"],
    [20620,"42411,79167","8,3","ND","ND","ND","ND","ND"],
    [20621,"42411,83333","8,8","ND","ND","ND","ND","ND"],
    [20622,"42411,875","9,4","ND","ND","ND","ND","ND"],
    [20623,"42411,91667","53,8","ND","ND","ND","ND","ND"],
    [20624,"42411,95833","32,2","ND","ND","ND","ND","ND"],
    [20625,"42440","23,4","ND","ND","ND","ND","ND"],
    [20626,"42440,04167","22,9","ND","ND","ND","ND","ND"],
    [20627,"42440,08333","29,5","ND","ND","ND","ND","ND"],
    [20628,"42440,125","16","ND","ND","ND","ND","ND"],
    [20629,"42440,16667","16,6","ND","ND","ND","ND","ND"],
    [20630,"42440,20833","33,1","ND","ND","ND","ND","ND"],
    [20631,"42440,25","36,3","ND","ND","ND","ND","ND"],
    [20632,"42440,29167","46,3","ND","ND","ND","ND","ND"],
    [20633,"42440,33333","55,6","ND","ND","ND","ND","ND"],
    [20634,"42440,375","41","ND","ND","ND","ND","ND"],
    [20635,"42440,41667","40","ND","ND","ND","ND","ND"],
    [20636,"42440,45833","33,3","ND","ND","ND","ND","ND"],
    [20637,"42440,5","35,2","ND","ND","ND","ND","ND"],
    [20638,"42440,54167","45,6","ND","ND","ND","ND","ND"],
    [20639,"42440,58333","15,7","ND","ND","ND","ND","ND"],
    [20640,"42440,625","ND","ND","ND","ND","ND","ND"],
    [20641,"42440,66667","10,2","ND","ND","ND","ND","ND"],
    [20642,"42440,70833","13,9","ND","ND","ND","ND","ND"],
    [20643,"42440,75","14","ND","ND","ND","ND","ND"],
    [20644,"42440,79167","13,7","ND","ND","ND","ND","ND"],
    [20645,"42440,83333","11,9","ND","ND","ND","ND","ND"],
    [20646,"42440,875","15,6","ND","ND","ND","ND","ND"],
    [20647,"42440,91667","44,6","ND","ND","ND","ND","ND"],
    [20648,"42440,95833","42,3","0,29","ND","ND","ND","ND"],
    [20649,"42471","35,1","ND","ND","ND","ND","ND"],
    [20650,"42471,04167","35,1","ND","ND","ND","ND","ND"],
    [20651,"42471,08333","24","ND","ND","ND","ND","ND"],
    [20652,"42471,125","18,3","ND","ND","ND","ND","ND"],
    [20653,"42471,16667","20,5","ND","ND","ND","ND","ND"],
    [20654,"42471,20833","ND","ND","ND","ND","ND","ND"],
    [20655,"42471,25","29,6","ND","ND","ND","ND","ND"],
    [20656,"42471,29167","52,5","0,21","ND","ND","ND","ND"],
    [20657,"42471,33333","53,6","0,24","ND","ND","ND","ND"],
    [20658,"42471,375","38,6","0,24","ND","ND","ND","ND"],
    [20659,"42471,41667","37,5","ND","ND","ND","ND","ND"],
    [20660,"42471,45833","36","ND","ND","ND","ND","ND"],
    [20661,"42471,5","45","ND","ND","ND","ND","ND"],
    [20662,"42471,54167","45","ND","ND","ND","ND","ND"],
    [20663,"42471,58333","30,3","ND","ND","ND","ND","ND"],
    [20664,"42471,625","48,9","ND","ND","ND","ND","ND"],
    [20665,"42471,66667","32,2","0,81","ND","ND","ND","ND"],
    [20666,"42471,70833","ND","0,55","ND","ND","ND","ND"],
    [20667,"42471,75","ND","0,71","ND","ND","ND","ND"],
    [20668,"42471,79167","ND","1,1","ND","ND","ND","ND"],
    [20669,"42471,83333","ND","0,86","ND","ND","ND","ND"],
    [20670,"42471,875","55,2","1,36","ND","ND","ND","ND"],
    [20671,"42471,91667","92,1","0,84","ND","ND","ND","ND"],
    [20672,"42471,95833","ND","0,24","ND","ND","ND","ND"],
    [20673,"42501","ND","0,6","ND","ND","ND","ND"],
    [20674,"42501,04167","ND","ND","ND","ND","ND","ND"],
    [20675,"42501,08333","13,7","ND","ND","ND","ND","ND"],
    [20676,"42501,125","ND","ND","ND","ND","ND","ND"],
    [20677,"42501,16667","7,4","ND","ND","ND","ND","ND"],
    [20678,"42501,20833","18,4","ND","ND","ND","ND","ND"],
    [20679,"42501,25","32,4","ND","ND","ND","ND","ND"],
    [20680,"42501,29167","46,7","0,1","ND","ND","ND","ND"],
    [20681,"42501,33333","52,4","0,16","ND","ND","ND","ND"],
    [20682,"42501,375","42","ND","ND","ND","ND","ND"],
    [20683,"42501,41667","38,4","ND","ND","ND","ND","ND"],
    [20684,"42501,45833","53","ND","ND","ND","ND","ND"],
    [20685,"42501,5","50,2","ND","ND","ND","ND","ND"],
    [20686,"42501,54167","48,2","ND","ND","ND","ND","ND"],
    [20687,"42501,58333","32,2","0,03","ND","ND","ND","ND"],
    [20688,"42501,625","14,2","ND","ND","ND","ND","ND"],
    [20689,"42501,66667","13,1","ND","ND","ND","ND","ND"],
    [20690,"42501,70833","19,3","ND","ND","ND","ND","ND"],
    [20691,"42501,75","19,3","0,21","ND","ND","ND","ND"],
    [20692,"42501,79167","17,1","0,68","ND","ND","ND","ND"],
    [20693,"42501,83333","8,7","ND","ND","ND","ND","ND"],
    [20694,"42501,875","12","ND","ND","ND","ND","ND"],
    [20695,"42501,91667","58,2","ND","ND","ND","ND","ND"],
    [20696,"42501,95833","48,2","ND","ND","ND","ND","ND"],
    [20697,"42532","52","0,1","ND","ND","ND","ND"],
    [20698,"42532,04167","28,9","0,03","ND","ND","ND","ND"],
    [20699,"42532,08333","34,8","ND","ND","ND","ND","ND"],
    [20700,"42532,125","ND","ND","ND","ND","ND","ND"],
    [20701,"42532,16667","17,4","ND","ND","ND","ND","ND"],
    [20702,"42532,20833","41,3","ND","ND","ND","ND","ND"],
    [20703,"42532,25","5,6","ND","ND","ND","ND","ND"],
    [20704,"42532,29167","45","ND","ND","ND","ND","ND"],
    [20705,"42532,33333","45","ND","ND","ND","ND","ND"],
    [20706,"42532,375","30,9","ND","ND","ND","ND","ND"],
    [20707,"42532,41667","32,4","ND","ND","ND","ND","ND"],
    [20708,"42532,45833","29,4","ND","ND","ND","ND","ND"],
    [20709,"42532,5","30,7","0","ND","ND","ND","ND"],
    [20710,"42532,54167","27,7","ND","ND","ND","ND","ND"],
    [20711,"42532,58333","18,3","ND","ND","ND","ND","ND"],
    [20712,"42532,625","13","ND","ND","ND","ND","ND"],
    [20713,"42532,66667","13","ND","ND","ND","ND","ND"],
    [20714,"42532,70833","15,7","ND","ND","ND","ND","ND"],
    [20715,"42532,75","16,3","ND","ND","ND","ND","ND"],
    [20716,"42532,79167","27,8","ND","ND","ND","ND","ND"],
    [20717,"42532,83333","13","ND","ND","ND","ND","ND"],
    [20718,"42532,875","51,7","ND","ND","ND","ND","ND"],
    [20719,"42532,91667","46,9","ND","ND","ND","ND","ND"],
    [20720,"42532,95833","42,3","ND","ND","ND","ND","ND"],
    [20721,"42562","29,8","ND","ND","ND","ND","ND"],
    [20722,"42562,04167","36,9","ND","ND","ND","ND","ND"],
    [20723,"42562,08333","30,9","ND","ND","ND","ND","ND"],
    [20724,"42562,125","30,4","ND","ND","ND","ND","ND"],
    [20725,"42562,16667","31,4","ND","ND","ND","ND","ND"],
    [20726,"42562,20833","32,7","ND","ND","ND","ND","ND"],
    [20727,"42562,25","ND","ND","ND","ND","ND","ND"],
    [20728,"42562,29167","9,6","ND","ND","ND","ND","ND"],
    [20729,"42562,33333","23,9","ND","ND","ND","ND","ND"],
    [20730,"42562,375","29,3","ND","ND","ND","ND","ND"],
    [20731,"42562,41667","29,3","ND","ND","ND","ND","ND"],
    [20732,"42562,45833","8,6","ND","ND","ND","ND","ND"],
    [20733,"42562,5","13,2","ND","ND","ND","ND","ND"],
    [20734,"42562,54167","20,5","ND","ND","ND","ND","ND"],
    [20735,"42562,58333","24,9","ND","ND","ND","ND","ND"],
    [20736,"42562,625","26,5","ND","ND","ND","ND","ND"],
    [20737,"42562,66667","12","ND","ND","ND","ND","ND"],
    [20738,"42562,70833","32,4","ND","ND","ND","ND","ND"],
    [20739,"42562,75","32,1","ND","ND","ND","ND","ND"],
    [20740,"42562,79167","ND","0,37","ND","ND","ND","ND"],
    [20741,"42562,83333","43,9","0,6","ND","ND","ND","ND"],
    [20742,"42562,875","43,7","0,94","ND","ND","ND","ND"],
    [20743,"42562,91667","51,9","0,92","ND","ND","ND","ND"],
    [20744,"42562,95833","35,1","0,73","ND","ND","ND","ND"],
    [20745,"42593","19,6","ND","ND","ND","ND","ND"],
    [20746,"42593,04167","17,7","ND","ND","ND","ND","ND"],
    [20747,"42593,08333","17,6","ND","ND","ND","ND","ND"],
    [20748,"42593,125","19,7","ND","ND","ND","ND","ND"],
    [20749,"42593,16667","19,8","ND","ND","ND","ND","ND"],
    [20750,"42593,20833","20","ND","ND","ND","ND","ND"],
    [20751,"42593,25","35,4","0,39","ND","ND","ND","ND"],
    [20752,"42593,29167","58,5","0,71","ND","ND","ND","ND"],
    [20753,"42593,33333","44,5","0,66","ND","ND","ND","ND"],
    [20754,"42593,375","49,1","0,24","ND","ND","ND","ND"],
    [20755,"42593,41667","41,8","ND","ND","ND","ND","ND"],
    [20756,"42593,45833","28,1","ND","ND","ND","ND","ND"],
    [20757,"42593,5","10,8","ND","ND","ND","ND","ND"],
    [20758,"42593,54167","24,5","ND","ND","ND","ND","ND"],
    [20759,"42593,58333","31,6","ND","ND","ND","ND","ND"],
    [20760,"42593,625","37","ND","ND","ND","ND","ND"],
    [20761,"42593,66667","46,2","ND","ND","ND","ND","ND"],
    [20762,"42593,70833","7,8","ND","ND","ND","ND","ND"],
    [20763,"42593,75","16,7","0,03","ND","ND","ND","ND"],
    [20764,"42593,79167","11,6","0,26","ND","ND","ND","ND"],
    [20765,"42593,83333","11,2","ND","ND","ND","ND","ND"],
    [20766,"42593,875","14,1","ND","ND","ND","ND","ND"],
    [20767,"42593,91667","45","ND","ND","ND","ND","ND"],
    [20768,"42593,95833","36,8","ND","ND","ND","ND","ND"],
    [20769,"42624","31,6","0,45","ND","ND","ND","ND"],
    [20770,"42624,04167","24,7","ND","ND","ND","ND","ND"],
    [20771,"42624,08333","24,8","ND","ND","ND","ND","ND"],
    [20772,"42624,125","17,5","ND","ND","ND","ND","ND"],
    [20773,"42624,16667","ND","ND","ND","ND","ND","ND"],
    [20774,"42624,20833","4,6","ND","ND","ND","ND","ND"],
    [20775,"42624,25","62,5","ND","ND","ND","ND","ND"],
    [20776,"42624,29167","ND","0","ND","ND","ND","ND"],
    [20777,"42624,33333","26,6","0,52","ND","ND","ND","ND"],
    [20778,"42624,375","57,8","0,6","ND","ND","ND","ND"],
    [20779,"42624,41667","15,7","1,15","ND","ND","ND","ND"],
    [20780,"42624,45833","17,5","0,13","ND","ND","ND","ND"],
    [20781,"42624,5","32,6","ND","ND","ND","ND","ND"],
    [20782,"42624,54167","31,2","ND","ND","ND","ND","ND"],
    [20783,"42624,58333","36,8","0,13","ND","ND","ND","ND"],
    [20784,"42624,625","40,5","ND","ND","ND","ND","ND"],
    [20785,"42624,66667","5,1","ND","ND","ND","ND","ND"],
    [20786,"42624,70833","14,4","ND","ND","ND","ND","ND"],
    [20787,"42624,75","11,1","ND","ND","ND","ND","ND"],
    [20788,"42624,79167","10,9","ND","ND","ND","ND","ND"],
    [20789,"42624,83333","22,6","ND","ND","ND","ND","ND"],
    [20790,"42624,875","39,4","0,26","ND","ND","ND","ND"],
    [20791,"42624,91667","48,6","0,81","ND","ND","ND","ND"],
    [20792,"42624,95833","49,7","0,29","ND","ND","ND","ND"],
    [20793,"42654","35,8","0","ND","ND","ND","ND"],
    [20794,"42654,04167","35,8","ND","ND","ND","ND","ND"],
    [20795,"42654,08333","39,4","ND","ND","ND","ND","ND"],
    [20796,"42654,125","40","ND","ND","ND","ND","ND"],
    [20797,"42654,16667","ND","ND","ND","ND","ND","ND"],
    [20798,"42654,20833","11,4","ND","ND","ND","ND","ND"],
    [20799,"42654,25","ND","ND","ND","ND","ND","ND"],
    [20800,"42654,29167","37,4","0,34","ND","ND","ND","ND"],
    [20801,"42654,33333","ND","0,52","ND","ND","ND","ND"],
    [20802,"42654,375","41,3","0,79","ND","ND","ND","ND"],
    [20803,"42654,41667","76","0,68","ND","ND","ND","ND"],
    [20804,"42654,45833","60,1","0","ND","ND","ND","ND"],
    [20805,"42654,5","53,2","ND","ND","ND","ND","ND"],
    [20806,"42654,54167","35,8","ND","ND","ND","ND","ND"],
    [20807,"42654,58333","14,5","2,12","ND","ND","ND","ND"],
    [20808,"42654,625","4,6","ND","ND","ND","ND","ND"],
    [20809,"42654,66667","14,6","ND","ND","ND","ND","ND"],
    [20810,"42654,70833","37,5","ND","ND","ND","ND","ND"],
    [20811,"42654,75","31,2","0,1","ND","ND","ND","ND"],
    [20812,"42654,79167","47,1","1,1","ND","ND","ND","ND"],
    [20813,"42654,83333","46,6","1,57","ND","ND","ND","ND"],
    [20814,"42654,875","54","1,21","ND","ND","ND","ND"],
    [20815,"42654,91667","38,1","1","ND","ND","ND","ND"],
    [20816,"42654,95833","55,9","0,66","ND","ND","ND","ND"],
    [20817,"42685","23","0,42","ND","ND","ND","ND"],
    [20818,"42685,04167","14,4","0,55","ND","ND","ND","ND"],
    [20819,"42685,08333","9,1","0,31","ND","ND","ND","ND"],
    [20820,"42685,125","17","ND","ND","ND","ND","ND"],
    [20821,"42685,16667","10,7","ND","ND","ND","ND","ND"],
    [20822,"42685,20833","5,4","ND","ND","ND","ND","ND"],
    [20823,"42685,25","12,5","ND","ND","ND","ND","ND"],
    [20824,"42685,29167","18,6","ND","ND","ND","ND","ND"],
    [20825,"42685,33333","45,7","0,84","ND","ND","ND","ND"],
    [20826,"42685,375","5,2","0,81","ND","ND","ND","ND"],
    [20827,"42685,41667","31,4","0,55","ND","ND","ND","ND"],
    [20828,"42685,45833","56,8","0,39","ND","ND","ND","ND"],
    [20829,"42685,5","43,2","0,13","ND","ND","ND","ND"],
    [20830,"42685,54167","19,6","0,03","ND","ND","ND","ND"],
    [20831,"42685,58333","17,4","0,24","ND","ND","ND","ND"],
    [20832,"42685,625","17","0,52","ND","ND","ND","ND"],
    [20833,"42685,66667","30,8","0,73","ND","ND","ND","ND"],
    [20834,"42685,70833","43,6","0,94","ND","ND","ND","ND"],
    [20835,"42685,75","38,6","1,41","ND","ND","ND","ND"],
    [20836,"42685,79167","55,7","1,99","ND","ND","ND","ND"],
    [20837,"42685,83333","61","2,1","ND","ND","ND","ND"],
    [20838,"42685,875","87,2","2,54","ND","ND","ND","ND"],
    [20839,"42685,91667","25,9","1,94","ND","ND","ND","ND"],
    [20840,"42685,95833","43,1","1,44","ND","ND","ND","ND"],
    [20841,"42715","34,2","0,92","ND","ND","ND","ND"],
    [20842,"42715,04167","18,8","0,42","ND","ND","ND","ND"],
    [20843,"42715,08333","21,4","0,24","ND","ND","ND","ND"],
    [20844,"42715,125","19","ND","ND","ND","ND","ND"],
    [20845,"42715,16667","15,6","ND","ND","ND","ND","ND"],
    [20846,"42715,20833","15,2","ND","ND","ND","ND","ND"],
    [20847,"42715,25","40,1","ND","ND","ND","ND","ND"],
    [20848,"42715,29167","51,2","0,47","ND","ND","ND","ND"],
    [20849,"42715,33333","56,3","0,55","ND","ND","ND","ND"],
    [20850,"42715,375","90,6","0,94","ND","ND","ND","ND"],
    [20851,"42715,41667","77,3","0,66","ND","ND","ND","ND"],
    [20852,"42715,45833","52,8","0,55","ND","ND","ND","ND"],
    [20853,"42715,5","59,9","1,62","ND","ND","ND","ND"],
    [20854,"42715,54167","55,7","0,24","ND","ND","ND","ND"],
    [20855,"42715,58333","58,3","0,42","ND","ND","ND","ND"],
    [20856,"42715,625","67,7","0,52","ND","ND","ND","ND"],
    [20857,"42715,66667","25","0,31","ND","ND","ND","ND"],
    [20858,"42715,70833","10","0,13","ND","ND","ND","ND"],
    [20859,"42715,75","13,3","0,76","ND","ND","ND","ND"],
    [20860,"42715,79167","10,2","0,26","ND","ND","ND","ND"],
    [20861,"42715,83333","10,3","0,18","ND","ND","ND","ND"],
    [20862,"42715,875","14,5","0,24","ND","ND","ND","ND"],
    [20863,"42715,91667","16,5","ND","ND","ND","ND","ND"],
    [20864,"42715,95833","51","ND","ND","ND","ND","ND"],
    [20865,"11/13/2016 00:00","14,8","0,37","ND","ND","ND","ND"],
    [20866,"11/13/2016 01:00","17","0,1","ND","ND","ND","ND"],
    [20867,"11/13/2016 02:00","ND","ND","ND","ND","ND","ND"],
    [20868,"11/13/2016 03:00","ND","ND","ND","ND","ND","ND"],
    [20869,"11/13/2016 04:00","1,5","ND","ND","ND","ND","ND"],
    [20870,"11/13/2016 05:00","1,5","ND","ND","ND","ND","ND"],
    [20871,"11/13/2016 06:00","5,6","ND","ND","ND","ND","ND"],
    [20872,"11/13/2016 07:00","13,6","ND","ND","ND","ND","ND"],
    [20873,"11/13/2016 08:00","20,7","ND","ND","ND","ND","ND"],
    [20874,"11/13/2016 09:00","12,8","ND","ND","ND","ND","ND"],
    [20875,"11/13/2016 10:00","7,8","ND","ND","ND","ND","ND"],
    [20876,"11/13/2016 11:00","4,5","ND","ND","ND","ND","ND"],
    [20877,"11/13/2016 12:00","1,3","ND","ND","ND","ND","ND"],
    [20878,"11/13/2016 13:00","16,6","ND","ND","ND","ND","ND"],
    [20879,"11/13/2016 14:00","22,5","ND","ND","ND","ND","ND"],
    [20880,"11/13/2016 15:00","16,9","ND","ND","ND","ND","ND"],
    [20881,"11/13/2016 16:00","32,4","ND","ND","ND","ND","ND"],
    [20882,"11/13/2016 17:00","19,7","1,15","ND","ND","ND","ND"],
    [20883,"11/13/2016 18:00","6,7","ND","ND","ND","ND","ND"],
    [20884,"11/13/2016 19:00","10,5","ND","ND","ND","ND","ND"],
    [20885,"11/13/2016 20:00","11,8","ND","ND","ND","ND","ND"],
    [20886,"11/13/2016 21:00","17,5","ND","ND","ND","ND","ND"],
    [20887,"11/13/2016 22:00","21,9","ND","ND","ND","ND","ND"],
    [20888,"11/13/2016 23:00","44,8","0,21","ND","ND","ND","ND"],
    [20889,"11/14/2016 00:00","38,1","1,26","ND","ND","ND","ND"],
    [20890,"11/14/2016 01:00","23","0,55","ND","ND","ND","ND"],
    [20891,"11/14/2016 02:00","27,4","0,18","ND","ND","ND","ND"],
    [20892,"11/14/2016 03:00","27","ND","ND","ND","ND","ND"],
    [20893,"11/14/2016 04:00","14,1","ND","ND","ND","ND","ND"],
    [20894,"11/14/2016 05:00","2,4","ND","ND","ND","ND","ND"],
    [20895,"11/14/2016 06:00","7,5","ND","ND","ND","ND","ND"],
    [20896,"11/14/2016 07:00","ND","0,05","ND","ND","ND","ND"],
    [20897,"11/14/2016 08:00","ND","0,03","ND","ND","ND","ND"],
    [20898,"11/14/2016 09:00","9,9","ND","ND","ND","ND","ND"],
    [20899,"11/14/2016 10:00","13,8","ND","ND","ND","ND","ND"],
    [20900,"11/14/2016 11:00","27,6","ND","ND","ND","ND","ND"],
    [20901,"11/14/2016 12:00","10,7","ND","ND","ND","ND","ND"],
    [20902,"11/14/2016 13:00","7,1","ND","ND","ND","ND","ND"],
    [20903,"11/14/2016 14:00","19,2","ND","ND","ND","ND","ND"],
    [20904,"11/14/2016 15:00","18,9","ND","ND","ND","ND","ND"],
    [20905,"11/14/2016 16:00","22,8","ND","ND","ND","ND","ND"],
    [20906,"11/14/2016 17:00","2,6","ND","ND","ND","ND","ND"],
    [20907,"11/14/2016 18:00","12,4","0,08","ND","ND","ND","ND"],
    [20908,"11/14/2016 19:00","17","ND","ND","ND","ND","ND"],
    [20909,"11/14/2016 20:00","17,3","0","ND","ND","ND","ND"],
    [20910,"11/14/2016 21:00","33,6","ND","ND","ND","ND","ND"],
    [20911,"11/14/2016 22:00","5","ND","ND","ND","ND","ND"],
    [20912,"11/14/2016 23:00","9,3","ND","ND","ND","ND","ND"],
    [20913,"11/15/2016 00:00","6,8","ND","ND","ND","ND","ND"],
    [20914,"11/15/2016 01:00","1,2","ND","ND","ND","ND","ND"],
    [20915,"11/15/2016 02:00","ND","ND","ND","ND","ND","ND"],
    [20916,"11/15/2016 03:00","35","ND","ND","ND","ND","ND"],
    [20917,"11/15/2016 04:00","ND","ND","ND","ND","ND","ND"],
    [20918,"11/15/2016 05:00","8,7","ND","ND","ND","ND","ND"],
    [20919,"11/15/2016 06:00","20,3","ND","ND","ND","ND","ND"],
    [20920,"11/15/2016 07:00","36,6","ND","ND","ND","ND","ND"],
    [20921,"11/15/2016 08:00","41,2","0,31","ND","ND","ND","ND"],
    [20922,"11/15/2016 09:00","37,3","2,44","ND","ND","ND","ND"],
    [20923,"11/15/2016 10:00","29","2,65","ND","ND","ND","ND"],
    [20924,"11/15/2016 11:00","16,9","0,08","ND","ND","ND","ND"],
    [20925,"11/15/2016 12:00","25,4","ND","ND","ND","ND","ND"],
    [20926,"11/15/2016 13:00","30,1","ND","ND","ND","ND","ND"],
    [20927,"11/15/2016 14:00","51,2","ND","ND","ND","ND","ND"],
    [20928,"11/15/2016 15:00","9,4","ND","ND","ND","ND","ND"],
    [20929,"11/15/2016 16:00","22,5","0,18","ND","ND","ND","ND"],
    [20930,"11/15/2016 17:00","43,3","0,58","ND","ND","ND","ND"],
    [20931,"11/15/2016 18:00","70","4,22","ND","ND","ND","ND"],
    [20932,"11/15/2016 19:00","46,2","3,9","ND","ND","ND","ND"],
    [20933,"11/15/2016 20:00","36,4","1,97","ND","ND","ND","ND"],
    [20934,"11/15/2016 21:00","19,5","1,15","ND","ND","ND","ND"],
    [20935,"11/15/2016 22:00","25,3","1,15","ND","ND","ND","ND"],
    [20936,"11/15/2016 23:00","33,4","1,15","ND","ND","ND","ND"],
    [20937,"11/16/2016 00:00","30,1","0,42","ND","ND","ND","ND"],
    [20938,"11/16/2016 01:00","15,8","0,03","ND","ND","ND","ND"],
    [20939,"11/16/2016 02:00","12,9","ND","ND","ND","ND","ND"],
    [20940,"11/16/2016 03:00","17,3","ND","ND","ND","ND","ND"],
    [20941,"11/16/2016 04:00","21,3","ND","ND","ND","ND","ND"],
    [20942,"11/16/2016 05:00","19","5,58","ND","ND","ND","ND"],
    [20943,"11/16/2016 06:00","40,7","0,94","ND","ND","ND","ND"],
    [20944,"11/16/2016 07:00","68,6","1,31","ND","ND","ND","ND"],
    [20945,"11/16/2016 08:00","66,1","2,59","ND","ND","ND","ND"],
    [20946,"11/16/2016 09:00","53","3,8","ND","ND","ND","ND"],
    [20947,"11/16/2016 10:00","43,3","2,44","ND","ND","ND","ND"],
    [20948,"11/16/2016 11:00","40,3","0,86","ND","ND","ND","ND"],
    [20949,"11/16/2016 12:00","58,8","0,63","ND","ND","ND","ND"],
    [20950,"11/16/2016 13:00","32,4","1,81","ND","ND","ND","ND"],
    [20951,"11/16/2016 14:00","19,4","0,42","ND","ND","ND","ND"],
    [20952,"11/16/2016 15:00","13,3","1,36","ND","ND","ND","ND"],
    [20953,"11/16/2016 16:00","19,8","1,21","ND","ND","ND","ND"],
    [20954,"11/16/2016 17:00","41,2","1,15","ND","ND","ND","ND"],
    [20955,"11/16/2016 18:00","29,5","1","ND","ND","ND","ND"],
    [20956,"11/16/2016 19:00","21,4","2,91","ND","ND","ND","ND"],
    [20957,"11/16/2016 20:00","43,2","4,04","ND","ND","ND","ND"],
    [20958,"11/16/2016 21:00","33,2","1,99","ND","ND","ND","ND"],
    [20959,"11/16/2016 22:00","49,3","5,63","ND","ND","ND","ND"],
    [20960,"11/16/2016 23:00","40,8","3,07","ND","ND","ND","ND"],
    [20961,"11/17/2016 00:00","28,5","1,78","ND","ND","ND","ND"],
    [20962,"11/17/2016 01:00","15,6","0,42","ND","ND","ND","ND"],
    [20963,"11/17/2016 02:00","17,5","0,05","ND","ND","ND","ND"],
    [20964,"11/17/2016 03:00","19,3","ND","ND","ND","ND","ND"],
    [20965,"11/17/2016 04:00","18,8","ND","ND","ND","ND","ND"],
    [20966,"11/17/2016 05:00","23,5","ND","ND","ND","ND","ND"],
    [20967,"11/17/2016 06:00","42,5","0,29","ND","ND","ND","ND"],
    [20968,"11/17/2016 07:00","58,5","2,2","ND","ND","ND","ND"],
    [20969,"11/17/2016 08:00","50,4","4,95","ND","ND","ND","ND"],
    [20970,"11/17/2016 09:00","43,2","1,44","ND","ND","ND","ND"],
    [20971,"11/17/2016 10:00","58","1,28","ND","ND","ND","ND"],
    [20972,"11/17/2016 11:00","52,8","0,86","ND","ND","ND","ND"],
    [20973,"11/17/2016 12:00","42","1,07","ND","ND","ND","ND"],
    [20974,"11/17/2016 13:00","49,7","1,7","ND","ND","ND","ND"],
    [20975,"11/17/2016 14:00","14,9","0,45","ND","ND","ND","ND"],
    [20976,"11/17/2016 15:00","8,3","0,1","ND","ND","ND","ND"],
    [20977,"11/17/2016 16:00","14,1","ND","ND","ND","ND","ND"],
    [20978,"11/17/2016 17:00","8,9","0,18","ND","ND","ND","ND"],
    [20979,"11/17/2016 18:00","15,8","0,26","ND","ND","ND","ND"],
    [20980,"11/17/2016 19:00","14,3","0,52","ND","ND","ND","ND"],
    [20981,"11/17/2016 20:00","16,6","0,42","ND","ND","ND","ND"],
    [20982,"11/17/2016 21:00","33,3","1,78","ND","ND","ND","ND"],
    [20983,"11/17/2016 22:00","50","3,22","ND","ND","ND","ND"],
    [20984,"11/17/2016 23:00","28,7","1,52","ND","ND","ND","ND"],
    [20985,"11/18/2016 00:00","31,8","0,58","ND","ND","ND","ND"],
    [20986,"11/18/2016 01:00","31,7","ND","ND","ND","ND","ND"],
    [20987,"11/18/2016 02:00","32,6","ND","ND","ND","ND","ND"],
    [20988,"11/18/2016 03:00","33","ND","ND","ND","ND","ND"],
    [20989,"11/18/2016 04:00","25,6","ND","ND","ND","ND","ND"],
    [20990,"11/18/2016 05:00","28,8","ND","ND","ND","ND","ND"],
    [20991,"11/18/2016 06:00","44,1","0,92","ND","ND","ND","ND"],
    [20992,"11/18/2016 07:00","54,3","4,01","ND","ND","ND","ND"],
    [20993,"11/18/2016 08:00","79,8","3,38","ND","ND","ND","ND"],
    [20994,"11/18/2016 09:00","84,1","5,48","ND","ND","ND","ND"],
    [20995,"11/18/2016 10:00","80,3","11,32","ND","ND","ND","ND"],
    [20996,"11/18/2016 11:00","82","ND","ND","ND","ND","ND"],
    [20997,"11/18/2016 12:00","58,4","6,84","ND","ND","ND","ND"],
    [20998,"11/18/2016 13:00","30,1","2,44","ND","ND","ND","ND"],
    [20999,"11/18/2016 14:00","15,8","2,15","ND","ND","ND","ND"],
    [21000,"11/18/2016 15:00","10,5","0,63","ND","ND","ND","ND"],
    [21001,"11/18/2016 16:00","9,7","0,37","ND","ND","ND","ND"],
    [21002,"11/18/2016 17:00","10,4","0,21","ND","ND","ND","ND"],
    [21003,"11/18/2016 18:00","11,2","0,86","ND","ND","ND","ND"],
    [21004,"11/18/2016 19:00","17,2","0,68","ND","ND","ND","ND"],
    [21005,"11/18/2016 20:00","48,9","1,05","ND","ND","ND","ND"],
    [21006,"11/18/2016 21:00","28,6","0,73","ND","ND","ND","ND"],
    [21007,"11/18/2016 22:00","28,1","1,81","ND","ND","ND","ND"],
    [21008,"11/18/2016 23:00","15,2","0,16","ND","ND","ND","ND"],
    [21009,"11/19/2016 00:00","9,4","ND","ND","ND","ND","ND"],
    [21010,"11/19/2016 01:00","13,7","ND","ND","ND","ND","ND"],
    [21011,"11/19/2016 02:00","7,5","ND","ND","ND","ND","ND"],
    [21012,"11/19/2016 03:00","11,7","ND","ND","ND","ND","ND"],
    [21013,"11/19/2016 04:00","3,4","ND","ND","ND","ND","ND"],
    [21014,"11/19/2016 05:00","8,6","ND","ND","ND","ND","ND"],
    [21015,"11/19/2016 06:00","10,4","ND","ND","ND","ND","ND"],
    [21016,"11/19/2016 07:00","20,4","0,08","ND","ND","ND","ND"],
    [21017,"11/19/2016 08:00","23,9","1,49","ND","ND","ND","ND"],
    [21018,"11/19/2016 09:00","30","2,54","ND","ND","ND","ND"],
    [21019,"11/19/2016 10:00","23,5","2,25","ND","ND","ND","ND"],
    [21020,"11/19/2016 11:00","1,5","0,84","ND","ND","ND","ND"],
    [21021,"11/19/2016 12:00","8,5","0,42","ND","ND","ND","ND"],
    [21022,"11/19/2016 13:00","13,1","1,1","ND","ND","ND","ND"],
    [21023,"11/19/2016 14:00","24,5","1,21","ND","ND","ND","ND"],
    [21024,"11/19/2016 15:00","38,6","1","ND","ND","ND","ND"],
    [21025,"11/19/2016 16:00","23,7","1,31","ND","ND","ND","ND"],
    [21026,"11/19/2016 17:00","11,7","1,15","ND","ND","ND","ND"],
    [21027,"11/19/2016 18:00","23,8","1,13","ND","ND","ND","ND"],
    [21028,"11/19/2016 19:00","29,4","2,62","ND","ND","ND","ND"],
    [21029,"11/19/2016 20:00","18,7","2,28","ND","ND","ND","ND"],
    [21030,"11/19/2016 21:00","34,9","1,65","ND","ND","ND","ND"],
    [21031,"11/19/2016 22:00","26,1","1,99","ND","ND","ND","ND"],
    [21032,"11/19/2016 23:00","26,9","2,23","ND","ND","ND","ND"],
    [21033,"11/20/2016 00:00","26,8","1,28","ND","ND","ND","ND"],
    [21034,"11/20/2016 01:00","24,4","0,52","ND","ND","ND","ND"],
    [21035,"11/20/2016 02:00","18","0,94","ND","ND","ND","ND"],
    [21036,"11/20/2016 03:00","13,9","0,45","ND","ND","ND","ND"],
    [21037,"11/20/2016 04:00","18,6","0,13","ND","ND","ND","ND"],
    [21038,"11/20/2016 05:00","20,1","ND","ND","ND","ND","ND"],
    [21039,"11/20/2016 06:00","21,1","ND","ND","ND","ND","ND"],
    [21040,"11/20/2016 07:00","38,3","0,58","ND","ND","ND","ND"],
    [21041,"11/20/2016 08:00","38,3","1,28","ND","ND","ND","ND"],
    [21042,"11/20/2016 09:00","29","0,26","ND","ND","ND","ND"],
    [21043,"11/20/2016 10:00","24,7","2,25","ND","ND","ND","ND"],
    [21044,"11/20/2016 11:00","20","1,26","ND","ND","ND","ND"],
    [21045,"11/20/2016 12:00","26,4","0,92","ND","ND","ND","ND"],
    [21046,"11/20/2016 13:00","24,5","0,81","ND","ND","ND","ND"],
    [21047,"11/20/2016 14:00","29","0,89","ND","ND","ND","ND"],
    [21048,"11/20/2016 15:00","18","0,21","ND","ND","ND","ND"],
    [21049,"11/20/2016 16:00","8,5","0,1","ND","ND","ND","ND"],
    [21050,"11/20/2016 17:00","14,4","0,03","ND","ND","ND","ND"],
    [21051,"11/20/2016 18:00","25","0,52","ND","ND","ND","ND"],
    [21052,"11/20/2016 19:00","28,5","2,02","ND","ND","ND","ND"],
    [21053,"11/20/2016 20:00","27,7","1,05","ND","ND","ND","ND"],
    [21054,"11/20/2016 21:00","38,6","3,04","ND","ND","ND","ND"],
    [21055,"11/20/2016 22:00","49,7","2,93","ND","ND","ND","ND"],
    [21056,"11/20/2016 23:00","42,5","2,25","ND","ND","ND","ND"],
    [21057,"11/21/2016 00:00","33,7","0,68","ND","ND","ND","ND"],
    [21058,"11/21/2016 01:00","24,4","0,05","ND","ND","ND","ND"],
    [21059,"11/21/2016 02:00","18,5","ND","ND","ND","ND","ND"],
    [21060,"11/21/2016 03:00","12","ND","ND","ND","ND","ND"],
    [21061,"11/21/2016 04:00","13,5","ND","ND","ND","ND","ND"],
    [21062,"11/21/2016 05:00","19,9","ND","ND","ND","ND","ND"],
    [21063,"11/21/2016 06:00","69,1","0,86","ND","ND","ND","ND"],
    [21064,"11/21/2016 07:00","51,7","1,57","ND","ND","ND","ND"],
    [21065,"11/21/2016 08:00","48,4","2,93","ND","ND","ND","ND"],
    [21066,"11/21/2016 09:00","87,8","3,38","ND","ND","ND","ND"],
    [21067,"11/21/2016 10:00","47,9","2,23","ND","ND","ND","ND"],
    [21068,"11/21/2016 11:00","34,9","ND","ND","ND","ND","ND"],
    [21069,"11/21/2016 12:00","34,2","5,45","ND","ND","ND","ND"],
    [21070,"11/21/2016 13:00","35,5","4,35","ND","ND","ND","ND"],
    [21071,"11/21/2016 14:00","42,6","4,45","ND","ND","ND","ND"],
    [21072,"11/21/2016 15:00","51,4","10,32","ND","ND","ND","ND"],
    [21073,"11/21/2016 16:00","12,8","1,91","ND","ND","ND","ND"],
    [21074,"11/21/2016 17:00","28,4","2,38","ND","ND","ND","ND"],
    [21075,"11/21/2016 18:00","27","3,33","ND","ND","ND","ND"],
    [21076,"11/21/2016 19:00","13,1","6,05","ND","ND","ND","ND"],
    [21077,"11/21/2016 20:00","31,4","4,51","ND","ND","ND","ND"],
    [21078,"11/21/2016 21:00","55,4","6,11","ND","ND","ND","ND"],
    [21079,"11/21/2016 22:00","58,9","8,52","ND","ND","ND","ND"],
    [21080,"11/21/2016 23:00","32,3","5,61","ND","ND","ND","ND"],
    [21081,"11/22/2016 00:00","34,9","2,44","ND","ND","ND","ND"],
    [21082,"11/22/2016 01:00","23,3","0,81","ND","ND","ND","ND"],
    [21083,"11/22/2016 02:00","24,5","0,97","ND","ND","ND","ND"],
    [21084,"11/22/2016 03:00","22,6","0,16","ND","ND","ND","ND"],
    [21085,"11/22/2016 04:00","23,1","0,58","ND","ND","ND","ND"],
    [21086,"11/22/2016 05:00","26","1,28","ND","ND","ND","ND"],
    [21087,"11/22/2016 06:00","48,9","2,41","ND","ND","ND","ND"],
    [21088,"11/22/2016 07:00","66,4","5,9","ND","ND","ND","ND"],
    [21089,"11/22/2016 08:00","71,7","7,1","ND","ND","ND","ND"],
    [21090,"11/22/2016 09:00","73","6,31","ND","ND","ND","ND"],
    [21091,"11/22/2016 10:00","46,9","4,93","ND","ND","ND","ND"],
    [21092,"11/22/2016 11:00","37","4,27","ND","ND","ND","ND"],
    [21093,"11/22/2016 12:00","60,6","5,97","ND","ND","ND","ND"],
    [21094,"11/22/2016 13:00","52,1","9,28","ND","ND","ND","ND"],
    [21095,"11/22/2016 14:00","59,1","12,81","ND","ND","ND","ND"],
    [21096,"11/22/2016 15:00","45,5","12,37","ND","ND","ND","ND"],
    [21097,"11/22/2016 16:00","36,5","2,96","ND","ND","ND","ND"],
    [21098,"11/22/2016 17:00","32,7","2,25","ND","ND","ND","ND"],
    [21099,"11/22/2016 18:00","18,1","2,28","ND","ND","ND","ND"],
    [21100,"11/22/2016 19:00","24,1","2,12","ND","ND","ND","ND"],
    [21101,"11/22/2016 20:00","2,3","3,09","ND","ND","ND","ND"],
    [21102,"11/22/2016 21:00","67,4","6,94","ND","ND","ND","ND"],
    [21103,"11/22/2016 22:00","64,9","7,68","ND","ND","ND","ND"],
    [21104,"11/22/2016 23:00","44,4","4,32","ND","ND","ND","ND"],
    [21105,"11/23/2016 00:00","50,1","4,48","ND","ND","ND","ND"],
    [21106,"11/23/2016 01:00","28,9","1,31","ND","ND","ND","ND"],
    [21107,"11/23/2016 02:00","22,8","1,02","ND","ND","ND","ND"],
    [21108,"11/23/2016 03:00","26,1","0,76","ND","ND","ND","ND"],
    [21109,"11/23/2016 04:00","23,5","0,47","ND","ND","ND","ND"],
    [21110,"11/23/2016 05:00","29,6","1","ND","ND","ND","ND"],
    [21111,"11/23/2016 06:00","33,6","3,83","ND","ND","ND","ND"],
    [21112,"11/23/2016 07:00","129,2","ND","ND","ND","ND","ND"],
    [21113,"11/23/2016 08:00","75,6","9,07","ND","ND","ND","ND"],
    [21114,"11/23/2016 09:00","57","3,28","ND","ND","ND","ND"],
    [21115,"11/23/2016 10:00","50,3","2,96","ND","ND","ND","ND"],
    [21116,"11/23/2016 11:00","54,5","3,69","ND","ND","ND","ND"],
    [21117,"11/23/2016 12:00","52,6","3,54","ND","ND","ND","ND"],
    [21118,"11/23/2016 13:00","59","11,14","ND","ND","ND","ND"],
    [21119,"11/23/2016 14:00","59,6","5,42","ND","ND","ND","ND"],
    [21120,"11/23/2016 15:00","45,8","0,6","ND","ND","ND","ND"],
    [21121,"11/23/2016 16:00","20,8","0,34","ND","ND","ND","ND"],
    [21122,"11/23/2016 17:00","32,4","0,31","ND","ND","ND","ND"],
    [21123,"11/23/2016 18:00","23,3","0,68","ND","ND","ND","ND"],
    [21124,"11/23/2016 19:00","29,8","1,07","ND","ND","ND","ND"],
    [21125,"11/23/2016 20:00","36,6","1,89","ND","ND","ND","ND"],
    [21126,"11/23/2016 21:00","65,8","3,48","ND","ND","ND","ND"],
    [21127,"11/23/2016 22:00","64,7","4,14","ND","ND","ND","ND"],
    [21128,"11/23/2016 23:00","43,6","1,91","ND","ND","ND","ND"],
    [21129,"11/24/2016 00:00","47,6","1,18","ND","ND","ND","ND"],
    [21130,"11/24/2016 01:00","26,5","0,34","ND","ND","ND","ND"],
    [21131,"11/24/2016 02:00","50,4","ND","ND","ND","ND","ND"],
    [21132,"11/24/2016 03:00","24,4","ND","ND","ND","ND","ND"],
    [21133,"11/24/2016 04:00","33,9","0,1","ND","ND","ND","ND"],
    [21134,"11/24/2016 05:00","32,6","0,16","ND","ND","ND","ND"],
    [21135,"11/24/2016 06:00","50,2","0,39","ND","ND","ND","ND"],
    [21136,"11/24/2016 07:00","67,9","3,12","ND","ND","ND","ND"],
    [21137,"11/24/2016 08:00","58,7","2,46","ND","ND","ND","ND"],
    [21138,"11/24/2016 09:00","54","2,04","ND","ND","ND","ND"],
    [21139,"11/24/2016 10:00","48","2,17","ND","ND","ND","ND"],
    [21140,"11/24/2016 11:00","54,3","1,73","ND","ND","ND","ND"],
    [21141,"11/24/2016 12:00","54,7","2,73","ND","ND","ND","ND"],
    [21142,"11/24/2016 13:00","54,2","2,57","ND","ND","ND","ND"],
    [21143,"11/24/2016 14:00","7,7","0,29","ND","ND","ND","ND"],
    [21144,"11/24/2016 15:00","17,3","0,6","ND","ND","ND","ND"],
    [21145,"11/24/2016 16:00","8,6","0,37","ND","ND","ND","ND"],
    [21146,"11/24/2016 17:00","13,4","ND","ND","ND","ND","ND"],
    [21147,"11/24/2016 18:00","11,5","0,21","ND","ND","ND","ND"],
    [21148,"11/24/2016 19:00","29,4","1,73","ND","ND","ND","ND"],
    [21149,"11/24/2016 20:00","64,8","1,31","ND","ND","ND","ND"],
    [21150,"11/24/2016 21:00","44,4","3,2","ND","ND","ND","ND"],
    [21151,"11/24/2016 22:00","46,9","2,88","ND","ND","ND","ND"],
    [21152,"11/24/2016 23:00","39,5","1,49","ND","ND","ND","ND"],
    [21153,"11/25/2016 00:00","33,1","0,71","ND","ND","ND","ND"],
    [21154,"11/25/2016 01:00","25,2","0","ND","ND","ND","ND"],
    [21155,"11/25/2016 02:00","29,3","0,05","ND","ND","ND","ND"],
    [21156,"11/25/2016 03:00","27,2","ND","ND","ND","ND","ND"],
    [21157,"11/25/2016 04:00","33,5","ND","ND","ND","ND","ND"],
    [21158,"11/25/2016 05:00","27,8","0,68","ND","ND","ND","ND"],
    [21159,"11/25/2016 06:00","41","1,23","ND","ND","ND","ND"],
    [21160,"11/25/2016 07:00","59,3","2,83","ND","ND","ND","ND"],
    [21161,"11/25/2016 08:00","58,1","1,97","ND","ND","ND","ND"],
    [21162,"11/25/2016 09:00","34,3","1,86","ND","ND","ND","ND"],
    [21163,"11/25/2016 10:00","61,8","2,38","ND","ND","ND","ND"],
    [21164,"11/25/2016 11:00","52,3","2,41","ND","ND","ND","ND"],
    [21165,"11/25/2016 12:00","55,4","3,9","ND","ND","ND","ND"],
    [21166,"11/25/2016 13:00","23","2,31","ND","ND","ND","ND"],
    [21167,"11/25/2016 14:00","1,4","0,76","ND","ND","ND","ND"],
    [21168,"11/25/2016 15:00","19,8","1,34","ND","ND","ND","ND"],
    [21169,"11/25/2016 16:00","6","0,5","ND","ND","ND","ND"],
    [21170,"11/25/2016 17:00","7,5","ND","ND","ND","ND","ND"],
    [21171,"11/25/2016 18:00","13","0,63","ND","ND","ND","ND"],
    [21172,"11/25/2016 19:00","60,5","1,31","ND","ND","ND","ND"],
    [21173,"11/25/2016 20:00","33,9","1,34","ND","ND","ND","ND"],
    [21174,"11/25/2016 21:00","33,9","0,34","ND","ND","ND","ND"],
    [21175,"11/25/2016 22:00","13,1","1,1","ND","ND","ND","ND"],
    [21176,"11/25/2016 23:00","9,6","ND","ND","ND","ND","ND"],
    [21177,"11/26/2016 00:00","7,7","0,05","ND","ND","ND","ND"],
    [21178,"11/26/2016 01:00","4,2","ND","ND","ND","ND","ND"],
    [21179,"11/26/2016 02:00","3,8","ND","ND","ND","ND","ND"],
    [21180,"11/26/2016 03:00","6","ND","ND","ND","ND","ND"],
    [21181,"11/26/2016 04:00","4,6","ND","ND","ND","ND","ND"],
    [21182,"11/26/2016 05:00","9,8","ND","ND","ND","ND","ND"],
    [21183,"11/26/2016 06:00","6,5","ND","ND","ND","ND","ND"],
    [21184,"11/26/2016 07:00","34,4","0,39","ND","ND","ND","ND"],
    [21185,"11/26/2016 08:00","24,9","2,25","ND","ND","ND","ND"],
    [21186,"11/26/2016 09:00","22,4","1,78","ND","ND","ND","ND"],
    [21187,"11/26/2016 10:00","30,8","6,47","ND","ND","ND","ND"],
    [21188,"11/26/2016 11:00","14,4","0,34","ND","ND","ND","ND"],
    [21189,"11/26/2016 12:00","29","0,13","ND","ND","ND","ND"],
    [21190,"11/26/2016 13:00","36,1","0,71","ND","ND","ND","ND"],
    [21191,"11/26/2016 14:00","15,6","1,47","ND","ND","ND","ND"],
    [21192,"11/26/2016 15:00","6,9","0,24","ND","ND","ND","ND"],
    [21193,"11/26/2016 16:00","12,5","ND","ND","ND","ND","ND"],
    [21194,"11/26/2016 17:00","15,6","0,37","ND","ND","ND","ND"],
    [21195,"11/26/2016 18:00","16,4","0,86","ND","ND","ND","ND"],
    [21196,"11/26/2016 19:00","35,7","2,46","ND","ND","ND","ND"],
    [21197,"11/26/2016 20:00","47,8","3,07","ND","ND","ND","ND"],
    [21198,"11/26/2016 21:00","49,1","3,46","ND","ND","ND","ND"],
    [21199,"11/26/2016 22:00","42,9","5,66","ND","ND","ND","ND"],
    [21200,"11/26/2016 23:00","41,6","3,17","ND","ND","ND","ND"],
    [21201,"11/27/2016 00:00","36,4","2,88","ND","ND","ND","ND"],
    [21202,"11/27/2016 01:00","27,8","1,07","ND","ND","ND","ND"],
    [21203,"11/27/2016 02:00","20,4","0,81","ND","ND","ND","ND"],
    [21204,"11/27/2016 03:00","29","0,6","ND","ND","ND","ND"],
    [21205,"11/27/2016 04:00","36,2","0,21","ND","ND","ND","ND"],
    [21206,"11/27/2016 05:00","32,2","0,58","ND","ND","ND","ND"],
    [21207,"11/27/2016 06:00","29,6","0,6","ND","ND","ND","ND"],
    [21208,"11/27/2016 07:00","30,1","0,21","ND","ND","ND","ND"],
    [21209,"11/27/2016 08:00","54,6","0,79","ND","ND","ND","ND"],
    [21210,"11/27/2016 09:00","31,9","0,6","ND","ND","ND","ND"],
    [21211,"11/27/2016 10:00","27,4","0,16","ND","ND","ND","ND"],
    [21212,"11/27/2016 11:00","26,1","0,45","ND","ND","ND","ND"],
    [21213,"11/27/2016 12:00","47,1","0,92","ND","ND","ND","ND"],
    [21214,"11/27/2016 13:00","14,4","0,94","ND","ND","ND","ND"],
    [21215,"11/27/2016 14:00","13,9","0,81","ND","ND","ND","ND"],
    [21216,"11/27/2016 15:00","ND","ND","ND","ND","ND","ND"],
    [21217,"11/27/2016 16:00","7,2","ND","ND","ND","ND","ND"],
    [21218,"11/27/2016 17:00","11,2","ND","ND","ND","ND","ND"],
    [21219,"11/27/2016 18:00","12,2","ND","ND","ND","ND","ND"],
    [21220,"11/27/2016 19:00","3,8","0,6","ND","ND","ND","ND"],
    [21221,"11/27/2016 20:00","17,7","0,18","ND","ND","ND","ND"],
    [21222,"11/27/2016 21:00","19,8","0,08","ND","ND","ND","ND"],
    [21223,"11/27/2016 22:00","22,3","1,05","ND","ND","ND","ND"],
    [21224,"11/27/2016 23:00","22,3","0,63","ND","ND","ND","ND"],
    [21225,"11/28/2016 00:00","23,8","0,58","ND","ND","ND","ND"],
    [21226,"11/28/2016 01:00","18,9","0,52","ND","ND","ND","ND"],
    [21227,"11/28/2016 02:00","17,8","0,03","ND","ND","ND","ND"],
    [21228,"11/28/2016 03:00","19,1","ND","ND","ND","ND","ND"],
    [21229,"11/28/2016 04:00","21,5","ND","ND","ND","ND","ND"],
    [21230,"11/28/2016 05:00","23,1","ND","ND","ND","ND","ND"],
    [21231,"11/28/2016 06:00","36,3","ND","ND","ND","ND","ND"],
    [21232,"11/28/2016 07:00","72,5","2,2","ND","ND","ND","ND"],
    [21233,"11/28/2016 08:00","80,3","3,85","ND","ND","ND","ND"],
    [21234,"11/28/2016 09:00","34,8","1,21","ND","ND","ND","ND"],
    [21235,"11/28/2016 10:00","42,7","1,23","ND","ND","ND","ND"],
    [21236,"11/28/2016 11:00","27,5","1,49","ND","ND","ND","ND"],
    [21237,"11/28/2016 12:00","37,8","1,18","ND","ND","ND","ND"],
    [21238,"11/28/2016 13:00","40,2","1,41","ND","ND","ND","ND"],
    [21239,"11/28/2016 14:00","49,3","1,94","ND","ND","ND","ND"],
    [21240,"11/28/2016 15:00","25,3","0,21","ND","ND","ND","ND"],
    [21241,"11/28/2016 16:00","8,6","0,66","ND","ND","ND","ND"],
    [21242,"11/28/2016 17:00","8,3","0,16","ND","ND","ND","ND"],
    [21243,"11/28/2016 18:00","13","0,1","ND","ND","ND","ND"],
    [21244,"11/28/2016 19:00","15,1","ND","ND","ND","ND","ND"],
    [21245,"11/28/2016 20:00","12,7","ND","ND","ND","ND","ND"],
    [21246,"11/28/2016 21:00","56","1,99","ND","ND","ND","ND"],
    [21247,"11/28/2016 22:00","25,4","0,39","ND","ND","ND","ND"],
    [21248,"11/28/2016 23:00","21,1","ND","ND","ND","ND","ND"],
    [21249,"11/29/2016 00:00","21,1","ND","ND","ND","ND","ND"],
    [21250,"11/29/2016 01:00","8,5","ND","ND","ND","ND","ND"],
    [21251,"11/29/2016 02:00","7,1","ND","ND","ND","ND","ND"],
    [21252,"11/29/2016 03:00","13,2","ND","ND","ND","ND","ND"],
    [21253,"11/29/2016 04:00","11,7","ND","ND","ND","ND","ND"],
    [21254,"11/29/2016 05:00","21,6","0,37","ND","ND","ND","ND"],
    [21255,"11/29/2016 06:00","34,2","ND","ND","ND","ND","ND"],
    [21256,"11/29/2016 07:00","45,8","0,94","ND","ND","ND","ND"],
    [21257,"11/29/2016 08:00","55","2,93","ND","ND","ND","ND"],
    [21258,"11/29/2016 09:00","81","2,52","ND","ND","ND","ND"],
    [21259,"11/29/2016 10:00","75,8","2,2","ND","ND","ND","ND"],
    [21260,"11/29/2016 11:00","52,9","1,18","ND","ND","ND","ND"],
    [21261,"11/29/2016 12:00","43","0,86","ND","ND","ND","ND"],
    [21262,"11/29/2016 13:00","42","0,89","ND","ND","ND","ND"],
    [21263,"11/29/2016 14:00","42,6","1,41","ND","ND","ND","ND"],
    [21264,"11/29/2016 15:00","53,4","2,02","ND","ND","ND","ND"],
    [21265,"11/29/2016 16:00","40","1,7","ND","ND","ND","ND"],
    [21266,"11/29/2016 17:00","37,9","2,07","ND","ND","ND","ND"],
    [21267,"11/29/2016 18:00","38,4","4,24","ND","ND","ND","ND"],
    [21268,"11/29/2016 19:00","61,3","2,49","ND","ND","ND","ND"],
    [21269,"11/29/2016 20:00","45,4","2,57","ND","ND","ND","ND"],
    [21270,"11/29/2016 21:00","48,2","2,8","ND","ND","ND","ND"],
    [21271,"11/29/2016 22:00","58,6","3,48","ND","ND","ND","ND"],
    [21272,"11/29/2016 23:00","28,7","2,2","ND","ND","ND","ND"],
    [21273,"11/30/2016 00:00","36,1","0,39","ND","ND","ND","ND"],
    [21274,"11/30/2016 01:00","44,9","0,26","ND","ND","ND","ND"],
    [21275,"11/30/2016 02:00","34,3","0,29","ND","ND","ND","ND"],
    [21276,"11/30/2016 03:00","34,7","0,18","ND","ND","ND","ND"],
    [21277,"11/30/2016 04:00","29,7","0,26","ND","ND","ND","ND"],
    [21278,"11/30/2016 05:00","34,5","0,18","ND","ND","ND","ND"],
    [21279,"11/30/2016 06:00","38,7","0,16","ND","ND","ND","ND"],
    [21280,"11/30/2016 07:00","76,1","2,31","ND","ND","ND","ND"],
    [21281,"11/30/2016 08:00","74,7","3,07","ND","ND","ND","ND"],
    [21282,"11/30/2016 09:00","89,6","3,09","ND","ND","ND","ND"],
    [21283,"11/30/2016 10:00","49,6","1,34","ND","ND","ND","ND"],
    [21284,"11/30/2016 11:00","52,3","1,39","ND","ND","ND","ND"],
    [21285,"11/30/2016 12:00","52,3","1,44","ND","ND","ND","ND"],
    [21286,"11/30/2016 13:00","52,7","1,57","ND","ND","ND","ND"],
    [21287,"11/30/2016 14:00","39,4","1,31","ND","ND","ND","ND"],
    [21288,"11/30/2016 15:00","17,3","ND","ND","ND","ND","ND"],
    [21289,"11/30/2016 16:00","15,2","0,03","ND","ND","ND","ND"],
    [21290,"11/30/2016 17:00","12,2","0,05","ND","ND","ND","ND"],
    [21291,"11/30/2016 18:00","13,2","0,29","ND","ND","ND","ND"],
    [21292,"11/30/2016 19:00","14","0,21","ND","ND","ND","ND"],
    [21293,"11/30/2016 20:00","19,6","0,08","ND","ND","ND","ND"],
    [21294,"11/30/2016 21:00","10,8","0,6","ND","ND","ND","ND"],
    [21295,"11/30/2016 22:00","45","1,39","ND","ND","ND","ND"],
    [21296,"11/30/2016 23:00","38,1","0,68","ND","ND","ND","ND"],
    [21297,"42381","22,3","2,31","ND","ND","ND","ND"],
    [21298,"42381,04167","35,5","ND","ND","ND","ND","ND"],
    [21299,"42381,08333","16,4","ND","ND","ND","ND","ND"],
    [21300,"42381,125","20,2","ND","ND","ND","ND","ND"],
    [21301,"42381,16667","17,2","ND","ND","ND","ND","ND"],
    [21302,"42381,20833","23","ND","ND","ND","ND","ND"],
    [21303,"42381,25","30,8","0,21","ND","ND","ND","ND"],
    [21304,"42381,29167","65,2","0,84","ND","ND","ND","ND"],
    [21305,"42381,33333","65,1","2,25","ND","ND","ND","ND"],
    [21306,"42381,375","44,5","1,99","ND","ND","ND","ND"],
    [21307,"42381,41667","86,7","4,32","ND","ND","ND","ND"],
    [21308,"42381,45833","65,8","7,78","ND","ND","ND","ND"],
    [21309,"42381,5","35,8","2,8","ND","ND","ND","ND"],
    [21310,"42381,54167","15,6","1,52","ND","ND","ND","ND"],
    [21311,"42381,58333","41,6","1,44","ND","ND","ND","ND"],
    [21312,"42381,625","9,1","2,73","ND","ND","ND","ND"],
    [21313,"42381,66667","26,7","1,47","ND","ND","ND","ND"],
    [21314,"42381,70833","55,9","3,07","ND","ND","ND","ND"],
    [21315,"42381,75","80,8","4,72","ND","ND","ND","ND"],
    [21316,"42381,79167","97,5","4,72","ND","ND","ND","ND"],
    [21317,"42381,83333","81,2","4,48","ND","ND","ND","ND"],
    [21318,"42381,875","59,2","3,07","ND","ND","ND","ND"],
    [21319,"42381,91667","44,3","3,3","ND","ND","ND","ND"],
    [21320,"42381,95833","39,9","0,84","ND","ND","ND","ND"],
    [21321,"42412","45,1","1,13","ND","ND","ND","ND"],
    [21322,"42412,04167","22,5","0,26","ND","ND","ND","ND"],
    [21323,"42412,08333","27,1","0,39","ND","ND","ND","ND"],
    [21324,"42412,125","35,8","0,37","ND","ND","ND","ND"],
    [21325,"42412,16667","31,8","ND","ND","ND","ND","ND"],
    [21326,"42412,20833","38,6","0,18","ND","ND","ND","ND"],
    [21327,"42412,25","59","0,71","ND","ND","ND","ND"],
    [21328,"42412,29167","84,6","2,7","ND","ND","ND","ND"],
    [21329,"42412,33333","134,6","2,67","ND","ND","ND","ND"],
    [21330,"42412,375","146,3","2,1","ND","ND","ND","ND"],
    [21331,"42412,41667","123,4","1,44","ND","ND","ND","ND"],
    [21332,"42412,45833","67,2","2,23","ND","ND","ND","ND"],
    [21333,"42412,5","54,9","1,55","ND","ND","ND","ND"],
    [21334,"42412,54167","92,5","0,6","ND","ND","ND","ND"],
    [21335,"42412,58333","54,1","0,86","ND","ND","ND","ND"],
    [21336,"42412,625","73,1","2,41","ND","ND","ND","ND"],
    [21337,"42412,66667","59,1","0,34","ND","ND","ND","ND"],
    [21338,"42412,70833","96,1","1,44","ND","ND","ND","ND"],
    [21339,"42412,75","96,1","2,46","ND","ND","ND","ND"],
    [21340,"42412,79167","88,8","2,91","ND","ND","ND","ND"],
    [21341,"42412,83333","111,6","2,8","ND","ND","ND","ND"],
    [21342,"42412,875","71,3","2,75","ND","ND","ND","ND"],
    [21343,"42412,91667","84,4","2,02","ND","ND","ND","ND"],
    [21344,"42412,95833","96","3,25","ND","ND","ND","ND"],
    [21345,"42441","48,2","1,81","ND","ND","ND","ND"],
    [21346,"42441,04167","42,8","0,5","ND","ND","ND","ND"],
    [21347,"42441,08333","47,8","0,29","ND","ND","ND","ND"],
    [21348,"42441,125","27,7","ND","ND","ND","ND","ND"],
    [21349,"42441,16667","26,9","ND","ND","ND","ND","ND"],
    [21350,"42441,20833","19,1","ND","ND","ND","ND","ND"],
    [21351,"42441,25","18,5","0,24","ND","ND","ND","ND"],
    [21352,"42441,29167","23,5","0,5","ND","ND","ND","ND"],
    [21353,"42441,33333","48,5","3,72","ND","ND","ND","ND"],
    [21354,"42441,375","48,8","3,3","ND","ND","ND","ND"],
    [21355,"42441,41667","27,6","2,1","ND","ND","ND","ND"],
    [21356,"42441,45833","23,5","1,1","ND","ND","ND","ND"],
    [21357,"42441,5","20,1","1,39","ND","ND","ND","ND"],
    [21358,"42441,54167","18,9","2,04","ND","ND","ND","ND"],
    [21359,"42441,58333","30,8","1,7","ND","ND","ND","ND"],
    [21360,"42441,625","40,8","1,94","ND","ND","ND","ND"],
    [21361,"42441,66667","50,2","2,1","ND","ND","ND","ND"],
    [21362,"42441,70833","48,3","1,89","ND","ND","ND","ND"],
    [21363,"42441,75","59,8","1,41","ND","ND","ND","ND"],
    [21364,"42441,79167","56,3","3,77","ND","ND","ND","ND"],
    [21365,"42441,83333","113,9","4,32","ND","ND","ND","ND"],
    [21366,"42441,875","65,6","3,83","ND","ND","ND","ND"],
    [21367,"42441,91667","61,7","3,01","ND","ND","ND","ND"],
    [21368,"42441,95833","81,7","2,88","ND","ND","ND","ND"],
    [21369,"42472","108,3","5,37","ND","ND","ND","ND"],
    [21370,"42472,04167","77,8","3,83","ND","ND","ND","ND"],
    [21371,"42472,08333","58,4","2,83","ND","ND","ND","ND"],
    [21372,"42472,125","103","2,38","ND","ND","ND","ND"],
    [21373,"42472,16667","101,5","2,44","ND","ND","ND","ND"],
    [21374,"42472,20833","43","1,91","ND","ND","ND","ND"],
    [21375,"42472,25","52,2","1,21","ND","ND","ND","ND"],
    [21376,"42472,29167","77,2","1,36","ND","ND","ND","ND"],
    [21377,"42472,33333","55,2","1,1","ND","ND","ND","ND"],
    [21378,"42472,375","63,7","1,07","ND","ND","ND","ND"],
    [21379,"42472,41667","58,6","0,52","ND","ND","ND","ND"],
    [21380,"42472,45833","44,9","0,39","ND","ND","ND","ND"],
    [21381,"42472,5","65,8","0,81","ND","ND","ND","ND"],
    [21382,"42472,54167","60,1","1,05","ND","ND","ND","ND"],
    [21383,"42472,58333","39,7","0,31","ND","ND","ND","ND"],
    [21384,"42472,625","43,3","1,39","ND","ND","ND","ND"],
    [21385,"42472,66667","3,7","0,84","ND","ND","ND","ND"],
    [21386,"42472,70833","16,9","0,89","ND","ND","ND","ND"],
    [21387,"42472,75","32,4","2,86","ND","ND","ND","ND"],
    [21388,"42472,79167","18,3","0,86","ND","ND","ND","ND"],
    [21389,"42472,83333","25,7","1","ND","ND","ND","ND"],
    [21390,"42472,875","31,4","0,76","ND","ND","ND","ND"],
    [21391,"42472,91667","40,2","1,97","ND","ND","ND","ND"],
    [21392,"42472,95833","24,3","0,6","ND","ND","ND","ND"],
    [21393,"42502","18,2","0,52","ND","ND","ND","ND"],
    [21394,"42502,04167","95","0,21","ND","ND","ND","ND"],
    [21395,"42502,08333","ND","0,63","ND","ND","ND","ND"],
    [21396,"42502,125","ND","0,29","ND","ND","ND","ND"],
    [21397,"42502,16667","ND","0,08","ND","ND","ND","ND"],
    [21398,"42502,20833","ND","0","ND","ND","ND","ND"],
    [21399,"42502,25","ND","0,05","ND","ND","ND","ND"],
    [21400,"42502,29167","ND","1,68","ND","ND","ND","ND"],
    [21401,"42502,33333","ND","2,02","ND","ND","ND","ND"],
    [21402,"42502,375","ND","1,15","ND","ND","ND","ND"],
    [21403,"42502,41667","ND","2,83","ND","ND","ND","ND"],
    [21404,"42502,45833","ND","2,04","ND","ND","ND","ND"],
    [21405,"42502,5","ND","1,21","ND","ND","ND","ND"],
    [21406,"42502,54167","ND","0,84","ND","ND","ND","ND"],
    [21407,"42502,58333","ND","0,58","ND","ND","ND","ND"],
    [21408,"42502,625","ND","0,81","ND","ND","ND","ND"],
    [21409,"42502,66667","ND","0,13","ND","ND","ND","ND"],
    [21410,"42502,70833","15,8","ND","ND","ND","ND","ND"],
    [21411,"42502,75","17,3","ND","ND","ND","ND","ND"],
    [21412,"42502,79167","20,6","ND","ND","ND","ND","ND"],
    [21413,"42502,83333","25","ND","ND","ND","ND","ND"],
    [21414,"42502,875","31,4","2,54","ND","ND","ND","ND"],
    [21415,"42502,91667","33,1","2,15","ND","ND","ND","ND"],
    [21416,"42502,95833","36,9","1,62","ND","ND","ND","ND"],
    [21417,"42533","39","1,36","ND","ND","ND","ND"],
    [21418,"42533,04167","38,3","0,26","ND","ND","ND","ND"],
    [21419,"42533,08333","26,1","0,18","ND","ND","ND","ND"],
    [21420,"42533,125","20,7","0,05","ND","ND","ND","ND"],
    [21421,"42533,16667","21,1","0,05","ND","ND","ND","ND"],
    [21422,"42533,20833","29","0,16","ND","ND","ND","ND"],
    [21423,"42533,25","36,5","0,47","ND","ND","ND","ND"],
    [21424,"42533,29167","56,1","1,68","ND","ND","ND","ND"],
    [21425,"42533,33333","74,1","2,23","ND","ND","ND","ND"],
    [21426,"42533,375","82,5","2,25","ND","ND","ND","ND"],
    [21427,"42533,41667","99,6","1,55","ND","ND","ND","ND"],
    [21428,"42533,45833","81,2","1,05","ND","ND","ND","ND"],
    [21429,"42533,5","64,7","1,13","ND","ND","ND","ND"],
    [21430,"42533,54167","59,9","1,1","ND","ND","ND","ND"],
    [21431,"42533,58333","47,9","1,13","ND","ND","ND","ND"],
    [21432,"42533,625","49,8","0,71","ND","ND","ND","ND"],
    [21433,"42533,66667","55,1","0,31","ND","ND","ND","ND"],
    [21434,"42533,70833","36","0,31","ND","ND","ND","ND"],
    [21435,"42533,75","30,2","0,13","ND","ND","ND","ND"],
    [21436,"42533,79167","24,1","1,34","ND","ND","ND","ND"],
    [21437,"42533,83333","31,2","1,83","ND","ND","ND","ND"],
    [21438,"42533,875","63,9","1,26","ND","ND","ND","ND"],
    [21439,"42533,91667","55,2","0,6","ND","ND","ND","ND"],
    [21440,"42533,95833","44,7","1,65","ND","ND","ND","ND"],
    [21441,"42563","54,5","2,38","ND","ND","ND","ND"],
    [21442,"42563,04167","60,9","1,91","ND","ND","ND","ND"],
    [21443,"42563,08333","46,9","0,31","ND","ND","ND","ND"],
    [21444,"42563,125","48","0,08","ND","ND","ND","ND"],
    [21445,"42563,16667","32","0,16","ND","ND","ND","ND"],
    [21446,"42563,20833","18,3","0,21","ND","ND","ND","ND"],
    [21447,"42563,25","21,5","0,42","ND","ND","ND","ND"],
    [21448,"42563,29167","21,4","1,52","ND","ND","ND","ND"],
    [21449,"42563,33333","30,7","3,54","ND","ND","ND","ND"],
    [21450,"42563,375","44,6","2,44","ND","ND","ND","ND"],
    [21451,"42563,41667","58,3","1,31","ND","ND","ND","ND"],
    [21452,"42563,45833","46,7","0,58","ND","ND","ND","ND"],
    [21453,"42563,5","32,2","0,84","ND","ND","ND","ND"],
    [21454,"42563,54167","46,5","1,44","ND","ND","ND","ND"],
    [21455,"42563,58333","46,5","1,23","ND","ND","ND","ND"],
    [21456,"42563,625","52,5","0,89","ND","ND","ND","ND"],
    [21457,"42563,66667","29,3","0,58","ND","ND","ND","ND"],
    [21458,"42563,70833","28,7","2,44","ND","ND","ND","ND"],
    [21459,"42563,75","27","3,25","ND","ND","ND","ND"],
    [21460,"42563,79167","24,6","6,71","ND","ND","ND","ND"],
    [21461,"42563,83333","34,6","3,83","ND","ND","ND","ND"],
    [21462,"42563,875","58,8","3,9","ND","ND","ND","ND"],
    [21463,"42563,91667","73,3","3,9","ND","ND","ND","ND"],
    [21464,"42563,95833","82,9","3,69","ND","ND","ND","ND"],
    [21465,"42594","86,7","3,35","ND","ND","ND","ND"],
    [21466,"42594,04167","51,9","1,7","ND","ND","ND","ND"],
    [21467,"42594,08333","28,3","0,6","ND","ND","ND","ND"],
    [21468,"42594,125","28,6","0,26","ND","ND","ND","ND"],
    [21469,"42594,16667","27,4","0,1","ND","ND","ND","ND"],
    [21470,"42594,20833","30,2","1,49","ND","ND","ND","ND"],
    [21471,"42594,25","35,8","0,45","ND","ND","ND","ND"],
    [21472,"42594,29167","36,6","0,68","ND","ND","ND","ND"],
    [21473,"42594,33333","48,5","0,79","ND","ND","ND","ND"],
    [21474,"42594,375","57,6","1,57","ND","ND","ND","ND"],
    [21475,"42594,41667","73,7","1,05","ND","ND","ND","ND"],
    [21476,"42594,45833","46","1,15","ND","ND","ND","ND"],
    [21477,"42594,5","36,9","1,15","ND","ND","ND","ND"],
    [21478,"42594,54167","24,1","0,37","ND","ND","ND","ND"],
    [21479,"42594,58333","20","0,39","ND","ND","ND","ND"],
    [21480,"42594,625","7,4","0,89","ND","ND","ND","ND"],
    [21481,"42594,66667","17,5","0,16","ND","ND","ND","ND"],
    [21482,"42594,70833","14,6","0,18","ND","ND","ND","ND"],
    [21483,"42594,75","14,2","0,18","ND","ND","ND","ND"],
    [21484,"42594,79167","13","0,6","ND","ND","ND","ND"],
    [21485,"42594,83333","12,9","2,78","ND","ND","ND","ND"],
    [21486,"42594,875","43,6","1,52","ND","ND","ND","ND"],
    [21487,"42594,91667","48,2","1,76","ND","ND","ND","ND"],
    [21488,"42594,95833","52,8","1,26","ND","ND","ND","ND"],
    [21489,"42625","35,3","0,58","ND","ND","ND","ND"],
    [21490,"42625,04167","28,2","0,26","ND","ND","ND","ND"],
    [21491,"42625,08333","28,8","0,03","ND","ND","ND","ND"],
    [21492,"42625,125","16,9","0","ND","ND","ND","ND"],
    [21493,"42625,16667","12,4","0,03","ND","ND","ND","ND"],
    [21494,"42625,20833","16,1","0","ND","ND","ND","ND"],
    [21495,"42625,25","17,2","0,18","ND","ND","ND","ND"],
    [21496,"42625,29167","20,7","1,39","ND","ND","ND","ND"],
    [21497,"42625,33333","24,6","2,15","ND","ND","ND","ND"],
    [21498,"42625,375","36,9","2,2","ND","ND","ND","ND"],
    [21499,"42625,41667","56,4","0,68","ND","ND","ND","ND"],
    [21500,"42625,45833","37,3","0,97","ND","ND","ND","ND"],
    [21501,"42625,5","38","0,94","ND","ND","ND","ND"],
    [21502,"42625,54167","31,3","1,44","ND","ND","ND","ND"],
    [21503,"42625,58333","42,1","1,47","ND","ND","ND","ND"],
    [21504,"42625,625","34,6","1,73","ND","ND","ND","ND"],
    [21505,"42625,66667","35,5","1,94","ND","ND","ND","ND"],
    [21506,"42625,70833","31","0,29","ND","ND","ND","ND"],
    [21507,"42625,75","17,6","0,31","ND","ND","ND","ND"],
    [21508,"42625,79167","18,7","1,57","ND","ND","ND","ND"],
    [21509,"42625,83333","24,4","2,23","ND","ND","ND","ND"],
    [21510,"42625,875","40,5","2,67","ND","ND","ND","ND"],
    [21511,"42625,91667","45,6","3,07","ND","ND","ND","ND"],
    [21512,"42625,95833","58,2","2,65","ND","ND","ND","ND"],
    [21513,"42655","57,2","1,15","ND","ND","ND","ND"],
    [21514,"42655,04167","29,8","1","ND","ND","ND","ND"],
    [21515,"42655,08333","27,1","0,39","ND","ND","ND","ND"],
    [21516,"42655,125","28","0,26","ND","ND","ND","ND"],
    [21517,"42655,16667","29,4","0,5","ND","ND","ND","ND"],
    [21518,"42655,20833","27,8","0,31","ND","ND","ND","ND"],
    [21519,"42655,25","34,2","0,52","ND","ND","ND","ND"],
    [21520,"42655,29167","35,1","0,71","ND","ND","ND","ND"],
    [21521,"42655,33333","51,1","1,1","ND","ND","ND","ND"],
    [21522,"42655,375","55,3","2,8","ND","ND","ND","ND"],
    [21523,"42655,41667","73,2","2,41","ND","ND","ND","ND"],
    [21524,"42655,45833","64,2","1,34","ND","ND","ND","ND"],
    [21525,"42655,5","56,3","1,91","ND","ND","ND","ND"],
    [21526,"42655,54167","48,1","2,23","ND","ND","ND","ND"],
    [21527,"42655,58333","41,3","1,31","ND","ND","ND","ND"],
    [21528,"42655,625","39,3","1,15","ND","ND","ND","ND"],
    [21529,"42655,66667","40,8","0,52","ND","ND","ND","ND"],
    [21530,"42655,70833","29,3","0,31","ND","ND","ND","ND"],
    [21531,"42655,75","18","0,31","ND","ND","ND","ND"],
    [21532,"42655,79167","20,3","0,55","ND","ND","ND","ND"],
    [21533,"42655,83333","21,3","1,78","ND","ND","ND","ND"],
    [21534,"42655,875","30,5","1,07","ND","ND","ND","ND"],
    [21535,"42655,91667","27,9","5,53","ND","ND","ND","ND"],
    [21536,"42655,95833","59,1","3,85","ND","ND","ND","ND"],
    [21537,"42686","58,8","2,25","ND","ND","ND","ND"],
    [21538,"42686,04167","51,5","2,88","ND","ND","ND","ND"],
    [21539,"42686,08333","60,9","3,83","ND","ND","ND","ND"],
    [21540,"42686,125","38,8","2,99","ND","ND","ND","ND"],
    [21541,"42686,16667","39,8","0,47","ND","ND","ND","ND"],
    [21542,"42686,20833","17,4","0,1","ND","ND","ND","ND"],
    [21543,"42686,25","13,3","0,16","ND","ND","ND","ND"],
    [21544,"42686,29167","15,2","0,6","ND","ND","ND","ND"],
    [21545,"42686,33333","18","1,02","ND","ND","ND","ND"],
    [21546,"42686,375","18,4","0,63","ND","ND","ND","ND"],
    [21547,"42686,41667","30,8","1,05","ND","ND","ND","ND"],
    [21548,"42686,45833","24,3","0,79","ND","ND","ND","ND"],
    [21549,"42686,5","21,2","1,52","ND","ND","ND","ND"],
    [21550,"42686,54167","24,4","1","ND","ND","ND","ND"],
    [21551,"42686,58333","23","1,31","ND","ND","ND","ND"],
    [21552,"42686,625","16,9","2,25","ND","ND","ND","ND"],
    [21553,"42686,66667","36,8","0,37","ND","ND","ND","ND"],
    [21554,"42686,70833","11,8","0,24","ND","ND","ND","ND"],
    [21555,"42686,75","13,5","0,71","ND","ND","ND","ND"],
    [21556,"42686,79167","15,3","0,31","ND","ND","ND","ND"],
    [21557,"42686,83333","15","1,49","ND","ND","ND","ND"],
    [21558,"42686,875","23,8","1,94","ND","ND","ND","ND"],
    [21559,"42686,91667","29,4","3,33","ND","ND","ND","ND"],
    [21560,"42686,95833","40,2","1,86","ND","ND","ND","ND"],
    [21561,"42716","42,2","7,31","ND","ND","ND","ND"],
    [21562,"42716,04167","38,2","0,31","ND","ND","ND","ND"],
    [21563,"42716,08333","28,4","0,79","ND","ND","ND","ND"],
    [21564,"42716,125","34,4","0,18","ND","ND","ND","ND"],
    [21565,"42716,16667","25,7","0,1","ND","ND","ND","ND"],
    [21566,"42716,20833","27,8","0,05","ND","ND","ND","ND"],
    [21567,"42716,25","27,1","1,13","ND","ND","ND","ND"],
    [21568,"42716,29167","41,5","3,62","ND","ND","ND","ND"],
    [21569,"42716,33333","55,7","3,83","ND","ND","ND","ND"],
    [21570,"42716,375","58,5","2,54","ND","ND","ND","ND"],
    [21571,"42716,41667","47,3","1,52","ND","ND","ND","ND"],
    [21572,"42716,45833","38,4","1,23","ND","ND","ND","ND"],
    [21573,"42716,5","36,4","1,83","ND","ND","ND","ND"],
    [21574,"42716,54167","38,4","1,7","ND","ND","ND","ND"],
    [21575,"42716,58333","41","1,57","ND","ND","ND","ND"],
    [21576,"42716,625","46","1,21","ND","ND","ND","ND"],
    [21577,"42716,66667","46,7","0,24","ND","ND","ND","ND"],
    [21578,"42716,70833","25,6","0,37","ND","ND","ND","ND"],
    [21579,"42716,75","17,3","0,5","ND","ND","ND","ND"],
    [21580,"42716,79167","19,9","0,92","ND","ND","ND","ND"],
    [21581,"42716,83333","19,4","0,71","ND","ND","ND","ND"],
    [21582,"42716,875","18,9","0,76","ND","ND","ND","ND"],
    [21583,"42716,91667","16,6","1,07","ND","ND","ND","ND"],
    [21584,"42716,95833","16,5","1,49","ND","ND","ND","ND"],
    [21585,"12/13/2016 00:00","35,3","1,26","ND","ND","ND","ND"],
    [21586,"12/13/2016 01:00","54,3","0,39","ND","ND","ND","ND"],
    [21587,"12/13/2016 02:00","43,2","0,29","ND","ND","ND","ND"],
    [21588,"12/13/2016 03:00","43,1","0,13","ND","ND","ND","ND"],
    [21589,"12/13/2016 04:00","25,6","0,08","ND","ND","ND","ND"],
    [21590,"12/13/2016 05:00","32,7","0,1","ND","ND","ND","ND"],
    [21591,"12/13/2016 06:00","38,2","0,26","ND","ND","ND","ND"],
    [21592,"12/13/2016 07:00","39,4","2,52","ND","ND","ND","ND"],
    [21593,"12/13/2016 08:00","53,9","5,74","ND","ND","ND","ND"],
    [21594,"12/13/2016 09:00","69,4","1,99","ND","ND","ND","ND"],
    [21595,"12/13/2016 10:00","61,9","7,76","ND","ND","ND","ND"],
    [21596,"12/13/2016 11:00","48,8","5,11","ND","ND","ND","ND"],
    [21597,"12/13/2016 12:00","52,4","4,77","ND","ND","ND","ND"],
    [21598,"12/13/2016 13:00","58,3","3,35","ND","ND","ND","ND"],
    [21599,"12/13/2016 14:00","54,4","0,66","ND","ND","ND","ND"],
    [21600,"12/13/2016 15:00","16,4","0,6","ND","ND","ND","ND"],
    [21601,"12/13/2016 16:00","17,4","0,26","ND","ND","ND","ND"],
    [21602,"12/13/2016 17:00","13,4","0,5","ND","ND","ND","ND"],
    [21603,"12/13/2016 18:00","18,8","0,71","ND","ND","ND","ND"],
    [21604,"12/13/2016 19:00","19,1","0,58","ND","ND","ND","ND"],
    [21605,"12/13/2016 20:00","14,7","1,65","ND","ND","ND","ND"],
    [21606,"12/13/2016 21:00","31,2","2,31","ND","ND","ND","ND"],
    [21607,"12/13/2016 22:00","35,8","3,22","ND","ND","ND","ND"],
    [21608,"12/13/2016 23:00","41,4","2,59","ND","ND","ND","ND"],
    [21609,"12/14/2016 00:00","43,5","1,41","ND","ND","ND","ND"],
    [21610,"12/14/2016 01:00","34,7","0,63","ND","ND","ND","ND"],
    [21611,"12/14/2016 02:00","33,8","1,52","ND","ND","ND","ND"],
    [21612,"12/14/2016 03:00","23,7","0,16","ND","ND","ND","ND"],
    [21613,"12/14/2016 04:00","24,1","0,08","ND","ND","ND","ND"],
    [21614,"12/14/2016 05:00","23,2","0,05","ND","ND","ND","ND"],
    [21615,"12/14/2016 06:00","27,8","0,79","ND","ND","ND","ND"],
    [21616,"12/14/2016 07:00","44,3","1,28","ND","ND","ND","ND"],
    [21617,"12/14/2016 08:00","57","2,07","ND","ND","ND","ND"],
    [21618,"12/14/2016 09:00","63,4","1,99","ND","ND","ND","ND"],
    [21619,"12/14/2016 10:00","59","1,83","ND","ND","ND","ND"],
    [21620,"12/14/2016 11:00","67,8","1,6","ND","ND","ND","ND"],
    [21621,"12/14/2016 12:00","37,4","1,94","ND","ND","ND","ND"],
    [21622,"12/14/2016 13:00","41","1,62","ND","ND","ND","ND"],
    [21623,"12/14/2016 14:00","46,7","1,6","ND","ND","ND","ND"],
    [21624,"12/14/2016 15:00","50,8","0,6","ND","ND","ND","ND"],
    [21625,"12/14/2016 16:00","35,9","0,13","ND","ND","ND","ND"],
    [21626,"12/14/2016 17:00","16,7","0,05","ND","ND","ND","ND"],
    [21627,"12/14/2016 18:00","22","0,68","ND","ND","ND","ND"],
    [21628,"12/14/2016 19:00","35,4","0,39","ND","ND","ND","ND"],
    [21629,"12/14/2016 20:00","22,5","1,34","ND","ND","ND","ND"],
    [21630,"12/14/2016 21:00","27,3","1,99","ND","ND","ND","ND"],
    [21631,"12/14/2016 22:00","66,2","2,62","ND","ND","ND","ND"],
    [21632,"12/14/2016 23:00","53,1","1,6","ND","ND","ND","ND"],
    [21633,"12/15/2016 00:00","53,9","0,42","ND","ND","ND","ND"],
    [21634,"12/15/2016 01:00","30,8","0,92","ND","ND","ND","ND"],
    [21635,"12/15/2016 02:00","27,5","0,18","ND","ND","ND","ND"],
    [21636,"12/15/2016 03:00","30,5","0,03","ND","ND","ND","ND"],
    [21637,"12/15/2016 04:00","25,4","0,05","ND","ND","ND","ND"],
    [21638,"12/15/2016 05:00","28,9","0,21","ND","ND","ND","ND"],
    [21639,"12/15/2016 06:00","43,4","0,66","ND","ND","ND","ND"],
    [21640,"12/15/2016 07:00","53,1","2,36","ND","ND","ND","ND"],
    [21641,"12/15/2016 08:00","66,4","2,2","ND","ND","ND","ND"],
    [21642,"12/15/2016 09:00","63","1,86","ND","ND","ND","ND"],
    [21643,"12/15/2016 10:00","49,7","1,55","ND","ND","ND","ND"],
    [21644,"12/15/2016 11:00","61,9","1,47","ND","ND","ND","ND"],
    [21645,"12/15/2016 12:00","50","1,49","ND","ND","ND","ND"],
    [21646,"12/15/2016 13:00","47,2","1,28","ND","ND","ND","ND"],
    [21647,"12/15/2016 14:00","47,6","0,81","ND","ND","ND","ND"],
    [21648,"12/15/2016 15:00","69,8","0,79","ND","ND","ND","ND"],
    [21649,"12/15/2016 16:00","38","0,21","ND","ND","ND","ND"],
    [21650,"12/15/2016 17:00","21,4","0,42","ND","ND","ND","ND"],
    [21651,"12/15/2016 18:00","23,3","0,16","ND","ND","ND","ND"],
    [21652,"12/15/2016 19:00","20,5","0,37","ND","ND","ND","ND"],
    [21653,"12/15/2016 20:00","16,3","1,39","ND","ND","ND","ND"],
    [21654,"12/15/2016 21:00","43,4","1,65","ND","ND","ND","ND"],
    [21655,"12/15/2016 22:00","26","0,5","ND","ND","ND","ND"],
    [21656,"12/15/2016 23:00","23","1,02","ND","ND","ND","ND"],
    [21657,"12/16/2016 00:00","25,2","0,5","ND","ND","ND","ND"],
    [21658,"12/16/2016 01:00","26,1","2,31","ND","ND","ND","ND"],
    [21659,"12/16/2016 02:00","33,1","0,73","ND","ND","ND","ND"],
    [21660,"12/16/2016 03:00","26,4","0,16","ND","ND","ND","ND"],
    [21661,"12/16/2016 04:00","25,2","0,26","ND","ND","ND","ND"],
    [21662,"12/16/2016 05:00","28,3","2,78","ND","ND","ND","ND"],
    [21663,"12/16/2016 06:00","34,5","0,66","ND","ND","ND","ND"],
    [21664,"12/16/2016 07:00","29,7","2,78","ND","ND","ND","ND"],
    [21665,"12/16/2016 08:00","83,9","2,73","ND","ND","ND","ND"],
    [21666,"12/16/2016 09:00","57,8","3,01","ND","ND","ND","ND"],
    [21667,"12/16/2016 10:00","56,5","4,69","ND","ND","ND","ND"],
    [21668,"12/16/2016 11:00","80,4","4,43","ND","ND","ND","ND"],
    [21669,"12/16/2016 12:00","48,6","2,75","ND","ND","ND","ND"],
    [21670,"12/16/2016 13:00","42,1","2,96","ND","ND","ND","ND"],
    [21671,"12/16/2016 14:00","37,3","0,79","ND","ND","ND","ND"],
    [21672,"12/16/2016 15:00","7,6","0,63","ND","ND","ND","ND"],
    [21673,"12/16/2016 16:00","17,1","0,37","ND","ND","ND","ND"],
    [21674,"12/16/2016 17:00","16,2","1,21","ND","ND","ND","ND"],
    [21675,"12/16/2016 18:00","32,2","0,63","ND","ND","ND","ND"],
    [21676,"12/16/2016 19:00","31,6","1,1","ND","ND","ND","ND"],
    [21677,"12/16/2016 20:00","34,1","2,44","ND","ND","ND","ND"],
    [21678,"12/16/2016 21:00","40,9","2,2","ND","ND","ND","ND"],
    [21679,"12/16/2016 22:00","35,6","2,46","ND","ND","ND","ND"],
    [21680,"12/16/2016 23:00","31,1","3,51","ND","ND","ND","ND"],
    [21681,"12/17/2016 00:00","37,5","1,31","ND","ND","ND","ND"],
    [21682,"12/17/2016 01:00","38,1","2,07","ND","ND","ND","ND"],
    [21683,"12/17/2016 02:00","37","0,92","ND","ND","ND","ND"],
    [21684,"12/17/2016 03:00","31,7","0,84","ND","ND","ND","ND"],
    [21685,"12/17/2016 04:00","23,4","0,24","ND","ND","ND","ND"],
    [21686,"12/17/2016 05:00","28,3","0,1","ND","ND","ND","ND"],
    [21687,"12/17/2016 06:00","34,4","0,26","ND","ND","ND","ND"],
    [21688,"12/17/2016 07:00","37,7","0,97","ND","ND","ND","ND"],
    [21689,"12/17/2016 08:00","51,2","1,05","ND","ND","ND","ND"],
    [21690,"12/17/2016 09:00","51,8","1,7","ND","ND","ND","ND"],
    [21691,"12/17/2016 10:00","72,3","0,94","ND","ND","ND","ND"],
    [21692,"12/17/2016 11:00","59,6","1,13","ND","ND","ND","ND"],
    [21693,"12/17/2016 12:00","36,5","1,68","ND","ND","ND","ND"],
    [21694,"12/17/2016 13:00","31,7","2,02","ND","ND","ND","ND"],
    [21695,"12/17/2016 14:00","37,3","3,46","ND","ND","ND","ND"],
    [21696,"12/17/2016 15:00","32,3","0,45","ND","ND","ND","ND"],
    [21697,"12/17/2016 16:00","10,1","0,34","ND","ND","ND","ND"],
    [21698,"12/17/2016 17:00","12","0,13","ND","ND","ND","ND"],
    [21699,"12/17/2016 18:00","14,2","0,13","ND","ND","ND","ND"],
    [21700,"12/17/2016 19:00","16,4","0,47","ND","ND","ND","ND"],
    [21701,"12/17/2016 20:00","27","2,31","ND","ND","ND","ND"],
    [21702,"12/17/2016 21:00","46","2,46","ND","ND","ND","ND"],
    [21703,"12/17/2016 22:00","32","2,1","ND","ND","ND","ND"],
    [21704,"12/17/2016 23:00","30,3","2,31","ND","ND","ND","ND"],
    [21705,"12/18/2016 00:00","35","2,38","ND","ND","ND","ND"],
    [21706,"12/18/2016 01:00","26,8","1,23","ND","ND","ND","ND"],
    [21707,"12/18/2016 02:00","49,4","1,23","ND","ND","ND","ND"],
    [21708,"12/18/2016 03:00","20,3","0,68","ND","ND","ND","ND"],
    [21709,"12/18/2016 04:00","29,9","0,58","ND","ND","ND","ND"],
    [21710,"12/18/2016 05:00","31,8","0,71","ND","ND","ND","ND"],
    [21711,"12/18/2016 06:00","28,5","0,52","ND","ND","ND","ND"],
    [21712,"12/18/2016 07:00","38,2","0,68","ND","ND","ND","ND"],
    [21713,"12/18/2016 08:00","34,2","1,52","ND","ND","ND","ND"],
    [21714,"12/18/2016 09:00","57,5","2,65","ND","ND","ND","ND"],
    [21715,"12/18/2016 10:00","48,1","2,99","ND","ND","ND","ND"],
    [21716,"12/18/2016 11:00","59,3","2,99","ND","ND","ND","ND"],
    [21717,"12/18/2016 12:00","71,6","4,51","ND","ND","ND","ND"],
    [21718,"12/18/2016 13:00","49,8","4,27","ND","ND","ND","ND"],
    [21719,"12/18/2016 14:00","48","3,04","ND","ND","ND","ND"],
    [21720,"12/18/2016 15:00","43,8","2,04","ND","ND","ND","ND"],
    [21721,"12/18/2016 16:00","31,6","1,07","ND","ND","ND","ND"],
    [21722,"12/18/2016 17:00","14,8","0,13","ND","ND","ND","ND"],
    [21723,"12/18/2016 18:00","16,7","0,13","ND","ND","ND","ND"],
    [21724,"12/18/2016 19:00","14,9","0,18","ND","ND","ND","ND"],
    [21725,"12/18/2016 20:00","15,7","0,58","ND","ND","ND","ND"],
    [21726,"12/18/2016 21:00","24,7","1,34","ND","ND","ND","ND"],
    [21727,"12/18/2016 22:00","30,5","2,88","ND","ND","ND","ND"],
    [21728,"12/18/2016 23:00","49,9","1,7","ND","ND","ND","ND"],
    [21729,"12/19/2016 00:00","45,5","2,54","ND","ND","ND","ND"],
    [21730,"12/19/2016 01:00","36,1","1,52","ND","ND","ND","ND"],
    [21731,"12/19/2016 02:00","34,2","0,37","ND","ND","ND","ND"],
    [21732,"12/19/2016 03:00","22,4","0,1","ND","ND","ND","ND"],
    [21733,"12/19/2016 04:00","23,2","0,16","ND","ND","ND","ND"],
    [21734,"12/19/2016 05:00","28,8","0,05","ND","ND","ND","ND"],
    [21735,"12/19/2016 06:00","20,7","0,26","ND","ND","ND","ND"],
    [21736,"12/19/2016 07:00","34,8","0,66","ND","ND","ND","ND"],
    [21737,"12/19/2016 08:00","47,8","4,66","ND","ND","ND","ND"],
    [21738,"12/19/2016 09:00","50,3","1,39","ND","ND","ND","ND"],
    [21739,"12/19/2016 10:00","49,9","3,48","ND","ND","ND","ND"],
    [21740,"12/19/2016 11:00","41,6","ND","ND","ND","ND","ND"],
    [21741,"12/19/2016 12:00","46,5","5,97","ND","ND","ND","ND"],
    [21742,"12/19/2016 13:00","78,5","3,28","ND","ND","ND","ND"],
    [21743,"12/19/2016 14:00","55,6","3,51","ND","ND","ND","ND"],
    [21744,"12/19/2016 15:00","54,9","4,17","ND","ND","ND","ND"],
    [21745,"12/19/2016 16:00","63,5","1,31","ND","ND","ND","ND"],
    [21746,"12/19/2016 17:00","36","0,94","ND","ND","ND","ND"],
    [21747,"12/19/2016 18:00","15,6","0,71","ND","ND","ND","ND"],
    [21748,"12/19/2016 19:00","17,1","0,6","ND","ND","ND","ND"],
    [21749,"12/19/2016 20:00","21,7","0,84","ND","ND","ND","ND"],
    [21750,"12/19/2016 21:00","16,6","1,02","ND","ND","ND","ND"],
    [21751,"12/19/2016 22:00","28,6","2,04","ND","ND","ND","ND"],
    [21752,"12/19/2016 23:00","42,1","1,18","ND","ND","ND","ND"],
    [21753,"12/20/2016 00:00","30,2","1,28","ND","ND","ND","ND"],
    [21754,"12/20/2016 01:00","29,7","1,1","ND","ND","ND","ND"],
    [21755,"12/20/2016 02:00","21,8","1,21","ND","ND","ND","ND"],
    [21756,"12/20/2016 03:00","28,7","0,08","ND","ND","ND","ND"],
    [21757,"12/20/2016 04:00","18,4","0,1","ND","ND","ND","ND"],
    [21758,"12/20/2016 05:00","24,3","0,05","ND","ND","ND","ND"],
    [21759,"12/20/2016 06:00","33,7","0,52","ND","ND","ND","ND"],
    [21760,"12/20/2016 07:00","38,2","1,68","ND","ND","ND","ND"],
    [21761,"12/20/2016 08:00","59,1","6,42","ND","ND","ND","ND"],
    [21762,"12/20/2016 09:00","65,7","4,14","ND","ND","ND","ND"],
    [21763,"12/20/2016 10:00","73,9","1,6","ND","ND","ND","ND"],
    [21764,"12/20/2016 11:00","50,2","1,23","ND","ND","ND","ND"],
    [21765,"12/20/2016 12:00","41","1,13","ND","ND","ND","ND"],
    [21766,"12/20/2016 13:00","44,9","0,66","ND","ND","ND","ND"],
    [21767,"12/20/2016 14:00","51,3","0,97","ND","ND","ND","ND"],
    [21768,"12/20/2016 15:00","51,3","0,84","ND","ND","ND","ND"],
    [21769,"12/20/2016 16:00","36,1","0,47","ND","ND","ND","ND"],
    [21770,"12/20/2016 17:00","12,1","0,73","ND","ND","ND","ND"],
    [21771,"12/20/2016 18:00","26,5","1,28","ND","ND","ND","ND"],
    [21772,"12/20/2016 19:00","26,1","2,96","ND","ND","ND","ND"],
    [21773,"12/20/2016 20:00","17,9","2,41","ND","ND","ND","ND"],
    [21774,"12/20/2016 21:00","25,2","1,52","ND","ND","ND","ND"],
    [21775,"12/20/2016 22:00","18,4","1,39","ND","ND","ND","ND"],
    [21776,"12/20/2016 23:00","36","1,62","ND","ND","ND","ND"],
    [21777,"12/21/2016 00:00","28,1","0,6","ND","ND","ND","ND"],
    [21778,"12/21/2016 01:00","14","0,37","ND","ND","ND","ND"],
    [21779,"12/21/2016 02:00","9,2","0,03","ND","ND","ND","ND"],
    [21780,"12/21/2016 03:00","7,2","0","ND","ND","ND","ND"],
    [21781,"12/21/2016 04:00","8","0","ND","ND","ND","ND"],
    [21782,"12/21/2016 05:00","9,2","0","ND","ND","ND","ND"],
    [21783,"12/21/2016 06:00","9,6","0,05","ND","ND","ND","ND"],
    [21784,"12/21/2016 07:00","9","0,29","ND","ND","ND","ND"],
    [21785,"12/21/2016 08:00","16","0,89","ND","ND","ND","ND"],
    [21786,"12/21/2016 09:00","17","0,89","ND","ND","ND","ND"],
    [21787,"12/21/2016 10:00","6,2","0,71","ND","ND","ND","ND"],
    [21788,"12/21/2016 11:00","12,3","0,97","ND","ND","ND","ND"],
    [21789,"12/21/2016 12:00","13,7","0,5","ND","ND","ND","ND"],
    [21790,"12/21/2016 13:00","11","0,86","ND","ND","ND","ND"],
    [21791,"12/21/2016 14:00","4,1","0,08","ND","ND","ND","ND"],
    [21792,"12/21/2016 15:00","12,8","0,03","ND","ND","ND","ND"],
    [21793,"12/21/2016 16:00","31,4","0,05","ND","ND","ND","ND"],
    [21794,"12/21/2016 17:00","17,1","0,03","ND","ND","ND","ND"],
    [21795,"12/21/2016 18:00","16","0,13","ND","ND","ND","ND"],
    [21796,"12/21/2016 19:00","47,7","0,1","ND","ND","ND","ND"],
    [21797,"12/21/2016 20:00","40,2","0,05","ND","ND","ND","ND"],
    [21798,"12/21/2016 21:00","21,9","0,08","ND","ND","ND","ND"],
    [21799,"12/21/2016 22:00","25,7","0,08","ND","ND","ND","ND"],
    [21800,"12/21/2016 23:00","25,2","0,05","ND","ND","ND","ND"],
    [21801,"12/22/2016 00:00","19,4","0,03","ND","ND","ND","ND"],
    [21802,"12/22/2016 01:00","11,2","0","ND","ND","ND","ND"],
    [21803,"12/22/2016 02:00","14,3","0,03","ND","ND","ND","ND"],
    [21804,"12/22/2016 03:00","12","0","ND","ND","ND","ND"],
    [21805,"12/22/2016 04:00","10,4","0,03","ND","ND","ND","ND"],
    [21806,"12/22/2016 05:00","10,9","0,03","ND","ND","ND","ND"],
    [21807,"12/22/2016 06:00","23","0,05","ND","ND","ND","ND"],
    [21808,"12/22/2016 07:00","27,8","0,05","ND","ND","ND","ND"],
    [21809,"12/22/2016 08:00","36,1","0,1","ND","ND","ND","ND"],
    [21810,"12/22/2016 09:00","40,2","0,13","ND","ND","ND","ND"],
    [21811,"12/22/2016 10:00","52,8","0,1","ND","ND","ND","ND"],
    [21812,"12/22/2016 11:00","22,8","0,1","ND","ND","ND","ND"],
    [21813,"12/22/2016 12:00","21,9","0,08","ND","ND","ND","ND"],
    [21814,"12/22/2016 13:00","22,6","0,13","ND","ND","ND","ND"],
    [21815,"12/22/2016 14:00","44,1","0,03","ND","ND","ND","ND"],
    [21816,"12/22/2016 15:00","32,8","0,05","ND","ND","ND","ND"],
    [21817,"12/22/2016 16:00","48,4","0,05","ND","ND","ND","ND"],
    [21818,"12/22/2016 17:00","49,3","0,03","ND","ND","ND","ND"],
    [21819,"12/22/2016 18:00","8,9","0","ND","ND","ND","ND"],
    [21820,"12/22/2016 19:00","17,2","0","ND","ND","ND","ND"],
    [21821,"12/22/2016 20:00","13,3","0,03","ND","ND","ND","ND"],
    [21822,"12/22/2016 21:00","32,5","0,03","ND","ND","ND","ND"],
    [21823,"12/22/2016 22:00","40,5","0,71","ND","ND","ND","ND"],
    [21824,"12/22/2016 23:00","54,1","1,26","ND","ND","ND","ND"],
    [21825,"12/23/2016 00:00","53,1","0,63","ND","ND","ND","ND"],
    [21826,"12/23/2016 01:00","35,3","0,66","ND","ND","ND","ND"],
    [21827,"12/23/2016 02:00","38,6","0,5","ND","ND","ND","ND"],
    [21828,"12/23/2016 03:00","34,5","0,13","ND","ND","ND","ND"],
    [21829,"12/23/2016 04:00","29,6","0,21","ND","ND","ND","ND"],
    [21830,"12/23/2016 05:00","32,8","0,18","ND","ND","ND","ND"],
    [21831,"12/23/2016 06:00","36,7","0,24","ND","ND","ND","ND"],
    [21832,"12/23/2016 07:00","47,9","0,31","ND","ND","ND","ND"],
    [21833,"12/23/2016 08:00","65,8","0,47","ND","ND","ND","ND"],
    [21834,"12/23/2016 09:00","59,3","0,66","ND","ND","ND","ND"],
    [21835,"12/23/2016 10:00","54,1","1,15","ND","ND","ND","ND"],
    [21836,"12/23/2016 11:00","36,2","1,68","ND","ND","ND","ND"],
    [21837,"12/23/2016 12:00","28","1","ND","ND","ND","ND"],
    [21838,"12/23/2016 13:00","39","0,79","ND","ND","ND","ND"],
    [21839,"12/23/2016 14:00","49,6","0,42","ND","ND","ND","ND"],
    [21840,"12/23/2016 15:00","49","0,18","ND","ND","ND","ND"],
    [21841,"12/23/2016 16:00","14,2","0,03","ND","ND","ND","ND"],
    [21842,"12/23/2016 17:00","14,5","0","ND","ND","ND","ND"],
    [21843,"12/23/2016 18:00","13,9","0","ND","ND","ND","ND"],
    [21844,"12/23/2016 19:00","12,3","0","ND","ND","ND","ND"],
    [21845,"12/23/2016 20:00","13,8","0,03","ND","ND","ND","ND"],
    [21846,"12/23/2016 21:00","14","0,03","ND","ND","ND","ND"],
    [21847,"12/23/2016 22:00","41,5","0,05","ND","ND","ND","ND"],
    [21848,"12/23/2016 23:00","36,5","0,05","ND","ND","ND","ND"],
    [21849,"12/24/2016 00:00","42,1","0,05","ND","ND","ND","ND"],
    [21850,"12/24/2016 01:00","40,1","0,03","ND","ND","ND","ND"],
    [21851,"12/24/2016 02:00","31,2","0,03","ND","ND","ND","ND"],
    [21852,"12/24/2016 03:00","31,9","0,05","ND","ND","ND","ND"],
    [21853,"12/24/2016 04:00","27","0,16","ND","ND","ND","ND"],
    [21854,"12/24/2016 05:00","37,3","0,05","ND","ND","ND","ND"],
    [21855,"12/24/2016 06:00","24","0,08","ND","ND","ND","ND"],
    [21856,"12/24/2016 07:00","27,5","0,05","ND","ND","ND","ND"],
    [21857,"12/24/2016 08:00","31","0,1","ND","ND","ND","ND"],
    [21858,"12/24/2016 09:00","43,6","0,1","ND","ND","ND","ND"],
    [21859,"12/24/2016 10:00","37,4","0,08","ND","ND","ND","ND"],
    [21860,"12/24/2016 11:00","43","0,18","ND","ND","ND","ND"],
    [21861,"12/24/2016 12:00","32,4","0,16","ND","ND","ND","ND"],
    [21862,"12/24/2016 13:00","32,8","0,26","ND","ND","ND","ND"],
    [21863,"12/24/2016 14:00","32,7","0,13","ND","ND","ND","ND"],
    [21864,"12/24/2016 15:00","12,3","0,03","ND","ND","ND","ND"],
    [21865,"12/24/2016 16:00","4,3","0,03","ND","ND","ND","ND"],
    [21866,"12/24/2016 17:00","9,8","0,05","ND","ND","ND","ND"],
    [21867,"12/24/2016 18:00","29,6","0","ND","ND","ND","ND"],
    [21868,"12/24/2016 19:00","ND","0,03","ND","ND","ND","ND"],
    [21869,"12/24/2016 20:00","15,5","0","ND","ND","ND","ND"],
    [21870,"12/24/2016 21:00","20,9","0,05","ND","ND","ND","ND"],
    [21871,"12/24/2016 22:00","54,7","0,16","ND","ND","ND","ND"],
    [21872,"12/24/2016 23:00","61,4","0,18","ND","ND","ND","ND"],
    [21873,"12/25/2016 00:00","51,5","0,21","ND","ND","ND","ND"],
    [21874,"12/25/2016 01:00","54,4","0,18","ND","ND","ND","ND"],
    [21875,"12/25/2016 02:00","58,5","0,26","ND","ND","ND","ND"],
    [21876,"12/25/2016 03:00","65,4","0,26","ND","ND","ND","ND"],
    [21877,"12/25/2016 04:00","65,3","0,18","ND","ND","ND","ND"],
    [21878,"12/25/2016 05:00","53,8","0,13","ND","ND","ND","ND"],
    [21879,"12/25/2016 06:00","49,1","0,16","ND","ND","ND","ND"],
    [21880,"12/25/2016 07:00","57,3","0,16","ND","ND","ND","ND"],
    [21881,"12/25/2016 08:00","55,7","0,18","ND","ND","ND","ND"],
    [21882,"12/25/2016 09:00","48,6","0,24","ND","ND","ND","ND"],
    [21883,"12/25/2016 10:00","40,2","0,73","ND","ND","ND","ND"],
    [21884,"12/25/2016 11:00","30,7","0,45","ND","ND","ND","ND"],
    [21885,"12/25/2016 12:00","28,9","0,68","ND","ND","ND","ND"],
    [21886,"12/25/2016 13:00","16,9","0,34","ND","ND","ND","ND"],
    [21887,"12/25/2016 14:00","21,9","0,08","ND","ND","ND","ND"],
    [21888,"12/25/2016 15:00","5,9","0,03","ND","ND","ND","ND"],
    [21889,"12/25/2016 16:00","4,6","0","ND","ND","ND","ND"],
    [21890,"12/25/2016 17:00","11,9","0,03","ND","ND","ND","ND"],
    [21891,"12/25/2016 18:00","11,2","0,13","ND","ND","ND","ND"],
    [21892,"12/25/2016 19:00","16,7","0","ND","ND","ND","ND"],
    [21893,"12/25/2016 20:00","12,4","0","ND","ND","ND","ND"],
    [21894,"12/25/2016 21:00","11,3","0,03","ND","ND","ND","ND"],
    [21895,"12/25/2016 22:00","34","0,05","ND","ND","ND","ND"],
    [21896,"12/25/2016 23:00","32","0,08","ND","ND","ND","ND"],
    [21897,"12/26/2016 00:00","32,1","0,08","ND","ND","ND","ND"],
    [21898,"12/26/2016 01:00","48,3","0,05","ND","ND","ND","ND"],
    [21899,"12/26/2016 02:00","34,8","0,05","ND","ND","ND","ND"],
    [21900,"12/26/2016 03:00","29,7","0,03","ND","ND","ND","ND"],
    [21901,"12/26/2016 04:00","22,9","0,03","ND","ND","ND","ND"],
    [21902,"12/26/2016 05:00","21,6","0,1","ND","ND","ND","ND"],
    [21903,"12/26/2016 06:00","22,7","0,03","ND","ND","ND","ND"],
    [21904,"12/26/2016 07:00","31","0,03","ND","ND","ND","ND"],
    [21905,"12/26/2016 08:00","28,9","0,31","ND","ND","ND","ND"],
    [21906,"12/26/2016 09:00","41,1","0,89","ND","ND","ND","ND"],
    [21907,"12/26/2016 10:00","46,9","1,15","ND","ND","ND","ND"],
    [21908,"12/26/2016 11:00","56,3","4,11","ND","ND","ND","ND"],
    [21909,"12/26/2016 12:00","55,2","3,96","ND","ND","ND","ND"],
    [21910,"12/26/2016 13:00","47,3","2,99","ND","ND","ND","ND"],
    [21911,"12/26/2016 14:00","44,7","2,91","ND","ND","ND","ND"],
    [21912,"12/26/2016 15:00","26,2","0,55","ND","ND","ND","ND"],
    [21913,"12/26/2016 16:00","15,1","0,05","ND","ND","ND","ND"],
    [21914,"12/26/2016 17:00","19,7","0,03","ND","ND","ND","ND"],
    [21915,"12/26/2016 18:00","20,6","0","ND","ND","ND","ND"],
    [21916,"12/26/2016 19:00","20","0,1","ND","ND","ND","ND"],
    [21917,"12/26/2016 20:00","41","0,29","ND","ND","ND","ND"],
    [21918,"12/26/2016 21:00","32,4","0,21","ND","ND","ND","ND"],
    [21919,"12/26/2016 22:00","42,5","0,18","ND","ND","ND","ND"],
    [21920,"12/26/2016 23:00","24,4","0,16","ND","ND","ND","ND"],
    [21921,"12/27/2016 00:00","26,7","0,18","ND","ND","ND","ND"],
    [21922,"12/27/2016 01:00","29,5","0,05","ND","ND","ND","ND"],
    [21923,"12/27/2016 02:00","18,7","0,05","ND","ND","ND","ND"],
    [21924,"12/27/2016 03:00","23,8","0,03","ND","ND","ND","ND"],
    [21925,"12/27/2016 04:00","22,8","0,03","ND","ND","ND","ND"],
    [21926,"12/27/2016 05:00","25","0,03","ND","ND","ND","ND"],
    [21927,"12/27/2016 06:00","38,6","0,05","ND","ND","ND","ND"],
    [21928,"12/27/2016 07:00","32,3","0,08","ND","ND","ND","ND"],
    [21929,"12/27/2016 08:00","41,9","0,16","ND","ND","ND","ND"],
    [21930,"12/27/2016 09:00","50,3","0,66","ND","ND","ND","ND"],
    [21931,"12/27/2016 10:00","38,2","0,71","ND","ND","ND","ND"],
    [21932,"12/27/2016 11:00","39,1","0,13","ND","ND","ND","ND"],
    [21933,"12/27/2016 12:00","11,7","0,08","ND","ND","ND","ND"],
    [21934,"12/27/2016 13:00","4,5","0,08","ND","ND","ND","ND"],
    [21935,"12/27/2016 14:00","6,2","0,1","ND","ND","ND","ND"],
    [21936,"12/27/2016 15:00","14,5","1,05","ND","ND","ND","ND"],
    [21937,"12/27/2016 16:00","45,4","0,58","ND","ND","ND","ND"],
    [21938,"12/27/2016 17:00","36,2","0,03","ND","ND","ND","ND"],
    [21939,"12/27/2016 18:00","20","0,08","ND","ND","ND","ND"],
    [21940,"12/27/2016 19:00","29,2","0,24","ND","ND","ND","ND"],
    [21941,"12/27/2016 20:00","43","0,34","ND","ND","ND","ND"],
    [21942,"12/27/2016 21:00","50,7","0,24","ND","ND","ND","ND"],
    [21943,"12/27/2016 22:00","44,7","0,05","ND","ND","ND","ND"],
    [21944,"12/27/2016 23:00","36,3","0,1","ND","ND","ND","ND"],
    [21945,"12/28/2016 00:00","45,3","0,08","ND","ND","ND","ND"],
    [21946,"12/28/2016 01:00","33,2","0,03","ND","ND","ND","ND"],
    [21947,"12/28/2016 02:00","29,3","0,03","ND","ND","ND","ND"],
    [21948,"12/28/2016 03:00","29,2","0","ND","ND","ND","ND"],
    [21949,"12/28/2016 04:00","28,3","0,03","ND","ND","ND","ND"],
    [21950,"12/28/2016 05:00","39,4","0,05","ND","ND","ND","ND"],
    [21951,"12/28/2016 06:00","46,1","0,16","ND","ND","ND","ND"],
    [21952,"12/28/2016 07:00","59,6","0,21","ND","ND","ND","ND"],
    [21953,"12/28/2016 08:00","65,9","0,26","ND","ND","ND","ND"],
    [21954,"12/28/2016 09:00","72,9","0,26","ND","ND","ND","ND"],
    [21955,"12/28/2016 10:00","66","0,39","ND","ND","ND","ND"],
    [21956,"12/28/2016 11:00","75,3","0,73","ND","ND","ND","ND"],
    [21957,"12/28/2016 12:00","59,9","0,34","ND","ND","ND","ND"],
    [21958,"12/28/2016 13:00","58,7","0,5","ND","ND","ND","ND"],
    [21959,"12/28/2016 14:00","61,7","0,89","ND","ND","ND","ND"],
    [21960,"12/28/2016 15:00","66,8","0,68","ND","ND","ND","ND"],
    [21961,"12/28/2016 16:00","32,6","0,31","ND","ND","ND","ND"],
    [21962,"12/28/2016 17:00","18,1","0,1","ND","ND","ND","ND"],
    [21963,"12/28/2016 18:00","20,5","0,03","ND","ND","ND","ND"],
    [21964,"12/28/2016 19:00","17,6","0,03","ND","ND","ND","ND"],
    [21965,"12/28/2016 20:00","11,9","0,03","ND","ND","ND","ND"],
    [21966,"12/28/2016 21:00","14,3","0,03","ND","ND","ND","ND"],
    [21967,"12/28/2016 22:00","20","0,05","ND","ND","ND","ND"],
    [21968,"12/28/2016 23:00","40,8","0,08","ND","ND","ND","ND"],
    [21969,"12/29/2016 00:00","48","0,1","ND","ND","ND","ND"],
    [21970,"12/29/2016 01:00","58,8","0,05","ND","ND","ND","ND"],
    [21971,"12/29/2016 02:00","39,2","0,08","ND","ND","ND","ND"],
    [21972,"12/29/2016 03:00","41,3","0,13","ND","ND","ND","ND"],
    [21973,"12/29/2016 04:00","44,3","0,05","ND","ND","ND","ND"],
    [21974,"12/29/2016 05:00","36,9","0,03","ND","ND","ND","ND"],
    [21975,"12/29/2016 06:00","37","0,05","ND","ND","ND","ND"],
    [21976,"12/29/2016 07:00","38,1","0,1","ND","ND","ND","ND"],
    [21977,"12/29/2016 08:00","42,4","0,05","ND","ND","ND","ND"],
    [21978,"12/29/2016 09:00","48,1","0,08","ND","ND","ND","ND"],
    [21979,"12/29/2016 10:00","31,3","0,03","ND","ND","ND","ND"],
    [21980,"12/29/2016 11:00","28,6","0,13","ND","ND","ND","ND"],
    [21981,"12/29/2016 12:00","48,5","0,21","ND","ND","ND","ND"],
    [21982,"12/29/2016 13:00","46,9","0,71","ND","ND","ND","ND"],
    [21983,"12/29/2016 14:00","49","0,52","ND","ND","ND","ND"],
    [21984,"12/29/2016 15:00","66","0,21","ND","ND","ND","ND"],
    [21985,"12/29/2016 16:00","26","0,08","ND","ND","ND","ND"],
    [21986,"12/29/2016 17:00","10,6","0,16","ND","ND","ND","ND"],
    [21987,"12/29/2016 18:00","13,1","0,08","ND","ND","ND","ND"],
    [21988,"12/29/2016 19:00","12,7","0,05","ND","ND","ND","ND"],
    [21989,"12/29/2016 20:00","20,7","0,18","ND","ND","ND","ND"],
    [21990,"12/29/2016 21:00","47,3","0,37","ND","ND","ND","ND"],
    [21991,"12/29/2016 22:00","60,4","0,18","ND","ND","ND","ND"],
    [21992,"12/29/2016 23:00","21,5","0,16","ND","ND","ND","ND"],
    [21993,"12/30/2016 00:00","10","0,1","ND","ND","ND","ND"],
    [21994,"12/30/2016 01:00","16,7","0,08","ND","ND","ND","ND"],
    [21995,"12/30/2016 02:00","21,5","0,21","ND","ND","ND","ND"],
    [21996,"12/30/2016 03:00","30","0,18","ND","ND","ND","ND"],
    [21997,"12/30/2016 04:00","30,2","0,03","ND","ND","ND","ND"],
    [21998,"12/30/2016 05:00","22,7","0,05","ND","ND","ND","ND"],
    [21999,"12/30/2016 06:00","29,4","0,03","ND","ND","ND","ND"],
    [22000,"12/30/2016 07:00","21,5","0,13","ND","ND","ND","ND"],
    [22001,"12/30/2016 08:00","50,7","0,24","ND","ND","ND","ND"],
    [22002,"12/30/2016 09:00","47,4","0,24","ND","ND","ND","ND"],
    [22003,"12/30/2016 10:00","36,5","0,21","ND","ND","ND","ND"],
    [22004,"12/30/2016 11:00","20,3","0,13","ND","ND","ND","ND"],
    [22005,"12/30/2016 12:00","20","0,1","ND","ND","ND","ND"],
    [22006,"12/30/2016 13:00","19,5","0,21","ND","ND","ND","ND"],
    [22007,"12/30/2016 14:00","30","0,18","ND","ND","ND","ND"],
    [22008,"12/30/2016 15:00","35,3","0,1","ND","ND","ND","ND"],
    [22009,"12/30/2016 16:00","34,2","0,03","ND","ND","ND","ND"],
    [22010,"12/30/2016 17:00","15,2","0","ND","ND","ND","ND"],
    [22011,"12/30/2016 18:00","15,4","0,03","ND","ND","ND","ND"],
    [22012,"12/30/2016 19:00","16,1","0,08","ND","ND","ND","ND"],
    [22013,"12/30/2016 20:00","33,9","0,05","ND","ND","ND","ND"],
    [22014,"12/30/2016 21:00","24,1","0,21","ND","ND","ND","ND"],
    [22015,"12/30/2016 22:00","29,2","0,34","ND","ND","ND","ND"],
    [22016,"12/30/2016 23:00","25,7","0,21","ND","ND","ND","ND"],
    [22017,"12/31/2016 00:00","41,3","0,1","ND","ND","ND","ND"],
    [22018,"12/31/2016 01:00","26,2","0,03","ND","ND","ND","ND"],
    [22019,"12/31/2016 02:00","22,9","0,03","ND","ND","ND","ND"],
    [22020,"12/31/2016 03:00","15,4","0,05","ND","ND","ND","ND"],
    [22021,"12/31/2016 04:00","13,7","0,03","ND","ND","ND","ND"],
    [22022,"12/31/2016 05:00","21,3","0,03","ND","ND","ND","ND"],
    [22023,"12/31/2016 06:00","19,7","0","ND","ND","ND","ND"],
    [22024,"12/31/2016 07:00","13,4","0,05","ND","ND","ND","ND"],
    [22025,"12/31/2016 08:00","34,4","0,05","ND","ND","ND","ND"],
    [22026,"12/31/2016 09:00","34,8","0,1","ND","ND","ND","ND"],
    [22027,"12/31/2016 10:00","44,3","0,39","ND","ND","ND","ND"],
    [22028,"12/31/2016 11:00","52,6","1,49","ND","ND","ND","ND"],
    [22029,"12/31/2016 12:00","45,8","0,73","ND","ND","ND","ND"],
    [22030,"12/31/2016 13:00","30,7","0,84","ND","ND","ND","ND"],
    [22031,"12/31/2016 14:00","38,4","0,45","ND","ND","ND","ND"],
    [22032,"12/31/2016 15:00","32,2","1,21","ND","ND","ND","ND"],
    [22033,"12/31/2016 16:00","35,2","1,49","ND","ND","ND","ND"],
    [22034,"12/31/2016 17:00","49,2","0,55","ND","ND","ND","ND"],
    [22035,"12/31/2016 18:00","39,8","0,31","ND","ND","ND","ND"],
    [22036,"12/31/2016 19:00","68,3","0,13","ND","ND","ND","ND"],
    [22037,"12/31/2016 20:00","82,2","0,16","ND","ND","ND","ND"],
    [22038,"12/31/2016 21:00","48,6","0,16","ND","ND","ND","ND"],
    [22039,"12/31/2016 22:00","46,5","0,18","ND","ND","ND","ND"],
    [22040,"12/31/2016 23:00","50,8","0,31","ND","ND","ND","ND"],
    [22041,"42736","65,2","0,16","ND","ND","ND","ND"],
    [22042,"42736,04167","51,7","0,3","ND","ND","ND","ND"],
    [22043,"42736,08333","169,4","0,4","ND","ND","ND","ND"],
    [22044,"42736,125","98,6","0,3","ND","ND","ND","ND"],
    [22045,"42736,16667","82,9","0,2","ND","ND","ND","ND"],
    [22046,"42736,20833","94,7","0,1","ND","ND","ND","ND"],
    [22047,"42736,25","81,1","0,1","ND","ND","ND","ND"],
    [22048,"42736,29167","69,5","0,1","ND","ND","ND","ND"],
    [22049,"42736,33333","40,1","0,1","ND","ND","ND","ND"],
    [22050,"42736,375","60,1","0,1","ND","ND","ND","ND"],
    [22051,"42736,41667","48","0,9","ND","ND","ND","ND"],
    [22052,"42736,45833","35,8","5,2","ND","ND","ND","ND"],
    [22053,"42736,5","48,9","3,3","ND","ND","ND","ND"],
    [22054,"42736,54167","45,4","1,3","ND","ND","ND","ND"],
    [22055,"42736,58333","31,1","0,4","ND","ND","ND","ND"],
    [22056,"42736,625","ND","0,1","ND","ND","ND","ND"],
    [22057,"42736,66667","ND","0,1","ND","ND","ND","ND"],
    [22058,"42736,70833","8,2","0,1","ND","ND","ND","ND"],
    [22059,"42736,75","8,1","0","ND","ND","ND","ND"],
    [22060,"42736,79167","8,5","0,1","ND","ND","ND","ND"],
    [22061,"42736,83333","14,4","0,1","ND","ND","ND","ND"],
    [22062,"42736,875","15,7","0,1","ND","ND","ND","ND"],
    [22063,"42736,91667","28,6","0,1","ND","ND","ND","ND"],
    [22064,"42736,95833","20,7","0,1","ND","ND","ND","ND"],
    [22065,"42767","20,4","0","ND","ND","ND","ND"],
    [22066,"42767,04167","16,5","0","ND","ND","ND","ND"],
    [22067,"42767,08333","8,9","0","ND","ND","ND","ND"],
    [22068,"42767,125","13,8","0","ND","ND","ND","ND"],
    [22069,"42767,16667","15,5","0","ND","ND","ND","ND"],
    [22070,"42767,20833","15","0","ND","ND","ND","ND"],
    [22071,"42767,25","15,3","0","ND","ND","ND","ND"],
    [22072,"42767,29167","19,6","0","ND","ND","ND","ND"],
    [22073,"42767,33333","26","0,3","ND","ND","ND","ND"],
    [22074,"42767,375","18,9","0","ND","ND","ND","ND"],
    [22075,"42767,41667","17,4","0,2","ND","ND","ND","ND"],
    [22076,"42767,45833","22,9","0,3","ND","ND","ND","ND"],
    [22077,"42767,5","22,8","0,4","ND","ND","ND","ND"],
    [22078,"42767,54167","26,7","0,3","ND","ND","ND","ND"],
    [22079,"42767,58333","33,1","0,3","ND","ND","ND","ND"],
    [22080,"42767,625","31","0,2","ND","ND","ND","ND"],
    [22081,"42767,66667","35,7","0,2","ND","ND","ND","ND"],
    [22082,"42767,70833","33","0,3","ND","ND","ND","ND"],
    [22083,"42767,75","24,3","0,1","ND","ND","ND","ND"],
    [22084,"42767,79167","20,1","0,1","ND","ND","ND","ND"],
    [22085,"42767,83333","13,4","0,1","ND","ND","ND","ND"],
    [22086,"42767,875","12,3","0,1","ND","ND","ND","ND"],
    [22087,"42767,91667","18","0,1","ND","ND","ND","ND"],
    [22088,"42767,95833","44,3","0","ND","ND","ND","ND"],
    [22089,"42795","40,9","0","ND","ND","ND","ND"],
    [22090,"42795,04167","39,5","0","ND","ND","ND","ND"],
    [22091,"42795,08333","29","0","ND","ND","ND","ND"],
    [22092,"42795,125","46,6","0","ND","ND","ND","ND"],
    [22093,"42795,16667","28,5","0","ND","ND","ND","ND"],
    [22094,"42795,20833","23,8","0","ND","ND","ND","ND"],
    [22095,"42795,25","34,6","0","ND","ND","ND","ND"],
    [22096,"42795,29167","37,3","0","ND","ND","ND","ND"],
    [22097,"42795,33333","44,8","0,1","ND","ND","ND","ND"],
    [22098,"42795,375","55,4","0,1","ND","ND","ND","ND"],
    [22099,"42795,41667","53,2","0,1","ND","ND","ND","ND"],
    [22100,"42795,45833","41","0,2","ND","ND","ND","ND"],
    [22101,"42795,5","27,1","0,3","ND","ND","ND","ND"],
    [22102,"42795,54167","29,3","0,2","ND","ND","ND","ND"],
    [22103,"42795,58333","34,9","0,4","ND","ND","ND","ND"],
    [22104,"42795,625","35,9","0,2","ND","ND","ND","ND"],
    [22105,"42795,66667","16,8","0,1","ND","ND","ND","ND"],
    [22106,"42795,70833","7,9","0","ND","ND","ND","ND"],
    [22107,"42795,75","18,9","0","ND","ND","ND","ND"],
    [22108,"42795,79167","13,7","0","ND","ND","ND","ND"],
    [22109,"42795,83333","18","0","ND","ND","ND","ND"],
    [22110,"42795,875","11,3","0","ND","ND","ND","ND"],
    [22111,"42795,91667","16,5","0","ND","ND","ND","ND"],
    [22112,"42795,95833","26","0,1","ND","ND","ND","ND"],
    [22113,"42826","42","0,1","ND","ND","ND","ND"],
    [22114,"42826,04167","32,3","0","ND","ND","ND","ND"],
    [22115,"42826,08333","34,3","0","ND","ND","ND","ND"],
    [22116,"42826,125","20,6","0","ND","ND","ND","ND"],
    [22117,"42826,16667","21,9","0","ND","ND","ND","ND"],
    [22118,"42826,20833","18,1","0","ND","ND","ND","ND"],
    [22119,"42826,25","19,7","0","ND","ND","ND","ND"],
    [22120,"42826,29167","21,7","0","ND","ND","ND","ND"],
    [22121,"42826,33333","22,7","0,1","ND","ND","ND","ND"],
    [22122,"42826,375","31,7","0,2","ND","ND","ND","ND"],
    [22123,"42826,41667","31,9","0,2","ND","ND","ND","ND"],
    [22124,"42826,45833","50,1","0,2","ND","ND","ND","ND"],
    [22125,"42826,5","49,7","0,3","ND","ND","ND","ND"],
    [22126,"42826,54167","44","0,4","ND","ND","ND","ND"],
    [22127,"42826,58333","20,7","0,2","ND","ND","ND","ND"],
    [22128,"42826,625","35,2","0,2","ND","ND","ND","ND"],
    [22129,"42826,66667","28,3","1,1","ND","ND","ND","ND"],
    [22130,"42826,70833","37,2","3,6","ND","ND","ND","ND"],
    [22131,"42826,75","33,6","1,3","ND","ND","ND","ND"],
    [22132,"42826,79167","31,8","0,8","ND","ND","ND","ND"],
    [22133,"42826,83333","59,2","1,2","ND","ND","ND","ND"],
    [22134,"42826,875","62,4","0,6","ND","ND","ND","ND"],
    [22135,"42826,91667","56","0,7","ND","ND","ND","ND"],
    [22136,"42826,95833","42,8","0,3","ND","ND","ND","ND"],
    [22137,"42856","39,5","0,1","ND","ND","ND","ND"],
    [22138,"42856,04167","32,7","0,1","ND","ND","ND","ND"],
    [22139,"42856,08333","29,4","0,1","ND","ND","ND","ND"],
    [22140,"42856,125","26,1","0,1","ND","ND","ND","ND"],
    [22141,"42856,16667","25,8","0","ND","ND","ND","ND"],
    [22142,"42856,20833","20,8","0,1","ND","ND","ND","ND"],
    [22143,"42856,25","34,7","0,1","ND","ND","ND","ND"],
    [22144,"42856,29167","45,1","0,1","ND","ND","ND","ND"],
    [22145,"42856,33333","36,4","0,1","ND","ND","ND","ND"],
    [22146,"42856,375","47,6","0,1","ND","ND","ND","ND"],
    [22147,"42856,41667","45,5","0,6","ND","ND","ND","ND"],
    [22148,"42856,45833","44,8","0,2","ND","ND","ND","ND"],
    [22149,"42856,5","24,3","0,1","ND","ND","ND","ND"],
    [22150,"42856,54167","17,9","0,1","ND","ND","ND","ND"],
    [22151,"42856,58333","21,3","2,5","ND","ND","ND","ND"],
    [22152,"42856,625","23,8","2,3","ND","ND","ND","ND"],
    [22153,"42856,66667","48,1","1,3","ND","ND","ND","ND"],
    [22154,"42856,70833","42,4","2,2","ND","ND","ND","ND"],
    [22155,"42856,75","46,1","1,6","ND","ND","ND","ND"],
    [22156,"42856,79167","49,9","3,9","ND","ND","ND","ND"],
    [22157,"42856,83333","161,5","1,6","ND","ND","ND","ND"],
    [22158,"42856,875","49,1","1,4","ND","ND","ND","ND"],
    [22159,"42856,91667","86,3","0,6","ND","ND","ND","ND"],
    [22160,"42856,95833","44","0,3","ND","ND","ND","ND"],
    [22161,"42887","28,2","0,1","ND","ND","ND","ND"],
    [22162,"42887,04167","25,7","0,2","ND","ND","ND","ND"],
    [22163,"42887,08333","32,6","0,1","ND","ND","ND","ND"],
    [22164,"42887,125","20,2","0,1","ND","ND","ND","ND"],
    [22165,"42887,16667","20","0,1","ND","ND","ND","ND"],
    [22166,"42887,20833","25,4","0,1","ND","ND","ND","ND"],
    [22167,"42887,25","27,2","0,1","ND","ND","ND","ND"],
    [22168,"42887,29167","44,5","0,1","ND","ND","ND","ND"],
    [22169,"42887,33333","43","0,3","ND","ND","ND","ND"],
    [22170,"42887,375","44,8","0,3","ND","ND","ND","ND"],
    [22171,"42887,41667","39,2","0,7","ND","ND","ND","ND"],
    [22172,"42887,45833","36,8","1","ND","ND","ND","ND"],
    [22173,"42887,5","78,6","0,4","ND","ND","ND","ND"],
    [22174,"42887,54167","48,2","0,4","ND","ND","ND","ND"],
    [22175,"42887,58333","57,1","0,9","ND","ND","ND","ND"],
    [22176,"42887,625","43,1","0,8","ND","ND","ND","ND"],
    [22177,"42887,66667","8,4","0,2","ND","ND","ND","ND"],
    [22178,"42887,70833","15,5","0,1","ND","ND","ND","ND"],
    [22179,"42887,75","14,2","0,1","ND","ND","ND","ND"],
    [22180,"42887,79167","15,3","0,1","ND","ND","ND","ND"],
    [22181,"42887,83333","20,9","0,1","ND","ND","ND","ND"],
    [22182,"42887,875","24,3","0,1","ND","ND","ND","ND"],
    [22183,"42887,91667","40,9","0,2","ND","ND","ND","ND"],
    [22184,"42887,95833","51,2","0,2","ND","ND","ND","ND"],
    [22185,"42917","55,8","0","ND","ND","ND","ND"],
    [22186,"42917,04167","46,3","0,1","ND","ND","ND","ND"],
    [22187,"42917,08333","31,3","0","ND","ND","ND","ND"],
    [22188,"42917,125","29,5","0","ND","ND","ND","ND"],
    [22189,"42917,16667","46,1","0","ND","ND","ND","ND"],
    [22190,"42917,20833","41,8","0","ND","ND","ND","ND"],
    [22191,"42917,25","36","0,1","ND","ND","ND","ND"],
    [22192,"42917,29167","37,7","0,1","ND","ND","ND","ND"],
    [22193,"42917,33333","44,6","0,1","ND","ND","ND","ND"],
    [22194,"42917,375","54,8","0,1","ND","ND","ND","ND"],
    [22195,"42917,41667","45,8","0,4","ND","ND","ND","ND"],
    [22196,"42917,45833","20,9","1,3","ND","ND","ND","ND"],
    [22197,"42917,5","30,1","1,6","ND","ND","ND","ND"],
    [22198,"42917,54167","44","0,8","ND","ND","ND","ND"],
    [22199,"42917,58333","51,1","1","ND","ND","ND","ND"],
    [22200,"42917,625","37,1","0,3","ND","ND","ND","ND"],
    [22201,"42917,66667","26,2","0","ND","ND","ND","ND"],
    [22202,"42917,70833","13,4","0","ND","ND","ND","ND"],
    [22203,"42917,75","17","0","ND","ND","ND","ND"],
    [22204,"42917,79167","18,6","0","ND","ND","ND","ND"],
    [22205,"42917,83333","12,6","0","ND","ND","ND","ND"],
    [22206,"42917,875","17,3","0","ND","ND","ND","ND"],
    [22207,"42917,91667","30,4","0,1","ND","ND","ND","ND"],
    [22208,"42917,95833","30,3","0,1","ND","ND","ND","ND"],
    [22209,"42948","40,4","0","ND","ND","ND","ND"],
    [22210,"42948,04167","17,2","0","ND","ND","ND","ND"],
    [22211,"42948,08333","8,6","0","ND","ND","ND","ND"],
    [22212,"42948,125","4","0","ND","ND","ND","ND"],
    [22213,"42948,16667","12,2","0","ND","ND","ND","ND"],
    [22214,"42948,20833","11,7","0","ND","ND","ND","ND"],
    [22215,"42948,25","14,2","0","ND","ND","ND","ND"],
    [22216,"42948,29167","11,6","0","ND","ND","ND","ND"],
    [22217,"42948,33333","12","0,1","ND","ND","ND","ND"],
    [22218,"42948,375","12","0","ND","ND","ND","ND"],
    [22219,"42948,41667","15,1","0","ND","ND","ND","ND"],
    [22220,"42948,45833","8,5","0","ND","ND","ND","ND"],
    [22221,"42948,5","14,7","0","ND","ND","ND","ND"],
    [22222,"42948,54167","16,9","0,1","ND","ND","ND","ND"],
    [22223,"42948,58333","22,6","0,1","ND","ND","ND","ND"],
    [22224,"42948,625","27,5","0,6","ND","ND","ND","ND"],
    [22225,"42948,66667","35,8","1","ND","ND","ND","ND"],
    [22226,"42948,70833","16,2","0,3","ND","ND","ND","ND"],
    [22227,"42948,75","35,6","0,3","ND","ND","ND","ND"],
    [22228,"42948,79167","51,4","0,2","ND","ND","ND","ND"],
    [22229,"42948,83333","43,7","0,2","ND","ND","ND","ND"],
    [22230,"42948,875","51,5","0,1","ND","ND","ND","ND"],
    [22231,"42948,91667","43,9","0,1","ND","ND","ND","ND"],
    [22232,"42948,95833","43,7","0,1","ND","ND","ND","ND"],
    [22233,"42979","33,5","0,1","ND","ND","ND","ND"],
    [22234,"42979,04167","28,7","0","ND","ND","ND","ND"],
    [22235,"42979,08333","34,8","0,1","ND","ND","ND","ND"],
    [22236,"42979,125","26,2","0","ND","ND","ND","ND"],
    [22237,"42979,16667","22,6","0","ND","ND","ND","ND"],
    [22238,"42979,20833","19,1","0","ND","ND","ND","ND"],
    [22239,"42979,25","21,6","0","ND","ND","ND","ND"],
    [22240,"42979,29167","21,4","0,1","ND","ND","ND","ND"],
    [22241,"42979,33333","45,8","0,1","ND","ND","ND","ND"],
    [22242,"42979,375","47","4,3","ND","ND","ND","ND"],
    [22243,"42979,41667","63,3","4","ND","ND","ND","ND"],
    [22244,"42979,45833","43,1","2","ND","ND","ND","ND"],
    [22245,"42979,5","27,5","1,2","ND","ND","ND","ND"],
    [22246,"42979,54167","27,7","1","ND","ND","ND","ND"],
    [22247,"42979,58333","34,7","0,6","ND","ND","ND","ND"],
    [22248,"42979,625","36,7","0,2","ND","ND","ND","ND"],
    [22249,"42979,66667","4,4","0","ND","ND","ND","ND"],
    [22250,"42979,70833","6","0","ND","ND","ND","ND"],
    [22251,"42979,75","10,9","0,1","ND","ND","ND","ND"],
    [22252,"42979,79167","18,7","0,1","ND","ND","ND","ND"],
    [22253,"42979,83333","44,8","0,1","ND","ND","ND","ND"],
    [22254,"42979,875","33,1","0","ND","ND","ND","ND"],
    [22255,"42979,91667","27,9","0","ND","ND","ND","ND"],
    [22256,"42979,95833","21,9","0","ND","ND","ND","ND"],
    [22257,"43009","18,6","0","ND","ND","ND","ND"],
    [22258,"43009,04167","12,9","0","ND","ND","ND","ND"],
    [22259,"43009,08333","14,6","0","ND","ND","ND","ND"],
    [22260,"43009,125","16,5","0","ND","ND","ND","ND"],
    [22261,"43009,16667","15,1","0","ND","ND","ND","ND"],
    [22262,"43009,20833","7,1","0","ND","ND","ND","ND"],
    [22263,"43009,25","21,3","0,1","ND","ND","ND","ND"],
    [22264,"43009,29167","22,1","0,1","ND","ND","ND","ND"],
    [22265,"43009,33333","28,9","0,2","ND","ND","ND","ND"],
    [22266,"43009,375","44,8","0,1","ND","ND","ND","ND"],
    [22267,"43009,41667","35,7","0,1","ND","ND","ND","ND"],
    [22268,"43009,45833","29,5","0,1","ND","ND","ND","ND"],
    [22269,"43009,5","15,1","0,1","ND","ND","ND","ND"],
    [22270,"43009,54167","22,5","0,1","ND","ND","ND","ND"],
    [22271,"43009,58333","26,5","0,1","ND","ND","ND","ND"],
    [22272,"43009,625","28","0","ND","ND","ND","ND"],
    [22273,"43009,66667","15,9","0,1","ND","ND","ND","ND"],
    [22274,"43009,70833","38,8","0","ND","ND","ND","ND"],
    [22275,"43009,75","23,1","0","ND","ND","ND","ND"],
    [22276,"43009,79167","13,3","0","ND","ND","ND","ND"],
    [22277,"43009,83333","13,8","0,1","ND","ND","ND","ND"],
    [22278,"43009,875","36,7","0,1","ND","ND","ND","ND"],
    [22279,"43009,91667","31,7","0,1","ND","ND","ND","ND"],
    [22280,"43009,95833","54,9","0","ND","ND","ND","ND"],
    [22281,"43040","34,3","0","ND","ND","ND","ND"],
    [22282,"43040,04167","32","0","ND","ND","ND","ND"],
    [22283,"43040,08333","19,5","0","ND","ND","ND","ND"],
    [22284,"43040,125","26,7","0","ND","ND","ND","ND"],
    [22285,"43040,16667","25","0","ND","ND","ND","ND"],
    [22286,"43040,20833","24,5","0","ND","ND","ND","ND"],
    [22287,"43040,25","18,5","0","ND","ND","ND","ND"],
    [22288,"43040,29167","28,8","0","ND","ND","ND","ND"],
    [22289,"43040,33333","26","0,1","ND","ND","ND","ND"],
    [22290,"43040,375","23,1","0,1","ND","ND","ND","ND"],
    [22291,"43040,41667","10,4","0,1","ND","ND","ND","ND"],
    [22292,"43040,45833","16,4","0,2","ND","ND","ND","ND"],
    [22293,"43040,5","27,8","0,2","ND","ND","ND","ND"],
    [22294,"43040,54167","22,4","0,1","ND","ND","ND","ND"],
    [22295,"43040,58333","8,2","0,1","ND","ND","ND","ND"],
    [22296,"43040,625","19,3","0,1","ND","ND","ND","ND"],
    [22297,"43040,66667","37,3","0","ND","ND","ND","ND"],
    [22298,"43040,70833","32,6","0","ND","ND","ND","ND"],
    [22299,"43040,75","9,8","0,1","ND","ND","ND","ND"],
    [22300,"43040,79167","13","0,3","ND","ND","ND","ND"],
    [22301,"43040,83333","49,9","0,5","ND","ND","ND","ND"],
    [22302,"43040,875","54,1","0,6","ND","ND","ND","ND"],
    [22303,"43040,91667","38,3","0,2","ND","ND","ND","ND"],
    [22304,"43040,95833","21,2","0,1","ND","ND","ND","ND"],
    [22305,"43070","22,8","0,1","ND","ND","ND","ND"],
    [22306,"43070,04167","24,8","0","ND","ND","ND","ND"],
    [22307,"43070,08333","10,9","0","ND","ND","ND","ND"],
    [22308,"43070,125","4,7","0","ND","ND","ND","ND"],
    [22309,"43070,16667","7,5","0","ND","ND","ND","ND"],
    [22310,"43070,20833","10,5","0","ND","ND","ND","ND"],
    [22311,"43070,25","17,5","0","ND","ND","ND","ND"],
    [22312,"43070,29167","9,4","0","ND","ND","ND","ND"],
    [22313,"43070,33333","29,2","0,1","ND","ND","ND","ND"],
    [22314,"43070,375","29,8","0,1","ND","ND","ND","ND"],
    [22315,"43070,41667","40,7","0,2","ND","ND","ND","ND"],
    [22316,"43070,45833","54,2","0,2","ND","ND","ND","ND"],
    [22317,"43070,5","39,6","0,2","ND","ND","ND","ND"],
    [22318,"43070,54167","34","0,1","ND","ND","ND","ND"],
    [22319,"43070,58333","23,1","0,2","ND","ND","ND","ND"],
    [22320,"43070,625","20,9","0,1","ND","ND","ND","ND"],
    [22321,"43070,66667","28,9","0,1","ND","ND","ND","ND"],
    [22322,"43070,70833","32,3","0,1","ND","ND","ND","ND"],
    [22323,"43070,75","30,5","0","ND","ND","ND","ND"],
    [22324,"43070,79167","8,1","0","ND","ND","ND","ND"],
    [22325,"43070,83333","11,7","0","ND","ND","ND","ND"],
    [22326,"43070,875","7,6","0","ND","ND","ND","ND"],
    [22327,"43070,91667","10,4","0","ND","ND","ND","ND"],
    [22328,"43070,95833","30,5","0,1","ND","ND","ND","ND"],
    [22329,"01/13/2017 00:00","41,4","0","ND","ND","ND","ND"],
    [22330,"01/13/2017 01:00","33,4","0","ND","ND","ND","ND"],
    [22331,"01/13/2017 02:00","31,4","0","ND","ND","ND","ND"],
    [22332,"01/13/2017 03:00","22,7","0,1","ND","ND","ND","ND"],
    [22333,"01/13/2017 04:00","28,6","0,1","ND","ND","ND","ND"],
    [22334,"01/13/2017 05:00","25,1","0","ND","ND","ND","ND"],
    [22335,"01/13/2017 06:00","9,8","0,1","ND","ND","ND","ND"],
    [22336,"01/13/2017 07:00","42,8","0,3","ND","ND","ND","ND"],
    [22337,"01/13/2017 08:00","54,3","0,3","ND","ND","ND","ND"],
    [22338,"01/13/2017 09:00","53,5","0,4","ND","ND","ND","ND"],
    [22339,"01/13/2017 10:00","47,3","0,5","ND","ND","ND","ND"],
    [22340,"01/13/2017 11:00","44,2","0,4","ND","ND","ND","ND"],
    [22341,"01/13/2017 12:00","44,1","0,5","ND","ND","ND","ND"],
    [22342,"01/13/2017 13:00","39,3","0,4","ND","ND","ND","ND"],
    [22343,"01/13/2017 14:00","46,7","0,2","ND","ND","ND","ND"],
    [22344,"01/13/2017 15:00","28,4","0,1","ND","ND","ND","ND"],
    [22345,"01/13/2017 16:00","4,8","0,1","ND","ND","ND","ND"],
    [22346,"01/13/2017 17:00","10,4","0","ND","ND","ND","ND"],
    [22347,"01/13/2017 18:00","10,3","0","ND","ND","ND","ND"],
    [22348,"01/13/2017 19:00","11,7","0","ND","ND","ND","ND"],
    [22349,"01/13/2017 20:00","11,4","0","ND","ND","ND","ND"],
    [22350,"01/13/2017 21:00","10,9","0","ND","ND","ND","ND"],
    [22351,"01/13/2017 22:00","12,7","0,2","ND","ND","ND","ND"],
    [22352,"01/13/2017 23:00","55,5","0,1","ND","ND","ND","ND"],
    [22353,"01/14/2017 00:00","43,2","0,1","ND","ND","ND","ND"],
    [22354,"01/14/2017 01:00","31,2","0","ND","ND","ND","ND"],
    [22355,"01/14/2017 02:00","31,2","0","ND","ND","ND","ND"],
    [22356,"01/14/2017 03:00","23,4","0","ND","ND","ND","ND"],
    [22357,"01/14/2017 04:00","25","0","ND","ND","ND","ND"],
    [22358,"01/14/2017 05:00","26,3","0,6","ND","ND","ND","ND"],
    [22359,"01/14/2017 06:00","44,2","0,1","ND","ND","ND","ND"],
    [22360,"01/14/2017 07:00","27,3","0,2","ND","ND","ND","ND"],
    [22361,"01/14/2017 08:00","32,7","0,2","ND","ND","ND","ND"],
    [22362,"01/14/2017 09:00","46,3","0,2","ND","ND","ND","ND"],
    [22363,"01/14/2017 10:00","53,5","0,4","ND","ND","ND","ND"],
    [22364,"01/14/2017 11:00","63,8","0,3","ND","ND","ND","ND"],
    [22365,"01/14/2017 12:00","46,8","0,2","ND","ND","ND","ND"],
    [22366,"01/14/2017 13:00","30,3","0,2","ND","ND","ND","ND"],
    [22367,"01/14/2017 14:00","24","0,1","ND","ND","ND","ND"],
    [22368,"01/14/2017 15:00","3","0,1","ND","ND","ND","ND"],
    [22369,"01/14/2017 16:00","15","0,1","ND","ND","ND","ND"],
    [22370,"01/14/2017 17:00","21,4","0,1","ND","ND","ND","ND"],
    [22371,"01/14/2017 18:00","20,3","0,1","ND","ND","ND","ND"],
    [22372,"01/14/2017 19:00","5,6","0","ND","ND","ND","ND"],
    [22373,"01/14/2017 20:00","8,5","0","ND","ND","ND","ND"],
    [22374,"01/14/2017 21:00","14,2","0","ND","ND","ND","ND"],
    [22375,"01/14/2017 22:00","22,1","0,1","ND","ND","ND","ND"],
    [22376,"01/14/2017 23:00","21","0,1","ND","ND","ND","ND"],
    [22377,"01/15/2017 00:00","28,3","0","ND","ND","ND","ND"],
    [22378,"01/15/2017 01:00","13,1","0,1","ND","ND","ND","ND"],
    [22379,"01/15/2017 02:00","36,6","0","ND","ND","ND","ND"],
    [22380,"01/15/2017 03:00","26","0","ND","ND","ND","ND"],
    [22381,"01/15/2017 04:00","25,1","0","ND","ND","ND","ND"],
    [22382,"01/15/2017 05:00","21,2","0","ND","ND","ND","ND"],
    [22383,"01/15/2017 06:00","22,8","0","ND","ND","ND","ND"],
    [22384,"01/15/2017 07:00","28,7","0","ND","ND","ND","ND"],
    [22385,"01/15/2017 08:00","29,5","0","ND","ND","ND","ND"],
    [22386,"01/15/2017 09:00","26,8","0,3","ND","ND","ND","ND"],
    [22387,"01/15/2017 10:00","40,3","1,1","ND","ND","ND","ND"],
    [22388,"01/15/2017 11:00","19,3","2,8","ND","ND","ND","ND"],
    [22389,"01/15/2017 12:00","18,5","1,4","ND","ND","ND","ND"],
    [22390,"01/15/2017 13:00","16,4","0,8","ND","ND","ND","ND"],
    [22391,"01/15/2017 14:00","19,3","0,5","ND","ND","ND","ND"],
    [22392,"01/15/2017 15:00","19,6","0,3","ND","ND","ND","ND"],
    [22393,"01/15/2017 16:00","19,2","0,1","ND","ND","ND","ND"],
    [22394,"01/15/2017 17:00","10,8","0","ND","ND","ND","ND"],
    [22395,"01/15/2017 18:00","22,8","0","ND","ND","ND","ND"],
    [22396,"01/15/2017 19:00","19,4","0","ND","ND","ND","ND"],
    [22397,"01/15/2017 20:00","17,1","0","ND","ND","ND","ND"],
    [22398,"01/15/2017 21:00","3,9","0","ND","ND","ND","ND"],
    [22399,"01/15/2017 22:00","10","0","ND","ND","ND","ND"],
    [22400,"01/15/2017 23:00","29,6","0","ND","ND","ND","ND"],
    [22401,"01/16/2017 00:00","27,4","0","ND","ND","ND","ND"],
    [22402,"01/16/2017 01:00","8,8","0","ND","ND","ND","ND"],
    [22403,"01/16/2017 02:00","14,1","0","ND","ND","ND","ND"],
    [22404,"01/16/2017 03:00","33,6","0","ND","ND","ND","ND"],
    [22405,"01/16/2017 04:00","25,2","0","ND","ND","ND","ND"],
    [22406,"01/16/2017 05:00","20","0","ND","ND","ND","ND"],
    [22407,"01/16/2017 06:00","19,3","0,1","ND","ND","ND","ND"],
    [22408,"01/16/2017 07:00","36,6","0,2","ND","ND","ND","ND"],
    [22409,"01/16/2017 08:00","45,6","0,5","ND","ND","ND","ND"],
    [22410,"01/16/2017 09:00","33,9","0,2","ND","ND","ND","ND"],
    [22411,"01/16/2017 10:00","14,7","0,1","ND","ND","ND","ND"],
    [22412,"01/16/2017 11:00","4,3","0,6","ND","ND","ND","ND"],
    [22413,"01/16/2017 12:00","12","1,1","ND","ND","ND","ND"],
    [22414,"01/16/2017 13:00","22","0,8","ND","ND","ND","ND"],
    [22415,"01/16/2017 14:00","14,3","0,2","ND","ND","ND","ND"],
    [22416,"01/16/2017 15:00","26,1","0,1","ND","ND","ND","ND"],
    [22417,"01/16/2017 16:00","11,7","0","ND","ND","ND","ND"],
    [22418,"01/16/2017 17:00","9","0","ND","ND","ND","ND"],
    [22419,"01/16/2017 18:00","9,1","0","ND","ND","ND","ND"],
    [22420,"01/16/2017 19:00","11,8","0","ND","ND","ND","ND"],
    [22421,"01/16/2017 20:00","14,2","0","ND","ND","ND","ND"],
    [22422,"01/16/2017 21:00","9,2","0","ND","ND","ND","ND"],
    [22423,"01/16/2017 22:00","11,9","0,1","ND","ND","ND","ND"],
    [22424,"01/16/2017 23:00","37","0,1","ND","ND","ND","ND"],
    [22425,"01/17/2017 00:00","36,6","0","ND","ND","ND","ND"],
    [22426,"01/17/2017 01:00","19,8","0","ND","ND","ND","ND"],
    [22427,"01/17/2017 02:00","17,8","0","ND","ND","ND","ND"],
    [22428,"01/17/2017 03:00","18,1","0,2","ND","ND","ND","ND"],
    [22429,"01/17/2017 04:00","18,8","0","ND","ND","ND","ND"],
    [22430,"01/17/2017 05:00","17,9","0","ND","ND","ND","ND"],
    [22431,"01/17/2017 06:00","24,7","0,1","ND","ND","ND","ND"],
    [22432,"01/17/2017 07:00","42,3","0,2","ND","ND","ND","ND"],
    [22433,"01/17/2017 08:00","57,8","0,4","ND","ND","ND","ND"],
    [22434,"01/17/2017 09:00","57,3","0,8","ND","ND","ND","ND"],
    [22435,"01/17/2017 10:00","54,7","1,9","ND","ND","ND","ND"],
    [22436,"01/17/2017 11:00","37,9","1,8","ND","ND","ND","ND"],
    [22437,"01/17/2017 12:00","22,6","0,6","ND","ND","ND","ND"],
    [22438,"01/17/2017 13:00","15,2","0,5","ND","ND","ND","ND"],
    [22439,"01/17/2017 14:00","20,5","0,2","ND","ND","ND","ND"],
    [22440,"01/17/2017 15:00","6,3","0","ND","ND","ND","ND"],
    [22441,"01/17/2017 16:00","5,9","0","ND","ND","ND","ND"],
    [22442,"01/17/2017 17:00","9,9","0","ND","ND","ND","ND"],
    [22443,"01/17/2017 18:00","12,9","0","ND","ND","ND","ND"],
    [22444,"01/17/2017 19:00","11,7","0","ND","ND","ND","ND"],
    [22445,"01/17/2017 20:00","14,1","0","ND","ND","ND","ND"],
    [22446,"01/17/2017 21:00","9,5","0","ND","ND","ND","ND"],
    [22447,"01/17/2017 22:00","6,6","0","ND","ND","ND","ND"],
    [22448,"01/17/2017 23:00","41,4","0,2","ND","ND","ND","ND"],
    [22449,"01/18/2017 00:00","34,9","0","ND","ND","ND","ND"],
    [22450,"01/18/2017 01:00","24,3","0,1","ND","ND","ND","ND"],
    [22451,"01/18/2017 02:00","23,5","0,3","ND","ND","ND","ND"],
    [22452,"01/18/2017 03:00","13,9","0,2","ND","ND","ND","ND"],
    [22453,"01/18/2017 04:00","13,1","0","ND","ND","ND","ND"],
    [22454,"01/18/2017 05:00","10","0,1","ND","ND","ND","ND"],
    [22455,"01/18/2017 06:00","17","0,1","ND","ND","ND","ND"],
    [22456,"01/18/2017 07:00","8","0,1","ND","ND","ND","ND"],
    [22457,"01/18/2017 08:00","15,4","0,2","ND","ND","ND","ND"],
    [22458,"01/18/2017 09:00","11,8","0,2","ND","ND","ND","ND"],
    [22459,"01/18/2017 10:00","11,5","0,1","ND","ND","ND","ND"],
    [22460,"01/18/2017 11:00","8,5","0,1","ND","ND","ND","ND"],
    [22461,"01/18/2017 12:00","10,6","0,2","ND","ND","ND","ND"],
    [22462,"01/18/2017 13:00","7,3","0,1","ND","ND","ND","ND"],
    [22463,"01/18/2017 14:00","9,2","0,1","ND","ND","ND","ND"],
    [22464,"01/18/2017 15:00","18,2","0","ND","ND","ND","ND"],
    [22465,"01/18/2017 16:00","12,7","0","ND","ND","ND","ND"],
    [22466,"01/18/2017 17:00","7,3","0,1","ND","ND","ND","ND"],
    [22467,"01/18/2017 18:00","16","0","ND","ND","ND","ND"],
    [22468,"01/18/2017 19:00","34,7","0,1","ND","ND","ND","ND"],
    [22469,"01/18/2017 20:00","51,4","0,1","ND","ND","ND","ND"],
    [22470,"01/18/2017 21:00","42,7","0,1","ND","ND","ND","ND"],
    [22471,"01/18/2017 22:00","35","0","ND","ND","ND","ND"],
    [22472,"01/18/2017 23:00","29,1","0,1","ND","ND","ND","ND"],
    [22473,"01/19/2017 00:00","27,3","0,1","ND","ND","ND","ND"],
    [22474,"01/19/2017 01:00","29,6","0","ND","ND","ND","ND"],
    [22475,"01/19/2017 02:00","18,6","0","ND","ND","ND","ND"],
    [22476,"01/19/2017 03:00","21,1","0","ND","ND","ND","ND"],
    [22477,"01/19/2017 04:00","21,4","0","ND","ND","ND","ND"],
    [22478,"01/19/2017 05:00","19,2","0","ND","ND","ND","ND"],
    [22479,"01/19/2017 06:00","17,2","0","ND","ND","ND","ND"],
    [22480,"01/19/2017 07:00","38,3","0,2","ND","ND","ND","ND"],
    [22481,"01/19/2017 08:00","57,5","0,4","ND","ND","ND","ND"],
    [22482,"01/19/2017 09:00","78,8","0,4","ND","ND","ND","ND"],
    [22483,"01/19/2017 10:00","69,6","0,5","ND","ND","ND","ND"],
    [22484,"01/19/2017 11:00","58,8","1,2","ND","ND","ND","ND"],
    [22485,"01/19/2017 12:00","37","1,2","ND","ND","ND","ND"],
    [22486,"01/19/2017 13:00","29,3","0,6","ND","ND","ND","ND"],
    [22487,"01/19/2017 14:00","34,5","0,7","ND","ND","ND","ND"],
    [22488,"01/19/2017 15:00","36,5","0,2","ND","ND","ND","ND"],
    [22489,"01/19/2017 16:00","32,3","0,1","ND","ND","ND","ND"],
    [22490,"01/19/2017 17:00","9,5","0,1","ND","ND","ND","ND"],
    [22491,"01/19/2017 18:00","10,6","0,1","ND","ND","ND","ND"],
    [22492,"01/19/2017 19:00","18,7","0,1","ND","ND","ND","ND"],
    [22493,"01/19/2017 20:00","34,2","0,2","ND","ND","ND","ND"],
    [22494,"01/19/2017 21:00","30,7","0,2","ND","ND","ND","ND"],
    [22495,"01/19/2017 22:00","28,8","0,2","ND","ND","ND","ND"],
    [22496,"01/19/2017 23:00","43,5","0","ND","ND","ND","ND"],
    [22497,"01/20/2017 00:00","19,4","0,1","ND","ND","ND","ND"],
    [22498,"01/20/2017 01:00","26,2","0","ND","ND","ND","ND"],
    [22499,"01/20/2017 02:00","17,3","0","ND","ND","ND","ND"],
    [22500,"01/20/2017 03:00","15,9","0","ND","ND","ND","ND"],
    [22501,"01/20/2017 04:00","10,1","0","ND","ND","ND","ND"],
    [22502,"01/20/2017 05:00","5,4","0","ND","ND","ND","ND"],
    [22503,"01/20/2017 06:00","19,5","0,1","ND","ND","ND","ND"],
    [22504,"01/20/2017 07:00","30,7","0,1","ND","ND","ND","ND"],
    [22505,"01/20/2017 08:00","52,2","0,2","ND","ND","ND","ND"],
    [22506,"01/20/2017 09:00","54,8","0,2","ND","ND","ND","ND"],
    [22507,"01/20/2017 10:00","33,9","0,1","ND","ND","ND","ND"],
    [22508,"01/20/2017 11:00","31,5","0,1","ND","ND","ND","ND"],
    [22509,"01/20/2017 12:00","29,6","0,1","ND","ND","ND","ND"],
    [22510,"01/20/2017 13:00","29","0,2","ND","ND","ND","ND"],
    [22511,"01/20/2017 14:00","24,1","0,3","ND","ND","ND","ND"],
    [22512,"01/20/2017 15:00","32,9","0,3","ND","ND","ND","ND"],
    [22513,"01/20/2017 16:00","56,3","0,1","ND","ND","ND","ND"],
    [22514,"01/20/2017 17:00","ND","0","ND","ND","ND","ND"],
    [22515,"01/20/2017 18:00","11","0","ND","ND","ND","ND"],
    [22516,"01/20/2017 19:00","8,6","0","ND","ND","ND","ND"],
    [22517,"01/20/2017 20:00","8,9","0,1","ND","ND","ND","ND"],
    [22518,"01/20/2017 21:00","37,6","0,1","ND","ND","ND","ND"],
    [22519,"01/20/2017 22:00","28,3","0,4","ND","ND","ND","ND"],
    [22520,"01/20/2017 23:00","26","0,2","ND","ND","ND","ND"],
    [22521,"01/21/2017 00:00","15,9","0,2","ND","ND","ND","ND"],
    [22522,"01/21/2017 01:00","17,1","0,1","ND","ND","ND","ND"],
    [22523,"01/21/2017 02:00","2","0,1","ND","ND","ND","ND"],
    [22524,"01/21/2017 03:00","13,2","0,1","ND","ND","ND","ND"],
    [22525,"01/21/2017 04:00","13,3","0,1","ND","ND","ND","ND"],
    [22526,"01/21/2017 05:00","10,3","0,1","ND","ND","ND","ND"],
    [22527,"01/21/2017 06:00","12,9","0,2","ND","ND","ND","ND"],
    [22528,"01/21/2017 07:00","8,5","0,4","ND","ND","ND","ND"],
    [22529,"01/21/2017 08:00","7,8","1,3","ND","ND","ND","ND"],
    [22530,"01/21/2017 09:00","15,6","1,1","ND","ND","ND","ND"],
    [22531,"01/21/2017 10:00","13,2","1,4","ND","ND","ND","ND"],
    [22532,"01/21/2017 11:00","19,3","0,9","ND","ND","ND","ND"],
    [22533,"01/21/2017 12:00","8,9","0,4","ND","ND","ND","ND"],
    [22534,"01/21/2017 13:00","8","0,3","ND","ND","ND","ND"],
    [22535,"01/21/2017 14:00","13,8","0,3","ND","ND","ND","ND"],
    [22536,"01/21/2017 15:00","15","0,2","ND","ND","ND","ND"],
    [22537,"01/21/2017 16:00","24,3","0,6","ND","ND","ND","ND"],
    [22538,"01/21/2017 17:00","38,2","0,4","ND","ND","ND","ND"],
    [22539,"01/21/2017 18:00","26,3","0,4","ND","ND","ND","ND"],
    [22540,"01/21/2017 19:00","34,2","0,2","ND","ND","ND","ND"],
    [22541,"01/21/2017 20:00","50,6","0,1","ND","ND","ND","ND"],
    [22542,"01/21/2017 21:00","34,6","0,1","ND","ND","ND","ND"],
    [22543,"01/21/2017 22:00","25,1","0,1","ND","ND","ND","ND"],
    [22544,"01/21/2017 23:00","24","0,1","ND","ND","ND","ND"],
    [22545,"01/22/2017 00:00","44,1","0,1","ND","ND","ND","ND"],
    [22546,"01/22/2017 01:00","34,1","0","ND","ND","ND","ND"],
    [22547,"01/22/2017 02:00","16,7","0","ND","ND","ND","ND"],
    [22548,"01/22/2017 03:00","16,8","0","ND","ND","ND","ND"],
    [22549,"01/22/2017 04:00","20,7","0,1","ND","ND","ND","ND"],
    [22550,"01/22/2017 05:00","28,5","0","ND","ND","ND","ND"],
    [22551,"01/22/2017 06:00","18,9","0","ND","ND","ND","ND"],
    [22552,"01/22/2017 07:00","21,8","0","ND","ND","ND","ND"],
    [22553,"01/22/2017 08:00","31,1","0,1","ND","ND","ND","ND"],
    [22554,"01/22/2017 09:00","33,7","0,1","ND","ND","ND","ND"],
    [22555,"01/22/2017 10:00","31,8","0,1","ND","ND","ND","ND"],
    [22556,"01/22/2017 11:00","34,9","0,1","ND","ND","ND","ND"],
    [22557,"01/22/2017 12:00","14,2","0,1","ND","ND","ND","ND"],
    [22558,"01/22/2017 13:00","14,8","0,1","ND","ND","ND","ND"],
    [22559,"01/22/2017 14:00","22,2","0","ND","ND","ND","ND"],
    [22560,"01/22/2017 15:00","5,7","0,1","ND","ND","ND","ND"],
    [22561,"01/22/2017 16:00","16,2","0,3","ND","ND","ND","ND"],
    [22562,"01/22/2017 17:00","19,5","0,4","ND","ND","ND","ND"],
    [22563,"01/22/2017 18:00","37,2","0,7","ND","ND","ND","ND"],
    [22564,"01/22/2017 19:00","45,3","0,5","ND","ND","ND","ND"],
    [22565,"01/22/2017 20:00","29,9","0,1","ND","ND","ND","ND"],
    [22566,"01/22/2017 21:00","16,8","0,1","ND","ND","ND","ND"],
    [22567,"01/22/2017 22:00","4,1","0,1","ND","ND","ND","ND"],
    [22568,"01/22/2017 23:00","22","0,1","ND","ND","ND","ND"],
    [22569,"01/23/2017 00:00","24","0,1","ND","ND","ND","ND"],
    [22570,"01/23/2017 01:00","16,9","0,1","ND","ND","ND","ND"],
    [22571,"01/23/2017 02:00","16,1","0","ND","ND","ND","ND"],
    [22572,"01/23/2017 03:00","15,1","0","ND","ND","ND","ND"],
    [22573,"01/23/2017 04:00","16,4","0","ND","ND","ND","ND"],
    [22574,"01/23/2017 05:00","26,8","0,1","ND","ND","ND","ND"],
    [22575,"01/23/2017 06:00","31,2","0","ND","ND","ND","ND"],
    [22576,"01/23/2017 07:00","46,8","0,1","ND","ND","ND","ND"],
    [22577,"01/23/2017 08:00","51,5","0,3","ND","ND","ND","ND"],
    [22578,"01/23/2017 09:00","71,1","0,7","ND","ND","ND","ND"],
    [22579,"01/23/2017 10:00","41,3","0,9","ND","ND","ND","ND"],
    [22580,"01/23/2017 11:00","38,8","1,2","ND","ND","ND","ND"],
    [22581,"01/23/2017 12:00","31,8","1","ND","ND","ND","ND"],
    [22582,"01/23/2017 13:00","32,7","0,9","ND","ND","ND","ND"],
    [22583,"01/23/2017 14:00","35,8","1,6","ND","ND","ND","ND"],
    [22584,"01/23/2017 15:00","39,9","1,7","ND","ND","ND","ND"],
    [22585,"01/23/2017 16:00","54,1","0,1","ND","ND","ND","ND"],
    [22586,"01/23/2017 17:00","38","0","ND","ND","ND","ND"],
    [22587,"01/23/2017 18:00","24,6","0","ND","ND","ND","ND"],
    [22588,"01/23/2017 19:00","46,5","0","ND","ND","ND","ND"],
    [22589,"01/23/2017 20:00","26,7","0","ND","ND","ND","ND"],
    [22590,"01/23/2017 21:00","12","0","ND","ND","ND","ND"],
    [22591,"01/23/2017 22:00","19,8","0,1","ND","ND","ND","ND"],
    [22592,"01/23/2017 23:00","32","0,1","ND","ND","ND","ND"],
    [22593,"01/24/2017 00:00","35,7","0","ND","ND","ND","ND"],
    [22594,"01/24/2017 01:00","30,8","0","ND","ND","ND","ND"],
    [22595,"01/24/2017 02:00","22,4","0","ND","ND","ND","ND"],
    [22596,"01/24/2017 03:00","24,2","0","ND","ND","ND","ND"],
    [22597,"01/24/2017 04:00","22,8","0","ND","ND","ND","ND"],
    [22598,"01/24/2017 05:00","20","0","ND","ND","ND","ND"],
    [22599,"01/24/2017 06:00","31,5","0","ND","ND","ND","ND"],
    [22600,"01/24/2017 07:00","45,6","0,1","ND","ND","ND","ND"],
    [22601,"01/24/2017 08:00","51,5","0,4","ND","ND","ND","ND"],
    [22602,"01/24/2017 09:00","55,5","0,7","ND","ND","ND","ND"],
    [22603,"01/24/2017 10:00","54,6","2,3","ND","ND","ND","ND"],
    [22604,"01/24/2017 11:00","53,3","1,7","ND","ND","ND","ND"],
    [22605,"01/24/2017 12:00","48,5","2,3","ND","ND","ND","ND"],
    [22606,"01/24/2017 13:00","38,5","1,5","ND","ND","ND","ND"],
    [22607,"01/24/2017 14:00","43,4","1,3","ND","ND","ND","ND"],
    [22608,"01/24/2017 15:00","44,9","0,3","ND","ND","ND","ND"],
    [22609,"01/24/2017 16:00","26,5","0","ND","ND","ND","ND"],
    [22610,"01/24/2017 17:00","15,3","0","ND","ND","ND","ND"],
    [22611,"01/24/2017 18:00","23,3","0","ND","ND","ND","ND"],
    [22612,"01/24/2017 19:00","25,1","0","ND","ND","ND","ND"],
    [22613,"01/24/2017 20:00","24,4","0","ND","ND","ND","ND"],
    [22614,"01/24/2017 21:00","17,2","0","ND","ND","ND","ND"],
    [22615,"01/24/2017 22:00","16,6","0,1","ND","ND","ND","ND"],
    [22616,"01/24/2017 23:00","31,8","0","ND","ND","ND","ND"],
    [22617,"01/25/2017 00:00","39,4","0","ND","ND","ND","ND"],
    [22618,"01/25/2017 01:00","36,5","0","ND","ND","ND","ND"],
    [22619,"01/25/2017 02:00","25,3","0,1","ND","ND","ND","ND"],
    [22620,"01/25/2017 03:00","36,8","0","ND","ND","ND","ND"],
    [22621,"01/25/2017 04:00","26,7","0,1","ND","ND","ND","ND"],
    [22622,"01/25/2017 05:00","27,2","0,1","ND","ND","ND","ND"],
    [22623,"01/25/2017 06:00","27,1","0,1","ND","ND","ND","ND"],
    [22624,"01/25/2017 07:00","32,7","0,2","ND","ND","ND","ND"],
    [22625,"01/25/2017 08:00","51,7","0,3","ND","ND","ND","ND"],
    [22626,"01/25/2017 09:00","65,3","1,7","ND","ND","ND","ND"],
    [22627,"01/25/2017 10:00","44","3,4","ND","ND","ND","ND"],
    [22628,"01/25/2017 11:00","61,3","3,5","ND","ND","ND","ND"],
    [22629,"01/25/2017 12:00","49,7","2,5","ND","ND","ND","ND"],
    [22630,"01/25/2017 13:00","37,4","1,7","ND","ND","ND","ND"],
    [22631,"01/25/2017 14:00","49,3","1,1","ND","ND","ND","ND"],
    [22632,"01/25/2017 15:00","51,8","1,4","ND","ND","ND","ND"],
    [22633,"01/25/2017 16:00","59,4","0,1","ND","ND","ND","ND"],
    [22634,"01/25/2017 17:00","31,9","0","ND","ND","ND","ND"],
    [22635,"01/25/2017 18:00","28,7","0","ND","ND","ND","ND"],
    [22636,"01/25/2017 19:00","26,2","0,1","ND","ND","ND","ND"],
    [22637,"01/25/2017 20:00","19,2","0","ND","ND","ND","ND"],
    [22638,"01/25/2017 21:00","26,7","0,1","ND","ND","ND","ND"],
    [22639,"01/25/2017 22:00","36,6","0,2","ND","ND","ND","ND"],
    [22640,"01/25/2017 23:00","60,7","0,2","ND","ND","ND","ND"],
    [22641,"01/26/2017 00:00","49,9","0,1","ND","ND","ND","ND"],
    [22642,"01/26/2017 01:00","58,2","0","ND","ND","ND","ND"],
    [22643,"01/26/2017 02:00","43,7","0,1","ND","ND","ND","ND"],
    [22644,"01/26/2017 03:00","44,3","0,1","ND","ND","ND","ND"],
    [22645,"01/26/2017 04:00","53,8","0,1","ND","ND","ND","ND"],
    [22646,"01/26/2017 05:00","40,1","0,1","ND","ND","ND","ND"],
    [22647,"01/26/2017 06:00","52,2","0,1","ND","ND","ND","ND"],
    [22648,"01/26/2017 07:00","45,7","0,8","ND","ND","ND","ND"],
    [22649,"01/26/2017 08:00","89,8","0,5","ND","ND","ND","ND"],
    [22650,"01/26/2017 09:00","58,8","0,7","ND","ND","ND","ND"],
    [22651,"01/26/2017 10:00","83,7","1","ND","ND","ND","ND"],
    [22652,"01/26/2017 11:00","67","1,3","ND","ND","ND","ND"],
    [22653,"01/26/2017 12:00","58,3","2,2","ND","ND","ND","ND"],
    [22654,"01/26/2017 13:00","63,7","1,7","ND","ND","ND","ND"],
    [22655,"01/26/2017 14:00","64,3","1,1","ND","ND","ND","ND"],
    [22656,"01/26/2017 15:00","72,5","1,6","ND","ND","ND","ND"],
    [22657,"01/26/2017 16:00","60,4","0,1","ND","ND","ND","ND"],
    [22658,"01/26/2017 17:00","20","0","ND","ND","ND","ND"],
    [22659,"01/26/2017 18:00","17,6","0,1","ND","ND","ND","ND"],
    [22660,"01/26/2017 19:00","15,3","0,1","ND","ND","ND","ND"],
    [22661,"01/26/2017 20:00","16,9","0,1","ND","ND","ND","ND"],
    [22662,"01/26/2017 21:00","28,7","0,2","ND","ND","ND","ND"],
    [22663,"01/26/2017 22:00","51,4","0,2","ND","ND","ND","ND"],
    [22664,"01/26/2017 23:00","58","0,2","ND","ND","ND","ND"],
    [22665,"01/27/2017 00:00","37,8","0,1","ND","ND","ND","ND"],
    [22666,"01/27/2017 01:00","32,4","0,1","ND","ND","ND","ND"],
    [22667,"01/27/2017 02:00","30,8","0","ND","ND","ND","ND"],
    [22668,"01/27/2017 03:00","29,7","0,1","ND","ND","ND","ND"],
    [22669,"01/27/2017 04:00","28,6","0","ND","ND","ND","ND"],
    [22670,"01/27/2017 05:00","38","0","ND","ND","ND","ND"],
    [22671,"01/27/2017 06:00","28,8","0,1","ND","ND","ND","ND"],
    [22672,"01/27/2017 07:00","44,1","0,2","ND","ND","ND","ND"],
    [22673,"01/27/2017 08:00","64,7","0,4","ND","ND","ND","ND"],
    [22674,"01/27/2017 09:00","62,5","0,3","ND","ND","ND","ND"],
    [22675,"01/27/2017 10:00","55,7","3,1","ND","ND","ND","ND"],
    [22676,"01/27/2017 11:00","58,2","3,5","ND","ND","ND","ND"],
    [22677,"01/27/2017 12:00","58","3,1","ND","ND","ND","ND"],
    [22678,"01/27/2017 13:00","56,2","1,3","ND","ND","ND","ND"],
    [22679,"01/27/2017 14:00","35,8","0,5","ND","ND","ND","ND"],
    [22680,"01/27/2017 15:00","26,2","3,9","ND","ND","ND","ND"],
    [22681,"01/27/2017 16:00","38,9","0,3","ND","ND","ND","ND"],
    [22682,"01/27/2017 17:00","34,5","0,2","ND","ND","ND","ND"],
    [22683,"01/27/2017 18:00","21,6","0,3","ND","ND","ND","ND"],
    [22684,"01/27/2017 19:00","47,7","0,3","ND","ND","ND","ND"],
    [22685,"01/27/2017 20:00","34,1","0,2","ND","ND","ND","ND"],
    [22686,"01/27/2017 21:00","32,7","0,2","ND","ND","ND","ND"],
    [22687,"01/27/2017 22:00","52,2","0,1","ND","ND","ND","ND"],
    [22688,"01/27/2017 23:00","47,4","0,1","ND","ND","ND","ND"],
    [22689,"01/28/2017 00:00","52,7","0,1","ND","ND","ND","ND"],
    [22690,"01/28/2017 01:00","37","0,1","ND","ND","ND","ND"],
    [22691,"01/28/2017 02:00","41,1","0","ND","ND","ND","ND"],
    [22692,"01/28/2017 03:00","39,9","0","ND","ND","ND","ND"],
    [22693,"01/28/2017 04:00","50,2","0","ND","ND","ND","ND"],
    [22694,"01/28/2017 05:00","46","0","ND","ND","ND","ND"],
    [22695,"01/28/2017 06:00","42,5","0","ND","ND","ND","ND"],
    [22696,"01/28/2017 07:00","47,6","0","ND","ND","ND","ND"],
    [22697,"01/28/2017 08:00","60,9","0,1","ND","ND","ND","ND"],
    [22698,"01/28/2017 09:00","59,3","0,1","ND","ND","ND","ND"],
    [22699,"01/28/2017 10:00","46","0,2","ND","ND","ND","ND"],
    [22700,"01/28/2017 11:00","18,9","0,1","ND","ND","ND","ND"],
    [22701,"01/28/2017 12:00","21,8","0,1","ND","ND","ND","ND"],
    [22702,"01/28/2017 13:00","23,5","0,1","ND","ND","ND","ND"],
    [22703,"01/28/2017 14:00","36,4","0,3","ND","ND","ND","ND"],
    [22704,"01/28/2017 15:00","42,8","0,4","ND","ND","ND","ND"],
    [22705,"01/28/2017 16:00","29,2","0","ND","ND","ND","ND"],
    [22706,"01/28/2017 17:00","14,1","0","ND","ND","ND","ND"],
    [22707,"01/28/2017 18:00","25,2","0,3","ND","ND","ND","ND"],
    [22708,"01/28/2017 19:00","25","0,1","ND","ND","ND","ND"],
    [22709,"01/28/2017 20:00","17,8","0","ND","ND","ND","ND"],
    [22710,"01/28/2017 21:00","17,2","0","ND","ND","ND","ND"],
    [22711,"01/28/2017 22:00","29,6","0","ND","ND","ND","ND"],
    [22712,"01/28/2017 23:00","26,4","0,1","ND","ND","ND","ND"],
    [22713,"01/29/2017 00:00","31","1","ND","ND","ND","ND"],
    [22714,"01/29/2017 01:00","54,2","2,3","ND","ND","ND","ND"],
    [22715,"01/29/2017 02:00","66,7","0,2","ND","ND","ND","ND"],
    [22716,"01/29/2017 03:00","43,4","0,1","ND","ND","ND","ND"],
    [22717,"01/29/2017 04:00","37","0","ND","ND","ND","ND"],
    [22718,"01/29/2017 05:00","28,5","0,1","ND","ND","ND","ND"],
    [22719,"01/29/2017 06:00","33,3","0","ND","ND","ND","ND"],
    [22720,"01/29/2017 07:00","30,6","0,1","ND","ND","ND","ND"],
    [22721,"01/29/2017 08:00","41,3","0,1","ND","ND","ND","ND"],
    [22722,"01/29/2017 09:00","47,8","0,1","ND","ND","ND","ND"],
    [22723,"01/29/2017 10:00","47,4","0,7","ND","ND","ND","ND"],
    [22724,"01/29/2017 11:00","54","1","ND","ND","ND","ND"],
    [22725,"01/29/2017 12:00","42,2","0,9","ND","ND","ND","ND"],
    [22726,"01/29/2017 13:00","43,1","0,7","ND","ND","ND","ND"],
    [22727,"01/29/2017 14:00","40","0,6","ND","ND","ND","ND"],
    [22728,"01/29/2017 15:00","24,8","0,2","ND","ND","ND","ND"],
    [22729,"01/29/2017 16:00","8","0,1","ND","ND","ND","ND"],
    [22730,"01/29/2017 17:00","13,4","0,1","ND","ND","ND","ND"],
    [22731,"01/29/2017 18:00","17,6","0,1","ND","ND","ND","ND"],
    [22732,"01/29/2017 19:00","18,9","0","ND","ND","ND","ND"],
    [22733,"01/29/2017 20:00","18,1","0,1","ND","ND","ND","ND"],
    [22734,"01/29/2017 21:00","33,6","0,2","ND","ND","ND","ND"],
    [22735,"01/29/2017 22:00","36,4","0,1","ND","ND","ND","ND"],
    [22736,"01/29/2017 23:00","23,2","0,1","ND","ND","ND","ND"],
    [22737,"01/30/2017 00:00","33,9","0","ND","ND","ND","ND"],
    [22738,"01/30/2017 01:00","38,2","0,1","ND","ND","ND","ND"],
    [22739,"01/30/2017 02:00","37,9","0,1","ND","ND","ND","ND"],
    [22740,"01/30/2017 03:00","42,6","0,1","ND","ND","ND","ND"],
    [22741,"01/30/2017 04:00","47","0","ND","ND","ND","ND"],
    [22742,"01/30/2017 05:00","2,2","0","ND","ND","ND","ND"],
    [22743,"01/30/2017 06:00","16,8","0,4","ND","ND","ND","ND"],
    [22744,"01/30/2017 07:00","29,5","0,2","ND","ND","ND","ND"],
    [22745,"01/30/2017 08:00","37,8","0,3","ND","ND","ND","ND"],
    [22746,"01/30/2017 09:00","63,5","0,3","ND","ND","ND","ND"],
    [22747,"01/30/2017 10:00","67,2","0,9","ND","ND","ND","ND"],
    [22748,"01/30/2017 11:00","62,4","0,9","ND","ND","ND","ND"],
    [22749,"01/30/2017 12:00","54,4","0,7","ND","ND","ND","ND"],
    [22750,"01/30/2017 13:00","55,9","2","ND","ND","ND","ND"],
    [22751,"01/30/2017 14:00","59","2","ND","ND","ND","ND"],
    [22752,"01/30/2017 15:00","34,2","2","ND","ND","ND","ND"],
    [22753,"01/30/2017 16:00","27,8","2","ND","ND","ND","ND"],
    [22754,"01/30/2017 17:00","28,9","0,4","ND","ND","ND","ND"],
    [22755,"01/30/2017 18:00","15,3","0,1","ND","ND","ND","ND"],
    [22756,"01/30/2017 19:00","15,9","0,1","ND","ND","ND","ND"],
    [22757,"01/30/2017 20:00","15,5","0,3","ND","ND","ND","ND"],
    [22758,"01/30/2017 21:00","17,6","0,3","ND","ND","ND","ND"],
    [22759,"01/30/2017 22:00","27,1","1,2","ND","ND","ND","ND"],
    [22760,"01/30/2017 23:00","37,9","0,9","ND","ND","ND","ND"],
    [22761,"01/31/2017 00:00","35,5","0,5","ND","ND","ND","ND"],
    [22762,"01/31/2017 01:00","28,2","0,2","ND","ND","ND","ND"],
    [22763,"01/31/2017 02:00","29,8","0,1","ND","ND","ND","ND"],
    [22764,"01/31/2017 03:00","25,5","0","ND","ND","ND","ND"],
    [22765,"01/31/2017 04:00","24,5","0","ND","ND","ND","ND"],
    [22766,"01/31/2017 05:00","24,9","0,1","ND","ND","ND","ND"],
    [22767,"01/31/2017 06:00","37,7","0,6","ND","ND","ND","ND"],
    [22768,"01/31/2017 07:00","59","0,4","ND","ND","ND","ND"],
    [22769,"01/31/2017 08:00","72,4","0,6","ND","ND","ND","ND"],
    [22770,"01/31/2017 09:00","61","0,5","ND","ND","ND","ND"],
    [22771,"01/31/2017 10:00","59,4","1,1","ND","ND","ND","ND"],
    [22772,"01/31/2017 11:00","46,3","1,8","ND","ND","ND","ND"],
    [22773,"01/31/2017 12:00","6,9","0,8","ND","ND","ND","ND"],
    [22774,"01/31/2017 13:00","ND","1,2","ND","ND","ND","ND"],
    [22775,"01/31/2017 14:00","ND","0,6","ND","ND","ND","ND"],
    [22776,"01/31/2017 15:00","68","0,1","ND","ND","ND","ND"],
    [22777,"01/31/2017 16:00","27,7","0","ND","ND","ND","ND"],
    [22778,"01/31/2017 17:00","30,1","0","ND","ND","ND","ND"],
    [22779,"01/31/2017 18:00","24,9","0,1","ND","ND","ND","ND"],
    [22780,"01/31/2017 19:00","36,4","0,2","ND","ND","ND","ND"],
    [22781,"01/31/2017 20:00","47,7","0,3","ND","ND","ND","ND"],
    [22782,"01/31/2017 21:00","46,3","0,1","ND","ND","ND","ND"],
    [22783,"01/31/2017 22:00","41,7","0,2","ND","ND","ND","ND"],
    [22784,"01/31/2017 23:00","50,3","0,2","ND","ND","ND","ND"],
    [22785,"42737","41,6","0,6","ND","ND","ND","ND"],
    [22786,"42737,04167","50,2","0,1","ND","ND","ND","ND"],
    [22787,"42737,08333","33,6","0,1","ND","ND","ND","ND"],
    [22788,"42737,125","35,4","0,1","ND","ND","ND","ND"],
    [22789,"42737,16667","28,3","0,1","ND","ND","ND","ND"],
    [22790,"42737,20833","24,1","0","ND","ND","ND","ND"],
    [22791,"42737,25","26,1","0,1","ND","ND","ND","ND"],
    [22792,"42737,29167","53,1","0,2","ND","ND","ND","ND"],
    [22793,"42737,33333","64,1","0,7","ND","ND","ND","ND"],
    [22794,"42737,375","67,3","0,9","ND","ND","ND","ND"],
    [22795,"42737,41667","86,8","0,7","ND","ND","ND","ND"],
    [22796,"42737,45833","65,6","0,6","ND","ND","ND","ND"],
    [22797,"42737,5","35,7","0,3","ND","ND","ND","ND"],
    [22798,"42737,54167","29","0,4","ND","ND","ND","ND"],
    [22799,"42737,58333","33,5","0,2","ND","ND","ND","ND"],
    [22800,"42737,625","35,1","0,4","ND","ND","ND","ND"],
    [22801,"42737,66667","40,3","0,3","ND","ND","ND","ND"],
    [22802,"42737,70833","38,6","0","ND","ND","ND","ND"],
    [22803,"42737,75","19,5","0","ND","ND","ND","ND"],
    [22804,"42737,79167","20,2","0","ND","ND","ND","ND"],
    [22805,"42737,83333","13,9","0","ND","ND","ND","ND"],
    [22806,"42737,875","18,6","0,1","ND","ND","ND","ND"],
    [22807,"42737,91667","38,1","0,2","ND","ND","ND","ND"],
    [22808,"42737,95833","51,5","0,1","ND","ND","ND","ND"],
    [22809,"42768","38,3","0,1","ND","ND","ND","ND"],
    [22810,"42768,04167","26,5","0,1","ND","ND","ND","ND"],
    [22811,"42768,08333","20,6","0","ND","ND","ND","ND"],
    [22812,"42768,125","22,6","0","ND","ND","ND","ND"],
    [22813,"42768,16667","25,1","0","ND","ND","ND","ND"],
    [22814,"42768,20833","29,6","0","ND","ND","ND","ND"],
    [22815,"42768,25","34,7","0,1","ND","ND","ND","ND"],
    [22816,"42768,29167","45,3","0,3","ND","ND","ND","ND"],
    [22817,"42768,33333","59","0,3","ND","ND","ND","ND"],
    [22818,"42768,375","52,7","0,6","ND","ND","ND","ND"],
    [22819,"42768,41667","56,4","2","ND","ND","ND","ND"],
    [22820,"42768,45833","53,3","2,6","ND","ND","ND","ND"],
    [22821,"42768,5","46,1","2,1","ND","ND","ND","ND"],
    [22822,"42768,54167","40,1","1,5","ND","ND","ND","ND"],
    [22823,"42768,58333","40","0,8","ND","ND","ND","ND"],
    [22824,"42768,625","36","0,1","ND","ND","ND","ND"],
    [22825,"42768,66667","13","0,1","ND","ND","ND","ND"],
    [22826,"42768,70833","15,4","0","ND","ND","ND","ND"],
    [22827,"42768,75","15,6","0","ND","ND","ND","ND"],
    [22828,"42768,79167","14,2","0,1","ND","ND","ND","ND"],
    [22829,"42768,83333","17,7","0,2","ND","ND","ND","ND"],
    [22830,"42768,875","29,5","0,2","ND","ND","ND","ND"],
    [22831,"42768,91667","39,8","0,1","ND","ND","ND","ND"],
    [22832,"42768,95833","36,5","0,1","ND","ND","ND","ND"],
    [22833,"42796","30,5","0,1","ND","ND","ND","ND"],
    [22834,"42796,04167","27,2","0","ND","ND","ND","ND"],
    [22835,"42796,08333","27,7","0,1","ND","ND","ND","ND"],
    [22836,"42796,125","22,2","0","ND","ND","ND","ND"],
    [22837,"42796,16667","24,8","0","ND","ND","ND","ND"],
    [22838,"42796,20833","21,6","0","ND","ND","ND","ND"],
    [22839,"42796,25","26,2","0,1","ND","ND","ND","ND"],
    [22840,"42796,29167","34,5","0,2","ND","ND","ND","ND"],
    [22841,"42796,33333","60,2","0,3","ND","ND","ND","ND"],
    [22842,"42796,375","62,5","1,8","ND","ND","ND","ND"],
    [22843,"42796,41667","76,2","1,6","ND","ND","ND","ND"],
    [22844,"42796,45833","62","1,2","ND","ND","ND","ND"],
    [22845,"42796,5","39,9","1","ND","ND","ND","ND"],
    [22846,"42796,54167","39,7","0,8","ND","ND","ND","ND"],
    [22847,"42796,58333","43,4","0,6","ND","ND","ND","ND"],
    [22848,"42796,625","31,1","0,1","ND","ND","ND","ND"],
    [22849,"42796,66667","14,3","0,1","ND","ND","ND","ND"],
    [22850,"42796,70833","19,8","0,2","ND","ND","ND","ND"],
    [22851,"42796,75","22,8","0,1","ND","ND","ND","ND"],
    [22852,"42796,79167","23,5","0","ND","ND","ND","ND"],
    [22853,"42796,83333","20,6","0,1","ND","ND","ND","ND"],
    [22854,"42796,875","14,1","0,2","ND","ND","ND","ND"],
    [22855,"42796,91667","27,4","0,4","ND","ND","ND","ND"],
    [22856,"42796,95833","49","0,2","ND","ND","ND","ND"],
    [22857,"42827","46,7","0,2","ND","ND","ND","ND"],
    [22858,"42827,04167","39,8","0,1","ND","ND","ND","ND"],
    [22859,"42827,08333","36,5","0,1","ND","ND","ND","ND"],
    [22860,"42827,125","34,8","0,1","ND","ND","ND","ND"],
    [22861,"42827,16667","24,8","0","ND","ND","ND","ND"],
    [22862,"42827,20833","24,3","0","ND","ND","ND","ND"],
    [22863,"42827,25","28,2","0,1","ND","ND","ND","ND"],
    [22864,"42827,29167","27,8","0,2","ND","ND","ND","ND"],
    [22865,"42827,33333","34,4","0,2","ND","ND","ND","ND"],
    [22866,"42827,375","53,2","0,8","ND","ND","ND","ND"],
    [22867,"42827,41667","60,6","3,9","ND","ND","ND","ND"],
    [22868,"42827,45833","49,6","5,6","ND","ND","ND","ND"],
    [22869,"42827,5","73,1","5,2","ND","ND","ND","ND"],
    [22870,"42827,54167","72,1","3,9","ND","ND","ND","ND"],
    [22871,"42827,58333","57,4","3","ND","ND","ND","ND"],
    [22872,"42827,625","52","2,7","ND","ND","ND","ND"],
    [22873,"42827,66667","52,3","3,1","ND","ND","ND","ND"],
    [22874,"42827,70833","53,3","0,5","ND","ND","ND","ND"],
    [22875,"42827,75","33,6","0,1","ND","ND","ND","ND"],
    [22876,"42827,79167","26,9","0,1","ND","ND","ND","ND"],
    [22877,"42827,83333","23,9","0,3","ND","ND","ND","ND"],
    [22878,"42827,875","32,9","0,2","ND","ND","ND","ND"],
    [22879,"42827,91667","31,7","0,4","ND","ND","ND","ND"],
    [22880,"42827,95833","52,2","0,3","ND","ND","ND","ND"],
    [22881,"42857","55","0,1","ND","ND","ND","ND"],
    [22882,"42857,04167","51,7","0,1","ND","ND","ND","ND"],
    [22883,"42857,08333","44,2","0,1","ND","ND","ND","ND"],
    [22884,"42857,125","37,3","0,1","ND","ND","ND","ND"],
    [22885,"42857,16667","38,4","0","ND","ND","ND","ND"],
    [22886,"42857,20833","37","0,1","ND","ND","ND","ND"],
    [22887,"42857,25","33,3","0,1","ND","ND","ND","ND"],
    [22888,"42857,29167","39,7","0,1","ND","ND","ND","ND"],
    [22889,"42857,33333","45,7","0,1","ND","ND","ND","ND"],
    [22890,"42857,375","45,2","0,6","ND","ND","ND","ND"],
    [22891,"42857,41667","58,5","1,5","ND","ND","ND","ND"],
    [22892,"42857,45833","35,7","1,1","ND","ND","ND","ND"],
    [22893,"42857,5","29,1","0,9","ND","ND","ND","ND"],
    [22894,"42857,54167","36,9","0,8","ND","ND","ND","ND"],
    [22895,"42857,58333","42,5","1,1","ND","ND","ND","ND"],
    [22896,"42857,625","43,9","1,2","ND","ND","ND","ND"],
    [22897,"42857,66667","45,9","0,7","ND","ND","ND","ND"],
    [22898,"42857,70833","41","0","ND","ND","ND","ND"],
    [22899,"42857,75","24,5","0","ND","ND","ND","ND"],
    [22900,"42857,79167","25,3","0","ND","ND","ND","ND"],
    [22901,"42857,83333","28","0","ND","ND","ND","ND"],
    [22902,"42857,875","26,9","0","ND","ND","ND","ND"],
    [22903,"42857,91667","22,1","0,2","ND","ND","ND","ND"],
    [22904,"42857,95833","35,5","0,1","ND","ND","ND","ND"],
    [22905,"42888","42,1","0,1","ND","ND","ND","ND"],
    [22906,"42888,04167","32","0","ND","ND","ND","ND"],
    [22907,"42888,08333","26,5","0","ND","ND","ND","ND"],
    [22908,"42888,125","29,5","0","ND","ND","ND","ND"],
    [22909,"42888,16667","26,9","0","ND","ND","ND","ND"],
    [22910,"42888,20833","24,2","0","ND","ND","ND","ND"],
    [22911,"42888,25","46","0,1","ND","ND","ND","ND"],
    [22912,"42888,29167","55","0,2","ND","ND","ND","ND"],
    [22913,"42888,33333","58,7","0,7","ND","ND","ND","ND"],
    [22914,"42888,375","74,8","0,9","ND","ND","ND","ND"],
    [22915,"42888,41667","77,1","2,5","ND","ND","ND","ND"],
    [22916,"42888,45833","48,1","3,1","ND","ND","ND","ND"],
    [22917,"42888,5","38,8","2","ND","ND","ND","ND"],
    [22918,"42888,54167","39,7","1,5","ND","ND","ND","ND"],
    [22919,"42888,58333","53,2","1,3","ND","ND","ND","ND"],
    [22920,"42888,625","55,3","0,7","ND","ND","ND","ND"],
    [22921,"42888,66667","32,7","0,1","ND","ND","ND","ND"],
    [22922,"42888,70833","21,5","0,1","ND","ND","ND","ND"],
    [22923,"42888,75","27","0","ND","ND","ND","ND"],
    [22924,"42888,79167","24,2","0","ND","ND","ND","ND"],
    [22925,"42888,83333","24,4","0","ND","ND","ND","ND"],
    [22926,"42888,875","16,2","0,1","ND","ND","ND","ND"],
    [22927,"42888,91667","22,1","0,1","ND","ND","ND","ND"],
    [22928,"42888,95833","49,3","0,8","ND","ND","ND","ND"],
    [22929,"42918","45,8","3,7","ND","ND","ND","ND"],
    [22930,"42918,04167","59,5","1,2","ND","ND","ND","ND"],
    [22931,"42918,08333","24,1","0,1","ND","ND","ND","ND"],
    [22932,"42918,125","23,3","0,1","ND","ND","ND","ND"],
    [22933,"42918,16667","28","0,1","ND","ND","ND","ND"],
    [22934,"42918,20833","38,2","0","ND","ND","ND","ND"],
    [22935,"42918,25","36,5","0,2","ND","ND","ND","ND"],
    [22936,"42918,29167","57,2","0,3","ND","ND","ND","ND"],
    [22937,"42918,33333","68,7","0,5","ND","ND","ND","ND"],
    [22938,"42918,375","77,3","1,2","ND","ND","ND","ND"],
    [22939,"42918,41667","70,9","2,6","ND","ND","ND","ND"],
    [22940,"42918,45833","59,3","2,8","ND","ND","ND","ND"],
    [22941,"42918,5","53,9","1,9","ND","ND","ND","ND"],
    [22942,"42918,54167","53,3","1,8","ND","ND","ND","ND"],
    [22943,"42918,58333","57,4","1,8","ND","ND","ND","ND"],
    [22944,"42918,625","47","0,5","ND","ND","ND","ND"],
    [22945,"42918,66667","16","0,1","ND","ND","ND","ND"],
    [22946,"42918,70833","17,2","0,1","ND","ND","ND","ND"],
    [22947,"42918,75","21","0","ND","ND","ND","ND"],
    [22948,"42918,79167","21,4","0","ND","ND","ND","ND"],
    [22949,"42918,83333","19,4","0","ND","ND","ND","ND"],
    [22950,"42918,875","17,5","0","ND","ND","ND","ND"],
    [22951,"42918,91667","18,9","0,2","ND","ND","ND","ND"],
    [22952,"42918,95833","52,5","0,2","ND","ND","ND","ND"],
    [22953,"42949","60,2","0,1","ND","ND","ND","ND"],
    [22954,"42949,04167","49,1","0,1","ND","ND","ND","ND"],
    [22955,"42949,08333","35,9","0","ND","ND","ND","ND"],
    [22956,"42949,125","35,3","0","ND","ND","ND","ND"],
    [22957,"42949,16667","27,5","0","ND","ND","ND","ND"],
    [22958,"42949,20833","32,8","0","ND","ND","ND","ND"],
    [22959,"42949,25","36,4","0,2","ND","ND","ND","ND"],
    [22960,"42949,29167","44,7","0,2","ND","ND","ND","ND"],
    [22961,"42949,33333","67,9","0,6","ND","ND","ND","ND"],
    [22962,"42949,375","77","1,1","ND","ND","ND","ND"],
    [22963,"42949,41667","75,4","2,5","ND","ND","ND","ND"],
    [22964,"42949,45833","63,3","1,6","ND","ND","ND","ND"],
    [22965,"42949,5","44,7","1,2","ND","ND","ND","ND"],
    [22966,"42949,54167","42,4","0,9","ND","ND","ND","ND"],
    [22967,"42949,58333","46,8","0,2","ND","ND","ND","ND"],
    [22968,"42949,625","26,2","0","ND","ND","ND","ND"],
    [22969,"42949,66667","21,1","0","ND","ND","ND","ND"],
    [22970,"42949,70833","23,3","0","ND","ND","ND","ND"],
    [22971,"42949,75","24,5","0","ND","ND","ND","ND"],
    [22972,"42949,79167","27,4","0","ND","ND","ND","ND"],
    [22973,"42949,83333","20,1","0","ND","ND","ND","ND"],
    [22974,"42949,875","17,5","0,1","ND","ND","ND","ND"],
    [22975,"42949,91667","42,7","0,1","ND","ND","ND","ND"],
    [22976,"42949,95833","44,4","0","ND","ND","ND","ND"],
    [22977,"42980","42,8","0","ND","ND","ND","ND"],
    [22978,"42980,04167","34,3","0","ND","ND","ND","ND"],
    [22979,"42980,08333","20","0","ND","ND","ND","ND"],
    [22980,"42980,125","25,6","0","ND","ND","ND","ND"],
    [22981,"42980,16667","20,9","0,1","ND","ND","ND","ND"],
    [22982,"42980,20833","27","0","ND","ND","ND","ND"],
    [22983,"42980,25","23,4","0,1","ND","ND","ND","ND"],
    [22984,"42980,29167","55,1","0,3","ND","ND","ND","ND"],
    [22985,"42980,33333","49,9","0,1","ND","ND","ND","ND"],
    [22986,"42980,375","21,4","0,3","ND","ND","ND","ND"],
    [22987,"42980,41667","32,9","0,2","ND","ND","ND","ND"],
    [22988,"42980,45833","40,4","0,6","ND","ND","ND","ND"],
    [22989,"42980,5","52,8","1","ND","ND","ND","ND"],
    [22990,"42980,54167","48,4","0,7","ND","ND","ND","ND"],
    [22991,"42980,58333","42,2","0,3","ND","ND","ND","ND"],
    [22992,"42980,625","23,6","0,1","ND","ND","ND","ND"],
    [22993,"42980,66667","14,4","0,1","ND","ND","ND","ND"],
    [22994,"42980,70833","18,6","0","ND","ND","ND","ND"],
    [22995,"42980,75","21,5","0,1","ND","ND","ND","ND"],
    [22996,"42980,79167","20,3","0","ND","ND","ND","ND"],
    [22997,"42980,83333","15,6","0,1","ND","ND","ND","ND"],
    [22998,"42980,875","14,2","0","ND","ND","ND","ND"],
    [22999,"42980,91667","13,5","0,1","ND","ND","ND","ND"],
    [23000,"42980,95833","38,3","0,2","ND","ND","ND","ND"],
    [23001,"43010","48,1","0,2","ND","ND","ND","ND"],
    [23002,"43010,04167","39,1","0,1","ND","ND","ND","ND"],
    [23003,"43010,08333","26,3","0","ND","ND","ND","ND"],
    [23004,"43010,125","24,3","0,1","ND","ND","ND","ND"],
    [23005,"43010,16667","23,9","0","ND","ND","ND","ND"],
    [23006,"43010,20833","26,5","0,1","ND","ND","ND","ND"],
    [23007,"43010,25","22,5","0,1","ND","ND","ND","ND"],
    [23008,"43010,29167","39,5","0,2","ND","ND","ND","ND"],
    [23009,"43010,33333","49,5","0,2","ND","ND","ND","ND"],
    [23010,"43010,375","53,8","0,2","ND","ND","ND","ND"],
    [23011,"43010,41667","44,1","0,3","ND","ND","ND","ND"],
    [23012,"43010,45833","30,8","0,5","ND","ND","ND","ND"],
    [23013,"43010,5","30,2","0,4","ND","ND","ND","ND"],
    [23014,"43010,54167","30,9","0,5","ND","ND","ND","ND"],
    [23015,"43010,58333","25,1","0,3","ND","ND","ND","ND"],
    [23016,"43010,625","20,7","0,3","ND","ND","ND","ND"],
    [23017,"43010,66667","31,5","0,1","ND","ND","ND","ND"],
    [23018,"43010,70833","29,5","0","ND","ND","ND","ND"],
    [23019,"43010,75","17,8","0,1","ND","ND","ND","ND"],
    [23020,"43010,79167","28,6","0,1","ND","ND","ND","ND"],
    [23021,"43010,83333","39,4","0,1","ND","ND","ND","ND"],
    [23022,"43010,875","41,3","0,2","ND","ND","ND","ND"],
    [23023,"43010,91667","49,4","0,1","ND","ND","ND","ND"],
    [23024,"43010,95833","41,6","0,1","ND","ND","ND","ND"],
    [23025,"43041","40,1","0","ND","ND","ND","ND"],
    [23026,"43041,04167","29,1","0","ND","ND","ND","ND"],
    [23027,"43041,08333","40,4","0","ND","ND","ND","ND"],
    [23028,"43041,125","21,6","0","ND","ND","ND","ND"],
    [23029,"43041,16667","18,4","0","ND","ND","ND","ND"],
    [23030,"43041,20833","22,4","0","ND","ND","ND","ND"],
    [23031,"43041,25","25,3","0","ND","ND","ND","ND"],
    [23032,"43041,29167","28,1","0,1","ND","ND","ND","ND"],
    [23033,"43041,33333","53,5","0,1","ND","ND","ND","ND"],
    [23034,"43041,375","61,4","0,1","ND","ND","ND","ND"],
    [23035,"43041,41667","53,5","0,3","ND","ND","ND","ND"],
    [23036,"43041,45833","37,1","0,9","ND","ND","ND","ND"],
    [23037,"43041,5","39,1","0,8","ND","ND","ND","ND"],
    [23038,"43041,54167","36,9","0,3","ND","ND","ND","ND"],
    [23039,"43041,58333","41,3","0,2","ND","ND","ND","ND"],
    [23040,"43041,625","31","0","ND","ND","ND","ND"],
    [23041,"43041,66667","15,9","0","ND","ND","ND","ND"],
    [23042,"43041,70833","15,1","0","ND","ND","ND","ND"],
    [23043,"43041,75","17,5","0","ND","ND","ND","ND"],
    [23044,"43041,79167","18,5","0","ND","ND","ND","ND"],
    [23045,"43041,83333","12,1","0,1","ND","ND","ND","ND"],
    [23046,"43041,875","32","0","ND","ND","ND","ND"],
    [23047,"43041,91667","17,5","0,2","ND","ND","ND","ND"],
    [23048,"43041,95833","28,2","0,1","ND","ND","ND","ND"],
    [23049,"43071","34","0,1","ND","ND","ND","ND"],
    [23050,"43071,04167","31","0,1","ND","ND","ND","ND"],
    [23051,"43071,08333","24,3","0","ND","ND","ND","ND"],
    [23052,"43071,125","18,8","0","ND","ND","ND","ND"],
    [23053,"43071,16667","19,5","0,1","ND","ND","ND","ND"],
    [23054,"43071,20833","17,7","0","ND","ND","ND","ND"],
    [23055,"43071,25","18,5","0","ND","ND","ND","ND"],
    [23056,"43071,29167","24","0","ND","ND","ND","ND"],
    [23057,"43071,33333","30","0,1","ND","ND","ND","ND"],
    [23058,"43071,375","16","0","ND","ND","ND","ND"],
    [23059,"43071,41667","12,8","0","ND","ND","ND","ND"],
    [23060,"43071,45833","8,7","0","ND","ND","ND","ND"],
    [23061,"43071,5","6,7","0","ND","ND","ND","ND"],
    [23062,"43071,54167","11,1","0,1","ND","ND","ND","ND"],
    [23063,"43071,58333","7,7","0,1","ND","ND","ND","ND"],
    [23064,"43071,625","20,7","0,1","ND","ND","ND","ND"],
    [23065,"43071,66667","23,4","0,1","ND","ND","ND","ND"],
    [23066,"43071,70833","21,7","0,1","ND","ND","ND","ND"],
    [23067,"43071,75","20","0","ND","ND","ND","ND"],
    [23068,"43071,79167","7,8","0","ND","ND","ND","ND"],
    [23069,"43071,83333","13,8","0","ND","ND","ND","ND"],
    [23070,"43071,875","10,5","0","ND","ND","ND","ND"],
    [23071,"43071,91667","8,7","0","ND","ND","ND","ND"],
    [23072,"43071,95833","12,8","0","ND","ND","ND","ND"],
    [23073,"02/13/2017 00:00","26,7","0","ND","ND","ND","ND"],
    [23074,"02/13/2017 01:00","24,2","0","ND","ND","ND","ND"],
    [23075,"02/13/2017 02:00","17","0","ND","ND","ND","ND"],
    [23076,"02/13/2017 03:00","14,8","0","ND","ND","ND","ND"],
    [23077,"02/13/2017 04:00","14,3","0","ND","ND","ND","ND"],
    [23078,"02/13/2017 05:00","17,6","0,1","ND","ND","ND","ND"],
    [23079,"02/13/2017 06:00","ND","ND","ND","ND","ND","ND"],
    [23080,"02/13/2017 07:00","ND","ND","ND","ND","ND","ND"],
    [23081,"02/13/2017 08:00","ND","ND","ND","ND","ND","ND"],
    [23082,"02/13/2017 09:00","ND","ND","ND","ND","ND","ND"],
    [23083,"02/13/2017 10:00","ND","ND","ND","ND","ND","ND"],
    [23084,"02/13/2017 11:00","ND","ND","ND","ND","ND","ND"],
    [23085,"02/13/2017 12:00","ND","ND","ND","ND","ND","ND"],
    [23086,"02/13/2017 13:00","ND","ND","ND","ND","ND","ND"],
    [23087,"02/13/2017 14:00","ND","ND","ND","ND","ND","ND"],
    [23088,"02/13/2017 15:00","ND","ND","ND","ND","ND","ND"],
    [23089,"02/13/2017 16:00","ND","ND","ND","ND","ND","ND"],
    [23090,"02/13/2017 17:00","ND","ND","ND","ND","ND","ND"],
    [23091,"02/13/2017 18:00","ND","ND","ND","ND","ND","ND"],
    [23092,"02/13/2017 19:00","ND","ND","ND","ND","ND","ND"],
    [23093,"02/13/2017 20:00","ND","ND","ND","ND","ND","ND"],
    [23094,"02/13/2017 21:00","ND","ND","ND","ND","ND","ND"],
    [23095,"02/13/2017 22:00","ND","ND","ND","ND","ND","ND"],
    [23096,"02/13/2017 23:00","ND","ND","ND","ND","ND","ND"],
    [23097,"02/14/2017 00:00","ND","ND","ND","ND","ND","ND"],
    [23098,"02/14/2017 01:00","ND","ND","ND","ND","ND","ND"],
    [23099,"02/14/2017 02:00","ND","ND","ND","ND","ND","ND"],
    [23100,"02/14/2017 03:00","ND","ND","ND","ND","ND","ND"],
    [23101,"02/14/2017 04:00","ND","ND","ND","ND","ND","ND"],
    [23102,"02/14/2017 05:00","ND","ND","ND","ND","ND","ND"],
    [23103,"02/14/2017 06:00","ND","ND","ND","ND","ND","ND"],
    [23104,"02/14/2017 07:00","ND","ND","ND","ND","ND","ND"],
    [23105,"02/14/2017 08:00","ND","ND","ND","ND","ND","ND"],
    [23106,"02/14/2017 09:00","ND","ND","ND","ND","ND","ND"],
    [23107,"02/14/2017 10:00","ND","ND","ND","ND","ND","ND"],
    [23108,"02/14/2017 11:00","ND","ND","ND","ND","ND","ND"],
    [23109,"02/14/2017 12:00","ND","ND","ND","ND","ND","ND"],
    [23110,"02/14/2017 13:00","ND","ND","ND","ND","ND","ND"],
    [23111,"02/14/2017 14:00","ND","ND","ND","ND","ND","ND"],
    [23112,"02/14/2017 15:00","ND","ND","ND","ND","ND","ND"],
    [23113,"02/14/2017 16:00","ND","ND","ND","ND","ND","ND"],
    [23114,"02/14/2017 17:00","ND","ND","ND","ND","ND","ND"],
    [23115,"02/14/2017 18:00","ND","ND","ND","ND","ND","ND"],
    [23116,"02/14/2017 19:00","ND","ND","ND","ND","ND","ND"],
    [23117,"02/14/2017 20:00","ND","ND","ND","ND","ND","ND"],
    [23118,"02/14/2017 21:00","ND","ND","ND","ND","ND","ND"],
    [23119,"02/14/2017 22:00","ND","ND","ND","ND","ND","ND"],
    [23120,"02/14/2017 23:00","ND","ND","ND","ND","ND","ND"],
    [23121,"02/15/2017 00:00","ND","ND","ND","ND","ND","ND"],
    [23122,"02/15/2017 01:00","ND","ND","ND","ND","ND","ND"],
    [23123,"02/15/2017 02:00","ND","ND","ND","ND","ND","ND"],
    [23124,"02/15/2017 03:00","ND","ND","ND","ND","ND","ND"],
    [23125,"02/15/2017 04:00","ND","ND","ND","ND","ND","ND"],
    [23126,"02/15/2017 05:00","ND","ND","ND","ND","ND","ND"],
    [23127,"02/15/2017 06:00","ND","ND","ND","ND","ND","ND"],
    [23128,"02/15/2017 07:00","ND","ND","ND","ND","ND","ND"],
    [23129,"02/15/2017 08:00","ND","ND","ND","ND","ND","ND"],
    [23130,"02/15/2017 09:00","ND","ND","ND","ND","ND","ND"],
    [23131,"02/15/2017 10:00","ND","ND","ND","ND","ND","ND"],
    [23132,"02/15/2017 11:00","ND","ND","ND","ND","ND","ND"],
    [23133,"02/15/2017 12:00","ND","ND","ND","ND","ND","ND"],
    [23134,"02/15/2017 13:00","ND","ND","ND","ND","ND","ND"],
    [23135,"02/15/2017 14:00","ND","ND","ND","ND","ND","ND"],
    [23136,"02/15/2017 15:00","ND","ND","ND","ND","ND","ND"],
    [23137,"02/15/2017 16:00","ND","ND","ND","ND","ND","ND"],
    [23138,"02/15/2017 17:00","ND","ND","ND","ND","ND","ND"],
    [23139,"02/15/2017 18:00","ND","ND","ND","ND","ND","ND"],
    [23140,"02/15/2017 19:00","ND","ND","ND","ND","ND","ND"],
    [23141,"02/15/2017 20:00","ND","ND","ND","ND","ND","ND"],
    [23142,"02/15/2017 21:00","ND","ND","ND","ND","ND","ND"],
    [23143,"02/15/2017 22:00","ND","ND","ND","ND","ND","ND"],
    [23144,"02/15/2017 23:00","ND","ND","ND","ND","ND","ND"],
    [23145,"02/16/2017 00:00","ND","ND","ND","ND","ND","ND"],
    [23146,"02/16/2017 01:00","ND","ND","ND","ND","ND","ND"],
    [23147,"02/16/2017 02:00","ND","ND","ND","ND","ND","ND"],
    [23148,"02/16/2017 03:00","ND","ND","ND","ND","ND","ND"],
    [23149,"02/16/2017 04:00","ND","ND","ND","ND","ND","ND"],
    [23150,"02/16/2017 05:00","ND","ND","ND","ND","ND","ND"],
    [23151,"02/16/2017 06:00","ND","ND","ND","ND","ND","ND"],
    [23152,"02/16/2017 07:00","ND","ND","ND","ND","ND","ND"],
    [23153,"02/16/2017 08:00","ND","ND","ND","ND","ND","ND"],
    [23154,"02/16/2017 09:00","ND","ND","ND","ND","ND","ND"],
    [23155,"02/16/2017 10:00","ND","ND","ND","ND","ND","ND"],
    [23156,"02/16/2017 11:00","ND","ND","ND","ND","ND","ND"],
    [23157,"02/16/2017 12:00","ND","ND","ND","ND","ND","ND"],
    [23158,"02/16/2017 13:00","ND","ND","ND","ND","ND","ND"],
    [23159,"02/16/2017 14:00","ND","ND","ND","ND","ND","ND"],
    [23160,"02/16/2017 15:00","ND","ND","ND","ND","ND","ND"],
    [23161,"02/16/2017 16:00","ND","ND","ND","ND","ND","ND"],
    [23162,"02/16/2017 17:00","ND","ND","ND","ND","ND","ND"],
    [23163,"02/16/2017 18:00","ND","ND","ND","ND","ND","ND"],
    [23164,"02/16/2017 19:00","ND","ND","ND","ND","ND","ND"],
    [23165,"02/16/2017 20:00","ND","ND","ND","ND","ND","ND"],
    [23166,"02/16/2017 21:00","ND","ND","ND","ND","ND","ND"],
    [23167,"02/16/2017 22:00","ND","ND","ND","ND","ND","ND"],
    [23168,"02/16/2017 23:00","ND","ND","ND","ND","ND","ND"],
    [23169,"02/17/2017 00:00","ND","ND","ND","ND","ND","ND"],
    [23170,"02/17/2017 01:00","ND","ND","ND","ND","ND","ND"],
    [23171,"02/17/2017 02:00","ND","ND","ND","ND","ND","ND"],
    [23172,"02/17/2017 03:00","ND","ND","ND","ND","ND","ND"],
    [23173,"02/17/2017 04:00","ND","ND","ND","ND","ND","ND"],
    [23174,"02/17/2017 05:00","ND","ND","ND","ND","ND","ND"],
    [23175,"02/17/2017 06:00","ND","ND","ND","ND","ND","ND"],
    [23176,"02/17/2017 07:00","ND","ND","ND","ND","ND","ND"],
    [23177,"02/17/2017 08:00","ND","ND","ND","ND","ND","ND"],
    [23178,"02/17/2017 09:00","ND","ND","ND","ND","ND","ND"],
    [23179,"02/17/2017 10:00","ND","ND","ND","ND","ND","ND"],
    [23180,"02/17/2017 11:00","ND","ND","ND","ND","ND","ND"],
    [23181,"02/17/2017 12:00","ND","ND","ND","ND","ND","ND"],
    [23182,"02/17/2017 13:00","ND","ND","ND","ND","ND","ND"],
    [23183,"02/17/2017 14:00","ND","ND","ND","ND","ND","ND"],
    [23184,"02/17/2017 15:00","ND","ND","ND","ND","ND","ND"],
    [23185,"02/17/2017 16:00","ND","ND","ND","ND","ND","ND"],
    [23186,"02/17/2017 17:00","ND","ND","ND","ND","ND","ND"],
    [23187,"02/17/2017 18:00","ND","ND","ND","ND","ND","ND"],
    [23188,"02/17/2017 19:00","ND","ND","ND","ND","ND","ND"],
    [23189,"02/17/2017 20:00","ND","ND","ND","ND","ND","ND"],
    [23190,"02/17/2017 21:00","ND","ND","ND","ND","ND","ND"],
    [23191,"02/17/2017 22:00","ND","ND","ND","ND","ND","ND"],
    [23192,"02/17/2017 23:00","ND","ND","ND","ND","ND","ND"],
    [23193,"02/18/2017 00:00","ND","ND","ND","ND","ND","ND"],
    [23194,"02/18/2017 01:00","ND","ND","ND","ND","ND","ND"],
    [23195,"02/18/2017 02:00","ND","ND","ND","ND","ND","ND"],
    [23196,"02/18/2017 03:00","ND","ND","ND","ND","ND","ND"],
    [23197,"02/18/2017 04:00","ND","ND","ND","ND","ND","ND"],
    [23198,"02/18/2017 05:00","ND","ND","ND","ND","ND","ND"],
    [23199,"02/18/2017 06:00","ND","ND","ND","ND","ND","ND"],
    [23200,"02/18/2017 07:00","ND","ND","ND","ND","ND","ND"],
    [23201,"02/18/2017 08:00","ND","ND","ND","ND","ND","ND"],
    [23202,"02/18/2017 09:00","ND","ND","ND","ND","ND","ND"],
    [23203,"02/18/2017 10:00","ND","ND","ND","ND","ND","ND"],
    [23204,"02/18/2017 11:00","ND","ND","ND","ND","ND","ND"],
    [23205,"02/18/2017 12:00","37","1","ND","ND","ND","ND"],
    [23206,"02/18/2017 13:00","36,3","0,8","ND","ND","ND","ND"],
    [23207,"02/18/2017 14:00","42,4","0,7","ND","ND","ND","ND"],
    [23208,"02/18/2017 15:00","48,7","0,4","ND","ND","ND","ND"],
    [23209,"02/18/2017 16:00","45,9","0","ND","ND","ND","ND"],
    [23210,"02/18/2017 17:00","20,5","0","ND","ND","ND","ND"],
    [23211,"02/18/2017 18:00","23,4","0","ND","ND","ND","ND"],
    [23212,"02/18/2017 19:00","23,2","0","ND","ND","ND","ND"],
    [23213,"02/18/2017 20:00","22,5","0","ND","ND","ND","ND"],
    [23214,"02/18/2017 21:00","19,5","0,2","ND","ND","ND","ND"],
    [23215,"02/18/2017 22:00","34","0,2","ND","ND","ND","ND"],
    [23216,"02/18/2017 23:00","46,9","0,1","ND","ND","ND","ND"],
    [23217,"02/19/2017 00:00","52,6","0,1","ND","ND","ND","ND"],
    [23218,"02/19/2017 01:00","48,3","0,1","ND","ND","ND","ND"],
    [23219,"02/19/2017 02:00","44","0,1","ND","ND","ND","ND"],
    [23220,"02/19/2017 03:00","32,2","0,1","ND","ND","ND","ND"],
    [23221,"02/19/2017 04:00","31","0","ND","ND","ND","ND"],
    [23222,"02/19/2017 05:00","25,5","0,1","ND","ND","ND","ND"],
    [23223,"02/19/2017 06:00","30,3","0,1","ND","ND","ND","ND"],
    [23224,"02/19/2017 07:00","29","0,1","ND","ND","ND","ND"],
    [23225,"02/19/2017 08:00","31,4","0,1","ND","ND","ND","ND"],
    [23226,"02/19/2017 09:00","47","0,2","ND","ND","ND","ND"],
    [23227,"02/19/2017 10:00","45,3","3,2","ND","ND","ND","ND"],
    [23228,"02/19/2017 11:00","44,5","4,7","ND","ND","ND","ND"],
    [23229,"02/19/2017 12:00","44","5,8","ND","ND","ND","ND"],
    [23230,"02/19/2017 13:00","44","3,9","ND","ND","ND","ND"],
    [23231,"02/19/2017 14:00","41,1","1,5","ND","ND","ND","ND"],
    [23232,"02/19/2017 15:00","44,9","1,2","ND","ND","ND","ND"],
    [23233,"02/19/2017 16:00","41,3","0,1","ND","ND","ND","ND"],
    [23234,"02/19/2017 17:00","17,2","0","ND","ND","ND","ND"],
    [23235,"02/19/2017 18:00","18,4","0","ND","ND","ND","ND"],
    [23236,"02/19/2017 19:00","22,7","0","ND","ND","ND","ND"],
    [23237,"02/19/2017 20:00","15,3","0,1","ND","ND","ND","ND"],
    [23238,"02/19/2017 21:00","20,1","0","ND","ND","ND","ND"],
    [23239,"02/19/2017 22:00","21,9","0,1","ND","ND","ND","ND"],
    [23240,"02/19/2017 23:00","33,4","0,3","ND","ND","ND","ND"],
    [23241,"02/20/2017 00:00","53,8","0,2","ND","ND","ND","ND"],
    [23242,"02/20/2017 01:00","44,1","0,1","ND","ND","ND","ND"],
    [23243,"02/20/2017 02:00","35,9","0,1","ND","ND","ND","ND"],
    [23244,"02/20/2017 03:00","35,1","0,1","ND","ND","ND","ND"],
    [23245,"02/20/2017 04:00","33,4","0,1","ND","ND","ND","ND"],
    [23246,"02/20/2017 05:00","34,9","0,1","ND","ND","ND","ND"],
    [23247,"02/20/2017 06:00","41,7","0,2","ND","ND","ND","ND"],
    [23248,"02/20/2017 07:00","54,1","0,3","ND","ND","ND","ND"],
    [23249,"02/20/2017 08:00","44,3","0,3","ND","ND","ND","ND"],
    [23250,"02/20/2017 09:00","44,5","0,6","ND","ND","ND","ND"],
    [23251,"02/20/2017 10:00","51,3","1,2","ND","ND","ND","ND"],
    [23252,"02/20/2017 11:00","66,8","0,6","ND","ND","ND","ND"],
    [23253,"02/20/2017 12:00","41","0,5","ND","ND","ND","ND"],
    [23254,"02/20/2017 13:00","35,7","0,3","ND","ND","ND","ND"],
    [23255,"02/20/2017 14:00","27,6","0,3","ND","ND","ND","ND"],
    [23256,"02/20/2017 15:00","33,6","0,2","ND","ND","ND","ND"],
    [23257,"02/20/2017 16:00","27,8","0,1","ND","ND","ND","ND"],
    [23258,"02/20/2017 17:00","12,8","0,1","ND","ND","ND","ND"],
    [23259,"02/20/2017 18:00","38,3","0,1","ND","ND","ND","ND"],
    [23260,"02/20/2017 19:00","8,2","0,1","ND","ND","ND","ND"],
    [23261,"02/20/2017 20:00","18","0,1","ND","ND","ND","ND"],
    [23262,"02/20/2017 21:00","44,3","0,2","ND","ND","ND","ND"],
    [23263,"02/20/2017 22:00","50,2","0,1","ND","ND","ND","ND"],
    [23264,"02/20/2017 23:00","39,1","0,1","ND","ND","ND","ND"],
    [23265,"02/21/2017 00:00","29,4","0,1","ND","ND","ND","ND"],
    [23266,"02/21/2017 01:00","21,3","0,1","ND","ND","ND","ND"],
    [23267,"02/21/2017 02:00","23","0","ND","ND","ND","ND"],
    [23268,"02/21/2017 03:00","22,3","0","ND","ND","ND","ND"],
    [23269,"02/21/2017 04:00","18,6","0","ND","ND","ND","ND"],
    [23270,"02/21/2017 05:00","21,3","0,1","ND","ND","ND","ND"],
    [23271,"02/21/2017 06:00","30,1","0,1","ND","ND","ND","ND"],
    [23272,"02/21/2017 07:00","37","0,4","ND","ND","ND","ND"],
    [23273,"02/21/2017 08:00","63,9","0,3","ND","ND","ND","ND"],
    [23274,"02/21/2017 09:00","62,7","0,3","ND","ND","ND","ND"],
    [23275,"02/21/2017 10:00","42,8","1,4","ND","ND","ND","ND"],
    [23276,"02/21/2017 11:00","82,1","1,8","ND","ND","ND","ND"],
    [23277,"02/21/2017 12:00","64,9","1,7","ND","ND","ND","ND"],
    [23278,"02/21/2017 13:00","33,2","1,2","ND","ND","ND","ND"],
    [23279,"02/21/2017 14:00","28,8","1,4","ND","ND","ND","ND"],
    [23280,"02/21/2017 15:00","26,7","0,7","ND","ND","ND","ND"],
    [23281,"02/21/2017 16:00","21,9","0,1","ND","ND","ND","ND"],
    [23282,"02/21/2017 17:00","14,2","0,1","ND","ND","ND","ND"],
    [23283,"02/21/2017 18:00","13,7","0,1","ND","ND","ND","ND"],
    [23284,"02/21/2017 19:00","7,8","0,1","ND","ND","ND","ND"],
    [23285,"02/21/2017 20:00","19","0,1","ND","ND","ND","ND"],
    [23286,"02/21/2017 21:00","41,5","0,1","ND","ND","ND","ND"],
    [23287,"02/21/2017 22:00","26,2","0,2","ND","ND","ND","ND"],
    [23288,"02/21/2017 23:00","16,5","0,1","ND","ND","ND","ND"],
    [23289,"02/22/2017 00:00","17,3","0,1","ND","ND","ND","ND"],
    [23290,"02/22/2017 01:00","11,1","0","ND","ND","ND","ND"],
    [23291,"02/22/2017 02:00","14,1","0,1","ND","ND","ND","ND"],
    [23292,"02/22/2017 03:00","20,9","0","ND","ND","ND","ND"],
    [23293,"02/22/2017 04:00","24,1","0,1","ND","ND","ND","ND"],
    [23294,"02/22/2017 05:00","20,6","0,1","ND","ND","ND","ND"],
    [23295,"02/22/2017 06:00","20,4","0,2","ND","ND","ND","ND"],
    [23296,"02/22/2017 07:00","33,4","0,4","ND","ND","ND","ND"],
    [23297,"02/22/2017 08:00","42,7","0,6","ND","ND","ND","ND"],
    [23298,"02/22/2017 09:00","49","0,8","ND","ND","ND","ND"],
    [23299,"02/22/2017 10:00","41,2","1,8","ND","ND","ND","ND"],
    [23300,"02/22/2017 11:00","39,2","2,3","ND","ND","ND","ND"],
    [23301,"02/22/2017 12:00","33,9","0,8","ND","ND","ND","ND"],
    [23302,"02/22/2017 13:00","27,5","0,2","ND","ND","ND","ND"],
    [23303,"02/22/2017 14:00","23,4","0,2","ND","ND","ND","ND"],
    [23304,"02/22/2017 15:00","23,6","0,2","ND","ND","ND","ND"],
    [23305,"02/22/2017 16:00","24,7","0,5","ND","ND","ND","ND"],
    [23306,"02/22/2017 17:00","43,5","0,7","ND","ND","ND","ND"],
    [23307,"02/22/2017 18:00","55,1","0,7","ND","ND","ND","ND"],
    [23308,"02/22/2017 19:00","55,2","0,7","ND","ND","ND","ND"],
    [23309,"02/22/2017 20:00","68,9","0,4","ND","ND","ND","ND"],
    [23310,"02/22/2017 21:00","70,6","0,4","ND","ND","ND","ND"],
    [23311,"02/22/2017 22:00","54,2","0,2","ND","ND","ND","ND"],
    [23312,"02/22/2017 23:00","29,3","0,2","ND","ND","ND","ND"],
    [23313,"02/23/2017 00:00","28,3","0,2","ND","ND","ND","ND"],
    [23314,"02/23/2017 01:00","24,3","0,1","ND","ND","ND","ND"],
    [23315,"02/23/2017 02:00","19,5","0,1","ND","ND","ND","ND"],
    [23316,"02/23/2017 03:00","15,8","0,1","ND","ND","ND","ND"],
    [23317,"02/23/2017 04:00","14,2","0,1","ND","ND","ND","ND"],
    [23318,"02/23/2017 05:00","17,7","0,1","ND","ND","ND","ND"],
    [23319,"02/23/2017 06:00","26,7","0,2","ND","ND","ND","ND"],
    [23320,"02/23/2017 07:00","41,9","0,3","ND","ND","ND","ND"],
    [23321,"02/23/2017 08:00","57,9","0,8","ND","ND","ND","ND"],
    [23322,"02/23/2017 09:00","81,4","0,9","ND","ND","ND","ND"],
    [23323,"02/23/2017 10:00","72,2","4,1","ND","ND","ND","ND"],
    [23324,"02/23/2017 11:00","62,5","7,2","ND","ND","ND","ND"],
    [23325,"02/23/2017 12:00","83,9","6,1","ND","ND","ND","ND"],
    [23326,"02/23/2017 13:00","67,8","3,3","ND","ND","ND","ND"],
    [23327,"02/23/2017 14:00","64,6","2","ND","ND","ND","ND"],
    [23328,"02/23/2017 15:00","66,3","1,6","ND","ND","ND","ND"],
    [23329,"02/23/2017 16:00","69","0,7","ND","ND","ND","ND"],
    [23330,"02/23/2017 17:00","37,6","0,1","ND","ND","ND","ND"],
    [23331,"02/23/2017 18:00","16,7","0,1","ND","ND","ND","ND"],
    [23332,"02/23/2017 19:00","13,8","0,1","ND","ND","ND","ND"],
    [23333,"02/23/2017 20:00","11,8","0,1","ND","ND","ND","ND"],
    [23334,"02/23/2017 21:00","9,1","0,3","ND","ND","ND","ND"],
    [23335,"02/23/2017 22:00","35,2","0,1","ND","ND","ND","ND"],
    [23336,"02/23/2017 23:00","44,4","0,2","ND","ND","ND","ND"],
    [23337,"02/24/2017 00:00","50,8","0,1","ND","ND","ND","ND"],
    [23338,"02/24/2017 01:00","40,2","0,1","ND","ND","ND","ND"],
    [23339,"02/24/2017 02:00","38,7","0,1","ND","ND","ND","ND"],
    [23340,"02/24/2017 03:00","27,9","0","ND","ND","ND","ND"],
    [23341,"02/24/2017 04:00","33,5","0","ND","ND","ND","ND"],
    [23342,"02/24/2017 05:00","30,9","0","ND","ND","ND","ND"],
    [23343,"02/24/2017 06:00","37,3","0,1","ND","ND","ND","ND"],
    [23344,"02/24/2017 07:00","63,8","0,2","ND","ND","ND","ND"],
    [23345,"02/24/2017 08:00","57,8","0,6","ND","ND","ND","ND"],
    [23346,"02/24/2017 09:00","77,8","1,1","ND","ND","ND","ND"],
    [23347,"02/24/2017 10:00","98,2","1,4","ND","ND","ND","ND"],
    [23348,"02/24/2017 11:00","85,1","4,1","ND","ND","ND","ND"],
    [23349,"02/24/2017 12:00","55,2","2,4","ND","ND","ND","ND"],
    [23350,"02/24/2017 13:00","53,7","3","ND","ND","ND","ND"],
    [23351,"02/24/2017 14:00","46,1","2,6","ND","ND","ND","ND"],
    [23352,"02/24/2017 15:00","45,3","2,5","ND","ND","ND","ND"],
    [23353,"02/24/2017 16:00","51,1","1,9","ND","ND","ND","ND"],
    [23354,"02/24/2017 17:00","54,9","0,3","ND","ND","ND","ND"],
    [23355,"02/24/2017 18:00","34","0,1","ND","ND","ND","ND"],
    [23356,"02/24/2017 19:00","29,9","0,1","ND","ND","ND","ND"],
    [23357,"02/24/2017 20:00","21,7","0,3","ND","ND","ND","ND"],
    [23358,"02/24/2017 21:00","34,2","0,4","ND","ND","ND","ND"],
    [23359,"02/24/2017 22:00","40,1","0,2","ND","ND","ND","ND"],
    [23360,"02/24/2017 23:00","49,9","0,3","ND","ND","ND","ND"],
    [23361,"02/25/2017 00:00","54,9","0,1","ND","ND","ND","ND"],
    [23362,"02/25/2017 01:00","46,8","0,2","ND","ND","ND","ND"],
    [23363,"02/25/2017 02:00","48,2","0,1","ND","ND","ND","ND"],
    [23364,"02/25/2017 03:00","54,8","0,1","ND","ND","ND","ND"],
    [23365,"02/25/2017 04:00","43,1","0,1","ND","ND","ND","ND"],
    [23366,"02/25/2017 05:00","43,5","0,3","ND","ND","ND","ND"],
    [23367,"02/25/2017 06:00","47,7","0,1","ND","ND","ND","ND"],
    [23368,"02/25/2017 07:00","52,6","0,2","ND","ND","ND","ND"],
    [23369,"02/25/2017 08:00","56,3","0,5","ND","ND","ND","ND"],
    [23370,"02/25/2017 09:00","63,6","0,5","ND","ND","ND","ND"],
    [23371,"02/25/2017 10:00","52,9","0,7","ND","ND","ND","ND"],
    [23372,"02/25/2017 11:00","59,6","0,2","ND","ND","ND","ND"],
    [23373,"02/25/2017 12:00","58,6","0,2","ND","ND","ND","ND"],
    [23374,"02/25/2017 13:00","45,1","0,3","ND","ND","ND","ND"],
    [23375,"02/25/2017 14:00","42,4","0,2","ND","ND","ND","ND"],
    [23376,"02/25/2017 15:00","21,9","0,2","ND","ND","ND","ND"],
    [23377,"02/25/2017 16:00","19","0,1","ND","ND","ND","ND"],
    [23378,"02/25/2017 17:00","5,8","0","ND","ND","ND","ND"],
    [23379,"02/25/2017 18:00","22,5","0,2","ND","ND","ND","ND"],
    [23380,"02/25/2017 19:00","38,2","0,1","ND","ND","ND","ND"],
    [23381,"02/25/2017 20:00","29,3","0,1","ND","ND","ND","ND"],
    [23382,"02/25/2017 21:00","29,2","0,1","ND","ND","ND","ND"],
    [23383,"02/25/2017 22:00","38,5","0,1","ND","ND","ND","ND"],
    [23384,"02/25/2017 23:00","51,6","0,2","ND","ND","ND","ND"],
    [23385,"02/26/2017 00:00","33,8","0,2","ND","ND","ND","ND"],
    [23386,"02/26/2017 01:00","39,9","0,2","ND","ND","ND","ND"],
    [23387,"02/26/2017 02:00","38","2","ND","ND","ND","ND"],
    [23388,"02/26/2017 03:00","40,5","0,8","ND","ND","ND","ND"],
    [23389,"02/26/2017 04:00","41,6","0,6","ND","ND","ND","ND"],
    [23390,"02/26/2017 05:00","32,3","0,4","ND","ND","ND","ND"],
    [23391,"02/26/2017 06:00","19,4","0,3","ND","ND","ND","ND"],
    [23392,"02/26/2017 07:00","26","0,3","ND","ND","ND","ND"],
    [23393,"02/26/2017 08:00","29,7","0,6","ND","ND","ND","ND"],
    [23394,"02/26/2017 09:00","58,6","1,7","ND","ND","ND","ND"],
    [23395,"02/26/2017 10:00","65,6","4,1","ND","ND","ND","ND"],
    [23396,"02/26/2017 11:00","52,6","6,1","ND","ND","ND","ND"],
    [23397,"02/26/2017 12:00","38,6","6,4","ND","ND","ND","ND"],
    [23398,"02/26/2017 13:00","33,1","3,8","ND","ND","ND","ND"],
    [23399,"02/26/2017 14:00","34,2","2,8","ND","ND","ND","ND"],
    [23400,"02/26/2017 15:00","33,5","1","ND","ND","ND","ND"],
    [23401,"02/26/2017 16:00","10,1","0,4","ND","ND","ND","ND"],
    [23402,"02/26/2017 17:00","20,1","0,7","ND","ND","ND","ND"],
    [23403,"02/26/2017 18:00","22,8","0,5","ND","ND","ND","ND"],
    [23404,"02/26/2017 19:00","18,5","0,3","ND","ND","ND","ND"],
    [23405,"02/26/2017 20:00","11,6","0,4","ND","ND","ND","ND"],
    [23406,"02/26/2017 21:00","19,1","0,3","ND","ND","ND","ND"],
    [23407,"02/26/2017 22:00","27,7","0,3","ND","ND","ND","ND"],
    [23408,"02/26/2017 23:00","27,7","0,2","ND","ND","ND","ND"],
    [23409,"02/27/2017 00:00","28,8","0,2","ND","ND","ND","ND"],
    [23410,"02/27/2017 01:00","23,8","0,1","ND","ND","ND","ND"],
    [23411,"02/27/2017 02:00","19,6","0,1","ND","ND","ND","ND"],
    [23412,"02/27/2017 03:00","19,5","0,1","ND","ND","ND","ND"],
    [23413,"02/27/2017 04:00","22,5","0,1","ND","ND","ND","ND"],
    [23414,"02/27/2017 05:00","31,7","0,1","ND","ND","ND","ND"],
    [23415,"02/27/2017 06:00","16,7","0,1","ND","ND","ND","ND"],
    [23416,"02/27/2017 07:00","37,3","0,2","ND","ND","ND","ND"],
    [23417,"02/27/2017 08:00","60,3","0,8","ND","ND","ND","ND"],
    [23418,"02/27/2017 09:00","64,6","0,5","ND","ND","ND","ND"],
    [23419,"02/27/2017 10:00","56,7","0,6","ND","ND","ND","ND"],
    [23420,"02/27/2017 11:00","44","0,7","ND","ND","ND","ND"],
    [23421,"02/27/2017 12:00","27,2","0,7","ND","ND","ND","ND"],
    [23422,"02/27/2017 13:00","24,7","0,7","ND","ND","ND","ND"],
    [23423,"02/27/2017 14:00","31,8","0,6","ND","ND","ND","ND"],
    [23424,"02/27/2017 15:00","41","0,1","ND","ND","ND","ND"],
    [23425,"02/27/2017 16:00","18,7","0,1","ND","ND","ND","ND"],
    [23426,"02/27/2017 17:00","15,3","0","ND","ND","ND","ND"],
    [23427,"02/27/2017 18:00","16,8","0,1","ND","ND","ND","ND"],
    [23428,"02/27/2017 19:00","18,9","0,1","ND","ND","ND","ND"],
    [23429,"02/27/2017 20:00","17,9","0","ND","ND","ND","ND"],
    [23430,"02/27/2017 21:00","16,4","0,1","ND","ND","ND","ND"],
    [23431,"02/27/2017 22:00","23,9","0,1","ND","ND","ND","ND"],
    [23432,"02/27/2017 23:00","39,2","0,1","ND","ND","ND","ND"],
    [23433,"02/28/2017 00:00","20,6","0,1","ND","ND","ND","ND"],
    [23434,"02/28/2017 01:00","25,5","0,1","ND","ND","ND","ND"],
    [23435,"02/28/2017 02:00","22,5","0","ND","ND","ND","ND"],
    [23436,"02/28/2017 03:00","24,1","0","ND","ND","ND","ND"],
    [23437,"02/28/2017 04:00","16,2","0","ND","ND","ND","ND"],
    [23438,"02/28/2017 05:00","16,3","0","ND","ND","ND","ND"],
    [23439,"02/28/2017 06:00","17","0,1","ND","ND","ND","ND"],
    [23440,"02/28/2017 07:00","20","0,2","ND","ND","ND","ND"],
    [23441,"02/28/2017 08:00","27,3","0,3","ND","ND","ND","ND"],
    [23442,"02/28/2017 09:00","42,3","0,6","ND","ND","ND","ND"],
    [23443,"02/28/2017 10:00","46,8","0,4","ND","ND","ND","ND"],
    [23444,"02/28/2017 11:00","47,1","0,3","ND","ND","ND","ND"],
    [23445,"02/28/2017 12:00","48,6","0,2","ND","ND","ND","ND"],
    [23446,"02/28/2017 13:00","49","0,3","ND","ND","ND","ND"],
    [23447,"02/28/2017 14:00","26,4","0,8","ND","ND","ND","ND"],
    [23448,"02/28/2017 15:00","18,5","0,2","ND","ND","ND","ND"],
    [23449,"02/28/2017 16:00","34,9","0,1","ND","ND","ND","ND"],
    [23450,"02/28/2017 17:00","26,8","0,1","ND","ND","ND","ND"],
    [23451,"02/28/2017 18:00","9,9","0,2","ND","ND","ND","ND"],
    [23452,"02/28/2017 19:00","25,7","0,2","ND","ND","ND","ND"],
    [23453,"02/28/2017 20:00","12,4","0,1","ND","ND","ND","ND"],
    [23454,"02/28/2017 21:00","25,1","0,2","ND","ND","ND","ND"],
    [23455,"02/28/2017 22:00","27,4","0,3","ND","ND","ND","ND"],
    [23456,"02/28/2017 23:00","37,5","0,3","ND","ND","ND","ND"],
    [23457,"42738","31,1","0,3","ND","ND","ND","ND"],
    [23458,"42738,04167","33,4","0,2","ND","ND","ND","ND"],
    [23459,"42738,08333","24,3","0,1","ND","ND","ND","ND"],
    [23460,"42738,125","15,8","0,1","ND","ND","ND","ND"],
    [23461,"42738,16667","23,4","0,2","ND","ND","ND","ND"],
    [23462,"42738,20833","24,8","0,1","ND","ND","ND","ND"],
    [23463,"42738,25","26,8","0,2","ND","ND","ND","ND"],
    [23464,"42738,29167","47,4","0,5","ND","ND","ND","ND"],
    [23465,"42738,33333","76,4","0,6","ND","ND","ND","ND"],
    [23466,"42738,375","62,5","0,6","ND","ND","ND","ND"],
    [23467,"42738,41667","ND","3","ND","ND","ND","ND"],
    [23468,"42738,45833","ND","4,5","ND","ND","ND","ND"],
    [23469,"42738,5","ND","5","ND","ND","ND","ND"],
    [23470,"42738,54167","ND","5,6","ND","ND","ND","ND"],
    [23471,"42738,58333","64,8","2,4","ND","ND","ND","ND"],
    [23472,"42738,625","34,7","1,2","ND","ND","ND","ND"],
    [23473,"42738,66667","18,5","0,4","ND","ND","ND","ND"],
    [23474,"42738,70833","17,3","0,2","ND","ND","ND","ND"],
    [23475,"42738,75","12,1","0,1","ND","ND","ND","ND"],
    [23476,"42738,79167","18,2","0,2","ND","ND","ND","ND"],
    [23477,"42738,83333","14,3","1,3","ND","ND","ND","ND"],
    [23478,"42738,875","58,6","0,8","ND","ND","ND","ND"],
    [23479,"42738,91667","43,3","0,5","ND","ND","ND","ND"],
    [23480,"42738,95833","53,9","0,5","ND","ND","ND","ND"],
    [23481,"42769","42","0,3","ND","ND","ND","ND"],
    [23482,"42769,04167","25,5","0,2","ND","ND","ND","ND"],
    [23483,"42769,08333","23,5","0,2","ND","ND","ND","ND"],
    [23484,"42769,125","22,8","0,2","ND","ND","ND","ND"],
    [23485,"42769,16667","28,3","0,7","ND","ND","ND","ND"],
    [23486,"42769,20833","37,8","0,3","ND","ND","ND","ND"],
    [23487,"42769,25","39,2","0,2","ND","ND","ND","ND"],
    [23488,"42769,29167","41,6","0,2","ND","ND","ND","ND"],
    [23489,"42769,33333","43,9","0,4","ND","ND","ND","ND"],
    [23490,"42769,375","39,7","0,8","ND","ND","ND","ND"],
    [23491,"42769,41667","73,9","1,7","ND","ND","ND","ND"],
    [23492,"42769,45833","61,9","1,1","ND","ND","ND","ND"],
    [23493,"42769,5","39,8","1,2","ND","ND","ND","ND"],
    [23494,"42769,54167","43,4","0,6","ND","ND","ND","ND"],
    [23495,"42769,58333","35,9","0,3","ND","ND","ND","ND"],
    [23496,"42769,625","27,7","0,3","ND","ND","ND","ND"],
    [23497,"42769,66667","36,7","0,1","ND","ND","ND","ND"],
    [23498,"42769,70833","16,5","0,1","ND","ND","ND","ND"],
    [23499,"42769,75","18,4","0,1","ND","ND","ND","ND"],
    [23500,"42769,79167","16,6","0,1","ND","ND","ND","ND"],
    [23501,"42769,83333","16,4","0,2","ND","ND","ND","ND"],
    [23502,"42769,875","23,1","0,4","ND","ND","ND","ND"],
    [23503,"42769,91667","40,9","0,3","ND","ND","ND","ND"],
    [23504,"42769,95833","42,8","0,2","ND","ND","ND","ND"],
    [23505,"42797","59,1","0,2","ND","ND","ND","ND"],
    [23506,"42797,04167","27,6","0,1","ND","ND","ND","ND"],
    [23507,"42797,08333","21,2","0,1","ND","ND","ND","ND"],
    [23508,"42797,125","31,2","0,1","ND","ND","ND","ND"],
    [23509,"42797,16667","27,1","0,1","ND","ND","ND","ND"],
    [23510,"42797,20833","26,2","0,2","ND","ND","ND","ND"],
    [23511,"42797,25","54","0,3","ND","ND","ND","ND"],
    [23512,"42797,29167","38,9","0,3","ND","ND","ND","ND"],
    [23513,"42797,33333","42,8","0,3","ND","ND","ND","ND"],
    [23514,"42797,375","25,5","0,2","ND","ND","ND","ND"],
    [23515,"42797,41667","23,8","0,2","ND","ND","ND","ND"],
    [23516,"42797,45833","13,2","0,1","ND","ND","ND","ND"],
    [23517,"42797,5","7,3","0,1","ND","ND","ND","ND"],
    [23518,"42797,54167","11,5","0,1","ND","ND","ND","ND"],
    [23519,"42797,58333","10,8","0","ND","ND","ND","ND"],
    [23520,"42797,625","1,5","0","ND","ND","ND","ND"],
    [23521,"42797,66667","ND","0","ND","ND","ND","ND"],
    [23522,"42797,70833","5","0","ND","ND","ND","ND"],
    [23523,"42797,75","8,3","0","ND","ND","ND","ND"],
    [23524,"42797,79167","11,2","0,1","ND","ND","ND","ND"],
    [23525,"42797,83333","16,2","0,2","ND","ND","ND","ND"],
    [23526,"42797,875","31,7","0,8","ND","ND","ND","ND"],
    [23527,"42797,91667","45,3","0,2","ND","ND","ND","ND"],
    [23528,"42797,95833","45,2","0,1","ND","ND","ND","ND"],
    [23529,"42828","30,1","0,1","ND","ND","ND","ND"],
    [23530,"42828,04167","26","0,1","ND","ND","ND","ND"],
    [23531,"42828,08333","17","0,1","ND","ND","ND","ND"],
    [23532,"42828,125","16,4","0,1","ND","ND","ND","ND"],
    [23533,"42828,16667","15,1","0,1","ND","ND","ND","ND"],
    [23534,"42828,20833","20,7","0,1","ND","ND","ND","ND"],
    [23535,"42828,25","25,7","0,1","ND","ND","ND","ND"],
    [23536,"42828,29167","28,3","0,9","ND","ND","ND","ND"],
    [23537,"42828,33333","41,4","0,3","ND","ND","ND","ND"],
    [23538,"42828,375","55,2","0,5","ND","ND","ND","ND"],
    [23539,"42828,41667","50,9","1","ND","ND","ND","ND"],
    [23540,"42828,45833","46","1,3","ND","ND","ND","ND"],
    [23541,"42828,5","32,6","0,8","ND","ND","ND","ND"],
    [23542,"42828,54167","30,2","1","ND","ND","ND","ND"],
    [23543,"42828,58333","39,9","0,9","ND","ND","ND","ND"],
    [23544,"42828,625","45,8","1","ND","ND","ND","ND"],
    [23545,"42828,66667","46,8","0,6","ND","ND","ND","ND"],
    [23546,"42828,70833","47,4","0,2","ND","ND","ND","ND"],
    [23547,"42828,75","26,6","0,1","ND","ND","ND","ND"],
    [23548,"42828,79167","17,1","0,1","ND","ND","ND","ND"],
    [23549,"42828,83333","19,7","0,1","ND","ND","ND","ND"],
    [23550,"42828,875","18,1","0,1","ND","ND","ND","ND"],
    [23551,"42828,91667","14,3","0,2","ND","ND","ND","ND"],
    [23552,"42828,95833","40,5","0,2","ND","ND","ND","ND"],
    [23553,"42858","54,8","0,3","ND","ND","ND","ND"],
    [23554,"42858,04167","60,9","0,1","ND","ND","ND","ND"],
    [23555,"42858,08333","39,1","0,1","ND","ND","ND","ND"],
    [23556,"42858,125","41,1","0,1","ND","ND","ND","ND"],
    [23557,"42858,16667","49,6","0,1","ND","ND","ND","ND"],
    [23558,"42858,20833","45,6","0,2","ND","ND","ND","ND"],
    [23559,"42858,25","40,7","0,1","ND","ND","ND","ND"],
    [23560,"42858,29167","30,6","0,1","ND","ND","ND","ND"],
    [23561,"42858,33333","24,3","0,1","ND","ND","ND","ND"],
    [23562,"42858,375","24,6","0,2","ND","ND","ND","ND"],
    [23563,"42858,41667","31,2","1,2","ND","ND","ND","ND"],
    [23564,"42858,45833","35,2","1,2","ND","ND","ND","ND"],
    [23565,"42858,5","34,7","0,9","ND","ND","ND","ND"],
    [23566,"42858,54167","27,6","0,3","ND","ND","ND","ND"],
    [23567,"42858,58333","5,8","0,1","ND","ND","ND","ND"],
    [23568,"42858,625","4,8","0,2","ND","ND","ND","ND"],
    [23569,"42858,66667","18,6","0,1","ND","ND","ND","ND"],
    [23570,"42858,70833","21,4","0","ND","ND","ND","ND"],
    [23571,"42858,75","16,1","0,1","ND","ND","ND","ND"],
    [23572,"42858,79167","6,7","0,1","ND","ND","ND","ND"],
    [23573,"42858,83333","7,1","0,1","ND","ND","ND","ND"],
    [23574,"42858,875","12,2","0","ND","ND","ND","ND"],
    [23575,"42858,91667","8,5","0","ND","ND","ND","ND"],
    [23576,"42858,95833","10,7","0","ND","ND","ND","ND"],
    [23577,"42889","34,3","0","ND","ND","ND","ND"],
    [23578,"42889,04167","25,6","0,1","ND","ND","ND","ND"],
    [23579,"42889,08333","31,1","0,1","ND","ND","ND","ND"],
    [23580,"42889,125","20,7","0","ND","ND","ND","ND"],
    [23581,"42889,16667","27","0","ND","ND","ND","ND"],
    [23582,"42889,20833","26,6","0,1","ND","ND","ND","ND"],
    [23583,"42889,25","38,8","0,1","ND","ND","ND","ND"],
    [23584,"42889,29167","41,2","0,3","ND","ND","ND","ND"],
    [23585,"42889,33333","51,1","0,2","ND","ND","ND","ND"],
    [23586,"42889,375","28,4","0,3","ND","ND","ND","ND"],
    [23587,"42889,41667","42,6","0,2","ND","ND","ND","ND"],
    [23588,"42889,45833","61,7","0,1","ND","ND","ND","ND"],
    [23589,"42889,5","33,2","0,1","ND","ND","ND","ND"],
    [23590,"42889,54167","23,4","0,3","ND","ND","ND","ND"],
    [23591,"42889,58333","26,9","0,3","ND","ND","ND","ND"],
    [23592,"42889,625","34,3","0,2","ND","ND","ND","ND"],
    [23593,"42889,66667","33,7","0,2","ND","ND","ND","ND"],
    [23594,"42889,70833","35,5","0,1","ND","ND","ND","ND"],
    [23595,"42889,75","16,7","0,1","ND","ND","ND","ND"],
    [23596,"42889,79167","15,9","0,1","ND","ND","ND","ND"],
    [23597,"42889,83333","12,1","0,1","ND","ND","ND","ND"],
    [23598,"42889,875","15,1","0,1","ND","ND","ND","ND"],
    [23599,"42889,91667","7,4","0,2","ND","ND","ND","ND"],
    [23600,"42889,95833","21,4","0,2","ND","ND","ND","ND"],
    [23601,"42919","22,6","0,2","ND","ND","ND","ND"],
    [23602,"42919,04167","27,3","0,1","ND","ND","ND","ND"],
    [23603,"42919,08333","17,9","0,1","ND","ND","ND","ND"],
    [23604,"42919,125","14,5","0,1","ND","ND","ND","ND"],
    [23605,"42919,16667","15,4","0","ND","ND","ND","ND"],
    [23606,"42919,20833","22,6","0,1","ND","ND","ND","ND"],
    [23607,"42919,25","35,9","0,1","ND","ND","ND","ND"],
    [23608,"42919,29167","29,2","0,2","ND","ND","ND","ND"],
    [23609,"42919,33333","43,9","0,5","ND","ND","ND","ND"],
    [23610,"42919,375","39,8","0,2","ND","ND","ND","ND"],
    [23611,"42919,41667","17,6","0,2","ND","ND","ND","ND"],
    [23612,"42919,45833","15,6","0,2","ND","ND","ND","ND"],
    [23613,"42919,5","14,7","0,1","ND","ND","ND","ND"],
    [23614,"42919,54167","27,2","0,1","ND","ND","ND","ND"],
    [23615,"42919,58333","34,5","0,2","ND","ND","ND","ND"],
    [23616,"42919,625","28,5","0,6","ND","ND","ND","ND"],
    [23617,"42919,66667","37,5","0,1","ND","ND","ND","ND"],
    [23618,"42919,70833","30,1","0,1","ND","ND","ND","ND"],
    [23619,"42919,75","19,1","0,1","ND","ND","ND","ND"],
    [23620,"42919,79167","28,6","0,1","ND","ND","ND","ND"],
    [23621,"42919,83333","32,7","0,4","ND","ND","ND","ND"],
    [23622,"42919,875","59","0,4","ND","ND","ND","ND"],
    [23623,"42919,91667","61","0,5","ND","ND","ND","ND"],
    [23624,"42919,95833","53,8","0,3","ND","ND","ND","ND"],
    [23625,"42950","40,5","0,2","ND","ND","ND","ND"],
    [23626,"42950,04167","36,5","0,2","ND","ND","ND","ND"],
    [23627,"42950,08333","36,1","0,1","ND","ND","ND","ND"],
    [23628,"42950,125","29","0,1","ND","ND","ND","ND"],
    [23629,"42950,16667","19,1","0,1","ND","ND","ND","ND"],
    [23630,"42950,20833","14,4","0,1","ND","ND","ND","ND"],
    [23631,"42950,25","13,3","0,1","ND","ND","ND","ND"],
    [23632,"42950,29167","13,9","0,2","ND","ND","ND","ND"],
    [23633,"42950,33333","18,6","0,3","ND","ND","ND","ND"],
    [23634,"42950,375","20,3","0,3","ND","ND","ND","ND"],
    [23635,"42950,41667","14,2","0,2","ND","ND","ND","ND"],
    [23636,"42950,45833","8,9","0,2","ND","ND","ND","ND"],
    [23637,"42950,5","20,2","0,7","ND","ND","ND","ND"],
    [23638,"42950,54167","44,7","1,2","ND","ND","ND","ND"],
    [23639,"42950,58333","45,6","2,3","ND","ND","ND","ND"],
    [23640,"42950,625","53,3","3,5","ND","ND","ND","ND"],
    [23641,"42950,66667","45,4","2,9","ND","ND","ND","ND"],
    [23642,"42950,70833","44,6","1,9","ND","ND","ND","ND"],
    [23643,"42950,75","44,9","1,6","ND","ND","ND","ND"],
    [23644,"42950,79167","50,2","1,8","ND","ND","ND","ND"],
    [23645,"42950,83333","72,5","1,4","ND","ND","ND","ND"],
    [23646,"42950,875","72,2","1,3","ND","ND","ND","ND"],
    [23647,"42950,91667","59,2","1,3","ND","ND","ND","ND"],
    [23648,"42950,95833","56,4","1","ND","ND","ND","ND"],
    [23649,"42981","51,6","0,8","ND","ND","ND","ND"],
    [23650,"42981,04167","37,4","0,3","ND","ND","ND","ND"],
    [23651,"42981,08333","32","0,2","ND","ND","ND","ND"],
    [23652,"42981,125","29,3","0,1","ND","ND","ND","ND"],
    [23653,"42981,16667","31,2","0,1","ND","ND","ND","ND"],
    [23654,"42981,20833","26,8","0,1","ND","ND","ND","ND"],
    [23655,"42981,25","36,3","0,2","ND","ND","ND","ND"],
    [23656,"42981,29167","51,7","0,5","ND","ND","ND","ND"],
    [23657,"42981,33333","61,3","0,5","ND","ND","ND","ND"],
    [23658,"42981,375","65,1","0,8","ND","ND","ND","ND"],
    [23659,"42981,41667","55,3","0,9","ND","ND","ND","ND"],
    [23660,"42981,45833","42,6","0,2","ND","ND","ND","ND"],
    [23661,"42981,5","39,6","0,4","ND","ND","ND","ND"],
    [23662,"42981,54167","47,8","0,4","ND","ND","ND","ND"],
    [23663,"42981,58333","46,9","0,4","ND","ND","ND","ND"],
    [23664,"42981,625","16,8","0,6","ND","ND","ND","ND"],
    [23665,"42981,66667","7","0,2","ND","ND","ND","ND"],
    [23666,"42981,70833","20,2","0,1","ND","ND","ND","ND"],
    [23667,"42981,75","10,7","0,2","ND","ND","ND","ND"],
    [23668,"42981,79167","33,7","0,7","ND","ND","ND","ND"],
    [23669,"42981,83333","33,2","0,8","ND","ND","ND","ND"],
    [23670,"42981,875","61,7","0,4","ND","ND","ND","ND"],
    [23671,"42981,91667","60,2","0,6","ND","ND","ND","ND"],
    [23672,"42981,95833","53,8","0,4","ND","ND","ND","ND"],
    [23673,"43011","38,4","0,3","ND","ND","ND","ND"],
    [23674,"43011,04167","28,1","0,2","ND","ND","ND","ND"],
    [23675,"43011,08333","36,9","0,2","ND","ND","ND","ND"],
    [23676,"43011,125","24,2","0,2","ND","ND","ND","ND"],
    [23677,"43011,16667","29,8","0,1","ND","ND","ND","ND"],
    [23678,"43011,20833","24,8","0,1","ND","ND","ND","ND"],
    [23679,"43011,25","4","0,1","ND","ND","ND","ND"],
    [23680,"43011,29167","5,7","0,1","ND","ND","ND","ND"],
    [23681,"43011,33333","8,9","0,4","ND","ND","ND","ND"],
    [23682,"43011,375","17,3","0,3","ND","ND","ND","ND"],
    [23683,"43011,41667","21","0,3","ND","ND","ND","ND"],
    [23684,"43011,45833","17,5","0,3","ND","ND","ND","ND"],
    [23685,"43011,5","ND","0,3","ND","ND","ND","ND"],
    [23686,"43011,54167","1,5","0,5","ND","ND","ND","ND"],
    [23687,"43011,58333","27,6","0,8","ND","ND","ND","ND"],
    [23688,"43011,625","38,6","2,6","ND","ND","ND","ND"],
    [23689,"43011,66667","36,5","0,9","ND","ND","ND","ND"],
    [23690,"43011,70833","31,7","0,9","ND","ND","ND","ND"],
    [23691,"43011,75","25,6","0,8","ND","ND","ND","ND"],
    [23692,"43011,79167","39,5","0,5","ND","ND","ND","ND"],
    [23693,"43011,83333","44,9","0,3","ND","ND","ND","ND"],
    [23694,"43011,875","35,5","0,3","ND","ND","ND","ND"],
    [23695,"43011,91667","34,9","0,2","ND","ND","ND","ND"],
    [23696,"43011,95833","37,5","0,1","ND","ND","ND","ND"],
    [23697,"43042","29","0,1","ND","ND","ND","ND"],
    [23698,"43042,04167","24,6","0,1","ND","ND","ND","ND"],
    [23699,"43042,08333","26,9","0,1","ND","ND","ND","ND"],
    [23700,"43042,125","22,4","0","ND","ND","ND","ND"],
    [23701,"43042,16667","22,4","0,1","ND","ND","ND","ND"],
    [23702,"43042,20833","28,9","0,1","ND","ND","ND","ND"],
    [23703,"43042,25","26,8","0,1","ND","ND","ND","ND"],
    [23704,"43042,29167","39,7","0,2","ND","ND","ND","ND"],
    [23705,"43042,33333","47,5","0,3","ND","ND","ND","ND"],
    [23706,"43042,375","55,6","0,3","ND","ND","ND","ND"],
    [23707,"43042,41667","62,6","0,4","ND","ND","ND","ND"],
    [23708,"43042,45833","45,9","1,1","ND","ND","ND","ND"],
    [23709,"43042,5","50,2","1,6","ND","ND","ND","ND"],
    [23710,"43042,54167","41,3","1,2","ND","ND","ND","ND"],
    [23711,"43042,58333","26,7","0,2","ND","ND","ND","ND"],
    [23712,"43042,625","5,6","0,1","ND","ND","ND","ND"],
    [23713,"43042,66667","ND","0,1","ND","ND","ND","ND"],
    [23714,"43042,70833","8,4","0","ND","ND","ND","ND"],
    [23715,"43042,75","13,3","0,1","ND","ND","ND","ND"],
    [23716,"43042,79167","23,4","0,2","ND","ND","ND","ND"],
    [23717,"43042,83333","11","0,1","ND","ND","ND","ND"],
    [23718,"43042,875","16,9","0,1","ND","ND","ND","ND"],
    [23719,"43042,91667","13,2","0,1","ND","ND","ND","ND"],
    [23720,"43042,95833","13,6","0,1","ND","ND","ND","ND"],
    [23721,"43072","11","0,1","ND","ND","ND","ND"],
    [23722,"43072,04167","13,6","0,1","ND","ND","ND","ND"],
    [23723,"43072,08333","7,2","0,1","ND","ND","ND","ND"],
    [23724,"43072,125","4,5","0,1","ND","ND","ND","ND"],
    [23725,"43072,16667","6,5","0,1","ND","ND","ND","ND"],
    [23726,"43072,20833","7,7","0,1","ND","ND","ND","ND"],
    [23727,"43072,25","8,3","0,1","ND","ND","ND","ND"],
    [23728,"43072,29167","8,2","0,1","ND","ND","ND","ND"],
    [23729,"43072,33333","16,8","0,1","ND","ND","ND","ND"],
    [23730,"43072,375","12,7","0,1","ND","ND","ND","ND"],
    [23731,"43072,41667","13,4","0,2","ND","ND","ND","ND"],
    [23732,"43072,45833","13,3","0,2","ND","ND","ND","ND"],
    [23733,"43072,5","11","0,1","ND","ND","ND","ND"],
    [23734,"43072,54167","7","0,1","ND","ND","ND","ND"],
    [23735,"43072,58333","5,1","0,1","ND","ND","ND","ND"],
    [23736,"43072,625","8,9","0,1","ND","ND","ND","ND"],
    [23737,"43072,66667","26,5","0,1","ND","ND","ND","ND"],
    [23738,"43072,70833","11,6","0,1","ND","ND","ND","ND"],
    [23739,"43072,75","7,3","0,2","ND","ND","ND","ND"],
    [23740,"43072,79167","32,8","0,2","ND","ND","ND","ND"],
    [23741,"43072,83333","51,9","0,1","ND","ND","ND","ND"],
    [23742,"43072,875","30,9","0,1","ND","ND","ND","ND"],
    [23743,"43072,91667","28,5","0,1","ND","ND","ND","ND"],
    [23744,"43072,95833","22,7","0,1","ND","ND","ND","ND"],
    [23745,"03/13/2017 00:00","18,3","0,1","ND","ND","ND","ND"],
    [23746,"03/13/2017 01:00","25,6","0,1","ND","ND","ND","ND"],
    [23747,"03/13/2017 02:00","24,4","0,1","ND","ND","ND","ND"],
    [23748,"03/13/2017 03:00","25,8","0,1","ND","ND","ND","ND"],
    [23749,"03/13/2017 04:00","19","0,1","ND","ND","ND","ND"],
    [23750,"03/13/2017 05:00","18,5","0,2","ND","ND","ND","ND"],
    [23751,"03/13/2017 06:00","16,8","0,1","ND","ND","ND","ND"],
    [23752,"03/13/2017 07:00","34","0,3","ND","ND","ND","ND"],
    [23753,"03/13/2017 08:00","49,3","0,5","ND","ND","ND","ND"],
    [23754,"03/13/2017 09:00","59,6","0,5","ND","ND","ND","ND"],
    [23755,"03/13/2017 10:00","69,5","0,4","ND","ND","ND","ND"],
    [23756,"03/13/2017 11:00","61,7","0,3","ND","ND","ND","ND"],
    [23757,"03/13/2017 12:00","52,2","0,6","ND","ND","ND","ND"],
    [23758,"03/13/2017 13:00","38,3","0,9","ND","ND","ND","ND"],
    [23759,"03/13/2017 14:00","36,1","2,3","ND","ND","ND","ND"],
    [23760,"03/13/2017 15:00","43,8","2,9","ND","ND","ND","ND"],
    [23761,"03/13/2017 16:00","44,3","1,5","ND","ND","ND","ND"],
    [23762,"03/13/2017 17:00","42,2","0,2","ND","ND","ND","ND"],
    [23763,"03/13/2017 18:00","19","0,1","ND","ND","ND","ND"],
    [23764,"03/13/2017 19:00","7,3","0,2","ND","ND","ND","ND"],
    [23765,"03/13/2017 20:00","18,7","0,5","ND","ND","ND","ND"],
    [23766,"03/13/2017 21:00","34,2","0,3","ND","ND","ND","ND"],
    [23767,"03/13/2017 22:00","19","0,3","ND","ND","ND","ND"],
    [23768,"03/13/2017 23:00","25","0,2","ND","ND","ND","ND"],
    [23769,"03/14/2017 00:00","16,5","0,1","ND","ND","ND","ND"],
    [23770,"03/14/2017 01:00","14,2","0,1","ND","ND","ND","ND"],
    [23771,"03/14/2017 02:00","15,6","0,1","ND","ND","ND","ND"],
    [23772,"03/14/2017 03:00","12,4","0,1","ND","ND","ND","ND"],
    [23773,"03/14/2017 04:00","19,6","0","ND","ND","ND","ND"],
    [23774,"03/14/2017 05:00","18,9","0,2","ND","ND","ND","ND"],
    [23775,"03/14/2017 06:00","19,8","0,1","ND","ND","ND","ND"],
    [23776,"03/14/2017 07:00","27,3","0,1","ND","ND","ND","ND"],
    [23777,"03/14/2017 08:00","30,9","0,3","ND","ND","ND","ND"],
    [23778,"03/14/2017 09:00","47,5","0,3","ND","ND","ND","ND"],
    [23779,"03/14/2017 10:00","53,5","0,3","ND","ND","ND","ND"],
    [23780,"03/14/2017 11:00","53,8","0,2","ND","ND","ND","ND"],
    [23781,"03/14/2017 12:00","31,1","0,2","ND","ND","ND","ND"],
    [23782,"03/14/2017 13:00","26,2","0,2","ND","ND","ND","ND"],
    [23783,"03/14/2017 14:00","35,4","0,1","ND","ND","ND","ND"],
    [23784,"03/14/2017 15:00","ND","0,1","ND","ND","ND","ND"],
    [23785,"03/14/2017 16:00","ND","0","ND","ND","ND","ND"],
    [23786,"03/14/2017 17:00","ND","0,1","ND","ND","ND","ND"],
    [23787,"03/14/2017 18:00","45,4","0,3","ND","ND","ND","ND"],
    [23788,"03/14/2017 19:00","27,8","0,3","ND","ND","ND","ND"],
    [23789,"03/14/2017 20:00","26,4","0,2","ND","ND","ND","ND"],
    [23790,"03/14/2017 21:00","22,9","0,2","ND","ND","ND","ND"],
    [23791,"03/14/2017 22:00","21,8","0,2","ND","ND","ND","ND"],
    [23792,"03/14/2017 23:00","49,8","0,4","ND","ND","ND","ND"],
    [23793,"03/15/2017 00:00","41,6","0,4","ND","ND","ND","ND"],
    [23794,"03/15/2017 01:00","36,2","0,3","ND","ND","ND","ND"],
    [23795,"03/15/2017 02:00","35,3","0,2","ND","ND","ND","ND"],
    [23796,"03/15/2017 03:00","25,6","0,1","ND","ND","ND","ND"],
    [23797,"03/15/2017 04:00","27,2","0,2","ND","ND","ND","ND"],
    [23798,"03/15/2017 05:00","24,3","0,1","ND","ND","ND","ND"],
    [23799,"03/15/2017 06:00","29,7","0,3","ND","ND","ND","ND"],
    [23800,"03/15/2017 07:00","34,8","0,4","ND","ND","ND","ND"],
    [23801,"03/15/2017 08:00","52,5","0,6","ND","ND","ND","ND"],
    [23802,"03/15/2017 09:00","50,7","0,7","ND","ND","ND","ND"],
    [23803,"03/15/2017 10:00","53","0,7","ND","ND","ND","ND"],
    [23804,"03/15/2017 11:00","29,2","0,3","ND","ND","ND","ND"],
    [23805,"03/15/2017 12:00","15,9","0,4","ND","ND","ND","ND"],
    [23806,"03/15/2017 13:00","8,6","0,3","ND","ND","ND","ND"],
    [23807,"03/15/2017 14:00","13,3","0,2","ND","ND","ND","ND"],
    [23808,"03/15/2017 15:00","22,5","0,2","ND","ND","ND","ND"],
    [23809,"03/15/2017 16:00","14","0,2","ND","ND","ND","ND"],
    [23810,"03/15/2017 17:00","28,6","0,2","ND","ND","ND","ND"],
    [23811,"03/15/2017 18:00","28,9","0,2","ND","ND","ND","ND"],
    [23812,"03/15/2017 19:00","41","0,3","ND","ND","ND","ND"],
    [23813,"03/15/2017 20:00","51,4","0,4","ND","ND","ND","ND"],
    [23814,"03/15/2017 21:00","45,6","0,3","ND","ND","ND","ND"],
    [23815,"03/15/2017 22:00","33,2","0,5","ND","ND","ND","ND"],
    [23816,"03/15/2017 23:00","22,9","0,2","ND","ND","ND","ND"],
    [23817,"03/16/2017 00:00","26,3","0,1","ND","ND","ND","ND"],
    [23818,"03/16/2017 01:00","14,4","0,1","ND","ND","ND","ND"],
    [23819,"03/16/2017 02:00","18,1","0,1","ND","ND","ND","ND"],
    [23820,"03/16/2017 03:00","17,7","0,1","ND","ND","ND","ND"],
    [23821,"03/16/2017 04:00","15,7","0,1","ND","ND","ND","ND"],
    [23822,"03/16/2017 05:00","18,7","0,1","ND","ND","ND","ND"],
    [23823,"03/16/2017 06:00","28,3","0,2","ND","ND","ND","ND"],
    [23824,"03/16/2017 07:00","76","0,6","ND","ND","ND","ND"],
    [23825,"03/16/2017 08:00","69,7","0,5","ND","ND","ND","ND"],
    [23826,"03/16/2017 09:00","67,1","1,8","ND","ND","ND","ND"],
    [23827,"03/16/2017 10:00","118,6","5,3","ND","ND","ND","ND"],
    [23828,"03/16/2017 11:00","79,5","4,7","ND","ND","ND","ND"],
    [23829,"03/16/2017 12:00","41,9","2,9","ND","ND","ND","ND"],
    [23830,"03/16/2017 13:00","39,4","1,9","ND","ND","ND","ND"],
    [23831,"03/16/2017 14:00","42,6","1,4","ND","ND","ND","ND"],
    [23832,"03/16/2017 15:00","38,7","1,2","ND","ND","ND","ND"],
    [23833,"03/16/2017 16:00","42","0,5","ND","ND","ND","ND"],
    [23834,"03/16/2017 17:00","30,7","0,2","ND","ND","ND","ND"],
    [23835,"03/16/2017 18:00","20,8","0,1","ND","ND","ND","ND"],
    [23836,"03/16/2017 19:00","23,3","0,2","ND","ND","ND","ND"],
    [23837,"03/16/2017 20:00","21,2","0,1","ND","ND","ND","ND"],
    [23838,"03/16/2017 21:00","16,5","0","ND","ND","ND","ND"],
    [23839,"03/16/2017 22:00","15,7","0,2","ND","ND","ND","ND"],
    [23840,"03/16/2017 23:00","38,5","0,3","ND","ND","ND","ND"],
    [23841,"03/17/2017 00:00","39,4","0,2","ND","ND","ND","ND"],
    [23842,"03/17/2017 01:00","40,7","0,1","ND","ND","ND","ND"],
    [23843,"03/17/2017 02:00","30","0,1","ND","ND","ND","ND"],
    [23844,"03/17/2017 03:00","28,3","0,1","ND","ND","ND","ND"],
    [23845,"03/17/2017 04:00","28,3","0,1","ND","ND","ND","ND"],
    [23846,"03/17/2017 05:00","27,5","0,1","ND","ND","ND","ND"],
    [23847,"03/17/2017 06:00","29,4","0,4","ND","ND","ND","ND"],
    [23848,"03/17/2017 07:00","19,5","0,4","ND","ND","ND","ND"],
    [23849,"03/17/2017 08:00","26,9","0,4","ND","ND","ND","ND"],
    [23850,"03/17/2017 09:00","26,2","0,7","ND","ND","ND","ND"],
    [23851,"03/17/2017 10:00","34,2","1","ND","ND","ND","ND"],
    [23852,"03/17/2017 11:00","43,4","1,3","ND","ND","ND","ND"],
    [23853,"03/17/2017 12:00","30,2","2,3","ND","ND","ND","ND"],
    [23854,"03/17/2017 13:00","25,7","1,3","ND","ND","ND","ND"],
    [23855,"03/17/2017 14:00","29,9","1,2","ND","ND","ND","ND"],
    [23856,"03/17/2017 15:00","23,4","0,9","ND","ND","ND","ND"],
    [23857,"03/17/2017 16:00","29,9","0,7","ND","ND","ND","ND"],
    [23858,"03/17/2017 17:00","23,9","0,5","ND","ND","ND","ND"],
    [23859,"03/17/2017 18:00","16,7","0,1","ND","ND","ND","ND"],
    [23860,"03/17/2017 19:00","16,1","0,2","ND","ND","ND","ND"],
    [23861,"03/17/2017 20:00","16,6","0,2","ND","ND","ND","ND"],
    [23862,"03/17/2017 21:00","15,7","0,2","ND","ND","ND","ND"],
    [23863,"03/17/2017 22:00","18,5","0,1","ND","ND","ND","ND"],
    [23864,"03/17/2017 23:00","9,3","0,2","ND","ND","ND","ND"],
    [23865,"03/18/2017 00:00","33,5","0,3","ND","ND","ND","ND"],
    [23866,"03/18/2017 01:00","48,6","0,2","ND","ND","ND","ND"],
    [23867,"03/18/2017 02:00","35,7","0,2","ND","ND","ND","ND"],
    [23868,"03/18/2017 03:00","33","0,2","ND","ND","ND","ND"],
    [23869,"03/18/2017 04:00","34,7","0,1","ND","ND","ND","ND"],
    [23870,"03/18/2017 05:00","26,4","0,1","ND","ND","ND","ND"],
    [23871,"03/18/2017 06:00","28,2","0,1","ND","ND","ND","ND"],
    [23872,"03/18/2017 07:00","28,9","0,3","ND","ND","ND","ND"],
    [23873,"03/18/2017 08:00","41,6","0,3","ND","ND","ND","ND"],
    [23874,"03/18/2017 09:00","43,4","2,3","ND","ND","ND","ND"],
    [23875,"03/18/2017 10:00","46,4","2,9","ND","ND","ND","ND"],
    [23876,"03/18/2017 11:00","40,5","3,2","ND","ND","ND","ND"],
    [23877,"03/18/2017 12:00","31,4","3,3","ND","ND","ND","ND"],
    [23878,"03/18/2017 13:00","17,9","1,5","ND","ND","ND","ND"],
    [23879,"03/18/2017 14:00","7,4","1","ND","ND","ND","ND"],
    [23880,"03/18/2017 15:00","20,9","0,7","ND","ND","ND","ND"],
    [23881,"03/18/2017 16:00","21,6","0,5","ND","ND","ND","ND"],
    [23882,"03/18/2017 17:00","26","0,3","ND","ND","ND","ND"],
    [23883,"03/18/2017 18:00","37,4","0,1","ND","ND","ND","ND"],
    [23884,"03/18/2017 19:00","37,9","0,3","ND","ND","ND","ND"],
    [23885,"03/18/2017 20:00","32,8","0,3","ND","ND","ND","ND"],
    [23886,"03/18/2017 21:00","27,6","0,4","ND","ND","ND","ND"],
    [23887,"03/18/2017 22:00","31,5","0,2","ND","ND","ND","ND"],
    [23888,"03/18/2017 23:00","29,1","0,3","ND","ND","ND","ND"],
    [23889,"03/19/2017 00:00","45,7","0,2","ND","ND","ND","ND"],
    [23890,"03/19/2017 01:00","37,5","0,2","ND","ND","ND","ND"],
    [23891,"03/19/2017 02:00","36,4","0,1","ND","ND","ND","ND"],
    [23892,"03/19/2017 03:00","25,6","0,2","ND","ND","ND","ND"],
    [23893,"03/19/2017 04:00","36,1","0,1","ND","ND","ND","ND"],
    [23894,"03/19/2017 05:00","35,8","0,1","ND","ND","ND","ND"],
    [23895,"03/19/2017 06:00","27,1","0,1","ND","ND","ND","ND"],
    [23896,"03/19/2017 07:00","24,4","0,1","ND","ND","ND","ND"],
    [23897,"03/19/2017 08:00","17","0,1","ND","ND","ND","ND"],
    [23898,"03/19/2017 09:00","18,5","0,1","ND","ND","ND","ND"],
    [23899,"03/19/2017 10:00","23,5","0,2","ND","ND","ND","ND"],
    [23900,"03/19/2017 11:00","32,9","0,3","ND","ND","ND","ND"],
    [23901,"03/19/2017 12:00","31,8","0,4","ND","ND","ND","ND"],
    [23902,"03/19/2017 13:00","29,5","0,2","ND","ND","ND","ND"],
    [23903,"03/19/2017 14:00","24","0,2","ND","ND","ND","ND"],
    [23904,"03/19/2017 15:00","27,4","0,2","ND","ND","ND","ND"],
    [23905,"03/19/2017 16:00","38","0,1","ND","ND","ND","ND"],
    [23906,"03/19/2017 17:00","29,6","0,2","ND","ND","ND","ND"],
    [23907,"03/19/2017 18:00","35,8","0,2","ND","ND","ND","ND"],
    [23908,"03/19/2017 19:00","27,7","0,2","ND","ND","ND","ND"],
    [23909,"03/19/2017 20:00","37,1","0,2","ND","ND","ND","ND"],
    [23910,"03/19/2017 21:00","45,8","0,2","ND","ND","ND","ND"],
    [23911,"03/19/2017 22:00","50,8","0,3","ND","ND","ND","ND"],
    [23912,"03/19/2017 23:00","58,7","0,2","ND","ND","ND","ND"],
    [23913,"03/20/2017 00:00","41,3","0,1","ND","ND","ND","ND"],
    [23914,"03/20/2017 01:00","32,5","0,1","ND","ND","ND","ND"],
    [23915,"03/20/2017 02:00","27,9","0","ND","ND","ND","ND"],
    [23916,"03/20/2017 03:00","33,3","0","ND","ND","ND","ND"],
    [23917,"03/20/2017 04:00","27,6","0","ND","ND","ND","ND"],
    [23918,"03/20/2017 05:00","36,3","0,1","ND","ND","ND","ND"],
    [23919,"03/20/2017 06:00","32,7","0,1","ND","ND","ND","ND"],
    [23920,"03/20/2017 07:00","43,2","0","ND","ND","ND","ND"],
    [23921,"03/20/2017 08:00","35,7","0,1","ND","ND","ND","ND"],
    [23922,"03/20/2017 09:00","34,1","0,1","ND","ND","ND","ND"],
    [23923,"03/20/2017 10:00","29,3","0,1","ND","ND","ND","ND"],
    [23924,"03/20/2017 11:00","33,3","0,3","ND","ND","ND","ND"],
    [23925,"03/20/2017 12:00","13,6","0,3","ND","ND","ND","ND"],
    [23926,"03/20/2017 13:00","26,6","0,2","ND","ND","ND","ND"],
    [23927,"03/20/2017 14:00","18,9","0,2","ND","ND","ND","ND"],
    [23928,"03/20/2017 15:00","18,9","0,3","ND","ND","ND","ND"],
    [23929,"03/20/2017 16:00","29,2","0,1","ND","ND","ND","ND"],
    [23930,"03/20/2017 17:00","17,3","0","ND","ND","ND","ND"],
    [23931,"03/20/2017 18:00","7,7","0","ND","ND","ND","ND"],
    [23932,"03/20/2017 19:00","0,5","0,1","ND","ND","ND","ND"],
    [23933,"03/20/2017 20:00","40,6","0,1","ND","ND","ND","ND"],
    [23934,"03/20/2017 21:00","25,1","0,1","ND","ND","ND","ND"],
    [23935,"03/20/2017 22:00","28,6","0,1","ND","ND","ND","ND"],
    [23936,"03/20/2017 23:00","20,7","0,1","ND","ND","ND","ND"],
    [23937,"03/21/2017 00:00","21","0,1","ND","ND","ND","ND"],
    [23938,"03/21/2017 01:00","20,1","0","ND","ND","ND","ND"],
    [23939,"03/21/2017 02:00","14,1","0","ND","ND","ND","ND"],
    [23940,"03/21/2017 03:00","29,6","0","ND","ND","ND","ND"],
    [23941,"03/21/2017 04:00","29","0","ND","ND","ND","ND"],
    [23942,"03/21/2017 05:00","28,5","0,1","ND","ND","ND","ND"],
    [23943,"03/21/2017 06:00","33,8","0,2","ND","ND","ND","ND"],
    [23944,"03/21/2017 07:00","36,6","0,3","ND","ND","ND","ND"],
    [23945,"03/21/2017 08:00","85,8","0,6","ND","ND","ND","ND"],
    [23946,"03/21/2017 09:00","79,4","1","ND","ND","ND","ND"],
    [23947,"03/21/2017 10:00","95,9","1,9","ND","ND","ND","ND"],
    [23948,"03/21/2017 11:00","66,1","4,6","ND","ND","ND","ND"],
    [23949,"03/21/2017 12:00","41,5","3,7","ND","ND","ND","ND"],
    [23950,"03/21/2017 13:00","37,5","2,7","ND","ND","ND","ND"],
    [23951,"03/21/2017 14:00","37,4","1,5","ND","ND","ND","ND"],
    [23952,"03/21/2017 15:00","39","1,1","ND","ND","ND","ND"],
    [23953,"03/21/2017 16:00","46,2","0,9","ND","ND","ND","ND"],
    [23954,"03/21/2017 17:00","34,9","0,3","ND","ND","ND","ND"],
    [23955,"03/21/2017 18:00","21,6","0,3","ND","ND","ND","ND"],
    [23956,"03/21/2017 19:00","9,9","0,5","ND","ND","ND","ND"],
    [23957,"03/21/2017 20:00","29,9","0,5","ND","ND","ND","ND"],
    [23958,"03/21/2017 21:00","44,2","0,5","ND","ND","ND","ND"],
    [23959,"03/21/2017 22:00","40","0,4","ND","ND","ND","ND"],
    [23960,"03/21/2017 23:00","43,5","0,3","ND","ND","ND","ND"],
    [23961,"03/22/2017 00:00","38,5","0,3","ND","ND","ND","ND"],
    [23962,"03/22/2017 01:00","45,2","0,2","ND","ND","ND","ND"],
    [23963,"03/22/2017 02:00","34,3","0,1","ND","ND","ND","ND"],
    [23964,"03/22/2017 03:00","32,8","0,1","ND","ND","ND","ND"],
    [23965,"03/22/2017 04:00","26,4","0,1","ND","ND","ND","ND"],
    [23966,"03/22/2017 05:00","32,6","0,2","ND","ND","ND","ND"],
    [23967,"03/22/2017 06:00","51,3","0,2","ND","ND","ND","ND"],
    [23968,"03/22/2017 07:00","34,5","0,4","ND","ND","ND","ND"],
    [23969,"03/22/2017 08:00","41,5","0,6","ND","ND","ND","ND"],
    [23970,"03/22/2017 09:00","40,2","0,6","ND","ND","ND","ND"],
    [23971,"03/22/2017 10:00","42,8","0,4","ND","ND","ND","ND"],
    [23972,"03/22/2017 11:00","42,3","0,3","ND","ND","ND","ND"],
    [23973,"03/22/2017 12:00","26,5","0,9","ND","ND","ND","ND"],
    [23974,"03/22/2017 13:00","27,1","0,4","ND","ND","ND","ND"],
    [23975,"03/22/2017 14:00","31,6","0,3","ND","ND","ND","ND"],
    [23976,"03/22/2017 15:00","16,7","0,1","ND","ND","ND","ND"],
    [23977,"03/22/2017 16:00","16,2","0,1","ND","ND","ND","ND"],
    [23978,"03/22/2017 17:00","7,9","0,3","ND","ND","ND","ND"],
    [23979,"03/22/2017 18:00","31,8","0,2","ND","ND","ND","ND"],
    [23980,"03/22/2017 19:00","30,7","0,3","ND","ND","ND","ND"],
    [23981,"03/22/2017 20:00","25","0,5","ND","ND","ND","ND"],
    [23982,"03/22/2017 21:00","28,1","0,4","ND","ND","ND","ND"],
    [23983,"03/22/2017 22:00","27","0,2","ND","ND","ND","ND"],
    [23984,"03/22/2017 23:00","23,4","0,3","ND","ND","ND","ND"],
    [23985,"03/23/2017 00:00","34,1","0,3","ND","ND","ND","ND"],
    [23986,"03/23/2017 01:00","18,3","0,2","ND","ND","ND","ND"],
    [23987,"03/23/2017 02:00","16,4","0,1","ND","ND","ND","ND"],
    [23988,"03/23/2017 03:00","16,1","0,1","ND","ND","ND","ND"],
    [23989,"03/23/2017 04:00","18,4","0,1","ND","ND","ND","ND"],
    [23990,"03/23/2017 05:00","22,5","0,1","ND","ND","ND","ND"],
    [23991,"03/23/2017 06:00","27,3","0,1","ND","ND","ND","ND"],
    [23992,"03/23/2017 07:00","41,4","0,4","ND","ND","ND","ND"],
    [23993,"03/23/2017 08:00","62","1,1","ND","ND","ND","ND"],
    [23994,"03/23/2017 09:00","62,5","2,9","ND","ND","ND","ND"],
    [23995,"03/23/2017 10:00","63,2","2,5","ND","ND","ND","ND"],
    [23996,"03/23/2017 11:00","43,3","2,5","ND","ND","ND","ND"],
    [23997,"03/23/2017 12:00","26,7","0,9","ND","ND","ND","ND"],
    [23998,"03/23/2017 13:00","23,7","1,2","ND","ND","ND","ND"],
    [23999,"03/23/2017 14:00","31","1,5","ND","ND","ND","ND"],
    [24000,"03/23/2017 15:00","34,3","1,6","ND","ND","ND","ND"],
    [24001,"03/23/2017 16:00","36,3","1,1","ND","ND","ND","ND"],
    [24002,"03/23/2017 17:00","11,4","0,3","ND","ND","ND","ND"],
    [24003,"03/23/2017 18:00","12,6","0,5","ND","ND","ND","ND"],
    [24004,"03/23/2017 19:00","7,4","1,1","ND","ND","ND","ND"],
    [24005,"03/23/2017 20:00","20,9","1,7","ND","ND","ND","ND"],
    [24006,"03/23/2017 21:00","24,7","1,7","ND","ND","ND","ND"],
    [24007,"03/23/2017 22:00","37,3","2","ND","ND","ND","ND"],
    [24008,"03/23/2017 23:00","60,1","0,5","ND","ND","ND","ND"],
    [24009,"03/24/2017 00:00","32,3","1,2","ND","ND","ND","ND"],
    [24010,"03/24/2017 01:00","24,4","0,6","ND","ND","ND","ND"],
    [24011,"03/24/2017 02:00","14,8","0,2","ND","ND","ND","ND"],
    [24012,"03/24/2017 03:00","16,7","0,1","ND","ND","ND","ND"],
    [24013,"03/24/2017 04:00","12,3","0,1","ND","ND","ND","ND"],
    [24014,"03/24/2017 05:00","18,5","0,2","ND","ND","ND","ND"],
    [24015,"03/24/2017 06:00","24","0,4","ND","ND","ND","ND"],
    [24016,"03/24/2017 07:00","29,1","1,4","ND","ND","ND","ND"],
    [24017,"03/24/2017 08:00","18,3","3,5","ND","ND","ND","ND"],
    [24018,"03/24/2017 09:00","10,5","1,9","ND","ND","ND","ND"],
    [24019,"03/24/2017 10:00","10,3","1,7","ND","ND","ND","ND"],
    [24020,"03/24/2017 11:00","27,1","1,5","ND","ND","ND","ND"],
    [24021,"03/24/2017 12:00","19,5","0,7","ND","ND","ND","ND"],
    [24022,"03/24/2017 13:00","15,9","0,8","ND","ND","ND","ND"],
    [24023,"03/24/2017 14:00","8,9","0,5","ND","ND","ND","ND"],
    [24024,"03/24/2017 15:00","14,8","1","ND","ND","ND","ND"],
    [24025,"03/24/2017 16:00","25,5","2","ND","ND","ND","ND"],
    [24026,"03/24/2017 17:00","29,3","1,4","ND","ND","ND","ND"],
    [24027,"03/24/2017 18:00","45,8","0,9","ND","ND","ND","ND"],
    [24028,"03/24/2017 19:00","6,8","1,3","ND","ND","ND","ND"],
    [24029,"03/24/2017 20:00","9,8","0,8","ND","ND","ND","ND"],
    [24030,"03/24/2017 21:00","10,8","0,7","ND","ND","ND","ND"],
    [24031,"03/24/2017 22:00","15,1","2,3","ND","ND","ND","ND"],
    [24032,"03/24/2017 23:00","30,9","2,1","ND","ND","ND","ND"],
    [24033,"03/25/2017 00:00","34","1,2","ND","ND","ND","ND"],
    [24034,"03/25/2017 01:00","21,5","0,8","ND","ND","ND","ND"],
    [24035,"03/25/2017 02:00","19,9","0,2","ND","ND","ND","ND"],
    [24036,"03/25/2017 03:00","21,3","0,3","ND","ND","ND","ND"],
    [24037,"03/25/2017 04:00","28,4","0,4","ND","ND","ND","ND"],
    [24038,"03/25/2017 05:00","28,5","0,5","ND","ND","ND","ND"],
    [24039,"03/25/2017 06:00","31,9","0,8","ND","ND","ND","ND"],
    [24040,"03/25/2017 07:00","32","1,3","ND","ND","ND","ND"],
    [24041,"03/25/2017 08:00","35,5","2,6","ND","ND","ND","ND"],
    [24042,"03/25/2017 09:00","50,4","2","ND","ND","ND","ND"],
    [24043,"03/25/2017 10:00","45,9","2","ND","ND","ND","ND"],
    [24044,"03/25/2017 11:00","40,6","1,8","ND","ND","ND","ND"],
    [24045,"03/25/2017 12:00","34,2","1,7","ND","ND","ND","ND"],
    [24046,"03/25/2017 13:00","36,8","1,4","ND","ND","ND","ND"],
    [24047,"03/25/2017 14:00","34,6","2,4","ND","ND","ND","ND"],
    [24048,"03/25/2017 15:00","36,5","1,7","ND","ND","ND","ND"],
    [24049,"03/25/2017 16:00","33,3","1,5","ND","ND","ND","ND"],
    [24050,"03/25/2017 17:00","42,9","1","ND","ND","ND","ND"],
    [24051,"03/25/2017 18:00","32,2","1,8","ND","ND","ND","ND"],
    [24052,"03/25/2017 19:00","31,3","3,7","ND","ND","ND","ND"],
    [24053,"03/25/2017 20:00","39,1","8","ND","ND","ND","ND"],
    [24054,"03/25/2017 21:00","33,8","3,2","ND","ND","ND","ND"],
    [24055,"03/25/2017 22:00","31,4","2,6","ND","ND","ND","ND"],
    [24056,"03/25/2017 23:00","29,4","3,8","ND","ND","ND","ND"],
    [24057,"03/26/2017 00:00","45,2","2,9","ND","ND","ND","ND"],
    [24058,"03/26/2017 01:00","33,1","1,4","ND","ND","ND","ND"],
    [24059,"03/26/2017 02:00","29,5","1","ND","ND","ND","ND"],
    [24060,"03/26/2017 03:00","33,6","0,8","ND","ND","ND","ND"],
    [24061,"03/26/2017 04:00","27","0,2","ND","ND","ND","ND"],
    [24062,"03/26/2017 05:00","22,9","0,3","ND","ND","ND","ND"],
    [24063,"03/26/2017 06:00","18,9","0,2","ND","ND","ND","ND"],
    [24064,"03/26/2017 07:00","20,4","0,3","ND","ND","ND","ND"],
    [24065,"03/26/2017 08:00","11,3","0,3","ND","ND","ND","ND"],
    [24066,"03/26/2017 09:00","18","0,8","ND","ND","ND","ND"],
    [24067,"03/26/2017 10:00","13,3","0,6","ND","ND","ND","ND"],
    [24068,"03/26/2017 11:00","9,7","0,5","ND","ND","ND","ND"],
    [24069,"03/26/2017 12:00","9,9","0,6","ND","ND","ND","ND"],
    [24070,"03/26/2017 13:00","2,5","0,3","ND","ND","ND","ND"],
    [24071,"03/26/2017 14:00","2,3","0,2","ND","ND","ND","ND"],
    [24072,"03/26/2017 15:00","3,2","0,4","ND","ND","ND","ND"],
    [24073,"03/26/2017 16:00","3,8","0,8","ND","ND","ND","ND"],
    [24074,"03/26/2017 17:00","14,2","0,5","ND","ND","ND","ND"],
    [24075,"03/26/2017 18:00","25,5","2,5","ND","ND","ND","ND"],
    [24076,"03/26/2017 19:00","55,9","2,8","ND","ND","ND","ND"],
    [24077,"03/26/2017 20:00","39,1","2,6","ND","ND","ND","ND"],
    [24078,"03/26/2017 21:00","24,1","1,8","ND","ND","ND","ND"],
    [24079,"03/26/2017 22:00","58,3","3,3","ND","ND","ND","ND"],
    [24080,"03/26/2017 23:00","30,5","1","ND","ND","ND","ND"],
    [24081,"03/27/2017 00:00","24,2","0,8","ND","ND","ND","ND"],
    [24082,"03/27/2017 01:00","19,3","0,3","ND","ND","ND","ND"],
    [24083,"03/27/2017 02:00","23,9","0,2","ND","ND","ND","ND"],
    [24084,"03/27/2017 03:00","15,9","0,1","ND","ND","ND","ND"],
    [24085,"03/27/2017 04:00","21,7","0,1","ND","ND","ND","ND"],
    [24086,"03/27/2017 05:00","22,1","0,2","ND","ND","ND","ND"],
    [24087,"03/27/2017 06:00","26,2","0,6","ND","ND","ND","ND"],
    [24088,"03/27/2017 07:00","34,6","2,9","ND","ND","ND","ND"],
    [24089,"03/27/2017 08:00","64,4","8,8","ND","ND","ND","ND"],
    [24090,"03/27/2017 09:00","98,8","6","ND","ND","ND","ND"],
    [24091,"03/27/2017 10:00","87","3,8","ND","ND","ND","ND"],
    [24092,"03/27/2017 11:00","82,8","2,3","ND","ND","ND","ND"],
    [24093,"03/27/2017 12:00","59,9","2,1","ND","ND","ND","ND"],
    [24094,"03/27/2017 13:00","42,1","1,5","ND","ND","ND","ND"],
    [24095,"03/27/2017 14:00","26,3","1","ND","ND","ND","ND"],
    [24096,"03/27/2017 15:00","19,2","1","ND","ND","ND","ND"],
    [24097,"03/27/2017 16:00","26,6","0,9","ND","ND","ND","ND"],
    [24098,"03/27/2017 17:00","27,8","1,4","ND","ND","ND","ND"],
    [24099,"03/27/2017 18:00","39,3","1,4","ND","ND","ND","ND"],
    [24100,"03/27/2017 19:00","32,2","2,5","ND","ND","ND","ND"],
    [24101,"03/27/2017 20:00","57,1","1,8","ND","ND","ND","ND"],
    [24102,"03/27/2017 21:00","52,9","2,9","ND","ND","ND","ND"],
    [24103,"03/27/2017 22:00","39,7","2","ND","ND","ND","ND"],
    [24104,"03/27/2017 23:00","39,2","1,5","ND","ND","ND","ND"],
    [24105,"03/28/2017 00:00","34","0,6","ND","ND","ND","ND"],
    [24106,"03/28/2017 01:00","40,1","0,3","ND","ND","ND","ND"],
    [24107,"03/28/2017 02:00","20,6","0,1","ND","ND","ND","ND"],
    [24108,"03/28/2017 03:00","27,2","0,2","ND","ND","ND","ND"],
    [24109,"03/28/2017 04:00","23,9","0,1","ND","ND","ND","ND"],
    [24110,"03/28/2017 05:00","28,9","0,9","ND","ND","ND","ND"],
    [24111,"03/28/2017 06:00","38,6","0,8","ND","ND","ND","ND"],
    [24112,"03/28/2017 07:00","52,5","4,3","ND","ND","ND","ND"],
    [24113,"03/28/2017 08:00","76","4,3","ND","ND","ND","ND"],
    [24114,"03/28/2017 09:00","58","2","ND","ND","ND","ND"],
    [24115,"03/28/2017 10:00","58,7","1,7","ND","ND","ND","ND"],
    [24116,"03/28/2017 11:00","54,3","2,1","ND","ND","ND","ND"],
    [24117,"03/28/2017 12:00","51,8","2,8","ND","ND","ND","ND"],
    [24118,"03/28/2017 13:00","45","2,4","ND","ND","ND","ND"],
    [24119,"03/28/2017 14:00","47","2,6","ND","ND","ND","ND"],
    [24120,"03/28/2017 15:00","54,4","2,1","ND","ND","ND","ND"],
    [24121,"03/28/2017 16:00","26","0,3","ND","ND","ND","ND"],
    [24122,"03/28/2017 17:00","16,2","0,4","ND","ND","ND","ND"],
    [24123,"03/28/2017 18:00","15,7","0,3","ND","ND","ND","ND"],
    [24124,"03/28/2017 19:00","9,3","1,2","ND","ND","ND","ND"],
    [24125,"03/28/2017 20:00","15,6","1,2","ND","ND","ND","ND"],
    [24126,"03/28/2017 21:00","32,7","2","ND","ND","ND","ND"],
    [24127,"03/28/2017 22:00","48,4","2","ND","ND","ND","ND"],
    [24128,"03/28/2017 23:00","40,3","0,9","ND","ND","ND","ND"],
    [24129,"03/29/2017 00:00","34,1","1,2","ND","ND","ND","ND"],
    [24130,"03/29/2017 01:00","28,1","1,5","ND","ND","ND","ND"],
    [24131,"03/29/2017 02:00","42,1","0,5","ND","ND","ND","ND"],
    [24132,"03/29/2017 03:00","32,7","0,2","ND","ND","ND","ND"],
    [24133,"03/29/2017 04:00","27,9","0,2","ND","ND","ND","ND"],
    [24134,"03/29/2017 05:00","25,7","0,3","ND","ND","ND","ND"],
    [24135,"03/29/2017 06:00","32,3","0,6","ND","ND","ND","ND"],
    [24136,"03/29/2017 07:00","46,5","1,2","ND","ND","ND","ND"],
    [24137,"03/29/2017 08:00","55","4,3","ND","ND","ND","ND"],
    [24138,"03/29/2017 09:00","63,4","2,8","ND","ND","ND","ND"],
    [24139,"03/29/2017 10:00","58,2","1,8","ND","ND","ND","ND"],
    [24140,"03/29/2017 11:00","40,1","2,3","ND","ND","ND","ND"],
    [24141,"03/29/2017 12:00","35,7","3","ND","ND","ND","ND"],
    [24142,"03/29/2017 13:00","37,2","1,2","ND","ND","ND","ND"],
    [24143,"03/29/2017 14:00","22,1","0,5","ND","ND","ND","ND"],
    [24144,"03/29/2017 15:00","27,6","0,3","ND","ND","ND","ND"],
    [24145,"03/29/2017 16:00","ND","0,7","ND","ND","ND","ND"],
    [24146,"03/29/2017 17:00","12,9","5,1","ND","ND","ND","ND"],
    [24147,"03/29/2017 18:00","36,5","1,5","ND","ND","ND","ND"],
    [24148,"03/29/2017 19:00","40,9","2,4","ND","ND","ND","ND"],
    [24149,"03/29/2017 20:00","48,6","3,1","ND","ND","ND","ND"],
    [24150,"03/29/2017 21:00","56,2","2,8","ND","ND","ND","ND"],
    [24151,"03/29/2017 22:00","55","2,3","ND","ND","ND","ND"],
    [24152,"03/29/2017 23:00","42,5","2,3","ND","ND","ND","ND"],
    [24153,"03/30/2017 00:00","38,3","1,2","ND","ND","ND","ND"],
    [24154,"03/30/2017 01:00","28","1,3","ND","ND","ND","ND"],
    [24155,"03/30/2017 02:00","24,5","0,6","ND","ND","ND","ND"],
    [24156,"03/30/2017 03:00","30,2","0,7","ND","ND","ND","ND"],
    [24157,"03/30/2017 04:00","29","0,4","ND","ND","ND","ND"],
    [24158,"03/30/2017 05:00","25,3","0,4","ND","ND","ND","ND"],
    [24159,"03/30/2017 06:00","28,9","1,1","ND","ND","ND","ND"],
    [24160,"03/30/2017 07:00","32,2","1,5","ND","ND","ND","ND"],
    [24161,"03/30/2017 08:00","42,9","2,8","ND","ND","ND","ND"],
    [24162,"03/30/2017 09:00","38,3","4","ND","ND","ND","ND"],
    [24163,"03/30/2017 10:00","ND","2,8","ND","ND","ND","ND"],
    [24164,"03/30/2017 11:00","ND","2,5","ND","ND","ND","ND"],
    [24165,"03/30/2017 12:00","4,3","4","ND","ND","ND","ND"],
    [24166,"03/30/2017 13:00","56,1","4,7","ND","ND","ND","ND"],
    [24167,"03/30/2017 14:00","46,8","2,3","ND","ND","ND","ND"],
    [24168,"03/30/2017 15:00","31","1,5","ND","ND","ND","ND"],
    [24169,"03/30/2017 16:00","30,2","1,9","ND","ND","ND","ND"],
    [24170,"03/30/2017 17:00","23,8","2,3","ND","ND","ND","ND"],
    [24171,"03/30/2017 18:00","28,1","3","ND","ND","ND","ND"],
    [24172,"03/30/2017 19:00","29,8","2,7","ND","ND","ND","ND"],
    [24173,"03/30/2017 20:00","28","3","ND","ND","ND","ND"],
    [24174,"03/30/2017 21:00","39,2","2,7","ND","ND","ND","ND"],
    [24175,"03/30/2017 22:00","41,7","2","ND","ND","ND","ND"],
    [24176,"03/30/2017 23:00","29,8","1,4","ND","ND","ND","ND"],
    [24177,"03/31/2017 00:00","22,5","0,8","ND","ND","ND","ND"],
    [24178,"03/31/2017 01:00","13,4","0,5","ND","ND","ND","ND"],
    [24179,"03/31/2017 02:00","16,6","0,4","ND","ND","ND","ND"],
    [24180,"03/31/2017 03:00","13,1","0,3","ND","ND","ND","ND"],
    [24181,"03/31/2017 04:00","10,8","0,2","ND","ND","ND","ND"],
    [24182,"03/31/2017 05:00","7,1","0,1","ND","ND","ND","ND"],
    [24183,"03/31/2017 06:00","9,9","0,6","ND","ND","ND","ND"],
    [24184,"03/31/2017 07:00","13,3","0,8","ND","ND","ND","ND"],
    [24185,"03/31/2017 08:00","20,7","3,3","ND","ND","ND","ND"],
    [24186,"03/31/2017 09:00","18,5","1,4","ND","ND","ND","ND"],
    [24187,"03/31/2017 10:00","14,5","0,9","ND","ND","ND","ND"],
    [24188,"03/31/2017 11:00","16","0,8","ND","ND","ND","ND"],
    [24189,"03/31/2017 12:00","12,4","0,8","ND","ND","ND","ND"],
    [24190,"03/31/2017 13:00","16,4","0,5","ND","ND","ND","ND"],
    [24191,"03/31/2017 14:00","16","0,6","ND","ND","ND","ND"],
    [24192,"03/31/2017 15:00","19,1","1,3","ND","ND","ND","ND"],
    [24193,"03/31/2017 16:00","35,3","4,9","ND","ND","ND","ND"],
    [24194,"03/31/2017 17:00","40,4","4,1","ND","ND","ND","ND"],
    [24195,"03/31/2017 18:00","38,2","1,3","ND","ND","ND","ND"],
    [24196,"03/31/2017 19:00","24,2","2,9","ND","ND","ND","ND"],
    [24197,"03/31/2017 20:00","46,6","9,1","ND","ND","ND","ND"],
    [24198,"03/31/2017 21:00","46,8","2,9","ND","ND","ND","ND"],
    [24199,"03/31/2017 22:00","38,5","1,6","ND","ND","ND","ND"],
    [24200,"03/31/2017 23:00","40,3","3,3","ND","ND","ND","ND"],
    [24201,"42739","45,2","2,5","ND","ND","ND","ND"],
    [24202,"42739,04167","35,7","1,4","ND","ND","ND","ND"],
    [24203,"42739,08333","34,2","2,9","ND","ND","ND","ND"],
    [24204,"42739,125","33,1","1","ND","ND","ND","ND"],
    [24205,"42739,16667","25,8","1,6","ND","ND","ND","ND"],
    [24206,"42739,20833","24,2","0,8","ND","ND","ND","ND"],
    [24207,"42739,25","24,3","0,7","ND","ND","ND","ND"],
    [24208,"42739,29167","25","1,2","ND","ND","ND","ND"],
    [24209,"42739,33333","28,8","2,2","ND","ND","ND","ND"],
    [24210,"42739,375","35,5","2,5","ND","ND","ND","ND"],
    [24211,"42739,41667","51,5","1,6","ND","ND","ND","ND"],
    [24212,"42739,45833","48,1","1,2","ND","ND","ND","ND"],
    [24213,"42739,5","32,7","1,1","ND","ND","ND","ND"],
    [24214,"42739,54167","30,6","1","ND","ND","ND","ND"],
    [24215,"42739,58333","29,7","1,5","ND","ND","ND","ND"],
    [24216,"42739,625","34,3","1,5","ND","ND","ND","ND"],
    [24217,"42739,66667","42,8","1,4","ND","ND","ND","ND"],
    [24218,"42739,70833","44,3","2,4","ND","ND","ND","ND"],
    [24219,"42739,75","51,5","1,9","ND","ND","ND","ND"],
    [24220,"42739,79167","47,7","4","ND","ND","ND","ND"],
    [24221,"42739,83333","30,8","3,1","ND","ND","ND","ND"],
    [24222,"42739,875","57,2","3,4","ND","ND","ND","ND"],
    [24223,"42739,91667","62","3,8","ND","ND","ND","ND"],
    [24224,"42739,95833","45,7","4,1","ND","ND","ND","ND"],
    [24225,"42770","54,8","3,9","ND","ND","ND","ND"],
    [24226,"42770,04167","42,9","3,4","ND","ND","ND","ND"],
    [24227,"42770,08333","42,4","2,4","ND","ND","ND","ND"],
    [24228,"42770,125","37,5","1,6","ND","ND","ND","ND"],
    [24229,"42770,16667","38,8","1,3","ND","ND","ND","ND"],
    [24230,"42770,20833","37,3","2","ND","ND","ND","ND"],
    [24231,"42770,25","38","0,8","ND","ND","ND","ND"],
    [24232,"42770,29167","37,6","1,8","ND","ND","ND","ND"],
    [24233,"42770,33333","44","1,6","ND","ND","ND","ND"],
    [24234,"42770,375","44,6","1,5","ND","ND","ND","ND"],
    [24235,"42770,41667","48,8","2,8","ND","ND","ND","ND"],
    [24236,"42770,45833","35,2","4,1","ND","ND","ND","ND"],
    [24237,"42770,5","42,7","4,1","ND","ND","ND","ND"],
    [24238,"42770,54167","34","2,9","ND","ND","ND","ND"],
    [24239,"42770,58333","31,2","2,8","ND","ND","ND","ND"],
    [24240,"42770,625","36,6","1,9","ND","ND","ND","ND"],
    [24241,"42770,66667","42,8","0,9","ND","ND","ND","ND"],
    [24242,"42770,70833","31,7","0,3","ND","ND","ND","ND"],
    [24243,"42770,75","15,3","0,5","ND","ND","ND","ND"],
    [24244,"42770,79167","17","0,4","ND","ND","ND","ND"],
    [24245,"42770,83333","15,4","1,1","ND","ND","ND","ND"],
    [24246,"42770,875","18,7","2","ND","ND","ND","ND"],
    [24247,"42770,91667","32","2","ND","ND","ND","ND"],
    [24248,"42770,95833","37,3","1,4","ND","ND","ND","ND"],
    [24249,"42798","30,3","0,8","ND","ND","ND","ND"],
    [24250,"42798,04167","26,2","0,7","ND","ND","ND","ND"],
    [24251,"42798,08333","30","1,4","ND","ND","ND","ND"],
    [24252,"42798,125","25,2","0,3","ND","ND","ND","ND"],
    [24253,"42798,16667","25,9","0,2","ND","ND","ND","ND"],
    [24254,"42798,20833","27,4","0,3","ND","ND","ND","ND"],
    [24255,"42798,25","34,4","1,2","ND","ND","ND","ND"],
    [24256,"42798,29167","54,4","2,7","ND","ND","ND","ND"],
    [24257,"42798,33333","60","5,2","ND","ND","ND","ND"],
    [24258,"42798,375","53,9","3,9","ND","ND","ND","ND"],
    [24259,"42798,41667","55,9","5","ND","ND","ND","ND"],
    [24260,"42798,45833","42,8","4","ND","ND","ND","ND"],
    [24261,"42798,5","37,5","2,5","ND","ND","ND","ND"],
    [24262,"42798,54167","ND","2,4","ND","ND","ND","ND"],
    [24263,"42798,58333","ND","1,8","ND","ND","ND","ND"],
    [24264,"42798,625","ND","2,1","ND","ND","ND","ND"],
    [24265,"42798,66667","2,5","4,1","ND","ND","ND","ND"],
    [24266,"42798,70833","36,2","1","ND","ND","ND","ND"],
    [24267,"42798,75","22,3","0,8","ND","ND","ND","ND"],
    [24268,"42798,79167","26,5","0,8","ND","ND","ND","ND"],
    [24269,"42798,83333","29,4","0,6","ND","ND","ND","ND"],
    [24270,"42798,875","20,2","1,3","ND","ND","ND","ND"],
    [24271,"42798,91667","25,5","3,5","ND","ND","ND","ND"],
    [24272,"42798,95833","50,4","1,8","ND","ND","ND","ND"],
    [24273,"42829","47,7","1,2","ND","ND","ND","ND"],
    [24274,"42829,04167","32,4","0,5","ND","ND","ND","ND"],
    [24275,"42829,08333","26,9","0,4","ND","ND","ND","ND"],
    [24276,"42829,125","32,1","0,3","ND","ND","ND","ND"],
    [24277,"42829,16667","26,1","0,3","ND","ND","ND","ND"],
    [24278,"42829,20833","32,7","0,5","ND","ND","ND","ND"],
    [24279,"42829,25","38,7","0,8","ND","ND","ND","ND"],
    [24280,"42829,29167","47,6","2,3","ND","ND","ND","ND"],
    [24281,"42829,33333","69,1","4,3","ND","ND","ND","ND"],
    [24282,"42829,375","77,9","2,5","ND","ND","ND","ND"],
    [24283,"42829,41667","48,7","3,7","ND","ND","ND","ND"],
    [24284,"42829,45833","40,1","3","ND","ND","ND","ND"],
    [24285,"42829,5","40,9","1,9","ND","ND","ND","ND"],
    [24286,"42829,54167","41,3","1,6","ND","ND","ND","ND"],
    [24287,"42829,58333","44,4","1,5","ND","ND","ND","ND"],
    [24288,"42829,625","47,9","0,3","ND","ND","ND","ND"],
    [24289,"42829,66667","25","0","ND","ND","ND","ND"],
    [24290,"42829,70833","22,5","0","ND","ND","ND","ND"],
    [24291,"42829,75","23,4","0","ND","ND","ND","ND"],
    [24292,"42829,79167","25,5","0","ND","ND","ND","ND"],
    [24293,"42829,83333","27,2","0,2","ND","ND","ND","ND"],
    [24294,"42829,875","24","0,6","ND","ND","ND","ND"],
    [24295,"42829,91667","27,7","1,1","ND","ND","ND","ND"],
    [24296,"42829,95833","44,4","1","ND","ND","ND","ND"],
    [24297,"42859","41,3","0,7","ND","ND","ND","ND"],
    [24298,"42859,04167","31,5","0,2","ND","ND","ND","ND"],
    [24299,"42859,08333","25,6","0,2","ND","ND","ND","ND"],
    [24300,"42859,125","25,6","0,2","ND","ND","ND","ND"],
    [24301,"42859,16667","25,6","0,1","ND","ND","ND","ND"],
    [24302,"42859,20833","26,4","0,8","ND","ND","ND","ND"],
    [24303,"42859,25","35","1,7","ND","ND","ND","ND"],
    [24304,"42859,29167","55,9","3,5","ND","ND","ND","ND"],
    [24305,"42859,33333","70,3","3,5","ND","ND","ND","ND"],
    [24306,"42859,375","54,2","4,5","ND","ND","ND","ND"],
    [24307,"42859,41667","57,3","4,3","ND","ND","ND","ND"],
    [24308,"42859,45833","59,8","3,5","ND","ND","ND","ND"],
    [24309,"42859,5","ND","ND","ND","ND","ND","ND"],
    [24310,"42859,54167","ND","ND","ND","ND","ND","ND"],
    [24311,"42859,58333","ND","ND","ND","ND","ND","ND"],
    [24312,"42859,625","ND","ND","ND","ND","ND","ND"],
    [24313,"42859,66667","ND","ND","ND","ND","ND","ND"],
    [24314,"42859,70833","ND","ND","ND","ND","ND","ND"],
    [24315,"42859,75","ND","ND","ND","ND","ND","ND"],
    [24316,"42859,79167","ND","ND","ND","ND","ND","ND"],
    [24317,"42859,83333","ND","ND","ND","ND","ND","ND"],
    [24318,"42859,875","ND","ND","ND","ND","ND","ND"],
    [24319,"42859,91667","ND","ND","ND","ND","ND","ND"],
    [24320,"42859,95833","ND","ND","ND","ND","ND","ND"],
    [24321,"42890","ND","ND","ND","ND","ND","ND"],
    [24322,"42890,04167","ND","ND","ND","ND","ND","ND"],
    [24323,"42890,08333","ND","ND","ND","ND","ND","ND"],
    [24324,"42890,125","ND","ND","ND","ND","ND","ND"],
    [24325,"42890,16667","ND","ND","ND","ND","ND","ND"],
    [24326,"42890,20833","ND","ND","ND","ND","ND","ND"],
    [24327,"42890,25","ND","ND","ND","ND","ND","ND"],
    [24328,"42890,29167","ND","ND","ND","ND","ND","ND"],
    [24329,"42890,33333","ND","ND","ND","ND","ND","ND"],
    [24330,"42890,375","ND","ND","ND","ND","ND","ND"],
    [24331,"42890,41667","ND","ND","ND","ND","ND","ND"],
    [24332,"42890,45833","ND","ND","ND","ND","ND","ND"],
    [24333,"42890,5","ND","ND","ND","ND","ND","ND"],
    [24334,"42890,54167","ND","ND","ND","ND","ND","ND"],
    [24335,"42890,58333","ND","ND","ND","ND","ND","ND"],
    [24336,"42890,625","ND","ND","ND","ND","ND","ND"],
    [24337,"42890,66667","ND","ND","ND","ND","ND","ND"],
    [24338,"42890,70833","ND","ND","ND","ND","ND","ND"],
    [24339,"42890,75","ND","ND","ND","ND","ND","ND"],
    [24340,"42890,79167","ND","ND","ND","ND","ND","ND"],
    [24341,"42890,83333","ND","ND","ND","ND","ND","ND"],
    [24342,"42890,875","ND","ND","ND","ND","ND","ND"],
    [24343,"42890,91667","ND","ND","ND","ND","ND","ND"],
    [24344,"42890,95833","ND","ND","ND","ND","ND","ND"],
    [24345,"42920","ND","ND","ND","ND","ND","ND"],
    [24346,"42920,04167","ND","ND","ND","ND","ND","ND"],
    [24347,"42920,08333","ND","ND","ND","ND","ND","ND"],
    [24348,"42920,125","ND","ND","ND","ND","ND","ND"],
    [24349,"42920,16667","ND","ND","ND","ND","ND","ND"],
    [24350,"42920,20833","ND","ND","ND","ND","ND","ND"],
    [24351,"42920,25","ND","ND","ND","ND","ND","ND"],
    [24352,"42920,29167","ND","ND","ND","ND","ND","ND"],
    [24353,"42920,33333","ND","ND","ND","ND","ND","ND"],
    [24354,"42920,375","ND","ND","ND","ND","ND","ND"],
    [24355,"42920,41667","ND","ND","ND","ND","ND","ND"],
    [24356,"42920,45833","ND","ND","ND","ND","ND","ND"],
    [24357,"42920,5","ND","ND","ND","ND","ND","ND"],
    [24358,"42920,54167","ND","ND","ND","ND","ND","ND"],
    [24359,"42920,58333","ND","ND","ND","ND","ND","ND"],
    [24360,"42920,625","ND","ND","ND","ND","ND","ND"],
    [24361,"42920,66667","ND","1,4","ND","ND","ND","ND"],
    [24362,"42920,70833","ND","0,3","ND","ND","ND","ND"],
    [24363,"42920,75","2,6","0,4","ND","ND","ND","ND"],
    [24364,"42920,79167","39,4","2,1","ND","ND","ND","ND"],
    [24365,"42920,83333","47,3","1,3","ND","ND","ND","ND"],
    [24366,"42920,875","36,8","2,8","ND","ND","ND","ND"],
    [24367,"42920,91667","45,4","3,4","ND","ND","ND","ND"],
    [24368,"42920,95833","66,9","1,8","ND","ND","ND","ND"],
    [24369,"42951","48,8","0,8","ND","ND","ND","ND"],
    [24370,"42951,04167","41,3","0,8","ND","ND","ND","ND"],
    [24371,"42951,08333","41,5","0,4","ND","ND","ND","ND"],
    [24372,"42951,125","35,8","0,2","ND","ND","ND","ND"],
    [24373,"42951,16667","32,9","0,4","ND","ND","ND","ND"],
    [24374,"42951,20833","34,8","0,3","ND","ND","ND","ND"],
    [24375,"42951,25","35,6","0,2","ND","ND","ND","ND"],
    [24376,"42951,29167","31,2","1,4","ND","ND","ND","ND"],
    [24377,"42951,33333","34,1","2,7","ND","ND","ND","ND"],
    [24378,"42951,375","41,4","1,4","ND","ND","ND","ND"],
    [24379,"42951,41667","46,7","1,8","ND","ND","ND","ND"],
    [24380,"42951,45833","48,5","1,4","ND","ND","ND","ND"],
    [24381,"42951,5","37,9","1,3","ND","ND","ND","ND"],
    [24382,"42951,54167","33,4","1,1","ND","ND","ND","ND"],
    [24383,"42951,58333","40,5","0,4","ND","ND","ND","ND"],
    [24384,"42951,625","9,7","0,5","ND","ND","ND","ND"],
    [24385,"42951,66667","15,4","0,4","ND","ND","ND","ND"],
    [24386,"42951,70833","11,9","0,2","ND","ND","ND","ND"],
    [24387,"42951,75","17,8","0,7","ND","ND","ND","ND"],
    [24388,"42951,79167","28,3","0,8","ND","ND","ND","ND"],
    [24389,"42951,83333","35,2","1,5","ND","ND","ND","ND"],
    [24390,"42951,875","32","1,2","ND","ND","ND","ND"],
    [24391,"42951,91667","35,8","1,7","ND","ND","ND","ND"],
    [24392,"42951,95833","34,3","1,2","ND","ND","ND","ND"],
    [24393,"42982","20","0,7","ND","ND","ND","ND"],
    [24394,"42982,04167","18,4","0,3","ND","ND","ND","ND"],
    [24395,"42982,08333","15,1","0,3","ND","ND","ND","ND"],
    [24396,"42982,125","15,2","0,2","ND","ND","ND","ND"],
    [24397,"42982,16667","15,9","0,1","ND","ND","ND","ND"],
    [24398,"42982,20833","15","0,2","ND","ND","ND","ND"],
    [24399,"42982,25","16,6","0,2","ND","ND","ND","ND"],
    [24400,"42982,29167","14,5","0,1","ND","ND","ND","ND"],
    [24401,"42982,33333","7","0,1","ND","ND","ND","ND"],
    [24402,"42982,375","10,1","0,2","ND","ND","ND","ND"],
    [24403,"42982,41667","10,9","0,2","ND","ND","ND","ND"],
    [24404,"42982,45833","7,6","0,7","ND","ND","ND","ND"],
    [24405,"42982,5","9","1,1","ND","ND","ND","ND"],
    [24406,"42982,54167","15,9","1,4","ND","ND","ND","ND"],
    [24407,"42982,58333","19,8","1,2","ND","ND","ND","ND"],
    [24408,"42982,625","26,1","0,6","ND","ND","ND","ND"],
    [24409,"42982,66667","26","0,6","ND","ND","ND","ND"],
    [24410,"42982,70833","31,3","0,6","ND","ND","ND","ND"],
    [24411,"42982,75","38,6","2,3","ND","ND","ND","ND"],
    [24412,"42982,79167","32","3,6","ND","ND","ND","ND"],
    [24413,"42982,83333","39,4","2,5","ND","ND","ND","ND"],
    [24414,"42982,875","37,1","2,1","ND","ND","ND","ND"],
    [24415,"42982,91667","37,2","1","ND","ND","ND","ND"],
    [24416,"42982,95833","28,2","0,5","ND","ND","ND","ND"],
    [24417,"43012","26,2","0,9","ND","ND","ND","ND"],
    [24418,"43012,04167","25,6","1","ND","ND","ND","ND"],
    [24419,"43012,08333","25,8","0,7","ND","ND","ND","ND"],
    [24420,"43012,125","24,4","0,5","ND","ND","ND","ND"],
    [24421,"43012,16667","24","0,3","ND","ND","ND","ND"],
    [24422,"43012,20833","27,3","0,5","ND","ND","ND","ND"],
    [24423,"43012,25","26,1","0,7","ND","ND","ND","ND"],
    [24424,"43012,29167","35,4","1,3","ND","ND","ND","ND"],
    [24425,"43012,33333","41,9","1,6","ND","ND","ND","ND"],
    [24426,"43012,375","60,6","5,7","ND","ND","ND","ND"],
    [24427,"43012,41667","75,7","ND","ND","ND","ND","ND"],
    [24428,"43012,45833","62,4","5,9","ND","ND","ND","ND"],
    [24429,"43012,5","37,7","ND","ND","ND","ND","ND"],
    [24430,"43012,54167","32,7","ND","ND","ND","ND","ND"],
    [24431,"43012,58333","32,4","ND","ND","ND","ND","ND"],
    [24432,"43012,625","40","ND","ND","ND","ND","ND"],
    [24433,"43012,66667","46,9","ND","ND","ND","ND","ND"],
    [24434,"43012,70833","52","ND","ND","ND","ND","ND"],
    [24435,"43012,75","50,8","ND","ND","ND","ND","ND"],
    [24436,"43012,79167","24,3","ND","ND","ND","ND","ND"],
    [24437,"43012,83333","20,6","ND","ND","ND","ND","ND"],
    [24438,"43012,875","19","ND","ND","ND","ND","ND"],
    [24439,"43012,91667","53,6","ND","ND","ND","ND","ND"],
    [24440,"43012,95833","45,7","ND","ND","ND","ND","ND"],
    [24441,"43043","48,3","ND","ND","ND","ND","ND"],
    [24442,"43043,04167","44,7","ND","ND","ND","ND","ND"],
    [24443,"43043,08333","28","ND","ND","ND","ND","ND"],
    [24444,"43043,125","19,4","ND","ND","ND","ND","ND"],
    [24445,"43043,16667","23,8","ND","ND","ND","ND","ND"],
    [24446,"43043,20833","27,8","ND","ND","ND","ND","ND"],
    [24447,"43043,25","31,5","ND","ND","ND","ND","ND"],
    [24448,"43043,29167","38","ND","ND","ND","ND","ND"],
    [24449,"43043,33333","53,4","ND","ND","ND","ND","ND"],
    [24450,"43043,375","37,5","ND","ND","ND","ND","ND"],
    [24451,"43043,41667","28,6","ND","ND","ND","ND","ND"],
    [24452,"43043,45833","ND","ND","ND","ND","ND","ND"],
    [24453,"43043,5","ND","ND","ND","ND","ND","ND"],
    [24454,"43043,54167","ND","ND","ND","ND","ND","ND"],
    [24455,"43043,58333","ND","ND","ND","ND","ND","ND"],
    [24456,"43043,625","ND","ND","ND","ND","ND","ND"],
    [24457,"43043,66667","ND","ND","ND","ND","ND","ND"],
    [24458,"43043,70833","ND","ND","ND","ND","ND","ND"],
    [24459,"43043,75","ND","ND","ND","ND","ND","ND"],
    [24460,"43043,79167","ND","ND","ND","ND","ND","ND"],
    [24461,"43043,83333","ND","ND","ND","ND","ND","ND"],
    [24462,"43043,875","ND","ND","ND","ND","ND","ND"],
    [24463,"43043,91667","ND","ND","ND","ND","ND","ND"],
    [24464,"43043,95833","ND","ND","ND","ND","ND","ND"],
    [24465,"43073","ND","ND","ND","ND","ND","ND"],
    [24466,"43073,04167","ND","ND","ND","ND","ND","ND"],
    [24467,"43073,08333","ND","ND","ND","ND","ND","ND"],
    [24468,"43073,125","ND","ND","ND","ND","ND","ND"],
    [24469,"43073,16667","ND","ND","ND","ND","ND","ND"],
    [24470,"43073,20833","ND","ND","ND","ND","ND","ND"],
    [24471,"43073,25","ND","ND","ND","ND","ND","ND"],
    [24472,"43073,29167","ND","ND","ND","ND","ND","ND"],
    [24473,"43073,33333","ND","ND","ND","ND","ND","ND"],
    [24474,"43073,375","ND","ND","ND","ND","ND","ND"],
    [24475,"43073,41667","ND","ND","ND","ND","ND","ND"],
    [24476,"43073,45833","ND","ND","ND","ND","ND","ND"],
    [24477,"43073,5","ND","ND","ND","ND","ND","ND"],
    [24478,"43073,54167","ND","ND","ND","ND","ND","ND"],
    [24479,"43073,58333","ND","ND","ND","ND","ND","ND"],
    [24480,"43073,625","ND","ND","ND","ND","ND","ND"],
    [24481,"43073,66667","ND","ND","ND","ND","ND","ND"],
    [24482,"43073,70833","ND","ND","ND","ND","ND","ND"],
    [24483,"43073,75","ND","ND","ND","ND","ND","ND"],
    [24484,"43073,79167","ND","ND","ND","ND","ND","ND"],
    [24485,"43073,83333","ND","ND","ND","ND","ND","ND"],
    [24486,"43073,875","ND","ND","ND","ND","ND","ND"],
    [24487,"43073,91667","ND","ND","ND","ND","ND","ND"],
    [24488,"43073,95833","ND","ND","ND","ND","ND","ND"],
    [24489,"04/13/2017 00:00","ND","ND","ND","ND","ND","ND"],
    [24490,"04/13/2017 01:00","ND","ND","ND","ND","ND","ND"],
    [24491,"04/13/2017 02:00","ND","ND","ND","ND","ND","ND"],
    [24492,"04/13/2017 03:00","ND","ND","ND","ND","ND","ND"],
    [24493,"04/13/2017 04:00","ND","ND","ND","ND","ND","ND"],
    [24494,"04/13/2017 05:00","ND","ND","ND","ND","ND","ND"],
    [24495,"04/13/2017 06:00","ND","ND","ND","ND","ND","ND"],
    [24496,"04/13/2017 07:00","ND","ND","ND","ND","ND","ND"],
    [24497,"04/13/2017 08:00","ND","ND","ND","ND","ND","ND"],
    [24498,"04/13/2017 09:00","ND","ND","ND","ND","ND","ND"],
    [24499,"04/13/2017 10:00","ND","ND","ND","ND","ND","ND"],
    [24500,"04/13/2017 11:00","ND","ND","ND","ND","ND","ND"],
    [24501,"04/13/2017 12:00","ND","ND","ND","ND","ND","ND"],
    [24502,"04/13/2017 13:00","ND","ND","ND","ND","ND","ND"],
    [24503,"04/13/2017 14:00","ND","ND","ND","ND","ND","ND"],
    [24504,"04/13/2017 15:00","ND","ND","ND","ND","ND","ND"],
    [24505,"04/13/2017 16:00","ND","ND","ND","ND","ND","ND"],
    [24506,"04/13/2017 17:00","ND","ND","ND","ND","ND","ND"],
    [24507,"04/13/2017 18:00","ND","ND","ND","ND","ND","ND"],
    [24508,"04/13/2017 19:00","ND","ND","ND","ND","ND","ND"],
    [24509,"04/13/2017 20:00","ND","ND","ND","ND","ND","ND"],
    [24510,"04/13/2017 21:00","ND","ND","ND","ND","ND","ND"],
    [24511,"04/13/2017 22:00","ND","ND","ND","ND","ND","ND"],
    [24512,"04/13/2017 23:00","ND","ND","ND","ND","ND","ND"],
    [24513,"04/14/2017 00:00","ND","ND","ND","ND","ND","ND"],
    [24514,"04/14/2017 01:00","ND","ND","ND","ND","ND","ND"],
    [24515,"04/14/2017 02:00","ND","ND","ND","ND","ND","ND"],
    [24516,"04/14/2017 03:00","ND","ND","ND","ND","ND","ND"],
    [24517,"04/14/2017 04:00","ND","ND","ND","ND","ND","ND"],
    [24518,"04/14/2017 05:00","ND","ND","ND","ND","ND","ND"],
    [24519,"04/14/2017 06:00","ND","ND","ND","ND","ND","ND"],
    [24520,"04/14/2017 07:00","ND","ND","ND","ND","ND","ND"],
    [24521,"04/14/2017 08:00","ND","ND","ND","ND","ND","ND"],
    [24522,"04/14/2017 09:00","ND","ND","ND","ND","ND","ND"],
    [24523,"04/14/2017 10:00","ND","ND","ND","ND","ND","ND"],
    [24524,"04/14/2017 11:00","ND","ND","ND","ND","ND","ND"],
    [24525,"04/14/2017 12:00","ND","ND","ND","ND","ND","ND"],
    [24526,"04/14/2017 13:00","ND","ND","ND","ND","ND","ND"],
    [24527,"04/14/2017 14:00","ND","ND","ND","ND","ND","ND"],
    [24528,"04/14/2017 15:00","ND","ND","ND","ND","ND","ND"],
    [24529,"04/14/2017 16:00","ND","ND","ND","ND","ND","ND"],
    [24530,"04/14/2017 17:00","ND","ND","ND","ND","ND","ND"],
    [24531,"04/14/2017 18:00","ND","ND","ND","ND","ND","ND"],
    [24532,"04/14/2017 19:00","ND","ND","ND","ND","ND","ND"],
    [24533,"04/14/2017 20:00","ND","ND","ND","ND","ND","ND"],
    [24534,"04/14/2017 21:00","ND","ND","ND","ND","ND","ND"],
    [24535,"04/14/2017 22:00","ND","ND","ND","ND","ND","ND"],
    [24536,"04/14/2017 23:00","ND","ND","ND","ND","ND","ND"],
    [24537,"04/15/2017 00:00","ND","ND","ND","ND","ND","ND"],
    [24538,"04/15/2017 01:00","ND","ND","ND","ND","ND","ND"],
    [24539,"04/15/2017 02:00","ND","ND","ND","ND","ND","ND"],
    [24540,"04/15/2017 03:00","ND","ND","ND","ND","ND","ND"],
    [24541,"04/15/2017 04:00","ND","ND","ND","ND","ND","ND"],
    [24542,"04/15/2017 05:00","ND","ND","ND","ND","ND","ND"],
    [24543,"04/15/2017 06:00","ND","ND","ND","ND","ND","ND"],
    [24544,"04/15/2017 07:00","ND","ND","ND","ND","ND","ND"],
    [24545,"04/15/2017 08:00","ND","ND","ND","ND","ND","ND"],
    [24546,"04/15/2017 09:00","ND","ND","ND","ND","ND","ND"],
    [24547,"04/15/2017 10:00","ND","ND","ND","ND","ND","ND"],
    [24548,"04/15/2017 11:00","ND","ND","ND","ND","ND","ND"],
    [24549,"04/15/2017 12:00","ND","ND","ND","ND","ND","ND"],
    [24550,"04/15/2017 13:00","ND","ND","ND","ND","ND","ND"],
    [24551,"04/15/2017 14:00","ND","ND","ND","ND","ND","ND"],
    [24552,"04/15/2017 15:00","ND","ND","ND","ND","ND","ND"],
    [24553,"04/15/2017 16:00","ND","ND","ND","ND","ND","ND"],
    [24554,"04/15/2017 17:00","ND","ND","ND","ND","ND","ND"],
    [24555,"04/15/2017 18:00","ND","ND","ND","ND","ND","ND"],
    [24556,"04/15/2017 19:00","ND","ND","ND","ND","ND","ND"],
    [24557,"04/15/2017 20:00","ND","ND","ND","ND","ND","ND"],
    [24558,"04/15/2017 21:00","ND","ND","ND","ND","ND","ND"],
    [24559,"04/15/2017 22:00","ND","ND","ND","ND","ND","ND"],
    [24560,"04/15/2017 23:00","ND","ND","ND","ND","ND","ND"],
    [24561,"04/16/2017 00:00","ND","ND","ND","ND","ND","ND"],
    [24562,"04/16/2017 01:00","ND","ND","ND","ND","ND","ND"],
    [24563,"04/16/2017 02:00","ND","ND","ND","ND","ND","ND"],
    [24564,"04/16/2017 03:00","ND","ND","ND","ND","ND","ND"],
    [24565,"04/16/2017 04:00","ND","ND","ND","ND","ND","ND"],
    [24566,"04/16/2017 05:00","ND","ND","ND","ND","ND","ND"],
    [24567,"04/16/2017 06:00","ND","ND","ND","ND","ND","ND"],
    [24568,"04/16/2017 07:00","ND","ND","ND","ND","ND","ND"],
    [24569,"04/16/2017 08:00","ND","ND","ND","ND","ND","ND"],
    [24570,"04/16/2017 09:00","ND","ND","ND","ND","ND","ND"],
    [24571,"04/16/2017 10:00","ND","ND","ND","ND","ND","ND"],
    [24572,"04/16/2017 11:00","ND","ND","ND","ND","ND","ND"],
    [24573,"04/16/2017 12:00","ND","ND","ND","ND","ND","ND"],
    [24574,"04/16/2017 13:00","ND","ND","ND","ND","ND","ND"],
    [24575,"04/16/2017 14:00","ND","ND","ND","ND","ND","ND"],
    [24576,"04/16/2017 15:00","ND","ND","ND","ND","ND","ND"],
    [24577,"04/16/2017 16:00","ND","ND","ND","ND","ND","ND"],
    [24578,"04/16/2017 17:00","ND","ND","ND","ND","ND","ND"],
    [24579,"04/16/2017 18:00","ND","ND","ND","ND","ND","ND"],
    [24580,"04/16/2017 19:00","ND","ND","ND","ND","ND","ND"],
    [24581,"04/16/2017 20:00","ND","ND","ND","ND","ND","ND"],
    [24582,"04/16/2017 21:00","ND","ND","ND","ND","ND","ND"],
    [24583,"04/16/2017 22:00","ND","ND","ND","ND","ND","ND"],
    [24584,"04/16/2017 23:00","ND","ND","ND","ND","ND","ND"],
    [24585,"04/17/2017 00:00","ND","ND","ND","ND","ND","ND"],
    [24586,"04/17/2017 01:00","ND","ND","ND","ND","ND","ND"],
    [24587,"04/17/2017 02:00","ND","ND","ND","ND","ND","ND"],
    [24588,"04/17/2017 03:00","ND","ND","ND","ND","ND","ND"],
    [24589,"04/17/2017 04:00","ND","ND","ND","ND","ND","ND"],
    [24590,"04/17/2017 05:00","ND","ND","ND","ND","ND","ND"],
    [24591,"04/17/2017 06:00","ND","ND","ND","ND","ND","ND"],
    [24592,"04/17/2017 07:00","ND","ND","ND","ND","ND","ND"],
    [24593,"04/17/2017 08:00","ND","ND","ND","ND","ND","ND"],
    [24594,"04/17/2017 09:00","ND","ND","ND","ND","ND","ND"],
    [24595,"04/17/2017 10:00","ND","ND","ND","ND","ND","ND"],
    [24596,"04/17/2017 11:00","ND","ND","ND","ND","ND","ND"],
    [24597,"04/17/2017 12:00","ND","ND","ND","ND","ND","ND"],
    [24598,"04/17/2017 13:00","ND","ND","ND","ND","ND","ND"],
    [24599,"04/17/2017 14:00","ND","ND","ND","ND","ND","ND"],
    [24600,"04/17/2017 15:00","ND","ND","ND","ND","ND","ND"],
    [24601,"04/17/2017 16:00","ND","ND","ND","ND","ND","ND"],
    [24602,"04/17/2017 17:00","ND","ND","ND","ND","ND","ND"],
    [24603,"04/17/2017 18:00","ND","ND","ND","ND","ND","ND"],
    [24604,"04/17/2017 19:00","ND","ND","ND","ND","ND","ND"],
    [24605,"04/17/2017 20:00","ND","ND","ND","ND","ND","ND"],
    [24606,"04/17/2017 21:00","ND","ND","ND","ND","ND","ND"],
    [24607,"04/17/2017 22:00","ND","ND","ND","ND","ND","ND"],
    [24608,"04/17/2017 23:00","ND","ND","ND","ND","ND","ND"],
    [24609,"04/18/2017 00:00","ND","ND","ND","ND","ND","ND"],
    [24610,"04/18/2017 01:00","ND","ND","ND","ND","ND","ND"],
    [24611,"04/18/2017 02:00","ND","ND","ND","ND","ND","ND"],
    [24612,"04/18/2017 03:00","ND","ND","ND","ND","ND","ND"],
    [24613,"04/18/2017 04:00","ND","ND","ND","ND","ND","ND"],
    [24614,"04/18/2017 05:00","ND","ND","ND","ND","ND","ND"],
    [24615,"04/18/2017 06:00","ND","ND","ND","ND","ND","ND"],
    [24616,"04/18/2017 07:00","ND","ND","ND","ND","ND","ND"],
    [24617,"04/18/2017 08:00","ND","ND","ND","ND","ND","ND"],
    [24618,"04/18/2017 09:00","ND","ND","ND","ND","ND","ND"],
    [24619,"04/18/2017 10:00","ND","ND","ND","ND","ND","ND"],
    [24620,"04/18/2017 11:00","ND","ND","ND","ND","ND","ND"],
    [24621,"04/18/2017 12:00","ND","ND","ND","ND","ND","ND"],
    [24622,"04/18/2017 13:00","ND","ND","ND","ND","ND","ND"],
    [24623,"04/18/2017 14:00","ND","ND","ND","ND","ND","ND"],
    [24624,"04/18/2017 15:00","ND","ND","ND","ND","ND","ND"],
    [24625,"04/18/2017 16:00","ND","ND","ND","ND","ND","ND"],
    [24626,"04/18/2017 17:00","ND","ND","ND","ND","ND","ND"],
    [24627,"04/18/2017 18:00","ND","ND","ND","ND","ND","ND"],
    [24628,"04/18/2017 19:00","ND","ND","ND","ND","ND","ND"],
    [24629,"04/18/2017 20:00","ND","ND","ND","ND","ND","ND"],
    [24630,"04/18/2017 21:00","ND","ND","ND","ND","ND","ND"],
    [24631,"04/18/2017 22:00","ND","ND","ND","ND","ND","ND"],
    [24632,"04/18/2017 23:00","ND","ND","ND","ND","ND","ND"],
    [24633,"04/19/2017 00:00","ND","ND","ND","ND","ND","ND"],
    [24634,"04/19/2017 01:00","ND","ND","ND","ND","ND","ND"],
    [24635,"04/19/2017 02:00","ND","ND","ND","ND","ND","ND"],
    [24636,"04/19/2017 03:00","ND","ND","ND","ND","ND","ND"],
    [24637,"04/19/2017 04:00","ND","ND","ND","ND","ND","ND"],
    [24638,"04/19/2017 05:00","ND","ND","ND","ND","ND","ND"],
    [24639,"04/19/2017 06:00","ND","ND","ND","ND","ND","ND"],
    [24640,"04/19/2017 07:00","ND","ND","ND","ND","ND","ND"],
    [24641,"04/19/2017 08:00","ND","ND","ND","ND","ND","ND"],
    [24642,"04/19/2017 09:00","ND","ND","ND","ND","ND","ND"],
    [24643,"04/19/2017 10:00","ND","ND","ND","ND","ND","ND"],
    [24644,"04/19/2017 11:00","ND","ND","ND","ND","ND","ND"],
    [24645,"04/19/2017 12:00","ND","ND","ND","ND","ND","ND"],
    [24646,"04/19/2017 13:00","ND","ND","ND","ND","ND","ND"],
    [24647,"04/19/2017 14:00","ND","ND","ND","ND","ND","ND"],
    [24648,"04/19/2017 15:00","ND","ND","ND","ND","ND","ND"],
    [24649,"04/19/2017 16:00","ND","ND","ND","ND","ND","ND"],
    [24650,"04/19/2017 17:00","ND","ND","ND","ND","ND","ND"],
    [24651,"04/19/2017 18:00","ND","ND","ND","ND","ND","ND"],
    [24652,"04/19/2017 19:00","ND","ND","ND","ND","ND","ND"],
    [24653,"04/19/2017 20:00","ND","ND","ND","ND","ND","ND"],
    [24654,"04/19/2017 21:00","ND","ND","ND","ND","ND","ND"],
    [24655,"04/19/2017 22:00","ND","ND","ND","ND","ND","ND"],
    [24656,"04/19/2017 23:00","ND","ND","ND","ND","ND","ND"],
    [24657,"04/20/2017 00:00","ND","ND","ND","ND","ND","ND"],
    [24658,"04/20/2017 01:00","ND","ND","ND","ND","ND","ND"],
    [24659,"04/20/2017 02:00","ND","ND","ND","ND","ND","ND"],
    [24660,"04/20/2017 03:00","ND","ND","ND","ND","ND","ND"],
    [24661,"04/20/2017 04:00","ND","ND","ND","ND","ND","ND"],
    [24662,"04/20/2017 05:00","ND","ND","ND","ND","ND","ND"],
    [24663,"04/20/2017 06:00","ND","ND","ND","ND","ND","ND"],
    [24664,"04/20/2017 07:00","ND","ND","ND","ND","ND","ND"],
    [24665,"04/20/2017 08:00","ND","ND","ND","ND","ND","ND"],
    [24666,"04/20/2017 09:00","ND","ND","ND","ND","ND","ND"],
    [24667,"04/20/2017 10:00","ND","ND","ND","ND","ND","ND"],
    [24668,"04/20/2017 11:00","ND","ND","ND","ND","ND","ND"],
    [24669,"04/20/2017 12:00","ND","ND","ND","ND","ND","ND"],
    [24670,"04/20/2017 13:00","ND","ND","ND","ND","ND","ND"],
    [24671,"04/20/2017 14:00","ND","ND","ND","ND","ND","ND"],
    [24672,"04/20/2017 15:00","ND","ND","ND","ND","ND","ND"],
    [24673,"04/20/2017 16:00","ND","ND","ND","ND","ND","ND"],
    [24674,"04/20/2017 17:00","ND","ND","ND","ND","ND","ND"],
    [24675,"04/20/2017 18:00","ND","ND","ND","ND","ND","ND"],
    [24676,"04/20/2017 19:00","ND","ND","ND","ND","ND","ND"],
    [24677,"04/20/2017 20:00","ND","ND","ND","ND","ND","ND"],
    [24678,"04/20/2017 21:00","ND","ND","ND","ND","ND","ND"],
    [24679,"04/20/2017 22:00","ND","ND","ND","ND","ND","ND"],
    [24680,"04/20/2017 23:00","ND","ND","ND","ND","ND","ND"],
    [24681,"04/21/2017 00:00","ND","ND","ND","ND","ND","ND"],
    [24682,"04/21/2017 01:00","ND","ND","ND","ND","ND","ND"],
    [24683,"04/21/2017 02:00","ND","ND","ND","ND","ND","ND"],
    [24684,"04/21/2017 03:00","ND","ND","ND","ND","ND","ND"],
    [24685,"04/21/2017 04:00","ND","ND","ND","ND","ND","ND"],
    [24686,"04/21/2017 05:00","ND","ND","ND","ND","ND","ND"],
    [24687,"04/21/2017 06:00","ND","ND","ND","ND","ND","ND"],
    [24688,"04/21/2017 07:00","ND","ND","ND","ND","ND","ND"],
    [24689,"04/21/2017 08:00","ND","ND","ND","ND","ND","ND"],
    [24690,"04/21/2017 09:00","ND","ND","ND","ND","ND","ND"],
    [24691,"04/21/2017 10:00","ND","ND","ND","ND","ND","ND"],
    [24692,"04/21/2017 11:00","ND","ND","ND","ND","ND","ND"],
    [24693,"04/21/2017 12:00","ND","ND","ND","ND","ND","ND"],
    [24694,"04/21/2017 13:00","ND","ND","ND","ND","ND","ND"],
    [24695,"04/21/2017 14:00","ND","ND","ND","ND","ND","ND"],
    [24696,"04/21/2017 15:00","ND","ND","ND","ND","ND","ND"],
    [24697,"04/21/2017 16:00","ND","ND","ND","ND","ND","ND"],
    [24698,"04/21/2017 17:00","ND","ND","ND","ND","ND","ND"],
    [24699,"04/21/2017 18:00","ND","ND","ND","ND","ND","ND"],
    [24700,"04/21/2017 19:00","ND","ND","ND","ND","ND","ND"],
    [24701,"04/21/2017 20:00","ND","ND","ND","ND","ND","ND"],
    [24702,"04/21/2017 21:00","ND","ND","ND","ND","ND","ND"],
    [24703,"04/21/2017 22:00","ND","ND","ND","ND","ND","ND"],
    [24704,"04/21/2017 23:00","ND","ND","ND","ND","ND","ND"],
    [24705,"04/22/2017 00:00","ND","ND","ND","ND","ND","ND"],
    [24706,"04/22/2017 01:00","ND","ND","ND","ND","ND","ND"],
    [24707,"04/22/2017 02:00","ND","ND","ND","ND","ND","ND"],
    [24708,"04/22/2017 03:00","ND","ND","ND","ND","ND","ND"],
    [24709,"04/22/2017 04:00","ND","ND","ND","ND","ND","ND"],
    [24710,"04/22/2017 05:00","ND","ND","ND","ND","ND","ND"],
    [24711,"04/22/2017 06:00","ND","ND","ND","ND","ND","ND"],
    [24712,"04/22/2017 07:00","ND","ND","ND","ND","ND","ND"],
    [24713,"04/22/2017 08:00","ND","ND","ND","ND","ND","ND"],
    [24714,"04/22/2017 09:00","ND","ND","ND","ND","ND","ND"],
    [24715,"04/22/2017 10:00","ND","ND","ND","ND","ND","ND"],
    [24716,"04/22/2017 11:00","ND","ND","ND","ND","ND","ND"],
    [24717,"04/22/2017 12:00","ND","ND","ND","ND","ND","ND"],
    [24718,"04/22/2017 13:00","ND","ND","ND","ND","ND","ND"],
    [24719,"04/22/2017 14:00","ND","ND","ND","ND","ND","ND"],
    [24720,"04/22/2017 15:00","ND","ND","ND","ND","ND","ND"],
    [24721,"04/22/2017 16:00","ND","ND","ND","ND","ND","ND"],
    [24722,"04/22/2017 17:00","ND","ND","ND","ND","ND","ND"],
    [24723,"04/22/2017 18:00","ND","ND","ND","ND","ND","ND"],
    [24724,"04/22/2017 19:00","ND","ND","ND","ND","ND","ND"],
    [24725,"04/22/2017 20:00","ND","ND","ND","ND","ND","ND"],
    [24726,"04/22/2017 21:00","ND","ND","ND","ND","ND","ND"],
    [24727,"04/22/2017 22:00","ND","ND","ND","ND","ND","ND"],
    [24728,"04/22/2017 23:00","ND","ND","ND","ND","ND","ND"],
    [24729,"04/23/2017 00:00","ND","ND","ND","ND","ND","ND"],
    [24730,"04/23/2017 01:00","ND","ND","ND","ND","ND","ND"],
    [24731,"04/23/2017 02:00","ND","ND","ND","ND","ND","ND"],
    [24732,"04/23/2017 03:00","ND","ND","ND","ND","ND","ND"],
    [24733,"04/23/2017 04:00","ND","ND","ND","ND","ND","ND"],
    [24734,"04/23/2017 05:00","ND","ND","ND","ND","ND","ND"],
    [24735,"04/23/2017 06:00","ND","ND","ND","ND","ND","ND"],
    [24736,"04/23/2017 07:00","ND","ND","ND","ND","ND","ND"],
    [24737,"04/23/2017 08:00","ND","ND","ND","ND","ND","ND"],
    [24738,"04/23/2017 09:00","ND","ND","ND","ND","ND","ND"],
    [24739,"04/23/2017 10:00","ND","ND","ND","ND","ND","ND"],
    [24740,"04/23/2017 11:00","ND","ND","ND","ND","ND","ND"],
    [24741,"04/23/2017 12:00","ND","ND","ND","ND","ND","ND"],
    [24742,"04/23/2017 13:00","ND","ND","ND","ND","ND","ND"],
    [24743,"04/23/2017 14:00","ND","ND","ND","ND","ND","ND"],
    [24744,"04/23/2017 15:00","ND","ND","ND","ND","ND","ND"],
    [24745,"04/23/2017 16:00","ND","ND","ND","ND","ND","ND"],
    [24746,"04/23/2017 17:00","ND","ND","ND","ND","ND","ND"],
    [24747,"04/23/2017 18:00","ND","ND","ND","ND","ND","ND"],
    [24748,"04/23/2017 19:00","ND","ND","ND","ND","ND","ND"],
    [24749,"04/23/2017 20:00","ND","ND","ND","ND","ND","ND"],
    [24750,"04/23/2017 21:00","ND","ND","ND","ND","ND","ND"],
    [24751,"04/23/2017 22:00","ND","ND","ND","ND","ND","ND"],
    [24752,"04/23/2017 23:00","ND","ND","ND","ND","ND","ND"],
    [24753,"04/24/2017 00:00","ND","ND","ND","ND","ND","ND"],
    [24754,"04/24/2017 01:00","ND","ND","ND","ND","ND","ND"],
    [24755,"04/24/2017 02:00","ND","ND","ND","ND","ND","ND"],
    [24756,"04/24/2017 03:00","ND","ND","ND","ND","ND","ND"],
    [24757,"04/24/2017 04:00","ND","ND","ND","ND","ND","ND"],
    [24758,"04/24/2017 05:00","ND","ND","ND","ND","ND","ND"],
    [24759,"04/24/2017 06:00","ND","ND","ND","ND","ND","ND"],
    [24760,"04/24/2017 07:00","ND","ND","ND","ND","ND","ND"],
    [24761,"04/24/2017 08:00","ND","ND","ND","ND","ND","ND"],
    [24762,"04/24/2017 09:00","ND","ND","ND","ND","ND","ND"],
    [24763,"04/24/2017 10:00","ND","ND","ND","ND","ND","ND"],
    [24764,"04/24/2017 11:00","ND","ND","ND","ND","ND","ND"],
    [24765,"04/24/2017 12:00","ND","ND","ND","ND","ND","ND"],
    [24766,"04/24/2017 13:00","ND","ND","ND","ND","ND","ND"],
    [24767,"04/24/2017 14:00","ND","ND","ND","ND","ND","ND"],
    [24768,"04/24/2017 15:00","ND","ND","ND","ND","ND","ND"],
    [24769,"04/24/2017 16:00","ND","ND","ND","ND","ND","ND"],
    [24770,"04/24/2017 17:00","ND","ND","ND","ND","ND","ND"],
    [24771,"04/24/2017 18:00","ND","ND","ND","ND","ND","ND"],
    [24772,"04/24/2017 19:00","ND","ND","ND","ND","ND","ND"],
    [24773,"04/24/2017 20:00","ND","ND","ND","ND","ND","ND"],
    [24774,"04/24/2017 21:00","ND","ND","ND","ND","ND","ND"],
    [24775,"04/24/2017 22:00","ND","ND","ND","ND","ND","ND"],
    [24776,"04/24/2017 23:00","ND","ND","ND","ND","ND","ND"],
    [24777,"04/25/2017 00:00","ND","ND","ND","ND","ND","ND"],
    [24778,"04/25/2017 01:00","ND","ND","ND","ND","ND","ND"],
    [24779,"04/25/2017 02:00","ND","ND","ND","ND","ND","ND"],
    [24780,"04/25/2017 03:00","ND","ND","ND","ND","ND","ND"],
    [24781,"04/25/2017 04:00","ND","ND","ND","ND","ND","ND"],
    [24782,"04/25/2017 05:00","ND","ND","ND","ND","ND","ND"],
    [24783,"04/25/2017 06:00","ND","ND","ND","ND","ND","ND"],
    [24784,"04/25/2017 07:00","ND","ND","ND","ND","ND","ND"],
    [24785,"04/25/2017 08:00","ND","ND","ND","ND","ND","ND"],
    [24786,"04/25/2017 09:00","ND","ND","ND","ND","ND","ND"],
    [24787,"04/25/2017 10:00","ND","ND","ND","ND","ND","ND"],
    [24788,"04/25/2017 11:00","ND","ND","ND","ND","ND","ND"],
    [24789,"04/25/2017 12:00","ND","ND","ND","ND","ND","ND"],
    [24790,"04/25/2017 13:00","ND","ND","ND","ND","ND","ND"],
    [24791,"04/25/2017 14:00","ND","ND","ND","ND","ND","ND"],
    [24792,"04/25/2017 15:00","ND","ND","ND","ND","ND","ND"],
    [24793,"04/25/2017 16:00","ND","ND","ND","ND","ND","ND"],
    [24794,"04/25/2017 17:00","ND","ND","ND","ND","ND","ND"],
    [24795,"04/25/2017 18:00","ND","ND","ND","ND","ND","ND"],
    [24796,"04/25/2017 19:00","ND","ND","ND","ND","ND","ND"],
    [24797,"04/25/2017 20:00","ND","ND","ND","ND","ND","ND"],
    [24798,"04/25/2017 21:00","ND","ND","ND","ND","ND","ND"],
    [24799,"04/25/2017 22:00","ND","ND","ND","ND","ND","ND"],
    [24800,"04/25/2017 23:00","ND","ND","ND","ND","ND","ND"],
    [24801,"04/26/2017 00:00","ND","ND","ND","ND","ND","ND"],
    [24802,"04/26/2017 01:00","ND","ND","ND","ND","ND","ND"],
    [24803,"04/26/2017 02:00","ND","ND","ND","ND","ND","ND"],
    [24804,"04/26/2017 03:00","ND","ND","ND","ND","ND","ND"],
    [24805,"04/26/2017 04:00","ND","ND","ND","ND","ND","ND"],
    [24806,"04/26/2017 05:00","ND","ND","ND","ND","ND","ND"],
    [24807,"04/26/2017 06:00","ND","ND","ND","ND","ND","ND"],
    [24808,"04/26/2017 07:00","ND","ND","ND","ND","ND","ND"],
    [24809,"04/26/2017 08:00","ND","ND","ND","ND","ND","ND"],
    [24810,"04/26/2017 09:00","ND","ND","ND","ND","ND","ND"],
    [24811,"04/26/2017 10:00","ND","ND","ND","ND","ND","ND"],
    [24812,"04/26/2017 11:00","ND","ND","ND","ND","ND","ND"],
    [24813,"04/26/2017 12:00","ND","ND","ND","ND","ND","ND"],
    [24814,"04/26/2017 13:00","ND","ND","ND","ND","ND","ND"],
    [24815,"04/26/2017 14:00","ND","ND","ND","ND","ND","ND"],
    [24816,"04/26/2017 15:00","ND","ND","ND","ND","ND","ND"],
    [24817,"04/26/2017 16:00","ND","ND","ND","ND","ND","ND"],
    [24818,"04/26/2017 17:00","ND","ND","ND","ND","ND","ND"],
    [24819,"04/26/2017 18:00","ND","ND","ND","ND","ND","ND"],
    [24820,"04/26/2017 19:00","ND","ND","ND","ND","ND","ND"],
    [24821,"04/26/2017 20:00","ND","ND","ND","ND","ND","ND"],
    [24822,"04/26/2017 21:00","ND","ND","ND","ND","ND","ND"],
    [24823,"04/26/2017 22:00","ND","ND","ND","ND","ND","ND"],
    [24824,"04/26/2017 23:00","ND","ND","ND","ND","ND","ND"],
    [24825,"04/27/2017 00:00","ND","ND","ND","ND","ND","ND"],
    [24826,"04/27/2017 01:00","ND","ND","ND","ND","ND","ND"],
    [24827,"04/27/2017 02:00","ND","ND","ND","ND","ND","ND"],
    [24828,"04/27/2017 03:00","ND","ND","ND","ND","ND","ND"],
    [24829,"04/27/2017 04:00","ND","ND","ND","ND","ND","ND"],
    [24830,"04/27/2017 05:00","ND","ND","ND","ND","ND","ND"],
    [24831,"04/27/2017 06:00","ND","ND","ND","ND","ND","ND"],
    [24832,"04/27/2017 07:00","ND","ND","ND","ND","ND","ND"],
    [24833,"04/27/2017 08:00","ND","ND","ND","ND","ND","ND"],
    [24834,"04/27/2017 09:00","ND","ND","ND","ND","ND","ND"],
    [24835,"04/27/2017 10:00","ND","ND","ND","ND","ND","ND"],
    [24836,"04/27/2017 11:00","ND","ND","ND","ND","ND","ND"],
    [24837,"04/27/2017 12:00","ND","ND","ND","ND","ND","ND"],
    [24838,"04/27/2017 13:00","ND","ND","ND","ND","ND","ND"],
    [24839,"04/27/2017 14:00","ND","ND","ND","ND","ND","ND"],
    [24840,"04/27/2017 15:00","ND","ND","ND","ND","ND","ND"],
    [24841,"04/27/2017 16:00","ND","ND","ND","ND","ND","ND"],
    [24842,"04/27/2017 17:00","ND","ND","ND","ND","ND","ND"],
    [24843,"04/27/2017 18:00","ND","ND","ND","ND","ND","ND"],
    [24844,"04/27/2017 19:00","ND","ND","ND","ND","ND","ND"],
    [24845,"04/27/2017 20:00","ND","ND","ND","ND","ND","ND"],
    [24846,"04/27/2017 21:00","ND","ND","ND","ND","ND","ND"],
    [24847,"04/27/2017 22:00","ND","ND","ND","ND","ND","ND"],
    [24848,"04/27/2017 23:00","ND","ND","ND","ND","ND","ND"],
    [24849,"04/28/2017 00:00","ND","ND","ND","ND","ND","ND"],
    [24850,"04/28/2017 01:00","ND","ND","ND","ND","ND","ND"],
    [24851,"04/28/2017 02:00","ND","ND","ND","ND","ND","ND"],
    [24852,"04/28/2017 03:00","ND","ND","ND","ND","ND","ND"],
    [24853,"04/28/2017 04:00","ND","ND","ND","ND","ND","ND"],
    [24854,"04/28/2017 05:00","ND","ND","ND","ND","ND","ND"],
    [24855,"04/28/2017 06:00","ND","ND","ND","ND","ND","ND"],
    [24856,"04/28/2017 07:00","ND","ND","ND","ND","ND","ND"],
    [24857,"04/28/2017 08:00","ND","ND","ND","ND","ND","ND"],
    [24858,"04/28/2017 09:00","ND","ND","ND","ND","ND","ND"],
    [24859,"04/28/2017 10:00","ND","ND","ND","ND","ND","ND"],
    [24860,"04/28/2017 11:00","ND","ND","ND","ND","ND","ND"],
    [24861,"04/28/2017 12:00","ND","ND","ND","ND","ND","ND"],
    [24862,"04/28/2017 13:00","ND","ND","ND","ND","ND","ND"],
    [24863,"04/28/2017 14:00","ND","ND","ND","ND","ND","ND"],
    [24864,"04/28/2017 15:00","ND","ND","ND","ND","ND","ND"],
    [24865,"04/28/2017 16:00","ND","ND","ND","ND","ND","ND"],
    [24866,"04/28/2017 17:00","ND","ND","ND","ND","ND","ND"],
    [24867,"04/28/2017 18:00","ND","ND","ND","ND","ND","ND"],
    [24868,"04/28/2017 19:00","ND","ND","ND","ND","ND","ND"],
    [24869,"04/28/2017 20:00","ND","ND","ND","ND","ND","ND"],
    [24870,"04/28/2017 21:00","ND","ND","ND","ND","ND","ND"],
    [24871,"04/28/2017 22:00","ND","ND","ND","ND","ND","ND"],
    [24872,"04/28/2017 23:00","ND","ND","ND","ND","ND","ND"],
    [24873,"04/29/2017 00:00","ND","ND","ND","ND","ND","ND"],
    [24874,"04/29/2017 01:00","ND","ND","ND","ND","ND","ND"],
    [24875,"04/29/2017 02:00","ND","ND","ND","ND","ND","ND"],
    [24876,"04/29/2017 03:00","ND","ND","ND","ND","ND","ND"],
    [24877,"04/29/2017 04:00","ND","ND","ND","ND","ND","ND"],
    [24878,"04/29/2017 05:00","ND","ND","ND","ND","ND","ND"],
    [24879,"04/29/2017 06:00","ND","ND","ND","ND","ND","ND"],
    [24880,"04/29/2017 07:00","ND","ND","ND","ND","ND","ND"],
    [24881,"04/29/2017 08:00","ND","ND","ND","ND","ND","ND"],
    [24882,"04/29/2017 09:00","ND","ND","ND","ND","ND","ND"],
    [24883,"04/29/2017 10:00","ND","ND","ND","ND","ND","ND"],
    [24884,"04/29/2017 11:00","ND","ND","ND","ND","ND","ND"],
    [24885,"04/29/2017 12:00","ND","ND","ND","ND","ND","ND"],
    [24886,"04/29/2017 13:00","ND","ND","ND","ND","ND","ND"],
    [24887,"04/29/2017 14:00","ND","0,8","ND","ND","ND","ND"],
    [24888,"04/29/2017 15:00","ND","0,1","ND","ND","ND","ND"],
    [24889,"04/29/2017 16:00","ND","0,5","ND","ND","ND","ND"],
    [24890,"04/29/2017 17:00","ND","0,2","ND","ND","ND","ND"],
    [24891,"04/29/2017 18:00","ND","0,2","ND","ND","ND","ND"],
    [24892,"04/29/2017 19:00","ND","0,3","ND","ND","ND","ND"],
    [24893,"04/29/2017 20:00","ND","0,6","ND","ND","ND","ND"],
    [24894,"04/29/2017 21:00","ND","0,6","ND","ND","ND","ND"],
    [24895,"04/29/2017 22:00","ND","0,7","ND","ND","ND","ND"],
    [24896,"04/29/2017 23:00","ND","0,6","ND","ND","ND","ND"],
    [24897,"04/30/2017 00:00","ND","0,6","ND","ND","ND","ND"],
    [24898,"04/30/2017 01:00","ND","0,4","ND","ND","ND","ND"],
    [24899,"04/30/2017 02:00","ND","0,3","ND","ND","ND","ND"],
    [24900,"04/30/2017 03:00","ND","0,1","ND","ND","ND","ND"],
    [24901,"04/30/2017 04:00","ND","0,1","ND","ND","ND","ND"],
    [24902,"04/30/2017 05:00","ND","0,1","ND","ND","ND","ND"],
    [24903,"04/30/2017 06:00","ND","0","ND","ND","ND","ND"],
    [24904,"04/30/2017 07:00","ND","0,3","ND","ND","ND","ND"],
    [24905,"04/30/2017 08:00","ND","0,3","ND","ND","ND","ND"],
    [24906,"04/30/2017 09:00","ND","0,1","ND","ND","ND","ND"],
    [24907,"04/30/2017 10:00","ND","0,2","ND","ND","ND","ND"],
    [24908,"04/30/2017 11:00","ND","0,2","ND","ND","ND","ND"],
    [24909,"04/30/2017 12:00","ND","0,3","ND","ND","ND","ND"],
    [24910,"04/30/2017 13:00","ND","0,3","ND","ND","ND","ND"],
    [24911,"04/30/2017 14:00","ND","0,4","ND","ND","ND","ND"],
    [24912,"04/30/2017 15:00","ND","0,3","ND","ND","ND","ND"],
    [24913,"04/30/2017 16:00","ND","0,5","ND","ND","ND","ND"],
    [24914,"04/30/2017 17:00","ND","0,6","ND","ND","ND","ND"],
    [24915,"04/30/2017 18:00","ND","0,8","ND","ND","ND","ND"],
    [24916,"04/30/2017 19:00","ND","0,6","ND","ND","ND","ND"],
    [24917,"04/30/2017 20:00","ND","0,4","ND","ND","ND","ND"],
    [24918,"04/30/2017 21:00","ND","0,5","ND","ND","ND","ND"],
    [24919,"04/30/2017 22:00","ND","0,6","ND","ND","ND","ND"],
    [24920,"04/30/2017 23:00","ND","0,6","ND","ND","ND","ND"],
    [24921,"42740","ND","0,4","ND","ND","ND","ND"],
    [24922,"42740,04167","ND","0,4","ND","ND","ND","ND"],
    [24923,"42740,08333","ND","0,2","ND","ND","ND","ND"],
    [24924,"42740,125","ND","0,5","ND","ND","ND","ND"],
    [24925,"42740,16667","ND","0,4","ND","ND","ND","ND"],
    [24926,"42740,20833","ND","0,5","ND","ND","ND","ND"],
    [24927,"42740,25","ND","0,5","ND","ND","ND","ND"],
    [24928,"42740,29167","ND","0,5","ND","ND","ND","ND"],
    [24929,"42740,33333","ND","0,5","ND","ND","ND","ND"],
    [24930,"42740,375","ND","0,4","ND","ND","ND","ND"],
    [24931,"42740,41667","ND","0,4","ND","ND","ND","ND"],
    [24932,"42740,45833","ND","0,4","ND","ND","ND","ND"],
    [24933,"42740,5","ND","0,3","ND","ND","ND","ND"],
    [24934,"42740,54167","ND","0,5","ND","ND","ND","ND"],
    [24935,"42740,58333","ND","0,4","ND","ND","ND","ND"],
    [24936,"42740,625","ND","0,4","ND","ND","ND","ND"],
    [24937,"42740,66667","ND","0,5","ND","ND","ND","ND"],
    [24938,"42740,70833","ND","0,7","ND","ND","ND","ND"],
    [24939,"42740,75","ND","0,6","ND","ND","ND","ND"],
    [24940,"42740,79167","ND","0,9","ND","ND","ND","ND"],
    [24941,"42740,83333","ND","0,8","ND","ND","ND","ND"],
    [24942,"42740,875","ND","0,7","ND","ND","ND","ND"],
    [24943,"42740,91667","ND","0,6","ND","ND","ND","ND"],
    [24944,"42740,95833","ND","0,7","ND","ND","ND","ND"],
    [24945,"42771","ND","0,7","ND","ND","ND","ND"],
    [24946,"42771,04167","ND","0,4","ND","ND","ND","ND"],
    [24947,"42771,08333","ND","0,5","ND","ND","ND","ND"],
    [24948,"42771,125","ND","0,5","ND","ND","ND","ND"],
    [24949,"42771,16667","ND","0,4","ND","ND","ND","ND"],
    [24950,"42771,20833","ND","0,3","ND","ND","ND","ND"],
    [24951,"42771,25","ND","0,5","ND","ND","ND","ND"],
    [24952,"42771,29167","ND","0,7","ND","ND","ND","ND"],
    [24953,"42771,33333","ND","1,3","ND","ND","ND","ND"],
    [24954,"42771,375","ND","1,2","ND","ND","ND","ND"],
    [24955,"42771,41667","ND","1","ND","ND","ND","ND"],
    [24956,"42771,45833","ND","0,8","ND","ND","ND","ND"],
    [24957,"42771,5","ND","0,6","ND","ND","ND","ND"],
    [24958,"42771,54167","2","0,5","ND","ND","ND","ND"],
    [24959,"42771,58333","29,6","0,5","ND","ND","ND","ND"],
    [24960,"42771,625","24,5","0,5","ND","ND","ND","ND"],
    [24961,"42771,66667","18,1","1","ND","ND","ND","ND"],
    [24962,"42771,70833","10,7","1,2","ND","ND","ND","ND"],
    [24963,"42771,75","10,7","1,4","ND","ND","ND","ND"],
    [24964,"42771,79167","11","1,6","ND","ND","ND","ND"],
    [24965,"42771,83333","19,8","1,7","ND","ND","ND","ND"],
    [24966,"42771,875","36,3","2,2","ND","ND","ND","ND"],
    [24967,"42771,91667","37,1","2","ND","ND","ND","ND"],
    [24968,"42771,95833","34,8","1,6","ND","ND","ND","ND"],
    [24969,"42799","27,5","1,4","ND","ND","ND","ND"],
    [24970,"42799,04167","20,5","ND","ND","ND","ND","ND"],
    [24971,"42799,08333","18,9","ND","ND","ND","ND","ND"],
    [24972,"42799,125","27,2","ND","ND","ND","ND","ND"],
    [24973,"42799,16667","24,9","ND","ND","ND","ND","ND"],
    [24974,"42799,20833","24,1","ND","ND","ND","ND","ND"],
    [24975,"42799,25","30,7","ND","ND","ND","ND","ND"],
    [24976,"42799,29167","48,7","ND","ND","ND","ND","ND"],
    [24977,"42799,33333","56,3","ND","ND","ND","ND","ND"],
    [24978,"42799,375","62,8","ND","ND","ND","ND","ND"],
    [24979,"42799,41667","69,5","ND","ND","ND","ND","ND"],
    [24980,"42799,45833","51,8","ND","ND","ND","ND","ND"],
    [24981,"42799,5","68,6","ND","ND","ND","ND","ND"],
    [24982,"42799,54167","49,1","ND","ND","ND","ND","ND"],
    [24983,"42799,58333","39,9","ND","ND","ND","ND","ND"],
    [24984,"42799,625","22,1","ND","ND","ND","ND","ND"],
    [24985,"42799,66667","33,2","2,1","ND","ND","ND","ND"],
    [24986,"42799,70833","34,5","2,5","ND","ND","ND","ND"],
    [24987,"42799,75","31","2,6","ND","ND","ND","ND"],
    [24988,"42799,79167","61,8","2,7","ND","ND","ND","ND"],
    [24989,"42799,83333","57,2","2,4","ND","ND","ND","ND"],
    [24990,"42799,875","61,1","2,2","ND","ND","ND","ND"],
    [24991,"42799,91667","61","2,1","ND","ND","ND","ND"],
    [24992,"42799,95833","44,4","1,7","ND","ND","ND","ND"],
    [24993,"42830","37,9","1,2","ND","ND","ND","ND"],
    [24994,"42830,04167","39,2","1,1","ND","ND","ND","ND"],
    [24995,"42830,08333","38,1","1","ND","ND","ND","ND"],
    [24996,"42830,125","23,9","0,8","ND","ND","ND","ND"],
    [24997,"42830,16667","25,7","0,6","ND","ND","ND","ND"],
    [24998,"42830,20833","26,6","0,8","ND","ND","ND","ND"],
    [24999,"42830,25","29,3","1,4","ND","ND","ND","ND"],
    [25000,"42830,29167","46,5","1,6","ND","ND","ND","ND"],
    [25001,"42830,33333","78,6","2,2","ND","ND","ND","ND"],
    [25002,"42830,375","85,2","3,1","ND","ND","ND","ND"],
    [25003,"42830,41667","53,6","7,4","ND","ND","ND","ND"],
    [25004,"42830,45833","49,6","6,7","ND","ND","ND","ND"],
    [25005,"42830,5","51,1","4,3","ND","ND","ND","ND"],
    [25006,"42830,54167","39,5","2,5","ND","ND","ND","ND"],
    [25007,"42830,58333","32,6","1,8","ND","ND","ND","ND"],
    [25008,"42830,625","36,2","2,6","ND","ND","ND","ND"],
    [25009,"42830,66667","38,8","3","ND","ND","ND","ND"],
    [25010,"42830,70833","24,7","1","ND","ND","ND","ND"],
    [25011,"42830,75","38,7","0,7","ND","ND","ND","ND"],
    [25012,"42830,79167","22,2","0,8","ND","ND","ND","ND"],
    [25013,"42830,83333","23,9","0,8","ND","ND","ND","ND"],
    [25014,"42830,875","28,1","1","ND","ND","ND","ND"],
    [25015,"42830,91667","30,5","1,8","ND","ND","ND","ND"],
    [25016,"42830,95833","39,1","2,5","ND","ND","ND","ND"],
    [25017,"42860","30,6","2,5","ND","ND","ND","ND"],
    [25018,"42860,04167","30,1","2,3","ND","ND","ND","ND"],
    [25019,"42860,08333","17,6","2,4","ND","ND","ND","ND"],
    [25020,"42860,125","16,3","2,2","ND","ND","ND","ND"],
    [25021,"42860,16667","22,3","2","ND","ND","ND","ND"],
    [25022,"42860,20833","20","2,1","ND","ND","ND","ND"],
    [25023,"42860,25","24,2","2,2","ND","ND","ND","ND"],
    [25024,"42860,29167","43,9","2,9","ND","ND","ND","ND"],
    [25025,"42860,33333","74,7","3,1","ND","ND","ND","ND"],
    [25026,"42860,375","66,7","3,2","ND","ND","ND","ND"],
    [25027,"42860,41667","56,6","3,7","ND","ND","ND","ND"],
    [25028,"42860,45833","79,8","3,9","ND","ND","ND","ND"],
    [25029,"42860,5","54,1","3,6","ND","ND","ND","ND"],
    [25030,"42860,54167","34,2","4,1","ND","ND","ND","ND"],
    [25031,"42860,58333","36,7","2,2","ND","ND","ND","ND"],
    [25032,"42860,625","38,2","2,9","ND","ND","ND","ND"],
    [25033,"42860,66667","47,6","4,9","ND","ND","ND","ND"],
    [25034,"42860,70833","55,9","0,3","ND","ND","ND","ND"],
    [25035,"42860,75","20,6","0","ND","ND","ND","ND"],
    [25036,"42860,79167","0,5","ND","ND","ND","ND","ND"],
    [25037,"42860,83333","11,9","0,2","ND","ND","ND","ND"],
    [25038,"42860,875","23,1","0,2","ND","ND","ND","ND"],
    [25039,"42860,91667","25,6","0,1","ND","ND","ND","ND"],
    [25040,"42860,95833","14,6","0,1","ND","ND","ND","ND"],
    [25041,"42891","12,7","0,2","ND","ND","ND","ND"],
    [25042,"42891,04167","9,6","ND","ND","ND","ND","ND"],
    [25043,"42891,08333","3,8","ND","ND","ND","ND","ND"],
    [25044,"42891,125","2,3","ND","ND","ND","ND","ND"],
    [25045,"42891,16667","1,6","ND","ND","ND","ND","ND"],
    [25046,"42891,20833","3,4","ND","ND","ND","ND","ND"],
    [25047,"42891,25","4,4","ND","ND","ND","ND","ND"],
    [25048,"42891,29167","2,8","ND","ND","ND","ND","ND"],
    [25049,"42891,33333","14,4","0,4","ND","ND","ND","ND"],
    [25050,"42891,375","13,7","0,3","ND","ND","ND","ND"],
    [25051,"42891,41667","8,4","0,3","ND","ND","ND","ND"],
    [25052,"42891,45833","9,3","0,3","ND","ND","ND","ND"],
    [25053,"42891,5","20,5","0,3","ND","ND","ND","ND"],
    [25054,"42891,54167","22,9","0,7","ND","ND","ND","ND"],
    [25055,"42891,58333","45,9","1,5","ND","ND","ND","ND"],
    [25056,"42891,625","42,3","1,7","ND","ND","ND","ND"],
    [25057,"42891,66667","36,1","1","ND","ND","ND","ND"],
    [25058,"42891,70833","32,4","0,7","ND","ND","ND","ND"],
    [25059,"42891,75","22,2","1,1","ND","ND","ND","ND"],
    [25060,"42891,79167","32,3","0,8","ND","ND","ND","ND"],
    [25061,"42891,83333","43,1","0,4","ND","ND","ND","ND"],
    [25062,"42891,875","34,9","0,3","ND","ND","ND","ND"],
    [25063,"42891,91667","33,8","0,1","ND","ND","ND","ND"],
    [25064,"42891,95833","34,4","0,3","ND","ND","ND","ND"],
    [25065,"42921","46,8","0,2","ND","ND","ND","ND"],
    [25066,"42921,04167","33","0,2","ND","ND","ND","ND"],
    [25067,"42921,08333","26,6","0,4","ND","ND","ND","ND"],
    [25068,"42921,125","20,1","0,3","ND","ND","ND","ND"],
    [25069,"42921,16667","25","0,3","ND","ND","ND","ND"],
    [25070,"42921,20833","22","0,2","ND","ND","ND","ND"],
    [25071,"42921,25","29,2","1,2","ND","ND","ND","ND"],
    [25072,"42921,29167","31,1","0,8","ND","ND","ND","ND"],
    [25073,"42921,33333","26,8","0,7","ND","ND","ND","ND"],
    [25074,"42921,375","27","0,9","ND","ND","ND","ND"],
    [25075,"42921,41667","24,1","4,8","ND","ND","ND","ND"],
    [25076,"42921,45833","17,4","1","ND","ND","ND","ND"],
    [25077,"42921,5","12,4","1,5","ND","ND","ND","ND"],
    [25078,"42921,54167","14,4","2","ND","ND","ND","ND"],
    [25079,"42921,58333","18,2","0,3","ND","ND","ND","ND"],
    [25080,"42921,625","5,2","0,1","ND","ND","ND","ND"],
    [25081,"42921,66667","11,5","0,2","ND","ND","ND","ND"],
    [25082,"42921,70833","13,4","2,3","ND","ND","ND","ND"],
    [25083,"42921,75","28,3","0,9","ND","ND","ND","ND"],
    [25084,"42921,79167","29,8","0,7","ND","ND","ND","ND"],
    [25085,"42921,83333","36,3","0,5","ND","ND","ND","ND"],
    [25086,"42921,875","34,3","1,2","ND","ND","ND","ND"],
    [25087,"42921,91667","31,5","3,6","ND","ND","ND","ND"],
    [25088,"42921,95833","38,5","2,4","ND","ND","ND","ND"],
    [25089,"42952","19,6","0,3","ND","ND","ND","ND"],
    [25090,"42952,04167","17,7","0,3","ND","ND","ND","ND"],
    [25091,"42952,08333","16,4","ND","ND","ND","ND","ND"],
    [25092,"42952,125","12,7","ND","ND","ND","ND","ND"],
    [25093,"42952,16667","11,4","ND","ND","ND","ND","ND"],
    [25094,"42952,20833","14","0,2","ND","ND","ND","ND"],
    [25095,"42952,25","22,4","0,7","ND","ND","ND","ND"],
    [25096,"42952,29167","33,3","1,8","ND","ND","ND","ND"],
    [25097,"42952,33333","43","2","ND","ND","ND","ND"],
    [25098,"42952,375","41,9","1,6","ND","ND","ND","ND"],
    [25099,"42952,41667","46,1","1,6","ND","ND","ND","ND"],
    [25100,"42952,45833","46,3","1,9","ND","ND","ND","ND"],
    [25101,"42952,5","38,2","1,4","ND","ND","ND","ND"],
    [25102,"42952,54167","20,9","0,6","ND","ND","ND","ND"],
    [25103,"42952,58333","23,5","0,8","ND","ND","ND","ND"],
    [25104,"42952,625","32,5","1","ND","ND","ND","ND"],
    [25105,"42952,66667","31","2,5","ND","ND","ND","ND"],
    [25106,"42952,70833","40,5","0,4","ND","ND","ND","ND"],
    [25107,"42952,75","12,4","0,2","ND","ND","ND","ND"],
    [25108,"42952,79167","19","0,3","ND","ND","ND","ND"],
    [25109,"42952,83333","27,4","0,6","ND","ND","ND","ND"],
    [25110,"42952,875","26,4","0,7","ND","ND","ND","ND"],
    [25111,"42952,91667","26,7","0,8","ND","ND","ND","ND"],
    [25112,"42952,95833","26,5","0,4","ND","ND","ND","ND"],
    [25113,"42983","19","0,2","ND","ND","ND","ND"],
    [25114,"42983,04167","16,2","0,1","ND","ND","ND","ND"],
    [25115,"42983,08333","19,4","0","ND","ND","ND","ND"],
    [25116,"42983,125","30,2","0,1","ND","ND","ND","ND"],
    [25117,"42983,16667","17","ND","ND","ND","ND","ND"],
    [25118,"42983,20833","23,4","ND","ND","ND","ND","ND"],
    [25119,"42983,25","23,7","0,3","ND","ND","ND","ND"],
    [25120,"42983,29167","55,8","0,8","ND","ND","ND","ND"],
    [25121,"42983,33333","55,3","1,3","ND","ND","ND","ND"],
    [25122,"42983,375","43,6","2,6","ND","ND","ND","ND"],
    [25123,"42983,41667","34","4,8","ND","ND","ND","ND"],
    [25124,"42983,45833","ND","ND","ND","ND","ND","ND"],
    [25125,"42983,5","ND","ND","ND","ND","ND","ND"],
    [25126,"42983,54167","ND","ND","ND","ND","ND","ND"],
    [25127,"42983,58333","ND","ND","ND","ND","ND","ND"],
    [25128,"42983,625","ND","ND","ND","ND","ND","ND"],
    [25129,"42983,66667","ND","ND","ND","ND","ND","ND"],
    [25130,"42983,70833","ND","ND","ND","ND","ND","ND"],
    [25131,"42983,75","ND","ND","ND","ND","ND","ND"],
    [25132,"42983,79167","ND","ND","ND","ND","ND","ND"],
    [25133,"42983,83333","ND","ND","ND","ND","ND","ND"],
    [25134,"42983,875","ND","ND","ND","ND","ND","ND"],
    [25135,"42983,91667","ND","ND","ND","ND","ND","ND"],
    [25136,"42983,95833","ND","ND","ND","ND","ND","ND"],
    [25137,"43013","ND","ND","ND","ND","ND","ND"],
    [25138,"43013,04167","ND","ND","ND","ND","ND","ND"],
    [25139,"43013,08333","ND","ND","ND","ND","ND","ND"],
    [25140,"43013,125","ND","ND","ND","ND","ND","ND"],
    [25141,"43013,16667","ND","ND","ND","ND","ND","ND"],
    [25142,"43013,20833","ND","ND","ND","ND","ND","ND"],
    [25143,"43013,25","ND","ND","ND","ND","ND","ND"],
    [25144,"43013,29167","ND","ND","ND","ND","ND","ND"],
    [25145,"43013,33333","ND","ND","ND","ND","ND","ND"],
    [25146,"43013,375","ND","ND","ND","ND","ND","ND"],
    [25147,"43013,41667","ND","ND","ND","ND","ND","ND"],
    [25148,"43013,45833","ND","ND","ND","ND","ND","ND"],
    [25149,"43013,5","ND","ND","ND","ND","ND","ND"],
    [25150,"43013,54167","ND","ND","ND","ND","ND","ND"],
    [25151,"43013,58333","ND","ND","ND","ND","ND","ND"],
    [25152,"43013,625","ND","ND","ND","ND","ND","ND"],
    [25153,"43013,66667","ND","ND","ND","ND","ND","ND"],
    [25154,"43013,70833","ND","ND","ND","ND","ND","ND"],
    [25155,"43013,75","ND","ND","ND","ND","ND","ND"],
    [25156,"43013,79167","ND","ND","ND","ND","ND","ND"],
    [25157,"43013,83333","ND","ND","ND","ND","ND","ND"],
    [25158,"43013,875","ND","ND","ND","ND","ND","ND"],
    [25159,"43013,91667","ND","ND","ND","ND","ND","ND"],
    [25160,"43013,95833","ND","ND","ND","ND","ND","ND"],
    [25161,"43044","ND","ND","ND","ND","ND","ND"],
    [25162,"43044,04167","ND","ND","ND","ND","ND","ND"],
    [25163,"43044,08333","ND","ND","ND","ND","ND","ND"],
    [25164,"43044,125","ND","ND","ND","ND","ND","ND"],
    [25165,"43044,16667","ND","ND","ND","ND","ND","ND"],
    [25166,"43044,20833","ND","ND","ND","ND","ND","ND"],
    [25167,"43044,25","ND","ND","ND","ND","ND","ND"],
    [25168,"43044,29167","ND","ND","ND","ND","ND","ND"],
    [25169,"43044,33333","ND","ND","ND","ND","ND","ND"],
    [25170,"43044,375","ND","ND","ND","ND","ND","ND"],
    [25171,"43044,41667","ND","ND","ND","ND","ND","ND"],
    [25172,"43044,45833","ND","ND","ND","ND","ND","ND"],
    [25173,"43044,5","ND","ND","ND","ND","ND","ND"],
    [25174,"43044,54167","ND","ND","ND","ND","ND","ND"],
    [25175,"43044,58333","ND","ND","ND","ND","ND","ND"],
    [25176,"43044,625","ND","ND","ND","ND","ND","ND"],
    [25177,"43044,66667","ND","ND","ND","ND","ND","ND"],
    [25178,"43044,70833","ND","ND","ND","ND","ND","ND"],
    [25179,"43044,75","ND","ND","ND","ND","ND","ND"],
    [25180,"43044,79167","ND","ND","ND","ND","ND","ND"],
    [25181,"43044,83333","ND","ND","ND","ND","ND","ND"],
    [25182,"43044,875","ND","ND","ND","ND","ND","ND"],
    [25183,"43044,91667","ND","ND","ND","ND","ND","ND"],
    [25184,"43044,95833","ND","ND","ND","ND","ND","ND"],
    [25185,"43074","ND","ND","ND","ND","ND","ND"],
    [25186,"43074,04167","ND","ND","ND","ND","ND","ND"],
    [25187,"43074,08333","ND","ND","ND","ND","ND","ND"],
    [25188,"43074,125","ND","ND","ND","ND","ND","ND"],
    [25189,"43074,16667","ND","ND","ND","ND","ND","ND"],
    [25190,"43074,20833","ND","ND","ND","ND","ND","ND"],
    [25191,"43074,25","ND","ND","ND","ND","ND","ND"],
    [25192,"43074,29167","ND","ND","ND","ND","ND","ND"],
    [25193,"43074,33333","ND","ND","ND","ND","ND","ND"],
    [25194,"43074,375","ND","ND","ND","ND","ND","ND"],
    [25195,"43074,41667","ND","ND","ND","ND","ND","ND"],
    [25196,"43074,45833","ND","ND","ND","ND","ND","ND"],
    [25197,"43074,5","ND","ND","ND","ND","ND","ND"],
    [25198,"43074,54167","ND","ND","ND","ND","ND","ND"],
    [25199,"43074,58333","ND","ND","ND","ND","ND","ND"],
    [25200,"43074,625","ND","ND","ND","ND","ND","ND"],
    [25201,"43074,66667","ND","ND","ND","ND","ND","ND"],
    [25202,"43074,70833","ND","ND","ND","ND","ND","ND"],
    [25203,"43074,75","ND","ND","ND","ND","ND","ND"],
    [25204,"43074,79167","ND","ND","ND","ND","ND","ND"],
    [25205,"43074,83333","ND","ND","ND","ND","ND","ND"],
    [25206,"43074,875","ND","ND","ND","ND","ND","ND"],
    [25207,"43074,91667","ND","ND","ND","ND","ND","ND"],
    [25208,"43074,95833","ND","ND","ND","ND","ND","ND"],
    [25209,"05/13/2017 00:00","ND","ND","ND","ND","ND","ND"],
    [25210,"05/13/2017 01:00","ND","ND","ND","ND","ND","ND"],
    [25211,"05/13/2017 02:00","ND","ND","ND","ND","ND","ND"],
    [25212,"05/13/2017 03:00","ND","ND","ND","ND","ND","ND"],
    [25213,"05/13/2017 04:00","ND","ND","ND","ND","ND","ND"],
    [25214,"05/13/2017 05:00","ND","ND","ND","ND","ND","ND"],
    [25215,"05/13/2017 06:00","ND","ND","ND","ND","ND","ND"],
    [25216,"05/13/2017 07:00","ND","ND","ND","ND","ND","ND"],
    [25217,"05/13/2017 08:00","ND","ND","ND","ND","ND","ND"],
    [25218,"05/13/2017 09:00","ND","ND","ND","ND","ND","ND"],
    [25219,"05/13/2017 10:00","ND","ND","ND","ND","ND","ND"],
    [25220,"05/13/2017 11:00","ND","ND","ND","ND","ND","ND"],
    [25221,"05/13/2017 12:00","ND","ND","ND","ND","ND","ND"],
    [25222,"05/13/2017 13:00","ND","ND","ND","ND","ND","ND"],
    [25223,"05/13/2017 14:00","ND","ND","ND","ND","ND","ND"],
    [25224,"05/13/2017 15:00","ND","ND","ND","ND","ND","ND"],
    [25225,"05/13/2017 16:00","ND","ND","ND","ND","ND","ND"],
    [25226,"05/13/2017 17:00","ND","ND","ND","ND","ND","ND"],
    [25227,"05/13/2017 18:00","ND","ND","ND","ND","ND","ND"],
    [25228,"05/13/2017 19:00","ND","ND","ND","ND","ND","ND"],
    [25229,"05/13/2017 20:00","ND","ND","ND","ND","ND","ND"],
    [25230,"05/13/2017 21:00","ND","ND","ND","ND","ND","ND"],
    [25231,"05/13/2017 22:00","ND","ND","ND","ND","ND","ND"],
    [25232,"05/13/2017 23:00","ND","ND","ND","ND","ND","ND"],
    [25233,"05/14/2017 00:00","ND","ND","ND","ND","ND","ND"],
    [25234,"05/14/2017 01:00","ND","ND","ND","ND","ND","ND"],
    [25235,"05/14/2017 02:00","ND","ND","ND","ND","ND","ND"],
    [25236,"05/14/2017 03:00","ND","ND","ND","ND","ND","ND"],
    [25237,"05/14/2017 04:00","ND","ND","ND","ND","ND","ND"],
    [25238,"05/14/2017 05:00","ND","ND","ND","ND","ND","ND"],
    [25239,"05/14/2017 06:00","ND","ND","ND","ND","ND","ND"],
    [25240,"05/14/2017 07:00","ND","ND","ND","ND","ND","ND"],
    [25241,"05/14/2017 08:00","ND","ND","ND","ND","ND","ND"],
    [25242,"05/14/2017 09:00","ND","ND","ND","ND","ND","ND"],
    [25243,"05/14/2017 10:00","ND","ND","ND","ND","ND","ND"],
    [25244,"05/14/2017 11:00","ND","ND","ND","ND","ND","ND"],
    [25245,"05/14/2017 12:00","ND","ND","ND","ND","ND","ND"],
    [25246,"05/14/2017 13:00","ND","ND","ND","ND","ND","ND"],
    [25247,"05/14/2017 14:00","ND","ND","ND","ND","ND","ND"],
    [25248,"05/14/2017 15:00","ND","ND","ND","ND","ND","ND"],
    [25249,"05/14/2017 16:00","ND","ND","ND","ND","ND","ND"],
    [25250,"05/14/2017 17:00","ND","ND","ND","ND","ND","ND"],
    [25251,"05/14/2017 18:00","ND","ND","ND","ND","ND","ND"],
    [25252,"05/14/2017 19:00","ND","ND","ND","ND","ND","ND"],
    [25253,"05/14/2017 20:00","ND","ND","ND","ND","ND","ND"],
    [25254,"05/14/2017 21:00","ND","ND","ND","ND","ND","ND"],
    [25255,"05/14/2017 22:00","ND","ND","ND","ND","ND","ND"],
    [25256,"05/14/2017 23:00","ND","ND","ND","ND","ND","ND"],
    [25257,"05/15/2017 00:00","ND","ND","ND","ND","ND","ND"],
    [25258,"05/15/2017 01:00","ND","ND","ND","ND","ND","ND"],
    [25259,"05/15/2017 02:00","ND","ND","ND","ND","ND","ND"],
    [25260,"05/15/2017 03:00","ND","ND","ND","ND","ND","ND"],
    [25261,"05/15/2017 04:00","ND","ND","ND","ND","ND","ND"],
    [25262,"05/15/2017 05:00","ND","ND","ND","ND","ND","ND"],
    [25263,"05/15/2017 06:00","ND","ND","ND","ND","ND","ND"],
    [25264,"05/15/2017 07:00","ND","ND","ND","ND","ND","ND"],
    [25265,"05/15/2017 08:00","ND","ND","ND","ND","ND","ND"],
    [25266,"05/15/2017 09:00","ND","ND","ND","ND","ND","ND"],
    [25267,"05/15/2017 10:00","ND","ND","ND","ND","ND","ND"],
    [25268,"05/15/2017 11:00","ND","ND","ND","ND","ND","ND"],
    [25269,"05/15/2017 12:00","ND","ND","ND","ND","ND","ND"],
    [25270,"05/15/2017 13:00","ND","ND","ND","ND","ND","ND"],
    [25271,"05/15/2017 14:00","ND","ND","ND","ND","ND","ND"],
    [25272,"05/15/2017 15:00","ND","ND","ND","ND","ND","ND"],
    [25273,"05/15/2017 16:00","ND","ND","ND","ND","ND","ND"],
    [25274,"05/15/2017 17:00","ND","0,3","ND","ND","ND","ND"],
    [25275,"05/15/2017 18:00","ND","0,6","ND","ND","ND","ND"],
    [25276,"05/15/2017 19:00","ND","0,4","ND","ND","ND","ND"],
    [25277,"05/15/2017 20:00","12","0,6","ND","ND","ND","ND"],
    [25278,"05/15/2017 21:00","16,8","0,5","ND","ND","ND","ND"],
    [25279,"05/15/2017 22:00","11,2","0,6","ND","ND","ND","ND"],
    [25280,"05/15/2017 23:00","13,7","0,4","ND","ND","ND","ND"],
    [25281,"05/16/2017 00:00","15,9","0,6","ND","ND","ND","ND"],
    [25282,"05/16/2017 01:00","14,1","0,2","ND","ND","ND","ND"],
    [25283,"05/16/2017 02:00","9,3","0,3","ND","ND","ND","ND"],
    [25284,"05/16/2017 03:00","4,7","0,1","ND","ND","ND","ND"],
    [25285,"05/16/2017 04:00","1","0,2","ND","ND","ND","ND"],
    [25286,"05/16/2017 05:00","5","0,2","ND","ND","ND","ND"],
    [25287,"05/16/2017 06:00","8,5","0,4","ND","ND","ND","ND"],
    [25288,"05/16/2017 07:00","12,9","0,8","ND","ND","ND","ND"],
    [25289,"05/16/2017 08:00","24,5","1,2","ND","ND","ND","ND"],
    [25290,"05/16/2017 09:00","18,2","1","ND","ND","ND","ND"],
    [25291,"05/16/2017 10:00","21,4","0,9","ND","ND","ND","ND"],
    [25292,"05/16/2017 11:00","17,9","0,9","ND","ND","ND","ND"],
    [25293,"05/16/2017 12:00","18,7","0,9","ND","ND","ND","ND"],
    [25294,"05/16/2017 13:00","15,4","0,9","ND","ND","ND","ND"],
    [25295,"05/16/2017 14:00","19,5","0,9","ND","ND","ND","ND"],
    [25296,"05/16/2017 15:00","16,6","0,9","ND","ND","ND","ND"],
    [25297,"05/16/2017 16:00","20,3","1","ND","ND","ND","ND"],
    [25298,"05/16/2017 17:00","32,8","1,4","ND","ND","ND","ND"],
    [25299,"05/16/2017 18:00","41,2","0,9","ND","ND","ND","ND"],
    [25300,"05/16/2017 19:00","16","0,7","ND","ND","ND","ND"],
    [25301,"05/16/2017 20:00","15","0,8","ND","ND","ND","ND"],
    [25302,"05/16/2017 21:00","25,3","1,1","ND","ND","ND","ND"],
    [25303,"05/16/2017 22:00","43,4","0,9","ND","ND","ND","ND"],
    [25304,"05/16/2017 23:00","10,2","0,9","ND","ND","ND","ND"],
    [25305,"05/17/2017 00:00","19,3","0,8","ND","ND","ND","ND"],
    [25306,"05/17/2017 01:00","13,2","0,8","ND","ND","ND","ND"],
    [25307,"05/17/2017 02:00","13,7","0,6","ND","ND","ND","ND"],
    [25308,"05/17/2017 03:00","11,6","0,6","ND","ND","ND","ND"],
    [25309,"05/17/2017 04:00","17,4","0,5","ND","ND","ND","ND"],
    [25310,"05/17/2017 05:00","60,2","0,7","ND","ND","ND","ND"],
    [25311,"05/17/2017 06:00","23,6","0,9","ND","ND","ND","ND"],
    [25312,"05/17/2017 07:00","30,3","1,1","ND","ND","ND","ND"],
    [25313,"05/17/2017 08:00","45","1,2","ND","ND","ND","ND"],
    [25314,"05/17/2017 09:00","61,2","1,5","ND","ND","ND","ND"],
    [25315,"05/17/2017 10:00","33,1","2,9","ND","ND","ND","ND"],
    [25316,"05/17/2017 11:00","46,9","2,4","ND","ND","ND","ND"],
    [25317,"05/17/2017 12:00","33,4","2,5","ND","ND","ND","ND"],
    [25318,"05/17/2017 13:00","23,8","1,9","ND","ND","ND","ND"],
    [25319,"05/17/2017 14:00","27,1","2","ND","ND","ND","ND"],
    [25320,"05/17/2017 15:00","40,9","1,2","ND","ND","ND","ND"],
    [25321,"05/17/2017 16:00","30,9","0,9","ND","ND","ND","ND"],
    [25322,"05/17/2017 17:00","11,2","0,6","ND","ND","ND","ND"],
    [25323,"05/17/2017 18:00","15","0,8","ND","ND","ND","ND"],
    [25324,"05/17/2017 19:00","18,5","0,7","ND","ND","ND","ND"],
    [25325,"05/17/2017 20:00","20","0,9","ND","ND","ND","ND"],
    [25326,"05/17/2017 21:00","24,6","0,9","ND","ND","ND","ND"],
    [25327,"05/17/2017 22:00","26,8","0,8","ND","ND","ND","ND"],
    [25328,"05/17/2017 23:00","30,3","0,9","ND","ND","ND","ND"],
    [25329,"05/18/2017 00:00","43","0,8","ND","ND","ND","ND"],
    [25330,"05/18/2017 01:00","29,5","0,7","ND","ND","ND","ND"],
    [25331,"05/18/2017 02:00","26,3","0,6","ND","ND","ND","ND"],
    [25332,"05/18/2017 03:00","21,4","0,5","ND","ND","ND","ND"],
    [25333,"05/18/2017 04:00","28,5","0,6","ND","ND","ND","ND"],
    [25334,"05/18/2017 05:00","30,9","0,6","ND","ND","ND","ND"],
    [25335,"05/18/2017 06:00","31,6","1,6","ND","ND","ND","ND"],
    [25336,"05/18/2017 07:00","44,5","1","ND","ND","ND","ND"],
    [25337,"05/18/2017 08:00","58,8","1,2","ND","ND","ND","ND"],
    [25338,"05/18/2017 09:00","60","1,4","ND","ND","ND","ND"],
    [25339,"05/18/2017 10:00","60,1","1,7","ND","ND","ND","ND"],
    [25340,"05/18/2017 11:00","46,2","1,7","ND","ND","ND","ND"],
    [25341,"05/18/2017 12:00","26,9","1,6","ND","ND","ND","ND"],
    [25342,"05/18/2017 13:00","27,9","1,5","ND","ND","ND","ND"],
    [25343,"05/18/2017 14:00","28,4","1,4","ND","ND","ND","ND"],
    [25344,"05/18/2017 15:00","23,2","0,8","ND","ND","ND","ND"],
    [25345,"05/18/2017 16:00","8,2","0,7","ND","ND","ND","ND"],
    [25346,"05/18/2017 17:00","5","0,6","ND","ND","ND","ND"],
    [25347,"05/18/2017 18:00","15,1","3,3","ND","ND","ND","ND"],
    [25348,"05/18/2017 19:00","41,4","2,2","ND","ND","ND","ND"],
    [25349,"05/18/2017 20:00","59,4","1,7","ND","ND","ND","ND"],
    [25350,"05/18/2017 21:00","66,1","1,1","ND","ND","ND","ND"],
    [25351,"05/18/2017 22:00","43,1","0,9","ND","ND","ND","ND"],
    [25352,"05/18/2017 23:00","38,2","0,8","ND","ND","ND","ND"],
    [25353,"05/19/2017 00:00","39","0,6","ND","ND","ND","ND"],
    [25354,"05/19/2017 01:00","31,2","0,6","ND","ND","ND","ND"],
    [25355,"05/19/2017 02:00","23","0,6","ND","ND","ND","ND"],
    [25356,"05/19/2017 03:00","22,6","0,5","ND","ND","ND","ND"],
    [25357,"05/19/2017 04:00","32","0,6","ND","ND","ND","ND"],
    [25358,"05/19/2017 05:00","31,7","0,6","ND","ND","ND","ND"],
    [25359,"05/19/2017 06:00","43,4","0,7","ND","ND","ND","ND"],
    [25360,"05/19/2017 07:00","50,1","0,9","ND","ND","ND","ND"],
    [25361,"05/19/2017 08:00","59,2","1,8","ND","ND","ND","ND"],
    [25362,"05/19/2017 09:00","77,8","2,3","ND","ND","ND","ND"],
    [25363,"05/19/2017 10:00","66","2,6","ND","ND","ND","ND"],
    [25364,"05/19/2017 11:00","43,4","2,7","ND","ND","ND","ND"],
    [25365,"05/19/2017 12:00","30,1","2","ND","ND","ND","ND"],
    [25366,"05/19/2017 13:00","46,2","1,5","ND","ND","ND","ND"],
    [25367,"05/19/2017 14:00","40","1,4","ND","ND","ND","ND"],
    [25368,"05/19/2017 15:00","46,8","1","ND","ND","ND","ND"],
    [25369,"05/19/2017 16:00","23,1","0,7","ND","ND","ND","ND"],
    [25370,"05/19/2017 17:00","8,5","0,5","ND","ND","ND","ND"],
    [25371,"05/19/2017 18:00","15,3","0,6","ND","ND","ND","ND"],
    [25372,"05/19/2017 19:00","13,4","0,5","ND","ND","ND","ND"],
    [25373,"05/19/2017 20:00","13,4","0,6","ND","ND","ND","ND"],
    [25374,"05/19/2017 21:00","21,2","0,6","ND","ND","ND","ND"],
    [25375,"05/19/2017 22:00","28,3","0,9","ND","ND","ND","ND"],
    [25376,"05/19/2017 23:00","37,4","0,9","ND","ND","ND","ND"],
    [25377,"05/20/2017 00:00","38,8","0,9","ND","ND","ND","ND"],
    [25378,"05/20/2017 01:00","32,2","0,8","ND","ND","ND","ND"],
    [25379,"05/20/2017 02:00","27,2","0,6","ND","ND","ND","ND"],
    [25380,"05/20/2017 03:00","15,1","0,5","ND","ND","ND","ND"],
    [25381,"05/20/2017 04:00","20,5","0,4","ND","ND","ND","ND"],
    [25382,"05/20/2017 05:00","29,6","0,5","ND","ND","ND","ND"],
    [25383,"05/20/2017 06:00","31,8","0,7","ND","ND","ND","ND"],
    [25384,"05/20/2017 07:00","28,4","0,8","ND","ND","ND","ND"],
    [25385,"05/20/2017 08:00","31,5","1","ND","ND","ND","ND"],
    [25386,"05/20/2017 09:00","45,4","1,2","ND","ND","ND","ND"],
    [25387,"05/20/2017 10:00","50,9","1,6","ND","ND","ND","ND"],
    [25388,"05/20/2017 11:00","24,7","1,4","ND","ND","ND","ND"],
    [25389,"05/20/2017 12:00","39,1","1,2","ND","ND","ND","ND"],
    [25390,"05/20/2017 13:00","27,5","2,3","ND","ND","ND","ND"],
    [25391,"05/20/2017 14:00","56,4","2,7","ND","ND","ND","ND"],
    [25392,"05/20/2017 15:00","27,8","0,9","ND","ND","ND","ND"],
    [25393,"05/20/2017 16:00","8,1","0,7","ND","ND","ND","ND"],
    [25394,"05/20/2017 17:00","9,2","0,7","ND","ND","ND","ND"],
    [25395,"05/20/2017 18:00","9,8","1","ND","ND","ND","ND"],
    [25396,"05/20/2017 19:00","32,4","0,7","ND","ND","ND","ND"],
    [25397,"05/20/2017 20:00","25,1","0,7","ND","ND","ND","ND"],
    [25398,"05/20/2017 21:00","30,3","1","ND","ND","ND","ND"],
    [25399,"05/20/2017 22:00","48,1","1,4","ND","ND","ND","ND"],
    [25400,"05/20/2017 23:00","52,7","1,5","ND","ND","ND","ND"],
    [25401,"05/21/2017 00:00","51,2","1,2","ND","ND","ND","ND"],
    [25402,"05/21/2017 01:00","37,2","1","ND","ND","ND","ND"],
    [25403,"05/21/2017 02:00","35,8","0,8","ND","ND","ND","ND"],
    [25404,"05/21/2017 03:00","27,7","0,8","ND","ND","ND","ND"],
    [25405,"05/21/2017 04:00","16,7","0,8","ND","ND","ND","ND"],
    [25406,"05/21/2017 05:00","19,7","0,7","ND","ND","ND","ND"],
    [25407,"05/21/2017 06:00","20,6","0,7","ND","ND","ND","ND"],
    [25408,"05/21/2017 07:00","20,4","0,8","ND","ND","ND","ND"],
    [25409,"05/21/2017 08:00","30,2","0,7","ND","ND","ND","ND"],
    [25410,"05/21/2017 09:00","26,1","0,8","ND","ND","ND","ND"],
    [25411,"05/21/2017 10:00","26,2","0,9","ND","ND","ND","ND"],
    [25412,"05/21/2017 11:00","28,2","1,4","ND","ND","ND","ND"],
    [25413,"05/21/2017 12:00","29,4","1,6","ND","ND","ND","ND"],
    [25414,"05/21/2017 13:00","21,3","1,7","ND","ND","ND","ND"],
    [25415,"05/21/2017 14:00","28,8","3,6","ND","ND","ND","ND"],
    [25416,"05/21/2017 15:00","21,7","1,3","ND","ND","ND","ND"],
    [25417,"05/21/2017 16:00","ND","0,7","ND","ND","ND","ND"],
    [25418,"05/21/2017 17:00","5,8","0,7","ND","ND","ND","ND"],
    [25419,"05/21/2017 18:00","5","0,5","ND","ND","ND","ND"],
    [25420,"05/21/2017 19:00","6,8","0,6","ND","ND","ND","ND"],
    [25421,"05/21/2017 20:00","9,9","0,9","ND","ND","ND","ND"],
    [25422,"05/21/2017 21:00","26","3,1","ND","ND","ND","ND"],
    [25423,"05/21/2017 22:00","34,3","3,7","ND","ND","ND","ND"],
    [25424,"05/21/2017 23:00","23,2","1,1","ND","ND","ND","ND"],
    [25425,"05/22/2017 00:00","10,8","0,8","ND","ND","ND","ND"],
    [25426,"05/22/2017 01:00","18,2","0,9","ND","ND","ND","ND"],
    [25427,"05/22/2017 02:00","14,2","0,6","ND","ND","ND","ND"],
    [25428,"05/22/2017 03:00","9,7","0,4","ND","ND","ND","ND"],
    [25429,"05/22/2017 04:00","3,5","0,4","ND","ND","ND","ND"],
    [25430,"05/22/2017 05:00","6","0,5","ND","ND","ND","ND"],
    [25431,"05/22/2017 06:00","6,2","0,6","ND","ND","ND","ND"],
    [25432,"05/22/2017 07:00","13,7","0,8","ND","ND","ND","ND"],
    [25433,"05/22/2017 08:00","17,7","0,9","ND","ND","ND","ND"],
    [25434,"05/22/2017 09:00","18,1","1,1","ND","ND","ND","ND"],
    [25435,"05/22/2017 10:00","27,3","0,9","ND","ND","ND","ND"],
    [25436,"05/22/2017 11:00","29,2","1,1","ND","ND","ND","ND"],
    [25437,"05/22/2017 12:00","47,5","1,2","ND","ND","ND","ND"],
    [25438,"05/22/2017 13:00","36,5","1,2","ND","ND","ND","ND"],
    [25439,"05/22/2017 14:00","27,3","3,1","ND","ND","ND","ND"],
    [25440,"05/22/2017 15:00","24,4","3,6","ND","ND","ND","ND"],
    [25441,"05/22/2017 16:00","24,1","2,1","ND","ND","ND","ND"],
    [25442,"05/22/2017 17:00","26,6","2,3","ND","ND","ND","ND"],
    [25443,"05/22/2017 18:00","19,4","2,5","ND","ND","ND","ND"],
    [25444,"05/22/2017 19:00","45,8","2,1","ND","ND","ND","ND"],
    [25445,"05/22/2017 20:00","47,9","1,6","ND","ND","ND","ND"],
    [25446,"05/22/2017 21:00","47,2","1,8","ND","ND","ND","ND"],
    [25447,"05/22/2017 22:00","41,8","1,4","ND","ND","ND","ND"],
    [25448,"05/22/2017 23:00","34,3","1,1","ND","ND","ND","ND"],
    [25449,"05/23/2017 00:00","28,2","1","ND","ND","ND","ND"],
    [25450,"05/23/2017 01:00","53,3","0,8","ND","ND","ND","ND"],
    [25451,"05/23/2017 02:00","22,1","0,9","ND","ND","ND","ND"],
    [25452,"05/23/2017 03:00","23,3","0,8","ND","ND","ND","ND"],
    [25453,"05/23/2017 04:00","ND","0,6","ND","ND","ND","ND"],
    [25454,"05/23/2017 05:00","ND","0,6","ND","ND","ND","ND"],
    [25455,"05/23/2017 06:00","ND","0,8","ND","ND","ND","ND"],
    [25456,"05/23/2017 07:00","ND","1,4","ND","ND","ND","ND"],
    [25457,"05/23/2017 08:00","ND","1,6","ND","ND","ND","ND"],
    [25458,"05/23/2017 09:00","ND","4,8","ND","ND","ND","ND"],
    [25459,"05/23/2017 10:00","ND","5,8","ND","ND","ND","ND"],
    [25460,"05/23/2017 11:00","ND","3,7","ND","ND","ND","ND"],
    [25461,"05/23/2017 12:00","ND","2,6","ND","ND","ND","ND"],
    [25462,"05/23/2017 13:00","ND","1,2","ND","ND","ND","ND"],
    [25463,"05/23/2017 14:00","ND","0,8","ND","ND","ND","ND"],
    [25464,"05/23/2017 15:00","ND","0,8","ND","ND","ND","ND"],
    [25465,"05/23/2017 16:00","ND","1","ND","ND","ND","ND"],
    [25466,"05/23/2017 17:00","ND","0,6","ND","ND","ND","ND"],
    [25467,"05/23/2017 18:00","ND","0,6","ND","ND","ND","ND"],
    [25468,"05/23/2017 19:00","ND","0,5","ND","ND","ND","ND"],
    [25469,"05/23/2017 20:00","ND","0,7","ND","ND","ND","ND"],
    [25470,"05/23/2017 21:00","ND","0,8","ND","ND","ND","ND"],
    [25471,"05/23/2017 22:00","ND","0,7","ND","ND","ND","ND"],
    [25472,"05/23/2017 23:00","ND","0,8","ND","ND","ND","ND"],
    [25473,"05/24/2017 00:00","ND","0,7","ND","ND","ND","ND"],
    [25474,"05/24/2017 01:00","ND","0,6","ND","ND","ND","ND"],
    [25475,"05/24/2017 02:00","ND","0,5","ND","ND","ND","ND"],
    [25476,"05/24/2017 03:00","ND","0,3","ND","ND","ND","ND"],
    [25477,"05/24/2017 04:00","ND","0,4","ND","ND","ND","ND"],
    [25478,"05/24/2017 05:00","ND","1","ND","ND","ND","ND"],
    [25479,"05/24/2017 06:00","ND","1","ND","ND","ND","ND"],
    [25480,"05/24/2017 07:00","ND","1,5","ND","ND","ND","ND"],
    [25481,"05/24/2017 08:00","ND","2,3","ND","ND","ND","ND"],
    [25482,"05/24/2017 09:00","ND","4,5","ND","ND","ND","ND"],
    [25483,"05/24/2017 10:00","ND","2,2","ND","ND","ND","ND"],
    [25484,"05/24/2017 11:00","ND","1,9","ND","ND","ND","ND"],
    [25485,"05/24/2017 12:00","ND","0,9","ND","ND","ND","ND"],
    [25486,"05/24/2017 13:00","ND","0,8","ND","ND","ND","ND"],
    [25487,"05/24/2017 14:00","ND","0,6","ND","ND","ND","ND"],
    [25488,"05/24/2017 15:00","ND","0,3","ND","ND","ND","ND"],
    [25489,"05/24/2017 16:00","ND","ND","ND","ND","ND","ND"],
    [25490,"05/24/2017 17:00","ND","0,3","ND","ND","ND","ND"],
    [25491,"05/24/2017 18:00","ND","0,4","ND","ND","ND","ND"],
    [25492,"05/24/2017 19:00","ND","0,5","ND","ND","ND","ND"],
    [25493,"05/24/2017 20:00","ND","0,3","ND","ND","ND","ND"],
    [25494,"05/24/2017 21:00","ND","0,4","ND","ND","ND","ND"],
    [25495,"05/24/2017 22:00","ND","0,8","ND","ND","ND","ND"],
    [25496,"05/24/2017 23:00","ND","1,1","ND","ND","ND","ND"],
    [25497,"05/25/2017 00:00","ND","0,8","ND","ND","ND","ND"],
    [25498,"05/25/2017 01:00","ND","0,7","ND","ND","ND","ND"],
    [25499,"05/25/2017 02:00","ND","0,4","ND","ND","ND","ND"],
    [25500,"05/25/2017 03:00","ND","0,4","ND","ND","ND","ND"],
    [25501,"05/25/2017 04:00","ND","0,3","ND","ND","ND","ND"],
    [25502,"05/25/2017 05:00","ND","0,4","ND","ND","ND","ND"],
    [25503,"05/25/2017 06:00","ND","0,4","ND","ND","ND","ND"],
    [25504,"05/25/2017 07:00","ND","0,8","ND","ND","ND","ND"],
    [25505,"05/25/2017 08:00","ND","0,9","ND","ND","ND","ND"],
    [25506,"05/25/2017 09:00","ND","1,4","ND","ND","ND","ND"],
    [25507,"05/25/2017 10:00","ND","6,4","ND","ND","ND","ND"],
    [25508,"05/25/2017 11:00","ND","5,6","ND","ND","ND","ND"],
    [25509,"05/25/2017 12:00","ND","5,7","ND","ND","ND","ND"],
    [25510,"05/25/2017 13:00","ND","4,3","ND","ND","ND","ND"],
    [25511,"05/25/2017 14:00","ND","2","ND","ND","ND","ND"],
    [25512,"05/25/2017 15:00","ND","0,6","ND","ND","ND","ND"],
    [25513,"05/25/2017 16:00","ND","0,1","ND","ND","ND","ND"],
    [25514,"05/25/2017 17:00","ND","0,3","ND","ND","ND","ND"],
    [25515,"05/25/2017 18:00","ND","0,4","ND","ND","ND","ND"],
    [25516,"05/25/2017 19:00","ND","0,3","ND","ND","ND","ND"],
    [25517,"05/25/2017 20:00","ND","0,3","ND","ND","ND","ND"],
    [25518,"05/25/2017 21:00","ND","0,3","ND","ND","ND","ND"],
    [25519,"05/25/2017 22:00","ND","0,8","ND","ND","ND","ND"],
    [25520,"05/25/2017 23:00","ND","0,7","ND","ND","ND","ND"],
    [25521,"05/26/2017 00:00","ND","0,6","ND","ND","ND","ND"],
    [25522,"05/26/2017 01:00","ND","0,4","ND","ND","ND","ND"],
    [25523,"05/26/2017 02:00","ND","0,3","ND","ND","ND","ND"],
    [25524,"05/26/2017 03:00","ND","0,2","ND","ND","ND","ND"],
    [25525,"05/26/2017 04:00","ND","0,2","ND","ND","ND","ND"],
    [25526,"05/26/2017 05:00","ND","0,1","ND","ND","ND","ND"],
    [25527,"05/26/2017 06:00","ND","0,1","ND","ND","ND","ND"],
    [25528,"05/26/2017 07:00","ND","0,4","ND","ND","ND","ND"],
    [25529,"05/26/2017 08:00","ND","1,1","ND","ND","ND","ND"],
    [25530,"05/26/2017 09:00","ND","3,2","ND","ND","ND","ND"],
    [25531,"05/26/2017 10:00","ND","4","ND","ND","ND","ND"],
    [25532,"05/26/2017 11:00","ND","3,3","ND","ND","ND","ND"],
    [25533,"05/26/2017 12:00","ND","2,1","ND","ND","ND","ND"],
    [25534,"05/26/2017 13:00","ND","2,3","ND","ND","ND","ND"],
    [25535,"05/26/2017 14:00","ND","1,8","ND","ND","ND","ND"],
    [25536,"05/26/2017 15:00","ND","0,5","ND","ND","ND","ND"],
    [25537,"05/26/2017 16:00","ND","0","ND","ND","ND","ND"],
    [25538,"05/26/2017 17:00","ND","0,3","ND","ND","ND","ND"],
    [25539,"05/26/2017 18:00","ND","0,5","ND","ND","ND","ND"],
    [25540,"05/26/2017 19:00","ND","0,5","ND","ND","ND","ND"],
    [25541,"05/26/2017 20:00","ND","0,7","ND","ND","ND","ND"],
    [25542,"05/26/2017 21:00","ND","0,8","ND","ND","ND","ND"],
    [25543,"05/26/2017 22:00","ND","0,9","ND","ND","ND","ND"],
    [25544,"05/26/2017 23:00","ND","0,7","ND","ND","ND","ND"],
    [25545,"05/27/2017 00:00","ND","0,7","ND","ND","ND","ND"],
    [25546,"05/27/2017 01:00","ND","0,6","ND","ND","ND","ND"],
    [25547,"05/27/2017 02:00","ND","0,6","ND","ND","ND","ND"],
    [25548,"05/27/2017 03:00","ND","0,5","ND","ND","ND","ND"],
    [25549,"05/27/2017 04:00","ND","0,4","ND","ND","ND","ND"],
    [25550,"05/27/2017 05:00","ND","0,4","ND","ND","ND","ND"],
    [25551,"05/27/2017 06:00","ND","0,5","ND","ND","ND","ND"],
    [25552,"05/27/2017 07:00","ND","0,7","ND","ND","ND","ND"],
    [25553,"05/27/2017 08:00","ND","1,3","ND","ND","ND","ND"],
    [25554,"05/27/2017 09:00","ND","2,3","ND","ND","ND","ND"],
    [25555,"05/27/2017 10:00","ND","6,3","ND","ND","ND","ND"],
    [25556,"05/27/2017 11:00","ND","5,8","ND","ND","ND","ND"],
    [25557,"05/27/2017 12:00","ND","1,8","ND","ND","ND","ND"],
    [25558,"05/27/2017 13:00","ND","1,4","ND","ND","ND","ND"],
    [25559,"05/27/2017 14:00","ND","1,6","ND","ND","ND","ND"],
    [25560,"05/27/2017 15:00","ND","1,3","ND","ND","ND","ND"],
    [25561,"05/27/2017 16:00","ND","0,4","ND","ND","ND","ND"],
    [25562,"05/27/2017 17:00","ND","0,4","ND","ND","ND","ND"],
    [25563,"05/27/2017 18:00","ND","0,6","ND","ND","ND","ND"],
    [25564,"05/27/2017 19:00","ND","0,5","ND","ND","ND","ND"],
    [25565,"05/27/2017 20:00","ND","0,6","ND","ND","ND","ND"],
    [25566,"05/27/2017 21:00","ND","0,5","ND","ND","ND","ND"],
    [25567,"05/27/2017 22:00","ND","1,3","ND","ND","ND","ND"],
    [25568,"05/27/2017 23:00","ND","1,2","ND","ND","ND","ND"],
    [25569,"05/28/2017 00:00","ND","0,8","ND","ND","ND","ND"],
    [25570,"05/28/2017 01:00","ND","0,7","ND","ND","ND","ND"],
    [25571,"05/28/2017 02:00","ND","0,5","ND","ND","ND","ND"],
    [25572,"05/28/2017 03:00","ND","0,5","ND","ND","ND","ND"],
    [25573,"05/28/2017 04:00","ND","0,4","ND","ND","ND","ND"],
    [25574,"05/28/2017 05:00","ND","0,3","ND","ND","ND","ND"],
    [25575,"05/28/2017 06:00","ND","0,5","ND","ND","ND","ND"],
    [25576,"05/28/2017 07:00","ND","0,5","ND","ND","ND","ND"],
    [25577,"05/28/2017 08:00","ND","0,7","ND","ND","ND","ND"],
    [25578,"05/28/2017 09:00","ND","1,4","ND","ND","ND","ND"],
    [25579,"05/28/2017 10:00","ND","3,4","ND","ND","ND","ND"],
    [25580,"05/28/2017 11:00","ND","1,2","ND","ND","ND","ND"],
    [25581,"05/28/2017 12:00","ND","2,1","ND","ND","ND","ND"],
    [25582,"05/28/2017 13:00","ND","1,4","ND","ND","ND","ND"],
    [25583,"05/28/2017 14:00","ND","1","ND","ND","ND","ND"],
    [25584,"05/28/2017 15:00","ND","0,4","ND","ND","ND","ND"],
    [25585,"05/28/2017 16:00","ND","0,3","ND","ND","ND","ND"],
    [25586,"05/28/2017 17:00","ND","0,3","ND","ND","ND","ND"],
    [25587,"05/28/2017 18:00","ND","0,5","ND","ND","ND","ND"],
    [25588,"05/28/2017 19:00","ND","0,5","ND","ND","ND","ND"],
    [25589,"05/28/2017 20:00","ND","0,6","ND","ND","ND","ND"],
    [25590,"05/28/2017 21:00","ND","0,7","ND","ND","ND","ND"],
    [25591,"05/28/2017 22:00","ND","0,9","ND","ND","ND","ND"],
    [25592,"05/28/2017 23:00","ND","0,6","ND","ND","ND","ND"],
    [25593,"05/29/2017 00:00","ND","0,6","ND","ND","ND","ND"],
    [25594,"05/29/2017 01:00","ND","0,4","ND","ND","ND","ND"],
    [25595,"05/29/2017 02:00","ND","0,4","ND","ND","ND","ND"],
    [25596,"05/29/2017 03:00","ND","0,3","ND","ND","ND","ND"],
    [25597,"05/29/2017 04:00","ND","0,4","ND","ND","ND","ND"],
    [25598,"05/29/2017 05:00","ND","0,2","ND","ND","ND","ND"],
    [25599,"05/29/2017 06:00","ND","0,4","ND","ND","ND","ND"],
    [25600,"05/29/2017 07:00","ND","0,6","ND","ND","ND","ND"],
    [25601,"05/29/2017 08:00","ND","0,6","ND","ND","ND","ND"],
    [25602,"05/29/2017 09:00","ND","1,5","ND","ND","ND","ND"],
    [25603,"05/29/2017 10:00","ND","2,8","ND","ND","ND","ND"],
    [25604,"05/29/2017 11:00","ND","2,2","ND","ND","ND","ND"],
    [25605,"05/29/2017 12:00","ND","1,5","ND","ND","ND","ND"],
    [25606,"05/29/2017 13:00","ND","2,8","ND","ND","ND","ND"],
    [25607,"05/29/2017 14:00","ND","2,8","ND","ND","ND","ND"],
    [25608,"05/29/2017 15:00","ND","1,8","ND","ND","ND","ND"],
    [25609,"05/29/2017 16:00","ND","0,5","ND","ND","ND","ND"],
    [25610,"05/29/2017 17:00","ND","0,4","ND","ND","ND","ND"],
    [25611,"05/29/2017 18:00","ND","0,5","ND","ND","ND","ND"],
    [25612,"05/29/2017 19:00","ND","0,5","ND","ND","ND","ND"],
    [25613,"05/29/2017 20:00","ND","0,4","ND","ND","ND","ND"],
    [25614,"05/29/2017 21:00","ND","0,6","ND","ND","ND","ND"],
    [25615,"05/29/2017 22:00","ND","0,6","ND","ND","ND","ND"],
    [25616,"05/29/2017 23:00","ND","0,5","ND","ND","ND","ND"],
    [25617,"05/30/2017 00:00","ND","0,4","ND","ND","ND","ND"],
    [25618,"05/30/2017 01:00","ND","0,3","ND","ND","ND","ND"],
    [25619,"05/30/2017 02:00","ND","0,1","ND","ND","ND","ND"],
    [25620,"05/30/2017 03:00","ND","0,1","ND","ND","ND","ND"],
    [25621,"05/30/2017 04:00","ND","0,1","ND","ND","ND","ND"],
    [25622,"05/30/2017 05:00","ND","0,2","ND","ND","ND","ND"],
    [25623,"05/30/2017 06:00","ND","0,4","ND","ND","ND","ND"],
    [25624,"05/30/2017 07:00","ND","1","ND","ND","ND","ND"],
    [25625,"05/30/2017 08:00","ND","1,8","ND","ND","ND","ND"],
    [25626,"05/30/2017 09:00","ND","1,6","ND","ND","ND","ND"],
    [25627,"05/30/2017 10:00","ND","1,6","ND","ND","ND","ND"],
    [25628,"05/30/2017 11:00","ND","1,5","ND","ND","ND","ND"],
    [25629,"05/30/2017 12:00","ND","2","ND","ND","ND","ND"],
    [25630,"05/30/2017 13:00","ND","0,8","ND","ND","ND","ND"],
    [25631,"05/30/2017 14:00","ND","0,5","ND","ND","ND","ND"],
    [25632,"05/30/2017 15:00","ND","0,5","ND","ND","ND","ND"],
    [25633,"05/30/2017 16:00","ND","0,6","ND","ND","ND","ND"],
    [25634,"05/30/2017 17:00","ND","0,6","ND","ND","ND","ND"],
    [25635,"05/30/2017 18:00","ND","0,6","ND","ND","ND","ND"],
    [25636,"05/30/2017 19:00","ND","0,8","ND","ND","ND","ND"],
    [25637,"05/30/2017 20:00","ND","0,8","ND","ND","ND","ND"],
    [25638,"05/30/2017 21:00","ND","0,9","ND","ND","ND","ND"],
    [25639,"05/30/2017 22:00","ND","0,9","ND","ND","ND","ND"],
    [25640,"05/30/2017 23:00","ND","1","ND","ND","ND","ND"],
    [25641,"05/31/2017 00:00","ND","0,8","ND","ND","ND","ND"],
    [25642,"05/31/2017 01:00","ND","0,7","ND","ND","ND","ND"],
    [25643,"05/31/2017 02:00","ND","0,8","ND","ND","ND","ND"],
    [25644,"05/31/2017 03:00","ND","0,7","ND","ND","ND","ND"],
    [25645,"05/31/2017 04:00","ND","0,6","ND","ND","ND","ND"],
    [25646,"05/31/2017 05:00","ND","0,7","ND","ND","ND","ND"],
    [25647,"05/31/2017 06:00","ND","0,8","ND","ND","ND","ND"],
    [25648,"05/31/2017 07:00","ND","1,1","ND","ND","ND","ND"],
    [25649,"05/31/2017 08:00","ND","1","ND","ND","ND","ND"],
    [25650,"05/31/2017 09:00","ND","1","ND","ND","ND","ND"],
    [25651,"05/31/2017 10:00","ND","0,9","ND","ND","ND","ND"],
    [25652,"05/31/2017 11:00","ND","1","ND","ND","ND","ND"],
    [25653,"05/31/2017 12:00","ND","0,7","ND","ND","ND","ND"],
    [25654,"05/31/2017 13:00","ND","0,8","ND","ND","ND","ND"],
    [25655,"05/31/2017 14:00","ND","0,8","ND","ND","ND","ND"],
    [25656,"05/31/2017 15:00","ND","0,8","ND","ND","ND","ND"],
    [25657,"05/31/2017 16:00","ND","0,7","ND","ND","ND","ND"],
    [25658,"05/31/2017 17:00","ND","0,9","ND","ND","ND","ND"],
    [25659,"05/31/2017 18:00","ND","1,2","ND","ND","ND","ND"],
    [25660,"05/31/2017 19:00","ND","1,1","ND","ND","ND","ND"],
    [25661,"05/31/2017 20:00","ND","1,1","ND","ND","ND","ND"],
    [25662,"05/31/2017 21:00","ND","1,1","ND","ND","ND","ND"],
    [25663,"05/31/2017 22:00","ND","1,2","ND","ND","ND","ND"],
    [25664,"05/31/2017 23:00","ND","1,2","ND","ND","ND","ND"],
    [25665,"42741","ND","1,3","ND","ND","ND","ND"],
    [25666,"42741,04167","ND","0,6","ND","ND","ND","ND"],
    [25667,"42741,08333","ND","0,6","ND","ND","ND","ND"],
    [25668,"42741,125","ND","0,4","ND","ND","ND","ND"],
    [25669,"42741,16667","ND","0,2","ND","ND","ND","ND"],
    [25670,"42741,20833","ND","0,5","ND","ND","ND","ND"],
    [25671,"42741,25","ND","0,5","ND","ND","ND","ND"],
    [25672,"42741,29167","ND","0,9","ND","ND","ND","ND"],
    [25673,"42741,33333","ND","1,3","ND","ND","ND","ND"],
    [25674,"42741,375","ND","0,9","ND","ND","ND","ND"],
    [25675,"42741,41667","ND","0,4","ND","ND","ND","ND"],
    [25676,"42741,45833","ND","0,3","ND","ND","ND","ND"],
    [25677,"42741,5","ND","0,3","ND","ND","ND","ND"],
    [25678,"42741,54167","ND","0,3","ND","ND","ND","ND"],
    [25679,"42741,58333","ND","0,4","ND","ND","ND","ND"],
    [25680,"42741,625","ND","0,4","ND","ND","ND","ND"],
    [25681,"42741,66667","ND","0,5","ND","ND","ND","ND"],
    [25682,"42741,70833","ND","0,3","ND","ND","ND","ND"],
    [25683,"42741,75","ND","0,4","ND","ND","ND","ND"],
    [25684,"42741,79167","ND","0,7","ND","ND","ND","ND"],
    [25685,"42741,83333","ND","0,7","ND","ND","ND","ND"],
    [25686,"42741,875","ND","0,8","ND","ND","ND","ND"],
    [25687,"42741,91667","ND","0,9","ND","ND","ND","ND"],
    [25688,"42741,95833","ND","0,9","ND","ND","ND","ND"],
    [25689,"42772","ND","0,8","ND","ND","ND","ND"],
    [25690,"42772,04167","ND","0,6","ND","ND","ND","ND"],
    [25691,"42772,08333","ND","0,6","ND","ND","ND","ND"],
    [25692,"42772,125","ND","0,6","ND","ND","ND","ND"],
    [25693,"42772,16667","ND","0,6","ND","ND","ND","ND"],
    [25694,"42772,20833","ND","0,5","ND","ND","ND","ND"],
    [25695,"42772,25","ND","0,4","ND","ND","ND","ND"],
    [25696,"42772,29167","ND","0,9","ND","ND","ND","ND"],
    [25697,"42772,33333","ND","1,4","ND","ND","ND","ND"],
    [25698,"42772,375","ND","0,9","ND","ND","ND","ND"],
    [25699,"42772,41667","ND","0,7","ND","ND","ND","ND"],
    [25700,"42772,45833","ND","0,5","ND","ND","ND","ND"],
    [25701,"42772,5","ND","0,4","ND","ND","ND","ND"],
    [25702,"42772,54167","ND","0,4","ND","ND","ND","ND"],
    [25703,"42772,58333","ND","0,3","ND","ND","ND","ND"],
    [25704,"42772,625","ND","0,1","ND","ND","ND","ND"],
    [25705,"42772,66667","ND","0,2","ND","ND","ND","ND"],
    [25706,"42772,70833","ND","0,2","ND","ND","ND","ND"],
    [25707,"42772,75","ND","0,2","ND","ND","ND","ND"],
    [25708,"42772,79167","ND","0,3","ND","ND","ND","ND"],
    [25709,"42772,83333","ND","0,6","ND","ND","ND","ND"],
    [25710,"42772,875","ND","0,9","ND","ND","ND","ND"],
    [25711,"42772,91667","ND","0,7","ND","ND","ND","ND"],
    [25712,"42772,95833","ND","0,7","ND","ND","ND","ND"],
    [25713,"42800","ND","0,5","ND","ND","ND","ND"],
    [25714,"42800,04167","ND","0,3","ND","ND","ND","ND"],
    [25715,"42800,08333","ND","0,3","ND","ND","ND","ND"],
    [25716,"42800,125","ND","0,4","ND","ND","ND","ND"],
    [25717,"42800,16667","ND","0,3","ND","ND","ND","ND"],
    [25718,"42800,20833","ND","0,4","ND","ND","ND","ND"],
    [25719,"42800,25","ND","0,4","ND","ND","ND","ND"],
    [25720,"42800,29167","ND","0,5","ND","ND","ND","ND"],
    [25721,"42800,33333","ND","0,7","ND","ND","ND","ND"],
    [25722,"42800,375","ND","0,7","ND","ND","ND","ND"],
    [25723,"42800,41667","ND","0,4","ND","ND","ND","ND"],
    [25724,"42800,45833","ND","0,3","ND","ND","ND","ND"],
    [25725,"42800,5","ND","0,3","ND","ND","ND","ND"],
    [25726,"42800,54167","ND","0,2","ND","ND","ND","ND"],
    [25727,"42800,58333","ND","0,3","ND","ND","ND","ND"],
    [25728,"42800,625","ND","0,3","ND","ND","ND","ND"],
    [25729,"42800,66667","ND","0,2","ND","ND","ND","ND"],
    [25730,"42800,70833","ND","0,2","ND","ND","ND","ND"],
    [25731,"42800,75","ND","0,2","ND","ND","ND","ND"],
    [25732,"42800,79167","ND","0,3","ND","ND","ND","ND"],
    [25733,"42800,83333","ND","0,2","ND","ND","ND","ND"],
    [25734,"42800,875","ND","0,4","ND","ND","ND","ND"],
    [25735,"42800,91667","ND","1","ND","ND","ND","ND"],
    [25736,"42800,95833","ND","1","ND","ND","ND","ND"],
    [25737,"42831","ND","0,8","ND","ND","ND","ND"],
    [25738,"42831,04167","ND","0,8","ND","ND","ND","ND"],
    [25739,"42831,08333","ND","0,6","ND","ND","ND","ND"],
    [25740,"42831,125","ND","0,6","ND","ND","ND","ND"],
    [25741,"42831,16667","ND","0,7","ND","ND","ND","ND"],
    [25742,"42831,20833","ND","0,7","ND","ND","ND","ND"],
    [25743,"42831,25","ND","0,8","ND","ND","ND","ND"],
    [25744,"42831,29167","ND","0,6","ND","ND","ND","ND"],
    [25745,"42831,33333","ND","0,8","ND","ND","ND","ND"],
    [25746,"42831,375","ND","0,6","ND","ND","ND","ND"],
    [25747,"42831,41667","ND","0,9","ND","ND","ND","ND"],
    [25748,"42831,45833","ND","1","ND","ND","ND","ND"],
    [25749,"42831,5","ND","0,8","ND","ND","ND","ND"],
    [25750,"42831,54167","ND","0,4","ND","ND","ND","ND"],
    [25751,"42831,58333","ND","0,2","ND","ND","ND","ND"],
    [25752,"42831,625","ND","0,3","ND","ND","ND","ND"],
    [25753,"42831,66667","ND","0,3","ND","ND","ND","ND"],
    [25754,"42831,70833","ND","0,6","ND","ND","ND","ND"],
    [25755,"42831,75","ND","0,3","ND","ND","ND","ND"],
    [25756,"42831,79167","ND","0,3","ND","ND","ND","ND"],
    [25757,"42831,83333","ND","0,4","ND","ND","ND","ND"],
    [25758,"42831,875","ND","0,6","ND","ND","ND","ND"],
    [25759,"42831,91667","ND","1,1","ND","ND","ND","ND"],
    [25760,"42831,95833","ND","1","ND","ND","ND","ND"],
    [25761,"42861","ND","0,6","ND","ND","ND","ND"],
    [25762,"42861,04167","ND","0,4","ND","ND","ND","ND"],
    [25763,"42861,08333","ND","0,4","ND","ND","ND","ND"],
    [25764,"42861,125","ND","0,2","ND","ND","ND","ND"],
    [25765,"42861,16667","ND","0,3","ND","ND","ND","ND"],
    [25766,"42861,20833","ND","0,4","ND","ND","ND","ND"],
    [25767,"42861,25","ND","0,7","ND","ND","ND","ND"],
    [25768,"42861,29167","ND","0,8","ND","ND","ND","ND"],
    [25769,"42861,33333","ND","0,8","ND","ND","ND","ND"],
    [25770,"42861,375","ND","0,7","ND","ND","ND","ND"],
    [25771,"42861,41667","ND","0,5","ND","ND","ND","ND"],
    [25772,"42861,45833","ND","0,2","ND","ND","ND","ND"],
    [25773,"42861,5","ND","0,2","ND","ND","ND","ND"],
    [25774,"42861,54167","ND","0,2","ND","ND","ND","ND"],
    [25775,"42861,58333","ND","0,3","ND","ND","ND","ND"],
    [25776,"42861,625","ND","0,4","ND","ND","ND","ND"],
    [25777,"42861,66667","ND","0,2","ND","ND","ND","ND"],
    [25778,"42861,70833","ND","0,3","ND","ND","ND","ND"],
    [25779,"42861,75","ND","0,4","ND","ND","ND","ND"],
    [25780,"42861,79167","ND","0,4","ND","ND","ND","ND"],
    [25781,"42861,83333","ND","0,4","ND","ND","ND","ND"],
    [25782,"42861,875","ND","0,4","ND","ND","ND","ND"],
    [25783,"42861,91667","ND","0,4","ND","ND","ND","ND"],
    [25784,"42861,95833","ND","0,6","ND","ND","ND","ND"],
    [25785,"42892","ND","0,6","ND","ND","ND","ND"],
    [25786,"42892,04167","ND","0,6","ND","ND","ND","ND"],
    [25787,"42892,08333","ND","0,5","ND","ND","ND","ND"],
    [25788,"42892,125","ND","0,4","ND","ND","ND","ND"],
    [25789,"42892,16667","ND","0,6","ND","ND","ND","ND"],
    [25790,"42892,20833","ND","1,1","ND","ND","ND","ND"],
    [25791,"42892,25","ND","0,8","ND","ND","ND","ND"],
    [25792,"42892,29167","ND","0,9","ND","ND","ND","ND"],
    [25793,"42892,33333","ND","1,1","ND","ND","ND","ND"],
    [25794,"42892,375","ND","1,7","ND","ND","ND","ND"],
    [25795,"42892,41667","ND","3","ND","ND","ND","ND"],
    [25796,"42892,45833","ND","3,8","ND","ND","ND","ND"],
    [25797,"42892,5","ND","2,7","ND","ND","ND","ND"],
    [25798,"42892,54167","ND","1,9","ND","ND","ND","ND"],
    [25799,"42892,58333","ND","1,5","ND","ND","ND","ND"],
    [25800,"42892,625","ND","1,3","ND","ND","ND","ND"],
    [25801,"42892,66667","ND","1","ND","ND","ND","ND"],
    [25802,"42892,70833","ND","0,8","ND","ND","ND","ND"],
    [25803,"42892,75","ND","0,8","ND","ND","ND","ND"],
    [25804,"42892,79167","ND","0,6","ND","ND","ND","ND"],
    [25805,"42892,83333","ND","0,6","ND","ND","ND","ND"],
    [25806,"42892,875","ND","0,5","ND","ND","ND","ND"],
    [25807,"42892,91667","ND","1","ND","ND","ND","ND"],
    [25808,"42892,95833","ND","1,2","ND","ND","ND","ND"],
    [25809,"42922","ND","0,8","ND","ND","ND","ND"],
    [25810,"42922,04167","ND","0,6","ND","ND","ND","ND"],
    [25811,"42922,08333","ND","0,5","ND","ND","ND","ND"],
    [25812,"42922,125","ND","0,4","ND","ND","ND","ND"],
    [25813,"42922,16667","ND","0,3","ND","ND","ND","ND"],
    [25814,"42922,20833","ND","0,4","ND","ND","ND","ND"],
    [25815,"42922,25","ND","0,7","ND","ND","ND","ND"],
    [25816,"42922,29167","ND","0,8","ND","ND","ND","ND"],
    [25817,"42922,33333","ND","1,5","ND","ND","ND","ND"],
    [25818,"42922,375","ND","1,3","ND","ND","ND","ND"],
    [25819,"42922,41667","ND","1,1","ND","ND","ND","ND"],
    [25820,"42922,45833","ND","0,9","ND","ND","ND","ND"],
    [25821,"42922,5","ND","0,8","ND","ND","ND","ND"],
    [25822,"42922,54167","ND","0,6","ND","ND","ND","ND"],
    [25823,"42922,58333","ND","0,5","ND","ND","ND","ND"],
    [25824,"42922,625","ND","0,9","ND","ND","ND","ND"],
    [25825,"42922,66667","ND","0,7","ND","ND","ND","ND"],
    [25826,"42922,70833","ND","0,8","ND","ND","ND","ND"],
    [25827,"42922,75","ND","1","ND","ND","ND","ND"],
    [25828,"42922,79167","ND","0,9","ND","ND","ND","ND"],
    [25829,"42922,83333","ND","0,6","ND","ND","ND","ND"],
    [25830,"42922,875","ND","0,3","ND","ND","ND","ND"],
    [25831,"42922,91667","ND","0,4","ND","ND","ND","ND"],
    [25832,"42922,95833","ND","0,3","ND","ND","ND","ND"],
    [25833,"42953","ND","0,5","ND","ND","ND","ND"],
    [25834,"42953,04167","ND","0,4","ND","ND","ND","ND"],
    [25835,"42953,08333","ND","0,3","ND","ND","ND","ND"],
    [25836,"42953,125","ND","0,3","ND","ND","ND","ND"],
    [25837,"42953,16667","ND","0,2","ND","ND","ND","ND"],
    [25838,"42953,20833","ND","0,3","ND","ND","ND","ND"],
    [25839,"42953,25","ND","0,5","ND","ND","ND","ND"],
    [25840,"42953,29167","ND","1","ND","ND","ND","ND"],
    [25841,"42953,33333","ND","1,2","ND","ND","ND","ND"],
    [25842,"42953,375","ND","1","ND","ND","ND","ND"],
    [25843,"42953,41667","ND","0,7","ND","ND","ND","ND"],
    [25844,"42953,45833","ND","0,4","ND","ND","ND","ND"],
    [25845,"42953,5","ND","0,3","ND","ND","ND","ND"],
    [25846,"42953,54167","ND","0,5","ND","ND","ND","ND"],
    [25847,"42953,58333","ND","0,4","ND","ND","ND","ND"],
    [25848,"42953,625","ND","0,4","ND","ND","ND","ND"],
    [25849,"42953,66667","ND","0,4","ND","ND","ND","ND"],
    [25850,"42953,70833","ND","0,4","ND","ND","ND","ND"],
    [25851,"42953,75","ND","0,7","ND","ND","ND","ND"],
    [25852,"42953,79167","ND","0,8","ND","ND","ND","ND"],
    [25853,"42953,83333","ND","0,8","ND","ND","ND","ND"],
    [25854,"42953,875","ND","0,6","ND","ND","ND","ND"],
    [25855,"42953,91667","ND","0,9","ND","ND","ND","ND"],
    [25856,"42953,95833","ND","0,8","ND","ND","ND","ND"],
    [25857,"42984","ND","0,8","ND","ND","ND","ND"],
    [25858,"42984,04167","ND","0,4","ND","ND","ND","ND"],
    [25859,"42984,08333","ND","0,3","ND","ND","ND","ND"],
    [25860,"42984,125","ND","0,4","ND","ND","ND","ND"],
    [25861,"42984,16667","ND","0,3","ND","ND","ND","ND"],
    [25862,"42984,20833","ND","0,3","ND","ND","ND","ND"],
    [25863,"42984,25","ND","0,7","ND","ND","ND","ND"],
    [25864,"42984,29167","ND","0,9","ND","ND","ND","ND"],
    [25865,"42984,33333","ND","1,2","ND","ND","ND","ND"],
    [25866,"42984,375","ND","1","ND","ND","ND","ND"],
    [25867,"42984,41667","ND","1,1","ND","ND","ND","ND"],
    [25868,"42984,45833","ND","0,6","ND","ND","ND","ND"],
    [25869,"42984,5","ND","0,6","ND","ND","ND","ND"],
    [25870,"42984,54167","ND","0,7","ND","ND","ND","ND"],
    [25871,"42984,58333","ND","0,5","ND","ND","ND","ND"],
    [25872,"42984,625","ND","0,5","ND","ND","ND","ND"],
    [25873,"42984,66667","ND","0,5","ND","ND","ND","ND"],
    [25874,"42984,70833","ND","0,6","ND","ND","ND","ND"],
    [25875,"42984,75","ND","0,7","ND","ND","ND","ND"],
    [25876,"42984,79167","ND","0,7","ND","ND","ND","ND"],
    [25877,"42984,83333","ND","0,7","ND","ND","ND","ND"],
    [25878,"42984,875","ND","0,6","ND","ND","ND","ND"],
    [25879,"42984,91667","ND","0,7","ND","ND","ND","ND"],
    [25880,"42984,95833","ND","0,6","ND","ND","ND","ND"],
    [25881,"43014","ND","0,6","ND","ND","ND","ND"],
    [25882,"43014,04167","ND","0,5","ND","ND","ND","ND"],
    [25883,"43014,08333","ND","0,6","ND","ND","ND","ND"],
    [25884,"43014,125","ND","0,6","ND","ND","ND","ND"],
    [25885,"43014,16667","ND","0,5","ND","ND","ND","ND"],
    [25886,"43014,20833","ND","0,5","ND","ND","ND","ND"],
    [25887,"43014,25","ND","0,4","ND","ND","ND","ND"],
    [25888,"43014,29167","ND","0,7","ND","ND","ND","ND"],
    [25889,"43014,33333","ND","0,9","ND","ND","ND","ND"],
    [25890,"43014,375","ND","0,8","ND","ND","ND","ND"],
    [25891,"43014,41667","ND","0,8","ND","ND","ND","ND"],
    [25892,"43014,45833","ND","0,6","ND","ND","ND","ND"],
    [25893,"43014,5","ND","0,6","ND","ND","ND","ND"],
    [25894,"43014,54167","ND","0,4","ND","ND","ND","ND"],
    [25895,"43014,58333","ND","0,7","ND","ND","ND","ND"],
    [25896,"43014,625","ND","0,6","ND","ND","ND","ND"],
    [25897,"43014,66667","ND","0,5","ND","ND","ND","ND"],
    [25898,"43014,70833","ND","0,7","ND","ND","ND","ND"],
    [25899,"43014,75","ND","0,5","ND","ND","ND","ND"],
    [25900,"43014,79167","ND","0,4","ND","ND","ND","ND"],
    [25901,"43014,83333","ND","0,5","ND","ND","ND","ND"],
    [25902,"43014,875","ND","0,6","ND","ND","ND","ND"],
    [25903,"43014,91667","ND","0,7","ND","ND","ND","ND"],
    [25904,"43014,95833","ND","0,7","ND","ND","ND","ND"],
    [25905,"43045","ND","0,7","ND","ND","ND","ND"],
    [25906,"43045,04167","ND","0,6","ND","ND","ND","ND"],
    [25907,"43045,08333","ND","0,4","ND","ND","ND","ND"],
    [25908,"43045,125","ND","0,5","ND","ND","ND","ND"],
    [25909,"43045,16667","ND","0,4","ND","ND","ND","ND"],
    [25910,"43045,20833","ND","0,4","ND","ND","ND","ND"],
    [25911,"43045,25","ND","0,5","ND","ND","ND","ND"],
    [25912,"43045,29167","ND","0,6","ND","ND","ND","ND"],
    [25913,"43045,33333","ND","0,4","ND","ND","ND","ND"],
    [25914,"43045,375","ND","0,6","ND","ND","ND","ND"],
    [25915,"43045,41667","ND","0,2","ND","ND","ND","ND"],
    [25916,"43045,45833","ND","0,3","ND","ND","ND","ND"],
    [25917,"43045,5","ND","0,3","ND","ND","ND","ND"],
    [25918,"43045,54167","ND","0,2","ND","ND","ND","ND"],
    [25919,"43045,58333","ND","0,2","ND","ND","ND","ND"],
    [25920,"43045,625","ND","0,6","ND","ND","ND","ND"],
    [25921,"43045,66667","ND","0,3","ND","ND","ND","ND"],
    [25922,"43045,70833","ND","0,2","ND","ND","ND","ND"],
    [25923,"43045,75","ND","0,3","ND","ND","ND","ND"],
    [25924,"43045,79167","ND","0,4","ND","ND","ND","ND"],
    [25925,"43045,83333","ND","0,4","ND","ND","ND","ND"],
    [25926,"43045,875","ND","0,4","ND","ND","ND","ND"],
    [25927,"43045,91667","ND","0,3","ND","ND","ND","ND"],
    [25928,"43045,95833","ND","0,3","ND","ND","ND","ND"],
    [25929,"43075","ND","0,4","ND","ND","ND","ND"],
    [25930,"43075,04167","ND","0,4","ND","ND","ND","ND"],
    [25931,"43075,08333","ND","0,3","ND","ND","ND","ND"],
    [25932,"43075,125","ND","0,3","ND","ND","ND","ND"],
    [25933,"43075,16667","ND","0,3","ND","ND","ND","ND"],
    [25934,"43075,20833","ND","0,5","ND","ND","ND","ND"],
    [25935,"43075,25","ND","0,8","ND","ND","ND","ND"],
    [25936,"43075,29167","ND","0,8","ND","ND","ND","ND"],
    [25937,"43075,33333","ND","0,9","ND","ND","ND","ND"],
    [25938,"43075,375","ND","0,8","ND","ND","ND","ND"],
    [25939,"43075,41667","ND","1","ND","ND","ND","ND"],
    [25940,"43075,45833","ND","0,9","ND","ND","ND","ND"],
    [25941,"43075,5","ND","0,8","ND","ND","ND","ND"],
    [25942,"43075,54167","ND","0,8","ND","ND","ND","ND"],
    [25943,"43075,58333","ND","0,4","ND","ND","ND","ND"],
    [25944,"43075,625","ND","0,4","ND","ND","ND","ND"],
    [25945,"43075,66667","ND","0,6","ND","ND","ND","ND"],
    [25946,"43075,70833","ND","0,8","ND","ND","ND","ND"],
    [25947,"43075,75","ND","0,9","ND","ND","ND","ND"],
    [25948,"43075,79167","ND","0,8","ND","ND","ND","ND"],
    [25949,"43075,83333","ND","0,8","ND","ND","ND","ND"],
    [25950,"43075,875","ND","0,5","ND","ND","ND","ND"],
    [25951,"43075,91667","ND","0,6","ND","ND","ND","ND"],
    [25952,"43075,95833","ND","0,5","ND","ND","ND","ND"],
    [25953,"06/13/2017 00:00","ND","0,5","ND","ND","ND","ND"],
    [25954,"06/13/2017 01:00","ND","0,4","ND","ND","ND","ND"],
    [25955,"06/13/2017 02:00","ND","0,3","ND","ND","ND","ND"],
    [25956,"06/13/2017 03:00","ND","0,2","ND","ND","ND","ND"],
    [25957,"06/13/2017 04:00","ND","0,2","ND","ND","ND","ND"],
    [25958,"06/13/2017 05:00","ND","0,1","ND","ND","ND","ND"],
    [25959,"06/13/2017 06:00","ND","0,3","ND","ND","ND","ND"],
    [25960,"06/13/2017 07:00","ND","0,7","ND","ND","ND","ND"],
    [25961,"06/13/2017 08:00","ND","1,1","ND","ND","ND","ND"],
    [25962,"06/13/2017 09:00","ND","0,8","ND","ND","ND","ND"],
    [25963,"06/13/2017 10:00","ND","0,8","ND","ND","ND","ND"],
    [25964,"06/13/2017 11:00","ND","0,9","ND","ND","ND","ND"],
    [25965,"06/13/2017 12:00","ND","0,7","ND","ND","ND","ND"],
    [25966,"06/13/2017 13:00","ND","0,5","ND","ND","ND","ND"],
    [25967,"06/13/2017 14:00","ND","0,4","ND","ND","ND","ND"],
    [25968,"06/13/2017 15:00","ND","0,4","ND","ND","ND","ND"],
    [25969,"06/13/2017 16:00","ND","0,4","ND","ND","ND","ND"],
    [25970,"06/13/2017 17:00","ND","0,4","ND","ND","ND","ND"],
    [25971,"06/13/2017 18:00","ND","0,5","ND","ND","ND","ND"],
    [25972,"06/13/2017 19:00","ND","0,7","ND","ND","ND","ND"],
    [25973,"06/13/2017 20:00","ND","0,7","ND","ND","ND","ND"],
    [25974,"06/13/2017 21:00","ND","0,6","ND","ND","ND","ND"],
    [25975,"06/13/2017 22:00","ND","0,6","ND","ND","ND","ND"],
    [25976,"06/13/2017 23:00","ND","0,5","ND","ND","ND","ND"],
    [25977,"06/14/2017 00:00","ND","0,6","ND","ND","ND","ND"],
    [25978,"06/14/2017 01:00","ND","0,6","ND","ND","ND","ND"],
    [25979,"06/14/2017 02:00","ND","0,3","ND","ND","ND","ND"],
    [25980,"06/14/2017 03:00","ND","0,3","ND","ND","ND","ND"],
    [25981,"06/14/2017 04:00","ND","0,3","ND","ND","ND","ND"],
    [25982,"06/14/2017 05:00","ND","0,6","ND","ND","ND","ND"],
    [25983,"06/14/2017 06:00","ND","0,6","ND","ND","ND","ND"],
    [25984,"06/14/2017 07:00","ND","1,1","ND","ND","ND","ND"],
    [25985,"06/14/2017 08:00","ND","1,7","ND","ND","ND","ND"],
    [25986,"06/14/2017 09:00","ND","1,7","ND","ND","ND","ND"],
    [25987,"06/14/2017 10:00","ND","1,4","ND","ND","ND","ND"],
    [25988,"06/14/2017 11:00","ND","0,9","ND","ND","ND","ND"],
    [25989,"06/14/2017 12:00","ND","0,8","ND","ND","ND","ND"],
    [25990,"06/14/2017 13:00","ND","0,6","ND","ND","ND","ND"],
    [25991,"06/14/2017 14:00","ND","0,7","ND","ND","ND","ND"],
    [25992,"06/14/2017 15:00","ND","0,8","ND","ND","ND","ND"],
    [25993,"06/14/2017 16:00","ND","1","ND","ND","ND","ND"],
    [25994,"06/14/2017 17:00","ND","0,9","ND","ND","ND","ND"],
    [25995,"06/14/2017 18:00","ND","1","ND","ND","ND","ND"],
    [25996,"06/14/2017 19:00","ND","1,3","ND","ND","ND","ND"],
    [25997,"06/14/2017 20:00","ND","1,4","ND","ND","ND","ND"],
    [25998,"06/14/2017 21:00","ND","1","ND","ND","ND","ND"],
    [25999,"06/14/2017 22:00","ND","1,2","ND","ND","ND","ND"],
    [26000,"06/14/2017 23:00","ND","1,1","ND","ND","ND","ND"],
    [26001,"06/15/2017 00:00","ND","0,8","ND","ND","ND","ND"],
    [26002,"06/15/2017 01:00","ND","0,8","ND","ND","ND","ND"],
    [26003,"06/15/2017 02:00","ND","0,9","ND","ND","ND","ND"],
    [26004,"06/15/2017 03:00","ND","0,8","ND","ND","ND","ND"],
    [26005,"06/15/2017 04:00","ND","0,8","ND","ND","ND","ND"],
    [26006,"06/15/2017 05:00","ND","0,7","ND","ND","ND","ND"],
    [26007,"06/15/2017 06:00","ND","0,8","ND","ND","ND","ND"],
    [26008,"06/15/2017 07:00","ND","1","ND","ND","ND","ND"],
    [26009,"06/15/2017 08:00","ND","1,5","ND","ND","ND","ND"],
    [26010,"06/15/2017 09:00","ND","2","ND","ND","ND","ND"],
    [26011,"06/15/2017 10:00","ND","3,2","ND","ND","ND","ND"],
    [26012,"06/15/2017 11:00","ND","3,3","ND","ND","ND","ND"],
    [26013,"06/15/2017 12:00","ND","2,7","ND","ND","ND","ND"],
    [26014,"06/15/2017 13:00","ND","1,4","ND","ND","ND","ND"],
    [26015,"06/15/2017 14:00","ND","1,1","ND","ND","ND","ND"],
    [26016,"06/15/2017 15:00","ND","1","ND","ND","ND","ND"],
    [26017,"06/15/2017 16:00","ND","0,7","ND","ND","ND","ND"],
    [26018,"06/15/2017 17:00","ND","0,8","ND","ND","ND","ND"],
    [26019,"06/15/2017 18:00","ND","0,9","ND","ND","ND","ND"],
    [26020,"06/15/2017 19:00","ND","0,8","ND","ND","ND","ND"],
    [26021,"06/15/2017 20:00","ND","0,9","ND","ND","ND","ND"],
    [26022,"06/15/2017 21:00","ND","0,7","ND","ND","ND","ND"],
    [26023,"06/15/2017 22:00","ND","1,3","ND","ND","ND","ND"],
    [26024,"06/15/2017 23:00","ND","1","ND","ND","ND","ND"],
    [26025,"06/16/2017 00:00","ND","0,9","ND","ND","ND","ND"],
    [26026,"06/16/2017 01:00","ND","0,7","ND","ND","ND","ND"],
    [26027,"06/16/2017 02:00","ND","0,5","ND","ND","ND","ND"],
    [26028,"06/16/2017 03:00","ND","0,6","ND","ND","ND","ND"],
    [26029,"06/16/2017 04:00","ND","0,4","ND","ND","ND","ND"],
    [26030,"06/16/2017 05:00","ND","0,4","ND","ND","ND","ND"],
    [26031,"06/16/2017 06:00","ND","0,5","ND","ND","ND","ND"],
    [26032,"06/16/2017 07:00","ND","0,9","ND","ND","ND","ND"],
    [26033,"06/16/2017 08:00","ND","1,1","ND","ND","ND","ND"],
    [26034,"06/16/2017 09:00","ND","1,3","ND","ND","ND","ND"],
    [26035,"06/16/2017 10:00","ND","0,9","ND","ND","ND","ND"],
    [26036,"06/16/2017 11:00","ND","0,7","ND","ND","ND","ND"],
    [26037,"06/16/2017 12:00","ND","0,6","ND","ND","ND","ND"],
    [26038,"06/16/2017 13:00","ND","0,6","ND","ND","ND","ND"],
    [26039,"06/16/2017 14:00","ND","0,5","ND","ND","ND","ND"],
    [26040,"06/16/2017 15:00","ND","0,5","ND","ND","ND","ND"],
    [26041,"06/16/2017 16:00","ND","0,4","ND","ND","ND","ND"],
    [26042,"06/16/2017 17:00","ND","0,6","ND","ND","ND","ND"],
    [26043,"06/16/2017 18:00","ND","0,8","ND","ND","ND","ND"],
    [26044,"06/16/2017 19:00","ND","0,8","ND","ND","ND","ND"],
    [26045,"06/16/2017 20:00","ND","0,8","ND","ND","ND","ND"],
    [26046,"06/16/2017 21:00","ND","0,8","ND","ND","ND","ND"],
    [26047,"06/16/2017 22:00","ND","0,8","ND","ND","ND","ND"],
    [26048,"06/16/2017 23:00","ND","0,9","ND","ND","ND","ND"],
    [26049,"06/17/2017 00:00","ND","0,8","ND","ND","ND","ND"],
    [26050,"06/17/2017 01:00","ND","0,7","ND","ND","ND","ND"],
    [26051,"06/17/2017 02:00","ND","0,6","ND","ND","ND","ND"],
    [26052,"06/17/2017 03:00","ND","0,2","ND","ND","ND","ND"],
    [26053,"06/17/2017 04:00","ND","0,4","ND","ND","ND","ND"],
    [26054,"06/17/2017 05:00","ND","0,4","ND","ND","ND","ND"],
    [26055,"06/17/2017 06:00","ND","0,4","ND","ND","ND","ND"],
    [26056,"06/17/2017 07:00","ND","0,6","ND","ND","ND","ND"],
    [26057,"06/17/2017 08:00","ND","0,8","ND","ND","ND","ND"],
    [26058,"06/17/2017 09:00","ND","0,8","ND","ND","ND","ND"],
    [26059,"06/17/2017 10:00","ND","0,7","ND","ND","ND","ND"],
    [26060,"06/17/2017 11:00","ND","0,8","ND","ND","ND","ND"],
    [26061,"06/17/2017 12:00","ND","0,6","ND","ND","ND","ND"],
    [26062,"06/17/2017 13:00","ND","0,5","ND","ND","ND","ND"],
    [26063,"06/17/2017 14:00","ND","0,5","ND","ND","ND","ND"],
    [26064,"06/17/2017 15:00","ND","0,5","ND","ND","ND","ND"],
    [26065,"06/17/2017 16:00","ND","0,7","ND","ND","ND","ND"],
    [26066,"06/17/2017 17:00","ND","1","ND","ND","ND","ND"],
    [26067,"06/17/2017 18:00","ND","1,1","ND","ND","ND","ND"],
    [26068,"06/17/2017 19:00","ND","1,5","ND","ND","ND","ND"],
    [26069,"06/17/2017 20:00","ND","1,4","ND","ND","ND","ND"],
    [26070,"06/17/2017 21:00","ND","0,8","ND","ND","ND","ND"],
    [26071,"06/17/2017 22:00","ND","0,7","ND","ND","ND","ND"],
    [26072,"06/17/2017 23:00","ND","0,8","ND","ND","ND","ND"],
    [26073,"06/18/2017 00:00","ND","0,8","ND","ND","ND","ND"],
    [26074,"06/18/2017 01:00","ND","0,7","ND","ND","ND","ND"],
    [26075,"06/18/2017 02:00","ND","0,9","ND","ND","ND","ND"],
    [26076,"06/18/2017 03:00","ND","0,8","ND","ND","ND","ND"],
    [26077,"06/18/2017 04:00","ND","0,8","ND","ND","ND","ND"],
    [26078,"06/18/2017 05:00","ND","0,8","ND","ND","ND","ND"],
    [26079,"06/18/2017 06:00","ND","0,8","ND","ND","ND","ND"],
    [26080,"06/18/2017 07:00","ND","0,9","ND","ND","ND","ND"],
    [26081,"06/18/2017 08:00","ND","1","ND","ND","ND","ND"],
    [26082,"06/18/2017 09:00","ND","1","ND","ND","ND","ND"],
    [26083,"06/18/2017 10:00","ND","1,1","ND","ND","ND","ND"],
    [26084,"06/18/2017 11:00","ND","1","ND","ND","ND","ND"],
    [26085,"06/18/2017 12:00","ND","1,1","ND","ND","ND","ND"],
    [26086,"06/18/2017 13:00","ND","1,4","ND","ND","ND","ND"],
    [26087,"06/18/2017 14:00","ND","2,5","ND","ND","ND","ND"],
    [26088,"06/18/2017 15:00","ND","3,5","ND","ND","ND","ND"],
    [26089,"06/18/2017 16:00","ND","1,7","ND","ND","ND","ND"],
    [26090,"06/18/2017 17:00","ND","0,6","ND","ND","ND","ND"],
    [26091,"06/18/2017 18:00","ND","1","ND","ND","ND","ND"],
    [26092,"06/18/2017 19:00","ND","1,1","ND","ND","ND","ND"],
    [26093,"06/18/2017 20:00","ND","1,1","ND","ND","ND","ND"],
    [26094,"06/18/2017 21:00","ND","1","ND","ND","ND","ND"],
    [26095,"06/18/2017 22:00","ND","0,9","ND","ND","ND","ND"],
    [26096,"06/18/2017 23:00","ND","1","ND","ND","ND","ND"],
    [26097,"06/19/2017 00:00","ND","1","ND","ND","ND","ND"],
    [26098,"06/19/2017 01:00","ND","1","ND","ND","ND","ND"],
    [26099,"06/19/2017 02:00","ND","0,9","ND","ND","ND","ND"],
    [26100,"06/19/2017 03:00","ND","0,9","ND","ND","ND","ND"],
    [26101,"06/19/2017 04:00","ND","0,7","ND","ND","ND","ND"],
    [26102,"06/19/2017 05:00","ND","0,7","ND","ND","ND","ND"],
    [26103,"06/19/2017 06:00","ND","0,5","ND","ND","ND","ND"],
    [26104,"06/19/2017 07:00","ND","0,7","ND","ND","ND","ND"],
    [26105,"06/19/2017 08:00","ND","0,6","ND","ND","ND","ND"],
    [26106,"06/19/2017 09:00","ND","0,8","ND","ND","ND","ND"],
    [26107,"06/19/2017 10:00","ND","0,8","ND","ND","ND","ND"],
    [26108,"06/19/2017 11:00","ND","0,9","ND","ND","ND","ND"],
    [26109,"06/19/2017 12:00","ND","0,9","ND","ND","ND","ND"],
    [26110,"06/19/2017 13:00","ND","0,7","ND","ND","ND","ND"],
    [26111,"06/19/2017 14:00","ND","0,6","ND","ND","ND","ND"],
    [26112,"06/19/2017 15:00","ND","0,7","ND","ND","ND","ND"],
    [26113,"06/19/2017 16:00","ND","0,6","ND","ND","ND","ND"],
    [26114,"06/19/2017 17:00","ND","0,3","ND","ND","ND","ND"],
    [26115,"06/19/2017 18:00","ND","0,2","ND","ND","ND","ND"],
    [26116,"06/19/2017 19:00","ND","0,5","ND","ND","ND","ND"],
    [26117,"06/19/2017 20:00","ND","0,3","ND","ND","ND","ND"],
    [26118,"06/19/2017 21:00","ND","0,3","ND","ND","ND","ND"],
    [26119,"06/19/2017 22:00","ND","0,5","ND","ND","ND","ND"],
    [26120,"06/19/2017 23:00","ND","0,6","ND","ND","ND","ND"],
    [26121,"06/20/2017 00:00","ND","0,4","ND","ND","ND","ND"],
    [26122,"06/20/2017 01:00","ND","0,3","ND","ND","ND","ND"],
    [26123,"06/20/2017 02:00","ND","0,4","ND","ND","ND","ND"],
    [26124,"06/20/2017 03:00","ND","0,5","ND","ND","ND","ND"],
    [26125,"06/20/2017 04:00","ND","0,3","ND","ND","ND","ND"],
    [26126,"06/20/2017 05:00","ND","0,3","ND","ND","ND","ND"],
    [26127,"06/20/2017 06:00","ND","0,6","ND","ND","ND","ND"],
    [26128,"06/20/2017 07:00","ND","1,1","ND","ND","ND","ND"],
    [26129,"06/20/2017 08:00","ND","1,5","ND","ND","ND","ND"],
    [26130,"06/20/2017 09:00","ND","2,3","ND","ND","ND","ND"],
    [26131,"06/20/2017 10:00","ND","2,4","ND","ND","ND","ND"],
    [26132,"06/20/2017 11:00","ND","2,5","ND","ND","ND","ND"],
    [26133,"06/20/2017 12:00","ND","1,7","ND","ND","ND","ND"],
    [26134,"06/20/2017 13:00","ND","0,8","ND","ND","ND","ND"],
    [26135,"06/20/2017 14:00","ND","0,7","ND","ND","ND","ND"],
    [26136,"06/20/2017 15:00","ND","0,5","ND","ND","ND","ND"],
    [26137,"06/20/2017 16:00","ND","0,6","ND","ND","ND","ND"],
    [26138,"06/20/2017 17:00","ND","0,9","ND","ND","ND","ND"],
    [26139,"06/20/2017 18:00","ND","0,9","ND","ND","ND","ND"],
    [26140,"06/20/2017 19:00","ND","1,1","ND","ND","ND","ND"],
    [26141,"06/20/2017 20:00","ND","0,7","ND","ND","ND","ND"],
    [26142,"06/20/2017 21:00","ND","1","ND","ND","ND","ND"],
    [26143,"06/20/2017 22:00","ND","0,8","ND","ND","ND","ND"],
    [26144,"06/20/2017 23:00","ND","0,7","ND","ND","ND","ND"],
    [26145,"06/21/2017 00:00","ND","0,6","ND","ND","ND","ND"],
    [26146,"06/21/2017 01:00","ND","0,5","ND","ND","ND","ND"],
    [26147,"06/21/2017 02:00","ND","0,4","ND","ND","ND","ND"],
    [26148,"06/21/2017 03:00","ND","0,4","ND","ND","ND","ND"],
    [26149,"06/21/2017 04:00","ND","0,3","ND","ND","ND","ND"],
    [26150,"06/21/2017 05:00","ND","0,2","ND","ND","ND","ND"],
    [26151,"06/21/2017 06:00","ND","0,4","ND","ND","ND","ND"],
    [26152,"06/21/2017 07:00","ND","0,9","ND","ND","ND","ND"],
    [26153,"06/21/2017 08:00","ND","1,2","ND","ND","ND","ND"],
    [26154,"06/21/2017 09:00","ND","1,2","ND","ND","ND","ND"],
    [26155,"06/21/2017 10:00","ND","1,5","ND","ND","ND","ND"],
    [26156,"06/21/2017 11:00","ND","2,1","ND","ND","ND","ND"],
    [26157,"06/21/2017 12:00","ND","1,4","ND","ND","ND","ND"],
    [26158,"06/21/2017 13:00","ND","1,4","ND","ND","ND","ND"],
    [26159,"06/21/2017 14:00","ND","1,3","ND","ND","ND","ND"],
    [26160,"06/21/2017 15:00","ND","1,8","ND","ND","ND","ND"],
    [26161,"06/21/2017 16:00","ND","0,9","ND","ND","ND","ND"],
    [26162,"06/21/2017 17:00","ND","0,3","ND","ND","ND","ND"],
    [26163,"06/21/2017 18:00","ND","0,3","ND","ND","ND","ND"],
    [26164,"06/21/2017 19:00","ND","0,5","ND","ND","ND","ND"],
    [26165,"06/21/2017 20:00","ND","0,4","ND","ND","ND","ND"],
    [26166,"06/21/2017 21:00","ND","0,5","ND","ND","ND","ND"],
    [26167,"06/21/2017 22:00","ND","0,5","ND","ND","ND","ND"],
    [26168,"06/21/2017 23:00","ND","0,3","ND","ND","ND","ND"],
    [26169,"06/22/2017 00:00","ND","0,3","ND","ND","ND","ND"],
    [26170,"06/22/2017 01:00","ND","0,2","ND","ND","ND","ND"],
    [26171,"06/22/2017 02:00","ND","0,6","ND","ND","ND","ND"],
    [26172,"06/22/2017 03:00","ND","0,5","ND","ND","ND","ND"],
    [26173,"06/22/2017 04:00","ND","0,4","ND","ND","ND","ND"],
    [26174,"06/22/2017 05:00","ND","0,3","ND","ND","ND","ND"],
    [26175,"06/22/2017 06:00","ND","0,7","ND","ND","ND","ND"],
    [26176,"06/22/2017 07:00","ND","0,8","ND","ND","ND","ND"],
    [26177,"06/22/2017 08:00","ND","1","ND","ND","ND","ND"],
    [26178,"06/22/2017 09:00","ND","2,5","ND","ND","ND","ND"],
    [26179,"06/22/2017 10:00","ND","2,1","ND","ND","ND","ND"],
    [26180,"06/22/2017 11:00","ND","1,9","ND","ND","ND","ND"],
    [26181,"06/22/2017 12:00","ND","1,3","ND","ND","ND","ND"],
    [26182,"06/22/2017 13:00","ND","2,2","ND","ND","ND","ND"],
    [26183,"06/22/2017 14:00","ND","2,4","ND","ND","ND","ND"],
    [26184,"06/22/2017 15:00","ND","1,5","ND","ND","ND","ND"],
    [26185,"06/22/2017 16:00","ND","0,6","ND","ND","ND","ND"],
    [26186,"06/22/2017 17:00","ND","0,4","ND","ND","ND","ND"],
    [26187,"06/22/2017 18:00","ND","0,4","ND","ND","ND","ND"],
    [26188,"06/22/2017 19:00","ND","0,4","ND","ND","ND","ND"],
    [26189,"06/22/2017 20:00","ND","0,4","ND","ND","ND","ND"],
    [26190,"06/22/2017 21:00","ND","0,9","ND","ND","ND","ND"],
    [26191,"06/22/2017 22:00","ND","0,9","ND","ND","ND","ND"],
    [26192,"06/22/2017 23:00","ND","0,7","ND","ND","ND","ND"],
    [26193,"06/23/2017 00:00","ND","0,9","ND","ND","ND","ND"],
    [26194,"06/23/2017 01:00","ND","0,7","ND","ND","ND","ND"],
    [26195,"06/23/2017 02:00","ND","0,5","ND","ND","ND","ND"],
    [26196,"06/23/2017 03:00","ND","0,4","ND","ND","ND","ND"],
    [26197,"06/23/2017 04:00","ND","0,3","ND","ND","ND","ND"],
    [26198,"06/23/2017 05:00","ND","0,4","ND","ND","ND","ND"],
    [26199,"06/23/2017 06:00","ND","0,6","ND","ND","ND","ND"],
    [26200,"06/23/2017 07:00","ND","0,7","ND","ND","ND","ND"],
    [26201,"06/23/2017 08:00","ND","1,2","ND","ND","ND","ND"],
    [26202,"06/23/2017 09:00","ND","0,8","ND","ND","ND","ND"],
    [26203,"06/23/2017 10:00","ND","1","ND","ND","ND","ND"],
    [26204,"06/23/2017 11:00","ND","2,9","ND","ND","ND","ND"],
    [26205,"06/23/2017 12:00","ND","5,2","ND","ND","ND","ND"],
    [26206,"06/23/2017 13:00","59,9","4,3","ND","ND","ND","ND"],
    [26207,"06/23/2017 14:00","48,5","3,2","ND","ND","ND","ND"],
    [26208,"06/23/2017 15:00","34,1","3,4","ND","ND","ND","ND"],
    [26209,"06/23/2017 16:00","30,1","2,7","ND","ND","ND","ND"],
    [26210,"06/23/2017 17:00","31,3","0,9","ND","ND","ND","ND"],
    [26211,"06/23/2017 18:00","18,4","0,7","ND","ND","ND","ND"],
    [26212,"06/23/2017 19:00","18,5","0,6","ND","ND","ND","ND"],
    [26213,"06/23/2017 20:00","17,5","0,8","ND","ND","ND","ND"],
    [26214,"06/23/2017 21:00","26,3","0,6","ND","ND","ND","ND"],
    [26215,"06/23/2017 22:00","37,3","0,7","ND","ND","ND","ND"],
    [26216,"06/23/2017 23:00","42,5","0,8","ND","ND","ND","ND"],
    [26217,"06/24/2017 00:00","49,9","0,6","ND","ND","ND","ND"],
    [26218,"06/24/2017 01:00","45,1","0,3","ND","ND","ND","ND"],
    [26219,"06/24/2017 02:00","33,7","0,3","ND","ND","ND","ND"],
    [26220,"06/24/2017 03:00","28","0,1","ND","ND","ND","ND"],
    [26221,"06/24/2017 04:00","26,2","0,2","ND","ND","ND","ND"],
    [26222,"06/24/2017 05:00","23,7","0,2","ND","ND","ND","ND"],
    [26223,"06/24/2017 06:00","30,7","0,2","ND","ND","ND","ND"],
    [26224,"06/24/2017 07:00","33,9","0,2","ND","ND","ND","ND"],
    [26225,"06/24/2017 08:00","41,6","0,9","ND","ND","ND","ND"],
    [26226,"06/24/2017 09:00","74,5","1,7","ND","ND","ND","ND"],
    [26227,"06/24/2017 10:00","120","1,4","ND","ND","ND","ND"],
    [26228,"06/24/2017 11:00","58,2","1,8","ND","ND","ND","ND"],
    [26229,"06/24/2017 12:00","33,8","1,8","ND","ND","ND","ND"],
    [26230,"06/24/2017 13:00","35,5","1,7","ND","ND","ND","ND"],
    [26231,"06/24/2017 14:00","43","1,6","ND","ND","ND","ND"],
    [26232,"06/24/2017 15:00","55,2","0,7","ND","ND","ND","ND"],
    [26233,"06/24/2017 16:00","25,4","0,3","ND","ND","ND","ND"],
    [26234,"06/24/2017 17:00","17,6","0,3","ND","ND","ND","ND"],
    [26235,"06/24/2017 18:00","15,6","0,2","ND","ND","ND","ND"],
    [26236,"06/24/2017 19:00","20,6","0,5","ND","ND","ND","ND"],
    [26237,"06/24/2017 20:00","19,5","0,4","ND","ND","ND","ND"],
    [26238,"06/24/2017 21:00","34,2","0,7","ND","ND","ND","ND"],
    [26239,"06/24/2017 22:00","36,2","0,5","ND","ND","ND","ND"],
    [26240,"06/24/2017 23:00","26,3","0,5","ND","ND","ND","ND"],
    [26241,"06/25/2017 00:00","31,6","0,9","ND","ND","ND","ND"],
    [26242,"06/25/2017 01:00","39,4","0,4","ND","ND","ND","ND"],
    [26243,"06/25/2017 02:00","28,3","0,5","ND","ND","ND","ND"],
    [26244,"06/25/2017 03:00","54","0,3","ND","ND","ND","ND"],
    [26245,"06/25/2017 04:00","25,1","0,2","ND","ND","ND","ND"],
    [26246,"06/25/2017 05:00","24,1","0,2","ND","ND","ND","ND"],
    [26247,"06/25/2017 06:00","25,8","0,2","ND","ND","ND","ND"],
    [26248,"06/25/2017 07:00","26,4","0","ND","ND","ND","ND"],
    [26249,"06/25/2017 08:00","31,7","0,3","ND","ND","ND","ND"],
    [26250,"06/25/2017 09:00","34","0,8","ND","ND","ND","ND"],
    [26251,"06/25/2017 10:00","32,6","2,5","ND","ND","ND","ND"],
    [26252,"06/25/2017 11:00","37,8","2,9","ND","ND","ND","ND"],
    [26253,"06/25/2017 12:00","31,2","2,9","ND","ND","ND","ND"],
    [26254,"06/25/2017 13:00","34,8","2,3","ND","ND","ND","ND"],
    [26255,"06/25/2017 14:00","35,9","2,2","ND","ND","ND","ND"],
    [26256,"06/25/2017 15:00","37,4","2,6","ND","ND","ND","ND"],
    [26257,"06/25/2017 16:00","36,8","0,8","ND","ND","ND","ND"],
    [26258,"06/25/2017 17:00","10,7","0,4","ND","ND","ND","ND"],
    [26259,"06/25/2017 18:00","8,2","0,2","ND","ND","ND","ND"],
    [26260,"06/25/2017 19:00","15,1","0,6","ND","ND","ND","ND"],
    [26261,"06/25/2017 20:00","22,1","0,8","ND","ND","ND","ND"],
    [26262,"06/25/2017 21:00","27,6","0,6","ND","ND","ND","ND"],
    [26263,"06/25/2017 22:00","22,3","0,7","ND","ND","ND","ND"],
    [26264,"06/25/2017 23:00","26,3","0,7","ND","ND","ND","ND"],
    [26265,"06/26/2017 00:00","33,3","0,5","ND","ND","ND","ND"],
    [26266,"06/26/2017 01:00","35,2","0,2","ND","ND","ND","ND"],
    [26267,"06/26/2017 02:00","27,6","0,2","ND","ND","ND","ND"],
    [26268,"06/26/2017 03:00","24,6","0,2","ND","ND","ND","ND"],
    [26269,"06/26/2017 04:00","24,2","0,3","ND","ND","ND","ND"],
    [26270,"06/26/2017 05:00","23,7","0,3","ND","ND","ND","ND"],
    [26271,"06/26/2017 06:00","27,7","0,3","ND","ND","ND","ND"],
    [26272,"06/26/2017 07:00","29","0,4","ND","ND","ND","ND"],
    [26273,"06/26/2017 08:00","34,3","0,5","ND","ND","ND","ND"],
    [26274,"06/26/2017 09:00","38,7","2,9","ND","ND","ND","ND"],
    [26275,"06/26/2017 10:00","47,9","5,4","ND","ND","ND","ND"],
    [26276,"06/26/2017 11:00","39,7","3,9","ND","ND","ND","ND"],
    [26277,"06/26/2017 12:00","38,2","3,5","ND","ND","ND","ND"],
    [26278,"06/26/2017 13:00","40,9","3,1","ND","ND","ND","ND"],
    [26279,"06/26/2017 14:00","37,9","3,8","ND","ND","ND","ND"],
    [26280,"06/26/2017 15:00","35,4","3","ND","ND","ND","ND"],
    [26281,"06/26/2017 16:00","33,6","1,3","ND","ND","ND","ND"],
    [26282,"06/26/2017 17:00","21,2","0,6","ND","ND","ND","ND"],
    [26283,"06/26/2017 18:00","15,1","0,5","ND","ND","ND","ND"],
    [26284,"06/26/2017 19:00","12,4","0,6","ND","ND","ND","ND"],
    [26285,"06/26/2017 20:00","13,3","0,5","ND","ND","ND","ND"],
    [26286,"06/26/2017 21:00","14,1","0,4","ND","ND","ND","ND"],
    [26287,"06/26/2017 22:00","12,4","0,4","ND","ND","ND","ND"],
    [26288,"06/26/2017 23:00","12,1","0,7","ND","ND","ND","ND"],
    [26289,"06/27/2017 00:00","29,4","0,8","ND","ND","ND","ND"],
    [26290,"06/27/2017 01:00","26,1","0,4","ND","ND","ND","ND"],
    [26291,"06/27/2017 02:00","18,7","0,3","ND","ND","ND","ND"],
    [26292,"06/27/2017 03:00","13","0,3","ND","ND","ND","ND"],
    [26293,"06/27/2017 04:00","13,1","0,3","ND","ND","ND","ND"],
    [26294,"06/27/2017 05:00","14,1","0,3","ND","ND","ND","ND"],
    [26295,"06/27/2017 06:00","11,2","0,3","ND","ND","ND","ND"],
    [26296,"06/27/2017 07:00","11,9","0,6","ND","ND","ND","ND"],
    [26297,"06/27/2017 08:00","16,1","1,3","ND","ND","ND","ND"],
    [26298,"06/27/2017 09:00","15,3","2,2","ND","ND","ND","ND"],
    [26299,"06/27/2017 10:00","19,2","1,6","ND","ND","ND","ND"],
    [26300,"06/27/2017 11:00","32,2","1,9","ND","ND","ND","ND"],
    [26301,"06/27/2017 12:00","25,4","2,4","ND","ND","ND","ND"],
    [26302,"06/27/2017 13:00","30,6","1,7","ND","ND","ND","ND"],
    [26303,"06/27/2017 14:00","26,5","1,7","ND","ND","ND","ND"],
    [26304,"06/27/2017 15:00","31,1","1,7","ND","ND","ND","ND"],
    [26305,"06/27/2017 16:00","36,4","1,2","ND","ND","ND","ND"],
    [26306,"06/27/2017 17:00","30,5","1,5","ND","ND","ND","ND"],
    [26307,"06/27/2017 18:00","52,7","1","ND","ND","ND","ND"],
    [26308,"06/27/2017 19:00","49,6","1,2","ND","ND","ND","ND"],
    [26309,"06/27/2017 20:00","72,5","1","ND","ND","ND","ND"],
    [26310,"06/27/2017 21:00","41,4","0,9","ND","ND","ND","ND"],
    [26311,"06/27/2017 22:00","31,4","0,9","ND","ND","ND","ND"],
    [26312,"06/27/2017 23:00","37,2","0,8","ND","ND","ND","ND"],
    [26313,"06/28/2017 00:00","25,3","0,6","ND","ND","ND","ND"],
    [26314,"06/28/2017 01:00","27,9","0,5","ND","ND","ND","ND"],
    [26315,"06/28/2017 02:00","20,6","0,4","ND","ND","ND","ND"],
    [26316,"06/28/2017 03:00","18,9","0,3","ND","ND","ND","ND"],
    [26317,"06/28/2017 04:00","20,6","0,2","ND","ND","ND","ND"],
    [26318,"06/28/2017 05:00","22,2","0,2","ND","ND","ND","ND"],
    [26319,"06/28/2017 06:00","28","0,4","ND","ND","ND","ND"],
    [26320,"06/28/2017 07:00","57","0,6","ND","ND","ND","ND"],
    [26321,"06/28/2017 08:00","70,4","1","ND","ND","ND","ND"],
    [26322,"06/28/2017 09:00","65,3","1,3","ND","ND","ND","ND"],
    [26323,"06/28/2017 10:00","84,7","1,5","ND","ND","ND","ND"],
    [26324,"06/28/2017 11:00","87","1,8","ND","ND","ND","ND"],
    [26325,"06/28/2017 12:00","66,2","3,2","ND","ND","ND","ND"],
    [26326,"06/28/2017 13:00","57,4","3,7","ND","ND","ND","ND"],
    [26327,"06/28/2017 14:00","49,5","3,3","ND","ND","ND","ND"],
    [26328,"06/28/2017 15:00","38,7","3,9","ND","ND","ND","ND"],
    [26329,"06/28/2017 16:00","45,4","2,4","ND","ND","ND","ND"],
    [26330,"06/28/2017 17:00","39,8","1,1","ND","ND","ND","ND"],
    [26331,"06/28/2017 18:00","25,3","0,8","ND","ND","ND","ND"],
    [26332,"06/28/2017 19:00","15,8","0,7","ND","ND","ND","ND"],
    [26333,"06/28/2017 20:00","27,2","0,8","ND","ND","ND","ND"],
    [26334,"06/28/2017 21:00","43,6","0,6","ND","ND","ND","ND"],
    [26335,"06/28/2017 22:00","45,6","0,8","ND","ND","ND","ND"],
    [26336,"06/28/2017 23:00","61","0,6","ND","ND","ND","ND"],
    [26337,"06/29/2017 00:00","56,7","0,5","ND","ND","ND","ND"],
    [26338,"06/29/2017 01:00","52,9","0,4","ND","ND","ND","ND"],
    [26339,"06/29/2017 02:00","47,1","0,4","ND","ND","ND","ND"],
    [26340,"06/29/2017 03:00","42,4","0,3","ND","ND","ND","ND"],
    [26341,"06/29/2017 04:00","39,8","0,4","ND","ND","ND","ND"],
    [26342,"06/29/2017 05:00","32,5","0,4","ND","ND","ND","ND"],
    [26343,"06/29/2017 06:00","46,9","0,6","ND","ND","ND","ND"],
    [26344,"06/29/2017 07:00","59,4","0,6","ND","ND","ND","ND"],
    [26345,"06/29/2017 08:00","70,4","1","ND","ND","ND","ND"],
    [26346,"06/29/2017 09:00","83,4","1","ND","ND","ND","ND"],
    [26347,"06/29/2017 10:00","67,4","1,2","ND","ND","ND","ND"],
    [26348,"06/29/2017 11:00","44,3","2","ND","ND","ND","ND"],
    [26349,"06/29/2017 12:00","37,7","2,5","ND","ND","ND","ND"],
    [26350,"06/29/2017 13:00","37,5","2,5","ND","ND","ND","ND"],
    [26351,"06/29/2017 14:00","41,9","1,7","ND","ND","ND","ND"],
    [26352,"06/29/2017 15:00","48,8","1,5","ND","ND","ND","ND"],
    [26353,"06/29/2017 16:00","55,8","2,3","ND","ND","ND","ND"],
    [26354,"06/29/2017 17:00","57,4","0,8","ND","ND","ND","ND"],
    [26355,"06/29/2017 18:00","19,3","0,7","ND","ND","ND","ND"],
    [26356,"06/29/2017 19:00","16,3","0,6","ND","ND","ND","ND"],
    [26357,"06/29/2017 20:00","11,6","0,6","ND","ND","ND","ND"],
    [26358,"06/29/2017 21:00","8,9","0,9","ND","ND","ND","ND"],
    [26359,"06/29/2017 22:00","21,2","0,8","ND","ND","ND","ND"],
    [26360,"06/29/2017 23:00","26,1","0,9","ND","ND","ND","ND"],
    [26361,"06/30/2017 00:00","37,2","0,9","ND","ND","ND","ND"],
    [26362,"06/30/2017 01:00","10,3","0,5","ND","ND","ND","ND"],
    [26363,"06/30/2017 02:00","15","0,5","ND","ND","ND","ND"],
    [26364,"06/30/2017 03:00","19,5","0,3","ND","ND","ND","ND"],
    [26365,"06/30/2017 04:00","17,6","0,4","ND","ND","ND","ND"],
    [26366,"06/30/2017 05:00","15,6","0,4","ND","ND","ND","ND"],
    [26367,"06/30/2017 06:00","20,7","0,3","ND","ND","ND","ND"],
    [26368,"06/30/2017 07:00","20,5","0,7","ND","ND","ND","ND"],
    [26369,"06/30/2017 08:00","25,4","1,3","ND","ND","ND","ND"],
    [26370,"06/30/2017 09:00","30,6","1,1","ND","ND","ND","ND"],
    [26371,"06/30/2017 10:00","31,1","1,5","ND","ND","ND","ND"],
    [26372,"06/30/2017 11:00","39,3","1,6","ND","ND","ND","ND"],
    [26373,"06/30/2017 12:00","24,9","1,4","ND","ND","ND","ND"],
    [26374,"06/30/2017 13:00","29,2","1,4","ND","ND","ND","ND"],
    [26375,"06/30/2017 14:00","40,2","1,3","ND","ND","ND","ND"],
    [26376,"06/30/2017 15:00","36,3","1,3","ND","ND","ND","ND"],
    [26377,"06/30/2017 16:00","29,9","1,5","ND","ND","ND","ND"],
    [26378,"06/30/2017 17:00","34,7","1,4","ND","ND","ND","ND"],
    [26379,"06/30/2017 18:00","38,9","1,3","ND","ND","ND","ND"],
    [26380,"06/30/2017 19:00","54,4","1,2","ND","ND","ND","ND"],
    [26381,"06/30/2017 20:00","60,4","1,1","ND","ND","ND","ND"],
    [26382,"06/30/2017 21:00","52","0,9","ND","ND","ND","ND"],
    [26383,"06/30/2017 22:00","45,6","1","ND","ND","ND","ND"],
    [26384,"06/30/2017 23:00","42,4","1","ND","ND","ND","ND"],
    [26385,"42742","34,7","1","ND","ND","ND","ND"],
    [26386,"42742,04167","49,4","0,9","ND","ND","ND","ND"],
    [26387,"42742,08333","33,6","0,8","ND","ND","ND","ND"],
    [26388,"42742,125","32,1","0,7","ND","ND","ND","ND"],
    [26389,"42742,16667","28,9","0,7","ND","ND","ND","ND"],
    [26390,"42742,20833","30,4","0,6","ND","ND","ND","ND"],
    [26391,"42742,25","35,9","0,7","ND","ND","ND","ND"],
    [26392,"42742,29167","42,5","1","ND","ND","ND","ND"],
    [26393,"42742,33333","62,7","1,3","ND","ND","ND","ND"],
    [26394,"42742,375","94,1","1,2","ND","ND","ND","ND"],
    [26395,"42742,41667","75,5","1,3","ND","ND","ND","ND"],
    [26396,"42742,45833","60,8","2,1","ND","ND","ND","ND"],
    [26397,"42742,5","58,8","2,9","ND","ND","ND","ND"],
    [26398,"42742,54167","55,2","2,9","ND","ND","ND","ND"],
    [26399,"42742,58333","52,7","2,4","ND","ND","ND","ND"],
    [26400,"42742,625","49,9","1,7","ND","ND","ND","ND"],
    [26401,"42742,66667","41,3","0,6","ND","ND","ND","ND"],
    [26402,"42742,70833","23,8","0,3","ND","ND","ND","ND"],
    [26403,"42742,75","17","0,5","ND","ND","ND","ND"],
    [26404,"42742,79167","16,1","0,3","ND","ND","ND","ND"],
    [26405,"42742,83333","11,6","0,4","ND","ND","ND","ND"],
    [26406,"42742,875","13,3","0,7","ND","ND","ND","ND"],
    [26407,"42742,91667","29,4","0,9","ND","ND","ND","ND"],
    [26408,"42742,95833","51,1","1","ND","ND","ND","ND"],
    [26409,"42773","51,9","0,8","ND","ND","ND","ND"],
    [26410,"42773,04167","50,7","0,7","ND","ND","ND","ND"],
    [26411,"42773,08333","36,8","0,6","ND","ND","ND","ND"],
    [26412,"42773,125","33,5","0,6","ND","ND","ND","ND"],
    [26413,"42773,16667","33,7","0,6","ND","ND","ND","ND"],
    [26414,"42773,20833","29,7","0,6","ND","ND","ND","ND"],
    [26415,"42773,25","26,7","0,7","ND","ND","ND","ND"],
    [26416,"42773,29167","33,8","0,8","ND","ND","ND","ND"],
    [26417,"42773,33333","36,7","1,7","ND","ND","ND","ND"],
    [26418,"42773,375","48,6","5,4","ND","ND","ND","ND"],
    [26419,"42773,41667","39,3","5,3","ND","ND","ND","ND"],
    [26420,"42773,45833","35,2","1,5","ND","ND","ND","ND"],
    [26421,"42773,5","31,1","1,9","ND","ND","ND","ND"],
    [26422,"42773,54167","37,5","0,6","ND","ND","ND","ND"],
    [26423,"42773,58333","33,7","0,5","ND","ND","ND","ND"],
    [26424,"42773,625","22,1","0,3","ND","ND","ND","ND"],
    [26425,"42773,66667","26,8","0","ND","ND","ND","ND"],
    [26426,"42773,70833","29,9","0,4","ND","ND","ND","ND"],
    [26427,"42773,75","20,1","0,5","ND","ND","ND","ND"],
    [26428,"42773,79167","19,6","0,8","ND","ND","ND","ND"],
    [26429,"42773,83333","16,8","0,7","ND","ND","ND","ND"],
    [26430,"42773,875","12,6","0,7","ND","ND","ND","ND"],
    [26431,"42773,91667","27,2","0,9","ND","ND","ND","ND"],
    [26432,"42773,95833","55,1","0,7","ND","ND","ND","ND"],
    [26433,"42801","50,6","0,7","ND","ND","ND","ND"],
    [26434,"42801,04167","37,4","0,5","ND","ND","ND","ND"],
    [26435,"42801,08333","32,8","0,4","ND","ND","ND","ND"],
    [26436,"42801,125","28","0,5","ND","ND","ND","ND"],
    [26437,"42801,16667","24,7","0,4","ND","ND","ND","ND"],
    [26438,"42801,20833","30,4","0,4","ND","ND","ND","ND"],
    [26439,"42801,25","24,4","0,4","ND","ND","ND","ND"],
    [26440,"42801,29167","26","0,5","ND","ND","ND","ND"],
    [26441,"42801,33333","30","0,6","ND","ND","ND","ND"],
    [26442,"42801,375","40,4","1","ND","ND","ND","ND"],
    [26443,"42801,41667","37,2","0,9","ND","ND","ND","ND"],
    [26444,"42801,45833","26,6","1","ND","ND","ND","ND"],
    [26445,"42801,5","33,9","1,5","ND","ND","ND","ND"],
    [26446,"42801,54167","51,1","2","ND","ND","ND","ND"],
    [26447,"42801,58333","46,2","1,6","ND","ND","ND","ND"],
    [26448,"42801,625","43,7","0,4","ND","ND","ND","ND"],
    [26449,"42801,66667","23,4","0,5","ND","ND","ND","ND"],
    [26450,"42801,70833","15,1","0,7","ND","ND","ND","ND"],
    [26451,"42801,75","19,3","0,8","ND","ND","ND","ND"],
    [26452,"42801,79167","36,6","0,7","ND","ND","ND","ND"],
    [26453,"42801,83333","18,8","0,6","ND","ND","ND","ND"],
    [26454,"42801,875","29,2","0,5","ND","ND","ND","ND"],
    [26455,"42801,91667","41,7","0,6","ND","ND","ND","ND"],
    [26456,"42801,95833","36,6","0,6","ND","ND","ND","ND"],
    [26457,"42832","27,7","0,5","ND","ND","ND","ND"],
    [26458,"42832,04167","28,1","0,3","ND","ND","ND","ND"],
    [26459,"42832,08333","26,2","0,4","ND","ND","ND","ND"],
    [26460,"42832,125","21,7","0,3","ND","ND","ND","ND"],
    [26461,"42832,16667","27","0,3","ND","ND","ND","ND"],
    [26462,"42832,20833","25,2","0,5","ND","ND","ND","ND"],
    [26463,"42832,25","32,8","0,7","ND","ND","ND","ND"],
    [26464,"42832,29167","31,5","0,9","ND","ND","ND","ND"],
    [26465,"42832,33333","39,2","1,7","ND","ND","ND","ND"],
    [26466,"42832,375","62,5","1,9","ND","ND","ND","ND"],
    [26467,"42832,41667","88,5","1,6","ND","ND","ND","ND"],
    [26468,"42832,45833","65,4","1,8","ND","ND","ND","ND"],
    [26469,"42832,5","57,1","1,3","ND","ND","ND","ND"],
    [26470,"42832,54167","33,1","0","ND","ND","ND","ND"],
    [26471,"42832,58333","32,4","0,6","ND","ND","ND","ND"],
    [26472,"42832,625","39,4","0,1","ND","ND","ND","ND"],
    [26473,"42832,66667","28,5","0,2","ND","ND","ND","ND"],
    [26474,"42832,70833","28,4","0,4","ND","ND","ND","ND"],
    [26475,"42832,75","17,4","0,5","ND","ND","ND","ND"],
    [26476,"42832,79167","18,6","0,9","ND","ND","ND","ND"],
    [26477,"42832,83333","17,9","0,9","ND","ND","ND","ND"],
    [26478,"42832,875","12,3","0,8","ND","ND","ND","ND"],
    [26479,"42832,91667","12,9","1,3","ND","ND","ND","ND"],
    [26480,"42832,95833","34,3","1,3","ND","ND","ND","ND"],
    [26481,"42862","57,1","0,7","ND","ND","ND","ND"],
    [26482,"42862,04167","51,3","0,5","ND","ND","ND","ND"],
    [26483,"42862,08333","27,5","0,4","ND","ND","ND","ND"],
    [26484,"42862,125","24,7","0,5","ND","ND","ND","ND"],
    [26485,"42862,16667","26,9","0,3","ND","ND","ND","ND"],
    [26486,"42862,20833","31,1","0,5","ND","ND","ND","ND"],
    [26487,"42862,25","35,4","0,5","ND","ND","ND","ND"],
    [26488,"42862,29167","48,1","0,8","ND","ND","ND","ND"],
    [26489,"42862,33333","61,4","1,3","ND","ND","ND","ND"],
    [26490,"42862,375","69,5","2,1","ND","ND","ND","ND"],
    [26491,"42862,41667","63,3","3,7","ND","ND","ND","ND"],
    [26492,"42862,45833","27,9","1,3","ND","ND","ND","ND"],
    [26493,"42862,5","20,5","0,8","ND","ND","ND","ND"],
    [26494,"42862,54167","27,9","0,4","ND","ND","ND","ND"],
    [26495,"42862,58333","32,5","ND","ND","ND","ND","ND"],
    [26496,"42862,625","35","ND","ND","ND","ND","ND"],
    [26497,"42862,66667","37","ND","ND","ND","ND","ND"],
    [26498,"42862,70833","37,2","0,5","ND","ND","ND","ND"],
    [26499,"42862,75","27,8","0,6","ND","ND","ND","ND"],
    [26500,"42862,79167","24,6","1,5","ND","ND","ND","ND"],
    [26501,"42862,83333","28","1,4","ND","ND","ND","ND"],
    [26502,"42862,875","23,2","1,3","ND","ND","ND","ND"],
    [26503,"42862,91667","16,2","1,5","ND","ND","ND","ND"],
    [26504,"42862,95833","45,6","1,4","ND","ND","ND","ND"],
    [26505,"42893","52","1,2","ND","ND","ND","ND"],
    [26506,"42893,04167","34,8","1,2","ND","ND","ND","ND"],
    [26507,"42893,08333","32","1,2","ND","ND","ND","ND"],
    [26508,"42893,125","30,9","1,3","ND","ND","ND","ND"],
    [26509,"42893,16667","73,4","1,2","ND","ND","ND","ND"],
    [26510,"42893,20833","45","1,1","ND","ND","ND","ND"],
    [26511,"42893,25","30,6","1,3","ND","ND","ND","ND"],
    [26512,"42893,29167","38,2","1,3","ND","ND","ND","ND"],
    [26513,"42893,33333","56,4","1,7","ND","ND","ND","ND"],
    [26514,"42893,375","ND","ND","ND","ND","ND","ND"],
    [26515,"42893,41667","ND","ND","ND","ND","ND","ND"],
    [26516,"42893,45833","ND","ND","ND","ND","ND","ND"],
    [26517,"42893,5","ND","ND","ND","ND","ND","ND"],
    [26518,"42893,54167","ND","ND","ND","ND","ND","ND"],
    [26519,"42893,58333","ND","ND","ND","ND","ND","ND"],
    [26520,"42893,625","ND","ND","ND","ND","ND","ND"],
    [26521,"42893,66667","ND","ND","ND","ND","ND","ND"],
    [26522,"42893,70833","ND","ND","ND","ND","ND","ND"],
    [26523,"42893,75","ND","ND","ND","ND","ND","ND"],
    [26524,"42893,79167","ND","ND","ND","ND","ND","ND"],
    [26525,"42893,83333","ND","ND","ND","ND","ND","ND"],
    [26526,"42893,875","ND","ND","ND","ND","ND","ND"],
    [26527,"42893,91667","ND","ND","ND","ND","ND","ND"],
    [26528,"42893,95833","ND","ND","ND","ND","ND","ND"],
    [26529,"42923","ND","ND","ND","ND","ND","ND"],
    [26530,"42923,04167","ND","ND","ND","ND","ND","ND"],
    [26531,"42923,08333","ND","ND","ND","ND","ND","ND"],
    [26532,"42923,125","ND","ND","ND","ND","ND","ND"],
    [26533,"42923,16667","ND","ND","ND","ND","ND","ND"],
    [26534,"42923,20833","ND","ND","ND","ND","ND","ND"],
    [26535,"42923,25","ND","ND","ND","ND","ND","ND"],
    [26536,"42923,29167","ND","ND","ND","ND","ND","ND"],
    [26537,"42923,33333","ND","ND","ND","ND","ND","ND"],
    [26538,"42923,375","ND","ND","ND","ND","ND","ND"],
    [26539,"42923,41667","ND","ND","ND","ND","ND","ND"],
    [26540,"42923,45833","ND","ND","ND","ND","ND","ND"],
    [26541,"42923,5","ND","ND","ND","ND","ND","ND"],
    [26542,"42923,54167","ND","ND","ND","ND","ND","ND"],
    [26543,"42923,58333","ND","ND","ND","ND","ND","ND"],
    [26544,"42923,625","ND","ND","ND","ND","ND","ND"],
    [26545,"42923,66667","ND","ND","ND","ND","ND","ND"],
    [26546,"42923,70833","ND","ND","ND","ND","ND","ND"],
    [26547,"42923,75","ND","ND","ND","ND","ND","ND"],
    [26548,"42923,79167","ND","ND","ND","ND","ND","ND"],
    [26549,"42923,83333","ND","ND","ND","ND","ND","ND"],
    [26550,"42923,875","ND","ND","ND","ND","ND","ND"],
    [26551,"42923,91667","ND","ND","ND","ND","ND","ND"],
    [26552,"42923,95833","ND","ND","ND","ND","ND","ND"],
    [26553,"42954","ND","ND","ND","ND","ND","ND"],
    [26554,"42954,04167","ND","ND","ND","ND","ND","ND"],
    [26555,"42954,08333","ND","ND","ND","ND","ND","ND"],
    [26556,"42954,125","ND","ND","ND","ND","ND","ND"],
    [26557,"42954,16667","ND","ND","ND","ND","ND","ND"],
    [26558,"42954,20833","ND","ND","ND","ND","ND","ND"],
    [26559,"42954,25","ND","ND","ND","ND","ND","ND"],
    [26560,"42954,29167","ND","ND","ND","ND","ND","ND"],
    [26561,"42954,33333","ND","ND","ND","ND","ND","ND"],
    [26562,"42954,375","ND","ND","ND","ND","ND","ND"],
    [26563,"42954,41667","ND","ND","ND","ND","ND","ND"],
    [26564,"42954,45833","ND","ND","ND","ND","ND","ND"],
    [26565,"42954,5","ND","ND","ND","ND","ND","ND"],
    [26566,"42954,54167","ND","ND","ND","ND","ND","ND"],
    [26567,"42954,58333","ND","ND","ND","ND","ND","ND"],
    [26568,"42954,625","ND","ND","ND","ND","ND","ND"],
    [26569,"42954,66667","ND","ND","ND","ND","ND","ND"],
    [26570,"42954,70833","ND","ND","ND","ND","ND","ND"],
    [26571,"42954,75","ND","ND","ND","ND","ND","ND"],
    [26572,"42954,79167","ND","ND","ND","ND","ND","ND"],
    [26573,"42954,83333","ND","ND","ND","ND","ND","ND"],
    [26574,"42954,875","ND","ND","ND","ND","ND","ND"],
    [26575,"42954,91667","ND","ND","ND","ND","ND","ND"],
    [26576,"42954,95833","ND","ND","ND","ND","ND","ND"],
    [26577,"42985","ND","ND","ND","ND","ND","ND"],
    [26578,"42985,04167","ND","ND","ND","ND","ND","ND"],
    [26579,"42985,08333","ND","ND","ND","ND","ND","ND"],
    [26580,"42985,125","ND","ND","ND","ND","ND","ND"],
    [26581,"42985,16667","ND","ND","ND","ND","ND","ND"],
    [26582,"42985,20833","ND","ND","ND","ND","ND","ND"],
    [26583,"42985,25","ND","ND","ND","ND","ND","ND"],
    [26584,"42985,29167","ND","ND","ND","ND","ND","ND"],
    [26585,"42985,33333","ND","ND","ND","ND","ND","ND"],
    [26586,"42985,375","ND","ND","ND","ND","ND","ND"],
    [26587,"42985,41667","ND","ND","ND","ND","ND","ND"],
    [26588,"42985,45833","ND","ND","ND","ND","ND","ND"],
    [26589,"42985,5","ND","ND","ND","ND","ND","ND"],
    [26590,"42985,54167","ND","ND","ND","ND","ND","ND"],
    [26591,"42985,58333","ND","ND","ND","ND","ND","ND"],
    [26592,"42985,625","ND","ND","ND","ND","ND","ND"],
    [26593,"42985,66667","ND","ND","ND","ND","ND","ND"],
    [26594,"42985,70833","ND","ND","ND","ND","ND","ND"],
    [26595,"42985,75","ND","ND","ND","ND","ND","ND"],
    [26596,"42985,79167","ND","ND","ND","ND","ND","ND"],
    [26597,"42985,83333","ND","ND","ND","ND","ND","ND"],
    [26598,"42985,875","ND","ND","ND","ND","ND","ND"],
    [26599,"42985,91667","ND","ND","ND","ND","ND","ND"],
    [26600,"42985,95833","ND","ND","ND","ND","ND","ND"],
    [26601,"43015","ND","ND","ND","ND","ND","ND"],
    [26602,"43015,04167","ND","ND","ND","ND","ND","ND"],
    [26603,"43015,08333","ND","ND","ND","ND","ND","ND"],
    [26604,"43015,125","ND","ND","ND","ND","ND","ND"],
    [26605,"43015,16667","ND","ND","ND","ND","ND","ND"],
    [26606,"43015,20833","ND","ND","ND","ND","ND","ND"],
    [26607,"43015,25","ND","ND","ND","ND","ND","ND"],
    [26608,"43015,29167","ND","ND","ND","ND","ND","ND"],
    [26609,"43015,33333","ND","ND","ND","ND","ND","ND"],
    [26610,"43015,375","ND","ND","ND","ND","ND","ND"],
    [26611,"43015,41667","ND","ND","ND","ND","ND","ND"],
    [26612,"43015,45833","ND","ND","ND","ND","ND","ND"],
    [26613,"43015,5","ND","ND","ND","ND","ND","ND"],
    [26614,"43015,54167","ND","ND","ND","ND","ND","ND"],
    [26615,"43015,58333","ND","ND","ND","ND","ND","ND"],
    [26616,"43015,625","ND","ND","ND","ND","ND","ND"],
    [26617,"43015,66667","ND","ND","ND","ND","ND","ND"],
    [26618,"43015,70833","ND","ND","ND","ND","ND","ND"],
    [26619,"43015,75","ND","ND","ND","ND","ND","ND"],
    [26620,"43015,79167","ND","ND","ND","ND","ND","ND"],
    [26621,"43015,83333","ND","ND","ND","ND","ND","ND"],
    [26622,"43015,875","ND","ND","ND","ND","ND","ND"],
    [26623,"43015,91667","ND","ND","ND","ND","ND","ND"],
    [26624,"43015,95833","ND","ND","ND","ND","ND","ND"],
    [26625,"43046","ND","ND","ND","ND","ND","ND"],
    [26626,"43046,04167","ND","ND","ND","ND","ND","ND"],
    [26627,"43046,08333","ND","ND","ND","ND","ND","ND"],
    [26628,"43046,125","ND","ND","ND","ND","ND","ND"],
    [26629,"43046,16667","ND","ND","ND","ND","ND","ND"],
    [26630,"43046,20833","ND","ND","ND","ND","ND","ND"],
    [26631,"43046,25","ND","ND","ND","ND","ND","ND"],
    [26632,"43046,29167","ND","ND","ND","ND","ND","ND"],
    [26633,"43046,33333","ND","ND","ND","ND","ND","ND"],
    [26634,"43046,375","ND","ND","ND","ND","ND","ND"],
    [26635,"43046,41667","ND","ND","ND","ND","ND","ND"],
    [26636,"43046,45833","ND","ND","ND","ND","ND","ND"],
    [26637,"43046,5","ND","ND","ND","ND","ND","ND"],
    [26638,"43046,54167","ND","ND","ND","ND","ND","ND"],
    [26639,"43046,58333","ND","ND","ND","ND","ND","ND"],
    [26640,"43046,625","ND","ND","ND","ND","ND","ND"],
    [26641,"43046,66667","ND","ND","ND","ND","ND","ND"],
    [26642,"43046,70833","ND","ND","ND","ND","ND","ND"],
    [26643,"43046,75","ND","ND","ND","ND","ND","ND"],
    [26644,"43046,79167","ND","ND","ND","ND","ND","ND"],
    [26645,"43046,83333","ND","ND","ND","ND","ND","ND"],
    [26646,"43046,875","ND","ND","ND","ND","ND","ND"],
    [26647,"43046,91667","ND","ND","ND","ND","ND","ND"],
    [26648,"43046,95833","ND","ND","ND","ND","ND","ND"],
    [26649,"43076","ND","ND","ND","ND","ND","ND"],
    [26650,"43076,04167","ND","ND","ND","ND","ND","ND"],
    [26651,"43076,08333","ND","ND","ND","ND","ND","ND"],
    [26652,"43076,125","ND","ND","ND","ND","ND","ND"],
    [26653,"43076,16667","ND","ND","ND","ND","ND","ND"],
    [26654,"43076,20833","ND","ND","ND","ND","ND","ND"],
    [26655,"43076,25","ND","ND","ND","ND","ND","ND"],
    [26656,"43076,29167","ND","ND","ND","ND","ND","ND"],
    [26657,"43076,33333","ND","ND","ND","ND","ND","ND"],
    [26658,"43076,375","ND","ND","ND","ND","ND","ND"],
    [26659,"43076,41667","ND","ND","ND","ND","ND","ND"],
    [26660,"43076,45833","ND","ND","ND","ND","ND","ND"],
    [26661,"43076,5","ND","ND","ND","ND","ND","ND"],
    [26662,"43076,54167","ND","ND","ND","ND","ND","ND"],
    [26663,"43076,58333","ND","ND","ND","ND","ND","ND"],
    [26664,"43076,625","ND","ND","ND","ND","ND","ND"],
    [26665,"43076,66667","ND","ND","ND","ND","ND","ND"],
    [26666,"43076,70833","ND","ND","ND","ND","ND","ND"],
    [26667,"43076,75","ND","ND","ND","ND","ND","ND"],
    [26668,"43076,79167","ND","ND","ND","ND","ND","ND"],
    [26669,"43076,83333","ND","ND","ND","ND","ND","ND"],
    [26670,"43076,875","ND","ND","ND","ND","ND","ND"],
    [26671,"43076,91667","ND","ND","ND","ND","ND","ND"],
    [26672,"43076,95833","ND","ND","ND","ND","ND","ND"],
    [26673,"07/13/2017 00:00","ND","ND","ND","ND","ND","ND"],
    [26674,"07/13/2017 01:00","ND","ND","ND","ND","ND","ND"],
    [26675,"07/13/2017 02:00","ND","ND","ND","ND","ND","ND"],
    [26676,"07/13/2017 03:00","ND","ND","ND","ND","ND","ND"],
    [26677,"07/13/2017 04:00","ND","ND","ND","ND","ND","ND"],
    [26678,"07/13/2017 05:00","ND","ND","ND","ND","ND","ND"],
    [26679,"07/13/2017 06:00","ND","ND","ND","ND","ND","ND"],
    [26680,"07/13/2017 07:00","ND","ND","ND","ND","ND","ND"],
    [26681,"07/13/2017 08:00","ND","ND","ND","ND","ND","ND"],
    [26682,"07/13/2017 09:00","ND","ND","ND","ND","ND","ND"],
    [26683,"07/13/2017 10:00","ND","ND","ND","ND","ND","ND"],
    [26684,"07/13/2017 11:00","ND","ND","ND","ND","ND","ND"],
    [26685,"07/13/2017 12:00","ND","ND","ND","ND","ND","ND"],
    [26686,"07/13/2017 13:00","ND","ND","ND","ND","ND","ND"],
    [26687,"07/13/2017 14:00","ND","ND","ND","ND","ND","ND"],
    [26688,"07/13/2017 15:00","ND","ND","ND","ND","ND","ND"],
    [26689,"07/13/2017 16:00","ND","ND","ND","ND","ND","ND"],
    [26690,"07/13/2017 17:00","ND","ND","ND","ND","ND","ND"],
    [26691,"07/13/2017 18:00","ND","ND","ND","ND","ND","ND"],
    [26692,"07/13/2017 19:00","ND","ND","ND","ND","ND","ND"],
    [26693,"07/13/2017 20:00","ND","ND","ND","ND","ND","ND"],
    [26694,"07/13/2017 21:00","ND","ND","ND","ND","ND","ND"],
    [26695,"07/13/2017 22:00","ND","ND","ND","ND","ND","ND"],
    [26696,"07/13/2017 23:00","ND","ND","ND","ND","ND","ND"],
    [26697,"07/14/2017 00:00","ND","ND","ND","ND","ND","ND"],
    [26698,"07/14/2017 01:00","ND","ND","ND","ND","ND","ND"],
    [26699,"07/14/2017 02:00","ND","ND","ND","ND","ND","ND"],
    [26700,"07/14/2017 03:00","ND","ND","ND","ND","ND","ND"],
    [26701,"07/14/2017 04:00","ND","ND","ND","ND","ND","ND"],
    [26702,"07/14/2017 05:00","ND","ND","ND","ND","ND","ND"],
    [26703,"07/14/2017 06:00","ND","ND","ND","ND","ND","ND"],
    [26704,"07/14/2017 07:00","ND","ND","ND","ND","ND","ND"],
    [26705,"07/14/2017 08:00","ND","ND","ND","ND","ND","ND"],
    [26706,"07/14/2017 09:00","ND","ND","ND","ND","ND","ND"],
    [26707,"07/14/2017 10:00","ND","ND","ND","ND","ND","ND"],
    [26708,"07/14/2017 11:00","ND","ND","ND","ND","ND","ND"],
    [26709,"07/14/2017 12:00","ND","ND","ND","ND","ND","ND"],
    [26710,"07/14/2017 13:00","ND","ND","ND","ND","ND","ND"],
    [26711,"07/14/2017 14:00","ND","ND","ND","ND","ND","ND"],
    [26712,"07/14/2017 15:00","ND","ND","ND","ND","ND","ND"],
    [26713,"07/14/2017 16:00","ND","ND","ND","ND","ND","ND"],
    [26714,"07/14/2017 17:00","ND","ND","ND","ND","ND","ND"],
    [26715,"07/14/2017 18:00","ND","ND","ND","ND","ND","ND"],
    [26716,"07/14/2017 19:00","ND","ND","ND","ND","ND","ND"],
    [26717,"07/14/2017 20:00","ND","ND","ND","ND","ND","ND"],
    [26718,"07/14/2017 21:00","ND","ND","ND","ND","ND","ND"],
    [26719,"07/14/2017 22:00","ND","ND","ND","ND","ND","ND"],
    [26720,"07/14/2017 23:00","ND","ND","ND","ND","ND","ND"],
    [26721,"07/15/2017 00:00","ND","ND","ND","ND","ND","ND"],
    [26722,"07/15/2017 01:00","ND","ND","ND","ND","ND","ND"],
    [26723,"07/15/2017 02:00","ND","ND","ND","ND","ND","ND"],
    [26724,"07/15/2017 03:00","ND","ND","ND","ND","ND","ND"],
    [26725,"07/15/2017 04:00","ND","ND","ND","ND","ND","ND"],
    [26726,"07/15/2017 05:00","ND","ND","ND","ND","ND","ND"],
    [26727,"07/15/2017 06:00","ND","ND","ND","ND","ND","ND"],
    [26728,"07/15/2017 07:00","ND","ND","ND","ND","ND","ND"],
    [26729,"07/15/2017 08:00","ND","ND","ND","ND","ND","ND"],
    [26730,"07/15/2017 09:00","ND","ND","ND","ND","ND","ND"],
    [26731,"07/15/2017 10:00","ND","ND","ND","ND","ND","ND"],
    [26732,"07/15/2017 11:00","ND","ND","ND","ND","ND","ND"],
    [26733,"07/15/2017 12:00","ND","ND","ND","ND","ND","ND"],
    [26734,"07/15/2017 13:00","ND","ND","ND","ND","ND","ND"],
    [26735,"07/15/2017 14:00","ND","ND","ND","ND","ND","ND"],
    [26736,"07/15/2017 15:00","ND","ND","ND","ND","ND","ND"],
    [26737,"07/15/2017 16:00","ND","ND","ND","ND","ND","ND"],
    [26738,"07/15/2017 17:00","ND","ND","ND","ND","ND","ND"],
    [26739,"07/15/2017 18:00","ND","ND","ND","ND","ND","ND"],
    [26740,"07/15/2017 19:00","ND","ND","ND","ND","ND","ND"],
    [26741,"07/15/2017 20:00","ND","ND","ND","ND","ND","ND"],
    [26742,"07/15/2017 21:00","ND","ND","ND","ND","ND","ND"],
    [26743,"07/15/2017 22:00","ND","ND","ND","ND","ND","ND"],
    [26744,"07/15/2017 23:00","ND","ND","ND","ND","ND","ND"],
    [26745,"07/16/2017 00:00","ND","ND","ND","ND","ND","ND"],
    [26746,"07/16/2017 01:00","ND","ND","ND","ND","ND","ND"],
    [26747,"07/16/2017 02:00","ND","ND","ND","ND","ND","ND"],
    [26748,"07/16/2017 03:00","ND","ND","ND","ND","ND","ND"],
    [26749,"07/16/2017 04:00","ND","ND","ND","ND","ND","ND"],
    [26750,"07/16/2017 05:00","ND","ND","ND","ND","ND","ND"],
    [26751,"07/16/2017 06:00","ND","ND","ND","ND","ND","ND"],
    [26752,"07/16/2017 07:00","ND","ND","ND","ND","ND","ND"],
    [26753,"07/16/2017 08:00","ND","ND","ND","ND","ND","ND"],
    [26754,"07/16/2017 09:00","ND","ND","ND","ND","ND","ND"],
    [26755,"07/16/2017 10:00","ND","ND","ND","ND","ND","ND"],
    [26756,"07/16/2017 11:00","ND","ND","ND","ND","ND","ND"],
    [26757,"07/16/2017 12:00","ND","ND","ND","ND","ND","ND"],
    [26758,"07/16/2017 13:00","ND","ND","ND","ND","ND","ND"],
    [26759,"07/16/2017 14:00","ND","ND","ND","ND","ND","ND"],
    [26760,"07/16/2017 15:00","ND","ND","ND","ND","ND","ND"],
    [26761,"07/16/2017 16:00","ND","ND","ND","ND","ND","ND"],
    [26762,"07/16/2017 17:00","ND","ND","ND","ND","ND","ND"],
    [26763,"07/16/2017 18:00","ND","ND","ND","ND","ND","ND"],
    [26764,"07/16/2017 19:00","ND","ND","ND","ND","ND","ND"],
    [26765,"07/16/2017 20:00","ND","ND","ND","ND","ND","ND"],
    [26766,"07/16/2017 21:00","ND","ND","ND","ND","ND","ND"],
    [26767,"07/16/2017 22:00","ND","ND","ND","ND","ND","ND"],
    [26768,"07/16/2017 23:00","ND","ND","ND","ND","ND","ND"],
    [26769,"07/17/2017 00:00","ND","ND","ND","ND","ND","ND"],
    [26770,"07/17/2017 01:00","ND","ND","ND","ND","ND","ND"],
    [26771,"07/17/2017 02:00","ND","ND","ND","ND","ND","ND"],
    [26772,"07/17/2017 03:00","ND","ND","ND","ND","ND","ND"],
    [26773,"07/17/2017 04:00","ND","ND","ND","ND","ND","ND"],
    [26774,"07/17/2017 05:00","ND","ND","ND","ND","ND","ND"],
    [26775,"07/17/2017 06:00","ND","ND","ND","ND","ND","ND"],
    [26776,"07/17/2017 07:00","ND","ND","ND","ND","ND","ND"],
    [26777,"07/17/2017 08:00","ND","ND","ND","ND","ND","ND"],
    [26778,"07/17/2017 09:00","ND","ND","ND","ND","ND","ND"],
    [26779,"07/17/2017 10:00","ND","ND","ND","ND","ND","ND"],
    [26780,"07/17/2017 11:00","ND","ND","ND","ND","ND","ND"],
    [26781,"07/17/2017 12:00","ND","ND","ND","ND","ND","ND"],
    [26782,"07/17/2017 13:00","ND","ND","ND","ND","ND","ND"],
    [26783,"07/17/2017 14:00","ND","ND","ND","ND","ND","ND"],
    [26784,"07/17/2017 15:00","ND","ND","ND","ND","ND","ND"],
    [26785,"07/17/2017 16:00","ND","ND","ND","ND","ND","ND"],
    [26786,"07/17/2017 17:00","ND","ND","ND","ND","ND","ND"],
    [26787,"07/17/2017 18:00","ND","ND","ND","ND","ND","ND"],
    [26788,"07/17/2017 19:00","ND","ND","ND","ND","ND","ND"],
    [26789,"07/17/2017 20:00","ND","ND","ND","ND","ND","ND"],
    [26790,"07/17/2017 21:00","ND","ND","ND","ND","ND","ND"],
    [26791,"07/17/2017 22:00","ND","ND","ND","ND","ND","ND"],
    [26792,"07/17/2017 23:00","ND","ND","ND","ND","ND","ND"],
    [26793,"07/18/2017 00:00","ND","ND","ND","ND","ND","ND"],
    [26794,"07/18/2017 01:00","ND","ND","ND","ND","ND","ND"],
    [26795,"07/18/2017 02:00","ND","ND","ND","ND","ND","ND"],
    [26796,"07/18/2017 03:00","ND","ND","ND","ND","ND","ND"],
    [26797,"07/18/2017 04:00","ND","ND","ND","ND","ND","ND"],
    [26798,"07/18/2017 05:00","ND","ND","ND","ND","ND","ND"],
    [26799,"07/18/2017 06:00","ND","ND","ND","ND","ND","ND"],
    [26800,"07/18/2017 07:00","ND","ND","ND","ND","ND","ND"],
    [26801,"07/18/2017 08:00","ND","ND","ND","ND","ND","ND"],
    [26802,"07/18/2017 09:00","ND","ND","ND","ND","ND","ND"],
    [26803,"07/18/2017 10:00","ND","ND","ND","ND","ND","ND"],
    [26804,"07/18/2017 11:00","ND","ND","ND","ND","ND","ND"],
    [26805,"07/18/2017 12:00","ND","ND","ND","ND","ND","ND"],
    [26806,"07/18/2017 13:00","ND","ND","ND","ND","ND","ND"],
    [26807,"07/18/2017 14:00","ND","ND","ND","ND","ND","ND"],
    [26808,"07/18/2017 15:00","ND","ND","ND","ND","ND","ND"],
    [26809,"07/18/2017 16:00","ND","ND","ND","ND","ND","ND"],
    [26810,"07/18/2017 17:00","ND","ND","ND","ND","ND","ND"],
    [26811,"07/18/2017 18:00","ND","ND","ND","ND","ND","ND"],
    [26812,"07/18/2017 19:00","ND","ND","ND","ND","ND","ND"],
    [26813,"07/18/2017 20:00","ND","ND","ND","ND","ND","ND"],
    [26814,"07/18/2017 21:00","ND","ND","ND","ND","ND","ND"],
    [26815,"07/18/2017 22:00","ND","ND","ND","ND","ND","ND"],
    [26816,"07/18/2017 23:00","ND","ND","ND","ND","ND","ND"],
    [26817,"07/19/2017 00:00","ND","ND","ND","ND","ND","ND"],
    [26818,"07/19/2017 01:00","ND","ND","ND","ND","ND","ND"],
    [26819,"07/19/2017 02:00","ND","ND","ND","ND","ND","ND"],
    [26820,"07/19/2017 03:00","ND","ND","ND","ND","ND","ND"],
    [26821,"07/19/2017 04:00","ND","ND","ND","ND","ND","ND"],
    [26822,"07/19/2017 05:00","ND","ND","ND","ND","ND","ND"],
    [26823,"07/19/2017 06:00","ND","ND","ND","ND","ND","ND"],
    [26824,"07/19/2017 07:00","ND","ND","ND","ND","ND","ND"],
    [26825,"07/19/2017 08:00","ND","ND","ND","ND","ND","ND"],
    [26826,"07/19/2017 09:00","ND","ND","ND","ND","ND","ND"],
    [26827,"07/19/2017 10:00","ND","ND","ND","ND","ND","ND"],
    [26828,"07/19/2017 11:00","ND","ND","ND","ND","ND","ND"],
    [26829,"07/19/2017 12:00","ND","ND","ND","ND","ND","ND"],
    [26830,"07/19/2017 13:00","ND","ND","ND","ND","ND","ND"],
    [26831,"07/19/2017 14:00","ND","ND","ND","ND","ND","ND"],
    [26832,"07/19/2017 15:00","ND","ND","ND","ND","ND","ND"],
    [26833,"07/19/2017 16:00","ND","ND","ND","ND","ND","ND"],
    [26834,"07/19/2017 17:00","ND","ND","ND","ND","ND","ND"],
    [26835,"07/19/2017 18:00","ND","ND","ND","ND","ND","ND"],
    [26836,"07/19/2017 19:00","ND","ND","ND","ND","ND","ND"],
    [26837,"07/19/2017 20:00","ND","ND","ND","ND","ND","ND"],
    [26838,"07/19/2017 21:00","ND","ND","ND","ND","ND","ND"],
    [26839,"07/19/2017 22:00","ND","ND","ND","ND","ND","ND"],
    [26840,"07/19/2017 23:00","ND","ND","ND","ND","ND","ND"],
    [26841,"07/20/2017 00:00","ND","ND","ND","ND","ND","ND"],
    [26842,"07/20/2017 01:00","ND","ND","ND","ND","ND","ND"],
    [26843,"07/20/2017 02:00","ND","ND","ND","ND","ND","ND"],
    [26844,"07/20/2017 03:00","ND","ND","ND","ND","ND","ND"],
    [26845,"07/20/2017 04:00","ND","ND","ND","ND","ND","ND"],
    [26846,"07/20/2017 05:00","ND","ND","ND","ND","ND","ND"],
    [26847,"07/20/2017 06:00","ND","ND","ND","ND","ND","ND"],
    [26848,"07/20/2017 07:00","ND","ND","ND","ND","ND","ND"],
    [26849,"07/20/2017 08:00","ND","ND","ND","ND","ND","ND"],
    [26850,"07/20/2017 09:00","ND","ND","ND","ND","ND","ND"],
    [26851,"07/20/2017 10:00","ND","ND","ND","ND","ND","ND"],
    [26852,"07/20/2017 11:00","ND","ND","ND","ND","ND","ND"],
    [26853,"07/20/2017 12:00","ND","ND","ND","ND","ND","ND"],
    [26854,"07/20/2017 13:00","ND","ND","ND","ND","ND","ND"],
    [26855,"07/20/2017 14:00","ND","ND","ND","ND","ND","ND"],
    [26856,"07/20/2017 15:00","ND","ND","ND","ND","ND","ND"],
    [26857,"07/20/2017 16:00","ND","ND","ND","ND","ND","ND"],
    [26858,"07/20/2017 17:00","ND","ND","ND","ND","ND","ND"],
    [26859,"07/20/2017 18:00","ND","ND","ND","ND","ND","ND"],
    [26860,"07/20/2017 19:00","ND","ND","ND","ND","ND","ND"],
    [26861,"07/20/2017 20:00","ND","ND","ND","ND","ND","ND"],
    [26862,"07/20/2017 21:00","ND","ND","ND","ND","ND","ND"],
    [26863,"07/20/2017 22:00","ND","ND","ND","ND","ND","ND"],
    [26864,"07/20/2017 23:00","ND","ND","ND","ND","ND","ND"],
    [26865,"07/21/2017 00:00","ND","ND","ND","ND","ND","ND"],
    [26866,"07/21/2017 01:00","ND","ND","ND","ND","ND","ND"],
    [26867,"07/21/2017 02:00","ND","ND","ND","ND","ND","ND"],
    [26868,"07/21/2017 03:00","ND","ND","ND","ND","ND","ND"],
    [26869,"07/21/2017 04:00","ND","ND","ND","ND","ND","ND"],
    [26870,"07/21/2017 05:00","ND","ND","ND","ND","ND","ND"],
    [26871,"07/21/2017 06:00","ND","ND","ND","ND","ND","ND"],
    [26872,"07/21/2017 07:00","ND","ND","ND","ND","ND","ND"],
    [26873,"07/21/2017 08:00","ND","ND","ND","ND","ND","ND"],
    [26874,"07/21/2017 09:00","ND","ND","ND","ND","ND","ND"],
    [26875,"07/21/2017 10:00","ND","ND","ND","ND","ND","ND"],
    [26876,"07/21/2017 11:00","ND","ND","ND","ND","ND","ND"],
    [26877,"07/21/2017 12:00","ND","ND","ND","ND","ND","ND"],
    [26878,"07/21/2017 13:00","ND","ND","ND","ND","ND","ND"],
    [26879,"07/21/2017 14:00","ND","ND","ND","ND","ND","ND"],
    [26880,"07/21/2017 15:00","ND","ND","ND","ND","ND","ND"],
    [26881,"07/21/2017 16:00","ND","ND","ND","ND","ND","ND"],
    [26882,"07/21/2017 17:00","ND","ND","ND","ND","ND","ND"],
    [26883,"07/21/2017 18:00","ND","ND","ND","ND","ND","ND"],
    [26884,"07/21/2017 19:00","ND","ND","ND","ND","ND","ND"],
    [26885,"07/21/2017 20:00","ND","ND","ND","ND","ND","ND"],
    [26886,"07/21/2017 21:00","ND","ND","ND","ND","ND","ND"],
    [26887,"07/21/2017 22:00","ND","ND","ND","ND","ND","ND"],
    [26888,"07/21/2017 23:00","ND","ND","ND","ND","ND","ND"],
    [26889,"07/22/2017 00:00","ND","ND","ND","ND","ND","ND"],
    [26890,"07/22/2017 01:00","ND","ND","ND","ND","ND","ND"],
    [26891,"07/22/2017 02:00","ND","ND","ND","ND","ND","ND"],
    [26892,"07/22/2017 03:00","ND","ND","ND","ND","ND","ND"],
    [26893,"07/22/2017 04:00","ND","ND","ND","ND","ND","ND"],
    [26894,"07/22/2017 05:00","ND","ND","ND","ND","ND","ND"],
    [26895,"07/22/2017 06:00","ND","ND","ND","ND","ND","ND"],
    [26896,"07/22/2017 07:00","ND","ND","ND","ND","ND","ND"],
    [26897,"07/22/2017 08:00","ND","ND","ND","ND","ND","ND"],
    [26898,"07/22/2017 09:00","ND","ND","ND","ND","ND","ND"],
    [26899,"07/22/2017 10:00","ND","ND","ND","ND","ND","ND"],
    [26900,"07/22/2017 11:00","ND","ND","ND","ND","ND","ND"],
    [26901,"07/22/2017 12:00","ND","ND","ND","ND","ND","ND"],
    [26902,"07/22/2017 13:00","ND","ND","ND","ND","ND","ND"],
    [26903,"07/22/2017 14:00","ND","ND","ND","ND","ND","ND"],
    [26904,"07/22/2017 15:00","ND","ND","ND","ND","ND","ND"],
    [26905,"07/22/2017 16:00","ND","ND","ND","ND","ND","ND"],
    [26906,"07/22/2017 17:00","ND","ND","ND","ND","ND","ND"],
    [26907,"07/22/2017 18:00","ND","ND","ND","ND","ND","ND"],
    [26908,"07/22/2017 19:00","ND","ND","ND","ND","ND","ND"],
    [26909,"07/22/2017 20:00","ND","ND","ND","ND","ND","ND"],
    [26910,"07/22/2017 21:00","ND","ND","ND","ND","ND","ND"],
    [26911,"07/22/2017 22:00","ND","ND","ND","ND","ND","ND"],
    [26912,"07/22/2017 23:00","ND","ND","ND","ND","ND","ND"],
    [26913,"07/23/2017 00:00","ND","ND","ND","ND","ND","ND"],
    [26914,"07/23/2017 01:00","ND","ND","ND","ND","ND","ND"],
    [26915,"07/23/2017 02:00","ND","ND","ND","ND","ND","ND"],
    [26916,"07/23/2017 03:00","ND","ND","ND","ND","ND","ND"],
    [26917,"07/23/2017 04:00","ND","ND","ND","ND","ND","ND"],
    [26918,"07/23/2017 05:00","ND","ND","ND","ND","ND","ND"],
    [26919,"07/23/2017 06:00","ND","ND","ND","ND","ND","ND"],
    [26920,"07/23/2017 07:00","ND","ND","ND","ND","ND","ND"],
    [26921,"07/23/2017 08:00","ND","ND","ND","ND","ND","ND"],
    [26922,"07/23/2017 09:00","ND","ND","ND","ND","ND","ND"],
    [26923,"07/23/2017 10:00","ND","ND","ND","ND","ND","ND"],
    [26924,"07/23/2017 11:00","ND","ND","ND","ND","ND","ND"],
    [26925,"07/23/2017 12:00","ND","ND","ND","ND","ND","ND"],
    [26926,"07/23/2017 13:00","ND","ND","ND","ND","ND","ND"],
    [26927,"07/23/2017 14:00","ND","ND","ND","ND","ND","ND"],
    [26928,"07/23/2017 15:00","ND","ND","ND","ND","ND","ND"],
    [26929,"07/23/2017 16:00","ND","ND","ND","ND","ND","ND"],
    [26930,"07/23/2017 17:00","ND","ND","ND","ND","ND","ND"],
    [26931,"07/23/2017 18:00","ND","ND","ND","ND","ND","ND"],
    [26932,"07/23/2017 19:00","ND","ND","ND","ND","ND","ND"],
    [26933,"07/23/2017 20:00","ND","ND","ND","ND","ND","ND"],
    [26934,"07/23/2017 21:00","ND","ND","ND","ND","ND","ND"],
    [26935,"07/23/2017 22:00","ND","ND","ND","ND","ND","ND"],
    [26936,"07/23/2017 23:00","ND","ND","ND","ND","ND","ND"],
    [26937,"07/24/2017 00:00","ND","ND","ND","ND","ND","ND"],
    [26938,"07/24/2017 01:00","ND","ND","ND","ND","ND","ND"],
    [26939,"07/24/2017 02:00","ND","ND","ND","ND","ND","ND"],
    [26940,"07/24/2017 03:00","ND","ND","ND","ND","ND","ND"],
    [26941,"07/24/2017 04:00","ND","ND","ND","ND","ND","ND"],
    [26942,"07/24/2017 05:00","ND","ND","ND","ND","ND","ND"],
    [26943,"07/24/2017 06:00","ND","ND","ND","ND","ND","ND"],
    [26944,"07/24/2017 07:00","ND","ND","ND","ND","ND","ND"],
    [26945,"07/24/2017 08:00","ND","ND","ND","ND","ND","ND"],
    [26946,"07/24/2017 09:00","ND","ND","ND","ND","ND","ND"],
    [26947,"07/24/2017 10:00","ND","ND","ND","ND","ND","ND"],
    [26948,"07/24/2017 11:00","ND","ND","ND","ND","ND","ND"],
    [26949,"07/24/2017 12:00","ND","ND","ND","ND","ND","ND"],
    [26950,"07/24/2017 13:00","ND","ND","ND","ND","ND","ND"],
    [26951,"07/24/2017 14:00","ND","ND","ND","ND","ND","ND"],
    [26952,"07/24/2017 15:00","ND","ND","ND","ND","ND","ND"],
    [26953,"07/24/2017 16:00","ND","ND","ND","ND","ND","ND"],
    [26954,"07/24/2017 17:00","ND","ND","ND","ND","ND","ND"],
    [26955,"07/24/2017 18:00","ND","ND","ND","ND","ND","ND"],
    [26956,"07/24/2017 19:00","ND","ND","ND","ND","ND","ND"],
    [26957,"07/24/2017 20:00","ND","ND","ND","ND","ND","ND"],
    [26958,"07/24/2017 21:00","ND","ND","ND","ND","ND","ND"],
    [26959,"07/24/2017 22:00","ND","ND","ND","ND","ND","ND"],
    [26960,"07/24/2017 23:00","ND","ND","ND","ND","ND","ND"],
    [26961,"07/25/2017 00:00","ND","ND","ND","ND","ND","ND"],
    [26962,"07/25/2017 01:00","ND","ND","ND","ND","ND","ND"],
    [26963,"07/25/2017 02:00","ND","ND","ND","ND","ND","ND"],
    [26964,"07/25/2017 03:00","ND","ND","ND","ND","ND","ND"],
    [26965,"07/25/2017 04:00","ND","ND","ND","ND","ND","ND"],
    [26966,"07/25/2017 05:00","ND","ND","ND","ND","ND","ND"],
    [26967,"07/25/2017 06:00","ND","ND","ND","ND","ND","ND"],
    [26968,"07/25/2017 07:00","ND","ND","ND","ND","ND","ND"],
    [26969,"07/25/2017 08:00","ND","ND","ND","ND","ND","ND"],
    [26970,"07/25/2017 09:00","ND","ND","ND","ND","ND","ND"],
    [26971,"07/25/2017 10:00","ND","ND","ND","ND","ND","ND"],
    [26972,"07/25/2017 11:00","ND","ND","ND","ND","ND","ND"],
    [26973,"07/25/2017 12:00","ND","ND","ND","ND","ND","ND"],
    [26974,"07/25/2017 13:00","ND","ND","ND","ND","ND","ND"],
    [26975,"07/25/2017 14:00","ND","ND","ND","ND","ND","ND"],
    [26976,"07/25/2017 15:00","ND","ND","ND","ND","ND","ND"],
    [26977,"07/25/2017 16:00","ND","ND","ND","ND","ND","ND"],
    [26978,"07/25/2017 17:00","ND","ND","ND","ND","ND","ND"],
    [26979,"07/25/2017 18:00","ND","ND","ND","ND","ND","ND"],
    [26980,"07/25/2017 19:00","ND","ND","ND","ND","ND","ND"],
    [26981,"07/25/2017 20:00","ND","ND","ND","ND","ND","ND"],
    [26982,"07/25/2017 21:00","ND","ND","ND","ND","ND","ND"],
    [26983,"07/25/2017 22:00","ND","ND","ND","ND","ND","ND"],
    [26984,"07/25/2017 23:00","ND","ND","ND","ND","ND","ND"],
    [26985,"07/26/2017 00:00","ND","ND","ND","ND","ND","ND"],
    [26986,"07/26/2017 01:00","ND","ND","ND","ND","ND","ND"],
    [26987,"07/26/2017 02:00","ND","ND","ND","ND","ND","ND"],
    [26988,"07/26/2017 03:00","ND","ND","ND","ND","ND","ND"],
    [26989,"07/26/2017 04:00","ND","ND","ND","ND","ND","ND"],
    [26990,"07/26/2017 05:00","ND","ND","ND","ND","ND","ND"],
    [26991,"07/26/2017 06:00","ND","ND","ND","ND","ND","ND"],
    [26992,"07/26/2017 07:00","ND","ND","ND","ND","ND","ND"],
    [26993,"07/26/2017 08:00","ND","ND","ND","ND","ND","ND"],
    [26994,"07/26/2017 09:00","ND","ND","ND","ND","ND","ND"],
    [26995,"07/26/2017 10:00","ND","ND","ND","ND","ND","ND"],
    [26996,"07/26/2017 11:00","ND","ND","ND","ND","ND","ND"],
    [26997,"07/26/2017 12:00","ND","ND","ND","ND","ND","ND"],
    [26998,"07/26/2017 13:00","ND","ND","ND","ND","ND","ND"],
    [26999,"07/26/2017 14:00","ND","ND","ND","ND","ND","ND"],
    [27000,"07/26/2017 15:00","ND","ND","ND","ND","ND","ND"],
    [27001,"07/26/2017 16:00","ND","ND","ND","ND","ND","ND"],
    [27002,"07/26/2017 17:00","ND","ND","ND","ND","ND","ND"],
    [27003,"07/26/2017 18:00","ND","ND","ND","ND","ND","ND"],
    [27004,"07/26/2017 19:00","ND","ND","ND","ND","ND","ND"],
    [27005,"07/26/2017 20:00","ND","ND","ND","ND","ND","ND"],
    [27006,"07/26/2017 21:00","ND","ND","ND","ND","ND","ND"],
    [27007,"07/26/2017 22:00","ND","ND","ND","ND","ND","ND"],
    [27008,"07/26/2017 23:00","ND","ND","ND","ND","ND","ND"],
    [27009,"07/27/2017 00:00","ND","ND","ND","ND","ND","ND"],
    [27010,"07/27/2017 01:00","ND","ND","ND","ND","ND","ND"],
    [27011,"07/27/2017 02:00","ND","ND","ND","ND","ND","ND"],
    [27012,"07/27/2017 03:00","ND","ND","ND","ND","ND","ND"],
    [27013,"07/27/2017 04:00","ND","ND","ND","ND","ND","ND"],
    [27014,"07/27/2017 05:00","ND","ND","ND","ND","ND","ND"],
    [27015,"07/27/2017 06:00","ND","ND","ND","ND","ND","ND"],
    [27016,"07/27/2017 07:00","ND","ND","ND","ND","ND","ND"],
    [27017,"07/27/2017 08:00","ND","ND","ND","ND","ND","ND"],
    [27018,"07/27/2017 09:00","ND","ND","ND","ND","ND","ND"],
    [27019,"07/27/2017 10:00","ND","ND","ND","ND","ND","ND"],
    [27020,"07/27/2017 11:00","ND","ND","ND","ND","ND","ND"],
    [27021,"07/27/2017 12:00","ND","ND","ND","ND","ND","ND"],
    [27022,"07/27/2017 13:00","ND","ND","ND","ND","ND","ND"],
    [27023,"07/27/2017 14:00","ND","ND","ND","ND","ND","ND"],
    [27024,"07/27/2017 15:00","ND","ND","ND","ND","ND","ND"],
    [27025,"07/27/2017 16:00","ND","ND","ND","ND","ND","ND"],
    [27026,"07/27/2017 17:00","ND","ND","ND","ND","ND","ND"],
    [27027,"07/27/2017 18:00","ND","ND","ND","ND","ND","ND"],
    [27028,"07/27/2017 19:00","ND","ND","ND","ND","ND","ND"],
    [27029,"07/27/2017 20:00","ND","ND","ND","ND","ND","ND"],
    [27030,"07/27/2017 21:00","ND","ND","ND","ND","ND","ND"],
    [27031,"07/27/2017 22:00","ND","ND","ND","ND","ND","ND"],
    [27032,"07/27/2017 23:00","ND","ND","ND","ND","ND","ND"],
    [27033,"07/28/2017 00:00","ND","ND","ND","ND","ND","ND"],
    [27034,"07/28/2017 01:00","ND","ND","ND","ND","ND","ND"],
    [27035,"07/28/2017 02:00","ND","ND","ND","ND","ND","ND"],
    [27036,"07/28/2017 03:00","ND","ND","ND","ND","ND","ND"],
    [27037,"07/28/2017 04:00","ND","ND","ND","ND","ND","ND"],
    [27038,"07/28/2017 05:00","ND","ND","ND","ND","ND","ND"],
    [27039,"07/28/2017 06:00","ND","ND","ND","ND","ND","ND"],
    [27040,"07/28/2017 07:00","ND","ND","ND","ND","ND","ND"],
    [27041,"07/28/2017 08:00","ND","ND","ND","ND","ND","ND"],
    [27042,"07/28/2017 09:00","ND","ND","ND","ND","ND","ND"],
    [27043,"07/28/2017 10:00","ND","ND","ND","ND","ND","ND"],
    [27044,"07/28/2017 11:00","ND","ND","ND","ND","ND","ND"],
    [27045,"07/28/2017 12:00","ND","ND","ND","ND","ND","ND"],
    [27046,"07/28/2017 13:00","ND","ND","ND","ND","ND","ND"],
    [27047,"07/28/2017 14:00","ND","ND","ND","ND","ND","ND"],
    [27048,"07/28/2017 15:00","ND","ND","ND","ND","ND","ND"],
    [27049,"07/28/2017 16:00","ND","ND","ND","ND","ND","ND"],
    [27050,"07/28/2017 17:00","ND","ND","ND","ND","ND","ND"],
    [27051,"07/28/2017 18:00","ND","ND","ND","ND","ND","ND"],
    [27052,"07/28/2017 19:00","ND","ND","ND","ND","ND","ND"],
    [27053,"07/28/2017 20:00","ND","ND","ND","ND","ND","ND"],
    [27054,"07/28/2017 21:00","ND","ND","ND","ND","ND","ND"],
    [27055,"07/28/2017 22:00","ND","ND","ND","ND","ND","ND"],
    [27056,"07/28/2017 23:00","ND","ND","ND","ND","ND","ND"],
    [27057,"07/29/2017 00:00","ND","ND","ND","ND","ND","ND"],
    [27058,"07/29/2017 01:00","ND","ND","ND","ND","ND","ND"],
    [27059,"07/29/2017 02:00","ND","ND","ND","ND","ND","ND"],
    [27060,"07/29/2017 03:00","ND","ND","ND","ND","ND","ND"],
    [27061,"07/29/2017 04:00","ND","ND","ND","ND","ND","ND"],
    [27062,"07/29/2017 05:00","ND","ND","ND","ND","ND","ND"],
    [27063,"07/29/2017 06:00","ND","ND","ND","ND","ND","ND"],
    [27064,"07/29/2017 07:00","ND","ND","ND","ND","ND","ND"],
    [27065,"07/29/2017 08:00","ND","ND","ND","ND","ND","ND"],
    [27066,"07/29/2017 09:00","ND","ND","ND","ND","ND","ND"],
    [27067,"07/29/2017 10:00","ND","ND","ND","ND","ND","ND"],
    [27068,"07/29/2017 11:00","ND","ND","ND","ND","ND","ND"],
    [27069,"07/29/2017 12:00","ND","ND","ND","ND","ND","ND"],
    [27070,"07/29/2017 13:00","ND","ND","ND","ND","ND","ND"],
    [27071,"07/29/2017 14:00","ND","ND","ND","ND","ND","ND"],
    [27072,"07/29/2017 15:00","ND","ND","ND","ND","ND","ND"],
    [27073,"07/29/2017 16:00","ND","ND","ND","ND","ND","ND"],
    [27074,"07/29/2017 17:00","ND","ND","ND","ND","ND","ND"],
    [27075,"07/29/2017 18:00","ND","ND","ND","ND","ND","ND"],
    [27076,"07/29/2017 19:00","ND","ND","ND","ND","ND","ND"],
    [27077,"07/29/2017 20:00","ND","ND","ND","ND","ND","ND"],
    [27078,"07/29/2017 21:00","ND","ND","ND","ND","ND","ND"],
    [27079,"07/29/2017 22:00","ND","ND","ND","ND","ND","ND"],
    [27080,"07/29/2017 23:00","ND","ND","ND","ND","ND","ND"],
    [27081,"07/30/2017 00:00","ND","ND","ND","ND","ND","ND"],
    [27082,"07/30/2017 01:00","ND","ND","ND","ND","ND","ND"],
    [27083,"07/30/2017 02:00","ND","ND","ND","ND","ND","ND"],
    [27084,"07/30/2017 03:00","ND","ND","ND","ND","ND","ND"],
    [27085,"07/30/2017 04:00","ND","ND","ND","ND","ND","ND"],
    [27086,"07/30/2017 05:00","ND","ND","ND","ND","ND","ND"],
    [27087,"07/30/2017 06:00","ND","ND","ND","ND","ND","ND"],
    [27088,"07/30/2017 07:00","ND","ND","ND","ND","ND","ND"],
    [27089,"07/30/2017 08:00","ND","ND","ND","ND","ND","ND"],
    [27090,"07/30/2017 09:00","ND","ND","ND","ND","ND","ND"],
    [27091,"07/30/2017 10:00","ND","ND","ND","ND","ND","ND"],
    [27092,"07/30/2017 11:00","ND","ND","ND","ND","ND","ND"],
    [27093,"07/30/2017 12:00","ND","ND","ND","ND","ND","ND"],
    [27094,"07/30/2017 13:00","ND","ND","ND","ND","ND","ND"],
    [27095,"07/30/2017 14:00","ND","ND","ND","ND","ND","ND"],
    [27096,"07/30/2017 15:00","ND","ND","ND","ND","ND","ND"],
    [27097,"07/30/2017 16:00","ND","ND","ND","ND","ND","ND"],
    [27098,"07/30/2017 17:00","ND","ND","ND","ND","ND","ND"],
    [27099,"07/30/2017 18:00","ND","ND","ND","ND","ND","ND"],
    [27100,"07/30/2017 19:00","ND","ND","ND","ND","ND","ND"],
    [27101,"07/30/2017 20:00","ND","ND","ND","ND","ND","ND"],
    [27102,"07/30/2017 21:00","ND","ND","ND","ND","ND","ND"],
    [27103,"07/30/2017 22:00","ND","ND","ND","ND","ND","ND"],
    [27104,"07/30/2017 23:00","ND","ND","ND","ND","ND","ND"],
    [27105,"07/31/2017 00:00","ND","ND","ND","ND","ND","ND"],
    [27106,"07/31/2017 01:00","ND","ND","ND","ND","ND","ND"],
    [27107,"07/31/2017 02:00","ND","ND","ND","ND","ND","ND"],
    [27108,"07/31/2017 03:00","ND","ND","ND","ND","ND","ND"],
    [27109,"07/31/2017 04:00","ND","ND","ND","ND","ND","ND"],
    [27110,"07/31/2017 05:00","ND","ND","ND","ND","ND","ND"],
    [27111,"07/31/2017 06:00","ND","ND","ND","ND","ND","ND"],
    [27112,"07/31/2017 07:00","ND","ND","ND","ND","ND","ND"],
    [27113,"07/31/2017 08:00","ND","ND","ND","ND","ND","ND"],
    [27114,"07/31/2017 09:00","ND","ND","ND","ND","ND","ND"],
    [27115,"07/31/2017 10:00","ND","ND","ND","ND","ND","ND"],
    [27116,"07/31/2017 11:00","ND","ND","ND","ND","ND","ND"],
    [27117,"07/31/2017 12:00","ND","ND","ND","ND","ND","ND"],
    [27118,"07/31/2017 13:00","ND","ND","ND","ND","ND","ND"],
    [27119,"07/31/2017 14:00","ND","ND","ND","ND","ND","ND"],
    [27120,"07/31/2017 15:00","ND","ND","ND","ND","ND","ND"],
    [27121,"07/31/2017 16:00","ND","ND","ND","ND","ND","ND"],
    [27122,"07/31/2017 17:00","ND","ND","ND","ND","ND","ND"],
    [27123,"07/31/2017 18:00","ND","ND","ND","ND","ND","ND"],
    [27124,"07/31/2017 19:00","ND","ND","ND","ND","ND","ND"],
    [27125,"07/31/2017 20:00","ND","ND","ND","ND","ND","ND"],
    [27126,"07/31/2017 21:00","ND","ND","ND","ND","ND","ND"],
    [27127,"07/31/2017 22:00","ND","ND","ND","ND","ND","ND"],
    [27128,"07/31/2017 23:00","ND","ND","ND","ND","ND","ND"],
    [27129,"42743","ND","ND","ND","ND","ND","ND"],
    [27130,"42743,04167","ND","ND","ND","ND","ND","ND"],
    [27131,"42743,08333","ND","ND","ND","ND","ND","ND"],
    [27132,"42743,125","ND","ND","ND","ND","ND","ND"],
    [27133,"42743,16667","ND","ND","ND","ND","ND","ND"],
    [27134,"42743,20833","ND","ND","ND","ND","ND","ND"],
    [27135,"42743,25","ND","ND","ND","ND","ND","ND"],
    [27136,"42743,29167","ND","ND","ND","ND","ND","ND"],
    [27137,"42743,33333","ND","ND","ND","ND","ND","ND"],
    [27138,"42743,375","ND","ND","ND","ND","ND","ND"],
    [27139,"42743,41667","ND","ND","ND","ND","ND","ND"],
    [27140,"42743,45833","ND","ND","ND","ND","ND","ND"],
    [27141,"42743,5","ND","ND","ND","ND","ND","ND"],
    [27142,"42743,54167","ND","ND","ND","ND","ND","ND"],
    [27143,"42743,58333","ND","ND","ND","ND","ND","ND"],
    [27144,"42743,625","ND","ND","ND","ND","ND","ND"],
    [27145,"42743,66667","ND","ND","ND","ND","ND","ND"],
    [27146,"42743,70833","ND","ND","ND","ND","ND","ND"],
    [27147,"42743,75","ND","ND","ND","ND","ND","ND"],
    [27148,"42743,79167","ND","ND","ND","ND","ND","ND"],
    [27149,"42743,83333","ND","ND","ND","ND","ND","ND"],
    [27150,"42743,875","ND","ND","ND","ND","ND","ND"],
    [27151,"42743,91667","ND","ND","ND","ND","ND","ND"],
    [27152,"42743,95833","ND","ND","ND","ND","ND","ND"],
    [27153,"42774","ND","ND","ND","ND","ND","ND"],
    [27154,"42774,04167","ND","ND","ND","ND","ND","ND"],
    [27155,"42774,08333","ND","ND","ND","ND","ND","ND"],
    [27156,"42774,125","ND","ND","ND","ND","ND","ND"],
    [27157,"42774,16667","ND","ND","ND","ND","ND","ND"],
    [27158,"42774,20833","ND","ND","ND","ND","ND","ND"],
    [27159,"42774,25","ND","ND","ND","ND","ND","ND"],
    [27160,"42774,29167","ND","ND","ND","ND","ND","ND"],
    [27161,"42774,33333","ND","ND","ND","ND","ND","ND"],
    [27162,"42774,375","ND","ND","ND","ND","ND","ND"],
    [27163,"42774,41667","ND","ND","ND","ND","ND","ND"],
    [27164,"42774,45833","ND","ND","ND","ND","ND","ND"],
    [27165,"42774,5","ND","ND","ND","ND","ND","ND"],
    [27166,"42774,54167","ND","ND","ND","ND","ND","ND"],
    [27167,"42774,58333","ND","ND","ND","ND","ND","ND"],
    [27168,"42774,625","ND","ND","ND","ND","ND","ND"],
    [27169,"42774,66667","ND","ND","ND","ND","ND","ND"],
    [27170,"42774,70833","ND","ND","ND","ND","ND","ND"],
    [27171,"42774,75","ND","ND","ND","ND","ND","ND"],
    [27172,"42774,79167","ND","ND","ND","ND","ND","ND"],
    [27173,"42774,83333","ND","ND","ND","ND","ND","ND"],
    [27174,"42774,875","ND","ND","ND","ND","ND","ND"],
    [27175,"42774,91667","ND","ND","ND","ND","ND","ND"],
    [27176,"42774,95833","ND","ND","ND","ND","ND","ND"],
    [27177,"42802","ND","ND","ND","ND","ND","ND"],
    [27178,"42802,04167","ND","ND","ND","ND","ND","ND"],
    [27179,"42802,08333","ND","ND","ND","ND","ND","ND"],
    [27180,"42802,125","ND","ND","ND","ND","ND","ND"],
    [27181,"42802,16667","ND","ND","ND","ND","ND","ND"],
    [27182,"42802,20833","ND","ND","ND","ND","ND","ND"],
    [27183,"42802,25","ND","ND","ND","ND","ND","ND"],
    [27184,"42802,29167","ND","ND","ND","ND","ND","ND"],
    [27185,"42802,33333","ND","ND","ND","ND","ND","ND"],
    [27186,"42802,375","ND","ND","ND","ND","ND","ND"],
    [27187,"42802,41667","ND","ND","ND","ND","ND","ND"],
    [27188,"42802,45833","ND","ND","ND","ND","ND","ND"],
    [27189,"42802,5","ND","ND","ND","ND","ND","ND"],
    [27190,"42802,54167","ND","6,9","ND","ND","ND","ND"],
    [27191,"42802,58333","ND","3,7","ND","ND","ND","ND"],
    [27192,"42802,625","ND","2,6","ND","ND","ND","ND"],
    [27193,"42802,66667","3,3","1,9","ND","ND","ND","ND"],
    [27194,"42802,70833","44,6","1,4","ND","ND","ND","ND"],
    [27195,"42802,75","53,3","1,4","ND","ND","ND","ND"],
    [27196,"42802,79167","53,4","1,4","ND","ND","ND","ND"],
    [27197,"42802,83333","46,3","1,3","ND","ND","ND","ND"],
    [27198,"42802,875","25,9","1,4","ND","ND","ND","ND"],
    [27199,"42802,91667","17,2","3,2","ND","ND","ND","ND"],
    [27200,"42802,95833","57,8","5","ND","ND","ND","ND"],
    [27201,"42833","43,4","2,7","ND","ND","ND","ND"],
    [27202,"42833,04167","43,4","2,2","ND","ND","ND","ND"],
    [27203,"42833,08333","25,7","1,9","ND","ND","ND","ND"],
    [27204,"42833,125","22,3","1,8","ND","ND","ND","ND"],
    [27205,"42833,16667","20,8","1,9","ND","ND","ND","ND"],
    [27206,"42833,20833","27,4","2,1","ND","ND","ND","ND"],
    [27207,"42833,25","27,8","2,1","ND","ND","ND","ND"],
    [27208,"42833,29167","42,2","2,4","ND","ND","ND","ND"],
    [27209,"42833,33333","57,6","3","ND","ND","ND","ND"],
    [27210,"42833,375","65,4","4,6","ND","ND","ND","ND"],
    [27211,"42833,41667","67,5","5,7","ND","ND","ND","ND"],
    [27212,"42833,45833","59,2","6,1","ND","ND","ND","ND"],
    [27213,"42833,5","54","6,9","ND","ND","ND","ND"],
    [27214,"42833,54167","46,2","5,4","ND","ND","ND","ND"],
    [27215,"42833,58333","34,7","1,8","ND","ND","ND","ND"],
    [27216,"42833,625","4,5","1,4","ND","ND","ND","ND"],
    [27217,"42833,66667","7,2","1,4","ND","ND","ND","ND"],
    [27218,"42833,70833","5,2","1,7","ND","ND","ND","ND"],
    [27219,"42833,75","10,6","1,7","ND","ND","ND","ND"],
    [27220,"42833,79167","11,4","2,2","ND","ND","ND","ND"],
    [27221,"42833,83333","34,8","2,6","ND","ND","ND","ND"],
    [27222,"42833,875","86,9","3,1","ND","ND","ND","ND"],
    [27223,"42833,91667","60,1","2,9","ND","ND","ND","ND"],
    [27224,"42833,95833","59,8","2,7","ND","ND","ND","ND"],
    [27225,"42863","49,5","2,3","ND","ND","ND","ND"],
    [27226,"42863,04167","28,9","2,3","ND","ND","ND","ND"],
    [27227,"42863,08333","29,3","2,2","ND","ND","ND","ND"],
    [27228,"42863,125","28,7","2,1","ND","ND","ND","ND"],
    [27229,"42863,16667","20,8","2","ND","ND","ND","ND"],
    [27230,"42863,20833","21,5","2,1","ND","ND","ND","ND"],
    [27231,"42863,25","25","2,1","ND","ND","ND","ND"],
    [27232,"42863,29167","39,1","2,5","ND","ND","ND","ND"],
    [27233,"42863,33333","47","2,7","ND","ND","ND","ND"],
    [27234,"42863,375","52,2","5,6","ND","ND","ND","ND"],
    [27235,"42863,41667","48,6","7,4","ND","ND","ND","ND"],
    [27236,"42863,45833","42,4","7,7","ND","ND","ND","ND"],
    [27237,"42863,5","37,5","7,6","ND","ND","ND","ND"],
    [27238,"42863,54167","37,5","6,1","ND","ND","ND","ND"],
    [27239,"42863,58333","45,6","6,5","ND","ND","ND","ND"],
    [27240,"42863,625","57,5","7,7","ND","ND","ND","ND"],
    [27241,"42863,66667","66,3","4,6","ND","ND","ND","ND"],
    [27242,"42863,70833","40,2","1,5","ND","ND","ND","ND"],
    [27243,"42863,75","15","1,4","ND","ND","ND","ND"],
    [27244,"42863,79167","19,5","1,4","ND","ND","ND","ND"],
    [27245,"42863,83333","19,4","1,3","ND","ND","ND","ND"],
    [27246,"42863,875","18,1","1,7","ND","ND","ND","ND"],
    [27247,"42863,91667","25","2,7","ND","ND","ND","ND"],
    [27248,"42863,95833","55,9","2,6","ND","ND","ND","ND"],
    [27249,"42894","58,7","2,8","ND","ND","ND","ND"],
    [27250,"42894,04167","54,3","2,9","ND","ND","ND","ND"],
    [27251,"42894,08333","54,1","2,9","ND","ND","ND","ND"],
    [27252,"42894,125","44,3","4","ND","ND","ND","ND"],
    [27253,"42894,16667","43","4,4","ND","ND","ND","ND"],
    [27254,"42894,20833","46,1","3,1","ND","ND","ND","ND"],
    [27255,"42894,25","50,3","2,2","ND","ND","ND","ND"],
    [27256,"42894,29167","35,1","2,2","ND","ND","ND","ND"],
    [27257,"42894,33333","34,3","2,6","ND","ND","ND","ND"],
    [27258,"42894,375","44,7","6,6","ND","ND","ND","ND"],
    [27259,"42894,41667","45,8","8,9","ND","ND","ND","ND"],
    [27260,"42894,45833","37,1","8,5","ND","ND","ND","ND"],
    [27261,"42894,5","40,2","6","ND","ND","ND","ND"],
    [27262,"42894,54167","37,4","4,9","ND","ND","ND","ND"],
    [27263,"42894,58333","38,1","4,5","ND","ND","ND","ND"],
    [27264,"42894,625","36,5","2,3","ND","ND","ND","ND"],
    [27265,"42894,66667","34,4","1,4","ND","ND","ND","ND"],
    [27266,"42894,70833","25,4","1,3","ND","ND","ND","ND"],
    [27267,"42894,75","22,5","1,3","ND","ND","ND","ND"],
    [27268,"42894,79167","25","1,4","ND","ND","ND","ND"],
    [27269,"42894,83333","22,7","1,3","ND","ND","ND","ND"],
    [27270,"42894,875","15,3","1,6","ND","ND","ND","ND"],
    [27271,"42894,91667","18,4","2,1","ND","ND","ND","ND"],
    [27272,"42894,95833","50,4","1,9","ND","ND","ND","ND"],
    [27273,"42924","37,4","1,9","ND","ND","ND","ND"],
    [27274,"42924,04167","36","1,6","ND","ND","ND","ND"],
    [27275,"42924,08333","38,4","1,7","ND","ND","ND","ND"],
    [27276,"42924,125","56,1","1,9","ND","ND","ND","ND"],
    [27277,"42924,16667","119,5","1,8","ND","ND","ND","ND"],
    [27278,"42924,20833","48,3","1,8","ND","ND","ND","ND"],
    [27279,"42924,25","56,1","2,5","ND","ND","ND","ND"],
    [27280,"42924,29167","57,5","1,9","ND","ND","ND","ND"],
    [27281,"42924,33333","65,3","3,4","ND","ND","ND","ND"],
    [27282,"42924,375","45,9","9,8","ND","ND","ND","ND"],
    [27283,"42924,41667","31,4","11","ND","ND","ND","ND"],
    [27284,"42924,45833","26,5","10,1","ND","ND","ND","ND"],
    [27285,"42924,5","28,9","6,5","ND","ND","ND","ND"],
    [27286,"42924,54167","29,7","6,1","ND","ND","ND","ND"],
    [27287,"42924,58333","32,9","5,8","ND","ND","ND","ND"],
    [27288,"42924,625","33","3","ND","ND","ND","ND"],
    [27289,"42924,66667","34,7","1,4","ND","ND","ND","ND"],
    [27290,"42924,70833","14,9","1,4","ND","ND","ND","ND"],
    [27291,"42924,75","14,4","1,2","ND","ND","ND","ND"],
    [27292,"42924,79167","29,6","1,1","ND","ND","ND","ND"],
    [27293,"42924,83333","26,1","1,1","ND","ND","ND","ND"],
    [27294,"42924,875","14,8","1","ND","ND","ND","ND"],
    [27295,"42924,91667","8,9","1,8","ND","ND","ND","ND"],
    [27296,"42924,95833","25,9","2,2","ND","ND","ND","ND"],
    [27297,"42955","39,6","2,5","ND","ND","ND","ND"],
    [27298,"42955,04167","29,8","1,9","ND","ND","ND","ND"],
    [27299,"42955,08333","23,8","1,9","ND","ND","ND","ND"],
    [27300,"42955,125","23,1","2,4","ND","ND","ND","ND"],
    [27301,"42955,16667","22,3","2,5","ND","ND","ND","ND"],
    [27302,"42955,20833","23,3","2,1","ND","ND","ND","ND"],
    [27303,"42955,25","22,6","2","ND","ND","ND","ND"],
    [27304,"42955,29167","31,8","3,5","ND","ND","ND","ND"],
    [27305,"42955,33333","54","3,4","ND","ND","ND","ND"],
    [27306,"42955,375","53,7","7,2","ND","ND","ND","ND"],
    [27307,"42955,41667","48,5","10,1","ND","ND","ND","ND"],
    [27308,"42955,45833","37,5","5,9","ND","ND","ND","ND"],
    [27309,"42955,5","36,8","5,3","ND","ND","ND","ND"],
    [27310,"42955,54167","38,7","4","ND","ND","ND","ND"],
    [27311,"42955,58333","39,4","3,7","ND","ND","ND","ND"],
    [27312,"42955,625","33,2","3,3","ND","ND","ND","ND"],
    [27313,"42955,66667","32,5","2,3","ND","ND","ND","ND"],
    [27314,"42955,70833","41,1","1,3","ND","ND","ND","ND"],
    [27315,"42955,75","26,3","1,5","ND","ND","ND","ND"],
    [27316,"42955,79167","32,9","1,3","ND","ND","ND","ND"],
    [27317,"42955,83333","26,2","1,2","ND","ND","ND","ND"],
    [27318,"42955,875","19,5","1,5","ND","ND","ND","ND"],
    [27319,"42955,91667","13,9","1,8","ND","ND","ND","ND"],
    [27320,"42955,95833","22,3","3","ND","ND","ND","ND"],
    [27321,"42986","57","4,2","ND","ND","ND","ND"],
    [27322,"42986,04167","68,8","1,9","ND","ND","ND","ND"],
    [27323,"42986,08333","48,5","1,6","ND","ND","ND","ND"],
    [27324,"42986,125","20,3","1,5","ND","ND","ND","ND"],
    [27325,"42986,16667","24,2","1,4","ND","ND","ND","ND"],
    [27326,"42986,20833","26,8","1,6","ND","ND","ND","ND"],
    [27327,"42986,25","24,1","1,9","ND","ND","ND","ND"],
    [27328,"42986,29167","38,7","2,2","ND","ND","ND","ND"],
    [27329,"42986,33333","55,7","2,8","ND","ND","ND","ND"],
    [27330,"42986,375","55,8","4,8","ND","ND","ND","ND"],
    [27331,"42986,41667","58,2","6,7","ND","ND","ND","ND"],
    [27332,"42986,45833","66,7","ND","ND","ND","ND","ND"],
    [27333,"42986,5","70","ND","ND","ND","ND","ND"],
    [27334,"42986,54167","55,1","ND","ND","ND","ND","ND"],
    [27335,"42986,58333","47,5","ND","ND","ND","ND","ND"],
    [27336,"42986,625","43,3","ND","ND","ND","ND","ND"],
    [27337,"42986,66667","35,2","ND","ND","ND","ND","ND"],
    [27338,"42986,70833","43,3","ND","ND","ND","ND","ND"],
    [27339,"42986,75","17,1","ND","ND","ND","ND","ND"],
    [27340,"42986,79167","10,8","ND","ND","ND","ND","ND"],
    [27341,"42986,83333","11,6","ND","ND","ND","ND","ND"],
    [27342,"42986,875","29,1","ND","ND","ND","ND","ND"],
    [27343,"42986,91667","61","ND","ND","ND","ND","ND"],
    [27344,"42986,95833","75,2","ND","ND","ND","ND","ND"],
    [27345,"43016","26,9","ND","ND","ND","ND","ND"],
    [27346,"43016,04167","23,4","ND","ND","ND","ND","ND"],
    [27347,"43016,08333","23,6","ND","ND","ND","ND","ND"],
    [27348,"43016,125","20,8","ND","ND","ND","ND","ND"],
    [27349,"43016,16667","17,2","ND","ND","ND","ND","ND"],
    [27350,"43016,20833","19,2","ND","ND","ND","ND","ND"],
    [27351,"43016,25","27,5","ND","ND","ND","ND","ND"],
    [27352,"43016,29167","38,5","ND","ND","ND","ND","ND"],
    [27353,"43016,33333","49,7","ND","ND","ND","ND","ND"],
    [27354,"43016,375","63,1","ND","ND","ND","ND","ND"],
    [27355,"43016,41667","59,7","ND","ND","ND","ND","ND"],
    [27356,"43016,45833","61,9","ND","ND","ND","ND","ND"],
    [27357,"43016,5","42,9","ND","ND","ND","ND","ND"],
    [27358,"43016,54167","47,3","ND","ND","ND","ND","ND"],
    [27359,"43016,58333","51,1","ND","ND","ND","ND","ND"],
    [27360,"43016,625","55","ND","ND","ND","ND","ND"],
    [27361,"43016,66667","55,5","ND","ND","ND","ND","ND"],
    [27362,"43016,70833","29,3","ND","ND","ND","ND","ND"],
    [27363,"43016,75","25,5","ND","ND","ND","ND","ND"],
    [27364,"43016,79167","19,7","ND","ND","ND","ND","ND"],
    [27365,"43016,83333","17,1","ND","ND","ND","ND","ND"],
    [27366,"43016,875","16,5","0,6","ND","ND","ND","ND"],
    [27367,"43016,91667","11,7","1,4","ND","ND","ND","ND"],
    [27368,"43016,95833","31,6","1,2","ND","ND","ND","ND"],
    [27369,"43047","37,9","1,1","ND","ND","ND","ND"],
    [27370,"43047,04167","27,8","0,9","ND","ND","ND","ND"],
    [27371,"43047,08333","28,8","2,6","ND","ND","ND","ND"],
    [27372,"43047,125","46,5","1,7","ND","ND","ND","ND"],
    [27373,"43047,16667","33,1","1,2","ND","ND","ND","ND"],
    [27374,"43047,20833","26,4","1,2","ND","ND","ND","ND"],
    [27375,"43047,25","27","1","ND","ND","ND","ND"],
    [27376,"43047,29167","22,1","1,1","ND","ND","ND","ND"],
    [27377,"43047,33333","21,8","1,5","ND","ND","ND","ND"],
    [27378,"43047,375","28,1","2","ND","ND","ND","ND"],
    [27379,"43047,41667","34","1,7","ND","ND","ND","ND"],
    [27380,"43047,45833","14,5","1","ND","ND","ND","ND"],
    [27381,"43047,5","13,9","0,8","ND","ND","ND","ND"],
    [27382,"43047,54167","12,7","1,1","ND","ND","ND","ND"],
    [27383,"43047,58333","19,6","0,9","ND","ND","ND","ND"],
    [27384,"43047,625","16,1","0,9","ND","ND","ND","ND"],
    [27385,"43047,66667","18,3","1,4","ND","ND","ND","ND"],
    [27386,"43047,70833","21,9","1,3","ND","ND","ND","ND"],
    [27387,"43047,75","19,2","0,6","ND","ND","ND","ND"],
    [27388,"43047,79167","4,3","0,6","ND","ND","ND","ND"],
    [27389,"43047,83333","8,1","0,6","ND","ND","ND","ND"],
    [27390,"43047,875","14,2","0,7","ND","ND","ND","ND"],
    [27391,"43047,91667","20,1","0,7","ND","ND","ND","ND"],
    [27392,"43047,95833","27,1","1","ND","ND","ND","ND"],
    [27393,"43077","43,1","0,9","ND","ND","ND","ND"],
    [27394,"43077,04167","20,9","0,6","ND","ND","ND","ND"],
    [27395,"43077,08333","19,1","0,5","ND","ND","ND","ND"],
    [27396,"43077,125","14,9","0,6","ND","ND","ND","ND"],
    [27397,"43077,16667","16,9","0,5","ND","ND","ND","ND"],
    [27398,"43077,20833","17,5","0,5","ND","ND","ND","ND"],
    [27399,"43077,25","21,2","0,6","ND","ND","ND","ND"],
    [27400,"43077,29167","27,1","1,2","ND","ND","ND","ND"],
    [27401,"43077,33333","44,1","1,6","ND","ND","ND","ND"],
    [27402,"43077,375","40,1","8,5","ND","ND","ND","ND"],
    [27403,"43077,41667","39,7","10,8","ND","ND","ND","ND"],
    [27404,"43077,45833","40,6","9,6","ND","ND","ND","ND"],
    [27405,"43077,5","44,2","8,4","ND","ND","ND","ND"],
    [27406,"43077,54167","39,3","5,2","ND","ND","ND","ND"],
    [27407,"43077,58333","35,7","4,2","ND","ND","ND","ND"],
    [27408,"43077,625","56,7","5,1","ND","ND","ND","ND"],
    [27409,"43077,66667","61,9","7,8","ND","ND","ND","ND"],
    [27410,"43077,70833","48,7","1,3","ND","ND","ND","ND"],
    [27411,"43077,75","40,5","1,2","ND","ND","ND","ND"],
    [27412,"43077,79167","44,9","1","ND","ND","ND","ND"],
    [27413,"43077,83333","19,7","1,1","ND","ND","ND","ND"],
    [27414,"43077,875","28,7","1,2","ND","ND","ND","ND"],
    [27415,"43077,91667","29,3","1,2","ND","ND","ND","ND"],
    [27416,"43077,95833","47","1,3","ND","ND","ND","ND"],
    [27417,"08/13/2017 00:00","43,6","1,1","ND","ND","ND","ND"],
    [27418,"08/13/2017 01:00","37,8","1,1","ND","ND","ND","ND"],
    [27419,"08/13/2017 02:00","42,4","1,9","ND","ND","ND","ND"],
    [27420,"08/13/2017 03:00","39,6","1,2","ND","ND","ND","ND"],
    [27421,"08/13/2017 04:00","38,5","1,2","ND","ND","ND","ND"],
    [27422,"08/13/2017 05:00","39,1","1,6","ND","ND","ND","ND"],
    [27423,"08/13/2017 06:00","36,6","1,9","ND","ND","ND","ND"],
    [27424,"08/13/2017 07:00","41,3","1,6","ND","ND","ND","ND"],
    [27425,"08/13/2017 08:00","43,8","1,7","ND","ND","ND","ND"],
    [27426,"08/13/2017 09:00","41,4","3,6","ND","ND","ND","ND"],
    [27427,"08/13/2017 10:00","35,8","6,2","ND","ND","ND","ND"],
    [27428,"08/13/2017 11:00","32,3","4,6","ND","ND","ND","ND"],
    [27429,"08/13/2017 12:00","31,4","4,3","ND","ND","ND","ND"],
    [27430,"08/13/2017 13:00","38,5","3,9","ND","ND","ND","ND"],
    [27431,"08/13/2017 14:00","42,5","4,3","ND","ND","ND","ND"],
    [27432,"08/13/2017 15:00","48,1","5,2","ND","ND","ND","ND"],
    [27433,"08/13/2017 16:00","21,7","0,6","ND","ND","ND","ND"],
    [27434,"08/13/2017 17:00","13,1","0,4","ND","ND","ND","ND"],
    [27435,"08/13/2017 18:00","13","0,3","ND","ND","ND","ND"],
    [27436,"08/13/2017 19:00","18,8","0,3","ND","ND","ND","ND"],
    [27437,"08/13/2017 20:00","17,5","0,4","ND","ND","ND","ND"],
    [27438,"08/13/2017 21:00","13,4","0,3","ND","ND","ND","ND"],
    [27439,"08/13/2017 22:00","9,3","1","ND","ND","ND","ND"],
    [27440,"08/13/2017 23:00","24","1,3","ND","ND","ND","ND"],
    [27441,"08/14/2017 00:00","39,1","0,9","ND","ND","ND","ND"],
    [27442,"08/14/2017 01:00","28,4","0,8","ND","ND","ND","ND"],
    [27443,"08/14/2017 02:00","24","0,6","ND","ND","ND","ND"],
    [27444,"08/14/2017 03:00","22,5","0,5","ND","ND","ND","ND"],
    [27445,"08/14/2017 04:00","20,1","0,6","ND","ND","ND","ND"],
    [27446,"08/14/2017 05:00","21,2","0,7","ND","ND","ND","ND"],
    [27447,"08/14/2017 06:00","23,4","1","ND","ND","ND","ND"],
    [27448,"08/14/2017 07:00","38,8","1,7","ND","ND","ND","ND"],
    [27449,"08/14/2017 08:00","49,2","2,8","ND","ND","ND","ND"],
    [27450,"08/14/2017 09:00","63,1","3,5","ND","ND","ND","ND"],
    [27451,"08/14/2017 10:00","46,8","4,9","ND","ND","ND","ND"],
    [27452,"08/14/2017 11:00","23,8","4,8","ND","ND","ND","ND"],
    [27453,"08/14/2017 12:00","29,2","3,8","ND","ND","ND","ND"],
    [27454,"08/14/2017 13:00","27,8","4","ND","ND","ND","ND"],
    [27455,"08/14/2017 14:00","36,8","4","ND","ND","ND","ND"],
    [27456,"08/14/2017 15:00","44","0,7","ND","ND","ND","ND"],
    [27457,"08/14/2017 16:00","6,5","0,5","ND","ND","ND","ND"],
    [27458,"08/14/2017 17:00","16,3","0,3","ND","ND","ND","ND"],
    [27459,"08/14/2017 18:00","23,2","0,2","ND","ND","ND","ND"],
    [27460,"08/14/2017 19:00","27","0,3","ND","ND","ND","ND"],
    [27461,"08/14/2017 20:00","18,8","0,3","ND","ND","ND","ND"],
    [27462,"08/14/2017 21:00","8,7","0,9","ND","ND","ND","ND"],
    [27463,"08/14/2017 22:00","24","1,6","ND","ND","ND","ND"],
    [27464,"08/14/2017 23:00","46,1","1,6","ND","ND","ND","ND"],
    [27465,"08/15/2017 00:00","46","1,3","ND","ND","ND","ND"],
    [27466,"08/15/2017 01:00","30,3","1","ND","ND","ND","ND"],
    [27467,"08/15/2017 02:00","31,9","1","ND","ND","ND","ND"],
    [27468,"08/15/2017 03:00","25","0,9","ND","ND","ND","ND"],
    [27469,"08/15/2017 04:00","26,4","1,1","ND","ND","ND","ND"],
    [27470,"08/15/2017 05:00","21,7","1,1","ND","ND","ND","ND"],
    [27471,"08/15/2017 06:00","22,6","1,2","ND","ND","ND","ND"],
    [27472,"08/15/2017 07:00","41","2,1","ND","ND","ND","ND"],
    [27473,"08/15/2017 08:00","86,2","2,5","ND","ND","ND","ND"],
    [27474,"08/15/2017 09:00","49,2","4,9","ND","ND","ND","ND"],
    [27475,"08/15/2017 10:00","76,9","7,4","ND","ND","ND","ND"],
    [27476,"08/15/2017 11:00","39,9","5,6","ND","ND","ND","ND"],
    [27477,"08/15/2017 12:00","41","5,6","ND","ND","ND","ND"],
    [27478,"08/15/2017 13:00","45,1","4,2","ND","ND","ND","ND"],
    [27479,"08/15/2017 14:00","39,1","3,4","ND","ND","ND","ND"],
    [27480,"08/15/2017 15:00","39,9","3,1","ND","ND","ND","ND"],
    [27481,"08/15/2017 16:00","58,1","0,6","ND","ND","ND","ND"],
    [27482,"08/15/2017 17:00","21,3","0,5","ND","ND","ND","ND"],
    [27483,"08/15/2017 18:00","32,6","0,3","ND","ND","ND","ND"],
    [27484,"08/15/2017 19:00","18,5","0,5","ND","ND","ND","ND"],
    [27485,"08/15/2017 20:00","18,3","1,3","ND","ND","ND","ND"],
    [27486,"08/15/2017 21:00","47","1,8","ND","ND","ND","ND"],
    [27487,"08/15/2017 22:00","49,9","2","ND","ND","ND","ND"],
    [27488,"08/15/2017 23:00","34","1,6","ND","ND","ND","ND"],
    [27489,"08/16/2017 00:00","31,7","0,9","ND","ND","ND","ND"],
    [27490,"08/16/2017 01:00","43","1,1","ND","ND","ND","ND"],
    [27491,"08/16/2017 02:00","41","1,6","ND","ND","ND","ND"],
    [27492,"08/16/2017 03:00","43","1,1","ND","ND","ND","ND"],
    [27493,"08/16/2017 04:00","37,3","1","ND","ND","ND","ND"],
    [27494,"08/16/2017 05:00","41,2","1","ND","ND","ND","ND"],
    [27495,"08/16/2017 06:00","48,1","1,2","ND","ND","ND","ND"],
    [27496,"08/16/2017 07:00","58,4","1,9","ND","ND","ND","ND"],
    [27497,"08/16/2017 08:00","61,3","3","ND","ND","ND","ND"],
    [27498,"08/16/2017 09:00","62,2","5,6","ND","ND","ND","ND"],
    [27499,"08/16/2017 10:00","87,7","11,3","ND","ND","ND","ND"],
    [27500,"08/16/2017 11:00","73,9","6,6","ND","ND","ND","ND"],
    [27501,"08/16/2017 12:00","43,2","5","ND","ND","ND","ND"],
    [27502,"08/16/2017 13:00","28,9","4,4","ND","ND","ND","ND"],
    [27503,"08/16/2017 14:00","23,7","1,4","ND","ND","ND","ND"],
    [27504,"08/16/2017 15:00","13,6","0,8","ND","ND","ND","ND"],
    [27505,"08/16/2017 16:00","21,9","0,7","ND","ND","ND","ND"],
    [27506,"08/16/2017 17:00","24,1","0,3","ND","ND","ND","ND"],
    [27507,"08/16/2017 18:00","21,4","0,2","ND","ND","ND","ND"],
    [27508,"08/16/2017 19:00","37,2","0,4","ND","ND","ND","ND"],
    [27509,"08/16/2017 20:00","37,9","0,3","ND","ND","ND","ND"],
    [27510,"08/16/2017 21:00","24,8","0,3","ND","ND","ND","ND"],
    [27511,"08/16/2017 22:00","16,2","0,3","ND","ND","ND","ND"],
    [27512,"08/16/2017 23:00","14,1","1,7","ND","ND","ND","ND"],
    [27513,"08/17/2017 00:00","48","1,3","ND","ND","ND","ND"],
    [27514,"08/17/2017 01:00","48,2","2,8","ND","ND","ND","ND"],
    [27515,"08/17/2017 02:00","38,8","2,2","ND","ND","ND","ND"],
    [27516,"08/17/2017 03:00","28","3,3","ND","ND","ND","ND"],
    [27517,"08/17/2017 04:00","29,4","1,5","ND","ND","ND","ND"],
    [27518,"08/17/2017 05:00","27,8","1,5","ND","ND","ND","ND"],
    [27519,"08/17/2017 06:00","26,9","1,5","ND","ND","ND","ND"],
    [27520,"08/17/2017 07:00","39,8","1,6","ND","ND","ND","ND"],
    [27521,"08/17/2017 08:00","52","3,2","ND","ND","ND","ND"],
    [27522,"08/17/2017 09:00","46,9","7,1","ND","ND","ND","ND"],
    [27523,"08/17/2017 10:00","38,1","9,6","ND","ND","ND","ND"],
    [27524,"08/17/2017 11:00","29,8","5,3","ND","ND","ND","ND"],
    [27525,"08/17/2017 12:00","30,5","4,1","ND","ND","ND","ND"],
    [27526,"08/17/2017 13:00","36,3","3,3","ND","ND","ND","ND"],
    [27527,"08/17/2017 14:00","56,5","4,4","ND","ND","ND","ND"],
    [27528,"08/17/2017 15:00","64,5","4,6","ND","ND","ND","ND"],
    [27529,"08/17/2017 16:00","57,8","0,8","ND","ND","ND","ND"],
    [27530,"08/17/2017 17:00","34,9","0,5","ND","ND","ND","ND"],
    [27531,"08/17/2017 18:00","28,2","0,4","ND","ND","ND","ND"],
    [27532,"08/17/2017 19:00","40,8","0,3","ND","ND","ND","ND"],
    [27533,"08/17/2017 20:00","27,4","0,4","ND","ND","ND","ND"],
    [27534,"08/17/2017 21:00","17,1","0,5","ND","ND","ND","ND"],
    [27535,"08/17/2017 22:00","12,2","1,4","ND","ND","ND","ND"],
    [27536,"08/17/2017 23:00","37,3","2,3","ND","ND","ND","ND"],
    [27537,"08/18/2017 00:00","52,4","1,4","ND","ND","ND","ND"],
    [27538,"08/18/2017 01:00","52,4","1,5","ND","ND","ND","ND"],
    [27539,"08/18/2017 02:00","32,1","1,5","ND","ND","ND","ND"],
    [27540,"08/18/2017 03:00","28,3","3,1","ND","ND","ND","ND"],
    [27541,"08/18/2017 04:00","31,7","2","ND","ND","ND","ND"],
    [27542,"08/18/2017 05:00","24,7","1,6","ND","ND","ND","ND"],
    [27543,"08/18/2017 06:00","31,6","2,8","ND","ND","ND","ND"],
    [27544,"08/18/2017 07:00","19,9","1,4","ND","ND","ND","ND"],
    [27545,"08/18/2017 08:00","12,7","2,7","ND","ND","ND","ND"],
    [27546,"08/18/2017 09:00","24,8","1,7","ND","ND","ND","ND"],
    [27547,"08/18/2017 10:00","18,8","0,9","ND","ND","ND","ND"],
    [27548,"08/18/2017 11:00","12","0,7","ND","ND","ND","ND"],
    [27549,"08/18/2017 12:00","12,7","0,9","ND","ND","ND","ND"],
    [27550,"08/18/2017 13:00","13,7","4,9","ND","ND","ND","ND"],
    [27551,"08/18/2017 14:00","43","5,8","ND","ND","ND","ND"],
    [27552,"08/18/2017 15:00","41,4","3,3","ND","ND","ND","ND"],
    [27553,"08/18/2017 16:00","16,7","0,6","ND","ND","ND","ND"],
    [27554,"08/18/2017 17:00","12,8","0,8","ND","ND","ND","ND"],
    [27555,"08/18/2017 18:00","51,9","0,8","ND","ND","ND","ND"],
    [27556,"08/18/2017 19:00","27,2","0,7","ND","ND","ND","ND"],
    [27557,"08/18/2017 20:00","18,7","0,8","ND","ND","ND","ND"],
    [27558,"08/18/2017 21:00","23,4","1,2","ND","ND","ND","ND"],
    [27559,"08/18/2017 22:00","53,1","1,3","ND","ND","ND","ND"],
    [27560,"08/18/2017 23:00","58,6","1,8","ND","ND","ND","ND"],
    [27561,"08/19/2017 00:00","49,6","1,7","ND","ND","ND","ND"],
    [27562,"08/19/2017 01:00","50,4","1,4","ND","ND","ND","ND"],
    [27563,"08/19/2017 02:00","33,6","1,3","ND","ND","ND","ND"],
    [27564,"08/19/2017 03:00","37,5","1,2","ND","ND","ND","ND"],
    [27565,"08/19/2017 04:00","32,3","3,1","ND","ND","ND","ND"],
    [27566,"08/19/2017 05:00","16,3","1,3","ND","ND","ND","ND"],
    [27567,"08/19/2017 06:00","ND","2,1","ND","ND","ND","ND"],
    [27568,"08/19/2017 07:00","15,2","3,3","ND","ND","ND","ND"],
    [27569,"08/19/2017 08:00","16,5","2,1","ND","ND","ND","ND"],
    [27570,"08/19/2017 09:00","12,9","1,6","ND","ND","ND","ND"],
    [27571,"08/19/2017 10:00","21,6","1,4","ND","ND","ND","ND"],
    [27572,"08/19/2017 11:00","22,7","1,4","ND","ND","ND","ND"],
    [27573,"08/19/2017 12:00","22","1,6","ND","ND","ND","ND"],
    [27574,"08/19/2017 13:00","19","1,4","ND","ND","ND","ND"],
    [27575,"08/19/2017 14:00","20,9","1,1","ND","ND","ND","ND"],
    [27576,"08/19/2017 15:00","17,9","1,3","ND","ND","ND","ND"],
    [27577,"08/19/2017 16:00","32,2","1,9","ND","ND","ND","ND"],
    [27578,"08/19/2017 17:00","43,1","2","ND","ND","ND","ND"],
    [27579,"08/19/2017 18:00","36,4","2,4","ND","ND","ND","ND"],
    [27580,"08/19/2017 19:00","36","1,6","ND","ND","ND","ND"],
    [27581,"08/19/2017 20:00","82,9","1,4","ND","ND","ND","ND"],
    [27582,"08/19/2017 21:00","63,2","1,3","ND","ND","ND","ND"],
    [27583,"08/19/2017 22:00","55,5","1,2","ND","ND","ND","ND"],
    [27584,"08/19/2017 23:00","57,4","1,8","ND","ND","ND","ND"],
    [27585,"08/20/2017 00:00","62,8","1,8","ND","ND","ND","ND"],
    [27586,"08/20/2017 01:00","46,5","1,7","ND","ND","ND","ND"],
    [27587,"08/20/2017 02:00","62,2","1,3","ND","ND","ND","ND"],
    [27588,"08/20/2017 03:00","27,4","0,9","ND","ND","ND","ND"],
    [27589,"08/20/2017 04:00","24,6","1,1","ND","ND","ND","ND"],
    [27590,"08/20/2017 05:00","26,5","1","ND","ND","ND","ND"],
    [27591,"08/20/2017 06:00","16,9","1","ND","ND","ND","ND"],
    [27592,"08/20/2017 07:00","15","1,2","ND","ND","ND","ND"],
    [27593,"08/20/2017 08:00","21","1,4","ND","ND","ND","ND"],
    [27594,"08/20/2017 09:00","20,5","2,1","ND","ND","ND","ND"],
    [27595,"08/20/2017 10:00","26","2,6","ND","ND","ND","ND"],
    [27596,"08/20/2017 11:00","21,7","2,4","ND","ND","ND","ND"],
    [27597,"08/20/2017 12:00","21,5","1,6","ND","ND","ND","ND"],
    [27598,"08/20/2017 13:00","7,7","1,4","ND","ND","ND","ND"],
    [27599,"08/20/2017 14:00","21,5","1,8","ND","ND","ND","ND"],
    [27600,"08/20/2017 15:00","33,4","1,6","ND","ND","ND","ND"],
    [27601,"08/20/2017 16:00","29","4,3","ND","ND","ND","ND"],
    [27602,"08/20/2017 17:00","19","0,5","ND","ND","ND","ND"],
    [27603,"08/20/2017 18:00","7,8","0,3","ND","ND","ND","ND"],
    [27604,"08/20/2017 19:00","7,7","0,8","ND","ND","ND","ND"],
    [27605,"08/20/2017 20:00","29,9","0,9","ND","ND","ND","ND"],
    [27606,"08/20/2017 21:00","33,5","1,5","ND","ND","ND","ND"],
    [27607,"08/20/2017 22:00","31,7","1,3","ND","ND","ND","ND"],
    [27608,"08/20/2017 23:00","37,6","1,6","ND","ND","ND","ND"],
    [27609,"08/21/2017 00:00","32,8","2,3","ND","ND","ND","ND"],
    [27610,"08/21/2017 01:00","39,9","1","ND","ND","ND","ND"],
    [27611,"08/21/2017 02:00","23,7","0,9","ND","ND","ND","ND"],
    [27612,"08/21/2017 03:00","33,1","0,6","ND","ND","ND","ND"],
    [27613,"08/21/2017 04:00","22,7","0,7","ND","ND","ND","ND"],
    [27614,"08/21/2017 05:00","13,3","0,7","ND","ND","ND","ND"],
    [27615,"08/21/2017 06:00","13,5","0,6","ND","ND","ND","ND"],
    [27616,"08/21/2017 07:00","22","0,8","ND","ND","ND","ND"],
    [27617,"08/21/2017 08:00","29,1","0,8","ND","ND","ND","ND"],
    [27618,"08/21/2017 09:00","37,2","1,9","ND","ND","ND","ND"],
    [27619,"08/21/2017 10:00","39,5","5,7","ND","ND","ND","ND"],
    [27620,"08/21/2017 11:00","46,8","9,7","ND","ND","ND","ND"],
    [27621,"08/21/2017 12:00","41,6","11,4","ND","ND","ND","ND"],
    [27622,"08/21/2017 13:00","37,7","13,5","ND","ND","ND","ND"],
    [27623,"08/21/2017 14:00","36,1","9,3","ND","ND","ND","ND"],
    [27624,"08/21/2017 15:00","40,6","6,3","ND","ND","ND","ND"],
    [27625,"08/21/2017 16:00","32,3","3,7","ND","ND","ND","ND"],
    [27626,"08/21/2017 17:00","34,1","1","ND","ND","ND","ND"],
    [27627,"08/21/2017 18:00","32,6","0,4","ND","ND","ND","ND"],
    [27628,"08/21/2017 19:00","13,5","0,5","ND","ND","ND","ND"],
    [27629,"08/21/2017 20:00","17,3","0,4","ND","ND","ND","ND"],
    [27630,"08/21/2017 21:00","13,5","1","ND","ND","ND","ND"],
    [27631,"08/21/2017 22:00","19,5","1,6","ND","ND","ND","ND"],
    [27632,"08/21/2017 23:00","38,7","1,4","ND","ND","ND","ND"],
    [27633,"08/22/2017 00:00","44,6","1,3","ND","ND","ND","ND"],
    [27634,"08/22/2017 01:00","34,6","1","ND","ND","ND","ND"],
    [27635,"08/22/2017 02:00","36,1","1,1","ND","ND","ND","ND"],
    [27636,"08/22/2017 03:00","34,7","1,9","ND","ND","ND","ND"],
    [27637,"08/22/2017 04:00","15,5","1,1","ND","ND","ND","ND"],
    [27638,"08/22/2017 05:00","29,2","0,8","ND","ND","ND","ND"],
    [27639,"08/22/2017 06:00","18,9","0,9","ND","ND","ND","ND"],
    [27640,"08/22/2017 07:00","30,8","1,2","ND","ND","ND","ND"],
    [27641,"08/22/2017 08:00","41,9","1,7","ND","ND","ND","ND"],
    [27642,"08/22/2017 09:00","43,9","3,7","ND","ND","ND","ND"],
    [27643,"08/22/2017 10:00","37,4","6,6","ND","ND","ND","ND"],
    [27644,"08/22/2017 11:00","31,7","9,1","ND","ND","ND","ND"],
    [27645,"08/22/2017 12:00","30,2","5,6","ND","ND","ND","ND"],
    [27646,"08/22/2017 13:00","43,2","4,7","ND","ND","ND","ND"],
    [27647,"08/22/2017 14:00","58,7","5","ND","ND","ND","ND"],
    [27648,"08/22/2017 15:00","56,2","6,4","ND","ND","ND","ND"],
    [27649,"08/22/2017 16:00","63,5","1,3","ND","ND","ND","ND"],
    [27650,"08/22/2017 17:00","16,9","0,7","ND","ND","ND","ND"],
    [27651,"08/22/2017 18:00","11,4","0,7","ND","ND","ND","ND"],
    [27652,"08/22/2017 19:00","18,7","0,7","ND","ND","ND","ND"],
    [27653,"08/22/2017 20:00","17,9","0,9","ND","ND","ND","ND"],
    [27654,"08/22/2017 21:00","18,7","1,7","ND","ND","ND","ND"],
    [27655,"08/22/2017 22:00","27,4","2,1","ND","ND","ND","ND"],
    [27656,"08/22/2017 23:00","40","1,7","ND","ND","ND","ND"],
    [27657,"08/23/2017 00:00","36,8","1,3","ND","ND","ND","ND"],
    [27658,"08/23/2017 01:00","29","1","ND","ND","ND","ND"],
    [27659,"08/23/2017 02:00","27,1","1","ND","ND","ND","ND"],
    [27660,"08/23/2017 03:00","27,3","0,8","ND","ND","ND","ND"],
    [27661,"08/23/2017 04:00","23,9","0,8","ND","ND","ND","ND"],
    [27662,"08/23/2017 05:00","24,2","0,9","ND","ND","ND","ND"],
    [27663,"08/23/2017 06:00","28,1","1","ND","ND","ND","ND"],
    [27664,"08/23/2017 07:00","34,5","1,5","ND","ND","ND","ND"],
    [27665,"08/23/2017 08:00","ND","ND","ND","ND","ND","ND"],
    [27666,"08/23/2017 09:00","ND","3,4","ND","ND","ND","ND"],
    [27667,"08/23/2017 10:00","ND","5,2","ND","ND","ND","ND"],
    [27668,"08/23/2017 11:00","63,4","5","ND","ND","ND","ND"],
    [27669,"08/23/2017 12:00","ND","3,9","ND","ND","ND","ND"],
    [27670,"08/23/2017 13:00","ND","3,6","ND","ND","ND","ND"],
    [27671,"08/23/2017 14:00","39","3,2","ND","ND","ND","ND"],
    [27672,"08/23/2017 15:00","40,3","1,4","ND","ND","ND","ND"],
    [27673,"08/23/2017 16:00","37,1","1,2","ND","ND","ND","ND"],
    [27674,"08/23/2017 17:00","36,6","0,7","ND","ND","ND","ND"],
    [27675,"08/23/2017 18:00","24,7","0,8","ND","ND","ND","ND"],
    [27676,"08/23/2017 19:00","30,3","0,7","ND","ND","ND","ND"],
    [27677,"08/23/2017 20:00","18,9","0,7","ND","ND","ND","ND"],
    [27678,"08/23/2017 21:00","20","0,9","ND","ND","ND","ND"],
    [27679,"08/23/2017 22:00","24,1","1,8","ND","ND","ND","ND"],
    [27680,"08/23/2017 23:00","58,5","2,2","ND","ND","ND","ND"],
    [27681,"08/24/2017 00:00","53,4","1","ND","ND","ND","ND"],
    [27682,"08/24/2017 01:00","41,6","1,3","ND","ND","ND","ND"],
    [27683,"08/24/2017 02:00","31","1,1","ND","ND","ND","ND"],
    [27684,"08/24/2017 03:00","25,7","0,8","ND","ND","ND","ND"],
    [27685,"08/24/2017 04:00","28,5","0,9","ND","ND","ND","ND"],
    [27686,"08/24/2017 05:00","25,6","1,9","ND","ND","ND","ND"],
    [27687,"08/24/2017 06:00","25,6","2,4","ND","ND","ND","ND"],
    [27688,"08/24/2017 07:00","34","2","ND","ND","ND","ND"],
    [27689,"08/24/2017 08:00","54,1","4,2","ND","ND","ND","ND"],
    [27690,"08/24/2017 09:00","50,5","7,5","ND","ND","ND","ND"],
    [27691,"08/24/2017 10:00","55,3","5","ND","ND","ND","ND"],
    [27692,"08/24/2017 11:00","37,5","5,7","ND","ND","ND","ND"],
    [27693,"08/24/2017 12:00","35","4,9","ND","ND","ND","ND"],
    [27694,"08/24/2017 13:00","31,4","2,9","ND","ND","ND","ND"],
    [27695,"08/24/2017 14:00","31,7","1,3","ND","ND","ND","ND"],
    [27696,"08/24/2017 15:00","41,8","0,3","ND","ND","ND","ND"],
    [27697,"08/24/2017 16:00","34","0","ND","ND","ND","ND"],
    [27698,"08/24/2017 17:00","21","0,1","ND","ND","ND","ND"],
    [27699,"08/24/2017 18:00","14,9","0,3","ND","ND","ND","ND"],
    [27700,"08/24/2017 19:00","20,7","0,4","ND","ND","ND","ND"],
    [27701,"08/24/2017 20:00","15,7","0,6","ND","ND","ND","ND"],
    [27702,"08/24/2017 21:00","16,5","0,6","ND","ND","ND","ND"],
    [27703,"08/24/2017 22:00","14","0,8","ND","ND","ND","ND"],
    [27704,"08/24/2017 23:00","22,9","1,5","ND","ND","ND","ND"],
    [27705,"08/25/2017 00:00","58,5","1,2","ND","ND","ND","ND"],
    [27706,"08/25/2017 01:00","49","1,1","ND","ND","ND","ND"],
    [27707,"08/25/2017 02:00","47,8","1","ND","ND","ND","ND"],
    [27708,"08/25/2017 03:00","33,6","0,7","ND","ND","ND","ND"],
    [27709,"08/25/2017 04:00","35,5","1,3","ND","ND","ND","ND"],
    [27710,"08/25/2017 05:00","35,9","1","ND","ND","ND","ND"],
    [27711,"08/25/2017 06:00","41,6","1,8","ND","ND","ND","ND"],
    [27712,"08/25/2017 07:00","50,4","2","ND","ND","ND","ND"],
    [27713,"08/25/2017 08:00","55,5","2,9","ND","ND","ND","ND"],
    [27714,"08/25/2017 09:00","62,4","3,5","ND","ND","ND","ND"],
    [27715,"08/25/2017 10:00","58,6","2,4","ND","ND","ND","ND"],
    [27716,"08/25/2017 11:00","34,9","2,4","ND","ND","ND","ND"],
    [27717,"08/25/2017 12:00","43,5","3,1","ND","ND","ND","ND"],
    [27718,"08/25/2017 13:00","46,4","2,7","ND","ND","ND","ND"],
    [27719,"08/25/2017 14:00","43,3","2,4","ND","ND","ND","ND"],
    [27720,"08/25/2017 15:00","47,8","3,1","ND","ND","ND","ND"],
    [27721,"08/25/2017 16:00","46,4","3,7","ND","ND","ND","ND"],
    [27722,"08/25/2017 17:00","39,4","0,2","ND","ND","ND","ND"],
    [27723,"08/25/2017 18:00","16,1","0","ND","ND","ND","ND"],
    [27724,"08/25/2017 19:00","20,9","0,3","ND","ND","ND","ND"],
    [27725,"08/25/2017 20:00","41,1","0,1","ND","ND","ND","ND"],
    [27726,"08/25/2017 21:00","16,8","0,4","ND","ND","ND","ND"],
    [27727,"08/25/2017 22:00","13,5","1,1","ND","ND","ND","ND"],
    [27728,"08/25/2017 23:00","43,3","1,8","ND","ND","ND","ND"],
    [27729,"08/26/2017 00:00","67,3","1,4","ND","ND","ND","ND"],
    [27730,"08/26/2017 01:00","35,7","1","ND","ND","ND","ND"],
    [27731,"08/26/2017 02:00","30,1","0,9","ND","ND","ND","ND"],
    [27732,"08/26/2017 03:00","33,1","0,9","ND","ND","ND","ND"],
    [27733,"08/26/2017 04:00","26,1","0,8","ND","ND","ND","ND"],
    [27734,"08/26/2017 05:00","29,8","0,8","ND","ND","ND","ND"],
    [27735,"08/26/2017 06:00","28,2","0,9","ND","ND","ND","ND"],
    [27736,"08/26/2017 07:00","30,9","1,2","ND","ND","ND","ND"],
    [27737,"08/26/2017 08:00","43","2,4","ND","ND","ND","ND"],
    [27738,"08/26/2017 09:00","55,3","17,9","ND","ND","ND","ND"],
    [27739,"08/26/2017 10:00","50,7","17,4","ND","ND","ND","ND"],
    [27740,"08/26/2017 11:00","52,3","7,4","ND","ND","ND","ND"],
    [27741,"08/26/2017 12:00","42,7","4","ND","ND","ND","ND"],
    [27742,"08/26/2017 13:00","43,2","3,2","ND","ND","ND","ND"],
    [27743,"08/26/2017 14:00","50,5","1,3","ND","ND","ND","ND"],
    [27744,"08/26/2017 15:00","36","0","ND","ND","ND","ND"],
    [27745,"08/26/2017 16:00","17,3","0","ND","ND","ND","ND"],
    [27746,"08/26/2017 17:00","21,2","0","ND","ND","ND","ND"],
    [27747,"08/26/2017 18:00","20","0","ND","ND","ND","ND"],
    [27748,"08/26/2017 19:00","29,9","0,2","ND","ND","ND","ND"],
    [27749,"08/26/2017 20:00","21,5","0,6","ND","ND","ND","ND"],
    [27750,"08/26/2017 21:00","27,6","0,4","ND","ND","ND","ND"],
    [27751,"08/26/2017 22:00","ND","1,6","ND","ND","ND","ND"],
    [27752,"08/26/2017 23:00","38,2","7,8","ND","ND","ND","ND"],
    [27753,"08/27/2017 00:00","54,8","3,4","ND","ND","ND","ND"],
    [27754,"08/27/2017 01:00","32,7","3,4","ND","ND","ND","ND"],
    [27755,"08/27/2017 02:00","33,9","1,9","ND","ND","ND","ND"],
    [27756,"08/27/2017 03:00","22,4","3,2","ND","ND","ND","ND"],
    [27757,"08/27/2017 04:00","17,7","1,6","ND","ND","ND","ND"],
    [27758,"08/27/2017 05:00","21,7","1,7","ND","ND","ND","ND"],
    [27759,"08/27/2017 06:00","25,4","1,9","ND","ND","ND","ND"],
    [27760,"08/27/2017 07:00","29,5","2,2","ND","ND","ND","ND"],
    [27761,"08/27/2017 08:00","31,4","6","ND","ND","ND","ND"],
    [27762,"08/27/2017 09:00","36","6","ND","ND","ND","ND"],
    [27763,"08/27/2017 10:00","33,3","4,8","ND","ND","ND","ND"],
    [27764,"08/27/2017 11:00","23,2","3,5","ND","ND","ND","ND"],
    [27765,"08/27/2017 12:00","38,4","2,6","ND","ND","ND","ND"],
    [27766,"08/27/2017 13:00","36","2,6","ND","ND","ND","ND"],
    [27767,"08/27/2017 14:00","46,4","4,8","ND","ND","ND","ND"],
    [27768,"08/27/2017 15:00","42,1","0,2","ND","ND","ND","ND"],
    [27769,"08/27/2017 16:00","12,8","0","ND","ND","ND","ND"],
    [27770,"08/27/2017 17:00","21,1","0,2","ND","ND","ND","ND"],
    [27771,"08/27/2017 18:00","14,8","0,3","ND","ND","ND","ND"],
    [27772,"08/27/2017 19:00","25,5","0,4","ND","ND","ND","ND"],
    [27773,"08/27/2017 20:00","7,1","0,4","ND","ND","ND","ND"],
    [27774,"08/27/2017 21:00","12,2","1","ND","ND","ND","ND"],
    [27775,"08/27/2017 22:00","45,4","1","ND","ND","ND","ND"],
    [27776,"08/27/2017 23:00","31,6","1,1","ND","ND","ND","ND"],
    [27777,"08/28/2017 00:00","27","0,7","ND","ND","ND","ND"],
    [27778,"08/28/2017 01:00","26,1","0,6","ND","ND","ND","ND"],
    [27779,"08/28/2017 02:00","16","0,7","ND","ND","ND","ND"],
    [27780,"08/28/2017 03:00","12,7","0,7","ND","ND","ND","ND"],
    [27781,"08/28/2017 04:00","22","0,6","ND","ND","ND","ND"],
    [27782,"08/28/2017 05:00","17,5","0,5","ND","ND","ND","ND"],
    [27783,"08/28/2017 06:00","20,2","0,9","ND","ND","ND","ND"],
    [27784,"08/28/2017 07:00","25,4","1,2","ND","ND","ND","ND"],
    [27785,"08/28/2017 08:00","34,3","1,5","ND","ND","ND","ND"],
    [27786,"08/28/2017 09:00","44,7","1,8","ND","ND","ND","ND"],
    [27787,"08/28/2017 10:00","35,1","3,2","ND","ND","ND","ND"],
    [27788,"08/28/2017 11:00","27,5","6,5","ND","ND","ND","ND"],
    [27789,"08/28/2017 12:00","5,7","4","ND","ND","ND","ND"],
    [27790,"08/28/2017 13:00","ND","3,7","ND","ND","ND","ND"],
    [27791,"08/28/2017 14:00","1,6","2,7","ND","ND","ND","ND"],
    [27792,"08/28/2017 15:00","46,3","2,4","ND","ND","ND","ND"],
    [27793,"08/28/2017 16:00","39,1","1,2","ND","ND","ND","ND"],
    [27794,"08/28/2017 17:00","19,3","1","ND","ND","ND","ND"],
    [27795,"08/28/2017 18:00","12,8","1","ND","ND","ND","ND"],
    [27796,"08/28/2017 19:00","23,6","2,2","ND","ND","ND","ND"],
    [27797,"08/28/2017 20:00","46,4","1,9","ND","ND","ND","ND"],
    [27798,"08/28/2017 21:00","39,6","1,8","ND","ND","ND","ND"],
    [27799,"08/28/2017 22:00","50","1,5","ND","ND","ND","ND"],
    [27800,"08/28/2017 23:00","21,4","1,6","ND","ND","ND","ND"],
    [27801,"08/29/2017 00:00","35,6","1,3","ND","ND","ND","ND"],
    [27802,"08/29/2017 01:00","29","1,3","ND","ND","ND","ND"],
    [27803,"08/29/2017 02:00","24,8","1,2","ND","ND","ND","ND"],
    [27804,"08/29/2017 03:00","23,7","2,2","ND","ND","ND","ND"],
    [27805,"08/29/2017 04:00","33,4","1,9","ND","ND","ND","ND"],
    [27806,"08/29/2017 05:00","28,5","1,7","ND","ND","ND","ND"],
    [27807,"08/29/2017 06:00","31,2","2,4","ND","ND","ND","ND"],
    [27808,"08/29/2017 07:00","47,5","2,6","ND","ND","ND","ND"],
    [27809,"08/29/2017 08:00","76,7","2,8","ND","ND","ND","ND"],
    [27810,"08/29/2017 09:00","56,4","3,7","ND","ND","ND","ND"],
    [27811,"08/29/2017 10:00","64","4,3","ND","ND","ND","ND"],
    [27812,"08/29/2017 11:00","55,2","5","ND","ND","ND","ND"],
    [27813,"08/29/2017 12:00","42,7","6,5","ND","ND","ND","ND"],
    [27814,"08/29/2017 13:00","76","11,8","ND","ND","ND","ND"],
    [27815,"08/29/2017 14:00","52,5","6,4","ND","ND","ND","ND"],
    [27816,"08/29/2017 15:00","51,9","6,8","ND","ND","ND","ND"],
    [27817,"08/29/2017 16:00","58,9","1,8","ND","ND","ND","ND"],
    [27818,"08/29/2017 17:00","23,2","1,8","ND","ND","ND","ND"],
    [27819,"08/29/2017 18:00","48,6","1,8","ND","ND","ND","ND"],
    [27820,"08/29/2017 19:00","77,5","1,7","ND","ND","ND","ND"],
    [27821,"08/29/2017 20:00","42,4","1,4","ND","ND","ND","ND"],
    [27822,"08/29/2017 21:00","21,5","1,3","ND","ND","ND","ND"],
    [27823,"08/29/2017 22:00","33,1","1,2","ND","ND","ND","ND"],
    [27824,"08/29/2017 23:00","39,3","1,2","ND","ND","ND","ND"],
    [27825,"08/30/2017 00:00","21,4","1,1","ND","ND","ND","ND"],
    [27826,"08/30/2017 01:00","24,9","1","ND","ND","ND","ND"],
    [27827,"08/30/2017 02:00","31,7","1","ND","ND","ND","ND"],
    [27828,"08/30/2017 03:00","34,9","0,9","ND","ND","ND","ND"],
    [27829,"08/30/2017 04:00","21,9","0,9","ND","ND","ND","ND"],
    [27830,"08/30/2017 05:00","22,1","1,1","ND","ND","ND","ND"],
    [27831,"08/30/2017 06:00","34,3","1,2","ND","ND","ND","ND"],
    [27832,"08/30/2017 07:00","50,5","1,8","ND","ND","ND","ND"],
    [27833,"08/30/2017 08:00","75","2,2","ND","ND","ND","ND"],
    [27834,"08/30/2017 09:00","83,2","6,2","ND","ND","ND","ND"],
    [27835,"08/30/2017 10:00","80","12,8","ND","ND","ND","ND"],
    [27836,"08/30/2017 11:00","86,1","7,4","ND","ND","ND","ND"],
    [27837,"08/30/2017 12:00","50,2","5,2","ND","ND","ND","ND"],
    [27838,"08/30/2017 13:00","45,8","4,7","ND","ND","ND","ND"],
    [27839,"08/30/2017 14:00","51,8","3,4","ND","ND","ND","ND"],
    [27840,"08/30/2017 15:00","51,8","3,6","ND","ND","ND","ND"],
    [27841,"08/30/2017 16:00","53,4","1,9","ND","ND","ND","ND"],
    [27842,"08/30/2017 17:00","29,3","1,8","ND","ND","ND","ND"],
    [27843,"08/30/2017 18:00","27,6","2,1","ND","ND","ND","ND"],
    [27844,"08/30/2017 19:00","20","1,4","ND","ND","ND","ND"],
    [27845,"08/30/2017 20:00","24,6","1,4","ND","ND","ND","ND"],
    [27846,"08/30/2017 21:00","24,9","1,2","ND","ND","ND","ND"],
    [27847,"08/30/2017 22:00","19,1","1,8","ND","ND","ND","ND"],
    [27848,"08/30/2017 23:00","47,4","1,8","ND","ND","ND","ND"],
    [27849,"08/31/2017 00:00","50","1,7","ND","ND","ND","ND"],
    [27850,"08/31/2017 01:00","41,3","1,5","ND","ND","ND","ND"],
    [27851,"08/31/2017 02:00","40,1","1,4","ND","ND","ND","ND"],
    [27852,"08/31/2017 03:00","38,1","1,3","ND","ND","ND","ND"],
    [27853,"08/31/2017 04:00","38,6","1,3","ND","ND","ND","ND"],
    [27854,"08/31/2017 05:00","38,8","1,4","ND","ND","ND","ND"],
    [27855,"08/31/2017 06:00","44,4","1,9","ND","ND","ND","ND"],
    [27856,"08/31/2017 07:00","62,8","2,8","ND","ND","ND","ND"],
    [27857,"08/31/2017 08:00","81,9","3,9","ND","ND","ND","ND"],
    [27858,"08/31/2017 09:00","94,7","4,2","ND","ND","ND","ND"],
    [27859,"08/31/2017 10:00","95,8","6,6","ND","ND","ND","ND"],
    [27860,"08/31/2017 11:00","65,1","5,4","ND","ND","ND","ND"],
    [27861,"08/31/2017 12:00","37,1","5","ND","ND","ND","ND"],
    [27862,"08/31/2017 13:00","38","3,8","ND","ND","ND","ND"],
    [27863,"08/31/2017 14:00","26,6","2,8","ND","ND","ND","ND"],
    [27864,"08/31/2017 15:00","21,9","2,8","ND","ND","ND","ND"],
    [27865,"08/31/2017 16:00","27,1","2,4","ND","ND","ND","ND"],
    [27866,"08/31/2017 17:00","25,9","3,1","ND","ND","ND","ND"],
    [27867,"08/31/2017 18:00","28,2","4,1","ND","ND","ND","ND"],
    [27868,"08/31/2017 19:00","45,6","2,1","ND","ND","ND","ND"],
    [27869,"08/31/2017 20:00","47,8","2,1","ND","ND","ND","ND"],
    [27870,"08/31/2017 21:00","62,1","1,9","ND","ND","ND","ND"],
    [27871,"08/31/2017 22:00","37,8","1,8","ND","ND","ND","ND"],
    [27872,"08/31/2017 23:00","33,6","2,2","ND","ND","ND","ND"],
    [27873,"42744","47,6","1,9","ND","ND","ND","ND"],
    [27874,"42744,04167","36,3","1,8","ND","ND","ND","ND"],
    [27875,"42744,08333","30,3","1,7","ND","ND","ND","ND"],
    [27876,"42744,125","27,8","1,6","ND","ND","ND","ND"],
    [27877,"42744,16667","25,4","1,5","ND","ND","ND","ND"],
    [27878,"42744,20833","25,3","1,6","ND","ND","ND","ND"],
    [27879,"42744,25","29","2,1","ND","ND","ND","ND"],
    [27880,"42744,29167","38,4","2,4","ND","ND","ND","ND"],
    [27881,"42744,33333","75,3","3,3","ND","ND","ND","ND"],
    [27882,"42744,375","86,9","7","ND","ND","ND","ND"],
    [27883,"42744,41667","76,6","6,3","ND","ND","ND","ND"],
    [27884,"42744,45833","63,9","5,4","ND","ND","ND","ND"],
    [27885,"42744,5","55,8","4,2","ND","ND","ND","ND"],
    [27886,"42744,54167","52,1","4,2","ND","ND","ND","ND"],
    [27887,"42744,58333","74,2","4,6","ND","ND","ND","ND"],
    [27888,"42744,625","72,8","4,6","ND","ND","ND","ND"],
    [27889,"42744,66667","59,9","3,4","ND","ND","ND","ND"],
    [27890,"42744,70833","53,2","1,6","ND","ND","ND","ND"],
    [27891,"42744,75","66,2","1,4","ND","ND","ND","ND"],
    [27892,"42744,79167","45,7","1,2","ND","ND","ND","ND"],
    [27893,"42744,83333","40,1","1","ND","ND","ND","ND"],
    [27894,"42744,875","35,5","1,5","ND","ND","ND","ND"],
    [27895,"42744,91667","33,2","2,1","ND","ND","ND","ND"],
    [27896,"42744,95833","62,1","2","ND","ND","ND","ND"],
    [27897,"42775","81,7","1,8","ND","ND","ND","ND"],
    [27898,"42775,04167","62,9","1,6","ND","ND","ND","ND"],
    [27899,"42775,08333","43,1","1,5","ND","ND","ND","ND"],
    [27900,"42775,125","40,2","1,4","ND","ND","ND","ND"],
    [27901,"42775,16667","45,1","1,5","ND","ND","ND","ND"],
    [27902,"42775,20833","36","1,4","ND","ND","ND","ND"],
    [27903,"42775,25","39,9","1,4","ND","ND","ND","ND"],
    [27904,"42775,29167","45,1","1,9","ND","ND","ND","ND"],
    [27905,"42775,33333","66,8","2,6","ND","ND","ND","ND"],
    [27906,"42775,375","93","4","ND","ND","ND","ND"],
    [27907,"42775,41667","100,9","6,2","ND","ND","ND","ND"],
    [27908,"42775,45833","67,5","6,8","ND","ND","ND","ND"],
    [27909,"42775,5","79","6,8","ND","ND","ND","ND"],
    [27910,"42775,54167","95,7","11,1","ND","ND","ND","ND"],
    [27911,"42775,58333","88,9","8","ND","ND","ND","ND"],
    [27912,"42775,625","75,5","9,3","ND","ND","ND","ND"],
    [27913,"42775,66667","88","9,8","ND","ND","ND","ND"],
    [27914,"42775,70833","71,9","1,8","ND","ND","ND","ND"],
    [27915,"42775,75","28,4","1,4","ND","ND","ND","ND"],
    [27916,"42775,79167","27,9","1,4","ND","ND","ND","ND"],
    [27917,"42775,83333","27,3","1,6","ND","ND","ND","ND"],
    [27918,"42775,875","25,8","1,8","ND","ND","ND","ND"],
    [27919,"42775,91667","35,9","1,6","ND","ND","ND","ND"],
    [27920,"42775,95833","43,4","1,9","ND","ND","ND","ND"],
    [27921,"42803","66,7","2,2","ND","ND","ND","ND"],
    [27922,"42803,04167","66,8","2,1","ND","ND","ND","ND"],
    [27923,"42803,08333","60,2","1,9","ND","ND","ND","ND"],
    [27924,"42803,125","46,4","1,7","ND","ND","ND","ND"],
    [27925,"42803,16667","42,8","1,6","ND","ND","ND","ND"],
    [27926,"42803,20833","35,8","1,6","ND","ND","ND","ND"],
    [27927,"42803,25","34,8","1,6","ND","ND","ND","ND"],
    [27928,"42803,29167","33","1,6","ND","ND","ND","ND"],
    [27929,"42803,33333","41,1","2,4","ND","ND","ND","ND"],
    [27930,"42803,375","50,6","6,9","ND","ND","ND","ND"],
    [27931,"42803,41667","50,9","7,1","ND","ND","ND","ND"],
    [27932,"42803,45833","44,6","5,3","ND","ND","ND","ND"],
    [27933,"42803,5","39,7","5","ND","ND","ND","ND"],
    [27934,"42803,54167","36,6","4,1","ND","ND","ND","ND"],
    [27935,"42803,58333","24","2,9","ND","ND","ND","ND"],
    [27936,"42803,625","20,5","2,8","ND","ND","ND","ND"],
    [27937,"42803,66667","25","2,7","ND","ND","ND","ND"],
    [27938,"42803,70833","27,2","3,6","ND","ND","ND","ND"],
    [27939,"42803,75","56,2","1,3","ND","ND","ND","ND"],
    [27940,"42803,79167","45,2","1,2","ND","ND","ND","ND"],
    [27941,"42803,83333","33,2","1","ND","ND","ND","ND"],
    [27942,"42803,875","35,4","0,9","ND","ND","ND","ND"],
    [27943,"42803,91667","26,3","1,2","ND","ND","ND","ND"],
    [27944,"42803,95833","19,3","1,5","ND","ND","ND","ND"],
    [27945,"42834","35,6","1,5","ND","ND","ND","ND"],
    [27946,"42834,04167","34,8","1,6","ND","ND","ND","ND"],
    [27947,"42834,08333","34,3","1,3","ND","ND","ND","ND"],
    [27948,"42834,125","29,8","1,3","ND","ND","ND","ND"],
    [27949,"42834,16667","25,7","1,2","ND","ND","ND","ND"],
    [27950,"42834,20833","27,8","1,8","ND","ND","ND","ND"],
    [27951,"42834,25","27,7","2,4","ND","ND","ND","ND"],
    [27952,"42834,29167","50,7","3,1","ND","ND","ND","ND"],
    [27953,"42834,33333","107,7","3,9","ND","ND","ND","ND"],
    [27954,"42834,375","72,8","9,1","ND","ND","ND","ND"],
    [27955,"42834,41667","59,5","7,9","ND","ND","ND","ND"],
    [27956,"42834,45833","58,9","7,5","ND","ND","ND","ND"],
    [27957,"42834,5","73,7","7,5","ND","ND","ND","ND"],
    [27958,"42834,54167","71,4","6,9","ND","ND","ND","ND"],
    [27959,"42834,58333","76,1","2,4","ND","ND","ND","ND"],
    [27960,"42834,625","39,6","1,2","ND","ND","ND","ND"],
    [27961,"42834,66667","25,2","1,1","ND","ND","ND","ND"],
    [27962,"42834,70833","30,7","1,1","ND","ND","ND","ND"],
    [27963,"42834,75","29,8","1,2","ND","ND","ND","ND"],
    [27964,"42834,79167","38,3","0,9","ND","ND","ND","ND"],
    [27965,"42834,83333","36,1","0,9","ND","ND","ND","ND"],
    [27966,"42834,875","24,5","1,2","ND","ND","ND","ND"],
    [27967,"42834,91667","19,5","1,6","ND","ND","ND","ND"],
    [27968,"42834,95833","37,7","2","ND","ND","ND","ND"],
    [27969,"42864","54,3","2,1","ND","ND","ND","ND"],
    [27970,"42864,04167","47,5","1,9","ND","ND","ND","ND"],
    [27971,"42864,08333","40","1,5","ND","ND","ND","ND"],
    [27972,"42864,125","35,9","1,6","ND","ND","ND","ND"],
    [27973,"42864,16667","30,5","1,3","ND","ND","ND","ND"],
    [27974,"42864,20833","26,6","1,5","ND","ND","ND","ND"],
    [27975,"42864,25","31,1","2,2","ND","ND","ND","ND"],
    [27976,"42864,29167","62,1","3,3","ND","ND","ND","ND"],
    [27977,"42864,33333","76,4","6,1","ND","ND","ND","ND"],
    [27978,"42864,375","81,7","10,1","ND","ND","ND","ND"],
    [27979,"42864,41667","84,2","8,8","ND","ND","ND","ND"],
    [27980,"42864,45833","62,8","6,9","ND","ND","ND","ND"],
    [27981,"42864,5","58,5","5,3","ND","ND","ND","ND"],
    [27982,"42864,54167","65,5","5,2","ND","ND","ND","ND"],
    [27983,"42864,58333","80,1","5,1","ND","ND","ND","ND"],
    [27984,"42864,625","69","1,5","ND","ND","ND","ND"],
    [27985,"42864,66667","27,9","1,4","ND","ND","ND","ND"],
    [27986,"42864,70833","30,2","1,3","ND","ND","ND","ND"],
    [27987,"42864,75","23,2","1","ND","ND","ND","ND"],
    [27988,"42864,79167","22,7","1","ND","ND","ND","ND"],
    [27989,"42864,83333","23,2","0,9","ND","ND","ND","ND"],
    [27990,"42864,875","18,9","1,3","ND","ND","ND","ND"],
    [27991,"42864,91667","22,7","2","ND","ND","ND","ND"],
    [27992,"42864,95833","53,8","2,3","ND","ND","ND","ND"],
    [27993,"42895","55,9","1,5","ND","ND","ND","ND"],
    [27994,"42895,04167","25,4","1,5","ND","ND","ND","ND"],
    [27995,"42895,08333","37,7","1,5","ND","ND","ND","ND"],
    [27996,"42895,125","24,3","1,4","ND","ND","ND","ND"],
    [27997,"42895,16667","29,6","1,3","ND","ND","ND","ND"],
    [27998,"42895,20833","27,4","1,5","ND","ND","ND","ND"],
    [27999,"42895,25","35,8","1,7","ND","ND","ND","ND"],
    [28000,"42895,29167","47,2","3","ND","ND","ND","ND"],
    [28001,"42895,33333","78,5","3,7","ND","ND","ND","ND"],
    [28002,"42895,375","64,4","1,9","ND","ND","ND","ND"],
    [28003,"42895,41667","16,9","1,5","ND","ND","ND","ND"],
    [28004,"42895,45833","22,3","1,7","ND","ND","ND","ND"],
    [28005,"42895,5","27,9","1,7","ND","ND","ND","ND"],
    [28006,"42895,54167","35,2","1,7","ND","ND","ND","ND"],
    [28007,"42895,58333","38,6","1,7","ND","ND","ND","ND"],
    [28008,"42895,625","42","1,4","ND","ND","ND","ND"],
    [28009,"42895,66667","41,8","1,2","ND","ND","ND","ND"],
    [28010,"42895,70833","21,3","0,9","ND","ND","ND","ND"],
    [28011,"42895,75","22,9","0,9","ND","ND","ND","ND"],
    [28012,"42895,79167","15","1","ND","ND","ND","ND"],
    [28013,"42895,83333","15","1","ND","ND","ND","ND"],
    [28014,"42895,875","16,9","1,2","ND","ND","ND","ND"],
    [28015,"42895,91667","26,4","1,6","ND","ND","ND","ND"],
    [28016,"42895,95833","62,4","2,2","ND","ND","ND","ND"],
    [28017,"42925","55,3","3,6","ND","ND","ND","ND"],
    [28018,"42925,04167","59,7","2,3","ND","ND","ND","ND"],
    [28019,"42925,08333","44,6","2,5","ND","ND","ND","ND"],
    [28020,"42925,125","47,3","2,7","ND","ND","ND","ND"],
    [28021,"42925,16667","47,4","2,5","ND","ND","ND","ND"],
    [28022,"42925,20833","43,6","1,6","ND","ND","ND","ND"],
    [28023,"42925,25","20,7","1,1","ND","ND","ND","ND"],
    [28024,"42925,29167","21,3","1,4","ND","ND","ND","ND"],
    [28025,"42925,33333","22,7","1,5","ND","ND","ND","ND"],
    [28026,"42925,375","18","2","ND","ND","ND","ND"],
    [28027,"42925,41667","46,4","1,9","ND","ND","ND","ND"],
    [28028,"42925,45833","34,8","1,8","ND","ND","ND","ND"],
    [28029,"42925,5","31,9","2,1","ND","ND","ND","ND"],
    [28030,"42925,54167","41,9","2","ND","ND","ND","ND"],
    [28031,"42925,58333","53,5","3,4","ND","ND","ND","ND"],
    [28032,"42925,625","47,2","3,5","ND","ND","ND","ND"],
    [28033,"42925,66667","43,6","1,6","ND","ND","ND","ND"],
    [28034,"42925,70833","11","1,3","ND","ND","ND","ND"],
    [28035,"42925,75","10,4","1,2","ND","ND","ND","ND"],
    [28036,"42925,79167","16","1,2","ND","ND","ND","ND"],
    [28037,"42925,83333","16,6","1","ND","ND","ND","ND"],
    [28038,"42925,875","12,7","0,9","ND","ND","ND","ND"],
    [28039,"42925,91667","10,4","1,4","ND","ND","ND","ND"],
    [28040,"42925,95833","59,2","2,1","ND","ND","ND","ND"],
    [28041,"42956","62,3","1,9","ND","ND","ND","ND"],
    [28042,"42956,04167","51,8","1,4","ND","ND","ND","ND"],
    [28043,"42956,08333","29,8","1,2","ND","ND","ND","ND"],
    [28044,"42956,125","29","1,1","ND","ND","ND","ND"],
    [28045,"42956,16667","31,1","1,1","ND","ND","ND","ND"],
    [28046,"42956,20833","36,2","1,7","ND","ND","ND","ND"],
    [28047,"42956,25","48,4","4,3","ND","ND","ND","ND"],
    [28048,"42956,29167","71,1","3,9","ND","ND","ND","ND"],
    [28049,"42956,33333","71,5","4,7","ND","ND","ND","ND"],
    [28050,"42956,375","59,8","7","ND","ND","ND","ND"],
    [28051,"42956,41667","55,5","5,2","ND","ND","ND","ND"],
    [28052,"42956,45833","61,7","4,2","ND","ND","ND","ND"],
    [28053,"42956,5","51,3","3,1","ND","ND","ND","ND"],
    [28054,"42956,54167","40,1","2,3","ND","ND","ND","ND"],
    [28055,"42956,58333","10,5","1,9","ND","ND","ND","ND"],
    [28056,"42956,625","26,6","1,5","ND","ND","ND","ND"],
    [28057,"42956,66667","16,2","1,1","ND","ND","ND","ND"],
    [28058,"42956,70833","29,5","1","ND","ND","ND","ND"],
    [28059,"42956,75","30","1","ND","ND","ND","ND"],
    [28060,"42956,79167","31","1,2","ND","ND","ND","ND"],
    [28061,"42956,83333","49","1,5","ND","ND","ND","ND"],
    [28062,"42956,875","50,4","2,6","ND","ND","ND","ND"],
    [28063,"42956,91667","70,4","2,1","ND","ND","ND","ND"],
    [28064,"42956,95833","55,8","2","ND","ND","ND","ND"],
    [28065,"42987","56,6","2,2","ND","ND","ND","ND"],
    [28066,"42987,04167","47,9","1,8","ND","ND","ND","ND"],
    [28067,"42987,08333","46,5","1,8","ND","ND","ND","ND"],
    [28068,"42987,125","34","1,8","ND","ND","ND","ND"],
    [28069,"42987,16667","36,2","1,7","ND","ND","ND","ND"],
    [28070,"42987,20833","40","1,7","ND","ND","ND","ND"],
    [28071,"42987,25","35,8","1,8","ND","ND","ND","ND"],
    [28072,"42987,29167","38,7","2","ND","ND","ND","ND"],
    [28073,"42987,33333","40,4","2,5","ND","ND","ND","ND"],
    [28074,"42987,375","69,3","2,7","ND","ND","ND","ND"],
    [28075,"42987,41667","71,6","2,8","ND","ND","ND","ND"],
    [28076,"42987,45833","61,4","3,1","ND","ND","ND","ND"],
    [28077,"42987,5","47,3","3,9","ND","ND","ND","ND"],
    [28078,"42987,54167","54,2","4,7","ND","ND","ND","ND"],
    [28079,"42987,58333","51,1","3,7","ND","ND","ND","ND"],
    [28080,"42987,625","44,1","2,8","ND","ND","ND","ND"],
    [28081,"42987,66667","34,1","1,4","ND","ND","ND","ND"],
    [28082,"42987,70833","9,9","1,3","ND","ND","ND","ND"],
    [28083,"42987,75","14,8","1,4","ND","ND","ND","ND"],
    [28084,"42987,79167","20,1","1,3","ND","ND","ND","ND"],
    [28085,"42987,83333","15,6","1,1","ND","ND","ND","ND"],
    [28086,"42987,875","14,5","1,4","ND","ND","ND","ND"],
    [28087,"42987,91667","33,5","1,4","ND","ND","ND","ND"],
    [28088,"42987,95833","25,2","1,3","ND","ND","ND","ND"],
    [28089,"43017","41,1","1,3","ND","ND","ND","ND"],
    [28090,"43017,04167","31,4","1","ND","ND","ND","ND"],
    [28091,"43017,08333","25,9","0,9","ND","ND","ND","ND"],
    [28092,"43017,125","29,2","1","ND","ND","ND","ND"],
    [28093,"43017,16667","33,3","1","ND","ND","ND","ND"],
    [28094,"43017,20833","33,9","1,2","ND","ND","ND","ND"],
    [28095,"43017,25","39,5","1,3","ND","ND","ND","ND"],
    [28096,"43017,29167","44,2","1,6","ND","ND","ND","ND"],
    [28097,"43017,33333","40,2","2,4","ND","ND","ND","ND"],
    [28098,"43017,375","45,5","2,4","ND","ND","ND","ND"],
    [28099,"43017,41667","36,2","2,8","ND","ND","ND","ND"],
    [28100,"43017,45833","32,1","2,5","ND","ND","ND","ND"],
    [28101,"43017,5","36,9","2,6","ND","ND","ND","ND"],
    [28102,"43017,54167","44,6","3","ND","ND","ND","ND"],
    [28103,"43017,58333","39,4","4,1","ND","ND","ND","ND"],
    [28104,"43017,625","33","4","ND","ND","ND","ND"],
    [28105,"43017,66667","26,8","4,5","ND","ND","ND","ND"],
    [28106,"43017,70833","18","3,4","ND","ND","ND","ND"],
    [28107,"43017,75","13","1,4","ND","ND","ND","ND"],
    [28108,"43017,79167","15,9","1,2","ND","ND","ND","ND"],
    [28109,"43017,83333","15,2","1,2","ND","ND","ND","ND"],
    [28110,"43017,875","18,7","1,5","ND","ND","ND","ND"],
    [28111,"43017,91667","28,4","1,5","ND","ND","ND","ND"],
    [28112,"43017,95833","37,5","1,5","ND","ND","ND","ND"],
    [28113,"43048","35,4","1,5","ND","ND","ND","ND"],
    [28114,"43048,04167","37,4","1,4","ND","ND","ND","ND"],
    [28115,"43048,08333","27,5","1,2","ND","ND","ND","ND"],
    [28116,"43048,125","24,5","1,2","ND","ND","ND","ND"],
    [28117,"43048,16667","24,3","1","ND","ND","ND","ND"],
    [28118,"43048,20833","23,8","1,2","ND","ND","ND","ND"],
    [28119,"43048,25","26,9","1,6","ND","ND","ND","ND"],
    [28120,"43048,29167","71,1","1,8","ND","ND","ND","ND"],
    [28121,"43048,33333","69,8","2","ND","ND","ND","ND"],
    [28122,"43048,375","ND","ND","ND","ND","ND","ND"],
    [28123,"43048,41667","ND","ND","ND","ND","ND","ND"],
    [28124,"43048,45833","ND","ND","ND","ND","ND","ND"],
    [28125,"43048,5","ND","ND","ND","ND","ND","ND"],
    [28126,"43048,54167","ND","ND","ND","ND","ND","ND"],
    [28127,"43048,58333","ND","ND","ND","ND","ND","ND"],
    [28128,"43048,625","57,9","1,7","ND","ND","ND","ND"],
    [28129,"43048,66667","21,1","1,4","ND","ND","ND","ND"],
    [28130,"43048,70833","27,4","1,3","ND","ND","ND","ND"],
    [28131,"43048,75","18,5","1","ND","ND","ND","ND"],
    [28132,"43048,79167","22,9","1,1","ND","ND","ND","ND"],
    [28133,"43048,83333","13,8","1,1","ND","ND","ND","ND"],
    [28134,"43048,875","12,3","1","ND","ND","ND","ND"],
    [28135,"43048,91667","12,7","1,6","ND","ND","ND","ND"],
    [28136,"43048,95833","36,8","1,9","ND","ND","ND","ND"],
    [28137,"43078","51,5","1,7","ND","ND","ND","ND"],
    [28138,"43078,04167","35,1","1,5","ND","ND","ND","ND"],
    [28139,"43078,08333","33,2","1,8","ND","ND","ND","ND"],
    [28140,"43078,125","29,7","2","ND","ND","ND","ND"],
    [28141,"43078,16667","28,8","1,6","ND","ND","ND","ND"],
    [28142,"43078,20833","26,3","1,7","ND","ND","ND","ND"],
    [28143,"43078,25","28,3","2,2","ND","ND","ND","ND"],
    [28144,"43078,29167","44,9","3","ND","ND","ND","ND"],
    [28145,"43078,33333","70,8","3,9","ND","ND","ND","ND"],
    [28146,"43078,375","70,6","11","ND","ND","ND","ND"],
    [28147,"43078,41667","88,8","18,6","ND","ND","ND","ND"],
    [28148,"43078,45833","85,7","11,5","ND","ND","ND","ND"],
    [28149,"43078,5","67,9","6,6","ND","ND","ND","ND"],
    [28150,"43078,54167","70,5","6,4","ND","ND","ND","ND"],
    [28151,"43078,58333","67,3","4,7","ND","ND","ND","ND"],
    [28152,"43078,625","45","4,5","ND","ND","ND","ND"],
    [28153,"43078,66667","55,8","2,9","ND","ND","ND","ND"],
    [28154,"43078,70833","32,9","1,8","ND","ND","ND","ND"],
    [28155,"43078,75","9,4","1,5","ND","ND","ND","ND"],
    [28156,"43078,79167","7,3","1,4","ND","ND","ND","ND"],
    [28157,"43078,83333","13,5","1,7","ND","ND","ND","ND"],
    [28158,"43078,875","21,6","2,1","ND","ND","ND","ND"],
    [28159,"43078,91667","30","2,4","ND","ND","ND","ND"],
    [28160,"43078,95833","50,4","2,5","ND","ND","ND","ND"],
    [28161,"09/13/2017 00:00","48,7","3,1","ND","ND","ND","ND"],
    [28162,"09/13/2017 01:00","52,4","4,1","ND","ND","ND","ND"],
    [28163,"09/13/2017 02:00","46,2","4,5","ND","ND","ND","ND"],
    [28164,"09/13/2017 03:00","42,1","3,7","ND","ND","ND","ND"],
    [28165,"09/13/2017 04:00","42,2","2,3","ND","ND","ND","ND"],
    [28166,"09/13/2017 05:00","23,9","1,9","ND","ND","ND","ND"],
    [28167,"09/13/2017 06:00","5,8","2,5","ND","ND","ND","ND"],
    [28168,"09/13/2017 07:00","13","2,3","ND","ND","ND","ND"],
    [28169,"09/13/2017 08:00","31,5","2,3","ND","ND","ND","ND"],
    [28170,"09/13/2017 09:00","42,9","2,5","ND","ND","ND","ND"],
    [28171,"09/13/2017 10:00","41,4","2,6","ND","ND","ND","ND"],
    [28172,"09/13/2017 11:00","44,7","2,3","ND","ND","ND","ND"],
    [28173,"09/13/2017 12:00","37,8","2","ND","ND","ND","ND"],
    [28174,"09/13/2017 13:00","38,8","1,9","ND","ND","ND","ND"],
    [28175,"09/13/2017 14:00","34,9","2,1","ND","ND","ND","ND"],
    [28176,"09/13/2017 15:00","35,5","2,2","ND","ND","ND","ND"],
    [28177,"09/13/2017 16:00","39,8","2,2","ND","ND","ND","ND"],
    [28178,"09/13/2017 17:00","62,1","1,9","ND","ND","ND","ND"],
    [28179,"09/13/2017 18:00","32,3","1,3","ND","ND","ND","ND"],
    [28180,"09/13/2017 19:00","15,3","1,3","ND","ND","ND","ND"],
    [28181,"09/13/2017 20:00","21,6","1,2","ND","ND","ND","ND"],
    [28182,"09/13/2017 21:00","15,3","1,1","ND","ND","ND","ND"],
    [28183,"09/13/2017 22:00","12,9","1,4","ND","ND","ND","ND"],
    [28184,"09/13/2017 23:00","22","1,6","ND","ND","ND","ND"],
    [28185,"09/14/2017 00:00","47,3","2,1","ND","ND","ND","ND"],
    [28186,"09/14/2017 01:00","49,2","2,2","ND","ND","ND","ND"],
    [28187,"09/14/2017 02:00","48,6","1,9","ND","ND","ND","ND"],
    [28188,"09/14/2017 03:00","43,1","1,5","ND","ND","ND","ND"],
    [28189,"09/14/2017 04:00","32,2","1,4","ND","ND","ND","ND"],
    [28190,"09/14/2017 05:00","35,3","1,6","ND","ND","ND","ND"],
    [28191,"09/14/2017 06:00","40,5","2","ND","ND","ND","ND"],
    [28192,"09/14/2017 07:00","59,2","2,4","ND","ND","ND","ND"],
    [28193,"09/14/2017 08:00","86,6","3,2","ND","ND","ND","ND"],
    [28194,"09/14/2017 09:00","83,7","4,3","ND","ND","ND","ND"],
    [28195,"09/14/2017 10:00","101,3","4","ND","ND","ND","ND"],
    [28196,"09/14/2017 11:00","70,3","4,3","ND","ND","ND","ND"],
    [28197,"09/14/2017 12:00","71,8","4","ND","ND","ND","ND"],
    [28198,"09/14/2017 13:00","79,8","4,3","ND","ND","ND","ND"],
    [28199,"09/14/2017 14:00","75,7","5,6","ND","ND","ND","ND"],
    [28200,"09/14/2017 15:00","70,9","6,1","ND","ND","ND","ND"],
    [28201,"09/14/2017 16:00","71,7","2","ND","ND","ND","ND"],
    [28202,"09/14/2017 17:00","31,9","1,6","ND","ND","ND","ND"],
    [28203,"09/14/2017 18:00","25,3","1,3","ND","ND","ND","ND"],
    [28204,"09/14/2017 19:00","22,8","1,3","ND","ND","ND","ND"],
    [28205,"09/14/2017 20:00","18,3","1,1","ND","ND","ND","ND"],
    [28206,"09/14/2017 21:00","19,3","1,2","ND","ND","ND","ND"],
    [28207,"09/14/2017 22:00","16,3","1,2","ND","ND","ND","ND"],
    [28208,"09/14/2017 23:00","14,8","2,3","ND","ND","ND","ND"],
    [28209,"09/15/2017 00:00","48","1,8","ND","ND","ND","ND"],
    [28210,"09/15/2017 01:00","54,3","1,9","ND","ND","ND","ND"],
    [28211,"09/15/2017 02:00","46,4","1,7","ND","ND","ND","ND"],
    [28212,"09/15/2017 03:00","33,6","1,9","ND","ND","ND","ND"],
    [28213,"09/15/2017 04:00","37,3","1,5","ND","ND","ND","ND"],
    [28214,"09/15/2017 05:00","31","1,4","ND","ND","ND","ND"],
    [28215,"09/15/2017 06:00","5,4","1,4","ND","ND","ND","ND"],
    [28216,"09/15/2017 07:00","13,9","1,8","ND","ND","ND","ND"],
    [28217,"09/15/2017 08:00","25,9","1,6","ND","ND","ND","ND"],
    [28218,"09/15/2017 09:00","29,3","1,4","ND","ND","ND","ND"],
    [28219,"09/15/2017 10:00","26,5","1,4","ND","ND","ND","ND"],
    [28220,"09/15/2017 11:00","25","1,4","ND","ND","ND","ND"],
    [28221,"09/15/2017 12:00","24,9","1,2","ND","ND","ND","ND"],
    [28222,"09/15/2017 13:00","14,5","1,1","ND","ND","ND","ND"],
    [28223,"09/15/2017 14:00","25,6","1,4","ND","ND","ND","ND"],
    [28224,"09/15/2017 15:00","17,4","1,3","ND","ND","ND","ND"],
    [28225,"09/15/2017 16:00","23,6","1,3","ND","ND","ND","ND"],
    [28226,"09/15/2017 17:00","41,5","1,1","ND","ND","ND","ND"],
    [28227,"09/15/2017 18:00","11,8","1","ND","ND","ND","ND"],
    [28228,"09/15/2017 19:00","18,3","1,1","ND","ND","ND","ND"],
    [28229,"09/15/2017 20:00","14,2","1","ND","ND","ND","ND"],
    [28230,"09/15/2017 21:00","13,5","1,7","ND","ND","ND","ND"],
    [28231,"09/15/2017 22:00","30,9","1,4","ND","ND","ND","ND"],
    [28232,"09/15/2017 23:00","60,5","1,8","ND","ND","ND","ND"],
    [28233,"09/16/2017 00:00","46,3","1,4","ND","ND","ND","ND"],
    [28234,"09/16/2017 01:00","44,4","1,2","ND","ND","ND","ND"],
    [28235,"09/16/2017 02:00","36,3","1,4","ND","ND","ND","ND"],
    [28236,"09/16/2017 03:00","24,8","1,5","ND","ND","ND","ND"],
    [28237,"09/16/2017 04:00","34,4","1,3","ND","ND","ND","ND"],
    [28238,"09/16/2017 05:00","33,4","1,2","ND","ND","ND","ND"],
    [28239,"09/16/2017 06:00","22,4","0,9","ND","ND","ND","ND"],
    [28240,"09/16/2017 07:00","9,7","1,2","ND","ND","ND","ND"],
    [28241,"09/16/2017 08:00","26,4","1,3","ND","ND","ND","ND"],
    [28242,"09/16/2017 09:00","34,9","1,1","ND","ND","ND","ND"],
    [28243,"09/16/2017 10:00","35,8","1,3","ND","ND","ND","ND"],
    [28244,"09/16/2017 11:00","45,5","1,5","ND","ND","ND","ND"],
    [28245,"09/16/2017 12:00","47,6","1,5","ND","ND","ND","ND"],
    [28246,"09/16/2017 13:00","40,7","1,6","ND","ND","ND","ND"],
    [28247,"09/16/2017 14:00","51,2","1,8","ND","ND","ND","ND"],
    [28248,"09/16/2017 15:00","47,5","1,9","ND","ND","ND","ND"],
    [28249,"09/16/2017 16:00","36,5","1,5","ND","ND","ND","ND"],
    [28250,"09/16/2017 17:00","7,7","1,4","ND","ND","ND","ND"],
    [28251,"09/16/2017 18:00","13,7","1,1","ND","ND","ND","ND"],
    [28252,"09/16/2017 19:00","13,2","1","ND","ND","ND","ND"],
    [28253,"09/16/2017 20:00","20","1,2","ND","ND","ND","ND"],
    [28254,"09/16/2017 21:00","21,3","1","ND","ND","ND","ND"],
    [28255,"09/16/2017 22:00","14,6","1,3","ND","ND","ND","ND"],
    [28256,"09/16/2017 23:00","22,2","1,7","ND","ND","ND","ND"],
    [28257,"09/17/2017 00:00","59,6","1,7","ND","ND","ND","ND"],
    [28258,"09/17/2017 01:00","50,8","1,7","ND","ND","ND","ND"],
    [28259,"09/17/2017 02:00","52,6","1,5","ND","ND","ND","ND"],
    [28260,"09/17/2017 03:00","58,8","1,7","ND","ND","ND","ND"],
    [28261,"09/17/2017 04:00","48,2","1,8","ND","ND","ND","ND"],
    [28262,"09/17/2017 05:00","42,6","2,1","ND","ND","ND","ND"],
    [28263,"09/17/2017 06:00","43,1","2,2","ND","ND","ND","ND"],
    [28264,"09/17/2017 07:00","43,1","2,1","ND","ND","ND","ND"],
    [28265,"09/17/2017 08:00","51","1,9","ND","ND","ND","ND"],
    [28266,"09/17/2017 09:00","48,3","2","ND","ND","ND","ND"],
    [28267,"09/17/2017 10:00","47","2,4","ND","ND","ND","ND"],
    [28268,"09/17/2017 11:00","52,8","1,7","ND","ND","ND","ND"],
    [28269,"09/17/2017 12:00","41,4","1","ND","ND","ND","ND"],
    [28270,"09/17/2017 13:00","25,6","1,1","ND","ND","ND","ND"],
    [28271,"09/17/2017 14:00","38,5","1","ND","ND","ND","ND"],
    [28272,"09/17/2017 15:00","28,3","1,2","ND","ND","ND","ND"],
    [28273,"09/17/2017 16:00","27,4","1,8","ND","ND","ND","ND"],
    [28274,"09/17/2017 17:00","39,9","1,7","ND","ND","ND","ND"],
    [28275,"09/17/2017 18:00","17,4","1,3","ND","ND","ND","ND"],
    [28276,"09/17/2017 19:00","12","1,1","ND","ND","ND","ND"],
    [28277,"09/17/2017 20:00","16,7","1","ND","ND","ND","ND"],
    [28278,"09/17/2017 21:00","11,8","1,1","ND","ND","ND","ND"],
    [28279,"09/17/2017 22:00","13,4","1,3","ND","ND","ND","ND"],
    [28280,"09/17/2017 23:00","21,2","1,3","ND","ND","ND","ND"],
    [28281,"09/18/2017 00:00","45","1,6","ND","ND","ND","ND"],
    [28282,"09/18/2017 01:00","38,5","1,2","ND","ND","ND","ND"],
    [28283,"09/18/2017 02:00","35,9","1,3","ND","ND","ND","ND"],
    [28284,"09/18/2017 03:00","65,9","1,3","ND","ND","ND","ND"],
    [28285,"09/18/2017 04:00","29,5","1,3","ND","ND","ND","ND"],
    [28286,"09/18/2017 05:00","32,9","2,2","ND","ND","ND","ND"],
    [28287,"09/18/2017 06:00","35,7","2,8","ND","ND","ND","ND"],
    [28288,"09/18/2017 07:00","52","2,2","ND","ND","ND","ND"],
    [28289,"09/18/2017 08:00","73,8","2,8","ND","ND","ND","ND"],
    [28290,"09/18/2017 09:00","101,2","6","ND","ND","ND","ND"],
    [28291,"09/18/2017 10:00","113,3","6,4","ND","ND","ND","ND"],
    [28292,"09/18/2017 11:00","71,3","3,8","ND","ND","ND","ND"],
    [28293,"09/18/2017 12:00","ND","2,9","ND","ND","ND","ND"],
    [28294,"09/18/2017 13:00","ND","ND","ND","ND","ND","ND"],
    [28295,"09/18/2017 14:00","ND","ND","ND","ND","ND","ND"],
    [28296,"09/18/2017 15:00","ND","ND","ND","ND","ND","ND"],
    [28297,"09/18/2017 16:00","ND","1,3","ND","ND","ND","ND"],
    [28298,"09/18/2017 17:00","47,2","1","ND","ND","ND","ND"],
    [28299,"09/18/2017 18:00","27","0,9","ND","ND","ND","ND"],
    [28300,"09/18/2017 19:00","22,1","0,9","ND","ND","ND","ND"],
    [28301,"09/18/2017 20:00","20,2","0,9","ND","ND","ND","ND"],
    [28302,"09/18/2017 21:00","17,8","0,9","ND","ND","ND","ND"],
    [28303,"09/18/2017 22:00","18,1","1,4","ND","ND","ND","ND"],
    [28304,"09/18/2017 23:00","27,6","1,2","ND","ND","ND","ND"],
    [28305,"09/19/2017 00:00","8,9","1","ND","ND","ND","ND"],
    [28306,"09/19/2017 01:00","30,2","0,9","ND","ND","ND","ND"],
    [28307,"09/19/2017 02:00","20","1","ND","ND","ND","ND"],
    [28308,"09/19/2017 03:00","12","1,1","ND","ND","ND","ND"],
    [28309,"09/19/2017 04:00","8,2","1,4","ND","ND","ND","ND"],
    [28310,"09/19/2017 05:00","13,3","2,3","ND","ND","ND","ND"],
    [28311,"09/19/2017 06:00","17,6","2,7","ND","ND","ND","ND"],
    [28312,"09/19/2017 07:00","17,9","4,7","ND","ND","ND","ND"],
    [28313,"09/19/2017 08:00","36,2","4","ND","ND","ND","ND"],
    [28314,"09/19/2017 09:00","46","2,2","ND","ND","ND","ND"],
    [28315,"09/19/2017 10:00","39,9","1,3","ND","ND","ND","ND"],
    [28316,"09/19/2017 11:00","41","2,1","ND","ND","ND","ND"],
    [28317,"09/19/2017 12:00","55,3","2,3","ND","ND","ND","ND"],
    [28318,"09/19/2017 13:00","47,1","1,7","ND","ND","ND","ND"],
    [28319,"09/19/2017 14:00","42,7","1,7","ND","ND","ND","ND"],
    [28320,"09/19/2017 15:00","39,8","1,7","ND","ND","ND","ND"],
    [28321,"09/19/2017 16:00","47,4","1,7","ND","ND","ND","ND"],
    [28322,"09/19/2017 17:00","43,2","1,9","ND","ND","ND","ND"],
    [28323,"09/19/2017 18:00","48,5","1,2","ND","ND","ND","ND"],
    [28324,"09/19/2017 19:00","50,8","1","ND","ND","ND","ND"],
    [28325,"09/19/2017 20:00","25,3","0,9","ND","ND","ND","ND"],
    [28326,"09/19/2017 21:00","20,5","0,8","ND","ND","ND","ND"],
    [28327,"09/19/2017 22:00","8,6","1","ND","ND","ND","ND"],
    [28328,"09/19/2017 23:00","21,6","1,3","ND","ND","ND","ND"],
    [28329,"09/20/2017 00:00","65,3","1","ND","ND","ND","ND"],
    [28330,"09/20/2017 01:00","52","0,7","ND","ND","ND","ND"],
    [28331,"09/20/2017 02:00","44,4","0,7","ND","ND","ND","ND"],
    [28332,"09/20/2017 03:00","35,4","1","ND","ND","ND","ND"],
    [28333,"09/20/2017 04:00","34,4","1,1","ND","ND","ND","ND"],
    [28334,"09/20/2017 05:00","40,1","1,5","ND","ND","ND","ND"],
    [28335,"09/20/2017 06:00","39,2","1,3","ND","ND","ND","ND"],
    [28336,"09/20/2017 07:00","67,2","1,7","ND","ND","ND","ND"],
    [28337,"09/20/2017 08:00","84,9","2,2","ND","ND","ND","ND"],
    [28338,"09/20/2017 09:00","85,2","ND","ND","ND","ND","ND"],
    [28339,"09/20/2017 10:00","88,6","ND","ND","ND","ND","ND"],
    [28340,"09/20/2017 11:00","ND","ND","ND","ND","ND","ND"],
    [28341,"09/20/2017 12:00","ND","ND","ND","ND","ND","ND"],
    [28342,"09/20/2017 13:00","ND","ND","ND","ND","ND","ND"],
    [28343,"09/20/2017 14:00","ND","ND","ND","ND","ND","ND"],
    [28344,"09/20/2017 15:00","ND","ND","ND","ND","ND","ND"],
    [28345,"09/20/2017 16:00","ND","ND","ND","ND","ND","ND"],
    [28346,"09/20/2017 17:00","ND","ND","ND","ND","ND","ND"],
    [28347,"09/20/2017 18:00","ND","ND","ND","ND","ND","ND"],
    [28348,"09/20/2017 19:00","ND","ND","ND","ND","ND","ND"],
    [28349,"09/20/2017 20:00","ND","ND","ND","ND","ND","ND"],
    [28350,"09/20/2017 21:00","ND","ND","ND","ND","ND","ND"],
    [28351,"09/20/2017 22:00","ND","ND","ND","ND","ND","ND"],
    [28352,"09/20/2017 23:00","ND","ND","ND","ND","ND","ND"],
    [28353,"09/21/2017 00:00","ND","ND","ND","ND","ND","ND"],
    [28354,"09/21/2017 01:00","ND","ND","ND","ND","ND","ND"],
    [28355,"09/21/2017 02:00","ND","ND","ND","ND","ND","ND"],
    [28356,"09/21/2017 03:00","ND","ND","ND","ND","ND","ND"],
    [28357,"09/21/2017 04:00","ND","ND","ND","ND","ND","ND"],
    [28358,"09/21/2017 05:00","ND","ND","ND","ND","ND","ND"],
    [28359,"09/21/2017 06:00","ND","ND","ND","ND","ND","ND"],
    [28360,"09/21/2017 07:00","ND","ND","ND","ND","ND","ND"],
    [28361,"09/21/2017 08:00","ND","ND","ND","ND","ND","ND"],
    [28362,"09/21/2017 09:00","ND","ND","ND","ND","ND","ND"],
    [28363,"09/21/2017 10:00","ND","ND","ND","ND","ND","ND"],
    [28364,"09/21/2017 11:00","ND","ND","ND","ND","ND","ND"],
    [28365,"09/21/2017 12:00","ND","ND","ND","ND","ND","ND"],
    [28366,"09/21/2017 13:00","ND","ND","ND","ND","ND","ND"],
    [28367,"09/21/2017 14:00","ND","ND","ND","ND","ND","ND"],
    [28368,"09/21/2017 15:00","ND","ND","ND","ND","ND","ND"],
    [28369,"09/21/2017 16:00","ND","ND","ND","ND","ND","ND"],
    [28370,"09/21/2017 17:00","ND","ND","ND","ND","ND","ND"],
    [28371,"09/21/2017 18:00","ND","ND","ND","ND","ND","ND"],
    [28372,"09/21/2017 19:00","ND","ND","ND","ND","ND","ND"],
    [28373,"09/21/2017 20:00","ND","ND","ND","ND","ND","ND"],
    [28374,"09/21/2017 21:00","ND","ND","ND","ND","ND","ND"],
    [28375,"09/21/2017 22:00","ND","ND","ND","ND","ND","ND"],
    [28376,"09/21/2017 23:00","ND","ND","ND","ND","ND","ND"],
    [28377,"09/22/2017 00:00","ND","ND","ND","ND","ND","ND"],
    [28378,"09/22/2017 01:00","ND","ND","ND","ND","ND","ND"],
    [28379,"09/22/2017 02:00","ND","ND","ND","ND","ND","ND"],
    [28380,"09/22/2017 03:00","ND","ND","ND","ND","ND","ND"],
    [28381,"09/22/2017 04:00","ND","ND","ND","ND","ND","ND"],
    [28382,"09/22/2017 05:00","ND","ND","ND","ND","ND","ND"],
    [28383,"09/22/2017 06:00","ND","ND","ND","ND","ND","ND"],
    [28384,"09/22/2017 07:00","ND","ND","ND","ND","ND","ND"],
    [28385,"09/22/2017 08:00","ND","ND","ND","ND","ND","ND"],
    [28386,"09/22/2017 09:00","ND","ND","ND","ND","ND","ND"],
    [28387,"09/22/2017 10:00","ND","ND","ND","ND","ND","ND"],
    [28388,"09/22/2017 11:00","ND","ND","ND","ND","ND","ND"],
    [28389,"09/22/2017 12:00","ND","ND","ND","ND","ND","ND"],
    [28390,"09/22/2017 13:00","ND","ND","ND","ND","ND","ND"],
    [28391,"09/22/2017 14:00","ND","ND","ND","ND","ND","ND"],
    [28392,"09/22/2017 15:00","54,2","1,8","ND","ND","ND","ND"],
    [28393,"09/22/2017 16:00","22,9","1","ND","ND","ND","ND"],
    [28394,"09/22/2017 17:00","20,8","1","ND","ND","ND","ND"],
    [28395,"09/22/2017 18:00","27,1","0,9","ND","ND","ND","ND"],
    [28396,"09/22/2017 19:00","28,7","0,9","ND","ND","ND","ND"],
    [28397,"09/22/2017 20:00","21","0,9","ND","ND","ND","ND"],
    [28398,"09/22/2017 21:00","15,2","0,9","ND","ND","ND","ND"],
    [28399,"09/22/2017 22:00","12,6","1,5","ND","ND","ND","ND"],
    [28400,"09/22/2017 23:00","29,5","2,1","ND","ND","ND","ND"],
    [28401,"09/23/2017 00:00","50,4","1,7","ND","ND","ND","ND"],
    [28402,"09/23/2017 01:00","38,7","1,7","ND","ND","ND","ND"],
    [28403,"09/23/2017 02:00","40,7","1,3","ND","ND","ND","ND"],
    [28404,"09/23/2017 03:00","46","1,4","ND","ND","ND","ND"],
    [28405,"09/23/2017 04:00","50,2","1,8","ND","ND","ND","ND"],
    [28406,"09/23/2017 05:00","50,1","1,8","ND","ND","ND","ND"],
    [28407,"09/23/2017 06:00","38,8","1,5","ND","ND","ND","ND"],
    [28408,"09/23/2017 07:00","33,6","1,4","ND","ND","ND","ND"],
    [28409,"09/23/2017 08:00","38,7","1,4","ND","ND","ND","ND"],
    [28410,"09/23/2017 09:00","41,3","2,8","ND","ND","ND","ND"],
    [28411,"09/23/2017 10:00","69,6","3,5","ND","ND","ND","ND"],
    [28412,"09/23/2017 11:00","67","3","ND","ND","ND","ND"],
    [28413,"09/23/2017 12:00","83,8","4,6","ND","ND","ND","ND"],
    [28414,"09/23/2017 13:00","77","4,7","ND","ND","ND","ND"],
    [28415,"09/23/2017 14:00","71,9","6,7","ND","ND","ND","ND"],
    [28416,"09/23/2017 15:00","71","3,6","ND","ND","ND","ND"],
    [28417,"09/23/2017 16:00","43,1","0,1","ND","ND","ND","ND"],
    [28418,"09/23/2017 17:00","17,9","0,1","ND","ND","ND","ND"],
    [28419,"09/23/2017 18:00","17,1","0,4","ND","ND","ND","ND"],
    [28420,"09/23/2017 19:00","11,9","0,4","ND","ND","ND","ND"],
    [28421,"09/23/2017 20:00","13,3","0,5","ND","ND","ND","ND"],
    [28422,"09/23/2017 21:00","17,1","0,6","ND","ND","ND","ND"],
    [28423,"09/23/2017 22:00","30,2","0,5","ND","ND","ND","ND"],
    [28424,"09/23/2017 23:00","14,5","0,7","ND","ND","ND","ND"],
    [28425,"09/24/2017 00:00","17,7","0,7","ND","ND","ND","ND"],
    [28426,"09/24/2017 01:00","16,4","0,7","ND","ND","ND","ND"],
    [28427,"09/24/2017 02:00","15","0,6","ND","ND","ND","ND"],
    [28428,"09/24/2017 03:00","15,2","0,5","ND","ND","ND","ND"],
    [28429,"09/24/2017 04:00","14","0,4","ND","ND","ND","ND"],
    [28430,"09/24/2017 05:00","11,9","0,4","ND","ND","ND","ND"],
    [28431,"09/24/2017 06:00","12,6","0,5","ND","ND","ND","ND"],
    [28432,"09/24/2017 07:00","23,3","0,5","ND","ND","ND","ND"],
    [28433,"09/24/2017 08:00","22,9","0,5","ND","ND","ND","ND"],
    [28434,"09/24/2017 09:00","25,4","0,4","ND","ND","ND","ND"],
    [28435,"09/24/2017 10:00","16,3","0,7","ND","ND","ND","ND"],
    [28436,"09/24/2017 11:00","22,7","0,8","ND","ND","ND","ND"],
    [28437,"09/24/2017 12:00","24,6","0,7","ND","ND","ND","ND"],
    [28438,"09/24/2017 13:00","21","0,6","ND","ND","ND","ND"],
    [28439,"09/24/2017 14:00","28,2","0,4","ND","ND","ND","ND"],
    [28440,"09/24/2017 15:00","32,3","0,5","ND","ND","ND","ND"],
    [28441,"09/24/2017 16:00","34,7","0,9","ND","ND","ND","ND"],
    [28442,"09/24/2017 17:00","40,3","0,1","ND","ND","ND","ND"],
    [28443,"09/24/2017 18:00","32,6","0","ND","ND","ND","ND"],
    [28444,"09/24/2017 19:00","19,6","0","ND","ND","ND","ND"],
    [28445,"09/24/2017 20:00","19,3","0","ND","ND","ND","ND"],
    [28446,"09/24/2017 21:00","18,7","0,2","ND","ND","ND","ND"],
    [28447,"09/24/2017 22:00","19,2","0,7","ND","ND","ND","ND"],
    [28448,"09/24/2017 23:00","26","1,1","ND","ND","ND","ND"],
    [28449,"09/25/2017 00:00","34,9","0,8","ND","ND","ND","ND"],
    [28450,"09/25/2017 01:00","36,3","0,7","ND","ND","ND","ND"],
    [28451,"09/25/2017 02:00","26,3","1,4","ND","ND","ND","ND"],
    [28452,"09/25/2017 03:00","41,1","2,3","ND","ND","ND","ND"],
    [28453,"09/25/2017 04:00","44,6","1","ND","ND","ND","ND"],
    [28454,"09/25/2017 05:00","26,2","0,9","ND","ND","ND","ND"],
    [28455,"09/25/2017 06:00","18,2","0,9","ND","ND","ND","ND"],
    [28456,"09/25/2017 07:00","29,3","1","ND","ND","ND","ND"],
    [28457,"09/25/2017 08:00","33,6","1,6","ND","ND","ND","ND"],
    [28458,"09/25/2017 09:00","37,6","2,4","ND","ND","ND","ND"],
    [28459,"09/25/2017 10:00","54,8","3,3","ND","ND","ND","ND"],
    [28460,"09/25/2017 11:00","56,4","3,6","ND","ND","ND","ND"],
    [28461,"09/25/2017 12:00","47,2","4,3","ND","ND","ND","ND"],
    [28462,"09/25/2017 13:00","44,5","3,2","ND","ND","ND","ND"],
    [28463,"09/25/2017 14:00","43","0,8","ND","ND","ND","ND"],
    [28464,"09/25/2017 15:00","34,7","0,1","ND","ND","ND","ND"],
    [28465,"09/25/2017 16:00","8,1","0","ND","ND","ND","ND"],
    [28466,"09/25/2017 17:00","19,9","0","ND","ND","ND","ND"],
    [28467,"09/25/2017 18:00","19,8","0","ND","ND","ND","ND"],
    [28468,"09/25/2017 19:00","16","0,1","ND","ND","ND","ND"],
    [28469,"09/25/2017 20:00","16,1","0,8","ND","ND","ND","ND"],
    [28470,"09/25/2017 21:00","20,3","0,7","ND","ND","ND","ND"],
    [28471,"09/25/2017 22:00","20,1","1,2","ND","ND","ND","ND"],
    [28472,"09/25/2017 23:00","43,6","0,8","ND","ND","ND","ND"],
    [28473,"09/26/2017 00:00","38,4","0,7","ND","ND","ND","ND"],
    [28474,"09/26/2017 01:00","28,7","1,5","ND","ND","ND","ND"],
    [28475,"09/26/2017 02:00","28,5","0,7","ND","ND","ND","ND"],
    [28476,"09/26/2017 03:00","28,4","0,5","ND","ND","ND","ND"],
    [28477,"09/26/2017 04:00","23,4","0,5","ND","ND","ND","ND"],
    [28478,"09/26/2017 05:00","29,9","0,7","ND","ND","ND","ND"],
    [28479,"09/26/2017 06:00","35,9","0,8","ND","ND","ND","ND"],
    [28480,"09/26/2017 07:00","49,1","1,4","ND","ND","ND","ND"],
    [28481,"09/26/2017 08:00","68,9","3,2","ND","ND","ND","ND"],
    [28482,"09/26/2017 09:00","61,3","4,7","ND","ND","ND","ND"],
    [28483,"09/26/2017 10:00","58,3","3,8","ND","ND","ND","ND"],
    [28484,"09/26/2017 11:00","43,8","3,3","ND","ND","ND","ND"],
    [28485,"09/26/2017 12:00","40,8","3,1","ND","ND","ND","ND"],
    [28486,"09/26/2017 13:00","39,2","3,1","ND","ND","ND","ND"],
    [28487,"09/26/2017 14:00","37,7","3,6","ND","ND","ND","ND"],
    [28488,"09/26/2017 15:00","43,5","2,4","ND","ND","ND","ND"],
    [28489,"09/26/2017 16:00","44,8","1,3","ND","ND","ND","ND"],
    [28490,"09/26/2017 17:00","30,7","1,4","ND","ND","ND","ND"],
    [28491,"09/26/2017 18:00","30,2","1,2","ND","ND","ND","ND"],
    [28492,"09/26/2017 19:00","21,1","1,3","ND","ND","ND","ND"],
    [28493,"09/26/2017 20:00","20,4","1,3","ND","ND","ND","ND"],
    [28494,"09/26/2017 21:00","21,2","1,8","ND","ND","ND","ND"],
    [28495,"09/26/2017 22:00","46,8","1,6","ND","ND","ND","ND"],
    [28496,"09/26/2017 23:00","37,1","1,6","ND","ND","ND","ND"],
    [28497,"09/27/2017 00:00","63,7","1,8","ND","ND","ND","ND"],
    [28498,"09/27/2017 01:00","53,5","1,4","ND","ND","ND","ND"],
    [28499,"09/27/2017 02:00","40,2","1,4","ND","ND","ND","ND"],
    [28500,"09/27/2017 03:00","37,3","1,5","ND","ND","ND","ND"],
    [28501,"09/27/2017 04:00","37,5","1,4","ND","ND","ND","ND"],
    [28502,"09/27/2017 05:00","33","1,4","ND","ND","ND","ND"],
    [28503,"09/27/2017 06:00","40","1,8","ND","ND","ND","ND"],
    [28504,"09/27/2017 07:00","71,4","2,1","ND","ND","ND","ND"],
    [28505,"09/27/2017 08:00","84,3","2,2","ND","ND","ND","ND"],
    [28506,"09/27/2017 09:00","79","1,7","ND","ND","ND","ND"],
    [28507,"09/27/2017 10:00","73,5","1,3","ND","ND","ND","ND"],
    [28508,"09/27/2017 11:00","43,9","1,1","ND","ND","ND","ND"],
    [28509,"09/27/2017 12:00","36,7","1","ND","ND","ND","ND"],
    [28510,"09/27/2017 13:00","40,5","1","ND","ND","ND","ND"],
    [28511,"09/27/2017 14:00","56,3","2,2","ND","ND","ND","ND"],
    [28512,"09/27/2017 15:00","73,8","3,6","ND","ND","ND","ND"],
    [28513,"09/27/2017 16:00","48,1","2,1","ND","ND","ND","ND"],
    [28514,"09/27/2017 17:00","21,6","1,6","ND","ND","ND","ND"],
    [28515,"09/27/2017 18:00","27","1,7","ND","ND","ND","ND"],
    [28516,"09/27/2017 19:00","55,9","1,4","ND","ND","ND","ND"],
    [28517,"09/27/2017 20:00","28,9","2,6","ND","ND","ND","ND"],
    [28518,"09/27/2017 21:00","127,3","1,4","ND","ND","ND","ND"],
    [28519,"09/27/2017 22:00","23","1,5","ND","ND","ND","ND"],
    [28520,"09/27/2017 23:00","39,3","1,4","ND","ND","ND","ND"],
    [28521,"09/28/2017 00:00","26,4","1,2","ND","ND","ND","ND"],
    [28522,"09/28/2017 01:00","35,6","1","ND","ND","ND","ND"],
    [28523,"09/28/2017 02:00","32,3","1","ND","ND","ND","ND"],
    [28524,"09/28/2017 03:00","35,2","0,9","ND","ND","ND","ND"],
    [28525,"09/28/2017 04:00","34,8","1","ND","ND","ND","ND"],
    [28526,"09/28/2017 05:00","26,4","1,1","ND","ND","ND","ND"],
    [28527,"09/28/2017 06:00","28,1","1,4","ND","ND","ND","ND"],
    [28528,"09/28/2017 07:00","42,7","1,6","ND","ND","ND","ND"],
    [28529,"09/28/2017 08:00","49,3","1,4","ND","ND","ND","ND"],
    [28530,"09/28/2017 09:00","23,8","1,3","ND","ND","ND","ND"],
    [28531,"09/28/2017 10:00","20,9","1,2","ND","ND","ND","ND"],
    [28532,"09/28/2017 11:00","24,9","1","ND","ND","ND","ND"],
    [28533,"09/28/2017 12:00","27,2","1,1","ND","ND","ND","ND"],
    [28534,"09/28/2017 13:00","27,1","0,9","ND","ND","ND","ND"],
    [28535,"09/28/2017 14:00","13,4","0,9","ND","ND","ND","ND"],
    [28536,"09/28/2017 15:00","26,8","0,9","ND","ND","ND","ND"],
    [28537,"09/28/2017 16:00","7,3","0,8","ND","ND","ND","ND"],
    [28538,"09/28/2017 17:00","22,7","1","ND","ND","ND","ND"],
    [28539,"09/28/2017 18:00","26,7","1,2","ND","ND","ND","ND"],
    [28540,"09/28/2017 19:00","47,1","1,2","ND","ND","ND","ND"],
    [28541,"09/28/2017 20:00","25,2","1,1","ND","ND","ND","ND"],
    [28542,"09/28/2017 21:00","19,4","1","ND","ND","ND","ND"],
    [28543,"09/28/2017 22:00","21","1,3","ND","ND","ND","ND"],
    [28544,"09/28/2017 23:00","29","1,2","ND","ND","ND","ND"],
    [28545,"09/29/2017 00:00","38,2","1,1","ND","ND","ND","ND"],
    [28546,"09/29/2017 01:00","43","1,1","ND","ND","ND","ND"],
    [28547,"09/29/2017 02:00","26,7","1","ND","ND","ND","ND"],
    [28548,"09/29/2017 03:00","29,4","0,9","ND","ND","ND","ND"],
    [28549,"09/29/2017 04:00","29","1,2","ND","ND","ND","ND"],
    [28550,"09/29/2017 05:00","32,4","3","ND","ND","ND","ND"],
    [28551,"09/29/2017 06:00","51","1,3","ND","ND","ND","ND"],
    [28552,"09/29/2017 07:00","56,7","1,5","ND","ND","ND","ND"],
    [28553,"09/29/2017 08:00","77,4","1,7","ND","ND","ND","ND"],
    [28554,"09/29/2017 09:00","76,7","1,8","ND","ND","ND","ND"],
    [28555,"09/29/2017 10:00","73","1,3","ND","ND","ND","ND"],
    [28556,"09/29/2017 11:00","60,2","1,1","ND","ND","ND","ND"],
    [28557,"09/29/2017 12:00","56,2","1,1","ND","ND","ND","ND"],
    [28558,"09/29/2017 13:00","55","1","ND","ND","ND","ND"],
    [28559,"09/29/2017 14:00","66,6","1","ND","ND","ND","ND"],
    [28560,"09/29/2017 15:00","37,9","1,1","ND","ND","ND","ND"],
    [28561,"09/29/2017 16:00","19,2","1,3","ND","ND","ND","ND"],
    [28562,"09/29/2017 17:00","19,8","1,1","ND","ND","ND","ND"],
    [28563,"09/29/2017 18:00","16,1","1,3","ND","ND","ND","ND"],
    [28564,"09/29/2017 19:00","20,4","1,5","ND","ND","ND","ND"],
    [28565,"09/29/2017 20:00","29,8","1,8","ND","ND","ND","ND"],
    [28566,"09/29/2017 21:00","43,5","2","ND","ND","ND","ND"],
    [28567,"09/29/2017 22:00","30,7","1,8","ND","ND","ND","ND"],
    [28568,"09/29/2017 23:00","38,1","1,3","ND","ND","ND","ND"],
    [28569,"09/30/2017 00:00","44","1,3","ND","ND","ND","ND"],
    [28570,"09/30/2017 01:00","24,2","1,3","ND","ND","ND","ND"],
    [28571,"09/30/2017 02:00","25,3","1,3","ND","ND","ND","ND"],
    [28572,"09/30/2017 03:00","25,1","1,2","ND","ND","ND","ND"],
    [28573,"09/30/2017 04:00","24","1,1","ND","ND","ND","ND"],
    [28574,"09/30/2017 05:00","ND","1,1","ND","ND","ND","ND"],
    [28575,"09/30/2017 06:00","19,5","1,2","ND","ND","ND","ND"],
    [28576,"09/30/2017 07:00","ND","2","ND","ND","ND","ND"],
    [28577,"09/30/2017 08:00","20,8","1,6","ND","ND","ND","ND"],
    [28578,"09/30/2017 09:00","12,7","1,8","ND","ND","ND","ND"],
    [28579,"09/30/2017 10:00","ND","2","ND","ND","ND","ND"],
    [28580,"09/30/2017 11:00","24,2","1,8","ND","ND","ND","ND"],
    [28581,"09/30/2017 12:00","31,9","1,6","ND","ND","ND","ND"],
    [28582,"09/30/2017 13:00","55,6","1,5","ND","ND","ND","ND"],
    [28583,"09/30/2017 14:00","54,2","1,3","ND","ND","ND","ND"],
    [28584,"09/30/2017 15:00","30,1","1,1","ND","ND","ND","ND"],
    [28585,"09/30/2017 16:00","21,1","1,3","ND","ND","ND","ND"],
    [28586,"09/30/2017 17:00","27,4","1,2","ND","ND","ND","ND"],
    [28587,"09/30/2017 18:00","26,8","1,4","ND","ND","ND","ND"],
    [28588,"09/30/2017 19:00","59,8","1,3","ND","ND","ND","ND"],
    [28589,"09/30/2017 20:00","68,8","1,4","ND","ND","ND","ND"],
    [28590,"09/30/2017 21:00","68,9","1,3","ND","ND","ND","ND"],
    [28591,"09/30/2017 22:00","65","1,5","ND","ND","ND","ND"],
    [28592,"09/30/2017 23:00","64","1,5","ND","ND","ND","ND"],
    [28593,"42745","66,1","1,6","ND","ND","ND","ND"],
    [28594,"42745,04167","68,5","1,4","ND","ND","ND","ND"],
    [28595,"42745,08333","130,3","1,2","ND","ND","ND","ND"],
    [28596,"42745,125","47,1","1,3","ND","ND","ND","ND"],
    [28597,"42745,16667","43,8","1,2","ND","ND","ND","ND"],
    [28598,"42745,20833","43,6","1,2","ND","ND","ND","ND"],
    [28599,"42745,25","44,6","1,2","ND","ND","ND","ND"],
    [28600,"42745,29167","51,5","1,3","ND","ND","ND","ND"],
    [28601,"42745,33333","61,2","1,3","ND","ND","ND","ND"],
    [28602,"42745,375","61,5","1,3","ND","ND","ND","ND"],
    [28603,"42745,41667","84,5","1,2","ND","ND","ND","ND"],
    [28604,"42745,45833","72,4","1,1","ND","ND","ND","ND"],
    [28605,"42745,5","61,6","1","ND","ND","ND","ND"],
    [28606,"42745,54167","54,2","1,2","ND","ND","ND","ND"],
    [28607,"42745,58333","51,7","1,1","ND","ND","ND","ND"],
    [28608,"42745,625","46,9","0,9","ND","ND","ND","ND"],
    [28609,"42745,66667","25,5","1","ND","ND","ND","ND"],
    [28610,"42745,70833","8","0,8","ND","ND","ND","ND"],
    [28611,"42745,75","6,4","1","ND","ND","ND","ND"],
    [28612,"42745,79167","9,6","1","ND","ND","ND","ND"],
    [28613,"42745,83333","9,9","1,3","ND","ND","ND","ND"],
    [28614,"42745,875","8,3","1,3","ND","ND","ND","ND"],
    [28615,"42745,91667","30,3","1,1","ND","ND","ND","ND"],
    [28616,"42745,95833","30,9","1,3","ND","ND","ND","ND"],
    [28617,"42776","30,3","1","ND","ND","ND","ND"],
    [28618,"42776,04167","32,6","1,1","ND","ND","ND","ND"],
    [28619,"42776,08333","27,2","1","ND","ND","ND","ND"],
    [28620,"42776,125","25,5","0,9","ND","ND","ND","ND"],
    [28621,"42776,16667","21,8","0,9","ND","ND","ND","ND"],
    [28622,"42776,20833","31,7","1","ND","ND","ND","ND"],
    [28623,"42776,25","45,8","2","ND","ND","ND","ND"],
    [28624,"42776,29167","52,1","1,7","ND","ND","ND","ND"],
    [28625,"42776,33333","56","2","ND","ND","ND","ND"],
    [28626,"42776,375","63,2","1,8","ND","ND","ND","ND"],
    [28627,"42776,41667","62,1","1,4","ND","ND","ND","ND"],
    [28628,"42776,45833","43","1,3","ND","ND","ND","ND"],
    [28629,"42776,5","38,3","1","ND","ND","ND","ND"],
    [28630,"42776,54167","40,1","0,9","ND","ND","ND","ND"],
    [28631,"42776,58333","43,3","0,9","ND","ND","ND","ND"],
    [28632,"42776,625","43,1","1","ND","ND","ND","ND"],
    [28633,"42776,66667","54,5","0,9","ND","ND","ND","ND"],
    [28634,"42776,70833","47,9","1","ND","ND","ND","ND"],
    [28635,"42776,75","16,4","1","ND","ND","ND","ND"],
    [28636,"42776,79167","14,4","1,1","ND","ND","ND","ND"],
    [28637,"42776,83333","16,1","1,4","ND","ND","ND","ND"],
    [28638,"42776,875","18,2","1,5","ND","ND","ND","ND"],
    [28639,"42776,91667","11,8","1,6","ND","ND","ND","ND"],
    [28640,"42776,95833","15,2","2,1","ND","ND","ND","ND"],
    [28641,"42804","64,8","1,6","ND","ND","ND","ND"],
    [28642,"42804,04167","45","1,1","ND","ND","ND","ND"],
    [28643,"42804,08333","26,8","1","ND","ND","ND","ND"],
    [28644,"42804,125","27,6","1,2","ND","ND","ND","ND"],
    [28645,"42804,16667","37,3","1","ND","ND","ND","ND"],
    [28646,"42804,20833","39,9","1,2","ND","ND","ND","ND"],
    [28647,"42804,25","27,3","1,7","ND","ND","ND","ND"],
    [28648,"42804,29167","22,8","2,1","ND","ND","ND","ND"],
    [28649,"42804,33333","45,2","2,9","ND","ND","ND","ND"],
    [28650,"42804,375","40,6","3,5","ND","ND","ND","ND"],
    [28651,"42804,41667","45,7","1,8","ND","ND","ND","ND"],
    [28652,"42804,45833","32,2","1,1","ND","ND","ND","ND"],
    [28653,"42804,5","33,8","1,2","ND","ND","ND","ND"],
    [28654,"42804,54167","30,6","1","ND","ND","ND","ND"],
    [28655,"42804,58333","33,8","1,1","ND","ND","ND","ND"],
    [28656,"42804,625","29,8","1,2","ND","ND","ND","ND"],
    [28657,"42804,66667","26,1","1,8","ND","ND","ND","ND"],
    [28658,"42804,70833","32,1","1,7","ND","ND","ND","ND"],
    [28659,"42804,75","26,9","1,7","ND","ND","ND","ND"],
    [28660,"42804,79167","19,2","1,7","ND","ND","ND","ND"],
    [28661,"42804,83333","15,9","1,7","ND","ND","ND","ND"],
    [28662,"42804,875","47,6","1,8","ND","ND","ND","ND"],
    [28663,"42804,91667","43,8","1,3","ND","ND","ND","ND"],
    [28664,"42804,95833","38,1","1","ND","ND","ND","ND"],
    [28665,"42835","41,4","1,2","ND","ND","ND","ND"],
    [28666,"42835,04167","36,1","1,1","ND","ND","ND","ND"],
    [28667,"42835,08333","18,5","1,2","ND","ND","ND","ND"],
    [28668,"42835,125","19,3","0,9","ND","ND","ND","ND"],
    [28669,"42835,16667","7,4","0,9","ND","ND","ND","ND"],
    [28670,"42835,20833","8,7","1,1","ND","ND","ND","ND"],
    [28671,"42835,25","4,7","1,4","ND","ND","ND","ND"],
    [28672,"42835,29167","9,4","1,6","ND","ND","ND","ND"],
    [28673,"42835,33333","20,1","1,5","ND","ND","ND","ND"],
    [28674,"42835,375","23,3","1,6","ND","ND","ND","ND"],
    [28675,"42835,41667","37,2","1,5","ND","ND","ND","ND"],
    [28676,"42835,45833","45,1","1,2","ND","ND","ND","ND"],
    [28677,"42835,5","24,5","1,4","ND","ND","ND","ND"],
    [28678,"42835,54167","24,8","1,2","ND","ND","ND","ND"],
    [28679,"42835,58333","26,2","1,1","ND","ND","ND","ND"],
    [28680,"42835,625","39,8","1","ND","ND","ND","ND"],
    [28681,"42835,66667","20,8","1,3","ND","ND","ND","ND"],
    [28682,"42835,70833","37,9","1,2","ND","ND","ND","ND"],
    [28683,"42835,75","37,6","1,2","ND","ND","ND","ND"],
    [28684,"42835,79167","19,5","1,3","ND","ND","ND","ND"],
    [28685,"42835,83333","41,9","1,6","ND","ND","ND","ND"],
    [28686,"42835,875","35,4","1,3","ND","ND","ND","ND"],
    [28687,"42835,91667","31,2","1,7","ND","ND","ND","ND"],
    [28688,"42835,95833","33","1,3","ND","ND","ND","ND"],
    [28689,"42865","17,5","1,2","ND","ND","ND","ND"],
    [28690,"42865,04167","14,1","1,2","ND","ND","ND","ND"],
    [28691,"42865,08333","7","1","ND","ND","ND","ND"],
    [28692,"42865,125","8,5","1","ND","ND","ND","ND"],
    [28693,"42865,16667","7,2","1","ND","ND","ND","ND"],
    [28694,"42865,20833","10,5","1,4","ND","ND","ND","ND"],
    [28695,"42865,25","16,8","1,4","ND","ND","ND","ND"],
    [28696,"42865,29167","23,2","1,6","ND","ND","ND","ND"],
    [28697,"42865,33333","44,1","1,8","ND","ND","ND","ND"],
    [28698,"42865,375","31,5","1,6","ND","ND","ND","ND"],
    [28699,"42865,41667","29,3","1,5","ND","ND","ND","ND"],
    [28700,"42865,45833","29,2","1,3","ND","ND","ND","ND"],
    [28701,"42865,5","33,7","1,2","ND","ND","ND","ND"],
    [28702,"42865,54167","52,2","1,1","ND","ND","ND","ND"],
    [28703,"42865,58333","39,8","1,3","ND","ND","ND","ND"],
    [28704,"42865,625","35,3","1,2","ND","ND","ND","ND"],
    [28705,"42865,66667","30,4","1,5","ND","ND","ND","ND"],
    [28706,"42865,70833","21,8","1,4","ND","ND","ND","ND"],
    [28707,"42865,75","32,2","1,5","ND","ND","ND","ND"],
    [28708,"42865,79167","60,8","1,3","ND","ND","ND","ND"],
    [28709,"42865,83333","43,2","1,7","ND","ND","ND","ND"],
    [28710,"42865,875","60,3","1,4","ND","ND","ND","ND"],
    [28711,"42865,91667","55,2","1,5","ND","ND","ND","ND"],
    [28712,"42865,95833","52,4","1,6","ND","ND","ND","ND"],
    [28713,"42896","60,1","1,6","ND","ND","ND","ND"],
    [28714,"42896,04167","43,4","1,3","ND","ND","ND","ND"],
    [28715,"42896,08333","33,5","1,2","ND","ND","ND","ND"],
    [28716,"42896,125","27,8","1,1","ND","ND","ND","ND"],
    [28717,"42896,16667","32,6","0,8","ND","ND","ND","ND"],
    [28718,"42896,20833","28,8","1","ND","ND","ND","ND"],
    [28719,"42896,25","35,7","1,8","ND","ND","ND","ND"],
    [28720,"42896,29167","59","1,8","ND","ND","ND","ND"],
    [28721,"42896,33333","49,7","1,5","ND","ND","ND","ND"],
    [28722,"42896,375","54,5","1,5","ND","ND","ND","ND"],
    [28723,"42896,41667","55,3","5","ND","ND","ND","ND"],
    [28724,"42896,45833","40,7","4,4","ND","ND","ND","ND"],
    [28725,"42896,5","40,5","4,2","ND","ND","ND","ND"],
    [28726,"42896,54167","40,7","4,3","ND","ND","ND","ND"],
    [28727,"42896,58333","42,1","3,1","ND","ND","ND","ND"],
    [28728,"42896,625","46","2,5","ND","ND","ND","ND"],
    [28729,"42896,66667","65","1,6","ND","ND","ND","ND"],
    [28730,"42896,70833","17,4","1,1","ND","ND","ND","ND"],
    [28731,"42896,75","15,6","0,6","ND","ND","ND","ND"],
    [28732,"42896,79167","18,2","0,7","ND","ND","ND","ND"],
    [28733,"42896,83333","18,5","0,9","ND","ND","ND","ND"],
    [28734,"42896,875","14,6","0,9","ND","ND","ND","ND"],
    [28735,"42896,91667","31,6","1,3","ND","ND","ND","ND"],
    [28736,"42896,95833","47","1,8","ND","ND","ND","ND"],
    [28737,"42926","46,7","2,9","ND","ND","ND","ND"],
    [28738,"42926,04167","40,8","2,3","ND","ND","ND","ND"],
    [28739,"42926,08333","32,3","1,9","ND","ND","ND","ND"],
    [28740,"42926,125","37,7","1,7","ND","ND","ND","ND"],
    [28741,"42926,16667","38,3","1,7","ND","ND","ND","ND"],
    [28742,"42926,20833","39,4","1,4","ND","ND","ND","ND"],
    [28743,"42926,25","42,3","1,6","ND","ND","ND","ND"],
    [28744,"42926,29167","50,2","2,2","ND","ND","ND","ND"],
    [28745,"42926,33333","72,2","2,3","ND","ND","ND","ND"],
    [28746,"42926,375","62,8","4,6","ND","ND","ND","ND"],
    [28747,"42926,41667","56,8","5,3","ND","ND","ND","ND"],
    [28748,"42926,45833","56,8","6","ND","ND","ND","ND"],
    [28749,"42926,5","50,5","5,8","ND","ND","ND","ND"],
    [28750,"42926,54167","70,1","7,2","ND","ND","ND","ND"],
    [28751,"42926,58333","86,8","7,5","ND","ND","ND","ND"],
    [28752,"42926,625","61,7","4,3","ND","ND","ND","ND"],
    [28753,"42926,66667","50,5","3","ND","ND","ND","ND"],
    [28754,"42926,70833","46,3","1,7","ND","ND","ND","ND"],
    [28755,"42926,75","28,4","1","ND","ND","ND","ND"],
    [28756,"42926,79167","24,7","0,9","ND","ND","ND","ND"],
    [28757,"42926,83333","35,1","1,4","ND","ND","ND","ND"],
    [28758,"42926,875","61,1","2","ND","ND","ND","ND"],
    [28759,"42926,91667","50,5","2,6","ND","ND","ND","ND"],
    [28760,"42926,95833","66,5","2,1","ND","ND","ND","ND"],
    [28761,"42957","88,1","2","ND","ND","ND","ND"],
    [28762,"42957,04167","51,7","1,8","ND","ND","ND","ND"],
    [28763,"42957,08333","50","1,7","ND","ND","ND","ND"],
    [28764,"42957,125","48,5","1,4","ND","ND","ND","ND"],
    [28765,"42957,16667","44,3","1,3","ND","ND","ND","ND"],
    [28766,"42957,20833","42,4","1,3","ND","ND","ND","ND"],
    [28767,"42957,25","41,6","1,1","ND","ND","ND","ND"],
    [28768,"42957,29167","39","1,3","ND","ND","ND","ND"],
    [28769,"42957,33333","50","8,5","ND","ND","ND","ND"],
    [28770,"42957,375","77,3","18,9","ND","ND","ND","ND"],
    [28771,"42957,41667","94,4","9,7","ND","ND","ND","ND"],
    [28772,"42957,45833","86","6,4","ND","ND","ND","ND"],
    [28773,"42957,5","56,8","5,1","ND","ND","ND","ND"],
    [28774,"42957,54167","51,5","3,6","ND","ND","ND","ND"],
    [28775,"42957,58333","45,2","2,6","ND","ND","ND","ND"],
    [28776,"42957,625","43,1","3,1","ND","ND","ND","ND"],
    [28777,"42957,66667","44","0,4","ND","ND","ND","ND"],
    [28778,"42957,70833","32,5","0","ND","ND","ND","ND"],
    [28779,"42957,75","31,7","0,1","ND","ND","ND","ND"],
    [28780,"42957,79167","15,8","0,6","ND","ND","ND","ND"],
    [28781,"42957,83333","18,4","0,9","ND","ND","ND","ND"],
    [28782,"42957,875","14,2","1","ND","ND","ND","ND"],
    [28783,"42957,91667","36,8","3,5","ND","ND","ND","ND"],
    [28784,"42957,95833","27,5","3,6","ND","ND","ND","ND"],
    [28785,"42988","37,8","1,7","ND","ND","ND","ND"],
    [28786,"42988,04167","23,6","2,1","ND","ND","ND","ND"],
    [28787,"42988,08333","33,9","4,4","ND","ND","ND","ND"],
    [28788,"42988,125","32,2","2,9","ND","ND","ND","ND"],
    [28789,"42988,16667","30,4","1,3","ND","ND","ND","ND"],
    [28790,"42988,20833","36,1","2,1","ND","ND","ND","ND"],
    [28791,"42988,25","41,8","1,9","ND","ND","ND","ND"],
    [28792,"42988,29167","59,7","6,4","ND","ND","ND","ND"],
    [28793,"42988,33333","85,7","3,9","ND","ND","ND","ND"],
    [28794,"42988,375","73","3","ND","ND","ND","ND"],
    [28795,"42988,41667","53,4","4,3","ND","ND","ND","ND"],
    [28796,"42988,45833","83,6","4,1","ND","ND","ND","ND"],
    [28797,"42988,5","73,1","4,2","ND","ND","ND","ND"],
    [28798,"42988,54167","46,5","4,8","ND","ND","ND","ND"],
    [28799,"42988,58333","27,8","0,7","ND","ND","ND","ND"],
    [28800,"42988,625","18,8","0,4","ND","ND","ND","ND"],
    [28801,"42988,66667","9,8","0,3","ND","ND","ND","ND"],
    [28802,"42988,70833","11,6","1,1","ND","ND","ND","ND"],
    [28803,"42988,75","55","1,5","ND","ND","ND","ND"],
    [28804,"42988,79167","57,9","2,1","ND","ND","ND","ND"],
    [28805,"42988,83333","58,3","2,1","ND","ND","ND","ND"],
    [28806,"42988,875","65,2","2,1","ND","ND","ND","ND"],
    [28807,"42988,91667","82","1,9","ND","ND","ND","ND"],
    [28808,"42988,95833","62,5","2,1","ND","ND","ND","ND"],
    [28809,"43018","63,3","1,6","ND","ND","ND","ND"],
    [28810,"43018,04167","51,4","1,4","ND","ND","ND","ND"],
    [28811,"43018,08333","45,1","1,3","ND","ND","ND","ND"],
    [28812,"43018,125","40,2","1,1","ND","ND","ND","ND"],
    [28813,"43018,16667","25,7","1,1","ND","ND","ND","ND"],
    [28814,"43018,20833","29,6","1,4","ND","ND","ND","ND"],
    [28815,"43018,25","45,1","13,1","ND","ND","ND","ND"],
    [28816,"43018,29167","92,1","13,7","ND","ND","ND","ND"],
    [28817,"43018,33333","99,5","16","ND","ND","ND","ND"],
    [28818,"43018,375","106,3","10,6","ND","ND","ND","ND"],
    [28819,"43018,41667","94,6","5,9","ND","ND","ND","ND"],
    [28820,"43018,45833","ND","ND","ND","ND","ND","ND"],
    [28821,"43018,5","ND","ND","ND","ND","ND","ND"],
    [28822,"43018,54167","ND","ND","ND","ND","ND","ND"],
    [28823,"43018,58333","ND","ND","ND","ND","ND","ND"],
    [28824,"43018,625","ND","ND","ND","ND","ND","ND"],
    [28825,"43018,66667","ND","ND","ND","ND","ND","ND"],
    [28826,"43018,70833","ND","ND","ND","ND","ND","ND"],
    [28827,"43018,75","ND","ND","ND","ND","ND","ND"],
    [28828,"43018,79167","ND","ND","ND","ND","ND","ND"],
    [28829,"43018,83333","ND","ND","ND","ND","ND","ND"],
    [28830,"43018,875","ND","ND","ND","ND","ND","ND"],
    [28831,"43018,91667","ND","ND","ND","ND","ND","ND"],
    [28832,"43018,95833","ND","ND","ND","ND","ND","ND"],
    [28833,"43049","ND","ND","ND","ND","ND","ND"],
    [28834,"43049,04167","ND","ND","ND","ND","ND","ND"],
    [28835,"43049,08333","ND","ND","ND","ND","ND","ND"],
    [28836,"43049,125","ND","ND","ND","ND","ND","ND"],
    [28837,"43049,16667","ND","ND","ND","ND","ND","ND"],
    [28838,"43049,20833","ND","ND","ND","ND","ND","ND"],
    [28839,"43049,25","ND","ND","ND","ND","ND","ND"],
    [28840,"43049,29167","ND","ND","ND","ND","ND","ND"],
    [28841,"43049,33333","ND","ND","ND","ND","ND","ND"],
    [28842,"43049,375","ND","ND","ND","ND","ND","ND"],
    [28843,"43049,41667","ND","ND","ND","ND","ND","ND"],
    [28844,"43049,45833","ND","ND","ND","ND","ND","ND"],
    [28845,"43049,5","ND","ND","ND","ND","ND","ND"],
    [28846,"43049,54167","ND","ND","ND","ND","ND","ND"],
    [28847,"43049,58333","ND","ND","ND","ND","ND","ND"],
    [28848,"43049,625","ND","ND","ND","ND","ND","ND"],
    [28849,"43049,66667","ND","ND","ND","ND","ND","ND"],
    [28850,"43049,70833","ND","ND","ND","ND","ND","ND"],
    [28851,"43049,75","62,8","7,5","ND","ND","ND","ND"],
    [28852,"43049,79167","87","6","ND","ND","ND","ND"],
    [28853,"43049,83333","92,1","5,1","ND","ND","ND","ND"],
    [28854,"43049,875","63,8","4,3","ND","ND","ND","ND"],
    [28855,"43049,91667","74,2","3,3","ND","ND","ND","ND"],
    [28856,"43049,95833","83,8","2,6","ND","ND","ND","ND"],
    [28857,"43079","69,1","2,5","ND","ND","ND","ND"],
    [28858,"43079,04167","52,7","2,4","ND","ND","ND","ND"],
    [28859,"43079,08333","52,9","1,8","ND","ND","ND","ND"],
    [28860,"43079,125","43","1,7","ND","ND","ND","ND"],
    [28861,"43079,16667","42,7","1,7","ND","ND","ND","ND"],
    [28862,"43079,20833","35,9","2","ND","ND","ND","ND"],
    [28863,"43079,25","49","2,4","ND","ND","ND","ND"],
    [28864,"43079,29167","66,8","2,4","ND","ND","ND","ND"],
    [28865,"43079,33333","76,7","4,5","ND","ND","ND","ND"],
    [28866,"43079,375","68,4","22,3","ND","ND","ND","ND"],
    [28867,"43079,41667","54,2","12,6","ND","ND","ND","ND"],
    [28868,"43079,45833","49,6","8,2","ND","ND","ND","ND"],
    [28869,"43079,5","46,5","6,6","ND","ND","ND","ND"],
    [28870,"43079,54167","55,1","6,5","ND","ND","ND","ND"],
    [28871,"43079,58333","75,3","5","ND","ND","ND","ND"],
    [28872,"43079,625","53,9","1,4","ND","ND","ND","ND"],
    [28873,"43079,66667","23","1,2","ND","ND","ND","ND"],
    [28874,"43079,70833","22,4","1","ND","ND","ND","ND"],
    [28875,"43079,75","22,7","0,9","ND","ND","ND","ND"],
    [28876,"43079,79167","26,6","1,7","ND","ND","ND","ND"],
    [28877,"43079,83333","46,7","1","ND","ND","ND","ND"],
    [28878,"43079,875","14,3","1,3","ND","ND","ND","ND"],
    [28879,"43079,91667","20,3","6,5","ND","ND","ND","ND"],
    [28880,"43079,95833","57,6","4,8","ND","ND","ND","ND"],
    [28881,"10/13/2017 00:00","53,6","3,4","ND","ND","ND","ND"],
    [28882,"10/13/2017 01:00","40,9","2,6","ND","ND","ND","ND"],
    [28883,"10/13/2017 02:00","34,8","2,4","ND","ND","ND","ND"],
    [28884,"10/13/2017 03:00","29,7","1,9","ND","ND","ND","ND"],
    [28885,"10/13/2017 04:00","30,7","2,1","ND","ND","ND","ND"],
    [28886,"10/13/2017 05:00","35,5","2,2","ND","ND","ND","ND"],
    [28887,"10/13/2017 06:00","43,5","3,7","ND","ND","ND","ND"],
    [28888,"10/13/2017 07:00","66,2","3,1","ND","ND","ND","ND"],
    [28889,"10/13/2017 08:00","64,4","5,6","ND","ND","ND","ND"],
    [28890,"10/13/2017 09:00","64,8","6,7","ND","ND","ND","ND"],
    [28891,"10/13/2017 10:00","43,6","4,7","ND","ND","ND","ND"],
    [28892,"10/13/2017 11:00","32,8","5,7","ND","ND","ND","ND"],
    [28893,"10/13/2017 12:00","37,8","7,1","ND","ND","ND","ND"],
    [28894,"10/13/2017 13:00","53,7","6,1","ND","ND","ND","ND"],
    [28895,"10/13/2017 14:00","82","4","ND","ND","ND","ND"],
    [28896,"10/13/2017 15:00","62,4","1,7","ND","ND","ND","ND"],
    [28897,"10/13/2017 16:00","25,5","1,2","ND","ND","ND","ND"],
    [28898,"10/13/2017 17:00","26,5","1,4","ND","ND","ND","ND"],
    [28899,"10/13/2017 18:00","37,3","2,6","ND","ND","ND","ND"],
    [28900,"10/13/2017 19:00","53,3","2","ND","ND","ND","ND"],
    [28901,"10/13/2017 20:00","56,4","2,3","ND","ND","ND","ND"],
    [28902,"10/13/2017 21:00","76,8","2,2","ND","ND","ND","ND"],
    [28903,"10/13/2017 22:00","75,4","2,2","ND","ND","ND","ND"],
    [28904,"10/13/2017 23:00","66,2","1,8","ND","ND","ND","ND"],
    [28905,"10/14/2017 00:00","48,9","2","ND","ND","ND","ND"],
    [28906,"10/14/2017 01:00","52,1","1,7","ND","ND","ND","ND"],
    [28907,"10/14/2017 02:00","46,2","1,9","ND","ND","ND","ND"],
    [28908,"10/14/2017 03:00","40,2","1,7","ND","ND","ND","ND"],
    [28909,"10/14/2017 04:00","39,4","1,4","ND","ND","ND","ND"],
    [28910,"10/14/2017 05:00","40,4","1,4","ND","ND","ND","ND"],
    [28911,"10/14/2017 06:00","44,6","1,8","ND","ND","ND","ND"],
    [28912,"10/14/2017 07:00","52,8","2","ND","ND","ND","ND"],
    [28913,"10/14/2017 08:00","57,5","7","ND","ND","ND","ND"],
    [28914,"10/14/2017 09:00","83,5","9,8","ND","ND","ND","ND"],
    [28915,"10/14/2017 10:00","88,2","7,7","ND","ND","ND","ND"],
    [28916,"10/14/2017 11:00","60,4","8","ND","ND","ND","ND"],
    [28917,"10/14/2017 12:00","52,9","5,1","ND","ND","ND","ND"],
    [28918,"10/14/2017 13:00","49,3","4,3","ND","ND","ND","ND"],
    [28919,"10/14/2017 14:00","52,1","3,8","ND","ND","ND","ND"],
    [28920,"10/14/2017 15:00","60,9","3,5","ND","ND","ND","ND"],
    [28921,"10/14/2017 16:00","62,4","3,9","ND","ND","ND","ND"],
    [28922,"10/14/2017 17:00","99,7","1,5","ND","ND","ND","ND"],
    [28923,"10/14/2017 18:00","15,6","1,2","ND","ND","ND","ND"],
    [28924,"10/14/2017 19:00","26","1,8","ND","ND","ND","ND"],
    [28925,"10/14/2017 20:00","30","1,7","ND","ND","ND","ND"],
    [28926,"10/14/2017 21:00","42,5","1,3","ND","ND","ND","ND"],
    [28927,"10/14/2017 22:00","40,1","1,7","ND","ND","ND","ND"],
    [28928,"10/14/2017 23:00","83,2","2,3","ND","ND","ND","ND"],
    [28929,"10/15/2017 00:00","77,7","2","ND","ND","ND","ND"],
    [28930,"10/15/2017 01:00","59,9","2,2","ND","ND","ND","ND"],
    [28931,"10/15/2017 02:00","46,5","1,8","ND","ND","ND","ND"],
    [28932,"10/15/2017 03:00","44,7","1,7","ND","ND","ND","ND"],
    [28933,"10/15/2017 04:00","58,4","1,6","ND","ND","ND","ND"],
    [28934,"10/15/2017 05:00","43,7","1,6","ND","ND","ND","ND"],
    [28935,"10/15/2017 06:00","79","1,5","ND","ND","ND","ND"],
    [28936,"10/15/2017 07:00","34,8","1,6","ND","ND","ND","ND"],
    [28937,"10/15/2017 08:00","53,9","2,1","ND","ND","ND","ND"],
    [28938,"10/15/2017 09:00","50,1","7,8","ND","ND","ND","ND"],
    [28939,"10/15/2017 10:00","40,7","6,4","ND","ND","ND","ND"],
    [28940,"10/15/2017 11:00","39,3","7,5","ND","ND","ND","ND"],
    [28941,"10/15/2017 12:00","38,5","6,9","ND","ND","ND","ND"],
    [28942,"10/15/2017 13:00","43,1","5,5","ND","ND","ND","ND"],
    [28943,"10/15/2017 14:00","61,5","6,2","ND","ND","ND","ND"],
    [28944,"10/15/2017 15:00","73,3","7,7","ND","ND","ND","ND"],
    [28945,"10/15/2017 16:00","81,3","7,4","ND","ND","ND","ND"],
    [28946,"10/15/2017 17:00","74,3","5,2","ND","ND","ND","ND"],
    [28947,"10/15/2017 18:00","71,7","3","ND","ND","ND","ND"],
    [28948,"10/15/2017 19:00","54,1","1,2","ND","ND","ND","ND"],
    [28949,"10/15/2017 20:00","22,4","1,3","ND","ND","ND","ND"],
    [28950,"10/15/2017 21:00","28,4","1,6","ND","ND","ND","ND"],
    [28951,"10/15/2017 22:00","38,9","1,8","ND","ND","ND","ND"],
    [28952,"10/15/2017 23:00","46","2,1","ND","ND","ND","ND"],
    [28953,"10/16/2017 00:00","69,3","1,7","ND","ND","ND","ND"],
    [28954,"10/16/2017 01:00","69,4","1,9","ND","ND","ND","ND"],
    [28955,"10/16/2017 02:00","43,7","1,7","ND","ND","ND","ND"],
    [28956,"10/16/2017 03:00","50,1","1,5","ND","ND","ND","ND"],
    [28957,"10/16/2017 04:00","45","1,2","ND","ND","ND","ND"],
    [28958,"10/16/2017 05:00","41,8","1,4","ND","ND","ND","ND"],
    [28959,"10/16/2017 06:00","40,3","1,3","ND","ND","ND","ND"],
    [28960,"10/16/2017 07:00","44,2","1,6","ND","ND","ND","ND"],
    [28961,"10/16/2017 08:00","51,2","3,7","ND","ND","ND","ND"],
    [28962,"10/16/2017 09:00","44,9","6,5","ND","ND","ND","ND"],
    [28963,"10/16/2017 10:00","46,5","7,3","ND","ND","ND","ND"],
    [28964,"10/16/2017 11:00","45,5","5,1","ND","ND","ND","ND"],
    [28965,"10/16/2017 12:00","45,4","3,9","ND","ND","ND","ND"],
    [28966,"10/16/2017 13:00","48,7","3,1","ND","ND","ND","ND"],
    [28967,"10/16/2017 14:00","49,5","1","ND","ND","ND","ND"],
    [28968,"10/16/2017 15:00","23,1","1,2","ND","ND","ND","ND"],
    [28969,"10/16/2017 16:00","30,9","1,3","ND","ND","ND","ND"],
    [28970,"10/16/2017 17:00","19,8","0,9","ND","ND","ND","ND"],
    [28971,"10/16/2017 18:00","9,5","0,7","ND","ND","ND","ND"],
    [28972,"10/16/2017 19:00","12,5","0,8","ND","ND","ND","ND"],
    [28973,"10/16/2017 20:00","11","1","ND","ND","ND","ND"],
    [28974,"10/16/2017 21:00","15,1","1,4","ND","ND","ND","ND"],
    [28975,"10/16/2017 22:00","35,5","1,9","ND","ND","ND","ND"],
    [28976,"10/16/2017 23:00","87,5","1,5","ND","ND","ND","ND"],
    [28977,"10/17/2017 00:00","38,8","1,3","ND","ND","ND","ND"],
    [28978,"10/17/2017 01:00","22,4","1,3","ND","ND","ND","ND"],
    [28979,"10/17/2017 02:00","24,4","1,1","ND","ND","ND","ND"],
    [28980,"10/17/2017 03:00","20,1","1,2","ND","ND","ND","ND"],
    [28981,"10/17/2017 04:00","21,1","1","ND","ND","ND","ND"],
    [28982,"10/17/2017 05:00","24","2,2","ND","ND","ND","ND"],
    [28983,"10/17/2017 06:00","43,8","1,8","ND","ND","ND","ND"],
    [28984,"10/17/2017 07:00","50","2,5","ND","ND","ND","ND"],
    [28985,"10/17/2017 08:00","73,7","5,8","ND","ND","ND","ND"],
    [28986,"10/17/2017 09:00","67,9","11,2","ND","ND","ND","ND"],
    [28987,"10/17/2017 10:00","70,3","9,8","ND","ND","ND","ND"],
    [28988,"10/17/2017 11:00","53,4","8,2","ND","ND","ND","ND"],
    [28989,"10/17/2017 12:00","53,1","6,8","ND","ND","ND","ND"],
    [28990,"10/17/2017 13:00","70,6","5,7","ND","ND","ND","ND"],
    [28991,"10/17/2017 14:00","78,4","3,3","ND","ND","ND","ND"],
    [28992,"10/17/2017 15:00","63,2","1,6","ND","ND","ND","ND"],
    [28993,"10/17/2017 16:00","29,4","1,4","ND","ND","ND","ND"],
    [28994,"10/17/2017 17:00","32,2","1,1","ND","ND","ND","ND"],
    [28995,"10/17/2017 18:00","27,8","0,9","ND","ND","ND","ND"],
    [28996,"10/17/2017 19:00","24,1","0,9","ND","ND","ND","ND"],
    [28997,"10/17/2017 20:00","21,5","0,9","ND","ND","ND","ND"],
    [28998,"10/17/2017 21:00","15,4","1,5","ND","ND","ND","ND"],
    [28999,"10/17/2017 22:00","33,8","2,5","ND","ND","ND","ND"],
    [29000,"10/17/2017 23:00","46","2,3","ND","ND","ND","ND"],
    [29001,"10/18/2017 00:00","45,7","2,2","ND","ND","ND","ND"],
    [29002,"10/18/2017 01:00","38,7","1,5","ND","ND","ND","ND"],
    [29003,"10/18/2017 02:00","26,2","1,4","ND","ND","ND","ND"],
    [29004,"10/18/2017 03:00","23,7","1,3","ND","ND","ND","ND"],
    [29005,"10/18/2017 04:00","23,2","1,1","ND","ND","ND","ND"],
    [29006,"10/18/2017 05:00","18,9","1,9","ND","ND","ND","ND"],
    [29007,"10/18/2017 06:00","30,6","1,7","ND","ND","ND","ND"],
    [29008,"10/18/2017 07:00","48,2","2,4","ND","ND","ND","ND"],
    [29009,"10/18/2017 08:00","71,3","5,2","ND","ND","ND","ND"],
    [29010,"10/18/2017 09:00","77,3","7,8","ND","ND","ND","ND"],
    [29011,"10/18/2017 10:00","74,1","9,2","ND","ND","ND","ND"],
    [29012,"10/18/2017 11:00","67,8","9,5","ND","ND","ND","ND"],
    [29013,"10/18/2017 12:00","69,8","9,1","ND","ND","ND","ND"],
    [29014,"10/18/2017 13:00","88,2","9","ND","ND","ND","ND"],
    [29015,"10/18/2017 14:00","95,4","9,2","ND","ND","ND","ND"],
    [29016,"10/18/2017 15:00","95","6,6","ND","ND","ND","ND"],
    [29017,"10/18/2017 16:00","70,3","2,2","ND","ND","ND","ND"],
    [29018,"10/18/2017 17:00","32,9","1,4","ND","ND","ND","ND"],
    [29019,"10/18/2017 18:00","52","0,9","ND","ND","ND","ND"],
    [29020,"10/18/2017 19:00","35,6","0,9","ND","ND","ND","ND"],
    [29021,"10/18/2017 20:00","24,9","0,8","ND","ND","ND","ND"],
    [29022,"10/18/2017 21:00","20,8","0,8","ND","ND","ND","ND"],
    [29023,"10/18/2017 22:00","16,7","2,3","ND","ND","ND","ND"],
    [29024,"10/18/2017 23:00","42,2","4,1","ND","ND","ND","ND"],
    [29025,"10/19/2017 00:00","107,8","2,6","ND","ND","ND","ND"],
    [29026,"10/19/2017 01:00","67,7","2","ND","ND","ND","ND"],
    [29027,"10/19/2017 02:00","46,6","1,8","ND","ND","ND","ND"],
    [29028,"10/19/2017 03:00","37,4","1,5","ND","ND","ND","ND"],
    [29029,"10/19/2017 04:00","32,3","1","ND","ND","ND","ND"],
    [29030,"10/19/2017 05:00","15,8","1,1","ND","ND","ND","ND"],
    [29031,"10/19/2017 06:00","20,4","1,4","ND","ND","ND","ND"],
    [29032,"10/19/2017 07:00","31,2","1,8","ND","ND","ND","ND"],
    [29033,"10/19/2017 08:00","45,3","2,1","ND","ND","ND","ND"],
    [29034,"10/19/2017 09:00","66,4","3","ND","ND","ND","ND"],
    [29035,"10/19/2017 10:00","68","8,8","ND","ND","ND","ND"],
    [29036,"10/19/2017 11:00","67,3","7","ND","ND","ND","ND"],
    [29037,"10/19/2017 12:00","49,1","4,5","ND","ND","ND","ND"],
    [29038,"10/19/2017 13:00","36,4","3,1","ND","ND","ND","ND"],
    [29039,"10/19/2017 14:00","42,4","3,1","ND","ND","ND","ND"],
    [29040,"10/19/2017 15:00","35,4","2,7","ND","ND","ND","ND"],
    [29041,"10/19/2017 16:00","41,8","1,6","ND","ND","ND","ND"],
    [29042,"10/19/2017 17:00","56,9","1,1","ND","ND","ND","ND"],
    [29043,"10/19/2017 18:00","25,1","1","ND","ND","ND","ND"],
    [29044,"10/19/2017 19:00","19,1","0,9","ND","ND","ND","ND"],
    [29045,"10/19/2017 20:00","18,6","0,9","ND","ND","ND","ND"],
    [29046,"10/19/2017 21:00","15,9","1,2","ND","ND","ND","ND"],
    [29047,"10/19/2017 22:00","29,6","1,5","ND","ND","ND","ND"],
    [29048,"10/19/2017 23:00","43,3","2","ND","ND","ND","ND"],
    [29049,"10/20/2017 00:00","62,4","1,8","ND","ND","ND","ND"],
    [29050,"10/20/2017 01:00","47,5","1,5","ND","ND","ND","ND"],
    [29051,"10/20/2017 02:00","37,7","1,4","ND","ND","ND","ND"],
    [29052,"10/20/2017 03:00","37,6","1,4","ND","ND","ND","ND"],
    [29053,"10/20/2017 04:00","35,3","1,4","ND","ND","ND","ND"],
    [29054,"10/20/2017 05:00","36,4","3,4","ND","ND","ND","ND"],
    [29055,"10/20/2017 06:00","51,9","2,4","ND","ND","ND","ND"],
    [29056,"10/20/2017 07:00","63,2","3,2","ND","ND","ND","ND"],
    [29057,"10/20/2017 08:00","90,7","5,9","ND","ND","ND","ND"],
    [29058,"10/20/2017 09:00","71,3","13,1","ND","ND","ND","ND"],
    [29059,"10/20/2017 10:00","72","10,1","ND","ND","ND","ND"],
    [29060,"10/20/2017 11:00","83,9","9,4","ND","ND","ND","ND"],
    [29061,"10/20/2017 12:00","81","6,2","ND","ND","ND","ND"],
    [29062,"10/20/2017 13:00","64,1","3,4","ND","ND","ND","ND"],
    [29063,"10/20/2017 14:00","38,2","1,6","ND","ND","ND","ND"],
    [29064,"10/20/2017 15:00","21,1","1,6","ND","ND","ND","ND"],
    [29065,"10/20/2017 16:00","31,2","1,3","ND","ND","ND","ND"],
    [29066,"10/20/2017 17:00","22","1","ND","ND","ND","ND"],
    [29067,"10/20/2017 18:00","20,8","0,8","ND","ND","ND","ND"],
    [29068,"10/20/2017 19:00","23,1","1,2","ND","ND","ND","ND"],
    [29069,"10/20/2017 20:00","20","1","ND","ND","ND","ND"],
    [29070,"10/20/2017 21:00","19","1,9","ND","ND","ND","ND"],
    [29071,"10/20/2017 22:00","51,8","3","ND","ND","ND","ND"],
    [29072,"10/20/2017 23:00","54,8","4,8","ND","ND","ND","ND"],
    [29073,"10/21/2017 00:00","56,5","2,2","ND","ND","ND","ND"],
    [29074,"10/21/2017 01:00","40","2,1","ND","ND","ND","ND"],
    [29075,"10/21/2017 02:00","43","2,6","ND","ND","ND","ND"],
    [29076,"10/21/2017 03:00","45,3","4,6","ND","ND","ND","ND"],
    [29077,"10/21/2017 04:00","47,6","3,5","ND","ND","ND","ND"],
    [29078,"10/21/2017 05:00","39,5","2,6","ND","ND","ND","ND"],
    [29079,"10/21/2017 06:00","44,5","2,2","ND","ND","ND","ND"],
    [29080,"10/21/2017 07:00","46,4","3","ND","ND","ND","ND"],
    [29081,"10/21/2017 08:00","64,2","4,4","ND","ND","ND","ND"],
    [29082,"10/21/2017 09:00","75,4","5,9","ND","ND","ND","ND"],
    [29083,"10/21/2017 10:00","81,8","11,3","ND","ND","ND","ND"],
    [29084,"10/21/2017 11:00","76,2","10","ND","ND","ND","ND"],
    [29085,"10/21/2017 12:00","58,2","5,7","ND","ND","ND","ND"],
    [29086,"10/21/2017 13:00","62,3","5,3","ND","ND","ND","ND"],
    [29087,"10/21/2017 14:00","73,4","5,5","ND","ND","ND","ND"],
    [29088,"10/21/2017 15:00","65,7","3,4","ND","ND","ND","ND"],
    [29089,"10/21/2017 16:00","37","1,1","ND","ND","ND","ND"],
    [29090,"10/21/2017 17:00","15,2","1,1","ND","ND","ND","ND"],
    [29091,"10/21/2017 18:00","12,3","0,8","ND","ND","ND","ND"],
    [29092,"10/21/2017 19:00","12,9","0,9","ND","ND","ND","ND"],
    [29093,"10/21/2017 20:00","12,2","0,8","ND","ND","ND","ND"],
    [29094,"10/21/2017 21:00","13,2","1,1","ND","ND","ND","ND"],
    [29095,"10/21/2017 22:00","16,9","1,7","ND","ND","ND","ND"],
    [29096,"10/21/2017 23:00","29,8","3,2","ND","ND","ND","ND"],
    [29097,"10/22/2017 00:00","73","2,4","ND","ND","ND","ND"],
    [29098,"10/22/2017 01:00","58,1","2","ND","ND","ND","ND"],
    [29099,"10/22/2017 02:00","48,3","2,1","ND","ND","ND","ND"],
    [29100,"10/22/2017 03:00","56,8","4","ND","ND","ND","ND"],
    [29101,"10/22/2017 04:00","46,3","2,9","ND","ND","ND","ND"],
    [29102,"10/22/2017 05:00","40,8","2,6","ND","ND","ND","ND"],
    [29103,"10/22/2017 06:00","46,9","2,4","ND","ND","ND","ND"],
    [29104,"10/22/2017 07:00","43,9","2,3","ND","ND","ND","ND"],
    [29105,"10/22/2017 08:00","51,9","2,8","ND","ND","ND","ND"],
    [29106,"10/22/2017 09:00","54,5","5,1","ND","ND","ND","ND"],
    [29107,"10/22/2017 10:00","58,4","5,9","ND","ND","ND","ND"],
    [29108,"10/22/2017 11:00","51,3","5,9","ND","ND","ND","ND"],
    [29109,"10/22/2017 12:00","21,7","9,4","ND","ND","ND","ND"],
    [29110,"10/22/2017 13:00","16,7","9,3","ND","ND","ND","ND"],
    [29111,"10/22/2017 14:00","18,8","7,6","ND","ND","ND","ND"],
    [29112,"10/22/2017 15:00","31,7","2,8","ND","ND","ND","ND"],
    [29113,"10/22/2017 16:00","40,7","1,9","ND","ND","ND","ND"],
    [29114,"10/22/2017 17:00","20,1","2","ND","ND","ND","ND"],
    [29115,"10/22/2017 18:00","26,5","2,1","ND","ND","ND","ND"],
    [29116,"10/22/2017 19:00","35,5","2,1","ND","ND","ND","ND"],
    [29117,"10/22/2017 20:00","47,4","2,1","ND","ND","ND","ND"],
    [29118,"10/22/2017 21:00","66,4","2","ND","ND","ND","ND"],
    [29119,"10/22/2017 22:00","67,1","1,8","ND","ND","ND","ND"],
    [29120,"10/22/2017 23:00","42,5","2","ND","ND","ND","ND"],
    [29121,"10/23/2017 00:00","45,8","3","ND","ND","ND","ND"],
    [29122,"10/23/2017 01:00","42,3","2,5","ND","ND","ND","ND"],
    [29123,"10/23/2017 02:00","35,8","2,4","ND","ND","ND","ND"],
    [29124,"10/23/2017 03:00","39,8","1,9","ND","ND","ND","ND"],
    [29125,"10/23/2017 04:00","34,2","1,5","ND","ND","ND","ND"],
    [29126,"10/23/2017 05:00","32,5","1,4","ND","ND","ND","ND"],
    [29127,"10/23/2017 06:00","34,2","1,8","ND","ND","ND","ND"],
    [29128,"10/23/2017 07:00","46,7","2,9","ND","ND","ND","ND"],
    [29129,"10/23/2017 08:00","64,4","3,8","ND","ND","ND","ND"],
    [29130,"10/23/2017 09:00","82,9","4,5","ND","ND","ND","ND"],
    [29131,"10/23/2017 10:00","81,6","6,7","ND","ND","ND","ND"],
    [29132,"10/23/2017 11:00","76,4","6,7","ND","ND","ND","ND"],
    [29133,"10/23/2017 12:00","85,4","8,2","ND","ND","ND","ND"],
    [29134,"10/23/2017 13:00","78,6","6,2","ND","ND","ND","ND"],
    [29135,"10/23/2017 14:00","59,6","6,7","ND","ND","ND","ND"],
    [29136,"10/23/2017 15:00","59,5","3,3","ND","ND","ND","ND"],
    [29137,"10/23/2017 16:00","22,2","2,3","ND","ND","ND","ND"],
    [29138,"10/23/2017 17:00","24,8","1,4","ND","ND","ND","ND"],
    [29139,"10/23/2017 18:00","15,3","1,2","ND","ND","ND","ND"],
    [29140,"10/23/2017 19:00","20,6","2","ND","ND","ND","ND"],
    [29141,"10/23/2017 20:00","32,7","2,3","ND","ND","ND","ND"],
    [29142,"10/23/2017 21:00","36,1","1,7","ND","ND","ND","ND"],
    [29143,"10/23/2017 22:00","28,6","1,3","ND","ND","ND","ND"],
    [29144,"10/23/2017 23:00","24,8","1,5","ND","ND","ND","ND"],
    [29145,"10/24/2017 00:00","16","1,5","ND","ND","ND","ND"],
    [29146,"10/24/2017 01:00","8,4","1,2","ND","ND","ND","ND"],
    [29147,"10/24/2017 02:00","10,3","1,1","ND","ND","ND","ND"],
    [29148,"10/24/2017 03:00","7,8","1,2","ND","ND","ND","ND"],
    [29149,"10/24/2017 04:00","12,1","1,4","ND","ND","ND","ND"],
    [29150,"10/24/2017 05:00","17,1","1,5","ND","ND","ND","ND"],
    [29151,"10/24/2017 06:00","13,5","1,8","ND","ND","ND","ND"],
    [29152,"10/24/2017 07:00","20,1","2,3","ND","ND","ND","ND"],
    [29153,"10/24/2017 08:00","22,2","2,2","ND","ND","ND","ND"],
    [29154,"10/24/2017 09:00","19,6","2,4","ND","ND","ND","ND"],
    [29155,"10/24/2017 10:00","21,4","2,2","ND","ND","ND","ND"],
    [29156,"10/24/2017 11:00","28","2,5","ND","ND","ND","ND"],
    [29157,"10/24/2017 12:00","34,3","2,9","ND","ND","ND","ND"],
    [29158,"10/24/2017 13:00","42,7","4,7","ND","ND","ND","ND"],
    [29159,"10/24/2017 14:00","51,6","4,6","ND","ND","ND","ND"],
    [29160,"10/24/2017 15:00","59,9","4,4","ND","ND","ND","ND"],
    [29161,"10/24/2017 16:00","73,7","11","ND","ND","ND","ND"],
    [29162,"10/24/2017 17:00","93,5","22,1","ND","ND","ND","ND"],
    [29163,"10/24/2017 18:00","92,4","14,5","ND","ND","ND","ND"],
    [29164,"10/24/2017 19:00","82,4","11","ND","ND","ND","ND"],
    [29165,"10/24/2017 20:00","78,4","9,1","ND","ND","ND","ND"],
    [29166,"10/24/2017 21:00","87,3","7,8","ND","ND","ND","ND"],
    [29167,"10/24/2017 22:00","69,5","5,6","ND","ND","ND","ND"],
    [29168,"10/24/2017 23:00","64,2","5,3","ND","ND","ND","ND"],
    [29169,"10/25/2017 00:00","57,4","4,1","ND","ND","ND","ND"],
    [29170,"10/25/2017 01:00","63,3","4,1","ND","ND","ND","ND"],
    [29171,"10/25/2017 02:00","32","3,8","ND","ND","ND","ND"],
    [29172,"10/25/2017 03:00","35,8","2,9","ND","ND","ND","ND"],
    [29173,"10/25/2017 04:00","36,5","2,3","ND","ND","ND","ND"],
    [29174,"10/25/2017 05:00","35,6","2,3","ND","ND","ND","ND"],
    [29175,"10/25/2017 06:00","41,7","2,2","ND","ND","ND","ND"],
    [29176,"10/25/2017 07:00","50,6","2,9","ND","ND","ND","ND"],
    [29177,"10/25/2017 08:00","92,4","3,9","ND","ND","ND","ND"],
    [29178,"10/25/2017 09:00","98,3","6,7","ND","ND","ND","ND"],
    [29179,"10/25/2017 10:00","123,7","14,6","ND","ND","ND","ND"],
    [29180,"10/25/2017 11:00","122,2","9,1","ND","ND","ND","ND"],
    [29181,"10/25/2017 12:00","105,7","7,4","ND","ND","ND","ND"],
    [29182,"10/25/2017 13:00","82,4","10,8","ND","ND","ND","ND"],
    [29183,"10/25/2017 14:00","93,6","15","ND","ND","ND","ND"],
    [29184,"10/25/2017 15:00","141,9","10,2","ND","ND","ND","ND"],
    [29185,"10/25/2017 16:00","106,4","10","ND","ND","ND","ND"],
    [29186,"10/25/2017 17:00","104,7","4,7","ND","ND","ND","ND"],
    [29187,"10/25/2017 18:00","53,6","2","ND","ND","ND","ND"],
    [29188,"10/25/2017 19:00","28,9","1,6","ND","ND","ND","ND"],
    [29189,"10/25/2017 20:00","16,3","1,4","ND","ND","ND","ND"],
    [29190,"10/25/2017 21:00","17,5","1,2","ND","ND","ND","ND"],
    [29191,"10/25/2017 22:00","10,2","1,9","ND","ND","ND","ND"],
    [29192,"10/25/2017 23:00","19,8","1,6","ND","ND","ND","ND"],
    [29193,"10/26/2017 00:00","19,4","1,9","ND","ND","ND","ND"],
    [29194,"10/26/2017 01:00","52","2","ND","ND","ND","ND"],
    [29195,"10/26/2017 02:00","53","2,9","ND","ND","ND","ND"],
    [29196,"10/26/2017 03:00","45,7","1,8","ND","ND","ND","ND"],
    [29197,"10/26/2017 04:00","43,8","1,9","ND","ND","ND","ND"],
    [29198,"10/26/2017 05:00","33,8","1,2","ND","ND","ND","ND"],
    [29199,"10/26/2017 06:00","1,7","1,4","ND","ND","ND","ND"],
    [29200,"10/26/2017 07:00","14,8","1,9","ND","ND","ND","ND"],
    [29201,"10/26/2017 08:00","16,1","2,7","ND","ND","ND","ND"],
    [29202,"10/26/2017 09:00","21,5","1,8","ND","ND","ND","ND"],
    [29203,"10/26/2017 10:00","19,2","2,5","ND","ND","ND","ND"],
    [29204,"10/26/2017 11:00","26,1","2,4","ND","ND","ND","ND"],
    [29205,"10/26/2017 12:00","27","3,3","ND","ND","ND","ND"],
    [29206,"10/26/2017 13:00","52,3","12,2","ND","ND","ND","ND"],
    [29207,"10/26/2017 14:00","88,7","10,1","ND","ND","ND","ND"],
    [29208,"10/26/2017 15:00","44,6","7,3","ND","ND","ND","ND"],
    [29209,"10/26/2017 16:00","29,3","3,5","ND","ND","ND","ND"],
    [29210,"10/26/2017 17:00","34","6,3","ND","ND","ND","ND"],
    [29211,"10/26/2017 18:00","54,5","5,6","ND","ND","ND","ND"],
    [29212,"10/26/2017 19:00","87,9","4,3","ND","ND","ND","ND"],
    [29213,"10/26/2017 20:00","82","4,6","ND","ND","ND","ND"],
    [29214,"10/26/2017 21:00","81,3","4,3","ND","ND","ND","ND"],
    [29215,"10/26/2017 22:00","58,3","4","ND","ND","ND","ND"],
    [29216,"10/26/2017 23:00","82,7","3","ND","ND","ND","ND"],
    [29217,"10/27/2017 00:00","69","2,4","ND","ND","ND","ND"],
    [29218,"10/27/2017 01:00","52,7","1,8","ND","ND","ND","ND"],
    [29219,"10/27/2017 02:00","36,1","1,7","ND","ND","ND","ND"],
    [29220,"10/27/2017 03:00","31,8","1,4","ND","ND","ND","ND"],
    [29221,"10/27/2017 04:00","27,8","1,4","ND","ND","ND","ND"],
    [29222,"10/27/2017 05:00","36,2","1,2","ND","ND","ND","ND"],
    [29223,"10/27/2017 06:00","31,5","1,8","ND","ND","ND","ND"],
    [29224,"10/27/2017 07:00","65,6","2,6","ND","ND","ND","ND"],
    [29225,"10/27/2017 08:00","94,2","3,4","ND","ND","ND","ND"],
    [29226,"10/27/2017 09:00","82","5,5","ND","ND","ND","ND"],
    [29227,"10/27/2017 10:00","48","4,5","ND","ND","ND","ND"],
    [29228,"10/27/2017 11:00","34,9","3,8","ND","ND","ND","ND"],
    [29229,"10/27/2017 12:00","47,8","3,2","ND","ND","ND","ND"],
    [29230,"10/27/2017 13:00","54,9","3","ND","ND","ND","ND"],
    [29231,"10/27/2017 14:00","56,5","4,2","ND","ND","ND","ND"],
    [29232,"10/27/2017 15:00","58","2,1","ND","ND","ND","ND"],
    [29233,"10/27/2017 16:00","33,8","1,2","ND","ND","ND","ND"],
    [29234,"10/27/2017 17:00","21,1","1,1","ND","ND","ND","ND"],
    [29235,"10/27/2017 18:00","26,5","1","ND","ND","ND","ND"],
    [29236,"10/27/2017 19:00","22,7","0,9","ND","ND","ND","ND"],
    [29237,"10/27/2017 20:00","24,5","1,9","ND","ND","ND","ND"],
    [29238,"10/27/2017 21:00","47,4","5,1","ND","ND","ND","ND"],
    [29239,"10/27/2017 22:00","62,6","2,9","ND","ND","ND","ND"],
    [29240,"10/27/2017 23:00","47,1","1,4","ND","ND","ND","ND"],
    [29241,"10/28/2017 00:00","9,2","1,4","ND","ND","ND","ND"],
    [29242,"10/28/2017 01:00","14,1","1,3","ND","ND","ND","ND"],
    [29243,"10/28/2017 02:00","11,5","1,2","ND","ND","ND","ND"],
    [29244,"10/28/2017 03:00","6,1","1","ND","ND","ND","ND"],
    [29245,"10/28/2017 04:00","9,5","0,8","ND","ND","ND","ND"],
    [29246,"10/28/2017 05:00","10,2","1","ND","ND","ND","ND"],
    [29247,"10/28/2017 06:00","18,7","1","ND","ND","ND","ND"],
    [29248,"10/28/2017 07:00","29,3","1,4","ND","ND","ND","ND"],
    [29249,"10/28/2017 08:00","47,4","5,6","ND","ND","ND","ND"],
    [29250,"10/28/2017 09:00","81,6","22,5","ND","ND","ND","ND"],
    [29251,"10/28/2017 10:00","127,3","11,6","ND","ND","ND","ND"],
    [29252,"10/28/2017 11:00","67,4","6,4","ND","ND","ND","ND"],
    [29253,"10/28/2017 12:00","34,8","5,2","ND","ND","ND","ND"],
    [29254,"10/28/2017 13:00","65,1","3,6","ND","ND","ND","ND"],
    [29255,"10/28/2017 14:00","61,5","3,2","ND","ND","ND","ND"],
    [29256,"10/28/2017 15:00","52,2","4,2","ND","ND","ND","ND"],
    [29257,"10/28/2017 16:00","39,8","3,9","ND","ND","ND","ND"],
    [29258,"10/28/2017 17:00","20,7","2,4","ND","ND","ND","ND"],
    [29259,"10/28/2017 18:00","41,8","3,5","ND","ND","ND","ND"],
    [29260,"10/28/2017 19:00","54,5","2,1","ND","ND","ND","ND"],
    [29261,"10/28/2017 20:00","10,9","2","ND","ND","ND","ND"],
    [29262,"10/28/2017 21:00","33,8","2,2","ND","ND","ND","ND"],
    [29263,"10/28/2017 22:00","80,8","2","ND","ND","ND","ND"],
    [29264,"10/28/2017 23:00","52,2","2","ND","ND","ND","ND"],
    [29265,"10/29/2017 00:00","43,5","2,3","ND","ND","ND","ND"],
    [29266,"10/29/2017 01:00","54,1","2,4","ND","ND","ND","ND"],
    [29267,"10/29/2017 02:00","28,7","2","ND","ND","ND","ND"],
    [29268,"10/29/2017 03:00","35,6","1,8","ND","ND","ND","ND"],
    [29269,"10/29/2017 04:00","30,1","1,7","ND","ND","ND","ND"],
    [29270,"10/29/2017 05:00","36,5","1,3","ND","ND","ND","ND"],
    [29271,"10/29/2017 06:00","28,1","2","ND","ND","ND","ND"],
    [29272,"10/29/2017 07:00","42,4","2","ND","ND","ND","ND"],
    [29273,"10/29/2017 08:00","58,2","2,7","ND","ND","ND","ND"],
    [29274,"10/29/2017 09:00","50,3","3,3","ND","ND","ND","ND"],
    [29275,"10/29/2017 10:00","53,4","3,7","ND","ND","ND","ND"],
    [29276,"10/29/2017 11:00","47,1","5,8","ND","ND","ND","ND"],
    [29277,"10/29/2017 12:00","41,8","5,2","ND","ND","ND","ND"],
    [29278,"10/29/2017 13:00","42,8","4,2","ND","ND","ND","ND"],
    [29279,"10/29/2017 14:00","45,8","4,1","ND","ND","ND","ND"],
    [29280,"10/29/2017 15:00","56,9","4,3","ND","ND","ND","ND"],
    [29281,"10/29/2017 16:00","62,4","5","ND","ND","ND","ND"],
    [29282,"10/29/2017 17:00","69","4","ND","ND","ND","ND"],
    [29283,"10/29/2017 18:00","73,9","3,6","ND","ND","ND","ND"],
    [29284,"10/29/2017 19:00","95,9","2,6","ND","ND","ND","ND"],
    [29285,"10/29/2017 20:00","82","2,3","ND","ND","ND","ND"],
    [29286,"10/29/2017 21:00","78,5","2","ND","ND","ND","ND"],
    [29287,"10/29/2017 22:00","46,5","2,3","ND","ND","ND","ND"],
    [29288,"10/29/2017 23:00","57,9","2,2","ND","ND","ND","ND"],
    [29289,"10/30/2017 00:00","59,8","2,2","ND","ND","ND","ND"],
    [29290,"10/30/2017 01:00","53,2","1,9","ND","ND","ND","ND"],
    [29291,"10/30/2017 02:00","38,9","1,6","ND","ND","ND","ND"],
    [29292,"10/30/2017 03:00","42,9","1,8","ND","ND","ND","ND"],
    [29293,"10/30/2017 04:00","36,2","1,5","ND","ND","ND","ND"],
    [29294,"10/30/2017 05:00","36,2","1,6","ND","ND","ND","ND"],
    [29295,"10/30/2017 06:00","42,3","1,9","ND","ND","ND","ND"],
    [29296,"10/30/2017 07:00","64","2,5","ND","ND","ND","ND"],
    [29297,"10/30/2017 08:00","66,7","3,5","ND","ND","ND","ND"],
    [29298,"10/30/2017 09:00","61,2","4","ND","ND","ND","ND"],
    [29299,"10/30/2017 10:00","63,8","3,3","ND","ND","ND","ND"],
    [29300,"10/30/2017 11:00","58","4,9","ND","ND","ND","ND"],
    [29301,"10/30/2017 12:00","53","6,4","ND","ND","ND","ND"],
    [29302,"10/30/2017 13:00","41,9","4,7","ND","ND","ND","ND"],
    [29303,"10/30/2017 14:00","35,7","3,7","ND","ND","ND","ND"],
    [29304,"10/30/2017 15:00","37,9","3,5","ND","ND","ND","ND"],
    [29305,"10/30/2017 16:00","56","7,2","ND","ND","ND","ND"],
    [29306,"10/30/2017 17:00","56,1","6,4","ND","ND","ND","ND"],
    [29307,"10/30/2017 18:00","45,8","2,3","ND","ND","ND","ND"],
    [29308,"10/30/2017 19:00","25,7","3","ND","ND","ND","ND"],
    [29309,"10/30/2017 20:00","52,7","1,9","ND","ND","ND","ND"],
    [29310,"10/30/2017 21:00","33,4","2","ND","ND","ND","ND"],
    [29311,"10/30/2017 22:00","24,8","1,7","ND","ND","ND","ND"],
    [29312,"10/30/2017 23:00","22,9","1,6","ND","ND","ND","ND"],
    [29313,"10/31/2017 00:00","22,3","1,8","ND","ND","ND","ND"],
    [29314,"10/31/2017 01:00","30,9","2,4","ND","ND","ND","ND"],
    [29315,"10/31/2017 02:00","35,6","10,1","ND","ND","ND","ND"],
    [29316,"10/31/2017 03:00","53,1","5,5","ND","ND","ND","ND"],
    [29317,"10/31/2017 04:00","33,4","2,9","ND","ND","ND","ND"],
    [29318,"10/31/2017 05:00","32,8","4,1","ND","ND","ND","ND"],
    [29319,"10/31/2017 06:00","51,2","3,3","ND","ND","ND","ND"],
    [29320,"10/31/2017 07:00","67,8","3,9","ND","ND","ND","ND"],
    [29321,"10/31/2017 08:00","83,3","5,3","ND","ND","ND","ND"],
    [29322,"10/31/2017 09:00","105","7,5","ND","ND","ND","ND"],
    [29323,"10/31/2017 10:00","124,4","15","ND","ND","ND","ND"],
    [29324,"10/31/2017 11:00","89","9,6","ND","ND","ND","ND"],
    [29325,"10/31/2017 12:00","50,4","5,9","ND","ND","ND","ND"],
    [29326,"10/31/2017 13:00","38,9","3,3","ND","ND","ND","ND"],
    [29327,"10/31/2017 14:00","38,8","2,8","ND","ND","ND","ND"],
    [29328,"10/31/2017 15:00","46,3","3,7","ND","ND","ND","ND"],
    [29329,"10/31/2017 16:00","50,5","4,2","ND","ND","ND","ND"],
    [29330,"10/31/2017 17:00","54","3,5","ND","ND","ND","ND"],
    [29331,"10/31/2017 18:00","51,8","1,6","ND","ND","ND","ND"],
    [29332,"10/31/2017 19:00","38,3","3","ND","ND","ND","ND"],
    [29333,"10/31/2017 20:00","75","2,7","ND","ND","ND","ND"],
    [29334,"10/31/2017 21:00","69,4","2,4","ND","ND","ND","ND"],
    [29335,"10/31/2017 22:00","74,4","2,5","ND","ND","ND","ND"],
    [29336,"10/31/2017 23:00","65,9","2,3","ND","ND","ND","ND"],
    [29337,"42746","64,1","2","ND","ND","ND","ND"],
    [29338,"42746,04167","56,2","1,8","ND","ND","ND","ND"],
    [29339,"42746,08333","62,4","1,7","ND","ND","ND","ND"],
    [29340,"42746,125","50","1,7","ND","ND","ND","ND"],
    [29341,"42746,16667","57,7","1,6","ND","ND","ND","ND"],
    [29342,"42746,20833","46,9","1,5","ND","ND","ND","ND"],
    [29343,"42746,25","55,2","1,5","ND","ND","ND","ND"],
    [29344,"42746,29167","51,2","2,7","ND","ND","ND","ND"],
    [29345,"42746,33333","93,2","5","ND","ND","ND","ND"],
    [29346,"42746,375","116,8","13,1","ND","ND","ND","ND"],
    [29347,"42746,41667","110,1","11,8","ND","ND","ND","ND"],
    [29348,"42746,45833","94,5","4,9","ND","ND","ND","ND"],
    [29349,"42746,5","60","5","ND","ND","ND","ND"],
    [29350,"42746,54167","49,3","3,9","ND","ND","ND","ND"],
    [29351,"42746,58333","57,2","6,1","ND","ND","ND","ND"],
    [29352,"42746,625","88,7","6,8","ND","ND","ND","ND"],
    [29353,"42746,66667","59,6","2,1","ND","ND","ND","ND"],
    [29354,"42746,70833","16,1","1,1","ND","ND","ND","ND"],
    [29355,"42746,75","14,5","0,9","ND","ND","ND","ND"],
    [29356,"42746,79167","13,1","0,9","ND","ND","ND","ND"],
    [29357,"42746,83333","12,6","1,6","ND","ND","ND","ND"],
    [29358,"42746,875","40,9","4,8","ND","ND","ND","ND"],
    [29359,"42746,91667","48","2,5","ND","ND","ND","ND"],
    [29360,"42746,95833","47,5","1,7","ND","ND","ND","ND"],
    [29361,"42777","18,2","1,4","ND","ND","ND","ND"],
    [29362,"42777,04167","25,7","1,2","ND","ND","ND","ND"],
    [29363,"42777,08333","19,3","1,1","ND","ND","ND","ND"],
    [29364,"42777,125","18,3","1,2","ND","ND","ND","ND"],
    [29365,"42777,16667","19,1","1,1","ND","ND","ND","ND"],
    [29366,"42777,20833","19,9","1,2","ND","ND","ND","ND"],
    [29367,"42777,25","26,3","1,5","ND","ND","ND","ND"],
    [29368,"42777,29167","47,3","1,7","ND","ND","ND","ND"],
    [29369,"42777,33333","54,9","2","ND","ND","ND","ND"],
    [29370,"42777,375","43,5","2","ND","ND","ND","ND"],
    [29371,"42777,41667","44","2","ND","ND","ND","ND"],
    [29372,"42777,45833","39,2","1,5","ND","ND","ND","ND"],
    [29373,"42777,5","33,3","2,1","ND","ND","ND","ND"],
    [29374,"42777,54167","39,8","2,4","ND","ND","ND","ND"],
    [29375,"42777,58333","41,2","2","ND","ND","ND","ND"],
    [29376,"42777,625","16,8","1","ND","ND","ND","ND"],
    [29377,"42777,66667","14,2","1","ND","ND","ND","ND"],
    [29378,"42777,70833","17,8","0,8","ND","ND","ND","ND"],
    [29379,"42777,75","12,5","0,8","ND","ND","ND","ND"],
    [29380,"42777,79167","18,9","0,9","ND","ND","ND","ND"],
    [29381,"42777,83333","31,8","1,4","ND","ND","ND","ND"],
    [29382,"42777,875","37,6","1,6","ND","ND","ND","ND"],
    [29383,"42777,91667","51,2","1,8","ND","ND","ND","ND"],
    [29384,"42777,95833","56,2","1,8","ND","ND","ND","ND"],
    [29385,"42805","52,2","1,8","ND","ND","ND","ND"],
    [29386,"42805,04167","45,5","1,4","ND","ND","ND","ND"],
    [29387,"42805,08333","28,7","1,5","ND","ND","ND","ND"],
    [29388,"42805,125","26,6","1,4","ND","ND","ND","ND"],
    [29389,"42805,16667","25,4","1,4","ND","ND","ND","ND"],
    [29390,"42805,20833","21,8","1,3","ND","ND","ND","ND"],
    [29391,"42805,25","29,5","1,8","ND","ND","ND","ND"],
    [29392,"42805,29167","55,8","4,9","ND","ND","ND","ND"],
    [29393,"42805,33333","82,7","16,9","ND","ND","ND","ND"],
    [29394,"42805,375","90,5","13,4","ND","ND","ND","ND"],
    [29395,"42805,41667","92,1","8,4","ND","ND","ND","ND"],
    [29396,"42805,45833","52,5","9","ND","ND","ND","ND"],
    [29397,"42805,5","59,3","11","ND","ND","ND","ND"],
    [29398,"42805,54167","56,8","8,5","ND","ND","ND","ND"],
    [29399,"42805,58333","51","6,8","ND","ND","ND","ND"],
    [29400,"42805,625","52","2,9","ND","ND","ND","ND"],
    [29401,"42805,66667","48","1,9","ND","ND","ND","ND"],
    [29402,"42805,70833","18,1","1,1","ND","ND","ND","ND"],
    [29403,"42805,75","10,8","1,3","ND","ND","ND","ND"],
    [29404,"42805,79167","23,7","1,5","ND","ND","ND","ND"],
    [29405,"42805,83333","33,2","2,1","ND","ND","ND","ND"],
    [29406,"42805,875","34,3","1,6","ND","ND","ND","ND"],
    [29407,"42805,91667","27,2","1,8","ND","ND","ND","ND"],
    [29408,"42805,95833","30,1","1,6","ND","ND","ND","ND"],
    [29409,"42836","26,3","1,7","ND","ND","ND","ND"],
    [29410,"42836,04167","20,8","1,3","ND","ND","ND","ND"],
    [29411,"42836,08333","9,4","1,4","ND","ND","ND","ND"],
    [29412,"42836,125","12,3","2,3","ND","ND","ND","ND"],
    [29413,"42836,16667","ND","1,9","ND","ND","ND","ND"],
    [29414,"42836,20833","4,7","1,8","ND","ND","ND","ND"],
    [29415,"42836,25","11,1","2,3","ND","ND","ND","ND"],
    [29416,"42836,29167","11,3","1,7","ND","ND","ND","ND"],
    [29417,"42836,33333","11,2","2,8","ND","ND","ND","ND"],
    [29418,"42836,375","23,2","3,1","ND","ND","ND","ND"],
    [29419,"42836,41667","35,3","2","ND","ND","ND","ND"],
    [29420,"42836,45833","22,4","1,8","ND","ND","ND","ND"],
    [29421,"42836,5","3,8","2,3","ND","ND","ND","ND"],
    [29422,"42836,54167","ND","2,9","ND","ND","ND","ND"],
    [29423,"42836,58333","5,8","2,9","ND","ND","ND","ND"],
    [29424,"42836,625","74,2","1,4","ND","ND","ND","ND"],
    [29425,"42836,66667","41,1","1,6","ND","ND","ND","ND"],
    [29426,"42836,70833","41,3","1","ND","ND","ND","ND"],
    [29427,"42836,75","15,2","0,7","ND","ND","ND","ND"],
    [29428,"42836,79167","26,3","0,8","ND","ND","ND","ND"],
    [29429,"42836,83333","24,8","1,3","ND","ND","ND","ND"],
    [29430,"42836,875","39","0,9","ND","ND","ND","ND"],
    [29431,"42836,91667","39","1,1","ND","ND","ND","ND"],
    [29432,"42836,95833","78","1,2","ND","ND","ND","ND"],
    [29433,"42866","53","1,3","ND","ND","ND","ND"],
    [29434,"42866,04167","34,6","1,1","ND","ND","ND","ND"],
    [29435,"42866,08333","22,9","0,9","ND","ND","ND","ND"],
    [29436,"42866,125","22,9","0,8","ND","ND","ND","ND"],
    [29437,"42866,16667","21","0,8","ND","ND","ND","ND"],
    [29438,"42866,20833","21,3","0,9","ND","ND","ND","ND"],
    [29439,"42866,25","23,6","1,1","ND","ND","ND","ND"],
    [29440,"42866,29167","21,8","1,3","ND","ND","ND","ND"],
    [29441,"42866,33333","37,5","1,9","ND","ND","ND","ND"],
    [29442,"42866,375","44,5","13,8","ND","ND","ND","ND"],
    [29443,"42866,41667","54,7","23","ND","ND","ND","ND"],
    [29444,"42866,45833","66,6","12,3","ND","ND","ND","ND"],
    [29445,"42866,5","39,4","4,9","ND","ND","ND","ND"],
    [29446,"42866,54167","31,1","2,9","ND","ND","ND","ND"],
    [29447,"42866,58333","30,1","1,9","ND","ND","ND","ND"],
    [29448,"42866,625","45,5","0,6","ND","ND","ND","ND"],
    [29449,"42866,66667","14,1","0,2","ND","ND","ND","ND"],
    [29450,"42866,70833","10,1","0,2","ND","ND","ND","ND"],
    [29451,"42866,75","13","0,4","ND","ND","ND","ND"],
    [29452,"42866,79167","19,7","0,6","ND","ND","ND","ND"],
    [29453,"42866,83333","18,5","0,6","ND","ND","ND","ND"],
    [29454,"42866,875","19,1","1,3","ND","ND","ND","ND"],
    [29455,"42866,91667","59,7","2","ND","ND","ND","ND"],
    [29456,"42866,95833","86,9","1,8","ND","ND","ND","ND"],
    [29457,"42897","64","1,3","ND","ND","ND","ND"],
    [29458,"42897,04167","36,5","1","ND","ND","ND","ND"],
    [29459,"42897,08333","36,4","1,1","ND","ND","ND","ND"],
    [29460,"42897,125","33,9","0,9","ND","ND","ND","ND"],
    [29461,"42897,16667","31,3","0,9","ND","ND","ND","ND"],
    [29462,"42897,20833","27,9","0,9","ND","ND","ND","ND"],
    [29463,"42897,25","35,8","1","ND","ND","ND","ND"],
    [29464,"42897,29167","41,9","1,4","ND","ND","ND","ND"],
    [29465,"42897,33333","56,7","4,2","ND","ND","ND","ND"],
    [29466,"42897,375","53,8","10","ND","ND","ND","ND"],
    [29467,"42897,41667","57,5","7","ND","ND","ND","ND"],
    [29468,"42897,45833","59","5,7","ND","ND","ND","ND"],
    [29469,"42897,5","41,1","5,9","ND","ND","ND","ND"],
    [29470,"42897,54167","30,3","2,3","ND","ND","ND","ND"],
    [29471,"42897,58333","26,5","1,7","ND","ND","ND","ND"],
    [29472,"42897,625","32,3","2,1","ND","ND","ND","ND"],
    [29473,"42897,66667","38,1","0,9","ND","ND","ND","ND"],
    [29474,"42897,70833","23","0","ND","ND","ND","ND"],
    [29475,"42897,75","16,5","0,1","ND","ND","ND","ND"],
    [29476,"42897,79167","24,2","0,2","ND","ND","ND","ND"],
    [29477,"42897,83333","20,7","0,5","ND","ND","ND","ND"],
    [29478,"42897,875","21,9","0,7","ND","ND","ND","ND"],
    [29479,"42897,91667","20,9","1,6","ND","ND","ND","ND"],
    [29480,"42897,95833","58,5","1,4","ND","ND","ND","ND"],
    [29481,"42927","44,1","1,2","ND","ND","ND","ND"],
    [29482,"42927,04167","48,6","1","ND","ND","ND","ND"],
    [29483,"42927,08333","22,8","1","ND","ND","ND","ND"],
    [29484,"42927,125","25,9","1","ND","ND","ND","ND"],
    [29485,"42927,16667","25,6","1","ND","ND","ND","ND"],
    [29486,"42927,20833","30,1","1,4","ND","ND","ND","ND"],
    [29487,"42927,25","43,8","1,4","ND","ND","ND","ND"],
    [29488,"42927,29167","74,6","2,4","ND","ND","ND","ND"],
    [29489,"42927,33333","97","3,7","ND","ND","ND","ND"],
    [29490,"42927,375","76,8","5,6","ND","ND","ND","ND"],
    [29491,"42927,41667","76,5","6,6","ND","ND","ND","ND"],
    [29492,"42927,45833","78,6","9,6","ND","ND","ND","ND"],
    [29493,"42927,5","76,7","7,5","ND","ND","ND","ND"],
    [29494,"42927,54167","75,2","6,6","ND","ND","ND","ND"],
    [29495,"42927,58333","50,2","1,5","ND","ND","ND","ND"],
    [29496,"42927,625","23","0,2","ND","ND","ND","ND"],
    [29497,"42927,66667","8,1","0","ND","ND","ND","ND"],
    [29498,"42927,70833","19","0","ND","ND","ND","ND"],
    [29499,"42927,75","23,7","0,1","ND","ND","ND","ND"],
    [29500,"42927,79167","28,4","0,5","ND","ND","ND","ND"],
    [29501,"42927,83333","22,3","0,8","ND","ND","ND","ND"],
    [29502,"42927,875","41,9","1,2","ND","ND","ND","ND"],
    [29503,"42927,91667","30,3","1,9","ND","ND","ND","ND"],
    [29504,"42927,95833","43,6","1,4","ND","ND","ND","ND"],
    [29505,"42958","46,4","1,1","ND","ND","ND","ND"],
    [29506,"42958,04167","35,8","0,9","ND","ND","ND","ND"],
    [29507,"42958,08333","21,2","0,8","ND","ND","ND","ND"],
    [29508,"42958,125","13,3","0,7","ND","ND","ND","ND"],
    [29509,"42958,16667","25,3","0,8","ND","ND","ND","ND"],
    [29510,"42958,20833","25,2","1","ND","ND","ND","ND"],
    [29511,"42958,25","43","1,4","ND","ND","ND","ND"],
    [29512,"42958,29167","65,3","2,2","ND","ND","ND","ND"],
    [29513,"42958,33333","93,9","4,7","ND","ND","ND","ND"],
    [29514,"42958,375","68","5,7","ND","ND","ND","ND"],
    [29515,"42958,41667","ND","4,9","ND","ND","ND","ND"],
    [29516,"42958,45833","ND","3,7","ND","ND","ND","ND"],
    [29517,"42958,5","ND","ND","ND","ND","ND","ND"],
    [29518,"42958,54167","ND","ND","ND","ND","ND","ND"],
    [29519,"42958,58333","ND","1,9","ND","ND","ND","ND"],
    [29520,"42958,625","ND","ND","ND","ND","ND","ND"],
    [29521,"42958,66667","ND","ND","ND","ND","ND","ND"],
    [29522,"42958,70833","ND","ND","ND","ND","ND","ND"],
    [29523,"42958,75","ND","1,2","ND","ND","ND","ND"],
    [29524,"42958,79167","19,4","1,4","ND","ND","ND","ND"],
    [29525,"42958,83333","18,8","1,8","ND","ND","ND","ND"],
    [29526,"42958,875","43","1,4","ND","ND","ND","ND"],
    [29527,"42958,91667","37,3","1,4","ND","ND","ND","ND"],
    [29528,"42958,95833","36","1,4","ND","ND","ND","ND"],
    [29529,"42989","35,2","1,5","ND","ND","ND","ND"],
    [29530,"42989,04167","33,3","1,3","ND","ND","ND","ND"],
    [29531,"42989,08333","21,4","1,1","ND","ND","ND","ND"],
    [29532,"42989,125","20,9","1,1","ND","ND","ND","ND"],
    [29533,"42989,16667","18,1","1,1","ND","ND","ND","ND"],
    [29534,"42989,20833","19","1,4","ND","ND","ND","ND"],
    [29535,"42989,25","29,5","1,5","ND","ND","ND","ND"],
    [29536,"42989,29167","54,8","1,8","ND","ND","ND","ND"],
    [29537,"42989,33333","62,5","5,6","ND","ND","ND","ND"],
    [29538,"42989,375","13,8","7,4","ND","ND","ND","ND"],
    [29539,"42989,41667","ND","3,3","ND","ND","ND","ND"],
    [29540,"42989,45833","ND","1,9","ND","ND","ND","ND"],
    [29541,"42989,5","ND","1,8","ND","ND","ND","ND"],
    [29542,"42989,54167","ND","1,5","ND","ND","ND","ND"],
    [29543,"42989,58333","ND","1,2","ND","ND","ND","ND"],
    [29544,"42989,625","ND","0,7","ND","ND","ND","ND"],
    [29545,"42989,66667","ND","0,4","ND","ND","ND","ND"],
    [29546,"42989,70833","ND","0,3","ND","ND","ND","ND"],
    [29547,"42989,75","ND","0,5","ND","ND","ND","ND"],
    [29548,"42989,79167","ND","0,4","ND","ND","ND","ND"],
    [29549,"42989,83333","ND","0,6","ND","ND","ND","ND"],
    [29550,"42989,875","ND","2","ND","ND","ND","ND"],
    [29551,"42989,91667","ND","0,8","ND","ND","ND","ND"],
    [29552,"42989,95833","ND","0,9","ND","ND","ND","ND"],
    [29553,"43019","ND","2,8","ND","ND","ND","ND"],
    [29554,"43019,04167","ND","1,5","ND","ND","ND","ND"],
    [29555,"43019,08333","ND","1","ND","ND","ND","ND"],
    [29556,"43019,125","ND","0,7","ND","ND","ND","ND"],
    [29557,"43019,16667","ND","0,6","ND","ND","ND","ND"],
    [29558,"43019,20833","ND","0,6","ND","ND","ND","ND"],
    [29559,"43019,25","ND","0,8","ND","ND","ND","ND"],
    [29560,"43019,29167","ND","1,2","ND","ND","ND","ND"],
    [29561,"43019,33333","ND","1,8","ND","ND","ND","ND"],
    [29562,"43019,375","ND","1,3","ND","ND","ND","ND"],
    [29563,"43019,41667","ND","1,1","ND","ND","ND","ND"],
    [29564,"43019,45833","ND","1","ND","ND","ND","ND"],
    [29565,"43019,5","ND","1","ND","ND","ND","ND"],
    [29566,"43019,54167","ND","0,5","ND","ND","ND","ND"],
    [29567,"43019,58333","ND","0,5","ND","ND","ND","ND"],
    [29568,"43019,625","ND","0,2","ND","ND","ND","ND"],
    [29569,"43019,66667","ND","0,4","ND","ND","ND","ND"],
    [29570,"43019,70833","ND","0,7","ND","ND","ND","ND"],
    [29571,"43019,75","ND","0,9","ND","ND","ND","ND"],
    [29572,"43019,79167","ND","1,1","ND","ND","ND","ND"],
    [29573,"43019,83333","ND","1,4","ND","ND","ND","ND"],
    [29574,"43019,875","ND","1,5","ND","ND","ND","ND"],
    [29575,"43019,91667","ND","1,5","ND","ND","ND","ND"],
    [29576,"43019,95833","ND","2,5","ND","ND","ND","ND"],
    [29577,"43050","ND","1,9","ND","ND","ND","ND"],
    [29578,"43050,04167","ND","1,3","ND","ND","ND","ND"],
    [29579,"43050,08333","ND","1,1","ND","ND","ND","ND"],
    [29580,"43050,125","ND","1","ND","ND","ND","ND"],
    [29581,"43050,16667","ND","1,3","ND","ND","ND","ND"],
    [29582,"43050,20833","ND","1,9","ND","ND","ND","ND"],
    [29583,"43050,25","ND","1,3","ND","ND","ND","ND"],
    [29584,"43050,29167","ND","1,7","ND","ND","ND","ND"],
    [29585,"43050,33333","ND","2,2","ND","ND","ND","ND"],
    [29586,"43050,375","ND","2,4","ND","ND","ND","ND"],
    [29587,"43050,41667","ND","2,7","ND","ND","ND","ND"],
    [29588,"43050,45833","ND","2,1","ND","ND","ND","ND"],
    [29589,"43050,5","ND","1,5","ND","ND","ND","ND"],
    [29590,"43050,54167","ND","1,4","ND","ND","ND","ND"],
    [29591,"43050,58333","ND","2,4","ND","ND","ND","ND"],
    [29592,"43050,625","ND","3,1","ND","ND","ND","ND"],
    [29593,"43050,66667","ND","0,3","ND","ND","ND","ND"],
    [29594,"43050,70833","ND","0","ND","ND","ND","ND"],
    [29595,"43050,75","ND","0","ND","ND","ND","ND"],
    [29596,"43050,79167","ND","0,2","ND","ND","ND","ND"],
    [29597,"43050,83333","ND","0,5","ND","ND","ND","ND"],
    [29598,"43050,875","ND","0,5","ND","ND","ND","ND"],
    [29599,"43050,91667","ND","1,5","ND","ND","ND","ND"],
    [29600,"43050,95833","ND","1,9","ND","ND","ND","ND"],
    [29601,"43080","ND","1,9","ND","ND","ND","ND"],
    [29602,"43080,04167","ND","1,4","ND","ND","ND","ND"],
    [29603,"43080,08333","ND","0,9","ND","ND","ND","ND"],
    [29604,"43080,125","ND","0,9","ND","ND","ND","ND"],
    [29605,"43080,16667","ND","0,9","ND","ND","ND","ND"],
    [29606,"43080,20833","ND","1,3","ND","ND","ND","ND"],
    [29607,"43080,25","ND","1,3","ND","ND","ND","ND"],
    [29608,"43080,29167","ND","1,9","ND","ND","ND","ND"],
    [29609,"43080,33333","ND","2,9","ND","ND","ND","ND"],
    [29610,"43080,375","ND","11,4","ND","ND","ND","ND"],
    [29611,"43080,41667","ND","12,9","ND","ND","ND","ND"],
    [29612,"43080,45833","ND","4,8","ND","ND","ND","ND"],
    [29613,"43080,5","ND","2,4","ND","ND","ND","ND"],
    [29614,"43080,54167","ND","1,4","ND","ND","ND","ND"],
    [29615,"43080,58333","ND","0,1","ND","ND","ND","ND"],
    [29616,"43080,625","ND","0","ND","ND","ND","ND"],
    [29617,"43080,66667","ND","0","ND","ND","ND","ND"],
    [29618,"43080,70833","ND","0","ND","ND","ND","ND"],
    [29619,"43080,75","ND","0","ND","ND","ND","ND"],
    [29620,"43080,79167","ND","0,2","ND","ND","ND","ND"],
    [29621,"43080,83333","ND","0,6","ND","ND","ND","ND"],
    [29622,"43080,875","ND","1,2","ND","ND","ND","ND"],
    [29623,"43080,91667","ND","1,3","ND","ND","ND","ND"],
    [29624,"43080,95833","ND","1","ND","ND","ND","ND"],
    [29625,"11/13/2017 00:00","ND","0,8","ND","ND","ND","ND"],
    [29626,"11/13/2017 01:00","ND","0,8","ND","ND","ND","ND"],
    [29627,"11/13/2017 02:00","ND","0,8","ND","ND","ND","ND"],
    [29628,"11/13/2017 03:00","ND","0,7","ND","ND","ND","ND"],
    [29629,"11/13/2017 04:00","ND","0,9","ND","ND","ND","ND"],
    [29630,"11/13/2017 05:00","ND","0,8","ND","ND","ND","ND"],
    [29631,"11/13/2017 06:00","ND","1","ND","ND","ND","ND"],
    [29632,"11/13/2017 07:00","ND","1,6","ND","ND","ND","ND"],
    [29633,"11/13/2017 08:00","ND","2","ND","ND","ND","ND"],
    [29634,"11/13/2017 09:00","ND","2,4","ND","ND","ND","ND"],
    [29635,"11/13/2017 10:00","ND","2,5","ND","ND","ND","ND"],
    [29636,"11/13/2017 11:00","ND","2,6","ND","ND","ND","ND"],
    [29637,"11/13/2017 12:00","ND","2,8","ND","ND","ND","ND"],
    [29638,"11/13/2017 13:00","ND","2,2","ND","ND","ND","ND"],
    [29639,"11/13/2017 14:00","ND","0,1","ND","ND","ND","ND"],
    [29640,"11/13/2017 15:00","ND","0","ND","ND","ND","ND"],
    [29641,"11/13/2017 16:00","ND","0","ND","ND","ND","ND"],
    [29642,"11/13/2017 17:00","ND","0","ND","ND","ND","ND"],
    [29643,"11/13/2017 18:00","ND","0,3","ND","ND","ND","ND"],
    [29644,"11/13/2017 19:00","ND","0,6","ND","ND","ND","ND"],
    [29645,"11/13/2017 20:00","ND","0,9","ND","ND","ND","ND"],
    [29646,"11/13/2017 21:00","ND","0,9","ND","ND","ND","ND"],
    [29647,"11/13/2017 22:00","ND","0,7","ND","ND","ND","ND"],
    [29648,"11/13/2017 23:00","ND","1","ND","ND","ND","ND"],
    [29649,"11/14/2017 00:00","ND","0,8","ND","ND","ND","ND"],
    [29650,"11/14/2017 01:00","ND","0,9","ND","ND","ND","ND"],
    [29651,"11/14/2017 02:00","ND","0,8","ND","ND","ND","ND"],
    [29652,"11/14/2017 03:00","ND","0,9","ND","ND","ND","ND"],
    [29653,"11/14/2017 04:00","ND","0,8","ND","ND","ND","ND"],
    [29654,"11/14/2017 05:00","ND","0,7","ND","ND","ND","ND"],
    [29655,"11/14/2017 06:00","ND","0,9","ND","ND","ND","ND"],
    [29656,"11/14/2017 07:00","ND","1,6","ND","ND","ND","ND"],
    [29657,"11/14/2017 08:00","ND","2,6","ND","ND","ND","ND"],
    [29658,"11/14/2017 09:00","ND","1,4","ND","ND","ND","ND"],
    [29659,"11/14/2017 10:00","ND","1,9","ND","ND","ND","ND"],
    [29660,"11/14/2017 11:00","ND","ND","ND","ND","ND","ND"],
    [29661,"11/14/2017 12:00","ND","ND","ND","ND","ND","ND"],
    [29662,"11/14/2017 13:00","ND","ND","ND","ND","ND","ND"],
    [29663,"11/14/2017 14:00","ND","ND","ND","ND","ND","ND"],
    [29664,"11/14/2017 15:00","ND","ND","ND","ND","ND","ND"],
    [29665,"11/14/2017 16:00","ND","ND","ND","ND","ND","ND"],
    [29666,"11/14/2017 17:00","ND","ND","ND","ND","ND","ND"],
    [29667,"11/14/2017 18:00","ND","ND","ND","ND","ND","ND"],
    [29668,"11/14/2017 19:00","ND","ND","ND","ND","ND","ND"],
    [29669,"11/14/2017 20:00","ND","ND","ND","ND","ND","ND"],
    [29670,"11/14/2017 21:00","ND","ND","ND","ND","ND","ND"],
    [29671,"11/14/2017 22:00","ND","ND","ND","ND","ND","ND"],
    [29672,"11/14/2017 23:00","ND","ND","ND","ND","ND","ND"],
    [29673,"11/15/2017 00:00","ND","ND","ND","ND","ND","ND"],
    [29674,"11/15/2017 01:00","ND","ND","ND","ND","ND","ND"],
    [29675,"11/15/2017 02:00","ND","ND","ND","ND","ND","ND"],
    [29676,"11/15/2017 03:00","ND","ND","ND","ND","ND","ND"],
    [29677,"11/15/2017 04:00","ND","ND","ND","ND","ND","ND"],
    [29678,"11/15/2017 05:00","ND","ND","ND","ND","ND","ND"],
    [29679,"11/15/2017 06:00","ND","ND","ND","ND","ND","ND"],
    [29680,"11/15/2017 07:00","ND","ND","ND","ND","ND","ND"],
    [29681,"11/15/2017 08:00","ND","ND","ND","ND","ND","ND"],
    [29682,"11/15/2017 09:00","ND","ND","ND","ND","ND","ND"],
    [29683,"11/15/2017 10:00","ND","ND","ND","ND","ND","ND"],
    [29684,"11/15/2017 11:00","ND","ND","ND","ND","ND","ND"],
    [29685,"11/15/2017 12:00","ND","ND","ND","ND","ND","ND"],
    [29686,"11/15/2017 13:00","ND","ND","ND","ND","ND","ND"],
    [29687,"11/15/2017 14:00","ND","ND","ND","ND","ND","ND"],
    [29688,"11/15/2017 15:00","ND","ND","ND","ND","ND","ND"],
    [29689,"11/15/2017 16:00","ND","ND","ND","ND","ND","ND"],
    [29690,"11/15/2017 17:00","ND","ND","ND","ND","ND","ND"],
    [29691,"11/15/2017 18:00","ND","ND","ND","ND","ND","ND"],
    [29692,"11/15/2017 19:00","ND","ND","ND","ND","ND","ND"],
    [29693,"11/15/2017 20:00","ND","ND","ND","ND","ND","ND"],
    [29694,"11/15/2017 21:00","ND","ND","ND","ND","ND","ND"],
    [29695,"11/15/2017 22:00","ND","ND","ND","ND","ND","ND"],
    [29696,"11/15/2017 23:00","ND","ND","ND","ND","ND","ND"],
    [29697,"11/16/2017 00:00","ND","ND","ND","ND","ND","ND"],
    [29698,"11/16/2017 01:00","ND","ND","ND","ND","ND","ND"],
    [29699,"11/16/2017 02:00","ND","ND","ND","ND","ND","ND"],
    [29700,"11/16/2017 03:00","ND","ND","ND","ND","ND","ND"],
    [29701,"11/16/2017 04:00","ND","ND","ND","ND","ND","ND"],
    [29702,"11/16/2017 05:00","ND","ND","ND","ND","ND","ND"],
    [29703,"11/16/2017 06:00","ND","ND","ND","ND","ND","ND"],
    [29704,"11/16/2017 07:00","ND","ND","ND","ND","ND","ND"],
    [29705,"11/16/2017 08:00","ND","ND","ND","ND","ND","ND"],
    [29706,"11/16/2017 09:00","ND","ND","ND","ND","ND","ND"],
    [29707,"11/16/2017 10:00","ND","ND","ND","ND","ND","ND"],
    [29708,"11/16/2017 11:00","ND","ND","ND","ND","ND","ND"],
    [29709,"11/16/2017 12:00","ND","ND","ND","ND","ND","ND"],
    [29710,"11/16/2017 13:00","ND","ND","ND","ND","ND","ND"],
    [29711,"11/16/2017 14:00","ND","ND","ND","ND","ND","ND"],
    [29712,"11/16/2017 15:00","ND","ND","ND","ND","ND","ND"],
    [29713,"11/16/2017 16:00","ND","ND","ND","ND","ND","ND"],
    [29714,"11/16/2017 17:00","ND","ND","ND","ND","ND","ND"],
    [29715,"11/16/2017 18:00","ND","ND","ND","ND","ND","ND"],
    [29716,"11/16/2017 19:00","ND","ND","ND","ND","ND","ND"],
    [29717,"11/16/2017 20:00","ND","ND","ND","ND","ND","ND"],
    [29718,"11/16/2017 21:00","ND","ND","ND","ND","ND","ND"],
    [29719,"11/16/2017 22:00","ND","ND","ND","ND","ND","ND"],
    [29720,"11/16/2017 23:00","ND","ND","ND","ND","ND","ND"],
    [29721,"11/17/2017 00:00","ND","ND","ND","ND","ND","ND"],
    [29722,"11/17/2017 01:00","ND","ND","ND","ND","ND","ND"],
    [29723,"11/17/2017 02:00","ND","ND","ND","ND","ND","ND"],
    [29724,"11/17/2017 03:00","ND","ND","ND","ND","ND","ND"],
    [29725,"11/17/2017 04:00","ND","ND","ND","ND","ND","ND"],
    [29726,"11/17/2017 05:00","ND","ND","ND","ND","ND","ND"],
    [29727,"11/17/2017 06:00","ND","ND","ND","ND","ND","ND"],
    [29728,"11/17/2017 07:00","ND","ND","ND","ND","ND","ND"],
    [29729,"11/17/2017 08:00","ND","ND","ND","ND","ND","ND"],
    [29730,"11/17/2017 09:00","ND","ND","ND","ND","ND","ND"],
    [29731,"11/17/2017 10:00","ND","ND","ND","ND","ND","ND"],
    [29732,"11/17/2017 11:00","ND","ND","ND","ND","ND","ND"],
    [29733,"11/17/2017 12:00","ND","ND","ND","ND","ND","ND"],
    [29734,"11/17/2017 13:00","ND","ND","ND","ND","ND","ND"],
    [29735,"11/17/2017 14:00","ND","ND","ND","ND","ND","ND"],
    [29736,"11/17/2017 15:00","ND","ND","ND","ND","ND","ND"],
    [29737,"11/17/2017 16:00","ND","ND","ND","ND","ND","ND"],
    [29738,"11/17/2017 17:00","ND","ND","ND","ND","ND","ND"],
    [29739,"11/17/2017 18:00","ND","ND","ND","ND","ND","ND"],
    [29740,"11/17/2017 19:00","ND","ND","ND","ND","ND","ND"],
    [29741,"11/17/2017 20:00","ND","ND","ND","ND","ND","ND"],
    [29742,"11/17/2017 21:00","ND","ND","ND","ND","ND","ND"],
    [29743,"11/17/2017 22:00","ND","ND","ND","ND","ND","ND"],
    [29744,"11/17/2017 23:00","ND","ND","ND","ND","ND","ND"],
    [29745,"11/18/2017 00:00","ND","ND","ND","ND","ND","ND"],
    [29746,"11/18/2017 01:00","ND","ND","ND","ND","ND","ND"],
    [29747,"11/18/2017 02:00","ND","ND","ND","ND","ND","ND"],
    [29748,"11/18/2017 03:00","ND","ND","ND","ND","ND","ND"],
    [29749,"11/18/2017 04:00","ND","ND","ND","ND","ND","ND"],
    [29750,"11/18/2017 05:00","ND","ND","ND","ND","ND","ND"],
    [29751,"11/18/2017 06:00","ND","ND","ND","ND","ND","ND"],
    [29752,"11/18/2017 07:00","ND","ND","ND","ND","ND","ND"],
    [29753,"11/18/2017 08:00","ND","ND","ND","ND","ND","ND"],
    [29754,"11/18/2017 09:00","ND","ND","ND","ND","ND","ND"],
    [29755,"11/18/2017 10:00","ND","ND","ND","ND","ND","ND"],
    [29756,"11/18/2017 11:00","ND","ND","ND","ND","ND","ND"],
    [29757,"11/18/2017 12:00","ND","ND","ND","ND","ND","ND"],
    [29758,"11/18/2017 13:00","ND","ND","ND","ND","ND","ND"],
    [29759,"11/18/2017 14:00","ND","ND","ND","ND","ND","ND"],
    [29760,"11/18/2017 15:00","ND","ND","ND","ND","ND","ND"],
    [29761,"11/18/2017 16:00","ND","ND","ND","ND","ND","ND"],
    [29762,"11/18/2017 17:00","ND","ND","ND","ND","ND","ND"],
    [29763,"11/18/2017 18:00","ND","ND","ND","ND","ND","ND"],
    [29764,"11/18/2017 19:00","ND","ND","ND","ND","ND","ND"],
    [29765,"11/18/2017 20:00","ND","ND","ND","ND","ND","ND"],
    [29766,"11/18/2017 21:00","ND","ND","ND","ND","ND","ND"],
    [29767,"11/18/2017 22:00","ND","ND","ND","ND","ND","ND"],
    [29768,"11/18/2017 23:00","ND","ND","ND","ND","ND","ND"],
    [29769,"11/19/2017 00:00","ND","ND","ND","ND","ND","ND"],
    [29770,"11/19/2017 01:00","ND","ND","ND","ND","ND","ND"],
    [29771,"11/19/2017 02:00","ND","ND","ND","ND","ND","ND"],
    [29772,"11/19/2017 03:00","ND","ND","ND","ND","ND","ND"],
    [29773,"11/19/2017 04:00","ND","ND","ND","ND","ND","ND"],
    [29774,"11/19/2017 05:00","ND","ND","ND","ND","ND","ND"],
    [29775,"11/19/2017 06:00","ND","ND","ND","ND","ND","ND"],
    [29776,"11/19/2017 07:00","ND","ND","ND","ND","ND","ND"],
    [29777,"11/19/2017 08:00","ND","ND","ND","ND","ND","ND"],
    [29778,"11/19/2017 09:00","ND","ND","ND","ND","ND","ND"],
    [29779,"11/19/2017 10:00","ND","ND","ND","ND","ND","ND"],
    [29780,"11/19/2017 11:00","ND","ND","ND","ND","ND","ND"],
    [29781,"11/19/2017 12:00","ND","ND","ND","ND","ND","ND"],
    [29782,"11/19/2017 13:00","ND","ND","ND","ND","ND","ND"],
    [29783,"11/19/2017 14:00","ND","ND","ND","ND","ND","ND"],
    [29784,"11/19/2017 15:00","ND","ND","ND","ND","ND","ND"],
    [29785,"11/19/2017 16:00","ND","ND","ND","ND","ND","ND"],
    [29786,"11/19/2017 17:00","ND","ND","ND","ND","ND","ND"],
    [29787,"11/19/2017 18:00","ND","ND","ND","ND","ND","ND"],
    [29788,"11/19/2017 19:00","ND","ND","ND","ND","ND","ND"],
    [29789,"11/19/2017 20:00","ND","ND","ND","ND","ND","ND"],
    [29790,"11/19/2017 21:00","ND","ND","ND","ND","ND","ND"],
    [29791,"11/19/2017 22:00","ND","ND","ND","ND","ND","ND"],
    [29792,"11/19/2017 23:00","ND","ND","ND","ND","ND","ND"],
    [29793,"11/20/2017 00:00","ND","ND","ND","ND","ND","ND"],
    [29794,"11/20/2017 01:00","ND","ND","ND","ND","ND","ND"],
    [29795,"11/20/2017 02:00","ND","ND","ND","ND","ND","ND"],
    [29796,"11/20/2017 03:00","ND","ND","ND","ND","ND","ND"],
    [29797,"11/20/2017 04:00","ND","ND","ND","ND","ND","ND"],
    [29798,"11/20/2017 05:00","ND","ND","ND","ND","ND","ND"],
    [29799,"11/20/2017 06:00","ND","ND","ND","ND","ND","ND"],
    [29800,"11/20/2017 07:00","ND","ND","ND","ND","ND","ND"],
    [29801,"11/20/2017 08:00","ND","ND","ND","ND","ND","ND"],
    [29802,"11/20/2017 09:00","ND","ND","ND","ND","ND","ND"],
    [29803,"11/20/2017 10:00","ND","ND","ND","ND","ND","ND"],
    [29804,"11/20/2017 11:00","ND","4,6","ND","ND","ND","ND"],
    [29805,"11/20/2017 12:00","ND","0,9","ND","ND","ND","ND"],
    [29806,"11/20/2017 13:00","2,5","1,2","ND","ND","ND","ND"],
    [29807,"11/20/2017 14:00","33,4","1,7","ND","ND","ND","ND"],
    [29808,"11/20/2017 15:00","35,9","1,3","ND","ND","ND","ND"],
    [29809,"11/20/2017 16:00","29,4","1,6","ND","ND","ND","ND"],
    [29810,"11/20/2017 17:00","34,1","1,7","ND","ND","ND","ND"],
    [29811,"11/20/2017 18:00","38,6","1,7","ND","ND","ND","ND"],
    [29812,"11/20/2017 19:00","62,4","1,7","ND","ND","ND","ND"],
    [29813,"11/20/2017 20:00","71,2","1,5","ND","ND","ND","ND"],
    [29814,"11/20/2017 21:00","62,8","1,5","ND","ND","ND","ND"],
    [29815,"11/20/2017 22:00","48,7","1,5","ND","ND","ND","ND"],
    [29816,"11/20/2017 23:00","43,4","1,6","ND","ND","ND","ND"],
    [29817,"11/21/2017 00:00","50,3","1,5","ND","ND","ND","ND"],
    [29818,"11/21/2017 01:00","36,7","1,5","ND","ND","ND","ND"],
    [29819,"11/21/2017 02:00","35,8","3,8","ND","ND","ND","ND"],
    [29820,"11/21/2017 03:00","47,5","2,9","ND","ND","ND","ND"],
    [29821,"11/21/2017 04:00","33,7","2,2","ND","ND","ND","ND"],
    [29822,"11/21/2017 05:00","28,2","1,8","ND","ND","ND","ND"],
    [29823,"11/21/2017 06:00","23,5","1,9","ND","ND","ND","ND"],
    [29824,"11/21/2017 07:00","36,7","2","ND","ND","ND","ND"],
    [29825,"11/21/2017 08:00","29,1","2,1","ND","ND","ND","ND"],
    [29826,"11/21/2017 09:00","50,5","2,2","ND","ND","ND","ND"],
    [29827,"11/21/2017 10:00","64","2","ND","ND","ND","ND"],
    [29828,"11/21/2017 11:00","43,6","2,5","ND","ND","ND","ND"],
    [29829,"11/21/2017 12:00","49,2","2,6","ND","ND","ND","ND"],
    [29830,"11/21/2017 13:00","13,9","2,5","ND","ND","ND","ND"],
    [29831,"11/21/2017 14:00","ND","2,7","ND","ND","ND","ND"],
    [29832,"11/21/2017 15:00","ND","1,9","ND","ND","ND","ND"],
    [29833,"11/21/2017 16:00","1,5","0,9","ND","ND","ND","ND"],
    [29834,"11/21/2017 17:00","19,8","0,8","ND","ND","ND","ND"],
    [29835,"11/21/2017 18:00","22","0,7","ND","ND","ND","ND"],
    [29836,"11/21/2017 19:00","22,3","0,8","ND","ND","ND","ND"],
    [29837,"11/21/2017 20:00","22,8","1","ND","ND","ND","ND"],
    [29838,"11/21/2017 21:00","28,3","1,1","ND","ND","ND","ND"],
    [29839,"11/21/2017 22:00","30","1,8","ND","ND","ND","ND"],
    [29840,"11/21/2017 23:00","46,3","1,4","ND","ND","ND","ND"],
    [29841,"11/22/2017 00:00","47,4","1,3","ND","ND","ND","ND"],
    [29842,"11/22/2017 01:00","37,3","1,2","ND","ND","ND","ND"],
    [29843,"11/22/2017 02:00","31,6","1","ND","ND","ND","ND"],
    [29844,"11/22/2017 03:00","22,2","1","ND","ND","ND","ND"],
    [29845,"11/22/2017 04:00","23,7","1","ND","ND","ND","ND"],
    [29846,"11/22/2017 05:00","26","1,2","ND","ND","ND","ND"],
    [29847,"11/22/2017 06:00","31,8","1,5","ND","ND","ND","ND"],
    [29848,"11/22/2017 07:00","36,2","2,2","ND","ND","ND","ND"],
    [29849,"11/22/2017 08:00","50,2","2,9","ND","ND","ND","ND"],
    [29850,"11/22/2017 09:00","66,6","5,6","ND","ND","ND","ND"],
    [29851,"11/22/2017 10:00","75,2","5,4","ND","ND","ND","ND"],
    [29852,"11/22/2017 11:00","82","5,3","ND","ND","ND","ND"],
    [29853,"11/22/2017 12:00","53,4","6","ND","ND","ND","ND"],
    [29854,"11/22/2017 13:00","48,6","5","ND","ND","ND","ND"],
    [29855,"11/22/2017 14:00","48,5","3,1","ND","ND","ND","ND"],
    [29856,"11/22/2017 15:00","45,8","1,3","ND","ND","ND","ND"],
    [29857,"11/22/2017 16:00","26,4","0","ND","ND","ND","ND"],
    [29858,"11/22/2017 17:00","18,3","0","ND","ND","ND","ND"],
    [29859,"11/22/2017 18:00","23,7","0,1","ND","ND","ND","ND"],
    [29860,"11/22/2017 19:00","25,9","0,2","ND","ND","ND","ND"],
    [29861,"11/22/2017 20:00","22,3","0,5","ND","ND","ND","ND"],
    [29862,"11/22/2017 21:00","19,1","0,8","ND","ND","ND","ND"],
    [29863,"11/22/2017 22:00","22,1","1,5","ND","ND","ND","ND"],
    [29864,"11/22/2017 23:00","41,5","1,4","ND","ND","ND","ND"],
    [29865,"11/23/2017 00:00","36,3","1,3","ND","ND","ND","ND"],
    [29866,"11/23/2017 01:00","35,5","1","ND","ND","ND","ND"],
    [29867,"11/23/2017 02:00","20,1","0,9","ND","ND","ND","ND"],
    [29868,"11/23/2017 03:00","15,8","1","ND","ND","ND","ND"],
    [29869,"11/23/2017 04:00","20,9","0,9","ND","ND","ND","ND"],
    [29870,"11/23/2017 05:00","20,5","1,3","ND","ND","ND","ND"],
    [29871,"11/23/2017 06:00","30,7","1,9","ND","ND","ND","ND"],
    [29872,"11/23/2017 07:00","51,5","2,6","ND","ND","ND","ND"],
    [29873,"11/23/2017 08:00","78,3","4,1","ND","ND","ND","ND"],
    [29874,"11/23/2017 09:00","53,5","5,9","ND","ND","ND","ND"],
    [29875,"11/23/2017 10:00","59,7","6","ND","ND","ND","ND"],
    [29876,"11/23/2017 11:00","44,4","5,4","ND","ND","ND","ND"],
    [29877,"11/23/2017 12:00","48,5","4,5","ND","ND","ND","ND"],
    [29878,"11/23/2017 13:00","48,1","2,6","ND","ND","ND","ND"],
    [29879,"11/23/2017 14:00","40,5","0,2","ND","ND","ND","ND"],
    [29880,"11/23/2017 15:00","12","0,1","ND","ND","ND","ND"],
    [29881,"11/23/2017 16:00","17,3","0,1","ND","ND","ND","ND"],
    [29882,"11/23/2017 17:00","19,6","0,4","ND","ND","ND","ND"],
    [29883,"11/23/2017 18:00","36,3","1,2","ND","ND","ND","ND"],
    [29884,"11/23/2017 19:00","52,3","3,1","ND","ND","ND","ND"],
    [29885,"11/23/2017 20:00","38,3","2,3","ND","ND","ND","ND"],
    [29886,"11/23/2017 21:00","40,5","1,2","ND","ND","ND","ND"],
    [29887,"11/23/2017 22:00","26","0,9","ND","ND","ND","ND"],
    [29888,"11/23/2017 23:00","17","0,9","ND","ND","ND","ND"],
    [29889,"11/24/2017 00:00","16","0,9","ND","ND","ND","ND"],
    [29890,"11/24/2017 01:00","11,1","0,8","ND","ND","ND","ND"],
    [29891,"11/24/2017 02:00","13,4","0,8","ND","ND","ND","ND"],
    [29892,"11/24/2017 03:00","11,4","0,8","ND","ND","ND","ND"],
    [29893,"11/24/2017 04:00","16","0,7","ND","ND","ND","ND"],
    [29894,"11/24/2017 05:00","14","0,8","ND","ND","ND","ND"],
    [29895,"11/24/2017 06:00","22,1","1","ND","ND","ND","ND"],
    [29896,"11/24/2017 07:00","32,9","1,6","ND","ND","ND","ND"],
    [29897,"11/24/2017 08:00","66,5","2,3","ND","ND","ND","ND"],
    [29898,"11/24/2017 09:00","55,1","2,5","ND","ND","ND","ND"],
    [29899,"11/24/2017 10:00","49,9","3,6","ND","ND","ND","ND"],
    [29900,"11/24/2017 11:00","60,3","2,7","ND","ND","ND","ND"],
    [29901,"11/24/2017 12:00","56","4,5","ND","ND","ND","ND"],
    [29902,"11/24/2017 13:00","52,1","3","ND","ND","ND","ND"],
    [29903,"11/24/2017 14:00","64,3","3,7","ND","ND","ND","ND"],
    [29904,"11/24/2017 15:00","52,1","0,9","ND","ND","ND","ND"],
    [29905,"11/24/2017 16:00","19,7","0,6","ND","ND","ND","ND"],
    [29906,"11/24/2017 17:00","16","0,7","ND","ND","ND","ND"],
    [29907,"11/24/2017 18:00","32,6","1,2","ND","ND","ND","ND"],
    [29908,"11/24/2017 19:00","53","1,4","ND","ND","ND","ND"],
    [29909,"11/24/2017 20:00","57,4","1,2","ND","ND","ND","ND"],
    [29910,"11/24/2017 21:00","48,2","1,2","ND","ND","ND","ND"],
    [29911,"11/24/2017 22:00","48,4","1,2","ND","ND","ND","ND"],
    [29912,"11/24/2017 23:00","39,3","0,9","ND","ND","ND","ND"],
    [29913,"11/25/2017 00:00","33,5","1,2","ND","ND","ND","ND"],
    [29914,"11/25/2017 01:00","41,3","0,9","ND","ND","ND","ND"],
    [29915,"11/25/2017 02:00","27,1","1,1","ND","ND","ND","ND"],
    [29916,"11/25/2017 03:00","36,1","1","ND","ND","ND","ND"],
    [29917,"11/25/2017 04:00","32,3","1,2","ND","ND","ND","ND"],
    [29918,"11/25/2017 05:00","44,2","1,1","ND","ND","ND","ND"],
    [29919,"11/25/2017 06:00","39","1,2","ND","ND","ND","ND"],
    [29920,"11/25/2017 07:00","50,7","1,7","ND","ND","ND","ND"],
    [29921,"11/25/2017 08:00","57,4","2,5","ND","ND","ND","ND"],
    [29922,"11/25/2017 09:00","84,1","4,9","ND","ND","ND","ND"],
    [29923,"11/25/2017 10:00","109,8","7,5","ND","ND","ND","ND"],
    [29924,"11/25/2017 11:00","105,6","5,2","ND","ND","ND","ND"],
    [29925,"11/25/2017 12:00","67,5","4,3","ND","ND","ND","ND"],
    [29926,"11/25/2017 13:00","59,8","3,6","ND","ND","ND","ND"],
    [29927,"11/25/2017 14:00","56,1","2,8","ND","ND","ND","ND"],
    [29928,"11/25/2017 15:00","61,6","2,7","ND","ND","ND","ND"],
    [29929,"11/25/2017 16:00","67","1,7","ND","ND","ND","ND"],
    [29930,"11/25/2017 17:00","58,9","0,6","ND","ND","ND","ND"],
    [29931,"11/25/2017 18:00","31,7","0,1","ND","ND","ND","ND"],
    [29932,"11/25/2017 19:00","21,6","0,1","ND","ND","ND","ND"],
    [29933,"11/25/2017 20:00","23,6","0,3","ND","ND","ND","ND"],
    [29934,"11/25/2017 21:00","24,5","0,6","ND","ND","ND","ND"],
    [29935,"11/25/2017 22:00","30,2","1,7","ND","ND","ND","ND"],
    [29936,"11/25/2017 23:00","64,1","1,6","ND","ND","ND","ND"],
    [29937,"11/26/2017 00:00","54,8","1,4","ND","ND","ND","ND"],
    [29938,"11/26/2017 01:00","47,2","1,4","ND","ND","ND","ND"],
    [29939,"11/26/2017 02:00","51,6","1,6","ND","ND","ND","ND"],
    [29940,"11/26/2017 03:00","51,8","1,4","ND","ND","ND","ND"],
    [29941,"11/26/2017 04:00","53,5","1,2","ND","ND","ND","ND"],
    [29942,"11/26/2017 05:00","59,8","1,2","ND","ND","ND","ND"],
    [29943,"11/26/2017 06:00","50,3","1,2","ND","ND","ND","ND"],
    [29944,"11/26/2017 07:00","48,5","1,3","ND","ND","ND","ND"],
    [29945,"11/26/2017 08:00","64,7","1,8","ND","ND","ND","ND"],
    [29946,"11/26/2017 09:00","58,4","2,9","ND","ND","ND","ND"],
    [29947,"11/26/2017 10:00","50","9,4","ND","ND","ND","ND"],
    [29948,"11/26/2017 11:00","51","13,5","ND","ND","ND","ND"],
    [29949,"11/26/2017 12:00","72,9","5,2","ND","ND","ND","ND"],
    [29950,"11/26/2017 13:00","60,4","3,7","ND","ND","ND","ND"],
    [29951,"11/26/2017 14:00","53,8","3","ND","ND","ND","ND"],
    [29952,"11/26/2017 15:00","49,6","0,5","ND","ND","ND","ND"],
    [29953,"11/26/2017 16:00","24,7","0","ND","ND","ND","ND"],
    [29954,"11/26/2017 17:00","10,8","0","ND","ND","ND","ND"],
    [29955,"11/26/2017 18:00","19,7","0","ND","ND","ND","ND"],
    [29956,"11/26/2017 19:00","16,2","0,1","ND","ND","ND","ND"],
    [29957,"11/26/2017 20:00","19,9","0,3","ND","ND","ND","ND"],
    [29958,"11/26/2017 21:00","16,9","0,7","ND","ND","ND","ND"],
    [29959,"11/26/2017 22:00","14,8","1,6","ND","ND","ND","ND"],
    [29960,"11/26/2017 23:00","36,5","1,5","ND","ND","ND","ND"],
    [29961,"11/27/2017 00:00","33,1","1,1","ND","ND","ND","ND"],
    [29962,"11/27/2017 01:00","30,3","1,1","ND","ND","ND","ND"],
    [29963,"11/27/2017 02:00","21,7","0,9","ND","ND","ND","ND"],
    [29964,"11/27/2017 03:00","22,8","0,9","ND","ND","ND","ND"],
    [29965,"11/27/2017 04:00","17,3","0,8","ND","ND","ND","ND"],
    [29966,"11/27/2017 05:00","19,1","0,9","ND","ND","ND","ND"],
    [29967,"11/27/2017 06:00","29,5","1,2","ND","ND","ND","ND"],
    [29968,"11/27/2017 07:00","53,8","1,5","ND","ND","ND","ND"],
    [29969,"11/27/2017 08:00","64","3,2","ND","ND","ND","ND"],
    [29970,"11/27/2017 09:00","65,3","9,2","ND","ND","ND","ND"],
    [29971,"11/27/2017 10:00","48,5","6,6","ND","ND","ND","ND"],
    [29972,"11/27/2017 11:00","42,8","5,2","ND","ND","ND","ND"],
    [29973,"11/27/2017 12:00","44,8","5,3","ND","ND","ND","ND"],
    [29974,"11/27/2017 13:00","74,1","5,5","ND","ND","ND","ND"],
    [29975,"11/27/2017 14:00","69,5","6,3","ND","ND","ND","ND"],
    [29976,"11/27/2017 15:00","54,7","2,6","ND","ND","ND","ND"],
    [29977,"11/27/2017 16:00","26,7","0,1","ND","ND","ND","ND"],
    [29978,"11/27/2017 17:00","16,6","0,1","ND","ND","ND","ND"],
    [29979,"11/27/2017 18:00","20","0,3","ND","ND","ND","ND"],
    [29980,"11/27/2017 19:00","16,5","0,7","ND","ND","ND","ND"],
    [29981,"11/27/2017 20:00","17,2","1","ND","ND","ND","ND"],
    [29982,"11/27/2017 21:00","23,7","1","ND","ND","ND","ND"],
    [29983,"11/27/2017 22:00","30,1","1,5","ND","ND","ND","ND"],
    [29984,"11/27/2017 23:00","52,5","1,4","ND","ND","ND","ND"],
    [29985,"11/28/2017 00:00","36,9","1,3","ND","ND","ND","ND"],
    [29986,"11/28/2017 01:00","37,8","1,1","ND","ND","ND","ND"],
    [29987,"11/28/2017 02:00","27,9","0,9","ND","ND","ND","ND"],
    [29988,"11/28/2017 03:00","24,5","1","ND","ND","ND","ND"],
    [29989,"11/28/2017 04:00","26,4","1,2","ND","ND","ND","ND"],
    [29990,"11/28/2017 05:00","33,2","1,4","ND","ND","ND","ND"],
    [29991,"11/28/2017 06:00","35","1,7","ND","ND","ND","ND"],
    [29992,"11/28/2017 07:00","58,4","2","ND","ND","ND","ND"],
    [29993,"11/28/2017 08:00","72,9","4,2","ND","ND","ND","ND"],
    [29994,"11/28/2017 09:00","69,9","ND","ND","ND","ND","ND"],
    [29995,"11/28/2017 10:00","61,8","6,1","ND","ND","ND","ND"],
    [29996,"11/28/2017 11:00","52,6","4,7","ND","ND","ND","ND"],
    [29997,"11/28/2017 12:00","59,4","4,6","ND","ND","ND","ND"],
    [29998,"11/28/2017 13:00","67,3","2,9","ND","ND","ND","ND"],
    [29999,"11/28/2017 14:00","50,5","4,1","ND","ND","ND","ND"],
    [30000,"11/28/2017 15:00","63,3","2,3","ND","ND","ND","ND"],
    [30001,"11/28/2017 16:00","36,5","1,3","ND","ND","ND","ND"],
    [30002,"11/28/2017 17:00","21,4","1,2","ND","ND","ND","ND"],
    [30003,"11/28/2017 18:00","26,2","1,1","ND","ND","ND","ND"],
    [30004,"11/28/2017 19:00","36","1,2","ND","ND","ND","ND"],
    [30005,"11/28/2017 20:00","27,5","1,2","ND","ND","ND","ND"],
    [30006,"11/28/2017 21:00","19,5","1,1","ND","ND","ND","ND"],
    [30007,"11/28/2017 22:00","15,5","1,8","ND","ND","ND","ND"],
    [30008,"11/28/2017 23:00","35,3","2,9","ND","ND","ND","ND"],
    [30009,"11/29/2017 00:00","66","2,3","ND","ND","ND","ND"],
    [30010,"11/29/2017 01:00","47,4","1,9","ND","ND","ND","ND"],
    [30011,"11/29/2017 02:00","38","1,8","ND","ND","ND","ND"],
    [30012,"11/29/2017 03:00","39","1,5","ND","ND","ND","ND"],
    [30013,"11/29/2017 04:00","66,6","1,7","ND","ND","ND","ND"],
    [30014,"11/29/2017 05:00","24,8","1,7","ND","ND","ND","ND"],
    [30015,"11/29/2017 06:00","35,6","2,4","ND","ND","ND","ND"],
    [30016,"11/29/2017 07:00","55,2","2,4","ND","ND","ND","ND"],
    [30017,"11/29/2017 08:00","79,2","3,9","ND","ND","ND","ND"],
    [30018,"11/29/2017 09:00","68,8","7,8","ND","ND","ND","ND"],
    [30019,"11/29/2017 10:00","59,8","8,7","ND","ND","ND","ND"],
    [30020,"11/29/2017 11:00","44,7","6,4","ND","ND","ND","ND"],
    [30021,"11/29/2017 12:00","45,8","5,6","ND","ND","ND","ND"],
    [30022,"11/29/2017 13:00","60,3","4,4","ND","ND","ND","ND"],
    [30023,"11/29/2017 14:00","49,4","1,4","ND","ND","ND","ND"],
    [30024,"11/29/2017 15:00","19,1","1,3","ND","ND","ND","ND"],
    [30025,"11/29/2017 16:00","21,2","1,3","ND","ND","ND","ND"],
    [30026,"11/29/2017 17:00","12,7","1,2","ND","ND","ND","ND"],
    [30027,"11/29/2017 18:00","17,4","1,1","ND","ND","ND","ND"],
    [30028,"11/29/2017 19:00","19,4","1,2","ND","ND","ND","ND"],
    [30029,"11/29/2017 20:00","18,1","1,2","ND","ND","ND","ND"],
    [30030,"11/29/2017 21:00","23,3","1,7","ND","ND","ND","ND"],
    [30031,"11/29/2017 22:00","37,5","3","ND","ND","ND","ND"],
    [30032,"11/29/2017 23:00","63,2","3,2","ND","ND","ND","ND"],
    [30033,"11/30/2017 00:00","44,9","2,5","ND","ND","ND","ND"],
    [30034,"11/30/2017 01:00","40,1","2,4","ND","ND","ND","ND"],
    [30035,"11/30/2017 02:00","29,8","2","ND","ND","ND","ND"],
    [30036,"11/30/2017 03:00","23,6","3,1","ND","ND","ND","ND"],
    [30037,"11/30/2017 04:00","43,6","3","ND","ND","ND","ND"],
    [30038,"11/30/2017 05:00","37,1","3,1","ND","ND","ND","ND"],
    [30039,"11/30/2017 06:00","37","2,6","ND","ND","ND","ND"],
    [30040,"11/30/2017 07:00","56,5","3,2","ND","ND","ND","ND"],
    [30041,"11/30/2017 08:00","76","4,9","ND","ND","ND","ND"],
    [30042,"11/30/2017 09:00","76,1","7","ND","ND","ND","ND"],
    [30043,"11/30/2017 10:00","111,2","5,8","ND","ND","ND","ND"],
    [30044,"11/30/2017 11:00","57","5","ND","ND","ND","ND"],
    [30045,"11/30/2017 12:00","72,6","3,8","ND","ND","ND","ND"],
    [30046,"11/30/2017 13:00","59,7","3,9","ND","ND","ND","ND"],
    [30047,"11/30/2017 14:00","52,7","2,5","ND","ND","ND","ND"],
    [30048,"11/30/2017 15:00","42,9","1,3","ND","ND","ND","ND"],
    [30049,"11/30/2017 16:00","13","1,2","ND","ND","ND","ND"],
    [30050,"11/30/2017 17:00","18,1","1,2","ND","ND","ND","ND"],
    [30051,"11/30/2017 18:00","22,5","1,1","ND","ND","ND","ND"],
    [30052,"11/30/2017 19:00","21,8","1,1","ND","ND","ND","ND"],
    [30053,"11/30/2017 20:00","18,3","1,1","ND","ND","ND","ND"],
    [30054,"11/30/2017 21:00","14,6","1,5","ND","ND","ND","ND"],
    [30055,"11/30/2017 22:00","20,1","1,8","ND","ND","ND","ND"],
    [30056,"11/30/2017 23:00","21,7","2,1","ND","ND","ND","ND"],
    [30057,"42747","48","2,6","ND","ND","ND","ND"],
    [30058,"42747,04167","2,6","0,4","ND","ND","ND","ND"],
    [30059,"42747,08333","32,7","0,9","ND","ND","ND","ND"],
    [30060,"42747,125","37,9","2,3","ND","ND","ND","ND"],
    [30061,"42747,16667","39,1","2,8","ND","ND","ND","ND"],
    [30062,"42747,20833","46,5","2,2","ND","ND","ND","ND"],
    [30063,"42747,25","41,3","1,9","ND","ND","ND","ND"],
    [30064,"42747,29167","50,3","2","ND","ND","ND","ND"],
    [30065,"42747,33333","67,5","3,8","ND","ND","ND","ND"],
    [30066,"42747,375","51,2","3,6","ND","ND","ND","ND"],
    [30067,"42747,41667","70,9","3,9","ND","ND","ND","ND"],
    [30068,"42747,45833","65,7","4,1","ND","ND","ND","ND"],
    [30069,"42747,5","45,2","3,4","ND","ND","ND","ND"],
    [30070,"42747,54167","43,8","1,6","ND","ND","ND","ND"],
    [30071,"42747,58333","26,5","1,3","ND","ND","ND","ND"],
    [30072,"42747,625","25,5","0,6","ND","ND","ND","ND"],
    [30073,"42747,66667","15,9","0,3","ND","ND","ND","ND"],
    [30074,"42747,70833","15,1","0,2","ND","ND","ND","ND"],
    [30075,"42747,75","15,2","0,3","ND","ND","ND","ND"],
    [30076,"42747,79167","20","1,5","ND","ND","ND","ND"],
    [30077,"42747,83333","49,2","1,1","ND","ND","ND","ND"],
    [30078,"42747,875","24,6","1,2","ND","ND","ND","ND"],
    [30079,"42747,91667","24,3","1,3","ND","ND","ND","ND"],
    [30080,"42747,95833","20,4","1,2","ND","ND","ND","ND"],
    [30081,"42778","21,2","0,9","ND","ND","ND","ND"],
    [30082,"42778,04167","18,3","0,5","ND","ND","ND","ND"],
    [30083,"42778,08333","18,7","0,5","ND","ND","ND","ND"],
    [30084,"42778,125","16,6","0,6","ND","ND","ND","ND"],
    [30085,"42778,16667","17","0,4","ND","ND","ND","ND"],
    [30086,"42778,20833","8","0,4","ND","ND","ND","ND"],
    [30087,"42778,25","7,2","0,6","ND","ND","ND","ND"],
    [30088,"42778,29167","11,9","1,3","ND","ND","ND","ND"],
    [30089,"42778,33333","23,3","4","ND","ND","ND","ND"],
    [30090,"42778,375","36,1","3,5","ND","ND","ND","ND"],
    [30091,"42778,41667","42,7","8,7","ND","ND","ND","ND"],
    [30092,"42778,45833","56","10,3","ND","ND","ND","ND"],
    [30093,"42778,5","56,6","10,5","ND","ND","ND","ND"],
    [30094,"42778,54167","35,7","4,7","ND","ND","ND","ND"],
    [30095,"42778,58333","42,4","2,7","ND","ND","ND","ND"],
    [30096,"42778,625","48,9","2,1","ND","ND","ND","ND"],
    [30097,"42778,66667","42,5","2,4","ND","ND","ND","ND"],
    [30098,"42778,70833","48,8","0,4","ND","ND","ND","ND"],
    [30099,"42778,75","14,4","0,3","ND","ND","ND","ND"],
    [30100,"42778,79167","14,9","0,3","ND","ND","ND","ND"],
    [30101,"42778,83333","16,5","0","ND","ND","ND","ND"],
    [30102,"42778,875","17","0,7","ND","ND","ND","ND"],
    [30103,"42778,91667","38,9","1","ND","ND","ND","ND"],
    [30104,"42778,95833","51,4","2,3","ND","ND","ND","ND"],
    [30105,"42806","44","5,1","ND","ND","ND","ND"],
    [30106,"42806,04167","31,7","4,9","ND","ND","ND","ND"],
    [30107,"42806,08333","21,9","3","ND","ND","ND","ND"],
    [30108,"42806,125","29,6","3,8","ND","ND","ND","ND"],
    [30109,"42806,16667","33,2","9,7","ND","ND","ND","ND"],
    [30110,"42806,20833","19,7","8,6","ND","ND","ND","ND"],
    [30111,"42806,25","23,8","5","ND","ND","ND","ND"],
    [30112,"42806,29167","32,1","3,9","ND","ND","ND","ND"],
    [30113,"42806,33333","37,9","3,1","ND","ND","ND","ND"],
    [30114,"42806,375","45,3","2","ND","ND","ND","ND"],
    [30115,"42806,41667","37,8","1,9","ND","ND","ND","ND"],
    [30116,"42806,45833","37,8","1,7","ND","ND","ND","ND"],
    [30117,"42806,5","26,5","1,6","ND","ND","ND","ND"],
    [30118,"42806,54167","16,2","1,2","ND","ND","ND","ND"],
    [30119,"42806,58333","22,3","1,2","ND","ND","ND","ND"],
    [30120,"42806,625","28,7","1,1","ND","ND","ND","ND"],
    [30121,"42806,66667","39,7","0,8","ND","ND","ND","ND"],
    [30122,"42806,70833","27,5","0,1","ND","ND","ND","ND"],
    [30123,"42806,75","17,2","0,1","ND","ND","ND","ND"],
    [30124,"42806,79167","18,5","0,1","ND","ND","ND","ND"],
    [30125,"42806,83333","15,7","0,3","ND","ND","ND","ND"],
    [30126,"42806,875","22,4","0,8","ND","ND","ND","ND"],
    [30127,"42806,91667","28,6","0,6","ND","ND","ND","ND"],
    [30128,"42806,95833","19,7","0,5","ND","ND","ND","ND"],
    [30129,"42837","24,6","0,9","ND","ND","ND","ND"],
    [30130,"42837,04167","44,4","0,9","ND","ND","ND","ND"],
    [30131,"42837,08333","28,6","2","ND","ND","ND","ND"],
    [30132,"42837,125","38,3","2,2","ND","ND","ND","ND"],
    [30133,"42837,16667","31,6","1,2","ND","ND","ND","ND"],
    [30134,"42837,20833","27,5","1,2","ND","ND","ND","ND"],
    [30135,"42837,25","31,6","1","ND","ND","ND","ND"],
    [30136,"42837,29167","45,8","1,7","ND","ND","ND","ND"],
    [30137,"42837,33333","58,8","2,7","ND","ND","ND","ND"],
    [30138,"42837,375","59,1","3,6","ND","ND","ND","ND"],
    [30139,"42837,41667","55,3","8,5","ND","ND","ND","ND"],
    [30140,"42837,45833","42,1","8,4","ND","ND","ND","ND"],
    [30141,"42837,5","43,1","7,5","ND","ND","ND","ND"],
    [30142,"42837,54167","44,4","8,3","ND","ND","ND","ND"],
    [30143,"42837,58333","50,4","5,3","ND","ND","ND","ND"],
    [30144,"42837,625","56,4","0,7","ND","ND","ND","ND"],
    [30145,"42837,66667","22","0,8","ND","ND","ND","ND"],
    [30146,"42837,70833","33,8","0,9","ND","ND","ND","ND"],
    [30147,"42837,75","22,8","0,5","ND","ND","ND","ND"],
    [30148,"42837,79167","19,5","0,3","ND","ND","ND","ND"],
    [30149,"42837,83333","16,9","0,2","ND","ND","ND","ND"],
    [30150,"42837,875","15","0,4","ND","ND","ND","ND"],
    [30151,"42837,91667","19,8","0,8","ND","ND","ND","ND"],
    [30152,"42837,95833","43,9","1,1","ND","ND","ND","ND"],
    [30153,"42867","47,1","0,8","ND","ND","ND","ND"],
    [30154,"42867,04167","42,6","0,8","ND","ND","ND","ND"],
    [30155,"42867,08333","45,2","1,4","ND","ND","ND","ND"],
    [30156,"42867,125","64,9","1","ND","ND","ND","ND"],
    [30157,"42867,16667","39,8","0,8","ND","ND","ND","ND"],
    [30158,"42867,20833","41,1","0,6","ND","ND","ND","ND"],
    [30159,"42867,25","42,9","0,8","ND","ND","ND","ND"],
    [30160,"42867,29167","49,2","1,2","ND","ND","ND","ND"],
    [30161,"42867,33333","68,4","1,9","ND","ND","ND","ND"],
    [30162,"42867,375","62,8","3,5","ND","ND","ND","ND"],
    [30163,"42867,41667","59","6,4","ND","ND","ND","ND"],
    [30164,"42867,45833","44","7","ND","ND","ND","ND"],
    [30165,"42867,5","57,6","5,7","ND","ND","ND","ND"],
    [30166,"42867,54167","56,8","3,5","ND","ND","ND","ND"],
    [30167,"42867,58333","75","6,3","ND","ND","ND","ND"],
    [30168,"42867,625","68,4","3,1","ND","ND","ND","ND"],
    [30169,"42867,66667","44,2","0,4","ND","ND","ND","ND"],
    [30170,"42867,70833","21,7","0,1","ND","ND","ND","ND"],
    [30171,"42867,75","23,3","0,3","ND","ND","ND","ND"],
    [30172,"42867,79167","27,2","0,3","ND","ND","ND","ND"],
    [30173,"42867,83333","28,7","0,6","ND","ND","ND","ND"],
    [30174,"42867,875","30,5","0,9","ND","ND","ND","ND"],
    [30175,"42867,91667","35,5","1","ND","ND","ND","ND"],
    [30176,"42867,95833","42,2","0,8","ND","ND","ND","ND"],
    [30177,"42898","46,2","0,7","ND","ND","ND","ND"],
    [30178,"42898,04167","45,3","0,8","ND","ND","ND","ND"],
    [30179,"42898,08333","57","1,3","ND","ND","ND","ND"],
    [30180,"42898,125","53,1","0,8","ND","ND","ND","ND"],
    [30181,"42898,16667","41,6","0,8","ND","ND","ND","ND"],
    [30182,"42898,20833","42,1","0,6","ND","ND","ND","ND"],
    [30183,"42898,25","44","0,9","ND","ND","ND","ND"],
    [30184,"42898,29167","73,4","1,2","ND","ND","ND","ND"],
    [30185,"42898,33333","76,8","2,3","ND","ND","ND","ND"],
    [30186,"42898,375","87,4","6","ND","ND","ND","ND"],
    [30187,"42898,41667","110,5","5","ND","ND","ND","ND"],
    [30188,"42898,45833","39,6","3,5","ND","ND","ND","ND"],
    [30189,"42898,5","46","3,8","ND","ND","ND","ND"],
    [30190,"42898,54167","64,9","4,6","ND","ND","ND","ND"],
    [30191,"42898,58333","71,3","2,9","ND","ND","ND","ND"],
    [30192,"42898,625","49,4","0,8","ND","ND","ND","ND"],
    [30193,"42898,66667","20,7","0,2","ND","ND","ND","ND"],
    [30194,"42898,70833","23,4","0,2","ND","ND","ND","ND"],
    [30195,"42898,75","24,6","0,1","ND","ND","ND","ND"],
    [30196,"42898,79167","36","0,1","ND","ND","ND","ND"],
    [30197,"42898,83333","30,4","0,2","ND","ND","ND","ND"],
    [30198,"42898,875","23,6","0,4","ND","ND","ND","ND"],
    [30199,"42898,91667","26,9","0,8","ND","ND","ND","ND"],
    [30200,"42898,95833","55,1","1,5","ND","ND","ND","ND"],
    [30201,"42928","63,1","0,6","ND","ND","ND","ND"],
    [30202,"42928,04167","33","0,5","ND","ND","ND","ND"],
    [30203,"42928,08333","36,9","0,6","ND","ND","ND","ND"],
    [30204,"42928,125","37,3","0,4","ND","ND","ND","ND"],
    [30205,"42928,16667","33,3","0,4","ND","ND","ND","ND"],
    [30206,"42928,20833","31,1","0,6","ND","ND","ND","ND"],
    [30207,"42928,25","39,4","0,7","ND","ND","ND","ND"],
    [30208,"42928,29167","57,1","1,3","ND","ND","ND","ND"],
    [30209,"42928,33333","63,1","4,2","ND","ND","ND","ND"],
    [30210,"42928,375","80,9","7,3","ND","ND","ND","ND"],
    [30211,"42928,41667","76,6","10,7","ND","ND","ND","ND"],
    [30212,"42928,45833","58,6","6,5","ND","ND","ND","ND"],
    [30213,"42928,5","ND","ND","ND","ND","ND","ND"],
    [30214,"42928,54167","ND","4,1","ND","ND","ND","ND"],
    [30215,"42928,58333","ND","2,5","ND","ND","ND","ND"],
    [30216,"42928,625","0,6","0,3","ND","ND","ND","ND"],
    [30217,"42928,66667","13,8","0,4","ND","ND","ND","ND"],
    [30218,"42928,70833","27,3","0,4","ND","ND","ND","ND"],
    [30219,"42928,75","32,2","0,4","ND","ND","ND","ND"],
    [30220,"42928,79167","32,8","0,4","ND","ND","ND","ND"],
    [30221,"42928,83333","28","0,5","ND","ND","ND","ND"],
    [30222,"42928,875","23,6","0,9","ND","ND","ND","ND"],
    [30223,"42928,91667","27","3","ND","ND","ND","ND"],
    [30224,"42928,95833","74,3","2,5","ND","ND","ND","ND"],
    [30225,"42959","75,1","3,9","ND","ND","ND","ND"],
    [30226,"42959,04167","60,6","3,9","ND","ND","ND","ND"],
    [30227,"42959,08333","61","4,3","ND","ND","ND","ND"],
    [30228,"42959,125","58,8","4,5","ND","ND","ND","ND"],
    [30229,"42959,16667","44,1","2,4","ND","ND","ND","ND"],
    [30230,"42959,20833","52,9","2","ND","ND","ND","ND"],
    [30231,"42959,25","45","1,9","ND","ND","ND","ND"],
    [30232,"42959,29167","50,7","2,1","ND","ND","ND","ND"],
    [30233,"42959,33333","62,2","2,5","ND","ND","ND","ND"],
    [30234,"42959,375","54,5","5,5","ND","ND","ND","ND"],
    [30235,"42959,41667","58,8","6,5","ND","ND","ND","ND"],
    [30236,"42959,45833","43,2","6,6","ND","ND","ND","ND"],
    [30237,"42959,5","37,9","5,7","ND","ND","ND","ND"],
    [30238,"42959,54167","47,3","4,6","ND","ND","ND","ND"],
    [30239,"42959,58333","49,1","1,8","ND","ND","ND","ND"],
    [30240,"42959,625","35,2","0,5","ND","ND","ND","ND"],
    [30241,"42959,66667","19","0,4","ND","ND","ND","ND"],
    [30242,"42959,70833","19,1","0,3","ND","ND","ND","ND"],
    [30243,"42959,75","20,5","0,2","ND","ND","ND","ND"],
    [30244,"42959,79167","20,9","0,3","ND","ND","ND","ND"],
    [30245,"42959,83333","26,9","1,3","ND","ND","ND","ND"],
    [30246,"42959,875","98,4","1,4","ND","ND","ND","ND"],
    [30247,"42959,91667","44,3","1,8","ND","ND","ND","ND"],
    [30248,"42959,95833","39,8","1,3","ND","ND","ND","ND"],
    [30249,"42990","35,1","1","ND","ND","ND","ND"],
    [30250,"42990,04167","39,9","0,9","ND","ND","ND","ND"],
    [30251,"42990,08333","38,8","1,3","ND","ND","ND","ND"],
    [30252,"42990,125","34,7","1,4","ND","ND","ND","ND"],
    [30253,"42990,16667","27,4","1,5","ND","ND","ND","ND"],
    [30254,"42990,20833","32,2","1,5","ND","ND","ND","ND"],
    [30255,"42990,25","34,8","1,5","ND","ND","ND","ND"],
    [30256,"42990,29167","38,6","1,4","ND","ND","ND","ND"],
    [30257,"42990,33333","47,5","1,5","ND","ND","ND","ND"],
    [30258,"42990,375","34,9","1,5","ND","ND","ND","ND"],
    [30259,"42990,41667","28,4","2,6","ND","ND","ND","ND"],
    [30260,"42990,45833","33,1","1,9","ND","ND","ND","ND"],
    [30261,"42990,5","27,3","1,6","ND","ND","ND","ND"],
    [30262,"42990,54167","26,9","1,2","ND","ND","ND","ND"],
    [30263,"42990,58333","33,6","0,9","ND","ND","ND","ND"],
    [30264,"42990,625","19,4","1,3","ND","ND","ND","ND"],
    [30265,"42990,66667","31,4","1,1","ND","ND","ND","ND"],
    [30266,"42990,70833","40,7","0,5","ND","ND","ND","ND"],
    [30267,"42990,75","18","0,2","ND","ND","ND","ND"],
    [30268,"42990,79167","14,5","0,4","ND","ND","ND","ND"],
    [30269,"42990,83333","18,6","0,5","ND","ND","ND","ND"],
    [30270,"42990,875","23,7","0,6","ND","ND","ND","ND"],
    [30271,"42990,91667","31,9","1,6","ND","ND","ND","ND"],
    [30272,"42990,95833","47,2","1,1","ND","ND","ND","ND"],
    [30273,"43020","25,1","2,4","ND","ND","ND","ND"],
    [30274,"43020,04167","15,8","0,9","ND","ND","ND","ND"],
    [30275,"43020,08333","33,1","0,5","ND","ND","ND","ND"],
    [30276,"43020,125","19,8","0,8","ND","ND","ND","ND"],
    [30277,"43020,16667","27,5","0,6","ND","ND","ND","ND"],
    [30278,"43020,20833","25,7","0,7","ND","ND","ND","ND"],
    [30279,"43020,25","34,6","0,6","ND","ND","ND","ND"],
    [30280,"43020,29167","24,2","2","ND","ND","ND","ND"],
    [30281,"43020,33333","23,1","4,9","ND","ND","ND","ND"],
    [30282,"43020,375","21,6","3,5","ND","ND","ND","ND"],
    [30283,"43020,41667","14,1","1,3","ND","ND","ND","ND"],
    [30284,"43020,45833","3,4","1,3","ND","ND","ND","ND"],
    [30285,"43020,5","10,4","2","ND","ND","ND","ND"],
    [30286,"43020,54167","8,5","0,9","ND","ND","ND","ND"],
    [30287,"43020,58333","7,4","0,6","ND","ND","ND","ND"],
    [30288,"43020,625","9,6","0,6","ND","ND","ND","ND"],
    [30289,"43020,66667","6,6","1,3","ND","ND","ND","ND"],
    [30290,"43020,70833","15,2","0,9","ND","ND","ND","ND"],
    [30291,"43020,75","30,6","1,3","ND","ND","ND","ND"],
    [30292,"43020,79167","69,1","0,6","ND","ND","ND","ND"],
    [30293,"43020,83333","36,3","0,6","ND","ND","ND","ND"],
    [30294,"43020,875","37,4","1,2","ND","ND","ND","ND"],
    [30295,"43020,91667","38,7","0,6","ND","ND","ND","ND"],
    [30296,"43020,95833","30,3","0,9","ND","ND","ND","ND"],
    [30297,"43051","33,6","0,3","ND","ND","ND","ND"],
    [30298,"43051,04167","30","0,5","ND","ND","ND","ND"],
    [30299,"43051,08333","27,4","0,4","ND","ND","ND","ND"],
    [30300,"43051,125","27,8","0,3","ND","ND","ND","ND"],
    [30301,"43051,16667","18","0,2","ND","ND","ND","ND"],
    [30302,"43051,20833","17,5","0,4","ND","ND","ND","ND"],
    [30303,"43051,25","31,5","1","ND","ND","ND","ND"],
    [30304,"43051,29167","60,3","1","ND","ND","ND","ND"],
    [30305,"43051,33333","53","1,1","ND","ND","ND","ND"],
    [30306,"43051,375","54","1,4","ND","ND","ND","ND"],
    [30307,"43051,41667","50,7","1","ND","ND","ND","ND"],
    [30308,"43051,45833","39,5","0,7","ND","ND","ND","ND"],
    [30309,"43051,5","24,8","0,3","ND","ND","ND","ND"],
    [30310,"43051,54167","16,5","0,4","ND","ND","ND","ND"],
    [30311,"43051,58333","10,4","0,5","ND","ND","ND","ND"],
    [30312,"43051,625","14,8","0,4","ND","ND","ND","ND"],
    [30313,"43051,66667","22,7","0,3","ND","ND","ND","ND"],
    [30314,"43051,70833","21,1","0,4","ND","ND","ND","ND"],
    [30315,"43051,75","34,7","0,7","ND","ND","ND","ND"],
    [30316,"43051,79167","51,5","0,8","ND","ND","ND","ND"],
    [30317,"43051,83333","48,5","0,5","ND","ND","ND","ND"],
    [30318,"43051,875","50,4","0,8","ND","ND","ND","ND"],
    [30319,"43051,91667","33,3","0,4","ND","ND","ND","ND"],
    [30320,"43051,95833","26","1,1","ND","ND","ND","ND"],
    [30321,"43081","43","0,9","ND","ND","ND","ND"],
    [30322,"43081,04167","38,7","0,8","ND","ND","ND","ND"],
    [30323,"43081,08333","26","0,5","ND","ND","ND","ND"],
    [30324,"43081,125","27,4","1","ND","ND","ND","ND"],
    [30325,"43081,16667","22,9","0,5","ND","ND","ND","ND"],
    [30326,"43081,20833","19,4","0,4","ND","ND","ND","ND"],
    [30327,"43081,25","22,5","0,6","ND","ND","ND","ND"],
    [30328,"43081,29167","28","1","ND","ND","ND","ND"],
    [30329,"43081,33333","22,4","1,3","ND","ND","ND","ND"],
    [30330,"43081,375","23,3","1,8","ND","ND","ND","ND"],
    [30331,"43081,41667","28,6","1,3","ND","ND","ND","ND"],
    [30332,"43081,45833","28","ND","ND","ND","ND","ND"],
    [30333,"43081,5","28","0,2","ND","ND","ND","ND"],
    [30334,"43081,54167","25","0,3","ND","ND","ND","ND"],
    [30335,"43081,58333","7,7","0,4","ND","ND","ND","ND"],
    [30336,"43081,625","23,3","0,3","ND","ND","ND","ND"],
    [30337,"43081,66667","31,4","0,4","ND","ND","ND","ND"],
    [30338,"43081,70833","14,5","0,6","ND","ND","ND","ND"],
    [30339,"43081,75","31","4","ND","ND","ND","ND"],
    [30340,"43081,79167","78,1","4,5","ND","ND","ND","ND"],
    [30341,"43081,83333","99,8","1,3","ND","ND","ND","ND"],
    [30342,"43081,875","38,7","1,4","ND","ND","ND","ND"],
    [30343,"43081,91667","60,8","0,7","ND","ND","ND","ND"],
    [30344,"43081,95833","31,5","0,9","ND","ND","ND","ND"],
    [30345,"12/13/2017 00:00","38,4","0,7","ND","ND","ND","ND"],
    [30346,"12/13/2017 01:00","27,6","0,3","ND","ND","ND","ND"],
    [30347,"12/13/2017 02:00","21,2","0,2","ND","ND","ND","ND"],
    [30348,"12/13/2017 03:00","25,6","0,4","ND","ND","ND","ND"],
    [30349,"12/13/2017 04:00","33,9","0,3","ND","ND","ND","ND"],
    [30350,"12/13/2017 05:00","31,2","0,3","ND","ND","ND","ND"],
    [30351,"12/13/2017 06:00","32,4","0,6","ND","ND","ND","ND"],
    [30352,"12/13/2017 07:00","40,5","0,6","ND","ND","ND","ND"],
    [30353,"12/13/2017 08:00","57,8","1,5","ND","ND","ND","ND"],
    [30354,"12/13/2017 09:00","93,2","6,1","ND","ND","ND","ND"],
    [30355,"12/13/2017 10:00","105","6,6","ND","ND","ND","ND"],
    [30356,"12/13/2017 11:00","95,3","3,5","ND","ND","ND","ND"],
    [30357,"12/13/2017 12:00","62,9","2,9","ND","ND","ND","ND"],
    [30358,"12/13/2017 13:00","54,1","2,3","ND","ND","ND","ND"],
    [30359,"12/13/2017 14:00","59,8","2,1","ND","ND","ND","ND"],
    [30360,"12/13/2017 15:00","69,3","6,3","ND","ND","ND","ND"],
    [30361,"12/13/2017 16:00","88,5","9,7","ND","ND","ND","ND"],
    [30362,"12/13/2017 17:00","79,1","2,7","ND","ND","ND","ND"],
    [30363,"12/13/2017 18:00","53,6","0,4","ND","ND","ND","ND"],
    [30364,"12/13/2017 19:00","28","1,2","ND","ND","ND","ND"],
    [30365,"12/13/2017 20:00","46,3","1,3","ND","ND","ND","ND"],
    [30366,"12/13/2017 21:00","38,8","1,3","ND","ND","ND","ND"],
    [30367,"12/13/2017 22:00","39,1","1,8","ND","ND","ND","ND"],
    [30368,"12/13/2017 23:00","70","1,4","ND","ND","ND","ND"],
    [30369,"12/14/2017 00:00","58,4","1","ND","ND","ND","ND"],
    [30370,"12/14/2017 01:00","48,2","0,8","ND","ND","ND","ND"],
    [30371,"12/14/2017 02:00","89,5","0,7","ND","ND","ND","ND"],
    [30372,"12/14/2017 03:00","39,8","0,9","ND","ND","ND","ND"],
    [30373,"12/14/2017 04:00","45,6","0,6","ND","ND","ND","ND"],
    [30374,"12/14/2017 05:00","42,4","0,5","ND","ND","ND","ND"],
    [30375,"12/14/2017 06:00","46,4","0,6","ND","ND","ND","ND"],
    [30376,"12/14/2017 07:00","44,1","0,8","ND","ND","ND","ND"],
    [30377,"12/14/2017 08:00","ND","0,9","ND","ND","ND","ND"],
    [30378,"12/14/2017 09:00","ND","4,3","ND","ND","ND","ND"],
    [30379,"12/14/2017 10:00","2,6","4,2","ND","ND","ND","ND"],
    [30380,"12/14/2017 11:00","62,2","ND","ND","ND","ND","ND"],
    [30381,"12/14/2017 12:00","62,9","ND","ND","ND","ND","ND"],
    [30382,"12/14/2017 13:00","ND","ND","ND","ND","ND","ND"],
    [30383,"12/14/2017 14:00","ND","ND","ND","ND","ND","ND"],
    [30384,"12/14/2017 15:00","ND","0,2","ND","ND","ND","ND"],
    [30385,"12/14/2017 16:00","1,1","0,1","ND","ND","ND","ND"],
    [30386,"12/14/2017 17:00","25,5","0","ND","ND","ND","ND"],
    [30387,"12/14/2017 18:00","29,5","0","ND","ND","ND","ND"],
    [30388,"12/14/2017 19:00","27,8","0","ND","ND","ND","ND"],
    [30389,"12/14/2017 20:00","20,4","0","ND","ND","ND","ND"],
    [30390,"12/14/2017 21:00","21,2","0,5","ND","ND","ND","ND"],
    [30391,"12/14/2017 22:00","40,6","0,3","ND","ND","ND","ND"],
    [30392,"12/14/2017 23:00","38,2","0,3","ND","ND","ND","ND"],
    [30393,"12/15/2017 00:00","56","0,3","ND","ND","ND","ND"],
    [30394,"12/15/2017 01:00","62","0,2","ND","ND","ND","ND"],
    [30395,"12/15/2017 02:00","43,3","0,1","ND","ND","ND","ND"],
    [30396,"12/15/2017 03:00","37","0","ND","ND","ND","ND"],
    [30397,"12/15/2017 04:00","39,6","0","ND","ND","ND","ND"],
    [30398,"12/15/2017 05:00","37,9","0,5","ND","ND","ND","ND"],
    [30399,"12/15/2017 06:00","43,5","0,4","ND","ND","ND","ND"],
    [30400,"12/15/2017 07:00","55,6","0,7","ND","ND","ND","ND"],
    [30401,"12/15/2017 08:00","91,6","1,3","ND","ND","ND","ND"],
    [30402,"12/15/2017 09:00","76,7","3,8","ND","ND","ND","ND"],
    [30403,"12/15/2017 10:00","69,6","8,1","ND","ND","ND","ND"],
    [30404,"12/15/2017 11:00","64,4","5,2","ND","ND","ND","ND"],
    [30405,"12/15/2017 12:00","56,4","3","ND","ND","ND","ND"],
    [30406,"12/15/2017 13:00","58,8","2,7","ND","ND","ND","ND"],
    [30407,"12/15/2017 14:00","73,1","2,1","ND","ND","ND","ND"],
    [30408,"12/15/2017 15:00","76,3","1,9","ND","ND","ND","ND"],
    [30409,"12/15/2017 16:00","70,7","0,2","ND","ND","ND","ND"],
    [30410,"12/15/2017 17:00","44,5","0,1","ND","ND","ND","ND"],
    [30411,"12/15/2017 18:00","36,7","0","ND","ND","ND","ND"],
    [30412,"12/15/2017 19:00","35,1","0,1","ND","ND","ND","ND"],
    [30413,"12/15/2017 20:00","30,7","0,7","ND","ND","ND","ND"],
    [30414,"12/15/2017 21:00","51,5","0,7","ND","ND","ND","ND"],
    [30415,"12/15/2017 22:00","51,8","1","ND","ND","ND","ND"],
    [30416,"12/15/2017 23:00","67,5","0,9","ND","ND","ND","ND"],
    [30417,"12/16/2017 00:00","76,3","0,7","ND","ND","ND","ND"],
    [30418,"12/16/2017 01:00","70,4","0,3","ND","ND","ND","ND"],
    [30419,"12/16/2017 02:00","67,8","0,3","ND","ND","ND","ND"],
    [30420,"12/16/2017 03:00","46,2","0,3","ND","ND","ND","ND"],
    [30421,"12/16/2017 04:00","46,4","0,3","ND","ND","ND","ND"],
    [30422,"12/16/2017 05:00","48,6","0,3","ND","ND","ND","ND"],
    [30423,"12/16/2017 06:00","52","0,6","ND","ND","ND","ND"],
    [30424,"12/16/2017 07:00","59,3","0,6","ND","ND","ND","ND"],
    [30425,"12/16/2017 08:00","67,2","1,1","ND","ND","ND","ND"],
    [30426,"12/16/2017 09:00","13,3","5,9","ND","ND","ND","ND"],
    [30427,"12/16/2017 10:00","69,8","10,9","ND","ND","ND","ND"],
    [30428,"12/16/2017 11:00","50,8","9","ND","ND","ND","ND"],
    [30429,"12/16/2017 12:00","51,1","8,3","ND","ND","ND","ND"],
    [30430,"12/16/2017 13:00","65","4,7","ND","ND","ND","ND"],
    [30431,"12/16/2017 14:00","71,9","3,6","ND","ND","ND","ND"],
    [30432,"12/16/2017 15:00","76,3","3,2","ND","ND","ND","ND"],
    [30433,"12/16/2017 16:00","61,4","0,7","ND","ND","ND","ND"],
    [30434,"12/16/2017 17:00","32","0,2","ND","ND","ND","ND"],
    [30435,"12/16/2017 18:00","31,5","0,1","ND","ND","ND","ND"],
    [30436,"12/16/2017 19:00","33","0,1","ND","ND","ND","ND"],
    [30437,"12/16/2017 20:00","34,5","0,2","ND","ND","ND","ND"],
    [30438,"12/16/2017 21:00","33,2","0,3","ND","ND","ND","ND"],
    [30439,"12/16/2017 22:00","41,7","1","ND","ND","ND","ND"],
    [30440,"12/16/2017 23:00","71,8","0,7","ND","ND","ND","ND"],
    [30441,"12/17/2017 00:00","58,4","0,6","ND","ND","ND","ND"],
    [30442,"12/17/2017 01:00","49,3","0,4","ND","ND","ND","ND"],
    [30443,"12/17/2017 02:00","50,8","0,4","ND","ND","ND","ND"],
    [30444,"12/17/2017 03:00","46","0,4","ND","ND","ND","ND"],
    [30445,"12/17/2017 04:00","58,7","0,3","ND","ND","ND","ND"],
    [30446,"12/17/2017 05:00","46,1","0,3","ND","ND","ND","ND"],
    [30447,"12/17/2017 06:00","43,3","0,3","ND","ND","ND","ND"],
    [30448,"12/17/2017 07:00","45,9","0,5","ND","ND","ND","ND"],
    [30449,"12/17/2017 08:00","54,2","1,1","ND","ND","ND","ND"],
    [30450,"12/17/2017 09:00","87,5","8,1","ND","ND","ND","ND"],
    [30451,"12/17/2017 10:00","52,7","6,5","ND","ND","ND","ND"],
    [30452,"12/17/2017 11:00","48,5","5,6","ND","ND","ND","ND"],
    [30453,"12/17/2017 12:00","55,6","3,8","ND","ND","ND","ND"],
    [30454,"12/17/2017 13:00","61,5","2,3","ND","ND","ND","ND"],
    [30455,"12/17/2017 14:00","56,4","1,2","ND","ND","ND","ND"],
    [30456,"12/17/2017 15:00","44,9","0,2","ND","ND","ND","ND"],
    [30457,"12/17/2017 16:00","20,2","0,1","ND","ND","ND","ND"],
    [30458,"12/17/2017 17:00","30,4","0","ND","ND","ND","ND"],
    [30459,"12/17/2017 18:00","28","0,1","ND","ND","ND","ND"],
    [30460,"12/17/2017 19:00","32,9","0,1","ND","ND","ND","ND"],
    [30461,"12/17/2017 20:00","32","0,2","ND","ND","ND","ND"],
    [30462,"12/17/2017 21:00","41,1","0,6","ND","ND","ND","ND"],
    [30463,"12/17/2017 22:00","59,4","1,2","ND","ND","ND","ND"],
    [30464,"12/17/2017 23:00","80,5","0,5","ND","ND","ND","ND"],
    [30465,"12/18/2017 00:00","48,9","0,2","ND","ND","ND","ND"],
    [30466,"12/18/2017 01:00","34,9","0,2","ND","ND","ND","ND"],
    [30467,"12/18/2017 02:00","36,4","0,2","ND","ND","ND","ND"],
    [30468,"12/18/2017 03:00","32","0,3","ND","ND","ND","ND"],
    [30469,"12/18/2017 04:00","25,6","0,3","ND","ND","ND","ND"],
    [30470,"12/18/2017 05:00","27,3","0,3","ND","ND","ND","ND"],
    [30471,"12/18/2017 06:00","32,2","0,5","ND","ND","ND","ND"],
    [30472,"12/18/2017 07:00","46,1","0,7","ND","ND","ND","ND"],
    [30473,"12/18/2017 08:00","64,3","1,4","ND","ND","ND","ND"],
    [30474,"12/18/2017 09:00","66,1","5","ND","ND","ND","ND"],
    [30475,"12/18/2017 10:00","73,9","6,2","ND","ND","ND","ND"],
    [30476,"12/18/2017 11:00","66,9","6,3","ND","ND","ND","ND"],
    [30477,"12/18/2017 12:00","61","3,4","ND","ND","ND","ND"],
    [30478,"12/18/2017 13:00","61,1","2","ND","ND","ND","ND"],
    [30479,"12/18/2017 14:00","58,5","1,7","ND","ND","ND","ND"],
    [30480,"12/18/2017 15:00","62,9","0,8","ND","ND","ND","ND"],
    [30481,"12/18/2017 16:00","43,1","0,1","ND","ND","ND","ND"],
    [30482,"12/18/2017 17:00","31,1","0,1","ND","ND","ND","ND"],
    [30483,"12/18/2017 18:00","28,6","0,1","ND","ND","ND","ND"],
    [30484,"12/18/2017 19:00","35","0,1","ND","ND","ND","ND"],
    [30485,"12/18/2017 20:00","37,4","0,1","ND","ND","ND","ND"],
    [30486,"12/18/2017 21:00","37,9","0,4","ND","ND","ND","ND"],
    [30487,"12/18/2017 22:00","41,3","1,2","ND","ND","ND","ND"],
    [30488,"12/18/2017 23:00","80,9","0,7","ND","ND","ND","ND"],
    [30489,"12/19/2017 00:00","52,9","0,3","ND","ND","ND","ND"],
    [30490,"12/19/2017 01:00","33,3","0,3","ND","ND","ND","ND"],
    [30491,"12/19/2017 02:00","32,6","0,2","ND","ND","ND","ND"],
    [30492,"12/19/2017 03:00","27,1","0,2","ND","ND","ND","ND"],
    [30493,"12/19/2017 04:00","29,8","0,2","ND","ND","ND","ND"],
    [30494,"12/19/2017 05:00","33,5","1,5","ND","ND","ND","ND"],
    [30495,"12/19/2017 06:00","39,4","1,4","ND","ND","ND","ND"],
    [30496,"12/19/2017 07:00","46,3","0,8","ND","ND","ND","ND"],
    [30497,"12/19/2017 08:00","67","2,4","ND","ND","ND","ND"],
    [30498,"12/19/2017 09:00","ND","4,3","ND","ND","ND","ND"],
    [30499,"12/19/2017 10:00","ND","ND","ND","ND","ND","ND"],
    [30500,"12/19/2017 11:00","ND","ND","ND","ND","ND","ND"],
    [30501,"12/19/2017 12:00","ND","ND","ND","ND","ND","ND"],
    [30502,"12/19/2017 13:00","ND","ND","ND","ND","ND","ND"],
    [30503,"12/19/2017 14:00","ND","ND","ND","ND","ND","ND"],
    [30504,"12/19/2017 15:00","ND","ND","ND","ND","ND","ND"],
    [30505,"12/19/2017 16:00","ND","ND","ND","ND","ND","ND"],
    [30506,"12/19/2017 17:00","ND","ND","ND","ND","ND","ND"],
    [30507,"12/19/2017 18:00","ND","ND","ND","ND","ND","ND"],
    [30508,"12/19/2017 19:00","ND","ND","ND","ND","ND","ND"],
    [30509,"12/19/2017 20:00","ND","ND","ND","ND","ND","ND"],
    [30510,"12/19/2017 21:00","ND","ND","ND","ND","ND","ND"],
    [30511,"12/19/2017 22:00","ND","ND","ND","ND","ND","ND"],
    [30512,"12/19/2017 23:00","ND","ND","ND","ND","ND","ND"],
    [30513,"12/20/2017 00:00","ND","ND","ND","ND","ND","ND"],
    [30514,"12/20/2017 01:00","ND","ND","ND","ND","ND","ND"],
    [30515,"12/20/2017 02:00","ND","ND","ND","ND","ND","ND"],
    [30516,"12/20/2017 03:00","ND","ND","ND","ND","ND","ND"],
    [30517,"12/20/2017 04:00","ND","ND","ND","ND","ND","ND"],
    [30518,"12/20/2017 05:00","ND","ND","ND","ND","ND","ND"],
    [30519,"12/20/2017 06:00","ND","ND","ND","ND","ND","ND"],
    [30520,"12/20/2017 07:00","ND","ND","ND","ND","ND","ND"],
    [30521,"12/20/2017 08:00","ND","ND","ND","ND","ND","ND"],
    [30522,"12/20/2017 09:00","ND","ND","ND","ND","ND","ND"],
    [30523,"12/20/2017 10:00","ND","ND","ND","ND","ND","ND"],
    [30524,"12/20/2017 11:00","ND","ND","ND","ND","ND","ND"],
    [30525,"12/20/2017 12:00","ND","ND","ND","ND","ND","ND"],
    [30526,"12/20/2017 13:00","ND","ND","ND","ND","ND","ND"],
    [30527,"12/20/2017 14:00","ND","ND","ND","ND","ND","ND"],
    [30528,"12/20/2017 15:00","ND","ND","ND","ND","ND","ND"],
    [30529,"12/20/2017 16:00","ND","ND","ND","ND","ND","ND"],
    [30530,"12/20/2017 17:00","ND","ND","ND","ND","ND","ND"],
    [30531,"12/20/2017 18:00","ND","ND","ND","ND","ND","ND"],
    [30532,"12/20/2017 19:00","ND","ND","ND","ND","ND","ND"],
    [30533,"12/20/2017 20:00","ND","ND","ND","ND","ND","ND"],
    [30534,"12/20/2017 21:00","ND","ND","ND","ND","ND","ND"],
    [30535,"12/20/2017 22:00","ND","ND","ND","ND","ND","ND"],
    [30536,"12/20/2017 23:00","ND","ND","ND","ND","ND","ND"],
    [30537,"12/21/2017 00:00","ND","ND","ND","ND","ND","ND"],
    [30538,"12/21/2017 01:00","ND","ND","ND","ND","ND","ND"],
    [30539,"12/21/2017 02:00","ND","ND","ND","ND","ND","ND"],
    [30540,"12/21/2017 03:00","ND","ND","ND","ND","ND","ND"],
    [30541,"12/21/2017 04:00","ND","ND","ND","ND","ND","ND"],
    [30542,"12/21/2017 05:00","ND","ND","ND","ND","ND","ND"],
    [30543,"12/21/2017 06:00","ND","ND","ND","ND","ND","ND"],
    [30544,"12/21/2017 07:00","ND","ND","ND","ND","ND","ND"],
    [30545,"12/21/2017 08:00","ND","ND","ND","ND","ND","ND"],
    [30546,"12/21/2017 09:00","ND","ND","ND","ND","ND","ND"],
    [30547,"12/21/2017 10:00","75,1","5,7","ND","ND","ND","ND"],
    [30548,"12/21/2017 11:00","60,1","4,9","ND","ND","ND","ND"],
    [30549,"12/21/2017 12:00","60,6","2,3","ND","ND","ND","ND"],
    [30550,"12/21/2017 13:00","51,1","3","ND","ND","ND","ND"],
    [30551,"12/21/2017 14:00","57,5","2,5","ND","ND","ND","ND"],
    [30552,"12/21/2017 15:00","56,8","2,6","ND","ND","ND","ND"],
    [30553,"12/21/2017 16:00","45,7","0,1","ND","ND","ND","ND"],
    [30554,"12/21/2017 17:00","23,2","0,1","ND","ND","ND","ND"],
    [30555,"12/21/2017 18:00","ND","0","ND","ND","ND","ND"],
    [30556,"12/21/2017 19:00","ND","0","ND","ND","ND","ND"],
    [30557,"12/21/2017 20:00","3,2","0","ND","ND","ND","ND"],
    [30558,"12/21/2017 21:00","42,9","0,1","ND","ND","ND","ND"],
    [30559,"12/21/2017 22:00","47","0,4","ND","ND","ND","ND"],
    [30560,"12/21/2017 23:00","49,5","0,6","ND","ND","ND","ND"],
    [30561,"12/22/2017 00:00","51,9","0,6","ND","ND","ND","ND"],
    [30562,"12/22/2017 01:00","43,9","1,5","ND","ND","ND","ND"],
    [30563,"12/22/2017 02:00","36","0,5","ND","ND","ND","ND"],
    [30564,"12/22/2017 03:00","21,7","0,1","ND","ND","ND","ND"],
    [30565,"12/22/2017 04:00","24,1","0","ND","ND","ND","ND"],
    [30566,"12/22/2017 05:00","20,2","0","ND","ND","ND","ND"],
    [30567,"12/22/2017 06:00","26,3","0,1","ND","ND","ND","ND"],
    [30568,"12/22/2017 07:00","38,5","0,4","ND","ND","ND","ND"],
    [30569,"12/22/2017 08:00","59,1","1,4","ND","ND","ND","ND"],
    [30570,"12/22/2017 09:00","63,5","6,4","ND","ND","ND","ND"],
    [30571,"12/22/2017 10:00","88","11,5","ND","ND","ND","ND"],
    [30572,"12/22/2017 11:00","83,5","9,4","ND","ND","ND","ND"],
    [30573,"12/22/2017 12:00","93,5","5,2","ND","ND","ND","ND"],
    [30574,"12/22/2017 13:00","69,9","2,3","ND","ND","ND","ND"],
    [30575,"12/22/2017 14:00","61,7","1,3","ND","ND","ND","ND"],
    [30576,"12/22/2017 15:00","59,9","0,2","ND","ND","ND","ND"],
    [30577,"12/22/2017 16:00","47,8","0","ND","ND","ND","ND"],
    [30578,"12/22/2017 17:00","28,9","0","ND","ND","ND","ND"],
    [30579,"12/22/2017 18:00","35,2","0","ND","ND","ND","ND"],
    [30580,"12/22/2017 19:00","39,4","0","ND","ND","ND","ND"],
    [30581,"12/22/2017 20:00","44,2","0,1","ND","ND","ND","ND"],
    [30582,"12/22/2017 21:00","37,8","0","ND","ND","ND","ND"],
    [30583,"12/22/2017 22:00","27,7","0,1","ND","ND","ND","ND"],
    [30584,"12/22/2017 23:00","30,5","0,3","ND","ND","ND","ND"],
    [30585,"12/23/2017 00:00","54,9","0,5","ND","ND","ND","ND"],
    [30586,"12/23/2017 01:00","68,9","0,2","ND","ND","ND","ND"],
    [30587,"12/23/2017 02:00","35,6","0,2","ND","ND","ND","ND"],
    [30588,"12/23/2017 03:00","31,3","0,1","ND","ND","ND","ND"],
    [30589,"12/23/2017 04:00","39,7","0","ND","ND","ND","ND"],
    [30590,"12/23/2017 05:00","27,9","0,1","ND","ND","ND","ND"],
    [30591,"12/23/2017 06:00","39,1","0,1","ND","ND","ND","ND"],
    [30592,"12/23/2017 07:00","34","0,2","ND","ND","ND","ND"],
    [30593,"12/23/2017 08:00","49,8","0,9","ND","ND","ND","ND"],
    [30594,"12/23/2017 09:00","58,7","2,3","ND","ND","ND","ND"],
    [30595,"12/23/2017 10:00","54,1","9,5","ND","ND","ND","ND"],
    [30596,"12/23/2017 11:00","46,1","4,5","ND","ND","ND","ND"],
    [30597,"12/23/2017 12:00","52,8","2,4","ND","ND","ND","ND"],
    [30598,"12/23/2017 13:00","50,9","1,2","ND","ND","ND","ND"],
    [30599,"12/23/2017 14:00","70,3","1","ND","ND","ND","ND"],
    [30600,"12/23/2017 15:00","66,9","0","ND","ND","ND","ND"],
    [30601,"12/23/2017 16:00","26,1","0","ND","ND","ND","ND"],
    [30602,"12/23/2017 17:00","43,7","0","ND","ND","ND","ND"],
    [30603,"12/23/2017 18:00","27,9","0","ND","ND","ND","ND"],
    [30604,"12/23/2017 19:00","31,8","0,1","ND","ND","ND","ND"],
    [30605,"12/23/2017 20:00","33,3","0","ND","ND","ND","ND"],
    [30606,"12/23/2017 21:00","37,6","0,8","ND","ND","ND","ND"],
    [30607,"12/23/2017 22:00","58,8","0,3","ND","ND","ND","ND"],
    [30608,"12/23/2017 23:00","50,9","0,2","ND","ND","ND","ND"],
    [30609,"12/24/2017 00:00","43,7","0,1","ND","ND","ND","ND"],
    [30610,"12/24/2017 01:00","24,3","0,1","ND","ND","ND","ND"],
    [30611,"12/24/2017 02:00","41,1","0,3","ND","ND","ND","ND"],
    [30612,"12/24/2017 03:00","39,1","0,3","ND","ND","ND","ND"],
    [30613,"12/24/2017 04:00","32,9","0,2","ND","ND","ND","ND"],
    [30614,"12/24/2017 05:00","30,2","0,1","ND","ND","ND","ND"],
    [30615,"12/24/2017 06:00","31","0,4","ND","ND","ND","ND"],
    [30616,"12/24/2017 07:00","32,6","0,4","ND","ND","ND","ND"],
    [30617,"12/24/2017 08:00","51,8","0,9","ND","ND","ND","ND"],
    [30618,"12/24/2017 09:00","50,2","1,5","ND","ND","ND","ND"],
    [30619,"12/24/2017 10:00","41,3","2,1","ND","ND","ND","ND"],
    [30620,"12/24/2017 11:00","48,9","1,8","ND","ND","ND","ND"],
    [30621,"12/24/2017 12:00","39,3","1,3","ND","ND","ND","ND"],
    [30622,"12/24/2017 13:00","38,3","0","ND","ND","ND","ND"],
    [30623,"12/24/2017 14:00","11,8","0","ND","ND","ND","ND"],
    [30624,"12/24/2017 15:00","9,1","0","ND","ND","ND","ND"],
    [30625,"12/24/2017 16:00","18,6","0","ND","ND","ND","ND"],
    [30626,"12/24/2017 17:00","22,3","0","ND","ND","ND","ND"],
    [30627,"12/24/2017 18:00","41,8","0,1","ND","ND","ND","ND"],
    [30628,"12/24/2017 19:00","26,4","0,2","ND","ND","ND","ND"],
    [30629,"12/24/2017 20:00","37,3","0,5","ND","ND","ND","ND"],
    [30630,"12/24/2017 21:00","41,4","0,4","ND","ND","ND","ND"],
    [30631,"12/24/2017 22:00","27,1","0,9","ND","ND","ND","ND"],
    [30632,"12/24/2017 23:00","30,8","1,3","ND","ND","ND","ND"],
    [30633,"12/25/2017 00:00","40,9","2,2","ND","ND","ND","ND"],
    [30634,"12/25/2017 01:00","35,4","1,6","ND","ND","ND","ND"],
    [30635,"12/25/2017 02:00","34,6","1,3","ND","ND","ND","ND"],
    [30636,"12/25/2017 03:00","34,2","0,5","ND","ND","ND","ND"],
    [30637,"12/25/2017 04:00","38,6","0,3","ND","ND","ND","ND"],
    [30638,"12/25/2017 05:00","45,1","0,1","ND","ND","ND","ND"],
    [30639,"12/25/2017 06:00","31,4","0,3","ND","ND","ND","ND"],
    [30640,"12/25/2017 07:00","37,4","0,4","ND","ND","ND","ND"],
    [30641,"12/25/2017 08:00","45,8","0,7","ND","ND","ND","ND"],
    [30642,"12/25/2017 09:00","39,6","0,6","ND","ND","ND","ND"],
    [30643,"12/25/2017 10:00","37,8","0,3","ND","ND","ND","ND"],
    [30644,"12/25/2017 11:00","33,3","0,2","ND","ND","ND","ND"],
    [30645,"12/25/2017 12:00","20,4","0,1","ND","ND","ND","ND"],
    [30646,"12/25/2017 13:00","15,7","0,1","ND","ND","ND","ND"],
    [30647,"12/25/2017 14:00","27,7","0","ND","ND","ND","ND"],
    [30648,"12/25/2017 15:00","22,8","0","ND","ND","ND","ND"],
    [30649,"12/25/2017 16:00","7,7","0","ND","ND","ND","ND"],
    [30650,"12/25/2017 17:00","9,4","0","ND","ND","ND","ND"],
    [30651,"12/25/2017 18:00","16,5","0","ND","ND","ND","ND"],
    [30652,"12/25/2017 19:00","20,4","0,4","ND","ND","ND","ND"],
    [30653,"12/25/2017 20:00","39,1","0,1","ND","ND","ND","ND"],
    [30654,"12/25/2017 21:00","25,9","0,2","ND","ND","ND","ND"],
    [30655,"12/25/2017 22:00","24","0,3","ND","ND","ND","ND"],
    [30656,"12/25/2017 23:00","12","0,2","ND","ND","ND","ND"],
    [30657,"12/26/2017 00:00","10,8","0,1","ND","ND","ND","ND"],
    [30658,"12/26/2017 01:00","14,3","0,1","ND","ND","ND","ND"],
    [30659,"12/26/2017 02:00","ND","1,6","ND","ND","ND","ND"],
    [30660,"12/26/2017 03:00","ND","0,3","ND","ND","ND","ND"],
    [30661,"12/26/2017 04:00","ND","ND","ND","ND","ND","ND"],
    [30662,"12/26/2017 05:00","ND","0,2","ND","ND","ND","ND"],
    [30663,"12/26/2017 06:00","ND","0,2","ND","ND","ND","ND"],
    [30664,"12/26/2017 07:00","ND","0,3","ND","ND","ND","ND"],
    [30665,"12/26/2017 08:00","ND","0,6","ND","ND","ND","ND"],
    [30666,"12/26/2017 09:00","ND","3,3","ND","ND","ND","ND"],
    [30667,"12/26/2017 10:00","ND","0,7","ND","ND","ND","ND"],
    [30668,"12/26/2017 11:00","ND","0,6","ND","ND","ND","ND"],
    [30669,"12/26/2017 12:00","ND","0,6","ND","ND","ND","ND"],
    [30670,"12/26/2017 13:00","ND","0,2","ND","ND","ND","ND"],
    [30671,"12/26/2017 14:00","ND","0,6","ND","ND","ND","ND"],
    [30672,"12/26/2017 15:00","ND","5,6","ND","ND","ND","ND"],
    [30673,"12/26/2017 16:00","ND","5,7","ND","ND","ND","ND"],
    [30674,"12/26/2017 17:00","ND","0,4","ND","ND","ND","ND"],
    [30675,"12/26/2017 18:00","ND","0,3","ND","ND","ND","ND"],
    [30676,"12/26/2017 19:00","ND","0,2","ND","ND","ND","ND"],
    [30677,"12/26/2017 20:00","ND","0,2","ND","ND","ND","ND"],
    [30678,"12/26/2017 21:00","ND","0,3","ND","ND","ND","ND"],
    [30679,"12/26/2017 22:00","ND","0,2","ND","ND","ND","ND"],
    [30680,"12/26/2017 23:00","ND","0,2","ND","ND","ND","ND"],
    [30681,"12/27/2017 00:00","ND","0,2","ND","ND","ND","ND"],
    [30682,"12/27/2017 01:00","ND","0,1","ND","ND","ND","ND"],
    [30683,"12/27/2017 02:00","ND","0,1","ND","ND","ND","ND"],
    [30684,"12/27/2017 03:00","ND","0,1","ND","ND","ND","ND"],
    [30685,"12/27/2017 04:00","ND","0,1","ND","ND","ND","ND"],
    [30686,"12/27/2017 05:00","ND","0,1","ND","ND","ND","ND"],
    [30687,"12/27/2017 06:00","ND","0,3","ND","ND","ND","ND"],
    [30688,"12/27/2017 07:00","ND","0,4","ND","ND","ND","ND"],
    [30689,"12/27/2017 08:00","ND","0,9","ND","ND","ND","ND"],
    [30690,"12/27/2017 09:00","ND","1,4","ND","ND","ND","ND"],
    [30691,"12/27/2017 10:00","ND","2,3","ND","ND","ND","ND"],
    [30692,"12/27/2017 11:00","ND","1,7","ND","ND","ND","ND"],
    [30693,"12/27/2017 12:00","ND","1","ND","ND","ND","ND"],
    [30694,"12/27/2017 13:00","ND","1,5","ND","ND","ND","ND"],
    [30695,"12/27/2017 14:00","ND","1,5","ND","ND","ND","ND"],
    [30696,"12/27/2017 15:00","ND","0,7","ND","ND","ND","ND"],
    [30697,"12/27/2017 16:00","ND","0,1","ND","ND","ND","ND"],
    [30698,"12/27/2017 17:00","ND","0,2","ND","ND","ND","ND"],
    [30699,"12/27/2017 18:00","ND","0,3","ND","ND","ND","ND"],
    [30700,"12/27/2017 19:00","ND","0,6","ND","ND","ND","ND"],
    [30701,"12/27/2017 20:00","ND","0,6","ND","ND","ND","ND"],
    [30702,"12/27/2017 21:00","ND","0,5","ND","ND","ND","ND"],
    [30703,"12/27/2017 22:00","ND","0,6","ND","ND","ND","ND"],
    [30704,"12/27/2017 23:00","ND","0,7","ND","ND","ND","ND"],
    [30705,"12/28/2017 00:00","ND","0,4","ND","ND","ND","ND"],
    [30706,"12/28/2017 01:00","ND","0,3","ND","ND","ND","ND"],
    [30707,"12/28/2017 02:00","ND","0,4","ND","ND","ND","ND"],
    [30708,"12/28/2017 03:00","ND","0,3","ND","ND","ND","ND"],
    [30709,"12/28/2017 04:00","ND","0,3","ND","ND","ND","ND"],
    [30710,"12/28/2017 05:00","ND","0,2","ND","ND","ND","ND"],
    [30711,"12/28/2017 06:00","ND","0,2","ND","ND","ND","ND"],
    [30712,"12/28/2017 07:00","ND","0,4","ND","ND","ND","ND"],
    [30713,"12/28/2017 08:00","ND","0,6","ND","ND","ND","ND"],
    [30714,"12/28/2017 09:00","ND","0,4","ND","ND","ND","ND"],
    [30715,"12/28/2017 10:00","ND","0,6","ND","ND","ND","ND"],
    [30716,"12/28/2017 11:00","ND","0,7","ND","ND","ND","ND"],
    [30717,"12/28/2017 12:00","ND","0,6","ND","ND","ND","ND"],
    [30718,"12/28/2017 13:00","ND","1","ND","ND","ND","ND"],
    [30719,"12/28/2017 14:00","ND","1,8","ND","ND","ND","ND"],
    [30720,"12/28/2017 15:00","ND","5,6","ND","ND","ND","ND"],
    [30721,"12/28/2017 16:00","ND","6,1","ND","ND","ND","ND"],
    [30722,"12/28/2017 17:00","ND","2,3","ND","ND","ND","ND"],
    [30723,"12/28/2017 18:00","ND","1","ND","ND","ND","ND"],
    [30724,"12/28/2017 19:00","ND","0,9","ND","ND","ND","ND"],
    [30725,"12/28/2017 20:00","ND","1,1","ND","ND","ND","ND"],
    [30726,"12/28/2017 21:00","ND","0,7","ND","ND","ND","ND"],
    [30727,"12/28/2017 22:00","ND","1,2","ND","ND","ND","ND"],
    [30728,"12/28/2017 23:00","ND","1,2","ND","ND","ND","ND"],
    [30729,"12/29/2017 00:00","ND","0,7","ND","ND","ND","ND"],
    [30730,"12/29/2017 01:00","ND","0,3","ND","ND","ND","ND"],
    [30731,"12/29/2017 02:00","ND","0,4","ND","ND","ND","ND"],
    [30732,"12/29/2017 03:00","ND","0,5","ND","ND","ND","ND"],
    [30733,"12/29/2017 04:00","ND","0,1","ND","ND","ND","ND"],
    [30734,"12/29/2017 05:00","ND","0,2","ND","ND","ND","ND"],
    [30735,"12/29/2017 06:00","ND","0,2","ND","ND","ND","ND"],
    [30736,"12/29/2017 07:00","ND","0,6","ND","ND","ND","ND"],
    [30737,"12/29/2017 08:00","ND","1,3","ND","ND","ND","ND"],
    [30738,"12/29/2017 09:00","ND","1","ND","ND","ND","ND"],
    [30739,"12/29/2017 10:00","ND","0,6","ND","ND","ND","ND"],
    [30740,"12/29/2017 11:00","ND","1,4","ND","ND","ND","ND"],
    [30741,"12/29/2017 12:00","ND","1","ND","ND","ND","ND"],
    [30742,"12/29/2017 13:00","ND","0,5","ND","ND","ND","ND"],
    [30743,"12/29/2017 14:00","ND","0,4","ND","ND","ND","ND"],
    [30744,"12/29/2017 15:00","ND","0,2","ND","ND","ND","ND"],
    [30745,"12/29/2017 16:00","ND","0","ND","ND","ND","ND"],
    [30746,"12/29/2017 17:00","ND","0","ND","ND","ND","ND"],
    [30747,"12/29/2017 18:00","ND","0,1","ND","ND","ND","ND"],
    [30748,"12/29/2017 19:00","ND","0,2","ND","ND","ND","ND"],
    [30749,"12/29/2017 20:00","ND","0,3","ND","ND","ND","ND"],
    [30750,"12/29/2017 21:00","ND","0,4","ND","ND","ND","ND"],
    [30751,"12/29/2017 22:00","ND","0,5","ND","ND","ND","ND"],
    [30752,"12/29/2017 23:00","ND","0,4","ND","ND","ND","ND"],
    [30753,"12/30/2017 00:00","ND","0,2","ND","ND","ND","ND"],
    [30754,"12/30/2017 01:00","ND","0,1","ND","ND","ND","ND"],
    [30755,"12/30/2017 02:00","ND","0,1","ND","ND","ND","ND"],
    [30756,"12/30/2017 03:00","ND","0,1","ND","ND","ND","ND"],
    [30757,"12/30/2017 04:00","ND","0,1","ND","ND","ND","ND"],
    [30758,"12/30/2017 05:00","ND","0,1","ND","ND","ND","ND"],
    [30759,"12/30/2017 06:00","ND","0,1","ND","ND","ND","ND"],
    [30760,"12/30/2017 07:00","ND","0,1","ND","ND","ND","ND"],
    [30761,"12/30/2017 08:00","ND","0,2","ND","ND","ND","ND"],
    [30762,"12/30/2017 09:00","ND","0,3","ND","ND","ND","ND"],
    [30763,"12/30/2017 10:00","ND","0,4","ND","ND","ND","ND"],
    [30764,"12/30/2017 11:00","ND","0,8","ND","ND","ND","ND"],
    [30765,"12/30/2017 12:00","ND","0,9","ND","ND","ND","ND"],
    [30766,"12/30/2017 13:00","ND","0,5","ND","ND","ND","ND"],
    [30767,"12/30/2017 14:00","ND","0,5","ND","ND","ND","ND"],
    [30768,"12/30/2017 15:00","ND","0,4","ND","ND","ND","ND"],
    [30769,"12/30/2017 16:00","ND","0,6","ND","ND","ND","ND"],
    [30770,"12/30/2017 17:00","ND","0,4","ND","ND","ND","ND"],
    [30771,"12/30/2017 18:00","ND","0,3","ND","ND","ND","ND"],
    [30772,"12/30/2017 19:00","ND","0,1","ND","ND","ND","ND"],
    [30773,"12/30/2017 20:00","ND","0,2","ND","ND","ND","ND"],
    [30774,"12/30/2017 21:00","ND","0,2","ND","ND","ND","ND"],
    [30775,"12/30/2017 22:00","ND","0,3","ND","ND","ND","ND"],
    [30776,"12/30/2017 23:00","ND","0,2","ND","ND","ND","ND"],
    [30777,"12/31/2017 00:00","ND","0,2","ND","ND","ND","ND"],
    [30778,"12/31/2017 01:00","ND","0,1","ND","ND","ND","ND"],
    [30779,"12/31/2017 02:00","ND","0,1","ND","ND","ND","ND"],
    [30780,"12/31/2017 03:00","ND","0,1","ND","ND","ND","ND"],
    [30781,"12/31/2017 04:00","ND","0,1","ND","ND","ND","ND"],
    [30782,"12/31/2017 05:00","ND","0,1","ND","ND","ND","ND"],
    [30783,"12/31/2017 06:00","ND","0,1","ND","ND","ND","ND"],
    [30784,"12/31/2017 07:00","ND","0,3","ND","ND","ND","ND"],
    [30785,"12/31/2017 08:00","ND","0,2","ND","ND","ND","ND"],
    [30786,"12/31/2017 09:00","ND","0,2","ND","ND","ND","ND"],
    [30787,"12/31/2017 10:00","ND","0,3","ND","ND","ND","ND"],
    [30788,"12/31/2017 11:00","ND","0,4","ND","ND","ND","ND"],
    [30789,"12/31/2017 12:00","ND","0,8","ND","ND","ND","ND"],
    [30790,"12/31/2017 13:00","ND","1,8","ND","ND","ND","ND"],
    [30791,"12/31/2017 14:00","ND","1,3","ND","ND","ND","ND"],
    [30792,"12/31/2017 15:00","ND","0,2","ND","ND","ND","ND"],
    [30793,"12/31/2017 16:00","ND","0,1","ND","ND","ND","ND"],
    [30794,"12/31/2017 17:00","ND","0,3","ND","ND","ND","ND"],
    [30795,"12/31/2017 18:00","ND","0,4","ND","ND","ND","ND"],
    [30796,"12/31/2017 19:00","ND","0,5","ND","ND","ND","ND"],
    [30797,"12/31/2017 20:00","ND","0,5","ND","ND","ND","ND"],
    [30798,"12/31/2017 21:00","ND","0,3","ND","ND","ND","ND"],
    [30799,"12/31/2017 22:00","ND","0,4","ND","ND","ND","ND"],
    [30800,"12/31/2017 23:00","ND","0,5","ND","ND","ND","ND"],
    [30801,"43101,04167","ND","1,4","ND","ND","ND","ND"],
    [30802,"43101,08333","ND","2,1","ND","ND","ND","ND"],
    [30803,"43101,125","ND","0,6","ND","ND","ND","ND"],
    [30804,"43101,16667","ND","0,6","ND","ND","ND","ND"],
    [30805,"43101,20833","ND","0,2","ND","ND","ND","ND"],
    [30806,"43101,25","ND","0,1","ND","ND","ND","ND"],
    [30807,"43101,29167","ND","ND","ND","ND","ND","ND"],
    [30808,"43101,33333","ND","ND","ND","ND","ND","ND"],
    [30809,"43101,375","ND","ND","ND","ND","ND","ND"],
    [30810,"43101,41667","ND","ND","ND","ND","ND","ND"],
    [30811,"43101,45833","ND","ND","ND","ND","ND","ND"],
    [30812,"43101,5","ND","ND","ND","ND","ND","ND"],
    [30813,"43101,54167","ND","ND","ND","ND","ND","ND"],
    [30814,"43101,58333","ND","ND","ND","ND","ND","ND"],
    [30815,"43101,625","ND","ND","ND","ND","ND","ND"],
    [30816,"43101,66667","ND","ND","ND","ND","ND","ND"],
    [30817,"43101,70833","ND","ND","ND","ND","ND","ND"],
    [30818,"43101,75","ND","ND","ND","ND","ND","ND"],
    [30819,"43101,79167","ND","ND","ND","ND","ND","ND"],
    [30820,"43101,83333","ND","ND","ND","ND","ND","ND"],
    [30821,"43101,875","ND","ND","ND","ND","ND","ND"],
    [30822,"43101,91667","ND","ND","ND","ND","ND","ND"],
    [30823,"43101,95833","ND","0","ND","ND","ND","ND"],
    [30824,"43132","ND","ND","ND","ND","ND","ND"],
    [30825,"43132,04167","ND","ND","ND","ND","ND","ND"],
    [30826,"43132,08333","ND","ND","ND","ND","ND","ND"],
    [30827,"43132,125","ND","ND","ND","ND","ND","ND"],
    [30828,"43132,16667","ND","ND","ND","ND","ND","ND"],
    [30829,"43132,20833","ND","ND","ND","ND","ND","ND"],
    [30830,"43132,25","ND","ND","ND","ND","ND","ND"],
    [30831,"43132,29167","ND","ND","ND","ND","ND","ND"],
    [30832,"43132,33333","ND","0,1","ND","ND","ND","ND"],
    [30833,"43132,375","ND","0,3","ND","ND","ND","ND"],
    [30834,"43132,41667","ND","ND","ND","ND","ND","ND"],
    [30835,"43132,45833","ND","ND","ND","ND","ND","ND"],
    [30836,"43132,5","ND","0,9","ND","ND","ND","ND"],
    [30837,"43132,54167","ND","0,7","ND","ND","ND","ND"],
    [30838,"43132,58333","ND","0,9","ND","ND","ND","ND"],
    [30839,"43132,625","ND","2,9","ND","ND","ND","ND"],
    [30840,"43132,66667","ND","0,9","ND","ND","ND","ND"],
    [30841,"43132,70833","ND","0","ND","ND","ND","ND"],
    [30842,"43132,75","ND","0,2","ND","ND","ND","ND"],
    [30843,"43132,79167","ND","0,5","ND","ND","ND","ND"],
    [30844,"43132,83333","ND","0,4","ND","ND","ND","ND"],
    [30845,"43132,875","ND","0,4","ND","ND","ND","ND"],
    [30846,"43132,91667","ND","0,3","ND","ND","ND","ND"],
    [30847,"43132,95833","ND","0,7","ND","ND","ND","ND"],
    [30848,"43160","ND","0,3","ND","ND","ND","ND"],
    [30849,"43160,04167","ND","0,1","ND","ND","ND","ND"],
    [30850,"43160,08333","ND","0,1","ND","ND","ND","ND"],
    [30851,"43160,125","ND","ND","ND","ND","ND","ND"],
    [30852,"43160,16667","ND","ND","ND","ND","ND","ND"],
    [30853,"43160,20833","ND","0","ND","ND","ND","ND"],
    [30854,"43160,25","ND","0,2","ND","ND","ND","ND"],
    [30855,"43160,29167","ND","0,2","ND","ND","ND","ND"],
    [30856,"43160,33333","ND","0,8","ND","ND","ND","ND"],
    [30857,"43160,375","ND","0,6","ND","ND","ND","ND"],
    [30858,"43160,41667","ND","1,2","ND","ND","ND","ND"],
    [30859,"43160,45833","ND","2","ND","ND","ND","ND"],
    [30860,"43160,5","ND","1,3","ND","ND","ND","ND"],
    [30861,"43160,54167","ND","1,2","ND","ND","ND","ND"],
    [30862,"43160,58333","ND","1","ND","ND","ND","ND"],
    [30863,"43160,625","ND","1,3","ND","ND","ND","ND"],
    [30864,"43160,66667","ND","1,5","ND","ND","ND","ND"],
    [30865,"43160,70833","ND","1,3","ND","ND","ND","ND"],
    [30866,"43160,75","ND","0,1","ND","ND","ND","ND"],
    [30867,"43160,79167","ND","0,2","ND","ND","ND","ND"],
    [30868,"43160,83333","ND","0,2","ND","ND","ND","ND"],
    [30869,"43160,875","ND","0,3","ND","ND","ND","ND"],
    [30870,"43160,91667","ND","0,6","ND","ND","ND","ND"],
    [30871,"43160,95833","ND","0,3","ND","ND","ND","ND"],
    [30872,"43191","ND","0,1","ND","ND","ND","ND"],
    [30873,"43191,04167","ND","0,1","ND","ND","ND","ND"],
    [30874,"43191,08333","ND","ND","ND","ND","ND","ND"],
    [30875,"43191,125","ND","ND","ND","ND","ND","ND"],
    [30876,"43191,16667","ND","ND","ND","ND","ND","ND"],
    [30877,"43191,20833","ND","ND","ND","ND","ND","ND"],
    [30878,"43191,25","ND","0","ND","ND","ND","ND"],
    [30879,"43191,29167","ND","0,6","ND","ND","ND","ND"],
    [30880,"43191,33333","ND","0,4","ND","ND","ND","ND"],
    [30881,"43191,375","ND","0,5","ND","ND","ND","ND"],
    [30882,"43191,41667","ND","0,9","ND","ND","ND","ND"],
    [30883,"43191,45833","ND","1,1","ND","ND","ND","ND"],
    [30884,"43191,5","ND","0,9","ND","ND","ND","ND"],
    [30885,"43191,54167","ND","0,5","ND","ND","ND","ND"],
    [30886,"43191,58333","ND","0,5","ND","ND","ND","ND"],
    [30887,"43191,625","ND","0,5","ND","ND","ND","ND"],
    [30888,"43191,66667","ND","0,3","ND","ND","ND","ND"],
    [30889,"43191,70833","ND","0","ND","ND","ND","ND"],
    [30890,"43191,75","ND","ND","ND","ND","ND","ND"],
    [30891,"43191,79167","ND","ND","ND","ND","ND","ND"],
    [30892,"43191,83333","ND","ND","ND","ND","ND","ND"],
    [30893,"43191,875","ND","ND","ND","ND","ND","ND"],
    [30894,"43191,91667","ND","0","ND","ND","ND","ND"],
    [30895,"43191,95833","ND","0,2","ND","ND","ND","ND"],
    [30896,"43221","ND","0,6","ND","ND","ND","ND"],
    [30897,"43221,04167","ND","0,2","ND","ND","ND","ND"],
    [30898,"43221,08333","ND","0,1","ND","ND","ND","ND"],
    [30899,"43221,125","ND","0,1","ND","ND","ND","ND"],
    [30900,"43221,16667","ND","0,1","ND","ND","ND","ND"],
    [30901,"43221,20833","ND","0","ND","ND","ND","ND"],
    [30902,"43221,25","ND","0,2","ND","ND","ND","ND"],
    [30903,"43221,29167","ND","0,5","ND","ND","ND","ND"],
    [30904,"43221,33333","ND","0,6","ND","ND","ND","ND"],
    [30905,"43221,375","ND","0,2","ND","ND","ND","ND"],
    [30906,"43221,41667","ND","0,6","ND","ND","ND","ND"],
    [30907,"43221,45833","ND","0,7","ND","ND","ND","ND"],
    [30908,"43221,5","ND","0,9","ND","ND","ND","ND"],
    [30909,"43221,54167","ND","0,8","ND","ND","ND","ND"],
    [30910,"43221,58333","ND","0,3","ND","ND","ND","ND"],
    [30911,"43221,625","ND","0,4","ND","ND","ND","ND"],
    [30912,"43221,66667","ND","0,9","ND","ND","ND","ND"],
    [30913,"43221,70833","ND","0,2","ND","ND","ND","ND"],
    [30914,"43221,75","ND","0,1","ND","ND","ND","ND"],
    [30915,"43221,79167","ND","0,1","ND","ND","ND","ND"],
    [30916,"43221,83333","ND","0,3","ND","ND","ND","ND"],
    [30917,"43221,875","ND","0,2","ND","ND","ND","ND"],
    [30918,"43221,91667","ND","0,3","ND","ND","ND","ND"],
    [30919,"43221,95833","ND","0,3","ND","ND","ND","ND"],
    [30920,"43252","ND","0,2","ND","ND","ND","ND"],
    [30921,"43252,04167","ND","0,1","ND","ND","ND","ND"],
    [30922,"43252,08333","ND","ND","ND","ND","ND","ND"],
    [30923,"43252,125","ND","ND","ND","ND","ND","ND"],
    [30924,"43252,16667","ND","ND","ND","ND","ND","ND"],
    [30925,"43252,20833","ND","ND","ND","ND","ND","ND"],
    [30926,"43252,25","ND","0,2","ND","ND","ND","ND"],
    [30927,"43252,29167","ND","0,2","ND","ND","ND","ND"],
    [30928,"43252,33333","ND","0,4","ND","ND","ND","ND"],
    [30929,"43252,375","ND","0,9","ND","ND","ND","ND"],
    [30930,"43252,41667","ND","3","ND","ND","ND","ND"],
    [30931,"43252,45833","ND","8,5","ND","ND","ND","ND"],
    [30932,"43252,5","ND","4,3","ND","ND","ND","ND"],
    [30933,"43252,54167","ND","3","ND","ND","ND","ND"],
    [30934,"43252,58333","ND","2,2","ND","ND","ND","ND"],
    [30935,"43252,625","ND","1,2","ND","ND","ND","ND"],
    [30936,"43252,66667","ND","0,2","ND","ND","ND","ND"],
    [30937,"43252,70833","ND","0,5","ND","ND","ND","ND"],
    [30938,"43252,75","ND","0,6","ND","ND","ND","ND"],
    [30939,"43252,79167","ND","0,3","ND","ND","ND","ND"],
    [30940,"43252,83333","ND","0","ND","ND","ND","ND"],
    [30941,"43252,875","ND","0,3","ND","ND","ND","ND"],
    [30942,"43252,91667","ND","0,5","ND","ND","ND","ND"],
    [30943,"43252,95833","ND","0,2","ND","ND","ND","ND"],
    [30944,"43282","ND","0,1","ND","ND","ND","ND"],
    [30945,"43282,04167","ND","0,2","ND","ND","ND","ND"],
    [30946,"43282,08333","ND","0","ND","ND","ND","ND"],
    [30947,"43282,125","ND","ND","ND","ND","ND","ND"],
    [30948,"43282,16667","ND","ND","ND","ND","ND","ND"],
    [30949,"43282,20833","ND","0","ND","ND","ND","ND"],
    [30950,"43282,25","ND","0,1","ND","ND","ND","ND"],
    [30951,"43282,29167","ND","0,1","ND","ND","ND","ND"],
    [30952,"43282,33333","ND","0,1","ND","ND","ND","ND"],
    [30953,"43282,375","ND","0,2","ND","ND","ND","ND"],
    [30954,"43282,41667","ND","0,6","ND","ND","ND","ND"],
    [30955,"43282,45833","ND","1,1","ND","ND","ND","ND"],
    [30956,"43282,5","ND","2,7","ND","ND","ND","ND"],
    [30957,"43282,54167","ND","2,8","ND","ND","ND","ND"],
    [30958,"43282,58333","ND","2,9","ND","ND","ND","ND"],
    [30959,"43282,625","ND","1","ND","ND","ND","ND"],
    [30960,"43282,66667","ND","0,2","ND","ND","ND","ND"],
    [30961,"43282,70833","ND","ND","ND","ND","ND","ND"],
    [30962,"43282,75","ND","ND","ND","ND","ND","ND"],
    [30963,"43282,79167","ND","ND","ND","ND","ND","ND"],
    [30964,"43282,83333","ND","0,1","ND","ND","ND","ND"],
    [30965,"43282,875","ND","0,3","ND","ND","ND","ND"],
    [30966,"43282,91667","ND","0,1","ND","ND","ND","ND"],
    [30967,"43282,95833","ND","0,1","ND","ND","ND","ND"],
    [30968,"43313","ND","ND","ND","ND","ND","ND"],
    [30969,"43313,04167","ND","ND","ND","ND","ND","ND"],
    [30970,"43313,08333","ND","ND","ND","ND","ND","ND"],
    [30971,"43313,125","ND","ND","ND","ND","ND","ND"],
    [30972,"43313,16667","ND","ND","ND","ND","ND","ND"],
    [30973,"43313,20833","ND","ND","ND","ND","ND","ND"],
    [30974,"43313,25","ND","0,1","ND","ND","ND","ND"],
    [30975,"43313,29167","ND","0,1","ND","ND","ND","ND"],
    [30976,"43313,33333","ND","0","ND","ND","ND","ND"],
    [30977,"43313,375","ND","0,1","ND","ND","ND","ND"],
    [30978,"43313,41667","ND","0,1","ND","ND","ND","ND"],
    [30979,"43313,45833","ND","ND","ND","ND","ND","ND"],
    [30980,"43313,5","ND","0,5","ND","ND","ND","ND"],
    [30981,"43313,54167","ND","0,4","ND","ND","ND","ND"],
    [30982,"43313,58333","ND","1","ND","ND","ND","ND"],
    [30983,"43313,625","ND","0,8","ND","ND","ND","ND"],
    [30984,"43313,66667","ND","ND","ND","ND","ND","ND"],
    [30985,"43313,70833","ND","ND","ND","ND","ND","ND"],
    [30986,"43313,75","ND","ND","ND","ND","ND","ND"],
    [30987,"43313,79167","ND","0,1","ND","ND","ND","ND"],
    [30988,"43313,83333","ND","ND","ND","ND","ND","ND"],
    [30989,"43313,875","ND","0,1","ND","ND","ND","ND"],
    [30990,"43313,91667","ND","0,1","ND","ND","ND","ND"],
    [30991,"43313,95833","ND","ND","ND","ND","ND","ND"],
    [30992,"43344","ND","ND","ND","ND","ND","ND"],
    [30993,"43344,04167","ND","ND","ND","ND","ND","ND"],
    [30994,"43344,08333","ND","ND","ND","ND","ND","ND"],
    [30995,"43344,125","ND","ND","ND","ND","ND","ND"],
    [30996,"43344,16667","ND","ND","ND","ND","ND","ND"],
    [30997,"43344,20833","ND","ND","ND","ND","ND","ND"],
    [30998,"43344,25","ND","0,1","ND","ND","ND","ND"],
    [30999,"43344,29167","ND","0,3","ND","ND","ND","ND"],
    [31000,"43344,33333","ND","0,8","ND","ND","ND","ND"],
    [31001,"43344,375","ND","1,3","ND","ND","ND","ND"],
    [31002,"43344,41667","ND","2,8","ND","ND","ND","ND"],
    [31003,"43344,45833","ND","2,5","ND","ND","ND","ND"],
    [31004,"43344,5","ND","1,4","ND","ND","ND","ND"],
    [31005,"43344,54167","ND","0,2","ND","ND","ND","ND"],
    [31006,"43344,58333","ND","0,2","ND","ND","ND","ND"],
    [31007,"43344,625","ND","ND","ND","ND","ND","ND"],
    [31008,"43344,66667","ND","ND","ND","ND","ND","ND"],
    [31009,"43344,70833","ND","ND","ND","ND","ND","ND"],
    [31010,"43344,75","ND","0,2","ND","ND","ND","ND"],
    [31011,"43344,79167","ND","0,2","ND","ND","ND","ND"],
    [31012,"43344,83333","ND","0,2","ND","ND","ND","ND"],
    [31013,"43344,875","ND","0,1","ND","ND","ND","ND"],
    [31014,"43344,91667","ND","0,1","ND","ND","ND","ND"],
    [31015,"43344,95833","ND","0,2","ND","ND","ND","ND"],
    [31016,"43374","ND","0,1","ND","ND","ND","ND"],
    [31017,"43374,04167","ND","ND","ND","ND","ND","ND"],
    [31018,"43374,08333","ND","ND","ND","ND","ND","ND"],
    [31019,"43374,125","ND","ND","ND","ND","ND","ND"],
    [31020,"43374,16667","ND","ND","ND","ND","ND","ND"],
    [31021,"43374,20833","ND","ND","ND","ND","ND","ND"],
    [31022,"43374,25","ND","0,1","ND","ND","ND","ND"],
    [31023,"43374,29167","ND","0,3","ND","ND","ND","ND"],
    [31024,"43374,33333","ND","0,3","ND","ND","ND","ND"],
    [31025,"43374,375","ND","0,5","ND","ND","ND","ND"],
    [31026,"43374,41667","ND","0,6","ND","ND","ND","ND"],
    [31027,"43374,45833","ND","1,2","ND","ND","ND","ND"],
    [31028,"43374,5","ND","1,4","ND","ND","ND","ND"],
    [31029,"43374,54167","ND","0,4","ND","ND","ND","ND"],
    [31030,"43374,58333","14,8","0,2","ND","ND","ND","ND"],
    [31031,"43374,625","18,7","0,2","ND","ND","ND","ND"],
    [31032,"43374,66667","29,4","0,2","ND","ND","ND","ND"],
    [31033,"43374,70833","40,5","0,2","ND","ND","ND","ND"],
    [31034,"43374,75","25,9","ND","ND","ND","ND","ND"],
    [31035,"43374,79167","24,7","0","ND","ND","ND","ND"],
    [31036,"43374,83333","34,6","0,2","ND","ND","ND","ND"],
    [31037,"43374,875","35","0,7","ND","ND","ND","ND"],
    [31038,"43374,91667","50,1","0,6","ND","ND","ND","ND"],
    [31039,"43374,95833","47,8","0,6","ND","ND","ND","ND"],
    [31040,"43405","33,1","0,3","ND","ND","ND","ND"],
    [31041,"43405,04167","31,7","0,1","ND","ND","ND","ND"],
    [31042,"43405,08333","22,1","ND","ND","ND","ND","ND"],
    [31043,"43405,125","46,7","ND","ND","ND","ND","ND"],
    [31044,"43405,16667","47,4","0,2","ND","ND","ND","ND"],
    [31045,"43405,20833","44","ND","ND","ND","ND","ND"],
    [31046,"43405,25","41,9","0,1","ND","ND","ND","ND"],
    [31047,"43405,29167","55,9","0,4","ND","ND","ND","ND"],
    [31048,"43405,33333","46,5","0,3","ND","ND","ND","ND"],
    [31049,"43405,375","50","1","ND","ND","ND","ND"],
    [31050,"43405,41667","75,6","2,3","ND","ND","ND","ND"],
    [31051,"43405,45833","52,8","3","ND","ND","ND","ND"],
    [31052,"43405,5","37","2,4","ND","ND","ND","ND"],
    [31053,"43405,54167","52,9","1,5","ND","ND","ND","ND"],
    [31054,"43405,58333","58,5","1,9","ND","ND","ND","ND"],
    [31055,"43405,625","32,2","0,8","ND","ND","ND","ND"],
    [31056,"43405,66667","19,4","ND","ND","ND","ND","ND"],
    [31057,"43405,70833","19,5","ND","ND","ND","ND","ND"],
    [31058,"43405,75","33,8","0,1","ND","ND","ND","ND"],
    [31059,"43405,79167","44,3","0,8","ND","ND","ND","ND"],
    [31060,"43405,83333","51","0,8","ND","ND","ND","ND"],
    [31061,"43405,875","55,1","0,5","ND","ND","ND","ND"],
    [31062,"43405,91667","54,4","0,6","ND","ND","ND","ND"],
    [31063,"43405,95833","42,2","0,3","ND","ND","ND","ND"],
    [31064,"43435","38,5","0,3","ND","ND","ND","ND"],
    [31065,"43435,04167","29,2","0,1","ND","ND","ND","ND"],
    [31066,"43435,08333","80,1","0,1","ND","ND","ND","ND"],
    [31067,"43435,125","23,5","0","ND","ND","ND","ND"],
    [31068,"43435,16667","27,6","ND","ND","ND","ND","ND"],
    [31069,"43435,20833","40,3","ND","ND","ND","ND","ND"],
    [31070,"43435,25","40,3","0,3","ND","ND","ND","ND"],
    [31071,"43435,29167","56,6","0,4","ND","ND","ND","ND"],
    [31072,"43435,33333","62,9","0,8","ND","ND","ND","ND"],
    [31073,"43435,375","46,9","0,9","ND","ND","ND","ND"],
    [31074,"43435,41667","54,3","2,7","ND","ND","ND","ND"],
    [31075,"43435,45833","71,4","2,4","ND","ND","ND","ND"],
    [31076,"43435,5","86,1","7,2","ND","ND","ND","ND"],
    [31077,"43435,54167","60,8","4,7","ND","ND","ND","ND"],
    [31078,"43435,58333","42,5","2,5","ND","ND","ND","ND"],
    [31079,"43435,625","20,6","0,7","ND","ND","ND","ND"],
    [31080,"43435,66667","28,9","1,2","ND","ND","ND","ND"],
    [31081,"43435,70833","32,2","0,8","ND","ND","ND","ND"],
    [31082,"43435,75","23,5","0,3","ND","ND","ND","ND"],
    [31083,"43435,79167","28,3","0,3","ND","ND","ND","ND"],
    [31084,"43435,83333","51,2","0,5","ND","ND","ND","ND"],
    [31085,"43435,875","42,6","0,7","ND","ND","ND","ND"],
    [31086,"43435,91667","34,8","0,4","ND","ND","ND","ND"],
    [31087,"43435,95833","45,4","0,5","ND","ND","ND","ND"],
    [31088,"01/13/2018 00:00","28,7","0,3","ND","ND","ND","ND"],
    [31089,"01/13/2018 01:00","21,5","0,3","ND","ND","ND","ND"],
    [31090,"01/13/2018 02:00","32","0,1","ND","ND","ND","ND"],
    [31091,"01/13/2018 03:00","23,2","0,3","ND","ND","ND","ND"],
    [31092,"01/13/2018 04:00","29,2","0,2","ND","ND","ND","ND"],
    [31093,"01/13/2018 05:00","24,6","0,2","ND","ND","ND","ND"],
    [31094,"01/13/2018 06:00","23,8","ND","ND","ND","ND","ND"],
    [31095,"01/13/2018 07:00","35,1","ND","ND","ND","ND","ND"],
    [31096,"01/13/2018 08:00","40,7","0,3","ND","ND","ND","ND"],
    [31097,"01/13/2018 09:00","43,2","0,6","ND","ND","ND","ND"],
    [31098,"01/13/2018 10:00","43,5","1,8","ND","ND","ND","ND"],
    [31099,"01/13/2018 11:00","33,7","1,7","ND","ND","ND","ND"],
    [31100,"01/13/2018 12:00","53,1","2,1","ND","ND","ND","ND"],
    [31101,"01/13/2018 13:00","52,5","2","ND","ND","ND","ND"],
    [31102,"01/13/2018 14:00","13,3","0,9","ND","ND","ND","ND"],
    [31103,"01/13/2018 15:00","8,3","0,4","ND","ND","ND","ND"],
    [31104,"01/13/2018 16:00","10,8","0,2","ND","ND","ND","ND"],
    [31105,"01/13/2018 17:00","46,3","1","ND","ND","ND","ND"],
    [31106,"01/13/2018 18:00","21,2","0,2","ND","ND","ND","ND"],
    [31107,"01/13/2018 19:00","24,2","0,3","ND","ND","ND","ND"],
    [31108,"01/13/2018 20:00","22,3","0,1","ND","ND","ND","ND"],
    [31109,"01/13/2018 21:00","15","ND","ND","ND","ND","ND"],
    [31110,"01/13/2018 22:00","13,8","ND","ND","ND","ND","ND"],
    [31111,"01/13/2018 23:00","19,4","ND","ND","ND","ND","ND"],
    [31112,"01/14/2018 00:00","15,6","ND","ND","ND","ND","ND"],
    [31113,"01/14/2018 01:00","19","ND","ND","ND","ND","ND"],
    [31114,"01/14/2018 02:00","19,1","ND","ND","ND","ND","ND"],
    [31115,"01/14/2018 03:00","15,1","ND","ND","ND","ND","ND"],
    [31116,"01/14/2018 04:00","17,2","ND","ND","ND","ND","ND"],
    [31117,"01/14/2018 05:00","18,1","ND","ND","ND","ND","ND"],
    [31118,"01/14/2018 06:00","33,8","ND","ND","ND","ND","ND"],
    [31119,"01/14/2018 07:00","28,4","ND","ND","ND","ND","ND"],
    [31120,"01/14/2018 08:00","35,9","ND","ND","ND","ND","ND"],
    [31121,"01/14/2018 09:00","48,7","0,1","ND","ND","ND","ND"],
    [31122,"01/14/2018 10:00","58,3","0,3","ND","ND","ND","ND"],
    [31123,"01/14/2018 11:00","43,8","0,4","ND","ND","ND","ND"],
    [31124,"01/14/2018 12:00","29,8","0,6","ND","ND","ND","ND"],
    [31125,"01/14/2018 13:00","22","0,9","ND","ND","ND","ND"],
    [31126,"01/14/2018 14:00","21,6","1","ND","ND","ND","ND"],
    [31127,"01/14/2018 15:00","37,1","2,1","ND","ND","ND","ND"],
    [31128,"01/14/2018 16:00","23,3","ND","ND","ND","ND","ND"],
    [31129,"01/14/2018 17:00","26,4","ND","ND","ND","ND","ND"],
    [31130,"01/14/2018 18:00","29,1","0,1","ND","ND","ND","ND"],
    [31131,"01/14/2018 19:00","35,9","1","ND","ND","ND","ND"],
    [31132,"01/14/2018 20:00","42,8","2,6","ND","ND","ND","ND"],
    [31133,"01/14/2018 21:00","41,8","4,1","ND","ND","ND","ND"],
    [31134,"01/14/2018 22:00","46,8","4,5","ND","ND","ND","ND"],
    [31135,"01/14/2018 23:00","30,9","0,8","ND","ND","ND","ND"],
    [31136,"01/15/2018 00:00","22,1","0,4","ND","ND","ND","ND"],
    [31137,"01/15/2018 01:00","16,2","0,3","ND","ND","ND","ND"],
    [31138,"01/15/2018 02:00","20,6","0,1","ND","ND","ND","ND"],
    [31139,"01/15/2018 03:00","27,4","ND","ND","ND","ND","ND"],
    [31140,"01/15/2018 04:00","24","ND","ND","ND","ND","ND"],
    [31141,"01/15/2018 05:00","24,3","ND","ND","ND","ND","ND"],
    [31142,"01/15/2018 06:00","42,7","ND","ND","ND","ND","ND"],
    [31143,"01/15/2018 07:00","60,7","0,2","ND","ND","ND","ND"],
    [31144,"01/15/2018 08:00","54","0,5","ND","ND","ND","ND"],
    [31145,"01/15/2018 09:00","107,9","4,1","ND","ND","ND","ND"],
    [31146,"01/15/2018 10:00","78,2","4,9","ND","ND","ND","ND"],
    [31147,"01/15/2018 11:00","52,1","2","ND","ND","ND","ND"],
    [31148,"01/15/2018 12:00","43","1,5","ND","ND","ND","ND"],
    [31149,"01/15/2018 13:00","39,5","0,9","ND","ND","ND","ND"],
    [31150,"01/15/2018 14:00","35,4","0,8","ND","ND","ND","ND"],
    [31151,"01/15/2018 15:00","20,3","0,9","ND","ND","ND","ND"],
    [31152,"01/15/2018 16:00","24","0,1","ND","ND","ND","ND"],
    [31153,"01/15/2018 17:00","27","0,1","ND","ND","ND","ND"],
    [31154,"01/15/2018 18:00","29","0,2","ND","ND","ND","ND"],
    [31155,"01/15/2018 19:00","34,2","0,4","ND","ND","ND","ND"],
    [31156,"01/15/2018 20:00","36","0,4","ND","ND","ND","ND"],
    [31157,"01/15/2018 21:00","36","0,6","ND","ND","ND","ND"],
    [31158,"01/15/2018 22:00","41,8","1,5","ND","ND","ND","ND"],
    [31159,"01/15/2018 23:00","29,2","1,2","ND","ND","ND","ND"],
    [31160,"01/16/2018 00:00","21,6","0,7","ND","ND","ND","ND"],
    [31161,"01/16/2018 01:00","16,3","0,2","ND","ND","ND","ND"],
    [31162,"01/16/2018 02:00","8,4","0,1","ND","ND","ND","ND"],
    [31163,"01/16/2018 03:00","11,5","ND","ND","ND","ND","ND"],
    [31164,"01/16/2018 04:00","13,5","ND","ND","ND","ND","ND"],
    [31165,"01/16/2018 05:00","13,5","ND","ND","ND","ND","ND"],
    [31166,"01/16/2018 06:00","29","0,2","ND","ND","ND","ND"],
    [31167,"01/16/2018 07:00","51,8","0,4","ND","ND","ND","ND"],
    [31168,"01/16/2018 08:00","46,7","0,4","ND","ND","ND","ND"],
    [31169,"01/16/2018 09:00","37,3","0,4","ND","ND","ND","ND"],
    [31170,"01/16/2018 10:00","31,2","0,3","ND","ND","ND","ND"],
    [31171,"01/16/2018 11:00","19,2","ND","ND","ND","ND","ND"],
    [31172,"01/16/2018 12:00","34,7","0,5","ND","ND","ND","ND"],
    [31173,"01/16/2018 13:00","48,3","1,3","ND","ND","ND","ND"],
    [31174,"01/16/2018 14:00","36,1","3,7","ND","ND","ND","ND"],
    [31175,"01/16/2018 15:00","38,2","1,3","ND","ND","ND","ND"],
    [31176,"01/16/2018 16:00","20,2","0,3","ND","ND","ND","ND"],
    [31177,"01/16/2018 17:00","26,5","0,1","ND","ND","ND","ND"],
    [31178,"01/16/2018 18:00","26,2","ND","ND","ND","ND","ND"],
    [31179,"01/16/2018 19:00","28,3","ND","ND","ND","ND","ND"],
    [31180,"01/16/2018 20:00","34,4","0,3","ND","ND","ND","ND"],
    [31181,"01/16/2018 21:00","40,4","0,3","ND","ND","ND","ND"],
    [31182,"01/16/2018 22:00","34,2","0,3","ND","ND","ND","ND"],
    [31183,"01/16/2018 23:00","27,2","ND","ND","ND","ND","ND"],
    [31184,"01/17/2018 00:00","26,2","ND","ND","ND","ND","ND"],
    [31185,"01/17/2018 01:00","18","ND","ND","ND","ND","ND"],
    [31186,"01/17/2018 02:00","14,7","ND","ND","ND","ND","ND"],
    [31187,"01/17/2018 03:00","17,1","ND","ND","ND","ND","ND"],
    [31188,"01/17/2018 04:00","20,9","ND","ND","ND","ND","ND"],
    [31189,"01/17/2018 05:00","27,5","ND","ND","ND","ND","ND"],
    [31190,"01/17/2018 06:00","40,4","ND","ND","ND","ND","ND"],
    [31191,"01/17/2018 07:00","60,4","0,2","ND","ND","ND","ND"],
    [31192,"01/17/2018 08:00","61,2","1,2","ND","ND","ND","ND"],
    [31193,"01/17/2018 09:00","55,6","1,4","ND","ND","ND","ND"],
    [31194,"01/17/2018 10:00","56,3","1,7","ND","ND","ND","ND"],
    [31195,"01/17/2018 11:00","59,5","3,7","ND","ND","ND","ND"],
    [31196,"01/17/2018 12:00","45","3,5","ND","ND","ND","ND"],
    [31197,"01/17/2018 13:00","36,8","2,9","ND","ND","ND","ND"],
    [31198,"01/17/2018 14:00","41,7","1,2","ND","ND","ND","ND"],
    [31199,"01/17/2018 15:00","39","1","ND","ND","ND","ND"],
    [31200,"01/17/2018 16:00","38,1","0,8","ND","ND","ND","ND"],
    [31201,"01/17/2018 17:00","24,8","0,3","ND","ND","ND","ND"],
    [31202,"01/17/2018 18:00","21,1","0,4","ND","ND","ND","ND"],
    [31203,"01/17/2018 19:00","28,1","0,1","ND","ND","ND","ND"],
    [31204,"01/17/2018 20:00","32","ND","ND","ND","ND","ND"],
    [31205,"01/17/2018 21:00","46,5","0,2","ND","ND","ND","ND"],
    [31206,"01/17/2018 22:00","29,6","0,2","ND","ND","ND","ND"],
    [31207,"01/17/2018 23:00","30,9","ND","ND","ND","ND","ND"],
    [31208,"01/18/2018 00:00","24","ND","ND","ND","ND","ND"],
    [31209,"01/18/2018 01:00","20,8","ND","ND","ND","ND","ND"],
    [31210,"01/18/2018 02:00","22,9","ND","ND","ND","ND","ND"],
    [31211,"01/18/2018 03:00","23,3","ND","ND","ND","ND","ND"],
    [31212,"01/18/2018 04:00","24,7","ND","ND","ND","ND","ND"],
    [31213,"01/18/2018 05:00","26,5","ND","ND","ND","ND","ND"],
    [31214,"01/18/2018 06:00","27,6","ND","ND","ND","ND","ND"],
    [31215,"01/18/2018 07:00","35,8","0,1","ND","ND","ND","ND"],
    [31216,"01/18/2018 08:00","41,8","0,6","ND","ND","ND","ND"],
    [31217,"01/18/2018 09:00","ND","ND","ND","ND","ND","ND"],
    [31218,"01/18/2018 10:00","ND","ND","ND","ND","ND","ND"],
    [31219,"01/18/2018 11:00","ND","ND","ND","ND","ND","ND"],
    [31220,"01/18/2018 12:00","ND","ND","ND","ND","ND","ND"],
    [31221,"01/18/2018 13:00","ND","ND","ND","ND","ND","ND"],
    [31222,"01/18/2018 14:00","ND","ND","ND","ND","ND","ND"],
    [31223,"01/18/2018 15:00","ND","ND","ND","ND","ND","ND"],
    [31224,"01/18/2018 16:00","ND","ND","ND","ND","ND","ND"],
    [31225,"01/18/2018 17:00","ND","ND","ND","ND","ND","ND"],
    [31226,"01/18/2018 18:00","ND","ND","ND","ND","ND","ND"],
    [31227,"01/18/2018 19:00","ND","ND","ND","ND","ND","ND"],
    [31228,"01/18/2018 20:00","ND","ND","ND","ND","ND","ND"],
    [31229,"01/18/2018 21:00","ND","ND","ND","ND","ND","ND"],
    [31230,"01/18/2018 22:00","ND","ND","ND","ND","ND","ND"],
    [31231,"01/18/2018 23:00","ND","ND","ND","ND","ND","ND"],
    [31232,"01/19/2018 00:00","ND","ND","ND","ND","ND","ND"],
    [31233,"01/19/2018 01:00","ND","ND","ND","ND","ND","ND"],
    [31234,"01/19/2018 02:00","ND","ND","ND","ND","ND","ND"],
    [31235,"01/19/2018 03:00","ND","ND","ND","ND","ND","ND"],
    [31236,"01/19/2018 04:00","ND","ND","ND","ND","ND","ND"],
    [31237,"01/19/2018 05:00","ND","ND","ND","ND","ND","ND"],
    [31238,"01/19/2018 06:00","ND","ND","ND","ND","ND","ND"],
    [31239,"01/19/2018 07:00","ND","ND","ND","ND","ND","ND"],
    [31240,"01/19/2018 08:00","ND","ND","ND","ND","ND","ND"],
    [31241,"01/19/2018 09:00","ND","ND","ND","ND","ND","ND"],
    [31242,"01/19/2018 10:00","ND","ND","ND","ND","ND","ND"],
    [31243,"01/19/2018 11:00","ND","ND","ND","ND","ND","ND"],
    [31244,"01/19/2018 12:00","ND","ND","ND","ND","ND","ND"],
    [31245,"01/19/2018 13:00","ND","ND","ND","ND","ND","ND"],
    [31246,"01/19/2018 14:00","ND","ND","ND","ND","ND","ND"],
    [31247,"01/19/2018 15:00","ND","ND","ND","ND","ND","ND"],
    [31248,"01/19/2018 16:00","ND","ND","ND","ND","ND","ND"],
    [31249,"01/19/2018 17:00","ND","ND","ND","ND","ND","ND"],
    [31250,"01/19/2018 18:00","ND","ND","ND","ND","ND","ND"],
    [31251,"01/19/2018 19:00","ND","ND","ND","ND","ND","ND"],
    [31252,"01/19/2018 20:00","ND","ND","ND","ND","ND","ND"],
    [31253,"01/19/2018 21:00","ND","ND","ND","ND","ND","ND"],
    [31254,"01/19/2018 22:00","ND","ND","ND","ND","ND","ND"],
    [31255,"01/19/2018 23:00","ND","ND","ND","ND","ND","ND"],
    [31256,"01/20/2018 00:00","ND","ND","ND","ND","ND","ND"],
    [31257,"01/20/2018 01:00","ND","ND","ND","ND","ND","ND"],
    [31258,"01/20/2018 02:00","ND","ND","ND","ND","ND","ND"],
    [31259,"01/20/2018 03:00","ND","ND","ND","ND","ND","ND"],
    [31260,"01/20/2018 04:00","ND","ND","ND","ND","ND","ND"],
    [31261,"01/20/2018 05:00","ND","ND","ND","ND","ND","ND"],
    [31262,"01/20/2018 06:00","ND","ND","ND","ND","ND","ND"],
    [31263,"01/20/2018 07:00","ND","ND","ND","ND","ND","ND"],
    [31264,"01/20/2018 08:00","ND","ND","ND","ND","ND","ND"],
    [31265,"01/20/2018 09:00","ND","ND","ND","ND","ND","ND"],
    [31266,"01/20/2018 10:00","ND","ND","ND","ND","ND","ND"],
    [31267,"01/20/2018 11:00","ND","ND","ND","ND","ND","ND"],
    [31268,"01/20/2018 12:00","ND","ND","ND","ND","ND","ND"],
    [31269,"01/20/2018 13:00","ND","ND","ND","ND","ND","ND"],
    [31270,"01/20/2018 14:00","ND","ND","ND","ND","ND","ND"],
    [31271,"01/20/2018 15:00","ND","ND","ND","ND","ND","ND"],
    [31272,"01/20/2018 16:00","ND","ND","ND","ND","ND","ND"],
    [31273,"01/20/2018 17:00","ND","ND","ND","ND","ND","ND"],
    [31274,"01/20/2018 18:00","ND","ND","ND","ND","ND","ND"],
    [31275,"01/20/2018 19:00","ND","ND","ND","ND","ND","ND"],
    [31276,"01/20/2018 20:00","ND","ND","ND","ND","ND","ND"],
    [31277,"01/20/2018 21:00","ND","ND","ND","ND","ND","ND"],
    [31278,"01/20/2018 22:00","ND","ND","ND","ND","ND","ND"],
    [31279,"01/20/2018 23:00","ND","ND","ND","ND","ND","ND"],
    [31280,"01/21/2018 00:00","ND","ND","ND","ND","ND","ND"],
    [31281,"01/21/2018 01:00","ND","ND","ND","ND","ND","ND"],
    [31282,"01/21/2018 02:00","ND","ND","ND","ND","ND","ND"],
    [31283,"01/21/2018 03:00","ND","ND","ND","ND","ND","ND"],
    [31284,"01/21/2018 04:00","ND","ND","ND","ND","ND","ND"],
    [31285,"01/21/2018 05:00","ND","ND","ND","ND","ND","ND"],
    [31286,"01/21/2018 06:00","ND","ND","ND","ND","ND","ND"],
    [31287,"01/21/2018 07:00","ND","ND","ND","ND","ND","ND"],
    [31288,"01/21/2018 08:00","ND","ND","ND","ND","ND","ND"],
    [31289,"01/21/2018 09:00","ND","ND","ND","ND","ND","ND"],
    [31290,"01/21/2018 10:00","ND","ND","ND","ND","ND","ND"],
    [31291,"01/21/2018 11:00","ND","ND","ND","ND","ND","ND"],
    [31292,"01/21/2018 12:00","ND","ND","ND","ND","ND","ND"],
    [31293,"01/21/2018 13:00","ND","ND","ND","ND","ND","ND"],
    [31294,"01/21/2018 14:00","ND","ND","ND","ND","ND","ND"],
    [31295,"01/21/2018 15:00","ND","ND","ND","ND","ND","ND"],
    [31296,"01/21/2018 16:00","ND","ND","ND","ND","ND","ND"],
    [31297,"01/21/2018 17:00","ND","ND","ND","ND","ND","ND"],
    [31298,"01/21/2018 18:00","ND","ND","ND","ND","ND","ND"],
    [31299,"01/21/2018 19:00","ND","ND","ND","ND","ND","ND"],
    [31300,"01/21/2018 20:00","ND","ND","ND","ND","ND","ND"],
    [31301,"01/21/2018 21:00","ND","ND","ND","ND","ND","ND"],
    [31302,"01/21/2018 22:00","ND","ND","ND","ND","ND","ND"],
    [31303,"01/21/2018 23:00","ND","ND","ND","ND","ND","ND"],
    [31304,"01/22/2018 00:00","ND","ND","ND","ND","ND","ND"],
    [31305,"01/22/2018 01:00","ND","ND","ND","ND","ND","ND"],
    [31306,"01/22/2018 02:00","ND","ND","ND","ND","ND","ND"],
    [31307,"01/22/2018 03:00","ND","ND","ND","ND","ND","ND"],
    [31308,"01/22/2018 04:00","ND","ND","ND","ND","ND","ND"],
    [31309,"01/22/2018 05:00","ND","ND","ND","ND","ND","ND"],
    [31310,"01/22/2018 06:00","ND","ND","ND","ND","ND","ND"],
    [31311,"01/22/2018 07:00","ND","ND","ND","ND","ND","ND"],
    [31312,"01/22/2018 08:00","ND","ND","ND","ND","ND","ND"],
    [31313,"01/22/2018 09:00","ND","ND","ND","ND","ND","ND"],
    [31314,"01/22/2018 10:00","ND","ND","ND","ND","ND","ND"],
    [31315,"01/22/2018 11:00","ND","ND","ND","ND","ND","ND"],
    [31316,"01/22/2018 12:00","ND","ND","ND","ND","ND","ND"],
    [31317,"01/22/2018 13:00","ND","ND","ND","ND","ND","ND"],
    [31318,"01/22/2018 14:00","ND","ND","ND","ND","ND","ND"],
    [31319,"01/22/2018 15:00","ND","ND","ND","ND","ND","ND"],
    [31320,"01/22/2018 16:00","ND","ND","ND","ND","ND","ND"],
    [31321,"01/22/2018 17:00","ND","ND","ND","ND","ND","ND"],
    [31322,"01/22/2018 18:00","ND","ND","ND","ND","ND","ND"],
    [31323,"01/22/2018 19:00","ND","ND","ND","ND","ND","ND"],
    [31324,"01/22/2018 20:00","ND","ND","ND","ND","ND","ND"],
    [31325,"01/22/2018 21:00","ND","ND","ND","ND","ND","ND"],
    [31326,"01/22/2018 22:00","ND","ND","ND","ND","ND","ND"],
    [31327,"01/22/2018 23:00","ND","ND","ND","ND","ND","ND"],
    [31328,"01/23/2018 00:00","ND","ND","ND","ND","ND","ND"],
    [31329,"01/23/2018 01:00","ND","ND","ND","ND","ND","ND"],
    [31330,"01/23/2018 02:00","ND","ND","ND","ND","ND","ND"],
    [31331,"01/23/2018 03:00","ND","ND","ND","ND","ND","ND"],
    [31332,"01/23/2018 04:00","ND","ND","ND","ND","ND","ND"],
    [31333,"01/23/2018 05:00","ND","ND","ND","ND","ND","ND"],
    [31334,"01/23/2018 06:00","ND","ND","ND","ND","ND","ND"],
    [31335,"01/23/2018 07:00","ND","ND","ND","ND","ND","ND"],
    [31336,"01/23/2018 08:00","ND","ND","ND","ND","ND","ND"],
    [31337,"01/23/2018 09:00","ND","ND","ND","ND","ND","ND"],
    [31338,"01/23/2018 10:00","ND","ND","ND","ND","ND","ND"],
    [31339,"01/23/2018 11:00","ND","ND","ND","ND","ND","ND"],
    [31340,"01/23/2018 12:00","ND","ND","ND","ND","ND","ND"],
    [31341,"01/23/2018 13:00","ND","ND","ND","ND","ND","ND"],
    [31342,"01/23/2018 14:00","ND","ND","ND","ND","ND","ND"],
    [31343,"01/23/2018 15:00","ND","ND","ND","ND","ND","ND"],
    [31344,"01/23/2018 16:00","ND","ND","ND","ND","ND","ND"],
    [31345,"01/23/2018 17:00","ND","ND","ND","ND","ND","ND"],
    [31346,"01/23/2018 18:00","ND","ND","ND","ND","ND","ND"],
    [31347,"01/23/2018 19:00","ND","ND","ND","ND","ND","ND"],
    [31348,"01/23/2018 20:00","ND","ND","ND","ND","ND","ND"],
    [31349,"01/23/2018 21:00","ND","ND","ND","ND","ND","ND"],
    [31350,"01/23/2018 22:00","ND","ND","ND","ND","ND","ND"],
    [31351,"01/23/2018 23:00","ND","ND","ND","ND","ND","ND"],
    [31352,"01/24/2018 00:00","ND","ND","ND","ND","ND","ND"],
    [31353,"01/24/2018 01:00","ND","ND","ND","ND","ND","ND"],
    [31354,"01/24/2018 02:00","ND","ND","ND","ND","ND","ND"],
    [31355,"01/24/2018 03:00","ND","ND","ND","ND","ND","ND"],
    [31356,"01/24/2018 04:00","ND","ND","ND","ND","ND","ND"],
    [31357,"01/24/2018 05:00","ND","ND","ND","ND","ND","ND"],
    [31358,"01/24/2018 06:00","ND","ND","ND","ND","ND","ND"],
    [31359,"01/24/2018 07:00","ND","ND","ND","ND","ND","ND"],
    [31360,"01/24/2018 08:00","ND","ND","ND","ND","ND","ND"],
    [31361,"01/24/2018 09:00","ND","ND","ND","ND","ND","ND"],
    [31362,"01/24/2018 10:00","ND","ND","ND","ND","ND","ND"],
    [31363,"01/24/2018 11:00","ND","ND","ND","ND","ND","ND"],
    [31364,"01/24/2018 12:00","ND","ND","ND","ND","ND","ND"],
    [31365,"01/24/2018 13:00","ND","ND","ND","ND","ND","ND"],
    [31366,"01/24/2018 14:00","ND","ND","ND","ND","ND","ND"],
    [31367,"01/24/2018 15:00","ND","ND","ND","ND","ND","ND"],
    [31368,"01/24/2018 16:00","ND","ND","ND","ND","ND","ND"],
    [31369,"01/24/2018 17:00","ND","ND","ND","ND","ND","ND"],
    [31370,"01/24/2018 18:00","ND","ND","ND","ND","ND","ND"],
    [31371,"01/24/2018 19:00","ND","ND","ND","ND","ND","ND"],
    [31372,"01/24/2018 20:00","ND","ND","ND","ND","ND","ND"],
    [31373,"01/24/2018 21:00","ND","ND","ND","ND","ND","ND"],
    [31374,"01/24/2018 22:00","ND","ND","ND","ND","ND","ND"],
    [31375,"01/24/2018 23:00","ND","ND","ND","ND","ND","ND"],
    [31376,"01/25/2018 00:00","ND","ND","ND","ND","ND","ND"],
    [31377,"01/25/2018 01:00","ND","ND","ND","ND","ND","ND"],
    [31378,"01/25/2018 02:00","ND","ND","ND","ND","ND","ND"],
    [31379,"01/25/2018 03:00","ND","ND","ND","ND","ND","ND"],
    [31380,"01/25/2018 04:00","ND","ND","ND","ND","ND","ND"],
    [31381,"01/25/2018 05:00","ND","ND","ND","ND","ND","ND"],
    [31382,"01/25/2018 06:00","ND","ND","ND","ND","ND","ND"],
    [31383,"01/25/2018 07:00","ND","ND","ND","ND","ND","ND"],
    [31384,"01/25/2018 08:00","ND","ND","ND","ND","ND","ND"],
    [31385,"01/25/2018 09:00","ND","ND","ND","ND","ND","ND"],
    [31386,"01/25/2018 10:00","ND","ND","ND","ND","ND","ND"],
    [31387,"01/25/2018 11:00","ND","ND","ND","ND","ND","ND"],
    [31388,"01/25/2018 12:00","ND","ND","ND","ND","ND","ND"],
    [31389,"01/25/2018 13:00","ND","ND","ND","ND","ND","ND"],
    [31390,"01/25/2018 14:00","ND","ND","ND","ND","ND","ND"],
    [31391,"01/25/2018 15:00","ND","ND","ND","ND","ND","ND"],
    [31392,"01/25/2018 16:00","ND","ND","ND","ND","ND","ND"],
    [31393,"01/25/2018 17:00","ND","ND","ND","ND","ND","ND"],
    [31394,"01/25/2018 18:00","ND","ND","ND","ND","ND","ND"],
    [31395,"01/25/2018 19:00","ND","ND","ND","ND","ND","ND"],
    [31396,"01/25/2018 20:00","ND","ND","ND","ND","ND","ND"],
    [31397,"01/25/2018 21:00","ND","ND","ND","ND","ND","ND"],
    [31398,"01/25/2018 22:00","ND","ND","ND","ND","ND","ND"],
    [31399,"01/25/2018 23:00","ND","ND","ND","ND","ND","ND"],
    [31400,"01/26/2018 00:00","ND","ND","ND","ND","ND","ND"],
    [31401,"01/26/2018 01:00","ND","ND","ND","ND","ND","ND"],
    [31402,"01/26/2018 02:00","ND","ND","ND","ND","ND","ND"],
    [31403,"01/26/2018 03:00","ND","ND","ND","ND","ND","ND"],
    [31404,"01/26/2018 04:00","ND","ND","ND","ND","ND","ND"],
    [31405,"01/26/2018 05:00","ND","ND","ND","ND","ND","ND"],
    [31406,"01/26/2018 06:00","ND","ND","ND","ND","ND","ND"],
    [31407,"01/26/2018 07:00","ND","ND","ND","ND","ND","ND"],
    [31408,"01/26/2018 08:00","ND","ND","ND","ND","ND","ND"],
    [31409,"01/26/2018 09:00","ND","ND","ND","ND","ND","ND"],
    [31410,"01/26/2018 10:00","ND","ND","ND","ND","ND","ND"],
    [31411,"01/26/2018 11:00","ND","ND","ND","ND","ND","ND"],
    [31412,"01/26/2018 12:00","ND","ND","ND","ND","ND","ND"],
    [31413,"01/26/2018 13:00","ND","ND","ND","ND","ND","ND"],
    [31414,"01/26/2018 14:00","ND","ND","ND","ND","ND","ND"],
    [31415,"01/26/2018 15:00","ND","ND","ND","ND","ND","ND"],
    [31416,"01/26/2018 16:00","ND","ND","ND","ND","ND","ND"],
    [31417,"01/26/2018 17:00","ND","ND","ND","ND","ND","ND"],
    [31418,"01/26/2018 18:00","ND","ND","ND","ND","ND","ND"],
    [31419,"01/26/2018 19:00","ND","ND","ND","ND","ND","ND"],
    [31420,"01/26/2018 20:00","ND","ND","ND","ND","ND","ND"],
    [31421,"01/26/2018 21:00","ND","ND","ND","ND","ND","ND"],
    [31422,"01/26/2018 22:00","ND","ND","ND","ND","ND","ND"],
    [31423,"01/26/2018 23:00","ND","ND","ND","ND","ND","ND"],
    [31424,"01/27/2018 00:00","ND","ND","ND","ND","ND","ND"],
    [31425,"01/27/2018 01:00","ND","ND","ND","ND","ND","ND"],
    [31426,"01/27/2018 02:00","ND","ND","ND","ND","ND","ND"],
    [31427,"01/27/2018 03:00","ND","ND","ND","ND","ND","ND"],
    [31428,"01/27/2018 04:00","ND","ND","ND","ND","ND","ND"],
    [31429,"01/27/2018 05:00","ND","ND","ND","ND","ND","ND"],
    [31430,"01/27/2018 06:00","ND","ND","ND","ND","ND","ND"],
    [31431,"01/27/2018 07:00","ND","ND","ND","ND","ND","ND"],
    [31432,"01/27/2018 08:00","ND","ND","ND","ND","ND","ND"],
    [31433,"01/27/2018 09:00","ND","ND","ND","ND","ND","ND"],
    [31434,"01/27/2018 10:00","ND","ND","ND","ND","ND","ND"],
    [31435,"01/27/2018 11:00","ND","ND","ND","ND","ND","ND"],
    [31436,"01/27/2018 12:00","ND","ND","ND","ND","ND","ND"],
    [31437,"01/27/2018 13:00","ND","ND","ND","ND","ND","ND"],
    [31438,"01/27/2018 14:00","ND","ND","ND","ND","ND","ND"],
    [31439,"01/27/2018 15:00","ND","ND","ND","ND","ND","ND"],
    [31440,"01/27/2018 16:00","ND","ND","ND","ND","ND","ND"],
    [31441,"01/27/2018 17:00","ND","ND","ND","ND","ND","ND"],
    [31442,"01/27/2018 18:00","ND","ND","ND","ND","ND","ND"],
    [31443,"01/27/2018 19:00","ND","ND","ND","ND","ND","ND"],
    [31444,"01/27/2018 20:00","ND","ND","ND","ND","ND","ND"],
    [31445,"01/27/2018 21:00","ND","ND","ND","ND","ND","ND"],
    [31446,"01/27/2018 22:00","ND","ND","ND","ND","ND","ND"],
    [31447,"01/27/2018 23:00","ND","ND","ND","ND","ND","ND"],
    [31448,"01/28/2018 00:00","ND","ND","ND","ND","ND","ND"],
    [31449,"01/28/2018 01:00","ND","ND","ND","ND","ND","ND"],
    [31450,"01/28/2018 02:00","ND","ND","ND","ND","ND","ND"],
    [31451,"01/28/2018 03:00","ND","ND","ND","ND","ND","ND"],
    [31452,"01/28/2018 04:00","ND","ND","ND","ND","ND","ND"],
    [31453,"01/28/2018 05:00","ND","ND","ND","ND","ND","ND"],
    [31454,"01/28/2018 06:00","ND","ND","ND","ND","ND","ND"],
    [31455,"01/28/2018 07:00","ND","ND","ND","ND","ND","ND"],
    [31456,"01/28/2018 08:00","ND","ND","ND","ND","ND","ND"],
    [31457,"01/28/2018 09:00","ND","ND","ND","ND","ND","ND"],
    [31458,"01/28/2018 10:00","ND","ND","ND","ND","ND","ND"],
    [31459,"01/28/2018 11:00","ND","ND","ND","ND","ND","ND"],
    [31460,"01/28/2018 12:00","ND","ND","ND","ND","ND","ND"],
    [31461,"01/28/2018 13:00","ND","ND","ND","ND","ND","ND"],
    [31462,"01/28/2018 14:00","ND","ND","ND","ND","ND","ND"],
    [31463,"01/28/2018 15:00","ND","ND","ND","ND","ND","ND"],
    [31464,"01/28/2018 16:00","ND","ND","ND","ND","ND","ND"],
    [31465,"01/28/2018 17:00","ND","ND","ND","ND","ND","ND"],
    [31466,"01/28/2018 18:00","ND","ND","ND","ND","ND","ND"],
    [31467,"01/28/2018 19:00","ND","ND","ND","ND","ND","ND"],
    [31468,"01/28/2018 20:00","ND","ND","ND","ND","ND","ND"],
    [31469,"01/28/2018 21:00","ND","ND","ND","ND","ND","ND"],
    [31470,"01/28/2018 22:00","ND","ND","ND","ND","ND","ND"],
    [31471,"01/28/2018 23:00","ND","ND","ND","ND","ND","ND"],
    [31472,"01/29/2018 00:00","ND","ND","ND","ND","ND","ND"],
    [31473,"01/29/2018 01:00","ND","ND","ND","ND","ND","ND"],
    [31474,"01/29/2018 02:00","ND","ND","ND","ND","ND","ND"],
    [31475,"01/29/2018 03:00","ND","ND","ND","ND","ND","ND"],
    [31476,"01/29/2018 04:00","ND","ND","ND","ND","ND","ND"],
    [31477,"01/29/2018 05:00","ND","ND","ND","ND","ND","ND"],
    [31478,"01/29/2018 06:00","ND","ND","ND","ND","ND","ND"],
    [31479,"01/29/2018 07:00","ND","ND","ND","ND","ND","ND"],
    [31480,"01/29/2018 08:00","ND","ND","ND","ND","ND","ND"],
    [31481,"01/29/2018 09:00","ND","ND","ND","ND","ND","ND"],
    [31482,"01/29/2018 10:00","ND","ND","ND","ND","ND","ND"],
    [31483,"01/29/2018 11:00","ND","ND","ND","ND","ND","ND"],
    [31484,"01/29/2018 12:00","ND","ND","ND","ND","ND","ND"],
    [31485,"01/29/2018 13:00","ND","ND","ND","ND","ND","ND"],
    [31486,"01/29/2018 14:00","ND","ND","ND","ND","ND","ND"],
    [31487,"01/29/2018 15:00","ND","ND","ND","ND","ND","ND"],
    [31488,"01/29/2018 16:00","ND","ND","ND","ND","ND","ND"],
    [31489,"01/29/2018 17:00","ND","ND","ND","ND","ND","ND"],
    [31490,"01/29/2018 18:00","ND","ND","ND","ND","ND","ND"],
    [31491,"01/29/2018 19:00","ND","ND","ND","ND","ND","ND"],
    [31492,"01/29/2018 20:00","ND","ND","ND","ND","ND","ND"],
    [31493,"01/29/2018 21:00","ND","ND","ND","ND","ND","ND"],
    [31494,"01/29/2018 22:00","ND","ND","ND","ND","ND","ND"],
    [31495,"01/29/2018 23:00","ND","ND","ND","ND","ND","ND"],
    [31496,"01/30/2018 00:00","ND","ND","ND","ND","ND","ND"],
    [31497,"01/30/2018 01:00","ND","ND","ND","ND","ND","ND"],
    [31498,"01/30/2018 02:00","ND","ND","ND","ND","ND","ND"],
    [31499,"01/30/2018 03:00","ND","ND","ND","ND","ND","ND"],
    [31500,"01/30/2018 04:00","ND","ND","ND","ND","ND","ND"],
    [31501,"01/30/2018 05:00","ND","ND","ND","ND","ND","ND"],
    [31502,"01/30/2018 06:00","ND","ND","ND","ND","ND","ND"],
    [31503,"01/30/2018 07:00","ND","ND","ND","ND","ND","ND"],
    [31504,"01/30/2018 08:00","ND","ND","ND","ND","ND","ND"],
    [31505,"01/30/2018 09:00","ND","ND","ND","ND","ND","ND"],
    [31506,"01/30/2018 10:00","ND","ND","ND","ND","ND","ND"],
    [31507,"01/30/2018 11:00","ND","ND","ND","ND","ND","ND"],
    [31508,"01/30/2018 12:00","ND","ND","ND","ND","ND","ND"],
    [31509,"01/30/2018 13:00","ND","ND","ND","ND","ND","ND"],
    [31510,"01/30/2018 14:00","ND","ND","ND","ND","ND","ND"],
    [31511,"01/30/2018 15:00","ND","ND","ND","ND","ND","ND"],
    [31512,"01/30/2018 16:00","ND","ND","ND","ND","ND","ND"],
    [31513,"01/30/2018 17:00","ND","ND","ND","ND","ND","ND"],
    [31514,"01/30/2018 18:00","ND","ND","ND","ND","ND","ND"],
    [31515,"01/30/2018 19:00","ND","ND","ND","ND","ND","ND"],
    [31516,"01/30/2018 20:00","ND","ND","ND","ND","ND","ND"],
    [31517,"01/30/2018 21:00","ND","ND","ND","ND","ND","ND"],
    [31518,"01/30/2018 22:00","ND","ND","ND","ND","ND","ND"],
    [31519,"01/30/2018 23:00","ND","ND","ND","ND","ND","ND"],
    [31520,"01/31/2018 00:00","ND","ND","ND","ND","ND","ND"],
    [31521,"01/31/2018 01:00","ND","ND","ND","ND","ND","ND"],
    [31522,"01/31/2018 02:00","ND","ND","ND","ND","ND","ND"],
    [31523,"01/31/2018 03:00","ND","ND","ND","ND","ND","ND"],
    [31524,"01/31/2018 04:00","ND","ND","ND","ND","ND","ND"],
    [31525,"01/31/2018 05:00","ND","ND","ND","ND","ND","ND"],
    [31526,"01/31/2018 06:00","ND","ND","ND","ND","ND","ND"],
    [31527,"01/31/2018 07:00","ND","ND","ND","ND","ND","ND"],
    [31528,"01/31/2018 08:00","ND","ND","ND","ND","ND","ND"],
    [31529,"01/31/2018 09:00","ND","ND","ND","ND","ND","ND"],
    [31530,"01/31/2018 10:00","ND","ND","ND","ND","ND","ND"],
    [31531,"01/31/2018 11:00","ND","ND","ND","ND","ND","ND"],
    [31532,"01/31/2018 12:00","ND","ND","ND","ND","ND","ND"],
    [31533,"01/31/2018 13:00","ND","ND","ND","ND","ND","ND"],
    [31534,"01/31/2018 14:00","ND","ND","ND","ND","ND","ND"],
    [31535,"01/31/2018 15:00","ND","ND","ND","ND","ND","ND"],
    [31536,"01/31/2018 16:00","ND","ND","ND","ND","ND","ND"],
    [31537,"01/31/2018 17:00","ND","ND","ND","ND","ND","ND"],
    [31538,"01/31/2018 18:00","ND","ND","ND","ND","ND","ND"],
    [31539,"01/31/2018 19:00","ND","ND","ND","ND","ND","ND"],
    [31540,"01/31/2018 20:00","ND","ND","ND","ND","ND","ND"],
    [31541,"01/31/2018 21:00","ND","ND","ND","ND","ND","ND"],
    [31542,"01/31/2018 22:00","ND","ND","ND","ND","ND","ND"],
    [31543,"01/31/2018 23:00","ND","ND","ND","ND","ND","ND"],
    [31544,"43102","ND","ND","ND","ND","ND","ND"],
    [31545,"43102,04167","ND","ND","ND","ND","ND","ND"],
    [31546,"43102,08333","ND","ND","ND","ND","ND","ND"],
    [31547,"43102,125","ND","ND","ND","ND","ND","ND"],
    [31548,"43102,16667","ND","ND","ND","ND","ND","ND"],
    [31549,"43102,20833","ND","ND","ND","ND","ND","ND"],
    [31550,"43102,25","ND","ND","ND","ND","ND","ND"],
    [31551,"43102,29167","ND","ND","ND","ND","ND","ND"],
    [31552,"43102,33333","ND","ND","ND","ND","ND","ND"],
    [31553,"43102,375","ND","ND","ND","ND","ND","ND"],
    [31554,"43102,41667","ND","ND","ND","ND","ND","ND"],
    [31555,"43102,45833","ND","ND","ND","ND","ND","ND"],
    [31556,"43102,5","ND","ND","ND","ND","ND","ND"],
    [31557,"43102,54167","ND","ND","ND","ND","ND","ND"],
    [31558,"43102,58333","ND","ND","ND","ND","ND","ND"],
    [31559,"43102,625","ND","ND","ND","ND","ND","ND"],
    [31560,"43102,66667","ND","ND","ND","ND","ND","ND"],
    [31561,"43102,70833","ND","ND","ND","ND","ND","ND"],
    [31562,"43102,75","ND","ND","ND","ND","ND","ND"],
    [31563,"43102,79167","ND","ND","ND","ND","ND","ND"],
    [31564,"43102,83333","ND","ND","ND","ND","ND","ND"],
    [31565,"43102,875","ND","ND","ND","ND","ND","ND"],
    [31566,"43102,91667","ND","ND","ND","ND","ND","ND"],
    [31567,"43102,95833","ND","ND","ND","ND","ND","ND"],
    [31568,"43133","ND","ND","ND","ND","ND","ND"],
    [31569,"43133,04167","ND","ND","ND","ND","ND","ND"],
    [31570,"43133,08333","ND","ND","ND","ND","ND","ND"],
    [31571,"43133,125","ND","ND","ND","ND","ND","ND"],
    [31572,"43133,16667","ND","ND","ND","ND","ND","ND"],
    [31573,"43133,20833","ND","ND","ND","ND","ND","ND"],
    [31574,"43133,25","ND","ND","ND","ND","ND","ND"],
    [31575,"43133,29167","ND","ND","ND","ND","ND","ND"],
    [31576,"43133,33333","ND","ND","ND","ND","ND","ND"],
    [31577,"43133,375","ND","ND","ND","ND","ND","ND"],
    [31578,"43133,41667","ND","ND","ND","ND","ND","ND"],
    [31579,"43133,45833","ND","ND","ND","ND","ND","ND"],
    [31580,"43133,5","ND","ND","ND","ND","ND","ND"],
    [31581,"43133,54167","ND","ND","ND","ND","ND","ND"],
    [31582,"43133,58333","ND","ND","ND","ND","ND","ND"],
    [31583,"43133,625","ND","ND","ND","ND","ND","ND"],
    [31584,"43133,66667","ND","ND","ND","ND","ND","ND"],
    [31585,"43133,70833","ND","ND","ND","ND","ND","ND"],
    [31586,"43133,75","ND","ND","ND","ND","ND","ND"],
    [31587,"43133,79167","ND","ND","ND","ND","ND","ND"],
    [31588,"43133,83333","ND","ND","ND","ND","ND","ND"],
    [31589,"43133,875","ND","ND","ND","ND","ND","ND"],
    [31590,"43133,91667","ND","ND","ND","ND","ND","ND"],
    [31591,"43133,95833","ND","ND","ND","ND","ND","ND"],
    [31592,"43161","ND","ND","ND","ND","ND","ND"],
    [31593,"43161,04167","ND","ND","ND","ND","ND","ND"],
    [31594,"43161,08333","ND","ND","ND","ND","ND","ND"],
    [31595,"43161,125","ND","ND","ND","ND","ND","ND"],
    [31596,"43161,16667","ND","ND","ND","ND","ND","ND"],
    [31597,"43161,20833","ND","ND","ND","ND","ND","ND"],
    [31598,"43161,25","ND","ND","ND","ND","ND","ND"],
    [31599,"43161,29167","ND","ND","ND","ND","ND","ND"],
    [31600,"43161,33333","ND","ND","ND","ND","ND","ND"],
    [31601,"43161,375","ND","ND","ND","ND","ND","ND"],
    [31602,"43161,41667","ND","ND","ND","ND","ND","ND"],
    [31603,"43161,45833","ND","ND","ND","ND","ND","ND"],
    [31604,"43161,5","ND","ND","ND","ND","ND","ND"],
    [31605,"43161,54167","ND","ND","ND","ND","ND","ND"],
    [31606,"43161,58333","ND","ND","ND","ND","ND","ND"],
    [31607,"43161,625","ND","ND","ND","ND","ND","ND"],
    [31608,"43161,66667","ND","ND","ND","ND","ND","ND"],
    [31609,"43161,70833","ND","ND","ND","ND","ND","ND"],
    [31610,"43161,75","ND","ND","ND","ND","ND","ND"],
    [31611,"43161,79167","ND","ND","ND","ND","ND","ND"],
    [31612,"43161,83333","ND","ND","ND","ND","ND","ND"],
    [31613,"43161,875","ND","ND","ND","ND","ND","ND"],
    [31614,"43161,91667","ND","ND","ND","ND","ND","ND"],
    [31615,"43161,95833","ND","ND","ND","ND","ND","ND"],
    [31616,"43192","ND","ND","ND","ND","ND","ND"],
    [31617,"43192,04167","ND","ND","ND","ND","ND","ND"],
    [31618,"43192,08333","ND","ND","ND","ND","ND","ND"],
    [31619,"43192,125","ND","ND","ND","ND","ND","ND"],
    [31620,"43192,16667","ND","ND","ND","ND","ND","ND"],
    [31621,"43192,20833","ND","ND","ND","ND","ND","ND"],
    [31622,"43192,25","ND","ND","ND","ND","ND","ND"],
    [31623,"43192,29167","ND","ND","ND","ND","ND","ND"],
    [31624,"43192,33333","ND","ND","ND","ND","ND","ND"],
    [31625,"43192,375","ND","ND","ND","ND","ND","ND"],
    [31626,"43192,41667","ND","ND","ND","ND","ND","ND"],
    [31627,"43192,45833","ND","ND","ND","ND","ND","ND"],
    [31628,"43192,5","ND","ND","ND","ND","ND","ND"],
    [31629,"43192,54167","ND","ND","ND","ND","ND","ND"],
    [31630,"43192,58333","ND","ND","ND","ND","ND","ND"],
    [31631,"43192,625","ND","ND","ND","ND","ND","ND"],
    [31632,"43192,66667","ND","ND","ND","ND","ND","ND"],
    [31633,"43192,70833","ND","ND","ND","ND","ND","ND"],
    [31634,"43192,75","ND","ND","ND","ND","ND","ND"],
    [31635,"43192,79167","ND","ND","ND","ND","ND","ND"],
    [31636,"43192,83333","ND","ND","ND","ND","ND","ND"],
    [31637,"43192,875","ND","ND","ND","ND","ND","ND"],
    [31638,"43192,91667","ND","ND","ND","ND","ND","ND"],
    [31639,"43192,95833","ND","ND","ND","ND","ND","ND"],
    [31640,"43222","ND","ND","ND","ND","ND","ND"],
    [31641,"43222,04167","ND","ND","ND","ND","ND","ND"],
    [31642,"43222,08333","ND","ND","ND","ND","ND","ND"],
    [31643,"43222,125","ND","ND","ND","ND","ND","ND"],
    [31644,"43222,16667","ND","ND","ND","ND","ND","ND"],
    [31645,"43222,20833","ND","ND","ND","ND","ND","ND"],
    [31646,"43222,25","ND","ND","ND","ND","ND","ND"],
    [31647,"43222,29167","ND","ND","ND","ND","ND","ND"],
    [31648,"43222,33333","ND","ND","ND","ND","ND","ND"],
    [31649,"43222,375","ND","ND","ND","ND","ND","ND"],
    [31650,"43222,41667","ND","ND","ND","ND","ND","ND"],
    [31651,"43222,45833","ND","ND","ND","ND","ND","ND"],
    [31652,"43222,5","ND","ND","ND","ND","ND","ND"],
    [31653,"43222,54167","ND","ND","ND","ND","ND","ND"],
    [31654,"43222,58333","ND","ND","ND","ND","ND","ND"],
    [31655,"43222,625","ND","ND","ND","ND","ND","ND"],
    [31656,"43222,66667","ND","ND","ND","ND","ND","ND"],
    [31657,"43222,70833","ND","ND","ND","ND","ND","ND"],
    [31658,"43222,75","ND","ND","ND","ND","ND","ND"],
    [31659,"43222,79167","ND","ND","ND","ND","ND","ND"],
    [31660,"43222,83333","ND","ND","ND","ND","ND","ND"],
    [31661,"43222,875","ND","ND","ND","ND","ND","ND"],
    [31662,"43222,91667","ND","ND","ND","ND","ND","ND"],
    [31663,"43222,95833","ND","ND","ND","ND","ND","ND"],
    [31664,"43253","ND","ND","ND","ND","ND","ND"],
    [31665,"43253,04167","ND","ND","ND","ND","ND","ND"],
    [31666,"43253,08333","ND","ND","ND","ND","ND","ND"],
    [31667,"43253,125","ND","ND","ND","ND","ND","ND"],
    [31668,"43253,16667","ND","ND","ND","ND","ND","ND"],
    [31669,"43253,20833","ND","ND","ND","ND","ND","ND"],
    [31670,"43253,25","ND","ND","ND","ND","ND","ND"],
    [31671,"43253,29167","ND","ND","ND","ND","ND","ND"],
    [31672,"43253,33333","ND","ND","ND","ND","ND","ND"],
    [31673,"43253,375","ND","ND","ND","ND","ND","ND"],
    [31674,"43253,41667","ND","ND","ND","ND","ND","ND"],
    [31675,"43253,45833","ND","ND","ND","ND","ND","ND"],
    [31676,"43253,5","ND","ND","ND","ND","ND","ND"],
    [31677,"43253,54167","ND","ND","ND","ND","ND","ND"],
    [31678,"43253,58333","ND","ND","ND","ND","ND","ND"],
    [31679,"43253,625","ND","ND","ND","ND","ND","ND"],
    [31680,"43253,66667","ND","ND","ND","ND","ND","ND"],
    [31681,"43253,70833","ND","ND","ND","ND","ND","ND"],
    [31682,"43253,75","ND","ND","ND","ND","ND","ND"],
    [31683,"43253,79167","ND","ND","ND","ND","ND","ND"],
    [31684,"43253,83333","ND","ND","ND","ND","ND","ND"],
    [31685,"43253,875","ND","ND","ND","ND","ND","ND"],
    [31686,"43253,91667","ND","ND","ND","ND","ND","ND"],
    [31687,"43253,95833","ND","ND","ND","ND","ND","ND"],
    [31688,"43283","ND","ND","ND","ND","ND","ND"],
    [31689,"43283,04167","ND","ND","ND","ND","ND","ND"],
    [31690,"43283,08333","ND","ND","ND","ND","ND","ND"],
    [31691,"43283,125","ND","ND","ND","ND","ND","ND"],
    [31692,"43283,16667","ND","ND","ND","ND","ND","ND"],
    [31693,"43283,20833","ND","ND","ND","ND","ND","ND"],
    [31694,"43283,25","ND","ND","ND","ND","ND","ND"],
    [31695,"43283,29167","ND","ND","ND","ND","ND","ND"],
    [31696,"43283,33333","ND","ND","ND","ND","ND","ND"],
    [31697,"43283,375","ND","ND","ND","ND","ND","ND"],
    [31698,"43283,41667","ND","ND","ND","ND","ND","ND"],
    [31699,"43283,45833","ND","ND","ND","ND","ND","ND"],
    [31700,"43283,5","ND","ND","ND","ND","ND","ND"],
    [31701,"43283,54167","ND","ND","ND","ND","ND","ND"],
    [31702,"43283,58333","ND","ND","ND","ND","ND","ND"],
    [31703,"43283,625","ND","ND","ND","ND","ND","ND"],
    [31704,"43283,66667","ND","ND","ND","ND","ND","ND"],
    [31705,"43283,70833","ND","ND","ND","ND","ND","ND"],
    [31706,"43283,75","ND","ND","ND","ND","ND","ND"],
    [31707,"43283,79167","ND","ND","ND","ND","ND","ND"],
    [31708,"43283,83333","ND","ND","ND","ND","ND","ND"],
    [31709,"43283,875","ND","ND","ND","ND","ND","ND"],
    [31710,"43283,91667","ND","ND","ND","ND","ND","ND"],
    [31711,"43283,95833","ND","ND","ND","ND","ND","ND"],
    [31712,"43314","ND","ND","ND","ND","ND","ND"],
    [31713,"43314,04167","ND","ND","ND","ND","ND","ND"],
    [31714,"43314,08333","ND","ND","ND","ND","ND","ND"],
    [31715,"43314,125","ND","ND","ND","ND","ND","ND"],
    [31716,"43314,16667","ND","ND","ND","ND","ND","ND"],
    [31717,"43314,20833","ND","ND","ND","ND","ND","ND"],
    [31718,"43314,25","ND","ND","ND","ND","ND","ND"],
    [31719,"43314,29167","ND","ND","ND","ND","ND","ND"],
    [31720,"43314,33333","ND","ND","ND","ND","ND","ND"],
    [31721,"43314,375","ND","ND","ND","ND","ND","ND"],
    [31722,"43314,41667","ND","ND","ND","ND","ND","ND"],
    [31723,"43314,45833","ND","ND","ND","ND","ND","ND"],
    [31724,"43314,5","ND","ND","ND","ND","ND","ND"],
    [31725,"43314,54167","ND","ND","ND","ND","ND","ND"],
    [31726,"43314,58333","ND","ND","ND","ND","ND","ND"],
    [31727,"43314,625","ND","ND","ND","ND","ND","ND"],
    [31728,"43314,66667","ND","ND","ND","ND","ND","ND"],
    [31729,"43314,70833","ND","ND","ND","ND","ND","ND"],
    [31730,"43314,75","ND","ND","ND","ND","ND","ND"],
    [31731,"43314,79167","ND","ND","ND","ND","ND","ND"],
    [31732,"43314,83333","ND","ND","ND","ND","ND","ND"],
    [31733,"43314,875","ND","ND","ND","ND","ND","ND"],
    [31734,"43314,91667","ND","ND","ND","ND","ND","ND"],
    [31735,"43314,95833","ND","ND","ND","ND","ND","ND"],
    [31736,"43345","ND","ND","ND","ND","ND","ND"],
    [31737,"43345,04167","ND","ND","ND","ND","ND","ND"],
    [31738,"43345,08333","ND","ND","ND","ND","ND","ND"],
    [31739,"43345,125","ND","ND","ND","ND","ND","ND"],
    [31740,"43345,16667","ND","ND","ND","ND","ND","ND"],
    [31741,"43345,20833","ND","ND","ND","ND","ND","ND"],
    [31742,"43345,25","ND","ND","ND","ND","ND","ND"],
    [31743,"43345,29167","ND","ND","ND","ND","ND","ND"],
    [31744,"43345,33333","ND","ND","ND","ND","ND","ND"],
    [31745,"43345,375","ND","ND","ND","ND","ND","ND"],
    [31746,"43345,41667","ND","ND","ND","ND","ND","ND"],
    [31747,"43345,45833","ND","ND","ND","ND","ND","ND"],
    [31748,"43345,5","ND","ND","ND","ND","ND","ND"],
    [31749,"43345,54167","ND","ND","ND","ND","ND","ND"],
    [31750,"43345,58333","ND","ND","ND","ND","ND","ND"],
    [31751,"43345,625","ND","ND","ND","ND","ND","ND"],
    [31752,"43345,66667","ND","ND","ND","ND","ND","ND"],
    [31753,"43345,70833","ND","ND","ND","ND","ND","ND"],
    [31754,"43345,75","ND","ND","ND","ND","ND","ND"],
    [31755,"43345,79167","ND","ND","ND","ND","ND","ND"],
    [31756,"43345,83333","ND","ND","ND","ND","ND","ND"],
    [31757,"43345,875","ND","ND","ND","ND","ND","ND"],
    [31758,"43345,91667","ND","ND","ND","ND","ND","ND"],
    [31759,"43345,95833","ND","ND","ND","ND","ND","ND"],
    [31760,"43375","ND","ND","ND","ND","ND","ND"],
    [31761,"43375,04167","ND","ND","ND","ND","ND","ND"],
    [31762,"43375,08333","ND","ND","ND","ND","ND","ND"],
    [31763,"43375,125","ND","ND","ND","ND","ND","ND"],
    [31764,"43375,16667","ND","ND","ND","ND","ND","ND"],
    [31765,"43375,20833","ND","ND","ND","ND","ND","ND"],
    [31766,"43375,25","ND","ND","ND","ND","ND","ND"],
    [31767,"43375,29167","ND","ND","ND","ND","ND","ND"],
    [31768,"43375,33333","ND","ND","ND","ND","ND","ND"],
    [31769,"43375,375","ND","ND","ND","ND","ND","ND"],
    [31770,"43375,41667","ND","ND","ND","ND","ND","ND"],
    [31771,"43375,45833","ND","ND","ND","ND","ND","ND"],
    [31772,"43375,5","ND","ND","ND","ND","ND","ND"],
    [31773,"43375,54167","ND","ND","ND","ND","ND","ND"],
    [31774,"43375,58333","ND","ND","ND","ND","ND","ND"],
    [31775,"43375,625","ND","ND","ND","ND","ND","ND"],
    [31776,"43375,66667","ND","ND","ND","ND","ND","ND"],
    [31777,"43375,70833","ND","ND","ND","ND","ND","ND"],
    [31778,"43375,75","ND","ND","ND","ND","ND","ND"],
    [31779,"43375,79167","ND","ND","ND","ND","ND","ND"],
    [31780,"43375,83333","ND","ND","ND","ND","ND","ND"],
    [31781,"43375,875","ND","ND","ND","ND","ND","ND"],
    [31782,"43375,91667","ND","ND","ND","ND","ND","ND"],
    [31783,"43375,95833","ND","ND","ND","ND","ND","ND"],
    [31784,"43406","ND","ND","ND","ND","ND","ND"],
    [31785,"43406,04167","ND","ND","ND","ND","ND","ND"],
    [31786,"43406,08333","ND","ND","ND","ND","ND","ND"],
    [31787,"43406,125","ND","ND","ND","ND","ND","ND"],
    [31788,"43406,16667","ND","ND","ND","ND","ND","ND"],
    [31789,"43406,20833","ND","ND","ND","ND","ND","ND"],
    [31790,"43406,25","ND","ND","ND","ND","ND","ND"],
    [31791,"43406,29167","ND","ND","ND","ND","ND","ND"],
    [31792,"43406,33333","ND","ND","ND","ND","ND","ND"],
    [31793,"43406,375","ND","ND","ND","ND","ND","ND"],
    [31794,"43406,41667","ND","ND","ND","ND","ND","ND"],
    [31795,"43406,45833","ND","ND","ND","ND","ND","ND"],
    [31796,"43406,5","ND","ND","ND","ND","ND","ND"],
    [31797,"43406,54167","ND","ND","ND","ND","ND","ND"],
    [31798,"43406,58333","ND","ND","ND","ND","ND","ND"],
    [31799,"43406,625","ND","ND","ND","ND","ND","ND"],
    [31800,"43406,66667","ND","ND","ND","ND","ND","ND"],
    [31801,"43406,70833","ND","ND","ND","ND","ND","ND"],
    [31802,"43406,75","ND","ND","ND","ND","ND","ND"],
    [31803,"43406,79167","ND","ND","ND","ND","ND","ND"],
    [31804,"43406,83333","ND","ND","ND","ND","ND","ND"],
    [31805,"43406,875","ND","ND","ND","ND","ND","ND"],
    [31806,"43406,91667","ND","ND","ND","ND","ND","ND"],
    [31807,"43406,95833","ND","ND","ND","ND","ND","ND"],
    [31808,"43436","ND","ND","ND","ND","ND","ND"],
    [31809,"43436,04167","ND","ND","ND","ND","ND","ND"],
    [31810,"43436,08333","ND","ND","ND","ND","ND","ND"],
    [31811,"43436,125","ND","ND","ND","ND","ND","ND"],
    [31812,"43436,16667","ND","ND","ND","ND","ND","ND"],
    [31813,"43436,20833","ND","ND","ND","ND","ND","ND"],
    [31814,"43436,25","ND","ND","ND","ND","ND","ND"],
    [31815,"43436,29167","ND","ND","ND","ND","ND","ND"],
    [31816,"43436,33333","ND","ND","ND","ND","ND","ND"],
    [31817,"43436,375","ND","ND","ND","ND","ND","ND"],
    [31818,"43436,41667","ND","ND","ND","ND","ND","ND"],
    [31819,"43436,45833","ND","ND","ND","ND","ND","ND"],
    [31820,"43436,5","ND","ND","ND","ND","ND","ND"],
    [31821,"43436,54167","ND","ND","ND","ND","ND","ND"],
    [31822,"43436,58333","ND","ND","ND","ND","ND","ND"],
    [31823,"43436,625","ND","ND","ND","ND","ND","ND"],
    [31824,"43436,66667","ND","ND","ND","ND","ND","ND"],
    [31825,"43436,70833","ND","ND","ND","ND","ND","ND"],
    [31826,"43436,75","ND","ND","ND","ND","ND","ND"],
    [31827,"43436,79167","ND","ND","ND","ND","ND","ND"],
    [31828,"43436,83333","ND","ND","ND","ND","ND","ND"],
    [31829,"43436,875","ND","ND","ND","ND","ND","ND"],
    [31830,"43436,91667","ND","ND","ND","ND","ND","ND"],
    [31831,"43436,95833","ND","ND","ND","ND","ND","ND"],
    [31832,"02/13/2018 00:00","ND","ND","ND","ND","ND","ND"],
    [31833,"02/13/2018 01:00","ND","ND","ND","ND","ND","ND"],
    [31834,"02/13/2018 02:00","ND","ND","ND","ND","ND","ND"],
    [31835,"02/13/2018 03:00","ND","ND","ND","ND","ND","ND"],
    [31836,"02/13/2018 04:00","ND","ND","ND","ND","ND","ND"],
    [31837,"02/13/2018 05:00","ND","ND","ND","ND","ND","ND"],
    [31838,"02/13/2018 06:00","ND","ND","ND","ND","ND","ND"],
    [31839,"02/13/2018 07:00","ND","ND","ND","ND","ND","ND"],
    [31840,"02/13/2018 08:00","ND","ND","ND","ND","ND","ND"],
    [31841,"02/13/2018 09:00","ND","ND","ND","ND","ND","ND"],
    [31842,"02/13/2018 10:00","ND","ND","ND","ND","ND","ND"],
    [31843,"02/13/2018 11:00","ND","ND","ND","ND","ND","ND"],
    [31844,"02/13/2018 12:00","ND","ND","ND","ND","ND","ND"],
    [31845,"02/13/2018 13:00","ND","ND","ND","ND","ND","ND"],
    [31846,"02/13/2018 14:00","ND","ND","ND","ND","ND","ND"],
    [31847,"02/13/2018 15:00","ND","ND","ND","ND","ND","ND"],
    [31848,"02/13/2018 16:00","ND","ND","ND","ND","ND","ND"],
    [31849,"02/13/2018 17:00","ND","ND","ND","ND","ND","ND"],
    [31850,"02/13/2018 18:00","ND","ND","ND","ND","ND","ND"],
    [31851,"02/13/2018 19:00","ND","ND","ND","ND","ND","ND"],
    [31852,"02/13/2018 20:00","ND","ND","ND","ND","ND","ND"],
    [31853,"02/13/2018 21:00","ND","ND","ND","ND","ND","ND"],
    [31854,"02/13/2018 22:00","ND","ND","ND","ND","ND","ND"],
    [31855,"02/13/2018 23:00","ND","ND","ND","ND","ND","ND"],
    [31856,"02/14/2018 00:00","ND","ND","ND","ND","ND","ND"],
    [31857,"02/14/2018 01:00","ND","ND","ND","ND","ND","ND"],
    [31858,"02/14/2018 02:00","ND","ND","ND","ND","ND","ND"],
    [31859,"02/14/2018 03:00","ND","ND","ND","ND","ND","ND"],
    [31860,"02/14/2018 04:00","ND","ND","ND","ND","ND","ND"],
    [31861,"02/14/2018 05:00","ND","ND","ND","ND","ND","ND"],
    [31862,"02/14/2018 06:00","ND","ND","ND","ND","ND","ND"],
    [31863,"02/14/2018 07:00","ND","ND","ND","ND","ND","ND"],
    [31864,"02/14/2018 08:00","ND","ND","ND","ND","ND","ND"],
    [31865,"02/14/2018 09:00","ND","ND","ND","ND","ND","ND"],
    [31866,"02/14/2018 10:00","ND","ND","ND","ND","ND","ND"],
    [31867,"02/14/2018 11:00","ND","ND","ND","ND","ND","ND"],
    [31868,"02/14/2018 12:00","ND","ND","ND","ND","ND","ND"],
    [31869,"02/14/2018 13:00","ND","ND","ND","ND","ND","ND"],
    [31870,"02/14/2018 14:00","ND","ND","ND","ND","ND","ND"],
    [31871,"02/14/2018 15:00","ND","ND","ND","ND","ND","ND"],
    [31872,"02/14/2018 16:00","ND","ND","ND","ND","ND","ND"],
    [31873,"02/14/2018 17:00","ND","ND","ND","ND","ND","ND"],
    [31874,"02/14/2018 18:00","ND","ND","ND","ND","ND","ND"],
    [31875,"02/14/2018 19:00","ND","ND","ND","ND","ND","ND"],
    [31876,"02/14/2018 20:00","ND","ND","ND","ND","ND","ND"],
    [31877,"02/14/2018 21:00","ND","ND","ND","ND","ND","ND"],
    [31878,"02/14/2018 22:00","ND","ND","ND","ND","ND","ND"],
    [31879,"02/14/2018 23:00","ND","ND","ND","ND","ND","ND"],
    [31880,"02/15/2018 00:00","ND","0,8","ND","ND","ND","ND"],
    [31881,"02/15/2018 01:00","ND","ND","ND","ND","ND","ND"],
    [31882,"02/15/2018 02:00","ND","ND","ND","ND","ND","ND"],
    [31883,"02/15/2018 03:00","ND","ND","ND","ND","ND","ND"],
    [31884,"02/15/2018 04:00","ND","ND","ND","ND","ND","ND"],
    [31885,"02/15/2018 05:00","ND","ND","ND","ND","ND","ND"],
    [31886,"02/15/2018 06:00","ND","ND","ND","ND","ND","ND"],
    [31887,"02/15/2018 07:00","ND","ND","ND","ND","ND","ND"],
    [31888,"02/15/2018 08:00","ND","ND","ND","ND","ND","ND"],
    [31889,"02/15/2018 09:00","ND","ND","ND","ND","ND","ND"],
    [31890,"02/15/2018 10:00","ND","3,1","ND","ND","ND","ND"],
    [31891,"02/15/2018 11:00","ND","0,2","ND","ND","ND","ND"],
    [31892,"02/15/2018 12:00","ND","0,2","ND","ND","ND","ND"],
    [31893,"02/15/2018 13:00","ND","0,4","ND","ND","ND","ND"],
    [31894,"02/15/2018 14:00","51","0,7","ND","ND","ND","ND"],
    [31895,"02/15/2018 15:00","46,2","0,9","ND","ND","ND","ND"],
    [31896,"02/15/2018 16:00","47,3","0,8","ND","ND","ND","ND"],
    [31897,"02/15/2018 17:00","19,5","0,2","ND","ND","ND","ND"],
    [31898,"02/15/2018 18:00","18,2","0,2","ND","ND","ND","ND"],
    [31899,"02/15/2018 19:00","22","0,3","ND","ND","ND","ND"],
    [31900,"02/15/2018 20:00","26,8","0,4","ND","ND","ND","ND"],
    [31901,"02/15/2018 21:00","14,1","0,3","ND","ND","ND","ND"],
    [31902,"02/15/2018 22:00","45","0,7","ND","ND","ND","ND"],
    [31903,"02/15/2018 23:00","26,6","0,8","ND","ND","ND","ND"],
    [31904,"02/16/2018 00:00","14,1","0,4","ND","ND","ND","ND"],
    [31905,"02/16/2018 01:00","14,5","0,3","ND","ND","ND","ND"],
    [31906,"02/16/2018 02:00","9,9","0,2","ND","ND","ND","ND"],
    [31907,"02/16/2018 03:00","14,5","0,3","ND","ND","ND","ND"],
    [31908,"02/16/2018 04:00","14,3","0,2","ND","ND","ND","ND"],
    [31909,"02/16/2018 05:00","19,2","0,3","ND","ND","ND","ND"],
    [31910,"02/16/2018 06:00","31,2","0,5","ND","ND","ND","ND"],
    [31911,"02/16/2018 07:00","48,6","0,9","ND","ND","ND","ND"],
    [31912,"02/16/2018 08:00","52,3","1","ND","ND","ND","ND"],
    [31913,"02/16/2018 09:00","44,2","0,9","ND","ND","ND","ND"],
    [31914,"02/16/2018 10:00","25,7","1,6","ND","ND","ND","ND"],
    [31915,"02/16/2018 11:00","31,6","2,2","ND","ND","ND","ND"],
    [31916,"02/16/2018 12:00","23,3","1,9","ND","ND","ND","ND"],
    [31917,"02/16/2018 13:00","22,1","1,4","ND","ND","ND","ND"],
    [31918,"02/16/2018 14:00","18,3","1","ND","ND","ND","ND"],
    [31919,"02/16/2018 15:00","26,5","0,7","ND","ND","ND","ND"],
    [31920,"02/16/2018 16:00","18,5","0,3","ND","ND","ND","ND"],
    [31921,"02/16/2018 17:00","20,5","0,1","ND","ND","ND","ND"],
    [31922,"02/16/2018 18:00","19,3","0,1","ND","ND","ND","ND"],
    [31923,"02/16/2018 19:00","14,5","0,3","ND","ND","ND","ND"],
    [31924,"02/16/2018 20:00","13,2","0,2","ND","ND","ND","ND"],
    [31925,"02/16/2018 21:00","29,2","0,6","ND","ND","ND","ND"],
    [31926,"02/16/2018 22:00","44,9","0,7","ND","ND","ND","ND"],
    [31927,"02/16/2018 23:00","41,1","0,6","ND","ND","ND","ND"],
    [31928,"02/17/2018 00:00","33,8","0,5","ND","ND","ND","ND"],
    [31929,"02/17/2018 01:00","27,9","0,3","ND","ND","ND","ND"],
    [31930,"02/17/2018 02:00","25","0,3","ND","ND","ND","ND"],
    [31931,"02/17/2018 03:00","47,7","0,3","ND","ND","ND","ND"],
    [31932,"02/17/2018 04:00","21,4","0,3","ND","ND","ND","ND"],
    [31933,"02/17/2018 05:00","34,7","0,5","ND","ND","ND","ND"],
    [31934,"02/17/2018 06:00","30,8","0,5","ND","ND","ND","ND"],
    [31935,"02/17/2018 07:00","50,7","0,6","ND","ND","ND","ND"],
    [31936,"02/17/2018 08:00","49,9","0,8","ND","ND","ND","ND"],
    [31937,"02/17/2018 09:00","65,4","1","ND","ND","ND","ND"],
    [31938,"02/17/2018 10:00","58,7","1,6","ND","ND","ND","ND"],
    [31939,"02/17/2018 11:00","50,4","1,4","ND","ND","ND","ND"],
    [31940,"02/17/2018 12:00","35,9","1,2","ND","ND","ND","ND"],
    [31941,"02/17/2018 13:00","41,2","1,8","ND","ND","ND","ND"],
    [31942,"02/17/2018 14:00","36,5","1,8","ND","ND","ND","ND"],
    [31943,"02/17/2018 15:00","18,3","1","ND","ND","ND","ND"],
    [31944,"02/17/2018 16:00","8,5","0,6","ND","ND","ND","ND"],
    [31945,"02/17/2018 17:00","6","0,5","ND","ND","ND","ND"],
    [31946,"02/17/2018 18:00","12,4","0,4","ND","ND","ND","ND"],
    [31947,"02/17/2018 19:00","11,6","0,2","ND","ND","ND","ND"],
    [31948,"02/17/2018 20:00","9,8","0,2","ND","ND","ND","ND"],
    [31949,"02/17/2018 21:00","24,3","0,8","ND","ND","ND","ND"],
    [31950,"02/17/2018 22:00","38","0,8","ND","ND","ND","ND"],
    [31951,"02/17/2018 23:00","19","0,5","ND","ND","ND","ND"],
    [31952,"02/18/2018 00:00","11,2","0,3","ND","ND","ND","ND"],
    [31953,"02/18/2018 01:00","9,9","0,4","ND","ND","ND","ND"],
    [31954,"02/18/2018 02:00","6,9","0,3","ND","ND","ND","ND"],
    [31955,"02/18/2018 03:00","7,1","0,2","ND","ND","ND","ND"],
    [31956,"02/18/2018 04:00","11,1","0,2","ND","ND","ND","ND"],
    [31957,"02/18/2018 05:00","11,9","0,2","ND","ND","ND","ND"],
    [31958,"02/18/2018 06:00","21,4","0,4","ND","ND","ND","ND"],
    [31959,"02/18/2018 07:00","25,3","0,4","ND","ND","ND","ND"],
    [31960,"02/18/2018 08:00","20,9","0,3","ND","ND","ND","ND"],
    [31961,"02/18/2018 09:00","14,1","0,6","ND","ND","ND","ND"],
    [31962,"02/18/2018 10:00","16,3","1","ND","ND","ND","ND"],
    [31963,"02/18/2018 11:00","18,3","1,6","ND","ND","ND","ND"],
    [31964,"02/18/2018 12:00","23,7","1,6","ND","ND","ND","ND"],
    [31965,"02/18/2018 13:00","30","1,2","ND","ND","ND","ND"],
    [31966,"02/18/2018 14:00","30,5","0,9","ND","ND","ND","ND"],
    [31967,"02/18/2018 15:00","25,6","1,7","ND","ND","ND","ND"],
    [31968,"02/18/2018 16:00","33,4","1,8","ND","ND","ND","ND"],
    [31969,"02/18/2018 17:00","13,8","0,3","ND","ND","ND","ND"],
    [31970,"02/18/2018 18:00","14,8","0,3","ND","ND","ND","ND"],
    [31971,"02/18/2018 19:00","13,7","0,2","ND","ND","ND","ND"],
    [31972,"02/18/2018 20:00","20,9","0,4","ND","ND","ND","ND"],
    [31973,"02/18/2018 21:00","34,5","0,7","ND","ND","ND","ND"],
    [31974,"02/18/2018 22:00","35,1","0,6","ND","ND","ND","ND"],
    [31975,"02/18/2018 23:00","32,7","0,5","ND","ND","ND","ND"],
    [31976,"02/19/2018 00:00","20","0,3","ND","ND","ND","ND"],
    [31977,"02/19/2018 01:00","13,5","0,3","ND","ND","ND","ND"],
    [31978,"02/19/2018 02:00","7,7","0,2","ND","ND","ND","ND"],
    [31979,"02/19/2018 03:00","3,8","0,1","ND","ND","ND","ND"],
    [31980,"02/19/2018 04:00","5,5","0,1","ND","ND","ND","ND"],
    [31981,"02/19/2018 05:00","8","0","ND","ND","ND","ND"],
    [31982,"02/19/2018 06:00","8,3","0,2","ND","ND","ND","ND"],
    [31983,"02/19/2018 07:00","23,2","0,6","ND","ND","ND","ND"],
    [31984,"02/19/2018 08:00","46,8","1,1","ND","ND","ND","ND"],
    [31985,"02/19/2018 09:00","40","0,8","ND","ND","ND","ND"],
    [31986,"02/19/2018 10:00","28,7","0,6","ND","ND","ND","ND"],
    [31987,"02/19/2018 11:00","23,8","0,5","ND","ND","ND","ND"],
    [31988,"02/19/2018 12:00","13,5","0,4","ND","ND","ND","ND"],
    [31989,"02/19/2018 13:00","17,5","0,6","ND","ND","ND","ND"],
    [31990,"02/19/2018 14:00","39,7","1,5","ND","ND","ND","ND"],
    [31991,"02/19/2018 15:00","38,8","3,4","ND","ND","ND","ND"],
    [31992,"02/19/2018 16:00","23,9","1,3","ND","ND","ND","ND"],
    [31993,"02/19/2018 17:00","9,9","0,3","ND","ND","ND","ND"],
    [31994,"02/19/2018 18:00","13,2","0,3","ND","ND","ND","ND"],
    [31995,"02/19/2018 19:00","18,6","0,3","ND","ND","ND","ND"],
    [31996,"02/19/2018 20:00","39","0,6","ND","ND","ND","ND"],
    [31997,"02/19/2018 21:00","33,4","0,6","ND","ND","ND","ND"],
    [31998,"02/19/2018 22:00","30,4","0,3","ND","ND","ND","ND"],
    [31999,"02/19/2018 23:00","25,2","0,2","ND","ND","ND","ND"],
    [32000,"02/20/2018 00:00","24,4","0,4","ND","ND","ND","ND"],
    [32001,"02/20/2018 01:00","15,5","0,2","ND","ND","ND","ND"],
    [32002,"02/20/2018 02:00","20,4","0,1","ND","ND","ND","ND"],
    [32003,"02/20/2018 03:00","20,5","0,1","ND","ND","ND","ND"],
    [32004,"02/20/2018 04:00","28,3","0,3","ND","ND","ND","ND"],
    [32005,"02/20/2018 05:00","26,1","0,3","ND","ND","ND","ND"],
    [32006,"02/20/2018 06:00","41,7","0,3","ND","ND","ND","ND"],
    [32007,"02/20/2018 07:00","47,8","0,8","ND","ND","ND","ND"],
    [32008,"02/20/2018 08:00","50,7","1","ND","ND","ND","ND"],
    [32009,"02/20/2018 09:00","51,9","1,2","ND","ND","ND","ND"],
    [32010,"02/20/2018 10:00","32","1,2","ND","ND","ND","ND"],
    [32011,"02/20/2018 11:00","ND","ND","ND","ND","ND","ND"],
    [32012,"02/20/2018 12:00","ND","1,7","ND","ND","ND","ND"],
    [32013,"02/20/2018 13:00","ND","1,1","ND","ND","ND","ND"],
    [32014,"02/20/2018 14:00","ND","0,7","ND","ND","ND","ND"],
    [32015,"02/20/2018 15:00","21","0,5","ND","ND","ND","ND"],
    [32016,"02/20/2018 16:00","20,4","0,3","ND","ND","ND","ND"],
    [32017,"02/20/2018 17:00","31,4","0,1","ND","ND","ND","ND"],
    [32018,"02/20/2018 18:00","15,8","0,1","ND","ND","ND","ND"],
    [32019,"02/20/2018 19:00","18,2","0,2","ND","ND","ND","ND"],
    [32020,"02/20/2018 20:00","12,3","0,1","ND","ND","ND","ND"],
    [32021,"02/20/2018 21:00","23","0,7","ND","ND","ND","ND"],
    [32022,"02/20/2018 22:00","42,1","0,9","ND","ND","ND","ND"],
    [32023,"02/20/2018 23:00","40,2","0,7","ND","ND","ND","ND"],
    [32024,"02/21/2018 00:00","30,4","0,6","ND","ND","ND","ND"],
    [32025,"02/21/2018 01:00","18,1","0,2","ND","ND","ND","ND"],
    [32026,"02/21/2018 02:00","26,5","0,2","ND","ND","ND","ND"],
    [32027,"02/21/2018 03:00","22,3","0,3","ND","ND","ND","ND"],
    [32028,"02/21/2018 04:00","26,6","0,2","ND","ND","ND","ND"],
    [32029,"02/21/2018 05:00","27,7","0,3","ND","ND","ND","ND"],
    [32030,"02/21/2018 06:00","34,8","0,6","ND","ND","ND","ND"],
    [32031,"02/21/2018 07:00","47,6","0,7","ND","ND","ND","ND"],
    [32032,"02/21/2018 08:00","47,3","0,9","ND","ND","ND","ND"],
    [32033,"02/21/2018 09:00","36,7","1,6","ND","ND","ND","ND"],
    [32034,"02/21/2018 10:00","25,5","5,2","ND","ND","ND","ND"],
    [32035,"02/21/2018 11:00","23,2","2,4","ND","ND","ND","ND"],
    [32036,"02/21/2018 12:00","25,4","2,1","ND","ND","ND","ND"],
    [32037,"02/21/2018 13:00","26","1,4","ND","ND","ND","ND"],
    [32038,"02/21/2018 14:00","29,6","1,1","ND","ND","ND","ND"],
    [32039,"02/21/2018 15:00","17,5","0,5","ND","ND","ND","ND"],
    [32040,"02/21/2018 16:00","18,3","0,3","ND","ND","ND","ND"],
    [32041,"02/21/2018 17:00","17,7","0,2","ND","ND","ND","ND"],
    [32042,"02/21/2018 18:00","42,7","0,2","ND","ND","ND","ND"],
    [32043,"02/21/2018 19:00","39,3","0,3","ND","ND","ND","ND"],
    [32044,"02/21/2018 20:00","16,7","0,1","ND","ND","ND","ND"],
    [32045,"02/21/2018 21:00","17","0,3","ND","ND","ND","ND"],
    [32046,"02/21/2018 22:00","37,6","0,6","ND","ND","ND","ND"],
    [32047,"02/21/2018 23:00","52,7","0,8","ND","ND","ND","ND"],
    [32048,"02/22/2018 00:00","27,7","0,2","ND","ND","ND","ND"],
    [32049,"02/22/2018 01:00","21,6","0,2","ND","ND","ND","ND"],
    [32050,"02/22/2018 02:00","36,1","0,1","ND","ND","ND","ND"],
    [32051,"02/22/2018 03:00","20,7","0,2","ND","ND","ND","ND"],
    [32052,"02/22/2018 04:00","13,5","0,1","ND","ND","ND","ND"],
    [32053,"02/22/2018 05:00","26,5","0,2","ND","ND","ND","ND"],
    [32054,"02/22/2018 06:00","32,4","0,4","ND","ND","ND","ND"],
    [32055,"02/22/2018 07:00","53,3","0,9","ND","ND","ND","ND"],
    [32056,"02/22/2018 08:00","54,3","1","ND","ND","ND","ND"],
    [32057,"02/22/2018 09:00","43","1,4","ND","ND","ND","ND"],
    [32058,"02/22/2018 10:00","30","3","ND","ND","ND","ND"],
    [32059,"02/22/2018 11:00","34,5","3","ND","ND","ND","ND"],
    [32060,"02/22/2018 12:00","30,7","2,6","ND","ND","ND","ND"],
    [32061,"02/22/2018 13:00","20,4","1,5","ND","ND","ND","ND"],
    [32062,"02/22/2018 14:00","27","1,9","ND","ND","ND","ND"],
    [32063,"02/22/2018 15:00","34,1","0,7","ND","ND","ND","ND"],
    [32064,"02/22/2018 16:00","28","1,6","ND","ND","ND","ND"],
    [32065,"02/22/2018 17:00","24","0,4","ND","ND","ND","ND"],
    [32066,"02/22/2018 18:00","20,7","0,2","ND","ND","ND","ND"],
    [32067,"02/22/2018 19:00","18,3","0,3","ND","ND","ND","ND"],
    [32068,"02/22/2018 20:00","14,1","0,2","ND","ND","ND","ND"],
    [32069,"02/22/2018 21:00","11,1","0,2","ND","ND","ND","ND"],
    [32070,"02/22/2018 22:00","38,8","0,6","ND","ND","ND","ND"],
    [32071,"02/22/2018 23:00","21,6","0,4","ND","ND","ND","ND"],
    [32072,"02/23/2018 00:00","27","0,2","ND","ND","ND","ND"],
    [32073,"02/23/2018 01:00","15,6","0,2","ND","ND","ND","ND"],
    [32074,"02/23/2018 02:00","13,6","0,2","ND","ND","ND","ND"],
    [32075,"02/23/2018 03:00","11,8","0,1","ND","ND","ND","ND"],
    [32076,"02/23/2018 04:00","14,9","0,1","ND","ND","ND","ND"],
    [32077,"02/23/2018 05:00","18,8","0,2","ND","ND","ND","ND"],
    [32078,"02/23/2018 06:00","28,1","0,2","ND","ND","ND","ND"],
    [32079,"02/23/2018 07:00","43,5","0,6","ND","ND","ND","ND"],
    [32080,"02/23/2018 08:00","45,2","0,7","ND","ND","ND","ND"],
    [32081,"02/23/2018 09:00","32,4","1","ND","ND","ND","ND"],
    [32082,"02/23/2018 10:00","24,4","2","ND","ND","ND","ND"],
    [32083,"02/23/2018 11:00","37,5","3,2","ND","ND","ND","ND"],
    [32084,"02/23/2018 12:00","24,3","2","ND","ND","ND","ND"],
    [32085,"02/23/2018 13:00","30","1,5","ND","ND","ND","ND"],
    [32086,"02/23/2018 14:00","26","1,3","ND","ND","ND","ND"],
    [32087,"02/23/2018 15:00","18,1","0,6","ND","ND","ND","ND"],
    [32088,"02/23/2018 16:00","13,3","0,2","ND","ND","ND","ND"],
    [32089,"02/23/2018 17:00","16,2","0,1","ND","ND","ND","ND"],
    [32090,"02/23/2018 18:00","18","0,1","ND","ND","ND","ND"],
    [32091,"02/23/2018 19:00","14,4","0,2","ND","ND","ND","ND"],
    [32092,"02/23/2018 20:00","15,8","0,3","ND","ND","ND","ND"],
    [32093,"02/23/2018 21:00","14,1","0,1","ND","ND","ND","ND"],
    [32094,"02/23/2018 22:00","25,8","0,2","ND","ND","ND","ND"],
    [32095,"02/23/2018 23:00","11,7","0,2","ND","ND","ND","ND"],
    [32096,"02/24/2018 00:00","11,7","0,4","ND","ND","ND","ND"],
    [32097,"02/24/2018 01:00","12,4","0,2","ND","ND","ND","ND"],
    [32098,"02/24/2018 02:00","14,6","0,1","ND","ND","ND","ND"],
    [32099,"02/24/2018 03:00","10,3","0,1","ND","ND","ND","ND"],
    [32100,"02/24/2018 04:00","14,2","0,1","ND","ND","ND","ND"],
    [32101,"02/24/2018 05:00","10,5","0,1","ND","ND","ND","ND"],
    [32102,"02/24/2018 06:00","123,2","0,3","ND","ND","ND","ND"],
    [32103,"02/24/2018 07:00","10,1","0,3","ND","ND","ND","ND"],
    [32104,"02/24/2018 08:00","16,4","0,3","ND","ND","ND","ND"],
    [32105,"02/24/2018 09:00","7,1","0,3","ND","ND","ND","ND"],
    [32106,"02/24/2018 10:00","30,9","ND","ND","ND","ND","ND"],
    [32107,"02/24/2018 11:00","23,7","1,4","ND","ND","ND","ND"],
    [32108,"02/24/2018 12:00","20,8","0,5","ND","ND","ND","ND"],
    [32109,"02/24/2018 13:00","18,3","0,6","ND","ND","ND","ND"],
    [32110,"02/24/2018 14:00","21,2","0,4","ND","ND","ND","ND"],
    [32111,"02/24/2018 15:00","21","0,4","ND","ND","ND","ND"],
    [32112,"02/24/2018 16:00","11,7","0","ND","ND","ND","ND"],
    [32113,"02/24/2018 17:00","11,6","ND","ND","ND","ND","ND"],
    [32114,"02/24/2018 18:00","10,1","ND","ND","ND","ND","ND"],
    [32115,"02/24/2018 19:00","8,1","0","ND","ND","ND","ND"],
    [32116,"02/24/2018 20:00","9,8","ND","ND","ND","ND","ND"],
    [32117,"02/24/2018 21:00","26,2","0,1","ND","ND","ND","ND"],
    [32118,"02/24/2018 22:00","21,8","0,5","ND","ND","ND","ND"],
    [32119,"02/24/2018 23:00","17,3","0,5","ND","ND","ND","ND"],
    [32120,"02/25/2018 00:00","10,4","0,1","ND","ND","ND","ND"],
    [32121,"02/25/2018 01:00","11,9","0,2","ND","ND","ND","ND"],
    [32122,"02/25/2018 02:00","34,5","0,2","ND","ND","ND","ND"],
    [32123,"02/25/2018 03:00","17,6","0,1","ND","ND","ND","ND"],
    [32124,"02/25/2018 04:00","16","0,1","ND","ND","ND","ND"],
    [32125,"02/25/2018 05:00","14,8","0,1","ND","ND","ND","ND"],
    [32126,"02/25/2018 06:00","11","ND","ND","ND","ND","ND"],
    [32127,"02/25/2018 07:00","11,2","0","ND","ND","ND","ND"],
    [32128,"02/25/2018 08:00","12,4","0,2","ND","ND","ND","ND"],
    [32129,"02/25/2018 09:00","26,6","0,3","ND","ND","ND","ND"],
    [32130,"02/25/2018 10:00","26,7","0,7","ND","ND","ND","ND"],
    [32131,"02/25/2018 11:00","11,5","0,4","ND","ND","ND","ND"],
    [32132,"02/25/2018 12:00","10,5","0,2","ND","ND","ND","ND"],
    [32133,"02/25/2018 13:00","12,5","0,3","ND","ND","ND","ND"],
    [32134,"02/25/2018 14:00","19,3","0,7","ND","ND","ND","ND"],
    [32135,"02/25/2018 15:00","24,4","2,2","ND","ND","ND","ND"],
    [32136,"02/25/2018 16:00","23,6","0,8","ND","ND","ND","ND"],
    [32137,"02/25/2018 17:00","11,1","ND","ND","ND","ND","ND"],
    [32138,"02/25/2018 18:00","11","ND","ND","ND","ND","ND"],
    [32139,"02/25/2018 19:00","17,1","0,1","ND","ND","ND","ND"],
    [32140,"02/25/2018 20:00","10,2","ND","ND","ND","ND","ND"],
    [32141,"02/25/2018 21:00","22,5","0,3","ND","ND","ND","ND"],
    [32142,"02/25/2018 22:00","41,5","0,5","ND","ND","ND","ND"],
    [32143,"02/25/2018 23:00","25,2","0,3","ND","ND","ND","ND"],
    [32144,"02/26/2018 00:00","18,6","0,3","ND","ND","ND","ND"],
    [32145,"02/26/2018 01:00","14,9","0,1","ND","ND","ND","ND"],
    [32146,"02/26/2018 02:00","17,8","0","ND","ND","ND","ND"],
    [32147,"02/26/2018 03:00","16,6","0,2","ND","ND","ND","ND"],
    [32148,"02/26/2018 04:00","10,2","0,1","ND","ND","ND","ND"],
    [32149,"02/26/2018 05:00","17,6","0,2","ND","ND","ND","ND"],
    [32150,"02/26/2018 06:00","17,6","0,3","ND","ND","ND","ND"],
    [32151,"02/26/2018 07:00","45,1","1","ND","ND","ND","ND"],
    [32152,"02/26/2018 08:00","46,1","1,3","ND","ND","ND","ND"],
    [32153,"02/26/2018 09:00","42,9","3,2","ND","ND","ND","ND"],
    [32154,"02/26/2018 10:00","74,5","ND","ND","ND","ND","ND"],
    [32155,"02/26/2018 11:00","51,5","8,2","ND","ND","ND","ND"],
    [32156,"02/26/2018 12:00","39,4","6,3","ND","ND","ND","ND"],
    [32157,"02/26/2018 13:00","36,6","4,2","ND","ND","ND","ND"],
    [32158,"02/26/2018 14:00","34,5","2,6","ND","ND","ND","ND"],
    [32159,"02/26/2018 15:00","15,6","0,7","ND","ND","ND","ND"],
    [32160,"02/26/2018 16:00","13,4","0,4","ND","ND","ND","ND"],
    [32161,"02/26/2018 17:00","20,1","0,1","ND","ND","ND","ND"],
    [32162,"02/26/2018 18:00","20,6","0","ND","ND","ND","ND"],
    [32163,"02/26/2018 19:00","18,9","0,2","ND","ND","ND","ND"],
    [32164,"02/26/2018 20:00","20,8","0,4","ND","ND","ND","ND"],
    [32165,"02/26/2018 21:00","43","0,9","ND","ND","ND","ND"],
    [32166,"02/26/2018 22:00","48,6","0,8","ND","ND","ND","ND"],
    [32167,"02/26/2018 23:00","36","0,6","ND","ND","ND","ND"],
    [32168,"02/27/2018 00:00","23","0,3","ND","ND","ND","ND"],
    [32169,"02/27/2018 01:00","29","0,3","ND","ND","ND","ND"],
    [32170,"02/27/2018 02:00","17,6","0,2","ND","ND","ND","ND"],
    [32171,"02/27/2018 03:00","17,2","0,2","ND","ND","ND","ND"],
    [32172,"02/27/2018 04:00","18,8","0,2","ND","ND","ND","ND"],
    [32173,"02/27/2018 05:00","24,8","0,2","ND","ND","ND","ND"],
    [32174,"02/27/2018 06:00","37,8","0,3","ND","ND","ND","ND"],
    [32175,"02/27/2018 07:00","48,2","0,7","ND","ND","ND","ND"],
    [32176,"02/27/2018 08:00","48,2","1","ND","ND","ND","ND"],
    [32177,"02/27/2018 09:00","45,8","1,7","ND","ND","ND","ND"],
    [32178,"02/27/2018 10:00","58,7","3,5","ND","ND","ND","ND"],
    [32179,"02/27/2018 11:00","42,2","4,1","ND","ND","ND","ND"],
    [32180,"02/27/2018 12:00","30,5","2,7","ND","ND","ND","ND"],
    [32181,"02/27/2018 13:00","37,7","2,3","ND","ND","ND","ND"],
    [32182,"02/27/2018 14:00","37,5","1,8","ND","ND","ND","ND"],
    [32183,"02/27/2018 15:00","15,2","0,5","ND","ND","ND","ND"],
    [32184,"02/27/2018 16:00","21,1","0,1","ND","ND","ND","ND"],
    [32185,"02/27/2018 17:00","17,6","0,1","ND","ND","ND","ND"],
    [32186,"02/27/2018 18:00","24,4","0,2","ND","ND","ND","ND"],
    [32187,"02/27/2018 19:00","31,5","0,4","ND","ND","ND","ND"],
    [32188,"02/27/2018 20:00","18","0,5","ND","ND","ND","ND"],
    [32189,"02/27/2018 21:00","16,1","0,1","ND","ND","ND","ND"],
    [32190,"02/27/2018 22:00","42,2","0,6","ND","ND","ND","ND"],
    [32191,"02/27/2018 23:00","49,3","0,7","ND","ND","ND","ND"],
    [32192,"02/28/2018 00:00","25,8","ND","ND","ND","ND","ND"],
    [32193,"02/28/2018 01:00","29,8","0,6","ND","ND","ND","ND"],
    [32194,"02/28/2018 02:00","23,2","0,3","ND","ND","ND","ND"],
    [32195,"02/28/2018 03:00","22,7","0,3","ND","ND","ND","ND"],
    [32196,"02/28/2018 04:00","23,8","0,2","ND","ND","ND","ND"],
    [32197,"02/28/2018 05:00","21,5","0,1","ND","ND","ND","ND"],
    [32198,"02/28/2018 06:00","39,5","0,5","ND","ND","ND","ND"],
    [32199,"02/28/2018 07:00","54,2","0,7","ND","ND","ND","ND"],
    [32200,"02/28/2018 08:00","79,2","1","ND","ND","ND","ND"],
    [32201,"02/28/2018 09:00","59,9","1,2","ND","ND","ND","ND"],
    [32202,"02/28/2018 10:00","56,1","2,6","ND","ND","ND","ND"],
    [32203,"02/28/2018 11:00","46,5","3,4","ND","ND","ND","ND"],
    [32204,"02/28/2018 12:00","50,6","2,6","ND","ND","ND","ND"],
    [32205,"02/28/2018 13:00","47,8","2,3","ND","ND","ND","ND"],
    [32206,"02/28/2018 14:00","48,8","1,8","ND","ND","ND","ND"],
    [32207,"02/28/2018 15:00","44,2","0,5","ND","ND","ND","ND"],
    [32208,"02/28/2018 16:00","20,9","0,1","ND","ND","ND","ND"],
    [32209,"02/28/2018 17:00","ND","ND","ND","ND","ND","ND"],
    [32210,"02/28/2018 18:00","ND","ND","ND","ND","ND","ND"],
    [32211,"02/28/2018 19:00","ND","ND","ND","ND","ND","ND"],
    [32212,"02/28/2018 20:00","ND","ND","ND","ND","ND","ND"],
    [32213,"02/28/2018 21:00","ND","ND","ND","ND","ND","ND"],
    [32214,"02/28/2018 22:00","ND","ND","ND","ND","ND","ND"],
    [32215,"02/28/2018 23:00","ND","ND","ND","ND","ND","ND"],
    [32216,"43103","ND","0","ND","ND","ND","ND"],
    [32217,"43103,04167","27,9","0,2","ND","ND","ND","ND"],
    [32218,"43103,08333","26,7","0,1","ND","ND","ND","ND"],
    [32219,"43103,125","26,3","0,1","ND","ND","ND","ND"],
    [32220,"43103,16667","28,2","0,1","ND","ND","ND","ND"],
    [32221,"43103,20833","26,9","0,2","ND","ND","ND","ND"],
    [32222,"43103,25","66,6","0,4","ND","ND","ND","ND"],
    [32223,"43103,29167","60,4","0,6","ND","ND","ND","ND"],
    [32224,"43103,33333","67,2","0,8","ND","ND","ND","ND"],
    [32225,"43103,375","71,9","1,5","ND","ND","ND","ND"],
    [32226,"43103,41667","58,5","2,3","ND","ND","ND","ND"],
    [32227,"43103,45833","40,5","2,3","ND","ND","ND","ND"],
    [32228,"43103,5","47,9","2,2","ND","ND","ND","ND"],
    [32229,"43103,54167","40,7","1,5","ND","ND","ND","ND"],
    [32230,"43103,58333","38,1","1,1","ND","ND","ND","ND"],
    [32231,"43103,625","40,3","0,8","ND","ND","ND","ND"],
    [32232,"43103,66667","18,2","0,1","ND","ND","ND","ND"],
    [32233,"43103,70833","20,2","0","ND","ND","ND","ND"],
    [32234,"43103,75","20,9","0,1","ND","ND","ND","ND"],
    [32235,"43103,79167","25,6","0,1","ND","ND","ND","ND"],
    [32236,"43103,83333","15,6","0","ND","ND","ND","ND"],
    [32237,"43103,875","41,1","0,3","ND","ND","ND","ND"],
    [32238,"43103,91667","50,7","0,4","ND","ND","ND","ND"],
    [32239,"43103,95833","42,5","0,3","ND","ND","ND","ND"],
    [32240,"43134","15,2","0,4","ND","ND","ND","ND"],
    [32241,"43134,04167","27,3","0,2","ND","ND","ND","ND"],
    [32242,"43134,08333","22,1","0,2","ND","ND","ND","ND"],
    [32243,"43134,125","25,4","0,1","ND","ND","ND","ND"],
    [32244,"43134,16667","30,4","0,3","ND","ND","ND","ND"],
    [32245,"43134,20833","30,2","0,8","ND","ND","ND","ND"],
    [32246,"43134,25","42","1,8","ND","ND","ND","ND"],
    [32247,"43134,29167","36,8","1,3","ND","ND","ND","ND"],
    [32248,"43134,33333","31,1","1,2","ND","ND","ND","ND"],
    [32249,"43134,375","37,3","1,3","ND","ND","ND","ND"],
    [32250,"43134,41667","34,7","1","ND","ND","ND","ND"],
    [32251,"43134,45833","40,1","1,4","ND","ND","ND","ND"],
    [32252,"43134,5","43,6","1,2","ND","ND","ND","ND"],
    [32253,"43134,54167","40,9","1","ND","ND","ND","ND"],
    [32254,"43134,58333","69","0,8","ND","ND","ND","ND"],
    [32255,"43134,625","28,9","0,5","ND","ND","ND","ND"],
    [32256,"43134,66667","7,4","0,4","ND","ND","ND","ND"],
    [32257,"43134,70833","27,4","0,4","ND","ND","ND","ND"],
    [32258,"43134,75","50,8","0,7","ND","ND","ND","ND"],
    [32259,"43134,79167","39,1","0,7","ND","ND","ND","ND"],
    [32260,"43134,83333","29,6","0,5","ND","ND","ND","ND"],
    [32261,"43134,875","43,7","0,4","ND","ND","ND","ND"],
    [32262,"43134,91667","31,1","0,4","ND","ND","ND","ND"],
    [32263,"43134,95833","25,6","0,2","ND","ND","ND","ND"],
    [32264,"43162","23,2","0,2","ND","ND","ND","ND"],
    [32265,"43162,04167","25,5","0,2","ND","ND","ND","ND"],
    [32266,"43162,08333","22,1","0,2","ND","ND","ND","ND"],
    [32267,"43162,125","34,2","0,2","ND","ND","ND","ND"],
    [32268,"43162,16667","31,6","0,2","ND","ND","ND","ND"],
    [32269,"43162,20833","31,7","0,1","ND","ND","ND","ND"],
    [32270,"43162,25","37,1","0,3","ND","ND","ND","ND"],
    [32271,"43162,29167","57,1","0,5","ND","ND","ND","ND"],
    [32272,"43162,33333","51,9","0,6","ND","ND","ND","ND"],
    [32273,"43162,375","67,3","1","ND","ND","ND","ND"],
    [32274,"43162,41667","69,2","0,9","ND","ND","ND","ND"],
    [32275,"43162,45833","44,7","1,3","ND","ND","ND","ND"],
    [32276,"43162,5","30,9","0,8","ND","ND","ND","ND"],
    [32277,"43162,54167","44,6","0,9","ND","ND","ND","ND"],
    [32278,"43162,58333","47,6","1,1","ND","ND","ND","ND"],
    [32279,"43162,625","51","1,7","ND","ND","ND","ND"],
    [32280,"43162,66667","33,7","0,5","ND","ND","ND","ND"],
    [32281,"43162,70833","13,5","ND","ND","ND","ND","ND"],
    [32282,"43162,75","16,8","0,1","ND","ND","ND","ND"],
    [32283,"43162,79167","16,1","0,1","ND","ND","ND","ND"],
    [32284,"43162,83333","19,9","0,2","ND","ND","ND","ND"],
    [32285,"43162,875","12,9","0,1","ND","ND","ND","ND"],
    [32286,"43162,91667","21,3","0,1","ND","ND","ND","ND"],
    [32287,"43162,95833","33,1","0,5","ND","ND","ND","ND"],
    [32288,"43193","29,4","0,2","ND","ND","ND","ND"],
    [32289,"43193,04167","36","0,2","ND","ND","ND","ND"],
    [32290,"43193,08333","33,4","0,2","ND","ND","ND","ND"],
    [32291,"43193,125","32,9","0,2","ND","ND","ND","ND"],
    [32292,"43193,16667","38,6","0,2","ND","ND","ND","ND"],
    [32293,"43193,20833","36,8","0,2","ND","ND","ND","ND"],
    [32294,"43193,25","28","0,3","ND","ND","ND","ND"],
    [32295,"43193,29167","36,1","0,4","ND","ND","ND","ND"],
    [32296,"43193,33333","52,6","1,3","ND","ND","ND","ND"],
    [32297,"43193,375","52,6","0,6","ND","ND","ND","ND"],
    [32298,"43193,41667","32,8","1,8","ND","ND","ND","ND"],
    [32299,"43193,45833","25,4","2,1","ND","ND","ND","ND"],
    [32300,"43193,5","25,7","1,5","ND","ND","ND","ND"],
    [32301,"43193,54167","26,9","1","ND","ND","ND","ND"],
    [32302,"43193,58333","33","0,9","ND","ND","ND","ND"],
    [32303,"43193,625","26,6","0,8","ND","ND","ND","ND"],
    [32304,"43193,66667","17,7","0,2","ND","ND","ND","ND"],
    [32305,"43193,70833","15,2","0,1","ND","ND","ND","ND"],
    [32306,"43193,75","20","0,1","ND","ND","ND","ND"],
    [32307,"43193,79167","15,6","0","ND","ND","ND","ND"],
    [32308,"43193,83333","16,7","0,1","ND","ND","ND","ND"],
    [32309,"43193,875","33","0,5","ND","ND","ND","ND"],
    [32310,"43193,91667","38,3","1,2","ND","ND","ND","ND"],
    [32311,"43193,95833","24,5","0,8","ND","ND","ND","ND"],
    [32312,"43223","18,5","0,5","ND","ND","ND","ND"],
    [32313,"43223,04167","16,2","0,4","ND","ND","ND","ND"],
    [32314,"43223,08333","36,6","0,5","ND","ND","ND","ND"],
    [32315,"43223,125","21,3","0,4","ND","ND","ND","ND"],
    [32316,"43223,16667","20,5","0,5","ND","ND","ND","ND"],
    [32317,"43223,20833","35,9","0,6","ND","ND","ND","ND"],
    [32318,"43223,25","43,2","0,6","ND","ND","ND","ND"],
    [32319,"43223,29167","58,4","1,2","ND","ND","ND","ND"],
    [32320,"43223,33333","65,6","1,9","ND","ND","ND","ND"],
    [32321,"43223,375","51,9","1,8","ND","ND","ND","ND"],
    [32322,"43223,41667","37,5","2,1","ND","ND","ND","ND"],
    [32323,"43223,45833","35,8","2,8","ND","ND","ND","ND"],
    [32324,"43223,5","34,9","2","ND","ND","ND","ND"],
    [32325,"43223,54167","44","1,7","ND","ND","ND","ND"],
    [32326,"43223,58333","42,5","1,1","ND","ND","ND","ND"],
    [32327,"43223,625","17","0,2","ND","ND","ND","ND"],
    [32328,"43223,66667","9,8","0,1","ND","ND","ND","ND"],
    [32329,"43223,70833","13,6","0,1","ND","ND","ND","ND"],
    [32330,"43223,75","16","0,1","ND","ND","ND","ND"],
    [32331,"43223,79167","11,2","0,2","ND","ND","ND","ND"],
    [32332,"43223,83333","11,5","0,2","ND","ND","ND","ND"],
    [32333,"43223,875","38,5","0,6","ND","ND","ND","ND"],
    [32334,"43223,91667","38,5","0,6","ND","ND","ND","ND"],
    [32335,"43223,95833","37,5","0,5","ND","ND","ND","ND"],
    [32336,"43254","28,1","0,4","ND","ND","ND","ND"],
    [32337,"43254,04167","14","0,2","ND","ND","ND","ND"],
    [32338,"43254,08333","16,7","0,2","ND","ND","ND","ND"],
    [32339,"43254,125","24,4","0,2","ND","ND","ND","ND"],
    [32340,"43254,16667","13,9","0,3","ND","ND","ND","ND"],
    [32341,"43254,20833","20,9","0,3","ND","ND","ND","ND"],
    [32342,"43254,25","44,2","0,4","ND","ND","ND","ND"],
    [32343,"43254,29167","48,2","0,7","ND","ND","ND","ND"],
    [32344,"43254,33333","41,9","1,1","ND","ND","ND","ND"],
    [32345,"43254,375","59,9","1,7","ND","ND","ND","ND"],
    [32346,"43254,41667","57,8","1,6","ND","ND","ND","ND"],
    [32347,"43254,45833","ND","1,6","ND","ND","ND","ND"],
    [32348,"43254,5","ND","1,5","ND","ND","ND","ND"],
    [32349,"43254,54167","ND","1,4","ND","ND","ND","ND"],
    [32350,"43254,58333","ND","1,2","ND","ND","ND","ND"],
    [32351,"43254,625","47,9","1,4","ND","ND","ND","ND"],
    [32352,"43254,66667","30","0,6","ND","ND","ND","ND"],
    [32353,"43254,70833","17,6","0,2","ND","ND","ND","ND"],
    [32354,"43254,75","20","0,1","ND","ND","ND","ND"],
    [32355,"43254,79167","18,5","0,4","ND","ND","ND","ND"],
    [32356,"43254,83333","16","0,2","ND","ND","ND","ND"],
    [32357,"43254,875","22,6","0,3","ND","ND","ND","ND"],
    [32358,"43254,91667","36,5","0,5","ND","ND","ND","ND"],
    [32359,"43254,95833","53,4","0,7","ND","ND","ND","ND"],
    [32360,"43284","37,6","0,5","ND","ND","ND","ND"],
    [32361,"43284,04167","41","0,3","ND","ND","ND","ND"],
    [32362,"43284,08333","41,6","0,4","ND","ND","ND","ND"],
    [32363,"43284,125","49,8","0,3","ND","ND","ND","ND"],
    [32364,"43284,16667","41,9","0,2","ND","ND","ND","ND"],
    [32365,"43284,20833","53,3","0,3","ND","ND","ND","ND"],
    [32366,"43284,25","60,5","0,7","ND","ND","ND","ND"],
    [32367,"43284,29167","63,2","0,7","ND","ND","ND","ND"],
    [32368,"43284,33333","72,2","1,2","ND","ND","ND","ND"],
    [32369,"43284,375","41","1,4","ND","ND","ND","ND"],
    [32370,"43284,41667","59,9","2,4","ND","ND","ND","ND"],
    [32371,"43284,45833","ND","5,9","ND","ND","ND","ND"],
    [32372,"43284,5","ND","4,2","ND","ND","ND","ND"],
    [32373,"43284,54167","ND","3,6","ND","ND","ND","ND"],
    [32374,"43284,58333","ND","2,2","ND","ND","ND","ND"],
    [32375,"43284,625","43,8","1","ND","ND","ND","ND"],
    [32376,"43284,66667","19,5","0,4","ND","ND","ND","ND"],
    [32377,"43284,70833","17,4","0,1","ND","ND","ND","ND"],
    [32378,"43284,75","25,2","0,2","ND","ND","ND","ND"],
    [32379,"43284,79167","19,3","0,3","ND","ND","ND","ND"],
    [32380,"43284,83333","15,4","0,2","ND","ND","ND","ND"],
    [32381,"43284,875","15,4","0,1","ND","ND","ND","ND"],
    [32382,"43284,91667","16,4","0,3","ND","ND","ND","ND"],
    [32383,"43284,95833","47,5","0,5","ND","ND","ND","ND"],
    [32384,"43315","74,8","0,4","ND","ND","ND","ND"],
    [32385,"43315,04167","45,8","0,2","ND","ND","ND","ND"],
    [32386,"43315,08333","29","0,3","ND","ND","ND","ND"],
    [32387,"43315,125","46","0,4","ND","ND","ND","ND"],
    [32388,"43315,16667","32,1","0,3","ND","ND","ND","ND"],
    [32389,"43315,20833","52,8","1,2","ND","ND","ND","ND"],
    [32390,"43315,25","78,7","0,6","ND","ND","ND","ND"],
    [32391,"43315,29167","89,8","0,9","ND","ND","ND","ND"],
    [32392,"43315,33333","81,4","0,9","ND","ND","ND","ND"],
    [32393,"43315,375","80,9","1,2","ND","ND","ND","ND"],
    [32394,"43315,41667","82","2","ND","ND","ND","ND"],
    [32395,"43315,45833","72,1","2,3","ND","ND","ND","ND"],
    [32396,"43315,5","59,3","2,5","ND","ND","ND","ND"],
    [32397,"43315,54167","58","2,7","ND","ND","ND","ND"],
    [32398,"43315,58333","52,1","2","ND","ND","ND","ND"],
    [32399,"43315,625","34","0,9","ND","ND","ND","ND"],
    [32400,"43315,66667","11,1","0,2","ND","ND","ND","ND"],
    [32401,"43315,70833","13,8","0,3","ND","ND","ND","ND"],
    [32402,"43315,75","14,3","0,1","ND","ND","ND","ND"],
    [32403,"43315,79167","16,1","0,1","ND","ND","ND","ND"],
    [32404,"43315,83333","18,5","0,2","ND","ND","ND","ND"],
    [32405,"43315,875","13,8","0,2","ND","ND","ND","ND"],
    [32406,"43315,91667","14,2","0,1","ND","ND","ND","ND"],
    [32407,"43315,95833","61,8","0,5","ND","ND","ND","ND"],
    [32408,"43346","57,6","0,6","ND","ND","ND","ND"],
    [32409,"43346,04167","53","0,6","ND","ND","ND","ND"],
    [32410,"43346,08333","61,4","0,6","ND","ND","ND","ND"],
    [32411,"43346,125","36,9","0,5","ND","ND","ND","ND"],
    [32412,"43346,16667","34,3","0,4","ND","ND","ND","ND"],
    [32413,"43346,20833","42,1","0,4","ND","ND","ND","ND"],
    [32414,"43346,25","54,8","0,4","ND","ND","ND","ND"],
    [32415,"43346,29167","78,9","0,9","ND","ND","ND","ND"],
    [32416,"43346,33333","81,9","1,3","ND","ND","ND","ND"],
    [32417,"43346,375","65,5","2,1","ND","ND","ND","ND"],
    [32418,"43346,41667","40,3","5,2","ND","ND","ND","ND"],
    [32419,"43346,45833","40,3","5","ND","ND","ND","ND"],
    [32420,"43346,5","53,3","3,1","ND","ND","ND","ND"],
    [32421,"43346,54167","39,9","2,5","ND","ND","ND","ND"],
    [32422,"43346,58333","44","2","ND","ND","ND","ND"],
    [32423,"43346,625","44","0,5","ND","ND","ND","ND"],
    [32424,"43346,66667","24,9","0,4","ND","ND","ND","ND"],
    [32425,"43346,70833","27","0,3","ND","ND","ND","ND"],
    [32426,"43346,75","34,9","0,2","ND","ND","ND","ND"],
    [32427,"43346,79167","26,7","0,1","ND","ND","ND","ND"],
    [32428,"43346,83333","23","0,1","ND","ND","ND","ND"],
    [32429,"43346,875","26,5","0,2","ND","ND","ND","ND"],
    [32430,"43346,91667","38,4","0,7","ND","ND","ND","ND"],
    [32431,"43346,95833","58,6","0,6","ND","ND","ND","ND"],
    [32432,"43376","39,2","0,5","ND","ND","ND","ND"],
    [32433,"43376,04167","38,7","0,4","ND","ND","ND","ND"],
    [32434,"43376,08333","35,6","0,3","ND","ND","ND","ND"],
    [32435,"43376,125","35,3","0,3","ND","ND","ND","ND"],
    [32436,"43376,16667","35,2","0,2","ND","ND","ND","ND"],
    [32437,"43376,20833","40,5","0,5","ND","ND","ND","ND"],
    [32438,"43376,25","47,3","0,6","ND","ND","ND","ND"],
    [32439,"43376,29167","54,4","0,6","ND","ND","ND","ND"],
    [32440,"43376,33333","54,4","0,9","ND","ND","ND","ND"],
    [32441,"43376,375","73","1,5","ND","ND","ND","ND"],
    [32442,"43376,41667","61,2","2,6","ND","ND","ND","ND"],
    [32443,"43376,45833","53,9","3,1","ND","ND","ND","ND"],
    [32444,"43376,5","56","3","ND","ND","ND","ND"],
    [32445,"43376,54167","59,4","2,7","ND","ND","ND","ND"],
    [32446,"43376,58333","59,3","2,6","ND","ND","ND","ND"],
    [32447,"43376,625","61,5","2,1","ND","ND","ND","ND"],
    [32448,"43376,66667","33,9","0,4","ND","ND","ND","ND"],
    [32449,"43376,70833","27,1","0","ND","ND","ND","ND"],
    [32450,"43376,75","37,7","0,1","ND","ND","ND","ND"],
    [32451,"43376,79167","26,4","0","ND","ND","ND","ND"],
    [32452,"43376,83333","23,7","0,1","ND","ND","ND","ND"],
    [32453,"43376,875","21,5","0,2","ND","ND","ND","ND"],
    [32454,"43376,91667","52,1","0,6","ND","ND","ND","ND"],
    [32455,"43376,95833","63,9","0,4","ND","ND","ND","ND"],
    [32456,"43407","44","0,3","ND","ND","ND","ND"],
    [32457,"43407,04167","35,6","0,2","ND","ND","ND","ND"],
    [32458,"43407,08333","37,7","0,1","ND","ND","ND","ND"],
    [32459,"43407,125","30,5","0,2","ND","ND","ND","ND"],
    [32460,"43407,16667","31,8","0,2","ND","ND","ND","ND"],
    [32461,"43407,20833","38,3","0,2","ND","ND","ND","ND"],
    [32462,"43407,25","37,2","0,3","ND","ND","ND","ND"],
    [32463,"43407,29167","43,2","0,2","ND","ND","ND","ND"],
    [32464,"43407,33333","57,8","0,4","ND","ND","ND","ND"],
    [32465,"43407,375","45,3","2,1","ND","ND","ND","ND"],
    [32466,"43407,41667","44,7","2,9","ND","ND","ND","ND"],
    [32467,"43407,45833","41,2","2,9","ND","ND","ND","ND"],
    [32468,"43407,5","41,6","2,6","ND","ND","ND","ND"],
    [32469,"43407,54167","46,9","2","ND","ND","ND","ND"],
    [32470,"43407,58333","46,9","2,1","ND","ND","ND","ND"],
    [32471,"43407,625","41,5","0,7","ND","ND","ND","ND"],
    [32472,"43407,66667","29,2","0,2","ND","ND","ND","ND"],
    [32473,"43407,70833","44,9","0,1","ND","ND","ND","ND"],
    [32474,"43407,75","41,4","ND","ND","ND","ND","ND"],
    [32475,"43407,79167","41,4","ND","ND","ND","ND","ND"],
    [32476,"43407,83333","16,5","ND","ND","ND","ND","ND"],
    [32477,"43407,875","17,6","0,1","ND","ND","ND","ND"],
    [32478,"43407,91667","47,9","0,9","ND","ND","ND","ND"],
    [32479,"43407,95833","45,7","1,4","ND","ND","ND","ND"],
    [32480,"43437","29,8","0,3","ND","ND","ND","ND"],
    [32481,"43437,04167","21,6","0,2","ND","ND","ND","ND"],
    [32482,"43437,08333","39,5","0,2","ND","ND","ND","ND"],
    [32483,"43437,125","21,9","0","ND","ND","ND","ND"],
    [32484,"43437,16667","26,5","0","ND","ND","ND","ND"],
    [32485,"43437,20833","32","0,1","ND","ND","ND","ND"],
    [32486,"43437,25","43,7","0,3","ND","ND","ND","ND"],
    [32487,"43437,29167","81,3","0,7","ND","ND","ND","ND"],
    [32488,"43437,33333","78,2","0,9","ND","ND","ND","ND"],
    [32489,"43437,375","65,6","2,1","ND","ND","ND","ND"],
    [32490,"43437,41667","75","3,1","ND","ND","ND","ND"],
    [32491,"43437,45833","55,5","2,9","ND","ND","ND","ND"],
    [32492,"43437,5","51,9","2,2","ND","ND","ND","ND"],
    [32493,"43437,54167","59,9","2,8","ND","ND","ND","ND"],
    [32494,"43437,58333","39,4","0,8","ND","ND","ND","ND"],
    [32495,"43437,625","26,1","0,2","ND","ND","ND","ND"],
    [32496,"43437,66667","23,3","ND","ND","ND","ND","ND"],
    [32497,"43437,70833","26","ND","ND","ND","ND","ND"],
    [32498,"43437,75","37,1","ND","ND","ND","ND","ND"],
    [32499,"43437,79167","26","ND","ND","ND","ND","ND"],
    [32500,"43437,83333","15,8","0,1","ND","ND","ND","ND"],
    [32501,"43437,875","40,8","0,6","ND","ND","ND","ND"],
    [32502,"43437,91667","47,6","1","ND","ND","ND","ND"],
    [32503,"43437,95833","51,9","0,6","ND","ND","ND","ND"],
    [32504,"03/13/2018 00:00","36,2","0,5","ND","ND","ND","ND"],
    [32505,"03/13/2018 01:00","45,8","1,3","ND","ND","ND","ND"],
    [32506,"03/13/2018 02:00","43","1,3","ND","ND","ND","ND"],
    [32507,"03/13/2018 03:00","36,7","1","ND","ND","ND","ND"],
    [32508,"03/13/2018 04:00","26,6","0,6","ND","ND","ND","ND"],
    [32509,"03/13/2018 05:00","43,4","0,9","ND","ND","ND","ND"],
    [32510,"03/13/2018 06:00","57,8","1","ND","ND","ND","ND"],
    [32511,"03/13/2018 07:00","69,5","0,9","ND","ND","ND","ND"],
    [32512,"03/13/2018 08:00","76,1","ND","ND","ND","ND","ND"],
    [32513,"03/13/2018 09:00","64,8","1,8","ND","ND","ND","ND"],
    [32514,"03/13/2018 10:00","39","2,1","ND","ND","ND","ND"],
    [32515,"03/13/2018 11:00","36,8","1,5","ND","ND","ND","ND"],
    [32516,"03/13/2018 12:00","46,5","1,4","ND","ND","ND","ND"],
    [32517,"03/13/2018 13:00","15,3","0,8","ND","ND","ND","ND"],
    [32518,"03/13/2018 14:00","16,2","0,2","ND","ND","ND","ND"],
    [32519,"03/13/2018 15:00","24,5","ND","ND","ND","ND","ND"],
    [32520,"03/13/2018 16:00","30,9","ND","ND","ND","ND","ND"],
    [32521,"03/13/2018 17:00","30,9","0,1","ND","ND","ND","ND"],
    [32522,"03/13/2018 18:00","22,4","ND","ND","ND","ND","ND"],
    [32523,"03/13/2018 19:00","27,5","0,1","ND","ND","ND","ND"],
    [32524,"03/13/2018 20:00","16,8","0,1","ND","ND","ND","ND"],
    [32525,"03/13/2018 21:00","27,4","0,5","ND","ND","ND","ND"],
    [32526,"03/13/2018 22:00","63,2","0,9","ND","ND","ND","ND"],
    [32527,"03/13/2018 23:00","58,1","0,6","ND","ND","ND","ND"],
    [32528,"03/14/2018 00:00","33,4","0,3","ND","ND","ND","ND"],
    [32529,"03/14/2018 01:00","32,8","0,3","ND","ND","ND","ND"],
    [32530,"03/14/2018 02:00","21,4","0,3","ND","ND","ND","ND"],
    [32531,"03/14/2018 03:00","24","0,2","ND","ND","ND","ND"],
    [32532,"03/14/2018 04:00","27,8","0,2","ND","ND","ND","ND"],
    [32533,"03/14/2018 05:00","37,6","0,7","ND","ND","ND","ND"],
    [32534,"03/14/2018 06:00","50,4","0,4","ND","ND","ND","ND"],
    [32535,"03/14/2018 07:00","66,1","0,6","ND","ND","ND","ND"],
    [32536,"03/14/2018 08:00","81","0,8","ND","ND","ND","ND"],
    [32537,"03/14/2018 09:00","ND","2,8","ND","ND","ND","ND"],
    [32538,"03/14/2018 10:00","ND","5,9","ND","ND","ND","ND"],
    [32539,"03/14/2018 11:00","ND","3,6","ND","ND","ND","ND"],
    [32540,"03/14/2018 12:00","ND","3,4","ND","ND","ND","ND"],
    [32541,"03/14/2018 13:00","69,1","3,4","ND","ND","ND","ND"],
    [32542,"03/14/2018 14:00","25,8","1,4","ND","ND","ND","ND"],
    [32543,"03/14/2018 15:00","23,4","0,3","ND","ND","ND","ND"],
    [32544,"03/14/2018 16:00","21","0,1","ND","ND","ND","ND"],
    [32545,"03/14/2018 17:00","31,2","ND","ND","ND","ND","ND"],
    [32546,"03/14/2018 18:00","38,7","ND","ND","ND","ND","ND"],
    [32547,"03/14/2018 19:00","30,2","0","ND","ND","ND","ND"],
    [32548,"03/14/2018 20:00","23,3","0,1","ND","ND","ND","ND"],
    [32549,"03/14/2018 21:00","54,3","0,4","ND","ND","ND","ND"],
    [32550,"03/14/2018 22:00","68","0,8","ND","ND","ND","ND"],
    [32551,"03/14/2018 23:00","58","0,7","ND","ND","ND","ND"],
    [32552,"03/15/2018 00:00","52,9","0,4","ND","ND","ND","ND"],
    [32553,"03/15/2018 01:00","38,6","0,3","ND","ND","ND","ND"],
    [32554,"03/15/2018 02:00","26,9","0,3","ND","ND","ND","ND"],
    [32555,"03/15/2018 03:00","44,2","0,2","ND","ND","ND","ND"],
    [32556,"03/15/2018 04:00","35,8","0,2","ND","ND","ND","ND"],
    [32557,"03/15/2018 05:00","56,7","0,9","ND","ND","ND","ND"],
    [32558,"03/15/2018 06:00","76,7","0,7","ND","ND","ND","ND"],
    [32559,"03/15/2018 07:00","83,5","0,8","ND","ND","ND","ND"],
    [32560,"03/15/2018 08:00","94,7","1,5","ND","ND","ND","ND"],
    [32561,"03/15/2018 09:00","74,3","3","ND","ND","ND","ND"],
    [32562,"03/15/2018 10:00","58,6","5,5","ND","ND","ND","ND"],
    [32563,"03/15/2018 11:00","50,7","4,2","ND","ND","ND","ND"],
    [32564,"03/15/2018 12:00","41,5","2,3","ND","ND","ND","ND"],
    [32565,"03/15/2018 13:00","26,1","0,7","ND","ND","ND","ND"],
    [32566,"03/15/2018 14:00","14,4","0,5","ND","ND","ND","ND"],
    [32567,"03/15/2018 15:00","15,9","0,4","ND","ND","ND","ND"],
    [32568,"03/15/2018 16:00","27,8","0,1","ND","ND","ND","ND"],
    [32569,"03/15/2018 17:00","25,9","ND","ND","ND","ND","ND"],
    [32570,"03/15/2018 18:00","20,2","0","ND","ND","ND","ND"],
    [32571,"03/15/2018 19:00","44,7","0,5","ND","ND","ND","ND"],
    [32572,"03/15/2018 20:00","42,2","0,5","ND","ND","ND","ND"],
    [32573,"03/15/2018 21:00","43,4","1,6","ND","ND","ND","ND"],
    [32574,"03/15/2018 22:00","64,6","1,2","ND","ND","ND","ND"],
    [32575,"03/15/2018 23:00","55,1","1","ND","ND","ND","ND"],
    [32576,"03/16/2018 00:00","64,6","0,8","ND","ND","ND","ND"],
    [32577,"03/16/2018 01:00","39,4","0,7","ND","ND","ND","ND"],
    [32578,"03/16/2018 02:00","32,9","0,5","ND","ND","ND","ND"],
    [32579,"03/16/2018 03:00","44,8","0,6","ND","ND","ND","ND"],
    [32580,"03/16/2018 04:00","35,6","0,4","ND","ND","ND","ND"],
    [32581,"03/16/2018 05:00","60,3","0,7","ND","ND","ND","ND"],
    [32582,"03/16/2018 06:00","74,4","0,7","ND","ND","ND","ND"],
    [32583,"03/16/2018 07:00","80,1","0,9","ND","ND","ND","ND"],
    [32584,"03/16/2018 08:00","82,1","1,1","ND","ND","ND","ND"],
    [32585,"03/16/2018 09:00","92","1,9","ND","ND","ND","ND"],
    [32586,"03/16/2018 10:00","64,9","2,3","ND","ND","ND","ND"],
    [32587,"03/16/2018 11:00","53,6","2,3","ND","ND","ND","ND"],
    [32588,"03/16/2018 12:00","55,1","1,8","ND","ND","ND","ND"],
    [32589,"03/16/2018 13:00","55,4","2","ND","ND","ND","ND"],
    [32590,"03/16/2018 14:00","60,8","1,7","ND","ND","ND","ND"],
    [32591,"03/16/2018 15:00","68,1","1,4","ND","ND","ND","ND"],
    [32592,"03/16/2018 16:00","32,4","0,1","ND","ND","ND","ND"],
    [32593,"03/16/2018 17:00","32","ND","ND","ND","ND","ND"],
    [32594,"03/16/2018 18:00","36,4","ND","ND","ND","ND","ND"],
    [32595,"03/16/2018 19:00","32","0,1","ND","ND","ND","ND"],
    [32596,"03/16/2018 20:00","23,7","0,1","ND","ND","ND","ND"],
    [32597,"03/16/2018 21:00","20,8","0,1","ND","ND","ND","ND"],
    [32598,"03/16/2018 22:00","55,1","0,6","ND","ND","ND","ND"],
    [32599,"03/16/2018 23:00","56,9","0,4","ND","ND","ND","ND"],
    [32600,"03/17/2018 00:00","45,1","0,4","ND","ND","ND","ND"],
    [32601,"03/17/2018 01:00","32,4","0,2","ND","ND","ND","ND"],
    [32602,"03/17/2018 02:00","37,7","0,3","ND","ND","ND","ND"],
    [32603,"03/17/2018 03:00","34","0,2","ND","ND","ND","ND"],
    [32604,"03/17/2018 04:00","36,5","0,1","ND","ND","ND","ND"],
    [32605,"03/17/2018 05:00","35,6","0,3","ND","ND","ND","ND"],
    [32606,"03/17/2018 06:00","45,4","0,4","ND","ND","ND","ND"],
    [32607,"03/17/2018 07:00","53,2","0,4","ND","ND","ND","ND"],
    [32608,"03/17/2018 08:00","75,9","0,7","ND","ND","ND","ND"],
    [32609,"03/17/2018 09:00","73,4","1,7","ND","ND","ND","ND"],
    [32610,"03/17/2018 10:00","74","5,2","ND","ND","ND","ND"],
    [32611,"03/17/2018 11:00","74","5,3","ND","ND","ND","ND"],
    [32612,"03/17/2018 12:00","60,1","5,6","ND","ND","ND","ND"],
    [32613,"03/17/2018 13:00","9,1","2,4","ND","ND","ND","ND"],
    [32614,"03/17/2018 14:00","17,2","0,4","ND","ND","ND","ND"],
    [32615,"03/17/2018 15:00","19,4","0,3","ND","ND","ND","ND"],
    [32616,"03/17/2018 16:00","17,6","ND","ND","ND","ND","ND"],
    [32617,"03/17/2018 17:00","18,2","ND","ND","ND","ND","ND"],
    [32618,"03/17/2018 18:00","22","ND","ND","ND","ND","ND"],
    [32619,"03/17/2018 19:00","23","0,1","ND","ND","ND","ND"],
    [32620,"03/17/2018 20:00","34,3","0,5","ND","ND","ND","ND"],
    [32621,"03/17/2018 21:00","9","0,4","ND","ND","ND","ND"],
    [32622,"03/17/2018 22:00","9,7","0,2","ND","ND","ND","ND"],
    [32623,"03/17/2018 23:00","45,9","0,4","ND","ND","ND","ND"],
    [32624,"03/18/2018 00:00","33,1","0,3","ND","ND","ND","ND"],
    [32625,"03/18/2018 01:00","25,6","0,2","ND","ND","ND","ND"],
    [32626,"03/18/2018 02:00","22,1","0,3","ND","ND","ND","ND"],
    [32627,"03/18/2018 03:00","23,3","0,2","ND","ND","ND","ND"],
    [32628,"03/18/2018 04:00","27,3","0,2","ND","ND","ND","ND"],
    [32629,"03/18/2018 05:00","28,5","0,2","ND","ND","ND","ND"],
    [32630,"03/18/2018 06:00","28,5","0,2","ND","ND","ND","ND"],
    [32631,"03/18/2018 07:00","50,2","0,6","ND","ND","ND","ND"],
    [32632,"03/18/2018 08:00","45,1","0,7","ND","ND","ND","ND"],
    [32633,"03/18/2018 09:00","41,8","1,3","ND","ND","ND","ND"],
    [32634,"03/18/2018 10:00","32,6","2,1","ND","ND","ND","ND"],
    [32635,"03/18/2018 11:00","36,9","2,4","ND","ND","ND","ND"],
    [32636,"03/18/2018 12:00","36,9","1,8","ND","ND","ND","ND"],
    [32637,"03/18/2018 13:00","38,2","2,8","ND","ND","ND","ND"],
    [32638,"03/18/2018 14:00","19,9","3,4","ND","ND","ND","ND"],
    [32639,"03/18/2018 15:00","11","0,7","ND","ND","ND","ND"],
    [32640,"03/18/2018 16:00","16,3","0,2","ND","ND","ND","ND"],
    [32641,"03/18/2018 17:00","22,4","0,1","ND","ND","ND","ND"],
    [32642,"03/18/2018 18:00","39,4","0,1","ND","ND","ND","ND"],
    [32643,"03/18/2018 19:00","47,2","1,7","ND","ND","ND","ND"],
    [32644,"03/18/2018 20:00","27,8","0,9","ND","ND","ND","ND"],
    [32645,"03/18/2018 21:00","30,7","0,9","ND","ND","ND","ND"],
    [32646,"03/18/2018 22:00","32,2","1,7","ND","ND","ND","ND"],
    [32647,"03/18/2018 23:00","23,4","1,4","ND","ND","ND","ND"],
    [32648,"03/19/2018 00:00","48,4","0,8","ND","ND","ND","ND"],
    [32649,"03/19/2018 01:00","28","0,5","ND","ND","ND","ND"],
    [32650,"03/19/2018 02:00","33,9","0,3","ND","ND","ND","ND"],
    [32651,"03/19/2018 03:00","32,1","0,3","ND","ND","ND","ND"],
    [32652,"03/19/2018 04:00","38,4","0,4","ND","ND","ND","ND"],
    [32653,"03/19/2018 05:00","8,9","0,2","ND","ND","ND","ND"],
    [32654,"03/19/2018 06:00","24,9","0,3","ND","ND","ND","ND"],
    [32655,"03/19/2018 07:00","29,9","0,2","ND","ND","ND","ND"],
    [32656,"03/19/2018 08:00","28","0,3","ND","ND","ND","ND"],
    [32657,"03/19/2018 09:00","24,9","0,4","ND","ND","ND","ND"],
    [32658,"03/19/2018 10:00","12,4","0,4","ND","ND","ND","ND"],
    [32659,"03/19/2018 11:00","28,5","0,4","ND","ND","ND","ND"],
    [32660,"03/19/2018 12:00","15,4","0,6","ND","ND","ND","ND"],
    [32661,"03/19/2018 13:00","19,1","0,7","ND","ND","ND","ND"],
    [32662,"03/19/2018 14:00","9,8","0,1","ND","ND","ND","ND"],
    [32663,"03/19/2018 15:00","8,5","0,1","ND","ND","ND","ND"],
    [32664,"03/19/2018 16:00","7,8","0,1","ND","ND","ND","ND"],
    [32665,"03/19/2018 17:00","17,1","ND","ND","ND","ND","ND"],
    [32666,"03/19/2018 18:00","47,2","0,3","ND","ND","ND","ND"],
    [32667,"03/19/2018 19:00","22","0,3","ND","ND","ND","ND"],
    [32668,"03/19/2018 20:00","31,1","0,3","ND","ND","ND","ND"],
    [32669,"03/19/2018 21:00","20,7","0,6","ND","ND","ND","ND"],
    [32670,"03/19/2018 22:00","34,4","0,3","ND","ND","ND","ND"],
    [32671,"03/19/2018 23:00","39,9","0,4","ND","ND","ND","ND"],
    [32672,"03/20/2018 00:00","32,4","0,2","ND","ND","ND","ND"],
    [32673,"03/20/2018 01:00","23,2","0,1","ND","ND","ND","ND"],
    [32674,"03/20/2018 02:00","33,7","0,2","ND","ND","ND","ND"],
    [32675,"03/20/2018 03:00","30,7","0,3","ND","ND","ND","ND"],
    [32676,"03/20/2018 04:00","33,1","0,5","ND","ND","ND","ND"],
    [32677,"03/20/2018 05:00","29","0,4","ND","ND","ND","ND"],
    [32678,"03/20/2018 06:00","26,2","0,6","ND","ND","ND","ND"],
    [32679,"03/20/2018 07:00","38,1","0,9","ND","ND","ND","ND"],
    [32680,"03/20/2018 08:00","26","0,7","ND","ND","ND","ND"],
    [32681,"03/20/2018 09:00","14,6","0,4","ND","ND","ND","ND"],
    [32682,"03/20/2018 10:00","18,1","0,4","ND","ND","ND","ND"],
    [32683,"03/20/2018 11:00","10,5","0,4","ND","ND","ND","ND"],
    [32684,"03/20/2018 12:00","13,6","0,5","ND","ND","ND","ND"],
    [32685,"03/20/2018 13:00","28,3","0,7","ND","ND","ND","ND"],
    [32686,"03/20/2018 14:00","25,1","0,6","ND","ND","ND","ND"],
    [32687,"03/20/2018 15:00","36","0,9","ND","ND","ND","ND"],
    [32688,"03/20/2018 16:00","42,7","1,1","ND","ND","ND","ND"],
    [32689,"03/20/2018 17:00","26,6","0,8","ND","ND","ND","ND"],
    [32690,"03/20/2018 18:00","31,6","0,4","ND","ND","ND","ND"],
    [32691,"03/20/2018 19:00","41,2","0,5","ND","ND","ND","ND"],
    [32692,"03/20/2018 20:00","33,9","0,5","ND","ND","ND","ND"],
    [32693,"03/20/2018 21:00","39","0,4","ND","ND","ND","ND"],
    [32694,"03/20/2018 22:00","29,8","0,3","ND","ND","ND","ND"],
    [32695,"03/20/2018 23:00","26,6","0,3","ND","ND","ND","ND"],
    [32696,"03/21/2018 00:00","28,8","0,2","ND","ND","ND","ND"],
    [32697,"03/21/2018 01:00","35,3","0,3","ND","ND","ND","ND"],
    [32698,"03/21/2018 02:00","33,9","0,3","ND","ND","ND","ND"],
    [32699,"03/21/2018 03:00","32,5","0,1","ND","ND","ND","ND"],
    [32700,"03/21/2018 04:00","24,6","0,1","ND","ND","ND","ND"],
    [32701,"03/21/2018 05:00","38,9","0,2","ND","ND","ND","ND"],
    [32702,"03/21/2018 06:00","59,6","0,4","ND","ND","ND","ND"],
    [32703,"03/21/2018 07:00","69,1","0,9","ND","ND","ND","ND"],
    [32704,"03/21/2018 08:00","91,1","1,1","ND","ND","ND","ND"],
    [32705,"03/21/2018 09:00","80,3","1,4","ND","ND","ND","ND"],
    [32706,"03/21/2018 10:00","67,3","2","ND","ND","ND","ND"],
    [32707,"03/21/2018 11:00","43,5","1,8","ND","ND","ND","ND"],
    [32708,"03/21/2018 12:00","49,4","1,8","ND","ND","ND","ND"],
    [32709,"03/21/2018 13:00","44,2","1,5","ND","ND","ND","ND"],
    [32710,"03/21/2018 14:00","54","1,3","ND","ND","ND","ND"],
    [32711,"03/21/2018 15:00","57","1,8","ND","ND","ND","ND"],
    [32712,"03/21/2018 16:00","32","0,3","ND","ND","ND","ND"],
    [32713,"03/21/2018 17:00","21,1","ND","ND","ND","ND","ND"],
    [32714,"03/21/2018 18:00","18","0","ND","ND","ND","ND"],
    [32715,"03/21/2018 19:00","18,5","0,1","ND","ND","ND","ND"],
    [32716,"03/21/2018 20:00","15,2","0,1","ND","ND","ND","ND"],
    [32717,"03/21/2018 21:00","17,1","0,1","ND","ND","ND","ND"],
    [32718,"03/21/2018 22:00","18,4","0,3","ND","ND","ND","ND"],
    [32719,"03/21/2018 23:00","32,7","0,2","ND","ND","ND","ND"],
    [32720,"03/22/2018 00:00","48,7","0,3","ND","ND","ND","ND"],
    [32721,"03/22/2018 01:00","33","0,1","ND","ND","ND","ND"],
    [32722,"03/22/2018 02:00","32,9","0,1","ND","ND","ND","ND"],
    [32723,"03/22/2018 03:00","45,9","0,2","ND","ND","ND","ND"],
    [32724,"03/22/2018 04:00","26,2","0,1","ND","ND","ND","ND"],
    [32725,"03/22/2018 05:00","30,7","0,2","ND","ND","ND","ND"],
    [32726,"03/22/2018 06:00","39,8","0,7","ND","ND","ND","ND"],
    [32727,"03/22/2018 07:00","77,6","0,6","ND","ND","ND","ND"],
    [32728,"03/22/2018 08:00","61,9","0,7","ND","ND","ND","ND"],
    [32729,"03/22/2018 09:00","58,6","1,1","ND","ND","ND","ND"],
    [32730,"03/22/2018 10:00","44,1","2,6","ND","ND","ND","ND"],
    [32731,"03/22/2018 11:00","22,5","1,4","ND","ND","ND","ND"],
    [32732,"03/22/2018 12:00","ND","0,4","ND","ND","ND","ND"],
    [32733,"03/22/2018 13:00","ND","0,2","ND","ND","ND","ND"],
    [32734,"03/22/2018 14:00","7","0,2","ND","ND","ND","ND"],
    [32735,"03/22/2018 15:00","8,3","0,1","ND","ND","ND","ND"],
    [32736,"03/22/2018 16:00","11,9","ND","ND","ND","ND","ND"],
    [32737,"03/22/2018 17:00","16,9","ND","ND","ND","ND","ND"],
    [32738,"03/22/2018 18:00","13,9","ND","ND","ND","ND","ND"],
    [32739,"03/22/2018 19:00","17,4","ND","ND","ND","ND","ND"],
    [32740,"03/22/2018 20:00","23,2","0,2","ND","ND","ND","ND"],
    [32741,"03/22/2018 21:00","13,9","0,2","ND","ND","ND","ND"],
    [32742,"03/22/2018 22:00","12,4","0,1","ND","ND","ND","ND"],
    [32743,"03/22/2018 23:00","48,2","0,3","ND","ND","ND","ND"],
    [32744,"03/23/2018 00:00","41,6","0,3","ND","ND","ND","ND"],
    [32745,"03/23/2018 01:00","26,4","0,2","ND","ND","ND","ND"],
    [32746,"03/23/2018 02:00","26,7","0,2","ND","ND","ND","ND"],
    [32747,"03/23/2018 03:00","32,4","0,2","ND","ND","ND","ND"],
    [32748,"03/23/2018 04:00","45,9","0,2","ND","ND","ND","ND"],
    [32749,"03/23/2018 05:00","54,4","0,2","ND","ND","ND","ND"],
    [32750,"03/23/2018 06:00","45,8","0,3","ND","ND","ND","ND"],
    [32751,"03/23/2018 07:00","55,3","0,6","ND","ND","ND","ND"],
    [32752,"03/23/2018 08:00","73,3","1,3","ND","ND","ND","ND"],
    [32753,"03/23/2018 09:00","48,3","2,7","ND","ND","ND","ND"],
    [32754,"03/23/2018 10:00","39,2","3,4","ND","ND","ND","ND"],
    [32755,"03/23/2018 11:00","27,7","2,8","ND","ND","ND","ND"],
    [32756,"03/23/2018 12:00","46,3","2,1","ND","ND","ND","ND"],
    [32757,"03/23/2018 13:00","63,4","2","ND","ND","ND","ND"],
    [32758,"03/23/2018 14:00","33,2","1,5","ND","ND","ND","ND"],
    [32759,"03/23/2018 15:00","20,9","0,5","ND","ND","ND","ND"],
    [32760,"03/23/2018 16:00","22,8","0,2","ND","ND","ND","ND"],
    [32761,"03/23/2018 17:00","23,5","0,1","ND","ND","ND","ND"],
    [32762,"03/23/2018 18:00","54,6","0,3","ND","ND","ND","ND"],
    [32763,"03/23/2018 19:00","54,6","0,5","ND","ND","ND","ND"],
    [32764,"03/23/2018 20:00","20,4","0,7","ND","ND","ND","ND"],
    [32765,"03/23/2018 21:00","44,8","0,7","ND","ND","ND","ND"],
    [32766,"03/23/2018 22:00","37,2","1,1","ND","ND","ND","ND"],
    [32767,"03/23/2018 23:00","42,3","0,8","ND","ND","ND","ND"],
    [32768,"03/24/2018 00:00","34,7","0,3","ND","ND","ND","ND"],
    [32769,"03/24/2018 01:00","25","0,2","ND","ND","ND","ND"],
    [32770,"03/24/2018 02:00","31","0,3","ND","ND","ND","ND"],
    [32771,"03/24/2018 03:00","33,1","0,3","ND","ND","ND","ND"],
    [32772,"03/24/2018 04:00","25,9","0,2","ND","ND","ND","ND"],
    [32773,"03/24/2018 05:00","22,2","0,3","ND","ND","ND","ND"],
    [32774,"03/24/2018 06:00","39,4","0,6","ND","ND","ND","ND"],
    [32775,"03/24/2018 07:00","1,9","1","ND","ND","ND","ND"],
    [32776,"03/24/2018 08:00","17,3","1","ND","ND","ND","ND"],
    [32777,"03/24/2018 09:00","21,6","1,3","ND","ND","ND","ND"],
    [32778,"03/24/2018 10:00","28,1","1,1","ND","ND","ND","ND"],
    [32779,"03/24/2018 11:00","7,9","0,7","ND","ND","ND","ND"],
    [32780,"03/24/2018 12:00","13,7","0,6","ND","ND","ND","ND"],
    [32781,"03/24/2018 13:00","15,5","0,6","ND","ND","ND","ND"],
    [32782,"03/24/2018 14:00","24,9","0,7","ND","ND","ND","ND"],
    [32783,"03/24/2018 15:00","47,3","1","ND","ND","ND","ND"],
    [32784,"03/24/2018 16:00","42","1,3","ND","ND","ND","ND"],
    [32785,"03/24/2018 17:00","52","1","ND","ND","ND","ND"],
    [32786,"03/24/2018 18:00","61,1","1,1","ND","ND","ND","ND"],
    [32787,"03/24/2018 19:00","54,2","0,5","ND","ND","ND","ND"],
    [32788,"03/24/2018 20:00","58,4","0,5","ND","ND","ND","ND"],
    [32789,"03/24/2018 21:00","56,6","0,5","ND","ND","ND","ND"],
    [32790,"03/24/2018 22:00","50,9","0,7","ND","ND","ND","ND"],
    [32791,"03/24/2018 23:00","52,7","0,6","ND","ND","ND","ND"],
    [32792,"03/25/2018 00:00","30,3","0,4","ND","ND","ND","ND"],
    [32793,"03/25/2018 01:00","30,8","0,3","ND","ND","ND","ND"],
    [32794,"03/25/2018 02:00","30","0,2","ND","ND","ND","ND"],
    [32795,"03/25/2018 03:00","34,1","0,3","ND","ND","ND","ND"],
    [32796,"03/25/2018 04:00","30,3","0,2","ND","ND","ND","ND"],
    [32797,"03/25/2018 05:00","27,9","0,1","ND","ND","ND","ND"],
    [32798,"03/25/2018 06:00","45,1","0,3","ND","ND","ND","ND"],
    [32799,"03/25/2018 07:00","70,7","0,7","ND","ND","ND","ND"],
    [32800,"03/25/2018 08:00","69,5","0,6","ND","ND","ND","ND"],
    [32801,"03/25/2018 09:00","69,5","0,9","ND","ND","ND","ND"],
    [32802,"03/25/2018 10:00","46,8","1,7","ND","ND","ND","ND"],
    [32803,"03/25/2018 11:00","65,9","2,5","ND","ND","ND","ND"],
    [32804,"03/25/2018 12:00","40,7","2,2","ND","ND","ND","ND"],
    [32805,"03/25/2018 13:00","37,1","1,9","ND","ND","ND","ND"],
    [32806,"03/25/2018 14:00","30,3","3,1","ND","ND","ND","ND"],
    [32807,"03/25/2018 15:00","7,1","0,2","ND","ND","ND","ND"],
    [32808,"03/25/2018 16:00","10,5","0,2","ND","ND","ND","ND"],
    [32809,"03/25/2018 17:00","21,8","ND","ND","ND","ND","ND"],
    [32810,"03/25/2018 18:00","14","ND","ND","ND","ND","ND"],
    [32811,"03/25/2018 19:00","7,9","ND","ND","ND","ND","ND"],
    [32812,"03/25/2018 20:00","8,6","ND","ND","ND","ND","ND"],
    [32813,"03/25/2018 21:00","29,1","0,1","ND","ND","ND","ND"],
    [32814,"03/25/2018 22:00","45,4","0,8","ND","ND","ND","ND"],
    [32815,"03/25/2018 23:00","36,5","0,4","ND","ND","ND","ND"],
    [32816,"03/26/2018 00:00","35,1","0,3","ND","ND","ND","ND"],
    [32817,"03/26/2018 01:00","25,3","0,2","ND","ND","ND","ND"],
    [32818,"03/26/2018 02:00","26,7","0,2","ND","ND","ND","ND"],
    [32819,"03/26/2018 03:00","23,3","0,2","ND","ND","ND","ND"],
    [32820,"03/26/2018 04:00","25,5","0,2","ND","ND","ND","ND"],
    [32821,"03/26/2018 05:00","36,6","0,1","ND","ND","ND","ND"],
    [32822,"03/26/2018 06:00","12,9","0,1","ND","ND","ND","ND"],
    [32823,"03/26/2018 07:00","32,7","0,3","ND","ND","ND","ND"],
    [32824,"03/26/2018 08:00","31,8","0,3","ND","ND","ND","ND"],
    [32825,"03/26/2018 09:00","75,5","2,1","ND","ND","ND","ND"],
    [32826,"03/26/2018 10:00","84,9","6,6","ND","ND","ND","ND"],
    [32827,"03/26/2018 11:00","73","4,8","ND","ND","ND","ND"],
    [32828,"03/26/2018 12:00","43,8","4,5","ND","ND","ND","ND"],
    [32829,"03/26/2018 13:00","34,3","3,1","ND","ND","ND","ND"],
    [32830,"03/26/2018 14:00","28,7","1,6","ND","ND","ND","ND"],
    [32831,"03/26/2018 15:00","12,2","0,7","ND","ND","ND","ND"],
    [32832,"03/26/2018 16:00","13,1","0,9","ND","ND","ND","ND"],
    [32833,"03/26/2018 17:00","24,6","0,3","ND","ND","ND","ND"],
    [32834,"03/26/2018 18:00","7,7","0,1","ND","ND","ND","ND"],
    [32835,"03/26/2018 19:00","12,7","0,2","ND","ND","ND","ND"],
    [32836,"03/26/2018 20:00","14,3","0,2","ND","ND","ND","ND"],
    [32837,"03/26/2018 21:00","45,1","0,6","ND","ND","ND","ND"],
    [32838,"03/26/2018 22:00","28,5","0,4","ND","ND","ND","ND"],
    [32839,"03/26/2018 23:00","27,3","0,3","ND","ND","ND","ND"],
    [32840,"03/27/2018 00:00","ND","0,2","ND","ND","ND","ND"],
    [32841,"03/27/2018 01:00","22,1","0,1","ND","ND","ND","ND"],
    [32842,"03/27/2018 02:00","11,5","0,1","ND","ND","ND","ND"],
    [32843,"03/27/2018 03:00","15,3","0,1","ND","ND","ND","ND"],
    [32844,"03/27/2018 04:00","24","0","ND","ND","ND","ND"],
    [32845,"03/27/2018 05:00","26,6","0,1","ND","ND","ND","ND"],
    [32846,"03/27/2018 06:00","58,9","0,5","ND","ND","ND","ND"],
    [32847,"03/27/2018 07:00","56,4","0,9","ND","ND","ND","ND"],
    [32848,"03/27/2018 08:00","49,2","0,7","ND","ND","ND","ND"],
    [32849,"03/27/2018 09:00","55,7","1,3","ND","ND","ND","ND"],
    [32850,"03/27/2018 10:00","47,2","1,5","ND","ND","ND","ND"],
    [32851,"03/27/2018 11:00","23,4","0,9","ND","ND","ND","ND"],
    [32852,"03/27/2018 12:00","21,1","0,6","ND","ND","ND","ND"],
    [32853,"03/27/2018 13:00","20,6","0,7","ND","ND","ND","ND"],
    [32854,"03/27/2018 14:00","36,6","0,7","ND","ND","ND","ND"],
    [32855,"03/27/2018 15:00","39,4","0,6","ND","ND","ND","ND"],
    [32856,"03/27/2018 16:00","47,1","0,4","ND","ND","ND","ND"],
    [32857,"03/27/2018 17:00","ND","0,3","ND","ND","ND","ND"],
    [32858,"03/27/2018 18:00","49,4","0,7","ND","ND","ND","ND"],
    [32859,"03/27/2018 19:00","44,9","0,5","ND","ND","ND","ND"],
    [32860,"03/27/2018 20:00","46,9","0,8","ND","ND","ND","ND"],
    [32861,"03/27/2018 21:00","27,8","0,5","ND","ND","ND","ND"],
    [32862,"03/27/2018 22:00","37,7","0,7","ND","ND","ND","ND"],
    [32863,"03/27/2018 23:00","45,8","0,5","ND","ND","ND","ND"],
    [32864,"03/28/2018 00:00","36,8","0,6","ND","ND","ND","ND"],
    [32865,"03/28/2018 01:00","34,6","0,2","ND","ND","ND","ND"],
    [32866,"03/28/2018 02:00","25,4","0,3","ND","ND","ND","ND"],
    [32867,"03/28/2018 03:00","23,3","0,3","ND","ND","ND","ND"],
    [32868,"03/28/2018 04:00","39,7","0,2","ND","ND","ND","ND"],
    [32869,"03/28/2018 05:00","34,8","1,1","ND","ND","ND","ND"],
    [32870,"03/28/2018 06:00","88,4","0,4","ND","ND","ND","ND"],
    [32871,"03/28/2018 07:00","64,2","0,5","ND","ND","ND","ND"],
    [32872,"03/28/2018 08:00","51,8","0,6","ND","ND","ND","ND"],
    [32873,"03/28/2018 09:00","51,5","0,7","ND","ND","ND","ND"],
    [32874,"03/28/2018 10:00","65,7","0,6","ND","ND","ND","ND"],
    [32875,"03/28/2018 11:00","64,7","0,7","ND","ND","ND","ND"],
    [32876,"03/28/2018 12:00","66,2","1","ND","ND","ND","ND"],
    [32877,"03/28/2018 13:00","47,3","1,6","ND","ND","ND","ND"],
    [32878,"03/28/2018 14:00","ND","0,5","ND","ND","ND","ND"],
    [32879,"03/28/2018 15:00","22,7","0,4","ND","ND","ND","ND"],
    [32880,"03/28/2018 16:00","27,2","0,4","ND","ND","ND","ND"],
    [32881,"03/28/2018 17:00","24,4","0,4","ND","ND","ND","ND"],
    [32882,"03/28/2018 18:00","11,1","0,3","ND","ND","ND","ND"],
    [32883,"03/28/2018 19:00","36,5","0,3","ND","ND","ND","ND"],
    [32884,"03/28/2018 20:00","15,9","0,4","ND","ND","ND","ND"],
    [32885,"03/28/2018 21:00","30,9","0,3","ND","ND","ND","ND"],
    [32886,"03/28/2018 22:00","40,3","0,3","ND","ND","ND","ND"],
    [32887,"03/28/2018 23:00","36,1","0,3","ND","ND","ND","ND"],
    [32888,"03/29/2018 00:00","37,4","0,2","ND","ND","ND","ND"],
    [32889,"03/29/2018 01:00","27,4","0,2","ND","ND","ND","ND"],
    [32890,"03/29/2018 02:00","33","0,1","ND","ND","ND","ND"],
    [32891,"03/29/2018 03:00","36,7","0","ND","ND","ND","ND"],
    [32892,"03/29/2018 04:00","37,7","ND","ND","ND","ND","ND"],
    [32893,"03/29/2018 05:00","43","0","ND","ND","ND","ND"],
    [32894,"03/29/2018 06:00","54,1","0,3","ND","ND","ND","ND"],
    [32895,"03/29/2018 07:00","53,5","0,2","ND","ND","ND","ND"],
    [32896,"03/29/2018 08:00","53,3","0,1","ND","ND","ND","ND"],
    [32897,"03/29/2018 09:00","44,6","0,3","ND","ND","ND","ND"],
    [32898,"03/29/2018 10:00","51,4","0,8","ND","ND","ND","ND"],
    [32899,"03/29/2018 11:00","48,6","1","ND","ND","ND","ND"],
    [32900,"03/29/2018 12:00","43,2","2,4","ND","ND","ND","ND"],
    [32901,"03/29/2018 13:00","39,4","2,5","ND","ND","ND","ND"],
    [32902,"03/29/2018 14:00","31,9","1,7","ND","ND","ND","ND"],
    [32903,"03/29/2018 15:00","25,8","1,1","ND","ND","ND","ND"],
    [32904,"03/29/2018 16:00","43","0,9","ND","ND","ND","ND"],
    [32905,"03/29/2018 17:00","3,2","0,3","ND","ND","ND","ND"],
    [32906,"03/29/2018 18:00","39","0,3","ND","ND","ND","ND"],
    [32907,"03/29/2018 19:00","28,1","0,1","ND","ND","ND","ND"],
    [32908,"03/29/2018 20:00","28","ND","ND","ND","ND","ND"],
    [32909,"03/29/2018 21:00","44,3","0,2","ND","ND","ND","ND"],
    [32910,"03/29/2018 22:00","31,3","ND","ND","ND","ND","ND"],
    [32911,"03/29/2018 23:00","19,7","0","ND","ND","ND","ND"],
    [32912,"03/30/2018 00:00","20,2","ND","ND","ND","ND","ND"],
    [32913,"03/30/2018 01:00","14,5","ND","ND","ND","ND","ND"],
    [32914,"03/30/2018 02:00","20,6","ND","ND","ND","ND","ND"],
    [32915,"03/30/2018 03:00","21,4","ND","ND","ND","ND","ND"],
    [32916,"03/30/2018 04:00","20,3","ND","ND","ND","ND","ND"],
    [32917,"03/30/2018 05:00","26,9","ND","ND","ND","ND","ND"],
    [32918,"03/30/2018 06:00","34,9","ND","ND","ND","ND","ND"],
    [32919,"03/30/2018 07:00","34,9","ND","ND","ND","ND","ND"],
    [32920,"03/30/2018 08:00","34,6","ND","ND","ND","ND","ND"],
    [32921,"03/30/2018 09:00","34,1","0,4","ND","ND","ND","ND"],
    [32922,"03/30/2018 10:00","68,9","1,3","ND","ND","ND","ND"],
    [32923,"03/30/2018 11:00","45,8","1,5","ND","ND","ND","ND"],
    [32924,"03/30/2018 12:00","28,3","1","ND","ND","ND","ND"],
    [32925,"03/30/2018 13:00","16,6","1,6","ND","ND","ND","ND"],
    [32926,"03/30/2018 14:00","34,3","1,2","ND","ND","ND","ND"],
    [32927,"03/30/2018 15:00","7,1","0,1","ND","ND","ND","ND"],
    [32928,"03/30/2018 16:00","11,9","0,1","ND","ND","ND","ND"],
    [32929,"03/30/2018 17:00","25,4","0,1","ND","ND","ND","ND"],
    [32930,"03/30/2018 18:00","33,4","0,1","ND","ND","ND","ND"],
    [32931,"03/30/2018 19:00","28,8","0,2","ND","ND","ND","ND"],
    [32932,"03/30/2018 20:00","33,7","0,3","ND","ND","ND","ND"],
    [32933,"03/30/2018 21:00","12,3","0","ND","ND","ND","ND"],
    [32934,"03/30/2018 22:00","21,2","0,1","ND","ND","ND","ND"],
    [32935,"03/30/2018 23:00","8","0,1","ND","ND","ND","ND"],
    [32936,"03/31/2018 00:00","1,4","ND","ND","ND","ND","ND"],
    [32937,"03/31/2018 01:00","1,8","ND","ND","ND","ND","ND"],
    [32938,"03/31/2018 02:00","0","ND","ND","ND","ND","ND"],
    [32939,"03/31/2018 03:00","1,3","ND","ND","ND","ND","ND"],
    [32940,"03/31/2018 04:00","3,4","ND","ND","ND","ND","ND"],
    [32941,"03/31/2018 05:00","6,2","ND","ND","ND","ND","ND"],
    [32942,"03/31/2018 06:00","8,1","ND","ND","ND","ND","ND"],
    [32943,"03/31/2018 07:00","20,7","ND","ND","ND","ND","ND"],
    [32944,"03/31/2018 08:00","39,3","0,1","ND","ND","ND","ND"],
    [32945,"03/31/2018 09:00","26,9","ND","ND","ND","ND","ND"],
    [32946,"03/31/2018 10:00","15,5","0,1","ND","ND","ND","ND"],
    [32947,"03/31/2018 11:00","25,8","0,8","ND","ND","ND","ND"],
    [32948,"03/31/2018 12:00","15,9","0,4","ND","ND","ND","ND"],
    [32949,"03/31/2018 13:00","23,7","0,6","ND","ND","ND","ND"],
    [32950,"03/31/2018 14:00","27,3","0,4","ND","ND","ND","ND"],
    [32951,"03/31/2018 15:00","31,5","ND","ND","ND","ND","ND"],
    [32952,"03/31/2018 16:00","11,7","ND","ND","ND","ND","ND"],
    [32953,"03/31/2018 17:00","12,8","0","ND","ND","ND","ND"],
    [32954,"03/31/2018 18:00","23,9","0","ND","ND","ND","ND"],
    [32955,"03/31/2018 19:00","19,1","0","ND","ND","ND","ND"],
    [32956,"03/31/2018 20:00","14,5","0","ND","ND","ND","ND"],
    [32957,"03/31/2018 21:00","12,3","0,2","ND","ND","ND","ND"],
    [32958,"03/31/2018 22:00","12,3","ND","ND","ND","ND","ND"],
    [32959,"03/31/2018 23:00","13,6","0,2","ND","ND","ND","ND"],
    [32960,"43104","9,2","0,1","ND","ND","ND","ND"],
    [32961,"43104,04167","10,6","0","ND","ND","ND","ND"],
    [32962,"43104,08333","19,2","ND","ND","ND","ND","ND"],
    [32963,"43104,125","20,8","ND","ND","ND","ND","ND"],
    [32964,"43104,16667","18,9","ND","ND","ND","ND","ND"],
    [32965,"43104,20833","10,6","ND","ND","ND","ND","ND"],
    [32966,"43104,25","35,2","ND","ND","ND","ND","ND"],
    [32967,"43104,29167","52,1","ND","ND","ND","ND","ND"],
    [32968,"43104,33333","34,8","ND","ND","ND","ND","ND"],
    [32969,"43104,375","34,2","0,1","ND","ND","ND","ND"],
    [32970,"43104,41667","22,6","ND","ND","ND","ND","ND"],
    [32971,"43104,45833","28,6","0,1","ND","ND","ND","ND"],
    [32972,"43104,5","25,5","0,4","ND","ND","ND","ND"],
    [32973,"43104,54167","25,4","0,3","ND","ND","ND","ND"],
    [32974,"43104,58333","33,2","0,5","ND","ND","ND","ND"],
    [32975,"43104,625","7,7","ND","ND","ND","ND","ND"],
    [32976,"43104,66667","9,4","ND","ND","ND","ND","ND"],
    [32977,"43104,70833","5,9","ND","ND","ND","ND","ND"],
    [32978,"43104,75","23,9","ND","ND","ND","ND","ND"],
    [32979,"43104,79167","39,4","0,1","ND","ND","ND","ND"],
    [32980,"43104,83333","3,8","0,1","ND","ND","ND","ND"],
    [32981,"43104,875","28,8","ND","ND","ND","ND","ND"],
    [32982,"43104,91667","46,9","0,1","ND","ND","ND","ND"],
    [32983,"43104,95833","29,7","ND","ND","ND","ND","ND"],
    [32984,"43135","21,8","ND","ND","ND","ND","ND"],
    [32985,"43135,04167","22,6","ND","ND","ND","ND","ND"],
    [32986,"43135,08333","22,8","ND","ND","ND","ND","ND"],
    [32987,"43135,125","17,8","ND","ND","ND","ND","ND"],
    [32988,"43135,16667","23","ND","ND","ND","ND","ND"],
    [32989,"43135,20833","31,7","ND","ND","ND","ND","ND"],
    [32990,"43135,25","19,2","0,2","ND","ND","ND","ND"],
    [32991,"43135,29167","ND","0,3","ND","ND","ND","ND"],
    [32992,"43135,33333","ND","ND","ND","ND","ND","ND"],
    [32993,"43135,375","ND","ND","ND","ND","ND","ND"],
    [32994,"43135,41667","ND","0,2","ND","ND","ND","ND"],
    [32995,"43135,45833","28,6","0,1","ND","ND","ND","ND"],
    [32996,"43135,5","36,6","0,3","ND","ND","ND","ND"],
    [32997,"43135,54167","31","0,1","ND","ND","ND","ND"],
    [32998,"43135,58333","28,5","0,1","ND","ND","ND","ND"],
    [32999,"43135,625","17,2","ND","ND","ND","ND","ND"],
    [33000,"43135,66667","18,5","ND","ND","ND","ND","ND"],
    [33001,"43135,70833","32","0,4","ND","ND","ND","ND"],
    [33002,"43135,75","25,9","0,4","ND","ND","ND","ND"],
    [33003,"43135,79167","25,8","0,4","ND","ND","ND","ND"],
    [33004,"43135,83333","26,7","0,3","ND","ND","ND","ND"],
    [33005,"43135,875","24,3","0,5","ND","ND","ND","ND"],
    [33006,"43135,91667","27,7","0,3","ND","ND","ND","ND"],
    [33007,"43135,95833","37,2","0,1","ND","ND","ND","ND"],
    [33008,"43163","25,2","ND","ND","ND","ND","ND"],
    [33009,"43163,04167","19,2","0","ND","ND","ND","ND"],
    [33010,"43163,08333","19,9","ND","ND","ND","ND","ND"],
    [33011,"43163,125","18","ND","ND","ND","ND","ND"],
    [33012,"43163,16667","21,9","ND","ND","ND","ND","ND"],
    [33013,"43163,20833","23,4","0,1","ND","ND","ND","ND"],
    [33014,"43163,25","24,6","0,1","ND","ND","ND","ND"],
    [33015,"43163,29167","43,3","0,2","ND","ND","ND","ND"],
    [33016,"43163,33333","64,3","0,5","ND","ND","ND","ND"],
    [33017,"43163,375","60,7","0,6","ND","ND","ND","ND"],
    [33018,"43163,41667","47,7","1,2","ND","ND","ND","ND"],
    [33019,"43163,45833","37,5","1,3","ND","ND","ND","ND"],
    [33020,"43163,5","51,7","1,1","ND","ND","ND","ND"],
    [33021,"43163,54167","43,9","0,9","ND","ND","ND","ND"],
    [33022,"43163,58333","37","0,6","ND","ND","ND","ND"],
    [33023,"43163,625","35,2","0,4","ND","ND","ND","ND"],
    [33024,"43163,66667","25","0,2","ND","ND","ND","ND"],
    [33025,"43163,70833","25,2","0,4","ND","ND","ND","ND"],
    [33026,"43163,75","26,9","0,2","ND","ND","ND","ND"],
    [33027,"43163,79167","26,9","0,2","ND","ND","ND","ND"],
    [33028,"43163,83333","26,4","0,5","ND","ND","ND","ND"],
    [33029,"43163,875","26,4","0,6","ND","ND","ND","ND"],
    [33030,"43163,91667","33,8","0,2","ND","ND","ND","ND"],
    [33031,"43163,95833","24,1","0","ND","ND","ND","ND"],
    [33032,"43194","17,5","ND","ND","ND","ND","ND"],
    [33033,"43194,04167","17,5","ND","ND","ND","ND","ND"],
    [33034,"43194,08333","22,1","ND","ND","ND","ND","ND"],
    [33035,"43194,125","31,2","ND","ND","ND","ND","ND"],
    [33036,"43194,16667","10,4","ND","ND","ND","ND","ND"],
    [33037,"43194,20833","9,1","ND","ND","ND","ND","ND"],
    [33038,"43194,25","12","ND","ND","ND","ND","ND"],
    [33039,"43194,29167","17,8","ND","ND","ND","ND","ND"],
    [33040,"43194,33333","20,7","0,1","ND","ND","ND","ND"],
    [33041,"43194,375","17,7","0,4","ND","ND","ND","ND"],
    [33042,"43194,41667","23","0,2","ND","ND","ND","ND"],
    [33043,"43194,45833","30,3","0,1","ND","ND","ND","ND"],
    [33044,"43194,5","39,8","0,5","ND","ND","ND","ND"],
    [33045,"43194,54167","34,1","0,3","ND","ND","ND","ND"],
    [33046,"43194,58333","18","0,1","ND","ND","ND","ND"],
    [33047,"43194,625","42,7","0,4","ND","ND","ND","ND"],
    [33048,"43194,66667","40,3","0,6","ND","ND","ND","ND"],
    [33049,"43194,70833","32,5","1,2","ND","ND","ND","ND"],
    [33050,"43194,75","57,6","0,5","ND","ND","ND","ND"],
    [33051,"43194,79167","65,4","0,2","ND","ND","ND","ND"],
    [33052,"43194,83333","58,4","0,3","ND","ND","ND","ND"],
    [33053,"43194,875","56,3","0,2","ND","ND","ND","ND"],
    [33054,"43194,91667","57,1","0,3","ND","ND","ND","ND"],
    [33055,"43194,95833","42,9","ND","ND","ND","ND","ND"],
    [33056,"43224","28,1","ND","ND","ND","ND","ND"],
    [33057,"43224,04167","26,1","ND","ND","ND","ND","ND"],
    [33058,"43224,08333","24,2","ND","ND","ND","ND","ND"],
    [33059,"43224,125","25,3","ND","ND","ND","ND","ND"],
    [33060,"43224,16667","28,2","ND","ND","ND","ND","ND"],
    [33061,"43224,20833","36,1","ND","ND","ND","ND","ND"],
    [33062,"43224,25","54,3","0,1","ND","ND","ND","ND"],
    [33063,"43224,29167","88","0,2","ND","ND","ND","ND"],
    [33064,"43224,33333","77,1","0,6","ND","ND","ND","ND"],
    [33065,"43224,375","77,8","0,6","ND","ND","ND","ND"],
    [33066,"43224,41667","84,4","2,5","ND","ND","ND","ND"],
    [33067,"43224,45833","50,5","5,1","ND","ND","ND","ND"],
    [33068,"43224,5","33,2","2,2","ND","ND","ND","ND"],
    [33069,"43224,54167","23,3","0,4","ND","ND","ND","ND"],
    [33070,"43224,58333","30,5","0,1","ND","ND","ND","ND"],
    [33071,"43224,625","34,6","0,1","ND","ND","ND","ND"],
    [33072,"43224,66667","34,8","0,1","ND","ND","ND","ND"],
    [33073,"43224,70833","40,2","ND","ND","ND","ND","ND"],
    [33074,"43224,75","26,7","ND","ND","ND","ND","ND"],
    [33075,"43224,79167","21,5","0,1","ND","ND","ND","ND"],
    [33076,"43224,83333","41,6","0,1","ND","ND","ND","ND"],
    [33077,"43224,875","35,1","0,1","ND","ND","ND","ND"],
    [33078,"43224,91667","31,9","0,3","ND","ND","ND","ND"],
    [33079,"43224,95833","17,2","0,4","ND","ND","ND","ND"],
    [33080,"43255","16,1","0,1","ND","ND","ND","ND"],
    [33081,"43255,04167","13,7","ND","ND","ND","ND","ND"],
    [33082,"43255,08333","12,8","0","ND","ND","ND","ND"],
    [33083,"43255,125","11,7","0,1","ND","ND","ND","ND"],
    [33084,"43255,16667","4,5","ND","ND","ND","ND","ND"],
    [33085,"43255,20833","10","ND","ND","ND","ND","ND"],
    [33086,"43255,25","13,9","ND","ND","ND","ND","ND"],
    [33087,"43255,29167","13,9","ND","ND","ND","ND","ND"],
    [33088,"43255,33333","13,1","0,1","ND","ND","ND","ND"],
    [33089,"43255,375","14,3","0,1","ND","ND","ND","ND"],
    [33090,"43255,41667","16,1","0,1","ND","ND","ND","ND"],
    [33091,"43255,45833","15,1","ND","ND","ND","ND","ND"],
    [33092,"43255,5","21","ND","ND","ND","ND","ND"],
    [33093,"43255,54167","14,4","ND","ND","ND","ND","ND"],
    [33094,"43255,58333","15,9","ND","ND","ND","ND","ND"],
    [33095,"43255,625","23,3","0,1","ND","ND","ND","ND"],
    [33096,"43255,66667","17","ND","ND","ND","ND","ND"],
    [33097,"43255,70833","17,2","ND","ND","ND","ND","ND"],
    [33098,"43255,75","30","ND","ND","ND","ND","ND"],
    [33099,"43255,79167","30,3","ND","ND","ND","ND","ND"],
    [33100,"43255,83333","39,2","ND","ND","ND","ND","ND"],
    [33101,"43255,875","35","ND","ND","ND","ND","ND"],
    [33102,"43255,91667","38","ND","ND","ND","ND","ND"],
    [33103,"43255,95833","40,8","0,1","ND","ND","ND","ND"],
    [33104,"43285","34","ND","ND","ND","ND","ND"],
    [33105,"43285,04167","30,5","ND","ND","ND","ND","ND"],
    [33106,"43285,08333","30,5","ND","ND","ND","ND","ND"],
    [33107,"43285,125","24,2","ND","ND","ND","ND","ND"],
    [33108,"43285,16667","42,1","ND","ND","ND","ND","ND"],
    [33109,"43285,20833","32,5","ND","ND","ND","ND","ND"],
    [33110,"43285,25","72,5","ND","ND","ND","ND","ND"],
    [33111,"43285,29167","58,6","0,2","ND","ND","ND","ND"],
    [33112,"43285,33333","44","0,3","ND","ND","ND","ND"],
    [33113,"43285,375","66,7","2,3","ND","ND","ND","ND"],
    [33114,"43285,41667","74,4","3,2","ND","ND","ND","ND"],
    [33115,"43285,45833","45,7","3,1","ND","ND","ND","ND"],
    [33116,"43285,5","38,3","2","ND","ND","ND","ND"],
    [33117,"43285,54167","48,8","2,9","ND","ND","ND","ND"],
    [33118,"43285,58333","51,3","2","ND","ND","ND","ND"],
    [33119,"43285,625","29,3","0,4","ND","ND","ND","ND"],
    [33120,"43285,66667","13,8","ND","ND","ND","ND","ND"],
    [33121,"43285,70833","16","ND","ND","ND","ND","ND"],
    [33122,"43285,75","18","ND","ND","ND","ND","ND"],
    [33123,"43285,79167","19,6","ND","ND","ND","ND","ND"],
    [33124,"43285,83333","16,4","ND","ND","ND","ND","ND"],
    [33125,"43285,875","28,4","ND","ND","ND","ND","ND"],
    [33126,"43285,91667","37,8","ND","ND","ND","ND","ND"],
    [33127,"43285,95833","42,6","0,2","ND","ND","ND","ND"],
    [33128,"43316","41,7","0,1","ND","ND","ND","ND"],
    [33129,"43316,04167","27,6","ND","ND","ND","ND","ND"],
    [33130,"43316,08333","23,3","ND","ND","ND","ND","ND"],
    [33131,"43316,125","24,4","ND","ND","ND","ND","ND"],
    [33132,"43316,16667","21,7","ND","ND","ND","ND","ND"],
    [33133,"43316,20833","23,4","ND","ND","ND","ND","ND"],
    [33134,"43316,25","31,4","ND","ND","ND","ND","ND"],
    [33135,"43316,29167","37,9","ND","ND","ND","ND","ND"],
    [33136,"43316,33333","40,9","ND","ND","ND","ND","ND"],
    [33137,"43316,375","27,1","0,3","ND","ND","ND","ND"],
    [33138,"43316,41667","25","0,6","ND","ND","ND","ND"],
    [33139,"43316,45833","38,9","1,8","ND","ND","ND","ND"],
    [33140,"43316,5","36,9","1,2","ND","ND","ND","ND"],
    [33141,"43316,54167","30,4","0,9","ND","ND","ND","ND"],
    [33142,"43316,58333","36,2","0,3","ND","ND","ND","ND"],
    [33143,"43316,625","31,5","0,5","ND","ND","ND","ND"],
    [33144,"43316,66667","12,6","ND","ND","ND","ND","ND"],
    [33145,"43316,70833","16,2","ND","ND","ND","ND","ND"],
    [33146,"43316,75","18,2","ND","ND","ND","ND","ND"],
    [33147,"43316,79167","21","ND","ND","ND","ND","ND"],
    [33148,"43316,83333","18,9","ND","ND","ND","ND","ND"],
    [33149,"43316,875","31","ND","ND","ND","ND","ND"],
    [33150,"43316,91667","34,6","ND","ND","ND","ND","ND"],
    [33151,"43316,95833","33","ND","ND","ND","ND","ND"],
    [33152,"43347","32","ND","ND","ND","ND","ND"],
    [33153,"43347,04167","28,3","ND","ND","ND","ND","ND"],
    [33154,"43347,08333","26,7","ND","ND","ND","ND","ND"],
    [33155,"43347,125","27,9","ND","ND","ND","ND","ND"],
    [33156,"43347,16667","26,2","ND","ND","ND","ND","ND"],
    [33157,"43347,20833","38","ND","ND","ND","ND","ND"],
    [33158,"43347,25","78,9","ND","ND","ND","ND","ND"],
    [33159,"43347,29167","64,6","0,4","ND","ND","ND","ND"],
    [33160,"43347,33333","57,8","1,3","ND","ND","ND","ND"],
    [33161,"43347,375","45,1","3,6","ND","ND","ND","ND"],
    [33162,"43347,41667","48,8","3,6","ND","ND","ND","ND"],
    [33163,"43347,45833","48,2","2,1","ND","ND","ND","ND"],
    [33164,"43347,5","54,5","2,6","ND","ND","ND","ND"],
    [33165,"43347,54167","58,7","2,4","ND","ND","ND","ND"],
    [33166,"43347,58333","38,5","1,6","ND","ND","ND","ND"],
    [33167,"43347,625","21,9","ND","ND","ND","ND","ND"],
    [33168,"43347,66667","35,5","ND","ND","ND","ND","ND"],
    [33169,"43347,70833","34,6","ND","ND","ND","ND","ND"],
    [33170,"43347,75","9,8","ND","ND","ND","ND","ND"],
    [33171,"43347,79167","19","ND","ND","ND","ND","ND"],
    [33172,"43347,83333","15,3","ND","ND","ND","ND","ND"],
    [33173,"43347,875","19,7","ND","ND","ND","ND","ND"],
    [33174,"43347,91667","13,3","0,1","ND","ND","ND","ND"],
    [33175,"43347,95833","8,3","ND","ND","ND","ND","ND"],
    [33176,"43377","22,5","ND","ND","ND","ND","ND"],
    [33177,"43377,04167","19","ND","ND","ND","ND","ND"],
    [33178,"43377,08333","15,8","ND","ND","ND","ND","ND"],
    [33179,"43377,125","22,7","ND","ND","ND","ND","ND"],
    [33180,"43377,16667","20,6","ND","ND","ND","ND","ND"],
    [33181,"43377,20833","29,4","ND","ND","ND","ND","ND"],
    [33182,"43377,25","27,6","0,3","ND","ND","ND","ND"],
    [33183,"43377,29167","30,5","0,4","ND","ND","ND","ND"],
    [33184,"43377,33333","28,8","ND","ND","ND","ND","ND"],
    [33185,"43377,375","26,9","0,7","ND","ND","ND","ND"],
    [33186,"43377,41667","18,3","0,6","ND","ND","ND","ND"],
    [33187,"43377,45833","31,7","0,6","ND","ND","ND","ND"],
    [33188,"43377,5","29,2","0,5","ND","ND","ND","ND"],
    [33189,"43377,54167","34,5","0,5","ND","ND","ND","ND"],
    [33190,"43377,58333","4,2","0,3","ND","ND","ND","ND"],
    [33191,"43377,625","13,3","0,3","ND","ND","ND","ND"],
    [33192,"43377,66667","36,6","1,4","ND","ND","ND","ND"],
    [33193,"43377,70833","49,6","2,5","ND","ND","ND","ND"],
    [33194,"43377,75","45,5","1,3","ND","ND","ND","ND"],
    [33195,"43377,79167","58,2","1","ND","ND","ND","ND"],
    [33196,"43377,83333","71,8","0,8","ND","ND","ND","ND"],
    [33197,"43377,875","65,7","0,8","ND","ND","ND","ND"],
    [33198,"43377,91667","53,6","0,8","ND","ND","ND","ND"],
    [33199,"43377,95833","40,7","0,5","ND","ND","ND","ND"],
    [33200,"43408","37,7","0,5","ND","ND","ND","ND"],
    [33201,"43408,04167","41,8","0,3","ND","ND","ND","ND"],
    [33202,"43408,08333","40,7","0,4","ND","ND","ND","ND"],
    [33203,"43408,125","40,9","0,3","ND","ND","ND","ND"],
    [33204,"43408,16667","45,5","0,2","ND","ND","ND","ND"],
    [33205,"43408,20833","26,9","0,3","ND","ND","ND","ND"],
    [33206,"43408,25","20,4","0,6","ND","ND","ND","ND"],
    [33207,"43408,29167","17,3","0,5","ND","ND","ND","ND"],
    [33208,"43408,33333","20,6","0,7","ND","ND","ND","ND"],
    [33209,"43408,375","31,9","0,7","ND","ND","ND","ND"],
    [33210,"43408,41667","59,4","0,8","ND","ND","ND","ND"],
    [33211,"43408,45833","48","0,5","ND","ND","ND","ND"],
    [33212,"43408,5","24,7","0,4","ND","ND","ND","ND"],
    [33213,"43408,54167","24,7","0,4","ND","ND","ND","ND"],
    [33214,"43408,58333","41,4","0,9","ND","ND","ND","ND"],
    [33215,"43408,625","42,1","1","ND","ND","ND","ND"],
    [33216,"43408,66667","32,7","1,7","ND","ND","ND","ND"],
    [33217,"43408,70833","13,3","0,4","ND","ND","ND","ND"],
    [33218,"43408,75","ND","0,1","ND","ND","ND","ND"],
    [33219,"43408,79167","ND","0,1","ND","ND","ND","ND"],
    [33220,"43408,83333","ND","0,1","ND","ND","ND","ND"],
    [33221,"43408,875","ND","0,2","ND","ND","ND","ND"],
    [33222,"43408,91667","23,6","ND","ND","ND","ND","ND"],
    [33223,"43408,95833","28,4","ND","ND","ND","ND","ND"],
    [33224,"43438","39,5","ND","ND","ND","ND","ND"],
    [33225,"43438,04167","32,1","ND","ND","ND","ND","ND"],
    [33226,"43438,08333","25","ND","ND","ND","ND","ND"],
    [33227,"43438,125","23,5","ND","ND","ND","ND","ND"],
    [33228,"43438,16667","27,3","ND","ND","ND","ND","ND"],
    [33229,"43438,20833","37,3","ND","ND","ND","ND","ND"],
    [33230,"43438,25","64,3","ND","ND","ND","ND","ND"],
    [33231,"43438,29167","29,6","0,5","ND","ND","ND","ND"],
    [33232,"43438,33333","20,3","0,6","ND","ND","ND","ND"],
    [33233,"43438,375","16,4","0,7","ND","ND","ND","ND"],
    [33234,"43438,41667","21","0,6","ND","ND","ND","ND"],
    [33235,"43438,45833","21,5","0,3","ND","ND","ND","ND"],
    [33236,"43438,5","21,1","0,3","ND","ND","ND","ND"],
    [33237,"43438,54167","27,9","0,2","ND","ND","ND","ND"],
    [33238,"43438,58333","18,4","ND","ND","ND","ND","ND"],
    [33239,"43438,625","22,8","ND","ND","ND","ND","ND"],
    [33240,"43438,66667","41,4","ND","ND","ND","ND","ND"],
    [33241,"43438,70833","60","0,1","ND","ND","ND","ND"],
    [33242,"43438,75","78,8","1,1","ND","ND","ND","ND"],
    [33243,"43438,79167","66","0,3","ND","ND","ND","ND"],
    [33244,"43438,83333","47,1","ND","ND","ND","ND","ND"],
    [33245,"43438,875","45,6","ND","ND","ND","ND","ND"],
    [33246,"43438,91667","45,6","0,4","ND","ND","ND","ND"],
    [33247,"43438,95833","28,5","0,1","ND","ND","ND","ND"],
    [33248,"04/13/2018 00:00","32,5","ND","ND","ND","ND","ND"],
    [33249,"04/13/2018 01:00","22","ND","ND","ND","ND","ND"],
    [33250,"04/13/2018 02:00","19,6","ND","ND","ND","ND","ND"],
    [33251,"04/13/2018 03:00","22,4","ND","ND","ND","ND","ND"],
    [33252,"04/13/2018 04:00","22,5","ND","ND","ND","ND","ND"],
    [33253,"04/13/2018 05:00","34,2","ND","ND","ND","ND","ND"],
    [33254,"04/13/2018 06:00","61,4","0,1","ND","ND","ND","ND"],
    [33255,"04/13/2018 07:00","86,5","0,4","ND","ND","ND","ND"],
    [33256,"04/13/2018 08:00","78,8","0,4","ND","ND","ND","ND"],
    [33257,"04/13/2018 09:00","113,7","0,9","ND","ND","ND","ND"],
    [33258,"04/13/2018 10:00","67,8","5,1","ND","ND","ND","ND"],
    [33259,"04/13/2018 11:00","44,6","4,4","ND","ND","ND","ND"],
    [33260,"04/13/2018 12:00","39,9","1,7","ND","ND","ND","ND"],
    [33261,"04/13/2018 13:00","56,2","1,2","ND","ND","ND","ND"],
    [33262,"04/13/2018 14:00","43,8","2,4","ND","ND","ND","ND"],
    [33263,"04/13/2018 15:00","14,7","0,5","ND","ND","ND","ND"],
    [33264,"04/13/2018 16:00","13","ND","ND","ND","ND","ND"],
    [33265,"04/13/2018 17:00","15,2","ND","ND","ND","ND","ND"],
    [33266,"04/13/2018 18:00","26,2","ND","ND","ND","ND","ND"],
    [33267,"04/13/2018 19:00","32,5","ND","ND","ND","ND","ND"],
    [33268,"04/13/2018 20:00","29,5","0,1","ND","ND","ND","ND"],
    [33269,"04/13/2018 21:00","24,8","0","ND","ND","ND","ND"],
    [33270,"04/13/2018 22:00","24","0,6","ND","ND","ND","ND"],
    [33271,"04/13/2018 23:00","22,9","0,7","ND","ND","ND","ND"],
    [33272,"04/14/2018 00:00","7,1","0,7","ND","ND","ND","ND"],
    [33273,"04/14/2018 01:00","7,3","ND","ND","ND","ND","ND"],
    [33274,"04/14/2018 02:00","3,9","ND","ND","ND","ND","ND"],
    [33275,"04/14/2018 03:00","4,9","ND","ND","ND","ND","ND"],
    [33276,"04/14/2018 04:00","7,7","ND","ND","ND","ND","ND"],
    [33277,"04/14/2018 05:00","11,9","ND","ND","ND","ND","ND"],
    [33278,"04/14/2018 06:00","17,3","ND","ND","ND","ND","ND"],
    [33279,"04/14/2018 07:00","22,6","ND","ND","ND","ND","ND"],
    [33280,"04/14/2018 08:00","22,9","ND","ND","ND","ND","ND"],
    [33281,"04/14/2018 09:00","39,2","0,2","ND","ND","ND","ND"],
    [33282,"04/14/2018 10:00","53,2","0,3","ND","ND","ND","ND"],
    [33283,"04/14/2018 11:00","46","0,2","ND","ND","ND","ND"],
    [33284,"04/14/2018 12:00","41,1","0,5","ND","ND","ND","ND"],
    [33285,"04/14/2018 13:00","37,6","0,1","ND","ND","ND","ND"],
    [33286,"04/14/2018 14:00","29,6","ND","ND","ND","ND","ND"],
    [33287,"04/14/2018 15:00","30,6","0,1","ND","ND","ND","ND"],
    [33288,"04/14/2018 16:00","36,1","0,4","ND","ND","ND","ND"],
    [33289,"04/14/2018 17:00","36,1","0,7","ND","ND","ND","ND"],
    [33290,"04/14/2018 18:00","54,6","0,2","ND","ND","ND","ND"],
    [33291,"04/14/2018 19:00","60","0,1","ND","ND","ND","ND"],
    [33292,"04/14/2018 20:00","35,3","ND","ND","ND","ND","ND"],
    [33293,"04/14/2018 21:00","43,9","ND","ND","ND","ND","ND"],
    [33294,"04/14/2018 22:00","43,1","0,1","ND","ND","ND","ND"],
    [33295,"04/14/2018 23:00","38","0,1","ND","ND","ND","ND"],
    [33296,"04/15/2018 00:00","36,1","0,1","ND","ND","ND","ND"],
    [33297,"04/15/2018 01:00","46,7","0,1","ND","ND","ND","ND"],
    [33298,"04/15/2018 02:00","28,6","ND","ND","ND","ND","ND"],
    [33299,"04/15/2018 03:00","42,9","ND","ND","ND","ND","ND"],
    [33300,"04/15/2018 04:00","37,5","0","ND","ND","ND","ND"],
    [33301,"04/15/2018 05:00","33,2","ND","ND","ND","ND","ND"],
    [33302,"04/15/2018 06:00","38,2","ND","ND","ND","ND","ND"],
    [33303,"04/15/2018 07:00","51,5","ND","ND","ND","ND","ND"],
    [33304,"04/15/2018 08:00","55","0","ND","ND","ND","ND"],
    [33305,"04/15/2018 09:00","49,4","0,4","ND","ND","ND","ND"],
    [33306,"04/15/2018 10:00","48,4","0,3","ND","ND","ND","ND"],
    [33307,"04/15/2018 11:00","28,8","0,5","ND","ND","ND","ND"],
    [33308,"04/15/2018 12:00","30,3","0,3","ND","ND","ND","ND"],
    [33309,"04/15/2018 13:00","37,3","1","ND","ND","ND","ND"],
    [33310,"04/15/2018 14:00","47,9","0,7","ND","ND","ND","ND"],
    [33311,"04/15/2018 15:00","34,4","ND","ND","ND","ND","ND"],
    [33312,"04/15/2018 16:00","13,7","ND","ND","ND","ND","ND"],
    [33313,"04/15/2018 17:00","8,7","ND","ND","ND","ND","ND"],
    [33314,"04/15/2018 18:00","12,6","ND","ND","ND","ND","ND"],
    [33315,"04/15/2018 19:00","20,2","ND","ND","ND","ND","ND"],
    [33316,"04/15/2018 20:00","29,2","ND","ND","ND","ND","ND"],
    [33317,"04/15/2018 21:00","33,9","ND","ND","ND","ND","ND"],
    [33318,"04/15/2018 22:00","36,9","ND","ND","ND","ND","ND"],
    [33319,"04/15/2018 23:00","25,3","ND","ND","ND","ND","ND"],
    [33320,"04/16/2018 00:00","21,3","ND","ND","ND","ND","ND"],
    [33321,"04/16/2018 01:00","22,8","ND","ND","ND","ND","ND"],
    [33322,"04/16/2018 02:00","28,4","ND","ND","ND","ND","ND"],
    [33323,"04/16/2018 03:00","25,9","ND","ND","ND","ND","ND"],
    [33324,"04/16/2018 04:00","29,3","ND","ND","ND","ND","ND"],
    [33325,"04/16/2018 05:00","36,2","ND","ND","ND","ND","ND"],
    [33326,"04/16/2018 06:00","67,8","ND","ND","ND","ND","ND"],
    [33327,"04/16/2018 07:00","86,1","0,3","ND","ND","ND","ND"],
    [33328,"04/16/2018 08:00","84,6","1,4","ND","ND","ND","ND"],
    [33329,"04/16/2018 09:00","ND","3,4","ND","ND","ND","ND"],
    [33330,"04/16/2018 10:00","ND","5","ND","ND","ND","ND"],
    [33331,"04/16/2018 11:00","ND","2,8","ND","ND","ND","ND"],
    [33332,"04/16/2018 12:00","ND","2","ND","ND","ND","ND"],
    [33333,"04/16/2018 13:00","60,1","1,5","ND","ND","ND","ND"],
    [33334,"04/16/2018 14:00","16,7","0,8","ND","ND","ND","ND"],
    [33335,"04/16/2018 15:00","9,5","0,3","ND","ND","ND","ND"],
    [33336,"04/16/2018 16:00","16,4","0,1","ND","ND","ND","ND"],
    [33337,"04/16/2018 17:00","11,2","0,2","ND","ND","ND","ND"],
    [33338,"04/16/2018 18:00","12,2","0,2","ND","ND","ND","ND"],
    [33339,"04/16/2018 19:00","35,9","0,6","ND","ND","ND","ND"],
    [33340,"04/16/2018 20:00","67,2","0,8","ND","ND","ND","ND"],
    [33341,"04/16/2018 21:00","48,1","0,8","ND","ND","ND","ND"],
    [33342,"04/16/2018 22:00","48,1","0,7","ND","ND","ND","ND"],
    [33343,"04/16/2018 23:00","30,2","0,5","ND","ND","ND","ND"],
    [33344,"04/17/2018 00:00","29,1","0,4","ND","ND","ND","ND"],
    [33345,"04/17/2018 01:00","50,5","0,4","ND","ND","ND","ND"],
    [33346,"04/17/2018 02:00","18,7","0,2","ND","ND","ND","ND"],
    [33347,"04/17/2018 03:00","22,5","0,3","ND","ND","ND","ND"],
    [33348,"04/17/2018 04:00","22,6","0,2","ND","ND","ND","ND"],
    [33349,"04/17/2018 05:00","32,6","0,2","ND","ND","ND","ND"],
    [33350,"04/17/2018 06:00","45,4","0,4","ND","ND","ND","ND"],
    [33351,"04/17/2018 07:00","82,4","0,9","ND","ND","ND","ND"],
    [33352,"04/17/2018 08:00","54,8","0,9","ND","ND","ND","ND"],
    [33353,"04/17/2018 09:00","46,2","1","ND","ND","ND","ND"],
    [33354,"04/17/2018 10:00","62,7","3","ND","ND","ND","ND"],
    [33355,"04/17/2018 11:00","43,7","3,3","ND","ND","ND","ND"],
    [33356,"04/17/2018 12:00","45,1","2,7","ND","ND","ND","ND"],
    [33357,"04/17/2018 13:00","43,4","3","ND","ND","ND","ND"],
    [33358,"04/17/2018 14:00","46,4","3","ND","ND","ND","ND"],
    [33359,"04/17/2018 15:00","36,7","1,6","ND","ND","ND","ND"],
    [33360,"04/17/2018 16:00","32,5","0,5","ND","ND","ND","ND"],
    [33361,"04/17/2018 17:00","28,7","1,1","ND","ND","ND","ND"],
    [33362,"04/17/2018 18:00","28,7","0,9","ND","ND","ND","ND"],
    [33363,"04/17/2018 19:00","25,9","0,6","ND","ND","ND","ND"],
    [33364,"04/17/2018 20:00","27","0,4","ND","ND","ND","ND"],
    [33365,"04/17/2018 21:00","39,6","0,9","ND","ND","ND","ND"],
    [33366,"04/17/2018 22:00","41,7","0,5","ND","ND","ND","ND"],
    [33367,"04/17/2018 23:00","38,4","0,2","ND","ND","ND","ND"],
    [33368,"04/18/2018 00:00","34,3","0,1","ND","ND","ND","ND"],
    [33369,"04/18/2018 01:00","30,7","ND","ND","ND","ND","ND"],
    [33370,"04/18/2018 02:00","31,9","ND","ND","ND","ND","ND"],
    [33371,"04/18/2018 03:00","26,8","ND","ND","ND","ND","ND"],
    [33372,"04/18/2018 04:00","26,8","ND","ND","ND","ND","ND"],
    [33373,"04/18/2018 05:00","38,9","ND","ND","ND","ND","ND"],
    [33374,"04/18/2018 06:00","122,3","0,1","ND","ND","ND","ND"],
    [33375,"04/18/2018 07:00","ND","0,2","ND","ND","ND","ND"],
    [33376,"04/18/2018 08:00","ND","0,7","ND","ND","ND","ND"],
    [33377,"04/18/2018 09:00","ND","1","ND","ND","ND","ND"],
    [33378,"04/18/2018 10:00","ND","1,1","ND","ND","ND","ND"],
    [33379,"04/18/2018 11:00","142,8","1,8","ND","ND","ND","ND"],
    [33380,"04/18/2018 12:00","117,9","1,1","ND","ND","ND","ND"],
    [33381,"04/18/2018 13:00","89","2,6","ND","ND","ND","ND"],
    [33382,"04/18/2018 14:00","ND","2,1","ND","ND","ND","ND"],
    [33383,"04/18/2018 15:00","93,2","2,7","ND","ND","ND","ND"],
    [33384,"04/18/2018 16:00","80,5","2,2","ND","ND","ND","ND"],
    [33385,"04/18/2018 17:00","69,9","2","ND","ND","ND","ND"],
    [33386,"04/18/2018 18:00","139,2","0,8","ND","ND","ND","ND"],
    [33387,"04/18/2018 19:00","ND","0,1","ND","ND","ND","ND"],
    [33388,"04/18/2018 20:00","ND","0","ND","ND","ND","ND"],
    [33389,"04/18/2018 21:00","64,6","0,2","ND","ND","ND","ND"],
    [33390,"04/18/2018 22:00","76,5","0,6","ND","ND","ND","ND"],
    [33391,"04/18/2018 23:00","93,7","0,1","ND","ND","ND","ND"],
    [33392,"04/19/2018 00:00","84,1","0,2","ND","ND","ND","ND"],
    [33393,"04/19/2018 01:00","55,7","ND","ND","ND","ND","ND"],
    [33394,"04/19/2018 02:00","51,4","ND","ND","ND","ND","ND"],
    [33395,"04/19/2018 03:00","55,4","ND","ND","ND","ND","ND"],
    [33396,"04/19/2018 04:00","49,7","ND","ND","ND","ND","ND"],
    [33397,"04/19/2018 05:00","59,3","ND","ND","ND","ND","ND"],
    [33398,"04/19/2018 06:00","72,5","ND","ND","ND","ND","ND"],
    [33399,"04/19/2018 07:00","148,6","0,4","ND","ND","ND","ND"],
    [33400,"04/19/2018 08:00","178,9","0,7","ND","ND","ND","ND"],
    [33401,"04/19/2018 09:00","143,7","2,2","ND","ND","ND","ND"],
    [33402,"04/19/2018 10:00","96,6","3,1","ND","ND","ND","ND"],
    [33403,"04/19/2018 11:00","76,1","2,3","ND","ND","ND","ND"],
    [33404,"04/19/2018 12:00","78,4","1,4","ND","ND","ND","ND"],
    [33405,"04/19/2018 13:00","75,9","1,7","ND","ND","ND","ND"],
    [33406,"04/19/2018 14:00","75,9","1,2","ND","ND","ND","ND"],
    [33407,"04/19/2018 15:00","65,1","0,4","ND","ND","ND","ND"],
    [33408,"04/19/2018 16:00","161,3","ND","ND","ND","ND","ND"],
    [33409,"04/19/2018 17:00","114,1","ND","ND","ND","ND","ND"],
    [33410,"04/19/2018 18:00","99,7","ND","ND","ND","ND","ND"],
    [33411,"04/19/2018 19:00","44,8","0,1","ND","ND","ND","ND"],
    [33412,"04/19/2018 20:00","40,6","ND","ND","ND","ND","ND"],
    [33413,"04/19/2018 21:00","25,5","ND","ND","ND","ND","ND"],
    [33414,"04/19/2018 22:00","17,9","ND","ND","ND","ND","ND"],
    [33415,"04/19/2018 23:00","16,4","ND","ND","ND","ND","ND"],
    [33416,"04/20/2018 00:00","30,1","0,1","ND","ND","ND","ND"],
    [33417,"04/20/2018 01:00","13,5","ND","ND","ND","ND","ND"],
    [33418,"04/20/2018 02:00","10,5","ND","ND","ND","ND","ND"],
    [33419,"04/20/2018 03:00","10,1","ND","ND","ND","ND","ND"],
    [33420,"04/20/2018 04:00","12,8","ND","ND","ND","ND","ND"],
    [33421,"04/20/2018 05:00","23","0,3","ND","ND","ND","ND"],
    [33422,"04/20/2018 06:00","31,5","0","ND","ND","ND","ND"],
    [33423,"04/20/2018 07:00","65","0,3","ND","ND","ND","ND"],
    [33424,"04/20/2018 08:00","93,5","1","ND","ND","ND","ND"],
    [33425,"04/20/2018 09:00","90,4","1","ND","ND","ND","ND"],
    [33426,"04/20/2018 10:00","68,6","0,7","ND","ND","ND","ND"],
    [33427,"04/20/2018 11:00","113,2","2,3","ND","ND","ND","ND"],
    [33428,"04/20/2018 12:00","109,9","4","ND","ND","ND","ND"],
    [33429,"04/20/2018 13:00","112,5","2,4","ND","ND","ND","ND"],
    [33430,"04/20/2018 14:00","84,6","3,1","ND","ND","ND","ND"],
    [33431,"04/20/2018 15:00","79,2","3,6","ND","ND","ND","ND"],
    [33432,"04/20/2018 16:00","70,1","1,5","ND","ND","ND","ND"],
    [33433,"04/20/2018 17:00","52,4","0,9","ND","ND","ND","ND"],
    [33434,"04/20/2018 18:00","54","0,7","ND","ND","ND","ND"],
    [33435,"04/20/2018 19:00","199,6","0,7","ND","ND","ND","ND"],
    [33436,"04/20/2018 20:00","199,6","0,7","ND","ND","ND","ND"],
    [33437,"04/20/2018 21:00","59,1","0,6","ND","ND","ND","ND"],
    [33438,"04/20/2018 22:00","53,8","0,4","ND","ND","ND","ND"],
    [33439,"04/20/2018 23:00","45,6","0,3","ND","ND","ND","ND"],
    [33440,"04/21/2018 00:00","25,9","0,1","ND","ND","ND","ND"],
    [33441,"04/21/2018 01:00","22,8","ND","ND","ND","ND","ND"],
    [33442,"04/21/2018 02:00","27,8","ND","ND","ND","ND","ND"],
    [33443,"04/21/2018 03:00","33,4","ND","ND","ND","ND","ND"],
    [33444,"04/21/2018 04:00","55,1","ND","ND","ND","ND","ND"],
    [33445,"04/21/2018 05:00","40,7","ND","ND","ND","ND","ND"],
    [33446,"04/21/2018 06:00","70,7","0,1","ND","ND","ND","ND"],
    [33447,"04/21/2018 07:00","64,4","0,2","ND","ND","ND","ND"],
    [33448,"04/21/2018 08:00","102,4","0,6","ND","ND","ND","ND"],
    [33449,"04/21/2018 09:00","156","5,2","ND","ND","ND","ND"],
    [33450,"04/21/2018 10:00","149,8","8,8","ND","ND","ND","ND"],
    [33451,"04/21/2018 11:00","109,7","4,8","ND","ND","ND","ND"],
    [33452,"04/21/2018 12:00","88,9","3,2","ND","ND","ND","ND"],
    [33453,"04/21/2018 13:00","96,3","2,7","ND","ND","ND","ND"],
    [33454,"04/21/2018 14:00","107,6","2,5","ND","ND","ND","ND"],
    [33455,"04/21/2018 15:00","64,1","1,4","ND","ND","ND","ND"],
    [33456,"04/21/2018 16:00","45,6","0,1","ND","ND","ND","ND"],
    [33457,"04/21/2018 17:00","50,4","ND","ND","ND","ND","ND"],
    [33458,"04/21/2018 18:00","65,6","ND","ND","ND","ND","ND"],
    [33459,"04/21/2018 19:00","76,1","0,2","ND","ND","ND","ND"],
    [33460,"04/21/2018 20:00","45,5","ND","ND","ND","ND","ND"],
    [33461,"04/21/2018 21:00","60","ND","ND","ND","ND","ND"],
    [33462,"04/21/2018 22:00","55,6","0,2","ND","ND","ND","ND"],
    [33463,"04/21/2018 23:00","66,4","0,5","ND","ND","ND","ND"],
    [33464,"04/22/2018 00:00","57,4","0,2","ND","ND","ND","ND"],
    [33465,"04/22/2018 01:00","60,7","0,3","ND","ND","ND","ND"],
    [33466,"04/22/2018 02:00","51","0,2","ND","ND","ND","ND"],
    [33467,"04/22/2018 03:00","51,2","0,2","ND","ND","ND","ND"],
    [33468,"04/22/2018 04:00","45,8","0","ND","ND","ND","ND"],
    [33469,"04/22/2018 05:00","37,5","0","ND","ND","ND","ND"],
    [33470,"04/22/2018 06:00","41,9","0,1","ND","ND","ND","ND"],
    [33471,"04/22/2018 07:00","51,2","0,1","ND","ND","ND","ND"],
    [33472,"04/22/2018 08:00","79,4","1,2","ND","ND","ND","ND"],
    [33473,"04/22/2018 09:00","71,4","7,8","ND","ND","ND","ND"],
    [33474,"04/22/2018 10:00","58,6","5","ND","ND","ND","ND"],
    [33475,"04/22/2018 11:00","30,7","1,5","ND","ND","ND","ND"],
    [33476,"04/22/2018 12:00","67,1","1,1","ND","ND","ND","ND"],
    [33477,"04/22/2018 13:00","79,5","1,8","ND","ND","ND","ND"],
    [33478,"04/22/2018 14:00","62,3","4,1","ND","ND","ND","ND"],
    [33479,"04/22/2018 15:00","46,6","3,8","ND","ND","ND","ND"],
    [33480,"04/22/2018 16:00","32,6","0,7","ND","ND","ND","ND"],
    [33481,"04/22/2018 17:00","49,6","0,1","ND","ND","ND","ND"],
    [33482,"04/22/2018 18:00","49,6","ND","ND","ND","ND","ND"],
    [33483,"04/22/2018 19:00","29,8","ND","ND","ND","ND","ND"],
    [33484,"04/22/2018 20:00","80,2","0,3","ND","ND","ND","ND"],
    [33485,"04/22/2018 21:00","32,3","0,3","ND","ND","ND","ND"],
    [33486,"04/22/2018 22:00","58,3","0,5","ND","ND","ND","ND"],
    [33487,"04/22/2018 23:00","48,5","0,3","ND","ND","ND","ND"],
    [33488,"04/23/2018 00:00","36,1","0,1","ND","ND","ND","ND"],
    [33489,"04/23/2018 01:00","34,3","0,1","ND","ND","ND","ND"],
    [33490,"04/23/2018 02:00","29,9","ND","ND","ND","ND","ND"],
    [33491,"04/23/2018 03:00","26,7","ND","ND","ND","ND","ND"],
    [33492,"04/23/2018 04:00","31,9","ND","ND","ND","ND","ND"],
    [33493,"04/23/2018 05:00","52,6","0,2","ND","ND","ND","ND"],
    [33494,"04/23/2018 06:00","63,1","0,2","ND","ND","ND","ND"],
    [33495,"04/23/2018 07:00","106,2","0,6","ND","ND","ND","ND"],
    [33496,"04/23/2018 08:00","92,9","1","ND","ND","ND","ND"],
    [33497,"04/23/2018 09:00","92,9","1,2","ND","ND","ND","ND"],
    [33498,"04/23/2018 10:00","49,3","3,4","ND","ND","ND","ND"],
    [33499,"04/23/2018 11:00","42,9","3,5","ND","ND","ND","ND"],
    [33500,"04/23/2018 12:00","25,8","3","ND","ND","ND","ND"],
    [33501,"04/23/2018 13:00","39","1","ND","ND","ND","ND"],
    [33502,"04/23/2018 14:00","54,7","2,1","ND","ND","ND","ND"],
    [33503,"04/23/2018 15:00","65,1","0,2","ND","ND","ND","ND"],
    [33504,"04/23/2018 16:00","81,5","ND","ND","ND","ND","ND"],
    [33505,"04/23/2018 17:00","81,5","ND","ND","ND","ND","ND"],
    [33506,"04/23/2018 18:00","5,6","ND","ND","ND","ND","ND"],
    [33507,"04/23/2018 19:00","30,9","0,2","ND","ND","ND","ND"],
    [33508,"04/23/2018 20:00","34,6","0,6","ND","ND","ND","ND"],
    [33509,"04/23/2018 21:00","16,8","0,5","ND","ND","ND","ND"],
    [33510,"04/23/2018 22:00","29,5","0,5","ND","ND","ND","ND"],
    [33511,"04/23/2018 23:00","31,1","0,2","ND","ND","ND","ND"],
    [33512,"04/24/2018 00:00","32,4","0,1","ND","ND","ND","ND"],
    [33513,"04/24/2018 01:00","25,6","ND","ND","ND","ND","ND"],
    [33514,"04/24/2018 02:00","25,6","ND","ND","ND","ND","ND"],
    [33515,"04/24/2018 03:00","24,2","ND","ND","ND","ND","ND"],
    [33516,"04/24/2018 04:00","18,2","ND","ND","ND","ND","ND"],
    [33517,"04/24/2018 05:00","31,9","ND","ND","ND","ND","ND"],
    [33518,"04/24/2018 06:00","92,3","0,9","ND","ND","ND","ND"],
    [33519,"04/24/2018 07:00","58","0,3","ND","ND","ND","ND"],
    [33520,"04/24/2018 08:00","93","0,8","ND","ND","ND","ND"],
    [33521,"04/24/2018 09:00","80,1","1,5","ND","ND","ND","ND"],
    [33522,"04/24/2018 10:00","86,1","3,7","ND","ND","ND","ND"],
    [33523,"04/24/2018 11:00","93,4","7,8","ND","ND","ND","ND"],
    [33524,"04/24/2018 12:00","57,6","5,2","ND","ND","ND","ND"],
    [33525,"04/24/2018 13:00","56,7","3,7","ND","ND","ND","ND"],
    [33526,"04/24/2018 14:00","70,7","2,1","ND","ND","ND","ND"],
    [33527,"04/24/2018 15:00","42,7","0,8","ND","ND","ND","ND"],
    [33528,"04/24/2018 16:00","41,4","ND","ND","ND","ND","ND"],
    [33529,"04/24/2018 17:00","54,1","ND","ND","ND","ND","ND"],
    [33530,"04/24/2018 18:00","24,1","ND","ND","ND","ND","ND"],
    [33531,"04/24/2018 19:00","27,8","ND","ND","ND","ND","ND"],
    [33532,"04/24/2018 20:00","37,1","0,1","ND","ND","ND","ND"],
    [33533,"04/24/2018 21:00","63,4","0,3","ND","ND","ND","ND"],
    [33534,"04/24/2018 22:00","53,3","0,4","ND","ND","ND","ND"],
    [33535,"04/24/2018 23:00","73,3","0,4","ND","ND","ND","ND"],
    [33536,"04/25/2018 00:00","39,8","0,6","ND","ND","ND","ND"],
    [33537,"04/25/2018 01:00","31,1","0","ND","ND","ND","ND"],
    [33538,"04/25/2018 02:00","36,9","0,1","ND","ND","ND","ND"],
    [33539,"04/25/2018 03:00","25,5","0,1","ND","ND","ND","ND"],
    [33540,"04/25/2018 04:00","25,9","0","ND","ND","ND","ND"],
    [33541,"04/25/2018 05:00","34,7","ND","ND","ND","ND","ND"],
    [33542,"04/25/2018 06:00","48,5","0,1","ND","ND","ND","ND"],
    [33543,"04/25/2018 07:00","74,2","0,5","ND","ND","ND","ND"],
    [33544,"04/25/2018 08:00","48,4","0,6","ND","ND","ND","ND"],
    [33545,"04/25/2018 09:00","31,9","1,2","ND","ND","ND","ND"],
    [33546,"04/25/2018 10:00","50","1,3","ND","ND","ND","ND"],
    [33547,"04/25/2018 11:00","75,4","2,2","ND","ND","ND","ND"],
    [33548,"04/25/2018 12:00","60,9","2,9","ND","ND","ND","ND"],
    [33549,"04/25/2018 13:00","47","3,1","ND","ND","ND","ND"],
    [33550,"04/25/2018 14:00","70,9","3,4","ND","ND","ND","ND"],
    [33551,"04/25/2018 15:00","54,7","2,6","ND","ND","ND","ND"],
    [33552,"04/25/2018 16:00","66","1","ND","ND","ND","ND"],
    [33553,"04/25/2018 17:00","66,7","0,7","ND","ND","ND","ND"],
    [33554,"04/25/2018 18:00","65,2","1,3","ND","ND","ND","ND"],
    [33555,"04/25/2018 19:00","66","0,4","ND","ND","ND","ND"],
    [33556,"04/25/2018 20:00","36,7","0,2","ND","ND","ND","ND"],
    [33557,"04/25/2018 21:00","32,8","0","ND","ND","ND","ND"],
    [33558,"04/25/2018 22:00","27,9","0,1","ND","ND","ND","ND"],
    [33559,"04/25/2018 23:00","31,4","0,1","ND","ND","ND","ND"],
    [33560,"04/26/2018 00:00","54,6","0,6","ND","ND","ND","ND"],
    [33561,"04/26/2018 01:00","31,1","0,2","ND","ND","ND","ND"],
    [33562,"04/26/2018 02:00","26,7","ND","ND","ND","ND","ND"],
    [33563,"04/26/2018 03:00","30,2","0,1","ND","ND","ND","ND"],
    [33564,"04/26/2018 04:00","28,1","0,8","ND","ND","ND","ND"],
    [33565,"04/26/2018 05:00","43,5","0,1","ND","ND","ND","ND"],
    [33566,"04/26/2018 06:00","59,8","0,7","ND","ND","ND","ND"],
    [33567,"04/26/2018 07:00","70,2","2,2","ND","ND","ND","ND"],
    [33568,"04/26/2018 08:00","77,1","1,9","ND","ND","ND","ND"],
    [33569,"04/26/2018 09:00","53,4","3","ND","ND","ND","ND"],
    [33570,"04/26/2018 10:00","52","3,5","ND","ND","ND","ND"],
    [33571,"04/26/2018 11:00","41,6","4,5","ND","ND","ND","ND"],
    [33572,"04/26/2018 12:00","39","2,8","ND","ND","ND","ND"],
    [33573,"04/26/2018 13:00","40,8","5,3","ND","ND","ND","ND"],
    [33574,"04/26/2018 14:00","44,6","5","ND","ND","ND","ND"],
    [33575,"04/26/2018 15:00","41,8","1,5","ND","ND","ND","ND"],
    [33576,"04/26/2018 16:00","39,4","0,5","ND","ND","ND","ND"],
    [33577,"04/26/2018 17:00","34","ND","ND","ND","ND","ND"],
    [33578,"04/26/2018 18:00","25,9","ND","ND","ND","ND","ND"],
    [33579,"04/26/2018 19:00","24,4","ND","ND","ND","ND","ND"],
    [33580,"04/26/2018 20:00","60,7","0,2","ND","ND","ND","ND"],
    [33581,"04/26/2018 21:00","63,9","0,2","ND","ND","ND","ND"],
    [33582,"04/26/2018 22:00","74,3","0,7","ND","ND","ND","ND"],
    [33583,"04/26/2018 23:00","61,8","1,1","ND","ND","ND","ND"],
    [33584,"04/27/2018 00:00","37,5","0,5","ND","ND","ND","ND"],
    [33585,"04/27/2018 01:00","31,3","0,1","ND","ND","ND","ND"],
    [33586,"04/27/2018 02:00","54,2","0,2","ND","ND","ND","ND"],
    [33587,"04/27/2018 03:00","25","0","ND","ND","ND","ND"],
    [33588,"04/27/2018 04:00","22,3","ND","ND","ND","ND","ND"],
    [33589,"04/27/2018 05:00","48,4","0,1","ND","ND","ND","ND"],
    [33590,"04/27/2018 06:00","41,6","0,1","ND","ND","ND","ND"],
    [33591,"04/27/2018 07:00","76,6","0,5","ND","ND","ND","ND"],
    [33592,"04/27/2018 08:00","92,4","0,9","ND","ND","ND","ND"],
    [33593,"04/27/2018 09:00","74,9","ND","ND","ND","ND","ND"],
    [33594,"04/27/2018 10:00","45,3","ND","ND","ND","ND","ND"],
    [33595,"04/27/2018 11:00","55,2","2,4","ND","ND","ND","ND"],
    [33596,"04/27/2018 12:00","55,2","1,8","ND","ND","ND","ND"],
    [33597,"04/27/2018 13:00","63,4","1,5","ND","ND","ND","ND"],
    [33598,"04/27/2018 14:00","54,3","2,1","ND","ND","ND","ND"],
    [33599,"04/27/2018 15:00","75,8","3,2","ND","ND","ND","ND"],
    [33600,"04/27/2018 16:00","46,4","1,1","ND","ND","ND","ND"],
    [33601,"04/27/2018 17:00","39","0,5","ND","ND","ND","ND"],
    [33602,"04/27/2018 18:00","39,6","0,6","ND","ND","ND","ND"],
    [33603,"04/27/2018 19:00","29,1","0,6","ND","ND","ND","ND"],
    [33604,"04/27/2018 20:00","29,1","0,5","ND","ND","ND","ND"],
    [33605,"04/27/2018 21:00","36,7","0,7","ND","ND","ND","ND"],
    [33606,"04/27/2018 22:00","36","1,4","ND","ND","ND","ND"],
    [33607,"04/27/2018 23:00","36,2","1,1","ND","ND","ND","ND"],
    [33608,"04/28/2018 00:00","35,7","0,7","ND","ND","ND","ND"],
    [33609,"04/28/2018 01:00","34,6","0,7","ND","ND","ND","ND"],
    [33610,"04/28/2018 02:00","19,9","0,3","ND","ND","ND","ND"],
    [33611,"04/28/2018 03:00","22,2","0,3","ND","ND","ND","ND"],
    [33612,"04/28/2018 04:00","21,8","0,3","ND","ND","ND","ND"],
    [33613,"04/28/2018 05:00","28,8","0,3","ND","ND","ND","ND"],
    [33614,"04/28/2018 06:00","26,9","0,4","ND","ND","ND","ND"],
    [33615,"04/28/2018 07:00","37,3","0,6","ND","ND","ND","ND"],
    [33616,"04/28/2018 08:00","39,7","0,8","ND","ND","ND","ND"],
    [33617,"04/28/2018 09:00","55,9","1","ND","ND","ND","ND"],
    [33618,"04/28/2018 10:00","77,2","1,4","ND","ND","ND","ND"],
    [33619,"04/28/2018 11:00","60","3,3","ND","ND","ND","ND"],
    [33620,"04/28/2018 12:00","54,5","3,2","ND","ND","ND","ND"],
    [33621,"04/28/2018 13:00","53,1","2,3","ND","ND","ND","ND"],
    [33622,"04/28/2018 14:00","48,5","1,8","ND","ND","ND","ND"],
    [33623,"04/28/2018 15:00","40,7","1,7","ND","ND","ND","ND"],
    [33624,"04/28/2018 16:00","15,2","0,8","ND","ND","ND","ND"],
    [33625,"04/28/2018 17:00","39","1,5","ND","ND","ND","ND"],
    [33626,"04/28/2018 18:00","27,8","1,1","ND","ND","ND","ND"],
    [33627,"04/28/2018 19:00","62,1","1,3","ND","ND","ND","ND"],
    [33628,"04/28/2018 20:00","57,3","1,2","ND","ND","ND","ND"],
    [33629,"04/28/2018 21:00","57,5","1,2","ND","ND","ND","ND"],
    [33630,"04/28/2018 22:00","50","1","ND","ND","ND","ND"],
    [33631,"04/28/2018 23:00","36,3","0,8","ND","ND","ND","ND"],
    [33632,"04/29/2018 00:00","34,1","0,7","ND","ND","ND","ND"],
    [33633,"04/29/2018 01:00","34,7","0,6","ND","ND","ND","ND"],
    [33634,"04/29/2018 02:00","41,9","0,6","ND","ND","ND","ND"],
    [33635,"04/29/2018 03:00","53,8","0,7","ND","ND","ND","ND"],
    [33636,"04/29/2018 04:00","30,1","0,5","ND","ND","ND","ND"],
    [33637,"04/29/2018 05:00","47,7","0,6","ND","ND","ND","ND"],
    [33638,"04/29/2018 06:00","47,7","0,8","ND","ND","ND","ND"],
    [33639,"04/29/2018 07:00","64,8","0,9","ND","ND","ND","ND"],
    [33640,"04/29/2018 08:00","76,4","1","ND","ND","ND","ND"],
    [33641,"04/29/2018 09:00","66,6","1,2","ND","ND","ND","ND"],
    [33642,"04/29/2018 10:00","1,2","0,8","ND","ND","ND","ND"],
    [33643,"04/29/2018 11:00","19,6","0,7","ND","ND","ND","ND"],
    [33644,"04/29/2018 12:00","10,8","0,7","ND","ND","ND","ND"],
    [33645,"04/29/2018 13:00","20,3","0,6","ND","ND","ND","ND"],
    [33646,"04/29/2018 14:00","27,5","0,7","ND","ND","ND","ND"],
    [33647,"04/29/2018 15:00","4,6","0,6","ND","ND","ND","ND"],
    [33648,"04/29/2018 16:00","6,8","0,4","ND","ND","ND","ND"],
    [33649,"04/29/2018 17:00","35,7","0,5","ND","ND","ND","ND"],
    [33650,"04/29/2018 18:00","31,5","0,6","ND","ND","ND","ND"],
    [33651,"04/29/2018 19:00","53,9","0,5","ND","ND","ND","ND"],
    [33652,"04/29/2018 20:00","47,7","0,6","ND","ND","ND","ND"],
    [33653,"04/29/2018 21:00","35,8","0,7","ND","ND","ND","ND"],
    [33654,"04/29/2018 22:00","28,3","0,4","ND","ND","ND","ND"],
    [33655,"04/29/2018 23:00","18,5","0,3","ND","ND","ND","ND"],
    [33656,"04/30/2018 00:00","17,5","0,2","ND","ND","ND","ND"],
    [33657,"04/30/2018 01:00","21,5","0,3","ND","ND","ND","ND"],
    [33658,"04/30/2018 02:00","21,9","0,3","ND","ND","ND","ND"],
    [33659,"04/30/2018 03:00","24,9","0,5","ND","ND","ND","ND"],
    [33660,"04/30/2018 04:00","22,2","0,3","ND","ND","ND","ND"],
    [33661,"04/30/2018 05:00","33,6","0,8","ND","ND","ND","ND"],
    [33662,"04/30/2018 06:00","52,7","0,7","ND","ND","ND","ND"],
    [33663,"04/30/2018 07:00","87,6","1,3","ND","ND","ND","ND"],
    [33664,"04/30/2018 08:00","86","1,3","ND","ND","ND","ND"],
    [33665,"04/30/2018 09:00","83,9","1,7","ND","ND","ND","ND"],
    [33666,"04/30/2018 10:00","59,5","1,8","ND","ND","ND","ND"],
    [33667,"04/30/2018 11:00","54,7","1,5","ND","ND","ND","ND"],
    [33668,"04/30/2018 12:00","51,9","1,3","ND","ND","ND","ND"],
    [33669,"04/30/2018 13:00","48,6","1,4","ND","ND","ND","ND"],
    [33670,"04/30/2018 14:00","53","1,2","ND","ND","ND","ND"],
    [33671,"04/30/2018 15:00","65,7","1,3","ND","ND","ND","ND"],
    [33672,"04/30/2018 16:00","64,9","1,4","ND","ND","ND","ND"],
    [33673,"04/30/2018 17:00","71,8","1,4","ND","ND","ND","ND"],
    [33674,"04/30/2018 18:00","59,5","0,9","ND","ND","ND","ND"],
    [33675,"04/30/2018 19:00","17,3","0,6","ND","ND","ND","ND"],
    [33676,"04/30/2018 20:00","28,6","0,5","ND","ND","ND","ND"],
    [33677,"04/30/2018 21:00","52,4","0,8","ND","ND","ND","ND"],
    [33678,"04/30/2018 22:00","38,3","0,6","ND","ND","ND","ND"],
    [33679,"04/30/2018 23:00","49,8","0,7","ND","ND","ND","ND"],
    [33680,"43105","49,8","0,4","ND","ND","ND","ND"],
    [33681,"43105,04167","31,1","0,3","ND","ND","ND","ND"],
    [33682,"43105,08333","36,9","0,3","ND","ND","ND","ND"],
    [33683,"43105,125","46,6","0,2","ND","ND","ND","ND"],
    [33684,"43105,16667","49,6","0,2","ND","ND","ND","ND"],
    [33685,"43105,20833","26,8","0,1","ND","ND","ND","ND"],
    [33686,"43105,25","27,8","0,4","ND","ND","ND","ND"],
    [33687,"43105,29167","29,4","0,2","ND","ND","ND","ND"],
    [33688,"43105,33333","46,3","0,4","ND","ND","ND","ND"],
    [33689,"43105,375","49,3","0,6","ND","ND","ND","ND"],
    [33690,"43105,41667","33,6","0,6","ND","ND","ND","ND"],
    [33691,"43105,45833","30,9","1,5","ND","ND","ND","ND"],
    [33692,"43105,5","19,3","1,2","ND","ND","ND","ND"],
    [33693,"43105,54167","23,9","1","ND","ND","ND","ND"],
    [33694,"43105,58333","19,8","1","ND","ND","ND","ND"],
    [33695,"43105,625","29,3","0,9","ND","ND","ND","ND"],
    [33696,"43105,66667","20,2","0,5","ND","ND","ND","ND"],
    [33697,"43105,70833","9,5","0,2","ND","ND","ND","ND"],
    [33698,"43105,75","20,7","0,3","ND","ND","ND","ND"],
    [33699,"43105,79167","25,3","0,3","ND","ND","ND","ND"],
    [33700,"43105,83333","43,9","0,5","ND","ND","ND","ND"],
    [33701,"43105,875","28,1","0,8","ND","ND","ND","ND"],
    [33702,"43105,91667","28,1","0,4","ND","ND","ND","ND"],
    [33703,"43105,95833","20,3","0,4","ND","ND","ND","ND"],
    [33704,"43136","20","0,2","ND","ND","ND","ND"],
    [33705,"43136,04167","16","0,3","ND","ND","ND","ND"],
    [33706,"43136,08333","18,6","0,1","ND","ND","ND","ND"],
    [33707,"43136,125","26,3","0","ND","ND","ND","ND"],
    [33708,"43136,16667","21,4","0,1","ND","ND","ND","ND"],
    [33709,"43136,20833","42,8","0,2","ND","ND","ND","ND"],
    [33710,"43136,25","51,3","0,3","ND","ND","ND","ND"],
    [33711,"43136,29167","83,1","0,9","ND","ND","ND","ND"],
    [33712,"43136,33333","72,8","0,9","ND","ND","ND","ND"],
    [33713,"43136,375","98,8","2,4","ND","ND","ND","ND"],
    [33714,"43136,41667","53,3","2,7","ND","ND","ND","ND"],
    [33715,"43136,45833","35","2,3","ND","ND","ND","ND"],
    [33716,"43136,5","29,2","1,7","ND","ND","ND","ND"],
    [33717,"43136,54167","34,2","1,2","ND","ND","ND","ND"],
    [33718,"43136,58333","45","1,2","ND","ND","ND","ND"],
    [33719,"43136,625","51","1,4","ND","ND","ND","ND"],
    [33720,"43136,66667","53,7","1,3","ND","ND","ND","ND"],
    [33721,"43136,70833","56,5","0,7","ND","ND","ND","ND"],
    [33722,"43136,75","41,3","0,5","ND","ND","ND","ND"],
    [33723,"43136,79167","44,7","1","ND","ND","ND","ND"],
    [33724,"43136,83333","12,4","0,8","ND","ND","ND","ND"],
    [33725,"43136,875","42","1","ND","ND","ND","ND"],
    [33726,"43136,91667","14,5","0,6","ND","ND","ND","ND"],
    [33727,"43136,95833","55,5","0,8","ND","ND","ND","ND"],
    [33728,"43164","33","0,7","ND","ND","ND","ND"],
    [33729,"43164,04167","30,3","0,6","ND","ND","ND","ND"],
    [33730,"43164,08333","25,6","0,3","ND","ND","ND","ND"],
    [33731,"43164,125","19,6","0,3","ND","ND","ND","ND"],
    [33732,"43164,16667","27,1","0,3","ND","ND","ND","ND"],
    [33733,"43164,20833","28,2","0,4","ND","ND","ND","ND"],
    [33734,"43164,25","49,6","0,6","ND","ND","ND","ND"],
    [33735,"43164,29167","73,1","0,9","ND","ND","ND","ND"],
    [33736,"43164,33333","57,2","1,2","ND","ND","ND","ND"],
    [33737,"43164,375","77,3","1,7","ND","ND","ND","ND"],
    [33738,"43164,41667","43,8","2,2","ND","ND","ND","ND"],
    [33739,"43164,45833","36,7","2","ND","ND","ND","ND"],
    [33740,"43164,5","32,6","1,9","ND","ND","ND","ND"],
    [33741,"43164,54167","45,5","1,2","ND","ND","ND","ND"],
    [33742,"43164,58333","20,4","0,4","ND","ND","ND","ND"],
    [33743,"43164,625","44,2","0,5","ND","ND","ND","ND"],
    [33744,"43164,66667","49,7","1,3","ND","ND","ND","ND"],
    [33745,"43164,70833","28,4","2","ND","ND","ND","ND"],
    [33746,"43164,75","21,1","1","ND","ND","ND","ND"],
    [33747,"43164,79167","39,7","0,9","ND","ND","ND","ND"],
    [33748,"43164,83333","97,3","1","ND","ND","ND","ND"],
    [33749,"43164,875","60,1","1,1","ND","ND","ND","ND"],
    [33750,"43164,91667","52,7","1","ND","ND","ND","ND"],
    [33751,"43164,95833","32,5","0,7","ND","ND","ND","ND"],
    [33752,"43195","26,4","0,7","ND","ND","ND","ND"],
    [33753,"43195,04167","25,1","0,4","ND","ND","ND","ND"],
    [33754,"43195,08333","46,4","0,6","ND","ND","ND","ND"],
    [33755,"43195,125","31,3","0,7","ND","ND","ND","ND"],
    [33756,"43195,16667","27,8","0,5","ND","ND","ND","ND"],
    [33757,"43195,20833","20,9","0,5","ND","ND","ND","ND"],
    [33758,"43195,25","43,1","0,5","ND","ND","ND","ND"],
    [33759,"43195,29167","72,7","0,9","ND","ND","ND","ND"],
    [33760,"43195,33333","48,3","0,9","ND","ND","ND","ND"],
    [33761,"43195,375","55,9","1","ND","ND","ND","ND"],
    [33762,"43195,41667","38,9","1,1","ND","ND","ND","ND"],
    [33763,"43195,45833","53,8","1","ND","ND","ND","ND"],
    [33764,"43195,5","62,6","1,1","ND","ND","ND","ND"],
    [33765,"43195,54167","25,2","0,8","ND","ND","ND","ND"],
    [33766,"43195,58333","13,9","0,5","ND","ND","ND","ND"],
    [33767,"43195,625","32,3","1,3","ND","ND","ND","ND"],
    [33768,"43195,66667","44,8","0,9","ND","ND","ND","ND"],
    [33769,"43195,70833","60,2","1","ND","ND","ND","ND"],
    [33770,"43195,75","56,2","0,9","ND","ND","ND","ND"],
    [33771,"43195,79167","57","0,8","ND","ND","ND","ND"],
    [33772,"43195,83333","53,4","0,9","ND","ND","ND","ND"],
    [33773,"43195,875","65,5","1","ND","ND","ND","ND"],
    [33774,"43195,91667","25,8","0,9","ND","ND","ND","ND"],
    [33775,"43195,95833","45,8","0,9","ND","ND","ND","ND"],
    [33776,"43225","44","1","ND","ND","ND","ND"],
    [33777,"43225,04167","38","0,7","ND","ND","ND","ND"],
    [33778,"43225,08333","26,1","0,6","ND","ND","ND","ND"],
    [33779,"43225,125","ND","0,2","ND","ND","ND","ND"],
    [33780,"43225,16667","13,6","0,3","ND","ND","ND","ND"],
    [33781,"43225,20833","16,7","0,2","ND","ND","ND","ND"],
    [33782,"43225,25","5,3","0,2","ND","ND","ND","ND"],
    [33783,"43225,29167","16","0,4","ND","ND","ND","ND"],
    [33784,"43225,33333","26,3","0,5","ND","ND","ND","ND"],
    [33785,"43225,375","20,4","0,8","ND","ND","ND","ND"],
    [33786,"43225,41667","38,7","0,8","ND","ND","ND","ND"],
    [33787,"43225,45833","27","0,6","ND","ND","ND","ND"],
    [33788,"43225,5","4","0,5","ND","ND","ND","ND"],
    [33789,"43225,54167","11,4","0,6","ND","ND","ND","ND"],
    [33790,"43225,58333","44,2","0,5","ND","ND","ND","ND"],
    [33791,"43225,625","32,9","0,8","ND","ND","ND","ND"],
    [33792,"43225,66667","55,6","3,3","ND","ND","ND","ND"],
    [33793,"43225,70833","40,2","2,8","ND","ND","ND","ND"],
    [33794,"43225,75","62,8","1,9","ND","ND","ND","ND"],
    [33795,"43225,79167","86,6","2","ND","ND","ND","ND"],
    [33796,"43225,83333","71,8","1,7","ND","ND","ND","ND"],
    [33797,"43225,875","65,7","1,4","ND","ND","ND","ND"],
    [33798,"43225,91667","50,8","1","ND","ND","ND","ND"],
    [33799,"43225,95833","65,5","1,2","ND","ND","ND","ND"],
    [33800,"43256","56,2","1","ND","ND","ND","ND"],
    [33801,"43256,04167","40,8","0,7","ND","ND","ND","ND"],
    [33802,"43256,08333","36,8","0,5","ND","ND","ND","ND"],
    [33803,"43256,125","35,6","0,4","ND","ND","ND","ND"],
    [33804,"43256,16667","35,4","0,4","ND","ND","ND","ND"],
    [33805,"43256,20833","32,7","0,4","ND","ND","ND","ND"],
    [33806,"43256,25","42,7","0,5","ND","ND","ND","ND"],
    [33807,"43256,29167","36,7","0,4","ND","ND","ND","ND"],
    [33808,"43256,33333","46","0,6","ND","ND","ND","ND"],
    [33809,"43256,375","35,6","0,6","ND","ND","ND","ND"],
    [33810,"43256,41667","46,9","1,1","ND","ND","ND","ND"],
    [33811,"43256,45833","37,5","1,7","ND","ND","ND","ND"],
    [33812,"43256,5","30,4","1,6","ND","ND","ND","ND"],
    [33813,"43256,54167","30,4","1,3","ND","ND","ND","ND"],
    [33814,"43256,58333","5,5","0,5","ND","ND","ND","ND"],
    [33815,"43256,625","14,5","0,3","ND","ND","ND","ND"],
    [33816,"43256,66667","28,1","0,4","ND","ND","ND","ND"],
    [33817,"43256,70833","10,7","0,3","ND","ND","ND","ND"],
    [33818,"43256,75","3,8","0,4","ND","ND","ND","ND"],
    [33819,"43256,79167","18,6","0,4","ND","ND","ND","ND"],
    [33820,"43256,83333","9,4","0,4","ND","ND","ND","ND"],
    [33821,"43256,875","10,5","0,2","ND","ND","ND","ND"],
    [33822,"43256,91667","15,3","0,4","ND","ND","ND","ND"],
    [33823,"43256,95833","5,8","0,3","ND","ND","ND","ND"],
    [33824,"43286","5,8","0,2","ND","ND","ND","ND"],
    [33825,"43286,04167","13,7","0,2","ND","ND","ND","ND"],
    [33826,"43286,08333","14,7","0,2","ND","ND","ND","ND"],
    [33827,"43286,125","12","0,2","ND","ND","ND","ND"],
    [33828,"43286,16667","17,7","0,1","ND","ND","ND","ND"],
    [33829,"43286,20833","23,1","0,3","ND","ND","ND","ND"],
    [33830,"43286,25","34,1","0,3","ND","ND","ND","ND"],
    [33831,"43286,29167","64,6","0,8","ND","ND","ND","ND"],
    [33832,"43286,33333","60,6","1,3","ND","ND","ND","ND"],
    [33833,"43286,375","71,9","ND","ND","ND","ND","ND"],
    [33834,"43286,41667","58,8","0,8","ND","ND","ND","ND"],
    [33835,"43286,45833","45,3","0,6","ND","ND","ND","ND"],
    [33836,"43286,5","37","0,7","ND","ND","ND","ND"],
    [33837,"43286,54167","28","0,7","ND","ND","ND","ND"],
    [33838,"43286,58333","34,3","0,7","ND","ND","ND","ND"],
    [33839,"43286,625","23,5","0,5","ND","ND","ND","ND"],
    [33840,"43286,66667","29","0,5","ND","ND","ND","ND"],
    [33841,"43286,70833","31,9","0,6","ND","ND","ND","ND"],
    [33842,"43286,75","31,5","0,6","ND","ND","ND","ND"],
    [33843,"43286,79167","13,4","0,8","ND","ND","ND","ND"],
    [33844,"43286,83333","19,7","0,5","ND","ND","ND","ND"],
    [33845,"43286,875","22,5","0,7","ND","ND","ND","ND"],
    [33846,"43286,91667","21,2","0,8","ND","ND","ND","ND"],
    [33847,"43286,95833","15,9","0,5","ND","ND","ND","ND"],
    [33848,"43317","10,7","0,5","ND","ND","ND","ND"],
    [33849,"43317,04167","16,1","0,4","ND","ND","ND","ND"],
    [33850,"43317,08333","21,1","0,2","ND","ND","ND","ND"],
    [33851,"43317,125","14,4","0,3","ND","ND","ND","ND"],
    [33852,"43317,16667","8,3","0,3","ND","ND","ND","ND"],
    [33853,"43317,20833","24,2","0,3","ND","ND","ND","ND"],
    [33854,"43317,25","22,3","0,4","ND","ND","ND","ND"],
    [33855,"43317,29167","33,6","0,9","ND","ND","ND","ND"],
    [33856,"43317,33333","37,1","1,1","ND","ND","ND","ND"],
    [33857,"43317,375","40,5","1,4","ND","ND","ND","ND"],
    [33858,"43317,41667","39,1","1,4","ND","ND","ND","ND"],
    [33859,"43317,45833","39,5","1,3","ND","ND","ND","ND"],
    [33860,"43317,5","42,1","1,2","ND","ND","ND","ND"],
    [33861,"43317,54167","47,4","1,2","ND","ND","ND","ND"],
    [33862,"43317,58333","40,6","2","ND","ND","ND","ND"],
    [33863,"43317,625","42,3","1,7","ND","ND","ND","ND"],
    [33864,"43317,66667","45,3","1,3","ND","ND","ND","ND"],
    [33865,"43317,70833","48","1","ND","ND","ND","ND"],
    [33866,"43317,75","87,1","1","ND","ND","ND","ND"],
    [33867,"43317,79167","61,3","0,8","ND","ND","ND","ND"],
    [33868,"43317,83333","68,7","0,9","ND","ND","ND","ND"],
    [33869,"43317,875","65,1","1","ND","ND","ND","ND"],
    [33870,"43317,91667","65,1","0,7","ND","ND","ND","ND"],
    [33871,"43317,95833","37,7","1","ND","ND","ND","ND"],
    [33872,"43348","29,3","1","ND","ND","ND","ND"],
    [33873,"43348,04167","19,2","0,4","ND","ND","ND","ND"],
    [33874,"43348,08333","24,4","0,5","ND","ND","ND","ND"],
    [33875,"43348,125","24,7","0,3","ND","ND","ND","ND"],
    [33876,"43348,16667","25,6","0,5","ND","ND","ND","ND"],
    [33877,"43348,20833","29,4","0,5","ND","ND","ND","ND"],
    [33878,"43348,25","11,1","0,6","ND","ND","ND","ND"],
    [33879,"43348,29167","21,6","0,7","ND","ND","ND","ND"],
    [33880,"43348,33333","25,8","1","ND","ND","ND","ND"],
    [33881,"43348,375","12,2","0,8","ND","ND","ND","ND"],
    [33882,"43348,41667","19,5","0,7","ND","ND","ND","ND"],
    [33883,"43348,45833","31,4","0,6","ND","ND","ND","ND"],
    [33884,"43348,5","43,4","0,7","ND","ND","ND","ND"],
    [33885,"43348,54167","47,9","1,1","ND","ND","ND","ND"],
    [33886,"43348,58333","39,7","0,9","ND","ND","ND","ND"],
    [33887,"43348,625","50,1","0,8","ND","ND","ND","ND"],
    [33888,"43348,66667","16,4","0,6","ND","ND","ND","ND"],
    [33889,"43348,70833","ND","0,5","ND","ND","ND","ND"],
    [33890,"43348,75","8,4","0,4","ND","ND","ND","ND"],
    [33891,"43348,79167","56","0,8","ND","ND","ND","ND"],
    [33892,"43348,83333","56,2","0,9","ND","ND","ND","ND"],
    [33893,"43348,875","21,4","0,5","ND","ND","ND","ND"],
    [33894,"43348,91667","5,7","0,5","ND","ND","ND","ND"],
    [33895,"43348,95833","11,9","0,5","ND","ND","ND","ND"],
    [33896,"43378","4,6","0,3","ND","ND","ND","ND"],
    [33897,"43378,04167","14,9","0,3","ND","ND","ND","ND"],
    [33898,"43378,08333","13,5","0,2","ND","ND","ND","ND"],
    [33899,"43378,125","14,6","0,3","ND","ND","ND","ND"],
    [33900,"43378,16667","14,5","0,3","ND","ND","ND","ND"],
    [33901,"43378,20833","26","0,2","ND","ND","ND","ND"],
    [33902,"43378,25","43,7","0,6","ND","ND","ND","ND"],
    [33903,"43378,29167","59,7","0,9","ND","ND","ND","ND"],
    [33904,"43378,33333","65,5","1,2","ND","ND","ND","ND"],
    [33905,"43378,375","64,3","1,2","ND","ND","ND","ND"],
    [33906,"43378,41667","64,9","1,9","ND","ND","ND","ND"],
    [33907,"43378,45833","55,6","3","ND","ND","ND","ND"],
    [33908,"43378,5","42,3","1,9","ND","ND","ND","ND"],
    [33909,"43378,54167","37,3","1,5","ND","ND","ND","ND"],
    [33910,"43378,58333","36,2","1,4","ND","ND","ND","ND"],
    [33911,"43378,625","47,3","1,4","ND","ND","ND","ND"],
    [33912,"43378,66667","53,8","1,2","ND","ND","ND","ND"],
    [33913,"43378,70833","72,1","1,1","ND","ND","ND","ND"],
    [33914,"43378,75","70,1","0,7","ND","ND","ND","ND"],
    [33915,"43378,79167","28,6","0,8","ND","ND","ND","ND"],
    [33916,"43378,83333","62,6","1,1","ND","ND","ND","ND"],
    [33917,"43378,875","16,7","0,6","ND","ND","ND","ND"],
    [33918,"43378,91667","30,3","0,7","ND","ND","ND","ND"],
    [33919,"43378,95833","37","0,6","ND","ND","ND","ND"],
    [33920,"43409","47,9","0,9","ND","ND","ND","ND"],
    [33921,"43409,04167","44,5","0,6","ND","ND","ND","ND"],
    [33922,"43409,08333","28,5","0,6","ND","ND","ND","ND"],
    [33923,"43409,125","23,1","0,4","ND","ND","ND","ND"],
    [33924,"43409,16667","28,3","0,4","ND","ND","ND","ND"],
    [33925,"43409,20833","36,8","0,3","ND","ND","ND","ND"],
    [33926,"43409,25","48,5","0,8","ND","ND","ND","ND"],
    [33927,"43409,29167","53,6","0,8","ND","ND","ND","ND"],
    [33928,"43409,33333","74,7","1,2","ND","ND","ND","ND"],
    [33929,"43409,375","112,4","1,6","ND","ND","ND","ND"],
    [33930,"43409,41667","84,2","2,2","ND","ND","ND","ND"],
    [33931,"43409,45833","54,8","2,7","ND","ND","ND","ND"],
    [33932,"43409,5","35,8","2,2","ND","ND","ND","ND"],
    [33933,"43409,54167","34,9","1,8","ND","ND","ND","ND"],
    [33934,"43409,58333","38,2","1,8","ND","ND","ND","ND"],
    [33935,"43409,625","58,8","2","ND","ND","ND","ND"],
    [33936,"43409,66667","40,4","1,4","ND","ND","ND","ND"],
    [33937,"43409,70833","1,8","0,5","ND","ND","ND","ND"],
    [33938,"43409,75","14,2","0,6","ND","ND","ND","ND"],
    [33939,"43409,79167","29","0,7","ND","ND","ND","ND"],
    [33940,"43409,83333","17,7","0,5","ND","ND","ND","ND"],
    [33941,"43409,875","50,2","0,7","ND","ND","ND","ND"],
    [33942,"43409,91667","58,4","1","ND","ND","ND","ND"],
    [33943,"43409,95833","43","0,8","ND","ND","ND","ND"],
    [33944,"43439","47,5","0,8","ND","ND","ND","ND"],
    [33945,"43439,04167","24,1","0,8","ND","ND","ND","ND"],
    [33946,"43439,08333","19,3","0,6","ND","ND","ND","ND"],
    [33947,"43439,125","22,9","0,4","ND","ND","ND","ND"],
    [33948,"43439,16667","28,4","0,3","ND","ND","ND","ND"],
    [33949,"43439,20833","54,5","0,3","ND","ND","ND","ND"],
    [33950,"43439,25","52,8","0,5","ND","ND","ND","ND"],
    [33951,"43439,29167","53,2","0,6","ND","ND","ND","ND"],
    [33952,"43439,33333","47,6","0,7","ND","ND","ND","ND"],
    [33953,"43439,375","60,2","1,1","ND","ND","ND","ND"],
    [33954,"43439,41667","59,8","2,1","ND","ND","ND","ND"],
    [33955,"43439,45833","49,1","2,6","ND","ND","ND","ND"],
    [33956,"43439,5","55","1,8","ND","ND","ND","ND"],
    [33957,"43439,54167","43,9","1,3","ND","ND","ND","ND"],
    [33958,"43439,58333","44,9","1,1","ND","ND","ND","ND"],
    [33959,"43439,625","12","0,6","ND","ND","ND","ND"],
    [33960,"43439,66667","14,7","0,6","ND","ND","ND","ND"],
    [33961,"43439,70833","13,9","0,4","ND","ND","ND","ND"],
    [33962,"43439,75","17,2","0,6","ND","ND","ND","ND"],
    [33963,"43439,79167","44,4","1","ND","ND","ND","ND"],
    [33964,"43439,83333","46","0,9","ND","ND","ND","ND"],
    [33965,"43439,875","55,2","1","ND","ND","ND","ND"],
    [33966,"43439,91667","29,8","1","ND","ND","ND","ND"],
    [33967,"43439,95833","31,2","0,9","ND","ND","ND","ND"],
    [33968,"05/13/2018 00:00","43,4","1,2","ND","ND","ND","ND"],
    [33969,"05/13/2018 01:00","16,8","0,7","ND","ND","ND","ND"],
    [33970,"05/13/2018 02:00","21,2","0,5","ND","ND","ND","ND"],
    [33971,"05/13/2018 03:00","32,4","0,6","ND","ND","ND","ND"],
    [33972,"05/13/2018 04:00","26,3","0,5","ND","ND","ND","ND"],
    [33973,"05/13/2018 05:00","47,8","0,7","ND","ND","ND","ND"],
    [33974,"05/13/2018 06:00","36,4","0,5","ND","ND","ND","ND"],
    [33975,"05/13/2018 07:00","ND","0,7","ND","ND","ND","ND"],
    [33976,"05/13/2018 08:00","ND","0,8","ND","ND","ND","ND"],
    [33977,"05/13/2018 09:00","ND","0,9","ND","ND","ND","ND"],
    [33978,"05/13/2018 10:00","17,8","1,2","ND","ND","ND","ND"],
    [33979,"05/13/2018 11:00","32,2","1,2","ND","ND","ND","ND"],
    [33980,"05/13/2018 12:00","15,7","0,3","ND","ND","ND","ND"],
    [33981,"05/13/2018 13:00","25,1","0,3","ND","ND","ND","ND"],
    [33982,"05/13/2018 14:00","23,4","0,2","ND","ND","ND","ND"],
    [33983,"05/13/2018 15:00","25,5","0,7","ND","ND","ND","ND"],
    [33984,"05/13/2018 16:00","18,7","0,4","ND","ND","ND","ND"],
    [33985,"05/13/2018 17:00","34,7","0,5","ND","ND","ND","ND"],
    [33986,"05/13/2018 18:00","46,9","0,6","ND","ND","ND","ND"],
    [33987,"05/13/2018 19:00","56","0,3","ND","ND","ND","ND"],
    [33988,"05/13/2018 20:00","56,1","0,3","ND","ND","ND","ND"],
    [33989,"05/13/2018 21:00","31,1","0,3","ND","ND","ND","ND"],
    [33990,"05/13/2018 22:00","72,4","1,7","ND","ND","ND","ND"],
    [33991,"05/13/2018 23:00","10,5","0,6","ND","ND","ND","ND"],
    [33992,"05/14/2018 00:00","23,9","0,2","ND","ND","ND","ND"],
    [33993,"05/14/2018 01:00","29,2","0,3","ND","ND","ND","ND"],
    [33994,"05/14/2018 02:00","18,6","0,1","ND","ND","ND","ND"],
    [33995,"05/14/2018 03:00","12,8","0","ND","ND","ND","ND"],
    [33996,"05/14/2018 04:00","13,6","0","ND","ND","ND","ND"],
    [33997,"05/14/2018 05:00","16,6","ND","ND","ND","ND","ND"],
    [33998,"05/14/2018 06:00","19,3","ND","ND","ND","ND","ND"],
    [33999,"05/14/2018 07:00","42,1","0,3","ND","ND","ND","ND"],
    [34000,"05/14/2018 08:00","26,5","0,3","ND","ND","ND","ND"],
    [34001,"05/14/2018 09:00","57,7","0,6","ND","ND","ND","ND"],
    [34002,"05/14/2018 10:00","59,8","1,5","ND","ND","ND","ND"],
    [34003,"05/14/2018 11:00","36,7","4,7","ND","ND","ND","ND"],
    [34004,"05/14/2018 12:00","31,4","1,7","ND","ND","ND","ND"],
    [34005,"05/14/2018 13:00","32,2","1,3","ND","ND","ND","ND"],
    [34006,"05/14/2018 14:00","31,9","1,5","ND","ND","ND","ND"],
    [34007,"05/14/2018 15:00","49,2","1,9","ND","ND","ND","ND"],
    [34008,"05/14/2018 16:00","26,2","0,9","ND","ND","ND","ND"],
    [34009,"05/14/2018 17:00","ND","0,1","ND","ND","ND","ND"],
    [34010,"05/14/2018 18:00","27,3","0,2","ND","ND","ND","ND"],
    [34011,"05/14/2018 19:00","32,8","0,3","ND","ND","ND","ND"],
    [34012,"05/14/2018 20:00","25,3","0,4","ND","ND","ND","ND"],
    [34013,"05/14/2018 21:00","26,5","0,3","ND","ND","ND","ND"],
    [34014,"05/14/2018 22:00","16,5","0,3","ND","ND","ND","ND"],
    [34015,"05/14/2018 23:00","14,8","0,2","ND","ND","ND","ND"],
    [34016,"05/15/2018 00:00","67,2","0,3","ND","ND","ND","ND"],
    [34017,"05/15/2018 01:00","33","0,5","ND","ND","ND","ND"],
    [34018,"05/15/2018 02:00","29,3","0,3","ND","ND","ND","ND"],
    [34019,"05/15/2018 03:00","18,9","0,1","ND","ND","ND","ND"],
    [34020,"05/15/2018 04:00","9,9","0","ND","ND","ND","ND"],
    [34021,"05/15/2018 05:00","20,1","ND","ND","ND","ND","ND"],
    [34022,"05/15/2018 06:00","48,8","0,3","ND","ND","ND","ND"],
    [34023,"05/15/2018 07:00","52,3","0,6","ND","ND","ND","ND"],
    [34024,"05/15/2018 08:00","52,3","0,6","ND","ND","ND","ND"],
    [34025,"05/15/2018 09:00","59,2","0,6","ND","ND","ND","ND"],
    [34026,"05/15/2018 10:00","60,1","0,9","ND","ND","ND","ND"],
    [34027,"05/15/2018 11:00","68,7","2","ND","ND","ND","ND"],
    [34028,"05/15/2018 12:00","59,1","1,9","ND","ND","ND","ND"],
    [34029,"05/15/2018 13:00","59,1","1,6","ND","ND","ND","ND"],
    [34030,"05/15/2018 14:00","38,8","1,6","ND","ND","ND","ND"],
    [34031,"05/15/2018 15:00","36,5","2,4","ND","ND","ND","ND"],
    [34032,"05/15/2018 16:00","35","1,3","ND","ND","ND","ND"],
    [34033,"05/15/2018 17:00","29,7","1,3","ND","ND","ND","ND"],
    [34034,"05/15/2018 18:00","25,1","0,7","ND","ND","ND","ND"],
    [34035,"05/15/2018 19:00","57,2","1","ND","ND","ND","ND"],
    [34036,"05/15/2018 20:00","34,8","1,2","ND","ND","ND","ND"],
    [34037,"05/15/2018 21:00","26,5","0,5","ND","ND","ND","ND"],
    [34038,"05/15/2018 22:00","39,8","0,4","ND","ND","ND","ND"],
    [34039,"05/15/2018 23:00","36,5","0,3","ND","ND","ND","ND"],
    [34040,"05/16/2018 00:00","30,2","0,3","ND","ND","ND","ND"],
    [34041,"05/16/2018 01:00","30,9","0,2","ND","ND","ND","ND"],
    [34042,"05/16/2018 02:00","26,1","ND","ND","ND","ND","ND"],
    [34043,"05/16/2018 03:00","18,1","ND","ND","ND","ND","ND"],
    [34044,"05/16/2018 04:00","24,3","ND","ND","ND","ND","ND"],
    [34045,"05/16/2018 05:00","30,8","0,1","ND","ND","ND","ND"],
    [34046,"05/16/2018 06:00","34,9","0,1","ND","ND","ND","ND"],
    [34047,"05/16/2018 07:00","50,2","0,3","ND","ND","ND","ND"],
    [34048,"05/16/2018 08:00","63,5","1,4","ND","ND","ND","ND"],
    [34049,"05/16/2018 09:00","50","1,1","ND","ND","ND","ND"],
    [34050,"05/16/2018 10:00","43","1,5","ND","ND","ND","ND"],
    [34051,"05/16/2018 11:00","33,4","1,3","ND","ND","ND","ND"],
    [34052,"05/16/2018 12:00","34","0,4","ND","ND","ND","ND"],
    [34053,"05/16/2018 13:00","45,4","0,4","ND","ND","ND","ND"],
    [34054,"05/16/2018 14:00","32,4","0,3","ND","ND","ND","ND"],
    [34055,"05/16/2018 15:00","8,7","0","ND","ND","ND","ND"],
    [34056,"05/16/2018 16:00","12,3","ND","ND","ND","ND","ND"],
    [34057,"05/16/2018 17:00","13,6","ND","ND","ND","ND","ND"],
    [34058,"05/16/2018 18:00","47,2","ND","ND","ND","ND","ND"],
    [34059,"05/16/2018 19:00","46,9","0,2","ND","ND","ND","ND"],
    [34060,"05/16/2018 20:00","22,4","0,6","ND","ND","ND","ND"],
    [34061,"05/16/2018 21:00","58,5","0,8","ND","ND","ND","ND"],
    [34062,"05/16/2018 22:00","100,4","0,7","ND","ND","ND","ND"],
    [34063,"05/16/2018 23:00","79,5","0,5","ND","ND","ND","ND"],
    [34064,"05/17/2018 00:00","79,5","0,2","ND","ND","ND","ND"],
    [34065,"05/17/2018 01:00","37,8","0,1","ND","ND","ND","ND"],
    [34066,"05/17/2018 02:00","15,6","ND","ND","ND","ND","ND"],
    [34067,"05/17/2018 03:00","21,8","ND","ND","ND","ND","ND"],
    [34068,"05/17/2018 04:00","11,8","ND","ND","ND","ND","ND"],
    [34069,"05/17/2018 05:00","24,8","0,2","ND","ND","ND","ND"],
    [34070,"05/17/2018 06:00","61,6","0,1","ND","ND","ND","ND"],
    [34071,"05/17/2018 07:00","70,3","0,3","ND","ND","ND","ND"],
    [34072,"05/17/2018 08:00","74,7","0,7","ND","ND","ND","ND"],
    [34073,"05/17/2018 09:00","ND","3,1","ND","ND","ND","ND"],
    [34074,"05/17/2018 10:00","ND","3,4","ND","ND","ND","ND"],
    [34075,"05/17/2018 11:00","ND","2,6","ND","ND","ND","ND"],
    [34076,"05/17/2018 12:00","ND","2,8","ND","ND","ND","ND"],
    [34077,"05/17/2018 13:00","ND","2,3","ND","ND","ND","ND"],
    [34078,"05/17/2018 14:00","59,5","2,4","ND","ND","ND","ND"],
    [34079,"05/17/2018 15:00","24,1","1,7","ND","ND","ND","ND"],
    [34080,"05/17/2018 16:00","ND","0,4","ND","ND","ND","ND"],
    [34081,"05/17/2018 17:00","ND","0,7","ND","ND","ND","ND"],
    [34082,"05/17/2018 18:00","ND","0,5","ND","ND","ND","ND"],
    [34083,"05/17/2018 19:00","ND","0,2","ND","ND","ND","ND"],
    [34084,"05/17/2018 20:00","ND","0","ND","ND","ND","ND"],
    [34085,"05/17/2018 21:00","ND","0,1","ND","ND","ND","ND"],
    [34086,"05/17/2018 22:00","ND","0,4","ND","ND","ND","ND"],
    [34087,"05/17/2018 23:00","3,3","0,8","ND","ND","ND","ND"],
    [34088,"05/18/2018 00:00","ND","0,5","ND","ND","ND","ND"],
    [34089,"05/18/2018 01:00","ND","0,6","ND","ND","ND","ND"],
    [34090,"05/18/2018 02:00","ND","0,4","ND","ND","ND","ND"],
    [34091,"05/18/2018 03:00","ND","0","ND","ND","ND","ND"],
    [34092,"05/18/2018 04:00","ND","0","ND","ND","ND","ND"],
    [34093,"05/18/2018 05:00","ND","ND","ND","ND","ND","ND"],
    [34094,"05/18/2018 06:00","ND","0","ND","ND","ND","ND"],
    [34095,"05/18/2018 07:00","ND","0,4","ND","ND","ND","ND"],
    [34096,"05/18/2018 08:00","ND","0,6","ND","ND","ND","ND"],
    [34097,"05/18/2018 09:00","ND","0,7","ND","ND","ND","ND"],
    [34098,"05/18/2018 10:00","ND","0,7","ND","ND","ND","ND"],
    [34099,"05/18/2018 11:00","ND","0,4","ND","ND","ND","ND"],
    [34100,"05/18/2018 12:00","ND","0,2","ND","ND","ND","ND"],
    [34101,"05/18/2018 13:00","ND","0,6","ND","ND","ND","ND"],
    [34102,"05/18/2018 14:00","ND","1","ND","ND","ND","ND"],
    [34103,"05/18/2018 15:00","ND","0,6","ND","ND","ND","ND"],
    [34104,"05/18/2018 16:00","ND","ND","ND","ND","ND","ND"],
    [34105,"05/18/2018 17:00","ND","ND","ND","ND","ND","ND"],
    [34106,"05/18/2018 18:00","ND","0","ND","ND","ND","ND"],
    [34107,"05/18/2018 19:00","ND","0,5","ND","ND","ND","ND"],
    [34108,"05/18/2018 20:00","ND","0,7","ND","ND","ND","ND"],
    [34109,"05/18/2018 21:00","ND","0,5","ND","ND","ND","ND"],
    [34110,"05/18/2018 22:00","ND","0,3","ND","ND","ND","ND"],
    [34111,"05/18/2018 23:00","ND","0,3","ND","ND","ND","ND"],
    [34112,"05/19/2018 00:00","ND","0,2","ND","ND","ND","ND"],
    [34113,"05/19/2018 01:00","ND","ND","ND","ND","ND","ND"],
    [34114,"05/19/2018 02:00","ND","ND","ND","ND","ND","ND"],
    [34115,"05/19/2018 03:00","ND","ND","ND","ND","ND","ND"],
    [34116,"05/19/2018 04:00","ND","ND","ND","ND","ND","ND"],
    [34117,"05/19/2018 05:00","ND","0","ND","ND","ND","ND"],
    [34118,"05/19/2018 06:00","ND","1,2","ND","ND","ND","ND"],
    [34119,"05/19/2018 07:00","ND","1,8","ND","ND","ND","ND"],
    [34120,"05/19/2018 08:00","ND","1,6","ND","ND","ND","ND"],
    [34121,"05/19/2018 09:00","ND","1,9","ND","ND","ND","ND"],
    [34122,"05/19/2018 10:00","ND","1,7","ND","ND","ND","ND"],
    [34123,"05/19/2018 11:00","ND","1,5","ND","ND","ND","ND"],
    [34124,"05/19/2018 12:00","ND","1","ND","ND","ND","ND"],
    [34125,"05/19/2018 13:00","ND","0,4","ND","ND","ND","ND"],
    [34126,"05/19/2018 14:00","ND","0,4","ND","ND","ND","ND"],
    [34127,"05/19/2018 15:00","ND","0,4","ND","ND","ND","ND"],
    [34128,"05/19/2018 16:00","ND","0,4","ND","ND","ND","ND"],
    [34129,"05/19/2018 17:00","ND","0","ND","ND","ND","ND"],
    [34130,"05/19/2018 18:00","ND","ND","ND","ND","ND","ND"],
    [34131,"05/19/2018 19:00","ND","ND","ND","ND","ND","ND"],
    [34132,"05/19/2018 20:00","ND","ND","ND","ND","ND","ND"],
    [34133,"05/19/2018 21:00","ND","0,2","ND","ND","ND","ND"],
    [34134,"05/19/2018 22:00","ND","0,2","ND","ND","ND","ND"],
    [34135,"05/19/2018 23:00","ND","0,3","ND","ND","ND","ND"],
    [34136,"05/20/2018 00:00","ND","0,1","ND","ND","ND","ND"],
    [34137,"05/20/2018 01:00","ND","0,2","ND","ND","ND","ND"],
    [34138,"05/20/2018 02:00","ND","ND","ND","ND","ND","ND"],
    [34139,"05/20/2018 03:00","ND","ND","ND","ND","ND","ND"],
    [34140,"05/20/2018 04:00","ND","ND","ND","ND","ND","ND"],
    [34141,"05/20/2018 05:00","ND","ND","ND","ND","ND","ND"],
    [34142,"05/20/2018 06:00","ND","0,1","ND","ND","ND","ND"],
    [34143,"05/20/2018 07:00","ND","0,2","ND","ND","ND","ND"],
    [34144,"05/20/2018 08:00","ND","0,5","ND","ND","ND","ND"],
    [34145,"05/20/2018 09:00","ND","1,2","ND","ND","ND","ND"],
    [34146,"05/20/2018 10:00","ND","1,3","ND","ND","ND","ND"],
    [34147,"05/20/2018 11:00","ND","1,1","ND","ND","ND","ND"],
    [34148,"05/20/2018 12:00","ND","1,7","ND","ND","ND","ND"],
    [34149,"05/20/2018 13:00","ND","0,6","ND","ND","ND","ND"],
    [34150,"05/20/2018 14:00","ND","0,6","ND","ND","ND","ND"],
    [34151,"05/20/2018 15:00","ND","1","ND","ND","ND","ND"],
    [34152,"05/20/2018 16:00","ND","0,3","ND","ND","ND","ND"],
    [34153,"05/20/2018 17:00","ND","ND","ND","ND","ND","ND"],
    [34154,"05/20/2018 18:00","ND","ND","ND","ND","ND","ND"],
    [34155,"05/20/2018 19:00","ND","ND","ND","ND","ND","ND"],
    [34156,"05/20/2018 20:00","ND","ND","ND","ND","ND","ND"],
    [34157,"05/20/2018 21:00","ND","ND","ND","ND","ND","ND"],
    [34158,"05/20/2018 22:00","ND","ND","ND","ND","ND","ND"],
    [34159,"05/20/2018 23:00","ND","ND","ND","ND","ND","ND"],
    [34160,"05/21/2018 00:00","ND","ND","ND","ND","ND","ND"],
    [34161,"05/21/2018 01:00","ND","ND","ND","ND","ND","ND"],
    [34162,"05/21/2018 02:00","ND","ND","ND","ND","ND","ND"],
    [34163,"05/21/2018 03:00","ND","ND","ND","ND","ND","ND"],
    [34164,"05/21/2018 04:00","ND","ND","ND","ND","ND","ND"],
    [34165,"05/21/2018 05:00","ND","ND","ND","ND","ND","ND"],
    [34166,"05/21/2018 06:00","ND","0,1","ND","ND","ND","ND"],
    [34167,"05/21/2018 07:00","ND","0,2","ND","ND","ND","ND"],
    [34168,"05/21/2018 08:00","ND","0,6","ND","ND","ND","ND"],
    [34169,"05/21/2018 09:00","ND","0,9","ND","ND","ND","ND"],
    [34170,"05/21/2018 10:00","ND","0,8","ND","ND","ND","ND"],
    [34171,"05/21/2018 11:00","ND","0,8","ND","ND","ND","ND"],
    [34172,"05/21/2018 12:00","ND","1,7","ND","ND","ND","ND"],
    [34173,"05/21/2018 13:00","ND","1,3","ND","ND","ND","ND"],
    [34174,"05/21/2018 14:00","ND","1,1","ND","ND","ND","ND"],
    [34175,"05/21/2018 15:00","ND","0,6","ND","ND","ND","ND"],
    [34176,"05/21/2018 16:00","ND","0,9","ND","ND","ND","ND"],
    [34177,"05/21/2018 17:00","ND","0,9","ND","ND","ND","ND"],
    [34178,"05/21/2018 18:00","ND","0,8","ND","ND","ND","ND"],
    [34179,"05/21/2018 19:00","ND","0,5","ND","ND","ND","ND"],
    [34180,"05/21/2018 20:00","ND","0,4","ND","ND","ND","ND"],
    [34181,"05/21/2018 21:00","ND","0,4","ND","ND","ND","ND"],
    [34182,"05/21/2018 22:00","ND","0,3","ND","ND","ND","ND"],
    [34183,"05/21/2018 23:00","ND","0,2","ND","ND","ND","ND"],
    [34184,"05/22/2018 00:00","ND","0,2","ND","ND","ND","ND"],
    [34185,"05/22/2018 01:00","ND","0","ND","ND","ND","ND"],
    [34186,"05/22/2018 02:00","ND","0,1","ND","ND","ND","ND"],
    [34187,"05/22/2018 03:00","ND","0,1","ND","ND","ND","ND"],
    [34188,"05/22/2018 04:00","ND","0,1","ND","ND","ND","ND"],
    [34189,"05/22/2018 05:00","ND","0,2","ND","ND","ND","ND"],
    [34190,"05/22/2018 06:00","ND","0,7","ND","ND","ND","ND"],
    [34191,"05/22/2018 07:00","ND","1,2","ND","ND","ND","ND"],
    [34192,"05/22/2018 08:00","ND","ND","ND","ND","ND","ND"],
    [34193,"05/22/2018 09:00","ND","2","ND","ND","ND","ND"],
    [34194,"05/22/2018 10:00","ND","1,5","ND","ND","ND","ND"],
    [34195,"05/22/2018 11:00","ND","1,5","ND","ND","ND","ND"],
    [34196,"05/22/2018 12:00","ND","1,3","ND","ND","ND","ND"],
    [34197,"05/22/2018 13:00","ND","1,5","ND","ND","ND","ND"],
    [34198,"05/22/2018 14:00","ND","1,5","ND","ND","ND","ND"],
    [34199,"05/22/2018 15:00","19,7","1,7","ND","ND","ND","ND"],
    [34200,"05/22/2018 16:00","19,3","0,8","ND","ND","ND","ND"],
    [34201,"05/22/2018 17:00","23,5","0,2","ND","ND","ND","ND"],
    [34202,"05/22/2018 18:00","48,9","0,2","ND","ND","ND","ND"],
    [34203,"05/22/2018 19:00","19,7","0,2","ND","ND","ND","ND"],
    [34204,"05/22/2018 20:00","38,2","0,5","ND","ND","ND","ND"],
    [34205,"05/22/2018 21:00","46,6","0,3","ND","ND","ND","ND"],
    [34206,"05/22/2018 22:00","35,2","0,4","ND","ND","ND","ND"],
    [34207,"05/22/2018 23:00","33,8","0,7","ND","ND","ND","ND"],
    [34208,"05/23/2018 00:00","23","0,6","ND","ND","ND","ND"],
    [34209,"05/23/2018 01:00","21,5","0,4","ND","ND","ND","ND"],
    [34210,"05/23/2018 02:00","30,1","0,2","ND","ND","ND","ND"],
    [34211,"05/23/2018 03:00","34,3","0,1","ND","ND","ND","ND"],
    [34212,"05/23/2018 04:00","52,4","0","ND","ND","ND","ND"],
    [34213,"05/23/2018 05:00","74,2","0,1","ND","ND","ND","ND"],
    [34214,"05/23/2018 06:00","69,8","0,3","ND","ND","ND","ND"],
    [34215,"05/23/2018 07:00","91,5","0,8","ND","ND","ND","ND"],
    [34216,"05/23/2018 08:00","56,9","1,4","ND","ND","ND","ND"],
    [34217,"05/23/2018 09:00","38,2","4,1","ND","ND","ND","ND"],
    [34218,"05/23/2018 10:00","34,2","2","ND","ND","ND","ND"],
    [34219,"05/23/2018 11:00","40,8","1,3","ND","ND","ND","ND"],
    [34220,"05/23/2018 12:00","42,1","0,9","ND","ND","ND","ND"],
    [34221,"05/23/2018 13:00","35,6","0,9","ND","ND","ND","ND"],
    [34222,"05/23/2018 14:00","27,5","0,8","ND","ND","ND","ND"],
    [34223,"05/23/2018 15:00","21","0,6","ND","ND","ND","ND"],
    [34224,"05/23/2018 16:00","21","0,2","ND","ND","ND","ND"],
    [34225,"05/23/2018 17:00","49,3","0,4","ND","ND","ND","ND"],
    [34226,"05/23/2018 18:00","59,1","0,2","ND","ND","ND","ND"],
    [34227,"05/23/2018 19:00","41,2","0,4","ND","ND","ND","ND"],
    [34228,"05/23/2018 20:00","36,8","0,5","ND","ND","ND","ND"],
    [34229,"05/23/2018 21:00","31,7","0,4","ND","ND","ND","ND"],
    [34230,"05/23/2018 22:00","24,8","0,4","ND","ND","ND","ND"],
    [34231,"05/23/2018 23:00","23,4","0,2","ND","ND","ND","ND"],
    [34232,"05/24/2018 00:00","21,2","0,1","ND","ND","ND","ND"],
    [34233,"05/24/2018 01:00","21,2","ND","ND","ND","ND","ND"],
    [34234,"05/24/2018 02:00","22","ND","ND","ND","ND","ND"],
    [34235,"05/24/2018 03:00","32,3","ND","ND","ND","ND","ND"],
    [34236,"05/24/2018 04:00","51,2","ND","ND","ND","ND","ND"],
    [34237,"05/24/2018 05:00","63,6","ND","ND","ND","ND","ND"],
    [34238,"05/24/2018 06:00","69,6","0,1","ND","ND","ND","ND"],
    [34239,"05/24/2018 07:00","89,8","0,5","ND","ND","ND","ND"],
    [34240,"05/24/2018 08:00","98,8","0,7","ND","ND","ND","ND"],
    [34241,"05/24/2018 09:00","64","1,3","ND","ND","ND","ND"],
    [34242,"05/24/2018 10:00","49,2","1,6","ND","ND","ND","ND"],
    [34243,"05/24/2018 11:00","61,6","2,4","ND","ND","ND","ND"],
    [34244,"05/24/2018 12:00","55","1,5","ND","ND","ND","ND"],
    [34245,"05/24/2018 13:00","44,7","1,5","ND","ND","ND","ND"],
    [34246,"05/24/2018 14:00","30,1","1,5","ND","ND","ND","ND"],
    [34247,"05/24/2018 15:00","49,7","1,2","ND","ND","ND","ND"],
    [34248,"05/24/2018 16:00","34","1","ND","ND","ND","ND"],
    [34249,"05/24/2018 17:00","38","1","ND","ND","ND","ND"],
    [34250,"05/24/2018 18:00","31,3","0,8","ND","ND","ND","ND"],
    [34251,"05/24/2018 19:00","36,8","0,9","ND","ND","ND","ND"],
    [34252,"05/24/2018 20:00","53,8","0,7","ND","ND","ND","ND"],
    [34253,"05/24/2018 21:00","47,3","1","ND","ND","ND","ND"],
    [34254,"05/24/2018 22:00","37,3","1","ND","ND","ND","ND"],
    [34255,"05/24/2018 23:00","35,2","0,8","ND","ND","ND","ND"],
    [34256,"05/25/2018 00:00","30,3","0,7","ND","ND","ND","ND"],
    [34257,"05/25/2018 01:00","18","0,5","ND","ND","ND","ND"],
    [34258,"05/25/2018 02:00","28,1","0,5","ND","ND","ND","ND"],
    [34259,"05/25/2018 03:00","28,4","0,4","ND","ND","ND","ND"],
    [34260,"05/25/2018 04:00","54,4","0,6","ND","ND","ND","ND"],
    [34261,"05/25/2018 05:00","74,8","0,6","ND","ND","ND","ND"],
    [34262,"05/25/2018 06:00","69,2","0,8","ND","ND","ND","ND"],
    [34263,"05/25/2018 07:00","69,3","1,2","ND","ND","ND","ND"],
    [34264,"05/25/2018 08:00","80,9","1,3","ND","ND","ND","ND"],
    [34265,"05/25/2018 09:00","45,6","1,2","ND","ND","ND","ND"],
    [34266,"05/25/2018 10:00","45,4","0,9","ND","ND","ND","ND"],
    [34267,"05/25/2018 11:00","58,5","1","ND","ND","ND","ND"],
    [34268,"05/25/2018 12:00","51,7","1,3","ND","ND","ND","ND"],
    [34269,"05/25/2018 13:00","64,1","1,3","ND","ND","ND","ND"],
    [34270,"05/25/2018 14:00","39,6","1,3","ND","ND","ND","ND"],
    [34271,"05/25/2018 15:00","28,4","1,1","ND","ND","ND","ND"],
    [34272,"05/25/2018 16:00","22,6","1,4","ND","ND","ND","ND"],
    [34273,"05/25/2018 17:00","16,2","1","ND","ND","ND","ND"],
    [34274,"05/25/2018 18:00","21,8","0,8","ND","ND","ND","ND"],
    [34275,"05/25/2018 19:00","26,8","0,7","ND","ND","ND","ND"],
    [34276,"05/25/2018 20:00","22,1","0,8","ND","ND","ND","ND"],
    [34277,"05/25/2018 21:00","35,7","1,3","ND","ND","ND","ND"],
    [34278,"05/25/2018 22:00","35,1","1,2","ND","ND","ND","ND"],
    [34279,"05/25/2018 23:00","30,9","0,7","ND","ND","ND","ND"],
    [34280,"05/26/2018 00:00","31,3","0,7","ND","ND","ND","ND"],
    [34281,"05/26/2018 01:00","24","0,5","ND","ND","ND","ND"],
    [34282,"05/26/2018 02:00","25,3","0,4","ND","ND","ND","ND"],
    [34283,"05/26/2018 03:00","28,2","0,4","ND","ND","ND","ND"],
    [34284,"05/26/2018 04:00","41,3","0,4","ND","ND","ND","ND"],
    [34285,"05/26/2018 05:00","61,4","0,5","ND","ND","ND","ND"],
    [34286,"05/26/2018 06:00","80,9","0,6","ND","ND","ND","ND"],
    [34287,"05/26/2018 07:00","65,4","0,9","ND","ND","ND","ND"],
    [34288,"05/26/2018 08:00","76,8","1,2","ND","ND","ND","ND"],
    [34289,"05/26/2018 09:00","84","1,1","ND","ND","ND","ND"],
    [34290,"05/26/2018 10:00","67","1","ND","ND","ND","ND"],
    [34291,"05/26/2018 11:00","50,7","1,8","ND","ND","ND","ND"],
    [34292,"05/26/2018 12:00","46,7","1","ND","ND","ND","ND"],
    [34293,"05/26/2018 13:00","46,9","1,3","ND","ND","ND","ND"],
    [34294,"05/26/2018 14:00","24,4","2,4","ND","ND","ND","ND"],
    [34295,"05/26/2018 15:00","10,3","2","ND","ND","ND","ND"],
    [34296,"05/26/2018 16:00","9,6","1,8","ND","ND","ND","ND"],
    [34297,"05/26/2018 17:00","18,4","0,8","ND","ND","ND","ND"],
    [34298,"05/26/2018 18:00","18,1","0,7","ND","ND","ND","ND"],
    [34299,"05/26/2018 19:00","19","1,2","ND","ND","ND","ND"],
    [34300,"05/26/2018 20:00","18,2","1,1","ND","ND","ND","ND"],
    [34301,"05/26/2018 21:00","20","1,3","ND","ND","ND","ND"],
    [34302,"05/26/2018 22:00","19,7","1,1","ND","ND","ND","ND"],
    [34303,"05/26/2018 23:00","18,4","0,9","ND","ND","ND","ND"],
    [34304,"05/27/2018 00:00","16,5","0,7","ND","ND","ND","ND"],
    [34305,"05/27/2018 01:00","22,5","0,5","ND","ND","ND","ND"],
    [34306,"05/27/2018 02:00","26,4","0,4","ND","ND","ND","ND"],
    [34307,"05/27/2018 03:00","21,4","0,6","ND","ND","ND","ND"],
    [34308,"05/27/2018 04:00","21,4","0,6","ND","ND","ND","ND"],
    [34309,"05/27/2018 05:00","34,3","0,6","ND","ND","ND","ND"],
    [34310,"05/27/2018 06:00","42,8","0,5","ND","ND","ND","ND"],
    [34311,"05/27/2018 07:00","35,8","0,5","ND","ND","ND","ND"],
    [34312,"05/27/2018 08:00","25,6","0,7","ND","ND","ND","ND"],
    [34313,"05/27/2018 09:00","25,5","0,6","ND","ND","ND","ND"],
    [34314,"05/27/2018 10:00","40,3","0,6","ND","ND","ND","ND"],
    [34315,"05/27/2018 11:00","35,9","0,8","ND","ND","ND","ND"],
    [34316,"05/27/2018 12:00","26,1","0,8","ND","ND","ND","ND"],
    [34317,"05/27/2018 13:00","32,4","1","ND","ND","ND","ND"],
    [34318,"05/27/2018 14:00","26","1,3","ND","ND","ND","ND"],
    [34319,"05/27/2018 15:00","12,7","2","ND","ND","ND","ND"],
    [34320,"05/27/2018 16:00","5","1,5","ND","ND","ND","ND"],
    [34321,"05/27/2018 17:00","16,3","0,8","ND","ND","ND","ND"],
    [34322,"05/27/2018 18:00","35,4","0,6","ND","ND","ND","ND"],
    [34323,"05/27/2018 19:00","26,6","0,6","ND","ND","ND","ND"],
    [34324,"05/27/2018 20:00","18,9","0,7","ND","ND","ND","ND"],
    [34325,"05/27/2018 21:00","14,7","0,7","ND","ND","ND","ND"],
    [34326,"05/27/2018 22:00","9,7","0,6","ND","ND","ND","ND"],
    [34327,"05/27/2018 23:00","6,5","0,6","ND","ND","ND","ND"],
    [34328,"05/28/2018 00:00","7,1","0,3","ND","ND","ND","ND"],
    [34329,"05/28/2018 01:00","4,5","0,3","ND","ND","ND","ND"],
    [34330,"05/28/2018 02:00","5,1","0,2","ND","ND","ND","ND"],
    [34331,"05/28/2018 03:00","5,1","0,2","ND","ND","ND","ND"],
    [34332,"05/28/2018 04:00","8,2","0,2","ND","ND","ND","ND"],
    [34333,"05/28/2018 05:00","15,1","0,3","ND","ND","ND","ND"],
    [34334,"05/28/2018 06:00","13,4","0,7","ND","ND","ND","ND"],
    [34335,"05/28/2018 07:00","14,8","0,8","ND","ND","ND","ND"],
    [34336,"05/28/2018 08:00","18,9","0,9","ND","ND","ND","ND"],
    [34337,"05/28/2018 09:00","ND","ND","ND","ND","ND","ND"],
    [34338,"05/28/2018 10:00","ND","ND","ND","ND","ND","ND"],
    [34339,"05/28/2018 11:00","19,4","ND","ND","ND","ND","ND"],
    [34340,"05/28/2018 12:00","15,5","ND","ND","ND","ND","ND"],
    [34341,"05/28/2018 13:00","14,6","ND","ND","ND","ND","ND"],
    [34342,"05/28/2018 14:00","17,7","ND","ND","ND","ND","ND"],
    [34343,"05/28/2018 15:00","25,7","ND","ND","ND","ND","ND"],
    [34344,"05/28/2018 16:00","31,2","ND","ND","ND","ND","ND"],
    [34345,"05/28/2018 17:00","17,1","ND","ND","ND","ND","ND"],
    [34346,"05/28/2018 18:00","28,7","ND","ND","ND","ND","ND"],
    [34347,"05/28/2018 19:00","27","ND","ND","ND","ND","ND"],
    [34348,"05/28/2018 20:00","110,1","ND","ND","ND","ND","ND"],
    [34349,"05/28/2018 21:00","50","ND","ND","ND","ND","ND"],
    [34350,"05/28/2018 22:00","59,2","ND","ND","ND","ND","ND"],
    [34351,"05/28/2018 23:00","56","ND","ND","ND","ND","ND"],
    [34352,"05/29/2018 00:00","45,8","ND","ND","ND","ND","ND"],
    [34353,"05/29/2018 01:00","25,6","ND","ND","ND","ND","ND"],
    [34354,"05/29/2018 02:00","13,8","ND","ND","ND","ND","ND"],
    [34355,"05/29/2018 03:00","12,9","ND","ND","ND","ND","ND"],
    [34356,"05/29/2018 04:00","19,7","ND","ND","ND","ND","ND"],
    [34357,"05/29/2018 05:00","35,3","ND","ND","ND","ND","ND"],
    [34358,"05/29/2018 06:00","48,1","ND","ND","ND","ND","ND"],
    [34359,"05/29/2018 07:00","91,4","ND","ND","ND","ND","ND"],
    [34360,"05/29/2018 08:00","77,6","ND","ND","ND","ND","ND"],
    [34361,"05/29/2018 09:00","48","ND","ND","ND","ND","ND"],
    [34362,"05/29/2018 10:00","40,1","ND","ND","ND","ND","ND"],
    [34363,"05/29/2018 11:00","34,2","ND","ND","ND","ND","ND"],
    [34364,"05/29/2018 12:00","34,5","ND","ND","ND","ND","ND"],
    [34365,"05/29/2018 13:00","49","ND","ND","ND","ND","ND"],
    [34366,"05/29/2018 14:00","62,9","ND","ND","ND","ND","ND"],
    [34367,"05/29/2018 15:00","54,9","ND","ND","ND","ND","ND"],
    [34368,"05/29/2018 16:00","34,9","ND","ND","ND","ND","ND"],
    [34369,"05/29/2018 17:00","11,1","ND","ND","ND","ND","ND"],
    [34370,"05/29/2018 18:00","14,5","ND","ND","ND","ND","ND"],
    [34371,"05/29/2018 19:00","38,5","ND","ND","ND","ND","ND"],
    [34372,"05/29/2018 20:00","43,1","ND","ND","ND","ND","ND"],
    [34373,"05/29/2018 21:00","62,7","ND","ND","ND","ND","ND"],
    [34374,"05/29/2018 22:00","47,9","ND","ND","ND","ND","ND"],
    [34375,"05/29/2018 23:00","44,1","ND","ND","ND","ND","ND"],
    [34376,"05/30/2018 00:00","61","ND","ND","ND","ND","ND"],
    [34377,"05/30/2018 01:00","40,9","ND","ND","ND","ND","ND"],
    [34378,"05/30/2018 02:00","22,6","ND","ND","ND","ND","ND"],
    [34379,"05/30/2018 03:00","20,3","ND","ND","ND","ND","ND"],
    [34380,"05/30/2018 04:00","20,8","ND","ND","ND","ND","ND"],
    [34381,"05/30/2018 05:00","10,2","ND","ND","ND","ND","ND"],
    [34382,"05/30/2018 06:00","12","ND","ND","ND","ND","ND"],
    [34383,"05/30/2018 07:00","20,6","ND","ND","ND","ND","ND"],
    [34384,"05/30/2018 08:00","20,2","ND","ND","ND","ND","ND"],
    [34385,"05/30/2018 09:00","10,4","ND","ND","ND","ND","ND"],
    [34386,"05/30/2018 10:00","22,9","0,8","ND","ND","ND","ND"],
    [34387,"05/30/2018 11:00","15","0,4","ND","ND","ND","ND"],
    [34388,"05/30/2018 12:00","20,7","0,7","ND","ND","ND","ND"],
    [34389,"05/30/2018 13:00","20,5","0,8","ND","ND","ND","ND"],
    [34390,"05/30/2018 14:00","30,7","0,7","ND","ND","ND","ND"],
    [34391,"05/30/2018 15:00","51,9","0,6","ND","ND","ND","ND"],
    [34392,"05/30/2018 16:00","25,3","0,5","ND","ND","ND","ND"],
    [34393,"05/30/2018 17:00","38","0,7","ND","ND","ND","ND"],
    [34394,"05/30/2018 18:00","55,1","1","ND","ND","ND","ND"],
    [34395,"05/30/2018 19:00","90,7","1,5","ND","ND","ND","ND"],
    [34396,"05/30/2018 20:00","54,2","0,9","ND","ND","ND","ND"],
    [34397,"05/30/2018 21:00","45,2","0,6","ND","ND","ND","ND"],
    [34398,"05/30/2018 22:00","41,3","0,7","ND","ND","ND","ND"],
    [34399,"05/30/2018 23:00","37,9","0,7","ND","ND","ND","ND"],
    [34400,"05/31/2018 00:00","33,7","0,6","ND","ND","ND","ND"],
    [34401,"05/31/2018 01:00","26,2","0,5","ND","ND","ND","ND"],
    [34402,"05/31/2018 02:00","23,1","0,4","ND","ND","ND","ND"],
    [34403,"05/31/2018 03:00","26,3","0,4","ND","ND","ND","ND"],
    [34404,"05/31/2018 04:00","25,1","0,5","ND","ND","ND","ND"],
    [34405,"05/31/2018 05:00","28,3","0,3","ND","ND","ND","ND"],
    [34406,"05/31/2018 06:00","54,5","1,1","ND","ND","ND","ND"],
    [34407,"05/31/2018 07:00","67,1","1,2","ND","ND","ND","ND"],
    [34408,"05/31/2018 08:00","80","1,6","ND","ND","ND","ND"],
    [34409,"05/31/2018 09:00","95,4","1,4","ND","ND","ND","ND"],
    [34410,"05/31/2018 10:00","98,2","1,5","ND","ND","ND","ND"],
    [34411,"05/31/2018 11:00","48,1","1,3","ND","ND","ND","ND"],
    [34412,"05/31/2018 12:00","48,6","0,9","ND","ND","ND","ND"],
    [34413,"05/31/2018 13:00","60,6","ND","ND","ND","ND","ND"],
    [34414,"05/31/2018 14:00","54,5","ND","ND","ND","ND","ND"],
    [34415,"05/31/2018 15:00","51,9","ND","ND","ND","ND","ND"],
    [34416,"05/31/2018 16:00","61,3","ND","ND","ND","ND","ND"],
    [34417,"05/31/2018 17:00","30,9","0,7","ND","ND","ND","ND"],
    [34418,"05/31/2018 18:00","17,2","0,6","ND","ND","ND","ND"],
    [34419,"05/31/2018 19:00","15,5","0,4","ND","ND","ND","ND"],
    [34420,"05/31/2018 20:00","18,8","0,7","ND","ND","ND","ND"],
    [34421,"05/31/2018 21:00","60,5","1,2","ND","ND","ND","ND"],
    [34422,"05/31/2018 22:00","32,5","1,2","ND","ND","ND","ND"],
    [34423,"05/31/2018 23:00","38,4","0,6","ND","ND","ND","ND"],
    [34424,"43106","32,2","0,6","ND","ND","ND","ND"],
    [34425,"43106,04167","12,9","0,4","ND","ND","ND","ND"],
    [34426,"43106,08333","12,3","0,4","ND","ND","ND","ND"],
    [34427,"43106,125","15,6","0,3","ND","ND","ND","ND"],
    [34428,"43106,16667","21,4","0,3","ND","ND","ND","ND"],
    [34429,"43106,20833","13,2","0,4","ND","ND","ND","ND"],
    [34430,"43106,25","11,8","0,4","ND","ND","ND","ND"],
    [34431,"43106,29167","20,2","0,9","ND","ND","ND","ND"],
    [34432,"43106,33333","18,6","0,9","ND","ND","ND","ND"],
    [34433,"43106,375","18,6","0,8","ND","ND","ND","ND"],
    [34434,"43106,41667","33,5","0,6","ND","ND","ND","ND"],
    [34435,"43106,45833","36","0,7","ND","ND","ND","ND"],
    [34436,"43106,5","27,9","0,5","ND","ND","ND","ND"],
    [34437,"43106,54167","34,8","0,6","ND","ND","ND","ND"],
    [34438,"43106,58333","34,9","0,6","ND","ND","ND","ND"],
    [34439,"43106,625","33,7","0,5","ND","ND","ND","ND"],
    [34440,"43106,66667","31,4","0,4","ND","ND","ND","ND"],
    [34441,"43106,70833","49,1","0,9","ND","ND","ND","ND"],
    [34442,"43106,75","68,4","1,2","ND","ND","ND","ND"],
    [34443,"43106,79167","62,1","0,8","ND","ND","ND","ND"],
    [34444,"43106,83333","57,8","0,7","ND","ND","ND","ND"],
    [34445,"43106,875","56,3","0,7","ND","ND","ND","ND"],
    [34446,"43106,91667","51,5","0,8","ND","ND","ND","ND"],
    [34447,"43106,95833","75,6","1,3","ND","ND","ND","ND"],
    [34448,"43137","43,9","0,9","ND","ND","ND","ND"],
    [34449,"43137,04167","35,6","0,7","ND","ND","ND","ND"],
    [34450,"43137,08333","30,4","0,5","ND","ND","ND","ND"],
    [34451,"43137,125","30,4","0,5","ND","ND","ND","ND"],
    [34452,"43137,16667","31,5","0,4","ND","ND","ND","ND"],
    [34453,"43137,20833","34","0,5","ND","ND","ND","ND"],
    [34454,"43137,25","44,1","0,5","ND","ND","ND","ND"],
    [34455,"43137,29167","47,1","0,9","ND","ND","ND","ND"],
    [34456,"43137,33333","55,5","1,1","ND","ND","ND","ND"],
    [34457,"43137,375","74,3","1,3","ND","ND","ND","ND"],
    [34458,"43137,41667","70","1,5","ND","ND","ND","ND"],
    [34459,"43137,45833","59,3","2,3","ND","ND","ND","ND"],
    [34460,"43137,5","61,3","2,1","ND","ND","ND","ND"],
    [34461,"43137,54167","64,1","1,8","ND","ND","ND","ND"],
    [34462,"43137,58333","49,2","1,7","ND","ND","ND","ND"],
    [34463,"43137,625","50,1","1,6","ND","ND","ND","ND"],
    [34464,"43137,66667","35,2","1","ND","ND","ND","ND"],
    [34465,"43137,70833","16,6","0,5","ND","ND","ND","ND"],
    [34466,"43137,75","15,2","0,6","ND","ND","ND","ND"],
    [34467,"43137,79167","19,4","0,5","ND","ND","ND","ND"],
    [34468,"43137,83333","10","0,5","ND","ND","ND","ND"],
    [34469,"43137,875","31,3","0,8","ND","ND","ND","ND"],
    [34470,"43137,91667","49,6","1","ND","ND","ND","ND"],
    [34471,"43137,95833","50,8","0,8","ND","ND","ND","ND"],
    [34472,"43165","47,1","0,6","ND","ND","ND","ND"],
    [34473,"43165,04167","41,1","0,5","ND","ND","ND","ND"],
    [34474,"43165,08333","32,5","0,5","ND","ND","ND","ND"],
    [34475,"43165,125","35,2","0,5","ND","ND","ND","ND"],
    [34476,"43165,16667","30,7","0,6","ND","ND","ND","ND"],
    [34477,"43165,20833","33,1","0,5","ND","ND","ND","ND"],
    [34478,"43165,25","37,5","0,8","ND","ND","ND","ND"],
    [34479,"43165,29167","37","0,5","ND","ND","ND","ND"],
    [34480,"43165,33333","41","0,5","ND","ND","ND","ND"],
    [34481,"43165,375","24","0,6","ND","ND","ND","ND"],
    [34482,"43165,41667","25,7","0,6","ND","ND","ND","ND"],
    [34483,"43165,45833","29,3","0,8","ND","ND","ND","ND"],
    [34484,"43165,5","31,7","1","ND","ND","ND","ND"],
    [34485,"43165,54167","31","1,2","ND","ND","ND","ND"],
    [34486,"43165,58333","33,4","1","ND","ND","ND","ND"],
    [34487,"43165,625","32,6","0,9","ND","ND","ND","ND"],
    [34488,"43165,66667","9,6","0,5","ND","ND","ND","ND"],
    [34489,"43165,70833","12,2","0,4","ND","ND","ND","ND"],
    [34490,"43165,75","10,9","0,3","ND","ND","ND","ND"],
    [34491,"43165,79167","10,6","0,4","ND","ND","ND","ND"],
    [34492,"43165,83333","17,1","0,6","ND","ND","ND","ND"],
    [34493,"43165,875","22,3","1,1","ND","ND","ND","ND"],
    [34494,"43165,91667","43,8","0,7","ND","ND","ND","ND"],
    [34495,"43165,95833","38,3","1","ND","ND","ND","ND"],
    [34496,"43196","30,8","0,7","ND","ND","ND","ND"],
    [34497,"43196,04167","25,6","0,6","ND","ND","ND","ND"],
    [34498,"43196,08333","32,7","0,5","ND","ND","ND","ND"],
    [34499,"43196,125","23,5","0,4","ND","ND","ND","ND"],
    [34500,"43196,16667","30,1","0,4","ND","ND","ND","ND"],
    [34501,"43196,20833","18,2","0,4","ND","ND","ND","ND"],
    [34502,"43196,25","32,7","0,4","ND","ND","ND","ND"],
    [34503,"43196,29167","40,2","0,7","ND","ND","ND","ND"],
    [34504,"43196,33333","45,6","1","ND","ND","ND","ND"],
    [34505,"43196,375","30,5","0,5","ND","ND","ND","ND"],
    [34506,"43196,41667","49,3","0,6","ND","ND","ND","ND"],
    [34507,"43196,45833","48,2","0,8","ND","ND","ND","ND"],
    [34508,"43196,5","40,8","0,9","ND","ND","ND","ND"],
    [34509,"43196,54167","50,1","0,8","ND","ND","ND","ND"],
    [34510,"43196,58333","52,8","1","ND","ND","ND","ND"],
    [34511,"43196,625","46,8","0,9","ND","ND","ND","ND"],
    [34512,"43196,66667","26","1,2","ND","ND","ND","ND"],
    [34513,"43196,70833","43,7","1,7","ND","ND","ND","ND"],
    [34514,"43196,75","49,4","1,1","ND","ND","ND","ND"],
    [34515,"43196,79167","9,8","0,8","ND","ND","ND","ND"],
    [34516,"43196,83333","26,2","0,8","ND","ND","ND","ND"],
    [34517,"43196,875","29,5","0,9","ND","ND","ND","ND"],
    [34518,"43196,91667","29,5","1,3","ND","ND","ND","ND"],
    [34519,"43196,95833","39,6","1,2","ND","ND","ND","ND"],
    [34520,"43226","33,6","0,6","ND","ND","ND","ND"],
    [34521,"43226,04167","25,4","0,5","ND","ND","ND","ND"],
    [34522,"43226,08333","23,2","0,3","ND","ND","ND","ND"],
    [34523,"43226,125","48,5","0,6","ND","ND","ND","ND"],
    [34524,"43226,16667","25,9","0,4","ND","ND","ND","ND"],
    [34525,"43226,20833","30,5","0,7","ND","ND","ND","ND"],
    [34526,"43226,25","42,5","0,8","ND","ND","ND","ND"],
    [34527,"43226,29167","59,7","1,2","ND","ND","ND","ND"],
    [34528,"43226,33333","64,9","1,4","ND","ND","ND","ND"],
    [34529,"43226,375","53,5","1,2","ND","ND","ND","ND"],
    [34530,"43226,41667","54,2","1","ND","ND","ND","ND"],
    [34531,"43226,45833","88","1,1","ND","ND","ND","ND"],
    [34532,"43226,5","88","1,3","ND","ND","ND","ND"],
    [34533,"43226,54167","56,6","1,8","ND","ND","ND","ND"],
    [34534,"43226,58333","53,2","3","ND","ND","ND","ND"],
    [34535,"43226,625","37,9","2,3","ND","ND","ND","ND"],
    [34536,"43226,66667","11,3","0,8","ND","ND","ND","ND"],
    [34537,"43226,70833","ND","0,6","ND","ND","ND","ND"],
    [34538,"43226,75","ND","0,7","ND","ND","ND","ND"],
    [34539,"43226,79167","ND","1,1","ND","ND","ND","ND"],
    [34540,"43226,83333","ND","0,9","ND","ND","ND","ND"],
    [34541,"43226,875","ND","0,7","ND","ND","ND","ND"],
    [34542,"43226,91667","ND","0,6","ND","ND","ND","ND"],
    [34543,"43226,95833","ND","0,5","ND","ND","ND","ND"],
    [34544,"43257","ND","0,4","ND","ND","ND","ND"],
    [34545,"43257,04167","ND","0,4","ND","ND","ND","ND"],
    [34546,"43257,08333","ND","0,3","ND","ND","ND","ND"],
    [34547,"43257,125","ND","0,3","ND","ND","ND","ND"],
    [34548,"43257,16667","ND","0,3","ND","ND","ND","ND"],
    [34549,"43257,20833","ND","0,3","ND","ND","ND","ND"],
    [34550,"43257,25","ND","0,6","ND","ND","ND","ND"],
    [34551,"43257,29167","ND","1,1","ND","ND","ND","ND"],
    [34552,"43257,33333","ND","1,4","ND","ND","ND","ND"],
    [34553,"43257,375","ND","0,8","ND","ND","ND","ND"],
    [34554,"43257,41667","ND","ND","ND","ND","ND","ND"],
    [34555,"43257,45833","ND","ND","ND","ND","ND","ND"],
    [34556,"43257,5","ND","ND","ND","ND","ND","ND"],
    [34557,"43257,54167","ND","ND","ND","ND","ND","ND"],
    [34558,"43257,58333","ND","ND","ND","ND","ND","ND"],
    [34559,"43257,625","ND","ND","ND","ND","ND","ND"],
    [34560,"43257,66667","ND","ND","ND","ND","ND","ND"],
    [34561,"43257,70833","ND","ND","ND","ND","ND","ND"],
    [34562,"43257,75","ND","ND","ND","ND","ND","ND"],
    [34563,"43257,79167","ND","ND","ND","ND","ND","ND"],
    [34564,"43257,83333","ND","ND","ND","ND","ND","ND"],
    [34565,"43257,875","ND","ND","ND","ND","ND","ND"],
    [34566,"43257,91667","ND","ND","ND","ND","ND","ND"],
    [34567,"43257,95833","ND","ND","ND","ND","ND","ND"],
    [34568,"43287","ND","ND","ND","ND","ND","ND"],
    [34569,"43287,04167","ND","ND","ND","ND","ND","ND"],
    [34570,"43287,08333","ND","ND","ND","ND","ND","ND"],
    [34571,"43287,125","ND","ND","ND","ND","ND","ND"],
    [34572,"43287,16667","ND","ND","ND","ND","ND","ND"],
    [34573,"43287,20833","ND","ND","ND","ND","ND","ND"],
    [34574,"43287,25","ND","ND","ND","ND","ND","ND"],
    [34575,"43287,29167","ND","ND","ND","ND","ND","ND"],
    [34576,"43287,33333","ND","ND","ND","ND","ND","ND"],
    [34577,"43287,375","ND","1,5","ND","ND","ND","ND"],
    [34578,"43287,41667","ND","1,5","ND","ND","ND","ND"],
    [34579,"43287,45833","33","1,9","ND","ND","ND","ND"],
    [34580,"43287,5","32,4","1,8","ND","ND","ND","ND"],
    [34581,"43287,54167","41","1,4","ND","ND","ND","ND"],
    [34582,"43287,58333","43,5","1,3","ND","ND","ND","ND"],
    [34583,"43287,625","50,2","0,8","ND","ND","ND","ND"],
    [34584,"43287,66667","61,7","0,3","ND","ND","ND","ND"],
    [34585,"43287,70833","18,2","0,4","ND","ND","ND","ND"],
    [34586,"43287,75","19,3","0,2","ND","ND","ND","ND"],
    [34587,"43287,79167","16,5","0,3","ND","ND","ND","ND"],
    [34588,"43287,83333","15,4","0,5","ND","ND","ND","ND"],
    [34589,"43287,875","34,2","0,9","ND","ND","ND","ND"],
    [34590,"43287,91667","37","0,9","ND","ND","ND","ND"],
    [34591,"43287,95833","55,6","1,6","ND","ND","ND","ND"],
    [34592,"43318","59,8","0,4","ND","ND","ND","ND"],
    [34593,"43318,04167","35,6","0,4","ND","ND","ND","ND"],
    [34594,"43318,08333","31","0,3","ND","ND","ND","ND"],
    [34595,"43318,125","22","0,3","ND","ND","ND","ND"],
    [34596,"43318,16667","23,8","0,2","ND","ND","ND","ND"],
    [34597,"43318,20833","23,8","0,4","ND","ND","ND","ND"],
    [34598,"43318,25","33,7","0,4","ND","ND","ND","ND"],
    [34599,"43318,29167","56,8","0,6","ND","ND","ND","ND"],
    [34600,"43318,33333","66,5","0,7","ND","ND","ND","ND"],
    [34601,"43318,375","63,6","1,1","ND","ND","ND","ND"],
    [34602,"43318,41667","43,9","1,8","ND","ND","ND","ND"],
    [34603,"43318,45833","45,5","1,8","ND","ND","ND","ND"],
    [34604,"43318,5","43,5","1,5","ND","ND","ND","ND"],
    [34605,"43318,54167","58","1,5","ND","ND","ND","ND"],
    [34606,"43318,58333","70,1","0,9","ND","ND","ND","ND"],
    [34607,"43318,625","38","0,4","ND","ND","ND","ND"],
    [34608,"43318,66667","12,3","0,4","ND","ND","ND","ND"],
    [34609,"43318,70833","12","0,3","ND","ND","ND","ND"],
    [34610,"43318,75","16,5","0,4","ND","ND","ND","ND"],
    [34611,"43318,79167","16,8","0,5","ND","ND","ND","ND"],
    [34612,"43318,83333","17,1","0,5","ND","ND","ND","ND"],
    [34613,"43318,875","19,3","0,3","ND","ND","ND","ND"],
    [34614,"43318,91667","11,8","0,6","ND","ND","ND","ND"],
    [34615,"43318,95833","28,7","0,7","ND","ND","ND","ND"],
    [34616,"43349","75,5","0,6","ND","ND","ND","ND"],
    [34617,"43349,04167","68,2","0,4","ND","ND","ND","ND"],
    [34618,"43349,08333","58,6","0,3","ND","ND","ND","ND"],
    [34619,"43349,125","53,2","0,4","ND","ND","ND","ND"],
    [34620,"43349,16667","43,9","0,4","ND","ND","ND","ND"],
    [34621,"43349,20833","46,1","0,4","ND","ND","ND","ND"],
    [34622,"43349,25","49,1","0,4","ND","ND","ND","ND"],
    [34623,"43349,29167","35,4","0,8","ND","ND","ND","ND"],
    [34624,"43349,33333","52,5","0,7","ND","ND","ND","ND"],
    [34625,"43349,375","60,8","0,5","ND","ND","ND","ND"],
    [34626,"43349,41667","45,9","0,5","ND","ND","ND","ND"],
    [34627,"43349,45833","45,9","0,8","ND","ND","ND","ND"],
    [34628,"43349,5","52,1","2,3","ND","ND","ND","ND"],
    [34629,"43349,54167","51,8","1,5","ND","ND","ND","ND"],
    [34630,"43349,58333","50,2","1,3","ND","ND","ND","ND"],
    [34631,"43349,625","50,5","1,2","ND","ND","ND","ND"],
    [34632,"43349,66667","59,7","0,5","ND","ND","ND","ND"],
    [34633,"43349,70833","13,7","0,4","ND","ND","ND","ND"],
    [34634,"43349,75","25,9","0,5","ND","ND","ND","ND"],
    [34635,"43349,79167","19,3","0,4","ND","ND","ND","ND"],
    [34636,"43349,83333","7,2","0,8","ND","ND","ND","ND"],
    [34637,"43349,875","15,9","0,7","ND","ND","ND","ND"],
    [34638,"43349,91667","48,7","0,5","ND","ND","ND","ND"],
    [34639,"43349,95833","47,1","0,3","ND","ND","ND","ND"],
    [34640,"43379","31,5","0,4","ND","ND","ND","ND"],
    [34641,"43379,04167","38,3","0,3","ND","ND","ND","ND"],
    [34642,"43379,08333","36,2","0,3","ND","ND","ND","ND"],
    [34643,"43379,125","32,7","0,3","ND","ND","ND","ND"],
    [34644,"43379,16667","33,7","0,4","ND","ND","ND","ND"],
    [34645,"43379,20833","27,1","0,3","ND","ND","ND","ND"],
    [34646,"43379,25","27,1","0,4","ND","ND","ND","ND"],
    [34647,"43379,29167","32,1","0,4","ND","ND","ND","ND"],
    [34648,"43379,33333","28,1","0,4","ND","ND","ND","ND"],
    [34649,"43379,375","26","0,4","ND","ND","ND","ND"],
    [34650,"43379,41667","23,3","0,4","ND","ND","ND","ND"],
    [34651,"43379,45833","23,4","0,3","ND","ND","ND","ND"],
    [34652,"43379,5","19,4","0,3","ND","ND","ND","ND"],
    [34653,"43379,54167","19,7","0,7","ND","ND","ND","ND"],
    [34654,"43379,58333","20,5","0,6","ND","ND","ND","ND"],
    [34655,"43379,625","28","0,4","ND","ND","ND","ND"],
    [34656,"43379,66667","16,8","0,3","ND","ND","ND","ND"],
    [34657,"43379,70833","7,7","0,3","ND","ND","ND","ND"],
    [34658,"43379,75","5,2","0,3","ND","ND","ND","ND"],
    [34659,"43379,79167","5,9","0,4","ND","ND","ND","ND"],
    [34660,"43379,83333","42,7","0,6","ND","ND","ND","ND"],
    [34661,"43379,875","27,1","0,6","ND","ND","ND","ND"],
    [34662,"43379,91667","39,4","0,4","ND","ND","ND","ND"],
    [34663,"43379,95833","37,2","0,4","ND","ND","ND","ND"],
    [34664,"43410","26,6","0,2","ND","ND","ND","ND"],
    [34665,"43410,04167","22,2","0,3","ND","ND","ND","ND"],
    [34666,"43410,08333","16,6","0,3","ND","ND","ND","ND"],
    [34667,"43410,125","12,6","0,2","ND","ND","ND","ND"],
    [34668,"43410,16667","15","0,2","ND","ND","ND","ND"],
    [34669,"43410,20833","17,7","0,3","ND","ND","ND","ND"],
    [34670,"43410,25","15,4","0,4","ND","ND","ND","ND"],
    [34671,"43410,29167","18,6","0,6","ND","ND","ND","ND"],
    [34672,"43410,33333","21,7","0,6","ND","ND","ND","ND"],
    [34673,"43410,375","31,2","0,6","ND","ND","ND","ND"],
    [34674,"43410,41667","34,9","0,5","ND","ND","ND","ND"],
    [34675,"43410,45833","34,6","0,4","ND","ND","ND","ND"],
    [34676,"43410,5","35,2","0,6","ND","ND","ND","ND"],
    [34677,"43410,54167","31","0,8","ND","ND","ND","ND"],
    [34678,"43410,58333","32,9","0,7","ND","ND","ND","ND"],
    [34679,"43410,625","22,8","0,7","ND","ND","ND","ND"],
    [34680,"43410,66667","32,4","0,8","ND","ND","ND","ND"],
    [34681,"43410,70833","36,9","0,6","ND","ND","ND","ND"],
    [34682,"43410,75","18,4","0,4","ND","ND","ND","ND"],
    [34683,"43410,79167","11,8","0,3","ND","ND","ND","ND"],
    [34684,"43410,83333","10,2","0,3","ND","ND","ND","ND"],
    [34685,"43410,875","6,8","0,4","ND","ND","ND","ND"],
    [34686,"43410,91667","33,1","0,9","ND","ND","ND","ND"],
    [34687,"43410,95833","46","0,7","ND","ND","ND","ND"],
    [34688,"43440","39","0,6","ND","ND","ND","ND"],
    [34689,"43440,04167","28,5","0,3","ND","ND","ND","ND"],
    [34690,"43440,08333","23,1","0,4","ND","ND","ND","ND"],
    [34691,"43440,125","17,2","0,3","ND","ND","ND","ND"],
    [34692,"43440,16667","18,7","0,2","ND","ND","ND","ND"],
    [34693,"43440,20833","21","0,4","ND","ND","ND","ND"],
    [34694,"43440,25","30,4","0,3","ND","ND","ND","ND"],
    [34695,"43440,29167","41,5","1,1","ND","ND","ND","ND"],
    [34696,"43440,33333","50,5","0,8","ND","ND","ND","ND"],
    [34697,"43440,375","54,7","1","ND","ND","ND","ND"],
    [34698,"43440,41667","ND","ND","ND","ND","ND","ND"],
    [34699,"43440,45833","ND","ND","ND","ND","ND","ND"],
    [34700,"43440,5","ND","ND","ND","ND","ND","ND"],
    [34701,"43440,54167","ND","ND","ND","ND","ND","ND"],
    [34702,"43440,58333","ND","ND","ND","ND","ND","ND"],
    [34703,"43440,625","ND","ND","ND","ND","ND","ND"],
    [34704,"43440,66667","ND","ND","ND","ND","ND","ND"],
    [34705,"43440,70833","ND","ND","ND","ND","ND","ND"],
    [34706,"43440,75","ND","ND","ND","ND","ND","ND"],
    [34707,"43440,79167","ND","ND","ND","ND","ND","ND"],
    [34708,"43440,83333","ND","ND","ND","ND","ND","ND"],
    [34709,"43440,875","ND","ND","ND","ND","ND","ND"],
    [34710,"43440,91667","ND","ND","ND","ND","ND","ND"],
    [34711,"43440,95833","ND","ND","ND","ND","ND","ND"],
    [34712,"06/13/2018 00:00","ND","ND","ND","ND","ND","ND"],
    [34713,"06/13/2018 01:00","ND","ND","ND","ND","ND","ND"],
    [34714,"06/13/2018 02:00","ND","ND","ND","ND","ND","ND"],
    [34715,"06/13/2018 03:00","ND","ND","ND","ND","ND","ND"],
    [34716,"06/13/2018 04:00","ND","ND","ND","ND","ND","ND"],
    [34717,"06/13/2018 05:00","ND","ND","ND","ND","ND","ND"],
    [34718,"06/13/2018 06:00","ND","ND","ND","ND","ND","ND"],
    [34719,"06/13/2018 07:00","55,4","0,7","ND","ND","ND","ND"],
    [34720,"06/13/2018 08:00","64,7","0,7","ND","ND","ND","ND"],
    [34721,"06/13/2018 09:00","62,8","0,7","ND","ND","ND","ND"],
    [34722,"06/13/2018 10:00","56,1","1,3","ND","ND","ND","ND"],
    [34723,"06/13/2018 11:00","51,7","1,7","ND","ND","ND","ND"],
    [34724,"06/13/2018 12:00","34,8","1,7","ND","ND","ND","ND"],
    [34725,"06/13/2018 13:00","36,2","1,7","ND","ND","ND","ND"],
    [34726,"06/13/2018 14:00","28,4","1,9","ND","ND","ND","ND"],
    [34727,"06/13/2018 15:00","35,6","1,7","ND","ND","ND","ND"],
    [34728,"06/13/2018 16:00","41,7","1,5","ND","ND","ND","ND"],
    [34729,"06/13/2018 17:00","47,6","1,2","ND","ND","ND","ND"],
    [34730,"06/13/2018 18:00","58,3","0,5","ND","ND","ND","ND"],
    [34731,"06/13/2018 19:00","25,4","0,4","ND","ND","ND","ND"],
    [34732,"06/13/2018 20:00","17,6","0,7","ND","ND","ND","ND"],
    [34733,"06/13/2018 21:00","32,9","0,6","ND","ND","ND","ND"],
    [34734,"06/13/2018 22:00","36,1","0,9","ND","ND","ND","ND"],
    [34735,"06/13/2018 23:00","36,8","0,7","ND","ND","ND","ND"],
    [34736,"06/14/2018 00:00","52,3","0,5","ND","ND","ND","ND"],
    [34737,"06/14/2018 01:00","38,4","0,4","ND","ND","ND","ND"],
    [34738,"06/14/2018 02:00","42,3","0,3","ND","ND","ND","ND"],
    [34739,"06/14/2018 03:00","52,1","0,3","ND","ND","ND","ND"],
    [34740,"06/14/2018 04:00","35,4","0,3","ND","ND","ND","ND"],
    [34741,"06/14/2018 05:00","29,2","0,3","ND","ND","ND","ND"],
    [34742,"06/14/2018 06:00","33","0,5","ND","ND","ND","ND"],
    [34743,"06/14/2018 07:00","39,6","0,8","ND","ND","ND","ND"],
    [34744,"06/14/2018 08:00","54,4","0,8","ND","ND","ND","ND"],
    [34745,"06/14/2018 09:00","50,1","0,8","ND","ND","ND","ND"],
    [34746,"06/14/2018 10:00","67","0,9","ND","ND","ND","ND"],
    [34747,"06/14/2018 11:00","69,9","1,3","ND","ND","ND","ND"],
    [34748,"06/14/2018 12:00","66,9","1","ND","ND","ND","ND"],
    [34749,"06/14/2018 13:00","43,9","1","ND","ND","ND","ND"],
    [34750,"06/14/2018 14:00","49,2","1","ND","ND","ND","ND"],
    [34751,"06/14/2018 15:00","40,3","1,1","ND","ND","ND","ND"],
    [34752,"06/14/2018 16:00","32,3","0,4","ND","ND","ND","ND"],
    [34753,"06/14/2018 17:00","8,9","0,3","ND","ND","ND","ND"],
    [34754,"06/14/2018 18:00","8,5","0,4","ND","ND","ND","ND"],
    [34755,"06/14/2018 19:00","10,2","0,4","ND","ND","ND","ND"],
    [34756,"06/14/2018 20:00","15,4","0,8","ND","ND","ND","ND"],
    [34757,"06/14/2018 21:00","34,5","0,7","ND","ND","ND","ND"],
    [34758,"06/14/2018 22:00","34","0,8","ND","ND","ND","ND"],
    [34759,"06/14/2018 23:00","31,4","0,8","ND","ND","ND","ND"],
    [34760,"06/15/2018 00:00","39,9","0,6","ND","ND","ND","ND"],
    [34761,"06/15/2018 01:00","21","0,5","ND","ND","ND","ND"],
    [34762,"06/15/2018 02:00","16,1","0,4","ND","ND","ND","ND"],
    [34763,"06/15/2018 03:00","17,2","0,3","ND","ND","ND","ND"],
    [34764,"06/15/2018 04:00","24","0,4","ND","ND","ND","ND"],
    [34765,"06/15/2018 05:00","18,6","0,4","ND","ND","ND","ND"],
    [34766,"06/15/2018 06:00","16,2","0,6","ND","ND","ND","ND"],
    [34767,"06/15/2018 07:00","42,3","0,9","ND","ND","ND","ND"],
    [34768,"06/15/2018 08:00","46,9","1,1","ND","ND","ND","ND"],
    [34769,"06/15/2018 09:00","56,7","1,1","ND","ND","ND","ND"],
    [34770,"06/15/2018 10:00","71,2","1,2","ND","ND","ND","ND"],
    [34771,"06/15/2018 11:00","54,9","1,2","ND","ND","ND","ND"],
    [34772,"06/15/2018 12:00","40,9","1,5","ND","ND","ND","ND"],
    [34773,"06/15/2018 13:00","66,1","1,5","ND","ND","ND","ND"],
    [34774,"06/15/2018 14:00","71,4","1,7","ND","ND","ND","ND"],
    [34775,"06/15/2018 15:00","58,9","2,1","ND","ND","ND","ND"],
    [34776,"06/15/2018 16:00","70,9","1,9","ND","ND","ND","ND"],
    [34777,"06/15/2018 17:00","69,7","0,6","ND","ND","ND","ND"],
    [34778,"06/15/2018 18:00","38","0,5","ND","ND","ND","ND"],
    [34779,"06/15/2018 19:00","25,5","0,6","ND","ND","ND","ND"],
    [34780,"06/15/2018 20:00","18,5","0,5","ND","ND","ND","ND"],
    [34781,"06/15/2018 21:00","12,3","0,7","ND","ND","ND","ND"],
    [34782,"06/15/2018 22:00","32,5","0,8","ND","ND","ND","ND"],
    [34783,"06/15/2018 23:00","26,5","0,6","ND","ND","ND","ND"],
    [34784,"06/16/2018 00:00","40,1","0,6","ND","ND","ND","ND"],
    [34785,"06/16/2018 01:00","43,5","0,4","ND","ND","ND","ND"],
    [34786,"06/16/2018 02:00","43,5","0,4","ND","ND","ND","ND"],
    [34787,"06/16/2018 03:00","32,6","0,4","ND","ND","ND","ND"],
    [34788,"06/16/2018 04:00","47","0,4","ND","ND","ND","ND"],
    [34789,"06/16/2018 05:00","36","0,5","ND","ND","ND","ND"],
    [34790,"06/16/2018 06:00","48,1","0,5","ND","ND","ND","ND"],
    [34791,"06/16/2018 07:00","37,9","0,8","ND","ND","ND","ND"],
    [34792,"06/16/2018 08:00","37,8","0,6","ND","ND","ND","ND"],
    [34793,"06/16/2018 09:00","38,2","0,7","ND","ND","ND","ND"],
    [34794,"06/16/2018 10:00","47,8","1,3","ND","ND","ND","ND"],
    [34795,"06/16/2018 11:00","49,5","1,9","ND","ND","ND","ND"],
    [34796,"06/16/2018 12:00","54,1","1,6","ND","ND","ND","ND"],
    [34797,"06/16/2018 13:00","41,7","1,4","ND","ND","ND","ND"],
    [34798,"06/16/2018 14:00","21,3","1,3","ND","ND","ND","ND"],
    [34799,"06/16/2018 15:00","ND","0,9","ND","ND","ND","ND"],
    [34800,"06/16/2018 16:00","ND","0,4","ND","ND","ND","ND"],
    [34801,"06/16/2018 17:00","ND","0,2","ND","ND","ND","ND"],
    [34802,"06/16/2018 18:00","16,3","0,1","ND","ND","ND","ND"],
    [34803,"06/16/2018 19:00","17,5","0,1","ND","ND","ND","ND"],
    [34804,"06/16/2018 20:00","17,3","0,1","ND","ND","ND","ND"],
    [34805,"06/16/2018 21:00","18,3","0,1","ND","ND","ND","ND"],
    [34806,"06/16/2018 22:00","31,5","0,2","ND","ND","ND","ND"],
    [34807,"06/16/2018 23:00","57,7","0,2","ND","ND","ND","ND"],
    [34808,"06/17/2018 00:00","49,7","0,2","ND","ND","ND","ND"],
    [34809,"06/17/2018 01:00","44","0,2","ND","ND","ND","ND"],
    [34810,"06/17/2018 02:00","41,7","0,2","ND","ND","ND","ND"],
    [34811,"06/17/2018 03:00","46","0,2","ND","ND","ND","ND"],
    [34812,"06/17/2018 04:00","56,6","0,1","ND","ND","ND","ND"],
    [34813,"06/17/2018 05:00","38,5","0,2","ND","ND","ND","ND"],
    [34814,"06/17/2018 06:00","38,8","0,1","ND","ND","ND","ND"],
    [34815,"06/17/2018 07:00","36,2","0,1","ND","ND","ND","ND"],
    [34816,"06/17/2018 08:00","34,4","0,2","ND","ND","ND","ND"],
    [34817,"06/17/2018 09:00","52,5","0,4","ND","ND","ND","ND"],
    [34818,"06/17/2018 10:00","74,1","2,8","ND","ND","ND","ND"],
    [34819,"06/17/2018 11:00","63,9","2,6","ND","ND","ND","ND"],
    [34820,"06/17/2018 12:00","62,4","2,6","ND","ND","ND","ND"],
    [34821,"06/17/2018 13:00","57,9","1,2","ND","ND","ND","ND"],
    [34822,"06/17/2018 14:00","61,2","0,8","ND","ND","ND","ND"],
    [34823,"06/17/2018 15:00","56,9","0,4","ND","ND","ND","ND"],
    [34824,"06/17/2018 16:00","55,8","0,2","ND","ND","ND","ND"],
    [34825,"06/17/2018 17:00","34,3","0","ND","ND","ND","ND"],
    [34826,"06/17/2018 18:00","14,6","0","ND","ND","ND","ND"],
    [34827,"06/17/2018 19:00","11,7","0,1","ND","ND","ND","ND"],
    [34828,"06/17/2018 20:00","18","0,1","ND","ND","ND","ND"],
    [34829,"06/17/2018 21:00","34,5","0,2","ND","ND","ND","ND"],
    [34830,"06/17/2018 22:00","35","0,2","ND","ND","ND","ND"],
    [34831,"06/17/2018 23:00","66,7","0,2","ND","ND","ND","ND"],
    [34832,"06/18/2018 00:00","44,9","0,3","ND","ND","ND","ND"],
    [34833,"06/18/2018 01:00","38,4","0,1","ND","ND","ND","ND"],
    [34834,"06/18/2018 02:00","40","0,1","ND","ND","ND","ND"],
    [34835,"06/18/2018 03:00","30,2","0,1","ND","ND","ND","ND"],
    [34836,"06/18/2018 04:00","31,3","0,1","ND","ND","ND","ND"],
    [34837,"06/18/2018 05:00","25,6","0,2","ND","ND","ND","ND"],
    [34838,"06/18/2018 06:00","32,8","0,1","ND","ND","ND","ND"],
    [34839,"06/18/2018 07:00","45,3","0,3","ND","ND","ND","ND"],
    [34840,"06/18/2018 08:00","59,4","0,6","ND","ND","ND","ND"],
    [34841,"06/18/2018 09:00","72","1,2","ND","ND","ND","ND"],
    [34842,"06/18/2018 10:00","63,1","1,2","ND","ND","ND","ND"],
    [34843,"06/18/2018 11:00","64,3","1,4","ND","ND","ND","ND"],
    [34844,"06/18/2018 12:00","49,2","2,1","ND","ND","ND","ND"],
    [34845,"06/18/2018 13:00","56,5","2,3","ND","ND","ND","ND"],
    [34846,"06/18/2018 14:00","56,8","2","ND","ND","ND","ND"],
    [34847,"06/18/2018 15:00","56,4","1,1","ND","ND","ND","ND"],
    [34848,"06/18/2018 16:00","69,8","1,3","ND","ND","ND","ND"],
    [34849,"06/18/2018 17:00","69,7","0,7","ND","ND","ND","ND"],
    [34850,"06/18/2018 18:00","68,8","0,8","ND","ND","ND","ND"],
    [34851,"06/18/2018 19:00","83,5","0,1","ND","ND","ND","ND"],
    [34852,"06/18/2018 20:00","46,1","0,1","ND","ND","ND","ND"],
    [34853,"06/18/2018 21:00","14,3","0,3","ND","ND","ND","ND"],
    [34854,"06/18/2018 22:00","35,3","0,2","ND","ND","ND","ND"],
    [34855,"06/18/2018 23:00","43,7","0,1","ND","ND","ND","ND"],
    [34856,"06/19/2018 00:00","32,1","0,1","ND","ND","ND","ND"],
    [34857,"06/19/2018 01:00","29,3","0,1","ND","ND","ND","ND"],
    [34858,"06/19/2018 02:00","21,6","0,1","ND","ND","ND","ND"],
    [34859,"06/19/2018 03:00","15,7","0,1","ND","ND","ND","ND"],
    [34860,"06/19/2018 04:00","19,2","0,1","ND","ND","ND","ND"],
    [34861,"06/19/2018 05:00","20,8","0,1","ND","ND","ND","ND"],
    [34862,"06/19/2018 06:00","25,9","0,2","ND","ND","ND","ND"],
    [34863,"06/19/2018 07:00","23,3","0,4","ND","ND","ND","ND"],
    [34864,"06/19/2018 08:00","54,6","0,9","ND","ND","ND","ND"],
    [34865,"06/19/2018 09:00","78,3","1,2","ND","ND","ND","ND"],
    [34866,"06/19/2018 10:00","45,8","1,9","ND","ND","ND","ND"],
    [34867,"06/19/2018 11:00","54,1","1,1","ND","ND","ND","ND"],
    [34868,"06/19/2018 12:00","41,6","1","ND","ND","ND","ND"],
    [34869,"06/19/2018 13:00","56,1","1","ND","ND","ND","ND"],
    [34870,"06/19/2018 14:00","56,5","1,2","ND","ND","ND","ND"],
    [34871,"06/19/2018 15:00","56,2","0,5","ND","ND","ND","ND"],
    [34872,"06/19/2018 16:00","49,2","0,2","ND","ND","ND","ND"],
    [34873,"06/19/2018 17:00","35,7","0,1","ND","ND","ND","ND"],
    [34874,"06/19/2018 18:00","19,4","0","ND","ND","ND","ND"],
    [34875,"06/19/2018 19:00","26","0,1","ND","ND","ND","ND"],
    [34876,"06/19/2018 20:00","16,2","0,1","ND","ND","ND","ND"],
    [34877,"06/19/2018 21:00","12,4","0,1","ND","ND","ND","ND"],
    [34878,"06/19/2018 22:00","18,8","0,2","ND","ND","ND","ND"],
    [34879,"06/19/2018 23:00","33,7","0,1","ND","ND","ND","ND"],
    [34880,"06/20/2018 00:00","50,7","0,2","ND","ND","ND","ND"],
    [34881,"06/20/2018 01:00","28,2","0,2","ND","ND","ND","ND"],
    [34882,"06/20/2018 02:00","20,9","0,2","ND","ND","ND","ND"],
    [34883,"06/20/2018 03:00","19,2","0,1","ND","ND","ND","ND"],
    [34884,"06/20/2018 04:00","20,5","0,1","ND","ND","ND","ND"],
    [34885,"06/20/2018 05:00","20,8","0,1","ND","ND","ND","ND"],
    [34886,"06/20/2018 06:00","30,4","0,3","ND","ND","ND","ND"],
    [34887,"06/20/2018 07:00","49,1","0,5","ND","ND","ND","ND"],
    [34888,"06/20/2018 08:00","59,1","1","ND","ND","ND","ND"],
    [34889,"06/20/2018 09:00","48,7","3,2","ND","ND","ND","ND"],
    [34890,"06/20/2018 10:00","56,9","4,2","ND","ND","ND","ND"],
    [34891,"06/20/2018 11:00","43","3,8","ND","ND","ND","ND"],
    [34892,"06/20/2018 12:00","39,9","2,7","ND","ND","ND","ND"],
    [34893,"06/20/2018 13:00","48,6","2,2","ND","ND","ND","ND"],
    [34894,"06/20/2018 14:00","46,3","1,2","ND","ND","ND","ND"],
    [34895,"06/20/2018 15:00","43,5","0,4","ND","ND","ND","ND"],
    [34896,"06/20/2018 16:00","37,8","0,2","ND","ND","ND","ND"],
    [34897,"06/20/2018 17:00","42,8","0,1","ND","ND","ND","ND"],
    [34898,"06/20/2018 18:00","27,2","0","ND","ND","ND","ND"],
    [34899,"06/20/2018 19:00","32,9","0,1","ND","ND","ND","ND"],
    [34900,"06/20/2018 20:00","16,7","0,1","ND","ND","ND","ND"],
    [34901,"06/20/2018 21:00","15,2","0,1","ND","ND","ND","ND"],
    [34902,"06/20/2018 22:00","35,1","0,3","ND","ND","ND","ND"],
    [34903,"06/20/2018 23:00","79","0,3","ND","ND","ND","ND"],
    [34904,"06/21/2018 00:00","42,4","0,2","ND","ND","ND","ND"],
    [34905,"06/21/2018 01:00","64,4","0,3","ND","ND","ND","ND"],
    [34906,"06/21/2018 02:00","50,1","0,5","ND","ND","ND","ND"],
    [34907,"06/21/2018 03:00","42,1","0,3","ND","ND","ND","ND"],
    [34908,"06/21/2018 04:00","37,9","0,2","ND","ND","ND","ND"],
    [34909,"06/21/2018 05:00","37,2","0,2","ND","ND","ND","ND"],
    [34910,"06/21/2018 06:00","34,5","0,4","ND","ND","ND","ND"],
    [34911,"06/21/2018 07:00","56,7","0,4","ND","ND","ND","ND"],
    [34912,"06/21/2018 08:00","66,7","0,7","ND","ND","ND","ND"],
    [34913,"06/21/2018 09:00","69,7","1,5","ND","ND","ND","ND"],
    [34914,"06/21/2018 10:00","85,4","1,9","ND","ND","ND","ND"],
    [34915,"06/21/2018 11:00","51,9","2,5","ND","ND","ND","ND"],
    [34916,"06/21/2018 12:00","45,4","2","ND","ND","ND","ND"],
    [34917,"06/21/2018 13:00","55,7","1,5","ND","ND","ND","ND"],
    [34918,"06/21/2018 14:00","57,8","2,6","ND","ND","ND","ND"],
    [34919,"06/21/2018 15:00","67,8","0,4","ND","ND","ND","ND"],
    [34920,"06/21/2018 16:00","20,8","0,4","ND","ND","ND","ND"],
    [34921,"06/21/2018 17:00","21,3","0,5","ND","ND","ND","ND"],
    [34922,"06/21/2018 18:00","20,9","0,6","ND","ND","ND","ND"],
    [34923,"06/21/2018 19:00","28,5","0,5","ND","ND","ND","ND"],
    [34924,"06/21/2018 20:00","23,1","0,5","ND","ND","ND","ND"],
    [34925,"06/21/2018 21:00","25,6","0,9","ND","ND","ND","ND"],
    [34926,"06/21/2018 22:00","47,4","0,7","ND","ND","ND","ND"],
    [34927,"06/21/2018 23:00","76,5","0,7","ND","ND","ND","ND"],
    [34928,"06/22/2018 00:00","68","0,6","ND","ND","ND","ND"],
    [34929,"06/22/2018 01:00","53,2","0,5","ND","ND","ND","ND"],
    [34930,"06/22/2018 02:00","41,6","0,4","ND","ND","ND","ND"],
    [34931,"06/22/2018 03:00","38,2","0,4","ND","ND","ND","ND"],
    [34932,"06/22/2018 04:00","39","0,5","ND","ND","ND","ND"],
    [34933,"06/22/2018 05:00","39,2","0,6","ND","ND","ND","ND"],
    [34934,"06/22/2018 06:00","37,7","0,5","ND","ND","ND","ND"],
    [34935,"06/22/2018 07:00","66,1","0,8","ND","ND","ND","ND"],
    [34936,"06/22/2018 08:00","72,7","1,4","ND","ND","ND","ND"],
    [34937,"06/22/2018 09:00","68,7","ND","ND","ND","ND","ND"],
    [34938,"06/22/2018 10:00","75,8","ND","ND","ND","ND","ND"],
    [34939,"06/22/2018 11:00","ND","2,2","ND","ND","ND","ND"],
    [34940,"06/22/2018 12:00","ND","1,1","ND","ND","ND","ND"],
    [34941,"06/22/2018 13:00","ND","0,7","ND","ND","ND","ND"],
    [34942,"06/22/2018 14:00","55,4","0,3","ND","ND","ND","ND"],
    [34943,"06/22/2018 15:00","65,1","0,3","ND","ND","ND","ND"],
    [34944,"06/22/2018 16:00","70,2","0","ND","ND","ND","ND"],
    [34945,"06/22/2018 17:00","17,7","0","ND","ND","ND","ND"],
    [34946,"06/22/2018 18:00","21,2","0","ND","ND","ND","ND"],
    [34947,"06/22/2018 19:00","22,1","0","ND","ND","ND","ND"],
    [34948,"06/22/2018 20:00","30,5","0,1","ND","ND","ND","ND"],
    [34949,"06/22/2018 21:00","30,6","0","ND","ND","ND","ND"],
    [34950,"06/22/2018 22:00","25,6","0","ND","ND","ND","ND"],
    [34951,"06/22/2018 23:00","66,9","0,2","ND","ND","ND","ND"],
    [34952,"06/23/2018 00:00","72,2","0","ND","ND","ND","ND"],
    [34953,"06/23/2018 01:00","46,4","0","ND","ND","ND","ND"],
    [34954,"06/23/2018 02:00","50,8","0","ND","ND","ND","ND"],
    [34955,"06/23/2018 03:00","38,7","0","ND","ND","ND","ND"],
    [34956,"06/23/2018 04:00","41,6","0","ND","ND","ND","ND"],
    [34957,"06/23/2018 05:00","48,9","0","ND","ND","ND","ND"],
    [34958,"06/23/2018 06:00","42,8","0","ND","ND","ND","ND"],
    [34959,"06/23/2018 07:00","47,9","0,1","ND","ND","ND","ND"],
    [34960,"06/23/2018 08:00","60,3","0,5","ND","ND","ND","ND"],
    [34961,"06/23/2018 09:00","89,2","0,3","ND","ND","ND","ND"],
    [34962,"06/23/2018 10:00","73","0,2","ND","ND","ND","ND"],
    [34963,"06/23/2018 11:00","80,3","0,3","ND","ND","ND","ND"],
    [34964,"06/23/2018 12:00","38,8","0,3","ND","ND","ND","ND"],
    [34965,"06/23/2018 13:00","32,2","0,3","ND","ND","ND","ND"],
    [34966,"06/23/2018 14:00","38,1","0,2","ND","ND","ND","ND"],
    [34967,"06/23/2018 15:00","45,7","0","ND","ND","ND","ND"],
    [34968,"06/23/2018 16:00","19,6","0","ND","ND","ND","ND"],
    [34969,"06/23/2018 17:00","15,9","0","ND","ND","ND","ND"],
    [34970,"06/23/2018 18:00","37,2","0","ND","ND","ND","ND"],
    [34971,"06/23/2018 19:00","35,2","0","ND","ND","ND","ND"],
    [34972,"06/23/2018 20:00","10,3","0","ND","ND","ND","ND"],
    [34973,"06/23/2018 21:00","46,1","0,1","ND","ND","ND","ND"],
    [34974,"06/23/2018 22:00","39,2","0","ND","ND","ND","ND"],
    [34975,"06/23/2018 23:00","38,6","0","ND","ND","ND","ND"],
    [34976,"06/24/2018 00:00","45,2","0","ND","ND","ND","ND"],
    [34977,"06/24/2018 01:00","24,1","0","ND","ND","ND","ND"],
    [34978,"06/24/2018 02:00","26","0","ND","ND","ND","ND"],
    [34979,"06/24/2018 03:00","36,1","0","ND","ND","ND","ND"],
    [34980,"06/24/2018 04:00","25,4","0","ND","ND","ND","ND"],
    [34981,"06/24/2018 05:00","21,7","0","ND","ND","ND","ND"],
    [34982,"06/24/2018 06:00","16,2","0","ND","ND","ND","ND"],
    [34983,"06/24/2018 07:00","24,3","0","ND","ND","ND","ND"],
    [34984,"06/24/2018 08:00","30,8","0","ND","ND","ND","ND"],
    [34985,"06/24/2018 09:00","30,9","0,1","ND","ND","ND","ND"],
    [34986,"06/24/2018 10:00","30,1","3,7","ND","ND","ND","ND"],
    [34987,"06/24/2018 11:00","34,8","3,1","ND","ND","ND","ND"],
    [34988,"06/24/2018 12:00","38,8","2","ND","ND","ND","ND"],
    [34989,"06/24/2018 13:00","39,8","1,5","ND","ND","ND","ND"],
    [34990,"06/24/2018 14:00","44,6","1","ND","ND","ND","ND"],
    [34991,"06/24/2018 15:00","41,4","0,5","ND","ND","ND","ND"],
    [34992,"06/24/2018 16:00","34,3","0,2","ND","ND","ND","ND"],
    [34993,"06/24/2018 17:00","17,9","0","ND","ND","ND","ND"],
    [34994,"06/24/2018 18:00","15,4","0","ND","ND","ND","ND"],
    [34995,"06/24/2018 19:00","14,7","0","ND","ND","ND","ND"],
    [34996,"06/24/2018 20:00","14,7","0","ND","ND","ND","ND"],
    [34997,"06/24/2018 21:00","14,8","0,1","ND","ND","ND","ND"],
    [34998,"06/24/2018 22:00","26,1","0","ND","ND","ND","ND"],
    [34999,"06/24/2018 23:00","51,8","0,1","ND","ND","ND","ND"],
    [35000,"06/25/2018 00:00","50","0","ND","ND","ND","ND"],
    [35001,"06/25/2018 01:00","34,7","0","ND","ND","ND","ND"],
    [35002,"06/25/2018 02:00","22,1","0","ND","ND","ND","ND"],
    [35003,"06/25/2018 03:00","21,6","0","ND","ND","ND","ND"],
    [35004,"06/25/2018 04:00","24,4","0","ND","ND","ND","ND"],
    [35005,"06/25/2018 05:00","23,8","0","ND","ND","ND","ND"],
    [35006,"06/25/2018 06:00","31,2","0","ND","ND","ND","ND"],
    [35007,"06/25/2018 07:00","45,3","0,1","ND","ND","ND","ND"],
    [35008,"06/25/2018 08:00","66,3","0,3","ND","ND","ND","ND"],
    [35009,"06/25/2018 09:00","61,5","1,1","ND","ND","ND","ND"],
    [35010,"06/25/2018 10:00","66,1","2,3","ND","ND","ND","ND"],
    [35011,"06/25/2018 11:00","69,5","2,1","ND","ND","ND","ND"],
    [35012,"06/25/2018 12:00","61","1,3","ND","ND","ND","ND"],
    [35013,"06/25/2018 13:00","42,3","1,5","ND","ND","ND","ND"],
    [35014,"06/25/2018 14:00","47,1","1","ND","ND","ND","ND"],
    [35015,"06/25/2018 15:00","47,1","0,4","ND","ND","ND","ND"],
    [35016,"06/25/2018 16:00","37,4","0","ND","ND","ND","ND"],
    [35017,"06/25/2018 17:00","13,7","0","ND","ND","ND","ND"],
    [35018,"06/25/2018 18:00","28,6","0","ND","ND","ND","ND"],
    [35019,"06/25/2018 19:00","24,3","0,1","ND","ND","ND","ND"],
    [35020,"06/25/2018 20:00","26,7","0,1","ND","ND","ND","ND"],
    [35021,"06/25/2018 21:00","13,2","0,1","ND","ND","ND","ND"],
    [35022,"06/25/2018 22:00","71,8","0","ND","ND","ND","ND"],
    [35023,"06/25/2018 23:00","15,1","0","ND","ND","ND","ND"],
    [35024,"06/26/2018 00:00","33,3","0","ND","ND","ND","ND"],
    [35025,"06/26/2018 01:00","33,7","0","ND","ND","ND","ND"],
    [35026,"06/26/2018 02:00","27,2","0","ND","ND","ND","ND"],
    [35027,"06/26/2018 03:00","27,1","0","ND","ND","ND","ND"],
    [35028,"06/26/2018 04:00","22,5","0","ND","ND","ND","ND"],
    [35029,"06/26/2018 05:00","24,6","0,1","ND","ND","ND","ND"],
    [35030,"06/26/2018 06:00","23,6","0,1","ND","ND","ND","ND"],
    [35031,"06/26/2018 07:00","55,6","0,1","ND","ND","ND","ND"],
    [35032,"06/26/2018 08:00","76,8","0,1","ND","ND","ND","ND"],
    [35033,"06/26/2018 09:00","52,2","0,2","ND","ND","ND","ND"],
    [35034,"06/26/2018 10:00","58,1","1","ND","ND","ND","ND"],
    [35035,"06/26/2018 11:00","53,3","0,5","ND","ND","ND","ND"],
    [35036,"06/26/2018 12:00","37,2","0,3","ND","ND","ND","ND"],
    [35037,"06/26/2018 13:00","42,1","0,2","ND","ND","ND","ND"],
    [35038,"06/26/2018 14:00","48,2","0,1","ND","ND","ND","ND"],
    [35039,"06/26/2018 15:00","56,4","0,1","ND","ND","ND","ND"],
    [35040,"06/26/2018 16:00","38,2","0","ND","ND","ND","ND"],
    [35041,"06/26/2018 17:00","13,7","0","ND","ND","ND","ND"],
    [35042,"06/26/2018 18:00","14,7","0","ND","ND","ND","ND"],
    [35043,"06/26/2018 19:00","25,6","0","ND","ND","ND","ND"],
    [35044,"06/26/2018 20:00","18,2","0","ND","ND","ND","ND"],
    [35045,"06/26/2018 21:00","12,7","0","ND","ND","ND","ND"],
    [35046,"06/26/2018 22:00","16","0","ND","ND","ND","ND"],
    [35047,"06/26/2018 23:00","33,9","0,1","ND","ND","ND","ND"],
    [35048,"06/27/2018 00:00","62,2","0,1","ND","ND","ND","ND"],
    [35049,"06/27/2018 01:00","46,1","0","ND","ND","ND","ND"],
    [35050,"06/27/2018 02:00","28","0","ND","ND","ND","ND"],
    [35051,"06/27/2018 03:00","48,1","0","ND","ND","ND","ND"],
    [35052,"06/27/2018 04:00","27,2","0","ND","ND","ND","ND"],
    [35053,"06/27/2018 05:00","13,7","0","ND","ND","ND","ND"],
    [35054,"06/27/2018 06:00","21,7","0","ND","ND","ND","ND"],
    [35055,"06/27/2018 07:00","25,8","0,2","ND","ND","ND","ND"],
    [35056,"06/27/2018 08:00","70","0,1","ND","ND","ND","ND"],
    [35057,"06/27/2018 09:00","46,6","0,2","ND","ND","ND","ND"],
    [35058,"06/27/2018 10:00","72,7","0,5","ND","ND","ND","ND"],
    [35059,"06/27/2018 11:00","48,3","0,6","ND","ND","ND","ND"],
    [35060,"06/27/2018 12:00","40,8","0,4","ND","ND","ND","ND"],
    [35061,"06/27/2018 13:00","44,5","0,4","ND","ND","ND","ND"],
    [35062,"06/27/2018 14:00","50,1","0,5","ND","ND","ND","ND"],
    [35063,"06/27/2018 15:00","31,7","0","ND","ND","ND","ND"],
    [35064,"06/27/2018 16:00","17,8","0","ND","ND","ND","ND"],
    [35065,"06/27/2018 17:00","11,6","0","ND","ND","ND","ND"],
    [35066,"06/27/2018 18:00","12,1","0","ND","ND","ND","ND"],
    [35067,"06/27/2018 19:00","25,1","0","ND","ND","ND","ND"],
    [35068,"06/27/2018 20:00","20,3","0","ND","ND","ND","ND"],
    [35069,"06/27/2018 21:00","16,3","0","ND","ND","ND","ND"],
    [35070,"06/27/2018 22:00","30,2","0","ND","ND","ND","ND"],
    [35071,"06/27/2018 23:00","25","0","ND","ND","ND","ND"],
    [35072,"06/28/2018 00:00","ND","ND","ND","ND","ND","ND"],
    [35073,"06/28/2018 01:00","ND","ND","ND","ND","ND","ND"],
    [35074,"06/28/2018 02:00","ND","ND","ND","ND","ND","ND"],
    [35075,"06/28/2018 03:00","ND","ND","ND","ND","ND","ND"],
    [35076,"06/28/2018 04:00","ND","ND","ND","ND","ND","ND"],
    [35077,"06/28/2018 05:00","ND","ND","ND","ND","ND","ND"],
    [35078,"06/28/2018 06:00","ND","0","ND","ND","ND","ND"],
    [35079,"06/28/2018 07:00","ND","0,1","ND","ND","ND","ND"],
    [35080,"06/28/2018 08:00","ND","0","ND","ND","ND","ND"],
    [35081,"06/28/2018 09:00","18,6","0,1","ND","ND","ND","ND"],
    [35082,"06/28/2018 10:00","28,8","0","ND","ND","ND","ND"],
    [35083,"06/28/2018 11:00","34,4","0","ND","ND","ND","ND"],
    [35084,"06/28/2018 12:00","21","0","ND","ND","ND","ND"],
    [35085,"06/28/2018 13:00","27,1","0","ND","ND","ND","ND"],
    [35086,"06/28/2018 14:00","28,9","0,1","ND","ND","ND","ND"],
    [35087,"06/28/2018 15:00","31,6","0,1","ND","ND","ND","ND"],
    [35088,"06/28/2018 16:00","18,2","0","ND","ND","ND","ND"],
    [35089,"06/28/2018 17:00","5,6","0","ND","ND","ND","ND"],
    [35090,"06/28/2018 18:00","10,2","0","ND","ND","ND","ND"],
    [35091,"06/28/2018 19:00","10","0","ND","ND","ND","ND"],
    [35092,"06/28/2018 20:00","12,8","0","ND","ND","ND","ND"],
    [35093,"06/28/2018 21:00","15,8","0","ND","ND","ND","ND"],
    [35094,"06/28/2018 22:00","11,7","0","ND","ND","ND","ND"],
    [35095,"06/28/2018 23:00","6,1","0","ND","ND","ND","ND"],
    [35096,"06/29/2018 00:00","43,5","0","ND","ND","ND","ND"],
    [35097,"06/29/2018 01:00","21","0","ND","ND","ND","ND"],
    [35098,"06/29/2018 02:00","15,3","0","ND","ND","ND","ND"],
    [35099,"06/29/2018 03:00","4,5","0","ND","ND","ND","ND"],
    [35100,"06/29/2018 04:00","13,4","0","ND","ND","ND","ND"],
    [35101,"06/29/2018 05:00","13,7","0","ND","ND","ND","ND"],
    [35102,"06/29/2018 06:00","13,2","0","ND","ND","ND","ND"],
    [35103,"06/29/2018 07:00","22,1","0","ND","ND","ND","ND"],
    [35104,"06/29/2018 08:00","37,1","0","ND","ND","ND","ND"],
    [35105,"06/29/2018 09:00","55,1","0,2","ND","ND","ND","ND"],
    [35106,"06/29/2018 10:00","40,7","1,5","ND","ND","ND","ND"],
    [35107,"06/29/2018 11:00","39","0,1","ND","ND","ND","ND"],
    [35108,"06/29/2018 12:00","27","1,7","ND","ND","ND","ND"],
    [35109,"06/29/2018 13:00","32,3","0,7","ND","ND","ND","ND"],
    [35110,"06/29/2018 14:00","56,1","0,4","ND","ND","ND","ND"],
    [35111,"06/29/2018 15:00","47,1","0","ND","ND","ND","ND"],
    [35112,"06/29/2018 16:00","22,3","0","ND","ND","ND","ND"],
    [35113,"06/29/2018 17:00","11,4","0","ND","ND","ND","ND"],
    [35114,"06/29/2018 18:00","15,3","0","ND","ND","ND","ND"],
    [35115,"06/29/2018 19:00","13,9","0","ND","ND","ND","ND"],
    [35116,"06/29/2018 20:00","10,5","0","ND","ND","ND","ND"],
    [35117,"06/29/2018 21:00","15,6","0","ND","ND","ND","ND"],
    [35118,"06/29/2018 22:00","28,4","0","ND","ND","ND","ND"],
    [35119,"06/29/2018 23:00","24,2","0","ND","ND","ND","ND"],
    [35120,"06/30/2018 00:00","45,5","0","ND","ND","ND","ND"],
    [35121,"06/30/2018 01:00","41,4","0","ND","ND","ND","ND"],
    [35122,"06/30/2018 02:00","34,9","0","ND","ND","ND","ND"],
    [35123,"06/30/2018 03:00","26,9","0","ND","ND","ND","ND"],
    [35124,"06/30/2018 04:00","19,9","0","ND","ND","ND","ND"],
    [35125,"06/30/2018 05:00","13,6","0","ND","ND","ND","ND"],
    [35126,"06/30/2018 06:00","12,6","0","ND","ND","ND","ND"],
    [35127,"06/30/2018 07:00","21,1","0,1","ND","ND","ND","ND"],
    [35128,"06/30/2018 08:00","27,3","0,1","ND","ND","ND","ND"],
    [35129,"06/30/2018 09:00","19,4","1","ND","ND","ND","ND"],
    [35130,"06/30/2018 10:00","23,9","1,2","ND","ND","ND","ND"],
    [35131,"06/30/2018 11:00","15,8","1,1","ND","ND","ND","ND"],
    [35132,"06/30/2018 12:00","31,6","0,5","ND","ND","ND","ND"],
    [35133,"06/30/2018 13:00","25,5","0,1","ND","ND","ND","ND"],
    [35134,"06/30/2018 14:00","20,9","0","ND","ND","ND","ND"],
    [35135,"06/30/2018 15:00","1,3","0","ND","ND","ND","ND"],
    [35136,"06/30/2018 16:00","ND","0","ND","ND","ND","ND"],
    [35137,"06/30/2018 17:00","11,2","0,2","ND","ND","ND","ND"],
    [35138,"06/30/2018 18:00","40,2","0","ND","ND","ND","ND"],
    [35139,"06/30/2018 19:00","27,6","0","ND","ND","ND","ND"],
    [35140,"06/30/2018 20:00","29,7","0","ND","ND","ND","ND"],
    [35141,"06/30/2018 21:00","53,2","0","ND","ND","ND","ND"],
    [35142,"06/30/2018 22:00","42,2","0","ND","ND","ND","ND"],
    [35143,"06/30/2018 23:00","30,6","0","ND","ND","ND","ND"],
    [35144,"43107","53,3","0","ND","ND","ND","ND"],
    [35145,"43107,04167","23","0","ND","ND","ND","ND"],
    [35146,"43107,08333","41","0","ND","ND","ND","ND"],
    [35147,"43107,125","43,5","0","ND","ND","ND","ND"],
    [35148,"43107,16667","47,8","0,1","ND","ND","ND","ND"],
    [35149,"43107,20833","33,7","0","ND","ND","ND","ND"],
    [35150,"43107,25","41","0,1","ND","ND","ND","ND"],
    [35151,"43107,29167","41,8","0","ND","ND","ND","ND"],
    [35152,"43107,33333","38,3","0,1","ND","ND","ND","ND"],
    [35153,"43107,375","55,4","0,3","ND","ND","ND","ND"],
    [35154,"43107,41667","48,7","0,8","ND","ND","ND","ND"],
    [35155,"43107,45833","46,5","2","ND","ND","ND","ND"],
    [35156,"43107,5","35,4","1,6","ND","ND","ND","ND"],
    [35157,"43107,54167","32,2","0,2","ND","ND","ND","ND"],
    [35158,"43107,58333","37,8","0,1","ND","ND","ND","ND"],
    [35159,"43107,625","33","0,1","ND","ND","ND","ND"],
    [35160,"43107,66667","14,7","0","ND","ND","ND","ND"],
    [35161,"43107,70833","13,9","0","ND","ND","ND","ND"],
    [35162,"43107,75","9,5","0","ND","ND","ND","ND"],
    [35163,"43107,79167","13","0","ND","ND","ND","ND"],
    [35164,"43107,83333","27,8","0","ND","ND","ND","ND"],
    [35165,"43107,875","11,3","0","ND","ND","ND","ND"],
    [35166,"43107,91667","46,4","0","ND","ND","ND","ND"],
    [35167,"43107,95833","19,4","0","ND","ND","ND","ND"],
    [35168,"43138","15,9","0","ND","ND","ND","ND"],
    [35169,"43138,04167","6,9","0","ND","ND","ND","ND"],
    [35170,"43138,08333","10,5","0","ND","ND","ND","ND"],
    [35171,"43138,125","25,1","0","ND","ND","ND","ND"],
    [35172,"43138,16667","15,4","0","ND","ND","ND","ND"],
    [35173,"43138,20833","23,6","0","ND","ND","ND","ND"],
    [35174,"43138,25","16,2","0","ND","ND","ND","ND"],
    [35175,"43138,29167","21,8","0","ND","ND","ND","ND"],
    [35176,"43138,33333","39,9","0","ND","ND","ND","ND"],
    [35177,"43138,375","28,9","0","ND","ND","ND","ND"],
    [35178,"43138,41667","46,8","0,2","ND","ND","ND","ND"],
    [35179,"43138,45833","35,8","2,7","ND","ND","ND","ND"],
    [35180,"43138,5","39,7","5,4","ND","ND","ND","ND"],
    [35181,"43138,54167","28,8","4,2","ND","ND","ND","ND"],
    [35182,"43138,58333","27,8","1,2","ND","ND","ND","ND"],
    [35183,"43138,625","24,5","1,6","ND","ND","ND","ND"],
    [35184,"43138,66667","34,6","0,1","ND","ND","ND","ND"],
    [35185,"43138,70833","16,6","0","ND","ND","ND","ND"],
    [35186,"43138,75","17,3","0","ND","ND","ND","ND"],
    [35187,"43138,79167","11,9","0","ND","ND","ND","ND"],
    [35188,"43138,83333","18,6","0","ND","ND","ND","ND"],
    [35189,"43138,875","12,1","0","ND","ND","ND","ND"],
    [35190,"43138,91667","12,5","0","ND","ND","ND","ND"],
    [35191,"43138,95833","16,7","0","ND","ND","ND","ND"],
    [35192,"43166","51","0,1","ND","ND","ND","ND"],
    [35193,"43166,04167","40,7","0","ND","ND","ND","ND"],
    [35194,"43166,08333","29","0","ND","ND","ND","ND"],
    [35195,"43166,125","28,8","0","ND","ND","ND","ND"],
    [35196,"43166,16667","27","0","ND","ND","ND","ND"],
    [35197,"43166,20833","20","0","ND","ND","ND","ND"],
    [35198,"43166,25","30,1","0","ND","ND","ND","ND"],
    [35199,"43166,29167","35,2","0","ND","ND","ND","ND"],
    [35200,"43166,33333","61,6","0,1","ND","ND","ND","ND"],
    [35201,"43166,375","64,2","0,5","ND","ND","ND","ND"],
    [35202,"43166,41667","66,6","0,5","ND","ND","ND","ND"],
    [35203,"43166,45833","55,5","1,9","ND","ND","ND","ND"],
    [35204,"43166,5","44,5","0,3","ND","ND","ND","ND"],
    [35205,"43166,54167","34,3","0,8","ND","ND","ND","ND"],
    [35206,"43166,58333","19,7","0,3","ND","ND","ND","ND"],
    [35207,"43166,625","22,2","0,3","ND","ND","ND","ND"],
    [35208,"43166,66667","21,4","0,5","ND","ND","ND","ND"],
    [35209,"43166,70833","28,5","0,3","ND","ND","ND","ND"],
    [35210,"43166,75","39,3","0,2","ND","ND","ND","ND"],
    [35211,"43166,79167","57,6","0,3","ND","ND","ND","ND"],
    [35212,"43166,83333","54,7","0","ND","ND","ND","ND"],
    [35213,"43166,875","19,7","0,7","ND","ND","ND","ND"],
    [35214,"43166,91667","34,7","0,7","ND","ND","ND","ND"],
    [35215,"43166,95833","29,9","0,1","ND","ND","ND","ND"],
    [35216,"43197","39,1","0","ND","ND","ND","ND"],
    [35217,"43197,04167","36,8","0","ND","ND","ND","ND"],
    [35218,"43197,08333","28,5","0","ND","ND","ND","ND"],
    [35219,"43197,125","27,1","0","ND","ND","ND","ND"],
    [35220,"43197,16667","29,6","0","ND","ND","ND","ND"],
    [35221,"43197,20833","36","0","ND","ND","ND","ND"],
    [35222,"43197,25","39","0","ND","ND","ND","ND"],
    [35223,"43197,29167","52,1","0","ND","ND","ND","ND"],
    [35224,"43197,33333","63,7","0","ND","ND","ND","ND"],
    [35225,"43197,375","69","0,7","ND","ND","ND","ND"],
    [35226,"43197,41667","76,4","0,9","ND","ND","ND","ND"],
    [35227,"43197,45833","47,2","1,7","ND","ND","ND","ND"],
    [35228,"43197,5","40,4","0,9","ND","ND","ND","ND"],
    [35229,"43197,54167","37,1","0,8","ND","ND","ND","ND"],
    [35230,"43197,58333","42,2","0,4","ND","ND","ND","ND"],
    [35231,"43197,625","48,1","0,1","ND","ND","ND","ND"],
    [35232,"43197,66667","58,4","0","ND","ND","ND","ND"],
    [35233,"43197,70833","31,1","0","ND","ND","ND","ND"],
    [35234,"43197,75","22,8","0","ND","ND","ND","ND"],
    [35235,"43197,79167","30","0","ND","ND","ND","ND"],
    [35236,"43197,83333","29,3","0","ND","ND","ND","ND"],
    [35237,"43197,875","32,6","0","ND","ND","ND","ND"],
    [35238,"43197,91667","44,8","0","ND","ND","ND","ND"],
    [35239,"43197,95833","54,7","0","ND","ND","ND","ND"],
    [35240,"43227","45,7","0","ND","ND","ND","ND"],
    [35241,"43227,04167","46,6","0","ND","ND","ND","ND"],
    [35242,"43227,08333","52,3","0,2","ND","ND","ND","ND"],
    [35243,"43227,125","49","0","ND","ND","ND","ND"],
    [35244,"43227,16667","39,6","0","ND","ND","ND","ND"],
    [35245,"43227,20833","31,4","0","ND","ND","ND","ND"],
    [35246,"43227,25","32,7","0","ND","ND","ND","ND"],
    [35247,"43227,29167","43","0,1","ND","ND","ND","ND"],
    [35248,"43227,33333","63,4","0","ND","ND","ND","ND"],
    [35249,"43227,375","85,1","0,2","ND","ND","ND","ND"],
    [35250,"43227,41667","86,4","2,4","ND","ND","ND","ND"],
    [35251,"43227,45833","90,9","1,9","ND","ND","ND","ND"],
    [35252,"43227,5","68,4","1,7","ND","ND","ND","ND"],
    [35253,"43227,54167","74,4","1,7","ND","ND","ND","ND"],
    [35254,"43227,58333","65,8","2,9","ND","ND","ND","ND"],
    [35255,"43227,625","68,6","1,1","ND","ND","ND","ND"],
    [35256,"43227,66667","66,5","0,3","ND","ND","ND","ND"],
    [35257,"43227,70833","41,5","0","ND","ND","ND","ND"],
    [35258,"43227,75","15,1","0","ND","ND","ND","ND"],
    [35259,"43227,79167","15,4","0","ND","ND","ND","ND"],
    [35260,"43227,83333","14,6","0","ND","ND","ND","ND"],
    [35261,"43227,875","11,7","0","ND","ND","ND","ND"],
    [35262,"43227,91667","15,2","0","ND","ND","ND","ND"],
    [35263,"43227,95833","42,8","0","ND","ND","ND","ND"],
    [35264,"43258","70,4","0","ND","ND","ND","ND"],
    [35265,"43258,04167","57,7","0","ND","ND","ND","ND"],
    [35266,"43258,08333","45","0","ND","ND","ND","ND"],
    [35267,"43258,125","37,8","0,5","ND","ND","ND","ND"],
    [35268,"43258,16667","39,8","0,2","ND","ND","ND","ND"],
    [35269,"43258,20833","44,6","0","ND","ND","ND","ND"],
    [35270,"43258,25","40,8","0","ND","ND","ND","ND"],
    [35271,"43258,29167","48,4","0","ND","ND","ND","ND"],
    [35272,"43258,33333","92,7","0,1","ND","ND","ND","ND"],
    [35273,"43258,375","58,8","1","ND","ND","ND","ND"],
    [35274,"43258,41667","42,5","4,8","ND","ND","ND","ND"],
    [35275,"43258,45833","41","3,1","ND","ND","ND","ND"],
    [35276,"43258,5","41,5","1,7","ND","ND","ND","ND"],
    [35277,"43258,54167","44,9","1,3","ND","ND","ND","ND"],
    [35278,"43258,58333","55,7","1,2","ND","ND","ND","ND"],
    [35279,"43258,625","60,9","1,4","ND","ND","ND","ND"],
    [35280,"43258,66667","51,1","1,1","ND","ND","ND","ND"],
    [35281,"43258,70833","53,8","0,3","ND","ND","ND","ND"],
    [35282,"43258,75","37,2","0,2","ND","ND","ND","ND"],
    [35283,"43258,79167","43,9","0,4","ND","ND","ND","ND"],
    [35284,"43258,83333","22,6","0,1","ND","ND","ND","ND"],
    [35285,"43258,875","38,9","0,2","ND","ND","ND","ND"],
    [35286,"43258,91667","29,7","0,1","ND","ND","ND","ND"],
    [35287,"43258,95833","35,5","0","ND","ND","ND","ND"],
    [35288,"43288","40,1","0","ND","ND","ND","ND"],
    [35289,"43288,04167","34,7","0","ND","ND","ND","ND"],
    [35290,"43288,08333","58,7","0","ND","ND","ND","ND"],
    [35291,"43288,125","36,9","0","ND","ND","ND","ND"],
    [35292,"43288,16667","28,6","0","ND","ND","ND","ND"],
    [35293,"43288,20833","39,2","0","ND","ND","ND","ND"],
    [35294,"43288,25","38,9","0","ND","ND","ND","ND"],
    [35295,"43288,29167","49,7","0","ND","ND","ND","ND"],
    [35296,"43288,33333","58,4","0,4","ND","ND","ND","ND"],
    [35297,"43288,375","66,2","0,3","ND","ND","ND","ND"],
    [35298,"43288,41667","67,8","0,5","ND","ND","ND","ND"],
    [35299,"43288,45833","47,3","0,7","ND","ND","ND","ND"],
    [35300,"43288,5","46,9","0,8","ND","ND","ND","ND"],
    [35301,"43288,54167","39,8","0,8","ND","ND","ND","ND"],
    [35302,"43288,58333","44,4","0,7","ND","ND","ND","ND"],
    [35303,"43288,625","40,6","0,6","ND","ND","ND","ND"],
    [35304,"43288,66667","45","0","ND","ND","ND","ND"],
    [35305,"43288,70833","30,3","0","ND","ND","ND","ND"],
    [35306,"43288,75","16,5","0","ND","ND","ND","ND"],
    [35307,"43288,79167","18,7","0","ND","ND","ND","ND"],
    [35308,"43288,83333","13","0","ND","ND","ND","ND"],
    [35309,"43288,875","22,2","0","ND","ND","ND","ND"],
    [35310,"43288,91667","24,1","0,1","ND","ND","ND","ND"],
    [35311,"43288,95833","43,4","0,1","ND","ND","ND","ND"],
    [35312,"43319","57,2","0,1","ND","ND","ND","ND"],
    [35313,"43319,04167","53,8","0","ND","ND","ND","ND"],
    [35314,"43319,08333","34,4","0","ND","ND","ND","ND"],
    [35315,"43319,125","26,6","0","ND","ND","ND","ND"],
    [35316,"43319,16667","24,2","0","ND","ND","ND","ND"],
    [35317,"43319,20833","23,9","0","ND","ND","ND","ND"],
    [35318,"43319,25","18,9","0","ND","ND","ND","ND"],
    [35319,"43319,29167","26,2","0","ND","ND","ND","ND"],
    [35320,"43319,33333","31,9","0","ND","ND","ND","ND"],
    [35321,"43319,375","50,3","0,2","ND","ND","ND","ND"],
    [35322,"43319,41667","55,6","2","ND","ND","ND","ND"],
    [35323,"43319,45833","68,9","1,3","ND","ND","ND","ND"],
    [35324,"43319,5","39,6","0,8","ND","ND","ND","ND"],
    [35325,"43319,54167","21","0,4","ND","ND","ND","ND"],
    [35326,"43319,58333","30,4","0,4","ND","ND","ND","ND"],
    [35327,"43319,625","31,1","0,4","ND","ND","ND","ND"],
    [35328,"43319,66667","36,5","0,3","ND","ND","ND","ND"],
    [35329,"43319,70833","53,8","0","ND","ND","ND","ND"],
    [35330,"43319,75","37,1","0","ND","ND","ND","ND"],
    [35331,"43319,79167","18","0","ND","ND","ND","ND"],
    [35332,"43319,83333","20","0","ND","ND","ND","ND"],
    [35333,"43319,875","20,6","0","ND","ND","ND","ND"],
    [35334,"43319,91667","20,9","0,1","ND","ND","ND","ND"],
    [35335,"43319,95833","37,2","0,1","ND","ND","ND","ND"],
    [35336,"43350","55,2","0","ND","ND","ND","ND"],
    [35337,"43350,04167","35,3","0","ND","ND","ND","ND"],
    [35338,"43350,08333","30,5","0","ND","ND","ND","ND"],
    [35339,"43350,125","29,5","0","ND","ND","ND","ND"],
    [35340,"43350,16667","40,9","0","ND","ND","ND","ND"],
    [35341,"43350,20833","33,3","0,1","ND","ND","ND","ND"],
    [35342,"43350,25","35,8","0","ND","ND","ND","ND"],
    [35343,"43350,29167","43,5","0,1","ND","ND","ND","ND"],
    [35344,"43350,33333","54,2","0,2","ND","ND","ND","ND"],
    [35345,"43350,375","72,7","0,3","ND","ND","ND","ND"],
    [35346,"43350,41667","55,9","0,7","ND","ND","ND","ND"],
    [35347,"43350,45833","48,7","1","ND","ND","ND","ND"],
    [35348,"43350,5","66,6","0,8","ND","ND","ND","ND"],
    [35349,"43350,54167","67,8","1,6","ND","ND","ND","ND"],
    [35350,"43350,58333","56,5","1,4","ND","ND","ND","ND"],
    [35351,"43350,625","45,5","0,6","ND","ND","ND","ND"],
    [35352,"43350,66667","28,4","0","ND","ND","ND","ND"],
    [35353,"43350,70833","15,5","0","ND","ND","ND","ND"],
    [35354,"43350,75","20,1","0","ND","ND","ND","ND"],
    [35355,"43350,79167","15,4","0,1","ND","ND","ND","ND"],
    [35356,"43350,83333","29,3","0,2","ND","ND","ND","ND"],
    [35357,"43350,875","24,5","0,1","ND","ND","ND","ND"],
    [35358,"43350,91667","22,6","0,2","ND","ND","ND","ND"],
    [35359,"43350,95833","42,1","0,1","ND","ND","ND","ND"],
    [35360,"43380","49","0,1","ND","ND","ND","ND"],
    [35361,"43380,04167","43,7","0","ND","ND","ND","ND"],
    [35362,"43380,08333","50,3","0","ND","ND","ND","ND"],
    [35363,"43380,125","27","0","ND","ND","ND","ND"],
    [35364,"43380,16667","24,7","0","ND","ND","ND","ND"],
    [35365,"43380,20833","20,6","0","ND","ND","ND","ND"],
    [35366,"43380,25","23,9","0","ND","ND","ND","ND"],
    [35367,"43380,29167","32,7","0,3","ND","ND","ND","ND"],
    [35368,"43380,33333","85","0,3","ND","ND","ND","ND"],
    [35369,"43380,375","ND","ND","ND","ND","ND","ND"],
    [35370,"43380,41667","ND","1,4","ND","ND","ND","ND"],
    [35371,"43380,45833","ND","1,4","ND","ND","ND","ND"],
    [35372,"43380,5","52,1","1","ND","ND","ND","ND"],
    [35373,"43380,54167","53,4","0,9","ND","ND","ND","ND"],
    [35374,"43380,58333","52,8","1,2","ND","ND","ND","ND"],
    [35375,"43380,625","54,7","1,2","ND","ND","ND","ND"],
    [35376,"43380,66667","51","0","ND","ND","ND","ND"],
    [35377,"43380,70833","21,9","0","ND","ND","ND","ND"],
    [35378,"43380,75","24,1","0","ND","ND","ND","ND"],
    [35379,"43380,79167","35,4","0","ND","ND","ND","ND"],
    [35380,"43380,83333","25,3","0","ND","ND","ND","ND"],
    [35381,"43380,875","19,6","0","ND","ND","ND","ND"],
    [35382,"43380,91667","9,8","0,1","ND","ND","ND","ND"],
    [35383,"43380,95833","16,4","0,1","ND","ND","ND","ND"],
    [35384,"43411","37,3","0","ND","ND","ND","ND"],
    [35385,"43411,04167","21,2","0","ND","ND","ND","ND"],
    [35386,"43411,08333","31,9","0","ND","ND","ND","ND"],
    [35387,"43411,125","20,2","0","ND","ND","ND","ND"],
    [35388,"43411,16667","17,3","0","ND","ND","ND","ND"],
    [35389,"43411,20833","18,8","0","ND","ND","ND","ND"],
    [35390,"43411,25","18,3","0","ND","ND","ND","ND"],
    [35391,"43411,29167","26,9","0","ND","ND","ND","ND"],
    [35392,"43411,33333","42,3","0,1","ND","ND","ND","ND"],
    [35393,"43411,375","59,6","0,3","ND","ND","ND","ND"],
    [35394,"43411,41667","61","0,4","ND","ND","ND","ND"],
    [35395,"43411,45833","53,2","0,8","ND","ND","ND","ND"],
    [35396,"43411,5","38,8","0,8","ND","ND","ND","ND"],
    [35397,"43411,54167","46,7","0,7","ND","ND","ND","ND"],
    [35398,"43411,58333","39,8","0,7","ND","ND","ND","ND"],
    [35399,"43411,625","37,2","0,7","ND","ND","ND","ND"],
    [35400,"43411,66667","37,3","0,1","ND","ND","ND","ND"],
    [35401,"43411,70833","31","0","ND","ND","ND","ND"],
    [35402,"43411,75","23,6","0","ND","ND","ND","ND"],
    [35403,"43411,79167","27,1","0","ND","ND","ND","ND"],
    [35404,"43411,83333","22,2","0","ND","ND","ND","ND"],
    [35405,"43411,875","17,8","0","ND","ND","ND","ND"],
    [35406,"43411,91667","14,2","0,1","ND","ND","ND","ND"],
    [35407,"43411,95833","25,6","0,1","ND","ND","ND","ND"],
    [35408,"43441","28","0,1","ND","ND","ND","ND"],
    [35409,"43441,04167","46,8","0","ND","ND","ND","ND"],
    [35410,"43441,08333","46,8","0","ND","ND","ND","ND"],
    [35411,"43441,125","32,3","0","ND","ND","ND","ND"],
    [35412,"43441,16667","27","0","ND","ND","ND","ND"],
    [35413,"43441,20833","27,8","0,1","ND","ND","ND","ND"],
    [35414,"43441,25","33,2","0,1","ND","ND","ND","ND"],
    [35415,"43441,29167","37,9","0","ND","ND","ND","ND"],
    [35416,"43441,33333","75,8","0,1","ND","ND","ND","ND"],
    [35417,"43441,375","64,8","0,8","ND","ND","ND","ND"],
    [35418,"43441,41667","94,3","1,4","ND","ND","ND","ND"],
    [35419,"43441,45833","82,2","1,4","ND","ND","ND","ND"],
    [35420,"43441,5","60,4","1,4","ND","ND","ND","ND"],
    [35421,"43441,54167","56,9","1","ND","ND","ND","ND"],
    [35422,"43441,58333","58,4","1,1","ND","ND","ND","ND"],
    [35423,"43441,625","55,6","0,5","ND","ND","ND","ND"],
    [35424,"43441,66667","53,8","0,1","ND","ND","ND","ND"],
    [35425,"43441,70833","26","0","ND","ND","ND","ND"],
    [35426,"43441,75","25,3","0","ND","ND","ND","ND"],
    [35427,"43441,79167","22,5","0","ND","ND","ND","ND"],
    [35428,"43441,83333","20,9","0","ND","ND","ND","ND"],
    [35429,"43441,875","22,2","0,2","ND","ND","ND","ND"],
    [35430,"43441,91667","33,8","0,1","ND","ND","ND","ND"],
    [35431,"43441,95833","29,3","0,1","ND","ND","ND","ND"],
    [35432,"07/13/2018 00:00","50","0","ND","ND","ND","ND"],
    [35433,"07/13/2018 01:00","45,6","0","ND","ND","ND","ND"],
    [35434,"07/13/2018 02:00","40,4","0","ND","ND","ND","ND"],
    [35435,"07/13/2018 03:00","40,6","0","ND","ND","ND","ND"],
    [35436,"07/13/2018 04:00","31,9","0","ND","ND","ND","ND"],
    [35437,"07/13/2018 05:00","28,8","0","ND","ND","ND","ND"],
    [35438,"07/13/2018 06:00","30,6","0","ND","ND","ND","ND"],
    [35439,"07/13/2018 07:00","41,4","0","ND","ND","ND","ND"],
    [35440,"07/13/2018 08:00","51,9","0,2","ND","ND","ND","ND"],
    [35441,"07/13/2018 09:00","68,7","0,3","ND","ND","ND","ND"],
    [35442,"07/13/2018 10:00","89,2","0,3","ND","ND","ND","ND"],
    [35443,"07/13/2018 11:00","64,1","0,5","ND","ND","ND","ND"],
    [35444,"07/13/2018 12:00","51,3","1","ND","ND","ND","ND"],
    [35445,"07/13/2018 13:00","47,8","0,8","ND","ND","ND","ND"],
    [35446,"07/13/2018 14:00","55,9","0,6","ND","ND","ND","ND"],
    [35447,"07/13/2018 15:00","57,9","0,1","ND","ND","ND","ND"],
    [35448,"07/13/2018 16:00","26,6","0","ND","ND","ND","ND"],
    [35449,"07/13/2018 17:00","24,5","0","ND","ND","ND","ND"],
    [35450,"07/13/2018 18:00","14,6","0,1","ND","ND","ND","ND"],
    [35451,"07/13/2018 19:00","19,9","0","ND","ND","ND","ND"],
    [35452,"07/13/2018 20:00","19,2","0,1","ND","ND","ND","ND"],
    [35453,"07/13/2018 21:00","29,3","0,1","ND","ND","ND","ND"],
    [35454,"07/13/2018 22:00","28,8","0,1","ND","ND","ND","ND"],
    [35455,"07/13/2018 23:00","40,2","0,1","ND","ND","ND","ND"],
    [35456,"07/14/2018 00:00","37","0","ND","ND","ND","ND"],
    [35457,"07/14/2018 01:00","18,5","0","ND","ND","ND","ND"],
    [35458,"07/14/2018 02:00","29,1","0","ND","ND","ND","ND"],
    [35459,"07/14/2018 03:00","56,5","0","ND","ND","ND","ND"],
    [35460,"07/14/2018 04:00","43,7","0","ND","ND","ND","ND"],
    [35461,"07/14/2018 05:00","39,6","0","ND","ND","ND","ND"],
    [35462,"07/14/2018 06:00","32,9","0,2","ND","ND","ND","ND"],
    [35463,"07/14/2018 07:00","52","0","ND","ND","ND","ND"],
    [35464,"07/14/2018 08:00","48,3","0,4","ND","ND","ND","ND"],
    [35465,"07/14/2018 09:00","71,2","0,3","ND","ND","ND","ND"],
    [35466,"07/14/2018 10:00","66,2","0,8","ND","ND","ND","ND"],
    [35467,"07/14/2018 11:00","47,8","0,9","ND","ND","ND","ND"],
    [35468,"07/14/2018 12:00","43,4","0,7","ND","ND","ND","ND"],
    [35469,"07/14/2018 13:00","46,1","0,5","ND","ND","ND","ND"],
    [35470,"07/14/2018 14:00","47,7","0,4","ND","ND","ND","ND"],
    [35471,"07/14/2018 15:00","52,1","0,1","ND","ND","ND","ND"],
    [35472,"07/14/2018 16:00","32,8","0","ND","ND","ND","ND"],
    [35473,"07/14/2018 17:00","17,7","0","ND","ND","ND","ND"],
    [35474,"07/14/2018 18:00","20,4","0","ND","ND","ND","ND"],
    [35475,"07/14/2018 19:00","25,7","0","ND","ND","ND","ND"],
    [35476,"07/14/2018 20:00","14,8","0","ND","ND","ND","ND"],
    [35477,"07/14/2018 21:00","14,2","0","ND","ND","ND","ND"],
    [35478,"07/14/2018 22:00","19,7","0","ND","ND","ND","ND"],
    [35479,"07/14/2018 23:00","21,2","0,1","ND","ND","ND","ND"],
    [35480,"07/15/2018 00:00","49,4","0","ND","ND","ND","ND"],
    [35481,"07/15/2018 01:00","57,6","0","ND","ND","ND","ND"],
    [35482,"07/15/2018 02:00","29","0","ND","ND","ND","ND"],
    [35483,"07/15/2018 03:00","23,1","0","ND","ND","ND","ND"],
    [35484,"07/15/2018 04:00","28","0","ND","ND","ND","ND"],
    [35485,"07/15/2018 05:00","26,1","0","ND","ND","ND","ND"],
    [35486,"07/15/2018 06:00","30,9","0,1","ND","ND","ND","ND"],
    [35487,"07/15/2018 07:00","33,5","0","ND","ND","ND","ND"],
    [35488,"07/15/2018 08:00","35,7","0,1","ND","ND","ND","ND"],
    [35489,"07/15/2018 09:00","47,3","0,1","ND","ND","ND","ND"],
    [35490,"07/15/2018 10:00","38,6","0,8","ND","ND","ND","ND"],
    [35491,"07/15/2018 11:00","21,3","1","ND","ND","ND","ND"],
    [35492,"07/15/2018 12:00","23,4","1","ND","ND","ND","ND"],
    [35493,"07/15/2018 13:00","21,9","0,9","ND","ND","ND","ND"],
    [35494,"07/15/2018 14:00","21,3","0,5","ND","ND","ND","ND"],
    [35495,"07/15/2018 15:00","25,3","1,2","ND","ND","ND","ND"],
    [35496,"07/15/2018 16:00","34,5","0,7","ND","ND","ND","ND"],
    [35497,"07/15/2018 17:00","46,3","0","ND","ND","ND","ND"],
    [35498,"07/15/2018 18:00","29,7","0","ND","ND","ND","ND"],
    [35499,"07/15/2018 19:00","21","0","ND","ND","ND","ND"],
    [35500,"07/15/2018 20:00","24,9","0,1","ND","ND","ND","ND"],
    [35501,"07/15/2018 21:00","29,4","0,1","ND","ND","ND","ND"],
    [35502,"07/15/2018 22:00","25,6","0","ND","ND","ND","ND"],
    [35503,"07/15/2018 23:00","13,7","0,2","ND","ND","ND","ND"],
    [35504,"07/16/2018 00:00","13,5","0","ND","ND","ND","ND"],
    [35505,"07/16/2018 01:00","16,7","0","ND","ND","ND","ND"],
    [35506,"07/16/2018 02:00","9","0","ND","ND","ND","ND"],
    [35507,"07/16/2018 03:00","10,4","0","ND","ND","ND","ND"],
    [35508,"07/16/2018 04:00","8,7","0,1","ND","ND","ND","ND"],
    [35509,"07/16/2018 05:00","10,2","0,1","ND","ND","ND","ND"],
    [35510,"07/16/2018 06:00","14,9","0,2","ND","ND","ND","ND"],
    [35511,"07/16/2018 07:00","25","0,1","ND","ND","ND","ND"],
    [35512,"07/16/2018 08:00","45,5","0,4","ND","ND","ND","ND"],
    [35513,"07/16/2018 09:00","61,2","0,4","ND","ND","ND","ND"],
    [35514,"07/16/2018 10:00","59,8","0,6","ND","ND","ND","ND"],
    [35515,"07/16/2018 11:00","49,9","0,8","ND","ND","ND","ND"],
    [35516,"07/16/2018 12:00","47,8","0,3","ND","ND","ND","ND"],
    [35517,"07/16/2018 13:00","37,9","0,1","ND","ND","ND","ND"],
    [35518,"07/16/2018 14:00","36,1","0,1","ND","ND","ND","ND"],
    [35519,"07/16/2018 15:00","34,3","0,2","ND","ND","ND","ND"],
    [35520,"07/16/2018 16:00","29,1","0,2","ND","ND","ND","ND"],
    [35521,"07/16/2018 17:00","42,7","0","ND","ND","ND","ND"],
    [35522,"07/16/2018 18:00","31,4","0","ND","ND","ND","ND"],
    [35523,"07/16/2018 19:00","35,4","0","ND","ND","ND","ND"],
    [35524,"07/16/2018 20:00","28,9","0","ND","ND","ND","ND"],
    [35525,"07/16/2018 21:00","17","0,2","ND","ND","ND","ND"],
    [35526,"07/16/2018 22:00","22,3","0","ND","ND","ND","ND"],
    [35527,"07/16/2018 23:00","41,5","0","ND","ND","ND","ND"],
    [35528,"07/17/2018 00:00","34,4","0","ND","ND","ND","ND"],
    [35529,"07/17/2018 01:00","27","0","ND","ND","ND","ND"],
    [35530,"07/17/2018 02:00","15,8","0","ND","ND","ND","ND"],
    [35531,"07/17/2018 03:00","27","0","ND","ND","ND","ND"],
    [35532,"07/17/2018 04:00","23,3","0","ND","ND","ND","ND"],
    [35533,"07/17/2018 05:00","23,8","0","ND","ND","ND","ND"],
    [35534,"07/17/2018 06:00","31,6","0","ND","ND","ND","ND"],
    [35535,"07/17/2018 07:00","34,1","0","ND","ND","ND","ND"],
    [35536,"07/17/2018 08:00","36,4","0,2","ND","ND","ND","ND"],
    [35537,"07/17/2018 09:00","51,9","0,1","ND","ND","ND","ND"],
    [35538,"07/17/2018 10:00","44,8","0,2","ND","ND","ND","ND"],
    [35539,"07/17/2018 11:00","46,6","0,4","ND","ND","ND","ND"],
    [35540,"07/17/2018 12:00","47,1","0,3","ND","ND","ND","ND"],
    [35541,"07/17/2018 13:00","32,1","0,5","ND","ND","ND","ND"],
    [35542,"07/17/2018 14:00","38,1","0,4","ND","ND","ND","ND"],
    [35543,"07/17/2018 15:00","39,9","0,5","ND","ND","ND","ND"],
    [35544,"07/17/2018 16:00","53,8","0,2","ND","ND","ND","ND"],
    [35545,"07/17/2018 17:00","45,2","0","ND","ND","ND","ND"],
    [35546,"07/17/2018 18:00","15,7","0","ND","ND","ND","ND"],
    [35547,"07/17/2018 19:00","14,5","0","ND","ND","ND","ND"],
    [35548,"07/17/2018 20:00","22,2","0,1","ND","ND","ND","ND"],
    [35549,"07/17/2018 21:00","27,8","0,1","ND","ND","ND","ND"],
    [35550,"07/17/2018 22:00","36,1","0,1","ND","ND","ND","ND"],
    [35551,"07/17/2018 23:00","17,1","0","ND","ND","ND","ND"],
    [35552,"07/18/2018 00:00","31,7","0","ND","ND","ND","ND"],
    [35553,"07/18/2018 01:00","37,9","0","ND","ND","ND","ND"],
    [35554,"07/18/2018 02:00","42,6","0","ND","ND","ND","ND"],
    [35555,"07/18/2018 03:00","39,1","0","ND","ND","ND","ND"],
    [35556,"07/18/2018 04:00","33,7","0","ND","ND","ND","ND"],
    [35557,"07/18/2018 05:00","31,1","0,1","ND","ND","ND","ND"],
    [35558,"07/18/2018 06:00","33,1","0","ND","ND","ND","ND"],
    [35559,"07/18/2018 07:00","39,8","0","ND","ND","ND","ND"],
    [35560,"07/18/2018 08:00","46,7","0,1","ND","ND","ND","ND"],
    [35561,"07/18/2018 09:00","53,2","0,2","ND","ND","ND","ND"],
    [35562,"07/18/2018 10:00","51,9","0,2","ND","ND","ND","ND"],
    [35563,"07/18/2018 11:00","58,3","0,5","ND","ND","ND","ND"],
    [35564,"07/18/2018 12:00","50,4","0,3","ND","ND","ND","ND"],
    [35565,"07/18/2018 13:00","54,9","0,2","ND","ND","ND","ND"],
    [35566,"07/18/2018 14:00","61,6","0,2","ND","ND","ND","ND"],
    [35567,"07/18/2018 15:00","60,2","0,1","ND","ND","ND","ND"],
    [35568,"07/18/2018 16:00","53,1","0","ND","ND","ND","ND"],
    [35569,"07/18/2018 17:00","19,2","0","ND","ND","ND","ND"],
    [35570,"07/18/2018 18:00","18,6","0","ND","ND","ND","ND"],
    [35571,"07/18/2018 19:00","25,8","0","ND","ND","ND","ND"],
    [35572,"07/18/2018 20:00","20","0","ND","ND","ND","ND"],
    [35573,"07/18/2018 21:00","15,6","0","ND","ND","ND","ND"],
    [35574,"07/18/2018 22:00","11,6","0","ND","ND","ND","ND"],
    [35575,"07/18/2018 23:00","17,3","0,2","ND","ND","ND","ND"],
    [35576,"07/19/2018 00:00","45,7","0","ND","ND","ND","ND"],
    [35577,"07/19/2018 01:00","40,7","0","ND","ND","ND","ND"],
    [35578,"07/19/2018 02:00","28","0","ND","ND","ND","ND"],
    [35579,"07/19/2018 03:00","26","0","ND","ND","ND","ND"],
    [35580,"07/19/2018 04:00","20","0","ND","ND","ND","ND"],
    [35581,"07/19/2018 05:00","21,3","0","ND","ND","ND","ND"],
    [35582,"07/19/2018 06:00","43,3","0","ND","ND","ND","ND"],
    [35583,"07/19/2018 07:00","40,4","0","ND","ND","ND","ND"],
    [35584,"07/19/2018 08:00","47,2","0,1","ND","ND","ND","ND"],
    [35585,"07/19/2018 09:00","44,9","0,2","ND","ND","ND","ND"],
    [35586,"07/19/2018 10:00","48,2","0,1","ND","ND","ND","ND"],
    [35587,"07/19/2018 11:00","47,1","0,4","ND","ND","ND","ND"],
    [35588,"07/19/2018 12:00","39,3","0,3","ND","ND","ND","ND"],
    [35589,"07/19/2018 13:00","47,9","0,5","ND","ND","ND","ND"],
    [35590,"07/19/2018 14:00","57,6","0,5","ND","ND","ND","ND"],
    [35591,"07/19/2018 15:00","57,3","0,3","ND","ND","ND","ND"],
    [35592,"07/19/2018 16:00","47,3","0","ND","ND","ND","ND"],
    [35593,"07/19/2018 17:00","13,4","0","ND","ND","ND","ND"],
    [35594,"07/19/2018 18:00","13,8","0","ND","ND","ND","ND"],
    [35595,"07/19/2018 19:00","67,4","0","ND","ND","ND","ND"],
    [35596,"07/19/2018 20:00","18,8","0,1","ND","ND","ND","ND"],
    [35597,"07/19/2018 21:00","24,1","0,2","ND","ND","ND","ND"],
    [35598,"07/19/2018 22:00","27,4","0,1","ND","ND","ND","ND"],
    [35599,"07/19/2018 23:00","21","0,2","ND","ND","ND","ND"],
    [35600,"07/20/2018 00:00","48","0,1","ND","ND","ND","ND"],
    [35601,"07/20/2018 01:00","55","0","ND","ND","ND","ND"],
    [35602,"07/20/2018 02:00","51,8","0","ND","ND","ND","ND"],
    [35603,"07/20/2018 03:00","50,6","0","ND","ND","ND","ND"],
    [35604,"07/20/2018 04:00","43,7","0","ND","ND","ND","ND"],
    [35605,"07/20/2018 05:00","41,9","0","ND","ND","ND","ND"],
    [35606,"07/20/2018 06:00","39,8","0","ND","ND","ND","ND"],
    [35607,"07/20/2018 07:00","35,2","0","ND","ND","ND","ND"],
    [35608,"07/20/2018 08:00","47,7","0","ND","ND","ND","ND"],
    [35609,"07/20/2018 09:00","58,6","0,1","ND","ND","ND","ND"],
    [35610,"07/20/2018 10:00","55,9","0,2","ND","ND","ND","ND"],
    [35611,"07/20/2018 11:00","62,9","0,8","ND","ND","ND","ND"],
    [35612,"07/20/2018 12:00","59,9","1","ND","ND","ND","ND"],
    [35613,"07/20/2018 13:00","51,7","1,3","ND","ND","ND","ND"],
    [35614,"07/20/2018 14:00","52,5","1,4","ND","ND","ND","ND"],
    [35615,"07/20/2018 15:00","52","1,5","ND","ND","ND","ND"],
    [35616,"07/20/2018 16:00","37,6","0,2","ND","ND","ND","ND"],
    [35617,"07/20/2018 17:00","16,2","0","ND","ND","ND","ND"],
    [35618,"07/20/2018 18:00","17,8","0","ND","ND","ND","ND"],
    [35619,"07/20/2018 19:00","21,5","0","ND","ND","ND","ND"],
    [35620,"07/20/2018 20:00","14,7","0","ND","ND","ND","ND"],
    [35621,"07/20/2018 21:00","12,6","0","ND","ND","ND","ND"],
    [35622,"07/20/2018 22:00","10,4","0","ND","ND","ND","ND"],
    [35623,"07/20/2018 23:00","27,9","0,1","ND","ND","ND","ND"],
    [35624,"07/21/2018 00:00","37,7","0,1","ND","ND","ND","ND"],
    [35625,"07/21/2018 01:00","42,4","0,1","ND","ND","ND","ND"],
    [35626,"07/21/2018 02:00","37,9","0","ND","ND","ND","ND"],
    [35627,"07/21/2018 03:00","29,4","0","ND","ND","ND","ND"],
    [35628,"07/21/2018 04:00","28,4","0","ND","ND","ND","ND"],
    [35629,"07/21/2018 05:00","26,7","0","ND","ND","ND","ND"],
    [35630,"07/21/2018 06:00","23,9","0","ND","ND","ND","ND"],
    [35631,"07/21/2018 07:00","30,7","0,1","ND","ND","ND","ND"],
    [35632,"07/21/2018 08:00","50,7","0","ND","ND","ND","ND"],
    [35633,"07/21/2018 09:00","64,7","0,2","ND","ND","ND","ND"],
    [35634,"07/21/2018 10:00","49,3","0,8","ND","ND","ND","ND"],
    [35635,"07/21/2018 11:00","45,4","1,1","ND","ND","ND","ND"],
    [35636,"07/21/2018 12:00","49,8","1,1","ND","ND","ND","ND"],
    [35637,"07/21/2018 13:00","56,9","1,1","ND","ND","ND","ND"],
    [35638,"07/21/2018 14:00","59,6","0,8","ND","ND","ND","ND"],
    [35639,"07/21/2018 15:00","58,5","0,2","ND","ND","ND","ND"],
    [35640,"07/21/2018 16:00","23,7","0","ND","ND","ND","ND"],
    [35641,"07/21/2018 17:00","12,5","0","ND","ND","ND","ND"],
    [35642,"07/21/2018 18:00","9,1","0","ND","ND","ND","ND"],
    [35643,"07/21/2018 19:00","13,2","0","ND","ND","ND","ND"],
    [35644,"07/21/2018 20:00","15,4","0","ND","ND","ND","ND"],
    [35645,"07/21/2018 21:00","11,7","0","ND","ND","ND","ND"],
    [35646,"07/21/2018 22:00","20,3","0,1","ND","ND","ND","ND"],
    [35647,"07/21/2018 23:00","22,6","0,1","ND","ND","ND","ND"],
    [35648,"07/22/2018 00:00","47,2","0,1","ND","ND","ND","ND"],
    [35649,"07/22/2018 01:00","58,3","0","ND","ND","ND","ND"],
    [35650,"07/22/2018 02:00","55,1","0","ND","ND","ND","ND"],
    [35651,"07/22/2018 03:00","53,7","0","ND","ND","ND","ND"],
    [35652,"07/22/2018 04:00","40,1","0","ND","ND","ND","ND"],
    [35653,"07/22/2018 05:00","34,5","0","ND","ND","ND","ND"],
    [35654,"07/22/2018 06:00","35,1","0,1","ND","ND","ND","ND"],
    [35655,"07/22/2018 07:00","32","0","ND","ND","ND","ND"],
    [35656,"07/22/2018 08:00","35,3","0","ND","ND","ND","ND"],
    [35657,"07/22/2018 09:00","44,7","0,1","ND","ND","ND","ND"],
    [35658,"07/22/2018 10:00","52,7","0,1","ND","ND","ND","ND"],
    [35659,"07/22/2018 11:00","55,8","0,4","ND","ND","ND","ND"],
    [35660,"07/22/2018 12:00","53,2","0,4","ND","ND","ND","ND"],
    [35661,"07/22/2018 13:00","56,4","0,7","ND","ND","ND","ND"],
    [35662,"07/22/2018 14:00","41,8","0,3","ND","ND","ND","ND"],
    [35663,"07/22/2018 15:00","23,1","0","ND","ND","ND","ND"],
    [35664,"07/22/2018 16:00","9,9","0","ND","ND","ND","ND"],
    [35665,"07/22/2018 17:00","10,4","0","ND","ND","ND","ND"],
    [35666,"07/22/2018 18:00","11,9","0","ND","ND","ND","ND"],
    [35667,"07/22/2018 19:00","16,6","0,1","ND","ND","ND","ND"],
    [35668,"07/22/2018 20:00","27,1","0,1","ND","ND","ND","ND"],
    [35669,"07/22/2018 21:00","45,7","0,1","ND","ND","ND","ND"],
    [35670,"07/22/2018 22:00","43,3","0,1","ND","ND","ND","ND"],
    [35671,"07/22/2018 23:00","41,4","0","ND","ND","ND","ND"],
    [35672,"07/23/2018 00:00","35,1","0","ND","ND","ND","ND"],
    [35673,"07/23/2018 01:00","27,8","0","ND","ND","ND","ND"],
    [35674,"07/23/2018 02:00","19,8","0","ND","ND","ND","ND"],
    [35675,"07/23/2018 03:00","29,2","0","ND","ND","ND","ND"],
    [35676,"07/23/2018 04:00","42,3","0","ND","ND","ND","ND"],
    [35677,"07/23/2018 05:00","33,7","0","ND","ND","ND","ND"],
    [35678,"07/23/2018 06:00","29,9","0","ND","ND","ND","ND"],
    [35679,"07/23/2018 07:00","43,8","0,3","ND","ND","ND","ND"],
    [35680,"07/23/2018 08:00","55,4","0,6","ND","ND","ND","ND"],
    [35681,"07/23/2018 09:00","48,9","0,5","ND","ND","ND","ND"],
    [35682,"07/23/2018 10:00","51,1","1,6","ND","ND","ND","ND"],
    [35683,"07/23/2018 11:00","52,5","1,4","ND","ND","ND","ND"],
    [35684,"07/23/2018 12:00","41,6","1","ND","ND","ND","ND"],
    [35685,"07/23/2018 13:00","42,8","0,6","ND","ND","ND","ND"],
    [35686,"07/23/2018 14:00","47,3","0,3","ND","ND","ND","ND"],
    [35687,"07/23/2018 15:00","56,8","0,2","ND","ND","ND","ND"],
    [35688,"07/23/2018 16:00","46","0","ND","ND","ND","ND"],
    [35689,"07/23/2018 17:00","17","0","ND","ND","ND","ND"],
    [35690,"07/23/2018 18:00","19,8","0","ND","ND","ND","ND"],
    [35691,"07/23/2018 19:00","17,1","0","ND","ND","ND","ND"],
    [35692,"07/23/2018 20:00","17,3","0","ND","ND","ND","ND"],
    [35693,"07/23/2018 21:00","13,2","0","ND","ND","ND","ND"],
    [35694,"07/23/2018 22:00","11,5","0","ND","ND","ND","ND"],
    [35695,"07/23/2018 23:00","18","0","ND","ND","ND","ND"],
    [35696,"07/24/2018 00:00","20,2","0","ND","ND","ND","ND"],
    [35697,"07/24/2018 01:00","24,2","0","ND","ND","ND","ND"],
    [35698,"07/24/2018 02:00","15,5","0","ND","ND","ND","ND"],
    [35699,"07/24/2018 03:00","12,9","0","ND","ND","ND","ND"],
    [35700,"07/24/2018 04:00","13","0","ND","ND","ND","ND"],
    [35701,"07/24/2018 05:00","17,6","0","ND","ND","ND","ND"],
    [35702,"07/24/2018 06:00","14,5","0","ND","ND","ND","ND"],
    [35703,"07/24/2018 07:00","13,4","0,1","ND","ND","ND","ND"],
    [35704,"07/24/2018 08:00","24,5","0,1","ND","ND","ND","ND"],
    [35705,"07/24/2018 09:00","26,8","0,1","ND","ND","ND","ND"],
    [35706,"07/24/2018 10:00","17,1","0","ND","ND","ND","ND"],
    [35707,"07/24/2018 11:00","ND","0","ND","ND","ND","ND"],
    [35708,"07/24/2018 12:00","ND","ND","ND","ND","ND","ND"],
    [35709,"07/24/2018 13:00","ND","ND","ND","ND","ND","ND"],
    [35710,"07/24/2018 14:00","ND","0,2","ND","ND","ND","ND"],
    [35711,"07/24/2018 15:00","5,6","0,1","1,1","238,8","ND","ND"],
    [35712,"07/24/2018 16:00","15","0","0,9","236,8","ND","ND"],
    [35713,"07/24/2018 17:00","26,2","0","0,9","168,8","ND","ND"],
    [35714,"07/24/2018 18:00","26,8","0,1","0,7","169,9","ND","ND"],
    [35715,"07/24/2018 19:00","53,1","0,1","0,4","162,4","ND","ND"],
    [35716,"07/24/2018 20:00","65,9","0,1","0,8","240,3","ND","ND"],
    [35717,"07/24/2018 21:00","51,6","0","0,8","226,9","ND","ND"],
    [35718,"07/24/2018 22:00","45","0","1","238,6","ND","ND"],
    [35719,"07/24/2018 23:00","31,3","0","0,6","200,8","ND","ND"],
    [35720,"07/25/2018 00:00","31,4","0","0,7","210,2","ND","ND"],
    [35721,"07/25/2018 01:00","31,6","0,2","0,6","205","ND","ND"],
    [35722,"07/25/2018 02:00","24,4","0","0,6","159,7","ND","ND"],
    [35723,"07/25/2018 03:00","34","0","0,7","207,8","ND","ND"],
    [35724,"07/25/2018 04:00","17,3","0","0,9","241,2","ND","ND"],
    [35725,"07/25/2018 05:00","16,5","0","0,5","200,2","ND","ND"],
    [35726,"07/25/2018 06:00","22,2","0","0,4","213,4","ND","ND"],
    [35727,"07/25/2018 07:00","43,2","0,1","0,7","225,6","ND","ND"],
    [35728,"07/25/2018 08:00","45,9","0,2","0,5","185,2","ND","ND"],
    [35729,"07/25/2018 09:00","59,1","0,1","0,7","169,6","ND","ND"],
    [35730,"07/25/2018 10:00","55,8","0,1","1,2","104,9","ND","ND"],
    [35731,"07/25/2018 11:00","48","ND","1,3","123,8","ND","ND"],
    [35732,"07/25/2018 12:00","52,1","0,1","1,6","123,3","ND","ND"],
    [35733,"07/25/2018 13:00","44,3","0","1,4","112,2","ND","ND"],
    [35734,"07/25/2018 14:00","54,8","0,1","1,5","127,7","ND","ND"],
    [35735,"07/25/2018 15:00","52,1","0,1","1,8","189,4","ND","ND"],
    [35736,"07/25/2018 16:00","58","0","4,5","309,3","ND","ND"],
    [35737,"07/25/2018 17:00","12,3","0","5,6","306,1","ND","ND"],
    [35738,"07/25/2018 18:00","15,9","0","5,9","302,2","ND","ND"],
    [35739,"07/25/2018 19:00","14,7","0","6,7","305,4","ND","ND"],
    [35740,"07/25/2018 20:00","12,2","0","6","301,3","ND","ND"],
    [35741,"07/25/2018 21:00","10,3","0","4,9","288,5","ND","ND"],
    [35742,"07/25/2018 22:00","14,1","0","1,4","203,3","ND","ND"],
    [35743,"07/25/2018 23:00","44,5","0,1","1","125,4","ND","ND"],
    [35744,"07/26/2018 00:00","33,2","0","0,5","119,5","ND","ND"],
    [35745,"07/26/2018 01:00","26,6","0","1","230","ND","ND"],
    [35746,"07/26/2018 02:00","19,9","0","0,7","215,7","ND","ND"],
    [35747,"07/26/2018 03:00","14,4","0","0,8","234,4","ND","ND"],
    [35748,"07/26/2018 04:00","22,8","0","0,7","228,4","ND","ND"],
    [35749,"07/26/2018 05:00","15","0","0,6","210,8","ND","ND"],
    [35750,"07/26/2018 06:00","23,1","0","0,6","198,5","ND","ND"],
    [35751,"07/26/2018 07:00","31,9","0,1","0,7","223,8","ND","ND"],
    [35752,"07/26/2018 08:00","46,6","0,2","0,4","133,3","ND","ND"],
    [35753,"07/26/2018 09:00","61,6","0,2","0,6","150","ND","ND"],
    [35754,"07/26/2018 10:00","50,9","0,2","1,3","109,1","ND","ND"],
    [35755,"07/26/2018 11:00","44,4","0,4","1,7","89,8","ND","ND"],
    [35756,"07/26/2018 12:00","49,4","0,4","1,6","118,2","ND","ND"],
    [35757,"07/26/2018 13:00","47,4","0,2","1,5","120,5","ND","ND"],
    [35758,"07/26/2018 14:00","45,4","0,2","1,5","145,5","ND","ND"],
    [35759,"07/26/2018 15:00","34","0,2","2,9","212,1","ND","ND"],
    [35760,"07/26/2018 16:00","45,1","0","4,7","313,9","ND","ND"],
    [35761,"07/26/2018 17:00","16,5","0","5,6","304,6","ND","ND"],
    [35762,"07/26/2018 18:00","15,7","0,1","5,7","304,8","ND","ND"],
    [35763,"07/26/2018 19:00","14,7","0","4,1","286,3","ND","ND"],
    [35764,"07/26/2018 20:00","24,9","0","1,9","224,8","ND","ND"],
    [35765,"07/26/2018 21:00","32,1","0","1,3","179,8","ND","ND"],
    [35766,"07/26/2018 22:00","38,6","0","1","241,9","ND","ND"],
    [35767,"07/26/2018 23:00","35,2","0","1","234,9","ND","ND"],
    [35768,"07/27/2018 00:00","39,4","0","1,1","220,8","ND","ND"],
    [35769,"07/27/2018 01:00","46,1","0","0,8","233,2","ND","ND"],
    [35770,"07/27/2018 02:00","46,9","0","0,8","214,5","ND","ND"],
    [35771,"07/27/2018 03:00","33,8","0","0,7","151,3","ND","ND"],
    [35772,"07/27/2018 04:00","54,1","0","0,8","227,9","ND","ND"],
    [35773,"07/27/2018 05:00","46,8","0,2","0,8","238,8","ND","ND"],
    [35774,"07/27/2018 06:00","34,2","0,1","0,9","235,1","ND","ND"],
    [35775,"07/27/2018 07:00","46,1","0,1","0,6","210,5","ND","ND"],
    [35776,"07/27/2018 08:00","36,5","0,2","0,6","205,8","ND","ND"],
    [35777,"07/27/2018 09:00","ND","0,1","0,9","237,6","ND","ND"],
    [35778,"07/27/2018 10:00","ND","0,2","1,1","143,4","ND","ND"],
    [35779,"07/27/2018 11:00","ND","0,3","1,2","133,2","ND","ND"],
    [35780,"07/27/2018 12:00","68,6","0,2","1,2","125,2","ND","ND"],
    [35781,"07/27/2018 13:00","50,6","0,1","1,4","150,1","ND","ND"],
    [35782,"07/27/2018 14:00","43,2","0,1","1,4","156,7","ND","ND"],
    [35783,"07/27/2018 15:00","49,7","0,1","1,3","140,8","ND","ND"],
    [35784,"07/27/2018 16:00","45,3","0","3,2","314,4","ND","ND"],
    [35785,"07/27/2018 17:00","24","0","4,1","314,7","ND","ND"],
    [35786,"07/27/2018 18:00","19,7","0","3,8","307,9","ND","ND"],
    [35787,"07/27/2018 19:00","18","0,1","1,9","214,5","ND","ND"],
    [35788,"07/27/2018 20:00","57,3","0","2,9","202,9","ND","ND"],
    [35789,"07/27/2018 21:00","25,1","0,1","0,9","136,8","ND","ND"],
    [35790,"07/27/2018 22:00","17,3","0,1","0,9","143,8","ND","ND"],
    [35791,"07/27/2018 23:00","19,1","0,1","0,7","187,4","ND","ND"],
    [35792,"07/28/2018 00:00","36,3","0","0,8","205","ND","ND"],
    [35793,"07/28/2018 01:00","55,2","0","1","234,9","ND","ND"],
    [35794,"07/28/2018 02:00","14,8","0","1,1","235,6","ND","ND"],
    [35795,"07/28/2018 03:00","16,2","0","0,5","171,8","ND","ND"],
    [35796,"07/28/2018 04:00","22,6","0","0,7","248,8","ND","ND"],
    [35797,"07/28/2018 05:00","19,4","0","0,8","212,8","ND","ND"],
    [35798,"07/28/2018 06:00","28,6","0,1","0,6","216,5","ND","ND"],
    [35799,"07/28/2018 07:00","37,8","0","0,6","223,5","ND","ND"],
    [35800,"07/28/2018 08:00","42,2","0,1","0,6","225,3","ND","ND"],
    [35801,"07/28/2018 09:00","69,4","0,1","0,8","143,4","ND","ND"],
    [35802,"07/28/2018 10:00","51,8","0,1","1,2","122,2","ND","ND"],
    [35803,"07/28/2018 11:00","40,3","0,1","1,2","131,3","ND","ND"],
    [35804,"07/28/2018 12:00","32,6","0,1","1,4","192","ND","ND"],
    [35805,"07/28/2018 13:00","34,5","0,1","1,4","134,8","ND","ND"],
    [35806,"07/28/2018 14:00","39,7","0","1,4","101,9","ND","ND"],
    [35807,"07/28/2018 15:00","47,7","0,1","2,7","201,6","ND","ND"],
    [35808,"07/28/2018 16:00","35,5","0","4,4","309,5","ND","ND"],
    [35809,"07/28/2018 17:00","9","0","3,8","323,3","ND","ND"],
    [35810,"07/28/2018 18:00","9,3","0","5,1","310,1","ND","ND"],
    [35811,"07/28/2018 19:00","10,7","0","5","307","ND","ND"],
    [35812,"07/28/2018 20:00","9,7","0","4,7","305,1","ND","ND"],
    [35813,"07/28/2018 21:00","5,1","0","4,2","306,4","ND","ND"],
    [35814,"07/28/2018 22:00","9,6","0,1","1,4","224,9","ND","ND"],
    [35815,"07/28/2018 23:00","26,6","0,1","1,1","149,4","ND","ND"],
    [35816,"07/29/2018 00:00","45,3","0,1","1,1","163,2","ND","ND"],
    [35817,"07/29/2018 01:00","46,6","0","0,6","233,5","ND","ND"],
    [35818,"07/29/2018 02:00","32,9","0","0,5","192","ND","ND"],
    [35819,"07/29/2018 03:00","31,2","0","0,5","181,8","ND","ND"],
    [35820,"07/29/2018 04:00","29,5","0","0,7","224,9","ND","ND"],
    [35821,"07/29/2018 05:00","29,8","0","0,4","131,5","ND","ND"],
    [35822,"07/29/2018 06:00","31,7","0,3","0,7","219,9","ND","ND"],
    [35823,"07/29/2018 07:00","31,9","0,2","0,6","199","ND","ND"],
    [35824,"07/29/2018 08:00","38,4","0,1","0,7","135,1","ND","ND"],
    [35825,"07/29/2018 09:00","51,7","0,2","0,8","102,1","ND","ND"],
    [35826,"07/29/2018 10:00","66","0,1","1,9","169,1","ND","ND"],
    [35827,"07/29/2018 11:00","39,7","0","1,3","203,1","ND","ND"],
    [35828,"07/29/2018 12:00","12,4","0","1,1","119,9","ND","ND"],
    [35829,"07/29/2018 13:00","24,6","0","1,6","161,3","ND","ND"],
    [35830,"07/29/2018 14:00","18,5","0","1,3","145,6","ND","ND"],
    [35831,"07/29/2018 15:00","19,7","0","1","193,8","ND","ND"],
    [35832,"07/29/2018 16:00","21","0","2","265,8","ND","ND"],
    [35833,"07/29/2018 17:00","3,6","0","3,8","311,3","ND","ND"],
    [35834,"07/29/2018 18:00","5,7","0","4,8","309,4","ND","ND"],
    [35835,"07/29/2018 19:00","4,5","0","3,4","313,4","ND","ND"],
    [35836,"07/29/2018 20:00","13,5","0","2,8","306,2","ND","ND"],
    [35837,"07/29/2018 21:00","14,2","0","1,9","236,4","ND","ND"],
    [35838,"07/29/2018 22:00","25,3","0,1","1","192,8","ND","ND"],
    [35839,"07/29/2018 23:00","51,2","0","0,6","170,8","ND","ND"],
    [35840,"07/30/2018 00:00","42,8","0","0,7","177,7","ND","ND"],
    [35841,"07/30/2018 01:00","8,8","0","0,7","146,9","ND","ND"],
    [35842,"07/30/2018 02:00","20,8","0","0,9","129,1","ND","ND"],
    [35843,"07/30/2018 03:00","33,4","0","0,6","114,3","ND","ND"],
    [35844,"07/30/2018 04:00","27,3","0","0,5","133,1","ND","ND"],
    [35845,"07/30/2018 05:00","15,1","0","0,6","147,9","ND","ND"],
    [35846,"07/30/2018 06:00","21,3","0,1","0,7","78,4","ND","ND"],
    [35847,"07/30/2018 07:00","29,7","0,1","0,5","81,8","ND","ND"],
    [35848,"07/30/2018 08:00","36,2","0,3","0,7","149,2","ND","ND"],
    [35849,"07/30/2018 09:00","48,9","0,2","1","127,9","ND","ND"],
    [35850,"07/30/2018 10:00","32,7","0,1","1","250,6","ND","ND"],
    [35851,"07/30/2018 11:00","26,8","0,1","0,9","154,6","ND","ND"],
    [35852,"07/30/2018 12:00","28,3","0,1","1,3","137,2","ND","ND"],
    [35853,"07/30/2018 13:00","29,6","0,1","0,8","86,9","ND","ND"],
    [35854,"07/30/2018 14:00","34","0,2","0,9","209,2","ND","ND"],
    [35855,"07/30/2018 15:00","43,5","0,1","2,2","204,9","ND","ND"],
    [35856,"07/30/2018 16:00","24,7","0","3,2","328,8","ND","ND"],
    [35857,"07/30/2018 17:00","9,6","0","4","323,6","ND","ND"],
    [35858,"07/30/2018 18:00","7,6","0,2","2,2","190,9","ND","ND"],
    [35859,"07/30/2018 19:00","47,7","0,3","1,4","123","ND","ND"],
    [35860,"07/30/2018 20:00","50,8","0,2","1,7","256,4","ND","ND"],
    [35861,"07/30/2018 21:00","7","0,1","1,3","130,7","ND","ND"],
    [35862,"07/30/2018 22:00","37,1","0","0,9","109","ND","ND"],
    [35863,"07/30/2018 23:00","23,9","0,1","1","150,2","ND","ND"],
    [35864,"07/31/2018 00:00","9,7","0","0,7","137,5","ND","ND"],
    [35865,"07/31/2018 01:00","7,2","0","0,6","53,2","ND","ND"],
    [35866,"07/31/2018 02:00","5,6","0","1","62,8","ND","ND"],
    [35867,"07/31/2018 03:00","2,2","0","1,1","90,8","ND","ND"],
    [35868,"07/31/2018 04:00","3","0","1,1","188,7","ND","ND"],
    [35869,"07/31/2018 05:00","3,1","0","0,9","134,9","ND","ND"],
    [35870,"07/31/2018 06:00","3,2","0,1","0,6","138,6","ND","ND"],
    [35871,"07/31/2018 07:00","9,2","0,2","0,4","153,6","ND","ND"],
    [35872,"07/31/2018 08:00","17,1","0,1","0,6","200,5","ND","ND"],
    [35873,"07/31/2018 09:00","16,6","0,2","0,7","175,3","ND","ND"],
    [35874,"07/31/2018 10:00","13,3","0,1","0,7","141","ND","ND"],
    [35875,"07/31/2018 11:00","16,3","0,1","0,8","139,3","ND","ND"],
    [35876,"07/31/2018 12:00","22,2","0,1","1,1","146,2","ND","ND"],
    [35877,"07/31/2018 13:00","23,7","0,1","1","144,4","ND","ND"],
    [35878,"07/31/2018 14:00","20,5","0","1,2","203","ND","ND"],
    [35879,"07/31/2018 15:00","ND","ND","ND","ND","ND","ND"],
    [35880,"07/31/2018 16:00","ND","ND","ND","ND","ND","ND"],
    [35881,"07/31/2018 17:00","ND","0,7","1,3","124,2","ND","ND"],
    [35882,"07/31/2018 18:00","ND","0","1,1","57,3","ND","ND"],
    [35883,"07/31/2018 19:00","ND","0","0,8","204","ND","ND"],
    [35884,"07/31/2018 20:00","75,1","0,3","1,2","174,4","ND","ND"],
    [35885,"07/31/2018 21:00","64","0,1","1,1","123,8","ND","ND"],
    [35886,"07/31/2018 22:00","37,7","0,1","0,9","68,3","ND","ND"],
    [35887,"07/31/2018 23:00","36,9","0,1","0,9","168","ND","ND"],
    [35888,"43108","27","0","0,7","156,7","ND","ND"],
    [35889,"43108,04167","32,4","0","0,5","197,9","ND","ND"],
    [35890,"43108,08333","18,5","0","0,5","167,2","ND","ND"],
    [35891,"43108,125","24,3","0","0,5","202,9","ND","ND"],
    [35892,"43108,16667","20,7","0","0,7","208,2","ND","ND"],
    [35893,"43108,20833","17","0,1","0,6","217,8","ND","ND"],
    [35894,"43108,25","24,1","0","0,7","206,6","ND","ND"],
    [35895,"43108,29167","40,2","0","0,8","210","ND","ND"],
    [35896,"43108,33333","58,3","0","0,7","221,1","ND","ND"],
    [35897,"43108,375","46","1,3","0,8","171,4","ND","ND"],
    [35898,"43108,41667","61,6","1,6","1,3","85,5","ND","ND"],
    [35899,"43108,45833","53,1","2","1,2","130,6","ND","ND"],
    [35900,"43108,5","34","0,4","1,2","126,4","ND","ND"],
    [35901,"43108,54167","35","0,3","1,5","151","ND","ND"],
    [35902,"43108,58333","35","0,3","1,8","103,1","ND","ND"],
    [35903,"43108,625","43,9","0,8","2,1","134,3","ND","ND"],
    [35904,"43108,66667","35,6","0","4,4","308,2","ND","ND"],
    [35905,"43108,70833","30,3","0","3,6","311,4","ND","ND"],
    [35906,"43108,75","19,6","0","3,6","304,1","ND","ND"],
    [35907,"43108,79167","20,4","0","2,3","259,7","ND","ND"],
    [35908,"43108,83333","35,4","0","2","213,8","ND","ND"],
    [35909,"43108,875","24,3","0","0,8","154,1","ND","ND"],
    [35910,"43108,91667","25,7","0","1","173,1","ND","ND"],
    [35911,"43108,95833","31,9","0","1","234,4","ND","ND"],
    [35912,"43139","32,2","0","0,6","208,4","ND","ND"],
    [35913,"43139,04167","36,4","0","0,8","163,1","ND","ND"],
    [35914,"43139,08333","28,7","0","0,7","155,7","ND","ND"],
    [35915,"43139,125","32,1","0","0,7","121,7","ND","ND"],
    [35916,"43139,16667","25,3","0","0,6","201,4","ND","ND"],
    [35917,"43139,20833","34,2","0","0,7","205","ND","ND"],
    [35918,"43139,25","22","0","0,5","205,4","ND","ND"],
    [35919,"43139,29167","30,5","0","0,6","164,4","ND","ND"],
    [35920,"43139,33333","35,7","0,2","0,6","106,1","ND","ND"],
    [35921,"43139,375","58","0,2","0,5","129,2","ND","ND"],
    [35922,"43139,41667","64,2","0,5","1","150","ND","ND"],
    [35923,"43139,45833","39,8","1,8","1,2","275,8","ND","ND"],
    [35924,"43139,5","58,7","2,8","1,3","181,8","ND","ND"],
    [35925,"43139,54167","50,5","2,2","1,3","189,2","ND","ND"],
    [35926,"43139,58333","38,9","0,6","1,2","171,8","ND","ND"],
    [35927,"43139,625","40,4","0,1","1,6","151,8","ND","ND"],
    [35928,"43139,66667","38,4","0","1,3","133,6","ND","ND"],
    [35929,"43139,70833","47,6","0","4","315,7","ND","ND"],
    [35930,"43139,75","33","0","4,2","309,6","ND","ND"],
    [35931,"43139,79167","17,9","0","5,5","304,9","ND","ND"],
    [35932,"43139,83333","15,4","0","4","311,6","ND","ND"],
    [35933,"43139,875","15,1","0","4,9","301,3","ND","ND"],
    [35934,"43139,91667","12,9","0","2,4","260,3","ND","ND"],
    [35935,"43139,95833","20,1","0","0,5","164,2","ND","ND"],
    [35936,"43167","60,2","0","0,8","161,5","ND","ND"],
    [35937,"43167,04167","51,8","0","0,9","231,1","ND","ND"],
    [35938,"43167,08333","30,8","0","0,6","223","ND","ND"],
    [35939,"43167,125","33,5","0","0,6","173","ND","ND"],
    [35940,"43167,16667","39","0","0,5","200,6","ND","ND"],
    [35941,"43167,20833","37","0","0,5","183,8","ND","ND"],
    [35942,"43167,25","54,5","0","0,6","210,1","ND","ND"],
    [35943,"43167,29167","48","0","0,6","224,1","ND","ND"],
    [35944,"43167,33333","76,3","0,2","0,8","85,3","ND","ND"],
    [35945,"43167,375","68","1,5","1,2","119,1","ND","ND"],
    [35946,"43167,41667","53,6","3,5","1,1","143,4","ND","ND"],
    [35947,"43167,45833","47,9","2","1,3","117,3","ND","ND"],
    [35948,"43167,5","47,7","0,4","1,3","118","ND","ND"],
    [35949,"43167,54167","49","0,9","1,4","178,2","ND","ND"],
    [35950,"43167,58333","64","0,1","3,2","235,9","ND","ND"],
    [35951,"43167,625","16,5","0","3,7","316,7","ND","ND"],
    [35952,"43167,66667","10,7","0","5,2","310,1","ND","ND"],
    [35953,"43167,70833","4,4","0","5,8","310,6","ND","ND"],
    [35954,"43167,75","10,6","0","6,4","318,3","ND","ND"],
    [35955,"43167,79167","15,4","0","6,1","311,7","ND","ND"],
    [35956,"43167,83333","10,2","0","4,4","303,9","ND","ND"],
    [35957,"43167,875","13,2","0","2,4","246,8","ND","ND"],
    [35958,"43167,91667","31,1","0","1","169,5","ND","ND"],
    [35959,"43167,95833","26,4","0","1,2","157,1","ND","ND"],
    [35960,"43198","21,1","0","1,4","159,7","ND","ND"],
    [35961,"43198,04167","15,1","0,1","1,2","163","ND","ND"],
    [35962,"43198,08333","14,9","0","0,8","181,8","ND","ND"],
    [35963,"43198,125","19,6","0,4","1,7","74,9","ND","ND"],
    [35964,"43198,16667","29,2","0,3","1","52,9","ND","ND"],
    [35965,"43198,20833","26,4","0","0,8","82,1","ND","ND"],
    [35966,"43198,25","11","0","0,7","152,7","ND","ND"],
    [35967,"43198,29167","9,6","0","0,8","152,5","ND","ND"],
    [35968,"43198,33333","27,4","0,1","1,1","137,8","ND","ND"],
    [35969,"43198,375","35,5","0","1","98,8","ND","ND"],
    [35970,"43198,41667","28,9","0","0,8","166,8","ND","ND"],
    [35971,"43198,45833","26","0","1,4","137,7","ND","ND"],
    [35972,"43198,5","16,9","0,1","1","159,3","ND","ND"],
    [35973,"43198,54167","22,5","0,1","1,1","184,6","ND","ND"],
    [35974,"43198,58333","22,7","0,1","1,3","153,3","ND","ND"],
    [35975,"43198,625","24,7","0","1,5","203,7","ND","ND"],
    [35976,"43198,66667","22,2","0","1,1","204,1","ND","ND"],
    [35977,"43198,70833","17,2","0","1,9","294,2","ND","ND"],
    [35978,"43198,75","22,8","0","2,8","321,5","ND","ND"],
    [35979,"43198,79167","10,5","0","1,4","248,1","ND","ND"],
    [35980,"43198,83333","26,8","0","3,3","294,5","ND","ND"],
    [35981,"43198,875","15,3","0","1,2","212","ND","ND"],
    [35982,"43198,91667","32,5","0,1","1,6","215,6","ND","ND"],
    [35983,"43198,95833","28,9","0","2","237","ND","ND"],
    [35984,"43228","24,5","0","1,2","195,8","ND","ND"],
    [35985,"43228,04167","16,5","0","1,2","221,1","ND","ND"],
    [35986,"43228,08333","13,7","0","1,6","235,8","ND","ND"],
    [35987,"43228,125","5,6","0","0,8","196,4","ND","ND"],
    [35988,"43228,16667","16","0","0,8","98,1","ND","ND"],
    [35989,"43228,20833","17,2","0","0,7","168,5","ND","ND"],
    [35990,"43228,25","8,2","0","0,6","143,9","ND","ND"],
    [35991,"43228,29167","13,6","0","0,8","198,6","ND","ND"],
    [35992,"43228,33333","15,6","0","0,5","178,3","ND","ND"],
    [35993,"43228,375","20,8","0,2","1,9","165,1","ND","ND"],
    [35994,"43228,41667","31,7","1","1,6","138,6","ND","ND"],
    [35995,"43228,45833","24,6","0,4","1,8","157,3","ND","ND"],
    [35996,"43228,5","21","0,1","1,4","134,9","ND","ND"],
    [35997,"43228,54167","22","0","1,3","144,7","ND","ND"],
    [35998,"43228,58333","24,7","0,2","1,4","139,1","ND","ND"],
    [35999,"43228,625","29,5","0,1","1,5","206,8","ND","ND"],
    [36000,"43228,66667","25,6","0,1","1,4","204,3","ND","ND"],
    [36001,"43228,70833","27,2","0","1","196,5","ND","ND"],
    [36002,"43228,75","28,4","0","1,4","244,1","ND","ND"],
    [36003,"43228,79167","46,2","0","1,3","202,8","ND","ND"],
    [36004,"43228,83333","42,5","0","1,3","218","ND","ND"],
    [36005,"43228,875","22,8","0","1,3","250,8","ND","ND"],
    [36006,"43228,91667","25","0","1,7","220,9","ND","ND"],
    [36007,"43228,95833","18,9","0","0,6","156,7","ND","ND"],
    [36008,"43259","50,5","0","0,8","252,8","ND","ND"],
    [36009,"43259,04167","27,8","0","0,7","240,2","ND","ND"],
    [36010,"43259,08333","22,3","0","1,2","245,9","ND","ND"],
    [36011,"43259,125","19,3","0","0,6","219,1","ND","ND"],
    [36012,"43259,16667","27,5","0","0,6","208,6","ND","ND"],
    [36013,"43259,20833","25,9","0","0,6","221,8","ND","ND"],
    [36014,"43259,25","27,7","0","0,5","185,9","ND","ND"],
    [36015,"43259,29167","44,2","0","0,5","101,4","ND","ND"],
    [36016,"43259,33333","74,4","0,3","0,6","193,7","ND","ND"],
    [36017,"43259,375","70,8","1,2","1","132,7","ND","ND"],
    [36018,"43259,41667","50,8","1,2","1,4","128,9","ND","ND"],
    [36019,"43259,45833","42,3","1,1","1,3","134","ND","ND"],
    [36020,"43259,5","42,7","0,6","1,5","114,1","ND","ND"],
    [36021,"43259,54167","45,1","0,2","1,2","163,5","ND","ND"],
    [36022,"43259,58333","53,2","0,2","1,4","132,5","ND","ND"],
    [36023,"43259,625","62,3","0,1","1,7","129,6","ND","ND"],
    [36024,"43259,66667","64,9","0","4,1","314,7","ND","ND"],
    [36025,"43259,70833","11,5","0","4,8","304,3","ND","ND"],
    [36026,"43259,75","16,7","0","4,9","307,4","ND","ND"],
    [36027,"43259,79167","21,3","0,1","3,3","311,7","ND","ND"],
    [36028,"43259,83333","19,2","0","1","185,2","ND","ND"],
    [36029,"43259,875","28,8","0","1,2","201,4","ND","ND"],
    [36030,"43259,91667","42","0","1","208","ND","ND"],
    [36031,"43259,95833","48,6","0","0,5","164,6","ND","ND"],
    [36032,"43289","82,2","0","0,6","200,1","ND","ND"],
    [36033,"43289,04167","50,5","0","1,4","244","ND","ND"],
    [36034,"43289,08333","28,7","0","0,6","218","ND","ND"],
    [36035,"43289,125","31,9","0","0,5","218,1","ND","ND"],
    [36036,"43289,16667","31,8","0","0,9","243,4","ND","ND"],
    [36037,"43289,20833","25,4","0","0,7","223,4","ND","ND"],
    [36038,"43289,25","24,6","0","0,8","235,5","ND","ND"],
    [36039,"43289,29167","29,8","0","0,6","184,1","ND","ND"],
    [36040,"43289,33333","47,2","0","0,8","181","ND","ND"],
    [36041,"43289,375","39,3","0,3","1,3","116,5","ND","ND"],
    [36042,"43289,41667","37","1,3","1,3","146,4","ND","ND"],
    [36043,"43289,45833","31,7","1,4","1,4","130,3","ND","ND"],
    [36044,"43289,5","39,4","0,6","1,1","145,2","ND","ND"],
    [36045,"43289,54167","38,5","1,3","1,8","164,6","ND","ND"],
    [36046,"43289,58333","38,7","0,3","1,4","147,2","ND","ND"],
    [36047,"43289,625","38,7","0","2","191,5","ND","ND"],
    [36048,"43289,66667","40,6","0","3,9","308,2","ND","ND"],
    [36049,"43289,70833","11,9","0","3,9","316","ND","ND"],
    [36050,"43289,75","23,2","0","4,7","302,9","ND","ND"],
    [36051,"43289,79167","19,6","0","1,6","236,8","ND","ND"],
    [36052,"43289,83333","25,3","0","3,3","298,9","ND","ND"],
    [36053,"43289,875","25,5","0","3,7","288,7","ND","ND"],
    [36054,"43289,91667","10,1","0","1","237,5","ND","ND"],
    [36055,"43289,95833","34,9","0","0,9","173,9","ND","ND"],
    [36056,"43320","52,8","0","0,7","176,7","ND","ND"],
    [36057,"43320,04167","53","0","0,5","124,5","ND","ND"],
    [36058,"43320,08333","49,9","0","0,9","209,2","ND","ND"],
    [36059,"43320,125","28,5","0","0,7","201","ND","ND"],
    [36060,"43320,16667","38,1","0","0,6","149,8","ND","ND"],
    [36061,"43320,20833","31,2","0","0,5","163,1","ND","ND"],
    [36062,"43320,25","42,3","0","0,7","235,3","ND","ND"],
    [36063,"43320,29167","46,4","0,1","0,9","219,6","ND","ND"],
    [36064,"43320,33333","63,7","0,3","0,5","191,1","ND","ND"],
    [36065,"43320,375","75,9","0,6","0,9","111,6","ND","ND"],
    [36066,"43320,41667","84,2","0,5","1,6","109,7","ND","ND"],
    [36067,"43320,45833","63,5","0,9","1,5","128,7","ND","ND"],
    [36068,"43320,5","51,6","0,9","1,4","143,3","ND","ND"],
    [36069,"43320,54167","36,7","0,7","1,3","134,5","ND","ND"],
    [36070,"43320,58333","19","0,4","1,4","195","ND","ND"],
    [36071,"43320,625","19","0,2","1,5","139,1","ND","ND"],
    [36072,"43320,66667","10,2","0,2","1,5","122,4","ND","ND"],
    [36073,"43320,70833","18,4","0,1","2,8","268","ND","ND"],
    [36074,"43320,75","54,5","0","4","312,5","ND","ND"],
    [36075,"43320,79167","34,4","0","3,8","318,2","ND","ND"],
    [36076,"43320,83333","28,1","0","3,6","298,7","ND","ND"],
    [36077,"43320,875","19,9","0","2,1","231,6","ND","ND"],
    [36078,"43320,91667","20,3","0,1","0,6","142","ND","ND"],
    [36079,"43320,95833","29,1","0,1","0,8","154,4","ND","ND"],
    [36080,"43351","30,3","0,1","1","221,3","ND","ND"],
    [36081,"43351,04167","28","0","1","180,3","ND","ND"],
    [36082,"43351,08333","23,7","0","0,6","210,3","ND","ND"],
    [36083,"43351,125","17,9","0","0,8","215,1","ND","ND"],
    [36084,"43351,16667","16,6","0","1,1","234","ND","ND"],
    [36085,"43351,20833","14,5","0","0,9","238,5","ND","ND"],
    [36086,"43351,25","20,4","0","0,9","226,5","ND","ND"],
    [36087,"43351,29167","39,4","0,1","0,8","224,1","ND","ND"],
    [36088,"43351,33333","54,2","0,2","0,7","133,9","ND","ND"],
    [36089,"43351,375","59,3","0,5","1,1","83,1","ND","ND"],
    [36090,"43351,41667","69","0,9","1,4","114,8","ND","ND"],
    [36091,"43351,45833","54,1","1,5","1","150,1","ND","ND"],
    [36092,"43351,5","63","1,7","1,2","131,8","ND","ND"],
    [36093,"43351,54167","53","1,3","1,6","133,1","ND","ND"],
    [36094,"43351,58333","47,8","2,1","2,2","118,8","ND","ND"],
    [36095,"43351,625","51,1","1,4","2,3","99,1","ND","ND"],
    [36096,"43351,66667","51,4","1,1","1,7","111,7","ND","ND"],
    [36097,"43351,70833","58,6","1,6","0,9","241,1","ND","ND"],
    [36098,"43351,75","69,2","0,4","2,2","304,9","ND","ND"],
    [36099,"43351,79167","68,6","0,4","1,4","230,8","ND","ND"],
    [36100,"43351,83333","52,6","0,2","1","205,3","ND","ND"],
    [36101,"43351,875","59,7","0,1","3,3","269,7","ND","ND"],
    [36102,"43351,91667","30,2","0,1","2,1","221,8","ND","ND"],
    [36103,"43351,95833","14,3","0,1","0,8","168","ND","ND"],
    [36104,"43381","40,8","0","0,6","210,1","ND","ND"],
    [36105,"43381,04167","32,5","0","1,1","241","ND","ND"],
    [36106,"43381,08333","19,1","0","0,9","237,8","ND","ND"],
    [36107,"43381,125","12","0","0,5","189,2","ND","ND"],
    [36108,"43381,16667","18","0","0,8","223,6","ND","ND"],
    [36109,"43381,20833","17,8","0,1","0,9","219,4","ND","ND"],
    [36110,"43381,25","21","0,3","0,8","247","ND","ND"],
    [36111,"43381,29167","48,8","0,1","0,8","233,8","ND","ND"],
    [36112,"43381,33333","54,7","0,1","0,6","135,9","ND","ND"],
    [36113,"43381,375","47,1","ND","0,9","112,9","ND","ND"],
    [36114,"43381,41667","71,6","2,1","1,4","131,5","ND","ND"],
    [36115,"43381,45833","63,3","1,7","1,3","117,2","ND","ND"],
    [36116,"43381,5","47,5","1,2","1,3","146,8","ND","ND"],
    [36117,"43381,54167","48,7","0,9","1,8","135,3","ND","ND"],
    [36118,"43381,58333","32,9","0,8","1,9","122,3","ND","ND"],
    [36119,"43381,625","32,3","0,9","1,8","113,9","ND","ND"],
    [36120,"43381,66667","63,6","1,4","1,8","122,2","ND","ND"],
    [36121,"43381,70833","59","2","1,4","128,9","ND","ND"],
    [36122,"43381,75","68,9","2","1,4","188,6","ND","ND"],
    [36123,"43381,79167","88,8","0,9","2,1","251,7","ND","ND"],
    [36124,"43381,83333","90,4","0,3","1,5","248,2","ND","ND"],
    [36125,"43381,875","66,6","0,2","1,6","263,4","ND","ND"],
    [36126,"43381,91667","41,2","0,4","0,8","177,5","ND","ND"],
    [36127,"43381,95833","46,7","0,2","0,6","222,1","ND","ND"],
    [36128,"43412","36,2","0,1","1,2","244,7","ND","ND"],
    [36129,"43412,04167","19,4","0","1,5","217,8","ND","ND"],
    [36130,"43412,08333","31,3","0","1","230,8","ND","ND"],
    [36131,"43412,125","21,8","0","0,7","219,5","ND","ND"],
    [36132,"43412,16667","24,4","0","1","243,2","ND","ND"],
    [36133,"43412,20833","19,2","0","0,9","233,4","ND","ND"],
    [36134,"43412,25","28,2","0","0,7","223,5","ND","ND"],
    [36135,"43412,29167","33,6","0,1","0,4","213,9","ND","ND"],
    [36136,"43412,33333","46,3","0,2","0,6","165,6","ND","ND"],
    [36137,"43412,375","75","0,5","0,7","119,7","ND","ND"],
    [36138,"43412,41667","52,6","1,2","1,2","119,4","ND","ND"],
    [36139,"43412,45833","66,8","1,6","1,5","139,1","ND","ND"],
    [36140,"43412,5","63,1","1,2","1,4","121,3","ND","ND"],
    [36141,"43412,54167","58,2","2,6","1,4","151,5","ND","ND"],
    [36142,"43412,58333","61,2","3,4","1,5","146,6","ND","ND"],
    [36143,"43412,625","55,7","1,9","1,7","125,3","ND","ND"],
    [36144,"43412,66667","57,7","0,4","3,4","300,4","ND","ND"],
    [36145,"43412,70833","73,2","0","4,5","310","ND","ND"],
    [36146,"43412,75","42,4","0","5,8","303,9","ND","ND"],
    [36147,"43412,79167","47,9","0","6,3","301,8","ND","ND"],
    [36148,"43412,83333","40","0","6","295,2","ND","ND"],
    [36149,"43412,875","32","0","4,1","285,4","ND","ND"],
    [36150,"43412,91667","21,2","0","0,9","175,4","ND","ND"],
    [36151,"43412,95833","28,7","0,1","0,7","234,5","ND","ND"],
    [36152,"43442","53","0,1","1","245,6","ND","ND"],
    [36153,"43442,04167","43,2","0","0,7","188,1","ND","ND"],
    [36154,"43442,08333","39,4","0","0,7","141,8","ND","ND"],
    [36155,"43442,125","49,3","0","0,6","201","ND","ND"],
    [36156,"43442,16667","34,4","0","0,6","216,9","ND","ND"],
    [36157,"43442,20833","40,4","0","0,8","240,8","ND","ND"],
    [36158,"43442,25","29,7","0","0,7","209","ND","ND"],
    [36159,"43442,29167","34,3","0,1","0,8","232","ND","ND"],
    [36160,"43442,33333","39,3","0,2","0,7","176,5","ND","ND"],
    [36161,"43442,375","51,7","1,1","1","107,2","ND","ND"],
    [36162,"43442,41667","51,3","2","1,2","139,9","ND","ND"],
    [36163,"43442,45833","64,5","2,7","1,6","102,4","ND","ND"],
    [36164,"43442,5","59,9","3,7","1,8","157","ND","ND"],
    [36165,"43442,54167","56,9","2,9","1,5","145,9","ND","ND"],
    [36166,"43442,58333","55,7","1,1","2,2","247,1","ND","ND"],
    [36167,"43442,625","34,7","0","3,9","315,3","ND","ND"],
    [36168,"43442,66667","16,5","0,1","2,6","310,9","ND","ND"],
    [36169,"43442,70833","19","0","3,6","307,7","ND","ND"],
    [36170,"43442,75","20,6","0","4,2","303,2","ND","ND"],
    [36171,"43442,79167","31,9","0","3,9","307,8","ND","ND"],
    [36172,"43442,83333","27,6","0,1","2","239,4","ND","ND"],
    [36173,"43442,875","26,1","0,1","0,8","205,2","ND","ND"],
    [36174,"43442,91667","39,9","0,1","1,8","225,7","ND","ND"],
    [36175,"43442,95833","26,7","0,1","1,1","212,4","ND","ND"],
    [36176,"08/13/2018 00:00","29,4","0","0,7","233,4","ND","ND"],
    [36177,"08/13/2018 01:00","34,4","0","0,6","166,3","ND","ND"],
    [36178,"08/13/2018 02:00","34,4","0","1,1","81,8","ND","ND"],
    [36179,"08/13/2018 03:00","54,5","0","0,9","209,2","ND","ND"],
    [36180,"08/13/2018 04:00","40,5","0","1","233,7","ND","ND"],
    [36181,"08/13/2018 05:00","35,3","0","0,7","219,3","ND","ND"],
    [36182,"08/13/2018 06:00","35,8","0,2","0,5","164,3","ND","ND"],
    [36183,"08/13/2018 07:00","62","0,1","0,8","226,4","ND","ND"],
    [36184,"08/13/2018 08:00","59,9","0,2","0,5","211,8","ND","ND"],
    [36185,"08/13/2018 09:00","81,8","0,9","0,9","76,1","ND","ND"],
    [36186,"08/13/2018 10:00","90,4","10,9","1,7","91,1","ND","ND"],
    [36187,"08/13/2018 11:00","87,2","6,1","1,5","149,8","ND","ND"],
    [36188,"08/13/2018 12:00","61,9","3,4","1,2","137,8","ND","ND"],
    [36189,"08/13/2018 13:00","56,4","2,9","1,2","154,3","ND","ND"],
    [36190,"08/13/2018 14:00","58,5","2","1,3","134,6","ND","ND"],
    [36191,"08/13/2018 15:00","55","1,3","1,5","159","ND","ND"],
    [36192,"08/13/2018 16:00","62,9","0","4,3","315,7","ND","ND"],
    [36193,"08/13/2018 17:00","25,4","0","4,6","312,1","ND","ND"],
    [36194,"08/13/2018 18:00","18,7","0","4,4","313,5","ND","ND"],
    [36195,"08/13/2018 19:00","15,1","0,1","4,9","314,4","ND","ND"],
    [36196,"08/13/2018 20:00","20,3","0","5,8","303,1","ND","ND"],
    [36197,"08/13/2018 21:00","23,2","0","4,1","313,5","ND","ND"],
    [36198,"08/13/2018 22:00","10,1","0,1","1,7","238,9","ND","ND"],
    [36199,"08/13/2018 23:00","25","0,2","1,2","191,2","ND","ND"],
    [36200,"08/14/2018 00:00","51,1","0,4","1,2","114,9","ND","ND"],
    [36201,"08/14/2018 01:00","43,6","0,1","0,7","141,5","ND","ND"],
    [36202,"08/14/2018 02:00","33,6","0,3","0,9","180,3","ND","ND"],
    [36203,"08/14/2018 03:00","43,7","0,1","0,7","130,4","ND","ND"],
    [36204,"08/14/2018 04:00","30,4","0","0,6","150,5","ND","ND"],
    [36205,"08/14/2018 05:00","36","0","0,9","214,7","ND","ND"],
    [36206,"08/14/2018 06:00","48","0,1","0,7","100,5","ND","ND"],
    [36207,"08/14/2018 07:00","34","0,1","0,5","177,9","ND","ND"],
    [36208,"08/14/2018 08:00","41,8","0,2","0,7","182,2","ND","ND"],
    [36209,"08/14/2018 09:00","54","0,3","0,8","165,7","ND","ND"],
    [36210,"08/14/2018 10:00","32,5","1,1","1,6","147","ND","ND"],
    [36211,"08/14/2018 11:00","42,1","1,1","1,5","184,9","ND","ND"],
    [36212,"08/14/2018 12:00","23,3","0,9","1,7","139,6","ND","ND"],
    [36213,"08/14/2018 13:00","22,7","0,7","1,6","121,3","ND","ND"],
    [36214,"08/14/2018 14:00","35,2","1,4","1,8","105,8","ND","ND"],
    [36215,"08/14/2018 15:00","35,5","0,1","3,4","300,5","ND","ND"],
    [36216,"08/14/2018 16:00","9,2","0","4,2","316,3","ND","ND"],
    [36217,"08/14/2018 17:00","9,9","0","4,4","299,4","ND","ND"],
    [36218,"08/14/2018 18:00","29,2","0","3","255,1","ND","ND"],
    [36219,"08/14/2018 19:00","15,9","0,4","1,7","57,9","ND","ND"],
    [36220,"08/14/2018 20:00","60,6","0,3","1","195,2","ND","ND"],
    [36221,"08/14/2018 21:00","58,3","0,1","1,3","170,2","ND","ND"],
    [36222,"08/14/2018 22:00","26,7","0,1","1","133,4","ND","ND"],
    [36223,"08/14/2018 23:00","27,6","0","0,5","192,2","ND","ND"],
    [36224,"08/15/2018 00:00","38,1","0","0,9","243,7","ND","ND"],
    [36225,"08/15/2018 01:00","19","0","0,5","192,5","ND","ND"],
    [36226,"08/15/2018 02:00","18,8","0","0,8","227,4","ND","ND"],
    [36227,"08/15/2018 03:00","19,6","0","0,5","200,2","ND","ND"],
    [36228,"08/15/2018 04:00","12,9","0","0,8","231","ND","ND"],
    [36229,"08/15/2018 05:00","11","0,1","0,6","228,9","ND","ND"],
    [36230,"08/15/2018 06:00","17,9","0","1","241,2","ND","ND"],
    [36231,"08/15/2018 07:00","24,7","0,1","0,5","181,1","ND","ND"],
    [36232,"08/15/2018 08:00","47,3","0,2","0,7","193,3","ND","ND"],
    [36233,"08/15/2018 09:00","49,5","0,2","0,6","147,4","ND","ND"],
    [36234,"08/15/2018 10:00","58,8","0,6","1,3","104,9","ND","ND"],
    [36235,"08/15/2018 11:00","74,4","0,5","1,4","130","ND","ND"],
    [36236,"08/15/2018 12:00","60,5","1,4","1,5","148,6","ND","ND"],
    [36237,"08/15/2018 13:00","60,9","1,9","1,5","122,9","ND","ND"],
    [36238,"08/15/2018 14:00","65,9","1,7","1,8","100,2","ND","ND"],
    [36239,"08/15/2018 15:00","53,5","1,2","1,7","96,9","ND","ND"],
    [36240,"08/15/2018 16:00","49,5","0,7","2,4","230,1","ND","ND"],
    [36241,"08/15/2018 17:00","36,5","0","3,7","317,7","ND","ND"],
    [36242,"08/15/2018 18:00","20,7","0,1","3,8","313,6","ND","ND"],
    [36243,"08/15/2018 19:00","68","0,1","2,6","305,4","ND","ND"],
    [36244,"08/15/2018 20:00","26,1","0,1","0,9","263,2","ND","ND"],
    [36245,"08/15/2018 21:00","49,7","0,1","1,2","240,5","ND","ND"],
    [36246,"08/15/2018 22:00","76,8","0,3","0,8","210,7","ND","ND"],
    [36247,"08/15/2018 23:00","72,5","0,9","0,8","122,6","ND","ND"],
    [36248,"08/16/2018 00:00","64,5","0,4","0,7","227,3","ND","ND"],
    [36249,"08/16/2018 01:00","64,7","0","0,7","230,1","ND","ND"],
    [36250,"08/16/2018 02:00","32,1","0","0,7","222,3","ND","ND"],
    [36251,"08/16/2018 03:00","28,8","0","0,4","180,6","ND","ND"],
    [36252,"08/16/2018 04:00","26,2","0","0,8","240,8","ND","ND"],
    [36253,"08/16/2018 05:00","25,4","0","1","249,2","ND","ND"],
    [36254,"08/16/2018 06:00","31,4","0,1","0,9","238,9","ND","ND"],
    [36255,"08/16/2018 07:00","58,6","0,1","0,8","215,1","ND","ND"],
    [36256,"08/16/2018 08:00","81,5","0,2","0,5","135","ND","ND"],
    [36257,"08/16/2018 09:00","54,3","1,1","1,3","132","ND","ND"],
    [36258,"08/16/2018 10:00","55,7","1,9","1,5","118,6","ND","ND"],
    [36259,"08/16/2018 11:00","57,4","1,6","1,4","132,3","ND","ND"],
    [36260,"08/16/2018 12:00","50,7","1,9","1,2","166,9","ND","ND"],
    [36261,"08/16/2018 13:00","55,5","1,4","1,5","159,1","ND","ND"],
    [36262,"08/16/2018 14:00","70,2","1,6","1,5","128,3","ND","ND"],
    [36263,"08/16/2018 15:00","86,9","2,1","2,1","157,2","ND","ND"],
    [36264,"08/16/2018 16:00","82,2","0,1","4,4","317,6","ND","ND"],
    [36265,"08/16/2018 17:00","26","0","3,9","298,9","ND","ND"],
    [36266,"08/16/2018 18:00","31,3","0","5,2","305,6","ND","ND"],
    [36267,"08/16/2018 19:00","36,2","0","5,1","304,3","ND","ND"],
    [36268,"08/16/2018 20:00","29,7","0","4,9","304,9","ND","ND"],
    [36269,"08/16/2018 21:00","20,4","0,2","2,2","236,2","ND","ND"],
    [36270,"08/16/2018 22:00","30","0,7","1","138,4","ND","ND"],
    [36271,"08/16/2018 23:00","65,3","0,5","1,1","216,6","ND","ND"],
    [36272,"08/17/2018 00:00","71","0,6","0,9","228,9","ND","ND"],
    [36273,"08/17/2018 01:00","100,6","0,1","0,6","209,8","ND","ND"],
    [36274,"08/17/2018 02:00","65,6","0","0,6","184,5","ND","ND"],
    [36275,"08/17/2018 03:00","43,2","0","0,8","227,4","ND","ND"],
    [36276,"08/17/2018 04:00","29","0","0,5","214,6","ND","ND"],
    [36277,"08/17/2018 05:00","31,4","0,1","0,7","225,9","ND","ND"],
    [36278,"08/17/2018 06:00","34,6","0,1","0,7","220,5","ND","ND"],
    [36279,"08/17/2018 07:00","63,9","0,1","0,9","245","ND","ND"],
    [36280,"08/17/2018 08:00","87,7","0,3","0,7","133,5","ND","ND"],
    [36281,"08/17/2018 09:00","88,4","0,5","0,7","143,3","ND","ND"],
    [36282,"08/17/2018 10:00","65,6","1","1,2","145,7","ND","ND"],
    [36283,"08/17/2018 11:00","59,4","1,6","1,9","115,9","ND","ND"],
    [36284,"08/17/2018 12:00","60,1","1,6","1,3","128","ND","ND"],
    [36285,"08/17/2018 13:00","53,3","1,5","1,4","142,3","ND","ND"],
    [36286,"08/17/2018 14:00","51,3","1,5","1,6","87","ND","ND"],
    [36287,"08/17/2018 15:00","58,4","1","1,5","104,6","ND","ND"],
    [36288,"08/17/2018 16:00","63,8","1","1,3","136,8","ND","ND"],
    [36289,"08/17/2018 17:00","71","0,3","2,9","271,1","ND","ND"],
    [36290,"08/17/2018 18:00","35,4","0","3,6","318,2","ND","ND"],
    [36291,"08/17/2018 19:00","22,4","0","3,9","310,5","ND","ND"],
    [36292,"08/17/2018 20:00","25","0,1","4,2","305,9","ND","ND"],
    [36293,"08/17/2018 21:00","20,7","0,1","2,9","298,2","ND","ND"],
    [36294,"08/17/2018 22:00","27,8","0,4","1,7","213,2","ND","ND"],
    [36295,"08/17/2018 23:00","94,2","0,4","0,9","235,2","ND","ND"],
    [36296,"08/18/2018 00:00","94,1","0,5","0,8","219,4","ND","ND"],
    [36297,"08/18/2018 01:00","100,6","0,3","1,2","250,7","ND","ND"],
    [36298,"08/18/2018 02:00","73,7","0,2","0,9","195,6","ND","ND"],
    [36299,"08/18/2018 03:00","53,4","0,1","0,5","215,2","ND","ND"],
    [36300,"08/18/2018 04:00","46,7","0,2","0,7","89,4","ND","ND"],
    [36301,"08/18/2018 05:00","47,9","0,3","0,6","156,3","ND","ND"],
    [36302,"08/18/2018 06:00","47,9","0,4","0,6","205,6","ND","ND"],
    [36303,"08/18/2018 07:00","45,5","0,3","0,7","219,4","ND","ND"],
    [36304,"08/18/2018 08:00","69,1","0,5","0,7","182,4","ND","ND"],
    [36305,"08/18/2018 09:00","78,3","0,8","0,9","85,1","ND","ND"],
    [36306,"08/18/2018 10:00","87,8","1","1,4","83,7","ND","ND"],
    [36307,"08/18/2018 11:00","81,3","1,6","1,4","130,8","ND","ND"],
    [36308,"08/18/2018 12:00","57,8","1,8","1,5","149,9","ND","ND"],
    [36309,"08/18/2018 13:00","58,7","2,3","1,7","103,5","ND","ND"],
    [36310,"08/18/2018 14:00","57,6","3,1","1,3","137,3","ND","ND"],
    [36311,"08/18/2018 15:00","64,1","1,2","2,5","264,7","ND","ND"],
    [36312,"08/18/2018 16:00","35,8","0,4","3,5","309,2","ND","ND"],
    [36313,"08/18/2018 17:00","29,6","0,3","3,7","308,1","ND","ND"],
    [36314,"08/18/2018 18:00","26,8","0,1","3,7","315,2","ND","ND"],
    [36315,"08/18/2018 19:00","18","0,2","3","288,4","ND","ND"],
    [36316,"08/18/2018 20:00","20,5","0,4","1,2","229,8","ND","ND"],
    [36317,"08/18/2018 21:00","71,5","0,7","0,9","208,2","ND","ND"],
    [36318,"08/18/2018 22:00","82,5","0,4","1,3","238,2","ND","ND"],
    [36319,"08/18/2018 23:00","43,3","0,2","3,1","290","ND","ND"],
    [36320,"08/19/2018 00:00","22,3","0,4","1,1","189,7","ND","ND"],
    [36321,"08/19/2018 01:00","73,9","0,2","0,7","183,6","ND","ND"],
    [36322,"08/19/2018 02:00","80,4","0,2","0,9","109,2","ND","ND"],
    [36323,"08/19/2018 03:00","68,4","0,1","0,7","84,1","ND","ND"],
    [36324,"08/19/2018 04:00","71,3","0","0,6","189,4","ND","ND"],
    [36325,"08/19/2018 05:00","58,8","0","0,7","116","ND","ND"],
    [36326,"08/19/2018 06:00","55,6","0","0,8","169,4","ND","ND"],
    [36327,"08/19/2018 07:00","43,2","0","0,6","207","ND","ND"],
    [36328,"08/19/2018 08:00","60,2","0","0,7","164,9","ND","ND"],
    [36329,"08/19/2018 09:00","54,6","0,4","1,3","74,3","ND","ND"],
    [36330,"08/19/2018 10:00","58,4","0,8","1,1","90,2","ND","ND"],
    [36331,"08/19/2018 11:00","41,7","1,1","0,9","124,2","ND","ND"],
    [36332,"08/19/2018 12:00","43,3","1,3","1,5","162,3","ND","ND"],
    [36333,"08/19/2018 13:00","56","1,3","1,5","132","ND","ND"],
    [36334,"08/19/2018 14:00","33,3","1,6","1,6","113","ND","ND"],
    [36335,"08/19/2018 15:00","32,6","1,2","1,4","135,8","ND","ND"],
    [36336,"08/19/2018 16:00","27,6","0,8","2","112,6","ND","ND"],
    [36337,"08/19/2018 17:00","32,7","0,1","3,6","311","ND","ND"],
    [36338,"08/19/2018 18:00","37,7","0","4,1","310,6","ND","ND"],
    [36339,"08/19/2018 19:00","30","0,1","4,9","303,3","ND","ND"],
    [36340,"08/19/2018 20:00","31,5","0,1","4,6","300","ND","ND"],
    [36341,"08/19/2018 21:00","24,4","0,5","1,7","233,6","ND","ND"],
    [36342,"08/19/2018 22:00","51","0,6","0,9","217","ND","ND"],
    [36343,"08/19/2018 23:00","102,3","0,4","0,8","245,5","ND","ND"],
    [36344,"08/20/2018 00:00","97,4","0,4","1","225","ND","ND"],
    [36345,"08/20/2018 01:00","109,7","0,4","0,9","242,1","ND","ND"],
    [36346,"08/20/2018 02:00","78,3","0,2","0,5","194","ND","ND"],
    [36347,"08/20/2018 03:00","86,7","0,1","0,8","227","ND","ND"],
    [36348,"08/20/2018 04:00","41,9","0","0,7","221,7","ND","ND"],
    [36349,"08/20/2018 05:00","31,4","0","0,9","221,4","ND","ND"],
    [36350,"08/20/2018 06:00","26,3","0","0,8","235,1","ND","ND"],
    [36351,"08/20/2018 07:00","35,2","0","0,5","185,7","ND","ND"],
    [36352,"08/20/2018 08:00","54,6","0","0,6","214,7","ND","ND"],
    [36353,"08/20/2018 09:00","51,5","0,3","0,8","198,4","ND","ND"],
    [36354,"08/20/2018 10:00","36,6","0,7","1,5","120,2","ND","ND"],
    [36355,"08/20/2018 11:00","40","0,8","1,5","145,9","ND","ND"],
    [36356,"08/20/2018 12:00","36,4","0,9","1,1","133,1","ND","ND"],
    [36357,"08/20/2018 13:00","33,5","0,7","1,6","131,5","ND","ND"],
    [36358,"08/20/2018 14:00","36,3","0,4","1,5","153,2","ND","ND"],
    [36359,"08/20/2018 15:00","20,1","0,3","3,1","237,8","ND","ND"],
    [36360,"08/20/2018 16:00","ND","0","4,6","312,6","ND","ND"],
    [36361,"08/20/2018 17:00","ND","0","4,4","306","ND","ND"],
    [36362,"08/20/2018 18:00","ND","0","5,5","312,1","ND","ND"],
    [36363,"08/20/2018 19:00","ND","ND","ND","ND","ND","ND"],
    [36364,"08/20/2018 20:00","ND","ND","ND","ND","ND","ND"],
    [36365,"08/20/2018 21:00","ND","ND","ND","ND","ND","ND"],
    [36366,"08/20/2018 22:00","ND","0","0,8","165,6","ND","ND"],
    [36367,"08/20/2018 23:00","ND","0","0,9","149,9","ND","ND"],
    [36368,"08/21/2018 00:00","ND","0","0,8","181,7","ND","ND"],
    [36369,"08/21/2018 01:00","ND","0,1","1,2","169,6","ND","ND"],
    [36370,"08/21/2018 02:00","ND","0,2","1,1","169,5","ND","ND"],
    [36371,"08/21/2018 03:00","ND","0","0,9","119,8","ND","ND"],
    [36372,"08/21/2018 04:00","ND","0","0,5","135,5","ND","ND"],
    [36373,"08/21/2018 05:00","ND","0,1","1,1","245,4","ND","ND"],
    [36374,"08/21/2018 06:00","ND","0","1,2","247,7","ND","ND"],
    [36375,"08/21/2018 07:00","ND","0","0,9","236,9","ND","ND"],
    [36376,"08/21/2018 08:00","ND","0,1","0,6","161,4","ND","ND"],
    [36377,"08/21/2018 09:00","ND","0,7","1,6","103,5","ND","ND"],
    [36378,"08/21/2018 10:00","ND","2,9","1,5","103","ND","ND"],
    [36379,"08/21/2018 11:00","ND","4,5","1,5","125,6","ND","ND"],
    [36380,"08/21/2018 12:00","ND","4,1","1,7","133,4","ND","ND"],
    [36381,"08/21/2018 13:00","ND","3,1","1,6","149,4","ND","ND"],
    [36382,"08/21/2018 14:00","ND","3","1,5","128,2","ND","ND"],
    [36383,"08/21/2018 15:00","ND","1,8","1,8","169,7","ND","ND"],
    [36384,"08/21/2018 16:00","ND","0,3","3,5","303","ND","ND"],
    [36385,"08/21/2018 17:00","ND","0","5,4","311,9","ND","ND"],
    [36386,"08/21/2018 18:00","ND","0","4,8","311,3","ND","ND"],
    [36387,"08/21/2018 19:00","ND","0","4,9","316,5","ND","ND"],
    [36388,"08/21/2018 20:00","ND","0","3,5","311,8","ND","ND"],
    [36389,"08/21/2018 21:00","ND","0,1","1,5","215,7","ND","ND"],
    [36390,"08/21/2018 22:00","ND","0","0,7","190,7","ND","ND"],
    [36391,"08/21/2018 23:00","ND","0","0,7","168","ND","ND"],
    [36392,"08/22/2018 00:00","ND","0,1","0,9","161,9","ND","ND"],
    [36393,"08/22/2018 01:00","ND","0","0,9","183,7","ND","ND"],
    [36394,"08/22/2018 02:00","ND","0","1","233","ND","ND"],
    [36395,"08/22/2018 03:00","ND","0","0,8","223","ND","ND"],
    [36396,"08/22/2018 04:00","ND","0","0,6","210,6","ND","ND"],
    [36397,"08/22/2018 05:00","ND","0","0,7","218,9","ND","ND"],
    [36398,"08/22/2018 06:00","ND","0","0,8","236,5","ND","ND"],
    [36399,"08/22/2018 07:00","ND","0","0,9","245,3","ND","ND"],
    [36400,"08/22/2018 08:00","ND","0,2","0,7","158,7","ND","ND"],
    [36401,"08/22/2018 09:00","ND","0,8","1,1","117,1","ND","ND"],
    [36402,"08/22/2018 10:00","ND","1,8","1,7","128,6","ND","ND"],
    [36403,"08/22/2018 11:00","ND","1,6","1,5","144,4","ND","ND"],
    [36404,"08/22/2018 12:00","ND","1,1","1,8","163,5","ND","ND"],
    [36405,"08/22/2018 13:00","ND","0,7","1,5","152,2","ND","ND"],
    [36406,"08/22/2018 14:00","ND","0,4","1,9","139","ND","ND"],
    [36407,"08/22/2018 15:00","ND","0,1","3,7","275,1","ND","ND"],
    [36408,"08/22/2018 16:00","ND","0","4,9","314,5","ND","ND"],
    [36409,"08/22/2018 17:00","ND","0","4,8","317,2","ND","ND"],
    [36410,"08/22/2018 18:00","ND","0","6,1","305,6","ND","ND"],
    [36411,"08/22/2018 19:00","ND","0","5,5","308,4","ND","ND"],
    [36412,"08/22/2018 20:00","ND","0","5,8","303,1","ND","ND"],
    [36413,"08/22/2018 21:00","ND","0","1,6","202,2","ND","ND"],
    [36414,"08/22/2018 22:00","ND","0,3","0,7","123,6","ND","ND"],
    [36415,"08/22/2018 23:00","ND","0","0,5","210,4","ND","ND"],
    [36416,"08/23/2018 00:00","ND","0","0,7","226,8","ND","ND"],
    [36417,"08/23/2018 01:00","ND","0","0,9","251,7","ND","ND"],
    [36418,"08/23/2018 02:00","ND","0","0,9","230,2","ND","ND"],
    [36419,"08/23/2018 03:00","ND","0","1","192,7","ND","ND"],
    [36420,"08/23/2018 04:00","ND","0","0,7","132,8","ND","ND"],
    [36421,"08/23/2018 05:00","ND","0,1","0,7","223,8","ND","ND"],
    [36422,"08/23/2018 06:00","ND","0,1","1","242,1","ND","ND"],
    [36423,"08/23/2018 07:00","ND","0,1","0,7","226,8","ND","ND"],
    [36424,"08/23/2018 08:00","ND","0,3","0,8","128,1","ND","ND"],
    [36425,"08/23/2018 09:00","ND","1,8","0,9","138,7","ND","ND"],
    [36426,"08/23/2018 10:00","ND","2,7","1,8","110,9","ND","ND"],
    [36427,"08/23/2018 11:00","ND","2,6","1,5","118,3","ND","ND"],
    [36428,"08/23/2018 12:00","53,2","2,7","1,4","164,4","ND","ND"],
    [36429,"08/23/2018 13:00","53,4","1,9","1,6","136,4","ND","ND"],
    [36430,"08/23/2018 14:00","50,8","0,1","3,5","296,3","ND","ND"],
    [36431,"08/23/2018 15:00","26,2","0,1","4","317,1","ND","ND"],
    [36432,"08/23/2018 16:00","30,6","0","4,1","317,4","ND","ND"],
    [36433,"08/23/2018 17:00","30,1","0","5,4","300,9","ND","ND"],
    [36434,"08/23/2018 18:00","43,4","0","5,6","305","ND","ND"],
    [36435,"08/23/2018 19:00","34,6","0","5,9","303,6","ND","ND"],
    [36436,"08/23/2018 20:00","44,4","0","5,2","303,3","ND","ND"],
    [36437,"08/23/2018 21:00","31","0","3,1","271,2","ND","ND"],
    [36438,"08/23/2018 22:00","14,1","0","1,1","158,9","ND","ND"],
    [36439,"08/23/2018 23:00","60,1","0,1","1,3","172,1","ND","ND"],
    [36440,"08/24/2018 00:00","60","0","0,6","193,1","ND","ND"],
    [36441,"08/24/2018 01:00","47,2","0","0,5","188,2","ND","ND"],
    [36442,"08/24/2018 02:00","40,7","0,1","0,8","168,8","ND","ND"],
    [36443,"08/24/2018 03:00","50,7","0","0,6","236","ND","ND"],
    [36444,"08/24/2018 04:00","51,3","0","0,4","176,4","ND","ND"],
    [36445,"08/24/2018 05:00","31","0","0,9","246,9","ND","ND"],
    [36446,"08/24/2018 06:00","32,5","0","0,6","238,7","ND","ND"],
    [36447,"08/24/2018 07:00","46,7","0,1","0,9","213,4","ND","ND"],
    [36448,"08/24/2018 08:00","61,6","0,3","0,8","205,7","ND","ND"],
    [36449,"08/24/2018 09:00","69,7","1,8","1,2","129,7","ND","ND"],
    [36450,"08/24/2018 10:00","62","1,6","1,2","118,5","ND","ND"],
    [36451,"08/24/2018 11:00","58,1","1,2","1,2","151,1","ND","ND"],
    [36452,"08/24/2018 12:00","55,2","1,4","1,5","112,1","ND","ND"],
    [36453,"08/24/2018 13:00","49,8","1","1,7","170,9","ND","ND"],
    [36454,"08/24/2018 14:00","52,8","1","1,3","155,5","ND","ND"],
    [36455,"08/24/2018 15:00","52,5","0,9","1,5","159,3","ND","ND"],
    [36456,"08/24/2018 16:00","68,7","0,1","5,1","312,2","ND","ND"],
    [36457,"08/24/2018 17:00","62,1","0","5,3","305,8","ND","ND"],
    [36458,"08/24/2018 18:00","48,5","0","5,6","306,1","ND","ND"],
    [36459,"08/24/2018 19:00","138,7","0,3","6,6","305,6","ND","ND"],
    [36460,"08/24/2018 20:00","101,7","0","6,7","303,2","ND","ND"],
    [36461,"08/24/2018 21:00","53,1","0","3,6","273,9","ND","ND"],
    [36462,"08/24/2018 22:00","24,6","0,1","1,5","156,7","ND","ND"],
    [36463,"08/24/2018 23:00","41,2","0,1","1","181,9","ND","ND"],
    [36464,"08/25/2018 00:00","56,5","0","0,9","142,1","ND","ND"],
    [36465,"08/25/2018 01:00","52,8","0","0,9","122,3","ND","ND"],
    [36466,"08/25/2018 02:00","33,5","0","1","157,6","ND","ND"],
    [36467,"08/25/2018 03:00","31,7","0","0,9","83,6","ND","ND"],
    [36468,"08/25/2018 04:00","24,7","0","0,9","224,8","ND","ND"],
    [36469,"08/25/2018 05:00","27,2","0","0,8","237","ND","ND"],
    [36470,"08/25/2018 06:00","25,7","0","0,6","202,8","ND","ND"],
    [36471,"08/25/2018 07:00","29,2","0,1","0,7","199,6","ND","ND"],
    [36472,"08/25/2018 08:00","47,6","0,1","1","95,6","ND","ND"],
    [36473,"08/25/2018 09:00","55,6","0,4","1,3","69","ND","ND"],
    [36474,"08/25/2018 10:00","79,2","1,6","1,8","110,5","ND","ND"],
    [36475,"08/25/2018 11:00","66","1","1,5","129,3","ND","ND"],
    [36476,"08/25/2018 12:00","32,6","0,8","1,8","147,7","ND","ND"],
    [36477,"08/25/2018 13:00","42,9","0,5","1,3","114,4","ND","ND"],
    [36478,"08/25/2018 14:00","41,7","0,8","1,6","122,3","ND","ND"],
    [36479,"08/25/2018 15:00","57,2","0,3","2,4","253,1","ND","ND"],
    [36480,"08/25/2018 16:00","48","0","3,7","307,5","ND","ND"],
    [36481,"08/25/2018 17:00","22,9","0","3,5","314,4","ND","ND"],
    [36482,"08/25/2018 18:00","27,7","0","4,4","313,2","ND","ND"],
    [36483,"08/25/2018 19:00","37,7","0","4,2","308,1","ND","ND"],
    [36484,"08/25/2018 20:00","30,9","0","2,7","294","ND","ND"],
    [36485,"08/25/2018 21:00","22,7","0","2,9","282,3","ND","ND"],
    [36486,"08/25/2018 22:00","21,2","0,2","1","150,8","ND","ND"],
    [36487,"08/25/2018 23:00","43,7","0,2","1,1","146","ND","ND"],
    [36488,"08/26/2018 00:00","69,7","0","0,7","230,3","ND","ND"],
    [36489,"08/26/2018 01:00","27,1","0","0,8","174,3","ND","ND"],
    [36490,"08/26/2018 02:00","46,8","0,1","0,8","156,7","ND","ND"],
    [36491,"08/26/2018 03:00","55","0,1","1","200,5","ND","ND"],
    [36492,"08/26/2018 04:00","45,8","0","0,9","181,4","ND","ND"],
    [36493,"08/26/2018 05:00","39,4","0","0,6","180,5","ND","ND"],
    [36494,"08/26/2018 06:00","35,3","0","0,3","169,6","ND","ND"],
    [36495,"08/26/2018 07:00","40,5","0","0,6","145,3","ND","ND"],
    [36496,"08/26/2018 08:00","59,7","0","0,6","215,1","ND","ND"],
    [36497,"08/26/2018 09:00","45,8","0,3","1","122,5","ND","ND"],
    [36498,"08/26/2018 10:00","42,1","1","1,3","85,8","ND","ND"],
    [36499,"08/26/2018 11:00","49,1","1,1","1,5","125,2","ND","ND"],
    [36500,"08/26/2018 12:00","32,5","1","1,5","113,9","ND","ND"],
    [36501,"08/26/2018 13:00","40,4","1,5","1,8","146,4","ND","ND"],
    [36502,"08/26/2018 14:00","35,5","1,2","1,8","107,6","ND","ND"],
    [36503,"08/26/2018 15:00","39,6","0,8","2,3","105,8","ND","ND"],
    [36504,"08/26/2018 16:00","43,5","0,1","3,3","305,3","ND","ND"],
    [36505,"08/26/2018 17:00","30,8","0","3,5","318","ND","ND"],
    [36506,"08/26/2018 18:00","22,1","0","4","305,4","ND","ND"],
    [36507,"08/26/2018 19:00","47,6","0","4,6","308,5","ND","ND"],
    [36508,"08/26/2018 20:00","47,3","0","4,3","311,1","ND","ND"],
    [36509,"08/26/2018 21:00","17,3","0","4,4","302,4","ND","ND"],
    [36510,"08/26/2018 22:00","20,2","0","1,8","245,1","ND","ND"],
    [36511,"08/26/2018 23:00","16,5","0,1","1,1","215,6","ND","ND"],
    [36512,"08/27/2018 00:00","29","0,1","0,8","137,4","ND","ND"],
    [36513,"08/27/2018 01:00","42,6","0,1","1","144,3","ND","ND"],
    [36514,"08/27/2018 02:00","30,4","0","0,6","192,1","ND","ND"],
    [36515,"08/27/2018 03:00","19,4","0","0,7","220,4","ND","ND"],
    [36516,"08/27/2018 04:00","22,1","0","0,9","221,8","ND","ND"],
    [36517,"08/27/2018 05:00","15,2","0","0,9","222,2","ND","ND"],
    [36518,"08/27/2018 06:00","11,6","0","0,9","238,4","ND","ND"],
    [36519,"08/27/2018 07:00","30,9","0,1","0,8","238,5","ND","ND"],
    [36520,"08/27/2018 08:00","ND","ND","0,8","136,4","ND","ND"],
    [36521,"08/27/2018 09:00","ND","1","1","175,1","ND","ND"],
    [36522,"08/27/2018 10:00","ND","1,1","1,3","155,8","ND","ND"],
    [36523,"08/27/2018 11:00","37,2","1,3","1,6","127,5","ND","ND"],
    [36524,"08/27/2018 12:00","37,2","2,8","1,5","136,6","ND","ND"],
    [36525,"08/27/2018 13:00","38,7","3","1,9","142","ND","ND"],
    [36526,"08/27/2018 14:00","40,3","2","1,5","196","ND","ND"],
    [36527,"08/27/2018 15:00","41,9","1,5","2,1","162,7","ND","ND"],
    [36528,"08/27/2018 16:00","36,5","0,6","2,2","150,5","ND","ND"],
    [36529,"08/27/2018 17:00","25,8","0,4","2,2","203,6","ND","ND"],
    [36530,"08/27/2018 18:00","37,5","0","4,2","316,1","ND","ND"],
    [36531,"08/27/2018 19:00","67,2","0","5,7","306,1","ND","ND"],
    [36532,"08/27/2018 20:00","101,5","0","5,3","307,8","ND","ND"],
    [36533,"08/27/2018 21:00","46","0","5","303,2","ND","ND"],
    [36534,"08/27/2018 22:00","29,7","0","1,7","222,4","ND","ND"],
    [36535,"08/27/2018 23:00","26,1","0,1","0,9","166,6","ND","ND"],
    [36536,"08/28/2018 00:00","35,7","0","0,8","221,4","ND","ND"],
    [36537,"08/28/2018 01:00","37,7","0","0,9","221,2","ND","ND"],
    [36538,"08/28/2018 02:00","25,3","0","0,9","239,4","ND","ND"],
    [36539,"08/28/2018 03:00","22,9","0","0,7","215,5","ND","ND"],
    [36540,"08/28/2018 04:00","24","0","0,7","229","ND","ND"],
    [36541,"08/28/2018 05:00","23,8","0,1","0,5","203,7","ND","ND"],
    [36542,"08/28/2018 06:00","33,3","0,1","0,8","239,6","ND","ND"],
    [36543,"08/28/2018 07:00","51,9","0,1","1","245,3","ND","ND"],
    [36544,"08/28/2018 08:00","96,7","0,3","0,6","130,1","ND","ND"],
    [36545,"08/28/2018 09:00","57,8","2,5","1,1","107,3","ND","ND"],
    [36546,"08/28/2018 10:00","58,1","2,9","1,5","111,8","ND","ND"],
    [36547,"08/28/2018 11:00","70,5","3,2","1,4","98,9","ND","ND"],
    [36548,"08/28/2018 12:00","61,6","2,5","1,7","117,7","ND","ND"],
    [36549,"08/28/2018 13:00","62,4","1,9","1,6","140,7","ND","ND"],
    [36550,"08/28/2018 14:00","58","2,4","2,9","160,8","ND","ND"],
    [36551,"08/28/2018 15:00","58,3","1,6","2,3","166,8","ND","ND"],
    [36552,"08/28/2018 16:00","51,2","0,2","4,1","300,4","ND","ND"],
    [36553,"08/28/2018 17:00","46,3","0","4,8","306","ND","ND"],
    [36554,"08/28/2018 18:00","72,9","0","4,9","305,8","ND","ND"],
    [36555,"08/28/2018 19:00","54,2","0","4,3","302","ND","ND"],
    [36556,"08/28/2018 20:00","33,2","0","3,6","309,4","ND","ND"],
    [36557,"08/28/2018 21:00","27","0","4,2","319,3","ND","ND"],
    [36558,"08/28/2018 22:00","20,6","0","2,4","253,6","ND","ND"],
    [36559,"08/28/2018 23:00","19,1","0","1,2","162,8","ND","ND"],
    [36560,"08/29/2018 00:00","46,6","0,2","1,7","155,4","ND","ND"],
    [36561,"08/29/2018 01:00","60,9","0,4","1,4","111,3","ND","ND"],
    [36562,"08/29/2018 02:00","61,7","0,2","1","178,4","ND","ND"],
    [36563,"08/29/2018 03:00","49,2","0,1","0,8","232,2","ND","ND"],
    [36564,"08/29/2018 04:00","41,7","0","0,9","202,8","ND","ND"],
    [36565,"08/29/2018 05:00","34,4","0","0,6","192,1","ND","ND"],
    [36566,"08/29/2018 06:00","37,8","0,2","0,7","167,6","ND","ND"],
    [36567,"08/29/2018 07:00","49,1","0,3","0,8","178,1","ND","ND"],
    [36568,"08/29/2018 08:00","81,1","0,2","0,9","185,4","ND","ND"],
    [36569,"08/29/2018 09:00","75,7","0,4","0,9","155,1","ND","ND"],
    [36570,"08/29/2018 10:00","72,1","1,1","1,3","176,1","ND","ND"],
    [36571,"08/29/2018 11:00","58,4","1,9","1,8","151,8","ND","ND"],
    [36572,"08/29/2018 12:00","57,8","1,8","1,9","122,9","ND","ND"],
    [36573,"08/29/2018 13:00","41,2","1,3","1,5","134,2","ND","ND"],
    [36574,"08/29/2018 14:00","40,2","0,8","2","161","ND","ND"],
    [36575,"08/29/2018 15:00","46,1","0","3,5","304,3","ND","ND"],
    [36576,"08/29/2018 16:00","34,1","0","4","318,3","ND","ND"],
    [36577,"08/29/2018 17:00","24,3","0","4,9","312","ND","ND"],
    [36578,"08/29/2018 18:00","42,1","0","5,5","302,8","ND","ND"],
    [36579,"08/29/2018 19:00","67,2","0","4,9","306","ND","ND"],
    [36580,"08/29/2018 20:00","29,5","0","5,3","305,8","ND","ND"],
    [36581,"08/29/2018 21:00","25,5","0","4,8","300,5","ND","ND"],
    [36582,"08/29/2018 22:00","28,8","0,1","1,3","186,8","ND","ND"],
    [36583,"08/29/2018 23:00","22,2","0,1","1,2","157,1","ND","ND"],
    [36584,"08/30/2018 00:00","45,2","0","1,1","100,2","ND","ND"],
    [36585,"08/30/2018 01:00","37","0,1","0,8","166,9","ND","ND"],
    [36586,"08/30/2018 02:00","35,9","0,2","1,1","198,3","ND","ND"],
    [36587,"08/30/2018 03:00","39,9","0,1","0,9","232,2","ND","ND"],
    [36588,"08/30/2018 04:00","43,3","0","0,8","154","ND","ND"],
    [36589,"08/30/2018 05:00","42","0,1","1","113,1","ND","ND"],
    [36590,"08/30/2018 06:00","35,2","0","0,5","187,3","ND","ND"],
    [36591,"08/30/2018 07:00","51,5","0","0,6","229,4","ND","ND"],
    [36592,"08/30/2018 08:00","76,9","0,4","1,1","144,8","ND","ND"],
    [36593,"08/30/2018 09:00","62,9","0,8","1,3","150,6","ND","ND"],
    [36594,"08/30/2018 10:00","53,3","1,8","1,4","172,7","ND","ND"],
    [36595,"08/30/2018 11:00","45,8","1,7","1,7","129,7","ND","ND"],
    [36596,"08/30/2018 12:00","47","1,5","1,5","138,3","ND","ND"],
    [36597,"08/30/2018 13:00","49,2","0,9","1,6","85,9","ND","ND"],
    [36598,"08/30/2018 14:00","56,2","1,2","1,6","124,3","ND","ND"],
    [36599,"08/30/2018 15:00","53,2","1,9","1,9","204,3","ND","ND"],
    [36600,"08/30/2018 16:00","48,2","0","3","315,8","ND","ND"],
    [36601,"08/30/2018 17:00","37","0,1","3","310,9","ND","ND"],
    [36602,"08/30/2018 18:00","36,4","0","4","310,3","ND","ND"],
    [36603,"08/30/2018 19:00","49","0","5,2","300,9","ND","ND"],
    [36604,"08/30/2018 20:00","50,6","0","5,1","302,4","ND","ND"],
    [36605,"08/30/2018 21:00","28,1","0","4,4","298","ND","ND"],
    [36606,"08/30/2018 22:00","15,8","0,1","1,3","199,2","ND","ND"],
    [36607,"08/30/2018 23:00","44","0,1","0,5","158,5","ND","ND"],
    [36608,"08/31/2018 00:00","66,3","0,1","0,9","211,7","ND","ND"],
    [36609,"08/31/2018 01:00","47,5","0","0,7","161,3","ND","ND"],
    [36610,"08/31/2018 02:00","51,8","0","0,7","191,8","ND","ND"],
    [36611,"08/31/2018 03:00","51,2","0","1","236,4","ND","ND"],
    [36612,"08/31/2018 04:00","42,6","0","0,6","206,9","ND","ND"],
    [36613,"08/31/2018 05:00","36,6","0","0,8","250,2","ND","ND"],
    [36614,"08/31/2018 06:00","41,1","0,1","0,3","159,4","ND","ND"],
    [36615,"08/31/2018 07:00","90","0,1","0,6","142,9","ND","ND"],
    [36616,"08/31/2018 08:00","79,4","0,2","1","113,1","ND","ND"],
    [36617,"08/31/2018 09:00","71,8","0,4","0,9","161,6","ND","ND"],
    [36618,"08/31/2018 10:00","72,9","1,5","1,7","110,8","ND","ND"],
    [36619,"08/31/2018 11:00","63,1","1,4","1,7","129,9","ND","ND"],
    [36620,"08/31/2018 12:00","57","1","1,7","123,6","ND","ND"],
    [36621,"08/31/2018 13:00","56,8","1,3","1,8","87,2","ND","ND"],
    [36622,"08/31/2018 14:00","50,6","0,7","2,6","220","ND","ND"],
    [36623,"08/31/2018 15:00","36,2","0","3,8","278,6","ND","ND"],
    [36624,"08/31/2018 16:00","20,1","0","5,1","310,8","ND","ND"],
    [36625,"08/31/2018 17:00","52,1","0","5,7","303,8","ND","ND"],
    [36626,"08/31/2018 18:00","65,5","0,1","6,2","304,8","ND","ND"],
    [36627,"08/31/2018 19:00","139,4","0,3","5,7","304,9","ND","ND"],
    [36628,"08/31/2018 20:00","148,4","0,4","5,2","306,7","ND","ND"],
    [36629,"08/31/2018 21:00","121,6","0,3","2,9","273,7","ND","ND"],
    [36630,"08/31/2018 22:00","62,7","0","3,1","266,5","ND","ND"],
    [36631,"08/31/2018 23:00","24,4","0,1","1,2","181,4","ND","ND"],
    [36632,"43109","21,9","0,2","1,1","171,3","ND","ND"],
    [36633,"43109,04167","58,5","0,1","1,2","120,4","ND","ND"],
    [36634,"43109,08333","36,7","0","0,6","172,9","ND","ND"],
    [36635,"43109,125","39,6","0","0,8","194,3","ND","ND"],
    [36636,"43109,16667","42,4","0","0,5","152,5","ND","ND"],
    [36637,"43109,20833","40,6","0,1","0,6","225,2","ND","ND"],
    [36638,"43109,25","42,8","0,1","0,8","191,9","ND","ND"],
    [36639,"43109,29167","42,6","0,1","0,6","208,8","ND","ND"],
    [36640,"43109,33333","56,4","0,5","1,1","124,1","ND","ND"],
    [36641,"43109,375","49,8","1,2","1,4","112,8","ND","ND"],
    [36642,"43109,41667","57,6","2,3","1,7","85,3","ND","ND"],
    [36643,"43109,45833","69,2","3,4","1,5","123","ND","ND"],
    [36644,"43109,5","52,1","2,6","1,4","119,6","ND","ND"],
    [36645,"43109,54167","54,7","2,1","1,6","155,2","ND","ND"],
    [36646,"43109,58333","48,2","0,1","4","317,4","ND","ND"],
    [36647,"43109,625","23,5","0,1","4,3","315,3","ND","ND"],
    [36648,"43109,66667","16,8","0","5,8","305,6","ND","ND"],
    [36649,"43109,70833","52,3","0","5,8","307,7","ND","ND"],
    [36650,"43109,75","32,1","0","6,5","300,5","ND","ND"],
    [36651,"43109,79167","51,8","0","6,5","302","ND","ND"],
    [36652,"43109,83333","42,7","0","4,4","301,6","ND","ND"],
    [36653,"43109,875","30,3","0","2,4","256,8","ND","ND"],
    [36654,"43109,91667","22,1","0","1,3","233,4","ND","ND"],
    [36655,"43109,95833","22,5","0,1","0,8","154,8","ND","ND"],
    [36656,"43140","47,4","0,1","1","164,1","ND","ND"],
    [36657,"43140,04167","58,5","0,1","0,7","133,3","ND","ND"],
    [36658,"43140,08333","54,2","0","0,8","242,8","ND","ND"],
    [36659,"43140,125","37,7","0,1","0,6","158,1","ND","ND"],
    [36660,"43140,16667","38,2","0,1","0,5","167,3","ND","ND"],
    [36661,"43140,20833","38,4","0,1","0,9","123,7","ND","ND"],
    [36662,"43140,25","43,7","0,1","0,6","220,5","ND","ND"],
    [36663,"43140,29167","41,4","0,1","0,9","239,4","ND","ND"],
    [36664,"43140,33333","48","0,2","0,6","133,5","ND","ND"],
    [36665,"43140,375","45,2","5,2","1,2","129","ND","ND"],
    [36666,"43140,41667","35,5","6,9","1,6","140,2","ND","ND"],
    [36667,"43140,45833","38,2","5,8","1,8","140","ND","ND"],
    [36668,"43140,5","38,7","3,4","1,6","168,2","ND","ND"],
    [36669,"43140,54167","46","2,2","1,5","158,3","ND","ND"],
    [36670,"43140,58333","48,4","2,4","2,4","192,9","ND","ND"],
    [36671,"43140,625","43,9","0,2","4,5","314,4","ND","ND"],
    [36672,"43140,66667","18,8","0,1","4,8","317,4","ND","ND"],
    [36673,"43140,70833","17,8","0","5,2","317,8","ND","ND"],
    [36674,"43140,75","25,6","0","6,3","306,7","ND","ND"],
    [36675,"43140,79167","48,6","0","6,8","303,7","ND","ND"],
    [36676,"43140,83333","46,4","0","5,3","297,7","ND","ND"],
    [36677,"43140,875","18,9","0,1","1,9","162,7","ND","ND"],
    [36678,"43140,91667","40","0,1","1,1","92,9","ND","ND"],
    [36679,"43140,95833","34,5","0,1","1,9","49,2","ND","ND"],
    [36680,"43168","25,9","0,1","1","83,4","ND","ND"],
    [36681,"43168,04167","28,1","0","0,4","118,7","ND","ND"],
    [36682,"43168,08333","28,2","0","0,9","192,8","ND","ND"],
    [36683,"43168,125","23,6","0","0,6","110,8","ND","ND"],
    [36684,"43168,16667","28,9","0","1","84,5","ND","ND"],
    [36685,"43168,20833","45,7","0,1","0,6","121,4","ND","ND"],
    [36686,"43168,25","43,4","0,1","0,7","215,7","ND","ND"],
    [36687,"43168,29167","64,6","0,1","1,3","238,8","ND","ND"],
    [36688,"43168,33333","54,7","0,2","1","190","ND","ND"],
    [36689,"43168,375","38,3","0,9","1","137,2","ND","ND"],
    [36690,"43168,41667","40,3","0,8","1,6","127,1","ND","ND"],
    [36691,"43168,45833","58,1","1,1","1,7","84,7","ND","ND"],
    [36692,"43168,5","47,6","0,8","1,5","110,7","ND","ND"],
    [36693,"43168,54167","40,9","0,7","1,5","92,3","ND","ND"],
    [36694,"43168,58333","42,3","1,2","1,5","131,4","ND","ND"],
    [36695,"43168,625","48,9","0,9","2,4","150,1","ND","ND"],
    [36696,"43168,66667","31,5","0","3,4","310,3","ND","ND"],
    [36697,"43168,70833","28,5","0","4,3","322","ND","ND"],
    [36698,"43168,75","18,8","2,6","3,9","317,5","ND","ND"],
    [36699,"43168,79167","19,4","1,6","3,7","306,4","ND","ND"],
    [36700,"43168,83333","16,1","0","3,6","311,8","ND","ND"],
    [36701,"43168,875","15,9","0","3,7","299,5","ND","ND"],
    [36702,"43168,91667","13,1","0,1","1,7","218,1","ND","ND"],
    [36703,"43168,95833","24,4","0,1","1","119,1","ND","ND"],
    [36704,"43199","56,6","0,1","0,8","170,8","ND","ND"],
    [36705,"43199,04167","66,5","0","0,7","218","ND","ND"],
    [36706,"43199,08333","42,3","0","0,6","141,2","ND","ND"],
    [36707,"43199,125","45,5","0,3","1,2","144,1","ND","ND"],
    [36708,"43199,16667","49,9","0,1","0,8","159,9","ND","ND"],
    [36709,"43199,20833","42,1","0","0,6","197,5","ND","ND"],
    [36710,"43199,25","38,4","0","0,8","223,5","ND","ND"],
    [36711,"43199,29167","62","0,2","0,8","207,6","ND","ND"],
    [36712,"43199,33333","94,4","0,1","0,5","205","ND","ND"],
    [36713,"43199,375","76,3","0,4","0,9","175,1","ND","ND"],
    [36714,"43199,41667","77","2,2","0,9","158,5","ND","ND"],
    [36715,"43199,45833","73,9","3,5","1,4","137,8","ND","ND"],
    [36716,"43199,5","64,2","2,5","1,6","160,4","ND","ND"],
    [36717,"43199,54167","49,6","1,8","1,8","125,1","ND","ND"],
    [36718,"43199,58333","38,4","1,3","1,9","135","ND","ND"],
    [36719,"43199,625","43,3","0,4","2,9","242,8","ND","ND"],
    [36720,"43199,66667","49,4","0","4,7","319,2","ND","ND"],
    [36721,"43199,70833","36,9","0","4,8","318,8","ND","ND"],
    [36722,"43199,75","31,8","0","5,4","305,4","ND","ND"],
    [36723,"43199,79167","11,2","0","6,1","300,2","ND","ND"],
    [36724,"43199,83333","ND","0","3,9","297,8","ND","ND"],
    [36725,"43199,875","19,4","0,1","1,5","197,3","ND","ND"],
    [36726,"43199,91667","40,8","0,1","1","202,9","ND","ND"],
    [36727,"43199,95833","55,3","0","0,8","233,4","ND","ND"],
    [36728,"43229","60,7","0","1,1","204,3","ND","ND"],
    [36729,"43229,04167","22,9","0","1","200,2","ND","ND"],
    [36730,"43229,08333","19,2","0,4","1,2","204,5","ND","ND"],
    [36731,"43229,125","56,1","0","0,8","151","ND","ND"],
    [36732,"43229,16667","29,4","0,2","1,2","176,8","ND","ND"],
    [36733,"43229,20833","38","0","0,6","134,1","ND","ND"],
    [36734,"43229,25","34","0,1","0,9","179,3","ND","ND"],
    [36735,"43229,29167","33,2","0,1","0,6","201","ND","ND"],
    [36736,"43229,33333","47","0,6","0,7","167,5","ND","ND"],
    [36737,"43229,375","50,8","2,7","1,3","129","ND","ND"],
    [36738,"43229,41667","58,6","1","1,1","125,8","ND","ND"],
    [36739,"43229,45833","56,3","0,6","1,5","103,3","ND","ND"],
    [36740,"43229,5","51","0,4","1,7","95,9","ND","ND"],
    [36741,"43229,54167","39,9","0,6","2","100,6","ND","ND"],
    [36742,"43229,58333","38,9","0,3","1,8","105,8","ND","ND"],
    [36743,"43229,625","35,3","0,1","1,6","178,2","ND","ND"],
    [36744,"43229,66667","31,9","0","4,3","305,6","ND","ND"],
    [36745,"43229,70833","38,8","0","5,1","304,1","ND","ND"],
    [36746,"43229,75","29,1","0","5,2","302,5","ND","ND"],
    [36747,"43229,79167","29,7","0","4,1","315,7","ND","ND"],
    [36748,"43229,83333","18,5","0","2,6","313,4","ND","ND"],
    [36749,"43229,875","18,6","0","1,5","196,5","ND","ND"],
    [36750,"43229,91667","50,6","0","0,8","189,9","ND","ND"],
    [36751,"43229,95833","62,6","0","1,4","223,5","ND","ND"],
    [36752,"43260","40,8","0","0,9","145,3","ND","ND"],
    [36753,"43260,04167","45,1","0,1","1","164","ND","ND"],
    [36754,"43260,08333","36,4","0,1","0,8","183,2","ND","ND"],
    [36755,"43260,125","29,2","0","0,6","230,9","ND","ND"],
    [36756,"43260,16667","31,9","0","0,6","151,3","ND","ND"],
    [36757,"43260,20833","33,4","0","0,8","205,2","ND","ND"],
    [36758,"43260,25","40","0","1","238,2","ND","ND"],
    [36759,"43260,29167","52,2","0,1","0,7","217,4","ND","ND"],
    [36760,"43260,33333","72,3","0,5","1,1","195,1","ND","ND"],
    [36761,"43260,375","65,2","2,5","1,1","110,1","ND","ND"],
    [36762,"43260,41667","64,5","5,3","1,4","130,6","ND","ND"],
    [36763,"43260,45833","63,7","2,4","1,4","148,1","ND","ND"],
    [36764,"43260,5","40,8","2","1,6","151,9","ND","ND"],
    [36765,"43260,54167","41,4","2,1","1,7","121,5","ND","ND"],
    [36766,"43260,58333","41,6","1,6","1,4","108,6","ND","ND"],
    [36767,"43260,625","37,7","0,5","3,1","236,7","ND","ND"],
    [36768,"43260,66667","47,2","0","5","315,8","ND","ND"],
    [36769,"43260,70833","37","0","5,5","303,3","ND","ND"],
    [36770,"43260,75","37,3","0,1","5,6","305,6","ND","ND"],
    [36771,"43260,79167","30,7","0","5,4","307,3","ND","ND"],
    [36772,"43260,83333","29,3","0","5,4","311,3","ND","ND"],
    [36773,"43260,875","19,2","0,2","2,3","236,2","ND","ND"],
    [36774,"43260,91667","24,6","0,2","0,7","172,6","ND","ND"],
    [36775,"43260,95833","43","0,1","1,1","192,7","ND","ND"],
    [36776,"43290","60,8","0","0,7","195,6","ND","ND"],
    [36777,"43290,04167","38,6","0,1","1,3","149,6","ND","ND"],
    [36778,"43290,08333","37,4","0","1,4","156","ND","ND"],
    [36779,"43290,125","34","0","0,5","183,9","ND","ND"],
    [36780,"43290,16667","34,6","0","0,7","207,5","ND","ND"],
    [36781,"43290,20833","39,2","0","0,4","144,6","ND","ND"],
    [36782,"43290,25","48,6","0,1","0,8","166,7","ND","ND"],
    [36783,"43290,29167","47,7","0,1","0,6","157,5","ND","ND"],
    [36784,"43290,33333","51,7","0,2","0,9","194","ND","ND"],
    [36785,"43290,375","60,9","0,7","0,9","119,6","ND","ND"],
    [36786,"43290,41667","48,9","3,1","1,5","117,6","ND","ND"],
    [36787,"43290,45833","44,4","1,5","1,2","116,7","ND","ND"],
    [36788,"43290,5","31,6","1,2","1,6","127,1","ND","ND"],
    [36789,"43290,54167","25,9","3,9","1,9","139,6","ND","ND"],
    [36790,"43290,58333","47,2","2,5","1,4","154,6","ND","ND"],
    [36791,"43290,625","37","0,4","1,6","274,6","ND","ND"],
    [36792,"43290,66667","15,7","0","3,3","283,2","ND","ND"],
    [36793,"43290,70833","12,8","0","4","310,7","ND","ND"],
    [36794,"43290,75","9,8","0","3,2","319,8","ND","ND"],
    [36795,"43290,79167","21,9","0,1","1,5","251,8","ND","ND"],
    [36796,"43290,83333","32,4","0,1","1,2","198,7","ND","ND"],
    [36797,"43290,875","43,6","0,2","0,7","181,3","ND","ND"],
    [36798,"43290,91667","56,6","0,1","0,8","210,3","ND","ND"],
    [36799,"43290,95833","70,7","0,1","0,6","225,2","ND","ND"],
    [36800,"43321","79","0,1","0,7","226,9","ND","ND"],
    [36801,"43321,04167","46","0,1","0,7","190,1","ND","ND"],
    [36802,"43321,08333","38,3","0,1","1","147,6","ND","ND"],
    [36803,"43321,125","36,9","0","0,6","160,7","ND","ND"],
    [36804,"43321,16667","34,4","0","0,9","133,7","ND","ND"],
    [36805,"43321,20833","31","0,2","1","151,7","ND","ND"],
    [36806,"43321,25","34,3","0,3","0,8","139,4","ND","ND"],
    [36807,"43321,29167","38,4","0,2","0,7","219,1","ND","ND"],
    [36808,"43321,33333","60,3","0,1","0,8","147","ND","ND"],
    [36809,"43321,375","42,9","0,9","1,3","114,9","ND","ND"],
    [36810,"43321,41667","54,4","2,9","1,5","139,3","ND","ND"],
    [36811,"43321,45833","47,1","2,4","1,7","112","ND","ND"],
    [36812,"43321,5","57,9","2","1,7","146","ND","ND"],
    [36813,"43321,54167","56,3","1,5","1,5","160","ND","ND"],
    [36814,"43321,58333","55,8","1,3","1,6","159,9","ND","ND"],
    [36815,"43321,625","55,7","1,4","1,8","89,5","ND","ND"],
    [36816,"43321,66667","59,3","1,2","1,3","104,4","ND","ND"],
    [36817,"43321,70833","53,7","0,4","2,7","270,8","ND","ND"],
    [36818,"43321,75","60,5","0","3,9","323,8","ND","ND"],
    [36819,"43321,79167","45,7","0","3,3","311,3","ND","ND"],
    [36820,"43321,83333","39,7","0","3,1","312,2","ND","ND"],
    [36821,"43321,875","28,7","0","3,3","303,1","ND","ND"],
    [36822,"43321,91667","29,7","0,1","2,8","267,9","ND","ND"],
    [36823,"43321,95833","37,8","0,1","0,6","155,2","ND","ND"],
    [36824,"43352","43,6","0,1","0,6","197,2","ND","ND"],
    [36825,"43352,04167","42","0,1","0,5","215,6","ND","ND"],
    [36826,"43352,08333","49,9","0","0,6","182","ND","ND"],
    [36827,"43352,125","38,2","0","0,9","254,1","ND","ND"],
    [36828,"43352,16667","34,7","0","0,7","210,8","ND","ND"],
    [36829,"43352,20833","41,1","0","0,8","215,4","ND","ND"],
    [36830,"43352,25","35,7","0","0,6","217,1","ND","ND"],
    [36831,"43352,29167","42,4","0","0,9","226","ND","ND"],
    [36832,"43352,33333","40,8","0,1","0,7","65,2","ND","ND"],
    [36833,"43352,375","42,7","0,2","0,8","94,1","ND","ND"],
    [36834,"43352,41667","76","1,8","1,6","104,5","ND","ND"],
    [36835,"43352,45833","55","2,1","1,2","120,8","ND","ND"],
    [36836,"43352,5","44,7","1,9","1,1","130,2","ND","ND"],
    [36837,"43352,54167","48,6","2","1,2","170,3","ND","ND"],
    [36838,"43352,58333","46","1,8","1,7","126,1","ND","ND"],
    [36839,"43352,625","39,9","1,7","2,6","158,5","ND","ND"],
    [36840,"43352,66667","31,8","1,4","1,5","133","ND","ND"],
    [36841,"43352,70833","33,1","0,9","1,7","216,2","ND","ND"],
    [36842,"43352,75","45,4","0","3,6","306,4","ND","ND"],
    [36843,"43352,79167","38,3","0","3,1","319","ND","ND"],
    [36844,"43352,83333","22","0","1,9","280,2","ND","ND"],
    [36845,"43352,875","31,8","0,1","1,4","235,2","ND","ND"],
    [36846,"43352,91667","28,5","0,1","2","253,4","ND","ND"],
    [36847,"43352,95833","28,2","0,1","1,1","200,8","ND","ND"],
    [36848,"43382","50,3","0,1","0,7","136,3","ND","ND"],
    [36849,"43382,04167","56,1","0","1","232,8","ND","ND"],
    [36850,"43382,08333","29,8","0","0,6","207,2","ND","ND"],
    [36851,"43382,125","34,6","0","0,7","217,9","ND","ND"],
    [36852,"43382,16667","31,4","0","0,5","178,7","ND","ND"],
    [36853,"43382,20833","36,1","0","0,8","236","ND","ND"],
    [36854,"43382,25","46,2","0","0,7","230,3","ND","ND"],
    [36855,"43382,29167","85,2","0,1","1","227,7","ND","ND"],
    [36856,"43382,33333","76,6","0,3","0,7","127,5","ND","ND"],
    [36857,"43382,375","84,3","2","1,1","117,6","ND","ND"],
    [36858,"43382,41667","76,5","2","1,4","106","ND","ND"],
    [36859,"43382,45833","67,5","ND","1,7","119,6","ND","ND"],
    [36860,"43382,5","56,3","1,6","1,7","162,1","ND","ND"],
    [36861,"43382,54167","47,5","1,4","1,5","132,3","ND","ND"],
    [36862,"43382,58333","37,4","0,9","2,1","100,2","ND","ND"],
    [36863,"43382,625","42,5","1,4","1,9","97,8","ND","ND"],
    [36864,"43382,66667","43,3","0,8","2,4","212","ND","ND"],
    [36865,"43382,70833","50,2","0","3,7","319","ND","ND"],
    [36866,"43382,75","45,2","0","4,6","306,6","ND","ND"],
    [36867,"43382,79167","48,4","0","5,6","303,1","ND","ND"],
    [36868,"43382,83333","37,4","0","5,3","300,9","ND","ND"],
    [36869,"43382,875","29,7","0","3,9","306,3","ND","ND"],
    [36870,"43382,91667","24,9","0,1","1,3","219,7","ND","ND"],
    [36871,"43382,95833","64,2","0,1","0,7","196,1","ND","ND"],
    [36872,"43413","50,1","0","0,6","160,2","ND","ND"],
    [36873,"43413,04167","35,9","0","0,5","130,6","ND","ND"],
    [36874,"43413,08333","60,9","0","0,7","209,4","ND","ND"],
    [36875,"43413,125","33,2","0","0,8","226,4","ND","ND"],
    [36876,"43413,16667","36,2","0","0,9","240,2","ND","ND"],
    [36877,"43413,20833","37,4","0,1","1","230,4","ND","ND"],
    [36878,"43413,25","37,7","0","0,8","239,9","ND","ND"],
    [36879,"43413,29167","55,5","0,1","1","243,2","ND","ND"],
    [36880,"43413,33333","64,8","0,4","0,8","106,4","ND","ND"],
    [36881,"43413,375","98,3","0,6","1,2","91,6","ND","ND"],
    [36882,"43413,41667","86,6","1,3","1,4","128,1","ND","ND"],
    [36883,"43413,45833","56,4","1,4","1,6","143,6","ND","ND"],
    [36884,"43413,5","50,6","1,3","1,6","145,9","ND","ND"],
    [36885,"43413,54167","51,4","1,3","1,7","112,7","ND","ND"],
    [36886,"43413,58333","50,2","1","1,4","127,2","ND","ND"],
    [36887,"43413,625","47,3","1,1","1,5","189,4","ND","ND"],
    [36888,"43413,66667","52,6","0,5","3,2","261,1","ND","ND"],
    [36889,"43413,70833","49,3","0","5,4","307,8","ND","ND"],
    [36890,"43413,75","36,3","0","6,4","302,4","ND","ND"],
    [36891,"43413,79167","64,2","0","5,3","310,6","ND","ND"],
    [36892,"43413,83333","19,7","0","4,3","323,8","ND","ND"],
    [36893,"43413,875","10,1","0","2","232,2","ND","ND"],
    [36894,"43413,91667","40,8","0,1","1,1","184,5","ND","ND"],
    [36895,"43413,95833","63,8","0,1","0,7","142,1","ND","ND"],
    [36896,"43443","50,9","0,1","0,7","151,2","ND","ND"],
    [36897,"43443,04167","44,4","0","0,9","207,3","ND","ND"],
    [36898,"43443,08333","36,6","0","0,7","203,2","ND","ND"],
    [36899,"43443,125","35,7","0","0,7","203,7","ND","ND"],
    [36900,"43443,16667","34,6","0","0,8","221,2","ND","ND"],
    [36901,"43443,20833","33,6","0,2","0,9","220,5","ND","ND"],
    [36902,"43443,25","41,5","0,1","0,9","237","ND","ND"],
    [36903,"43443,29167","57,8","0,1","0,8","245,9","ND","ND"],
    [36904,"43443,33333","72,6","0,6","0,9","163,2","ND","ND"],
    [36905,"43443,375","101,8","1,1","1,1","136,2","ND","ND"],
    [36906,"43443,41667","80,4","1,9","1","131,8","ND","ND"],
    [36907,"43443,45833","64,3","2,7","1,4","106","ND","ND"],
    [36908,"43443,5","58,9","2,9","1,8","120,4","ND","ND"],
    [36909,"43443,54167","70,8","4,6","2,3","100,9","ND","ND"],
    [36910,"43443,58333","68,2","0","5,1","300,7","ND","ND"],
    [36911,"43443,625","25,3","0","4,9","314,3","ND","ND"],
    [36912,"43443,66667","20,9","0","4,5","305,7","ND","ND"],
    [36913,"43443,70833","16","0","4,5","317,4","ND","ND"],
    [36914,"43443,75","20,5","0","5,3","317,7","ND","ND"],
    [36915,"43443,79167","25","0","5,3","309","ND","ND"],
    [36916,"43443,83333","16","0","3,9","303,5","ND","ND"],
    [36917,"43443,875","32,8","0","1,7","247,4","ND","ND"],
    [36918,"43443,91667","30,9","0","0,9","248,3","ND","ND"],
    [36919,"43443,95833","36","0","1,2","231,4","ND","ND"],
    [36920,"09/13/2018 00:00","26,9","0","0,7","231,8","ND","ND"],
    [36921,"09/13/2018 01:00","34,4","0","0,5","161,4","ND","ND"],
    [36922,"09/13/2018 02:00","29,8","0","0,6","230,8","ND","ND"],
    [36923,"09/13/2018 03:00","32","0","0,8","230,7","ND","ND"],
    [36924,"09/13/2018 04:00","21,3","0","0,9","239,3","ND","ND"],
    [36925,"09/13/2018 05:00","22,1","0","0,6","154,1","ND","ND"],
    [36926,"09/13/2018 06:00","36,2","0,1","0,6","168,1","ND","ND"],
    [36927,"09/13/2018 07:00","48,4","0","0,9","94,8","ND","ND"],
    [36928,"09/13/2018 08:00","63,6","0,1","1","106,2","ND","ND"],
    [36929,"09/13/2018 09:00","51,8","0,1","0,7","104,8","ND","ND"],
    [36930,"09/13/2018 10:00","45,1","0,4","1,4","139,5","ND","ND"],
    [36931,"09/13/2018 11:00","39,7","0,9","1,1","192,7","ND","ND"],
    [36932,"09/13/2018 12:00","43,4","0,3","0,7","196,6","ND","ND"],
    [36933,"09/13/2018 13:00","29,1","0,1","1,2","166,1","ND","ND"],
    [36934,"09/13/2018 14:00","12,2","0,7","1,9","79,4","ND","ND"],
    [36935,"09/13/2018 15:00","49,1","1,2","2,2","70,6","ND","ND"],
    [36936,"09/13/2018 16:00","37,2","0,9","2,4","128,1","ND","ND"],
    [36937,"09/13/2018 17:00","43,9","0,8","2,8","160","ND","ND"],
    [36938,"09/13/2018 18:00","44,7","0","2,2","175,7","ND","ND"],
    [36939,"09/13/2018 19:00","32,3","0","1","187","ND","ND"],
    [36940,"09/13/2018 20:00","20,3","0,1","1","123,9","ND","ND"],
    [36941,"09/13/2018 21:00","16,3","0,2","1","134,4","ND","ND"],
    [36942,"09/13/2018 22:00","17,5","0,1","0,5","135,2","ND","ND"],
    [36943,"09/13/2018 23:00","17,6","0","0,5","150,2","ND","ND"],
    [36944,"09/14/2018 00:00","13,6","0,1","0,7","167,3","ND","ND"],
    [36945,"09/14/2018 01:00","14,3","0","1","122,1","ND","ND"],
    [36946,"09/14/2018 02:00","9,3","0","1,1","167,5","ND","ND"],
    [36947,"09/14/2018 03:00","3,2","0","0,6","88,6","ND","ND"],
    [36948,"09/14/2018 04:00","1,8","0","0,5","52,4","ND","ND"],
    [36949,"09/14/2018 05:00","6","0","0,5","58,7","ND","ND"],
    [36950,"09/14/2018 06:00","10,4","0","0,6","51","ND","ND"],
    [36951,"09/14/2018 07:00","10,3","0,1","1","79,3","ND","ND"],
    [36952,"09/14/2018 08:00","19,1","0,2","0,8","129","ND","ND"],
    [36953,"09/14/2018 09:00","19,7","0,1","0,6","184,8","ND","ND"],
    [36954,"09/14/2018 10:00","20","0,2","1,1","163,1","ND","ND"],
    [36955,"09/14/2018 11:00","27,1","0,2","0,8","192,1","ND","ND"],
    [36956,"09/14/2018 12:00","22,8","0,2","0,9","187,5","ND","ND"],
    [36957,"09/14/2018 13:00","14,1","0,2","1","201,5","ND","ND"],
    [36958,"09/14/2018 14:00","12,8","0,1","1,4","102","ND","ND"],
    [36959,"09/14/2018 15:00","36,2","0,1","1,4","115","ND","ND"],
    [36960,"09/14/2018 16:00","42,7","0,7","1,3","109,6","ND","ND"],
    [36961,"09/14/2018 17:00","43,1","0,1","3","267,6","ND","ND"],
    [36962,"09/14/2018 18:00","17,3","0,2","2,2","264","ND","ND"],
    [36963,"09/14/2018 19:00","36,5","0,2","2,1","183,5","ND","ND"],
    [36964,"09/14/2018 20:00","24,3","0","1,1","154","ND","ND"],
    [36965,"09/14/2018 21:00","31,3","0","1","159,9","ND","ND"],
    [36966,"09/14/2018 22:00","25,1","0,1","0,7","73,2","ND","ND"],
    [36967,"09/14/2018 23:00","18,6","0","0,8","140,7","ND","ND"],
    [36968,"09/15/2018 00:00","16,2","0,1","0,5","63,4","ND","ND"],
    [36969,"09/15/2018 01:00","19,1","0,1","0,8","86,9","ND","ND"],
    [36970,"09/15/2018 02:00","14","0","0,9","141,9","ND","ND"],
    [36971,"09/15/2018 03:00","13,4","0","0,8","141,7","ND","ND"],
    [36972,"09/15/2018 04:00","19,4","0","0,8","84,9","ND","ND"],
    [36973,"09/15/2018 05:00","18,6","0","0,8","104","ND","ND"],
    [36974,"09/15/2018 06:00","11,6","0","0,8","100,9","ND","ND"],
    [36975,"09/15/2018 07:00","11,6","0","0,8","69,4","ND","ND"],
    [36976,"09/15/2018 08:00","15,3","0","0,7","134,2","ND","ND"],
    [36977,"09/15/2018 09:00","23,7","0,1","0,9","89,9","ND","ND"],
    [36978,"09/15/2018 10:00","30,7","0","1","145","ND","ND"],
    [36979,"09/15/2018 11:00","21,3","0","0,6","172,7","ND","ND"],
    [36980,"09/15/2018 12:00","27,9","0,1","0,6","158,5","ND","ND"],
    [36981,"09/15/2018 13:00","29,6","0,2","0,9","111,7","ND","ND"],
    [36982,"09/15/2018 14:00","27,2","0,1","0,7","171,8","ND","ND"],
    [36983,"09/15/2018 15:00","33,1","0,1","1,1","117,1","ND","ND"],
    [36984,"09/15/2018 16:00","31,2","0,1","0,8","94,4","ND","ND"],
    [36985,"09/15/2018 17:00","35,4","0,1","0,8","131,6","ND","ND"],
    [36986,"09/15/2018 18:00","45,3","0,1","0,7","135,7","ND","ND"],
    [36987,"09/15/2018 19:00","47","0,1","0,8","167,4","ND","ND"],
    [36988,"09/15/2018 20:00","40,9","0","1,6","253,1","ND","ND"],
    [36989,"09/15/2018 21:00","26,7","0,1","1,1","156,8","ND","ND"],
    [36990,"09/15/2018 22:00","30,7","0,1","0,5","134,8","ND","ND"],
    [36991,"09/15/2018 23:00","20,1","0","0,4","185,8","ND","ND"],
    [36992,"09/16/2018 00:00","20,4","0,1","0,5","215,8","ND","ND"],
    [36993,"09/16/2018 01:00","17,3","0","0,2","111,5","ND","ND"],
    [36994,"09/16/2018 02:00","19,3","0","0,8","205,8","ND","ND"],
    [36995,"09/16/2018 03:00","17","0","0,6","166,8","ND","ND"],
    [36996,"09/16/2018 04:00","16,5","0","0,6","157,7","ND","ND"],
    [36997,"09/16/2018 05:00","14,7","0","0,8","99,2","ND","ND"],
    [36998,"09/16/2018 06:00","6,4","0","0,7","165","ND","ND"],
    [36999,"09/16/2018 07:00","10","0","0,6","143,9","ND","ND"],
    [37000,"09/16/2018 08:00","14,7","0","0,8","142,4","ND","ND"],
    [37001,"09/16/2018 09:00","11,7","0,1","0,8","141,8","ND","ND"],
    [37002,"09/16/2018 10:00","17,3","0,2","0,6","123,2","ND","ND"],
    [37003,"09/16/2018 11:00","18,5","0,5","1,1","130,8","ND","ND"],
    [37004,"09/16/2018 12:00","14,3","1","1","135,5","ND","ND"],
    [37005,"09/16/2018 13:00","20,5","0,5","1","157,3","ND","ND"],
    [37006,"09/16/2018 14:00","15,2","0,1","0,9","112,7","ND","ND"],
    [37007,"09/16/2018 15:00","17,4","0,1","1,4","175,8","ND","ND"],
    [37008,"09/16/2018 16:00","17,7","0,1","1,2","118,2","ND","ND"],
    [37009,"09/16/2018 17:00","33,7","0,1","0,7","192","ND","ND"],
    [37010,"09/16/2018 18:00","46","0,1","0,9","119,5","ND","ND"],
    [37011,"09/16/2018 19:00","43,7","0,1","1,1","80","ND","ND"],
    [37012,"09/16/2018 20:00","45,5","0,1","1","226,9","ND","ND"],
    [37013,"09/16/2018 21:00","63,1","0,1","0,7","214,8","ND","ND"],
    [37014,"09/16/2018 22:00","55","0,1","0,9","234,6","ND","ND"],
    [37015,"09/16/2018 23:00","52,1","0","0,7","203","ND","ND"],
    [37016,"09/17/2018 00:00","41,6","0","0,7","246,6","ND","ND"],
    [37017,"09/17/2018 01:00","33,7","0","0,4","184,3","ND","ND"],
    [37018,"09/17/2018 02:00","31,8","0","0,6","168","ND","ND"],
    [37019,"09/17/2018 03:00","27","0","0,7","54,1","ND","ND"],
    [37020,"09/17/2018 04:00","42,7","0","0,6","186,4","ND","ND"],
    [37021,"09/17/2018 05:00","32","0","0,6","197,4","ND","ND"],
    [37022,"09/17/2018 06:00","39,3","0","1","127,5","ND","ND"],
    [37023,"09/17/2018 07:00","50,6","0,1","0,6","129,8","ND","ND"],
    [37024,"09/17/2018 08:00","57,2","0,3","0,7","155,1","ND","ND"],
    [37025,"09/17/2018 09:00","63,4","0,5","1","127,7","ND","ND"],
    [37026,"09/17/2018 10:00","62,2","0,4","1,1","105","ND","ND"],
    [37027,"09/17/2018 11:00","35,6","0,5","1,3","113,6","ND","ND"],
    [37028,"09/17/2018 12:00","28,7","0,1","1,5","109,6","ND","ND"],
    [37029,"09/17/2018 13:00","35,7","0,1","1,4","173,8","ND","ND"],
    [37030,"09/17/2018 14:00","37,4","0,2","1,4","136,5","ND","ND"],
    [37031,"09/17/2018 15:00","42,5","0,4","1,5","105,8","ND","ND"],
    [37032,"09/17/2018 16:00","52,4","2,3","2,1","155,6","ND","ND"],
    [37033,"09/17/2018 17:00","54,9","0","4,5","319,8","ND","ND"],
    [37034,"09/17/2018 18:00","25,6","0","4,9","306,9","ND","ND"],
    [37035,"09/17/2018 19:00","21,8","0","4,3","312,7","ND","ND"],
    [37036,"09/17/2018 20:00","23,8","0","2","237,1","ND","ND"],
    [37037,"09/17/2018 21:00","28,9","0,1","0,5","152,1","ND","ND"],
    [37038,"09/17/2018 22:00","46,4","0,1","0,7","213,7","ND","ND"],
    [37039,"09/17/2018 23:00","55","0,1","0,6","186,3","ND","ND"],
    [37040,"09/18/2018 00:00","57,4","0","0,8","224,5","ND","ND"],
    [37041,"09/18/2018 01:00","37,3","0","0,7","224,1","ND","ND"],
    [37042,"09/18/2018 02:00","35,1","0","0,7","224,8","ND","ND"],
    [37043,"09/18/2018 03:00","27,3","0","0,7","220,8","ND","ND"],
    [37044,"09/18/2018 04:00","22,8","0","0,6","215,4","ND","ND"],
    [37045,"09/18/2018 05:00","29,7","0,1","0,8","230,7","ND","ND"],
    [37046,"09/18/2018 06:00","41,9","0","0,8","204,2","ND","ND"],
    [37047,"09/18/2018 07:00","46","0","1,1","219","ND","ND"],
    [37048,"09/18/2018 08:00","58,9","0,3","1","134,4","ND","ND"],
    [37049,"09/18/2018 09:00","63,3","0,4","1,3","149","ND","ND"],
    [37050,"09/18/2018 10:00","43,3","1","1,3","123,9","ND","ND"],
    [37051,"09/18/2018 11:00","46,2","2","1,4","128,9","ND","ND"],
    [37052,"09/18/2018 12:00","42,8","2,2","1,8","105,8","ND","ND"],
    [37053,"09/18/2018 13:00","50","1,6","1,5","114,6","ND","ND"],
    [37054,"09/18/2018 14:00","48,1","1,7","1,7","133,6","ND","ND"],
    [37055,"09/18/2018 15:00","41,4","0","4,9","311,7","ND","ND"],
    [37056,"09/18/2018 16:00","26,6","0","5,2","311,8","ND","ND"],
    [37057,"09/18/2018 17:00","23,6","0","7,3","301,7","ND","ND"],
    [37058,"09/18/2018 18:00","22,5","0","4,5","303,9","ND","ND"],
    [37059,"09/18/2018 19:00","0,6","0","1,7","191,9","ND","ND"],
    [37060,"09/18/2018 20:00","55,9","0,2","1,9","134,8","ND","ND"],
    [37061,"09/18/2018 21:00","44","0","1","207,6","ND","ND"],
    [37062,"09/18/2018 22:00","33,2","0,1","0,8","145,1","ND","ND"],
    [37063,"09/18/2018 23:00","36,6","0,2","1","188,3","ND","ND"],
    [37064,"09/19/2018 00:00","49,8","0,1","1,1","143","ND","ND"],
    [37065,"09/19/2018 01:00","39,9","0","0,9","139,9","ND","ND"],
    [37066,"09/19/2018 02:00","21,6","0","1,1","243,4","ND","ND"],
    [37067,"09/19/2018 03:00","24,1","0","1,5","247,3","ND","ND"],
    [37068,"09/19/2018 04:00","15,1","0","1,2","212,2","ND","ND"],
    [37069,"09/19/2018 05:00","16,2","0","0,8","100,7","ND","ND"],
    [37070,"09/19/2018 06:00","29,5","0,1","0,9","71,7","ND","ND"],
    [37071,"09/19/2018 07:00","41,6","0,1","0,7","136,2","ND","ND"],
    [37072,"09/19/2018 08:00","65,1","0,1","0,6","187,5","ND","ND"],
    [37073,"09/19/2018 09:00","48,7","0,3","0,7","83","ND","ND"],
    [37074,"09/19/2018 10:00","45,8","1,5","1,4","98,9","ND","ND"],
    [37075,"09/19/2018 11:00","59","2","1,5","121","ND","ND"],
    [37076,"09/19/2018 12:00","59,7","1,9","1,6","116,8","ND","ND"],
    [37077,"09/19/2018 13:00","56,7","2,3","1,7","116,3","ND","ND"],
    [37078,"09/19/2018 14:00","56,9","1","2,3","209,2","ND","ND"],
    [37079,"09/19/2018 15:00","24,9","0","3,9","309,4","ND","ND"],
    [37080,"09/19/2018 16:00","16,4","0","4,6","313,6","ND","ND"],
    [37081,"09/19/2018 17:00","21,6","0","6","307,6","ND","ND"],
    [37082,"09/19/2018 18:00","31,4","0","6,1","310,3","ND","ND"],
    [37083,"09/19/2018 19:00","22,2","0","5,2","309,7","ND","ND"],
    [37084,"09/19/2018 20:00","11,3","0","2,9","191","ND","ND"],
    [37085,"09/19/2018 21:00","39","0,2","1,3","96,7","ND","ND"],
    [37086,"09/19/2018 22:00","41","0,1","0,9","190,1","ND","ND"],
    [37087,"09/19/2018 23:00","48,6","0,1","0,6","206,1","ND","ND"],
    [37088,"09/20/2018 00:00","44,1","0,1","0,6","164,9","ND","ND"],
    [37089,"09/20/2018 01:00","29,9","0","0,7","129,8","ND","ND"],
    [37090,"09/20/2018 02:00","27,8","0","0,9","216,5","ND","ND"],
    [37091,"09/20/2018 03:00","22,5","0","0,7","231,1","ND","ND"],
    [37092,"09/20/2018 04:00","25,4","0","0,6","251,3","ND","ND"],
    [37093,"09/20/2018 05:00","25","0","0,6","191,3","ND","ND"],
    [37094,"09/20/2018 06:00","25,7","0,1","0,6","194,1","ND","ND"],
    [37095,"09/20/2018 07:00","72,9","0,1","0,9","214,9","ND","ND"],
    [37096,"09/20/2018 08:00","65","1","0,7","117","ND","ND"],
    [37097,"09/20/2018 09:00","94,7","3,8","1,2","108,7","ND","ND"],
    [37098,"09/20/2018 10:00","90,6","7,2","1,4","123,2","ND","ND"],
    [37099,"09/20/2018 11:00","71,9","4,7","1,1","103,3","ND","ND"],
    [37100,"09/20/2018 12:00","49,5","3,8","1,6","135,7","ND","ND"],
    [37101,"09/20/2018 13:00","58","3,5","1,7","156,8","ND","ND"],
    [37102,"09/20/2018 14:00","57,5","2,3","2,3","139,3","ND","ND"],
    [37103,"09/20/2018 15:00","72,3","0,2","3,9","311,8","ND","ND"],
    [37104,"09/20/2018 16:00","34,5","0","3,9","304,4","ND","ND"],
    [37105,"09/20/2018 17:00","26,2","0","4,6","312,7","ND","ND"],
    [37106,"09/20/2018 18:00","25,3","0","6","305,2","ND","ND"],
    [37107,"09/20/2018 19:00","30,2","0","5,7","305,4","ND","ND"],
    [37108,"09/20/2018 20:00","21,4","0","6,1","297,2","ND","ND"],
    [37109,"09/20/2018 21:00","25,9","0","4,5","291,3","ND","ND"],
    [37110,"09/20/2018 22:00","13,8","0,1","1,3","183,2","ND","ND"],
    [37111,"09/20/2018 23:00","35,8","0,2","1,6","170,1","ND","ND"],
    [37112,"09/21/2018 00:00","59,9","0,1","0,7","180,7","ND","ND"],
    [37113,"09/21/2018 01:00","49","0,1","0,4","160,9","ND","ND"],
    [37114,"09/21/2018 02:00","39,7","0","0,7","214","ND","ND"],
    [37115,"09/21/2018 03:00","37,3","0","0,6","178,3","ND","ND"],
    [37116,"09/21/2018 04:00","36,2","0","0,9","234,4","ND","ND"],
    [37117,"09/21/2018 05:00","26,2","0","0,8","233,4","ND","ND"],
    [37118,"09/21/2018 06:00","31,9","0,3","0,7","226,4","ND","ND"],
    [37119,"09/21/2018 07:00","55,2","0,1","0,7","195,3","ND","ND"],
    [37120,"09/21/2018 08:00","61","0,4","0,7","101,2","ND","ND"],
    [37121,"09/21/2018 09:00","79,3","1,1","0,9","118,8","ND","ND"],
    [37122,"09/21/2018 10:00","59,5","1,9","1,6","116,8","ND","ND"],
    [37123,"09/21/2018 11:00","52,8","2,2","1,6","127","ND","ND"],
    [37124,"09/21/2018 12:00","46,8","1,7","1,8","82,9","ND","ND"],
    [37125,"09/21/2018 13:00","44,5","1,2","1,4","138,1","ND","ND"],
    [37126,"09/21/2018 14:00","47,6","0,3","2,7","222,7","ND","ND"],
    [37127,"09/21/2018 15:00","25,6","0","4,2","320,3","ND","ND"],
    [37128,"09/21/2018 16:00","23,7","0","4,5","306,5","ND","ND"],
    [37129,"09/21/2018 17:00","20,1","0","6,3","303,4","ND","ND"],
    [37130,"09/21/2018 18:00","27,9","0","6,2","302,1","ND","ND"],
    [37131,"09/21/2018 19:00","21,7","0","4,8","307,8","ND","ND"],
    [37132,"09/21/2018 20:00","18,6","0","2,9","302,9","ND","ND"],
    [37133,"09/21/2018 21:00","19,4","0,1","0,9","146,2","ND","ND"],
    [37134,"09/21/2018 22:00","55,4","0,2","1,2","128,5","ND","ND"],
    [37135,"09/21/2018 23:00","64,6","0,1","0,7","207,1","ND","ND"],
    [37136,"09/22/2018 00:00","69,9","0,1","0,7","152,5","ND","ND"],
    [37137,"09/22/2018 01:00","62,5","0,1","0,9","245,5","ND","ND"],
    [37138,"09/22/2018 02:00","30","0","0,6","196,9","ND","ND"],
    [37139,"09/22/2018 03:00","33,5","0","0,6","155,1","ND","ND"],
    [37140,"09/22/2018 04:00","32,6","0","0,8","233,2","ND","ND"],
    [37141,"09/22/2018 05:00","30,9","0","1,1","238,7","ND","ND"],
    [37142,"09/22/2018 06:00","31,8","0","0,7","243","ND","ND"],
    [37143,"09/22/2018 07:00","42,9","0","0,9","232,5","ND","ND"],
    [37144,"09/22/2018 08:00","48,6","0,1","0,8","182,9","ND","ND"],
    [37145,"09/22/2018 09:00","44,8","2","1,4","119,5","ND","ND"],
    [37146,"09/22/2018 10:00","48,9","4,6","1,5","146,5","ND","ND"],
    [37147,"09/22/2018 11:00","46,3","3,5","1,5","109,3","ND","ND"],
    [37148,"09/22/2018 12:00","47,4","2,2","1,8","138,1","ND","ND"],
    [37149,"09/22/2018 13:00","53,5","1,9","1,5","124,8","ND","ND"],
    [37150,"09/22/2018 14:00","46,7","1,4","1,5","149,9","ND","ND"],
    [37151,"09/22/2018 15:00","42,2","0,5","3,3","266,7","ND","ND"],
    [37152,"09/22/2018 16:00","55,7","0","4,6","317,6","ND","ND"],
    [37153,"09/22/2018 17:00","29,9","0","4,6","314,3","ND","ND"],
    [37154,"09/22/2018 18:00","20,7","0","5,1","308,3","ND","ND"],
    [37155,"09/22/2018 19:00","20","0","5,5","299","ND","ND"],
    [37156,"09/22/2018 20:00","19","0","5,5","300,1","ND","ND"],
    [37157,"09/22/2018 21:00","13,3","0","2,1","250,5","ND","ND"],
    [37158,"09/22/2018 22:00","15,3","0","1,1","185,4","ND","ND"],
    [37159,"09/22/2018 23:00","52,2","0","0,8","185,7","ND","ND"],
    [37160,"09/23/2018 00:00","52,5","0","0,7","221,9","ND","ND"],
    [37161,"09/23/2018 01:00","35,7","0","1","158,6","ND","ND"],
    [37162,"09/23/2018 02:00","53,1","0","0,8","243","ND","ND"],
    [37163,"09/23/2018 03:00","37,2","0","1","226,7","ND","ND"],
    [37164,"09/23/2018 04:00","39,1","0","0,8","218,8","ND","ND"],
    [37165,"09/23/2018 05:00","28,7","0","0,5","189,7","ND","ND"],
    [37166,"09/23/2018 06:00","36,3","0","1","212,3","ND","ND"],
    [37167,"09/23/2018 07:00","34,2","0","0,6","218,2","ND","ND"],
    [37168,"09/23/2018 08:00","37,7","0,1","0,6","188,5","ND","ND"],
    [37169,"09/23/2018 09:00","37,4","0,8","1","156,1","ND","ND"],
    [37170,"09/23/2018 10:00","46,8","1,8","1,6","127,3","ND","ND"],
    [37171,"09/23/2018 11:00","35,6","1,9","1,6","133,6","ND","ND"],
    [37172,"09/23/2018 12:00","30,8","1,4","1,5","113,8","ND","ND"],
    [37173,"09/23/2018 13:00","45,5","1,1","1,9","97,4","ND","ND"],
    [37174,"09/23/2018 14:00","27,4","0,7","1,8","114,2","ND","ND"],
    [37175,"09/23/2018 15:00","31,3","0,1","3,5","245,8","ND","ND"],
    [37176,"09/23/2018 16:00","35,8","0","4,6","304","ND","ND"],
    [37177,"09/23/2018 17:00","18,6","0","5,2","302,2","ND","ND"],
    [37178,"09/23/2018 18:00","27","0","5,7","304,2","ND","ND"],
    [37179,"09/23/2018 19:00","23,3","0","5,5","306,4","ND","ND"],
    [37180,"09/23/2018 20:00","20,9","0","3,3","277,6","ND","ND"],
    [37181,"09/23/2018 21:00","12,1","0","1,9","177,4","ND","ND"],
    [37182,"09/23/2018 22:00","47","0,2","1,2","180,1","ND","ND"],
    [37183,"09/23/2018 23:00","48","0","0,9","237","ND","ND"],
    [37184,"09/24/2018 00:00","39,5","0","0,8","233","ND","ND"],
    [37185,"09/24/2018 01:00","32,4","0","1,2","244,1","ND","ND"],
    [37186,"09/24/2018 02:00","23,3","0","0,5","195","ND","ND"],
    [37187,"09/24/2018 03:00","26,7","0","0,9","100,5","ND","ND"],
    [37188,"09/24/2018 04:00","38,3","0","0,7","220,6","ND","ND"],
    [37189,"09/24/2018 05:00","21,3","0","0,9","240,4","ND","ND"],
    [37190,"09/24/2018 06:00","30,3","0","0,9","239,3","ND","ND"],
    [37191,"09/24/2018 07:00","40,9","0","0,8","227,2","ND","ND"],
    [37192,"09/24/2018 08:00","53,4","0,6","0,8","93,4","ND","ND"],
    [37193,"09/24/2018 09:00","50,8","2,7","1,3","128,1","ND","ND"],
    [37194,"09/24/2018 10:00","57,8","2,6","1,3","119,9","ND","ND"],
    [37195,"09/24/2018 11:00","43","2","1,4","113,6","ND","ND"],
    [37196,"09/24/2018 12:00","39","1,5","1,7","132,3","ND","ND"],
    [37197,"09/24/2018 13:00","36,7","0,9","1,6","123,4","ND","ND"],
    [37198,"09/24/2018 14:00","34,8","0,8","1,7","139,5","ND","ND"],
    [37199,"09/24/2018 15:00","27,7","0,6","1,8","122,8","ND","ND"],
    [37200,"09/24/2018 16:00","25,6","0,5","1,6","139","ND","ND"],
    [37201,"09/24/2018 17:00","33,2","0,1","3,8","293,6","ND","ND"],
    [37202,"09/24/2018 18:00","66,7","0","4,6","304,4","ND","ND"],
    [37203,"09/24/2018 19:00","36,9","0","4,7","310,3","ND","ND"],
    [37204,"09/24/2018 20:00","29,2","0","5,6","300,2","ND","ND"],
    [37205,"09/24/2018 21:00","29,1","0","3,5","307,2","ND","ND"],
    [37206,"09/24/2018 22:00","15,5","0","2,5","259","ND","ND"],
    [37207,"09/24/2018 23:00","31,2","0,2","1,3","117,5","ND","ND"],
    [37208,"09/25/2018 00:00","77,4","0,1","0,9","228,1","ND","ND"],
    [37209,"09/25/2018 01:00","46,3","0","0,7","214,2","ND","ND"],
    [37210,"09/25/2018 02:00","39,2","0","0,8","220","ND","ND"],
    [37211,"09/25/2018 03:00","36,4","0","1","235,2","ND","ND"],
    [37212,"09/25/2018 04:00","33,3","0","0,9","227,4","ND","ND"],
    [37213,"09/25/2018 05:00","31,1","0","0,6","232,6","ND","ND"],
    [37214,"09/25/2018 06:00","38,3","0,2","0,8","248","ND","ND"],
    [37215,"09/25/2018 07:00","53,5","0,1","0,9","236,6","ND","ND"],
    [37216,"09/25/2018 08:00","79,8","0,4","1","164","ND","ND"],
    [37217,"09/25/2018 09:00","46,7","ND","1,4","146,2","ND","ND"],
    [37218,"09/25/2018 10:00","ND","2,4","0,8","144,8","ND","ND"],
    [37219,"09/25/2018 11:00","ND","ND","ND","ND","ND","ND"],
    [37220,"09/25/2018 12:00","ND","ND","ND","ND","ND","ND"],
    [37221,"09/25/2018 13:00","ND","ND","ND","ND","ND","ND"],
    [37222,"09/25/2018 14:00","ND","ND","ND","ND","ND","ND"],
    [37223,"09/25/2018 15:00","57,4","0,8","1,5","107,3","ND","ND"],
    [37224,"09/25/2018 16:00","47,7","0,2","2,6","288,1","ND","ND"],
    [37225,"09/25/2018 17:00","54,9","0","3,4","321,9","ND","ND"],
    [37226,"09/25/2018 18:00","32,7","0","3,7","316","ND","ND"],
    [37227,"09/25/2018 19:00","27,1","0","4,2","313,6","ND","ND"],
    [37228,"09/25/2018 20:00","20,2","0","4,2","298","ND","ND"],
    [37229,"09/25/2018 21:00","17,4","0,1","1,7","218,2","ND","ND"],
    [37230,"09/25/2018 22:00","27,3","0,2","1","134,8","ND","ND"],
    [37231,"09/25/2018 23:00","60,4","0,3","1,3","148,6","ND","ND"],
    [37232,"09/26/2018 00:00","70,3","0,1","0,8","230,1","ND","ND"],
    [37233,"09/26/2018 01:00","46,5","0","0,4","206,1","ND","ND"],
    [37234,"09/26/2018 02:00","38,4","0","0,7","202,9","ND","ND"],
    [37235,"09/26/2018 03:00","37,4","0","0,7","192,3","ND","ND"],
    [37236,"09/26/2018 04:00","37,4","0","1","244,8","ND","ND"],
    [37237,"09/26/2018 05:00","36","0,1","0,7","227,8","ND","ND"],
    [37238,"09/26/2018 06:00","46,2","0,1","0,6","192","ND","ND"],
    [37239,"09/26/2018 07:00","78,3","0,1","0,7","221,8","ND","ND"],
    [37240,"09/26/2018 08:00","79,9","0,4","1","197,6","ND","ND"],
    [37241,"09/26/2018 09:00","71,5","1,7","1,3","107,2","ND","ND"],
    [37242,"09/26/2018 10:00","54,3","2,5","1,5","82","ND","ND"],
    [37243,"09/26/2018 11:00","54,2","3,2","1,5","134,9","ND","ND"],
    [37244,"09/26/2018 12:00","44,7","2,2","1,2","135","ND","ND"],
    [37245,"09/26/2018 13:00","69,8","2","1,7","194,2","ND","ND"],
    [37246,"09/26/2018 14:00","68,8","0,1","3,7","283,7","ND","ND"],
    [37247,"09/26/2018 15:00","37,7","0,1","2,7","239,1","ND","ND"],
    [37248,"09/26/2018 16:00","28,9","0","4,8","298,8","ND","ND"],
    [37249,"09/26/2018 17:00","34,2","0","4,8","302,1","ND","ND"],
    [37250,"09/26/2018 18:00","37,1","0","5,3","301,1","ND","ND"],
    [37251,"09/26/2018 19:00","25,6","0","5,8","300,5","ND","ND"],
    [37252,"09/26/2018 20:00","31,3","0","4,6","296,9","ND","ND"],
    [37253,"09/26/2018 21:00","27,2","0,1","1,4","192,6","ND","ND"],
    [37254,"09/26/2018 22:00","67,7","0","0,7","210,5","ND","ND"],
    [37255,"09/26/2018 23:00","80,9","0","0,8","230,9","ND","ND"],
    [37256,"09/27/2018 00:00","34,7","0","0,6","222,7","ND","ND"],
    [37257,"09/27/2018 01:00","26,6","0","1,1","212,7","ND","ND"],
    [37258,"09/27/2018 02:00","29,1","0","0,3","85,5","ND","ND"],
    [37259,"09/27/2018 03:00","24,7","0","0,7","225","ND","ND"],
    [37260,"09/27/2018 04:00","36,6","0","0,4","167,9","ND","ND"],
    [37261,"09/27/2018 05:00","21,2","0","0,8","209,1","ND","ND"],
    [37262,"09/27/2018 06:00","16,2","0","0,5","200,9","ND","ND"],
    [37263,"09/27/2018 07:00","30","0","0,5","206,1","ND","ND"],
    [37264,"09/27/2018 08:00","59,6","0,1","0,6","157,1","ND","ND"],
    [37265,"09/27/2018 09:00","65,7","0,6","0,8","234,9","ND","ND"],
    [37266,"09/27/2018 10:00","69,9","1,2","0,8","144,8","ND","ND"],
    [37267,"09/27/2018 11:00","45,2","1,9","1,3","133,3","ND","ND"],
    [37268,"09/27/2018 12:00","38,5","1,5","1,5","152,4","ND","ND"],
    [37269,"09/27/2018 13:00","38,3","1,2","2","63,4","ND","ND"],
    [37270,"09/27/2018 14:00","40,7","0,3","2,2","251,5","ND","ND"],
    [37271,"09/27/2018 15:00","9,8","0","4","315,6","ND","ND"],
    [37272,"09/27/2018 16:00","5,2","0","4,2","320,6","ND","ND"],
    [37273,"09/27/2018 17:00","10,9","0","5","304,8","ND","ND"],
    [37274,"09/27/2018 18:00","19,4","0","4,5","305,4","ND","ND"],
    [37275,"09/27/2018 19:00","12,2","0","1,5","218","ND","ND"],
    [37276,"09/27/2018 20:00","60,2","0,2","1,1","174,5","ND","ND"],
    [37277,"09/27/2018 21:00","68,4","0,1","1,1","204,5","ND","ND"],
    [37278,"09/27/2018 22:00","48,2","0,1","0,8","181,6","ND","ND"],
    [37279,"09/27/2018 23:00","39,7","0,1","1,2","195,2","ND","ND"],
    [37280,"09/28/2018 00:00","33","0","0,9","219,9","ND","ND"],
    [37281,"09/28/2018 01:00","28,8","0","0,6","204,3","ND","ND"],
    [37282,"09/28/2018 02:00","22,1","0","0,7","231,6","ND","ND"],
    [37283,"09/28/2018 03:00","22,3","0","0,6","215,4","ND","ND"],
    [37284,"09/28/2018 04:00","23,6","0","0,6","223,6","ND","ND"],
    [37285,"09/28/2018 05:00","26,3","0","0,6","174,1","ND","ND"],
    [37286,"09/28/2018 06:00","32,7","0","0,7","239,8","ND","ND"],
    [37287,"09/28/2018 07:00","41,8","0,1","0,6","241,4","ND","ND"],
    [37288,"09/28/2018 08:00","63,3","0,3","1,1","120,8","ND","ND"],
    [37289,"09/28/2018 09:00","76","0,4","0,8","150,9","ND","ND"],
    [37290,"09/28/2018 10:00","59","0,8","1,5","151,2","ND","ND"],
    [37291,"09/28/2018 11:00","42,9","0,5","1,5","110,2","ND","ND"],
    [37292,"09/28/2018 12:00","50,4","1,2","1,6","129,6","ND","ND"],
    [37293,"09/28/2018 13:00","54,3","1,4","1,7","200,5","ND","ND"],
    [37294,"09/28/2018 14:00","56,2","1,5","2,2","185,7","ND","ND"],
    [37295,"09/28/2018 15:00","44,3","0","4,4","322,5","ND","ND"],
    [37296,"09/28/2018 16:00","16,6","0","4,8","313,4","ND","ND"],
    [37297,"09/28/2018 17:00","18,1","0","6,3","300","ND","ND"],
    [37298,"09/28/2018 18:00","21,2","0","6,3","300,8","ND","ND"],
    [37299,"09/28/2018 19:00","24,8","0","4,8","300,8","ND","ND"],
    [37300,"09/28/2018 20:00","17,6","0,1","1,8","218,6","ND","ND"],
    [37301,"09/28/2018 21:00","40,5","0,5","1,2","154,3","ND","ND"],
    [37302,"09/28/2018 22:00","55,4","0,2","1","160,9","ND","ND"],
    [37303,"09/28/2018 23:00","41,6","0,1","1,1","180","ND","ND"],
    [37304,"09/29/2018 00:00","52,1","0,1","0,7","114","ND","ND"],
    [37305,"09/29/2018 01:00","49,5","0,1","0,7","112,8","ND","ND"],
    [37306,"09/29/2018 02:00","32,7","0","0,7","68","ND","ND"],
    [37307,"09/29/2018 03:00","34,7","0","0,6","123,2","ND","ND"],
    [37308,"09/29/2018 04:00","34","0","0,6","191,2","ND","ND"],
    [37309,"09/29/2018 05:00","28","0","0,6","205,5","ND","ND"],
    [37310,"09/29/2018 06:00","41,7","0","0,6","178,3","ND","ND"],
    [37311,"09/29/2018 07:00","42,5","0,1","0,7","133,9","ND","ND"],
    [37312,"09/29/2018 08:00","46,9","0,4","0,9","123,7","ND","ND"],
    [37313,"09/29/2018 09:00","55,8","1,5","1,1","136","ND","ND"],
    [37314,"09/29/2018 10:00","63,2","2,6","1,5","121,8","ND","ND"],
    [37315,"09/29/2018 11:00","46,3","3,2","1,6","177,1","ND","ND"],
    [37316,"09/29/2018 12:00","38,5","2,4","1,5","186,7","ND","ND"],
    [37317,"09/29/2018 13:00","44,8","1,4","1,7","121,9","ND","ND"],
    [37318,"09/29/2018 14:00","48,8","0,9","2,6","176,7","ND","ND"],
    [37319,"09/29/2018 15:00","41,5","0,1","5,4","312,5","ND","ND"],
    [37320,"09/29/2018 16:00","22,6","0","6","305,1","ND","ND"],
    [37321,"09/29/2018 17:00","22,1","0","6,8","299,7","ND","ND"],
    [37322,"09/29/2018 18:00","22,8","0","6,5","298,6","ND","ND"],
    [37323,"09/29/2018 19:00","25,1","0","5,5","304","ND","ND"],
    [37324,"09/29/2018 20:00","10,5","0","4,4","302,2","ND","ND"],
    [37325,"09/29/2018 21:00","18","0","1,6","206,7","ND","ND"],
    [37326,"09/29/2018 22:00","50,1","0,1","0,8","190,5","ND","ND"],
    [37327,"09/29/2018 23:00","56,1","0","0,7","200,4","ND","ND"],
    [37328,"09/30/2018 00:00","60,6","0","1","239,6","ND","ND"],
    [37329,"09/30/2018 01:00","38,7","0","0,8","235,9","ND","ND"],
    [37330,"09/30/2018 02:00","31,8","0","0,7","240,9","ND","ND"],
    [37331,"09/30/2018 03:00","27,7","0,1","0,8","111","ND","ND"],
    [37332,"09/30/2018 04:00","37,4","0","0,4","166,3","ND","ND"],
    [37333,"09/30/2018 05:00","36,3","0","1","199,8","ND","ND"],
    [37334,"09/30/2018 06:00","34,1","0","0,6","136,1","ND","ND"],
    [37335,"09/30/2018 07:00","42,7","0","1,1","224,4","ND","ND"],
    [37336,"09/30/2018 08:00","34,7","0,1","0,5","123,6","ND","ND"],
    [37337,"09/30/2018 09:00","34,7","0,2","0,8","121,9","ND","ND"],
    [37338,"09/30/2018 10:00","36,1","0,8","1,4","114,7","ND","ND"],
    [37339,"09/30/2018 11:00","32","3,9","1,9","103,7","ND","ND"],
    [37340,"09/30/2018 12:00","53,3","4,5","2","131","ND","ND"],
    [37341,"09/30/2018 13:00","45,2","0,9","2,7","260,4","ND","ND"],
    [37342,"09/30/2018 14:00","6,1","0","3,3","316,8","ND","ND"],
    [37343,"09/30/2018 15:00","7","0","3,7","311,4","ND","ND"],
    [37344,"09/30/2018 16:00","ND","0","3,2","309,9","ND","ND"],
    [37345,"09/30/2018 17:00","ND","0","3,5","320,4","ND","ND"],
    [37346,"09/30/2018 18:00","ND","0","3,4","315,6","ND","ND"],
    [37347,"09/30/2018 19:00","22,1","0","4,2","298,4","ND","ND"],
    [37348,"09/30/2018 20:00","40,9","0","5,1","303,2","ND","ND"],
    [37349,"09/30/2018 21:00","26,5","0","5","307,5","ND","ND"],
    [37350,"09/30/2018 22:00","26,8","0","2,6","255,2","ND","ND"],
    [37351,"09/30/2018 23:00","16,8","0","2,1","206,2","ND","ND"],
    [37352,"43110","19","0","0,8","140,1","ND","ND"],
    [37353,"43110,04167","41,3","0","0,5","167,1","ND","ND"],
    [37354,"43110,08333","34,1","0","0,6","206,4","ND","ND"],
    [37355,"43110,125","31,3","0","0,7","204,5","ND","ND"],
    [37356,"43110,16667","26,2","0,1","1,2","102,9","ND","ND"],
    [37357,"43110,20833","43,1","0","1,2","74,3","ND","ND"],
    [37358,"43110,25","36,4","0,1","1,5","65,6","ND","ND"],
    [37359,"43110,29167","17,6","0,1","0,9","186,4","ND","ND"],
    [37360,"43110,33333","26,9","0,2","1,5","131,8","ND","ND"],
    [37361,"43110,375","37,9","0,8","2","138,1","ND","ND"],
    [37362,"43110,41667","43,8","0,9","1,3","171,2","ND","ND"],
    [37363,"43110,45833","31","1,5","1,3","149,1","ND","ND"],
    [37364,"43110,5","34,7","1,1","1,4","161,7","ND","ND"],
    [37365,"43110,54167","36,9","1,2","1,4","138,8","ND","ND"],
    [37366,"43110,58333","35,2","0,9","1,9","113,2","ND","ND"],
    [37367,"43110,625","41,1","0,2","3,3","263,1","ND","ND"],
    [37368,"43110,66667","34,7","0,1","4,4","305,1","ND","ND"],
    [37369,"43110,70833","19,7","0","5,1","309,9","ND","ND"],
    [37370,"43110,75","21,1","0","6,4","301,1","ND","ND"],
    [37371,"43110,79167","14,3","0","5,4","307,7","ND","ND"],
    [37372,"43110,83333","9,5","0","3,7","303,2","ND","ND"],
    [37373,"43110,875","11","0,1","1","167,6","ND","ND"],
    [37374,"43110,91667","51,3","0,3","1,2","154","ND","ND"],
    [37375,"43110,95833","42,3","0,1","0,7","181,8","ND","ND"],
    [37376,"43141","43,9","0","0,7","224,7","ND","ND"],
    [37377,"43141,04167","28,1","0","0,7","229,9","ND","ND"],
    [37378,"43141,08333","22,3","0","0,7","107,6","ND","ND"],
    [37379,"43141,125","29,6","0","0,5","218,6","ND","ND"],
    [37380,"43141,16667","27,5","0","0,6","193,9","ND","ND"],
    [37381,"43141,20833","28,9","0","0,5","207,7","ND","ND"],
    [37382,"43141,25","34,5","0","0,8","232,9","ND","ND"],
    [37383,"43141,29167","52,6","0,1","0,7","226,6","ND","ND"],
    [37384,"43141,33333","62,2","0,2","0,5","174,5","ND","ND"],
    [37385,"43141,375","50,3","0,8","0,9","121","ND","ND"],
    [37386,"43141,41667","51,5","1,4","1,2","161,1","ND","ND"],
    [37387,"43141,45833","33,3","1,2","1,4","150,8","ND","ND"],
    [37388,"43141,5","29","0,9","1,4","95,2","ND","ND"],
    [37389,"43141,54167","32,7","0,8","1,6","155,7","ND","ND"],
    [37390,"43141,58333","45,5","0,8","2,3","202,4","ND","ND"],
    [37391,"43141,625","27,8","0,1","4,2","293,5","ND","ND"],
    [37392,"43141,66667","16,4","0,1","4,6","314,5","ND","ND"],
    [37393,"43141,70833","17,2","0","5,9","312,3","ND","ND"],
    [37394,"43141,75","19,8","0","5,6","302,1","ND","ND"],
    [37395,"43141,79167","16,5","0","5,6","296,4","ND","ND"],
    [37396,"43141,83333","16,4","0","4,2","298,6","ND","ND"],
    [37397,"43141,875","15,1","0","2,2","271,4","ND","ND"],
    [37398,"43141,91667","13","0,3","1,5","235,6","ND","ND"],
    [37399,"43141,95833","40,9","0,1","0,9","224,7","ND","ND"],
    [37400,"43169","33","0","0,5","173","ND","ND"],
    [37401,"43169,04167","28,2","0","0,7","212,7","ND","ND"],
    [37402,"43169,08333","26,6","0","0,6","212","ND","ND"],
    [37403,"43169,125","32,3","0","0,9","243,3","ND","ND"],
    [37404,"43169,16667","28","0","0,9","233,4","ND","ND"],
    [37405,"43169,20833","21,8","0","0,9","225,5","ND","ND"],
    [37406,"43169,25","26,4","0","0,5","205,4","ND","ND"],
    [37407,"43169,29167","76,6","0,1","1","230,8","ND","ND"],
    [37408,"43169,33333","64,8","0,1","1","128,9","ND","ND"],
    [37409,"43169,375","36,2","0,3","1,1","116","ND","ND"],
    [37410,"43169,41667","43,3","0,2","1,4","103,6","ND","ND"],
    [37411,"43169,45833","39,9","0,4","1,6","124,7","ND","ND"],
    [37412,"43169,5","41,6","0,3","1,4","132,3","ND","ND"],
    [37413,"43169,54167","41,7","0,1","2","243,8","ND","ND"],
    [37414,"43169,58333","33,6","0","2,9","272,7","ND","ND"],
    [37415,"43169,625","16,9","0","5,1","304,3","ND","ND"],
    [37416,"43169,66667","13,2","0","5,2","311,9","ND","ND"],
    [37417,"43169,70833","26,1","0","5","313,3","ND","ND"],
    [37418,"43169,75","15,3","0","3,4","301,8","ND","ND"],
    [37419,"43169,79167","23,8","0,1","1,3","221,5","ND","ND"],
    [37420,"43169,83333","41,1","0,3","1","167,5","ND","ND"],
    [37421,"43169,875","66,5","0,1","1,1","207,4","ND","ND"],
    [37422,"43169,91667","65,2","0","0,6","196,1","ND","ND"],
    [37423,"43169,95833","49,9","0,1","1,8","216,4","ND","ND"],
    [37424,"43200","48,7","0","1,4","190,2","ND","ND"],
    [37425,"43200,04167","20","0","0,8","217,9","ND","ND"],
    [37426,"43200,08333","11,4","0","1,1","134,7","ND","ND"],
    [37427,"43200,125","6,7","0","1","163,1","ND","ND"],
    [37428,"43200,16667","12,3","0","0,8","119,8","ND","ND"],
    [37429,"43200,20833","6,6","0","1,1","106","ND","ND"],
    [37430,"43200,25","7,5","0","1,2","67,4","ND","ND"],
    [37431,"43200,29167","9,6","0","0,8","53,6","ND","ND"],
    [37432,"43200,33333","23,5","0,1","0,8","142,8","ND","ND"],
    [37433,"43200,375","12,2","0","0,8","188,2","ND","ND"],
    [37434,"43200,41667","1,2","0,1","1,4","130,7","ND","ND"],
    [37435,"43200,45833","ND","0,1","1,1","166,9","ND","ND"],
    [37436,"43200,5","ND","0","1,7","120,9","ND","ND"],
    [37437,"43200,54167","15,7","0","1,6","120,7","ND","ND"],
    [37438,"43200,58333","17,4","0","1,7","95","ND","ND"],
    [37439,"43200,625","34,9","ND","1,6","114,2","ND","ND"],
    [37440,"43200,66667","ND","ND","2,7","238,6","ND","ND"],
    [37441,"43200,70833","ND","ND","4","309,5","ND","ND"],
    [37442,"43200,75","14,8","0","4,7","303,3","ND","ND"],
    [37443,"43200,79167","14,9","0","4,2","301,2","ND","ND"],
    [37444,"43200,83333","13,4","0","2,8","309","ND","ND"],
    [37445,"43200,875","16,8","0,1","2,2","278,9","ND","ND"],
    [37446,"43200,91667","13,8","0","2,7","263,1","ND","ND"],
    [37447,"43200,95833","11,9","0","1,6","226,6","ND","ND"],
    [37448,"43230","33,3","0","1","171,4","ND","ND"],
    [37449,"43230,04167","35,9","0","1,4","117,9","ND","ND"],
    [37450,"43230,08333","36,1","0","0,8","108,5","ND","ND"],
    [37451,"43230,125","15,7","0","1,1","123,9","ND","ND"],
    [37452,"43230,16667","2,8","0","0,4","151,1","ND","ND"],
    [37453,"43230,20833","4","0","0,7","84,8","ND","ND"],
    [37454,"43230,25","12,6","0","1,4","63,7","ND","ND"],
    [37455,"43230,29167","9,3","0","1,3","57,6","ND","ND"],
    [37456,"43230,33333","11,4","0","1","150,4","ND","ND"],
    [37457,"43230,375","9","0,1","0,8","125,9","ND","ND"],
    [37458,"43230,41667","9,6","0,2","1,4","181","ND","ND"],
    [37459,"43230,45833","35,1","0","2,3","163,2","ND","ND"],
    [37460,"43230,5","17,8","0","1,7","166,2","ND","ND"],
    [37461,"43230,54167","3,4","0","1,6","159,9","ND","ND"],
    [37462,"43230,58333","15,7","0","1,5","103,1","ND","ND"],
    [37463,"43230,625","25,5","0","1,4","142,7","ND","ND"],
    [37464,"43230,66667","30,8","0","3,7","322,4","ND","ND"],
    [37465,"43230,70833","10,3","0","3,8","327","ND","ND"],
    [37466,"43230,75","10,8","0","3,3","320","ND","ND"],
    [37467,"43230,79167","ND","0","3,3","313,8","ND","ND"],
    [37468,"43230,83333","20","0","1,2","202,3","ND","ND"],
    [37469,"43230,875","46,2","0","1,3","200,1","ND","ND"],
    [37470,"43230,91667","42,8","0","1,2","188","ND","ND"],
    [37471,"43230,95833","45,7","0","0,8","194,1","ND","ND"],
    [37472,"43261","37,4","0","0,8","241,6","ND","ND"],
    [37473,"43261,04167","32,6","0","0,8","209,6","ND","ND"],
    [37474,"43261,08333","23","0","0,6","221,3","ND","ND"],
    [37475,"43261,125","20,7","0","0,6","184,4","ND","ND"],
    [37476,"43261,16667","7,1","0","0,5","170,1","ND","ND"],
    [37477,"43261,20833","12,8","0","0,6","139,7","ND","ND"],
    [37478,"43261,25","20,1","0","0,7","161","ND","ND"],
    [37479,"43261,29167","45,7","0,1","0,8","171","ND","ND"],
    [37480,"43261,33333","46","0,2","0,9","162","ND","ND"],
    [37481,"43261,375","44,3","0,6","1,1","138,6","ND","ND"],
    [37482,"43261,41667","32,1","1,1","1,8","148,8","ND","ND"],
    [37483,"43261,45833","40,7","0,8","1,7","113,8","ND","ND"],
    [37484,"43261,5","16,5","0,7","1,5","173,6","ND","ND"],
    [37485,"43261,54167","26,9","0,7","1,4","149,7","ND","ND"],
    [37486,"43261,58333","36,4","0,3","1,5","108,2","ND","ND"],
    [37487,"43261,625","40,2","1","1,2","177,7","ND","ND"],
    [37488,"43261,66667","51","1","1,9","158,1","ND","ND"],
    [37489,"43261,70833","36,9","0,1","1,9","233,3","ND","ND"],
    [37490,"43261,75","27,9","0,2","1,8","237","ND","ND"],
    [37491,"43261,79167","42,8","0,2","1,2","251,7","ND","ND"],
    [37492,"43261,83333","48","0,1","0,8","251,9","ND","ND"],
    [37493,"43261,875","59,8","0,1","1","247","ND","ND"],
    [37494,"43261,91667","54,5","0","0,9","218,6","ND","ND"],
    [37495,"43261,95833","41,7","0","0,5","188,9","ND","ND"],
    [37496,"43291","55,8","0","0,7","233,9","ND","ND"],
    [37497,"43291,04167","55,4","0","0,7","181,2","ND","ND"],
    [37498,"43291,08333","48,9","0","0,8","159,5","ND","ND"],
    [37499,"43291,125","55,4","0","0,9","116,6","ND","ND"],
    [37500,"43291,16667","40,1","0","0,6","160,4","ND","ND"],
    [37501,"43291,20833","44,4","0","0,5","176,5","ND","ND"],
    [37502,"43291,25","47,7","0,1","0,6","194,3","ND","ND"],
    [37503,"43291,29167","50,3","0","0,5","193,8","ND","ND"],
    [37504,"43291,33333","52,1","0,2","0,9","208,6","ND","ND"],
    [37505,"43291,375","41,2","2,5","1,3","126,8","ND","ND"],
    [37506,"43291,41667","48,3","4,5","1,3","144,8","ND","ND"],
    [37507,"43291,45833","42,1","3","1,3","193,9","ND","ND"],
    [37508,"43291,5","38,4","2,7","1,5","137,8","ND","ND"],
    [37509,"43291,54167","46,1","2,2","1,4","160","ND","ND"],
    [37510,"43291,58333","52,7","1,9","1,8","144","ND","ND"],
    [37511,"43291,625","64,8","0,5","2,8","268,8","ND","ND"],
    [37512,"43291,66667","40,3","0","3,9","307,5","ND","ND"],
    [37513,"43291,70833","12,3","0","4,7","316,5","ND","ND"],
    [37514,"43291,75","24,1","0","5,2","301,5","ND","ND"],
    [37515,"43291,79167","24,4","0","5","299,9","ND","ND"],
    [37516,"43291,83333","15,8","0","4,4","300","ND","ND"],
    [37517,"43291,875","15,4","0","2,5","272,5","ND","ND"],
    [37518,"43291,91667","17,3","0","1,3","213,4","ND","ND"],
    [37519,"43291,95833","35,3","0","0,8","213,9","ND","ND"],
    [37520,"43322","23,6","0","0,9","94,5","ND","ND"],
    [37521,"43322,04167","35","0","1,7","227","ND","ND"],
    [37522,"43322,08333","23","0","1","192","ND","ND"],
    [37523,"43322,125","14","0","1,1","143,8","ND","ND"],
    [37524,"43322,16667","ND","0","1,6","66,3","ND","ND"],
    [37525,"43322,20833","5,8","0","1,2","49,3","ND","ND"],
    [37526,"43322,25","11,4","0","0,8","83,3","ND","ND"],
    [37527,"43322,29167","12,5","0","0,5","247,1","ND","ND"],
    [37528,"43322,33333","16,4","0","1,4","233,8","ND","ND"],
    [37529,"43322,375","20,1","0","1,5","147","ND","ND"],
    [37530,"43322,41667","23,2","0","1,4","158,7","ND","ND"],
    [37531,"43322,45833","17,2","0","1","136,4","ND","ND"],
    [37532,"43322,5","25,4","0","1","86,3","ND","ND"],
    [37533,"43322,54167","27,3","0","1,1","85","ND","ND"],
    [37534,"43322,58333","39,8","0,1","1","90","ND","ND"],
    [37535,"43322,625","52,3","0,1","0,9","124,8","ND","ND"],
    [37536,"43322,66667","65,4","0,1","1","196,9","ND","ND"],
    [37537,"43322,70833","57,2","0,1","0,8","200,3","ND","ND"],
    [37538,"43322,75","71,1","0","1,2","234,7","ND","ND"],
    [37539,"43322,79167","60,3","0,1","1","224,2","ND","ND"],
    [37540,"43322,83333","68,1","0,1","0,7","199","ND","ND"],
    [37541,"43322,875","67,2","0,1","1","229,7","ND","ND"],
    [37542,"43322,91667","59,2","0","0,8","232,8","ND","ND"],
    [37543,"43322,95833","45,5","0","0,4","206,3","ND","ND"],
    [37544,"43353","39,7","0","0,5","211,3","ND","ND"],
    [37545,"43353,04167","38","0","0,8","257,6","ND","ND"],
    [37546,"43353,08333","30,8","0","0,8","205,5","ND","ND"],
    [37547,"43353,125","29,6","0","0,7","222,3","ND","ND"],
    [37548,"43353,16667","29","0","0,9","238,2","ND","ND"],
    [37549,"43353,20833","22,5","0","0,3","130,8","ND","ND"],
    [37550,"43353,25","43,8","0","0,4","126,9","ND","ND"],
    [37551,"43353,29167","59,2","0","0,6","209,5","ND","ND"],
    [37552,"43353,33333","68","0,2","0,4","178,4","ND","ND"],
    [37553,"43353,375","81,1","0,3","1","123,7","ND","ND"],
    [37554,"43353,41667","92,4","0,5","1,2","162","ND","ND"],
    [37555,"43353,45833","72,3","1,5","1,3","139,4","ND","ND"],
    [37556,"43353,5","37,6","1,9","1,4","135,1","ND","ND"],
    [37557,"43353,54167","49,5","1,3","1,7","126,2","ND","ND"],
    [37558,"43353,58333","31,3","0,9","1,6","190,9","ND","ND"],
    [37559,"43353,625","24,9","0,5","1,1","163,7","ND","ND"],
    [37560,"43353,66667","51,3","0,3","1,7","240,4","ND","ND"],
    [37561,"43353,70833","9,9","0","3,2","316","ND","ND"],
    [37562,"43353,75","11","0","2,9","315","ND","ND"],
    [37563,"43353,79167","16,5","0","2,9","312,9","ND","ND"],
    [37564,"43353,83333","15,8","0","4,3","304,4","ND","ND"],
    [37565,"43353,875","12,4","0,1","1,4","194,1","ND","ND"],
    [37566,"43353,91667","50,9","0","1,4","227,7","ND","ND"],
    [37567,"43353,95833","10,8","0","2,4","286,4","ND","ND"],
    [37568,"43383","26,1","0","1,5","110,5","ND","ND"],
    [37569,"43383,04167","28,2","0","1,2","150,1","ND","ND"],
    [37570,"43383,08333","11,3","0","0,8","119,2","ND","ND"],
    [37571,"43383,125","0,3","0","0,9","68,1","ND","ND"],
    [37572,"43383,16667","4,5","0","0,8","118,6","ND","ND"],
    [37573,"43383,20833","14,6","0","0,8","165,7","ND","ND"],
    [37574,"43383,25","17,4","0","0,6","179,2","ND","ND"],
    [37575,"43383,29167","7,7","0","0,8","126,4","ND","ND"],
    [37576,"43383,33333","7,9","0,1","1","91,1","ND","ND"],
    [37577,"43383,375","19,2","0,1","1,5","68","ND","ND"],
    [37578,"43383,41667","21,5","0","1,9","74,4","ND","ND"],
    [37579,"43383,45833","26,7","0","1,1","113,3","ND","ND"],
    [37580,"43383,5","0,9","0","1,4","178,4","ND","ND"],
    [37581,"43383,54167","ND","0","1,5","214,8","ND","ND"],
    [37582,"43383,58333","ND","0","3,1","287,8","ND","ND"],
    [37583,"43383,625","22,8","0","3,9","322,7","ND","ND"],
    [37584,"43383,66667","8,2","0","3,6","314,4","ND","ND"],
    [37585,"43383,70833","13,2","0","4,3","312,4","ND","ND"],
    [37586,"43383,75","14,5","0","4,4","310,7","ND","ND"],
    [37587,"43383,79167","17,1","0,1","3,3","248,8","ND","ND"],
    [37588,"43383,83333","24,1","0","1,4","163,4","ND","ND"],
    [37589,"43383,875","29,9","0","0,8","202","ND","ND"],
    [37590,"43383,91667","21,7","0","1","207,2","ND","ND"],
    [37591,"43383,95833","18,8","0","0,3","136,2","ND","ND"],
    [37592,"43414","20,1","0","0,8","157,7","ND","ND"],
    [37593,"43414,04167","16","0","1,1","172,3","ND","ND"],
    [37594,"43414,08333","11,9","0","0,5","194,7","ND","ND"],
    [37595,"43414,125","6,9","0","0,7","196","ND","ND"],
    [37596,"43414,16667","6,8","0","1,1","213,8","ND","ND"],
    [37597,"43414,20833","6,7","0","2,1","232","ND","ND"],
    [37598,"43414,25","14,3","0","2,5","248,2","ND","ND"],
    [37599,"43414,29167","12,7","0","0,6","98,1","ND","ND"],
    [37600,"43414,33333","36,7","0,1","1","70,3","ND","ND"],
    [37601,"43414,375","54,1","0,2","1,6","77,1","ND","ND"],
    [37602,"43414,41667","62,9","0,4","1,2","104,4","ND","ND"],
    [37603,"43414,45833","44,5","0,2","0,9","131,7","ND","ND"],
    [37604,"43414,5","46,4","0,4","1,1","114,4","ND","ND"],
    [37605,"43414,54167","ND","0,4","1,2","131,4","ND","ND"],
    [37606,"43414,58333","ND","0,1","1,7","146,4","ND","ND"],
    [37607,"43414,625","42,2","0","1,1","153,9","ND","ND"],
    [37608,"43414,66667","37,6","0,1","1","103,4","ND","ND"],
    [37609,"43414,70833","48,7","0,1","1,3","233","ND","ND"],
    [37610,"43414,75","42,4","0","1","229,1","ND","ND"],
    [37611,"43414,79167","42,7","0,1","0,8","209,2","ND","ND"],
    [37612,"43414,83333","56,6","0,1","0,8","217,4","ND","ND"],
    [37613,"43414,875","36,4","0","0,6","192,4","ND","ND"],
    [37614,"43414,91667","37,7","0","1","237","ND","ND"],
    [37615,"43414,95833","37,3","0","1,2","235","ND","ND"],
    [37616,"43444","36,1","0,1","0,7","222,1","ND","ND"],
    [37617,"43444,04167","41,8","0","0,8","235,2","ND","ND"],
    [37618,"43444,08333","36","0","0,4","177,4","ND","ND"],
    [37619,"43444,125","40,2","0","0,4","184,8","ND","ND"],
    [37620,"43444,16667","37,9","0","0,7","155,8","ND","ND"],
    [37621,"43444,20833","41,2","0","0,8","152,4","ND","ND"],
    [37622,"43444,25","39,7","0,1","0,5","159,6","ND","ND"],
    [37623,"43444,29167","30,7","0,1","0,6","105,2","ND","ND"],
    [37624,"43444,33333","30,3","0,3","0,6","121","ND","ND"],
    [37625,"43444,375","41,1","0,1","0,7","105,9","ND","ND"],
    [37626,"43444,41667","62,1","0,5","1","89,5","ND","ND"],
    [37627,"43444,45833","68,6","0,7","1,2","107,5","ND","ND"],
    [37628,"43444,5","55,1","0,5","1,1","108,9","ND","ND"],
    [37629,"43444,54167","54,4","0,6","1,1","186,9","ND","ND"],
    [37630,"43444,58333","52,1","0,4","2,3","194,7","ND","ND"],
    [37631,"43444,625","12,7","0","4,3","317,9","ND","ND"],
    [37632,"43444,66667","9","0","4,4","318,3","ND","ND"],
    [37633,"43444,70833","12,6","0","4,8","301,4","ND","ND"],
    [37634,"43444,75","15,9","0","4,3","308,8","ND","ND"],
    [37635,"43444,79167","18,9","0","4,6","300","ND","ND"],
    [37636,"43444,83333","17","0","3,9","313,4","ND","ND"],
    [37637,"43444,875","15,2","0","2,8","275,8","ND","ND"],
    [37638,"43444,91667","18,8","0","1,5","208,2","ND","ND"],
    [37639,"43444,95833","24,5","0","1,6","205,5","ND","ND"],
    [37640,"10/13/2018 00:00","27,9","0","0,7","129,9","ND","ND"],
    [37641,"10/13/2018 01:00","31,3","0","0,8","153","ND","ND"],
    [37642,"10/13/2018 02:00","23,1","0","0,6","160,9","ND","ND"],
    [37643,"10/13/2018 03:00","29,8","0","0,5","204","ND","ND"],
    [37644,"10/13/2018 04:00","29,5","0","0,6","85","ND","ND"],
    [37645,"10/13/2018 05:00","27,4","0","0,5","230,4","ND","ND"],
    [37646,"10/13/2018 06:00","32,8","0","0,4","202,6","ND","ND"],
    [37647,"10/13/2018 07:00","44,4","0,1","0,6","158","ND","ND"],
    [37648,"10/13/2018 08:00","52,7","0,1","0,8","153,2","ND","ND"],
    [37649,"10/13/2018 09:00","52,1","0,3","0,8","120,9","ND","ND"],
    [37650,"10/13/2018 10:00","56,6","0,2","1,1","130,8","ND","ND"],
    [37651,"10/13/2018 11:00","46,5","0,2","1,2","142","ND","ND"],
    [37652,"10/13/2018 12:00","41,2","0,2","1,4","151,1","ND","ND"],
    [37653,"10/13/2018 13:00","41,4","0,2","1,6","192,6","ND","ND"],
    [37654,"10/13/2018 14:00","40,4","0,2","1,7","104,9","ND","ND"],
    [37655,"10/13/2018 15:00","33,7","0,2","2,8","206,6","ND","ND"],
    [37656,"10/13/2018 16:00","27,3","0","4,1","312,5","ND","ND"],
    [37657,"10/13/2018 17:00","17,5","0","4,5","310","ND","ND"],
    [37658,"10/13/2018 18:00","23,6","0","4,5","302,3","ND","ND"],
    [37659,"10/13/2018 19:00","32,4","0","3,5","310,7","ND","ND"],
    [37660,"10/13/2018 20:00","21,3","0","1,8","240,8","ND","ND"],
    [37661,"10/13/2018 21:00","26,1","0","1,2","190,7","ND","ND"],
    [37662,"10/13/2018 22:00","30,8","0,1","0,7","156,2","ND","ND"],
    [37663,"10/13/2018 23:00","58,5","0","0,7","217","ND","ND"],
    [37664,"10/14/2018 00:00","46,6","0","0,7","245,3","ND","ND"],
    [37665,"10/14/2018 01:00","36,5","0","0,7","231","ND","ND"],
    [37666,"10/14/2018 02:00","29,1","0","0,8","232,7","ND","ND"],
    [37667,"10/14/2018 03:00","28","0","0,8","241,8","ND","ND"],
    [37668,"10/14/2018 04:00","31,4","0","0,9","244,1","ND","ND"],
    [37669,"10/14/2018 05:00","28,6","0","1,1","247","ND","ND"],
    [37670,"10/14/2018 06:00","29,9","0","0,8","229,4","ND","ND"],
    [37671,"10/14/2018 07:00","35,3","0","0,6","189","ND","ND"],
    [37672,"10/14/2018 08:00","39,7","0,1","0,5","178,7","ND","ND"],
    [37673,"10/14/2018 09:00","36,9","3,1","1,2","139,2","ND","ND"],
    [37674,"10/14/2018 10:00","29,4","3,5","1,5","134,2","ND","ND"],
    [37675,"10/14/2018 11:00","32,4","3","1,4","154,1","ND","ND"],
    [37676,"10/14/2018 12:00","28,9","2","1,5","119,9","ND","ND"],
    [37677,"10/14/2018 13:00","33,2","2,3","1,6","113,8","ND","ND"],
    [37678,"10/14/2018 14:00","48,6","0,9","3,2","244,7","ND","ND"],
    [37679,"10/14/2018 15:00","21,9","0","5","313,8","ND","ND"],
    [37680,"10/14/2018 16:00","15,9","0","5,2","301,1","ND","ND"],
    [37681,"10/14/2018 17:00","25,8","0","4,7","313","ND","ND"],
    [37682,"10/14/2018 18:00","22","0","4,9","305,1","ND","ND"],
    [37683,"10/14/2018 19:00","32,7","0","4,3","301,3","ND","ND"],
    [37684,"10/14/2018 20:00","26,6","0","3,7","306,9","ND","ND"],
    [37685,"10/14/2018 21:00","26","0","3,7","294,6","ND","ND"],
    [37686,"10/14/2018 22:00","23","0,1","1","205,8","ND","ND"],
    [37687,"10/14/2018 23:00","40","0,1","0,7","212,2","ND","ND"],
    [37688,"10/15/2018 00:00","43,2","0","0,5","166,3","ND","ND"],
    [37689,"10/15/2018 01:00","44,4","0","0,6","201","ND","ND"],
    [37690,"10/15/2018 02:00","34,3","0","0,6","224,5","ND","ND"],
    [37691,"10/15/2018 03:00","30,8","0","0,8","228,9","ND","ND"],
    [37692,"10/15/2018 04:00","32,9","0","0,6","215,2","ND","ND"],
    [37693,"10/15/2018 05:00","30,1","0","0,9","247,1","ND","ND"],
    [37694,"10/15/2018 06:00","25,6","0","0,8","232,4","ND","ND"],
    [37695,"10/15/2018 07:00","35,9","0","0,7","211,6","ND","ND"],
    [37696,"10/15/2018 08:00","38","0","0,5","94,4","ND","ND"],
    [37697,"10/15/2018 09:00","53,6","0,6","0,8","129,6","ND","ND"],
    [37698,"10/15/2018 10:00","55","3,5","1,3","128,5","ND","ND"],
    [37699,"10/15/2018 11:00","34,4","2,2","1,4","120","ND","ND"],
    [37700,"10/15/2018 12:00","30,7","1,5","1,7","161,6","ND","ND"],
    [37701,"10/15/2018 13:00","32,1","1,2","1,7","137","ND","ND"],
    [37702,"10/15/2018 14:00","40,9","0,3","3,3","269,8","ND","ND"],
    [37703,"10/15/2018 15:00","30,4","0,1","4,3","322,4","ND","ND"],
    [37704,"10/15/2018 16:00","16,6","0","4,7","311,3","ND","ND"],
    [37705,"10/15/2018 17:00","29,2","0","5,9","299,8","ND","ND"],
    [37706,"10/15/2018 18:00","39,2","0","5,6","303,4","ND","ND"],
    [37707,"10/15/2018 19:00","36,1","0","5,6","300","ND","ND"],
    [37708,"10/15/2018 20:00","27,9","0","5,3","300,1","ND","ND"],
    [37709,"10/15/2018 21:00","19,4","0","3,1","254,5","ND","ND"],
    [37710,"10/15/2018 22:00","22,5","0","1,3","179,1","ND","ND"],
    [37711,"10/15/2018 23:00","34,3","0","1,1","172,4","ND","ND"],
    [37712,"10/16/2018 00:00","30,9","0","0,7","202,9","ND","ND"],
    [37713,"10/16/2018 01:00","33,3","0","0,7","164,6","ND","ND"],
    [37714,"10/16/2018 02:00","21,1","0","0,6","218,5","ND","ND"],
    [37715,"10/16/2018 03:00","25","0","0,7","238,6","ND","ND"],
    [37716,"10/16/2018 04:00","22,7","0","0,6","213,5","ND","ND"],
    [37717,"10/16/2018 05:00","23,2","0","0,8","238,3","ND","ND"],
    [37718,"10/16/2018 06:00","28,1","0,1","0,6","226,4","ND","ND"],
    [37719,"10/16/2018 07:00","52,8","0,1","0,8","239,7","ND","ND"],
    [37720,"10/16/2018 08:00","55,8","0,3","0,9","128","ND","ND"],
    [37721,"10/16/2018 09:00","86,1","1","1,4","148","ND","ND"],
    [37722,"10/16/2018 10:00","87,1","3,7","1,7","110","ND","ND"],
    [37723,"10/16/2018 11:00","62,5","3,1","1,2","184","ND","ND"],
    [37724,"10/16/2018 12:00","49,2","0,2","3,5","321,7","ND","ND"],
    [37725,"10/16/2018 13:00","7,8","0","4","318,8","ND","ND"],
    [37726,"10/16/2018 14:00","7,4","0","4,2","321,8","ND","ND"],
    [37727,"10/16/2018 15:00","7,6","0","5","326,5","ND","ND"],
    [37728,"10/16/2018 16:00","8,9","0","5","317,4","ND","ND"],
    [37729,"10/16/2018 17:00","15,2","0","6,3","311","ND","ND"],
    [37730,"10/16/2018 18:00","28,7","0","5,7","306,3","ND","ND"],
    [37731,"10/16/2018 19:00","17","0","3,7","301,5","ND","ND"],
    [37732,"10/16/2018 20:00","18,1","0,1","1,9","232","ND","ND"],
    [37733,"10/16/2018 21:00","30,4","0,2","1,1","200,9","ND","ND"],
    [37734,"10/16/2018 22:00","45,2","0,1","0,9","236,2","ND","ND"],
    [37735,"10/16/2018 23:00","53,1","0,1","0,6","224,3","ND","ND"],
    [37736,"10/17/2018 00:00","43,7","0","0,8","155,8","ND","ND"],
    [37737,"10/17/2018 01:00","28,5","0","0,7","138,7","ND","ND"],
    [37738,"10/17/2018 02:00","21","0","1","211,9","ND","ND"],
    [37739,"10/17/2018 03:00","27,2","0","0,8","189,5","ND","ND"],
    [37740,"10/17/2018 04:00","19","0,1","1,1","121,8","ND","ND"],
    [37741,"10/17/2018 05:00","33,2","0","0,9","171","ND","ND"],
    [37742,"10/17/2018 06:00","39,7","0","0,5","216,8","ND","ND"],
    [37743,"10/17/2018 07:00","46,3","0,1","1","245,6","ND","ND"],
    [37744,"10/17/2018 08:00","59,4","0,2","0,8","194,7","ND","ND"],
    [37745,"10/17/2018 09:00","55,2","0,3","1","101,5","ND","ND"],
    [37746,"10/17/2018 10:00","65,5","0,4","1,7","90,4","ND","ND"],
    [37747,"10/17/2018 11:00","66,4","1,1","1,6","94,8","ND","ND"],
    [37748,"10/17/2018 12:00","49,1","1,6","1,5","130,5","ND","ND"],
    [37749,"10/17/2018 13:00","41,4","0,8","2,1","225,9","ND","ND"],
    [37750,"10/17/2018 14:00","26,2","0,1","3","263","ND","ND"],
    [37751,"10/17/2018 15:00","13,3","0","4,3","322,8","ND","ND"],
    [37752,"10/17/2018 16:00","13,3","0","4,2","314","ND","ND"],
    [37753,"10/17/2018 17:00","13,5","0","4,5","300,6","ND","ND"],
    [37754,"10/17/2018 18:00","18,9","0","4,9","301,5","ND","ND"],
    [37755,"10/17/2018 19:00","19,8","0","3,1","299","ND","ND"],
    [37756,"10/17/2018 20:00","19,5","0","3,3","311,8","ND","ND"],
    [37757,"10/17/2018 21:00","15","0","1,9","232,7","ND","ND"],
    [37758,"10/17/2018 22:00","29,4","0,3","0,8","82","ND","ND"],
    [37759,"10/17/2018 23:00","39,6","0,3","0,9","109,6","ND","ND"],
    [37760,"10/18/2018 00:00","26,9","0","1","243,9","ND","ND"],
    [37761,"10/18/2018 01:00","18,7","0","0,8","227,6","ND","ND"],
    [37762,"10/18/2018 02:00","20,6","0","0,5","171,2","ND","ND"],
    [37763,"10/18/2018 03:00","18,3","0","0,8","170,5","ND","ND"],
    [37764,"10/18/2018 04:00","23,2","0","0,5","122,7","ND","ND"],
    [37765,"10/18/2018 05:00","23,4","0","0,7","137,2","ND","ND"],
    [37766,"10/18/2018 06:00","32,6","0,6","1,2","149,7","ND","ND"],
    [37767,"10/18/2018 07:00","45,8","0,2","0,7","153,6","ND","ND"],
    [37768,"10/18/2018 08:00","49,6","0,1","1,1","156,6","ND","ND"],
    [37769,"10/18/2018 09:00","46","0,3","1,1","144","ND","ND"],
    [37770,"10/18/2018 10:00","47,3","0,5","1,9","143,7","ND","ND"],
    [37771,"10/18/2018 11:00","36,2","0,8","1,7","117,1","ND","ND"],
    [37772,"10/18/2018 12:00","37,4","0,5","1,6","143,1","ND","ND"],
    [37773,"10/18/2018 13:00","41,9","0,2","1,5","248","ND","ND"],
    [37774,"10/18/2018 14:00","32,1","0","3,1","283","ND","ND"],
    [37775,"10/18/2018 15:00","7,8","0","4,7","291","ND","ND"],
    [37776,"10/18/2018 16:00","8,8","0","5","318,6","ND","ND"],
    [37777,"10/18/2018 17:00","13,1","0","5,1","309,4","ND","ND"],
    [37778,"10/18/2018 18:00","18,1","0,1","5,5","305,9","ND","ND"],
    [37779,"10/18/2018 19:00","22,2","0","5,2","303","ND","ND"],
    [37780,"10/18/2018 20:00","21,1","0","4,8","298,4","ND","ND"],
    [37781,"10/18/2018 21:00","19,6","0","1,6","209,6","ND","ND"],
    [37782,"10/18/2018 22:00","38,6","0,2","1","82,6","ND","ND"],
    [37783,"10/18/2018 23:00","26,4","0,1","1","66,2","ND","ND"],
    [37784,"10/19/2018 00:00","32,7","0,1","0,5","95","ND","ND"],
    [37785,"10/19/2018 01:00","14,2","0","0,7","158,6","ND","ND"],
    [37786,"10/19/2018 02:00","11,5","0","0,7","79,6","ND","ND"],
    [37787,"10/19/2018 03:00","18,6","0","0,5","67,6","ND","ND"],
    [37788,"10/19/2018 04:00","18,5","0","0,6","164","ND","ND"],
    [37789,"10/19/2018 05:00","20,1","0,1","0,7","188,7","ND","ND"],
    [37790,"10/19/2018 06:00","26,5","0","0,6","222,6","ND","ND"],
    [37791,"10/19/2018 07:00","40,3","0,1","0,7","225,7","ND","ND"],
    [37792,"10/19/2018 08:00","52,3","0,2","0,4","127,5","ND","ND"],
    [37793,"10/19/2018 09:00","62","1,7","1,4","101,9","ND","ND"],
    [37794,"10/19/2018 10:00","54,4","1,3","1,9","90,3","ND","ND"],
    [37795,"10/19/2018 11:00","60","1,2","1,3","96,2","ND","ND"],
    [37796,"10/19/2018 12:00","45,9","1,5","1,5","114,9","ND","ND"],
    [37797,"10/19/2018 13:00","48,5","1,6","1,4","138,3","ND","ND"],
    [37798,"10/19/2018 14:00","48,6","1,3","1,8","115,9","ND","ND"],
    [37799,"10/19/2018 15:00","45,1","0,8","1,2","161,1","ND","ND"],
    [37800,"10/19/2018 16:00","40","0,1","3,5","317,1","ND","ND"],
    [37801,"10/19/2018 17:00","21,7","0","3,8","315,9","ND","ND"],
    [37802,"10/19/2018 18:00","16,2","0","4,9","304,4","ND","ND"],
    [37803,"10/19/2018 19:00","23","0","4,8","297,2","ND","ND"],
    [37804,"10/19/2018 20:00","25,1","0","4,4","301,8","ND","ND"],
    [37805,"10/19/2018 21:00","18,2","0","2","247,7","ND","ND"],
    [37806,"10/19/2018 22:00","20,4","0","0,9","181,9","ND","ND"],
    [37807,"10/19/2018 23:00","22,2","0","1,8","238,7","ND","ND"],
    [37808,"10/20/2018 00:00","14","0,1","1","121,5","ND","ND"],
    [37809,"10/20/2018 01:00","45","0","1","106,1","ND","ND"],
    [37810,"10/20/2018 02:00","35,8","0","0,9","178,2","ND","ND"],
    [37811,"10/20/2018 03:00","23,9","0","1,7","232,6","ND","ND"],
    [37812,"10/20/2018 04:00","23,7","0","0,6","184,6","ND","ND"],
    [37813,"10/20/2018 05:00","15,8","0","0,7","146,1","ND","ND"],
    [37814,"10/20/2018 06:00","19,8","0","0,9","205,1","ND","ND"],
    [37815,"10/20/2018 07:00","14,7","0","0,7","185,4","ND","ND"],
    [37816,"10/20/2018 08:00","23,8","0","0,7","151,2","ND","ND"],
    [37817,"10/20/2018 09:00","32,2","0","1,1","111,2","ND","ND"],
    [37818,"10/20/2018 10:00","43,4","0","1,1","146,8","ND","ND"],
    [37819,"10/20/2018 11:00","36","0","1,3","235,6","ND","ND"],
    [37820,"10/20/2018 12:00","23,7","0","1,1","170,8","ND","ND"],
    [37821,"10/20/2018 13:00","25,5","0","1,5","188,8","ND","ND"],
    [37822,"10/20/2018 14:00","39,7","0","1,6","151,5","ND","ND"],
    [37823,"10/20/2018 15:00","34","0","1,2","190,5","ND","ND"],
    [37824,"10/20/2018 16:00","19,7","0,1","1,3","159,2","ND","ND"],
    [37825,"10/20/2018 17:00","17,6","0","1,2","182,5","ND","ND"],
    [37826,"10/20/2018 18:00","33,2","0","1,4","243,7","ND","ND"],
    [37827,"10/20/2018 19:00","29,4","0,1","1,2","201,7","ND","ND"],
    [37828,"10/20/2018 20:00","30,3","0","1","230","ND","ND"],
    [37829,"10/20/2018 21:00","28,4","0","1,8","245,9","ND","ND"],
    [37830,"10/20/2018 22:00","28","0","0,9","189,5","ND","ND"],
    [37831,"10/20/2018 23:00","38,2","0","0,7","193,4","ND","ND"],
    [37832,"10/21/2018 00:00","51,7","0","0,9","231,4","ND","ND"],
    [37833,"10/21/2018 01:00","33,1","0","0,6","213,2","ND","ND"],
    [37834,"10/21/2018 02:00","29,7","0","0,6","202,8","ND","ND"],
    [37835,"10/21/2018 03:00","28,6","0","0,5","212,4","ND","ND"],
    [37836,"10/21/2018 04:00","26","0","0,5","168","ND","ND"],
    [37837,"10/21/2018 05:00","31","0","0,5","72,4","ND","ND"],
    [37838,"10/21/2018 06:00","35,8","0","0,6","100,8","ND","ND"],
    [37839,"10/21/2018 07:00","26,9","0","0,6","171,4","ND","ND"],
    [37840,"10/21/2018 08:00","32,5","0,2","1","162,9","ND","ND"],
    [37841,"10/21/2018 09:00","38,7","0,1","1,5","104,5","ND","ND"],
    [37842,"10/21/2018 10:00","38,8","0,1","1,1","113,2","ND","ND"],
    [37843,"10/21/2018 11:00","26","0,1","1,2","211,4","ND","ND"],
    [37844,"10/21/2018 12:00","25,8","0","1,3","214,6","ND","ND"],
    [37845,"10/21/2018 13:00","34,3","0,1","1,5","278","ND","ND"],
    [37846,"10/21/2018 14:00","15,1","0,1","1,4","137,5","ND","ND"],
    [37847,"10/21/2018 15:00","10,7","0,1","0,9","133,8","ND","ND"],
    [37848,"10/21/2018 16:00","19,5","0,3","1,1","88,3","ND","ND"],
    [37849,"10/21/2018 17:00","14,7","0,4","1","254","ND","ND"],
    [37850,"10/21/2018 18:00","38,7","0","1,2","244,7","ND","ND"],
    [37851,"10/21/2018 19:00","42","0,1","0,7","220","ND","ND"],
    [37852,"10/21/2018 20:00","50,2","0","1","231,1","ND","ND"],
    [37853,"10/21/2018 21:00","34,7","0","0,9","242,2","ND","ND"],
    [37854,"10/21/2018 22:00","27,2","0","2,6","277,4","ND","ND"],
    [37855,"10/21/2018 23:00","7,8","0","3,5","291,2","ND","ND"],
    [37856,"10/22/2018 00:00","4,9","0","1,9","247,1","ND","ND"],
    [37857,"10/22/2018 01:00","4,2","0","2","276,4","ND","ND"],
    [37858,"10/22/2018 02:00","3,7","0","1","144,7","ND","ND"],
    [37859,"10/22/2018 03:00","9","0","0,6","166,8","ND","ND"],
    [37860,"10/22/2018 04:00","16","0","0,5","131,1","ND","ND"],
    [37861,"10/22/2018 05:00","19,3","0","1","244,6","ND","ND"],
    [37862,"10/22/2018 06:00","17,9","0","1","242,6","ND","ND"],
    [37863,"10/22/2018 07:00","35,6","0,1","0,8","228,3","ND","ND"],
    [37864,"10/22/2018 08:00","45,5","0,1","1","219,9","ND","ND"],
    [37865,"10/22/2018 09:00","35,9","0","0,6","184,7","ND","ND"],
    [37866,"10/22/2018 10:00","19,8","0,2","1,2","169,8","ND","ND"],
    [37867,"10/22/2018 11:00","19,2","0,2","1,1","149,1","ND","ND"],
    [37868,"10/22/2018 12:00","14,7","0,1","1,2","137,8","ND","ND"],
    [37869,"10/22/2018 13:00","16,6","0","1,7","140","ND","ND"],
    [37870,"10/22/2018 14:00","24,4","0,1","1,4","104,8","ND","ND"],
    [37871,"10/22/2018 15:00","33","0","1,5","156,7","ND","ND"],
    [37872,"10/22/2018 16:00","40,4","0","1,6","241,9","ND","ND"],
    [37873,"10/22/2018 17:00","30","0","2,6","312,3","ND","ND"],
    [37874,"10/22/2018 18:00","13,9","0","3,2","297,4","ND","ND"],
    [37875,"10/22/2018 19:00","16,6","0","2","248,8","ND","ND"],
    [37876,"10/22/2018 20:00","19,5","0","2,5","280,7","ND","ND"],
    [37877,"10/22/2018 21:00","6","0","1,5","206,8","ND","ND"],
    [37878,"10/22/2018 22:00","19,3","0","0,7","177,2","ND","ND"],
    [37879,"10/22/2018 23:00","48,9","0","1,1","251,5","ND","ND"],
    [37880,"10/23/2018 00:00","29,4","0","0,8","221,3","ND","ND"],
    [37881,"10/23/2018 01:00","20,4","0","0,6","205,8","ND","ND"],
    [37882,"10/23/2018 02:00","21,1","0","0,5","196,7","ND","ND"],
    [37883,"10/23/2018 03:00","22,6","0","1","215,9","ND","ND"],
    [37884,"10/23/2018 04:00","21,5","0","0,9","225,2","ND","ND"],
    [37885,"10/23/2018 05:00","25,6","0","0,6","200,4","ND","ND"],
    [37886,"10/23/2018 06:00","29,3","0,1","0,7","166,5","ND","ND"],
    [37887,"10/23/2018 07:00","30","0","0,8","198,6","ND","ND"],
    [37888,"10/23/2018 08:00","43","0,1","0,7","102,5","ND","ND"],
    [37889,"10/23/2018 09:00","57,1","0,1","1,3","155,7","ND","ND"],
    [37890,"10/23/2018 10:00","41,7","0,3","1,2","144,5","ND","ND"],
    [37891,"10/23/2018 11:00","28,1","0,4","1,3","171,8","ND","ND"],
    [37892,"10/23/2018 12:00","22,7","0,3","1,7","195,2","ND","ND"],
    [37893,"10/23/2018 13:00","22,4","0,2","2","224,6","ND","ND"],
    [37894,"10/23/2018 14:00","30,1","0,1","2,5","281,8","ND","ND"],
    [37895,"10/23/2018 15:00","28","0","2,5","277","ND","ND"],
    [37896,"10/23/2018 16:00","12,6","0","3,3","311,2","ND","ND"],
    [37897,"10/23/2018 17:00","8,8","0","4,7","319,2","ND","ND"],
    [37898,"10/23/2018 18:00","14","0","5,1","321,5","ND","ND"],
    [37899,"10/23/2018 19:00","11,3","0","4","317","ND","ND"],
    [37900,"10/23/2018 20:00","13","0","3,5","299,4","ND","ND"],
    [37901,"10/23/2018 21:00","13,1","0","1,8","262,5","ND","ND"],
    [37902,"10/23/2018 22:00","16,4","0","1,4","207,7","ND","ND"],
    [37903,"10/23/2018 23:00","15,9","0","1,3","233,3","ND","ND"],
    [37904,"10/24/2018 00:00","20,2","0","1,3","231,8","ND","ND"],
    [37905,"10/24/2018 01:00","13,4","0","0,7","211,7","ND","ND"],
    [37906,"10/24/2018 02:00","20,7","0","0,6","225,8","ND","ND"],
    [37907,"10/24/2018 03:00","16,6","0","0,8","230,1","ND","ND"],
    [37908,"10/24/2018 04:00","15,8","0","0,8","219,7","ND","ND"],
    [37909,"10/24/2018 05:00","17,8","0,1","0,6","236","ND","ND"],
    [37910,"10/24/2018 06:00","29,9","0","0,6","161,3","ND","ND"],
    [37911,"10/24/2018 07:00","47,8","0,1","0,6","200,4","ND","ND"],
    [37912,"10/24/2018 08:00","65,9","0,5","0,8","153,1","ND","ND"],
    [37913,"10/24/2018 09:00","57,9","1,3","1,1","132,9","ND","ND"],
    [37914,"10/24/2018 10:00","45,5","1,7","1,5","93,5","ND","ND"],
    [37915,"10/24/2018 11:00","53,1","3,7","1,6","98,4","ND","ND"],
    [37916,"10/24/2018 12:00","52,1","2,8","1,4","162,2","ND","ND"],
    [37917,"10/24/2018 13:00","41,6","0,6","2,2","303,2","ND","ND"],
    [37918,"10/24/2018 14:00","37,3","0,2","2,6","298,3","ND","ND"],
    [37919,"10/24/2018 15:00","20,1","0","4,3","307","ND","ND"],
    [37920,"10/24/2018 16:00","2,2","0","3,6","306,3","ND","ND"],
    [37921,"10/24/2018 17:00","13,5","0","2,2","268,2","ND","ND"],
    [37922,"10/24/2018 18:00","18,5","0","1,8","255,1","ND","ND"],
    [37923,"10/24/2018 19:00","26,8","0,1","1,4","239,4","ND","ND"],
    [37924,"10/24/2018 20:00","43,5","0,1","1","212,1","ND","ND"],
    [37925,"10/24/2018 21:00","34,7","0","1","196,5","ND","ND"],
    [37926,"10/24/2018 22:00","34","0,1","0,8","225,9","ND","ND"],
    [37927,"10/24/2018 23:00","35,7","0","0,6","202,1","ND","ND"],
    [37928,"10/25/2018 00:00","32,7","0","0,6","208,6","ND","ND"],
    [37929,"10/25/2018 01:00","27,8","0","0,3","174,3","ND","ND"],
    [37930,"10/25/2018 02:00","21,4","0","0,5","199","ND","ND"],
    [37931,"10/25/2018 03:00","20,8","0","0,6","237,9","ND","ND"],
    [37932,"10/25/2018 04:00","23,2","0","0,9","224,3","ND","ND"],
    [37933,"10/25/2018 05:00","22,3","0","0,5","179,5","ND","ND"],
    [37934,"10/25/2018 06:00","37,1","0,1","0,6","219,8","ND","ND"],
    [37935,"10/25/2018 07:00","53,6","0,1","0,7","220,4","ND","ND"],
    [37936,"10/25/2018 08:00","56,3","0,1","0,6","200,8","ND","ND"],
    [37937,"10/25/2018 09:00","63,9","0,3","0,7","188,6","ND","ND"],
    [37938,"10/25/2018 10:00","64","1","0,8","135,5","ND","ND"],
    [37939,"10/25/2018 11:00","92,8","3,8","1,4","143,8","ND","ND"],
    [37940,"10/25/2018 12:00","ND","2,2","1,3","134,9","ND","ND"],
    [37941,"10/25/2018 13:00","ND","1,6","1,3","95,4","ND","ND"],
    [37942,"10/25/2018 14:00","ND","0,8","2,4","123,2","ND","ND"],
    [37943,"10/25/2018 15:00","ND","0,5","3,2","245,7","ND","ND"],
    [37944,"10/25/2018 16:00","13,1","0","4,1","322,9","ND","ND"],
    [37945,"10/25/2018 17:00","6,6","0","3,8","317","ND","ND"],
    [37946,"10/25/2018 18:00","11","0","4,2","301,8","ND","ND"],
    [37947,"10/25/2018 19:00","18,8","0","3,7","306,9","ND","ND"],
    [37948,"10/25/2018 20:00","13,6","0","2,6","303,1","ND","ND"],
    [37949,"10/25/2018 21:00","16,8","0","1,5","230,1","ND","ND"],
    [37950,"10/25/2018 22:00","29,3","0,1","0,7","213,4","ND","ND"],
    [37951,"10/25/2018 23:00","47","0,1","0,6","169,4","ND","ND"],
    [37952,"10/26/2018 00:00","45,5","0","0,6","172","ND","ND"],
    [37953,"10/26/2018 01:00","36,1","0","0,6","222,9","ND","ND"],
    [37954,"10/26/2018 02:00","30","0","0,5","196,4","ND","ND"],
    [37955,"10/26/2018 03:00","27,2","0","0,7","149,6","ND","ND"],
    [37956,"10/26/2018 04:00","37,7","0","0,7","96,3","ND","ND"],
    [37957,"10/26/2018 05:00","40,1","0","0,5","75,8","ND","ND"],
    [37958,"10/26/2018 06:00","44,7","0,2","0,8","87,8","ND","ND"],
    [37959,"10/26/2018 07:00","46,8","0,3","0,7","141,2","ND","ND"],
    [37960,"10/26/2018 08:00","36,1","0,4","0,8","90,1","ND","ND"],
    [37961,"10/26/2018 09:00","41,9","0,4","0,8","92","ND","ND"],
    [37962,"10/26/2018 10:00","44,8","1,1","1,1","156","ND","ND"],
    [37963,"10/26/2018 11:00","55,9","1,9","1,4","143","ND","ND"],
    [37964,"10/26/2018 12:00","42,4","1,6","1,3","165,7","ND","ND"],
    [37965,"10/26/2018 13:00","48","0,7","1,4","123","ND","ND"],
    [37966,"10/26/2018 14:00","47,2","0,5","1,6","147,5","ND","ND"],
    [37967,"10/26/2018 15:00","42,6","0,7","2,2","260,2","ND","ND"],
    [37968,"10/26/2018 16:00","30,3","0","4,7","313,5","ND","ND"],
    [37969,"10/26/2018 17:00","12,4","0","5,6","320,9","ND","ND"],
    [37970,"10/26/2018 18:00","13,9","0","5,6","323,8","ND","ND"],
    [37971,"10/26/2018 19:00","12,3","0","5,3","313,9","ND","ND"],
    [37972,"10/26/2018 20:00","13,2","0","5","310,4","ND","ND"],
    [37973,"10/26/2018 21:00","14,8","0","3,4","283,1","ND","ND"],
    [37974,"10/26/2018 22:00","21,1","0,1","1,2","182","ND","ND"],
    [37975,"10/26/2018 23:00","42,6","0","1,9","247,8","ND","ND"],
    [37976,"10/27/2018 00:00","10,4","0,1","1","98","ND","ND"],
    [37977,"10/27/2018 01:00","19,3","0","1,5","137,8","ND","ND"],
    [37978,"10/27/2018 02:00","16","0","1,4","179,6","ND","ND"],
    [37979,"10/27/2018 03:00","12,9","0","0,8","156,8","ND","ND"],
    [37980,"10/27/2018 04:00","13,5","0","1,1","116","ND","ND"],
    [37981,"10/27/2018 05:00","12,6","0","0,7","175,6","ND","ND"],
    [37982,"10/27/2018 06:00","15,8","0,1","0,8","107,5","ND","ND"],
    [37983,"10/27/2018 07:00","27,3","0,1","0,6","229,7","ND","ND"],
    [37984,"10/27/2018 08:00","34,9","0,1","0,4","128,9","ND","ND"],
    [37985,"10/27/2018 09:00","60,5","0,1","1,3","79,1","ND","ND"],
    [37986,"10/27/2018 10:00","51,8","0,1","1,2","117,3","ND","ND"],
    [37987,"10/27/2018 11:00","40,2","0,9","1,3","146,1","ND","ND"],
    [37988,"10/27/2018 12:00","52,5","1","1,6","121,1","ND","ND"],
    [37989,"10/27/2018 13:00","41","0,6","1,5","120,4","ND","ND"],
    [37990,"10/27/2018 14:00","38,4","0,2","1,2","149,4","ND","ND"],
    [37991,"10/27/2018 15:00","42,6","0,1","3","233,3","ND","ND"],
    [37992,"10/27/2018 16:00","25,7","0","4,2","315,5","ND","ND"],
    [37993,"10/27/2018 17:00","8,8","0","4,8","312,9","ND","ND"],
    [37994,"10/27/2018 18:00","14,6","0","4,6","314,8","ND","ND"],
    [37995,"10/27/2018 19:00","13,5","0","3,7","277,7","ND","ND"],
    [37996,"10/27/2018 20:00","19,9","0","2,5","191,5","ND","ND"],
    [37997,"10/27/2018 21:00","33,5","0,1","1,1","133,2","ND","ND"],
    [37998,"10/27/2018 22:00","26","0,2","0,8","111,7","ND","ND"],
    [37999,"10/27/2018 23:00","28,6","0,1","1","90,7","ND","ND"],
    [38000,"10/28/2018 00:00","23","0,1","0,9","106,5","ND","ND"],
    [38001,"10/28/2018 01:00","13,2","0","0,6","270","ND","ND"],
    [38002,"10/28/2018 02:00","23,2","0","0,6","222,6","ND","ND"],
    [38003,"10/28/2018 03:00","26","0","0,6","100,5","ND","ND"],
    [38004,"10/28/2018 04:00","25,3","0","0,3","63,9","ND","ND"],
    [38005,"10/28/2018 05:00","20,7","0","0,4","142,4","ND","ND"],
    [38006,"10/28/2018 06:00","26,8","0","0,7","184,2","ND","ND"],
    [38007,"10/28/2018 07:00","33","0","0,4","116,2","ND","ND"],
    [38008,"10/28/2018 08:00","44,3","0","0,7","148,5","ND","ND"],
    [38009,"10/28/2018 09:00","43","0,1","1,2","109,8","ND","ND"],
    [38010,"10/28/2018 10:00","36,6","0,2","1,4","116","ND","ND"],
    [38011,"10/28/2018 11:00","29,8","0,4","1,5","106,2","ND","ND"],
    [38012,"10/28/2018 12:00","29","0,3","1,6","117,8","ND","ND"],
    [38013,"10/28/2018 13:00","28,2","0,1","1,3","169","ND","ND"],
    [38014,"10/28/2018 14:00","30,2","0,3","1,6","113,9","ND","ND"],
    [38015,"10/28/2018 15:00","29,7","0","3,5","299,7","ND","ND"],
    [38016,"10/28/2018 16:00","11,6","0","3,7","320,7","ND","ND"],
    [38017,"10/28/2018 17:00","6,8","0","4,1","312,9","ND","ND"],
    [38018,"10/28/2018 18:00","10,7","0","5,2","299,9","ND","ND"],
    [38019,"10/28/2018 19:00","14,7","0","4","310","ND","ND"],
    [38020,"10/28/2018 20:00","14,9","0","4","306,9","ND","ND"],
    [38021,"10/28/2018 21:00","15,2","0","1,4","190,9","ND","ND"],
    [38022,"10/28/2018 22:00","22,2","0,1","0,7","194","ND","ND"],
    [38023,"10/28/2018 23:00","39,3","0","0,6","212,9","ND","ND"],
    [38024,"10/29/2018 00:00","42,2","0","0,8","227,4","ND","ND"],
    [38025,"10/29/2018 01:00","27,6","0","0,7","175,5","ND","ND"],
    [38026,"10/29/2018 02:00","25,6","0","0,5","144,9","ND","ND"],
    [38027,"10/29/2018 03:00","23,7","0","1,1","181,2","ND","ND"],
    [38028,"10/29/2018 04:00","27,4","0","1,1","155,9","ND","ND"],
    [38029,"10/29/2018 05:00","26,1","0","1,7","163,2","ND","ND"],
    [38030,"10/29/2018 06:00","29","0,2","1,1","117,5","ND","ND"],
    [38031,"10/29/2018 07:00","35,4","0,1","0,9","149,6","ND","ND"],
    [38032,"10/29/2018 08:00","39,5","0,1","1,1","139,4","ND","ND"],
    [38033,"10/29/2018 09:00","30,5","0,3","1,2","132,6","ND","ND"],
    [38034,"10/29/2018 10:00","36,9","0,1","1,2","130,3","ND","ND"],
    [38035,"10/29/2018 11:00","24,8","0","1,4","144,6","ND","ND"],
    [38036,"10/29/2018 12:00","29,1","0,1","2,3","160,5","ND","ND"],
    [38037,"10/29/2018 13:00","32","0","1,7","166,7","ND","ND"],
    [38038,"10/29/2018 14:00","27,5","0","2,6","135,8","ND","ND"],
    [38039,"10/29/2018 15:00","26,9","0,2","1,4","126,6","ND","ND"],
    [38040,"10/29/2018 16:00","27","0,1","0,6","196,5","ND","ND"],
    [38041,"10/29/2018 17:00","34,9","0,1","0,9","224,9","ND","ND"],
    [38042,"10/29/2018 18:00","43,8","0,1","0,7","208,2","ND","ND"],
    [38043,"10/29/2018 19:00","79,1","0","1","248,7","ND","ND"],
    [38044,"10/29/2018 20:00","52,5","0,1","0,8","215,6","ND","ND"],
    [38045,"10/29/2018 21:00","70","0","0,9","236,4","ND","ND"],
    [38046,"10/29/2018 22:00","49,8","0","0,8","222,6","ND","ND"],
    [38047,"10/29/2018 23:00","40,7","0","0,9","244,7","ND","ND"],
    [38048,"10/30/2018 00:00","31,3","0","0,6","199,4","ND","ND"],
    [38049,"10/30/2018 01:00","35,5","0","0,6","245,9","ND","ND"],
    [38050,"10/30/2018 02:00","26,1","0","0,4","167,7","ND","ND"],
    [38051,"10/30/2018 03:00","17,9","0","0,5","133,9","ND","ND"],
    [38052,"10/30/2018 04:00","26,1","0","0,7","250","ND","ND"],
    [38053,"10/30/2018 05:00","24,9","0","0,7","188,3","ND","ND"],
    [38054,"10/30/2018 06:00","33,8","0,2","0,4","189,3","ND","ND"],
    [38055,"10/30/2018 07:00","65,8","0,2","0,8","222,1","ND","ND"],
    [38056,"10/30/2018 08:00","75,3","0,3","0,4","212,8","ND","ND"],
    [38057,"10/30/2018 09:00","126,5","0,2","0,7","171,2","ND","ND"],
    [38058,"10/30/2018 10:00","90,5","0,4","1,3","177,6","ND","ND"],
    [38059,"10/30/2018 11:00","54,5","1,1","1,5","129,4","ND","ND"],
    [38060,"10/30/2018 12:00","35,8","1,1","1,6","134,5","ND","ND"],
    [38061,"10/30/2018 13:00","28,9","0,4","1,6","126,6","ND","ND"],
    [38062,"10/30/2018 14:00","30","0,2","1,4","135,8","ND","ND"],
    [38063,"10/30/2018 15:00","36,1","0","2,2","231,8","ND","ND"],
    [38064,"10/30/2018 16:00","12,2","0","3,7","315,3","ND","ND"],
    [38065,"10/30/2018 17:00","11,6","0","4,5","317","ND","ND"],
    [38066,"10/30/2018 18:00","21,2","0","4,3","310,8","ND","ND"],
    [38067,"10/30/2018 19:00","15","0","3,8","309,9","ND","ND"],
    [38068,"10/30/2018 20:00","14,2","0,2","1,2","114,9","ND","ND"],
    [38069,"10/30/2018 21:00","54,3","0,3","1,3","167,2","ND","ND"],
    [38070,"10/30/2018 22:00","45,7","0","0,9","214,9","ND","ND"],
    [38071,"10/30/2018 23:00","40,1","0,1","1,2","119,1","ND","ND"],
    [38072,"10/31/2018 00:00","38,3","0","0,8","197","ND","ND"],
    [38073,"10/31/2018 01:00","11,4","0","0,5","179,7","ND","ND"],
    [38074,"10/31/2018 02:00","16,1","0","1,2","172,3","ND","ND"],
    [38075,"10/31/2018 03:00","11,2","0","0,8","93,5","ND","ND"],
    [38076,"10/31/2018 04:00","9,6","0","0,8","152,4","ND","ND"],
    [38077,"10/31/2018 05:00","6,6","0","0,6","141","ND","ND"],
    [38078,"10/31/2018 06:00","12,1","0,1","0,2","45,8","ND","ND"],
    [38079,"10/31/2018 07:00","21,8","0,1","0,5","151","ND","ND"],
    [38080,"10/31/2018 08:00","43,3","0,2","1","73,8","ND","ND"],
    [38081,"10/31/2018 09:00","76,3","0,8","1,1","84,7","ND","ND"],
    [38082,"10/31/2018 10:00","70,3","1,7","1,1","98,3","ND","ND"],
    [38083,"10/31/2018 11:00","50,1","1,7","1,6","107,8","ND","ND"],
    [38084,"10/31/2018 12:00","35,7","1,3","1,6","102,7","ND","ND"],
    [38085,"10/31/2018 13:00","32,7","0,7","1,4","159,8","ND","ND"],
    [38086,"10/31/2018 14:00","39,4","0,3","1,5","186,6","ND","ND"],
    [38087,"10/31/2018 15:00","29,4","0,3","1,5","232","ND","ND"],
    [38088,"10/31/2018 16:00","28,1","0","3,8","315,8","ND","ND"],
    [38089,"10/31/2018 17:00","20,1","0","5","300,8","ND","ND"],
    [38090,"10/31/2018 18:00","20","0","5","302,8","ND","ND"],
    [38091,"10/31/2018 19:00","16,5","0","3,3","301,6","ND","ND"],
    [38092,"10/31/2018 20:00","21,3","0","1,7","229,4","ND","ND"],
    [38093,"10/31/2018 21:00","25,9","0,1","2,1","247,1","ND","ND"],
    [38094,"10/31/2018 22:00","21,1","0,1","1,1","173,2","ND","ND"],
    [38095,"10/31/2018 23:00","46,1","0,3","1","108,6","ND","ND"],
    [38096,"43111","56,3","0,1","0,7","131,7","ND","ND"],
    [38097,"43111,04167","51,8","0,1","1","165,4","ND","ND"],
    [38098,"43111,08333","35,5","0","0,9","173,4","ND","ND"],
    [38099,"43111,125","26,8","0","0,6","108,7","ND","ND"],
    [38100,"43111,16667","25,9","0","0,9","234,2","ND","ND"],
    [38101,"43111,20833","24,6","0","0,9","120,1","ND","ND"],
    [38102,"43111,25","28,2","0","0,8","199,5","ND","ND"],
    [38103,"43111,29167","30,1","0","0,9","241,1","ND","ND"],
    [38104,"43111,33333","28,5","0,1","0,5","223","ND","ND"],
    [38105,"43111,375","65,9","0,2","0,6","165,2","ND","ND"],
    [38106,"43111,41667","100,3","0,1","0,6","205,8","ND","ND"],
    [38107,"43111,45833","30","0","0,9","214","ND","ND"],
    [38108,"43111,5","49,7","0","0,9","182","ND","ND"],
    [38109,"43111,54167","34,8","0,1","1,2","131,9","ND","ND"],
    [38110,"43111,58333","40,6","0,1","2","268,8","ND","ND"],
    [38111,"43111,625","25,6","0","3,5","316,9","ND","ND"],
    [38112,"43111,66667","12,5","0","4","314,9","ND","ND"],
    [38113,"43111,70833","11,5","0","5,2","302,8","ND","ND"],
    [38114,"43111,75","15,1","0","5,5","301,1","ND","ND"],
    [38115,"43111,79167","14,7","0,1","1,9","228,5","ND","ND"],
    [38116,"43111,83333","33,7","0","0,9","219","ND","ND"],
    [38117,"43111,875","25,4","0,1","0,7","230,7","ND","ND"],
    [38118,"43111,91667","32,4","0,1","1","230,3","ND","ND"],
    [38119,"43111,95833","35,7","0","0,6","228,8","ND","ND"],
    [38120,"43142","37,2","0","1","216,4","ND","ND"],
    [38121,"43142,04167","9,3","0","0,9","176,3","ND","ND"],
    [38122,"43142,08333","11","0","0,6","258,5","ND","ND"],
    [38123,"43142,125","8,3","0","0,6","249,3","ND","ND"],
    [38124,"43142,16667","16,6","0","0,9","243","ND","ND"],
    [38125,"43142,20833","9,9","0","0,6","211,5","ND","ND"],
    [38126,"43142,25","18","0","0,9","234,7","ND","ND"],
    [38127,"43142,29167","21","0,1","0,6","195,1","ND","ND"],
    [38128,"43142,33333","26,2","0,1","0,5","177,1","ND","ND"],
    [38129,"43142,375","28,8","0,1","0,7","236,5","ND","ND"],
    [38130,"43142,41667","41,8","0,1","0,8","128,6","ND","ND"],
    [38131,"43142,45833","48","0,2","1,1","139,6","ND","ND"],
    [38132,"43142,5","35,1","0,2","1,1","127,6","ND","ND"],
    [38133,"43142,54167","41,6","0,1","1,5","128,7","ND","ND"],
    [38134,"43142,58333","37,3","0","1,3","201,6","ND","ND"],
    [38135,"43142,625","16,7","0","3,7","263,3","ND","ND"],
    [38136,"43142,66667","10,5","0","4,4","323,6","ND","ND"],
    [38137,"43142,70833","9,8","0","5","306,5","ND","ND"],
    [38138,"43142,75","13,9","0","5,6","307,1","ND","ND"],
    [38139,"43142,79167","15,9","0","6,1","314,3","ND","ND"],
    [38140,"43142,83333","9,4","0","2,4","227,3","ND","ND"],
    [38141,"43142,875","33,2","0,1","1,8","120,6","ND","ND"],
    [38142,"43142,91667","35","0","1,3","179,2","ND","ND"],
    [38143,"43142,95833","26,4","0","1,4","158,6","ND","ND"],
    [38144,"43170","9,5","0","0,9","86,8","ND","ND"],
    [38145,"43170,04167","6,9","0","0,3","156,6","ND","ND"],
    [38146,"43170,08333","7,9","0","0,2","101","ND","ND"],
    [38147,"43170,125","9,5","0","0,6","128,1","ND","ND"],
    [38148,"43170,16667","10,3","0","0,6","120,2","ND","ND"],
    [38149,"43170,20833","7,9","0","0,7","129,3","ND","ND"],
    [38150,"43170,25","18,9","0","0,6","78","ND","ND"],
    [38151,"43170,29167","30","0,1","0,5","156,9","ND","ND"],
    [38152,"43170,33333","42,8","0,1","0,8","89","ND","ND"],
    [38153,"43170,375","40,8","0","1,2","135,2","ND","ND"],
    [38154,"43170,41667","34","0","1","131,1","ND","ND"],
    [38155,"43170,45833","30,1","0","1","105,8","ND","ND"],
    [38156,"43170,5","2,2","0","1,4","117,2","ND","ND"],
    [38157,"43170,54167","ND","0","1,3","170,6","ND","ND"],
    [38158,"43170,58333","ND","ND","ND","ND","ND","ND"],
    [38159,"43170,625","ND","0,1","1,7","281","ND","ND"],
    [38160,"43170,66667","ND","0","1,9","307,3","ND","ND"],
    [38161,"43170,70833","ND","0","2","247,2","ND","ND"],
    [38162,"43170,75","ND","0","1,2","140,2","ND","ND"],
    [38163,"43170,79167","ND","0","0,9","186,6","ND","ND"],
    [38164,"43170,83333","ND","0","0,9","217,7","ND","ND"],
    [38165,"43170,875","ND","0","0,7","179,9","ND","ND"],
    [38166,"43170,91667","ND","0","0,9","248,3","ND","ND"],
    [38167,"43170,95833","ND","0","0,8","234,2","ND","ND"],
    [38168,"43201","ND","0","0,8","175,3","ND","ND"],
    [38169,"43201,04167","ND","0","0,6","65,3","ND","ND"],
    [38170,"43201,08333","ND","0","0,8","244,1","ND","ND"],
    [38171,"43201,125","ND","0","1,1","238,3","ND","ND"],
    [38172,"43201,16667","ND","0","1,1","237,5","ND","ND"],
    [38173,"43201,20833","ND","0","1,2","238,3","ND","ND"],
    [38174,"43201,25","ND","0","0,6","201,6","ND","ND"],
    [38175,"43201,29167","ND","0","0,5","203,5","ND","ND"],
    [38176,"43201,33333","ND","0","0,5","166,7","ND","ND"],
    [38177,"43201,375","ND","0","1,5","132,7","ND","ND"],
    [38178,"43201,41667","ND","0","1,4","126","ND","ND"],
    [38179,"43201,45833","ND","0","1,1","168,1","ND","ND"],
    [38180,"43201,5","ND","0","1,4","113,2","ND","ND"],
    [38181,"43201,54167","ND","0","2","227,7","ND","ND"],
    [38182,"43201,58333","ND","0","1,8","179,2","ND","ND"],
    [38183,"43201,625","ND","0","1,4","168,6","ND","ND"],
    [38184,"43201,66667","ND","0,2","2","73,9","ND","ND"],
    [38185,"43201,70833","ND","0","1","184,3","ND","ND"],
    [38186,"43201,75","ND","0","0,5","177,1","ND","ND"],
    [38187,"43201,79167","ND","0","0,9","237,6","ND","ND"],
    [38188,"43201,83333","ND","0","0,8","164,8","ND","ND"],
    [38189,"43201,875","ND","0","0,6","184,6","ND","ND"],
    [38190,"43201,91667","ND","0","0,5","158,5","ND","ND"],
    [38191,"43201,95833","ND","0","1,4","70","ND","ND"],
    [38192,"43231","ND","0","1,1","62,4","ND","ND"],
    [38193,"43231,04167","ND","0","0,9","56","ND","ND"],
    [38194,"43231,08333","ND","0","1,1","97,8","ND","ND"],
    [38195,"43231,125","ND","0","0,9","103,4","ND","ND"],
    [38196,"43231,16667","ND","0","1","72,9","ND","ND"],
    [38197,"43231,20833","ND","0","1,1","85,1","ND","ND"],
    [38198,"43231,25","ND","0","0,8","86,5","ND","ND"],
    [38199,"43231,29167","ND","0","0,6","136","ND","ND"],
    [38200,"43231,33333","ND","0","0,7","115,9","ND","ND"],
    [38201,"43231,375","ND","0","0,9","108,3","ND","ND"],
    [38202,"43231,41667","ND","0","1,1","124,9","ND","ND"],
    [38203,"43231,45833","ND","0","1,5","113,5","ND","ND"],
    [38204,"43231,5","ND","0","1,5","182","ND","ND"],
    [38205,"43231,54167","ND","0","1,2","187,9","ND","ND"],
    [38206,"43231,58333","ND","0","0,9","169,8","ND","ND"],
    [38207,"43231,625","ND","0","1,3","175,3","ND","ND"],
    [38208,"43231,66667","ND","0","1,7","219,2","ND","ND"],
    [38209,"43231,70833","ND","0","1,3","226,5","ND","ND"],
    [38210,"43231,75","ND","0","2,2","315,1","ND","ND"],
    [38211,"43231,79167","ND","0","1,1","256,7","ND","ND"],
    [38212,"43231,83333","ND","0","1,3","226","ND","ND"],
    [38213,"43231,875","ND","0","1,1","96,5","ND","ND"],
    [38214,"43231,91667","ND","0,1","0,7","178,7","ND","ND"],
    [38215,"43231,95833","ND","0","0,8","214,6","ND","ND"],
    [38216,"43262","ND","0","0,6","241,5","ND","ND"],
    [38217,"43262,04167","ND","0","1","240,6","ND","ND"],
    [38218,"43262,08333","ND","0","0,7","212,4","ND","ND"],
    [38219,"43262,125","ND","0","0,6","189,6","ND","ND"],
    [38220,"43262,16667","ND","0","0,5","215,8","ND","ND"],
    [38221,"43262,20833","ND","0,1","0,6","223,7","ND","ND"],
    [38222,"43262,25","ND","0","0,5","221,8","ND","ND"],
    [38223,"43262,29167","ND","0","0,8","226,9","ND","ND"],
    [38224,"43262,33333","ND","0,1","0,6","195,4","ND","ND"],
    [38225,"43262,375","ND","0,5","1,4","154,2","ND","ND"],
    [38226,"43262,41667","ND","0,7","1,6","119,7","ND","ND"],
    [38227,"43262,45833","ND","ND","ND","ND","ND","ND"],
    [38228,"43262,5","ND","ND","ND","ND","ND","ND"],
    [38229,"43262,54167","ND","0,2","1,3","157,6","ND","ND"],
    [38230,"43262,58333","ND","0,2","1,2","209,5","ND","ND"],
    [38231,"43262,625","ND","0,4","1,4","187,8","ND","ND"],
    [38232,"43262,66667","ND","0","3","306,4","ND","ND"],
    [38233,"43262,70833","ND","0","3,8","296,5","ND","ND"],
    [38234,"43262,75","ND","0","4,8","297,5","ND","ND"],
    [38235,"43262,79167","ND","0","2,5","256,6","ND","ND"],
    [38236,"43262,83333","ND","0","1,1","208","ND","ND"],
    [38237,"43262,875","ND","0,2","0,9","177,1","ND","ND"],
    [38238,"43262,91667","ND","0","0,6","202,3","ND","ND"],
    [38239,"43262,95833","ND","0","0,5","206,8","ND","ND"],
    [38240,"43292","ND","0,1","0,5","196,5","ND","ND"],
    [38241,"43292,04167","ND","0","0,5","203,3","ND","ND"],
    [38242,"43292,08333","ND","0","0,8","217,4","ND","ND"],
    [38243,"43292,125","ND","0","0,6","208,1","ND","ND"],
    [38244,"43292,16667","ND","0","0,3","197","ND","ND"],
    [38245,"43292,20833","ND","0,1","0,8","224,5","ND","ND"],
    [38246,"43292,25","ND","0","0,7","224,5","ND","ND"],
    [38247,"43292,29167","ND","0,1","0,8","206,7","ND","ND"],
    [38248,"43292,33333","ND","0,1","0,5","191","ND","ND"],
    [38249,"43292,375","ND","0,8","1","116,7","ND","ND"],
    [38250,"43292,41667","ND","1,1","1,2","138,8","ND","ND"],
    [38251,"43292,45833","ND","ND","ND","ND","ND","ND"],
    [38252,"43292,5","ND","0,6","1,4","179,2","ND","ND"],
    [38253,"43292,54167","ND","0,4","1,8","82,4","ND","ND"],
    [38254,"43292,58333","ND","0,7","1,5","109,7","ND","ND"],
    [38255,"43292,625","69,8","1,7","1,5","152,3","ND","ND"],
    [38256,"43292,66667","60,7","0,3","3,1","274,3","ND","ND"],
    [38257,"43292,70833","23,5","0","4,4","314,4","ND","ND"],
    [38258,"43292,75","10,2","0","3,4","306,9","ND","ND"],
    [38259,"43292,79167","15","0","3,2","306,3","ND","ND"],
    [38260,"43292,83333","16","0","3,2","306,2","ND","ND"],
    [38261,"43292,875","ND","ND","ND","ND","ND","ND"],
    [38262,"43292,91667","56,5","0,2","0,6","197,9","ND","ND"],
    [38263,"43292,95833","77,1","0,1","0,7","164,3","ND","ND"],
    [38264,"43323","50,1","0","0,4","166,5","ND","ND"],
    [38265,"43323,04167","51,6","0","0,7","182,1","ND","ND"],
    [38266,"43323,08333","67,3","0","0,7","231,4","ND","ND"],
    [38267,"43323,125","44","0","0,6","228,9","ND","ND"],
    [38268,"43323,16667","39,6","0","0,5","192","ND","ND"],
    [38269,"43323,20833","36,3","0,2","0,6","192,3","ND","ND"],
    [38270,"43323,25","44,1","0,1","0,6","193,4","ND","ND"],
    [38271,"43323,29167","50","0,1","0,8","206,7","ND","ND"],
    [38272,"43323,33333","63,1","0,1","0,5","108,4","ND","ND"],
    [38273,"43323,375","61,9","0,3","0,9","85","ND","ND"],
    [38274,"43323,41667","83,7","1,2","1,3","94,5","ND","ND"],
    [38275,"43323,45833","95,2","1,1","1,5","140,6","ND","ND"],
    [38276,"43323,5","52,1","0,6","1,5","198,2","ND","ND"],
    [38277,"43323,54167","42,8","1,1","1,7","173,8","ND","ND"],
    [38278,"43323,58333","51,5","0","4","320,4","ND","ND"],
    [38279,"43323,625","15,7","0","5","323","ND","ND"],
    [38280,"43323,66667","2,9","0","4,6","315,4","ND","ND"],
    [38281,"43323,70833","11,2","0","4,4","270","ND","ND"],
    [38282,"43323,75","27,4","0","1,8","199,1","ND","ND"],
    [38283,"43323,79167","34,2","0,2","1,3","142,8","ND","ND"],
    [38284,"43323,83333","29,7","0","0,5","167,8","ND","ND"],
    [38285,"43323,875","28,1","0","0,7","227,2","ND","ND"],
    [38286,"43323,91667","28,8","0","0,7","230,3","ND","ND"],
    [38287,"43323,95833","20,5","0,2","0,7","167,2","ND","ND"],
    [38288,"43354","25,7","0","0,6","113,9","ND","ND"],
    [38289,"43354,04167","36,3","0","0,7","142,9","ND","ND"],
    [38290,"43354,08333","26,8","0","0,6","184,3","ND","ND"],
    [38291,"43354,125","23,2","0","0,4","156,8","ND","ND"],
    [38292,"43354,16667","27,8","0","0,8","195,3","ND","ND"],
    [38293,"43354,20833","35,4","0","0,7","219","ND","ND"],
    [38294,"43354,25","22,9","0","0,6","225,6","ND","ND"],
    [38295,"43354,29167","36","0,1","0,5","182,8","ND","ND"],
    [38296,"43354,33333","67,2","0,1","0,8","213,3","ND","ND"],
    [38297,"43354,375","50,4","0,2","1,1","117,2","ND","ND"],
    [38298,"43354,41667","62,5","0,1","0,8","180,3","ND","ND"],
    [38299,"43354,45833","36,7","0,1","1","152,6","ND","ND"],
    [38300,"43354,5","43,4","0,1","1,2","163,3","ND","ND"],
    [38301,"43354,54167","31,3","0","1,2","182,5","ND","ND"],
    [38302,"43354,58333","38,9","0","2,4","163,8","ND","ND"],
    [38303,"43354,625","16,8","0","5","328,5","ND","ND"],
    [38304,"43354,66667","ND","0","3,8","324,7","ND","ND"],
    [38305,"43354,70833","6,5","0","2,8","149,8","ND","ND"],
    [38306,"43354,75","21,2","0,1","1,8","233,8","ND","ND"],
    [38307,"43354,79167","52,1","0","1,5","197,8","ND","ND"],
    [38308,"43354,83333","38,9","0","1,1","215,7","ND","ND"],
    [38309,"43354,875","36,7","0,1","0,7","210,9","ND","ND"],
    [38310,"43354,91667","45,3","0,1","0,9","172,8","ND","ND"],
    [38311,"43354,95833","38,5","0","0,9","206,5","ND","ND"],
    [38312,"43384","29,6","0","0,4","167,9","ND","ND"],
    [38313,"43384,04167","38,4","0","0,6","228","ND","ND"],
    [38314,"43384,08333","26,3","0","0,7","249,5","ND","ND"],
    [38315,"43384,125","41,1","0","0,4","161,5","ND","ND"],
    [38316,"43384,16667","22,9","0","0,6","211,4","ND","ND"],
    [38317,"43384,20833","22,6","0","0,6","216,1","ND","ND"],
    [38318,"43384,25","24,3","0,6","0,5","214,2","ND","ND"],
    [38319,"43384,29167","36,9","0","0,4","141,9","ND","ND"],
    [38320,"43384,33333","55,1","0,1","0,6","105,3","ND","ND"],
    [38321,"43384,375","64,2","0,3","0,9","107,1","ND","ND"],
    [38322,"43384,41667","85,7","0,3","1,1","112,5","ND","ND"],
    [38323,"43384,45833","79","0,5","1,3","116","ND","ND"],
    [38324,"43384,5","61,5","1,7","1,4","148,7","ND","ND"],
    [38325,"43384,54167","56,5","1,8","1,5","143","ND","ND"],
    [38326,"43384,58333","43,6","1,2","1,6","105,7","ND","ND"],
    [38327,"43384,625","44,3","0,7","1,6","142,3","ND","ND"],
    [38328,"43384,66667","40,6","0,1","2,9","250,5","ND","ND"],
    [38329,"43384,70833","40,4","0","2,2","217,4","ND","ND"],
    [38330,"43384,75","25,6","0","2,1","292,2","ND","ND"],
    [38331,"43384,79167","4,1","0","2,8","317,6","ND","ND"],
    [38332,"43384,83333","13,3","0","2,4","299,8","ND","ND"],
    [38333,"43384,875","16","0,1","1,5","177,9","ND","ND"],
    [38334,"43384,91667","35,9","0,1","0,8","216,6","ND","ND"],
    [38335,"43384,95833","51,6","0","0,6","226,9","ND","ND"],
    [38336,"43415","37,9","0","0,7","213,1","ND","ND"],
    [38337,"43415,04167","42,8","0","0,8","230,4","ND","ND"],
    [38338,"43415,08333","25,6","0","0,5","168,2","ND","ND"],
    [38339,"43415,125","30,5","0","0,6","211,4","ND","ND"],
    [38340,"43415,16667","26,5","0","0,6","230,3","ND","ND"],
    [38341,"43415,20833","33","0","0,3","168,9","ND","ND"],
    [38342,"43415,25","32,5","0","0,9","172,7","ND","ND"],
    [38343,"43415,29167","32","0","0,5","125,3","ND","ND"],
    [38344,"43415,33333","24,5","0,1","0,6","116,4","ND","ND"],
    [38345,"43415,375","24,5","0","1","170,8","ND","ND"],
    [38346,"43415,41667","32,2","0","1,1","161,3","ND","ND"],
    [38347,"43415,45833","26,8","0","1,2","149,6","ND","ND"],
    [38348,"43415,5","29,1","0,1","1,1","113,6","ND","ND"],
    [38349,"43415,54167","11,3","0,1","1,4","159","ND","ND"],
    [38350,"43415,58333","26","0","1,6","151,9","ND","ND"],
    [38351,"43415,625","24,2","0","1,7","119,9","ND","ND"],
    [38352,"43415,66667","20,3","0","2,1","183,9","ND","ND"],
    [38353,"43415,70833","29,6","0","1,2","239,8","ND","ND"],
    [38354,"43415,75","26,6","0","1,6","243,8","ND","ND"],
    [38355,"43415,79167","22,6","0","3,6","325,8","ND","ND"],
    [38356,"43415,83333","7,9","0","3,4","313,5","ND","ND"],
    [38357,"43415,875","13,1","0","2,4","318,5","ND","ND"],
    [38358,"43415,91667","12,7","0","1,4","196,9","ND","ND"],
    [38359,"43415,95833","25,2","0,1","0,9","196,2","ND","ND"],
    [38360,"43445","44","0","1","196,1","ND","ND"],
    [38361,"43445,04167","37,5","0","1","114","ND","ND"],
    [38362,"43445,08333","21,2","0","0,6","120,1","ND","ND"],
    [38363,"43445,125","14,1","0","0,6","88,5","ND","ND"],
    [38364,"43445,16667","18,4","0","0,6","63,8","ND","ND"],
    [38365,"43445,20833","17","0,4","0,6","61,7","ND","ND"],
    [38366,"43445,25","23,4","0","0,6","90,2","ND","ND"],
    [38367,"43445,29167","26,9","0","0,7","175,2","ND","ND"],
    [38368,"43445,33333","29,7","0","0,9","72,3","ND","ND"],
    [38369,"43445,375","34,2","0,2","0,9","129,2","ND","ND"],
    [38370,"43445,41667","45,5","0,5","0,8","129,1","ND","ND"],
    [38371,"43445,45833","42","0,7","1","143,7","ND","ND"],
    [38372,"43445,5","39,3","0,4","1","166,3","ND","ND"],
    [38373,"43445,54167","26,5","0,3","0,9","147,6","ND","ND"],
    [38374,"43445,58333","31,1","0,1","1,2","140,7","ND","ND"],
    [38375,"43445,625","19,6","0","2,3","317,1","ND","ND"],
    [38376,"43445,66667","5,2","0","3,7","303,2","ND","ND"],
    [38377,"43445,70833","9,4","0","3,3","305","ND","ND"],
    [38378,"43445,75","10,5","0","2,7","316,1","ND","ND"],
    [38379,"43445,79167","14,5","0","1","228,6","ND","ND"],
    [38380,"43445,83333","30,3","0","0,8","241,9","ND","ND"],
    [38381,"43445,875","28,5","0","0,6","221,6","ND","ND"],
    [38382,"43445,91667","48,4","0","0,6","200,5","ND","ND"],
    [38383,"43445,95833","39,2","0,1","0,5","170,3","ND","ND"],
    [38384,"11/13/2018 00:00","45,8","0","0,8","194,6","ND","ND"],
    [38385,"11/13/2018 01:00","30,4","0","0,5","212,4","ND","ND"],
    [38386,"11/13/2018 02:00","24,4","0","0,5","199,3","ND","ND"],
    [38387,"11/13/2018 03:00","28,5","0","0,5","174,1","ND","ND"],
    [38388,"11/13/2018 04:00","27,8","0,1","0,4","97,3","ND","ND"],
    [38389,"11/13/2018 05:00","29,2","0,5","0,7","180,8","ND","ND"],
    [38390,"11/13/2018 06:00","30,5","0,3","0,5","204,1","ND","ND"],
    [38391,"11/13/2018 07:00","65,5","0,2","0,5","198,4","ND","ND"],
    [38392,"11/13/2018 08:00","68,5","0,2","0,5","190,9","ND","ND"],
    [38393,"11/13/2018 09:00","61,6","0,5","0,8","132,9","ND","ND"],
    [38394,"11/13/2018 10:00","54,3","3","1,1","101,7","ND","ND"],
    [38395,"11/13/2018 11:00","74,3","4,5","1,3","96,2","ND","ND"],
    [38396,"11/13/2018 12:00","79,3","4","1,3","109,2","ND","ND"],
    [38397,"11/13/2018 13:00","58,5","2,3","1,8","187,2","ND","ND"],
    [38398,"11/13/2018 14:00","52,3","0","3,5","318,2","ND","ND"],
    [38399,"11/13/2018 15:00","7,8","0","3","279,5","ND","ND"],
    [38400,"11/13/2018 16:00","25,4","0,1","1,6","232,4","ND","ND"],
    [38401,"11/13/2018 17:00","7,7","0,3","1,1","176","ND","ND"],
    [38402,"11/13/2018 18:00","26,1","0,2","1,1","183,7","ND","ND"],
    [38403,"11/13/2018 19:00","30,2","0,1","0,8","232,5","ND","ND"],
    [38404,"11/13/2018 20:00","42,9","0,1","0,7","214,8","ND","ND"],
    [38405,"11/13/2018 21:00","55,8","0,1","1","228,6","ND","ND"],
    [38406,"11/13/2018 22:00","42,8","0","0,6","203,9","ND","ND"],
    [38407,"11/13/2018 23:00","42,6","0,1","0,8","186,4","ND","ND"],
    [38408,"11/14/2018 00:00","36,7","0","0,6","221,1","ND","ND"],
    [38409,"11/14/2018 01:00","26,9","0","0,9","225,4","ND","ND"],
    [38410,"11/14/2018 02:00","20,3","0","0,7","235,1","ND","ND"],
    [38411,"11/14/2018 03:00","24,4","0","0,6","192,9","ND","ND"],
    [38412,"11/14/2018 04:00","29,1","0","0,4","193,5","ND","ND"],
    [38413,"11/14/2018 05:00","24,8","0,1","0,6","213,1","ND","ND"],
    [38414,"11/14/2018 06:00","34,8","0","0,8","231,9","ND","ND"],
    [38415,"11/14/2018 07:00","48,6","0","0,6","207,7","ND","ND"],
    [38416,"11/14/2018 08:00","ND","ND","ND","ND","ND","ND"],
    [38417,"11/14/2018 09:00","ND","ND","ND","ND","ND","ND"],
    [38418,"11/14/2018 10:00","64,2","0,2","1,1","164","ND","ND"],
    [38419,"11/14/2018 11:00","38,7","0,1","1,3","110,8","ND","ND"],
    [38420,"11/14/2018 12:00","44,8","0,1","1","169,3","ND","ND"],
    [38421,"11/14/2018 13:00","41,8","0","4","305,6","ND","ND"],
    [38422,"11/14/2018 14:00","0,6","0","5,2","312,4","ND","ND"],
    [38423,"11/14/2018 15:00","1,8","0","5,8","329,2","ND","ND"],
    [38424,"11/14/2018 16:00","11,6","0,1","3,5","243,7","ND","ND"],
    [38425,"11/14/2018 17:00","34,4","0","2,1","184,3","ND","ND"],
    [38426,"11/14/2018 18:00","40","0","1,5","182,7","ND","ND"],
    [38427,"11/14/2018 19:00","29,5","0","1,2","158,5","ND","ND"],
    [38428,"11/14/2018 20:00","33,6","0","0,5","194,9","ND","ND"],
    [38429,"11/14/2018 21:00","50","0","0,4","199,6","ND","ND"],
    [38430,"11/14/2018 22:00","58,3","0,1","0,6","224,1","ND","ND"],
    [38431,"11/14/2018 23:00","40,8","0","0,7","172","ND","ND"],
    [38432,"11/15/2018 00:00","36","0","0,5","101,8","ND","ND"],
    [38433,"11/15/2018 01:00","36,6","0","0,6","160,8","ND","ND"],
    [38434,"11/15/2018 02:00","27,4","0","0,6","176,7","ND","ND"],
    [38435,"11/15/2018 03:00","27,6","0","0,7","218,1","ND","ND"],
    [38436,"11/15/2018 04:00","26,8","0","0,5","169,9","ND","ND"],
    [38437,"11/15/2018 05:00","32,3","0","0,6","229,1","ND","ND"],
    [38438,"11/15/2018 06:00","22,8","0","0,6","207","ND","ND"],
    [38439,"11/15/2018 07:00","40,6","0","0,6","228,8","ND","ND"],
    [38440,"11/15/2018 08:00","68,1","0","0,5","153,3","ND","ND"],
    [38441,"11/15/2018 09:00","48,5","0,5","0,9","137,7","ND","ND"],
    [38442,"11/15/2018 10:00","60","2,2","1,4","109,4","ND","ND"],
    [38443,"11/15/2018 11:00","84,2","1,6","1,5","151,3","ND","ND"],
    [38444,"11/15/2018 12:00","44,9","1,3","1,5","164,6","ND","ND"],
    [38445,"11/15/2018 13:00","43,5","0,9","1,2","126,1","ND","ND"],
    [38446,"11/15/2018 14:00","60,1","1,2","1,5","143,8","ND","ND"],
    [38447,"11/15/2018 15:00","54,2","0,6","1,9","219,8","ND","ND"],
    [38448,"11/15/2018 16:00","39,9","0","3","306,4","ND","ND"],
    [38449,"11/15/2018 17:00","13,9","0","4,5","296,7","ND","ND"],
    [38450,"11/15/2018 18:00","17,8","0","4,1","301","ND","ND"],
    [38451,"11/15/2018 19:00","15,4","0","4","297,2","ND","ND"],
    [38452,"11/15/2018 20:00","19,4","0","1,6","213,5","ND","ND"],
    [38453,"11/15/2018 21:00","24,5","0,1","0,8","169,8","ND","ND"],
    [38454,"11/15/2018 22:00","57,6","0,1","0,7","267,9","ND","ND"],
    [38455,"11/15/2018 23:00","58,5","0,1","0,8","231,8","ND","ND"],
    [38456,"11/16/2018 00:00","37,4","0","0,9","215,5","ND","ND"],
    [38457,"11/16/2018 01:00","28,1","0","0,4","173,6","ND","ND"],
    [38458,"11/16/2018 02:00","57,2","0","0,6","84,1","ND","ND"],
    [38459,"11/16/2018 03:00","46,2","0","0,6","193,2","ND","ND"],
    [38460,"11/16/2018 04:00","32,8","0","0,7","221,6","ND","ND"],
    [38461,"11/16/2018 05:00","28,4","0","0,6","203,1","ND","ND"],
    [38462,"11/16/2018 06:00","31,1","0","0,7","197,3","ND","ND"],
    [38463,"11/16/2018 07:00","62,3","0","0,6","231,9","ND","ND"],
    [38464,"11/16/2018 08:00","63,3","0,1","0,4","134","ND","ND"],
    [38465,"11/16/2018 09:00","67,8","0,2","0,9","177,8","ND","ND"],
    [38466,"11/16/2018 10:00","57,2","0,8","1,1","179,7","ND","ND"],
    [38467,"11/16/2018 11:00","37,7","1,2","1,6","130,6","ND","ND"],
    [38468,"11/16/2018 12:00","38,5","0,8","1,7","128,4","ND","ND"],
    [38469,"11/16/2018 13:00","44,6","1,1","1,6","178,9","ND","ND"],
    [38470,"11/16/2018 14:00","41,4","0,7","1","188,5","ND","ND"],
    [38471,"11/16/2018 15:00","40,8","0,3","1","182,8","ND","ND"],
    [38472,"11/16/2018 16:00","49,1","0,3","2","264,6","29,3","56,8"],
    [38473,"11/16/2018 17:00","40,9","0","3,1","303,8","28,3","58,4"],
    [38474,"11/16/2018 18:00","26,7","0","3,7","302","27,1","60,7"],
    [38475,"11/16/2018 19:00","22,4","0","3,2","285,6","26,6","61,7"],
    [38476,"11/16/2018 20:00","17,2","0","1,1","205,4","26,3","63,2"],
    [38477,"11/16/2018 21:00","28,1","0,1","1,1","167,3","25,7","65,3"],
    [38478,"11/16/2018 22:00","28,3","0","0,9","175,7","25,6","66,8"],
    [38479,"11/16/2018 23:00","50,8","0,1","0,8","187,6","24,8","72,4"],
    [38480,"11/17/2018 00:00","61,2","0,1","0,7","134,1","24,5","74,8"],
    [38481,"11/17/2018 01:00","58,2","0","0,7","185,2","24","79,5"],
    [38482,"11/17/2018 02:00","52,4","0","0,6","182,4","23,5","81,9"],
    [38483,"11/17/2018 03:00","45,5","0","0,5","152,8","23,3","82,7"],
    [38484,"11/17/2018 04:00","47,3","0","0,8","126,2","23,4","81,6"],
    [38485,"11/17/2018 05:00","42,4","0","0,4","173,8","23,2","83,9"],
    [38486,"11/17/2018 06:00","45,2","0","0,6","170,8","23","85,1"],
    [38487,"11/17/2018 07:00","51,7","0","0,4","215,7","23","85,4"],
    [38488,"11/17/2018 08:00","57,5","0,1","0,7","150,7","23,5","84,4"],
    [38489,"11/17/2018 09:00","68,5","0,1","0,7","119,8","24,7","79,3"],
    [38490,"11/17/2018 10:00","51,9","0,2","0,9","166,1","26,5","71,6"],
    [38491,"11/17/2018 11:00","50,7","2,7","1,5","157,3","27,9","65,7"],
    [38492,"11/17/2018 12:00","48,1","1","1,4","147","29,1","60,3"],
    [38493,"11/17/2018 13:00","39,7","0,2","2,4","96,6","25,3","77,5"],
    [38494,"11/17/2018 14:00","48,4","0","1,5","222,4","24,2","88,8"],
    [38495,"11/17/2018 15:00","14,3","0","2,7","278,2","28","64,6"],
    [38496,"11/17/2018 16:00","ND","0","3,2","313,4","28,4","60,3"],
    [38497,"11/17/2018 17:00","17,5","0,2","1,8","81,9","28","64,9"],
    [38498,"11/17/2018 18:00","48,3","0","1,2","271,9","26,8","67,3"],
    [38499,"11/17/2018 19:00","37,2","0,1","0,8","166,9","26","71,5"],
    [38500,"11/17/2018 20:00","62,8","0,1","1,3","242","24,5","77,5"],
    [38501,"11/17/2018 21:00","50,3","0,1","1,1","238,3","23,6","80,2"],
    [38502,"11/17/2018 22:00","58,2","0,1","1","236","23,5","79,3"],
    [38503,"11/17/2018 23:00","55,2","0","0,7","158,9","23,6","80,8"],
    [38504,"11/18/2018 00:00","72,8","0","0,6","179,9","23,5","83"],
    [38505,"11/18/2018 01:00","69,3","0","0,5","166,3","23,1","84,4"],
    [38506,"11/18/2018 02:00","61,1","0","0,5","157,3","22,9","85,9"],
    [38507,"11/18/2018 03:00","50,7","0","0,4","157,7","22,4","87,4"],
    [38508,"11/18/2018 04:00","44","0","0,4","219,1","22,4","88,1"],
    [38509,"11/18/2018 05:00","51,3","0","0,3","140,1","22,5","88,4"],
    [38510,"11/18/2018 06:00","47,8","0","0,3","133,6","22,5","88,7"],
    [38511,"11/18/2018 07:00","47","0","0,6","122,6","22,7","88,5"],
    [38512,"11/18/2018 08:00","50,5","0","0,9","138,8","22,5","89,5"],
    [38513,"11/18/2018 09:00","57,2","0,1","0,8","116,1","22,9","86,9"],
    [38514,"11/18/2018 10:00","72,7","0,3","1","137","25,4","76,8"],
    [38515,"11/18/2018 11:00","66,9","0,7","1,5","132,5","27,7","65,3"],
    [38516,"11/18/2018 12:00","42,5","0,3","1,5","123,8","28,9","61,1"],
    [38517,"11/18/2018 13:00","38,9","0,2","1,2","146,4","29,4","60,6"],
    [38518,"11/18/2018 14:00","49,9","0,1","1,5","178,7","30","56"],
    [38519,"11/18/2018 15:00","21,7","0","5,1","300,9","29,8","54,9"],
    [38520,"11/18/2018 16:00","10","0","5","315,2","27,9","60,1"],
    [38521,"11/18/2018 17:00","3,9","0","4,6","310,9","27","61,9"],
    [38522,"11/18/2018 18:00","11,8","0","3,1","203,3","25,8","64,9"],
    [38523,"11/18/2018 19:00","23,9","0","2","142","23,4","75,3"],
    [38524,"11/18/2018 20:00","20,4","0","2","163,1","22,2","80,6"],
    [38525,"11/18/2018 21:00","18,3","0","1,1","111,6","21,9","85,8"],
    [38526,"11/18/2018 22:00","22,6","0","1,1","77,3","21,1","91,1"],
    [38527,"11/18/2018 23:00","15,4","0","0,7","76,7","20,8","94,4"],
    [38528,"11/19/2018 00:00","12","0","0,3","83,8","20,8","95,6"],
    [38529,"11/19/2018 01:00","8,9","0","0,4","125,7","20,9","96"],
    [38530,"11/19/2018 02:00","7,7","0","0,8","185,5","21","96,1"],
    [38531,"11/19/2018 03:00","9,5","0","1,1","145,5","20,7","96,3"],
    [38532,"11/19/2018 04:00","4,8","0","0,9","98","20,8","96"],
    [38533,"11/19/2018 05:00","14,3","0","0,7","89,5","20,6","96,1"],
    [38534,"11/19/2018 06:00","21,8","0","0,4","99,3","20,5","95,8"],
    [38535,"11/19/2018 07:00","33,6","0,2","0,3","110,7","20,9","95"],
    [38536,"11/19/2018 08:00","46,9","0,2","1,1","63,3","21,5","92,9"],
    [38537,"11/19/2018 09:00","66,1","0,3","1,3","88,3","22,1","89,7"],
    [38538,"11/19/2018 10:00","71,3","2,8","1,8","82,2","24,1","79,2"],
    [38539,"11/19/2018 11:00","55,5","2","1,5","98","25,1","72,6"],
    [38540,"11/19/2018 12:00","32,8","1","1,4","90,3","25,5","71,6"],
    [38541,"11/19/2018 13:00","37","1,3","1,3","104,5","26,6","67,9"],
    [38542,"11/19/2018 14:00","32,3","2,5","1,2","167,8","27,9","62,6"],
    [38543,"11/19/2018 15:00","36,4","2,4","1,8","147","28","60,3"],
    [38544,"11/19/2018 16:00","44,6","0,9","1,6","200","27,5","65,5"],
    [38545,"11/19/2018 17:00","47,9","0,2","1,2","201,7","26,8","68,1"],
    [38546,"11/19/2018 18:00","54,6","0,1","2","295,6","25,7","69,4"],
    [38547,"11/19/2018 19:00","16,5","0","2,9","312,5","25,5","63,7"],
    [38548,"11/19/2018 20:00","10,2","0,1","1,3","210,7","25,5","66,2"],
    [38549,"11/19/2018 21:00","29","0,1","1","195,9","24,9","70,8"],
    [38550,"11/19/2018 22:00","40,9","0","1,3","190,1","23,3","82,5"],
    [38551,"11/19/2018 23:00","47,9","0","1,2","219,8","21,8","93,1"],
    [38552,"11/20/2018 00:00","17,7","0","0,5","142,8","21,6","95,3"],
    [38553,"11/20/2018 01:00","18,1","0","0,5","143,2","21,6","96,1"],
    [38554,"11/20/2018 02:00","16,3","0","0,6","97,8","21,3","96,7"],
    [38555,"11/20/2018 03:00","7,8","0","0,5","199,2","21","97,1"],
    [38556,"11/20/2018 04:00","8,3","0","0,6","184,6","20,9","97,2"],
    [38557,"11/20/2018 05:00","18,1","0","0,5","176,8","20,5","97,1"],
    [38558,"11/20/2018 06:00","16,3","0,1","0,8","223","20,3","96,8"],
    [38559,"11/20/2018 07:00","21,5","0,1","0,4","196,5","20,6","96,4"],
    [38560,"11/20/2018 08:00","41,5","0,1","0,5","128,4","21,2","95,1"],
    [38561,"11/20/2018 09:00","54,4","0,3","0,8","127,4","22,2","91,9"],
    [38562,"11/20/2018 10:00","82,4","0,2","1","103,2","23,4","85,5"],
    [38563,"11/20/2018 11:00","57,5","0,7","1,3","117","26","73"],
    [38564,"11/20/2018 12:00","47,9","0,6","1,3","108,5","26,8","67,5"],
    [38565,"11/20/2018 13:00","34,3","0,7","1,2","200","28","63,5"],
    [38566,"11/20/2018 14:00","35,2","0,4","1,4","112,8","29,2","59,2"],
    [38567,"11/20/2018 15:00","38,3","0,5","1,1","197,6","30","56"],
    [38568,"11/20/2018 16:00","44,1","0,5","1,4","158,8","30,1","54,7"],
    [38569,"11/20/2018 17:00","32,5","0","1,7","292,1","29,3","56,3"],
    [38570,"11/20/2018 18:00","27,1","0","2,3","288,4","28","58,1"],
    [38571,"11/20/2018 19:00","19,1","0","2,3","283,1","26,7","63,6"],
    [38572,"11/20/2018 20:00","24","0","3","270","26,1","66"],
    [38573,"11/20/2018 21:00","25,2","0","1,1","199,6","25,3","69,9"],
    [38574,"11/20/2018 22:00","49,5","0,1","0,6","162,5","25,5","70,1"],
    [38575,"11/20/2018 23:00","46,5","0,1","1","221,4","24,2","77,7"],
    [38576,"11/21/2018 00:00","48,4","0","0,7","218,9","23,7","79,4"],
    [38577,"11/21/2018 01:00","36,3","0","1,4","245,4","23,2","82,3"],
    [38578,"11/21/2018 02:00","19,7","0","1,3","152,9","23,4","80,5"],
    [38579,"11/21/2018 03:00","24,9","0","1,3","98","22,8","86,8"],
    [38580,"11/21/2018 04:00","25,3","0","0,9","79,5","21,2","93,1"],
    [38581,"11/21/2018 05:00","3,2","0","1,1","122","20,7","94,9"],
    [38582,"11/21/2018 06:00","3","0","1","160,2","20,2","95,5"],
    [38583,"11/21/2018 07:00","6,5","0","1,1","134,5","20,1","95,1"],
    [38584,"11/21/2018 08:00","15,3","0","0,9","203,2","20,1","95,4"],
    [38585,"11/21/2018 09:00","18,1","0","0,9","216,2","20,6","96"],
    [38586,"11/21/2018 10:00","10,5","0","0,9","153,7","21,4","93,5"],
    [38587,"11/21/2018 11:00","15,8","0","1","160,1","22,5","89,5"],
    [38588,"11/21/2018 12:00","17,8","0","1,2","168,6","24","80,8"],
    [38589,"11/21/2018 13:00","16,4","0,1","1,2","113,7","24,9","75,7"],
    [38590,"11/21/2018 14:00","26,8","0,1","1,1","168","25,2","74"],
    [38591,"11/21/2018 15:00","23,7","0","1","144,9","26,4","70,8"],
    [38592,"11/21/2018 16:00","41,7","0,1","1,6","97,4","26,2","67,9"],
    [38593,"11/21/2018 17:00","18","0,1","1,6","256,7","26,2","64,9"],
    [38594,"11/21/2018 18:00","36,9","0","1,4","271,6","25,2","72,1"],
    [38595,"11/21/2018 19:00","56,4","0","1","233,2","24,2","78,8"],
    [38596,"11/21/2018 20:00","53,1","0","0,8","233,8","23,7","79,5"],
    [38597,"11/21/2018 21:00","54","0","1","242,9","23,2","82,4"],
    [38598,"11/21/2018 22:00","43,1","0,1","0,6","99,7","23,2","80,1"],
    [38599,"11/21/2018 23:00","37,4","0,1","0,5","156,9","23,3","80"],
    [38600,"11/22/2018 00:00","73,4","0,2","0,4","73,9","22,9","83,2"],
    [38601,"11/22/2018 01:00","48,9","0","0,6","130,5","22,5","85,3"],
    [38602,"11/22/2018 02:00","35,1","0","0,6","131,9","22","88,5"],
    [38603,"11/22/2018 03:00","24,6","0","0,5","177,6","21,8","90,2"],
    [38604,"11/22/2018 04:00","31,2","0","0,4","97,9","21,8","90,3"],
    [38605,"11/22/2018 05:00","27,2","0","0,7","162,8","21,7","90,1"],
    [38606,"11/22/2018 06:00","36,2","0","0,6","196,9","21,5","90,8"],
    [38607,"11/22/2018 07:00","53,3","0,1","0,5","193,6","21,5","91"],
    [38608,"11/22/2018 08:00","68,2","0,1","1,1","178,1","22,1","88,8"],
    [38609,"11/22/2018 09:00","73,5","0,2","0,8","121,7","23,2","84,7"],
    [38610,"11/22/2018 10:00","ND","ND","ND","ND","ND","ND"],
    [38611,"11/22/2018 11:00","ND","ND","ND","ND","ND","ND"],
    [38612,"11/22/2018 12:00","39,2","0,2","1,3","90,6","27,7","62,4"],
    [38613,"11/22/2018 13:00","16,3","0,1","1,3","145,4","28,2","61,6"],
    [38614,"11/22/2018 14:00","ND","0,5","1,6","144,9","29,1","58,7"],
    [38615,"11/22/2018 15:00","ND","0,4","2,3","269,3","29,4","56"],
    [38616,"11/22/2018 16:00","ND","0","3,9","321,2","29,4","52,8"],
    [38617,"11/22/2018 17:00","ND","0","4","309,9","28,2","56"],
    [38618,"11/22/2018 18:00","ND","0","4,2","296","26,9","58,9"],
    [38619,"11/22/2018 19:00","ND","0","3,9","305,4","26,1","61,4"],
    [38620,"11/22/2018 20:00","ND","0","3,5","303,5","26","62,7"],
    [38621,"11/22/2018 21:00","ND","0","3,4","283,6","25,7","64,1"],
    [38622,"11/22/2018 22:00","ND","0","1","198,6","24,9","69,3"],
    [38623,"11/22/2018 23:00","ND","0","0,6","157,4","24,5","74,8"],
    [38624,"11/23/2018 00:00","ND","0","0,9","235,9","23,6","78,2"],
    [38625,"11/23/2018 01:00","ND","0","1","226,8","22,6","84,9"],
    [38626,"11/23/2018 02:00","ND","0","0,5","182,2","22","88,7"],
    [38627,"11/23/2018 03:00","ND","0","0,5","186,8","21,9","89,7"],
    [38628,"11/23/2018 04:00","ND","0","0,7","223,6","21,6","90,7"],
    [38629,"11/23/2018 05:00","ND","0","0,8","230,4","21,3","91,3"],
    [38630,"11/23/2018 06:00","ND","0","1,1","214,9","21,1","91,3"],
    [38631,"11/23/2018 07:00","ND","0","0,7","185,5","21,7","88,5"],
    [38632,"11/23/2018 08:00","ND","0,1","1","122,6","23,8","81,6"],
    [38633,"11/23/2018 09:00","ND","0,3","1,2","127,9","23,6","84,1"],
    [38634,"11/23/2018 10:00","ND","0","0,9","127,2","24,8","79,1"],
    [38635,"11/23/2018 11:00","ND","0,3","1,5","90,5","26,7","68,5"],
    [38636,"11/23/2018 12:00","ND","0,3","1,6","116,7","27,5","63,8"],
    [38637,"11/23/2018 13:00","ND","0,3","1,5","147,7","28,2","59,7"],
    [38638,"11/23/2018 14:00","ND","1,4","1,7","148,3","28,2","62,2"],
    [38639,"11/23/2018 15:00","ND","0,2","2","246,4","28,7","56,1"],
    [38640,"11/23/2018 16:00","ND","1","2,5","167,5","28,5","60,8"],
    [38641,"11/23/2018 17:00","ND","0,3","1,5","152","28,2","59,3"],
    [38642,"11/23/2018 18:00","ND","0","2,4","259,9","26,5","62,5"],
    [38643,"11/23/2018 19:00","ND","0","4","297,7","25,5","64,8"],
    [38644,"11/23/2018 20:00","ND","0,1","2,9","277,3","25,1","66,2"],
    [38645,"11/23/2018 21:00","ND","0","1,3","208,3","24,5","70"],
    [38646,"11/23/2018 22:00","ND","0,1","0,8","205,5","23,8","75,7"],
    [38647,"11/23/2018 23:00","ND","0","0,8","218,2","22,8","79,1"],
    [38648,"11/24/2018 00:00","ND","0","1","225,2","22,4","79,9"],
    [38649,"11/24/2018 01:00","ND","0","0,4","118","22,7","79,6"],
    [38650,"11/24/2018 02:00","ND","0","0,7","128,9","22,9","81,5"],
    [38651,"11/24/2018 03:00","ND","0","0,5","171,6","22,4","84,1"],
    [38652,"11/24/2018 04:00","ND","0","0,7","245,4","21,8","87,1"],
    [38653,"11/24/2018 05:00","ND","0","0,8","234,2","21,9","86,8"],
    [38654,"11/24/2018 06:00","ND","0","0,5","191,2","21,9","86,9"],
    [38655,"11/24/2018 07:00","ND","0","0,4","118,7","22,2","86"],
    [38656,"11/24/2018 08:00","ND","0,2","0,6","151","23,3","82"],
    [38657,"11/24/2018 09:00","ND","0,2","0,8","110,3","24,3","77,4"],
    [38658,"11/24/2018 10:00","ND","0,7","1,5","104,2","25,8","70,9"],
    [38659,"11/24/2018 11:00","ND","1,2","1,5","129,6","27,6","65"],
    [38660,"11/24/2018 12:00","ND","1,2","1,9","163,7","28,1","62,8"],
    [38661,"11/24/2018 13:00","ND","0,7","1,8","216,4","27,7","64,6"],
    [38662,"11/24/2018 14:00","ND","0","1,5","260,5","26","71,7"],
    [38663,"11/24/2018 15:00","ND","0","0,8","233,2","26,6","71,8"],
    [38664,"11/24/2018 16:00","ND","0","2,8","291,3","26,8","66,7"],
    [38665,"11/24/2018 17:00","ND","0","5","309","26,9","63,4"],
    [38666,"11/24/2018 18:00","ND","0","3","282,1","26,4","62,4"],
    [38667,"11/24/2018 19:00","ND","0","1,1","240,4","25,2","68,7"],
    [38668,"11/24/2018 20:00","ND","0","0,9","219,1","24,6","68,8"],
    [38669,"11/24/2018 21:00","ND","0","0,8","217,4","24","70"],
    [38670,"11/24/2018 22:00","ND","0","0,7","198,7","23,3","72,7"],
    [38671,"11/24/2018 23:00","ND","0","0,8","239,1","22,6","76,1"],
    [38672,"11/25/2018 00:00","ND","0","0,6","186,9","22","78,8"],
    [38673,"11/25/2018 01:00","ND","0","0,6","201,6","21,4","82"],
    [38674,"11/25/2018 02:00","ND","0","0,8","207,4","21,4","82,1"],
    [38675,"11/25/2018 03:00","ND","0","0,4","173,6","22,3","80,1"],
    [38676,"11/25/2018 04:00","ND","0","0,4","162,1","22","81,6"],
    [38677,"11/25/2018 05:00","ND","0","0,5","79,4","22,2","82,5"],
    [38678,"11/25/2018 06:00","ND","0","0,7","208,2","21,7","84,6"],
    [38679,"11/25/2018 07:00","ND","0","0,5","169,9","21,7","85,6"],
    [38680,"11/25/2018 08:00","ND","0,5","0,9","127,2","23,3","80,9"],
    [38681,"11/25/2018 09:00","ND","3,1","1,4","149,4","25,1","71,9"],
    [38682,"11/25/2018 10:00","ND","2,4","2,1","143,1","26,1","69,1"],
    [38683,"11/25/2018 11:00","ND","0,4","1,3","141,9","27,2","66,2"],
    [38684,"11/25/2018 12:00","ND","0,9","1,5","110,1","28,7","59,3"],
    [38685,"11/25/2018 13:00","ND","1","1,3","144,7","29,8","55,8"],
    [38686,"11/25/2018 14:00","ND","0,4","1,4","139,8","30,2","54"],
    [38687,"11/25/2018 15:00","ND","0","1,9","240,2","30,2","53,8"],
    [38688,"11/25/2018 16:00","ND","0","3,7","315,3","29,5","54,3"],
    [38689,"11/25/2018 17:00","ND","0","4,7","297,7","28,3","58"],
    [38690,"11/25/2018 18:00","ND","0","5,4","306,6","26,8","63,3"],
    [38691,"11/25/2018 19:00","ND","0","4,5","309,5","26,3","64"],
    [38692,"11/25/2018 20:00","ND","0","5,1","301","26,4","62,4"],
    [38693,"11/25/2018 21:00","ND","0","2,1","247,8","26,5","62"],
    [38694,"11/25/2018 22:00","ND","0","1,6","163,1","25,5","73"],
    [38695,"11/25/2018 23:00","ND","0,1","0,9","123,4","24,9","76,5"],
    [38696,"11/26/2018 00:00","ND","0,4","1,2","176,5","24,1","79,3"],
    [38697,"11/26/2018 01:00","ND","0","0,6","147,5","23,8","80,2"],
    [38698,"11/26/2018 02:00","ND","0","0,5","155,3","23,4","82,8"],
    [38699,"11/26/2018 03:00","ND","0","0,7","70,1","23,4","81,5"],
    [38700,"11/26/2018 04:00","ND","0","0,6","74,5","23","84,1"],
    [38701,"11/26/2018 05:00","ND","0","1,4","168,9","22,8","85,9"],
    [38702,"11/26/2018 06:00","ND","1,9","1,7","157,6","22,4","88,1"],
    [38703,"11/26/2018 07:00","ND","0,3","1,6","155,8","21,8","89,8"],
    [38704,"11/26/2018 08:00","ND","0","0,8","121,1","21,6","89,2"],
    [38705,"11/26/2018 09:00","ND","0","1","155,1","21,6","88,1"],
    [38706,"11/26/2018 10:00","ND","ND","ND","ND","ND","ND"],
    [38707,"11/26/2018 11:00","ND","0","1,2","208,4","21,8","90,9"],
    [38708,"11/26/2018 12:00","ND","0","1,1","150,9","23,4","82,2"],
    [38709,"11/26/2018 13:00","ND","0","1,4","67,6","24,3","77,3"],
    [38710,"11/26/2018 14:00","ND","0,8","1,5","72,6","25","73,2"],
    [38711,"11/26/2018 15:00","ND","0,3","2,2","101,6","25","72"],
    [38712,"11/26/2018 16:00","ND","1","2,4","242","22,9","84"],
    [38713,"11/26/2018 17:00","ND","0,4","1","174,8","22,8","85,3"],
    [38714,"11/26/2018 18:00","ND","0,3","0,9","79,2","22,7","85,5"],
    [38715,"11/26/2018 19:00","ND","0,7","0,7","115,8","21,9","88,9"],
    [38716,"11/26/2018 20:00","ND","0,2","1","185,1","21,1","92,4"],
    [38717,"11/26/2018 21:00","ND","0","1,3","182,9","20,7","94,4"],
    [38718,"11/26/2018 22:00","ND","0","1,4","189,2","20,1","95,1"],
    [38719,"11/26/2018 23:00","ND","0","1,4","246","19,7","96,1"],
    [38720,"11/27/2018 00:00","ND","0","0,5","153,2","19,8","96,7"],
    [38721,"11/27/2018 01:00","0","0","0,1","58,8","20","97"],
    [38722,"11/27/2018 02:00","ND","0","0,4","162,2","20,1","97,3"],
    [38723,"11/27/2018 03:00","0,1","0","0,7","222,7","19,9","97,5"],
    [38724,"11/27/2018 04:00","ND","0","0,6","244","19,5","97,9"],
    [38725,"11/27/2018 05:00","ND","0","0,5","182,1","19,4","98,4"],
    [38726,"11/27/2018 06:00","ND","0","0,5","197,5","19,6","98,7"],
    [38727,"11/27/2018 07:00","12,7","0","0,8","233,8","19,6","98,9"],
    [38728,"11/27/2018 08:00","11","0","0,8","219,9","19,8","98,7"],
    [38729,"11/27/2018 09:00","ND","0,1","0,7","136,9","20,7","96,8"],
    [38730,"11/27/2018 10:00","ND","0,1","1,5","127,8","21,9","90,1"],
    [38731,"11/27/2018 11:00","ND","0,1","0,7","148,8","23,4","79,8"],
    [38732,"11/27/2018 12:00","18,3","0,2","1,1","185,9","25,4","71,6"],
    [38733,"11/27/2018 13:00","21,9","0","1,6","135,9","26,2","67,5"],
    [38734,"11/27/2018 14:00","40,6","0,2","2","77,9","26,9","65,7"],
    [38735,"11/27/2018 15:00","38,1","1,5","2,1","132","27,3","61,6"],
    [38736,"11/27/2018 16:00","28,4","0,7","1,6","98,1","27,5","59,1"],
    [38737,"11/27/2018 17:00","18,9","0,5","1,8","191,6","26,2","65,5"],
    [38738,"11/27/2018 18:00","36,1","0,1","1,8","268,4","24,7","73,8"],
    [38739,"11/27/2018 19:00","34,6","0,1","1,8","247,2","24","74,7"],
    [38740,"11/27/2018 20:00","28","0","1,5","231,4","23,6","75,2"],
    [38741,"11/27/2018 21:00","25,4","0","0,7","217,9","23,5","78,7"],
    [38742,"11/27/2018 22:00","36,2","0","1,1","260,5","21,9","89,4"],
    [38743,"11/27/2018 23:00","19,1","0","0,9","175,6","21,6","91,8"],
    [38744,"11/28/2018 00:00","21,4","0","0,6","164,1","21,2","93,6"],
    [38745,"11/28/2018 01:00","13,3","0","0,5","139,7","21,1","95,3"],
    [38746,"11/28/2018 02:00","12,2","0","0,4","119,6","21,1","96,2"],
    [38747,"11/28/2018 03:00","13,2","0","0,5","223,6","20,9","96,6"],
    [38748,"11/28/2018 04:00","26","0","0,4","166,4","20,9","96,7"],
    [38749,"11/28/2018 05:00","16,6","0","0,4","113,1","20,7","96,9"],
    [38750,"11/28/2018 06:00","19,7","0","0,6","182,3","20,6","97,1"],
    [38751,"11/28/2018 07:00","23,7","0","0,9","229,1","20,2","96,9"],
    [38752,"11/28/2018 08:00","43,1","0,1","0,5","215,1","20,8","95,9"],
    [38753,"11/28/2018 09:00","ND","ND","0,8","73,7","21,9","92,5"],
    [38754,"11/28/2018 10:00","ND","ND","1,2","111,3","ND","84,6"],
    [38755,"11/28/2018 11:00","55,1","0,5","1","96,2","24,7","75,8"],
    [38756,"11/28/2018 12:00","47,1","0,2","0,9","149,8","25,7","70,8"],
    [38757,"11/28/2018 13:00","43,8","0,1","1,1","103,6","25,7","70,9"],
    [38758,"11/28/2018 14:00","48,1","0,1","0,8","151,6","26,1","68,8"],
    [38759,"11/28/2018 15:00","44","0,1","0,6","213,4","26,2","68"],
    [38760,"11/28/2018 16:00","51,3","0,4","1,5","238,6","26,9","67,3"],
    [38761,"11/28/2018 17:00","64","0","1,3","246,9","26,3","70,1"],
    [38762,"11/28/2018 18:00","61,6","0,1","1","232,8","25,8","73,5"],
    [38763,"11/28/2018 19:00","64,5","0,1","1,5","256,4","24,3","79,5"],
    [38764,"11/28/2018 20:00","53,6","0","1,6","256,3","23,3","80,3"],
    [38765,"11/28/2018 21:00","62,8","0,1","1,6","258,1","22,7","80,9"],
    [38766,"11/28/2018 22:00","53,7","0","1,9","233,5","22,5","79"],
    [38767,"11/28/2018 23:00","44,2","0","0,8","197,8","22,4","77,7"],
    [38768,"11/29/2018 00:00","51,2","0","1,2","258,9","21,9","81,6"],
    [38769,"11/29/2018 01:00","45,2","0","0,7","232,7","21,3","83,3"],
    [38770,"11/29/2018 02:00","55,4","0","0,6","205,3","20,7","85,8"],
    [38771,"11/29/2018 03:00","25,7","0","0,6","217,3","20,6","86,9"],
    [38772,"11/29/2018 04:00","27,2","0","0,7","206,9","20,2","88,8"],
    [38773,"11/29/2018 05:00","30,7","0","1,1","247,1","20","88,9"],
    [38774,"11/29/2018 06:00","30,9","0","0,6","214,7","20,2","88,3"],
    [38775,"11/29/2018 07:00","48,4","0,2","0,6","223,6","20,4","88,9"],
    [38776,"11/29/2018 08:00","117,5","0,1","0,6","182,7","21,7","85,7"],
    [38777,"11/29/2018 09:00","92,6","0,1","0,7","203,2","23,9","75"],
    [38778,"11/29/2018 10:00","ND","ND","1","119,2","26,5","64,9"],
    [38779,"11/29/2018 11:00","ND","ND","1,6","106,4","27,2","63,5"],
    [38780,"11/29/2018 12:00","58","ND","1,5","115,8","27,9","61,7"],
    [38781,"11/29/2018 13:00","47,5","ND","1,2","121,7","28,3","60"],
    [38782,"11/29/2018 14:00","66,6","ND","1,2","221","28,7","57,7"],
    [38783,"11/29/2018 15:00","61","ND","1,9","248,8","28,4","56,7"],
    [38784,"11/29/2018 16:00","35,1","ND","3","321,1","28,3","57,1"],
    [38785,"11/29/2018 17:00","16,4","ND","2,5","227,7","26,9","64,1"],
    [38786,"11/29/2018 18:00","28,4","ND","1","183,1","23","84,9"],
    [38787,"11/29/2018 19:00","31,5","ND","1,2","165,4","23,2","87,9"],
    [38788,"11/29/2018 20:00","32,9","ND","0,6","136,9","23,3","87,2"],
    [38789,"11/29/2018 21:00","51,1","ND","0,6","154,7","23,1","88,1"],
    [38790,"11/29/2018 22:00","60","ND","0,8","165,7","23,1","88,5"],
    [38791,"11/29/2018 23:00","56,5","ND","0,8","165,5","22,3","91,9"],
    [38792,"11/30/2018 00:00","27,6","ND","0,8","203,2","21,8","93,7"],
    [38793,"11/30/2018 01:00","23,1","ND","0,6","179,7","21,5","94,9"],
    [38794,"11/30/2018 02:00","21,4","ND","0,4","133","21,6","95,7"],
    [38795,"11/30/2018 03:00","22,3","ND","0,5","159,4","21,3","96,4"],
    [38796,"11/30/2018 04:00","21,9","ND","0,4","201,3","21,4","96,6"],
    [38797,"11/30/2018 05:00","22,9","ND","0,7","62,8","21,3","96,4"],
    [38798,"11/30/2018 06:00","36,2","ND","0,8","70,2","21,3","95,8"],
    [38799,"11/30/2018 07:00","35,4","ND","0,9","75,7","21,1","95,5"],
    [38800,"11/30/2018 08:00","50,1","ND","1,2","163,1","21","95,1"],
    [38801,"11/30/2018 09:00","39,2","ND","0,5","165,4","21,1","95,2"],
    [38802,"11/30/2018 10:00","14,6","ND","0,8","162,3","22","90,5"],
    [38803,"11/30/2018 11:00","9,5","ND","1,3","146,3","24","80,6"],
    [38804,"11/30/2018 12:00","25,4","ND","1,5","137,4","25,3","73,8"],
    [38805,"11/30/2018 13:00","18,6","ND","1,5","251,1","25,7","70,1"],
    [38806,"11/30/2018 14:00","20,3","ND","0,9","188,5","25,9","66,4"],
    [38807,"11/30/2018 15:00","12,8","ND","1,9","262,3","27,1","62,4"],
    [38808,"11/30/2018 16:00","10,5","ND","1,9","206,3","26,9","62,9"],
    [38809,"11/30/2018 17:00","27,9","ND","1,5","79,3","25,1","71,7"],
    [38810,"11/30/2018 18:00","44,3","ND","0,9","179,3","24,8","70,4"],
    [38811,"11/30/2018 19:00","33,8","ND","0,7","219,3","24,3","74,4"],
    [38812,"11/30/2018 20:00","45,2","ND","0,9","226,9","23,7","78,5"],
    [38813,"11/30/2018 21:00","58,2","ND","0,9","165,8","23,2","75,2"],
    [38814,"11/30/2018 22:00","29,5","ND","0,9","129,9","23,1","79,6"],
    [38815,"11/30/2018 23:00","41,8","ND","1,7","145,4","21,4","88,5"],
    [38816,"43112","18,7","ND","1,4","115,2","20,6","92,2"],
    [38817,"43112,04167","7,9","ND","0,9","92,4","19,7","95,1"],
    [38818,"43112,08333","2,7","ND","0,7","59,2","19,6","96,4"],
    [38819,"43112,125","5,1","ND","1,2","76,1","19,5","96,9"],
    [38820,"43112,16667","7,8","ND","0,8","72,4","19,5","97,1"],
    [38821,"43112,20833","14,8","ND","0,7","142,2","19,6","97"],
    [38822,"43112,25","15,7","ND","0,8","176,4","19,6","97,2"],
    [38823,"43112,29167","24,9","ND","1","169,6","19,6","97,3"],
    [38824,"43112,33333","31,9","ND","1,1","147,2","19,8","96,9"],
    [38825,"43112,375","26,4","ND","0,6","140,3","20,6","93,7"],
    [38826,"43112,41667","27,5","ND","1,2","98,5","23,1","80,7"],
    [38827,"43112,45833","26,2","ND","1,4","97,4","24,9","71,3"],
    [38828,"43112,5","32,1","ND","1,5","126,6","26,5","64,9"],
    [38829,"43112,54167","32,2","ND","1,3","110,9","27,1","62,5"],
    [38830,"43112,58333","35","ND","1,7","134,9","28,2","59,2"],
    [38831,"43112,625","36","ND","2,8","232,7","25,9","69,4"],
    [38832,"43112,66667","48,4","ND","1,5","222,5","22,6","85,6"],
    [38833,"43112,70833","18,8","ND","1","194","24,2","79,1"],
    [38834,"43112,75","45,7","ND","1,2","224,7","24,5","75,7"],
    [38835,"43112,79167","34,3","ND","1,1","244,3","23,1","80,2"],
    [38836,"43112,83333","34,6","ND","0,6","200","22,6","79,8"],
    [38837,"43112,875","51,6","ND","1","233,5","21,9","81,5"],
    [38838,"43112,91667","42,8","ND","1,2","241,2","21,3","84,3"],
    [38839,"43112,95833","40","ND","1,1","219","21,3","83,7"],
    [38840,"43143","35","ND","0,8","257,3","21","85,8"],
    [38841,"43143,04167","45,3","ND","0,8","245,1","20,6","87,6"],
    [38842,"43143,08333","28,8","ND","0,4","182","20,5","88,2"],
    [38843,"43143,125","30,2","ND","0,5","168,4","20,8","89,5"],
    [38844,"43143,16667","32,8","ND","0,5","159,8","20,6","93,2"],
    [38845,"43143,20833","31,8","ND","0,5","182,7","20,4","94"],
    [38846,"43143,25","36,2","ND","0,4","167,3","20,4","94"],
    [38847,"43143,29167","23,3","ND","0,5","195,1","20,2","94,7"],
    [38848,"43143,33333","30,7","ND","0,4","124,2","21,1","93,7"],
    [38849,"43143,375","37,1","ND","1,1","97,2","23,3","84,1"],
    [38850,"43143,41667","29,1","ND","1,4","156,1","25,6","71,1"],
    [38851,"43143,45833","22,9","ND","1,5","138","26,9","64,4"],
    [38852,"43143,5","12,5","ND","1,5","168,7","27,5","61,6"],
    [38853,"43143,54167","19,8","ND","1,9","276,9","26,2","66,5"],
    [38854,"43143,58333","25","ND","1,8","245,7","26,3","65"],
    [38855,"43143,625","14,8","ND","4,4","311,1","27,2","60,7"],
    [38856,"43143,66667","10,3","ND","4,6","313,2","27,4","58,8"],
    [38857,"43143,70833","12,9","ND","4,6","309","26,2","61,5"],
    [38858,"43143,75","13,2","ND","4,7","303,3","25","65"],
    [38859,"43143,79167","15,8","ND","2,6","266,3","24,7","65,8"],
    [38860,"43143,83333","17,7","ND","0,6","166,6","24,5","68,4"],
    [38861,"43143,875","43,4","ND","0,7","221,7","24,2","72"],
    [38862,"43143,91667","67,6","ND","0,6","226,2","23,6","74,7"],
    [38863,"43143,95833","58,2","ND","0,6","224,4","22,8","78,8"],
    [38864,"43171","41,1","ND","0,7","203,8","22,3","81,5"],
    [38865,"43171,04167","30,2","ND","0,7","216,7","21,9","83,1"],
    [38866,"43171,08333","21,5","ND","0,6","232,7","21,8","84"],
    [38867,"43171,125","23,5","ND","0,4","179,1","21,6","85,6"],
    [38868,"43171,16667","21,3","ND","0,9","242,6","21,2","87,3"],
    [38869,"43171,20833","19,9","ND","0,7","240","20,9","86,9"],
    [38870,"43171,25","23,1","ND","0,6","208,7","21","86,7"],
    [38871,"43171,29167","48,6","ND","0,4","202,8","21,4","85,9"],
    [38872,"43171,33333","87,5","ND","0,7","228,2","22,2","83,4"],
    [38873,"43171,375","78,8","ND","0,8","165,3","24,4","72,9"],
    [38874,"43171,41667","37,6","ND","1,3","185","25,4","67,4"],
    [38875,"43171,45833","39,7","ND","1,2","149,6","27","63"],
    [38876,"43171,5","43","ND","1,3","122,3","28,4","57,5"],
    [38877,"43171,54167","35","ND","1,5","117,3","29,2","53,3"],
    [38878,"43171,58333","37,5","ND","1,5","115,3","30","51,6"],
    [38879,"43171,625","50,7","ND","2,6","251,2","30,1","50,2"],
    [38880,"43171,66667","33,4","ND","4,7","317,9","28,6","53,5"],
    [38881,"43171,70833","18,2","ND","4,3","300,4","27,2","56,6"],
    [38882,"43171,75","23,3","ND","4,2","309,2","26,4","60,1"],
    [38883,"43171,79167","22,7","ND","4,7","302,9","25,5","63,5"],
    [38884,"43171,83333","25,4","ND","2,3","224,5","25,5","64,6"],
    [38885,"43171,875","31,5","ND","0,8","168","24,9","68,2"],
    [38886,"43171,91667","41,5","ND","1","169,9","24,1","71,8"],
    [38887,"43171,95833","36,9","ND","0,8","167,3","23,3","76,3"],
    [38888,"43202","35,9","ND","0,8","230,2","22,8","78,7"],
    [38889,"43202,04167","29,2","ND","0,6","179,1","22,6","78,9"],
    [38890,"43202,08333","22,6","ND","0,7","188,6","22,6","78,9"],
    [38891,"43202,125","19,2","ND","0,7","235,6","22,1","79,4"],
    [38892,"43202,16667","17,8","ND","1,1","174,7","22","82,4"],
    [38893,"43202,20833","17,6","ND","1,7","161,1","21,6","86,3"],
    [38894,"43202,25","25,4","ND","0,9","144,1","21,5","87,5"],
    [38895,"43202,29167","35,9","ND","1,1","192,7","21,5","88,6"],
    [38896,"43202,33333","36,3","ND","1,6","238","21,1","90,4"],
    [38897,"43202,375","29,7","ND","1,1","201,5","22","86,2"],
    [38898,"43202,41667","31,1","ND","1,3","176,9","24,5","71,4"],
    [38899,"43202,45833","22,2","ND","1","233,9","25,2","68,5"],
    [38900,"43202,5","26,4","ND","1,1","167,7","26,4","64"],
    [38901,"43202,54167","28,6","ND","1,4","127,8","27,4","58,5"],
    [38902,"43202,58333","29","ND","1,3","162,9","28,2","54,8"],
    [38903,"43202,625","31,4","ND","2,1","198,3","29","49,2"],
    [38904,"43202,66667","14,2","ND","4,1","316,7","27,3","56"],
    [38905,"43202,70833","19,7","ND","4,2","315","26,9","56,8"],
    [38906,"43202,75","18,3","ND","5,6","308","25","63,7"],
    [38907,"43202,79167","21,8","ND","4,4","303,8","24,9","62,8"],
    [38908,"43202,83333","13,1","ND","3,2","306,9","24,8","62,2"],
    [38909,"43202,875","14,5","ND","1,5","211,7","24,5","66,6"],
    [38910,"43202,91667","32","ND","1,5","284,8","23,8","68,3"],
    [38911,"43202,95833","21,5","ND","0,9","197,7","23,7","65,6"],
    [38912,"43232","18,2","ND","0,7","219,2","23","70"],
    [38913,"43232,04167","19,6","ND","0,7","226,9","22,3","75,6"],
    [38914,"43232,08333","17,6","ND","0,7","214","22,1","77,5"],
    [38915,"43232,125","15,8","ND","0,7","224,1","21,9","78,8"],
    [38916,"43232,16667","15,5","ND","0,4","180,5","21,9","79,7"],
    [38917,"43232,20833","21,4","ND","0,9","236,1","21","84,8"],
    [38918,"43232,25","14,1","ND","0,8","224,6","20,7","88,8"],
    [38919,"43232,29167","22,3","ND","0,6","228,5","20,7","89,2"],
    [38920,"43232,33333","47,6","ND","0,8","144,2","21,7","85,8"],
    [38921,"43232,375","56,5","ND","1,2","103,8","23,9","75,2"],
    [38922,"43232,41667","41,6","ND","1,2","147,9","24,7","68,6"],
    [38923,"43232,45833","31","ND","1,7","168,5","24,2","72"],
    [38924,"43232,5","30,7","ND","1,6","212,9","24,1","71,3"],
    [38925,"43232,54167","10","ND","2","237,2","23,2","77,8"],
    [38926,"43232,58333","13,4","ND","1","212,6","25,3","66"],
    [38927,"43232,625","11,1","ND","2,3","233,4","25,7","65,9"],
    [38928,"43232,66667","19,1","ND","1,1","169","26,8","58,9"],
    [38929,"43232,70833","18,9","ND","2,9","306,7","26,1","61,9"],
    [38930,"43232,75","17,7","ND","3,2","305,9","24,9","65,2"],
    [38931,"43232,79167","17,4","ND","2","243,2","23,6","73,2"],
    [38932,"43232,83333","27,5","ND","0,9","218","22,5","81,6"],
    [38933,"43232,875","24,9","ND","1,3","223,1","20,8","88,6"],
    [38934,"43232,91667","12,5","ND","0,8","168,9","20,2","93,2"],
    [38935,"43232,95833","14,3","ND","0,8","181,4","20,4","94,9"],
    [38936,"43263","11,1","ND","0,4","180,6","20,2","95,7"],
    [38937,"43263,04167","11,7","ND","0,6","169,4","20","96,3"],
    [38938,"43263,08333","4,8","ND","0,9","213,1","19,5","96,6"],
    [38939,"43263,125","2,6","ND","0,4","178,5","19,5","96,9"],
    [38940,"43263,16667","4,3","ND","0,6","205,8","19,5","97"],
    [38941,"43263,20833","6,3","ND","1,1","228","19,4","96,9"],
    [38942,"43263,25","6,2","ND","1,3","235,8","19,2","96,8"],
    [38943,"43263,29167","9,3","ND","0,8","233,2","19,3","96,2"],
    [38944,"43263,33333","20","ND","0,8","131,2","20,1","95,3"],
    [38945,"43263,375","25,1","ND","1,3","99,8","21,5","91"],
    [38946,"43263,41667","39,7","ND","1,3","101","22,8","81,5"],
    [38947,"43263,45833","20,7","ND","1,2","161,6","24,8","71,9"],
    [38948,"43263,5","20,7","ND","1,1","148","26,2","65,2"],
    [38949,"43263,54167","23,6","ND","1,5","123,9","27,8","58,2"],
    [38950,"43263,58333","33,9","ND","1,7","92,5","28,6","55,1"],
    [38951,"43263,625","44,4","ND","1,8","236,7","29","55,1"],
    [38952,"43263,66667","38,3","ND","3,6","314","27,9","56,9"],
    [38953,"43263,70833","15,9","ND","3,6","303,2","27","58,3"],
    [38954,"43263,75","20","ND","3,6","310,4","25,7","62"],
    [38955,"43263,79167","20,9","ND","3,5","285,1","25,2","63"],
    [38956,"43263,83333","20,1","ND","1,5","230,1","24,7","64,1"],
    [38957,"43263,875","25","ND","0,6","170,6","24,2","67,4"],
    [38958,"43263,91667","52,9","ND","0,7","226,3","22,9","73,9"],
    [38959,"43263,95833","43,7","ND","0,8","240,7","21,9","79,1"],
    [38960,"43293","38,6","ND","0,9","247,6","21,4","81,1"],
    [38961,"43293,04167","31,3","ND","0,5","192,7","21,3","82,4"],
    [38962,"43293,08333","25","ND","0,8","235,1","21,4","82,3"],
    [38963,"43293,125","25,3","ND","0,5","205,2","21,7","83,1"],
    [38964,"43293,16667","26,6","ND","1,3","162,2","21,2","87,3"],
    [38965,"43293,20833","18,6","ND","0,5","199,2","20,5","93"],
    [38966,"43293,25","14,2","ND","0,7","208,1","20,4","94,9"],
    [38967,"43293,29167","25,6","ND","0,6","83,6","20,7","95,4"],
    [38968,"43293,33333","30,7","ND","0,6","168,3","21,4","94,2"],
    [38969,"43293,375","42,3","ND","0,8","178,2","21,8","92"],
    [38970,"43293,41667","44,6","ND","1","129,2","23,2","84,2"],
    [38971,"43293,45833","37,9","ND","1,2","132","25,8","69,7"],
    [38972,"43293,5","36,3","ND","1,2","180,9","26,8","64,1"],
    [38973,"43293,54167","40","ND","1,9","101,6","28,2","57,7"],
    [38974,"43293,58333","32,3","ND","1,8","243","27,5","59,2"],
    [38975,"43293,625","32,7","ND","3,2","315,7","28,5","54,3"],
    [38976,"43293,66667","5,2","ND","4","323","28,2","54,6"],
    [38977,"43293,70833","9,1","ND","4,7","306,9","26,8","58,3"],
    [38978,"43293,75","14,4","ND","4,2","319,7","25,6","61,4"],
    [38979,"43293,79167","14,9","ND","3,3","316,4","25","63,1"],
    [38980,"43293,83333","15,5","ND","1,2","202,4","25","64,7"],
    [38981,"43293,875","41,1","ND","1","167,9","24,6","66,8"],
    [38982,"43293,91667","39,4","ND","0,8","115,8","24,2","73,8"],
    [38983,"43293,95833","62,7","ND","1","152,4","23,4","77,9"],
    [38984,"43324","73,1","ND","0,6","190","22,8","80,7"],
    [38985,"43324,04167","66","ND","0,8","237,1","22,2","80,4"],
    [38986,"43324,08333","35,9","ND","0,5","109,2","22,3","80,9"],
    [38987,"43324,125","32,6","ND","0,6","198,6","22,1","83,3"],
    [38988,"43324,16667","33,4","ND","0,7","208,8","21,3","86"],
    [38989,"43324,20833","32,2","ND","0,6","172,7","20,9","86,8"],
    [38990,"43324,25","25,9","ND","0,6","230,4","21,3","85,3"],
    [38991,"43324,29167","39","ND","0,5","167,7","21,6","85,2"],
    [38992,"43324,33333","46","ND","0,7","97,3","23","80,6"],
    [38993,"43324,375","44,7","ND","0,7","132,5","23,6","76,1"],
    [38994,"43324,41667","54,6","ND","1","158,7","25","71,4"],
    [38995,"43324,45833","43,8","ND","1,3","113,7","26,8","63,8"],
    [38996,"43324,5","39","ND","1,4","134,2","28,1","58,8"],
    [38997,"43324,54167","35,6","ND","1,3","129,8","28,5","56,2"],
    [38998,"43324,58333","51,6","ND","1,4","119,3","29,7","52,3"],
    [38999,"43324,625","59,3","ND","1,3","252,2","29,1","52,7"],
    [39000,"43324,66667","33,8","ND","3,5","310,7","27,8","56,5"],
    [39001,"43324,70833","17,7","ND","3,6","308","26,9","59,5"],
    [39002,"43324,75","18,6","ND","3,4","305,3","26,1","62"],
    [39003,"43324,79167","16,1","ND","4,3","295,5","25,6","61,6"],
    [39004,"43324,83333","14,4","ND","2,3","270,8","25,8","60,7"],
    [39005,"43324,875","21,2","ND","1,2","198,6","24,3","70,6"],
    [39006,"43324,91667","27,3","ND","0,7","182,4","24,1","74,6"],
    [39007,"43324,95833","61,7","ND","0,9","237,7","22,8","80,9"],
    [39008,"43355","44,3","ND","1,2","242,6","22,9","77,4"],
    [39009,"43355,04167","23,8","ND","0,6","112,1","22,8","80,1"],
    [39010,"43355,08333","40,1","ND","0,6","97,4","22,1","85,6"],
    [39011,"43355,125","38,2","ND","0,6","215,3","21,6","87,1"],
    [39012,"43355,16667","38,3","ND","0,9","254,2","21","88,7"],
    [39013,"43355,20833","33,7","ND","0,8","216,6","20,5","89,1"],
    [39014,"43355,25","30,8","ND","0,7","233,1","20,2","88,9"],
    [39015,"43355,29167","35,5","ND","0,5","189,2","20,4","89,3"],
    [39016,"43355,33333","49,5","ND","0,8","159,9","22,4","83,6"],
    [39017,"43355,375","42,4","ND","0,9","188,6","24,5","74,8"],
    [39018,"43355,41667","38,9","ND","1,3","136,9","26,2","67,1"],
    [39019,"43355,45833","42,6","ND","1,5","154,6","27,5","61,9"],
    [39020,"43355,5","42,7","ND","1,5","132,3","28,6","57,6"],
    [39021,"43355,54167","43,2","ND","1,4","128","29,1","55,2"],
    [39022,"43355,58333","44,5","ND","1,4","152,6","30","51,1"],
    [39023,"43355,625","43,2","ND","1,4","148,5","31,1","48,3"],
    [39024,"43355,66667","34,9","ND","1,5","167,2","31,3","47,5"],
    [39025,"43355,70833","43,1","ND","3,8","307,6","29,1","55,5"],
    [39026,"43355,75","32","ND","3,9","304,5","27,6","58,3"],
    [39027,"43355,79167","30,6","ND","3,3","312,1","26,7","61,4"],
    [39028,"43355,83333","30,8","ND","1,7","231,5","26,5","62,4"],
    [39029,"43355,875","36,5","ND","1,3","217,2","25,8","64,6"],
    [39030,"43355,91667","44,9","ND","0,7","236,2","24,7","70,8"],
    [39031,"43355,95833","60,4","ND","0,7","224,3","23,5","75,6"],
    [39032,"43385","48,4","ND","1","244,1","22,7","78,7"],
    [39033,"43385,04167","34,7","ND","0,6","224","22,3","80,4"],
    [39034,"43385,08333","33,1","ND","0,8","236,8","22","81,2"],
    [39035,"43385,125","32,6","ND","0,5","214,6","21,7","82,9"],
    [39036,"43385,16667","29,3","ND","0,5","224,1","21","86,2"],
    [39037,"43385,20833","28,4","ND","1,1","240,9","20,7","87"],
    [39038,"43385,25","31","ND","0,8","226","20,9","86,5"],
    [39039,"43385,29167","50,4","ND","0,6","183,1","21,1","86,3"],
    [39040,"43385,33333","86,9","ND","0,7","188","22","84,2"],
    [39041,"43385,375","66,7","ND","1","99,9","24,5","73,4"],
    [39042,"43385,41667","61,1","ND","1,3","134,5","26,3","66,8"],
    [39043,"43385,45833","58,4","ND","1,4","139,2","27,6","61,8"],
    [39044,"43385,5","47,8","ND","1,8","126","28,8","57,8"],
    [39045,"43385,54167","51,3","ND","1,5","107,9","29,6","55,5"],
    [39046,"43385,58333","60,6","ND","1,3","161,2","30,6","51,6"],
    [39047,"43385,625","53,6","ND","2,7","307,5","30,7","49"],
    [39048,"43385,66667","19","ND","3,7","310,5","30,4","50,8"],
    [39049,"43385,70833","20,2","ND","4,1","315,5","28,6","56,3"],
    [39050,"43385,75","26,5","ND","5,7","300","26,9","60,3"],
    [39051,"43385,79167","46","ND","3,7","303,6","26,6","60,6"],
    [39052,"43385,83333","27,6","ND","1,3","211","26,8","60"],
    [39053,"43385,875","32","ND","1","202,9","26,2","63,8"],
    [39054,"43385,91667","53,3","ND","0,9","185,4","24,9","71,8"],
    [39055,"43385,95833","71,9","ND","0,9","224,2","23,5","76,4"],
    [39056,"43416","67,6","ND","0,7","225,6","22,9","78,3"],
    [39057,"43416,04167","57,1","ND","0,5","196,6","22,3","81"],
    [39058,"43416,08333","74,3","ND","0,6","197,9","22,1","82,1"],
    [39059,"43416,125","33,7","ND","0,5","222,6","22,2","82,5"],
    [39060,"43416,16667","35,7","ND","0,5","193,4","21,8","84,7"],
    [39061,"43416,20833","36,3","ND","0,8","225,7","21,5","86"],
    [39062,"43416,25","50","ND","0,5","180,4","21,3","86,6"],
    [39063,"43416,29167","62,7","ND","0,7","218,2","21,4","86,6"],
    [39064,"43416,33333","76","ND","0,6","166,5","22,8","81,5"],
    [39065,"43416,375","63,8","ND","1,1","116,8","25","72"],
    [39066,"43416,41667","68,9","ND","1","161","25,8","70,3"],
    [39067,"43416,45833","61,3","ND","1,3","157,4","27,8","61,2"],
    [39068,"43416,5","ND","ND","1,7","150","28,5","58,9"],
    [39069,"43416,54167","ND","ND","1,3","198,5","28,7","58,3"],
    [39070,"43416,58333","ND","ND","2","225,8","28,9","55,6"],
    [39071,"43416,625","ND","ND","1,9","151,2","30","52,1"],
    [39072,"43416,66667","ND","ND","2,1","244,6","30,2","49,4"],
    [39073,"43416,70833","ND","0","2,9","309,7","28,5","55"],
    [39074,"43416,75","ND","0,2","4","300,2","27,5","57"],
    [39075,"43416,79167","ND","0,4","3,9","300,9","26,8","59,8"],
    [39076,"43416,83333","ND","0,4","1,6","244,2","26,7","59,9"],
    [39077,"43416,875","ND","1","1,2","209,4","26,2","63"],
    [39078,"43416,91667","ND","0,8","1","196,8","25,5","70,9"],
    [39079,"43416,95833","ND","1,1","0,8","81,9","24,9","75,9"],
    [39080,"43446","ND","0,9","0,7","81,1","24,3","78,4"],
    [39081,"43446,04167","ND","0,5","0,8","146,7","24,2","80,3"],
    [39082,"43446,08333","ND","0,5","0,6","221,5","23,9","80,9"],
    [39083,"43446,125","ND","0,4","0,5","176,9","23,7","81,6"],
    [39084,"43446,16667","ND","0,3","0,6","100,9","23,5","82"],
    [39085,"43446,20833","ND","0,5","0,7","149","23,4","82,1"],
    [39086,"43446,25","ND","1,6","0,9","84","23,1","81,8"],
    [39087,"43446,29167","ND","1,6","0,9","90,1","23,2","81"],
    [39088,"43446,33333","ND","0,7","0,6","199,7","23,5","81,5"],
    [39089,"43446,375","ND","1,1","0,8","114,9","24,6","77,7"],
    [39090,"43446,41667","ND","0,6","1","171,5","26,1","71,5"],
    [39091,"43446,45833","ND","0,5","1,6","127,1","27,9","62,1"],
    [39092,"43446,5","ND","0,2","1,2","154,9","28,7","59,6"],
    [39093,"43446,54167","ND","ND","1,6","162,4","29,7","55,6"],
    [39094,"43446,58333","ND","0,1","1,2","166,9","30,5","52,9"],
    [39095,"43446,625","ND","0,7","1,8","172,9","30,7","51,8"],
    [39096,"43446,66667","ND","0,2","2,6","314,8","29,9","53,3"],
    [39097,"43446,70833","ND","ND","3,4","310,9","28,9","55,8"],
    [39098,"43446,75","ND","ND","4,2","305,9","27,3","60,1"],
    [39099,"43446,79167","ND","0,2","3,7","308,7","26,8","60,9"],
    [39100,"43446,83333","ND","0,1","3","307,5","26,9","60,2"],
    [39101,"43446,875","ND","0,4","3,5","256,6","26,4","64"],
    [39102,"43446,91667","ND","1,1","1,1","87,2","25,6","69,9"],
    [39103,"43446,95833","ND","1","1,1","130,1","25,4","68,8"],
    [39104,"12/13/2018 00:00","ND","1","0,8","84,4","24,3","73,3"],
    [39105,"12/13/2018 01:00","ND","0,5","0,8","106","23","77,6"],
    [39106,"12/13/2018 02:00","ND","0,1","0,4","135,1","22,6","80,7"],
    [39107,"12/13/2018 03:00","ND","ND","0,7","231,7","22,1","82,9"],
    [39108,"12/13/2018 04:00","ND","0,1","0,9","172","22,1","82,6"],
    [39109,"12/13/2018 05:00","ND","0,2","0,6","107,2","21,8","85,6"],
    [39110,"12/13/2018 06:00","ND","0,9","0,5","184,8","21,5","88"],
    [39111,"12/13/2018 07:00","ND","0,7","0,6","224,2","21,2","88,2"],
    [39112,"12/13/2018 08:00","ND","0,9","0,5","180,7","22,5","83,1"],
    [39113,"12/13/2018 09:00","ND","1","1","184,7","24,6","74,3"],
    [39114,"12/13/2018 10:00","ND","1,5","1,3","115,7","25,9","70,4"],
    [39115,"12/13/2018 11:00","ND","1,6","1,4","108,9","27,4","64,3"],
    [39116,"12/13/2018 12:00","ND","1,6","1,6","110,2","27,6","65,2"],
    [39117,"12/13/2018 13:00","ND","2,1","1,3","137,5","27,2","67,6"],
    [39118,"12/13/2018 14:00","ND","1,9","1","211,6","28,3","62,6"],
    [39119,"12/13/2018 15:00","ND","0,9","1,4","198,4","28,7","58,2"],
    [39120,"12/13/2018 16:00","23,6","0,2","2,6","323,6","28,2","57,5"],
    [39121,"12/13/2018 17:00","10,9","0,2","2,8","310,8","27,2","59"],
    [39122,"12/13/2018 18:00","16,1","0,4","3,2","317,9","26,4","61,9"],
    [39123,"12/13/2018 19:00","13,9","0","3,7","316,2","25,7","64,6"],
    [39124,"12/13/2018 20:00","9,8","ND","4","312,1","25,3","65,7"],
    [39125,"12/13/2018 21:00","8,8","ND","3,3","308,2","25,2","64,5"],
    [39126,"12/13/2018 22:00","8,4","0,3","1,2","202,1","24,8","64,7"],
    [39127,"12/13/2018 23:00","19,8","0,4","0,7","211,3","23,6","72,7"],
    [39128,"12/14/2018 00:00","45","0,5","0,6","223,6","22,8","77,6"],
    [39129,"12/14/2018 01:00","36,8","0,2","0,7","229,7","22,5","78,3"],
    [39130,"12/14/2018 02:00","28","0,2","0,6","202,2","22,2","79,9"],
    [39131,"12/14/2018 03:00","25","0,2","0,6","206,5","22,2","80,6"],
    [39132,"12/14/2018 04:00","31,3","0","0,8","232,5","21,8","84,9"],
    [39133,"12/14/2018 05:00","24,3","ND","0,6","184","21,6","86,6"],
    [39134,"12/14/2018 06:00","33,1","0,5","0,7","131,3","21,6","88,5"],
    [39135,"12/14/2018 07:00","47,2","0,9","0,8","81,5","21,6","90,8"],
    [39136,"12/14/2018 08:00","55,4","0,7","0,7","111","21,9","89,6"],
    [39137,"12/14/2018 09:00","55,4","1,1","1","130,5","22,9","84,9"],
    [39138,"12/14/2018 10:00","58,1","1,1","1,2","99,2","24","79,6"],
    [39139,"12/14/2018 11:00","51,5","1,3","1,3","122,3","25,2","73,6"],
    [39140,"12/14/2018 12:00","45,9","1,2","1,3","124,2","26","69,1"],
    [39141,"12/14/2018 13:00","39,7","1,2","1,3","205,2","26,7","67"],
    [39142,"12/14/2018 14:00","37,9","1","1,4","130","28","62,5"],
    [39143,"12/14/2018 15:00","44,3","0,7","2,3","189,5","25,1","74"],
    [39144,"12/14/2018 16:00","31,8","1,4","0,9","222,2","23,8","77,1"],
    [39145,"12/14/2018 17:00","41,8","1,3","1,1","220,7","24,6","75,4"],
    [39146,"12/14/2018 18:00","54,5","0,9","1,2","235","24,3","75,1"],
    [39147,"12/14/2018 19:00","54,6","0,8","1,5","244,7","23,1","77,6"],
    [39148,"12/14/2018 20:00","41,8","0,8","1,4","248,5","22,2","78,2"],
    [39149,"12/14/2018 21:00","39,1","1,3","0,7","212","22,3","77,1"],
    [39150,"12/14/2018 22:00","46,1","0,7","1,1","229,9","22,1","77,9"],
    [39151,"12/14/2018 23:00","33,1","0,5","0,8","232,1","22,1","78,1"],
    [39152,"12/15/2018 00:00","36,7","0,8","0,8","238,6","21,7","80,5"],
    [39153,"12/15/2018 01:00","39,5","0,4","0,7","235,9","21","82,8"],
    [39154,"12/15/2018 02:00","20,8","0,3","0,9","231,9","20,5","84,1"],
    [39155,"12/15/2018 03:00","20,2","0,5","0,5","210,6","20,6","84"],
    [39156,"12/15/2018 04:00","21,5","0,4","0,6","196,6","20,8","84,1"],
    [39157,"12/15/2018 05:00","27,8","0,4","0,4","204,5","20,9","84,7"],
    [39158,"12/15/2018 06:00","27,8","0,8","0,5","192,9","21,1","84,7"],
    [39159,"12/15/2018 07:00","39,4","0,8","0,5","208,3","20,7","86,1"],
    [39160,"12/15/2018 08:00","49,4","1,2","0,6","138,8","21,2","85,7"],
    [39161,"12/15/2018 09:00","68,9","1,3","0,7","172,6","22,3","84,8"],
    [39162,"12/15/2018 10:00","124,2","2,3","0,8","153,1","24,4","74,3"],
    [39163,"12/15/2018 11:00","96,2","6,9","1,1","109","26,4","66,2"],
    [39164,"12/15/2018 12:00","88,3","9,2","1,4","131,4","27,7","61,7"],
    [39165,"12/15/2018 13:00","81,8","5,7","1,6","141,8","29","55,8"],
    [39166,"12/15/2018 14:00","56,8","4,7","1,6","131,4","30,1","52,7"],
    [39167,"12/15/2018 15:00","53","4,6","1,4","125,2","30,2","52,1"],
    [39168,"12/15/2018 16:00","45,1","3,8","1,2","105,2","30,3","50,6"],
    [39169,"12/15/2018 17:00","35,7","2,6","2,3","242,6","29,8","53,2"],
    [39170,"12/15/2018 18:00","36,6","0,8","3,5","308,3","27,9","58,2"],
    [39171,"12/15/2018 19:00","22,4","0,7","4,1","293","26,8","60,3"],
    [39172,"12/15/2018 20:00","22,9","0,9","2,5","277,2","26,5","59,9"],
    [39173,"12/15/2018 21:00","23","1,1","1,3","247,8","25,4","63,5"],
    [39174,"12/15/2018 22:00","38,3","1,1","0,7","209,9","24,9","67,2"],
    [39175,"12/15/2018 23:00","51","1","0,7","231,9","23,6","72,9"],
    [39176,"12/16/2018 00:00","70,2","0,8","0,6","212,7","23","76,3"],
    [39177,"12/16/2018 01:00","54,6","0,6","0,8","237,6","22,4","78,3"],
    [39178,"12/16/2018 02:00","40,2","0,5","0,4","186,5","21,8","81"],
    [39179,"12/16/2018 03:00","46,4","0,5","0,8","209,5","21,4","82,8"],
    [39180,"12/16/2018 04:00","38,4","0,4","0,4","202,1","21,3","83,3"],
    [39181,"12/16/2018 05:00","42,6","0,4","0,6","195,9","21,4","83,8"],
    [39182,"12/16/2018 06:00","40,3","0,4","0,7","208,6","21,1","84,9"],
    [39183,"12/16/2018 07:00","40,5","0,4","0,5","192,5","21,2","84,6"],
    [39184,"12/16/2018 08:00","45,4","0,7","0,4","158","22,3","81,9"],
    [39185,"12/16/2018 09:00","54,7","0,7","0,7","126,1","24,8","71,3"],
    [39186,"12/16/2018 10:00","43,3","1,2","1,2","146,7","26,7","63,4"],
    [39187,"12/16/2018 11:00","33,4","2,5","1,5","161,9","27,9","59,9"],
    [39188,"12/16/2018 12:00","29,8","2,5","1,4","110,7","29,2","55,9"],
    [39189,"12/16/2018 13:00","35,2","1,8","1,4","117,9","29,8","53,4"],
    [39190,"12/16/2018 14:00","42,9","1,1","1,4","214,9","30,9","48,5"],
    [39191,"12/16/2018 15:00","44,4","0,8","2,4","269,8","31,2","46,6"],
    [39192,"12/16/2018 16:00","20,6","0,4","4,2","321,9","30,5","48,3"],
    [39193,"12/16/2018 17:00","17,7","0,2","4,6","306,4","29,4","50,5"],
    [39194,"12/16/2018 18:00","20,4","0,3","4,5","306,3","27,7","55,6"],
    [39195,"12/16/2018 19:00","25,2","0,2","4,5","301,3","27","57,9"],
    [39196,"12/16/2018 20:00","22,4","0,5","1,6","226","26,9","57,6"],
    [39197,"12/16/2018 21:00","29,8","0,6","1,4","202,3","26,6","59,3"],
    [39198,"12/16/2018 22:00","31,4","0,7","0,7","149,6","25,6","65,9"],
    [39199,"12/16/2018 23:00","63,2","0,7","0,8","186,2","24,2","74"],
    [39200,"12/17/2018 00:00","51,9","0,4","0,5","192,6","23,1","75,6"],
    [39201,"12/17/2018 01:00","37,3","0,4","0,5","218,7","22,8","77,9"],
    [39202,"12/17/2018 02:00","38,8","0,4","0,7","226,6","22,3","79,7"],
    [39203,"12/17/2018 03:00","29,6","0,2","0,8","238,8","21,8","81,7"],
    [39204,"12/17/2018 04:00","26,9","0,2","0,6","210,3","22,1","81"],
    [39205,"12/17/2018 05:00","30,3","0,2","0,7","223,6","21,9","81,7"],
    [39206,"12/17/2018 06:00","37,2","0,4","0,7","235,1","21,2","83,8"],
    [39207,"12/17/2018 07:00","41,3","0,6","0,8","236,2","21,2","83,5"],
    [39208,"12/17/2018 08:00","61,3","0,8","0,5","178,9","22,9","77,6"],
    [39209,"12/17/2018 09:00","50,3","1,4","1","134,3","25","70,7"],
    [39210,"12/17/2018 10:00","59,8","3,4","1,3","112,4","26,4","65,5"],
    [39211,"12/17/2018 11:00","51,3","2,9","1,6","135,8","27,6","60,1"],
    [39212,"12/17/2018 12:00","42,3","2,5","1,6","129,3","29,1","54,8"],
    [39213,"12/17/2018 13:00","60,3","2,3","1,6","120","30,2","50,6"],
    [39214,"12/17/2018 14:00","60,5","2","1,7","178,1","31,1","47,6"],
    [39215,"12/17/2018 15:00","57,2","0,9","2,8","272,7","30,7","48"],
    [39216,"12/17/2018 16:00","31,3","0,4","4,4","313,6","30","50"],
    [39217,"12/17/2018 17:00","16,6","0,4","5,6","301","28,6","54"],
    [39218,"12/17/2018 18:00","ND","0,1","6,4","300,9","26,7","60"],
    [39219,"12/17/2018 19:00","ND","ND","6,4","297,3","26,2","61,5"],
    [39220,"12/17/2018 20:00","ND","ND","4,1","300,1","26,5","58,8"],
    [39221,"12/17/2018 21:00","17,3","0,2","1","177,9","26,3","62,5"],
    [39222,"12/17/2018 22:00","52,5","0,5","1,4","197,3","24,8","70,3"],
    [39223,"12/17/2018 23:00","56,8","0,4","0,5","226","24","72,5"],
    [39224,"12/18/2018 00:00","43,1","0,1","0,5","209,7","23,5","73,9"],
    [39225,"12/18/2018 01:00","39,9","0,1","0,6","226,2","22,7","77,1"],
    [39226,"12/18/2018 02:00","26,3","0","0,7","207,1","22,2","79,7"],
    [39227,"12/18/2018 03:00","26,5","0,2","0,7","209,8","22","81,1"],
    [39228,"12/18/2018 04:00","30","ND","0,6","224,1","21,9","82,3"],
    [39229,"12/18/2018 05:00","28,7","0,1","0,7","151","22,1","81,4"],
    [39230,"12/18/2018 06:00","36,3","0,2","0,5","205,3","21,9","82,6"],
    [39231,"12/18/2018 07:00","44,8","0,4","1","241,4","21,5","83,5"],
    [39232,"12/18/2018 08:00","46,7","1,3","0,7","191","23,3","78,1"],
    [39233,"12/18/2018 09:00","59,8","8,1","1,1","198,3","24,8","71,1"],
    [39234,"12/18/2018 10:00","85,6","4,8","1,5","138,3","26,2","66,5"],
    [39235,"12/18/2018 11:00","48,7","3,1","1,4","185,8","27,3","61,5"],
    [39236,"12/18/2018 12:00","38,7","2,5","1,4","148,8","28,4","57,6"],
    [39237,"12/18/2018 13:00","46,7","1,2","1,4","107,7","29","55,5"],
    [39238,"12/18/2018 14:00","55,1","0,9","1,7","227,9","29,6","52,5"],
    [39239,"12/18/2018 15:00","50,2","ND","2,9","308,3","29,5","51,1"],
    [39240,"12/18/2018 16:00","27,5","ND","3,4","313,3","29,9","50,4"],
    [39241,"12/18/2018 17:00","14,8","ND","4","308","28,8","54"],
    [39242,"12/18/2018 18:00","24,4","ND","4,9","304,4","27","58,6"],
    [39243,"12/18/2018 19:00","26,4","ND","4,4","305,5","26,5","59,9"],
    [39244,"12/18/2018 20:00","19,4","ND","2,9","301","26,6","59,6"],
    [39245,"12/18/2018 21:00","22,4","ND","1,1","171,1","26,4","60,6"],
    [39246,"12/18/2018 22:00","35,7","0,5","1,3","149,5","25,8","67"],
    [39247,"12/18/2018 23:00","63,2","0,8","1,2","154,2","24,9","71,1"],
    [39248,"12/19/2018 00:00","68","1,1","1,1","169,7","24,2","73,3"],
    [39249,"12/19/2018 01:00","66,9","0,1","0,5","187,2","23,5","77,2"],
    [39250,"12/19/2018 02:00","47","0","0,7","226,3","22,8","80,5"],
    [39251,"12/19/2018 03:00","40,3","ND","0,8","239,8","22","81,8"],
    [39252,"12/19/2018 04:00","26,4","0","0,7","219,3","21,8","82,6"],
    [39253,"12/19/2018 05:00","34,1","0","0,4","194,9","21,4","83,9"],
    [39254,"12/19/2018 06:00","40,5","ND","0,4","173,2","21,1","84,5"],
    [39255,"12/19/2018 07:00","50,4","0,3","0,8","193,9","21,3","84"],
    [39256,"12/19/2018 08:00","54,5","1,2","0,9","91,1","23,3","77,3"],
    [39257,"12/19/2018 09:00","77,2","2,3","0,7","113","24,6","72,3"],
    [39258,"12/19/2018 10:00","71,7","4,1","1,6","130,3","25,5","69,9"],
    [39259,"12/19/2018 11:00","65,1","2","1,2","136,1","27,1","64,1"],
    [39260,"12/19/2018 12:00","49,8","1,7","1,4","183,8","28,8","56,7"],
    [39261,"12/19/2018 13:00","51,4","0,9","1,5","124,3","30,2","50,2"],
    [39262,"12/19/2018 14:00","52,6","ND","2,2","207,2","30,3","50,3"],
    [39263,"12/19/2018 15:00","47,8","ND","1,6","188,6","30,7","48,7"],
    [39264,"12/19/2018 16:00","41,7","ND","3,4","301,5","30,1","49,8"],
    [39265,"12/19/2018 17:00","29,1","ND","4,9","306,6","28,3","54,1"],
    [39266,"12/19/2018 18:00","25,2","ND","5,5","302,1","26,9","59,2"],
    [39267,"12/19/2018 19:00","35,1","ND","4,2","309,6","26,5","60,1"],
    [39268,"12/19/2018 20:00","25,1","0,2","1,1","176,6","26,9","58,5"],
    [39269,"12/19/2018 21:00","33,6","0,1","1","169,3","26,3","62,1"],
    [39270,"12/19/2018 22:00","48,9","0,8","1,1","157","25,3","70,7"],
    [39271,"12/19/2018 23:00","72","1,1","0,8","147,5","24,8","72,2"],
    [39272,"12/20/2018 00:00","64,9","0,2","0,7","235,6","24,1","75,1"],
    [39273,"12/20/2018 01:00","47,3","0,3","1","240,1","23,3","78"],
    [39274,"12/20/2018 02:00","40,9","ND","0,6","204,5","23","78,5"],
    [39275,"12/20/2018 03:00","35,2","0","0,4","163,9","23,2","78,8"],
    [39276,"12/20/2018 04:00","32,1","ND","0,7","203,6","22,9","79,9"],
    [39277,"12/20/2018 05:00","34,4","ND","0,7","222,9","22,3","82,6"],
    [39278,"12/20/2018 06:00","36,2","0,2","0,6","209,8","22,3","83,4"],
    [39279,"12/20/2018 07:00","55,5","0,7","0,7","238,4","22,5","82,7"],
    [39280,"12/20/2018 08:00","57,8","0,7","0,6","75,6","23,2","80"],
    [39281,"12/20/2018 09:00","77,2","3,4","0,8","150,1","25","72,2"],
    [39282,"12/20/2018 10:00","64,7","4,2","1","137,3","27,2","62,6"],
    [39283,"12/20/2018 11:00","45,1","5,2","2","134","28,1","60,6"],
    [39284,"12/20/2018 12:00","56,4","1,4","1,6","219,7","27,6","61,5"],
    [39285,"12/20/2018 13:00","44","ND","2,2","299,1","27,5","59,1"],
    [39286,"12/20/2018 14:00","14,6","ND","2,7","290,7","29,5","51,4"],
    [39287,"12/20/2018 15:00","15","ND","3,8","304,9","29,9","48,8"],
    [39288,"12/20/2018 16:00","15,1","ND","5,1","311","28,8","53,5"],
    [39289,"12/20/2018 17:00","20,1","ND","5,3","316,2","27,5","55,7"],
    [39290,"12/20/2018 18:00","17,3","ND","4,9","316,1","26,4","59,4"],
    [39291,"12/20/2018 19:00","16,8","0,3","5,2","307,4","26","59,4"],
    [39292,"12/20/2018 20:00","24,4","1,9","3,7","256,7","25,1","66,2"],
    [39293,"12/20/2018 21:00","44,6","2,3","1,1","225,1","24,4","71,3"],
    [39294,"12/20/2018 22:00","40,1","1,4","0,5","181","24,7","70,1"],
    [39295,"12/20/2018 23:00","40,5","1,4","1,4","109,1","24","74,8"],
    [39296,"12/21/2018 00:00","40,8","0,9","0,9","93,7","23,1","78,7"],
    [39297,"12/21/2018 01:00","29,1","0,5","0,7","82,1","22,8","80,3"],
    [39298,"12/21/2018 02:00","24,7","0,3","0,8","196,4","22,4","82,5"],
    [39299,"12/21/2018 03:00","22,7","0,2","0,5","170,1","22,2","83,3"],
    [39300,"12/21/2018 04:00","24,6","0,4","0,9","187","22","83,3"],
    [39301,"12/21/2018 05:00","23,8","0,2","0,6","256,2","21,8","83,9"],
    [39302,"12/21/2018 06:00","25,2","0,6","0,7","177,9","22,1","82,3"],
    [39303,"12/21/2018 07:00","31,2","0,8","0,7","197","22,1","82,9"],
    [39304,"12/21/2018 08:00","48,3","1","0,9","103,9","22,4","84,1"],
    [39305,"12/21/2018 09:00","62,4","1,7","0,7","136,7","23,7","79,4"],
    [39306,"12/21/2018 10:00","74","4,6","1","179,5","25,2","70,5"],
    [39307,"12/21/2018 11:00","70,1","2","1,2","147,6","26,6","64,6"],
    [39308,"12/21/2018 12:00","62,2","1,4","1,4","130,3","28,1","58,1"],
    [39309,"12/21/2018 13:00","47,7","1,5","1,6","120,7","29,1","53,7"],
    [39310,"12/21/2018 14:00","39,5","0,2","2,1","272,7","29,4","51,5"],
    [39311,"12/21/2018 15:00","18,3","ND","4,6","318,7","28,8","53,2"],
    [39312,"12/21/2018 16:00","14,5","ND","4","321,9","28,6","53,7"],
    [39313,"12/21/2018 17:00","13,8","ND","3,5","317,4","27,2","56,8"],
    [39314,"12/21/2018 18:00","19,2","0,1","3,4","318,8","26,6","58,9"],
    [39315,"12/21/2018 19:00","20,9","0,5","1,2","181","26,1","60,8"],
    [39316,"12/21/2018 20:00","32,5","0,7","0,8","78,9","25,5","64,4"],
    [39317,"12/21/2018 21:00","56,1","0,9","1,1","131,8","24,3","70,8"],
    [39318,"12/21/2018 22:00","67,7","0,9","0,8","164,9","23,9","72,4"],
    [39319,"12/21/2018 23:00","55,2","0,7","0,6","165,5","22,9","76,7"],
    [39320,"12/22/2018 00:00","63,9","0,3","0,8","236,4","22,4","76,8"],
    [39321,"12/22/2018 01:00","30","0,5","0,7","133,1","22,2","79"],
    [39322,"12/22/2018 02:00","69,8","0,4","0,6","167,2","21,6","81,6"],
    [39323,"12/22/2018 03:00","42,8","0,2","0,6","203,5","20,9","83,1"],
    [39324,"12/22/2018 04:00","29,2","0,1","1","252,4","20,7","83,8"],
    [39325,"12/22/2018 05:00","24,2","0,1","0,6","195,9","21,1","82,1"],
    [39326,"12/22/2018 06:00","28,6","0,1","0,7","227,4","21,6","80,8"],
    [39327,"12/22/2018 07:00","50,2","0,4","0,5","173,4","21,8","81,8"],
    [39328,"12/22/2018 08:00","48,4","0,9","0,7","173,9","22,4","81"],
    [39329,"12/22/2018 09:00","75,8","1","0,7","150,4","22,8","78,8"],
    [39330,"12/22/2018 10:00","73,4","3","0,7","166,2","23,7","72,7"],
    [39331,"12/22/2018 11:00","50,4","1,5","1","171,5","24,9","68,7"],
    [39332,"12/22/2018 12:00","48,2","0,8","1,3","175,6","26","63,7"],
    [39333,"12/22/2018 13:00","29,9","0,4","1,1","157","26,9","60,7"],
    [39334,"12/22/2018 14:00","27,2","0,2","1,1","133,1","27,9","57,3"],
    [39335,"12/22/2018 15:00","34,6","0,3","1,3","118,9","28,3","56,8"],
    [39336,"12/22/2018 16:00","37,3","0,5","1,4","107,4","28,7","54,5"],
    [39337,"12/22/2018 17:00","53,3","0,4","1,9","234,9","27,6","57,3"],
    [39338,"12/22/2018 18:00","53,5","0,1","2,5","309,1","26,5","60,1"],
    [39339,"12/22/2018 19:00","28,8","0,3","1,6","231,3","25,3","66,1"],
    [39340,"12/22/2018 20:00","48,7","0,5","1,5","246,3","24","71,8"],
    [39341,"12/22/2018 21:00","63,1","0,5","1,7","255,3","23,2","74,2"],
    [39342,"12/22/2018 22:00","67,4","0,4","0,8","224,9","23,3","73,2"],
    [39343,"12/22/2018 23:00","59,3","0,4","0,8","229,1","22,9","74,2"],
    [39344,"12/23/2018 00:00","57,9","0,2","0,8","227,5","21,9","77,7"],
    [39345,"12/23/2018 01:00","45,4","0,3","0,7","236,6","21,4","79,6"],
    [39346,"12/23/2018 02:00","45,2","0,2","0,6","218,9","21,1","80,4"],
    [39347,"12/23/2018 03:00","39,5","0","0,6","207,1","21,1","81,6"],
    [39348,"12/23/2018 04:00","37,1","0","0,6","210,3","21","82,7"],
    [39349,"12/23/2018 05:00","40,5","0","0,6","228","21","82,7"],
    [39350,"12/23/2018 06:00","35,6","0,1","0,7","192","20,9","83,7"],
    [39351,"12/23/2018 07:00","37,3","0,3","0,3","152,9","21","84,6"],
    [39352,"12/23/2018 08:00","53,2","0,4","0,6","144,2","22,2","82,5"],
    [39353,"12/23/2018 09:00","75,8","0,6","0,9","84,4","23,8","75,4"],
    [39354,"12/23/2018 10:00","59,6","0,5","0,9","157,8","25,4","67,5"],
    [39355,"12/23/2018 11:00","44,6","0,5","1,4","122,6","27,1","60,5"],
    [39356,"12/23/2018 12:00","40,7","1,2","1,6","147,7","27,9","56,1"],
    [39357,"12/23/2018 13:00","41","1","1,6","119,5","29,2","52"],
    [39358,"12/23/2018 14:00","47,3","1,2","1,4","118,4","30,4","49,1"],
    [39359,"12/23/2018 15:00","58,7","0,7","2,7","256,5","29,8","51,8"],
    [39360,"12/23/2018 16:00","47,1","ND","3,9","319,2","29,5","52,5"],
    [39361,"12/23/2018 17:00","25,5","ND","4,7","300,6","28,4","54,2"],
    [39362,"12/23/2018 18:00","32,2","ND","4,4","299,1","27,3","56,8"],
    [39363,"12/23/2018 19:00","36,7","0","3,5","309,7","26,9","56,8"],
    [39364,"12/23/2018 20:00","26,5","0,2","4,3","303","26,5","57,1"],
    [39365,"12/23/2018 21:00","34,9","0,2","3,7","288,2","26,2","57,8"],
    [39366,"12/23/2018 22:00","28","0,6","0,9","203,3","25,5","61,2"],
    [39367,"12/23/2018 23:00","38,9","0,7","0,7","193,9","24,6","67,2"],
    [39368,"12/24/2018 00:00","62,9","0,7","0,5","181,7","23,5","73,9"],
    [39369,"12/24/2018 01:00","69,4","0,5","0,7","240,3","22,7","76,4"],
    [39370,"12/24/2018 02:00","44,3","0,4","0,5","195,8","22,6","77,4"],
    [39371,"12/24/2018 03:00","49,1","0,5","1,1","212,5","22,1","83,6"],
    [39372,"12/24/2018 04:00","45,1","0,4","0,5","160,7","21,7","87,5"],
    [39373,"12/24/2018 05:00","31,7","0,3","0,6","232","21,3","88,9"],
    [39374,"12/24/2018 06:00","28,7","0,5","0,7","217,8","21,1","88,7"],
    [39375,"12/24/2018 07:00","35,1","0,6","0,9","226,5","21","88,2"],
    [39376,"12/24/2018 08:00","41,6","1","0,6","140,8","22","84,4"],
    [39377,"12/24/2018 09:00","48,6","2,2","0,9","133,6","24,6","71,9"],
    [39378,"12/24/2018 10:00","59,9","4,9","1,5","115,9","26,3","66,3"],
    [39379,"12/24/2018 11:00","51","4,3","1,2","144,5","27,8","60,1"],
    [39380,"12/24/2018 12:00","43,3","3,9","1,4","174,1","28,9","55,4"],
    [39381,"12/24/2018 13:00","39,3","2,6","1,3","190,5","29,5","52,9"],
    [39382,"12/24/2018 14:00","45,6","1,8","1,7","102,7","30","51,7"],
    [39383,"12/24/2018 15:00","58,3","3,3","1,6","140","29,4","53,7"],
    [39384,"12/24/2018 16:00","61,4","1,2","1,7","166,9","29","55,1"],
    [39385,"12/24/2018 17:00","39,7","ND","3,4","319","28,2","56,8"],
    [39386,"12/24/2018 18:00","26,7","ND","3,7","317,5","27,1","59,3"],
    [39387,"12/24/2018 19:00","25,8","0,2","2,7","305,4","26,9","58,9"],
    [39388,"12/24/2018 20:00","21,7","0,8","0,9","186","26,8","60,1"],
    [39389,"12/24/2018 21:00","35,6","1,7","2,6","291,2","26,1","62,4"],
    [39390,"12/24/2018 22:00","25,3","0,1","2,3","260,3","26,1","62,2"],
    [39391,"12/24/2018 23:00","23","0,5","0,9","138,4","25,5","67,2"],
    [39392,"12/25/2018 00:00","49,4","1,1","1","178,5","24,2","75,8"],
    [39393,"12/25/2018 01:00","59,6","0,7","0,6","160,8","23,8","78,8"],
    [39394,"12/25/2018 02:00","75","0,8","0,8","159,9","23,5","79,9"],
    [39395,"12/25/2018 03:00","59,7","0,5","0,6","201","22,9","81,8"],
    [39396,"12/25/2018 04:00","68,3","0,3","0,6","223,2","22,7","83,1"],
    [39397,"12/25/2018 05:00","64,5","0,3","0,9","252,3","22,2","84,1"],
    [39398,"12/25/2018 06:00","50","0,2","0,6","203,5","22,3","83,3"],
    [39399,"12/25/2018 07:00","49,4","0,2","0,3","137,3","22,4","84,1"],
    [39400,"12/25/2018 08:00","57,1","0,4","0,7","93,4","23,3","81,6"],
    [39401,"12/25/2018 09:00","70","0,8","1,1","145,1","25","74,9"],
    [39402,"12/25/2018 10:00","68,3","3","1,4","116,8","26,3","66"],
    [39403,"12/25/2018 11:00","42","1,4","1","172","27,2","63,2"],
    [39404,"12/25/2018 12:00","38,4","1","1,3","166,8","28,9","56,6"],
    [39405,"12/25/2018 13:00","31,1","0,9","1,4","164,5","30","52,3"],
    [39406,"12/25/2018 14:00","33,3","0,2","1,7","135,9","30,9","49,1"],
    [39407,"12/25/2018 15:00","40","ND","1,9","182,9","31,2","48,1"],
    [39408,"12/25/2018 16:00","48","ND","3,5","319","30,5","50,1"],
    [39409,"12/25/2018 17:00","30,4","ND","3,9","320,4","29,6","51"],
    [39410,"12/25/2018 18:00","21,1","ND","3,4","307,4","28,5","54,1"],
    [39411,"12/25/2018 19:00","36,9","ND","4,4","301,3","27,1","58,9"],
    [39412,"12/25/2018 20:00","40","ND","3,3","283,3","26,7","58,9"],
    [39413,"12/25/2018 21:00","33","ND","3,7","298,5","26,6","57,7"],
    [39414,"12/25/2018 22:00","27","0,2","1,4","191,8","26,1","60,1"],
    [39415,"12/25/2018 23:00","42,3","0,1","0,6","197","24,5","69,4"],
    [39416,"12/26/2018 00:00","58,5","0,1","0,8","242,8","23,4","73"],
    [39417,"12/26/2018 01:00","47,5","ND","0,7","214,4","22,9","76"],
    [39418,"12/26/2018 02:00","39,9","ND","0,7","234","22,2","79"],
    [39419,"12/26/2018 03:00","32,9","ND","0,6","203,8","22,3","78,8"],
    [39420,"12/26/2018 04:00","35,6","0,1","0,7","215,3","22,1","80,4"],
    [39421,"12/26/2018 05:00","31,8","0,1","0,7","226,2","21,8","81,6"],
    [39422,"12/26/2018 06:00","38,2","0,3","0,8","228,1","21,7","82"],
    [39423,"12/26/2018 07:00","35,9","0,3","0,7","206,5","21,8","82,6"],
    [39424,"12/26/2018 08:00","50,2","0,8","0,9","113,7","24","73,6"],
    [39425,"12/26/2018 09:00","59,7","2","1,1","95,3","25,7","65,1"],
    [39426,"12/26/2018 10:00","77,1","1,9","1,5","104,8","26,6","60,2"],
    [39427,"12/26/2018 11:00","46,1","1,9","1,6","131,3","27,8","55,1"],
    [39428,"12/26/2018 12:00","ND","ND","ND","ND","ND","ND"],
    [39429,"12/26/2018 13:00","ND","ND","ND","ND","ND","ND"],
    [39430,"12/26/2018 14:00","ND","ND","ND","ND","ND","ND"],
    [39431,"12/26/2018 15:00","ND","ND","ND","ND","ND","ND"],
    [39432,"12/26/2018 16:00","ND","ND","ND","ND","ND","ND"],
    [39433,"12/26/2018 17:00","ND","ND","ND","ND","ND","ND"],
    [39434,"12/26/2018 18:00","ND","ND","ND","ND","ND","ND"],
    [39435,"12/26/2018 19:00","ND","ND","ND","ND","ND","ND"],
    [39436,"12/26/2018 20:00","ND","ND","ND","ND","ND","ND"],
    [39437,"12/26/2018 21:00","ND","ND","ND","ND","ND","ND"],
    [39438,"12/26/2018 22:00","ND","ND","ND","ND","ND","ND"],
    [39439,"12/26/2018 23:00","ND","ND","ND","ND","ND","ND"],
    [39440,"12/27/2018 00:00","ND","ND","ND","ND","ND","ND"],
    [39441,"12/27/2018 01:00","ND","ND","ND","ND","ND","ND"],
    [39442,"12/27/2018 02:00","ND","ND","ND","ND","ND","ND"],
    [39443,"12/27/2018 03:00","ND","ND","ND","ND","ND","ND"],
    [39444,"12/27/2018 04:00","ND","ND","ND","ND","ND","ND"],
    [39445,"12/27/2018 05:00","ND","ND","ND","ND","ND","ND"],
    [39446,"12/27/2018 06:00","ND","ND","ND","ND","ND","ND"],
    [39447,"12/27/2018 07:00","ND","ND","ND","ND","ND","ND"],
    [39448,"12/27/2018 08:00","ND","ND","ND","ND","ND","ND"],
    [39449,"12/27/2018 09:00","ND","ND","ND","ND","ND","ND"],
    [39450,"12/27/2018 10:00","ND","ND","ND","ND","ND","ND"],
    [39451,"12/27/2018 11:00","ND","ND","ND","ND","ND","ND"],
    [39452,"12/27/2018 12:00","ND","ND","ND","ND","ND","ND"],
    [39453,"12/27/2018 13:00","ND","ND","ND","ND","ND","ND"],
    [39454,"12/27/2018 14:00","ND","ND","ND","ND","ND","ND"],
    [39455,"12/27/2018 15:00","ND","ND","ND","ND","ND","ND"],
    [39456,"12/27/2018 16:00","ND","ND","ND","ND","ND","ND"],
    [39457,"12/27/2018 17:00","ND","ND","ND","ND","ND","ND"],
    [39458,"12/27/2018 18:00","ND","ND","ND","ND","ND","ND"],
    [39459,"12/27/2018 19:00","ND","ND","ND","ND","ND","ND"],
    [39460,"12/27/2018 20:00","ND","ND","ND","ND","ND","ND"],
    [39461,"12/27/2018 21:00","ND","ND","ND","ND","ND","ND"],
    [39462,"12/27/2018 22:00","ND","ND","ND","ND","ND","ND"],
    [39463,"12/27/2018 23:00","ND","ND","ND","ND","ND","ND"],
    [39464,"12/28/2018 00:00","ND","ND","ND","ND","ND","ND"],
    [39465,"12/28/2018 01:00","ND","ND","ND","ND","ND","ND"],
    [39466,"12/28/2018 02:00","ND","ND","ND","ND","ND","ND"],
    [39467,"12/28/2018 03:00","ND","ND","ND","ND","ND","ND"],
    [39468,"12/28/2018 04:00","ND","ND","ND","ND","ND","ND"],
    [39469,"12/28/2018 05:00","ND","ND","ND","ND","ND","ND"],
    [39470,"12/28/2018 06:00","ND","ND","ND","ND","ND","ND"],
    [39471,"12/28/2018 07:00","ND","ND","ND","ND","ND","ND"],
    [39472,"12/28/2018 08:00","ND","ND","ND","ND","ND","ND"],
    [39473,"12/28/2018 09:00","ND","ND","ND","ND","ND","ND"],
    [39474,"12/28/2018 10:00","ND","ND","ND","ND","ND","ND"],
    [39475,"12/28/2018 11:00","ND","ND","ND","ND","ND","ND"],
    [39476,"12/28/2018 12:00","ND","ND","ND","ND","ND","ND"],
    [39477,"12/28/2018 13:00","ND","ND","ND","ND","ND","ND"],
    [39478,"12/28/2018 14:00","ND","ND","ND","ND","ND","ND"],
    [39479,"12/28/2018 15:00","ND","ND","ND","ND","ND","ND"],
    [39480,"12/28/2018 16:00","ND","ND","ND","ND","ND","ND"],
    [39481,"12/28/2018 17:00","ND","ND","5,2","305,2","29,5","53,7"],
    [39482,"12/28/2018 18:00","ND","ND","4,9","304,6","28","57,3"],
    [39483,"12/28/2018 19:00","ND","ND","5,8","296,7","26,8","61,2"],
    [39484,"12/28/2018 20:00","ND","ND","5","299,2","27,1","58,8"],
    [39485,"12/28/2018 21:00","ND","ND","3,2","316,5","26,7","59,9"],
    [39486,"12/28/2018 22:00","ND","ND","1,6","195,6","26,3","63,4"],
    [39487,"12/28/2018 23:00","ND","ND","1,1","169,9","24,9","71,6"],
    [39488,"12/29/2018 00:00","ND","ND","0,9","226,3","23,8","74,8"],
    [39489,"12/29/2018 01:00","ND","ND","0,7","243,8","23,5","75,5"],
    [39490,"12/29/2018 02:00","ND","ND","0,9","76,7","23,4","76,9"],
    [39491,"12/29/2018 03:00","ND","ND","1","228,4","22,9","78,6"],
    [39492,"12/29/2018 04:00","ND","ND","1","244,4","22,1","81,8"],
    [39493,"12/29/2018 05:00","ND","ND","0,8","234,3","21,9","81,8"],
    [39494,"12/29/2018 06:00","ND","ND","0,7","232,5","21,4","83,5"],
    [39495,"12/29/2018 07:00","ND","ND","0,5","176","21,2","85"],
    [39496,"12/29/2018 08:00","ND","ND","0,8","141,2","22,7","79,8"],
    [39497,"12/29/2018 09:00","ND","ND","1,1","113,5","24,6","72,9"],
    [39498,"12/29/2018 10:00","ND","ND","1,2","147,1","26,2","67,9"],
    [39499,"12/29/2018 11:00","ND","ND","1,2","136,8","27,7","62,1"],
    [39500,"12/29/2018 12:00","ND","ND","1,5","138,1","29,2","55,9"],
    [39501,"12/29/2018 13:00","ND","ND","1,7","144,9","30,4","51,4"],
    [39502,"12/29/2018 14:00","ND","ND","2,2","141,3","31,3","48"],
    [39503,"12/29/2018 15:00","ND","ND","2,8","266,4","31,7","46,8"],
    [39504,"12/29/2018 16:00","ND","ND","4,3","317,1","30,5","49,6"],
    [39505,"12/29/2018 17:00","ND","ND","4,4","314,2","29,7","52,3"],
    [39506,"12/29/2018 18:00","ND","ND","5,1","302,6","28,3","55,2"],
    [39507,"12/29/2018 19:00","ND","ND","5,2","300,4","27,3","57,1"],
    [39508,"12/29/2018 20:00","ND","ND","4,1","308,7","27,1","58"],
    [39509,"12/29/2018 21:00","ND","ND","1,6","190,9","26,8","59,1"],
    [39510,"12/29/2018 22:00","ND","ND","0,5","203,7","25,6","65"],
    [39511,"12/29/2018 23:00","ND","ND","0,7","221,4","24,4","70,1"],
    [39512,"12/30/2018 00:00","ND","ND","1","241,9","23,6","73,6"],
    [39513,"12/30/2018 01:00","ND","ND","0,7","222","22,9","76,1"],
    [39514,"12/30/2018 02:00","ND","ND","0,8","219,1","22,3","78,1"],
    [39515,"12/30/2018 03:00","ND","ND","0,8","245,7","21,8","79,5"],
    [39516,"12/30/2018 04:00","ND","ND","0,8","228,7","21,5","80,4"],
    [39517,"12/30/2018 05:00","ND","ND","0,7","242,3","21,1","82"],
    [39518,"12/30/2018 06:00","ND","ND","0,9","245,4","21,1","82,5"],
    [39519,"12/30/2018 07:00","ND","ND","0,5","227","21,6","81,6"],
    [39520,"12/30/2018 08:00","ND","ND","0,5","183,8","22,8","77,8"],
    [39521,"12/30/2018 09:00","ND","ND","0,7","151,9","25","69,6"],
    [39522,"12/30/2018 10:00","ND","ND","1,5","123,6","26,3","65,7"],
    [39523,"12/30/2018 11:00","ND","ND","1,4","155,6","27,6","61,4"],
    [39524,"12/30/2018 12:00","ND","ND","1,5","146","28,6","57,6"],
    [39525,"12/30/2018 13:00","ND","ND","1,6","153,2","29,6","53,9"],
    [39526,"12/30/2018 14:00","ND","ND","1,6","147,3","30,7","49,8"],
    [39527,"12/30/2018 15:00","ND","ND","1,2","146,9","31,4","47,4"],
    [39528,"12/30/2018 16:00","ND","ND","3","314,6","30,8","47,8"],
    [39529,"12/30/2018 17:00","ND","ND","3,8","313,2","29,8","51,2"],
    [39530,"12/30/2018 18:00","ND","ND","4,6","304,6","28","55,9"],
    [39531,"12/30/2018 19:00","ND","ND","4,1","310,2","27,2","58"],
    [39532,"12/30/2018 20:00","ND","ND","3,9","305,9","27,1","58"],
    [39533,"12/30/2018 21:00","ND","ND","2,3","278,7","27,1","57,9"],
    [39534,"12/30/2018 22:00","ND","ND","1","121","26,9","60,7"],
    [39535,"12/30/2018 23:00","ND","ND","1,2","153,5","25,3","69,8"],
    [39536,"12/31/2018 00:00","ND","ND","0,5","187,2","24,5","73,1"],
    [39537,"12/31/2018 01:00","ND","ND","0,9","159,6","24","74,4"],
    [39538,"12/31/2018 02:00","ND","ND","0,9","178","23,5","76,1"],
    [39539,"12/31/2018 03:00","ND","ND","0,8","251","22,8","79,1"],
    [39540,"12/31/2018 04:00","ND","ND","0,8","246,9","22,4","80,6"],
    [39541,"12/31/2018 05:00","ND","ND","0,7","234,8","21,7","81,7"],
    [39542,"12/31/2018 06:00","ND","ND","0,7","219","21,1","83,6"],
    [39543,"12/31/2018 07:00","ND","ND","0,6","215,3","21","84,3"],
    [39544,"12/31/2018 08:00","ND","ND","0,6","217,8","22,7","80,2"],
    [39545,"12/31/2018 09:00","ND","ND","1,1","141,8","24,7","71,6"],
    [39546,"12/31/2018 10:00","ND","ND","1,3","112,5","26,6","64,1"],
    [39547,"12/31/2018 11:00","ND","ND","1,5","147,8","27,7","59,7"],
    [39548,"12/31/2018 12:00","ND","ND","1,5","135,5","29,2","54,6"],
    [39549,"12/31/2018 13:00","ND","ND","1,8","138,1","30,2","50,2"],
    [39550,"12/31/2018 14:00","ND","ND","1,7","139,5","31,2","46,6"],
    [39551,"12/31/2018 15:00","ND","ND","1,3","112,3","32,7","41,7"],
    [39552,"12/31/2018 16:00","ND","ND","1,8","197,9","32,1","44"],
    [39553,"12/31/2018 17:00","ND","ND","3,8","307,2","29,9","51,2"],
    [39554,"12/31/2018 18:00","ND","ND","4,7","298,5","28,4","53,8"],
    [39555,"12/31/2018 19:00","ND","ND","3,1","311","27,9","55"],
    [39556,"12/31/2018 20:00","ND","ND","2,6","304,5","27,6","55,8"],
    [39557,"12/31/2018 21:00","ND","ND","1,6","227,3","27,2","56,3"],
    [39558,"12/31/2018 22:00","ND","ND","0,7","246,4","25,8","60,8"],
    [39559,"12/31/2018 23:00","ND","ND","0,6","188,5","24,4","66,8"],
    [39560,"43466","ND","ND","0,7","218,5","23,3","71,4"],
    [39561,"43466,04167","ND","ND","0,9","232,3","22,3","74,3"],
    [39562,"43466,08333","ND","ND","1,2","239,5","21,7","75,4"],
    [39563,"43466,125","ND","ND","0,7","221,9","21,2","73,9"],
    [39564,"43466,16667","ND","ND","0,8","243,5","20,7","74,5"],
    [39565,"43466,20833","ND","ND","0,5","203,5","20","77"],
    [39566,"43466,25","ND","ND","0,8","235,6","19,6","79,2"],
    [39567,"43466,29167","ND","ND","0,6","217,3","19,4","79,6"],
    [39568,"43466,33333","ND","ND","0,3","104,8","22,2","70,5"],
    [39569,"43466,375","ND","ND","0,9","101,4","24,9","61,1"],
    [39570,"43466,41667","ND","ND","1,1","112,2","26,4","56,6"],
    [39571,"43466,45833","ND","ND","1,4","107,2","27,7","52,7"],
    [39572,"43466,5","ND","ND","1,5","137,4","29,4","48,9"],
    [39573,"43466,54167","ND","ND","1,6","131,5","31,1","44,3"],
    [39574,"43466,58333","ND","ND","1,3","110","32,8","38,9"],
    [39575,"43466,625","ND","ND","1,4","116,4","34","34"],
    [39576,"43466,66667","ND","ND","2,3","222,4","34,1","34,6"],
    [39577,"43466,70833","ND","ND","3,8","320,1","31,3","46,5"],
    [39578,"43466,75","ND","ND","4","311,4","29,5","50,2"],
    [39579,"43466,79167","ND","ND","3,9","321,6","28,5","52,7"],
    [39580,"43466,83333","ND","ND","1,7","225,8","28,1","52,5"],
    [39581,"43466,875","ND","ND","1,3","197,5","27,2","52,8"],
    [39582,"43466,91667","ND","ND","0,8","237,6","25,4","56,2"],
    [39583,"43466,95833","ND","ND","0,8","230,7","23,9","59,6"],
    [39584,"43467","ND","ND","1","242","22,8","63,6"],
    [39585,"43467,04167","ND","ND","0,9","252,4","22,1","67,7"],
    [39586,"43467,08333","ND","ND","1,1","249","21,3","71,7"],
    [39587,"43467,125","ND","ND","1,4","222,1","21,2","70,9"],
    [39588,"43467,16667","ND","ND","0,9","230,2","21,1","67,8"],
    [39589,"43467,20833","ND","ND","0,6","219,9","20","73,3"],
    [39590,"43467,25","ND","ND","0,7","239,7","19,4","76,4"],
    [39591,"43467,29167","ND","ND","0,9","243","19,3","76,5"],
    [39592,"43467,33333","ND","ND","0,4","157,5","22,4","67,3"],
    [39593,"43467,375","ND","ND","1,2","108,2","25,2","61"],
    [39594,"43467,41667","ND","ND","1,3","131,4","26,5","61"],
    [39595,"43467,45833","ND","ND","1,4","110,8","28","54,4"],
    [39596,"43467,5","ND","ND","1,2","117,1","29,3","49,4"],
    [39597,"43467,54167","ND","ND","1,6","119,5","30,7","45,3"],
    [39598,"43467,58333","ND","ND","1,3","135,1","32,1","41,5"],
    [39599,"43467,625","ND","ND","2,4","191,5","32,8","41,9"],
    [39600,"43467,66667","ND","ND","4","310,9","31,7","44,7"],
    [39601,"43467,70833","ND","ND","4,5","303","30,9","46,2"],
    [39602,"43467,75","ND","ND","5","303","28,9","52,2"],
    [39603,"43467,79167","ND","ND","4,8","309,4","27,8","56,2"],
    [39604,"43467,83333","ND","ND","4,9","300,9","27,5","56,3"],
    [39605,"43467,875","ND","ND","2,6","267,2","27","56,6"],
    [39606,"43467,91667","ND","ND","1","250,4","26,3","58,7"],
    [39607,"43467,95833","ND","ND","0,7","204,7","25,2","63,7"],
    [39608,"43468","ND","ND","0,6","202,8","23,6","69,6"],
    [39609,"43468,04167","ND","ND","0,7","243","22,6","73,5"],
    [39610,"43468,08333","ND","ND","1","228,1","21,9","74,8"],
    [39611,"43468,125","ND","ND","0,7","247,8","21,4","75,3"],
    [39612,"43468,16667","ND","ND","0,7","226","20,9","77,1"],
    [39613,"43468,20833","ND","ND","0,6","208","20,4","79,7"],
    [39614,"43468,25","ND","ND","0,8","219,6","20,2","80,6"],
    [39615,"43468,29167","ND","ND","0,9","247","19,8","81,1"],
    [39616,"43468,33333","ND","ND","0,6","195,6","22,4","73,1"],
    [39617,"43468,375","ND","ND","1,2","108,3","25,1","63,7"],
    [39618,"43468,41667","ND","ND","1,2","127,8","26,6","59,9"],
    [39619,"43468,45833","ND","ND","1,4","130,3","27,9","55,9"],
    [39620,"43468,5","ND","ND","1,6","134,5","29,3","51,9"],
    [39621,"43468,54167","ND","ND","ND","ND","ND","ND"],
    [39622,"43468,58333","ND","ND","ND","ND","ND","ND"],
    [39623,"43468,625","ND","ND","1,5","118,9","33,3","36,2"],
    [39624,"43468,66667","ND","0,419","3,7","314,2","31,3","46,2"],
    [39625,"43468,70833","ND","0,759","4,1","304,6","29,8","50,6"],
    [39626,"43468,75","ND","0,89","4,3","299,4","29,1","51"],
    [39627,"43468,79167","35,4","1,021","4,8","298,6","27,9","54,2"],
    [39628,"43468,83333","36,7","0,812","4,8","299,2","27,4","55,2"],
    [39629,"43468,875","30,9","0,812","4,7","299,1","27","55,5"],
    [39630,"43468,91667","26,9","0,785","2,7","257","26,7","55,3"],
    [39631,"43468,95833","21,7","0,759","1,1","197,4","25,6","59,1"],
    [39632,"43469","38,1","1,074","0,7","135,3","25,2","64,2"],
    [39633,"43469,04167","56,3","0,733","0,6","75,2","24,2","70,4"],
    [39634,"43469,08333","53,7","0,943","0,6","153,4","23,9","72,1"],
    [39635,"43469,125","46,8","0,785","0,8","224,3","23,2","74,5"],
    [39636,"43469,16667","36,9","0,733","0,7","225,4","22,4","77,1"],
    [39637,"43469,20833","37,2","1,414","0,7","232,9","21,7","78,9"],
    [39638,"43469,25","43,5","1,65","0,7","203,4","21,5","78,9"],
    [39639,"43469,29167","43,5","1,519","0,6","219,3","21,5","79,9"],
    [39640,"43469,33333","67,2","1,597","0,4","108","23,4","75,8"],
    [39641,"43469,375","65,9","1,78","1","130,5","25,6","67"],
    [39642,"43469,41667","68,6","3,142","1,3","132,5","27,1","60,8"],
    [39643,"43469,45833","52,4","3,456","1,6","133,7","28,1","57"],
    [39644,"43469,5","41,3","3,247","1,6","113,9","29,5","53"],
    [39645,"43469,54167","46,8","3,142","1,6","117,7","31,3","46,8"],
    [39646,"43469,58333","58","3,194","1,8","134,6","32,3","43,3"],
    [39647,"43469,625","62,9","3,273","1,5","130,5","33","40,8"],
    [39648,"43469,66667","52,4","3,037","1,4","115,2","33,8","38,4"],
    [39649,"43469,70833","60,6","2,016","3,6","287,3","32,2","46,6"],
    [39650,"43469,75","54,5","1,309","5,1","306,5","29,6","54,6"],
    [39651,"43469,79167","43,3","0,759","5,9","296","28,2","57,5"],
    [39652,"43469,83333","40,4","0,812","6,4","294,5","27,7","58,4"],
    [39653,"43469,875","44,3","1,152","4,1","251","27,6","57,3"],
    [39654,"43469,91667","28,4","1,519","0,9","86,3","27,4","58,5"],
    [39655,"43469,95833","64,2","1,021","0,7","178,4","26,5","61,9"],
    [39656,"43470","50,8","0,655","0,8","219","25","66,4"],
    [39657,"43470,04167","34","0,864","0,8","225,5","24,1","70,6"],
    [39658,"43470,08333","39","0,89","0,7","159,6","23,1","74,4"],
    [39659,"43470,125","35,3","0,785","0,9","198,9","22,5","77"],
    [39660,"43470,16667","32,5","0,785","0,8","223,3","22,1","77,8"],
    [39661,"43470,20833","32,1","1,44","0,5","211,3","21,6","79,3"],
    [39662,"43470,25","37","0,733","0,9","243,1","21,2","81,5"],
    [39663,"43470,29167","40,4","0,785","1","241,1","21,2","82,5"],
    [39664,"43470,33333","47,2","0,838","0,7","184,8","23,3","76,5"],
    [39665,"43470,375","60","1,99","0,9","150,3","25,8","67,2"],
    [39666,"43470,41667","63,4","3,351","1,2","146,4","27,1","62"],
    [39667,"43470,45833","56,3","3,744","1,6","140,3","28,9","55,6"],
    [39668,"43470,5","50,7","3,011","1,6","113,3","30,1","52,7"],
    [39669,"43470,54167","53,4","2,828","1,7","140,5","31,1","49,3"],
    [39670,"43470,58333","54,6","2,592","1,5","158,6","32,2","45,7"],
    [39671,"43470,625","50,3","1,78","3,6","291,8","32,2","44,6"],
    [39672,"43470,66667","19,2","1,126","4,3","308,9","31,1","47,8"],
    [39673,"43470,70833","24,7","0,995","4,5","309","29,5","54,2"],
    [39674,"43470,75","33,5","0,785","4,3","308,4","28,5","56,8"],
    [39675,"43470,79167","25,8","1,335","2,1","275,6","28,5","55,7"],
    [39676,"43470,83333","27","1,362","1","148,6","27,8","58,5"],
    [39677,"43470,875","42,5","1,1","1,4","218,6","27","61,2"],
    [39678,"43470,91667","28,7","1,178","0,8","183,8","26,2","63,4"],
    [39679,"43470,95833","55,1","1,074","0,8","238,5","24,7","69,5"],
    [39680,"43471","23,1","1,178","0,7","198,5","24,2","70,7"],
    [39681,"43471,04167","ND","1,283","0,6","227,7","23,7","72,4"],
    [39682,"43471,08333","ND","1,126","0,7","229,8","23,2","74,5"],
    [39683,"43471,125","ND","0,916","0,6","233,2","23,3","75,5"],
    [39684,"43471,16667","36","0,785","0,6","186,5","23,3","76"],
    [39685,"43471,20833","36,1","0,864","0,5","183,3","23,2","77,1"],
    [39686,"43471,25","38,1","1,335","0,7","174,5","23,2","77,4"],
    [39687,"43471,29167","61","1,414","0,7","227","22,5","86"],
    [39688,"43471,33333","50,7","0,89","0,8","223,7","22,3","89,5"],
    [39689,"43471,375","36,4","0,89","0,6","230,2","22,8","88,5"],
    [39690,"43471,41667","49,1","0,969","0,7","230,1","23,9","82,2"],
    [39691,"43471,45833","47,8","1,807","0,7","176,4","26,1","69,7"],
    [39692,"43471,5","41,6","1,807","0,9","149,2","28,2","59,2"],
    [39693,"43471,54167","21,2","1,597","1,4","154,7","30,1","50,9"],
    [39694,"43471,58333","22,1","1,65","2,8","247,4","31,2","48,1"],
    [39695,"43471,625","30,5","1,021","4,9","305,1","29,8","50,8"],
    [39696,"43471,66667","15,3","0,838","6","300,9","28,4","54,1"],
    [39697,"43471,70833","14","0,655","6,5","301,3","27,6","54,9"],
    [39698,"43471,75","10,9","0,943","4,5","313,2","27,6","53,1"],
    [39699,"43471,79167","19,2","0,759","3,4","300,7","27,2","52,6"],
    [39700,"43471,83333","13,5","1,519","1,8","194,1","26,9","57,9"],
    [39701,"43471,875","59,3","1,414","1,2","157","26,3","61,4"],
    [39702,"43471,91667","48,5","1,1","0,9","197,2","25,1","67,1"],
    [39703,"43471,95833","41,9","1,388","0,6","215,5","24,1","72"],
    [39704,"43472","43","1,047","0,8","206,4","23,1","75,3"],
    [39705,"43472,04167","31,7","1,204","0,7","120,1","23,6","74,9"],
    [39706,"43472,08333","47,6","0,969","0,5","191,6","22,9","76,6"],
    [39707,"43472,125","26,4","0,838","0,6","200,3","23","78,4"],
    [39708,"43472,16667","36,1","0,681","1,1","178","22,8","79,7"],
    [39709,"43472,20833","30,3","1,204","0,5","195,7","22,7","79,4"],
    [39710,"43472,25","21,8","0,812","1,4","136,9","22,9","78,3"],
    [39711,"43472,29167","25,4","1,152","0,7","207,6","22,5","81,2"],
    [39712,"43472,33333","28,1","1,257","0,7","81,1","22,5","84"],
    [39713,"43472,375","26,5","1,466","1,1","167,2","22,9","83,2"],
    [39714,"43472,41667","25,6","0,969","0,5","174,3","23,3","81,7"],
    [39715,"43472,45833","26,1","1,178","1,3","53,2","23,8","79,1"],
    [39716,"43472,5","31,4","1,074","0,8","90,3","24,1","79,9"],
    [39717,"43472,54167","28,6","1,257","2","261","25,3","63,9"],
    [39718,"43472,58333","ND","1,204","2,8","292,3","26,2","52,5"],
    [39719,"43472,625","ND","1,492","2,4","202,1","27,1","53,9"],
    [39720,"43472,66667","31,6","1,257","1,8","141","23,9","75"],
    [39721,"43472,70833","37,4","0,838","1,5","222","22,2","86,7"],
    [39722,"43472,75","19,8","1,021","1","228,9","22,4","85"],
    [39723,"43472,79167","48,5","1,126","0,9","238,6","22","86,5"],
    [39724,"43472,83333","42,9","1,204","0,8","244,9","21,8","86,6"],
    [39725,"43472,875","37,4","1,1","1,7","248,6","21,7","85,8"],
    [39726,"43472,91667","30,2","1,65","0,8","138,3","22","82,9"],
    [39727,"43472,95833","48","1,938","0,7","139,8","22,1","85,5"],
    [39728,"43473","39,5","1,283","0,8","244,2","21,4","87,6"],
    [39729,"43473,04167","29,3","1,466","0,6","219,4","21","88,3"],
    [39730,"43473,08333","27,3","0,864","0,9","241,4","20,8","88,5"],
    [39731,"43473,125","23,7","0,864","0,8","226,4","20,6","88,4"],
    [39732,"43473,16667","23,4","1,362","0,6","241,3","20,5","87,7"],
    [39733,"43473,20833","23,2","2,383","0,6","214,2","20,4","87,5"],
    [39734,"43473,25","42","2,304","0,5","196,1","20,4","87,3"],
    [39735,"43473,29167","47","2,278","0,6","229,4","20,3","88,1"],
    [39736,"43473,33333","57,3","1,597","0,6","231,8","20,7","88,1"],
    [39737,"43473,375","54,2","1,859","0,6","152,6","22,7","80,9"],
    [39738,"43473,41667","48,5","3,299","1,6","135,2","24,5","72,8"],
    [39739,"43473,45833","45,5","3,954","1,5","130,3","26,1","65"],
    [39740,"43473,5","31","2,88","1","168,9","26","63,7"],
    [39741,"43473,54167","33,1","1,964","1,7","216,2","26,4","63"],
    [39742,"43473,58333","33","1,44","1,7","151,8","27,8","57,4"],
    [39743,"43473,625","23,5","1,492","1,8","167","28,3","54,3"],
    [39744,"43473,66667","29,6","1,964","1,5","54,5","25,1","73,1"],
    [39745,"43473,70833","41,7","2,199","3,2","276,2","26,4","60"],
    [39746,"43473,75","12,7","1,1","5,1","300,6","25,7","59"],
    [39747,"43473,79167","11,3","0,995","4","322,7","25,1","60,3"],
    [39748,"43473,83333","9,5","1,021","1,7","245,5","24,6","62,2"],
    [39749,"43473,875","16","0,864","1,1","222,3","24,2","62,8"],
    [39750,"43473,91667","20,4","1,126","0,8","155,4","23,6","68,3"],
    [39751,"43473,95833","42,4","1,231","0,6","119,3","22,9","72,7"],
    [39752,"43474","38,8","0,812","0,7","179,9","22,6","74,9"],
    [39753,"43474,04167","26,9","1,257","0,9","148,2","22,5","75,5"],
    [39754,"43474,08333","19,7","0,655","0,8","205,1","22,3","77,1"],
    [39755,"43474,125","22","0,576","2,5","238,4","20,5","85,2"],
    [39756,"43474,16667","19,5","0,367","0,9","206,2","19,7","92,7"],
    [39757,"43474,20833","15,2","1,178","0,5","187,3","20,1","93,9"],
    [39758,"43474,25","20,2","1,44","0,7","188,9","20","94"],
    [39759,"43474,29167","11,4","0,785","0,7","193,9","19,8","94,5"],
    [39760,"43474,33333","11,1","1,78","0,6","187,8","19,7","95,1"],
    [39761,"43474,375","16","0,759","0,8","216","19,8","95,4"],
    [39762,"43474,41667","6,3","0,655","0,5","190,7","19,9","95,3"],
    [39763,"43474,45833","13","ND","0,6","133,1","20,7","94,3"],
    [39764,"43474,5","9,2","0,681","1,1","162,5","22","86,4"],
    [39765,"43474,54167","11,9","0,524","1,8","241,7","22,3","84,2"],
    [39766,"43474,58333","11,3","0,236","1,9","246,8","22","83,7"],
    [39767,"43474,625","10,1","0,524","1,1","241,8","22,3","84,4"],
    [39768,"43474,66667","1","1,204","1","210,7","24,1","71,9"],
    [39769,"43474,70833","13,9","0,838","0,8","167,2","24,8","67,9"],
    [39770,"43474,75","30,5","0,916","0,6","118,7","24,4","69,7"],
    [39771,"43474,79167","32,6","0,969","1,1","252,1","23,3","77,3"],
    [39772,"43474,83333","40,3","0,89","0,9","225,9","22,7","75,1"],
    [39773,"43474,875","23,6","0,733","1,1","226,4","22,2","76,5"],
    [39774,"43474,91667","26,7","0,812","0,7","243,9","21,6","80,1"],
    [39775,"43474,95833","29,3","0,89","0,9","223,6","20,5","84,5"],
    [39776,"43475","25,7","0,445","1,2","237,8","20,1","84,7"],
    [39777,"43475,04167","14,7","0,576","0,8","224,4","20,3","84,4"],
    [39778,"43475,08333","17,3","0,838","0,5","183,9","20,3","85,2"],
    [39779,"43475,125","21,4","0,445","0,5","179,2","20,3","86,2"],
    [39780,"43475,16667","19,5","0,445","0,6","206","20,1","87,2"],
    [39781,"43475,20833","21","0,969","0,7","242,5","20","87,9"],
    [39782,"43475,25","29","1,335","0,3","137","20,2","87,4"],
    [39783,"43475,29167","63,3","1,309","0,4","208,3","20,3","88,3"],
    [39784,"43475,33333","73","1,257","0,8","222,3","20,8","86,3"],
    [39785,"43475,375","47,4","1,283","0,9","164,5","22,5","78,3"],
    [39786,"43475,41667","55,3","3,037","1,8","162,1","24,4","71,1"],
    [39787,"43475,45833","38,9","3,744","1,1","139,1","24,9","67,3"],
    [39788,"43475,5","36,9","2,54","0,8","172,1","25,5","66,6"],
    [39789,"43475,54167","37,7","2,723","1,1","154,8","26,2","63,5"],
    [39790,"43475,58333","37,6","2,33","1","160,6","26,4","61,6"],
    [39791,"43475,625","42,4","2,121","1,4","269,6","24,4","72,8"],
    [39792,"43475,66667","39,8","1,702","0,5","150,7","25,2","65,7"],
    [39793,"43475,70833","11,8","1,65","0,9","169","26,2","59,9"],
    [39794,"43475,75","36,6","1,597","2,1","284,6","25,5","62"],
    [39795,"43475,79167","17,9","1,545","2,8","312,6","24,7","61,2"],
    [39796,"43475,83333","15,9","1,126","2,7","283,5","24,5","62,1"],
    [39797,"43475,875","14,4","1,021","2,9","270,6","24,1","62,9"],
    [39798,"43475,91667","13,9","0,89","0,9","221,3","22,4","71,3"],
    [39799,"43475,95833","29,1","0,681","1,1","237,5","21,3","77,1"],
    [39800,"43476","19,7","0,759","0,8","203,1","21,2","78,3"],
    [39801,"43476,04167","24,5","0,785","0,7","196,7","20,6","80,6"],
    [39802,"43476,08333","12,7","0,576","0,8","243,4","19,8","83"],
    [39803,"43476,125","13,2","0,943","0,7","213","20","82,2"],
    [39804,"43476,16667","17,9","0,759","0,6","186,1","20","83,1"],
    [39805,"43476,20833","16,4","0,576","0,9","206,4","19,6","84,1"],
    [39806,"43476,25","25,8","0,943","1","238,3","19,4","84,9"],
    [39807,"43476,29167","28,9","1,047","0,8","236,6","19,5","84,7"],
    [39808,"43476,33333","44,8","1,231","0,7","136,4","21,2","79,3"],
    [39809,"43476,375","46,5","2,959","0,7","107","23,5","69,3"],
    [39810,"43476,41667","51,2","5,813","1","119,5","25,5","63"],
    [39811,"43476,45833","48,3","6,808","1,6","109,7","26,6","58,6"],
    [39812,"43476,5","36","4,399","1,4","131,5","27,8","54,4"],
    [39813,"43476,54167","33,1","3,666","1,1","164,1","28,2","52,5"],
    [39814,"43476,58333","42,8","3,613","1,5","164,5","29,1","50,7"],
    [39815,"43476,625","46,1","2,854","1,1","193,1","28,7","51"],
    [39816,"43476,66667","46,8","1,807","3,2","298,6","28,1","52,5"],
    [39817,"43476,70833","24,6","1,231","4","306","27,1","55,1"],
    [39818,"43476,75","13,8","0,995","5","302,9","26,3","56,8"],
    [39819,"43476,79167","19,1","0,995","4,8","298,2","25,5","58,7"],
    [39820,"43476,83333","17,4","0,943","3,1","309,8","25,1","60,2"],
    [39821,"43476,875","15,3","1,021","2,4","247,2","24,9","60,6"],
    [39822,"43476,91667","21,4","1,074","0,7","183,9","23,9","66,1"],
    [39823,"43476,95833","42,6","1,126","0,7","236,3","22,2","75,3"],
    [39824,"43477","44,8","1,178","0,7","228,3","21,8","78,1"],
    [39825,"43477,04167","33,4","1,021","0,8","231,1","21,6","77,3"],
    [39826,"43477,08333","26,5","0,785","0,8","237,1","21,1","79,4"],
    [39827,"43477,125","26,3","0,916","0,9","230,7","20,6","81,8"],
    [39828,"43477,16667","42,3","0,916","0,6","221,2","20,9","81,4"],
    [39829,"43477,20833","31,6","0,969","0,5","213,9","20,9","82,4"],
    [39830,"43477,25","33,7","1,074","0,5","204,6","20,9","82,6"],
    [39831,"43477,29167","41,2","1,074","0,7","227,8","21","83,1"],
    [39832,"43477,33333","53","1,126","0,6","203,3","21,5","81,1"],
    [39833,"43477,375","52,6","2,697","0,7","174,7","22,9","74,1"],
    [39834,"43477,41667","51,8","4,268","1,1","165,4","25,2","66,2"],
    [39835,"43477,45833","44,2","5,289","1,4","119,9","26,7","60,1"],
    [39836,"43477,5","40,3","4,215","1,6","140,9","27,8","55"],
    [39837,"43477,54167","34","4,085","1,3","151,8","28,7","53,3"],
    [39838,"43477,58333","42,9","2,644","1,9","235,3","28,5","53,3"],
    [39839,"43477,625","34,2","1,833","2,7","242,8","29,3","50,3"],
    [39840,"43477,66667","17,3","1,152","4,6","311,4","28,7","51,9"],
    [39841,"43477,70833","13,3","0,943","6,1","302,6","27,3","55,1"],
    [39842,"43477,75","17,3","1,074","5,9","301,7","26,1","57,7"],
    [39843,"43477,79167","15,3","0,916","5,6","298","25,5","59,6"],
    [39844,"43477,83333","18,1","0,89","4,9","302,5","25,1","62,1"],
    [39845,"43477,875","14,1","0,812","2,6","236,7","25,1","62"],
    [39846,"43477,91667","15,3","1,152","1,1","157,9","24,6","65,2"],
    [39847,"43477,95833","42,9","1,152","0,6","189,7","22,9","73,3"],
    [39848,"43478","61,2","1,047","1","219,5","22,1","77"],
    [39849,"43478,04167","34,2","1,074","0,7","185","22","77,9"],
    [39850,"43478,08333","31,9","0,733","0,9","193,3","22,1","77,2"],
    [39851,"43478,125","26,5","0,969","0,6","206","21,4","80,2"],
    [39852,"43478,16667","26,8","1,335","0,7","255,4","21,1","81,6"],
    [39853,"43478,20833","22","0,969","0,7","235,5","21,1","81,3"],
    [39854,"43478,25","22,3","0,681","0,6","169,8","21,5","80,8"],
    [39855,"43478,29167","34","0,759","0,7","186,1","21,4","81,5"],
    [39856,"43478,33333","29,4","1,152","1,5","135,3","22","81,5"],
    [39857,"43478,375","27,9","1,047","1,1","132,2","22,7","79,3"],
    [39858,"43478,41667","17,9","1,021","1,1","120,6","23,6","75,2"],
    [39859,"43478,45833","16,7","1,126","1","152,4","24,2","72,7"],
    [39860,"43478,5","15,5","1,335","1,3","146,5","25,1","69,6"],
    [39861,"43478,54167","21,6","1,519","1,7","175,1","25,6","64,3"],
    [39862,"43478,58333","6,2","1,1","1","206,3","26,9","60,8"],
    [39863,"43478,625","23,5","1,152","3,2","315,4","28,2","54,8"],
    [39864,"43478,66667","3,5","0,785","3,8","315,8","27,7","55,7"],
    [39865,"43478,70833","11,4","0,733","5,2","307","26,4","59,2"],
    [39866,"43478,75","12,2","0,681","5,6","309,2","25,6","59,2"],
    [39867,"43478,79167","9,5","0,655","5,4","316,9","25,3","59"],
    [39868,"43478,83333","7,8","0,655","4","311,3","25,2","58,4"],
    [39869,"43478,875","11,3","0,759","1,9","213,2","24,8","65,8"],
    [39870,"43478,91667","38,7","0,995","0,9","161","24","71,2"],
    [39871,"43478,95833","26,5","0,602","1,2","202,5","22,1","84,5"],
    [39872,"43479","20,8","0,655","0,8","161,7","21,1","91,3"],
    [39873,"43479,04167","11,9","0,471","0,8","225,4","20,9","93,1"],
    [39874,"43479,08333","16,5","0,628","0,5","182,6","20,6","93,9"],
    [39875,"43479,125","10,9","0,838","0,4","201,9","20,5","94,4"],
    [39876,"43479,16667","12,1","0,524","0,6","220,3","20,3","95,1"],
    [39877,"43479,20833","11,4","1,1","0,3","166,6","20,3","95,4"],
    [39878,"43479,25","14,7","0,759","0,5","203,7","20,3","95,6"],
    [39879,"43479,29167","16,1","0,733","0,5","216,7","20,3","95,8"],
    [39880,"43479,33333","20","1,152","0,5","153,7","20,7","95,7"],
    [39881,"43479,375","22","0,864","0,5","158,7","21,3","92,8"],
    [39882,"43479,41667","16,8","0,995","0,6","179,2","22,2","86,3"],
    [39883,"43479,45833","31","1,047","0,7","100,7","24,3","76"],
    [39884,"43479,5","23","1,047","1,4","103,7","26,7","63,7"],
    [39885,"43479,54167","18","1,335","1,3","148,3","28","57,9"],
    [39886,"43479,58333","31,8","2,016","1,6","201,5","28,6","54,6"],
    [39887,"43479,625","25,3","1,492","3,3","272,5","28,1","53,2"],
    [39888,"43479,66667","10,6","1,257","2,8","302","26,6","57,6"],
    [39889,"43479,70833","22,5","1,178","3","290,1","26","60,2"],
    [39890,"43479,75","12,6","0,733","3,9","300,7","25,5","60,5"],
    [39891,"43479,79167","14,8","0,655","2,3","238,2","25,1","61,7"],
    [39892,"43479,83333","19,6","1,126","0,6","181,9","24,8","70,1"],
    [39893,"43479,875","50,7","0,916","1,6","173,4","23,7","78,3"],
    [39894,"43479,91667","49,4","0,655","0,9","168,1","22,8","83,9"],
    [39895,"43479,95833","32,9","0,628","1,8","233,9","22,2","83,2"],
    [39896,"43480","17,1","0,445","2","247,8","21,8","84"],
    [39897,"43480,04167","12,1","0,733","1","237,3","21,6","82,8"],
    [39898,"43480,08333","8,1","0,785","0,4","191,5","21,1","85,2"],
    [39899,"43480,125","12,1","0,576","0,5","181,6","21,1","87"],
    [39900,"43480,16667","18,5","0,759","0,6","227,5","20,7","88,1"],
    [39901,"43480,20833","19,8","0,969","0,3","169,9","20,6","88,7"],
    [39902,"43480,25","30,6","0,969","0,7","206,3","20,7","88,5"],
    [39903,"43480,29167","43,7","1,021","0,5","186,1","20,9","88"],
    [39904,"43480,33333","44,7","1,074","0,7","217,7","21,3","85,9"],
    [39905,"43480,375","44,7","1,362","0,7","143","23","79,1"],
    [39906,"43480,41667","49","1,44","0,8","201,1","24,6","72,8"],
    [39907,"43480,45833","44,2","1,623","1,6","133,7","26,6","64,1"],
    [39908,"43480,5","31,3","1,65","1,6","155,8","28","58"],
    [39909,"43480,54167","31,6","1,833","1,4","145,9","28,8","54"],
    [39910,"43480,58333","36,4","1,911","1,6","139,1","30,3","49,4"],
    [39911,"43480,625","43,9","2,618","1,2","121,5","31,1","46,8"],
    [39912,"43480,66667","46,8","2,016","3,4","298,7","30,5","49"],
    [39913,"43480,70833","35,6","0,943","4,3","314,2","28,9","53,6"],
    [39914,"43480,75","18,6","0,864","3,9","303,6","27,7","56,6"],
    [39915,"43480,79167","20,6","0,916","3,7","303,3","26,7","60,4"],
    [39916,"43480,83333","20","0,838","2,7","298,4","26,6","60,9"],
    [39917,"43480,875","21,1","1,231","1,3","209,3","26,3","62,6"],
    [39918,"43480,91667","27,8","0,916","1","202,8","25,9","64,7"],
    [39919,"43480,95833","31,5","0,995","0,5","182,8","25,2","70,2"],
    [39920,"43481","46,4","0,838","0,6","209,4","24,5","73,2"],
    [39921,"43481,04167","30,4","0,681","0,5","164","23,9","76,6"],
    [39922,"43481,08333","36,7","0,576","0,8","173,1","23,6","79,3"],
    [39923,"43481,125","39,6","0,707","0,6","200,1","22,8","81,6"],
    [39924,"43481,16667","29,2","0,524","0,7","190,9","22,5","83"],
    [39925,"43481,20833","27","0,995","0,5","169,9","22,7","82,5"],
    [39926,"43481,25","36,9","1,257","0,7","175,7","22,8","83,5"],
    [39927,"43481,29167","47,7","1,231","0,7","145,3","22,8","82,4"],
    [39928,"43481,33333","52,1","1,283","0,9","164,7","23,3","81,6"],
    [39929,"43481,375","58,2","1,309","0,8","128","24,6","76,1"],
    [39930,"43481,41667","50,8","1,362","0,7","131,2","25,5","70,8"],
    [39931,"43481,45833","42,2","1,545","1,4","120,4","26,9","65"],
    [39932,"43481,5","46,5","3,063","1,9","96,7","28,5","59,7"],
    [39933,"43481,54167","64,9","3,77","1,5","91,3","28,7","58,2"],
    [39934,"43481,58333","52,8","2,487","2","272,7","28,6","57,5"],
    [39935,"43481,625","33,3","1,44","2,8","322,2","28,1","56,5"],
    [39936,"43481,66667","8,7","1,152","3,2","316,6","28,2","56,2"],
    [39937,"43481,70833","16,3","1,257","3,2","308","27,8","57"],
    [39938,"43481,75","15,8","1,047","3,7","302,2","27,1","57,3"],
    [39939,"43481,79167","15","0,969","3,8","308,9","26,2","60"],
    [39940,"43481,83333","13,3","0,969","3,7","305,3","26,1","59,2"],
    [39941,"43481,875","12,9","0,943","2,4","269,9","25,9","58,7"],
    [39942,"43481,91667","16,3","1,074","0,7","180,6","24,5","67"],
    [39943,"43481,95833","43,6","0,943","0,7","222,2","22,8","74,1"],
    [39944,"43482","42,3","0,943","0,8","238,8","22,1","76,6"],
    [39945,"43482,04167","30,7","0,812","0,5","188,1","22,2","76,4"],
    [39946,"43482,08333","34,7","0,759","0,3","157,9","21,8","79,6"],
    [39947,"43482,125","21","0,655","0,8","230,3","21,3","82,1"],
    [39948,"43482,16667","19,9","0,812","0,6","217,1","20,8","83,7"],
    [39949,"43482,20833","22,6","0,681","0,8","209,3","20,9","84,3"],
    [39950,"43482,25","31,2","1,309","0,5","147","21,1","84,5"],
    [39951,"43482,29167","42,3","1,571","0,7","204,9","21,1","84"],
    [39952,"43482,33333","62,9","1,414","0,9","229,8","22,2","81,3"],
    [39953,"43482,375","61,8","2,068","0,9","164,7","24,1","73,4"],
    [39954,"43482,41667","48,5","3,09","1","194,7","25,7","67"],
    [39955,"43482,45833","43,3","3,351","1,3","127,5","27,9","59"],
    [39956,"43482,5","52,8","6,205","1,6","132,1","29","54,6"],
    [39957,"43482,54167","58,9","4,818","1,4","149","30","51,4"],
    [39958,"43482,58333","61,4","4,268","1,6","158","31","48,5"],
    [39959,"43482,625","54,8","1,676","4,1","319","30,6","49"],
    [39960,"43482,66667","24,5","1,126","4,8","308,2","29,9","51,2"],
    [39961,"43482,70833","16","0,943","5,5","301,2","28,8","53,4"],
    [39962,"43482,75","16,6","0,838","5,7","300,2","27,2","57"],
    [39963,"43482,79167","17","1,021","4,6","306,1","26,7","56,9"],
    [39964,"43482,83333","14,5","0,916","4,2","303,7","26,3","58,6"],
    [39965,"43482,875","16,9","1,309","1","158,4","26,2","59,1"],
    [39966,"43482,91667","32,3","1,309","0,8","183,2","25","67,8"],
    [39967,"43482,95833","58,7","1,126","0,7","224,9","23,2","73,8"],
    [39968,"43483","37,2","0,838","1,2","241,7","22,5","76,5"],
    [39969,"43483,04167","28,9","0,681","0,7","130,1","22,5","77"],
    [39970,"43483,08333","27,6","0,89","0,5","183,5","22,3","79,4"],
    [39971,"43483,125","35,5","0,628","0,7","222,5","21,8","81,5"],
    [39972,"43483,16667","26,4","0,707","0,7","226,2","21,8","81,1"],
    [39973,"43483,20833","24,6","0,733","0,6","237","21,8","82,1"],
    [39974,"43483,25","35,7","1,021","0,7","235,3","21,9","81,9"],
    [39975,"43483,29167","38,8","1,362","0,5","190,6","22,1","81,1"],
    [39976,"43483,33333","58,5","1,519","0,8","209,3","22,5","79,9"],
    [39977,"43483,375","55,4","1,859","0,6","177,7","23,7","74,7"],
    [39978,"43483,41667","59,8","2,828","0,8","177,5","24,6","72,2"],
    [39979,"43483,45833","74,2","3,639","1,1","76,6","25","71,3"],
    [39980,"43483,5","90,5","4,058","1,4","139,2","25,4","71,2"],
    [39981,"43483,54167","76,7","4,608","1,1","155,5","26,8","65,7"],
    [39982,"43483,58333","77,1","5,525","1,6","133","28,1","59,1"],
    [39983,"43483,625","66","4,634","1,7","173,5","28,3","58,6"],
    [39984,"43483,66667","59,8","3,325","1,3","157,6","28,4","58,9"],
    [39985,"43483,70833","64,8","3,378","1,2","133,1","28,6","57,9"],
    [39986,"43483,75","65","2,121","2,2","264,7","27,6","59,4"],
    [39987,"43483,79167","28,3","1,545","2,4","309,7","26,4","62,7"],
    [39988,"43483,83333","19,1","1,414","2,7","316,7","25,8","64,5"],
    [39989,"43483,875","14,1","1,126","2,4","302,1","25,6","65,1"],
    [39990,"43483,91667","18,4","1,152","1,2","219,9","25,1","67,3"],
    [39991,"43483,95833","33,8","1,362","0,8","175","25","67,1"],
    [39992,"43484","38,9","1,283","0,5","198,3","24,1","73,3"],
    [39993,"43484,04167","63,6","1,074","0,5","175,2","22,9","77,5"],
    [39994,"43484,08333","30,8","1,074","0,5","178,2","22,6","80,3"],
    [39995,"43484,125","48","1,1","0,5","209,7","22,9","80,7"],
    [39996,"43484,16667","46,2","0,681","0,6","210","22,8","81"],
    [39997,"43484,20833","44,5","1,466","0,3","139,6","22,3","87,5"],
    [39998,"43484,25","54,1","1,204","0,4","206,1","21,8","91,2"],
    [39999,"43484,29167","37,3","0,969","0,5","202,4","21,4","91,9"],
    [40000,"43484,33333","45,7","1,178","0,4","196,8","21,8","90,6"],
    [40001,"43484,375","67","1,414","0,6","154,8","22,8","87,1"],
    [40002,"43484,41667","90,8","1,414","0,6","150,8","24","80,8"],
    [40003,"43484,45833","99,8","2,199","0,9","100,7","26,2","69"],
    [40004,"43484,5","57,2","4,268","1,5","128,3","27,8","62,2"],
    [40005,"43484,54167","45,5","3,247","1,4","143,3","29,3","56,8"],
    [40006,"43484,58333","48,3","2,671","1,5","106,9","30,5","52,4"],
    [40007,"43484,625","53,6","2,933","1,7","154,1","31,5","48,7"],
    [40008,"43484,66667","60,5","1,335","3,9","310,9","30,5","51,1"],
    [40009,"43484,70833","28,9","0,969","4,8","304,9","29,3","52,1"],
    [40010,"43484,75","38,7","0,681","5,6","300,7","27,7","55,9"],
    [40011,"43484,79167","18,9","0,89","5,8","301,9","26,7","59,1"],
    [40012,"43484,83333","16,1","0,89","4,6","305,4","26,6","58,7"],
    [40013,"43484,875","10,1","0,89","3,3","313,1","26,9","56,9"],
    [40014,"43484,91667","12,4","0,969","1,3","192,8","26,9","59,1"],
    [40015,"43484,95833","43,6","1,126","1,1","184,9","25,1","69,6"],
    [40016,"43485","49,1","1,204","0,6","189,3","24,3","73,6"],
    [40017,"43485,04167","60,6","0,969","0,6","219,1","24","75,4"],
    [40018,"43485,08333","41,5","0,969","0,9","160,7","23,6","79,7"],
    [40019,"43485,125","50","1,074","0,8","140,8","22,6","85,6"],
    [40020,"43485,16667","26","0,864","1","203,9","22,4","87,2"],
    [40021,"43485,20833","23","0,864","0,6","191,2","22,5","87,1"],
    [40022,"43485,25","19,8","0,785","0,5","100","22,2","88,3"],
    [40023,"43485,29167","31,7","0,943","0,5","169,9","22","89,2"],
    [40024,"43485,33333","39","1,047","0,6","185,3","22,2","88,7"],
    [40025,"43485,375","43,3","0,838","0,5","102,3","23","86,9"],
    [40026,"43485,41667","39,1","1,021","1,1","109","24,4","80,3"],
    [40027,"43485,45833","42,1","2,199","1,3","114","25,6","72,2"],
    [40028,"43485,5","33,7","2,592","1,7","136,1","26,7","67,9"],
    [40029,"43485,54167","34,3","3,77","1,5","105,5","27,6","63,6"],
    [40030,"43485,58333","27","3,666","1,4","164,3","28,3","61,7"],
    [40031,"43485,625","37,8","2,592","1,3","109,9","28,7","59,9"],
    [40032,"43485,66667","22","2,042","2,7","288,1","27,9","59,2"],
    [40033,"43485,70833","5,7","1,126","3,3","313,1","26,9","60,9"],
    [40034,"43485,75","8,5","1,1","3","317,9","26,9","60,7"],
    [40035,"43485,79167","12,3","1,021","2,8","319,3","26,4","62,5"],
    [40036,"43485,83333","13,9","1,047","2,4","296,5","26,2","63,2"],
    [40037,"43485,875","10,7","0,916","1,6","233,8","25,9","64,6"],
    [40038,"43485,91667","16,6","0,864","1","199,8","25,4","66,9"],
    [40039,"43485,95833","21,5","1,126","0,8","250","24","74,5"],
    [40040,"43486","28,4","0,838","0,8","219,8","22,8","79,2"],
    [40041,"43486,04167","17,4","0,681","1,1","247,4","22,5","80"],
    [40042,"43486,08333","14,5","0,655","0,5","208,6","22,5","81,1"],
    [40043,"43486,125","26,5","0,628","0,7","229,8","22,5","80,9"],
    [40044,"43486,16667","17,7","0,707","0,2","144,6","22,5","82,2"],
    [40045,"43486,20833","28,4","0,89","0,5","172,6","22,3","84,4"],
    [40046,"43486,25","36,1","1,204","0,5","105,5","22,7","84,3"],
    [40047,"43486,29167","51,6","0,916","0,8","238,7","22,5","84,5"],
    [40048,"43486,33333","45,8","1,519","0,7","222,3","22,8","83,7"],
    [40049,"43486,375","56,5","1,283","0,7","184","23,7","79,1"],
    [40050,"43486,41667","39,8","2,121","1,2","124,3","26,7","67,1"],
    [40051,"43486,45833","61,3","3,509","1,1","109,4","28","61,8"],
    [40052,"43486,5","55,9","2,959","1,6","112,6","28,2","60,8"],
    [40053,"43486,54167","54,2","2,618","1,5","135,4","29,2","57,4"],
    [40054,"43486,58333","39,3","2,199","1,4","200,9","30,6","51,5"],
    [40055,"43486,625","41,2","2,383","1,4","140,6","31,8","47,9"],
    [40056,"43486,66667","47,7","2,226","1,4","166,7","32","46,5"],
    [40057,"43486,70833","45,4","1,859","2","207,8","31,9","47,5"],
    [40058,"43486,75","57,5","1,047","4,2","305,7","28,9","56,7"],
    [40059,"43486,79167","29,8","0,838","4,7","304,6","27,5","59,7"],
    [40060,"43486,83333","22,6","0,759","5,1","300,3","26,9","60,9"],
    [40061,"43486,875","13,3","0,628","5,2","297","26,8","60"],
    [40062,"43486,91667","10,6","0,838","2,7","227,8","26,8","59,9"],
    [40063,"43486,95833","34,1","1,047","0,6","151,4","25,8","68,1"],
    [40064,"43487","56,3","1,074","0,8","144","24,7","72,4"],
    [40065,"43487,04167","53,3","0,812","0,9","199,3","23,6","78,8"],
    [40066,"43487,08333","44,6","0,681","0,9","225,1","22,8","80,4"],
    [40067,"43487,125","36,7","0,916","0,6","221,9","22,4","81,4"],
    [40068,"43487,16667","27,1","0,916","0,5","187,4","22","82,3"],
    [40069,"43487,20833","23,2","0,812","0,6","182,2","22","83,1"],
    [40070,"43487,25","48,4","1,021","0,7","225,4","21,3","85,3"],
    [40071,"43487,29167","40,4","1,047","0,7","232,5","21","86"],
    [40072,"43487,33333","61,9","1,309","0,6","153,5","22,6","80,5"],
    [40073,"43487,375","57,7","2,487","1,5","123,7","24,9","71,4"],
    [40074,"43487,41667","59,4","3,063","1,3","129,5","26,6","65,8"],
    [40075,"43487,45833","67","6,467","1,2","152,8","27,8","61,3"],
    [40076,"43487,5","53,2","5,498","1,5","139,6","29,4","56,4"],
    [40077,"43487,54167","44,5","5,08","1,4","138,8","30,8","52,7"],
    [40078,"43487,58333","55,6","4,661","1,7","133,2","31,8","48"],
    [40079,"43487,625","41","4,661","1,5","155,2","33","44,4"],
    [40080,"43487,66667","59,5","3,823","5","311,1","31,5","51,1"],
    [40081,"43487,70833","39,5","3,482","5,4","304,5","30,1","53,5"],
    [40082,"43487,75","25,9","3,613","5,9","304,1","28,8","56,4"],
    [40083,"43487,79167","30,7","3,692","6,8","298","27,5","60,1"],
    [40084,"43487,83333","21,4","3,561","5,4","303,6","27,3","60,4"],
    [40085,"43487,875","13,8","3,535","2,8","253,1","27,4","59,8"],
    [40086,"43487,91667","16","3,98","0,8","112,4","26,9","63,7"],
    [40087,"43487,95833","52,1","3,797","0,8","135,6","25,3","71,7"],
    [40088,"43488","51,1","3,587","0,8","225,8","24,1","75,9"],
    [40089,"43488,04167","39,3","3,299","0,5","196,7","23,3","78,5"],
    [40090,"43488,08333","30","3,247","0,6","230,6","22,8","80,3"],
    [40091,"43488,125","27,7","3,509","0,4","150,1","22,4","81,1"],
    [40092,"43488,16667","27,2","0,812","0,7","227","21,8","82,5"],
    [40093,"43488,20833","26","0,943","0,9","229,7","21,3","83,7"],
    [40094,"43488,25","106,1","0,916","0,9","220,4","20,9","84,7"],
    [40095,"43488,29167","38","1,335","0,7","226,7","20,8","84,6"],
    [40096,"43488,33333","62","1,231","0,6","160,7","22,7","80,1"],
    [40097,"43488,375","60,8","2,383","1,1","128,2","25,7","69,1"],
    [40098,"43488,41667","60,4","3,797","1,5","123,3","27,1","65,4"],
    [40099,"43488,45833","63,6","3,09","1,5","101,4","28,4","60,1"],
    [40100,"43488,5","42,6","2,854","1,3","120,8","29,9","55,5"],
    [40101,"43488,54167","48,6","2,199","1,7","105,7","31","51,7"],
    [40102,"43488,58333","53,4","2,042","1,5","137,1","31,9","48,5"],
    [40103,"43488,625","52,3","1,44","3,1","241,9","32,3","47,4"],
    [40104,"43488,66667","42,3","1,021","5,2","305,3","31","50,5"],
    [40105,"43488,70833","26,3","0,89","5,2","310,5","29,9","53,6"],
    [40106,"43488,75","26,3","0,812","5,6","308,6","28,5","57,4"],
    [40107,"43488,79167","26,9","0,785","5,8","302,3","27,6","59,2"],
    [40108,"43488,83333","25,7","0,759","4,8","303,7","27,4","60,1"],
    [40109,"43488,875","20,1","1,1","2,7","247,9","27,4","60,2"],
    [40110,"43488,91667","20,4","1,074","0,8","219,6","26,6","63,5"],
    [40111,"43488,95833","50,3","1,257","0,7","106,6","25,6","69,7"],
    [40112,"43489","78,2","1,021","0,6","171,5","24,8","72,6"],
    [40113,"43489,04167","48,6","0,943","0,8","210,2","23,4","76,8"],
    [40114,"43489,08333","29,4","0,812","0,6","196,6","23,2","77,9"],
    [40115,"43489,125","26,2","0,838","0,7","231,5","22,3","80,4"],
    [40116,"43489,16667","24,5","0,733","0,8","221,3","21,8","82"],
    [40117,"43489,20833","28,1","0,995","1","247,4","21,3","83,1"],
    [40118,"43489,25","35,8","1,126","0,7","220,6","21,1","83,9"],
    [40119,"43489,29167","81,8","1,335","0,5","169,2","20,8","84,4"],
    [40120,"43489,33333","75,2","1,44","0,7","200,1","22,3","79,8"],
    [40121,"43489,375","73,9","2,016","1,1","119","25,2","68,9"],
    [40122,"43489,41667","69,6","2,461","1,5","107","26,2","67,2"],
    [40123,"43489,45833","63,8","2,618","1,2","181,4","27,8","61"],
    [40124,"43489,5","50,1","2,487","1,7","140","29,4","54,2"],
    [40125,"43489,54167","48,5","2,356","1,6","138,7","30,8","50,1"],
    [40126,"43489,58333","48,9","2,095","1,7","171,1","31,7","46,9"],
    [40127,"43489,625","40,3","1,78","2","228,3","32,5","44,9"],
    [40128,"43489,66667","44,8","1,021","4,4","304,6","31,3","49,5"],
    [40129,"43489,70833","34,7","0,89","4,5","307,2","30","51,9"],
    [40130,"43489,75","24","0,943","4,9","307,2","28,7","55,5"],
    [40131,"43489,79167","25,6","0,759","5","312,2","27,5","59,4"],
    [40132,"43489,83333","19,8","0,864","5,2","301,9","27,3","59,6"],
    [40133,"43489,875","14,5","0,864","4,1","305,6","27,3","59"],
    [40134,"43489,91667","15,4","0,916","1,6","226,7","27,2","59,6"],
    [40135,"43489,95833","19","0,628","1,6","233,8","26,8","60,8"],
    [40136,"43490","22,9","0,995","0,7","130,2","25,4","69,2"],
    [40137,"43490,04167","51,5","0,785","0,8","166,4","24,2","74,1"],
    [40138,"43490,08333","39,5","0,916","0,7","216,6","22,8","78,1"],
    [40139,"43490,125","85,7","0,864","0,9","234,4","22,1","80,3"],
    [40140,"43490,16667","25,8","0,707","0,8","229,3","21,7","81,3"],
    [40141,"43490,20833","23","1,074","0,9","230,4","21,6","80,4"],
    [40142,"43490,25","36,5","1,152","0,9","228,1","21,4","80,2"],
    [40143,"43490,29167","38,7","1,178","0,7","192,3","21,2","81,9"],
    [40144,"43490,33333","56,4","1,414","0,8","152,4","22,9","76,9"],
    [40145,"43490,375","65,3","2,199","1","141,9","25,4","68,4"],
    [40146,"43490,41667","80,6","3,509","1,9","135,4","27,3","61,6"],
    [40147,"43490,45833","64,8","2,854","1,7","159,3","28,3","58,2"],
    [40148,"43490,5","49,4","2,383","1,7","143,4","30","53"],
    [40149,"43490,54167","51,9","1,754","1,5","123,1","30,8","50,8"],
    [40150,"43490,58333","49,6","2,121","1,5","112,9","31,3","48,1"],
    [40151,"43490,625","48,7","2,042","1,5","125","32,2","44,8"],
    [40152,"43490,66667","37,9","1,335","3","258,8","32,4","44,8"],
    [40153,"43490,70833","32,5","0,969","5,1","309,3","30,6","49,9"],
    [40154,"43490,75","28,8","0,969","5,5","306,5","28,5","56,5"],
    [40155,"43490,79167","28,6","0,943","5,6","301,7","27,8","58,9"],
    [40156,"43490,83333","24,9","0,838","5,2","304,4","27,4","59,1"],
    [40157,"43490,875","16,1","0,864","3,4","288,8","27,5","57,9"],
    [40158,"43490,91667","18,7","1,047","1,1","189,2","27,5","58,8"],
    [40159,"43490,95833","30,8","0,89","0,6","196,8","26,7","62,9"],
    [40160,"43491","52,6","0,916","0,8","155","26","66,8"],
    [40161,"43491,04167","34,4","0,785","1,2","116,1","25,2","71"],
    [40162,"43491,08333","43,9","0,969","0,9","179,7","24,1","75,4"],
    [40163,"43491,125","41,1","0,733","0,9","235,6","23,1","79,9"],
    [40164,"43491,16667","37,1","0,55","1,3","235,6","22,4","81,6"],
    [40165,"43491,20833","35,7","0,733","0,8","232,1","22","82,3"],
    [40166,"43491,25","33,6","0,785","0,8","233,9","21,7","82,8"],
    [40167,"43491,29167","39,3","0,864","0,6","208,6","21,6","83,7"],
    [40168,"43491,33333","56,1","1,257","0,6","205,3","23,6","78,1"],
    [40169,"43491,375","75,3","1,78","0,9","115,5","25,9","69,6"],
    [40170,"43491,41667","96,7","2,33","1,4","115","27","65,4"],
    [40171,"43491,45833","59,3","1,99","1,5","123","28,1","61,2"],
    [40172,"43491,5","40,9","2,54","1,5","89,5","29,7","55,4"],
    [40173,"43491,54167","43,8","2,356","1,6","147,6","31,1","50,6"],
    [40174,"43491,58333","52,5","2,514","1,8","111,3","32,4","46,2"],
    [40175,"43491,625","54,9","1,702","2,6","228,7","32,9","45,1"],
    [40176,"43491,66667","70,7","1,021","5,5","318,2","31,3","49,1"],
    [40177,"43491,70833","91,3","0,969","6,3","306,7","29,4","54,2"],
    [40178,"43491,75","55,1","0,681","7","298,9","28,4","55,3"],
    [40179,"43491,79167","27,1","0,812","7","300","27,6","58,2"],
    [40180,"43491,83333","28,5","0,785","6,3","300,6","27,5","58,3"],
    [40181,"43491,875","15,4","1,074","3,5","251,7","27,4","58,7"],
    [40182,"43491,91667","23","1,204","1,6","163","26,6","64,1"],
    [40183,"43491,95833","59,7","1,126","1","173,8","26,1","67,1"],
    [40184,"43492","59,9","1,257","1,1","134,7","25,6","68,6"],
    [40185,"43492,04167","44,7","1,047","0,8","118,5","25,1","70,9"],
    [40186,"43492,08333","42,1","0,995","0,9","185,9","24,4","74,3"],
    [40187,"43492,125","43,1","0,943","0,8","201,2","23,3","78,5"],
    [40188,"43492,16667","33,9","0,864","0,8","240,6","22,9","79,8"],
    [40189,"43492,20833","27,2","0,707","0,8","179,2","22,8","80,4"],
    [40190,"43492,25","25,2","0,838","0,6","193,1","22,5","81,7"],
    [40191,"43492,29167","34","0,733","0,6","201,4","22,2","82,8"],
    [40192,"43492,33333","40,3","1,021","0,6","217,1","23,1","79,9"],
    [40193,"43492,375","50,4","1,231","0,9","157,9","24,8","73,9"],
    [40194,"43492,41667","63,9","2,618","1,3","107,6","26,9","66,1"],
    [40195,"43492,45833","61","4,163","1,6","123","28,4","60,1"],
    [40196,"43492,5","39,3","3,666","1,2","178,8","29,9","54,4"],
    [40197,"43492,54167","34,8","2,933","1,5","161,2","30,7","51,1"],
    [40198,"43492,58333","39","1,65","2,4","272,1","31,1","48,8"],
    [40199,"43492,625","20,1","1,074","4,7","305,1","31,2","48,5"],
    [40200,"43492,66667","19,8","0,785","6","321,8","29,8","53,7"],
    [40201,"43492,70833","21,7","0,655","6,8","308,1","28,3","58,1"],
    [40202,"43492,75","13,2","0,707","7,6","303,9","26,9","61,5"],
    [40203,"43492,79167","ND","0,864","6,5","303,8","26,8","61,5"],
    [40204,"43492,83333","ND","0,785","4,3","297,8","26,8","61,5"],
    [40205,"43492,875","ND","0,838","1,6","242,5","26,9","62,1"],
    [40206,"43492,91667","23,4","0,916","0,7","189,3","26,5","64"],
    [40207,"43492,95833","26,2","1,1","0,7","192,8","25,8","68,7"],
    [40208,"43493","43,6","0,785","0,5","166,6","24,9","72,8"],
    [40209,"43493,04167","35,7","0,733","0,8","240,4","24,6","73,7"],
    [40210,"43493,08333","21,5","0,55","0,4","176,2","24,5","75,3"],
    [40211,"43493,125","26,9","0,681","0,8","78,8","24,1","77,1"],
    [40212,"43493,16667","23,6","0,419","0,6","119,6","23,8","78,1"],
    [40213,"43493,20833","29,9","0,943","0,7","216,9","23,8","79,4"],
    [40214,"43493,25","34,1","0,785","0,7","195,3","23,8","79,7"],
    [40215,"43493,29167","34,5","1,178","0,9","201,4","23,7","79"],
    [40216,"43493,33333","49","1,414","0,8","151,4","23,6","79,4"],
    [40217,"43493,375","43,1","1,597","0,9","161,5","24,1","78,2"],
    [40218,"43493,41667","44,5","2,121","1,6","117,2","26,4","68,5"],
    [40219,"43493,45833","31,5","2,252","1,6","135","27,5","63,1"],
    [40220,"43493,5","29","1,309","3,6","278","26,5","63,1"],
    [40221,"43493,54167","8,3","0,655","6,1","307,8","27,3","56,2"],
    [40222,"43493,58333","17,7","0,419","7,6","318","26,6","56,7"],
    [40223,"43493,625","11,2","0,55","6,1","305,5","25,8","56"],
    [40224,"43493,66667","5,1","0,733","2,5","290,1","26,4","53,7"],
    [40225,"43493,70833","9,5","1,964","3","167,2","24,9","70,3"],
    [40226,"43493,75","80,7","2,278","2,5","157,8","23,6","78,3"],
    [40227,"43493,79167","46,6","1,414","2,6","168,5","22,8","82,2"],
    [40228,"43493,83333","24,6","1,152","2,2","161,8","22,4","83,7"],
    [40229,"43493,875","17,4","0,969","1,1","135,7","22,4","83"],
    [40230,"43493,91667","19,9","0,995","0,8","232,8","22,2","83,5"],
    [40231,"43493,95833","21,6","0,733","0,8","168,3","22","83"],
    [40232,"43494","34,3","0,785","0,6","63,3","21,7","86,1"],
    [40233,"43494,04167","19,6","0,759","0,5","149,6","21,5","87,1"],
    [40234,"43494,08333","15,8","0,576","0,6","175,1","21,7","85,7"],
    [40235,"43494,125","23","0,707","0,3","170","21,6","85,7"],
    [40236,"43494,16667","17,4","0,602","0,9","194,2","21,5","85,3"],
    [40237,"43494,20833","20,8","0,812","0,8","92,9","21,6","86,5"],
    [40238,"43494,25","30,6","0,995","0,6","119,5","21,4","88,7"],
    [40239,"43494,29167","34,9","1,021","0,7","193,1","21,3","88,7"],
    [40240,"43494,33333","39,1","1,126","0,8","161,2","21,6","87,3"],
    [40241,"43494,375","53,9","1,388","0,9","145,2","22,8","83,9"],
    [40242,"43494,41667","62,3","1,231","0,9","179,4","24,2","74,2"],
    [40243,"43494,45833","27,5","1,257","1,6","139,1","26,1","64,8"],
    [40244,"43494,5","34,4","1,178","1,5","113","27,5","60,7"],
    [40245,"43494,54167","26,9","1,152","1,4","99,1","28,4","56,2"],
    [40246,"43494,58333","25,1","1,492","1,2","150,6","29,2","52,8"],
    [40247,"43494,625","32,4","1,833","1,4","178,5","30,2","49,1"],
    [40248,"43494,66667","38","1,99","1,2","159","30,5","47,3"],
    [40249,"43494,70833","46,5","1,231","2,8","322,6","29,2","53,5"],
    [40250,"43494,75","62,3","1,047","2,8","309,1","28,7","58,3"],
    [40251,"43494,79167","41,6","1,126","2,7","297,7","27,5","60,9"],
    [40252,"43494,83333","32","1,309","1,5","184,2","26,9","62,5"],
    [40253,"43494,875","45,8","1,126","3","276,8","26,7","60,9"],
    [40254,"43494,91667","22,6","1,388","1,5","233,6","26","61,5"],
    [40255,"43494,95833","26,7","0,969","3,1","259,8","26","61,1"],
    [40256,"43495","21,2","0,838","1","198,1","25,1","66,5"],
    [40257,"43495,04167","44,6","0,759","0,8","225,6","23,9","69,7"],
    [40258,"43495,08333","ND","ND","ND","ND","ND","ND"],
    [40259,"43495,125","ND","ND","ND","ND","ND","ND"],
    [40260,"43495,16667","ND","ND","ND","ND","ND","ND"],
    [40261,"43495,20833","ND","ND","ND","ND","ND","ND"],
    [40262,"43495,25","39,2","1,257","0,7","221,6","22,1","78,6"],
    [40263,"43495,29167","48,5","0,838","0,9","242,8","21,8","80,8"],
    [40264,"43495,33333","50,1","1,388","0,5","200,4","22,6","78,9"],
    [40265,"43495,375","79,8","1,492","0,8","202,3","23,8","75,2"],
    [40266,"43495,41667","78","1,676","1,1","143,2","24,5","73,1"],
    [40267,"43495,45833","46,7","1,519","1,1","94,3","26,1","67,6"],
    [40268,"43495,5","42,2","1,728","1,2","108","27,8","60,5"],
    [40269,"43495,54167","33,4","1,78","1,8","109","29,7","53,8"],
    [40270,"43495,58333","35,5","1,388","1,8","215,8","30,5","49,5"],
    [40271,"43495,625","31,3","0,995","3,1","289,3","30,5","48,6"],
    [40272,"43495,66667","14,8","0,812","5,7","328,4","29,8","51,7"],
    [40273,"43495,70833","17,6","0,707","5,7","309,6","28,7","53,5"],
    [40274,"43495,75","13,2","0,759","5,1","307,4","27,3","57,7"],
    [40275,"43495,79167","25,3","0,681","5,6","304,1","26,4","61"],
    [40276,"43495,83333","23","0,759","4,6","293,4","26","61,7"],
    [40277,"43495,875","21,4","0,812","0,8","183,4","26","65,6"],
    [40278,"43495,91667","45,1","0,785","1,1","201","25,7","66,7"],
    [40279,"43495,95833","38,2","1,126","0,8","102,6","25","69,9"],
    [40280,"43496","27,9","1,126","1","108,7","24,3","76,4"],
    [40281,"43496,04167","38,4","0,655","0,6","202,4","23,5","78,2"],
    [40282,"43496,08333","15,7","0,995","0,9","188","23,5","77"],
    [40283,"43496,125","15,2","1,021","1,2","234,5","23,8","72,1"],
    [40284,"43496,16667","3,9","0,785","1,1","137","23,7","76,2"],
    [40285,"43496,20833","39,8","0,838","0,5","162,2","22,8","83,7"],
    [40286,"43496,25","28,9","1,178","0,8","128,1","22,9","82,6"],
    [40287,"43496,29167","18,4","1,283","0,9","225,8","23","80,1"],
    [40288,"43496,33333","45,2","1,571","0,7","140,4","23,7","78,9"],
    [40289,"43496,375","70,6","1,65","1,5","141,5","24,4","77,6"],
    [40290,"43496,41667","62,6","1,545","1,3","180,5","24,8","76,3"],
    [40291,"43496,45833","22,2","ND","1","177,3","26,5","66,8"],
    [40292,"43496,5","ND","2,618","1,2","109,1","28,5","59,2"],
    [40293,"43496,54167","ND","1,309","1,7","212,8","29,5","52,6"],
    [40294,"43496,58333","ND","1,021","2,5","268,4","29,6","50,7"],
    [40295,"43496,625","5,8","0,89","3,4","248,8","30,2","48,1"],
    [40296,"43496,66667","10,8","1,231","4,7","315,6","30","49,2"],
    [40297,"43496,70833","52","1,545","5,5","308,9","28,2","54,5"],
    [40298,"43496,75","84,4","1,335","3,7","275,5","26,7","60,5"],
    [40299,"43496,79167","46,2","1,047","4","283,5","26,2","60,9"],
    [40300,"43496,83333","38,3","0,759","1,3","182,9","23,8","80,1"],
    [40301,"43496,875","62,5","0,759","1,4","226,8","22,5","88,7"],
    [40302,"43496,91667","15,8","0,733","1,2","214,6","22,5","90"],
    [40303,"43496,95833","22,8","0,655","1,3","236,7","22","90,3"],
    [40304,"43497","11,9","0,681","0,5","214,9","22","89,9"],
    [40305,"43497,04167","23,4","0,55","0,8","221,3","21,9","90,7"],
    [40306,"43497,08333","18,5","0,655","0,5","185,8","21,9","91,1"],
    [40307,"43497,125","21,3","0,497","0,7","203,9","21,5","92,6"],
    [40308,"43497,16667","14,8","0,288","0,7","221,8","21,2","92,7"],
    [40309,"43497,20833","16,9","0,707","0,5","198,7","21,4","91,6"],
    [40310,"43497,25","20,9","0,943","0,5","172","21,5","91,6"],
    [40311,"43497,29167","38","0,916","0,8","131,4","21,5","92"],
    [40312,"43497,33333","28,8","1,126","0,7","217,7","21,4","93,6"],
    [40313,"43497,375","25,8","0,89","0,9","165","21,6","93,5"],
    [40314,"43497,41667","21,2","0,759","1,1","152,6","21,9","92,8"],
    [40315,"43497,45833","15,8","0,497","1,2","164,1","22,3","91,3"],
    [40316,"43497,5","17,2","0,576","1,1","175,9","23,1","86,2"],
    [40317,"43497,54167","10,6","0,524","1,1","145,6","24","80,1"],
    [40318,"43497,58333","28,6","0,707","0,6","146,7","24,1","79,7"],
    [40319,"43497,625","15,7","0,89","0,7","139,9","25,4","73,3"],
    [40320,"43497,66667","31,4","0,916","0,9","121,1","26,4","67,8"],
    [40321,"43497,70833","31,7","0,89","1,4","164,4","26","68,2"],
    [40322,"43497,75","44,5","0,759","2","164,3","25,4","74,4"],
    [40323,"43497,79167","50,1","0,838","1","182,8","24,5","79,4"],
    [40324,"43497,83333","35,1","0,838","0,7","207,7","24,2","81,8"],
    [40325,"43497,875","104,6","0,969","1","245,7","23,2","85,3"],
    [40326,"43497,91667","51","0,759","0,9","222,2","22,5","85,2"],
    [40327,"43497,95833","72,5","0,89","0,7","227,5","22","85,8"],
    [40328,"43498","34,4","0,707","0,7","229,9","21,4","86,8"],
    [40329,"43498,04167","32,9","0,759","0,7","202,1","21,7","86,2"],
    [40330,"43498,08333","35,5","0,628","0,8","231,8","21,3","85,8"],
    [40331,"43498,125","14,9","0,785","0,6","197,5","20,8","86,7"],
    [40332,"43498,16667","20,3","0,55","0,4","183,4","20,4","88,3"],
    [40333,"43498,20833","19,4","0,602","0,7","215,5","19,9","89,8"],
    [40334,"43498,25","24,8","0,969","0,6","188,7","19,7","90,5"],
    [40335,"43498,29167","36,3","1,1","0,5","217","19,7","91"],
    [40336,"43498,33333","49,9","1,1","0,7","180","20,8","88,9"],
    [40337,"43498,375","51,2","1,204","0,7","103,8","22,8","81,7"],
    [40338,"43498,41667","53,5","1,885","1,2","96,5","25,3","71,6"],
    [40339,"43498,45833","68","2,173","1,4","108,3","26,9","66"],
    [40340,"43498,5","67,4","1,728","1,4","134,4","27,8","61,7"],
    [40341,"43498,54167","47,7","1,65","1,6","140,7","29,2","55,8"],
    [40342,"43498,58333","44","1,754","1,4","115,7","30,1","51,5"],
    [40343,"43498,625","42,1","1,65","1,4","140,9","30,8","48,6"],
    [40344,"43498,66667","45,5","0,864","4","321,7","29,8","51,9"],
    [40345,"43498,70833","20,5","0,812","4,7","305,3","29","53"],
    [40346,"43498,75","18,3","0,707","4,9","308","27,7","56,7"],
    [40347,"43498,79167","19,2","0,812","4,7","310","26,6","59,9"],
    [40348,"43498,83333","18,6","0,707","3,7","311,4","26,4","60,6"],
    [40349,"43498,875","14","1,152","1,5","189,1","26,4","60,3"],
    [40350,"43498,91667","23,3","0,916","1","188,2","25,8","62,6"],
    [40351,"43498,95833","32,1","0,943","0,9","147,2","25","68"],
    [40352,"43499","56,9","1,1","0,5","207,4","23,7","75,8"],
    [40353,"43499,04167","48,3","0,733","0,6","222,3","22,5","79,4"],
    [40354,"43499,08333","36,2","0,681","0,4","172,7","22,6","79,9"],
    [40355,"43499,125","44","0,681","0,8","228,1","22,7","80"],
    [40356,"43499,16667","34,6","0,576","0,6","208,1","22,5","81,4"],
    [40357,"43499,20833","36,9","0,785","1,1","203,7","22,4","82,3"],
    [40358,"43499,25","39,3","1,047","0,7","164","21,6","89"],
    [40359,"43499,29167","36,2","0,812","0,7","194","21,4","91,8"],
    [40360,"43499,33333","30,6","0,785","0,7","189,7","21,8","91,9"],
    [40361,"43499,375","23,7","0,785","0,6","155,7","22,9","87"],
    [40362,"43499,41667","33,4","4,346","0,9","159,7","24,4","77,4"],
    [40363,"43499,45833","38,8","4,687","1,4","150,5","26,5","69,5"],
    [40364,"43499,5","32,4","3,561","1,4","154,5","28,5","59,8"],
    [40365,"43499,54167","20,2","3,011","1,8","177,8","29,6","55,3"],
    [40366,"43499,58333","26,8","2,278","1,6","152,8","31","51,7"],
    [40367,"43499,625","28,4","1,597","2,2","188,4","31,4","49,7"],
    [40368,"43499,66667","37,7","0,759","5","321,2","30","52,9"],
    [40369,"43499,70833","23,8","0,785","5,4","307,2","29","54,5"],
    [40370,"43499,75","13,1","0,681","5,9","304,4","27,9","56,3"],
    [40371,"43499,79167","24,7","0,759","5,9","303,8","26,9","59,5"],
    [40372,"43499,83333","19,2","0,838","5,2","302,5","26,6","60"],
    [40373,"43499,875","9,1","0,969","3,8","301,3","26,6","59"],
    [40374,"43499,91667","11,2","0,995","1,2","229,7","25,7","62,6"],
    [40375,"43499,95833","29,6","1,047","0,7","190,2","24","71,5"],
    [40376,"43500","48,1","0,89","1,1","218,5","23,5","74,3"],
    [40377,"43500,04167","29,8","0,916","0,7","135,4","23,5","75,5"],
    [40378,"43500,08333","37,4","0,838","0,7","242,9","22,8","78,4"],
    [40379,"43500,125","24,7","0,707","0,7","236,6","22,3","80,6"],
    [40380,"43500,16667","27,1","0,838","0,6","215,7","22,5","80,8"],
    [40381,"43500,20833","29,3","0,628","0,4","186,5","22,5","81,2"],
    [40382,"43500,25","36,5","1,178","0,5","199,2","22,3","82,6"],
    [40383,"43500,29167","45,1","1,362","0,8","205,3","22,3","82,5"],
    [40384,"43500,33333","62,3","1,571","0,3","158","23","79,8"],
    [40385,"43500,375","58","1,833","0,6","159,4","24,1","73,2"],
    [40386,"43500,41667","43","4,058","1,1","148,6","25,6","68"],
    [40387,"43500,45833","62,2","4,975","1,8","140,7","27,4","61,3"],
    [40388,"43500,5","29,9","4,085","2","129,6","28,9","55,8"],
    [40389,"43500,54167","35,3","4,792","1,9","165,6","28,9","56,6"],
    [40390,"43500,58333","48,6","4,058","1,7","131","29,2","56,8"],
    [40391,"43500,625","52,6","2,854","1,5","109,4","28,6","57,6"],
    [40392,"43500,66667","48","2,121","1,5","184,2","28,3","57,8"],
    [40393,"43500,70833","46,4","1,283","3,1","324,8","27,8","58,8"],
    [40394,"43500,75","17,9","1,074","3,2","321","27,5","59,5"],
    [40395,"43500,79167","19,1","1,047","2,8","321,6","26,7","61,9"],
    [40396,"43500,83333","15,1","1,074","1","209,5","25,8","66,5"],
    [40397,"43500,875","44,5","1,178","0,6","198,6","24,8","71,8"],
    [40398,"43500,91667","46,8","1,152","1","238,7","24,2","75,2"],
    [40399,"43500,95833","51,6","0,838","1,3","233,9","23,7","76,6"],
    [40400,"43501","39,7","0,969","0,6","220,7","23,2","78,6"],
    [40401,"43501,04167","54,4","0,864","0,7","200","22,7","80,4"],
    [40402,"43501,08333","35,4","0,55","0,6","172,1","22,5","81,6"],
    [40403,"43501,125","41,4","0,785","0,7","192,5","22,6","82,3"],
    [40404,"43501,16667","44,1","0,707","0,7","200,7","22,3","83,5"],
    [40405,"43501,20833","46,2","0,681","0,9","225,2","21,9","84,1"],
    [40406,"43501,25","36,7","1,021","0,7","205,1","22,1","82,9"],
    [40407,"43501,29167","63,4","1,309","0,6","195,8","22,4","82,1"],
    [40408,"43501,33333","72,7","1,807","0,8","194,7","22,9","81,9"],
    [40409,"43501,375","95,3","1,938","0,7","134,2","24","80"],
    [40410,"43501,41667","84,9","2,042","1","181,4","25,5","72,5"],
    [40411,"43501,45833","71,5","2,016","1,1","118,3","27,8","63,9"],
    [40412,"43501,5","63,8","2,671","1,8","123,9","29,3","56,6"],
    [40413,"43501,54167","51,7","2,933","1,8","123,1","30,3","54"],
    [40414,"43501,58333","51,7","2,252","1,5","97","30,1","53,8"],
    [40415,"43501,625","55,2","2,095","1,5","124,9","30,2","53,6"],
    [40416,"43501,66667","55,3","2,095","1,3","169","30,5","53"],
    [40417,"43501,70833","64,7","1,335","2,9","283,7","29,7","55,5"],
    [40418,"43501,75","50,2","1,047","4,3","303,8","28,3","59,5"],
    [40419,"43501,79167","28,7","1,074","4,2","308,9","27,5","61,3"],
    [40420,"43501,83333","20,7","0,943","3,7","300,8","27,2","62"],
    [40421,"43501,875","20,7","0,916","2,9","316,2","26,8","62,8"],
    [40422,"43501,91667","12,9","1,126","1,8","231,9","26,7","62,9"],
    [40423,"43501,95833","27","1,204","0,9","174","25,9","67,8"],
    [40424,"43502","60,5","1,1","0,7","115,9","24,8","76,6"],
    [40425,"43502,04167","60,1","0,733","0,7","195,3","24,3","78,1"],
    [40426,"43502,08333","72,4","0,838","0,8","174,1","24,3","80,2"],
    [40427,"43502,125","57,3","0,785","0,6","81,7","23,9","79,8"],
    [40428,"43502,16667","44,8","0,812","0,8","107,3","23,6","80,7"],
    [40429,"43502,20833","61,7","0,812","0,7","60,6","23,3","84"],
    [40430,"43502,25","71,8","0,916","0,3","129,3","23,1","84,9"],
    [40431,"43502,29167","75,4","1,414","0,7","218,4","23,1","84,5"],
    [40432,"43502,33333","90","2,016","0,9","160,7","23,4","82,5"],
    [40433,"43502,375","ND","ND","ND","ND","ND","ND"],
    [40434,"43502,41667","ND","1,466","0,8","136,9","24,5","81,2"],
    [40435,"43502,45833","ND","1,99","1,1","159,3","26,8","69,2"],
    [40436,"43502,5","ND","3,037","1,4","138,6","28,7","61,3"],
    [40437,"43502,54167","59","2,775","1,5","136,4","29,8","57,2"],
    [40438,"43502,58333","49,7","2,487","1,6","144,6","30,4","54,6"],
    [40439,"43502,625","50,3","2,173","1,4","123,9","31,3","51,5"],
    [40440,"43502,66667","47,2","1,126","3,9","311,5","31,2","51,1"],
    [40441,"43502,70833","32,3","0,759","5,6","302,7","29,3","54,9"],
    [40442,"43502,75","16,4","0,759","5,8","303,2","27,9","57,5"],
    [40443,"43502,79167","ND","0,681","5,5","305","27,4","58,6"],
    [40444,"43502,83333","ND","0,89","2,3","225","26,1","60,6"],
    [40445,"43502,875","ND","0,89","1,5","186,7","25,3","66,3"],
    [40446,"43502,91667","33,6","0,969","1,1","211,8","25,1","68,9"],
    [40447,"43502,95833","35,4","1,1","1,2","135","25,2","69,8"],
    [40448,"43503","56,4","1,021","0,7","152,9","24,4","75,5"],
    [40449,"43503,04167","24,9","0,759","0,6","95,4","24,4","76,9"],
    [40450,"43503,08333","43,6","0,602","0,6","219,8","23,8","78,8"],
    [40451,"43503,125","18,2","0,864","0,7","101,6","23,6","81,7"],
    [40452,"43503,16667","41,1","0,759","0,5","170","23,2","83,6"],
    [40453,"43503,20833","18","0,89","0,9","92,1","23,4","83,5"],
    [40454,"43503,25","41","1,1","0,4","99,1","23,2","84,5"],
    [40455,"43503,29167","48,5","1,283","0,3","191,3","23,1","86,3"],
    [40456,"43503,33333","56,1","1,728","0,8","108,3","23,4","84,9"],
    [40457,"43503,375","91,9","1,492","0,8","151","24,3","81,7"],
    [40458,"43503,41667","99,1","1,99","1,2","240,7","24,6","78,6"],
    [40459,"43503,45833","44,2","1,885","2,3","218,4","25,8","74"],
    [40460,"43503,5","42,7","2,383","1,7","98,7","28,3","62,5"],
    [40461,"43503,54167","18,6","2,383","1,3","139,8","29,9","54,7"],
    [40462,"43503,58333","37,3","1,545","1,9","254,4","30,8","50,9"],
    [40463,"43503,625","18,5","0,838","4,5","321,2","30,6","51"],
    [40464,"43503,66667","18,6","0,759","5,5","311","29,3","53,6"],
    [40465,"43503,70833","14,5","0,733","6,4","311,4","27,6","59,4"],
    [40466,"43503,75","20,6","0,733","6,9","303,7","26,4","62,6"],
    [40467,"43503,79167","46,7","0,785","4,3","281,3","25,9","65"],
    [40468,"43503,83333","49,3","0,759","3,6","277,8","24,6","71,5"],
    [40469,"43503,875","6,9","0,602","2,1","193","23,3","85,1"],
    [40470,"43503,91667","52,4","0,602","0,9","176,3","22,5","91,7"],
    [40471,"43503,95833","21,9","0,602","1","198,3","22,4","93,3"],
    [40472,"43504","17,1","0,812","1","126,4","22","94,4"],
    [40473,"43504,04167","11,3","0,576","1,1","113","21,8","95,1"],
    [40474,"43504,08333","7,6","0,576","1,1","116,3","21,2","95,5"],
    [40475,"43504,125","5,6","0,471","1,4","130,1","20,6","95,9"],
    [40476,"43504,16667","ND","0,314","1,2","182,5","20,3","96,3"],
    [40477,"43504,20833","1,9","0,576","0,7","138,2","20,2","96,3"],
    [40478,"43504,25","4,9","0,838","0,4","128,9","20,3","95,7"],
    [40479,"43504,29167","11,6","1,126","0,3","149,8","20,5","95,5"],
    [40480,"43504,33333","26","1,309","0,5","160","20,9","95,1"],
    [40481,"43504,375","39","1,309","0,8","174,3","21,6","92,6"],
    [40482,"43504,41667","42,1","1,65","0,6","142,5","22,7","86,8"],
    [40483,"43504,45833","39,8","1,1","1,5","141,3","24,2","78,1"],
    [40484,"43504,5","29,3","1,1","1,2","112,7","25,1","73,8"],
    [40485,"43504,54167","24,4","0,995","1,3","136,2","26,5","67,7"],
    [40486,"43504,58333","23,7","1,257","1,5","189,8","27,3","63,3"],
    [40487,"43504,625","26,5","0,995","1,1","158,6","28,3","59,6"],
    [40488,"43504,66667","26,1","0,969","1,4","219,5","29,5","55,8"],
    [40489,"43504,70833","28,2","1,074","2,6","216,4","27,7","61,1"],
    [40490,"43504,75","42,1","0,864","2,6","223,8","22,5","84,9"],
    [40491,"43504,79167","ND","1,309","0,8","144,9","22,7","87,5"],
    [40492,"43504,83333","ND","1,204","1,1","155,5","22,9","84,7"],
    [40493,"43504,875","ND","1,362","0,8","181,7","23,1","84"],
    [40494,"43504,91667","44,1","1,074","0,6","230,6","22,9","86,7"],
    [40495,"43504,95833","46,8","0,707","0,7","218,2","22,5","88,2"],
    [40496,"43505","32,5","0,681","0,8","221,4","22,2","88,7"],
    [40497,"43505,04167","23,2","0,707","0,6","200,3","22","89,1"],
    [40498,"43505,08333","24,3","0,471","0,8","219,3","21,9","89,6"],
    [40499,"43505,125","17,2","0,445","0,7","169,6","22,1","89,7"],
    [40500,"43505,16667","29,3","0,55","0,5","198,7","21,7","90,1"],
    [40501,"43505,20833","17,8","0,524","0,6","210,8","21,5","90,5"],
    [40502,"43505,25","34,1","0,55","0,7","229","21,6","90,8"],
    [40503,"43505,29167","41,6","0,943","0,4","171,1","21,9","90,6"],
    [40504,"43505,33333","66,5","0,943","0,7","219,6","22,3","90"],
    [40505,"43505,375","58,3","1,126","0,7","78,4","23,8","82,9"],
    [40506,"43505,41667","63,4","1,492","1,5","72,4","24,9","78,6"],
    [40507,"43505,45833","81,8","1,754","1,9","224,1","25,1","74,5"],
    [40508,"43505,5","25,9","1,571","1,5","137,1","26,4","67,3"],
    [40509,"43505,54167","36,6","1,571","2,2","149,5","28,2","62,1"],
    [40510,"43505,58333","25,9","0,969","2,4","283,2","29,3","54,3"],
    [40511,"43505,625","1,4","0,995","2,7","299,6","30,1","52,6"],
    [40512,"43505,66667","16,4","0,759","3,2","315,4","30","53,2"],
    [40513,"43505,70833","18,6","0,524","4","316,1","28,3","58"],
    [40514,"43505,75","9,4","0,602","5,4","312,3","26","63,6"],
    [40515,"43505,79167","9,3","0,681","6","305,7","25","65,3"],
    [40516,"43505,83333","12,5","0,681","3,3","272,2","25,4","64,3"],
    [40517,"43505,875","28,9","0,707","1,1","163,4","23,7","80,5"],
    [40518,"43505,91667","38,5","0,864","1","212,4","23,3","85"],
    [40519,"43505,95833","42,2","0,681","0,6","233,7","23,2","87,1"],
    [40520,"43506","33,1","0,785","1,5","260,4","22,6","88,6"],
    [40521,"43506,04167","9,2","0,576","0,7","158,3","22,5","87,3"],
    [40522,"43506,08333","11,2","0,524","1","238,3","22,3","87,8"],
    [40523,"43506,125","20,4","0,445","1","237,3","22","89,8"],
    [40524,"43506,16667","18,1","0,393","0,9","240,8","21,7","91,7"],
    [40525,"43506,20833","17,6","0,445","0,6","226,3","21,4","93,7"],
    [40526,"43506,25","15,1","0,602","0,6","227,9","21,2","94,1"],
    [40527,"43506,29167","16,8","0,497","0,8","218,8","21,1","94,2"],
    [40528,"43506,33333","18,8","0,576","0,8","98,8","22","92,7"],
    [40529,"43506,375","31,6","0,655","0,6","149,6","23,3","85,7"],
    [40530,"43506,41667","20,8","0,812","1,2","97,3","26","73,4"],
    [40531,"43506,45833","31,8","1,1","1,4","141,4","27","66,3"],
    [40532,"43506,5","14,7","0,995","1,2","245,9","27,8","63"],
    [40533,"43506,54167","13,2","0,916","1,2","143,3","30","52,7"],
    [40534,"43506,58333","18,3","1,178","1,7","158,7","30,3","51,9"],
    [40535,"43506,625","21,3","0,969","2,8","281","29,9","52"],
    [40536,"43506,66667","3,8","0,89","4","302,8","29","53,5"],
    [40537,"43506,70833","7,9","0,759","4,5","306,8","28,5","55,9"],
    [40538,"43506,75","14","0,628","5,4","303,9","27,2","58,6"],
    [40539,"43506,79167","8,4","0,628","4,4","304,9","26,7","59,9"],
    [40540,"43506,83333","7","0,681","2,9","299,9","26,6","60,3"],
    [40541,"43506,875","12,4","0,733","1,5","221,2","26,6","61,3"],
    [40542,"43506,91667","32,8","0,576","1,3","201,8","25,6","70,4"],
    [40543,"43506,95833","40,3","2,252","0,9","75,2","25,2","71,3"],
    [40544,"43507","28,3","0,681","1,4","154,5","24,6","75,6"],
    [40545,"43507,04167","24,8","0,759","0,6","186,9","24,1","79,1"],
    [40546,"43507,08333","22,2","0,628","0,6","121,7","23,8","80,3"],
    [40547,"43507,125","20","0,419","0,5","200,8","23,5","82,9"],
    [40548,"43507,16667","20,7","0,445","0,9","233,4","23,2","84,2"],
    [40549,"43507,20833","25,1","0,445","0,9","139,7","22,9","85,7"],
    [40550,"43507,25","27,2","0,602","0,9","196,4","22,9","84,8"],
    [40551,"43507,29167","39,6","0,969","0,6","224,1","22,6","87,1"],
    [40552,"43507,33333","54,2","1,126","0,7","206,4","23","86"],
    [40553,"43507,375","51,1","1,519","0,8","112,4","24,5","78,2"],
    [40554,"43507,41667","74,4","1,021","0,8","134,4","25,7","75,4"],
    [40555,"43507,45833","83,6","1,78","1,5","97,4","27,6","65,3"],
    [40556,"43507,5","61,7","2,514","1,5","202,4","29","58,1"],
    [40557,"43507,54167","42,2","2,54","1,4","129,2","29,6","55,6"],
    [40558,"43507,58333","34,7","3,43","1,5","132,4","30,6","51,8"],
    [40559,"43507,625","50,2","1,623","3,7","308,6","30,8","51"],
    [40560,"43507,66667","20,5","1,074","4,5","305,9","30,5","50,7"],
    [40561,"43507,70833","10","0,812","5,7","305,2","29,4","52,5"],
    [40562,"43507,75","16,1","0,707","6,2","304,9","28,1","56,6"],
    [40563,"43507,79167","31,5","0,785","5,9","306,1","26,9","59,7"],
    [40564,"43507,83333","13,6","0,812","5,5","304,8","26,9","59,2"],
    [40565,"43507,875","14,2","0,812","3,3","259,2","26,9","61,1"],
    [40566,"43507,91667","39,8","1,231","1,4","187,1","26,1","67,2"],
    [40567,"43507,95833","41,9","1,545","0,9","167,6","25,4","72,3"],
    [40568,"43508","51","0,995","1,3","230,1","24","80,8"],
    [40569,"43508,04167","35,4","0,733","0,5","170","23,4","85,8"],
    [40570,"43508,08333","29","0,524","0,9","235,4","23,3","86,8"],
    [40571,"43508,125","12,7","0,524","0,7","194,3","23","87,1"],
    [40572,"43508,16667","15,8","0,602","0,5","173,6","23,1","86,5"],
    [40573,"43508,20833","15","0,524","0,8","235,4","23","87,2"],
    [40574,"43508,25","29,8","0,681","0,8","230,2","22,9","88,1"],
    [40575,"43508,29167","39,5","0,916","0,8","231","22,8","87,4"],
    [40576,"43508,33333","50,4","1,362","0,8","239,8","23,2","85"],
    [40577,"43508,375","40,9","1,283","0,5","210,6","24","82,7"],
    [40578,"43508,41667","ND","ND","1","168,6","24,9","81,6"],
    [40579,"43508,45833","ND","2,514","1,4","87","26,9","70,7"],
    [40580,"43508,5","ND","3,482","1,9","69,3","27,5","66,5"],
    [40581,"43508,54167","48,8","2,933","1,4","108,7","28,1","62,9"],
    [40582,"43508,58333","40,9","2,592","1,2","120,6","29,1","59,9"],
    [40583,"43508,625","42,5","3,011","1,6","140,8","30,3","54,9"],
    [40584,"43508,66667","57,8","2,723","1,6","132,5","30,5","53,1"],
    [40585,"43508,70833","54,6","1,571","2,9","261,8","29,3","55,3"],
    [40586,"43508,75","30,7","1,257","3,5","315,5","28","58,6"],
    [40587,"43508,79167","18,2","1,309","3,7","309,4","27,2","61,8"],
    [40588,"43508,83333","18,1","1,257","1,5","236,7","26,6","64,7"],
    [40589,"43508,875","26,4","1,257","0,9","214,4","25,8","68,5"],
    [40590,"43508,91667","31","1,126","1,1","190,5","25,1","71,9"],
    [40591,"43508,95833","44,6","1,1","0,7","190,2","24,6","76"],
    [40592,"43509","62,9","0,943","0,9","233,9","23,4","79,3"],
    [40593,"43509,04167","37,4","0,785","0,7","191","22,8","82,1"],
    [40594,"43509,08333","39,4","0,628","0,6","203,8","22,7","83"],
    [40595,"43509,125","31,1","0,812","0,5","189,2","23,1","82,7"],
    [40596,"43509,16667","37,1","0,759","0,6","182,5","23,4","81,4"],
    [40597,"43509,20833","37,9","0,759","0,7","88,4","23,1","82,9"],
    [40598,"43509,25","48,5","1,257","0,6","178,6","22,8","84,6"],
    [40599,"43509,29167","58,5","1,152","0,6","188,6","22,5","84,9"],
    [40600,"43509,33333","65,5","1,492","0,9","198,4","23,3","82,4"],
    [40601,"43509,375","71,4","1,807","1,1","85,7","25,1","74,5"],
    [40602,"43509,41667","56,6","1,65","1,2","127,2","26,5","69,1"],
    [40603,"43509,45833","46","2,252","1,4","112","28","63,3"],
    [40604,"43509,5","43","2,592","1,5","138,7","29,6","56,6"],
    [40605,"43509,54167","47,2","2,854","1,6","128,3","31,2","51,6"],
    [40606,"43509,58333","51,8","2,618","2,2","176,3","31,8","48,9"],
    [40607,"43509,625","59,2","1,021","4,9","319,4","31","51,8"],
    [40608,"43509,66667","20,4","0,864","5,2","314,4","30,1","54,4"],
    [40609,"43509,70833","22,9","0,759","6,6","302,8","28,9","56,6"],
    [40610,"43509,75","35,6","0,838","7,5","299,5","27,5","59,3"],
    [40611,"43509,79167","29,9","0,969","6,3","301,9","27,1","59,9"],
    [40612,"43509,83333","25","1,021","5,4","301,3","27","60"],
    [40613,"43509,875","21,2","1,178","1,3","187,8","27","62,8"],
    [40614,"43509,91667","39,3","1,283","0,6","162,9","25,8","68,1"],
    [40615,"43509,95833","43,9","1,178","0,8","219,2","24,7","73,2"],
    [40616,"43510","42,6","0,864","0,7","226,9","24","75,8"],
    [40617,"43510,04167","22,7","0,785","0,5","198,2","23,7","76,6"],
    [40618,"43510,08333","25,2","0,576","0,7","198,1","23,2","78,8"],
    [40619,"43510,125","23","0,785","0,6","232,5","23","80,2"],
    [40620,"43510,16667","22,3","0,707","0,7","137,8","23","80,9"],
    [40621,"43510,20833","26,9","0,838","0,8","198,4","23,3","79,1"],
    [40622,"43510,25","39,8","1,335","0,6","191,1","23","81,1"],
    [40623,"43510,29167","48,8","1,204","0,8","245,6","22,7","83"],
    [40624,"43510,33333","61,8","1,492","0,7","196,8","23,1","81,5"],
    [40625,"43510,375","68,3","2,644","0,9","127,8","24,4","76,8"],
    [40626,"43510,41667","76,5","3,063","1,2","140,7","26,1","70,5"],
    [40627,"43510,45833","78,6","4,477","1,4","130,3","28","63,1"],
    [40628,"43510,5","65,6","3,404","1,2","188,6","28,6","60,4"],
    [40629,"43510,54167","49,1","2,487","1,6","242,6","29,6","54,9"],
    [40630,"43510,58333","52,7","1,964","1,9","199,6","31,3","47,8"],
    [40631,"43510,625","26,5","1,44","3,2","302,1","31,6","45,8"],
    [40632,"43510,66667","22,5","1,021","4,7","323,2","31,1","46,7"],
    [40633,"43510,70833","17,8","0,943","4","319,1","30,9","47,9"],
    [40634,"43510,75","18","1,204","3,6","309,4","30,1","49"],
    [40635,"43510,79167","21,2","1,362","1,5","208,4","29","51,4"],
    [40636,"43510,83333","31","1,388","1,5","236,8","27,4","57,4"],
    [40637,"43510,875","52,8","1,466","1,9","245,7","26,3","61,7"],
    [40638,"43510,91667","44","1,362","1,2","240,4","25,9","63,2"],
    [40639,"43510,95833","42,8","1,074","0,7","204","25,4","65,1"],
    [40640,"43511","46,5","1,074","1,8","245,1","25,3","63,5"],
    [40641,"43511,04167","23,6","0,943","0,7","202,4","24,5","66,8"],
    [40642,"43511,08333","29,6","0,838","0,4","183,6","23,4","73,1"],
    [40643,"43511,125","32,2","0,864","0,5","194,4","22,6","77,3"],
    [40644,"43511,16667","32,1","0,89","0,6","219,5","22","80,2"],
    [40645,"43511,20833","34,9","1,231","0,9","246","21,7","81,7"],
    [40646,"43511,25","51,8","1,047","0,7","221,3","21,3","83,3"],
    [40647,"43511,29167","59,1","1,126","1,1","247,4","21,3","83,6"],
    [40648,"43511,33333","70,3","1,623","0,7","152,2","23,4","76,9"],
    [40649,"43511,375","79,2","2,042","1,3","170,5","24,8","73,6"],
    [40650,"43511,41667","ND","ND","ND","ND","ND","ND"],
    [40651,"43511,45833","ND","ND","ND","ND","ND","ND"],
    [40652,"43511,5","ND","ND","ND","ND","ND","ND"],
    [40653,"43511,54167","48,6","2,54","1,5","124,4","30,8","52,5"],
    [40654,"43511,58333","50,6","2,487","1,9","182,1","32,1","48,2"],
    [40655,"43511,625","64,1","1,204","5,5","312,9","30,6","52,8"],
    [40656,"43511,66667","32,2","0,864","6,4","305,5","29,5","54,7"],
    [40657,"43511,70833","27,5","0,733","6,6","302,3","28,8","56,3"],
    [40658,"43511,75","23,3","0,864","6,7","302,8","27,8","58,7"],
    [40659,"43511,79167","29","0,969","5,3","303,1","27,4","60,3"],
    [40660,"43511,83333","26","0,943","4,2","312,5","27,3","60,3"],
    [40661,"43511,875","25,1","0,864","3,8","303,5","26,7","63"],
    [40662,"43511,91667","17,8","1,1","1,7","234","26,7","63,4"],
    [40663,"43511,95833","23,1","1,1","0,9","208,1","26","68,1"],
    [40664,"43512","50,2","1,047","0,8","183,5","25,1","72,7"],
    [40665,"43512,04167","49,4","0,89","0,9","123,6","24,5","74,6"],
    [40666,"43512,08333","46,4","0,943","1,1","217,7","24,1","76,9"],
    [40667,"43512,125","40,3","0,785","0,6","196,3","23,7","78,8"],
    [40668,"43512,16667","33,1","0,864","0,5","140,3","23,7","78,6"],
    [40669,"43512,20833","33,7","0,812","0,8","231,9","23,4","80,6"],
    [40670,"43512,25","40,4","0,943","0,7","223","22,9","82,4"],
    [40671,"43512,29167","37,8","1,126","0,8","211,5","23","82,4"],
    [40672,"43512,33333","48,1","1,571","0,9","178","23,8","79,4"],
    [40673,"43512,375","62,4","1,833","0,7","125,4","24,8","73,7"],
    [40674,"43512,41667","53","3,037","1,3","132,2","26,8","67"],
    [40675,"43512,45833","53,6","3,43","1,2","147,6","28,2","61,8"],
    [40676,"43512,5","46,1","3,404","1,7","122,4","29,4","56,8"],
    [40677,"43512,54167","46,5","3,037","1,3","119,5","30,4","52,8"],
    [40678,"43512,58333","54","1,833","2,4","234,1","31","50,3"],
    [40679,"43512,625","42,7","1,152","5,1","311,4","30,6","50,6"],
    [40680,"43512,66667","17,5","1,1","5,9","303,3","29,9","50,9"],
    [40681,"43512,70833","20,5","0,995","6,8","302,4","28,9","54"],
    [40682,"43512,75","24,7","0,838","6,7","303,7","27,9","56,4"],
    [40683,"43512,79167","21,3","0,864","6,8","310,4","27,1","58,5"],
    [40684,"43512,83333","22,5","0,995","5,6","310,7","27","58,8"],
    [40685,"43512,875","17,3","1,021","2,8","261,3","27","59,1"],
    [40686,"43512,91667","13,1","1,204","1,7","199,9","27","59,8"],
    [40687,"43512,95833","28,6","1,283","1,1","133","26,1","66,1"],
    [40688,"43513","46,5","1,283","1,1","130,6","25,7","68"],
    [40689,"43513,04167","39,3","1,1","0,9","192","25,5","70"],
    [40690,"43513,08333","35,5","1,021","1","216,6","24,8","73,2"],
    [40691,"43513,125","31,3","1,283","2","198,5","23,7","78,7"],
    [40692,"43513,16667","21,2","0,576","1,5","210,8","21,9","89,7"],
    [40693,"43513,20833","ND","0,707","1,7","220,9","21","93,2"],
    [40694,"43513,25","ND","0,419","1,9","222,6","20,9","94,6"],
    [40695,"43513,29167","ND","0,602","1","195,7","20,8","96,6"],
    [40696,"43513,33333","13,6","0,576","1","217,4","21,3","97,1"],
    [40697,"43513,375","14,9","0,655","0,4","176,4","22,3","96,3"],
    [40698,"43513,41667","21,6","0,707","0,7","186,4","23,8","90,3"],
    [40699,"43513,45833","26","0,995","1,4","118,3","26,5","70,8"],
    [40700,"43513,5","31,9","1,204","1,5","187,8","28,9","60,3"],
    [40701,"43513,54167","30,2","0,995","2,2","276,3","29,9","56,1"],
    [40702,"43513,58333","20,2","0,995","2,6","243,1","30,9","50,7"],
    [40703,"43513,625","10,2","0,733","4,8","320","30,4","52,2"],
    [40704,"43513,66667","10,2","0,497","6,2","315,3","29,3","54,6"],
    [40705,"43513,70833","15,7","0,445","6,6","307,5","28,4","55,9"],
    [40706,"43513,75","9,1","0,576","6,7","311,5","27","58,7"],
    [40707,"43513,79167","12,2","0,524","7,1","314,5","25,9","62,8"],
    [40708,"43513,83333","11,9","0,602","6,1","305,2","25,6","63,6"],
    [40709,"43513,875","11","0,602","3,3","280,1","25,7","63,5"],
    [40710,"43513,91667","12,4","0,655","2,5","289,3","25,1","67,1"],
    [40711,"43513,95833","11,8","0,681","0,7","111,3","25","71,6"],
    [40712,"43514","27,1","0,733","1,2","147,4","24,7","75,4"],
    [40713,"43514,04167","24,9","0,785","0,7","219,2","24","78,7"],
    [40714,"43514,08333","21,1","0,419","1","102,4","23,6","79,2"],
    [40715,"43514,125","12,4","0,445","1","118,1","23,2","81,5"],
    [40716,"43514,16667","14,1","0,524","1,1","121,5","22,6","86,8"],
    [40717,"43514,20833","16","0,367","0,7","139,7","22,1","90"],
    [40718,"43514,25","24,8","0,759","1","192,4","22","92,3"],
    [40719,"43514,29167","16,8","0,995","0,6","180,7","21,7","93,8"],
    [40720,"43514,33333","18,8","1,152","0,9","147,4","22,2","93,5"],
    [40721,"43514,375","25,4","1,074","0,9","149","23,4","90,2"],
    [40722,"43514,41667","32,7","0,969","1,2","148,7","25,2","78,3"],
    [40723,"43514,45833","29","1,283","1,4","134,7","27,3","66,7"],
    [40724,"43514,5","26,5","1,623","1,6","147,7","28,9","60,2"],
    [40725,"43514,54167","28,7","1,335","1,6","150,6","29,7","57,1"],
    [40726,"43514,58333","31","0,89","1,2","181,1","30,1","54,4"],
    [40727,"43514,625","26,5","0,655","4,3","326,1","28,2","59"],
    [40728,"43514,66667","17,4","0,707","3,2","314,5","28,1","60,8"],
    [40729,"43514,70833","15,9","0,812","3,7","324,5","28,7","56,6"],
    [40730,"43514,75","16,1","0,864","3,6","311,8","27,7","59,2"],
    [40731,"43514,79167","18,3","0,759","3,8","313,5","26,9","61"],
    [40732,"43514,83333","18,6","0,838","3,2","304,1","26,5","62,2"],
    [40733,"43514,875","17,5","0,655","2,7","287,5","26,4","63"],
    [40734,"43514,91667","17,7","0,89","1,1","165,8","26,3","66,3"],
    [40735,"43514,95833","47,8","0,943","0,6","181","25,4","74,9"],
    [40736,"43515","47,8","0,602","0,7","214","24,8","75,1"],
    [40737,"43515,04167","27,7","0,576","0,5","178,6","24,5","77,4"],
    [40738,"43515,08333","26,5","0,681","0,9","149,6","24,2","79,4"],
    [40739,"43515,125","31,6","0,576","0,4","164","24","82,1"],
    [40740,"43515,16667","38,1","0,628","0,7","185,4","23,5","83,2"],
    [40741,"43515,20833","28,1","0,628","0,7","229,2","23,2","84,5"],
    [40742,"43515,25","41,7","0,785","0,5","163,5","23,1","84,8"],
    [40743,"43515,29167","54,9","1,283","0,8","170","23,3","84,5"],
    [40744,"43515,33333","74,7","1,178","1,4","211,3","22,2","86,5"],
    [40745,"43515,375","44,2","1,335","0,9","135,1","20,6","91,6"],
    [40746,"43515,41667","19,5","1,519","0,8","140,3","21,2","93,9"],
    [40747,"43515,45833","25,8","1,414","1,3","141,7","21,9","94"],
    [40748,"43515,5","30,3","1,152","0,9","123,3","21,8","92,8"],
    [40749,"43515,54167","16,8","1,074","0,6","126","22,6","90,5"],
    [40750,"43515,58333","20,1","1,074","1,4","97,8","24,3","80,5"],
    [40751,"43515,625","36,2","0,916","1,2","183,7","25,3","74,8"],
    [40752,"43515,66667","43,3","0,943","1,7","172","25,2","76,3"],
    [40753,"43515,70833","38,5","1,047","1,4","173","25","77,5"],
    [40754,"43515,75","43,4","0,943","1","191,3","24","82,4"],
    [40755,"43515,79167","25,1","0,916","0,9","194,1","23,2","87,1"],
    [40756,"43515,83333","24,9","0,943","0,7","212,6","23","89,7"],
    [40757,"43515,875","30,1","0,655","1,1","247,5","22,3","91,2"],
    [40758,"43515,91667","28","0,864","0,8","196,4","22,1","90,5"],
    [40759,"43515,95833","42,3","0,759","0,7","206,2","22,2","90,9"],
    [40760,"43516","39,8","0,995","0,6","224,6","21,7","91"],
    [40761,"43516,04167","29,5","0,524","0,8","233,1","21,4","90,5"],
    [40762,"43516,08333","16,9","0,524","0,6","211,8","21,4","90"],
    [40763,"43516,125","19,2","0,55","0,7","228,3","21,4","90,4"],
    [40764,"43516,16667","21,9","0,471","0,6","148,5","21,3","90,5"],
    [40765,"43516,20833","21,3","0,89","0,8","192","21,4","90,8"],
    [40766,"43516,25","41,4","1,204","0,6","187,2","21,1","90,8"],
    [40767,"43516,29167","59,2","1,571","0,7","204,7","21,3","91,4"],
    [40768,"43516,33333","86,8","1,335","0,7","187,3","21,8","90,1"],
    [40769,"43516,375","69,8","1,676","0,9","120,3","23,9","81,2"],
    [40770,"43516,41667","66,7","1,859","0,8","191","24,9","78"],
    [40771,"43516,45833","63,1","1,676","1,1","148,8","26","73,2"],
    [40772,"43516,5","36,9","1,65","1,3","106,8","28","63,7"],
    [40773,"43516,54167","ND","1,728","1,2","129,3","29","59,5"],
    [40774,"43516,58333","ND","1,859","1,5","144,6","29,6","57,7"],
    [40775,"43516,625","ND","2,435","2,2","208,3","29,7","56,2"],
    [40776,"43516,66667","41,5","1,283","4,5","317,6","29,3","56,3"],
    [40777,"43516,70833","11,6","0,916","5,4","302,9","28,1","58"],
    [40778,"43516,75","11,5","0,89","5,5","302,7","26,9","61"],
    [40779,"43516,79167","9,6","0,89","4,4","313,1","26,6","61,1"],
    [40780,"43516,83333","10,4","1,126","2,5","179,9","25,2","71,4"],
    [40781,"43516,875","38,4","1,335","0,9","151,6","23,7","78,5"],
    [40782,"43516,91667","42,7","1,257","0,8","185,5","23,7","81,9"],
    [40783,"43516,95833","47,8","0,838","0,8","237,8","23,6","83,9"],
    [40784,"43517","39,4","0,707","0,8","227,1","23,1","85"],
    [40785,"43517,04167","27,1","0,681","0,6","158,9","23","84,2"],
    [40786,"43517,08333","23,7","0,733","0,5","85,7","22,7","84,7"],
    [40787,"43517,125","31,9","0,681","0,7","176,4","22,5","86"],
    [40788,"43517,16667","31,3","0,681","0,4","199,8","22,2","87,4"],
    [40789,"43517,20833","32,2","0,576","0,7","206,9","21,9","88,4"],
    [40790,"43517,25","39,6","1,388","0,7","144,1","22,4","87,4"],
    [40791,"43517,29167","59,3","1,204","0,6","194,5","22,3","87,8"],
    [40792,"43517,33333","61,2","1,597","1","141,6","23","86"],
    [40793,"43517,375","65,6","1,99","1,7","156","24,3","80"],
    [40794,"43517,41667","63,6","4,399","1,5","121,4","26","73"],
    [40795,"43517,45833","46,3","3,456","1,3","169,2","27,5","66,6"],
    [40796,"43517,5","32","2,959","1,7","126,7","29,1","60,4"],
    [40797,"43517,54167","39,3","2,461","1,7","155,3","30","57,6"],
    [40798,"43517,58333","46,3","1,65","1,4","186,6","30,8","55,7"],
    [40799,"43517,625","33,1","1,414","2","161,1","31,7","52,5"],
    [40800,"43517,66667","37,1","0,943","4,3","313,4","30,4","54,3"],
    [40801,"43517,70833","17,9","0,838","5,2","314","28,3","60,8"],
    [40802,"43517,75","15,5","0,864","6,6","301,3","27,3","62,8"],
    [40803,"43517,79167","18,2","0,969","5,2","298,4","27,2","62,3"],
    [40804,"43517,83333","27,4","1,074","2,3","194","25,6","67,2"],
    [40805,"43517,875","36,1","1,335","1,4","139,9","25,4","68"],
    [40806,"43517,91667","32,2","1,309","0,9","108","23,9","72,6"],
    [40807,"43517,95833","31,6","1,362","0,9","66,8","24","72,4"],
    [40808,"43518","36,8","0,89","0,9","97,7","22,8","78,8"],
    [40809,"43518,04167","27,7","0,681","0,9","141,8","22,3","81,2"],
    [40810,"43518,08333","18,9","0,655","0,8","216,3","22,1","83,4"],
    [40811,"43518,125","32,1","0,812","0,7","179,9","22","85,1"],
    [40812,"43518,16667","31,6","0,707","0,9","132,6","22","85,1"],
    [40813,"43518,20833","31","0,916","0,7","144,6","21,4","86,5"],
    [40814,"43518,25","60,6","0,995","0,8","205,3","21,2","88,2"],
    [40815,"43518,29167","73,4","1,466","0,5","180,9","21,4","88,5"],
    [40816,"43518,33333","76,8","1,728","0,7","160,2","22,3","85,7"],
    [40817,"43518,375","77,5","1,65","0,5","158,5","23,5","80,4"],
    [40818,"43518,41667","60,4","3,299","1,4","143,1","25,9","70,3"],
    [40819,"43518,45833","57,9","3,194","1,3","118,8","27,7","63,9"],
    [40820,"43518,5","39,4","2,514","1,7","116,6","29,1","59,7"],
    [40821,"43518,54167","41","2,042","1,7","146,7","30,4","54,3"],
    [40822,"43518,58333","35","1,414","1,6","124,1","31,7","50"],
    [40823,"43518,625","39,6","1,204","3,2","227,3","31,9","50"],
    [40824,"43518,66667","38,5","0,785","5,7","317","30","56,3"],
    [40825,"43518,70833","19,8","0,759","6","301","28,8","58,2"],
    [40826,"43518,75","15,2","0,733","6,2","298,5","27,6","60,6"],
    [40827,"43518,79167","17,6","0,838","5,6","300,4","27,3","61,2"],
    [40828,"43518,83333","17,2","0,969","2,9","242,4","27,4","62,2"],
    [40829,"43518,875","30,2","1,231","0,8","201,6","26,7","66,3"],
    [40830,"43518,91667","31,1","1,283","0,9","214,1","26","67,1"],
    [40831,"43518,95833","24,8","0,943","0,9","218,8","25","73,6"],
    [40832,"43519","42,1","1,074","0,6","215,2","24,3","77,4"],
    [40833,"43519,04167","43,3","0,864","0,7","205,7","24,1","78,7"],
    [40834,"43519,08333","30,3","0,838","0,8","114,9","24,3","75,5"],
    [40835,"43519,125","23,7","0,785","0,7","118,5","23,9","77,4"],
    [40836,"43519,16667","28,1","0,681","0,7","128,4","23,6","79,2"],
    [40837,"43519,20833","22","0,969","0,6","207,5","23,6","81,2"],
    [40838,"43519,25","36,9","0,759","0,7","202,4","23,6","81,8"],
    [40839,"43519,29167","37,7","1,152","1","125,2","23,2","83,7"],
    [40840,"43519,33333","44,7","1,231","0,7","75,5","22,3","87,9"],
    [40841,"43519,375","23","0,995","0,8","158,6","22,7","89,6"],
    [40842,"43519,41667","17,4","1,414","1","94,5","25","80,8"],
    [40843,"43519,45833","37,3","2,828","1,3","165,7","26,9","69,7"],
    [40844,"43519,5","45,8","2,173","1,2","156,7","28,1","63,3"],
    [40845,"43519,54167","34,2","1,859","1,8","194,3","29,1","59,2"],
    [40846,"43519,58333","32,5","0,943","4,9","315","28,8","58"],
    [40847,"43519,625","6,4","0,681","4,7","326,4","29,1","55,6"],
    [40848,"43519,66667","8,4","0,759","4,7","322,2","29","55,2"],
    [40849,"43519,70833","11","0,707","5,7","325,7","27,5","59,5"],
    [40850,"43519,75","6,8","0,812","5,1","319,5","26,2","62,4"],
    [40851,"43519,79167","8,7","0,89","2,8","225,7","26","64,6"],
    [40852,"43519,83333","27,8","1,074","1,1","178,9","24,8","74,4"],
    [40853,"43519,875","26,4","1,021","0,9","129","24,7","73,6"],
    [40854,"43519,91667","24,8","0,995","0,8","234,8","24,4","75,7"],
    [40855,"43519,95833","28,9","0,943","0,8","230,1","24","77,4"],
    [40856,"43520","31,6","1,728","1,4","55,3","24,1","80,5"],
    [40857,"43520,04167","51,9","1,362","1,1","56,4","23,2","83,9"],
    [40858,"43520,08333","34,6","0,969","0,9","89,6","22,8","85,1"],
    [40859,"43520,125","31","0,969","0,7","80,9","22,5","86,2"],
    [40860,"43520,16667","25,8","0,812","0,7","66,2","22,4","86,2"],
    [40861,"43520,20833","22,2","0,838","1,2","124,2","22,3","86,5"],
    [40862,"43520,25","29,6","0,995","0,9","136,5","22,2","87"],
    [40863,"43520,29167","31,3","0,89","0,8","167,5","22,1","87,3"],
    [40864,"43520,33333","33,5","0,916","0,9","165,5","22,2","87,7"],
    [40865,"43520,375","30,5","1,1","0,9","131,9","22,1","88,6"],
    [40866,"43520,41667","25,9","1,021","1,5","159,4","21,9","91"],
    [40867,"43520,45833","12,1","0,969","1,3","166,7","22,8","87,6"],
    [40868,"43520,5","9,5","1,178","1,1","157,5","24,7","77"],
    [40869,"43520,54167","10,5","1,335","1,2","174","26,7","65,8"],
    [40870,"43520,58333","17,4","1,754","1,3","202,2","27,7","61,8"],
    [40871,"43520,625","26,3","2,304","1,6","255,4","27,6","63,6"],
    [40872,"43520,66667","29,4","2,435","2,1","256,9","26,4","70"],
    [40873,"43520,70833","29,8","1,702","1,9","273,9","26","71,8"],
    [40874,"43520,75","17,9","1,492","3,2","300,4","26","64,2"],
    [40875,"43520,79167","10,8","1,047","3,3","270,8","25,3","65,5"],
    [40876,"43520,83333","17","1,178","1,5","249,8","24,6","70,6"],
    [40877,"43520,875","22,2","1,178","0,9","235,2","24,1","71,5"],
    [40878,"43520,91667","26","1,126","1,7","279,4","24,1","67,8"],
    [40879,"43520,95833","21,7","1,178","0,5","184","23,3","76"],
    [40880,"43521","29,2","0,916","0,7","224,7","22,9","80,1"],
    [40881,"43521,04167","23,8","0,916","0,6","219,3","22,4","82,2"],
    [40882,"43521,08333","23,6","0,759","1,2","243,1","22","83"],
    [40883,"43521,125","24,7","0,759","0,6","200,2","21,7","83,9"],
    [40884,"43521,16667","23,8","0,733","0,8","210,1","21,2","84,9"],
    [40885,"43521,20833","23,2","1,178","0,6","197,3","21","85,2"],
    [40886,"43521,25","37,1","1,126","0,7","187,7","20,9","85,9"],
    [40887,"43521,29167","55,6","1,257","1","240,9","20,8","86,8"],
    [40888,"43521,33333","54,9","1,65","0,8","220,4","21,5","84,3"],
    [40889,"43521,375","54,8","2,147","0,6","128,9","23,4","77,7"],
    [40890,"43521,41667","60,7","3,325","0,9","185,2","24,7","72,7"],
    [40891,"43521,45833","44,4","ND","1,1","165,9","26,2","67"],
    [40892,"43521,5","ND","2,854","1,5","108,8","28,4","57,6"],
    [40893,"43521,54167","ND","1,833","1,5","133,2","29,4","54,4"],
    [40894,"43521,58333","ND","2,304","1,4","117,7","29,6","53,1"],
    [40895,"43521,625","41","1,964","2,7","194,4","30,5","48,9"],
    [40896,"43521,66667","15,3","0,838","4,5","322,7","30,1","47,5"],
    [40897,"43521,70833","13,7","0,497","4,6","317","29","51,5"],
    [40898,"43521,75","16,8","0,524","5,7","304,6","26,9","58,2"],
    [40899,"43521,79167","21,8","0,628","5,8","306,5","26","61,5"],
    [40900,"43521,83333","20","0,655","5,2","302","25,9","60,6"],
    [40901,"43521,875","19,3","0,655","1,9","231,5","26,4","59,9"],
    [40902,"43521,91667","23,4","0,733","2,5","305","25,5","62,5"],
    [40903,"43521,95833","14,6","0,55","0,9","182,5","25,2","65,5"],
    [40904,"43522","22,6","0,89","1","122,9","24,9","67,5"],
    [40905,"43522,04167","21","0,576","0,6","183,7","23,8","76,1"],
    [40906,"43522,08333","30","0,393","0,7","197,4","23,4","78,1"],
    [40907,"43522,125","18,7","0,419","0,6","105,2","23,1","79"],
    [40908,"43522,16667","12,5","0,445","0,8","133,2","22,8","78,2"],
    [40909,"43522,20833","12,6","0,759","0,5","157,3","22,8","79"],
    [40910,"43522,25","23","0,838","0,9","242,4","22,6","80,3"],
    [40911,"43522,29167","32","1,074","0,7","196,9","22,5","80,4"],
    [40912,"43522,33333","50,4","1,047","0,8","71,9","22,7","82,1"],
    [40913,"43522,375","50,7","0,916","0,5","161,7","22,7","82,2"],
    [40914,"43522,41667","40,9","0,864","0,4","146,8","23,6","77,1"],
    [40915,"43522,45833","39,4","0,89","0,7","147","24,7","71,4"],
    [40916,"43522,5","55,2","0,969","1,3","145,5","25,6","70,2"],
    [40917,"43522,54167","50","0,916","1,2","160","27,1","62,3"],
    [40918,"43522,58333","28","1,021","1,4","215,2","28,7","53,6"],
    [40919,"43522,625","25","0,995","1,4","88,8","29,4","52,2"],
    [40920,"43522,66667","28","1,074","1,3","128","29,9","49,4"],
    [40921,"43522,70833","37,3","1,44","1,5","101,9","29,2","52,4"],
    [40922,"43522,75","45,9","0,733","3,4","312","27,3","58,1"],
    [40923,"43522,79167","23,8","0,524","4,3","308,5","26,5","60"],
    [40924,"43522,83333","18,8","0,445","5","305,2","26,2","60,4"],
    [40925,"43522,875","14,6","0,34","4,4","304,6","26,2","57"],
    [40926,"43522,91667","9,5","0,471","2,6","258,7","26,1","56,6"],
    [40927,"43522,95833","14,9","0,655","1,2","146,4","25,8","64,6"],
    [40928,"43523","44,5","0,655","1,6","161,8","24,2","73,8"],
    [40929,"43523,04167","29,9","0,445","1,4","206,7","23,5","76,7"],
    [40930,"43523,08333","22,4","0,367","1,1","140,4","23,1","78,8"],
    [40931,"43523,125","16","0,314","1,3","145,1","21,9","82"],
    [40932,"43523,16667","5,4","0,367","0,6","164","21,2","85,4"],
    [40933,"43523,20833","11,2","0,393","1,2","161,7","20,9","89,7"],
    [40934,"43523,25","14,7","0,445","1,2","166,7","20,5","91,9"],
    [40935,"43523,29167","12,6","0,602","1","183,2","20,3","93,2"],
    [40936,"43523,33333","19,4","0,943","0,7","100,9","20,6","93,3"],
    [40937,"43523,375","21,8","1,1","0,7","61,9","21,1","92,4"],
    [40938,"43523,41667","23,8","0,785","0,8","110,7","22","87,7"],
    [40939,"43523,45833","22","0,55","1,2","142,1","23,3","80,2"],
    [40940,"43523,5","26,6","0,55","1,2","133,9","25,1","71,5"],
    [40941,"43523,54167","18,3","0,89","1,6","122,9","27","63,8"],
    [40942,"43523,58333","25","0,707","1,5","161,7","28","60,5"],
    [40943,"43523,625","20,8","0,916","1,5","149,3","28,4","59"],
    [40944,"43523,66667","29,8","0,707","1,3","177,7","28","60,9"],
    [40945,"43523,70833","30,6","0,524","1","190,9","27,8","62,7"],
    [40946,"43523,75","31,3","0,576","1,9","322,9","27,2","60,5"],
    [40947,"43523,79167","15,9","0,681","1,8","275","26,4","62,3"],
    [40948,"43523,83333","31,8","0,602","1,3","219,7","25,4","68,5"],
    [40949,"43523,875","36,6","0,471","2","232,1","25","69,9"],
    [40950,"43523,91667","24,9","0,524","1,1","223,9","23,9","76,3"],
    [40951,"43523,95833","ND","0,524","0,7","217,6","23,9","75,4"],
    [40952,"43524","ND","0,602","0,6","211,8","23,3","78,2"],
    [40953,"43524,04167","ND","0,236","0,9","238,6","22,8","79,9"],
    [40954,"43524,08333","ND","0,157","0,8","246,9","22,7","80,2"],
    [40955,"43524,125","ND","0,209","0,8","226,7","22,6","81,1"],
    [40956,"43524,16667","21,5","0,157","1","157,7","22,6","82,4"],
    [40957,"43524,20833","31","0,602","1,2","185,8","22","85,7"],
    [40958,"43524,25","28,3","0,419","0,5","131","21,2","90,3"],
    [40959,"43524,29167","21,6","0,628","0,6","123,9","21,1","92,9"],
    [40960,"43524,33333","26,4","0,89","0,9","132,5","21,2","93,7"],
    [40961,"43524,375","29,1","0,812","1,4","138,6","21,5","93,5"],
    [40962,"43524,41667","29,7","0,602","1,4","170,3","22,9","88,7"],
    [40963,"43524,45833","34,2","0,864","1,4","134,7","24,9","76,7"],
    [40964,"43524,5","28,5","0,838","1,4","157,3","26,8","66,7"],
    [40965,"43524,54167","23,3","0,812","1,6","166,6","28,5","58,3"],
    [40966,"43524,58333","28,4","0,707","1,4","155,6","29,7","55,1"],
    [40967,"43524,625","28,1","0,864","1,4","134,6","30,7","52,2"],
    [40968,"43524,66667","32,6","1,335","1,3","138,2","31,5","49,3"],
    [40969,"43524,70833","37,8","1,074","1,9","255,6","30,7","51,1"],
    [40970,"43524,75","40","0,576","4","310,6","29,1","54,9"],
    [40971,"43524,79167","21,4","0,55","4,2","300,2","27,7","59"],
    [40972,"43524,83333","25,9","0,471","3,5","294,7","27,4","60"],
    [40973,"43524,875","21,9","1,126","1,2","189,6","27,4","59,3"],
    [40974,"43524,91667","41,5","1,074","1","160,6","26,8","65,1"],
    [40975,"43524,95833","75","0,602","0,9","244,2","25,1","74,2"],
    [40976,"43525","51,5","0,524","0,8","233","24,1","77,4"],
    [40977,"43525,04167","52,5","0,393","0,6","195,1","23,5","78,8"],
    [40978,"43525,08333","34,4","0,367","0,9","245,7","23,2","80,2"],
    [40979,"43525,125","32,6","0,262","0,6","181,8","23","80,9"],
    [40980,"43525,16667","29,8","0,576","0,6","107,5","22,6","81,5"],
    [40981,"43525,20833","34,7","0,419","0,8","221,6","21,9","84"],
    [40982,"43525,25","47,1","0,681","0,8","228","21,7","85,2"],
    [40983,"43525,29167","64,1","0,89","0,7","199,4","21,8","85,3"],
    [40984,"43525,33333","81","1,126","0,8","172","22,1","84,1"],
    [40985,"43525,375","74,1","1,047","0,7","143,2","22,7","82"],
    [40986,"43525,41667","85,7","0,943","1,2","132,5","23,1","84,3"],
    [40987,"43525,45833","52,3","0,995","0,9","146,5","24,3","79,1"],
    [40988,"43525,5","56,7","1,492","1,2","164","26,9","65,5"],
    [40989,"43525,54167","36,3","1,466","1,7","124,3","29,2","54,3"],
    [40990,"43525,58333","31,6","1,597","1,7","150,1","29,8","51,3"],
    [40991,"43525,625","33,4","1,1","2","231,3","30,5","49,8"],
    [40992,"43525,66667","46,6","0,655","5,2","310,7","28,7","56,1"],
    [40993,"43525,70833","18,2","0,681","5,3","303,7","27,4","58,1"],
    [40994,"43525,75","18","0,602","5,8","304,9","26,5","58,6"],
    [40995,"43525,79167","16,6","0,367","5,1","305,1","26,3","58"],
    [40996,"43525,83333","16,1","0,864","2","225,9","26,6","57"],
    [40997,"43525,875","28,5","1,362","0,5","164,6","25,9","60,1"],
    [40998,"43525,91667","41,4","1,074","0,9","210,9","25,4","65,1"],
    [40999,"43525,95833","74","0,838","0,5","178,8","24,1","72,3"],
    [41000,"43526","59,9","0,602","0,9","216,7","23,3","76,1"],
    [41001,"43526,04167","36,7","0,681","0,5","207,7","22,6","79"],
    [41002,"43526,08333","32,8","0,471","0,9","240,3","22","81,2"],
    [41003,"43526,125","25,9","0,524","0,3","149,5","22,2","80,6"],
    [41004,"43526,16667","33,6","0,681","0,6","149,1","22,5","78,8"],
    [41005,"43526,20833","52,9","0,785","0,7","230,7","22,1","81,5"],
    [41006,"43526,25","50,7","0,995","1,1","234,8","21,9","82,9"],
    [41007,"43526,29167","47,6","1,1","0,7","205,2","22,4","80,5"],
    [41008,"43526,33333","61","1,492","0,9","120,2","23","78,6"],
    [41009,"43526,375","73,3","1,231","0,8","72,6","23,7","76,7"],
    [41010,"43526,41667","70,3","1,702","1,2","92,4","24,5","73,8"],
    [41011,"43526,45833","82,1","2,095","1,2","145,8","25,8","68,3"],
    [41012,"43526,5","63,5","2,199","1,5","129,4","27,4","62,1"],
    [41013,"43526,54167","55,9","2,356","1,7","129,5","29","55,7"],
    [41014,"43526,58333","46,8","2,199","1,6","121,9","30,1","50,7"],
    [41015,"43526,625","40","2,226","1,7","123,1","30,4","50,3"],
    [41016,"43526,66667","43,1","1,231","1,8","251,1","30,5","50,7"],
    [41017,"43526,70833","42,8","0,89","2,8","280,2","28,2","60,6"],
    [41018,"43526,75","50,2","0,864","2,4","261,7","25,1","75,5"],
    [41019,"43526,79167","30,5","0,812","3,3","310,9","26,4","63,4"],
    [41020,"43526,83333","21,3","0,759","1,6","242,4","26,3","63,8"],
    [41021,"43526,875","36,5","0,785","0,5","161,5","25,1","71,6"],
    [41022,"43526,91667","58,2","0,89","0,8","226,7","23,9","77,8"],
    [41023,"43526,95833","68,1","0,733","0,8","234,3","23","80,9"],
    [41024,"43527","59,6","0,733","1","217,5","22,2","83,9"],
    [41025,"43527,04167","49","0,576","1,4","235,7","22,3","82,5"],
    [41026,"43527,08333","33,1","0,55","0,9","167","22,9","78,5"],
    [41027,"43527,125","36,8","0,602","0,7","176,6","22,4","81,3"],
    [41028,"43527,16667","45,3","0,707","1,2","227,6","21,2","85,1"],
    [41029,"43527,20833","42,2","0,628","1,3","245,6","21,2","85,1"],
    [41030,"43527,25","40,3","0,524","1,3","226,6","21,1","85,6"],
    [41031,"43527,29167","42,1","0,655","0,6","214,6","21","85"],
    [41032,"43527,33333","50,5","0,655","0,6","186,9","21,5","84,7"],
    [41033,"43527,375","46,1","0,785","0,9","99,9","24,4","75,2"],
    [41034,"43527,41667","59,1","1,231","1,3","106,9","26","69,9"],
    [41035,"43527,45833","50,2","2,199","1,2","153","26,6","66,4"],
    [41036,"43527,5","37,2","3,247","1,6","167,4","27,9","61,4"],
    [41037,"43527,54167","36","2,514","2,2","168","29,4","55,9"],
    [41038,"43527,58333","31,5","2,068","1,6","185,3","30,4","52"],
    [41039,"43527,625","34,3","0,89","4","296,7","29,7","53,2"],
    [41040,"43527,66667","20,2","0,55","5,5","303,6","27,9","57,4"],
    [41041,"43527,70833","17,2","0,55","5,7","306,7","27","58,9"],
    [41042,"43527,75","14,4","0,838","4","260,9","26,7","58"],
    [41043,"43527,79167","22,6","0,864","2","175","24,1","68,3"],
    [41044,"43527,83333","28,7","0,943","0,9","110,6","24,1","68,5"],
    [41045,"43527,875","30,3","1,074","0,9","136,4","23,4","75,7"],
    [41046,"43527,91667","37","0,916","0,7","135,1","22,5","79,1"],
    [41047,"43527,95833","29,5","0,628","0,6","198,1","22,2","82,8"],
    [41048,"43528","37,9","0,681","0,7","83,7","21,6","84,8"],
    [41049,"43528,04167","25,4","0,55","0,7","141,2","21,3","85,5"],
    [41050,"43528,08333","27,4","0,471","0,3","157,7","21,4","86,2"],
    [41051,"43528,125","30,8","0,34","0,7","237,2","21,5","87"],
    [41052,"43528,16667","25,7","0,367","0,7","224,4","21,5","87,3"],
    [41053,"43528,20833","27,9","1,571","0,6","191,5","21,4","87,5"],
    [41054,"43528,25","38,5","0,733","0,7","214,7","21","87,8"],
    [41055,"43528,29167","40,2","0,916","0,8","215,3","20,6","89,1"],
    [41056,"43528,33333","59,5","1,1","0,5","154","21,6","87,2"],
    [41057,"43528,375","60","1,204","0,9","103,5","23,9","77,4"],
    [41058,"43528,41667","46,9","1,335","1,3","91,6","25,7","68,6"],
    [41059,"43528,45833","55,5","1,309","1,5","145","27,4","61,1"],
    [41060,"43528,5","47","2,173","1,7","130,9","28,8","55,6"],
    [41061,"43528,54167","49,7","1,362","2","226,5","29,4","53,5"],
    [41062,"43528,58333","34,4","0,812","2,8","286,9","30","50,7"],
    [41063,"43528,625","15,1","0,733","3,2","296,1","30,5","49,2"],
    [41064,"43528,66667","14,6","0,55","4","304,7","30","48,9"],
    [41065,"43528,70833","18","0,471","4,2","300,7","28,8","50,7"],
    [41066,"43528,75","22,4","0,838","3,3","284,2","27,9","55,2"],
    [41067,"43528,79167","42,2","0,838","3,5","302,8","27,1","58,8"],
    [41068,"43528,83333","33,4","0,628","2","240,2","26,8","59,5"],
    [41069,"43528,875","29,8","0,655","3,6","309,4","26,2","62,7"],
    [41070,"43528,91667","20,5","0,628","1,8","214,6","26","64,3"],
    [41071,"43528,95833","31,3","0,838","0,8","195,1","25,5","69"],
    [41072,"43529","62,6","0,785","0,6","152,9","24,8","72,5"],
    [41073,"43529,04167","50,9","0,655","0,7","134,9","24,3","76"],
    [41074,"43529,08333","45,2","0,628","0,8","175,2","24","77,2"],
    [41075,"43529,125","45,8","0,602","0,7","178,8","23,3","81"],
    [41076,"43529,16667","40,7","0,445","0,7","149,9","23","81,8"],
    [41077,"43529,20833","42,3","0,838","1,1","166,9","22,9","83,1"],
    [41078,"43529,25","59,4","0,681","0,7","182,9","22,3","85,8"],
    [41079,"43529,29167","56,9","0,838","1","221,3","21,8","87,6"],
    [41080,"43529,33333","70,2","0,995","1,1","175,2","22,4","86"],
    [41081,"43529,375","66,9","0,969","1","111,2","23,4","82,5"],
    [41082,"43529,41667","51,5","1,074","1","112","25,2","75,3"],
    [41083,"43529,45833","49,3","1,414","0,9","163,2","26","71"],
    [41084,"43529,5","57,1","1,492","1","158,5","27,4","65"],
    [41085,"43529,54167","50,1","1,859","1,6","82,2","28","62,3"],
    [41086,"43529,58333","74,2","2,121","1,3","168,9","29","57,4"],
    [41087,"43529,625","65,3","1,99","1,3","213,4","29,9","53"],
    [41088,"43529,66667","74,3","1,702","1,8","243,1","30","53,5"],
    [41089,"43529,70833","57,7","0,733","4,5","322,7","29,7","54"],
    [41090,"43529,75","21,5","0,55","4,7","302,3","27,7","59,2"],
    [41091,"43529,79167","24,4","0,602","4,6","311,5","26,7","62,2"],
    [41092,"43529,83333","22,3","0,55","3,5","312,9","26,3","63,8"],
    [41093,"43529,875","16,9","0,916","0,8","162,9","26,5","63,3"],
    [41094,"43529,91667","60,7","1,074","0,5","159,6","25,3","69,4"],
    [41095,"43529,95833","73,3","0,733","0,5","141,1","24,4","75,2"],
    [41096,"43530","59,3","0,445","0,7","225,9","23,7","77,2"],
    [41097,"43530,04167","32,8","0,55","0,6","155,1","24","76,9"],
    [41098,"43530,08333","45","0,497","0,9","135","23,6","78"],
    [41099,"43530,125","36","0,497","0,4","187,9","22,9","81,6"],
    [41100,"43530,16667","40,9","0,393","0,9","238,9","22,5","83,7"],
    [41101,"43530,20833","52,5","0,524","0,6","230,5","22,6","83,7"],
    [41102,"43530,25","40,9","0,785","0,6","164,1","22,6","83,7"],
    [41103,"43530,29167","58,2","0,916","0,5","114,7","22,5","83,4"],
    [41104,"43530,33333","66,2","1,492","0,8","146,2","23,2","81,4"],
    [41105,"43530,375","82,6","1,676","1,1","193,6","24,5","76,7"],
    [41106,"43530,41667","77,5","2,618","1","170,2","26,1","69,8"],
    [41107,"43530,45833","51,1","2,906","1,3","150,8","27,9","62,5"],
    [41108,"43530,5","48","2,88","1,7","183","28,8","58,2"],
    [41109,"43530,54167","56,4","2,173","1,7","122,7","30,6","52,5"],
    [41110,"43530,58333","45","2,016","1,6","145,7","31,7","49,2"],
    [41111,"43530,625","55,2","0,995","4","306,5","31,5","50,7"],
    [41112,"43530,66667","47","0,497","5,4","314,8","29,6","56,2"],
    [41113,"43530,70833","21,9","0,497","6,3","298,5","28,5","56,4"],
    [41114,"43530,75","26,3","0,55","6","304,5","27,8","57,2"],
    [41115,"43530,79167","32,9","0,524","5,6","302","27,2","58,3"],
    [41116,"43530,83333","24","0,576","5,2","304","27,2","57"],
    [41117,"43530,875","28,3","0,55","3,2","290,9","27,1","57,7"],
    [41118,"43530,91667","24,9","0,916","1,3","186,6","26,4","65,2"],
    [41119,"43530,95833","57,5","0,785","0,5","169,8","25,2","71,2"],
    [41120,"43531","60,2","0,524","1","240,1","24","75,7"],
    [41121,"43531,04167","32","0,655","0,8","239,5","23,4","77,4"],
    [41122,"43531,08333","36,7","0,445","0,8","213,9","23,2","78,5"],
    [41123,"43531,125","32,5","0,419","0,5","197,3","23,3","77,2"],
    [41124,"43531,16667","24,4","0,367","0,5","215,6","23,4","78,6"],
    [41125,"43531,20833","33,3","0,916","0,7","231,4","23,4","78,9"],
    [41126,"43531,25","43,8","0,655","0,6","201,3","23,4","79,3"],
    [41127,"43531,29167","54,2","1,074","0,7","210,5","23,6","78,6"],
    [41128,"43531,33333","69,7","1,283","0,6","135,6","24,1","76,7"],
    [41129,"43531,375","75,6","2,147","1,1","153,7","25","74,1"],
    [41130,"43531,41667","85,2","2,828","1,1","129,3","26,5","68,5"],
    [41131,"43531,45833","56,1","2,723","1,3","127,3","27,7","64,2"],
    [41132,"43531,5","51,9","2,854","1,6","168,9","28,8","61,7"],
    [41133,"43531,54167","70,6","2,252","1,3","215,3","29,2","59,3"],
    [41134,"43531,58333","75,2","1,911","1,4","157,4","30,4","53,5"],
    [41135,"43531,625","47,1","0,838","2,8","288","31,2","49,5"],
    [41136,"43531,66667","18,4","0,471","4,1","318,2","30,6","50,3"],
    [41137,"43531,70833","17,9","0,733","3,3","247,3","29,4","54,4"],
    [41138,"43531,75","33,3","0,943","2","196,7","26,8","62,8"],
    [41139,"43531,79167","36,7","0,602","4,7","308,2","27,2","58,9"],
    [41140,"43531,83333","23,1","0,524","4,5","304,4","26,9","60,1"],
    [41141,"43531,875","20","0,681","2,9","231,1","26,7","62,7"],
    [41142,"43531,91667","48,2","1,78","1,5","201","25,1","73"],
    [41143,"43531,95833","47,9","1,231","1,2","212,9","25","72,2"],
    [41144,"43532","39,1","1,074","0,9","117,4","25,2","71,6"],
    [41145,"43532,04167","40","0,733","0,9","100,9","24,1","77,6"],
    [41146,"43532,08333","39","0,445","0,6","171,7","23,4","81,4"],
    [41147,"43532,125","35,3","0,524","0,5","207,4","23,3","82,3"],
    [41148,"43532,16667","31,3","0,419","0,7","150,4","23","82,1"],
    [41149,"43532,20833","32,2","1,021","0,8","143,5","22,6","83,7"],
    [41150,"43532,25","34,1","0,759","0,7","132","22,7","84,4"],
    [41151,"43532,29167","44,9","1,047","0,9","224,9","22,4","85"],
    [41152,"43532,33333","69,8","1,178","0,7","204,9","22,7","84,3"],
    [41153,"43532,375","82","1,676","1","115,8","24,2","78,7"],
    [41154,"43532,41667","65,3","1,833","1,2","123,7","26,2","69,6"],
    [41155,"43532,45833","45,6","2,409","1,5","141,4","28","61,5"],
    [41156,"43532,5","35,9","1,807","1,5","112,6","29,4","57,1"],
    [41157,"43532,54167","34,2","1,545","1,6","158","30,5","52,3"],
    [41158,"43532,58333","35","1,571","1,7","160,8","32","48,3"],
    [41159,"43532,625","47,4","1,623","2","162,1","32,4","46,7"],
    [41160,"43532,66667","53,9","0,943","2,6","220","32,5","47,9"],
    [41161,"43532,70833","52,4","0,55","4,3","310,9","29,8","56,2"],
    [41162,"43532,75","36,2","0,471","5,2","307,2","28,4","58,9"],
    [41163,"43532,79167","39,2","0,497","5,7","303,2","27,4","60,7"],
    [41164,"43532,83333","27,4","0,445","4,8","306,5","27,2","60,8"],
    [41165,"43532,875","25,3","0,471","3,1","307","27,5","59,2"],
    [41166,"43532,91667","22,8","0,812","1,1","170,6","27,1","63,1"],
    [41167,"43532,95833","61,9","0,864","0,6","116,4","26","69"],
    [41168,"43533","55,3","0,655","0,8","166,5","25,1","74"],
    [41169,"43533,04167","61,6","0,471","0,7","203,4","24,3","76,1"],
    [41170,"43533,08333","43,1","0,393","0,5","187,1","23,8","78,3"],
    [41171,"43533,125","39,5","0,367","0,4","181,3","23,2","80,2"],
    [41172,"43533,16667","44,3","0,419","0,6","148,6","23","81,1"],
    [41173,"43533,20833","47,9","0,497","0,6","187,3","23,1","81,2"],
    [41174,"43533,25","57","0,655","0,7","238,3","23,2","80,3"],
    [41175,"43533,29167","52,7","0,681","0,7","226,8","23","80,8"],
    [41176,"43533,33333","57,6","0,864","0,7","186,8","24,2","78,3"],
    [41177,"43533,375","94,4","2,226","1","144,3","25,1","75,5"],
    [41178,"43533,41667","109","4,085","1,5","119,1","26,8","68,8"],
    [41179,"43533,45833","95,2","6,232","1,9","125","28,5","62,3"],
    [41180,"43533,5","80,6","4,503","1,4","164,3","29,9","56,9"],
    [41181,"43533,54167","63,1","4,765","1,7","189,3","30,9","52,7"],
    [41182,"43533,58333","64,8","2,959","1,5","96,6","32,3","48,5"],
    [41183,"43533,625","60,1","2,618","1,7","132","33,1","45,5"],
    [41184,"43533,66667","55,6","1,623","3,6","260,9","32,7","48,3"],
    [41185,"43533,70833","63,2","0,655","5,1","302","30,5","53,3"],
    [41186,"43533,75","38,2","0,655","5,6","304,9","29,2","56,1"],
    [41187,"43533,79167","38,1","0,524","5,5","302","28,2","58,8"],
    [41188,"43533,83333","26,8","0,681","3,9","300,6","28,1","59"],
    [41189,"43533,875","26,8","0,838","1,6","217,3","28,1","59,7"],
    [41190,"43533,91667","43,3","0,969","1,1","224,7","27,2","65,5"],
    [41191,"43533,95833","61,2","0,969","0,6","200,3","26,3","69,4"],
    [41192,"43534","49,8","0,707","1,1","142,8","26,6","66,3"],
    [41193,"43534,04167","26,1","0,681","1,3","220,5","25,5","71,5"],
    [41194,"43534,08333","32,6","0,576","1,1","135,6","25,1","73,8"],
    [41195,"43534,125","37,1","0,471","0,4","116,8","24,5","77,4"],
    [41196,"43534,16667","38,9","0,471","0,9","226","23,9","78,7"],
    [41197,"43534,20833","29,7","0,367","0,6","200,6","23,8","79,5"],
    [41198,"43534,25","38,7","0,497","0,5","182,7","23,8","82,1"],
    [41199,"43534,29167","46,1","0,681","1,1","161,4","23,7","83,5"],
    [41200,"43534,33333","56,5","0,812","1","178,7","23,6","82,2"],
    [41201,"43534,375","44,8","1,047","1,1","160,2","23,9","80,1"],
    [41202,"43534,41667","42,2","1,571","0,8","133,5","24,7","75,7"],
    [41203,"43534,45833","30,8","2,514","1","92","26,9","66,9"],
    [41204,"43534,5","37,6","2,802","1,1","117,1","28,3","60,9"],
    [41205,"43534,54167","38,1","2,121","1,1","176,2","28,5","60,3"],
    [41206,"43534,58333","46,9","1,571","1,8","278,2","28,6","59,4"],
    [41207,"43534,625","29,2","0,707","3","319,9","28,8","55,9"],
    [41208,"43534,66667","9,9","0,707","2,3","311,1","29,1","54,8"],
    [41209,"43534,70833","11,4","0,602","3","326,5","28,5","56,6"],
    [41210,"43534,75","9,4","0,393","2,7","317,8","27,6","59"],
    [41211,"43534,79167","22,6","0,759","0,8","219,9","27,2","61,7"],
    [41212,"43534,83333","34,8","0,838","0,8","213,1","26,7","66,2"],
    [41213,"43534,875","46,1","0,995","1","218,8","26,2","67,4"],
    [41214,"43534,91667","32,9","0,681","1,3","189,4","25,8","68,6"],
    [41215,"43534,95833","41,3","0,497","0,8","187,8","24,9","78,1"],
    [41216,"43535","37","0,288","0,7","212,3","24,5","78,5"],
    [41217,"43535,04167","24,1","0,157","0,5","221,3","24,3","78,1"],
    [41218,"43535,08333","27,1","0,079","0,6","207,7","23,9","80,1"],
    [41219,"43535,125","27,6","0,262","1,5","166,5","23,6","81,1"],
    [41220,"43535,16667","25,3","0,157","1,4","171,8","22,9","83,2"],
    [41221,"43535,20833","17,7","0,079","0,9","162,8","22,6","84,4"],
    [41222,"43535,25","23,1","0,236","0,8","147,7","22,4","85"],
    [41223,"43535,29167","31,7","0,55","1,1","178,2","22,1","86"],
    [41224,"43535,33333","42,1","0,419","1,1","134,9","22,3","85,5"],
    [41225,"43535,375","49,6","ND","1,5","154,2","23,3","82,4"],
    [41226,"43535,41667","44,1","ND","1,4","127,6","25,1","74,3"],
    [41227,"43535,45833","38,5","1,44","1,2","141,6","26,1","69,7"],
    [41228,"43535,5","38,2","0,759","1,5","128,7","28","63,5"],
    [41229,"43535,54167","35,1","0,628","1,5","145,1","29,4","57"],
    [41230,"43535,58333","32,7","0,838","1,7","105,4","30,8","52,8"],
    [41231,"43535,625","46","0,759","1,8","122,8","31","51,9"],
    [41232,"43535,66667","42,5","0,655","4,1","286,8","30,2","54,2"],
    [41233,"43535,70833","34,6","0,55","3,6","311","30","53,3"],
    [41234,"43535,75","27,5","0,655","3,7","314","28,9","56,2"],
    [41235,"43535,79167","24,5","0,681","3,7","312","27,7","59,2"],
    [41236,"43535,83333","27,9","0,707","2,4","266,7","27,6","58,3"],
    [41237,"43535,875","32,6","0,759","2,1","222,3","27,2","59,2"],
    [41238,"43535,91667","31,6","0,733","1,7","193,4","26,8","61,7"],
    [41239,"43535,95833","41","0,655","0,8","167,9","25,4","69"],
    [41240,"43536","66,7","0,655","0,8","209,9","24,4","74,1"],
    [41241,"43536,04167","48,8","0,655","1","177,2","23,6","75,1"],
    [41242,"43536,08333","27,9","0,576","1,1","238,8","23,3","75,7"],
    [41243,"43536,125","30,7","0,55","0,7","222,1","23","77,6"],
    [41244,"43536,16667","26,5","0,445","0,9","216,7","23,1","77,9"],
    [41245,"43536,20833","28,2","0,576","0,6","156,5","23,6","78,7"],
    [41246,"43536,25","52,8","0,943","0,8","220","23,3","79,1"],
    [41247,"43536,29167","83,3","0,733","0,9","231,9","22,8","83,2"],
    [41248,"43536,33333","55,7","0,969","1","214","22,1","89,1"],
    [41249,"43536,375","34,2","0,864","1","205,3","22,1","90,9"],
    [41250,"43536,41667","31","0,759","0,7","123,4","22,7","90,5"],
    [41251,"43536,45833","21,6","0,707","1","154,2","23,4","83"],
    [41252,"43536,5","23,1","0,785","1,1","106,1","25","76,6"],
    [41253,"43536,54167","31,4","0,864","2,1","147,2","25,6","74,4"],
    [41254,"43536,58333","43,4","0,916","1,6","133,3","26,2","72,7"],
    [41255,"43536,625","32,6","0,864","1,4","120","27,3","67,8"],
    [41256,"43536,66667","46,8","0,969","1,6","146","27","69,1"],
    [41257,"43536,70833","57,1","0,864","1,2","181,2","26,8","69,8"],
    [41258,"43536,75","39,9","0,838","0,7","226,1","26,8","70,5"],
    [41259,"43536,79167","54,4","1,1","1,1","180,1","26,3","72,7"],
    [41260,"43536,83333","74,1","1,074","1,1","245,7","25","78,5"],
    [41261,"43536,875","78,4","1,204","1","225,7","24,2","81,7"],
    [41262,"43536,91667","66,4","1,021","1,2","247","23,3","83,6"],
    [41263,"43536,95833","48","0,995","1","238,1","22,9","84,1"],
    [41264,"43537","38,9","0,89","0,9","249,4","22,6","84,8"],
    [41265,"43537,04167","32","0,864","0,7","232,3","22,3","84,8"],
    [41266,"43537,08333","30","0,864","0,7","204,3","22,1","85,4"],
    [41267,"43537,125","28","0,838","0,4","162,7","21,7","86,7"],
    [41268,"43537,16667","41,9","0,681","0,8","238,1","21,6","87,3"],
    [41269,"43537,20833","27,7","0,785","0,6","209","21,9","86,6"],
    [41270,"43537,25","46,5","0,838","0,5","207,4","22,3","86,4"],
    [41271,"43537,29167","65,1","1,414","0,7","119,9","22,4","86,8"],
    [41272,"43537,33333","77,3","1,152","0,9","224,2","22,8","84,7"],
    [41273,"43537,375","69","1,728","0,7","115,7","23,7","82,8"],
    [41274,"43537,41667","119","1,938","1,1","147,6","25,8","76"],
    [41275,"43537,45833","120,1","2,199","1,4","117,9","27,8","66,9"],
    [41276,"43537,5","71,3","2,199","1,6","127,9","29,3","59,6"],
    [41277,"43537,54167","52,3","2,068","1,5","131,8","30,2","56,5"],
    [41278,"43537,58333","57,3","1,833","1,6","100","31,3","52,2"],
    [41279,"43537,625","70,5","1,545","3,3","273,6","31,3","51,1"],
    [41280,"43537,66667","21,7","0,969","4,2","310,6","30,9","50,6"],
    [41281,"43537,70833","16,4","0,969","5,9","301,9","29,4","55,6"],
    [41282,"43537,75","25,8","0,943","6,3","301,1","28,1","58,6"],
    [41283,"43537,79167","18,7","0,943","5,5","302,8","27,3","61,3"],
    [41284,"43537,83333","25,1","1,047","4,4","305,3","27,3","61,6"],
    [41285,"43537,875","19","1,074","2,3","271,5","27,5","61,1"],
    [41286,"43537,91667","30,3","1,204","1","214,7","26,9","65,8"],
    [41287,"43537,95833","50,7","1,571","0,6","118,2","26,1","69,4"],
    [41288,"43538","50,9","1,283","0,6","215,2","25,2","73,6"],
    [41289,"43538,04167","39,6","1,283","0,5","107,7","24,7","75,6"],
    [41290,"43538,08333","36,2","1,074","1","116,6","24,3","77,4"],
    [41291,"43538,125","39,2","0,969","0,9","175,5","23,9","79,3"],
    [41292,"43538,16667","35,9","1,152","2","253,2","23,5","81,1"],
    [41293,"43538,20833","ND","ND","ND","ND","ND","ND"],
    [41294,"43538,25","ND","ND","ND","ND","ND","ND"],
    [41295,"43538,29167","ND","1,335","1,5","192,6","21,2","94,1"],
    [41296,"43538,33333","ND","1,257","1,2","179,7","20,8","94,5"],
    [41297,"43538,375","ND","1,519","0,6","95,4","21,2","95,1"],
    [41298,"43538,41667","31,9","1,728","0,7","153","21,6","95,6"],
    [41299,"43538,45833","34,2","1,807","1,3","64,7","21,4","95,7"],
    [41300,"43538,5","23,5","1,65","1","76,1","22,2","95"],
    [41301,"43538,54167","43,6","1,859","1,4","140,3","23,5","89,9"],
    [41302,"43538,58333","53,6","1,833","1,1","186,3","24,6","82,2"],
    [41303,"43538,625","25","1,492","1,3","173","26,3","70,6"],
    [41304,"43538,66667","45,8","1,911","1,3","219,4","27,2","68,3"],
    [41305,"43538,70833","34,8","1,126","3,3","313,4","26,9","62,5"],
    [41306,"43538,75","10,1","1,257","2,3","278,6","26,2","65"],
    [41307,"43538,79167","20,6","1,152","2,9","317,6","25,4","64,6"],
    [41308,"43538,83333","12,4","1,126","1,4","253,3","25","65,2"],
    [41309,"43538,875","26,7","1,283","0,9","225,9","23,7","74,5"],
    [41310,"43538,91667","52","1,597","0,8","228,8","23,3","78,2"],
    [41311,"43538,95833","56,3","1,65","0,9","164","23,2","80,3"],
    [41312,"43539","61,4","1,597","0,8","242,5","22,9","81,3"],
    [41313,"43539,04167","37,2","1,466","0,7","204,8","22,2","84,5"],
    [41314,"43539,08333","25,7","1,335","0,8","190,1","21,8","85,3"],
    [41315,"43539,125","17,4","1,021","0,6","186,2","22","83,9"],
    [41316,"43539,16667","23,2","0,995","0,4","160,4","21,8","85,6"],
    [41317,"43539,20833","34,2","0,89","0,9","240,5","21,1","88"],
    [41318,"43539,25","29","1,597","0,8","234,6","20,8","87,8"],
    [41319,"43539,29167","50,5","1,388","0,4","198,8","21,1","86,7"],
    [41320,"43539,33333","79,5","1,571","0,9","237,5","21,7","85,5"],
    [41321,"43539,375","96,5","1,728","0,8","99,3","23,2","78,8"],
    [41322,"43539,41667","69,6","1,676","1,1","147,4","24,7","75,4"],
    [41323,"43539,45833","50,7","3,299","1,5","141,2","26,4","67,8"],
    [41324,"43539,5","40,8","2,566","1,2","117,5","27,6","63,8"],
    [41325,"43539,54167","40,2","2,278","1,4","147,7","28,3","60,6"],
    [41326,"43539,58333","36,6","2,042","1,4","189,5","29,7","55,5"],
    [41327,"43539,625","29,1","1,676","1,3","179,8","30,4","51,8"],
    [41328,"43539,66667","36","1,571","1,7","148,6","30,8","52,1"],
    [41329,"43539,70833","49,5","1,702","1,2","166,6","29,9","53,9"],
    [41330,"43539,75","45,4","1,231","2,7","303,9","28,9","56,8"],
    [41331,"43539,79167","35,4","1,231","4,4","304,2","27,2","60,7"],
    [41332,"43539,83333","22","1,074","4,9","294,5","26,7","62,4"],
    [41333,"43539,875","18,6","1,021","2,5","265,1","26,7","61,4"],
    [41334,"43539,91667","17,1","1,126","1,4","214,5","26,6","62,1"],
    [41335,"43539,95833","36,8","1,309","0,7","171","25,7","69,9"],
    [41336,"43540","61,3","1,152","0,7","158,1","25","73,4"],
    [41337,"43540,04167","50,9","1,257","0,5","126,6","24,2","78,4"],
    [41338,"43540,08333","50,8","1,074","0,5","164,2","23,6","80,4"],
    [41339,"43540,125","39","0,969","0,7","174,6","23,5","81,6"],
    [41340,"43540,16667","41,1","0,969","0,6","205,4","23,3","83,3"],
    [41341,"43540,20833","39,5","0,864","0,7","227,5","22,7","85,2"],
    [41342,"43540,25","43,7","0,943","0,8","218,8","22,6","85,6"],
    [41343,"43540,29167","43,4","1,1","0,6","219,2","22,9","84,6"],
    [41344,"43540,33333","60,4","1,257","0,6","250,3","23,6","82,6"],
    [41345,"43540,375","71,3","1,519","1","112,8","24,8","77,8"],
    [41346,"43540,41667","107,5","1,964","1,2","125,4","26,6","69,2"],
    [41347,"43540,45833","59,5","2,461","1,6","140,9","28,1","62,4"],
    [41348,"43540,5","41,4","2,147","1,3","131,1","29,5","57,6"],
    [41349,"43540,54167","44,9","2,173","1,7","105,2","30,8","52,6"],
    [41350,"43540,58333","51","2,042","1,8","142,4","32,3","47,8"],
    [41351,"43540,625","71,2","1,545","3,5","297,2","31,8","50,3"],
    [41352,"43540,66667","37,8","1,074","4,7","302,5","31,3","49,5"],
    [41353,"43540,70833","19,8","0,995","5,4","304,1","30","52,9"],
    [41354,"43540,75","24,8","1,021","5,7","304,1","28,4","58,2"],
    [41355,"43540,79167","23,7","1,074","4,9","300,3","27,9","59,2"],
    [41356,"43540,83333","18,7","0,995","3,1","289,9","28","58,2"],
    [41357,"43540,875","23,8","1,178","1,6","232,7","27,6","61,1"],
    [41358,"43540,91667","44,6","1,335","1,2","189,7","27","63,8"],
    [41359,"43540,95833","39,8","1,178","0,8","190,8","26,6","66,5"],
    [41360,"43541","53,6","1,204","0,8","214,4","25,5","72,7"],
    [41361,"43541,04167","62,1","1,126","0,8","231,1","25,3","74,3"],
    [41362,"43541,08333","45,9","0,969","1","106","25,1","74,9"],
    [41363,"43541,125","43,2","1,126","0,6","140,9","24,5","78"],
    [41364,"43541,16667","43,6","0,916","1","170,8","24","80,2"],
    [41365,"43541,20833","25,7","0,916","0,9","194,5","24,3","77"],
    [41366,"43541,25","35,1","0,89","1","215,4","24,3","78,3"],
    [41367,"43541,29167","40,4","1,178","0,8","111,2","23,9","82,8"],
    [41368,"43541,33333","61,9","1,204","0,7","113,2","23,9","85,1"],
    [41369,"43541,375","58,2","1,021","1","233,1","24,4","81,6"],
    [41370,"43541,41667","53,3","1,283","0,7","205,6","25,4","76,1"],
    [41371,"43541,45833","47,6","1,78","1,3","94,1","27,1","69,2"],
    [41372,"43541,5","59,8","2,068","1,3","125,8","28,2","64,3"],
    [41373,"43541,54167","59","2,644","1,6","136,3","29,5","59,2"],
    [41374,"43541,58333","49,1","2,906","1,8","138,8","31,1","52,2"],
    [41375,"43541,625","45,2","2,592","1,6","152,5","31,4","50"],
    [41376,"43541,66667","44,9","1,78","1,8","201,9","31,1","52,2"],
    [41377,"43541,70833","45,3","1,152","4,3","316","29","58,7"],
    [41378,"43541,75","25,7","1,178","5","309,5","27,8","60,4"],
    [41379,"43541,79167","23,2","0,995","5,2","306","26,9","62"],
    [41380,"43541,83333","24,3","1,1","4,1","303,4","26,9","61,6"],
    [41381,"43541,875","17,2","1,074","1,9","231,6","27,1","60,6"],
    [41382,"43541,91667","28,8","1,388","0,5","157,1","26,3","65,5"],
    [41383,"43541,95833","65,1","1,309","0,8","234,7","25,6","70,1"],
    [41384,"43542","52,8","1,178","0,5","190,4","25,1","73,8"],
    [41385,"43542,04167","46,1","1,178","0,5","139,6","24,6","77"],
    [41386,"43542,08333","46,9","1,021","0,5","176","24","80,5"],
    [41387,"43542,125","34,5","0,943","0,6","200","23,3","83,3"],
    [41388,"43542,16667","35,2","0,838","0,9","235","22,8","84,2"],
    [41389,"43542,20833","28,1","0,916","0,8","228,8","22,9","83,2"],
    [41390,"43542,25","38,1","1,257","0,5","190,2","23,2","82,5"],
    [41391,"43542,29167","61,3","1,44","0,5","133","23,5","81,6"],
    [41392,"43542,33333","76,2","1,545","0,9","212,2","23,5","82"],
    [41393,"43542,375","80,6","1,728","1,4","207,6","24,7","76,6"],
    [41394,"43542,41667","64","2,88","1,6","163,4","27,2","66,1"],
    [41395,"43542,45833","41,1","3,273","1,5","133,6","28,7","60,7"],
    [41396,"43542,5","42","2,828","1,7","136,6","29,5","58,2"],
    [41397,"43542,54167","55,8","1,859","3","248,2","29,3","57"],
    [41398,"43542,58333","27,7","1,335","5,3","323","29,6","54,3"],
    [41399,"43542,625","4,5","1,047","5,8","319,7","29,1","55,2"],
    [41400,"43542,66667","12,1","1,047","6,4","306,4","28,2","56,5"],
    [41401,"43542,70833","15,3","0,89","5,9","309","26,9","59,9"],
    [41402,"43542,75","19,3","1,047","4,5","263,1","26,7","61"],
    [41403,"43542,79167","43,8","1,362","2","258","25,4","69"],
    [41404,"43542,83333","34,5","1,231","1,7","263,5","24,8","70,7"],
    [41405,"43542,875","53","1,178","1,9","230,9","23","85"],
    [41406,"43542,91667","23,8","1,021","1,2","236,3","22,6","86,5"],
    [41407,"43542,95833","14,4","1,074","1,1","220,5","22,3","89,1"],
    [41408,"43543","29,3","0,89","0,7","202,9","21,9","91,1"],
    [41409,"43543,04167","14,4","0,838","0,9","223,7","21,8","92"],
    [41410,"43543,08333","8,9","0,681","1","233,3","21,6","92,5"],
    [41411,"43543,125","5,6","0,759","0,6","224,3","21,4","92,4"],
    [41412,"43543,16667","14,1","0,916","0,5","217,9","21,3","93,4"],
    [41413,"43543,20833","16,3","0,916","0,9","221,8","21,2","94,1"],
    [41414,"43543,25","14,6","1,021","0,5","175,8","21,5","94,2"],
    [41415,"43543,29167","25,1","1,309","0,5","214,1","21,5","94,5"],
    [41416,"43543,33333","40,1","1,126","1","225,3","21,5","94,3"],
    [41417,"43543,375","42,6","1,178","0,7","124,8","22,1","92,8"],
    [41418,"43543,41667","49,6","1,204","1","99,7","22","91,3"],
    [41419,"43543,45833","30,2","1,204","1","157,1","22,4","88"],
    [41420,"43543,5","28,4","1,178","2,1","89,9","21,7","87,3"],
    [41421,"43543,54167","19,5","1,676","1,6","59,9","20,8","91,9"],
    [41422,"43543,58333","23,4","2,618","2,8","97,5","20,6","91,8"],
    [41423,"43543,625","7,3","2,985","1,6","152,6","22","86,7"],
    [41424,"43543,66667","31,3","2,959","1,3","202,6","22,4","83,5"],
    [41425,"43543,70833","29,7","2,068","1,6","174,5","22,1","84,1"],
    [41426,"43543,75","29,3","1,65","1,4","180,6","21,8","85"],
    [41427,"43543,79167","27,5","1,492","0,9","188,3","21,6","85,9"],
    [41428,"43543,83333","36,3","1,309","0,3","122,7","21,7","85,5"],
    [41429,"43543,875","32","1,362","0,4","189","21,6","86,6"],
    [41430,"43543,91667","52,2","1,231","0,9","237,1","21,2","89,3"],
    [41431,"43543,95833","39","1,152","0,9","159,1","20,9","89,9"],
    [41432,"43544","33,4","1,204","0,5","101,8","20,5","91"],
    [41433,"43544,04167","23,2","1,152","0,4","149,7","20,6","92,4"],
    [41434,"43544,08333","27,7","1,126","0,3","107,9","20,5","93,2"],
    [41435,"43544,125","27,4","1,1","0,8","61,2","20,5","93,4"],
    [41436,"43544,16667","24,2","0,916","0,7","143,3","20,3","93,3"],
    [41437,"43544,20833","22,8","1,204","0,3","165,3","20,3","93,7"],
    [41438,"43544,25","36,3","1,204","0,3","144,9","20,5","93,8"],
    [41439,"43544,29167","49,4","1,414","0,6","139,2","20,6","93,2"],
    [41440,"43544,33333","64,4","1,859","0,7","77,7","20,9","91,8"],
    [41441,"43544,375","100,2","2,435","0,9","121,7","21,8","88,3"],
    [41442,"43544,41667","89","4,085","1","158,6","23,3","80,3"],
    [41443,"43544,45833","75,3","4,399","1,6","124,8","25,2","70,4"],
    [41444,"43544,5","62,8","3,639","1,2","150,8","26,4","65,5"],
    [41445,"43544,54167","44,9","2,906","1,5","83,1","27,5","61,5"],
    [41446,"43544,58333","42,9","2,828","1,3","117,5","28,7","57,2"],
    [41447,"43544,625","38,5","2,592","1,3","168,8","29,2","54,8"],
    [41448,"43544,66667","49,7","2,775","1,1","223,6","29,2","55"],
    [41449,"43544,70833","58,3","1,859","2,8","325,5","28,1","61,5"],
    [41450,"43544,75","46,2","1,492","3","324,1","27,1","64,3"],
    [41451,"43544,79167","18","1,466","3,7","326","26,4","65,5"],
    [41452,"43544,83333","20,9","1,283","2,8","304,2","26,3","64,8"],
    [41453,"43544,875","21,2","1,466","1,4","217,3","25,7","68,2"],
    [41454,"43544,91667","49","1,571","1","253,8","24,5","73,4"],
    [41455,"43544,95833","53,1","1,545","0,6","182,8","23,5","77,8"],
    [41456,"43545","45,1","1,388","0,7","229,3","22,8","80,4"],
    [41457,"43545,04167","33,7","1,362","0,8","242","22,4","82,5"],
    [41458,"43545,08333","30,8","1,231","1","241,3","22","84,1"],
    [41459,"43545,125","31,7","1,021","0,5","193,9","22,2","84,3"],
    [41460,"43545,16667","36,8","1,1","0,5","211,7","21,8","85,7"],
    [41461,"43545,20833","30,9","1,021","0,8","230,6","21,2","87,1"],
    [41462,"43545,25","33,3","1,178","0,8","240,6","20,9","87,5"],
    [41463,"43545,29167","51,2","1,466","0,7","223,1","21","88,1"],
    [41464,"43545,33333","75,3","1,911","0,7","197,1","22,4","85"],
    [41465,"43545,375","91,8","1,911","0,7","248,6","23,9","79"],
    [41466,"43545,41667","91","2,199","1,2","135,6","25,7","71,4"],
    [41467,"43545,45833","78","2,933","1,4","132,5","26,8","68,1"],
    [41468,"43545,5","76,1","2,514","1,7","202,2","27,9","63"],
    [41469,"43545,54167","49,5","1,545","3","312,6","26,1","66,7"],
    [41470,"43545,58333","19,3","1,388","2,8","264,2","27,7","63"],
    [41471,"43545,625","5,7","1,335","3,4","265,1","29,6","54,8"],
    [41472,"43545,66667","10,5","0,995","3,5","312,2","29,7","52"],
    [41473,"43545,70833","7,6","1,231","3,2","223,8","28,2","57,1"],
    [41474,"43545,75","ND","ND","ND","ND","ND","ND"],
    [41475,"43545,79167","ND","ND","ND","ND","ND","ND"],
    [41476,"43545,83333","ND","ND","ND","ND","ND","ND"],
    [41477,"43545,875","ND","ND","ND","ND","ND","ND"],
    [41478,"43545,91667","ND","ND","ND","ND","ND","ND"],
    [41479,"43545,95833","ND","ND","ND","ND","ND","ND"],
    [41480,"43546","ND","ND","ND","ND","ND","ND"],
    [41481,"43546,04167","ND","ND","ND","ND","ND","ND"],
    [41482,"43546,08333","ND","ND","ND","ND","ND","ND"],
    [41483,"43546,125","ND","ND","ND","ND","ND","ND"],
    [41484,"43546,16667","ND","ND","ND","ND","ND","ND"],
    [41485,"43546,20833","ND","ND","ND","ND","ND","ND"],
    [41486,"43546,25","ND","ND","ND","ND","ND","ND"],
    [41487,"43546,29167","ND","ND","ND","ND","ND","ND"],
    [41488,"43546,33333","ND","ND","ND","ND","ND","ND"],
    [41489,"43546,375","ND","ND","ND","ND","ND","ND"],
    [41490,"43546,41667","ND","ND","ND","ND","ND","ND"],
    [41491,"43546,45833","ND","ND","ND","ND","ND","ND"],
    [41492,"43546,5","ND","ND","ND","ND","ND","ND"],
    [41493,"43546,54167","ND","ND","ND","ND","ND","ND"],
    [41494,"43546,58333","ND","ND","ND","ND","ND","ND"],
    [41495,"43546,625","ND","ND","ND","ND","ND","ND"],
    [41496,"43546,66667","ND","ND","ND","ND","ND","ND"],
    [41497,"43546,70833","ND","ND","ND","ND","ND","ND"],
    [41498,"43546,75","ND","ND","ND","ND","ND","ND"],
    [41499,"43546,79167","ND","ND","ND","ND","ND","ND"],
    [41500,"43546,83333","ND","ND","ND","ND","ND","ND"],
    [41501,"43546,875","ND","ND","ND","ND","ND","ND"],
    [41502,"43546,91667","ND","ND","ND","ND","ND","ND"],
    [41503,"43546,95833","ND","ND","ND","ND","ND","ND"],
    [41504,"43547","ND","ND","ND","ND","ND","ND"],
    [41505,"43547,04167","ND","ND","ND","ND","ND","ND"],
    [41506,"43547,08333","ND","ND","ND","ND","ND","ND"],
    [41507,"43547,125","ND","ND","ND","ND","ND","ND"],
    [41508,"43547,16667","ND","ND","ND","ND","ND","ND"],
    [41509,"43547,20833","ND","ND","ND","ND","ND","ND"],
    [41510,"43547,25","ND","ND","ND","ND","ND","ND"],
    [41511,"43547,29167","ND","ND","ND","ND","ND","ND"],
    [41512,"43547,33333","ND","ND","ND","ND","ND","ND"],
    [41513,"43547,375","ND","ND","ND","ND","ND","ND"],
    [41514,"43547,41667","ND","ND","ND","ND","ND","ND"],
    [41515,"43547,45833","65,2","1,597","1","129,9","25","77"],
    [41516,"43547,5","51,3","1,754","1,1","188,6","27,3","64,5"],
    [41517,"43547,54167","42,7","1,754","1,3","127,8","28,9","57,7"],
    [41518,"43547,58333","56,7","1,702","1,5","115,4","30,1","54"],
    [41519,"43547,625","69,4","1,807","1,4","94","30,5","52,8"],
    [41520,"43547,66667","51,1","2,33","1,8","155,9","30,3","51,3"],
    [41521,"43547,70833","57,3","1,676","2,7","280,8","27,9","61,3"],
    [41522,"43547,75","39,3","1,126","3,2","312","27","63,4"],
    [41523,"43547,79167","28","1,021","2,8","303,3","26,4","65,8"],
    [41524,"43547,83333","21,3","1,204","1,1","193,8","26,1","68,4"],
    [41525,"43547,875","54,3","1,047","0,9","199,2","25,4","73,3"],
    [41526,"43547,91667","75,4","1,126","0,8","184,3","24,8","76,2"],
    [41527,"43547,95833","59,1","1,257","0,7","233,6","24,2","79,1"],
    [41528,"43548","69","1,126","0,7","219","23,4","82,4"],
    [41529,"43548,04167","47,5","1,074","0,8","206,8","22,9","83,8"],
    [41530,"43548,08333","36,4","0,812","0,7","223,2","22,8","83,8"],
    [41531,"43548,125","40,3","0,785","0,8","238,4","22,6","85"],
    [41532,"43548,16667","40,4","0,785","0,5","184,9","22,5","85,7"],
    [41533,"43548,20833","41,3","0,812","0,4","145","22,2","86,2"],
    [41534,"43548,25","38,2","0,655","0,8","224","22","87,2"],
    [41535,"43548,29167","37,1","0,785","0,5","205","22","87,3"],
    [41536,"43548,33333","48,8","0,943","0,6","200,6","22,6","85,8"],
    [41537,"43548,375","56,1","1,074","0,7","180,5","23,6","81,5"],
    [41538,"43548,41667","64,7","1,257","1","150,9","24,5","77,4"],
    [41539,"43548,45833","79,1","1,44","1,5","86,3","24,4","80,5"],
    [41540,"43548,5","59,4","1,257","1,1","54,7","23,4","85,7"],
    [41541,"43548,54167","21,1","1,257","1","63,6","23,6","86,6"],
    [41542,"43548,58333","47,9","1,519","1,4","72,6","24,2","84,2"],
    [41543,"43548,625","43,1","1,283","1","119,4","24,8","78,5"],
    [41544,"43548,66667","33,3","1,597","0,7","90,9","25,9","72,1"],
    [41545,"43548,70833","44,5","1,623","0,5","155,7","26","66,8"],
    [41546,"43548,75","39","1,466","1","258,6","26","69,3"],
    [41547,"43548,79167","71,1","1,152","0,9","238,4","24,7","78,3"],
    [41548,"43548,83333","76,6","1,362","0,7","201,2","23,1","82,5"],
    [41549,"43548,875","49,3","1,126","1,2","238,5","22,4","83,8"],
    [41550,"43548,91667","47,1","1,178","1,2","235,1","22,6","82,9"],
    [41551,"43548,95833","49,1","1,204","0,8","226,1","22,2","83,3"],
    [41552,"43549","42,7","1,047","0,9","236,4","21,7","83,2"],
    [41553,"43549,04167","33,1","1,047","0,5","209,3","21,3","85"],
    [41554,"43549,08333","38,4","1,074","0,4","145,2","20,9","87,5"],
    [41555,"43549,125","37,7","1,021","0,7","205,5","20,3","89,4"],
    [41556,"43549,16667","27,9","0,969","0,7","242,6","20,4","89,3"],
    [41557,"43549,20833","40,7","0,916","0,7","212,2","20,8","88,3"],
    [41558,"43549,25","34,2","1,047","0,5","218,8","20,8","86,6"],
    [41559,"43549,29167","35","1,074","0,3","133,7","20,9","86,1"],
    [41560,"43549,33333","54,2","1,178","0,5","89,9","21,6","85,4"],
    [41561,"43549,375","56,7","1,283","0,9","78,7","22,5","83,3"],
    [41562,"43549,41667","79,1","1,257","0,7","121,6","23,7","81,1"],
    [41563,"43549,45833","70,9","1,597","1,2","115,2","26,3","69,5"],
    [41564,"43549,5","56,8","2,252","1,6","138,8","27,4","63,9"],
    [41565,"43549,54167","40,7","2,121","1,2","126,5","28,8","58,3"],
    [41566,"43549,58333","46,7","1,99","1,4","118,8","29,4","55,9"],
    [41567,"43549,625","46,7","3,482","1,4","136,3","29,6","55,5"],
    [41568,"43549,66667","48,4","2,042","2,3","297,5","29,9","54,9"],
    [41569,"43549,70833","21,7","1,204","3,6","315,8","29,6","54,9"],
    [41570,"43549,75","4,8","1,231","3,8","301","28,7","56,1"],
    [41571,"43549,79167","14,1","0,995","4,5","297,8","27,4","59,5"],
    [41572,"43549,83333","14,3","1,152","2,3","288,6","27","61,2"],
    [41573,"43549,875","13,5","1,126","1,6","230,6","26,7","62"],
    [41574,"43549,91667","18,9","1,257","1","146,2","26","68,3"],
    [41575,"43549,95833","48,8","1,1","0,7","231,2","25,1","72,9"],
    [41576,"43550","34,7","1,021","0,8","225,8","24,3","76,4"],
    [41577,"43550,04167","29","0,943","0,9","227,7","23,7","77,8"],
    [41578,"43550,08333","22,3","0,969","0,5","132","23,1","81,1"],
    [41579,"43550,125","28,2","0,759","0,7","246","22,7","82,9"],
    [41580,"43550,16667","21,1","0,785","0,5","153,3","22,8","83,9"],
    [41581,"43550,20833","27,1","1,047","0,8","137,2","22,9","83,3"],
    [41582,"43550,25","40","1,388","0,7","166,9","22,6","84,8"],
    [41583,"43550,29167","60,4","1,44","0,7","231,1","21,9","86,9"],
    [41584,"43550,33333","76,3","1,78","0,9","180,1","22,7","85,7"],
    [41585,"43550,375","82,7","1,807","1,1","62,8","24,4","79,3"],
    [41586,"43550,41667","88,9","1,964","1,3","112,7","25,9","71,9"],
    [41587,"43550,45833","55,1","2,959","1,4","124,3","27,9","62,1"],
    [41588,"43550,5","38,3","3,325","1,8","145,3","29,4","57,4"],
    [41589,"43550,54167","47,9","2,749","1,7","168,3","30,3","54,3"],
    [41590,"43550,58333","48,8","2,514","1,8","182,3","30,9","51,6"],
    [41591,"43550,625","56,7","1,362","3,9","302,8","28,7","57,9"],
    [41592,"43550,66667","22","1,126","4,8","314","28,3","59,5"],
    [41593,"43550,70833","21,8","0,969","5,5","304,5","27,6","60,4"],
    [41594,"43550,75","22,3","1,1","6","303,4","26,7","62,8"],
    [41595,"43550,79167","14,5","1,126","5,3","305,3","26,4","63"],
    [41596,"43550,83333","12,8","1,074","3,3","310,8","26,5","61,5"],
    [41597,"43550,875","15,1","1,021","2,8","271,2","26","63,6"],
    [41598,"43550,91667","20,4","1,309","0,9","142,2","25,3","71,3"],
    [41599,"43550,95833","75,9","1,283","0,6","196,1","24,4","76"],
    [41600,"43551","62,7","1,021","1","243,5","23,7","79,4"],
    [41601,"43551,04167","40,8","0,864","0,8","194,9","23,5","80,6"],
    [41602,"43551,08333","17,8","0,916","0,7","113,8","24","78,1"],
    [41603,"43551,125","40","0,916","0,5","166,5","23,4","82,5"],
    [41604,"43551,16667","35","0,812","0,6","221,1","22,7","85,3"],
    [41605,"43551,20833","24","0,838","0,6","231,6","22","86,2"],
    [41606,"43551,25","32,8","1,178","1,1","214,4","21,8","87"],
    [41607,"43551,29167","46,6","1,519","0,6","232,2","22,5","85,6"],
    [41608,"43551,33333","73,3","1,597","0,6","171,2","23,2","82,9"],
    [41609,"43551,375","67,3","2,147","0,9","177,6","24,8","77,4"],
    [41610,"43551,41667","62,1","4,713","2","141,5","26,6","69,4"],
    [41611,"43551,45833","55,5","4,085","1,7","142,1","28,1","64,1"],
    [41612,"43551,5","56,1","4,608","1,9","148,6","29,4","58,7"],
    [41613,"43551,54167","57,3","3,247","1,5","133,2","30,1","55,6"],
    [41614,"43551,58333","35,8","2,409","1,2","195,3","31","51,2"],
    [41615,"43551,625","36,9","1,833","2,6","236,1","32","49,7"],
    [41616,"43551,66667","54,6","1,178","4,6","314,4","30,5","54,5"],
    [41617,"43551,70833","29,1","1,021","5,3","304,8","29,1","57,3"],
    [41618,"43551,75","26,1","1,152","5,9","304,2","27,8","60,2"],
    [41619,"43551,79167","26","1,152","5","307,5","27,5","60,2"],
    [41620,"43551,83333","27","1,204","4,8","309,9","27,5","58,9"],
    [41621,"43551,875","28,1","1,414","3,2","294,3","27,5","59,3"],
    [41622,"43551,91667","28,5","1,597","1,3","158,2","26,8","65,2"],
    [41623,"43551,95833","76,2","1,309","0,8","188,5","25,4","73"],
    [41624,"43552","75,6","1,178","0,8","237","24,5","75,9"],
    [41625,"43552,04167","43,1","1,021","0,5","185,8","24,2","76,9"],
    [41626,"43552,08333","41,4","0,943","0,5","185","24","78,4"],
    [41627,"43552,125","47,5","0,969","0,7","171,4","23,6","79,8"],
    [41628,"43552,16667","35,5","0,916","0,7","219,7","23,6","80,3"],
    [41629,"43552,20833","39,3","1,074","0,4","166,5","23,5","81,7"],
    [41630,"43552,25","47,2","1,231","0,5","144,2","23,6","81,8"],
    [41631,"43552,29167","56,9","1,702","0,9","133","23,7","81,9"],
    [41632,"43552,33333","90,3","ND","1,1","133,8","23,6","82,4"],
    [41633,"43552,375","54","ND","0,8","126","24","82,2"],
    [41634,"43552,41667","ND","2,88","1,3","126,2","25,6","76,8"],
    [41635,"43552,45833","ND","2,618","1,1","154,2","27,2","67,7"],
    [41636,"43552,5","ND","2,54","1,2","150,5","29,1","59,8"],
    [41637,"43552,54167","ND","2,199","1,7","140,5","30,4","55,7"],
    [41638,"43552,58333","56,1","1,964","2,5","274,4","30,4","55,7"],
    [41639,"43552,625","45,4","1,231","5,2","316,4","30,1","54,2"],
    [41640,"43552,66667","19,7","0,995","5,8","312,9","29,2","55,8"],
    [41641,"43552,70833","17,7","0,916","6,2","318,9","27,5","60,8"],
    [41642,"43552,75","18,1","1,283","3,9","251,3","26,9","62,7"],
    [41643,"43552,79167","28,8","1,362","3,4","284","26,6","63,3"],
    [41644,"43552,83333","22,1","1,283","2","231,6","25,4","69,6"],
    [41645,"43552,875","37,8","1,335","1,1","180,2","23,6","82,7"],
    [41646,"43552,91667","37,5","1,231","1","231,2","23,6","82,9"],
    [41647,"43552,95833","48,2","1,074","1","204,5","23,8","82,3"],
    [41648,"43553","34,9","1,335","1,2","132,7","23,2","84,7"],
    [41649,"43553,04167","41,1","1,074","0,6","204,9","22,9","87,2"],
    [41650,"43553,08333","35,2","1,047","0,4","123,1","22,6","90,7"],
    [41651,"43553,125","25,5","0,995","0,7","164,5","22,3","91,8"],
    [41652,"43553,16667","14,8","1,047","0,8","202,4","22","92,6"],
    [41653,"43553,20833","14,1","0,995","0,7","163,5","21,8","93,2"],
    [41654,"43553,25","16,9","1,1","0,6","90,6","21,8","93,6"],
    [41655,"43553,29167","18,3","1,362","1,2","90,9","21,3","94,3"],
    [41656,"43553,33333","18,1","1,754","1,2","60,4","20,8","95,4"],
    [41657,"43553,375","20,2","1,99","0,8","50,6","20,5","96"],
    [41658,"43553,41667","21","1,807","0,9","84,5","20,6","96,3"],
    [41659,"43553,45833","15","1,414","1,3","140,4","20,6","96"],
    [41660,"43553,5","8,7","1,362","1,5","160,5","20,8","95,4"],
    [41661,"43553,54167","10,8","1,283","0,8","159,2","21,8","94,4"],
    [41662,"43553,58333","4,3","1,362","0,8","151,3","23,3","88,6"],
    [41663,"43553,625","15,4","1,283","1","181,9","24,6","75"],
    [41664,"43553,66667","18,9","1,204","1,3","176,3","25,9","67,4"],
    [41665,"43553,70833","26,2","1,231","1,6","186,7","25,9","68,3"],
    [41666,"43553,75","32,2","1,126","1,1","191,9","25,4","71,8"],
    [41667,"43553,79167","32,8","1,362","1,1","207,3","24,6","76,2"],
    [41668,"43553,83333","46","1,257","0,9","236","23,4","84,2"],
    [41669,"43553,875","50,7","1,362","0,8","232,7","22,9","85,1"],
    [41670,"43553,91667","136,9","1,126","0,7","218,5","22,5","85,4"],
    [41671,"43553,95833","40,9","1,178","1","243,9","22","85,1"],
    [41672,"43554","30","1,231","0,7","223,9","21,8","85,6"],
    [41673,"43554,04167","38,2","1,126","0,4","164,2","21,7","85,9"],
    [41674,"43554,08333","26,1","1,126","0,5","196,3","21,4","87,2"],
    [41675,"43554,125","28,2","1,074","0,3","165,1","21,3","88,7"],
    [41676,"43554,16667","31,3","1,047","0,5","179,1","21,1","91"],
    [41677,"43554,20833","27,4","1,152","0,7","224,3","20,6","92,6"],
    [41678,"43554,25","28,4","0,969","0,6","207,7","20,2","92,9"],
    [41679,"43554,29167","27,6","1,362","0,7","227,1","20,2","92,8"],
    [41680,"43554,33333","45,2","1,78","0,4","121,1","21,2","91,8"],
    [41681,"43554,375","66,7","1,492","0,7","170,9","22,1","87,9"],
    [41682,"43554,41667","50,4","2,068","0,8","109,7","24,1","78,1"],
    [41683,"43554,45833","68,2","2,618","1","143,6","25,6","71,4"],
    [41684,"43554,5","56,5","3,011","1,3","169,4","26,9","65,6"],
    [41685,"43554,54167","40,1","2,514","1,3","158,6","28,2","60,7"],
    [41686,"43554,58333","38,3","2,592","1,7","105,4","28,2","62,5"],
    [41687,"43554,625","46,4","2,383","1,3","121,1","28,5","62,2"],
    [41688,"43554,66667","50,5","1,99","1","155,6","29,1","60,8"],
    [41689,"43554,70833","60,6","1,911","0,9","219,9","29,1","60,8"],
    [41690,"43554,75","59,2","1,65","1,2","233,4","28,5","62,4"],
    [41691,"43554,79167","58,5","1,362","2,9","315","26,9","65,1"],
    [41692,"43554,83333","21,4","1,388","1,9","249,1","26,3","66,6"],
    [41693,"43554,875","25,7","1,231","1,6","228,4","25,9","68,3"],
    [41694,"43554,91667","33,4","1,335","0,8","213,6","25,4","72,3"],
    [41695,"43554,95833","47,6","1,519","0,7","195,8","25,1","74,6"],
    [41696,"43555","50","1,414","0,3","131,4","24,5","78,6"],
    [41697,"43555,04167","69,1","1,178","1,2","216,3","23,4","82,9"],
    [41698,"43555,08333","37,4","1,074","0,6","205,2","23,1","84,6"],
    [41699,"43555,125","39,6","1,231","0,5","210","22,7","86,1"],
    [41700,"43555,16667","43,2","1,178","0,5","185,9","22,6","86,6"],
    [41701,"43555,20833","42,1","1,1","0,3","154,3","22,4","87,1"],
    [41702,"43555,25","42,6","1,283","0,6","214,9","22","88,2"],
    [41703,"43555,29167","42,4","1,231","0,5","181","21,5","89,3"],
    [41704,"43555,33333","45","1,1","0,4","163,6","22,6","87,6"],
    [41705,"43555,375","49","1,519","0,9","63,5","24,2","82,3"],
    [41706,"43555,41667","55,5","1,257","1,3","109,7","26,4","73,2"],
    [41707,"43555,45833","65,3","1,388","1,2","120,4","28,2","64,5"],
    [41708,"43555,5","44,7","2,121","1,6","135,1","30","57,5"],
    [41709,"43555,54167","50,4","1,807","2,2","201,6","30,4","54,4"],
    [41710,"43555,58333","27,2","1,152","2,7","233,8","30,8","52,8"],
    [41711,"43555,625","8,9","1,231","2,8","298,6","31,4","49,8"],
    [41712,"43555,66667","11,9","1,178","4,5","314","30,4","52,9"],
    [41713,"43555,70833","13,6","0,943","5,5","309,3","28,2","59,1"],
    [41714,"43555,75","13,5","1,231","2,4","141,7","24,8","77,4"],
    [41715,"43555,79167","19,8","1,519","0,9","167,4","23,6","87,7"],
    [41716,"43555,83333","21,4","1,597","1,4","118,3","23,8","83,5"],
    [41717,"43555,875","13,1","1,414","1,4","189,9","24,3","79,3"],
    [41718,"43555,91667","28,5","1,362","0,6","141,5","24,1","83,6"],
    [41719,"43555,95833","42,9","1,074","1,1","230,1","23,4","86,2"],
    [41720,"43556","26","1,047","0,7","145,5","22,8","87,4"],
    [41721,"43556,04167","21,7","1,074","1","100,1","23,1","87,3"],
    [41722,"43556,08333","26,8","1,257","1","156,5","23,3","86,3"],
    [41723,"43556,125","36,2","0,89","0,4","137,9","23,2","87,8"],
    [41724,"43556,16667","25,2","0,89","0,8","187,9","22,7","90"],
    [41725,"43556,20833","22,4","1,047","0,6","116,4","22,5","92,8"],
    [41726,"43556,25","25,4","1,388","0,6","123,5","22,5","94"],
    [41727,"43556,29167","33,9","1,362","0,9","174,2","22,2","94,5"],
    [41728,"43556,33333","33,3","1,466","0,6","136,1","22,5","94,1"],
    [41729,"43556,375","35","1,78","0,9","94","22,8","92,7"],
    [41730,"43556,41667","30,8","1,466","0,7","114,5","23","91,9"],
    [41731,"43556,45833","18,7","1,519","1,5","287,7","23,3","90,5"],
    [41732,"43556,5","18","1,519","1,1","148,8","23,9","89,2"],
    [41733,"43556,54167","26","1,309","1,4","165,4","24,4","87,4"],
    [41734,"43556,58333","18,4","1,335","2,8","216,5","25,6","76,6"],
    [41735,"43556,625","13,2","1,466","3,1","208,5","24,2","78,2"],
    [41736,"43556,66667","5,1","1,807","1,7","137,9","23,7","82"],
    [41737,"43556,70833","25,5","1,309","1,5","190,3","22,3","87,1"],
    [41738,"43556,75","15,9","1,44","0,8","132,7","22,7","87,8"],
    [41739,"43556,79167","18,6","2,042","1","102,7","22,5","88,7"],
    [41740,"43556,83333","27,1","1,728","0,9","97,4","21,9","91,4"],
    [41741,"43556,875","20,6","1,545","0,8","115,8","21,7","93,2"],
    [41742,"43556,91667","21,5","1,807","0,8","97,9","21,7","94,1"],
    [41743,"43556,95833","24,6","1,414","0,8","138,6","21,7","94,6"],
    [41744,"43557","25,7","1,231","0,3","112,2","21,6","94,8"],
    [41745,"43557,04167","14,1","1,074","0,2","99,8","21,5","95,2"],
    [41746,"43557,08333","13,5","0,943","0,3","138,9","21,4","95,5"],
    [41747,"43557,125","15,6","0,943","0,7","121,5","21,2","95,7"],
    [41748,"43557,16667","21,8","0,943","0,6","111,1","21,2","95,9"],
    [41749,"43557,20833","17,6","1,152","0,5","188","20,7","95,8"],
    [41750,"43557,25","23,8","1,492","0,5","188,6","20,6","95,5"],
    [41751,"43557,29167","43","1,911","0,6","198,2","20,8","95,3"],
    [41752,"43557,33333","57,1","1,833","0,6","172,5","21,2","94,9"],
    [41753,"43557,375","57,9","1,754","0,5","176,7","21,8","92,7"],
    [41754,"43557,41667","52","1,597","0,8","135,1","23","87,6"],
    [41755,"43557,45833","58,9","1,754","1,1","137,7","24,5","79,1"],
    [41756,"43557,5","37,5","1,519","1","186,7","26,1","70,7"],
    [41757,"43557,54167","19,5","1,44","1,5","137,4","27,4","66"],
    [41758,"43557,58333","26,5","1,414","1,2","142,7","28,1","63,4"],
    [41759,"43557,625","26,2","1,283","1,7","155,1","28,5","60,9"],
    [41760,"43557,66667","35,9","1,44","1,8","195,3","26,8","68,6"],
    [41761,"43557,70833","49,8","1,571","2","128","21,2","86,4"],
    [41762,"43557,75","17","1,519","0,9","146,2","20,3","92,6"],
    [41763,"43557,79167","18,8","1,362","1,6","209,5","21,1","94,1"],
    [41764,"43557,83333","21,6","1,807","0,7","218,2","21,5","94,6"],
    [41765,"43557,875","26,9","1,78","0,7","222,7","21,3","94,9"],
    [41766,"43557,91667","24,2","1,702","0,4","178,6","21,2","95,4"],
    [41767,"43557,95833","24","1,362","0,9","229,8","20,9","95,8"],
    [41768,"43558","23,2","1,231","1","233,2","20,5","95,9"],
    [41769,"43558,04167","22,1","1,152","0,4","199,1","20,5","95,9"],
    [41770,"43558,08333","20,3","1,126","0,8","228,9","20,6","96"],
    [41771,"43558,125","22,4","0,89","0,7","213,2","20,7","95,9"],
    [41772,"43558,16667","22,4","0,916","0,6","139,4","20,9","95,9"],
    [41773,"43558,20833","24,7","1,1","0,5","54","20,8","96,3"],
    [41774,"43558,25","35,4","1,414","0,7","177,9","20,2","96,6"],
    [41775,"43558,29167","39,9","1,545","0,6","208,9","20,2","96,6"],
    [41776,"43558,33333","57,9","2,252","0,7","64,7","21","95,9"],
    [41777,"43558,375","97,9","2,435","0,8","95,1","21,3","94,2"],
    [41778,"43558,41667","90,3","2,33","0,7","178,8","22,1","90,6"],
    [41779,"43558,45833","85,2","3,927","1","182,6","23,7","82,6"],
    [41780,"43558,5","55,2","2,618","0,7","117,3","26,1","70,3"],
    [41781,"43558,54167","36,4","1,964","1,7","199,5","25,9","70,5"],
    [41782,"43558,58333","31,7","1,65","1,9","275,4","24","79,4"],
    [41783,"43558,625","ND","1,545","1,7","223,2","25,2","71,8"],
    [41784,"43558,66667","14,3","1,362","1,1","224,1","25,9","69,8"],
    [41785,"43558,70833","27,8","1,571","0,8","183,8","25,6","73,6"],
    [41786,"43558,75","31,1","1,833","1,3","239,3","24,2","79,6"],
    [41787,"43558,79167","23,6","1,754","1,1","184,4","23,6","75,7"],
    [41788,"43558,83333","33,7","1,728","0,8","215","23","82"],
    [41789,"43558,875","52,7","1,571","1","208,3","23,2","78,7"],
    [41790,"43558,91667","32,1","1,545","0,8","231,9","23","82,2"],
    [41791,"43558,95833","64,8","1,44","0,8","195","22,6","85,6"],
    [41792,"43559","34,8","1,362","0,6","129,3","22,1","88"],
    [41793,"43559,04167","17,2","1,074","0,5","144,5","21,3","91,3"],
    [41794,"43559,08333","17,2","1,1","0,6","223,4","21,4","93,3"],
    [41795,"43559,125","19,1","1,021","0,3","125,7","21,2","94,3"],
    [41796,"43559,16667","15","1,1","0,4","115,6","21,1","95,1"],
    [41797,"43559,20833","12,8","1,231","0,3","104,7","21,1","95,9"],
    [41798,"43559,25","13","1,597","0,2","128,5","20,9","96,3"],
    [41799,"43559,29167","24,7","1,885","0,4","182,8","21","96,5"],
    [41800,"43559,33333","32","2,147","0,4","105,6","21,1","96,5"],
    [41801,"43559,375","27,4","1,833","0,4","160,2","21,8","95,2"],
    [41802,"43559,41667","27","1,623","1,1","113,3","23,2","89,5"],
    [41803,"43559,45833","41,9","2,252","1,4","105,5","25,3","75,9"],
    [41804,"43559,5","39,8","2,278","2,2","209,4","25,5","72,5"],
    [41805,"43559,54167","38,8","2,199","2,2","236,2","25,5","75,2"],
    [41806,"43559,58333","29,6","1,623","1,3","204,8","26,8","66,5"],
    [41807,"43559,625","19,7","1,597","1,1","261,9","28,1","60,7"],
    [41808,"43559,66667","29,7","1,362","2,3","277,7","27,8","62,4"],
    [41809,"43559,70833","26,3","1,126","2,3","297,3","27","63,7"],
    [41810,"43559,75","18,9","1,178","2,6","307,8","26,3","65,3"],
    [41811,"43559,79167","20,1","1,388","1,2","205,2","25,9","67,8"],
    [41812,"43559,83333","37,7","1,388","1,2","216,9","25,1","73,1"],
    [41813,"43559,875","47,8","1,44","0,6","230,3","24,2","77"],
    [41814,"43559,91667","49,2","1,44","1,1","244,2","23,6","81,7"],
    [41815,"43559,95833","63,3","1,021","1","215,6","23,2","82,9"],
    [41816,"43560","22,6","1,231","0,7","157,9","22,4","88,2"],
    [41817,"43560,04167","14,5","1,047","0,4","120","22,2","91,7"],
    [41818,"43560,08333","16,2","1,257","0,6","59,7","21,9","93,3"],
    [41819,"43560,125","12,5","1,021","0,7","84","21,8","93,7"],
    [41820,"43560,16667","14,7","0,812","0,3","140,3","21,6","94,3"],
    [41821,"43560,20833","19","1,126","0,5","68,9","21,6","94,8"],
    [41822,"43560,25","21","1,283","0,3","70,9","21,6","94,9"],
    [41823,"43560,29167","32","1,807","0,4","133,5","21,6","94,3"],
    [41824,"43560,33333","50,2","1,676","0,4","162,5","22,1","93,3"],
    [41825,"43560,375","55,8","1,807","0,8","78","22,9","89,5"],
    [41826,"43560,41667","71,6","2,095","1,1","96,7","24,1","83,4"],
    [41827,"43560,45833","60,8","2,042","1,3","122,1","26,1","73,1"],
    [41828,"43560,5","41,1","1,938","1,3","148,8","28,3","62,3"],
    [41829,"43560,54167","25,5","1,859","1,2","165,5","28,8","60,4"],
    [41830,"43560,58333","31,9","1,335","2,1","285,6","28,7","62"],
    [41831,"43560,625","37,5","1,074","3,4","307,4","29,5","56,7"],
    [41832,"43560,66667","8,6","1,047","4,2","318,3","28","60,6"],
    [41833,"43560,70833","11,6","0,995","5,1","321,9","27,7","61"],
    [41834,"43560,75","16,5","1,047","5,7","301,9","26,3","64,4"],
    [41835,"43560,79167","17,3","1,047","4,7","293,8","26","64,7"],
    [41836,"43560,83333","20,5","1,309","1,9","219,8","24,8","71,2"],
    [41837,"43560,875","24,9","1,44","1,2","149,1","23,8","76,5"],
    [41838,"43560,91667","35,4","1,204","1,3","121,3","23","81,6"],
    [41839,"43560,95833","34,4","1,047","1,7","134,3","22,1","89,4"],
    [41840,"43561","14,1","1,152","0,8","132,1","21,3","92,4"],
    [41841,"43561,04167","10,6","0,89","0,9","132,1","21","93,6"],
    [41842,"43561,08333","4,8","0,969","0,9","121,1","20,7","94,1"],
    [41843,"43561,125","5","0,916","1,1","101,1","20,6","94,7"],
    [41844,"43561,16667","6,6","1,1","0,5","166,5","20,4","95,5"],
    [41845,"43561,20833","10,6","1,1","0,8","243,9","20,5","96"],
    [41846,"43561,25","12,7","0,864","1","252,7","20,6","95,9"],
    [41847,"43561,29167","14,8","1,519","0,6","154,2","20,9","95,6"],
    [41848,"43561,33333","27,7","1,44","1","110,4","21","95,5"],
    [41849,"43561,375","30","1,466","0,7","179,3","21,4","94"],
    [41850,"43561,41667","23,4","1,597","0,8","151,1","22,9","86,5"],
    [41851,"43561,45833","29,8","1,885","0,9","97","24,6","75,1"],
    [41852,"43561,5","41,8","1,597","0,9","100,9","25,7","69,7"],
    [41853,"43561,54167","42","1,65","1,2","222,5","26,9","65,2"],
    [41854,"43561,58333","32,7","1,676","1,6","149,6","28,5","59,6"],
    [41855,"43561,625","33,6","1,702","1,5","130,3","29,9","55,1"],
    [41856,"43561,66667","46,1","1,676","2,2","79,4","29,5","57,5"],
    [41857,"43561,70833","44,1","1,833","1,5","47,4","27,9","60,9"],
    [41858,"43561,75","39,2","1,65","1,6","234,7","26,9","64,3"],
    [41859,"43561,79167","32,2","1,231","3,9","324,2","25,7","66,7"],
    [41860,"43561,83333","12,5","1,283","1,9","255,4","25,4","66,8"],
    [41861,"43561,875","22,9","1,283","0,9","226,2","24,2","72,8"],
    [41862,"43561,91667","46,3","1,204","0,9","176,4","23,7","75,1"],
    [41863,"43561,95833","47,1","1,362","0,8","235,1","23,4","77,6"],
    [41864,"43562","55,1","1,152","0,6","190,6","22,8","80,3"],
    [41865,"43562,04167","41,4","1,074","0,9","229,6","22,3","82,8"],
    [41866,"43562,08333","31,2","1,178","0,5","207,7","22,4","83,8"],
    [41867,"43562,125","34,1","1,074","0,6","195","22,3","85,2"],
    [41868,"43562,16667","37,5","0,995","0,5","216,8","22,3","85,6"],
    [41869,"43562,20833","36,3","1,257","0,5","143,6","22,2","86,6"],
    [41870,"43562,25","38,6","1,126","0,7","218,5","21,7","88,5"],
    [41871,"43562,29167","42,1","1,178","1","203,5","21,4","89,6"],
    [41872,"43562,33333","45,4","1,231","1","184,6","22,6","88,1"],
    [41873,"43562,375","47,6","1,466","0,8","128,2","24,1","81,2"],
    [41874,"43562,41667","38,8","2,383","1,3","115","26,1","71,1"],
    [41875,"43562,45833","34,1","2,487","1,5","87,8","27,2","67,5"],
    [41876,"43562,5","42,2","3,875","1,6","118,2","28,1","62,5"],
    [41877,"43562,54167","39,7","3,535","1,5","172,5","29,5","56,8"],
    [41878,"43562,58333","24,7","2,514","1,7","119,2","30,7","51,2"],
    [41879,"43562,625","25,3","2,461","1,4","112,1","30,7","53,1"],
    [41880,"43562,66667","26,9","2,461","2,1","128,4","29,4","60,3"],
    [41881,"43562,70833","34,9","1,414","3","299,4","28,3","60,3"],
    [41882,"43562,75","19,1","1,178","2,8","317,3","27","66,2"],
    [41883,"43562,79167","17,4","1,283","2,9","324,8","26,2","66,9"],
    [41884,"43562,83333","12,5","1,44","1,1","197","25,9","67,4"],
    [41885,"43562,875","23","1,178","1,1","208,1","25,3","69,8"],
    [41886,"43562,91667","21,9","1,388","0,9","173,3","25,4","71,7"],
    [41887,"43562,95833","43,7","1,283","0,5","140,3","24,7","77,8"],
    [41888,"43563","44,8","0,995","0,6","175,8","24,2","80,7"],
    [41889,"43563,04167","37,8","1,126","0,8","147,8","23,7","82,5"],
    [41890,"43563,08333","29,5","0,995","0,4","84,1","23,2","83,5"],
    [41891,"43563,125","28","1,021","0,3","115,6","22,9","85,6"],
    [41892,"43563,16667","33,2","1,074","0,6","100,1","22,5","88,1"],
    [41893,"43563,20833","34,2","0,995","0,8","215","21,9","89,8"],
    [41894,"43563,25","33,8","1,178","0,6","206,4","21,4","90,1"],
    [41895,"43563,29167","52,4","1,492","0,8","226,1","21,3","88,5"],
    [41896,"43563,33333","77,7","1,78","0,7","196,6","22","86,4"],
    [41897,"43563,375","79,6","2,121","0,8","88,3","23,8","81"],
    [41898,"43563,41667","88,1","2,068","1,1","114,8","26,2","71,8"],
    [41899,"43563,45833","74,7","2,487","1,6","118,8","27,7","65,1"],
    [41900,"43563,5","41,8","2,121","1,2","153,7","28,8","59,5"],
    [41901,"43563,54167","41,1","2,304","1,5","159,7","29,7","56,8"],
    [41902,"43563,58333","53,9","1,309","2,3","234,3","30,4","52,3"],
    [41903,"43563,625","18,3","1,126","3,6","313,9","30,8","50,1"],
    [41904,"43563,66667","15,7","0,969","4,6","323,4","30,1","53,6"],
    [41905,"43563,70833","18,7","1,047","5","312,2","28,5","57,8"],
    [41906,"43563,75","22,1","1,021","3,9","312","27,5","60,4"],
    [41907,"43563,79167","20,8","1,283","3,3","287,3","26,7","62"],
    [41908,"43563,83333","23,6","1,257","1,6","238,3","25,2","70,2"],
    [41909,"43563,875","38,5","1,414","1,4","210,4","24,3","74,6"],
    [41910,"43563,91667","37,2","1,466","1,1","75,7","24,8","74,1"],
    [41911,"43563,95833","47,4","1,204","0,8","209,1","24,2","77,3"],
    [41912,"43564","32,8","0,943","0,9","209,5","23,9","78,1"],
    [41913,"43564,04167","23,9","1,152","0,9","169,6","23,9","79,4"],
    [41914,"43564,08333","28,4","0,89","1,1","180,8","23,5","81,8"],
    [41915,"43564,125","22,3","0,916","0,8","196,1","22,8","84,7"],
    [41916,"43564,16667","12,3","0,812","0,5","179,4","22,5","86"],
    [41917,"43564,20833","19","1,074","0,6","215,1","22,3","86,6"],
    [41918,"43564,25","35,4","1,178","0,6","205,6","22,6","85,2"],
    [41919,"43564,29167","45,9","1,519","0,7","193,4","23","85,6"],
    [41920,"43564,33333","71,9","1,754","0,8","165,8","23,9","84"],
    [41921,"43564,375","64,8","1,911","1","122","25,4","75,8"],
    [41922,"43564,41667","44,4","1,597","1,4","105,7","26,9","66,9"],
    [41923,"43564,45833","28,2","1,335","1,4","114,7","28,4","59,4"],
    [41924,"43564,5","28,9","1,388","1,8","107,9","29,4","56,2"],
    [41925,"43564,54167","35,5","1,597","1,7","118,2","30,2","53,5"],
    [41926,"43564,58333","37,7","1,126","3","231","30,5","51,1"],
    [41927,"43564,625","12","1,126","4,2","318,1","30,5","50,6"],
    [41928,"43564,66667","12","1,047","5","319,8","29,9","52,5"],
    [41929,"43564,70833","15,8","1,126","4,8","308,3","29","54,5"],
    [41930,"43564,75","16,6","1,074","5,3","301,6","27,5","59,1"],
    [41931,"43564,79167","20,4","1,178","2,5","164","25,8","65,2"],
    [41932,"43564,83333","40,8","1,074","2,5","248,5","25,6","64,4"],
    [41933,"43564,875","12,7","1,047","1,8","222,1","25,1","66,9"],
    [41934,"43564,91667","24,9","1,623","1,2","114,4","24,5","70,8"],
    [41935,"43564,95833","37,8","1,519","0,8","152,4","23,7","76,7"],
    [41936,"43565","34,6","1,074","0,9","238,1","23,1","79,4"],
    [41937,"43565,04167","26,9","1,126","0,9","212,2","23,1","78,2"],
    [41938,"43565,08333","16,6","1,047","0,6","167,6","23,1","79,7"],
    [41939,"43565,125","23,7","1,231","0,7","144,4","22,8","82,8"],
    [41940,"43565,16667","30,4","1,126","0,5","130,1","22,2","83,9"],
    [41941,"43565,20833","26,4","1,126","0,7","231,5","21,7","85,4"],
    [41942,"43565,25","26,3","1,335","0,6","192,8","21,8","84,8"],
    [41943,"43565,29167","50,9","1,911","0,9","226,8","21,8","85,6"],
    [41944,"43565,33333","65,8","2,121","0,9","180,1","22,7","84,6"],
    [41945,"43565,375","67,1","2,016","1","102,5","24,1","79,2"],
    [41946,"43565,41667","67","2,121","1,5","158,9","25,4","72,2"],
    [41947,"43565,45833","52,6","1,938","1,1","150,8","26,6","67,1"],
    [41948,"43565,5","48,2","2,016","1,9","123,6","27,7","63,6"],
    [41949,"43565,54167","48,1","1,964","1,3","148,1","28,5","61"],
    [41950,"43565,58333","45,4","1,807","1,4","121,2","29,3","57,9"],
    [41951,"43565,625","49,6","1,65","3,2","163,2","28,1","59,1"],
    [41952,"43565,66667","38,4","1,309","2,5","202,8","21","94,9"],
    [41953,"43565,70833","16,1","1,702","1,1","172,5","21,4","100"],
    [41954,"43565,75","39,5","1,492","0,8","226,7","21,7","99,7"],
    [41955,"43565,79167","40,4","1,571","0,8","201,9","21,7","97,8"],
    [41956,"43565,83333","54,2","1,597","1","214,2","21,9","93,5"],
    [41957,"43565,875","44,9","1,414","0,8","211","21,9","88,8"],
    [41958,"43565,91667","41","1,466","0,8","231,8","22","87,4"],
    [41959,"43565,95833","44,5","1,309","0,6","225,9","21,9","87,9"],
    [41960,"43566","42,2","1,231","0,7","199,1","21,6","88,6"],
    [41961,"43566,04167","35,3","1,178","0,8","211,4","21,1","89,6"],
    [41962,"43566,08333","30,4","1,047","0,6","196,9","21,1","89,4"],
    [41963,"43566,125","24,9","1,1","0,5","204,5","21,2","90,5"],
    [41964,"43566,16667","29,8","1,204","0,6","214,5","21,2","94,3"],
    [41965,"43566,20833","27,2","1,335","0,9","240,3","20,8","94,9"],
    [41966,"43566,25","26,5","1,362","0,4","198,2","20,9","94,6"],
    [41967,"43566,29167","36,1","1,938","0,7","214,5","21,1","94,2"],
    [41968,"43566,33333","62,6","1,466","0,5","145,7","22","89,6"],
    [41969,"43566,375","58,9","1,597","0,9","126","23,7","83,3"],
    [41970,"43566,41667","62,9","1,545","1,3","103,6","25,2","76"],
    [41971,"43566,45833","41,3","1,492","1,2","100,6","26,7","69,6"],
    [41972,"43566,5","36,6","1,623","1,4","162,6","27,5","64"],
    [41973,"43566,54167","30,1","1,623","1,6","148,8","29,3","57,4"],
    [41974,"43566,58333","38,7","1,623","1,4","101,2","30,3","53,7"],
    [41975,"43566,625","50,1","2,278","1,4","119,6","30","54,1"],
    [41976,"43566,66667","53,2","ND","1,4","78,2","29,8","55,7"],
    [41977,"43566,70833","51,5","1,702","2,7","240,6","29,8","56,7"],
    [41978,"43566,75","40,1","1,309","3,6","324,7","28,1","61,7"],
    [41979,"43566,79167","21,9","1,231","3,1","313,7","27,4","62,8"],
    [41980,"43566,83333","25,4","1,126","3,6","317","26,7","65,5"],
    [41981,"43566,875","17,1","1,1","3,1","264,2","26,9","64,2"],
    [41982,"43566,91667","25,9","1,204","0,7","174,6","26,1","70,7"],
    [41983,"43566,95833","64,6","1,126","0,5","209","25,2","76,2"],
    [41984,"43567","64,8","1,1","0,6","161,2","24,9","74,7"],
    [41985,"43567,04167","30,9","1,178","1","81,9","24,4","77,1"],
    [41986,"43567,08333","26,5","0,89","1,5","182,8","22","83,8"],
    [41987,"43567,125","19,6","0,969","1,1","121","21,2","93,5"],
    [41988,"43567,16667","14,6","0,838","1,5","226,5","20,7","94,4"],
    [41989,"43567,20833","10,9","0,995","0,9","168,9","21","94,3"],
    [41990,"43567,25","19,8","1,204","0,7","173,6","20,9","95,2"],
    [41991,"43567,29167","29,8","1,597","0,7","164","20,7","95,7"],
    [41992,"43567,33333","43,7","1,519","0,6","137,2","21,8","92,7"],
    [41993,"43567,375","45,7","1,414","0,9","140,4","24,1","79,8"],
    [41994,"43567,41667","39,9","1,257","1","110,8","26,6","68,4"],
    [41995,"43567,45833","43,4","1,126","1","168,3","27,1","65,9"],
    [41996,"43567,5","31,3","1,414","1,4","138,6","29","59,1"],
    [41997,"43567,54167","45,9","1,728","1,6","112,3","30,3","54,7"],
    [41998,"43567,58333","41,3","1,676","1,5","140,2","31,2","51,9"],
    [41999,"43567,625","42,2","1,702","3,1","273,5","31,5","52,4"],
    [42000,"43567,66667","33,5","1,021","4,1","322,4","30,7","53,9"],
    [42001,"43567,70833","16,7","1,152","4,7","306","29,8","55,4"],
    [42002,"43567,75","12,2","0,916","5,2","309,4","28,3","59,4"],
    [42003,"43567,79167","15,2","1,047","4,5","308","27,7","60,9"],
    [42004,"43567,83333","16,7","1,1","3,4","304,4","27,6","61,1"],
    [42005,"43567,875","15,8","1,126","1,5","235,9","27,3","62,4"],
    [42006,"43567,91667","18,3","1,021","2","240,4","26,3","66,6"],
    [42007,"43567,95833","17,6","0,864","1,3","214,9","25,8","69,9"],
    [42008,"43568","24,2","0,89","1,1","170,7","24,2","76,9"],
    [42009,"43568,04167","19,3","1,074","1","171,4","24,1","78,4"],
    [42010,"43568,08333","25,3","0,864","0,6","219,7","23,7","80,8"],
    [42011,"43568,125","22,4","0,838","0,9","207,3","23,5","82,2"],
    [42012,"43568,16667","19,7","0,759","0,9","193,9","23","84,1"],
    [42013,"43568,20833","13,3","0,785","0,4","115,4","22,7","85"],
    [42014,"43568,25","21,3","0,838","0,7","192,3","22,6","84,8"],
    [42015,"43568,29167","32,2","1,074","0,6","175,6","22,6","85,3"],
    [42016,"43568,33333","46,7","1,362","0,7","135,7","23,7","81,8"],
    [42017,"43568,375","55,1","1,231","1,2","171","25","77,7"],
    [42018,"43568,41667","62,8","1,204","1,4","134,8","26,9","67,6"],
    [42019,"43568,45833","34,3","1,283","1,4","133,7","28,5","62,3"],
    [42020,"43568,5","33,3","1,309","1,5","151,8","29,4","59,7"],
    [42021,"43568,54167","36,7","1,335","1,4","160,4","30,2","56,4"],
    [42022,"43568,58333","36,7","1,283","1,5","144,8","31,4","52,8"],
    [42023,"43568,625","42,7","1,074","2,8","265,2","30,2","54,8"],
    [42024,"43568,66667","23,4","1,021","4,9","314,8","28,1","60,1"],
    [42025,"43568,70833","18","0,969","4,4","312,3","27,7","61,1"],
    [42026,"43568,75","13,8","1,074","2,1","227,6","27,1","62,8"],
    [42027,"43568,79167","30,6","1,178","0,9","223,6","26,6","65"],
    [42028,"43568,83333","34,5","1,257","1,1","187,7","26","69,4"],
    [42029,"43568,875","50,5","1,178","1,2","152,1","24,9","74,9"],
    [42030,"43568,91667","45,8","1,152","0,7","217,1","24,3","77,9"],
    [42031,"43568,95833","50,8","1,074","1,1","254,1","23,6","80,5"],
    [42032,"43569","37,5","1,047","1","229,8","23,3","79,6"],
    [42033,"43569,04167","25,7","1,178","1,3","54,1","24","77,8"],
    [42034,"43569,08333","51,9","1,178","1,1","150","23,7","78,8"],
    [42035,"43569,125","36,9","1,074","0,8","174,2","23,2","80,7"],
    [42036,"43569,16667","37,2","1,074","0,7","209,8","22,4","84,5"],
    [42037,"43569,20833","32,1","0,943","0,9","232,9","22,2","84,7"],
    [42038,"43569,25","27,1","1,126","0,7","218,8","22,4","83,2"],
    [42039,"43569,29167","28,2","1,021","0,7","215,6","22,5","83,6"],
    [42040,"43569,33333","35,9","1,204","0,5","168,9","23,6","80,2"],
    [42041,"43569,375","38","1,362","0,9","156,3","25","75,2"],
    [42042,"43569,41667","41,5","1,571","1,1","129,7","26,3","69,6"],
    [42043,"43569,45833","35,7","1,754","1","135","26,9","67,7"],
    [42044,"43569,5","36,6","1,833","1","189,4","27,8","63,3"],
    [42045,"43569,54167","30,6","1,335","1,8","234,5","29,3","58,2"],
    [42046,"43569,58333","20,2","1,126","2,4","274,5","30,6","51,7"],
    [42047,"43569,625","4,5","1,388","3,5","305,5","30,9","49,7"],
    [42048,"43569,66667","10,8","1,074","4,4","310,9","30,4","51,8"],
    [42049,"43569,70833","9,4","0,995","4,6","307,1","29,1","54,6"],
    [42050,"43569,75","10,9","1,1","5,6","321,2","27,4","60,2"],
    [42051,"43569,79167","14,8","1,021","5,2","301,4","26,4","63,2"],
    [42052,"43569,83333","10,2","0,995","2,6","267,4","26,3","63,2"],
    [42053,"43569,875","15,7","1,074","0,8","132,1","26,1","66,9"],
    [42054,"43569,91667","24,1","1,047","1,3","279,6","25,6","67,6"],
    [42055,"43569,95833","11,9","1,021","1","195,5","25,5","66,7"],
    [42056,"43570","14,8","0,943","1","187,7","25,1","70,9"],
    [42057,"43570,04167","23,1","0,943","1,5","107","23,9","79,6"],
    [42058,"43570,08333","19,7","0,969","0,7","199,6","22,1","89,2"],
    [42059,"43570,125","15,1","0,759","0,7","105,4","21,9","92,8"],
    [42060,"43570,16667","9,9","0,916","1","98,6","21,5","94,9"],
    [42061,"43570,20833","6,3","1,047","0,9","96,8","21,1","96,3"],
    [42062,"43570,25","7,2","0,969","0,6","119,5","20,8","97"],
    [42063,"43570,29167","12,8","1,126","1","158,5","20,8","97,3"],
    [42064,"43570,33333","19,3","1,388","0,8","166,5","21,1","97"],
    [42065,"43570,375","17,1","1,414","1,3","158,6","21,4","95,5"],
    [42066,"43570,41667","10,9","1,388","1,6","154,5","21,7","93,3"],
    [42067,"43570,45833","13,2","1,519","1,2","151,9","22,2","91,2"],
    [42068,"43570,5","12,9","1,178","0,7","118,4","23,2","86,5"],
    [42069,"43570,54167","17,5","1,283","0,7","178,8","24,1","81,3"],
    [42070,"43570,58333","27","1,204","1","224,9","25,3","76,6"],
    [42071,"43570,625","26,8","1,388","1,2","150,3","25,4","74,3"],
    [42072,"43570,66667","45,1","1,362","1,7","253,5","25,2","74,9"],
    [42073,"43570,70833","47,8","2,383","1,5","228,6","25,8","72,2"],
    [42074,"43570,75","62,1","1,911","1","295","25,7","72,4"],
    [42075,"43570,79167","57,6","1,911","1","243,9","24,8","74,8"],
    [42076,"43570,83333","45,1","1,676","0,7","199","23,8","82,2"],
    [42077,"43570,875","58,7","1,44","1,4","248,9","22,9","85,1"],
    [42078,"43570,91667","34,5","1,152","1,7","247,2","22,1","86,1"],
    [42079,"43570,95833","30,4","1,204","1","235,9","21,9","85,7"],
    [42080,"43571","27,9","1,204","0,7","234,7","21,8","86,6"],
    [42081,"43571,04167","32,1","1,283","0,5","181,7","21,5","87,7"],
    [42082,"43571,08333","25,4","1,047","0,5","221,3","21,3","88,7"],
    [42083,"43571,125","26,4","1,021","0,4","173,1","21,1","89,7"],
    [42084,"43571,16667","25,1","1,047","0,7","217,3","20,9","91,6"],
    [42085,"43571,20833","31,4","1,047","0,4","190,3","20,6","92,5"],
    [42086,"43571,25","42,4","1,309","0,8","237,6","20,2","92,7"],
    [42087,"43571,29167","44,4","1,388","0,7","219,7","20,3","91,5"],
    [42088,"43571,33333","57,2","1,335","0,7","201,8","22,2","84,6"],
    [42089,"43571,375","44,3","4,085","1","105,8","25,3","72,5"],
    [42090,"43571,41667","88,2","4,242","1,3","82,7","26,3","72,5"],
    [42091,"43571,45833","99,6","3,273","1,5","108,4","27,5","67,1"],
    [42092,"43571,5","71,6","2,802","1,3","125","28,5","62,1"],
    [42093,"43571,54167","54,9","2,487","1,3","124,1","29,6","58,5"],
    [42094,"43571,58333","49,3","2,435","1,3","134","30,5","55,3"],
    [42095,"43571,625","48,7","2,252","1,2","151,8","31,1","53,4"],
    [42096,"43571,66667","47,8","1,571","2,9","296,8","30,8","54,9"],
    [42097,"43571,70833","28,6","1,362","3,7","319,8","29,6","56,6"],
    [42098,"43571,75","19,8","1,335","4,4","308,6","28,2","59,9"],
    [42099,"43571,79167","19,2","1,414","4,6","303,7","27,5","61,4"],
    [42100,"43571,83333","18,6","1,231","3,7","294,7","27,3","62"],
    [42101,"43571,875","14,3","1,571","1","161,6","27,4","62,3"],
    [42102,"43571,91667","36,2","1,388","1,4","182,6","26,9","66,4"],
    [42103,"43571,95833","46,7","1,362","0,9","176,8","25,8","74"],
    [42104,"43572","43,1","1,362","0,6","218,9","25,2","77,1"],
    [42105,"43572,04167","40,9","1,204","0,7","158,7","25,1","76,8"],
    [42106,"43572,08333","25,2","1,178","1,4","152","24,3","79"],
    [42107,"43572,125","10,8","1,1","1,1","123,5","22,4","82,1"],
    [42108,"43572,16667","18,4","0,943","1,2","212,2","21","93,3"],
    [42109,"43572,20833","14,2","0,916","0,4","155,7","21,2","95,4"],
    [42110,"43572,25","18,2","1,152","0,7","79","21,5","96"],
    [42111,"43572,29167","19,1","1,388","0,7","83,1","21,6","96,6"],
    [42112,"43572,33333","23,8","1,571","1,1","120,5","21,9","96,4"],
    [42113,"43572,375","31,7","2,016","0,5","170,8","22,5","95,1"],
    [42114,"43572,41667","55,1","2,121","0,8","144,2","23,2","91,4"],
    [42115,"43572,45833","63,2","2,854","0,8","114,7","24,2","83,8"],
    [42116,"43572,5","64,7","3,09","0,9","157,7","25,8","76,9"],
    [42117,"43572,54167","60,3","4,006","1,7","93,9","27,6","68,2"],
    [42118,"43572,58333","45,1","5,472","2,2","65","28,7","63,6"],
    [42119,"43572,625","37","4,189","2,2","76,7","29,2","61,8"],
    [42120,"43572,66667","29,9","2,618","2","191,3","27,9","63,7"],
    [42121,"43572,70833","19,3","1,938","1,7","253,8","27","68,1"],
    [42122,"43572,75","35,1","2,042","1,6","153,9","25,8","69,9"],
    [42123,"43572,79167","27,6","2,54","0,9","117,4","24,9","72"],
    [42124,"43572,83333","44,2","2,173","1,4","154,9","24,3","75,4"],
    [42125,"43572,875","56,4","1,65","1,2","159,4","23,1","81,3"],
    [42126,"43572,91667","49,4","1,807","0,5","154,2","23,1","82,7"],
    [42127,"43572,95833","61,5","1,597","0,7","230,5","22,6","86,6"],
    [42128,"43573","45,8","1,702","0,7","182,3","22,3","87,5"],
    [42129,"43573,04167","62,1","1,519","0,9","184,2","22,3","87,5"],
    [42130,"43573,08333","42,7","1,388","0,9","114,1","22,3","85,5"],
    [42131,"43573,125","36,7","1,362","0,7","76,1","22","87,1"],
    [42132,"43573,16667","34,8","1,231","1,2","127,7","21,5","91,6"],
    [42133,"43573,20833","19,8","1,44","1","67,3","20,6","95,7"],
    [42134,"43573,25","8,8","1,519","1","59,7","20,7","96,9"],
    [42135,"43573,29167","9","1,388","1,1","101,4","20,7","97,3"],
    [42136,"43573,33333","11,3","1,519","1,3","151","20,9","97,2"],
    [42137,"43573,375","12,9","1,44","1,4","157,6","21,2","96"],
    [42138,"43573,41667","17,1","1,833","1","142,3","22,6","90,8"],
    [42139,"43573,45833","24,1","1,754","0,7","110,7","24,4","81,3"],
    [42140,"43573,5","20,4","1,885","1","128,6","25,9","72"],
    [42141,"43573,54167","19,6","1,78","1,2","91,9","27,5","65,1"],
    [42142,"43573,58333","24,2","1,623","1,3","162,7","28,3","62,1"],
    [42143,"43573,625","29","1,676","1,2","184,1","29","60,4"],
    [42144,"43573,66667","33,9","1,545","1,2","203,6","29,2","60,8"],
    [42145,"43573,70833","42,7","1,938","2","195,2","28,7","63,6"],
    [42146,"43573,75","40","1,754","1,7","282,8","27,6","66,2"],
    [42147,"43573,79167","25,4","1,309","1,4","262,2","26,4","67,4"],
    [42148,"43573,83333","22,6","1,492","0,9","192,9","25,4","72,7"],
    [42149,"43573,875","32,3","1,414","2,3","287,3","25,6","68,1"],
    [42150,"43573,91667","20,7","1,362","1,1","187,3","25","71,5"],
    [42151,"43573,95833","31,7","1,283","0,7","216,6","24,3","75,6"],
    [42152,"43574","39,5","1,257","0,5","187,1","23,5","82,1"],
    [42153,"43574,04167","37,7","1,126","0,6","182,8","23,3","84,5"],
    [42154,"43574,08333","27,2","1,1","0,6","204,7","22,9","85,8"],
    [42155,"43574,125","28,4","1,074","0,7","233,4","23,1","85,1"],
    [42156,"43574,16667","23,9","1,074","0,7","226,2","22,9","86,3"],
    [42157,"43574,20833","25,4","1,021","0,7","163,3","22,1","91,7"],
    [42158,"43574,25","14,6","1,152","0,7","175,2","21,9","93,5"],
    [42159,"43574,29167","18,2","1,362","0,7","135,3","21,8","94,9"],
    [42160,"43574,33333","14,8","1,021","1,1","146,8","21,5","96,1"],
    [42161,"43574,375","11,4","1,126","0,8","137,1","21,4","97"],
    [42162,"43574,41667","12,5","1,257","0,9","137,8","21,3","96,9"],
    [42163,"43574,45833","9,2","0,995","0,7","142,6","21,6","96,6"],
    [42164,"43574,5","5,7","1,021","0,7","121,2","22,8","93,1"],
    [42165,"43574,54167","8,6","1,388","1,3","82,6","25","80,9"],
    [42166,"43574,58333","10,2","1,362","1,1","128,7","26,8","69,7"],
    [42167,"43574,625","22,4","1,414","0,8","199,6","27,5","67"],
    [42168,"43574,66667","28,3","1,44","0,9","250,8","27,7","66,2"],
    [42169,"43574,70833","28,5","1,362","2,3","103,3","24,1","79,6"],
    [42170,"43574,75","23,8","1,335","1,8","220,4","21,5","91,2"],
    [42171,"43574,79167","15,9","1,231","1","223,5","21,4","89"],
    [42172,"43574,83333","25,5","1,388","1,1","239,4","21,4","91,3"],
    [42173,"43574,875","19,9","1,335","1","252,5","21,1","90,8"],
    [42174,"43574,91667","25,5","1,388","0,9","238,9","21,1","89,5"],
    [42175,"43574,95833","33,6","1,231","0,8","235,6","21,1","90,2"],
    [42176,"43575","41,2","1,126","0,9","242,2","21","90,7"],
    [42177,"43575,04167","23,7","1,021","0,6","227,1","20,9","90,8"],
    [42178,"43575,08333","20,9","1,1","0,7","222,8","20,7","92,2"],
    [42179,"43575,125","21,3","0,89","0,7","235,2","20,6","93,3"],
    [42180,"43575,16667","17,8","0,89","0,6","215,1","20,5","93,2"],
    [42181,"43575,20833","18,1","0,969","0,5","224,3","20,5","92,6"],
    [42182,"43575,25","26,8","1,204","0,4","176,4","20,6","93,2"],
    [42183,"43575,29167","43,2","1,257","0,7","222","20,6","93,7"],
    [42184,"43575,33333","52,2","1,178","0,6","234,6","21,5","91,3"],
    [42185,"43575,375","52,4","1,44","1,2","123,7","23","84,4"],
    [42186,"43575,41667","30,9","2,226","1,3","114,6","25","76,6"],
    [42187,"43575,45833","37,6","1,99","0,9","141,6","25,8","71"],
    [42188,"43575,5","25,3","1,99","1,3","125,1","27,5","64,4"],
    [42189,"43575,54167","35,4","2,461","1,5","139,2","28,6","61"],
    [42190,"43575,58333","30,5","2,068","1,3","137,8","29,9","56,4"],
    [42191,"43575,625","28,9","2,016","1,8","110","29","62,5"],
    [42192,"43575,66667","45,1","2,068","1,3","240","28,4","64,3"],
    [42193,"43575,70833","39,6","1,571","1,4","197","26,3","72,8"],
    [42194,"43575,75","37,7","1,466","2,2","238,9","23,7","83,4"],
    [42195,"43575,79167","3,5","1,178","3,2","320,8","24,2","75,7"],
    [42196,"43575,83333","0,3","1,335","2,4","154,7","24,4","74,9"],
    [42197,"43575,875","30,6","1,754","2,1","65,3","23,1","87,2"],
    [42198,"43575,91667","29","1,492","0,8","135,8","22,5","92"],
    [42199,"43575,95833","27,4","1,571","1","134,1","22,4","93,9"],
    [42200,"43576","20,8","1,519","0,7","107,5","21,4","96,2"],
    [42201,"43576,04167","3,7","1,44","0,8","83,3","21","97,6"],
    [42202,"43576,08333","2,6","1,414","0,4","130,5","20,9","98,3"],
    [42203,"43576,125","0,6","1,021","0,7","137","20,9","98,5"],
    [42204,"43576,16667","1,2","1,074","0,7","82,5","21","98,7"],
    [42205,"43576,20833","5,1","0,969","1,1","174,6","20,4","98,7"],
    [42206,"43576,25","ND","0,969","0,7","173,6","20,1","98,7"],
    [42207,"43576,29167","6,7","1,021","0,5","135,3","20,2","98,5"],
    [42208,"43576,33333","11,1","1,047","0,3","145,2","20,5","98,1"],
    [42209,"43576,375","15,3","1,1","0,5","107,3","21,3","96,6"],
    [42210,"43576,41667","9,3","1,047","0,8","114,7","22,5","91,1"],
    [42211,"43576,45833","9,1","1,126","1,1","111,9","24,6","78,5"],
    [42212,"43576,5","7,1","1,204","1,2","134,1","26,5","70,5"],
    [42213,"43576,54167","19,9","1,231","1,4","90,6","27,4","66,4"],
    [42214,"43576,58333","23","1,65","1,4","99,8","27,8","64,3"],
    [42215,"43576,625","23,6","1,362","1,2","107,2","27,2","66,1"],
    [42216,"43576,66667","27,4","1,152","2,4","191,6","23,1","83,1"],
    [42217,"43576,70833","18,1","1,362","1,1","203,7","22,8","90,1"],
    [42218,"43576,75","20,2","1,126","0,8","218,5","23,3","91,8"],
    [42219,"43576,79167","25,6","1,126","1,2","215","22,9","91,5"],
    [42220,"43576,83333","15,9","1,257","0,9","182,6","22,7","88,5"],
    [42221,"43576,875","21,9","1,257","0,7","208,7","22,1","89,9"],
    [42222,"43576,91667","22,9","1,388","1","157,2","22","93,4"],
    [42223,"43576,95833","23,1","1,283","0,4","63,4","21,8","94,6"],
    [42224,"43577","17,4","1,309","0,8","43,3","21,4","95,9"],
    [42225,"43577,04167","7,8","1,257","0,5","37,1","21,2","96,7"],
    [42226,"43577,08333","7","1,178","0,8","74,3","21,3","97"],
    [42227,"43577,125","11,5","1,257","0,9","70","21,2","97,5"],
    [42228,"43577,16667","12,2","1,152","0,6","45,9","20,9","98"],
    [42229,"43577,20833","10,2","1,257","0,6","60","20,8","98,6"],
    [42230,"43577,25","15,9","1,44","0,8","52,7","20,8","98,7"],
    [42231,"43577,29167","18,2","1,466","0,4","48","20,8","98,8"],
    [42232,"43577,33333","24,3","2,356","0,5","165,8","21","98,8"],
    [42233,"43577,375","27,5","2,095","0,4","125,3","21,5","98"],
    [42234,"43577,41667","ND","ND","0,9","78,9","22,5","93,7"],
    [42235,"43577,45833","ND","ND","0,9","95,9","24","82,6"],
    [42236,"43577,5","ND","ND","0,9","192,2","24,8","78,3"],
    [42237,"43577,54167","ND","ND","1","197,8","26,1","74,2"],
    [42238,"43577,58333","ND","ND","2","243,7","26,8","69,1"],
    [42239,"43577,625","ND","ND","2,3","272,6","27,4","66,1"],
    [42240,"43577,66667","ND","ND","1,9","277,2","26,7","67,9"],
    [42241,"43577,70833","ND","ND","1,2","220,7","24,1","84,9"],
    [42242,"43577,75","ND","ND","1,4","176,2","23,1","91,6"],
    [42243,"43577,79167","ND","ND","1,7","181,4","22,4","93,3"],
    [42244,"43577,83333","ND","ND","0,7","170,3","22","93,6"],
    [42245,"43577,875","ND","ND","0,5","115,2","21,6","95,8"],
    [42246,"43577,91667","ND","ND","0,6","185,3","21,1","96,4"],
    [42247,"43577,95833","ND","ND","0,8","234,7","20,9","96,8"],
    [42248,"43578","ND","ND","0,5","197,5","20,9","97"],
    [42249,"43578,04167","ND","ND","0,2","102,1","20,8","97,4"],
    [42250,"43578,08333","ND","ND","0,7","242,1","20,5","97,6"],
    [42251,"43578,125","ND","ND","0,4","161,3","20,3","97,6"],
    [42252,"43578,16667","ND","ND","0,5","208","20,3","97,6"],
    [42253,"43578,20833","ND","ND","0,5","188,8","20,3","97,6"],
    [42254,"43578,25","ND","ND","0,6","215,2","20","97,4"],
    [42255,"43578,29167","ND","ND","0,6","220,3","20","97,1"],
    [42256,"43578,33333","ND","ND","0,7","221,5","20,7","95,7"],
    [42257,"43578,375","ND","ND","0,4","109,3","21,8","91,5"],
    [42258,"43578,41667","ND","ND","0,6","128,6","22,4","89,6"],
    [42259,"43578,45833","ND","ND","0,9","138","24,3","80,8"],
    [42260,"43578,5","ND","ND","1,1","139,9","26,3","69,8"],
    [42261,"43578,54167","ND","ND","1,1","149","27,4","64,9"],
    [42262,"43578,58333","ND","ND","1","171,9","28","62,9"],
    [42263,"43578,625","ND","ND","1","261","28,6","60,4"],
    [42264,"43578,66667","ND","ND","1,9","252,1","27,5","65,3"],
    [42265,"43578,70833","ND","ND","4,8","304,4","26","64,3"],
    [42266,"43578,75","ND","ND","4,2","308,9","25,8","61,1"],
    [42267,"43578,79167","ND","ND","4,7","311,3","25,6","63,5"],
    [42268,"43578,83333","ND","ND","3,2","256,6","25,5","64"],
    [42269,"43578,875","ND","ND","1,9","181","23,7","78,3"],
    [42270,"43578,91667","ND","ND","1,2","190,7","22,3","88,2"],
    [42271,"43578,95833","ND","ND","1,2","173,7","21,6","93,1"],
    [42272,"43579","ND","ND","0,6","121,4","21,5","94,6"],
    [42273,"43579,04167","ND","ND","0,7","62,1","21,2","95,4"],
    [42274,"43579,08333","ND","ND","0,5","79,2","20,9","96,1"],
    [42275,"43579,125","ND","ND","0,4","92,8","20,9","96,9"],
    [42276,"43579,16667","ND","ND","0,5","71,8","20,9","97,6"],
    [42277,"43579,20833","ND","ND","0,6","90,4","20,9","97,8"],
    [42278,"43579,25","ND","ND","0,8","182,2","20,8","97,9"],
    [42279,"43579,29167","ND","ND","0,4","184,6","20,7","97,9"],
    [42280,"43579,33333","ND","ND","0,7","137,4","21,3","95,6"],
    [42281,"43579,375","ND","ND","0,8","117,5","22,7","88,4"],
    [42282,"43579,41667","ND","ND","1,5","59,7","24,7","78,3"],
    [42283,"43579,45833","ND","ND","1,6","77,4","25,6","74,3"],
    [42284,"43579,5","ND","ND","1,4","110,5","25,8","72,3"],
    [42285,"43579,54167","ND","ND","1,5","102,1","27,5","67,2"],
    [42286,"43579,58333","ND","ND","1,2","128","27,9","65"],
    [42287,"43579,625","ND","ND","1,2","163,9","28,2","63,8"],
    [42288,"43579,66667","ND","ND","1,6","191,4","28,3","64,1"],
    [42289,"43579,70833","ND","ND","1,3","131,5","27,9","64,7"],
    [42290,"43579,75","ND","ND","0,8","128,7","27,5","65"],
    [42291,"43579,79167","ND","ND","2,8","320,1","26,2","67,9"],
    [42292,"43579,83333","ND","ND","0,9","183,3","25,4","70,9"],
    [42293,"43579,875","ND","ND","1","250","24,2","78,8"],
    [42294,"43579,91667","ND","ND","0,6","208,3","23,8","79,8"],
    [42295,"43579,95833","ND","ND","0,8","220,4","23,3","82"],
    [42296,"43580","ND","ND","0,9","230,1","22,8","84,3"],
    [42297,"43580,04167","ND","ND","0,6","170,6","22,6","85,1"],
    [42298,"43580,08333","ND","ND","0,6","168,1","22,4","86,7"],
    [42299,"43580,125","ND","ND","0,8","233,5","21,8","89,1"],
    [42300,"43580,16667","ND","ND","0,9","247,5","21,3","90,1"],
    [42301,"43580,20833","ND","ND","0,9","231,7","21,1","90,3"],
    [42302,"43580,25","ND","ND","0,6","220,8","21,2","89,4"],
    [42303,"43580,29167","ND","ND","0,6","220","21,5","89,6"],
    [42304,"43580,33333","ND","ND","0,7","101,8","23,8","81,5"],
    [42305,"43580,375","ND","ND","1","68,6","24,9","78,9"],
    [42306,"43580,41667","ND","ND","0,9","138","26","73,7"],
    [42307,"43580,45833","ND","ND","1,6","88,9","27,7","66,2"],
    [42308,"43580,5","ND","ND","1,2","120,9","28,7","61,7"],
    [42309,"43580,54167","ND","ND","1,4","116,1","29,6","57,7"],
    [42310,"43580,58333","ND","ND","1,4","184,8","30,2","56,2"],
    [42311,"43580,625","ND","ND","1,4","265,8","30,6","53,5"],
    [42312,"43580,66667","ND","ND","2,4","196,5","30,2","55"],
    [42313,"43580,70833","ND","ND","3,2","319,9","27,8","64,4"],
    [42314,"43580,75","ND","ND","1,8","191,5","27,2","67,3"],
    [42315,"43580,79167","ND","ND","1,1","182,3","24,8","82,4"],
    [42316,"43580,83333","ND","ND","1,7","228,7","23,9","87,2"],
    [42317,"43580,875","ND","ND","2,1","232,8","25,3","72,7"],
    [42318,"43580,91667","ND","ND","3,1","272,6","24,6","71"],
    [42319,"43580,95833","ND","ND","1,2","183,1","23,9","77,7"],
    [42320,"43581","ND","ND","0,9","213,6","23","83,3"],
    [42321,"43581,04167","ND","ND","0,6","238,9","22,9","85,2"],
    [42322,"43581,08333","ND","ND","0,5","216,9","22,7","86,6"],
    [42323,"43581,125","ND","ND","0,6","189,2","22,5","88,6"],
    [42324,"43581,16667","ND","ND","0,5","197,9","22,1","91,1"],
    [42325,"43581,20833","ND","ND","0,5","217,7","22","93,1"],
    [42326,"43581,25","ND","ND","0,6","203,3","21,9","93,8"],
    [42327,"43581,29167","ND","ND","0,5","187,8","21,7","94"],
    [42328,"43581,33333","ND","ND","0,7","214,8","22,4","91,7"],
    [42329,"43581,375","ND","ND","0,5","91,5","24,2","84,4"],
    [42330,"43581,41667","ND","ND","1,2","127,9","26,1","75,3"],
    [42331,"43581,45833","ND","ND","1,4","112,4","27,8","68,1"],
    [42332,"43581,5","ND","ND","1,2","127,9","28,5","64,4"],
    [42333,"43581,54167","ND","ND","1,5","141,1","29,8","60,9"],
    [42334,"43581,58333","ND","ND","1,5","151,9","30,8","56"],
    [42335,"43581,625","ND","ND","1,9","131,9","30,7","57,5"],
    [42336,"43581,66667","ND","ND","1,6","122,6","30,7","56,8"],
    [42337,"43581,70833","ND","ND","1,1","192,9","30,4","57,6"],
    [42338,"43581,75","ND","ND","6,1","324,6","26","66,8"],
    [42339,"43581,79167","ND","ND","2,6","221,8","23,5","85,9"],
    [42340,"43581,83333","ND","ND","1,4","108,9","23,2","92"],
    [42341,"43581,875","ND","ND","1,7","166,7","23,4","91,8"],
    [42342,"43581,91667","ND","ND","1,1","141,5","22,9","90,6"],
    [42343,"43581,95833","ND","ND","0,6","109,1","22,4","87,6"],
    [42344,"43582","ND","ND","0,5","143,4","22","90"],
    [42345,"43582,04167","ND","ND","0,3","104,9","21,8","90,8"],
    [42346,"43582,08333","ND","ND","0,5","185,4","21,6","92,9"],
    [42347,"43582,125","ND","ND","0,6","193","21,3","93,7"],
    [42348,"43582,16667","ND","ND","0,4","142,8","21,2","93,9"],
    [42349,"43582,20833","ND","ND","0,6","223,8","21,2","94,1"],
    [42350,"43582,25","ND","ND","0,6","225","21","93,7"],
    [42351,"43582,29167","ND","ND","0,8","225,6","21,1","92,8"],
    [42352,"43582,33333","ND","ND","0,5","55,6","22,8","87,1"],
    [42353,"43582,375","ND","ND","1,1","136,7","24,6","77"],
    [42354,"43582,41667","ND","ND","1,1","81,9","27,1","66,6"],
    [42355,"43582,45833","ND","ND","1,5","142,3","28,2","61,4"],
    [42356,"43582,5","ND","ND","1,5","133,9","29,2","58,5"],
    [42357,"43582,54167","ND","ND","1,5","165,7","30,4","54,9"],
    [42358,"43582,58333","ND","ND","1,5","112,8","31,4","53,1"],
    [42359,"43582,625","ND","ND","1,6","137,3","31,6","52,4"],
    [42360,"43582,66667","ND","ND","1,6","110,4","30,6","55,4"],
    [42361,"43582,70833","ND","ND","1,4","123,3","30","57,6"],
    [42362,"43582,75","ND","ND","0,9","159,6","29,1","61,5"],
    [42363,"43582,79167","ND","ND","2,2","283,1","27,8","67,3"],
    [42364,"43582,83333","ND","ND","1,3","196,5","26,7","68,8"],
    [42365,"43582,875","ND","ND","0,5","156,7","25,7","67,9"],
    [42366,"43582,91667","ND","ND","1,1","100,6","25,2","71,6"],
    [42367,"43582,95833","ND","ND","0,7","168,6","24,7","72,3"],
    [42368,"43583","ND","ND","0,7","222","23,4","79,5"],
    [42369,"43583,04167","ND","ND","0,7","235,2","22,6","83,5"],
    [42370,"43583,08333","ND","ND","0,7","214,5","22,1","86"],
    [42371,"43583,125","ND","ND","1,4","241,9","21,7","86,5"],
    [42372,"43583,16667","ND","ND","0,8","191,7","21,8","85,4"],
    [42373,"43583,20833","ND","ND","0,6","216,1","21,5","86,7"],
    [42374,"43583,25","ND","ND","0,4","153,7","21,4","87"],
    [42375,"43583,29167","ND","ND","0,3","143,8","22,1","85,6"],
    [42376,"43583,33333","ND","ND","0,5","123,5","23,4","80,7"],
    [42377,"43583,375","ND","ND","0,9","141,4","24,8","77,4"],
    [42378,"43583,41667","ND","ND","1,1","136,7","26,5","71,1"],
    [42379,"43583,45833","ND","ND","1,2","131,9","27,8","64,4"],
    [42380,"43583,5","ND","ND","1,3","133,4","29","60,2"],
    [42381,"43583,54167","ND","ND","1,5","128,2","30,5","55,4"],
    [42382,"43583,58333","ND","ND","1,7","152,2","30,4","55,9"],
    [42383,"43583,625","ND","ND","2,4","274,2","29,4","59,5"],
    [42384,"43583,66667","ND","ND","2,8","316,8","28,9","58,8"],
    [42385,"43583,70833","ND","ND","3","317,1","28","61,4"],
    [42386,"43583,75","ND","ND","3,6","305,1","27,8","60,3"],
    [42387,"43583,79167","ND","ND","3,9","309","27,2","62,4"],
    [42388,"43583,83333","ND","ND","2,3","270,2","27,2","62,5"],
    [42389,"43583,875","ND","ND","0,9","155,2","26,8","65"],
    [42390,"43583,91667","ND","ND","0,9","195,1","25,7","72,4"],
    [42391,"43583,95833","ND","ND","0,6","148,6","25,2","78,4"],
    [42392,"43584","ND","ND","0,9","213,1","24,1","83,1"],
    [42393,"43584,04167","ND","ND","0,6","186,2","23,7","84,8"],
    [42394,"43584,08333","ND","ND","0,7","216,1","23,7","82,3"],
    [42395,"43584,125","ND","ND","0,5","190,7","23,8","81,9"],
    [42396,"43584,16667","ND","ND","0,7","237,2","23,3","84,2"],
    [42397,"43584,20833","ND","ND","0,5","171,4","23,2","85,4"],
    [42398,"43584,25","ND","ND","0,5","182,6","23,5","84,2"],
    [42399,"43584,29167","ND","ND","1","176","23,6","85,1"],
    [42400,"43584,33333","ND","ND","0,6","195,4","23,4","85,9"],
    [42401,"43584,375","ND","ND","0,4","157","23,9","84,1"],
    [42402,"43584,41667","ND","ND","1","164,2","24,7","81,3"],
    [42403,"43584,45833","ND","ND","1,3","175","25,7","77,3"],
    [42404,"43584,5","ND","ND","1,3","162,6","26,9","70,9"],
    [42405,"43584,54167","ND","ND","1,2","126,4","28,5","64,4"],
    [42406,"43584,58333","ND","ND","1,1","133","29,7","61,5"],
    [42407,"43584,625","ND","ND","1,7","72,4","29,5","60,6"],
    [42408,"43584,66667","ND","ND","3,1","192,6","28,2","63,9"],
    [42409,"43584,70833","ND","ND","3,9","265,4","27,3","63,6"],
    [42410,"43584,75","ND","ND","3,8","324","26,8","64,8"],
    [42411,"43584,79167","ND","ND","2,8","289,2","26,5","64,8"],
    [42412,"43584,83333","ND","ND","0,8","192,3","26,4","66,6"],
    [42413,"43584,875","ND","ND","0,7","211,8","25,3","74,9"],
    [42414,"43584,91667","ND","ND","0,7","213,4","24,9","78"],
    [42415,"43584,95833","ND","ND","0,5","172,6","24,3","80,4"],
    [42416,"43585","ND","ND","0,8","229,5","24,2","79,3"],
    [42417,"43585,04167","ND","ND","0,7","133,4","23,8","81,7"],
    [42418,"43585,08333","ND","ND","0,7","144,4","23,1","85,2"],
    [42419,"43585,125","ND","ND","0,7","208,9","22,3","88,5"],
    [42420,"43585,16667","ND","ND","0,8","241,8","21,9","89,9"],
    [42421,"43585,20833","ND","ND","0,8","236,7","22,2","88,7"],
    [42422,"43585,25","ND","ND","0,4","123,3","21,9","89,2"],
    [42423,"43585,29167","ND","ND","0,7","197,3","22,3","87,5"],
    [42424,"43585,33333","ND","ND","0,7","175,6","24","81"],
    [42425,"43585,375","ND","ND","1","142,5","25,4","74,2"],
    [42426,"43585,41667","ND","ND","1,2","123,6","26,7","70,5"],
    [42427,"43585,45833","ND","ND","1,1","128,8","28,1","65,8"],
    [42428,"43585,5","ND","ND","1,5","132,7","29,5","60,2"],
    [42429,"43585,54167","ND","ND","1,7","179,2","30,4","56,3"],
    [42430,"43585,58333","ND","ND","1,6","139,7","31","53,9"],
    [42431,"43585,625","ND","ND","1,3","143,1","31,3","52,4"],
    [42432,"43585,66667","ND","ND","3,5","309,5","30,4","56,1"],
    [42433,"43585,70833","ND","ND","4,8","310,2","28,9","57,8"],
    [42434,"43585,75","ND","ND","4,2","310,3","27,9","58,9"],
    [42435,"43585,79167","ND","ND","2,3","262,5","27,3","60,6"],
    [42436,"43585,83333","ND","ND","1,1","173,9","27,4","61,1"],
    [42437,"43585,875","ND","ND","0,7","180,3","26,5","65,2"],
    [42438,"43585,91667","ND","ND","1,1","158,9","26,3","64,2"],
    [42439,"43585,95833","ND","ND","0,7","144,7","25,6","71"],
    [42440,"43586","ND","ND","0,9","183,1","24,3","78,5"],
    [42441,"43586,04167","ND","ND","0,9","224,5","23","82,4"],
    [42442,"43586,08333","ND","ND","0,7","231,1","22,5","84,5"],
    [42443,"43586,125","ND","ND","0,8","238","21,9","86,3"],
    [42444,"43586,16667","ND","ND","0,5","212,4","22,2","85,9"],
    [42445,"43586,20833","ND","ND","0,7","192,7","22","86,2"],
    [42446,"43586,25","ND","ND","0,7","212,8","21,9","85,9"],
    [42447,"43586,29167","ND","ND","0,6","166,4","22,1","85,5"],
    [42448,"43586,33333","ND","ND","0,6","118,6","22,8","85,6"],
    [42449,"43586,375","ND","ND","0,5","114,2","24,3","79,3"],
    [42450,"43586,41667","ND","ND","0,8","126,4","26","69,8"],
    [42451,"43586,45833","ND","ND","1,2","116,9","27,3","63,9"],
    [42452,"43586,5","ND","ND","1,1","132,2","28,1","61"],
    [42453,"43586,54167","ND","ND","1,1","149,5","29,2","57,9"],
    [42454,"43586,58333","ND","ND","1,1","117,1","30,1","56,2"],
    [42455,"43586,625","ND","ND","1,2","135,9","30,6","54,6"],
    [42456,"43586,66667","ND","ND","1,4","159","30,7","54,1"],
    [42457,"43586,70833","ND","ND","3,7","321,6","29,5","57"],
    [42458,"43586,75","ND","ND","4,7","312,8","28","60,9"],
    [42459,"43586,79167","ND","ND","3,6","301","27,5","61,4"],
    [42460,"43586,83333","ND","ND","1,1","225,5","27","62,7"],
    [42461,"43586,875","ND","ND","0,7","235,2","25,8","67,6"],
    [42462,"43586,91667","ND","ND","0,7","222","25","72,4"],
    [42463,"43586,95833","ND","ND","0,4","178,2","23,9","77,7"],
    [42464,"43587","ND","ND","0,7","229,9","23,1","81,8"],
    [42465,"43587,04167","ND","ND","1","225,2","22,5","83,6"],
    [42466,"43587,08333","ND","ND","0,6","214,4","22,2","84,4"],
    [42467,"43587,125","ND","ND","0,6","178,2","21,8","85,7"],
    [42468,"43587,16667","ND","ND","0,6","211","21,6","86,2"],
    [42469,"43587,20833","ND","ND","0,6","232,1","21,6","86,6"],
    [42470,"43587,25","ND","ND","0,5","187,5","21,4","87,2"],
    [42471,"43587,29167","ND","ND","0,7","220,4","21,2","86,8"],
    [42472,"43587,33333","ND","ND","0,7","188","23,1","80,8"],
    [42473,"43587,375","ND","ND","0,7","157,4","25,4","71,7"],
    [42474,"43587,41667","ND","ND","1,3","124,3","25,8","71"],
    [42475,"43587,45833","ND","ND","1","122,7","26,9","68"],
    [42476,"43587,5","ND","ND","1,3","138,2","28,5","62,3"],
    [42477,"43587,54167","ND","ND","1,2","108,1","29,4","59"],
    [42478,"43587,58333","ND","ND","1,5","158,8","31","53,4"],
    [42479,"43587,625","ND","ND","1,9","127,1","31,7","49,7"],
    [42480,"43587,66667","ND","ND","1,7","195,4","31,7","47,9"],
    [42481,"43587,70833","ND","ND","1,7","263,3","31,4","50,1"],
    [42482,"43587,75","ND","ND","3,1","312,2","29,2","55"],
    [42483,"43587,79167","ND","ND","1,8","249,2","28,2","58,1"],
    [42484,"43587,83333","ND","ND","1,3","206,7","27,7","61,3"],
    [42485,"43587,875","ND","ND","0,8","192,8","27,3","63"],
    [42486,"43587,91667","ND","ND","0,8","220,8","26,7","66"],
    [42487,"43587,95833","ND","ND","0,8","242,7","25,5","70,7"],
    [42488,"43588","ND","ND","0,7","173,9","25,9","69"],
    [42489,"43588,04167","ND","ND","0,6","223,9","25","73,9"],
    [42490,"43588,08333","ND","ND","0,6","192,9","24,8","75,6"],
    [42491,"43588,125","ND","ND","1","168,3","24,8","76,1"],
    [42492,"43588,16667","ND","ND","1","204,4","23,6","82,4"],
    [42493,"43588,20833","ND","ND","0,7","238,3","23,4","83,7"],
    [42494,"43588,25","ND","ND","0,5","175,1","23,4","83,8"],
    [42495,"43588,29167","ND","ND","0,7","244,2","23,3","84,8"],
    [42496,"43588,33333","ND","ND","0,5","142,3","24,4","81,1"],
    [42497,"43588,375","ND","ND","0,8","109,9","25,8","74,6"],
    [42498,"43588,41667","ND","ND","1,1","99,5","26","73,6"],
    [42499,"43588,45833","ND","ND","0,9","110,3","27","68,5"],
    [42500,"43588,5","ND","ND","1,4","151,9","27,6","64,4"],
    [42501,"43588,54167","ND","ND","1,2","190,9","28,5","61,8"],
    [42502,"43588,58333","ND","ND","1,2","171,3","29,4","58,2"],
    [42503,"43588,625","ND","ND","1,4","222,5","29,8","55,1"],
    [42504,"43588,66667","ND","ND","2,2","239,2","29,1","57,6"],
    [42505,"43588,70833","ND","ND","3,6","310,1","28,1","59,7"],
    [42506,"43588,75","ND","ND","3,2","313,4","27,5","60,4"],
    [42507,"43588,79167","ND","ND","0,8","240,6","27,2","63"],
    [42508,"43588,83333","ND","ND","1","232,2","26,4","66,6"],
    [42509,"43588,875","ND","ND","0,9","181,1","26,2","67,1"],
    [42510,"43588,91667","ND","ND","0,9","145,4","26,5","65,9"],
    [42511,"43588,95833","ND","ND","1","173,7","26,2","66,9"],
    [42512,"43589","ND","ND","1","147,7","25,5","74,4"],
    [42513,"43589,04167","ND","ND","1","143,5","24,4","81,2"],
    [42514,"43589,08333","ND","ND","0,9","153,8","24","82,2"],
    [42515,"43589,125","ND","ND","0,8","173","23,6","83,1"],
    [42516,"43589,16667","ND","ND","1,1","235,7","23,1","84,5"],
    [42517,"43589,20833","ND","ND","0,9","225,8","23,1","82,5"],
    [42518,"43589,25","ND","ND","0,7","205,7","23","85,7"],
    [42519,"43589,29167","ND","ND","0,4","148,2","23,2","85,4"],
    [42520,"43589,33333","ND","ND","0,8","219,2","23,7","84,9"],
    [42521,"43589,375","ND","ND","1","198,8","24,6","80,7"],
    [42522,"43589,41667","ND","ND","1,5","133,5","26,4","70,1"],
    [42523,"43589,45833","ND","ND","1,3","162,8","27,8","63,8"],
    [42524,"43589,5","ND","ND","1,2","151,6","29","58,9"],
    [42525,"43589,54167","ND","ND","1,7","157,4","30,4","53,8"],
    [42526,"43589,58333","ND","ND","1,6","171,9","30,8","52,4"],
    [42527,"43589,625","ND","ND","1,3","149,2","30,5","53,6"],
    [42528,"43589,66667","ND","ND","1,9","233,8","29,5","57,2"],
    [42529,"43589,70833","ND","ND","2,8","291,3","28,3","62"],
    [42530,"43589,75","ND","ND","2,8","285,9","27,6","62,9"],
    [42531,"43589,79167","ND","ND","2,1","258,2","27,2","63,4"],
    [42532,"43589,83333","ND","ND","2,8","281,2","27,1","63,1"],
    [42533,"43589,875","ND","ND","1,5","249,4","26,2","68,2"],
    [42534,"43589,91667","ND","ND","1,1","213,2","25,9","68,8"],
    [42535,"43589,95833","ND","ND","0,8","214,3","25,5","72,2"],
    [42536,"43590","ND","ND","0,8","200,4","24,6","77,6"],
    [42537,"43590,04167","ND","ND","0,8","224,7","24,1","81,6"],
    [42538,"43590,08333","ND","ND","0,8","252,7","23,2","89"],
    [42539,"43590,125","ND","ND","0,7","202","22,9","90,1"],
    [42540,"43590,16667","ND","ND","0,5","156,9","23","88,1"],
    [42541,"43590,20833","ND","ND","0,7","240,6","22,6","89,3"],
    [42542,"43590,25","ND","ND","0,5","203,1","22,2","90"],
    [42543,"43590,29167","ND","ND","0,6","196,5","22,2","89,7"],
    [42544,"43590,33333","ND","ND","0,7","133,2","23,4","85,8"],
    [42545,"43590,375","ND","ND","0,6","101,2","24,4","81,1"],
    [42546,"43590,41667","ND","ND","0,7","190,9","25,7","74,8"],
    [42547,"43590,45833","ND","ND","1,2","134,2","28","65,1"],
    [42548,"43590,5","ND","ND","1,4","106,8","29,6","58,3"],
    [42549,"43590,54167","ND","ND","1,4","120,2","29,9","58"],
    [42550,"43590,58333","ND","ND","2,1","139","30,9","55,8"],
    [42551,"43590,625","ND","ND","1,5","123,6","32,1","52,4"],
    [42552,"43590,66667","ND","ND","3,8","306,5","31,5","52,1"],
    [42553,"43590,70833","ND","ND","4,3","315,3","30,1","55,2"],
    [42554,"43590,75","ND","ND","4,7","317,2","28,5","59,4"],
    [42555,"43590,79167","ND","ND","5,1","307,6","27,3","62"],
    [42556,"43590,83333","ND","ND","4,1","303,8","27,7","60,5"],
    [42557,"43590,875","ND","ND","1,1","180,9","27,2","62,6"],
    [42558,"43590,91667","ND","ND","0,9","160,5","26,6","66,5"],
    [42559,"43590,95833","ND","ND","1,1","157,5","25,8","73,9"],
    [42560,"43591","ND","ND","0,7","216,4","25","76,8"],
    [42561,"43591,04167","ND","ND","0,8","210,6","24,7","77,5"],
    [42562,"43591,08333","ND","ND","1","137,3","24,7","77,8"],
    [42563,"43591,125","ND","ND","1","133,9","24,3","79,8"],
    [42564,"43591,16667","ND","ND","1","214,3","23,8","82,3"],
    [42565,"43591,20833","ND","ND","0,5","193,5","23,7","83,2"],
    [42566,"43591,25","ND","ND","0,7","203,8","23,6","82,3"],
    [42567,"43591,29167","ND","ND","0,9","92,4","23,5","83,3"],
    [42568,"43591,33333","ND","ND","0,6","182,4","24","82,9"],
    [42569,"43591,375","ND","ND","0,8","133,6","25,8","74,1"],
    [42570,"43591,41667","ND","ND","1,3","157,1","26,6","69,3"],
    [42571,"43591,45833","ND","ND","1","146,8","28,1","64,3"],
    [42572,"43591,5","ND","ND","1,5","117,2","29,5","58,9"],
    [42573,"43591,54167","ND","ND","1,4","104,3","30,6","55,5"],
    [42574,"43591,58333","ND","ND","1,6","149","30,8","55,6"],
    [42575,"43591,625","ND","ND","1,6","179,4","30,4","57,2"],
    [42576,"43591,66667","ND","ND","1,9","261,5","29,6","58,8"],
    [42577,"43591,70833","ND","ND","2,9","318,4","29,1","60"],
    [42578,"43591,75","ND","ND","4","316,6","27,9","62,3"],
    [42579,"43591,79167","ND","ND","3,6","323,5","27,2","62,7"],
    [42580,"43591,83333","ND","ND","2","252,1","27","63,5"],
    [42581,"43591,875","ND","ND","0,6","191,9","26,5","66,6"],
    [42582,"43591,91667","ND","ND","0,7","180,4","26,2","70,3"],
    [42583,"43591,95833","ND","ND","0,8","219,2","25,6","73,2"],
    [42584,"43592","ND","ND","0,8","240,8","24,9","75,9"],
    [42585,"43592,04167","ND","ND","0,8","138,9","24,6","78,1"],
    [42586,"43592,08333","ND","ND","0,7","163,7","24,5","78,9"],
    [42587,"43592,125","ND","ND","1,3","154,8","24,2","82"],
    [42588,"43592,16667","ND","ND","0,4","184,9","23,7","84,5"],
    [42589,"43592,20833","ND","ND","1","245,2","23","87,4"],
    [42590,"43592,25","ND","ND","0,9","222","23,1","86,9"],
    [42591,"43592,29167","ND","ND","0,7","196,3","23,6","85"],
    [42592,"43592,33333","ND","ND","0,7","144,6","24,6","80,8"],
    [42593,"43592,375","ND","ND","0,9","138,4","25,9","76,5"],
    [42594,"43592,41667","ND","ND","1,2","122,6","26,9","71,6"],
    [42595,"43592,45833","ND","ND","1,2","93,9","27,8","68,1"],
    [42596,"43592,5","ND","ND","1","134,3","28,2","66,5"],
    [42597,"43592,54167","ND","ND","1,7","164,2","28,6","65"],
    [42598,"43592,58333","ND","ND","2","215,2","29","60,3"],
    [42599,"43592,625","ND","ND","3,3","295,9","29,2","59"],
    [42600,"43592,66667","ND","ND","5,2","319,6","28,8","58,4"],
    [42601,"43592,70833","ND","ND","4,7","320,4","27,5","61,8"],
    [42602,"43592,75","ND","ND","4,6","312,8","27,2","61,3"],
    [42603,"43592,79167","ND","ND","3,7","299,9","26,8","61,9"],
    [42604,"43592,83333","ND","ND","0,7","206,2","26,3","64,6"],
    [42605,"43592,875","ND","ND","0,6","174,3","25,7","67,2"],
    [42606,"43592,91667","ND","ND","1,2","151,5","25,4","73,1"],
    [42607,"43592,95833","ND","ND","0,9","175,1","24,5","77,3"],
    [42608,"43593","ND","ND","1","233,7","23,5","81"],
    [42609,"43593,04167","ND","ND","0,6","201,6","23","83,1"],
    [42610,"43593,08333","ND","ND","0,6","173,1","22,9","84"],
    [42611,"43593,125","ND","ND","0,9","225,8","22,9","83,5"],
    [42612,"43593,16667","ND","ND","0,7","193,3","23,3","81,3"],
    [42613,"43593,20833","ND","ND","0,6","148,4","23,3","82,3"],
    [42614,"43593,25","ND","ND","0,8","114,4","22,8","85,4"],
    [42615,"43593,29167","ND","ND","0,7","193,7","22,7","85,6"],
    [42616,"43593,33333","ND","ND","0,7","189,7","23,8","82,7"],
    [42617,"43593,375","ND","ND","0,8","135,8","25,2","75,5"],
    [42618,"43593,41667","ND","ND","0,8","151,5","25,7","73,9"],
    [42619,"43593,45833","ND","ND","0,9","176,1","27,6","65,3"],
    [42620,"43593,5","ND","ND","1,2","144,7","28","62,9"],
    [42621,"43593,54167","ND","ND","1,2","128,8","28,6","61,8"],
    [42622,"43593,58333","ND","ND","1,1","84,1","28,5","62"],
    [42623,"43593,625","ND","ND","1,2","165,6","29","60,4"],
    [42624,"43593,66667","ND","ND","4,1","289,7","28","60"],
    [42625,"43593,70833","ND","ND","3,8","325,2","27","62"],
    [42626,"43593,75","ND","ND","3,9","311,5","26,7","59,5"],
    [42627,"43593,79167","ND","ND","3,4","308,8","26","62,1"],
    [42628,"43593,83333","ND","ND","1,1","129,4","25,5","67"],
    [42629,"43593,875","ND","ND","1,2","135,3","24,1","74,5"],
    [42630,"43593,91667","ND","ND","1,1","123,8","23,4","79"],
    [42631,"43593,95833","ND","ND","0,8","103,9","22,9","83,4"],
    [42632,"43594","ND","ND","0,7","155,1","22,7","84,9"],
    [42633,"43594,04167","ND","ND","0,7","199","22,7","84,5"],
    [42634,"43594,08333","ND","ND","0,4","155,4","22,9","83,3"],
    [42635,"43594,125","ND","ND","1,1","125,8","22,6","84,6"],
    [42636,"43594,16667","ND","ND","0,6","126,1","21,7","91,5"],
    [42637,"43594,20833","ND","ND","0,5","146","21,6","94"],
    [42638,"43594,25","ND","ND","0,7","64,6","21,7","94,9"],
    [42639,"43594,29167","ND","ND","0,9","77,3","21,4","95,4"],
    [42640,"43594,33333","ND","ND","1","118,9","21,5","95,5"],
    [42641,"43594,375","ND","ND","1,4","152,8","21,4","96"],
    [42642,"43594,41667","ND","ND","1,2","176,9","21,8","96,3"],
    [42643,"43594,45833","ND","ND","1,5","131,2","23,5","90,3"],
    [42644,"43594,5","ND","ND","1,1","135,9","24,6","79,9"],
    [42645,"43594,54167","ND","ND","1,2","219,5","26,3","72,3"],
    [42646,"43594,58333","ND","ND","1,8","148,5","26,3","71,9"],
    [42647,"43594,625","ND","ND","1,5","161,8","24,9","77,5"],
    [42648,"43594,66667","ND","ND","2,9","215,4","21,2","92,3"],
    [42649,"43594,70833","ND","ND","0,9","160,9","20,7","98,9"],
    [42650,"43594,75","ND","ND","0,7","214,3","20,8","99,1"],
    [42651,"43594,79167","ND","ND","0,5","188,7","20,9","98,9"],
    [42652,"43594,83333","ND","ND","0,6","207,1","21","98,6"],
    [42653,"43594,875","ND","ND","0,7","140,3","21,3","98,3"],
    [42654,"43594,91667","ND","ND","0,8","156,9","21,1","98,3"],
    [42655,"43594,95833","ND","ND","0,5","147,1","21,1","98,4"],
    [42656,"43595","ND","ND","0,6","216,5","20,9","98,5"],
    [42657,"43595,04167","ND","ND","0,4","188,5","20,6","98,5"],
    [42658,"43595,08333","ND","ND","0,5","89,1","20,7","98,6"],
    [42659,"43595,125","ND","ND","0,2","79,4","20,7","98,6"],
    [42660,"43595,16667","ND","ND","0,4","162,5","20,4","98,5"],
    [42661,"43595,20833","ND","ND","0,5","178,5","20,5","98,4"],
    [42662,"43595,25","ND","ND","0,7","227,4","20,2","98,2"],
    [42663,"43595,29167","ND","ND","0,5","218,9","20,4","97,8"],
    [42664,"43595,33333","ND","ND","0,6","213","21,2","96,6"],
    [42665,"43595,375","ND","ND","0,4","129,2","22,3","93,2"],
    [42666,"43595,41667","ND","ND","1","128","23,6","84,4"],
    [42667,"43595,45833","ND","ND","1,1","108,9","24,8","78"],
    [42668,"43595,5","ND","ND","1,1","147,9","26,2","71,9"],
    [42669,"43595,54167","ND","ND","1","96,8","26,9","67"],
    [42670,"43595,58333","ND","ND","1,1","181,2","27,5","66,4"],
    [42671,"43595,625","ND","ND","0,9","131,4","28,3","62,8"],
    [42672,"43595,66667","ND","ND","1,3","191,3","27,7","62,8"],
    [42673,"43595,70833","ND","ND","3,7","279,7","23,5","78,2"],
    [42674,"43595,75","ND","ND","1,5","203,4","21","94,9"],
    [42675,"43595,79167","ND","ND","1,2","190,7","21,4","93,8"],
    [42676,"43595,83333","ND","ND","0,7","163,9","21,9","89,9"],
    [42677,"43595,875","ND","ND","0,9","219,6","21,6","89,9"],
    [42678,"43595,91667","ND","ND","0,8","236","21,7","89,2"],
    [42679,"43595,95833","ND","ND","0,9","237,6","21,6","90"],
    [42680,"43596","ND","ND","1,2","242,9","21,3","90"],
    [42681,"43596,04167","ND","ND","0,5","177,6","21,4","89,4"],
    [42682,"43596,08333","ND","ND","0,8","214,6","21,2","90,4"],
    [42683,"43596,125","ND","ND","0,9","239,8","20,8","90,9"],
    [42684,"43596,16667","ND","ND","0,8","228,6","20,5","91"],
    [42685,"43596,20833","ND","ND","0,5","200,5","20,6","91,1"],
    [42686,"43596,25","ND","ND","0,8","216,2","20,5","92,1"],
    [42687,"43596,29167","ND","ND","0,6","211,3","20,6","91,9"],
    [42688,"43596,33333","ND","ND","0,4","180,9","22","89,8"],
    [42689,"43596,375","ND","ND","0,8","126,7","23,8","83"],
    [42690,"43596,41667","ND","ND","1,3","118,6","26,1","73,3"],
    [42691,"43596,45833","ND","ND","1,2","127,3","27,5","68,2"],
    [42692,"43596,5","ND","ND","1,5","143","27,9","65,3"],
    [42693,"43596,54167","ND","ND","1,4","149,4","29","60,5"],
    [42694,"43596,58333","ND","ND","1,5","120,8","29,9","57,1"],
    [42695,"43596,625","ND","ND","2,3","256,4","29,1","57,8"],
    [42696,"43596,66667","ND","ND","3,5","314,7","27,3","65,6"],
    [42697,"43596,70833","ND","ND","3,5","327","26,9","67,4"],
    [42698,"43596,75","ND","ND","3,8","314","26,6","65,6"],
    [42699,"43596,79167","ND","ND","4","309,6","26,3","65"],
    [42700,"43596,83333","ND","ND","3,1","309,8","26,2","65,5"],
    [42701,"43596,875","ND","ND","0,8","154,2","25,5","71,4"],
    [42702,"43596,91667","ND","ND","0,8","211,7","24,1","80,7"],
    [42703,"43596,95833","ND","ND","0,7","232,5","23,6","83,2"],
    [42704,"43597","ND","ND","0,6","146,1","23,5","84,1"],
    [42705,"43597,04167","ND","ND","0,6","172,6","23,4","85,5"],
    [42706,"43597,08333","ND","ND","0,7","181,6","23","87,5"],
    [42707,"43597,125","ND","ND","0,8","165,9","23","86,6"],
    [42708,"43597,16667","ND","ND","0,4","140,5","22,7","87,5"],
    [42709,"43597,20833","ND","ND","0,5","187,6","22,6","88,1"],
    [42710,"43597,25","ND","ND","0,5","193,6","22,5","89,6"],
    [42711,"43597,29167","ND","ND","0,8","72,8","22,5","90,5"],
    [42712,"43597,33333","ND","ND","0,7","143","22,4","92,7"],
    [42713,"43597,375","ND","ND","0,7","134,5","23,4","90,2"],
    [42714,"43597,41667","ND","ND","0,7","159,3","24,7","82,6"],
    [42715,"43597,45833","ND","ND","1","130,2","26,1","75"],
    [42716,"43597,5","ND","ND","1,4","112,5","27,2","69,1"],
    [42717,"43597,54167","ND","ND","2,2","75,3","28,6","59,2"],
    [42718,"43597,58333","ND","ND","2","104,9","28,4","60,3"],
    [42719,"43597,625","ND","ND","1,9","117,8","29,2","57,5"],
    [42720,"43597,66667","ND","ND","2,2","98,3","29,8","56,2"],
    [42721,"43597,70833","ND","ND","2,7","182","29,2","57,5"],
    [42722,"43597,75","ND","ND","3,3","325,7","27,5","61,6"],
    [42723,"43597,79167","ND","ND","1,8","267,3","26,8","64,3"],
    [42724,"43597,83333","ND","ND","1","202,2","26,3","68,7"],
    [42725,"43597,875","ND","ND","0,8","227","25","76"],
    [42726,"43597,91667","ND","ND","1,3","248,6","23,8","79,6"],
    [42727,"43597,95833","ND","ND","0,9","226,8","23,7","79,6"],
    [42728,"43598","ND","ND","0,5","215,2","23,3","82,6"],
    [42729,"43598,04167","ND","ND","0,7","219,7","22,7","84,8"],
    [42730,"43598,08333","ND","ND","0,5","175,5","22,9","84,6"],
    [42731,"43598,125","ND","ND","0,4","135,3","23,2","84,9"],
    [42732,"43598,16667","ND","ND","0,4","196,1","22,8","87,1"],
    [42733,"43598,20833","ND","ND","0,4","146,8","22,9","87,7"],
    [42734,"43598,25","ND","ND","1","85,6","22,7","87,5"],
    [42735,"43598,29167","ND","ND","0,5","145,1","22,2","88"],
    [42736,"43598,33333","ND","ND","0,6","167","23,1","86,7"],
    [42737,"43598,375","ND","ND","0,6","72,5","24,4","80,4"],
    [42738,"43598,41667","ND","ND","1,1","82,7","24,1","83"],
    [42739,"43598,45833","ND","ND","1,5","66,7","23,7","87"],
    [42740,"43598,5","ND","ND","0,8","132,7","24,3","84"],
    [42741,"43598,54167","ND","ND","0,8","112,2","24,7","81,7"],
    [42742,"43598,58333","ND","ND","0,8","104,7","24,7","81,5"],
    [42743,"43598,625","ND","ND","0,9","124,2","25,9","76,4"],
    [42744,"43598,66667","ND","ND","1","114,4","26,1","72,7"],
    [42745,"43598,70833","ND","ND","3,4","311,5","25,7","69,8"],
    [42746,"43598,75","ND","ND","3,4","307,6","25,3","65,6"],
    [42747,"43598,79167","ND","ND","3,5","316,6","24,7","66,3"],
    [42748,"43598,83333","ND","ND","1,9","261,4","24,5","67,7"],
    [42749,"43598,875","ND","ND","0,7","167,2","23,7","73,5"],
    [42750,"43598,91667","ND","ND","0,6","206,9","23","79,7"],
    [42751,"43598,95833","ND","ND","0,5","189,2","22,3","83,9"],
    [42752,"43599","ND","ND","0,7","203,7","21,8","85,9"],
    [42753,"43599,04167","ND","ND","0,6","178,4","21,8","87,1"],
    [42754,"43599,08333","ND","ND","0,6","183","21,9","86,8"],
    [42755,"43599,125","ND","ND","0,7","227,7","21,6","88,3"],
    [42756,"43599,16667","ND","ND","0,4","140,2","21,8","88,9"],
    [42757,"43599,20833","ND","ND","0,6","189,7","21,7","89,7"],
    [42758,"43599,25","ND","ND","0,4","170,5","21,4","92,8"],
    [42759,"43599,29167","ND","ND","0,5","201,1","21,3","94,1"],
    [42760,"43599,33333","ND","ND","0,9","180,8","22,1","92,3"],
    [42761,"43599,375","ND","ND","1,6","159,6","23,5","85,3"],
    [42762,"43599,41667","ND","ND","2,1","158,6","25","76,9"],
    [42763,"43599,45833","ND","ND","1,5","139,7","26,7","71,3"],
    [42764,"43599,5","ND","9,295","1,5","127,2","27,9","64,5"],
    [42765,"43599,54167","ND","4,006","1,6","133,2","28,9","60,5"],
    [42766,"43599,58333","ND","3,535","1,4","96,2","29,7","56,8"],
    [42767,"43599,625","27,3","3,482","1,6","116,4","30,4","54"],
    [42768,"43599,66667","33,5","2,933","1,5","124,9","30,2","53,9"],
    [42769,"43599,70833","53,3","4,137","1,8","178","28,3","63,6"],
    [42770,"43599,75","70,7","4,032","2,8","307,5","27,2","63,4"],
    [42771,"43599,79167","ND","3,639","1,3","248,5","26,7","61,1"],
    [42772,"43599,83333","16,9","3,666","1,3","192,1","26,3","61,9"],
    [42773,"43599,875","18","3,116","1,9","231,1","25,4","65,9"],
    [42774,"43599,91667","30,8","2,697","1,2","234,5","24,3","65,8"],
    [42775,"43599,95833","24,1","2,304","1","235,2","23,8","72,3"],
    [42776,"43600","29,2","2,985","0,6","177,6","23,5","77"],
    [42777,"43600,04167","36,1","3,797","0,4","171,7","22,6","81,4"],
    [42778,"43600,08333","15,7","3,692","0,5","222","22,4","83,3"],
    [42779,"43600,125","16,7","3,194","0,8","225,3","22,4","84,1"],
    [42780,"43600,16667","18,3","3,351","0,5","187","22,4","84,3"],
    [42781,"43600,20833","23,1","3,43","0,6","209,5","22,2","85,2"],
    [42782,"43600,25","25,6","3,063","0,8","217","22,1","85,3"],
    [42783,"43600,29167","40,5","3,954","0,6","228,2","22,1","85,5"],
    [42784,"43600,33333","ND","3,011","0,7","225,4","22,9","84,1"],
    [42785,"43600,375","61","3,98","0,9","117,6","24,3","78,4"],
    [42786,"43600,41667","85","5,106","1,2","124,2","25,8","71,9"],
    [42787,"43600,45833","87,4","6,389","1,5","136,7","27","66,5"],
    [42788,"43600,5","ND","5,315","1,8","130,8","27,5","63,7"],
    [42789,"43600,54167","49,9","4,608","1,4","160,1","28,3","62,5"],
    [42790,"43600,58333","40,1","3,875","1,1","143,4","29,6","57,7"],
    [42791,"43600,625","39,4","3,901","1,3","101,9","30","54,7"],
    [42792,"43600,66667","54,5","3,744","2,8","296,9","28,7","57,3"],
    [42793,"43600,70833","24,4","3,221","4","322,2","27,8","60,4"],
    [42794,"43600,75","12,2","2,985","4,8","313,6","26,6","62,8"],
    [42795,"43600,79167","15,2","2,906","3","244,6","24,6","73"],
    [42796,"43600,83333","38,7","2,592","1,4","213,9","22,8","84,9"],
    [42797,"43600,875","14,2","2,828","1,1","183,6","22,1","87,2"],
    [42798,"43600,91667","26,4","3,142","1,1","137,2","21,7","89,6"],
    [42799,"43600,95833","14,4","3,247","0,6","152,9","21,3","92"],
    [42800,"43601","12,7","2,933","0,6","181,3","21,2","93,4"],
    [42801,"43601,04167","16,1","2,461","1,1","235,5","20,5","93,5"],
    [42802,"43601,08333","4,7","2,304","1,5","227,3","20","92,5"],
    [42803,"43601,125","5,9","4,373","0,3","129,7","19,8","92,4"],
    [42804,"43601,16667","14,6","3,456","0,7","234,6","19,3","93,3"],
    [42805,"43601,20833","13,2","3,823","0,8","228,3","19,3","93,2"],
    [42806,"43601,25","22,7","4,163","0,5","178,3","19,6","92,4"],
    [42807,"43601,29167","65,2","3,561","0,5","171,8","20,1","92,3"],
    [42808,"43601,33333","77,8","4,87","0,4","133,5","21,1","91,1"],
    [42809,"43601,375","71,7","3,927","0,8","189,8","23,1","83,7"],
    [42810,"43601,41667","56,2","3,273","0,9","120,3","25,9","68,5"],
    [42811,"43601,45833","48,4","3,954","1,2","118,9","27,3","64,2"],
    [42812,"43601,5","70,3","4,242","1,7","96,9","28,3","61,2"],
    [42813,"43601,54167","49,4","4,922","1,5","169,6","29,6","58,4"],
    [42814,"43601,58333","50,5","5,42","2,5","215,8","30","55,9"],
    [42815,"43601,625","22,4","3,221","4,5","310","27,5","61,6"],
    [42816,"43601,66667","15,9","2,435","3","241,4","23,7","77,2"],
    [42817,"43601,70833","13,6","2,409","2","232,9","22,8","77,1"],
    [42818,"43601,75","18,1","2,121","1,6","231,5","21,9","86,2"],
    [42819,"43601,79167","24,1","2,854","0,9","163,3","22,2","87,7"],
    [42820,"43601,83333","35","3,221","0,8","178","22","90,7"],
    [42821,"43601,875","23,3","2,383","0,8","195,8","21,6","92,7"],
    [42822,"43601,91667","24,5","2,566","1,1","233,4","21,4","93,7"],
    [42823,"43601,95833","20,9","2,173","1","200,9","21,3","93,4"],
    [42824,"43602","23,3","3,273","0,4","192,7","21,2","93,1"],
    [42825,"43602,04167","34,2","2,959","0,5","191,1","20,9","93,8"],
    [42826,"43602,08333","19,2","1,911","0,7","223,4","20,9","93,8"],
    [42827,"43602,125","16,2","2,409","0,6","198,5","20,9","93,7"],
    [42828,"43602,16667","20,1","3,797","0,3","133,9","21","94"],
    [42829,"43602,20833","23,5","2,409","0,7","222,8","20,8","94,3"],
    [42830,"43602,25","26,3","3,901","0,3","174,1","20,8","94,1"],
    [42831,"43602,29167","49,1","3,142","0,5","217,7","21,2","93,9"],
    [42832,"43602,33333","78,7","3,09","0,6","136,4","21,9","92,8"],
    [42833,"43602,375","66","2,88","0,8","118,9","22,3","90,3"],
    [42834,"43602,41667","46,9","2,435","1","153,3","23,6","84,8"],
    [42835,"43602,45833","39","2,435","1,3","136,9","25,1","78,1"],
    [42836,"43602,5","44,1","2,592","1,3","132,7","25,9","74,1"],
    [42837,"43602,54167","53,6","2,383","1","168,9","26,7","70,2"],
    [42838,"43602,58333","48,6","2,802","0,9","132,2","26,6","70,6"],
    [42839,"43602,625","48,4","2,906","2","196,4","23,8","81,2"],
    [42840,"43602,66667","33,3","2,304","1,1","182,7","22,4","91,5"],
    [42841,"43602,70833","26,5","2,33","0,9","233,3","22,8","92,7"],
    [42842,"43602,75","24,1","2,252","0,8","221,4","23","92,4"],
    [42843,"43602,79167","26,7","2,461","1","239,1","22,7","92,7"],
    [42844,"43602,83333","28,3","2,121","1","225,4","22,1","92,2"],
    [42845,"43602,875","36,4","2,54","0,9","245,2","22,1","91,2"],
    [42846,"43602,91667","44,2","2,147","1,2","229,3","21,9","91"],
    [42847,"43602,95833","33,3","2,095","0,9","231,1","21,7","90,8"],
    [42848,"43603","23,9","2,33","0,7","201","21,4","90,5"],
    [42849,"43603,04167","23,6","2,33","0,7","222,9","21,3","90,9"],
    [42850,"43603,08333","23,6","2,461","0,6","213","21","91,7"],
    [42851,"43603,125","23,5","2,697","0,6","215,7","20,9","92,2"],
    [42852,"43603,16667","22,4","2,33","0,6","197,3","21,1","92,4"],
    [42853,"43603,20833","28,5","2,304","0,5","186,8","21,1","93,1"],
    [42854,"43603,25","33,8","2,644","0,6","195,9","21,1","93,4"],
    [42855,"43603,29167","49,6","2,592","0,6","214,5","21,1","93,6"],
    [42856,"43603,33333","53,6","2,514","0,7","174,3","22","91,7"],
    [42857,"43603,375","59,5","2,435","1,4","161,7","22,9","87"],
    [42858,"43603,41667","48,3","2,775","2,1","156,5","23,1","84,5"],
    [42859,"43603,45833","18,4","2,749","0,9","141,7","24,8","77"],
    [42860,"43603,5","21,4","2,487","1,4","102,6","26","73"],
    [42861,"43603,54167","28,2","2,802","1,4","118,7","26,5","68,5"],
    [42862,"43603,58333","19","2,933","1,1","213,2","27,7","61,4"],
    [42863,"43603,625","24,1","2,566","1,3","148,9","28,5","58,1"],
    [42864,"43603,66667","29,7","2,985","1,6","197,4","28,2","60,2"],
    [42865,"43603,70833","41,1","2,933","1,8","163,3","25,2","73,7"],
    [42866,"43603,75","21,6","2,671","2,6","302,4","25,1","70,2"],
    [42867,"43603,79167","5,5","2,461","1,4","243,8","25,2","67,7"],
    [42868,"43603,83333","13,3","2,461","0,8","121","24,9","71,7"],
    [42869,"43603,875","43,9","2,749","1,2","113,3","23,7","80,6"],
    [42870,"43603,91667","34,5","3,037","0,6","143,8","23,2","82,5"],
    [42871,"43603,95833","37,2","2,383","0,8","221,4","23","84,4"],
    [42872,"43604","52,5","2,147","0,9","151,4","22,7","86,3"],
    [42873,"43604,04167","27,4","2,147","1,8","158,6","21,4","90,1"],
    [42874,"43604,08333","14,4","1,728","1,6","227","20,5","94,3"],
    [42875,"43604,125","0,8","1,754","0,5","185,2","20,4","95,5"],
    [42876,"43604,16667","6,1","1,911","0,8","236,6","20,4","96"],
    [42877,"43604,20833","9","2,487","0,4","150,2","20,5","96,5"],
    [42878,"43604,25","11,9","3,43","0,8","128,7","20,6","96,9"],
    [42879,"43604,29167","13,3","3,247","1,1","36,8","20,3","97,1"],
    [42880,"43604,33333","8,8","3,823","0,9","52,4","20,6","97,3"],
    [42881,"43604,375","18,7","3,639","1,1","51,7","20,9","97,2"],
    [42882,"43604,41667","22","3,692","0,8","75","21,2","96,8"],
    [42883,"43604,45833","18,6","3,116","1","126,8","21,4","95,3"],
    [42884,"43604,5","12,1","2,173","1,5","172,4","21,8","92,1"],
    [42885,"43604,54167","6,9","2,278","1,3","175,1","22,9","84,2"],
    [42886,"43604,58333","11,1","1,911","1,4","232,9","24,5","74,6"],
    [42887,"43604,625","7,2","1,859","1,7","193,6","25,6","65,7"],
    [42888,"43604,66667","ND","1,833","1,3","231,5","25,6","65,5"],
    [42889,"43604,70833","11,6","1,859","0,8","230,5","25,4","67,3"],
    [42890,"43604,75","17,3","2,095","0,6","200","25,1","71,5"],
    [42891,"43604,79167","43,3","1,938","1","234,2","24","78,4"],
    [42892,"43604,83333","30,8","1,938","1,2","237,9","23,1","77,5"],
    [42893,"43604,875","26,5","1,99","1,3","251,7","22,5","79,1"],
    [42894,"43604,91667","25,6","2,147","0,9","227,9","22","82,7"],
    [42895,"43604,95833","26,3","1,702","1,1","248,9","21,2","88,8"],
    [42896,"43605","17,4","2,278","0,5","168","20,9","92"],
    [42897,"43605,04167","12,7","2,592","0,5","204,3","20,8","94,1"],
    [42898,"43605,08333","12,5","1,78","0,7","234","20,4","95"],
    [42899,"43605,125","8,9","2,644","0,4","168,1","20,3","95,3"],
    [42900,"43605,16667","11,5","2,566","0,4","197,6","20,4","95,8"],
    [42901,"43605,20833","14,6","3,351","0,2","96,7","20,4","95,9"],
    [42902,"43605,25","15,1","2,173","0,6","220","20,5","96,1"],
    [42903,"43605,29167","25,8","2,566","0,7","216,1","20,7","96"],
    [42904,"43605,33333","43,8","3,221","0,4","90,8","21,1","95"],
    [42905,"43605,375","44,2","3,037","0,6","126,4","21,7","92,1"],
    [42906,"43605,41667","48,4","2,985","0,6","146,2","22,7","86,4"],
    [42907,"43605,45833","38","3,378","0,8","170,3","24,3","77,6"],
    [42908,"43605,5","ND","ND","0,7","163,4","25,1","72"],
    [42909,"43605,54167","43,1","3,351","1,5","239,4","26,9","65,8"],
    [42910,"43605,58333","37,2","2,985","1,1","224,3","27,6","61,2"],
    [42911,"43605,625","30","3,535","1,2","247,6","28,7","57"],
    [42912,"43605,66667","36,6","3,639","1","228,4","28,8","56,6"],
    [42913,"43605,70833","47,3","3,535","1,1","222,2","28,2","59,1"],
    [42914,"43605,75","39","12,306","2","187,4","26,1","68,9"],
    [42915,"43605,79167","40,1","4,32","2,4","242,4","22,4","87,5"],
    [42916,"43605,83333","32","5,472","1,7","224,9","22,8","89,3"],
    [42917,"43605,875","20,2","3,718","1,8","210,2","22,1","84,5"],
    [42918,"43605,91667","12,1","3,116","0,9","234,8","22","84,7"],
    [42919,"43605,95833","32,3","3,168","0,8","215","21,2","88"],
    [42920,"43606","26,8","3,404","0,6","178,4","20,5","90,7"],
    [42921,"43606,04167","26,3","2,828","0,6","222,7","20,2","92"],
    [42922,"43606,08333","22,1","3,168","0,5","180,2","20,4","92,6"],
    [42923,"43606,125","23,6","2,356","1,1","248,4","20,4","92,7"],
    [42924,"43606,16667","18,8","2,54","0,9","212,5","20,5","92,2"],
    [42925,"43606,20833","23,9","3,404","0,5","131,7","20,7","92,1"],
    [42926,"43606,25","31,7","4,058","0,6","51,3","20,7","92,2"],
    [42927,"43606,29167","43,4","5,734","0,6","224,1","20,9","92,2"],
    [42928,"43606,33333","60,3","7,541","0,6","154,5","21,6","91,2"],
    [42929,"43606,375","75,6","6,362","1","166,3","22,6","87,4"],
    [42930,"43606,41667","91,6","6,074","0,9","129,7","24,4","80,3"],
    [42931,"43606,45833","80,2","5,289","1,1","196,6","26,5","68,6"],
    [42932,"43606,5","50,6","4,687","1,4","141,7","27,9","63"],
    [42933,"43606,54167","50,7","4,294","1,3","124,1","28,7","59,7"],
    [42934,"43606,58333","49,7","4,189","1,4","154,4","29,5","57,4"],
    [42935,"43606,625","49,2","4,006","1,2","180,8","30,6","53,2"],
    [42936,"43606,66667","38,2","5,525","1,3","158,7","30,4","53"],
    [42937,"43606,70833","62,1","4,215","2,3","320,9","29,1","58,8"],
    [42938,"43606,75","25,8","5,682","1,6","291","28,3","61,6"],
    [42939,"43606,79167","38,8","3,901","3,2","322,8","27","65,8"],
    [42940,"43606,83333","24,7","4,189","1,6","243,9","26,9","66,4"],
    [42941,"43606,875","35,9","4,713","1,1","190,8","26,3","68,5"],
    [42942,"43606,91667","41,4","8,745","0,9","243,2","25,3","72,9"],
    [42943,"43606,95833","47,5","5,237","0,7","167,1","24,2","78,1"],
    [42944,"43607","49,7","5,08","0,6","193,6","23,8","81,9"],
    [42945,"43607,04167","46,2","3,875","0,5","164,5","23,5","83,2"],
    [42946,"43607,08333","37,7","2,88","0,4","133,7","23,3","84,7"],
    [42947,"43607,125","30,3","2,644","0,7","162,1","23,3","85,1"],
    [42948,"43607,16667","32,6","2,514","0,9","163,9","22,8","88,5"],
    [42949,"43607,20833","27","2,278","2,4","215,7","21,2","88,1"],
    [42950,"43607,25","0,1","2,828","1,1","174,7","20,1","91,7"],
    [42951,"43607,29167","22,7","5,629","0,5","156,2","20,6","93,4"],
    [42952,"43607,33333","34,5","7,41","0,5","200,9","21,1","93,8"],
    [42953,"43607,375","36,2","7,986","0,6","83,9","22","91,8"],
    [42954,"43607,41667","53,2","4,818","0,9","136,4","23,8","82,4"],
    [42955,"43607,45833","48,4","4,346","1","171,2","25,9","71,8"],
    [42956,"43607,5","47,9","4,058","1,2","198,3","27,4","65,4"],
    [42957,"43607,54167","38,6","4,085","1,3","110,3","29,1","59,3"],
    [42958,"43607,58333","57","3,875","1,1","132,3","29,6","57,4"],
    [42959,"43607,625","38,2","6,074","2","264,1","29,8","55,9"],
    [42960,"43607,66667","34,1","4,373","3","316,7","29","57,6"],
    [42961,"43607,70833","20,1","3,692","4,4","314,7","27,4","63,3"],
    [42962,"43607,75","14,4","4,215","4,5","311,6","26,8","63,5"],
    [42963,"43607,79167","14,7","3,168","5,4","312,7","26","66,5"],
    [42964,"43607,83333","13,5","2,802","5,9","317","25,9","63,2"],
    [42965,"43607,875","2,8","3,509","4,2","281,3","25,7","64,3"],
    [42966,"43607,91667","27,5","3,535","1,1","164,5","24,4","77,4"],
    [42967,"43607,95833","29,3","3,482","0,8","144,2","23,7","78,2"],
    [42968,"43608","21,6","2,906","0,9","104,1","23","80,4"],
    [42969,"43608,04167","18,8","3,378","0,8","225","22,4","83,9"],
    [42970,"43608,08333","26,5","2,697","0,7","197,4","22,1","87,5"],
    [42971,"43608,125","16,1","2,854","0,4","132,3","22,3","87,9"],
    [42972,"43608,16667","19,1","2,959","0,5","201","22,3","87,9"],
    [42973,"43608,20833","24","4,556","0,8","206,9","22,1","88,5"],
    [42974,"43608,25","26,5","3,404","0,5","153,8","22,2","88,5"],
    [42975,"43608,29167","40,6","5,734","0,6","41,4","22,1","89,1"],
    [42976,"43608,33333","47,7","8,824","0,9","46","22,1","91,8"],
    [42977,"43608,375","55,4","6,65","1,1","114,9","22,1","92,8"],
    [42978,"43608,41667","30,1","4,32","0,7","122,6","21,8","93,5"],
    [42979,"43608,45833","21,7","4,058","0,8","112,2","21,8","94,3"],
    [42980,"43608,5","23,8","5,708","1","77,5","23,1","92,5"],
    [42981,"43608,54167","37","4,215","1,1","107,7","25","83,9"],
    [42982,"43608,58333","35,4","3,404","2,6","211,6","26,9","68,5"],
    [42983,"43608,625","3","3,221","2,9","275,8","26,7","61,3"],
    [42984,"43608,66667","3,6","4,425","2,3","77,5","27,5","63,3"],
    [42985,"43608,70833","44,2","5,498","2,3","66,9","25,7","71"],
    [42986,"43608,75","28,9","5,551","1,4","174,7","23,5","80,4"],
    [42987,"43608,79167","32,9","4,608","1,1","184,1","22","89,7"],
    [42988,"43608,83333","19,2","4,006","0,9","188,4","21,5","91,9"],
    [42989,"43608,875","15,2","5,315","0,7","186,7","21,7","92,4"],
    [42990,"43608,91667","18,3","5,263","1,1","127","21,6","92,4"],
    [42991,"43608,95833","25,6","3,09","0,8","117,6","20,9","93,4"],
    [42992,"43609","14,5","4,058","0,2","81","20,7","94,6"],
    [42993,"43609,04167","13,5","3,299","0,8","226,5","20,6","95,4"],
    [42994,"43609,08333","15,2","3,587","0,5","118,9","20,7","95,5"],
    [42995,"43609,125","23,3","3,613","0,5","159,3","20,5","95,8"],
    [42996,"43609,16667","24,1","2,775","0,7","225,4","20,1","95,9"],
    [42997,"43609,20833","15,1","3,221","1","183,3","20,1","96"],
    [42998,"43609,25","25,3","3,168","0,5","168,5","19,9","94,6"],
    [42999,"43609,29167","33,7","5,629","0,6","215,5","20","94"],
    [43000,"43609,33333","65","7,436","0,7","181,1","20,8","92,6"],
    [43001,"43609,375","65,1","4,582","1","98,7","22,8","86"],
    [43002,"43609,41667","50,9","2,906","1,3","117,8","24,5","76,5"],
    [43003,"43609,45833","32,7","3,613","1,1","127","26,1","69"],
    [43004,"43609,5","31,3","3,273","1,5","136,6","27,7","61,5"],
    [43005,"43609,54167","40,9","3,43","1,3","121,2","29","56,8"],
    [43006,"43609,58333","35,7","4,818","1,7","93,8","29,4","55,8"],
    [43007,"43609,625","47,4","4,451","1,4","145,3","29,2","56,6"],
    [43008,"43609,66667","39,6","3,954","0,9","239,5","29,4","55,1"],
    [43009,"43609,70833","33,1","4,425","2,7","283,9","28,4","59,3"],
    [43010,"43609,75","27,5","3,744","3,4","309","27,1","62,6"],
    [43011,"43609,79167","18,7","3,666","3,4","299,5","26,4","65,4"],
    [43012,"43609,83333","17,7","3,666","3,3","300,6","26,3","65,4"],
    [43013,"43609,875","12,6","3,351","3","300,1","25,9","66,9"],
    [43014,"43609,91667","10,6","3,063","3,3","289,7","25,9","65,1"],
    [43015,"43609,95833","4,7","2,906","1,4","204,4","25,4","66,4"],
    [43016,"43610","24,5","4,661","0,7","146,5","24,8","75,2"],
    [43017,"43610,04167","49,4","4,582","1","191,9","23,7","82,5"],
    [43018,"43610,08333","34,2","2,487","0,9","190,2","22,1","89"],
    [43019,"43610,125","3,2","2,775","0,5","153,6","22,1","90,3"],
    [43020,"43610,16667","13,1","2,88","0,7","142,9","21,8","92,3"],
    [43021,"43610,20833","6,9","2,226","0,6","191","21,5","92,8"],
    [43022,"43610,25","11,2","3,456","0,9","239,7","21,3","93,6"],
    [43023,"43610,29167","18,5","5,184","0,7","210,1","21,2","94,2"],
    [43024,"43610,33333","20,5","3,718","0,6","193,5","21,2","94,9"],
    [43025,"43610,375","20,9","4,242","0,7","115,4","21,4","95"],
    [43026,"43610,41667","19","5,97","1","85,1","22","94"],
    [43027,"43610,45833","20,9","4,242","1,2","159,5","23,2","89,1"],
    [43028,"43610,5","27,6","3,744","1","141,2","24,4","82"],
    [43029,"43610,54167","37","4,163","1,3","83,6","25,4","75,6"],
    [43030,"43610,58333","42,1","3,535","0,9","148,9","26,9","68,6"],
    [43031,"43610,625","34,7","4,058","3,6","315,9","25,9","66,3"],
    [43032,"43610,66667","3,7","3,299","3","303,2","22,4","80,1"],
    [43033,"43610,70833","16,3","3,587","1,9","276,4","21,9","83,9"],
    [43034,"43610,75","9,4","4,006","1,4","178","22,4","86,3"],
    [43035,"43610,79167","21,5","4,477","1,1","154,2","21,7","88,8"],
    [43036,"43610,83333","19,1","4,215","1,4","127,4","21,3","91,7"],
    [43037,"43610,875","13,7","3,456","1,6","151,2","20,5","92,9"],
    [43038,"43610,91667","13,3","6,991","0,5","171,7","20,4","93,5"],
    [43039,"43610,95833","48","6,729","0,6","127,3","20,5","94,2"],
    [43040,"43611","31,3","8,352","0,5","184,2","20,3","94,8"],
    [43041,"43611,04167","37,8","5,656","0,4","94,5","20,3","95,2"],
    [43042,"43611,08333","30,2","4,634","0,4","134,5","20,3","95,4"],
    [43043,"43611,125","31","4,346","0,7","146,6","20,2","95,5"],
    [43044,"43611,16667","27,8","4,111","0,8","177,8","20,2","95,6"],
    [43045,"43611,20833","26,1","4,373","0,4","138,9","19,7","95,8"],
    [43046,"43611,25","26,6","15,972","0,6","178,3","19,5","96,1"],
    [43047,"43611,29167","27,4","5,21","0,7","227","19,4","96,1"],
    [43048,"43611,33333","30","4,634","0,6","85,9","20,1","95,3"],
    [43049,"43611,375","42,7","4,085","0,8","125,3","21","92,8"],
    [43050,"43611,41667","51,1","3,509","0,6","169,6","22","88,7"],
    [43051,"43611,45833","50,5","3,168","0,7","136,2","24,2","77,9"],
    [43052,"43611,5","35","3,299","1,2","161","26,5","66,1"],
    [43053,"43611,54167","28,4","3,037","1,5","165,4","27,6","62,2"],
    [43054,"43611,58333","30","2,933","1,6","140,5","28,4","60,8"],
    [43055,"43611,625","29","3,221","1,1","125,3","29,1","59,3"],
    [43056,"43611,66667","26,2","3,325","1","168,4","28,9","58,6"],
    [43057,"43611,70833","32,6","3,09","2,2","238,9","28,6","58,6"],
    [43058,"43611,75","20,8","3,456","3,5","308,5","27,2","61,1"],
    [43059,"43611,79167","6,5","3,011","4,2","309,4","26","63,5"],
    [43060,"43611,83333","8,4","3,299","2,4","269,2","25,6","65,2"],
    [43061,"43611,875","17,2","4,844","0,9","155","25","68,8"],
    [43062,"43611,91667","28,1","5,891","0,9","151,9","24,7","72,6"],
    [43063,"43611,95833","56,9","6,834","1","154,3","24,3","76,4"],
    [43064,"43612","49,8","5,551","0,5","182,4","23,4","80"],
    [43065,"43612,04167","35,7","3,744","0,7","80,5","22,6","84,5"],
    [43066,"43612,08333","27,4","3,535","0,6","228,4","21,9","87,8"],
    [43067,"43612,125","21,1","3,404","0,6","199,9","21,4","89,4"],
    [43068,"43612,16667","24,4","2,618","0,8","222,2","21,2","90,4"],
    [43069,"43612,20833","20,3","3,247","0,5","227,6","21,7","89,7"],
    [43070,"43612,25","31","3,875","0,5","189,7","21,9","89,6"],
    [43071,"43612,29167","50,3","6,258","0,6","211,7","22","89,6"],
    [43072,"43612,33333","85,9","5,498","0,4","133,4","22,7","87,7"],
    [43073,"43612,375","55,1","4,844","0,7","167,2","24,3","77"],
    [43074,"43612,41667","47,9","4,792","1,4","163,7","26","68,4"],
    [43075,"43612,45833","38,7","4,032","1,1","139,1","26,8","66,4"],
    [43076,"43612,5","39,1","4,189","1,1","111,6","27,4","64,3"],
    [43077,"43612,54167","40","4,399","1,4","154,4","28","62,1"],
    [43078,"43612,58333","48,1","4,189","1,4","143,6","28,6","59,5"],
    [43079,"43612,625","51","4,032","1,3","129,1","28,6","60,9"],
    [43080,"43612,66667","52,9","3,927","1,1","144,9","28,8","60,7"],
    [43081,"43612,70833","59,4","3,77","0,8","191,3","28,8","61,3"],
    [43082,"43612,75","54,7","4,477","2,3","216,2","27,9","62,9"],
    [43083,"43612,79167","39,4","3,77","2,8","319,2","26,5","65,9"],
    [43084,"43612,83333","16,3","6,205","1,6","260,4","26,2","66,7"],
    [43085,"43612,875","29,1","5,472","1","237,4","25,7","69,9"],
    [43086,"43612,91667","37,1","5,315","0,9","229,4","25,1","74,3"],
    [43087,"43612,95833","39,4","4,634","0,6","203,4","24,8","76,5"],
    [43088,"43613","43,2","3,666","0,5","202","24,3","79,4"],
    [43089,"43613,04167","36","2,959","1,6","172,4","23,7","83,5"],
    [43090,"43613,08333","33,7","2,487","0,9","163,9","23,1","86,2"],
    [43091,"43613,125","22,1","2,383","0,6","147","22,7","88,3"],
    [43092,"43613,16667","22,3","2,147","0,8","172,8","22,5","88,8"],
    [43093,"43613,20833","18,3","2,566","0,5","202,6","22,4","90,1"],
    [43094,"43613,25","30,1","3,351","0,6","197","22,4","90,9"],
    [43095,"43613,29167","43","5,97","0,4","160,1","22,3","90,5"],
    [43096,"43613,33333","63,9","9,164","0,8","111,7","22,8","89,3"],
    [43097,"43613,375","73","5,865","0,7","128,1","22,9","89,3"],
    [43098,"43613,41667","38,7","5,027","0,9","122,6","23,8","82,7"],
    [43099,"43613,45833","37,1","4,975","0,8","117,4","25,2","77,3"],
    [43100,"43613,5","41,5","3,247","0,8","139,6","26,4","70,5"],
    [43101,"43613,54167","41,6","3,613","0,8","123,5","27,1","68"],
    [43102,"43613,58333","39,8","3,535","2,7","222,6","28,6","59,1"],
    [43103,"43613,625","5,2","4,006","4,3","324,1","27,8","59,7"],
    [43104,"43613,66667","7,9","2,566","7","320,4","25,7","63,5"],
    [43105,"43613,70833","ND","3,221","6,1","314,5","24,8","62,3"],
    [43106,"43613,75","12,7","4,268","2,9","258,1","23,5","71,2"],
    [43107,"43613,79167","44","5,708","1","180,9","22,2","86,8"],
    [43108,"43613,83333","20,1","5,184","1,3","151","21,8","90,5"],
    [43109,"43613,875","24,8","4,425","0,8","124","20,6","91,6"],
    [43110,"43613,91667","9,1","4,53","1,1","220,9","20,3","92,1"],
    [43111,"43613,95833","14,5","3,378","0,8","143,5","20,9","92,3"],
    [43112,"43614","21,8","3,43","0,7","66,4","20,9","92,9"],
    [43113,"43614,04167","19,3","2,749","0,2","95","20,9","94"],
    [43114,"43614,08333","13,5","2,906","0,6","42,3","20,5","94,4"],
    [43115,"43614,125","4,1","2,985","0,6","99,6","20,3","94"],
    [43116,"43614,16667","18","2,854","0,6","79","20,1","95"],
    [43117,"43614,20833","19,1","2,959","0,8","104,6","20,1","95,4"],
    [43118,"43614,25","22,2","3,194","0,5","129,9","19,9","95,6"],
    [43119,"43614,29167","48,2","5,734","0,8","149,4","20","95,7"],
    [43120,"43614,33333","ND","8,588","0,6","167,6","20,2","96,1"],
    [43121,"43614,375","ND","9,557","1,4","70,6","20,8","95,9"],
    [43122,"43614,41667","ND","4,896","0,7","152,2","20,6","94,7"],
    [43123,"43614,45833","ND","3,378","1","224","21,2","92,4"],
    [43124,"43614,5","8,8","2,828","1,1","192,1","24,1","79,2"],
    [43125,"43614,54167","12,9","3,325","1,2","167,4","26,8","62,8"],
    [43126,"43614,58333","31,1","2,906","1,4","129,9","27,4","60,5"],
    [43127,"43614,625","37","3,247","1,1","147,1","28,4","57,4"],
    [43128,"43614,66667","45,1","3,875","1,2","149","28,1","58,6"],
    [43129,"43614,70833","55,7","5,708","1,7","159,9","27,8","60"],
    [43130,"43614,75","47,1","3,378","3,5","315,7","26,2","63,3"],
    [43131,"43614,79167","15,5","3,404","3,4","311,7","25,1","66,4"],
    [43132,"43614,83333","15","3,98","1,2","251,9","24,8","68,6"],
    [43133,"43614,875","28,9","5,237","0,9","226,3","24,5","70,5"],
    [43134,"43614,91667","30,9","12,83","0,6","142,3","24,5","71,6"],
    [43135,"43614,95833","49,1","5,368","0,6","171","24,1","77,5"],
    [43136,"43615","64,8","5,446","0,6","131,9","23,4","81,2"],
    [43137,"43615,04167","51,6","3,797","0,6","166","23","84,1"],
    [43138,"43615,08333","33,6","2,802","0,4","130","22,6","84,9"],
    [43139,"43615,125","25,5","2,461","0,6","124,6","21,7","89,8"],
    [43140,"43615,16667","16,6","2,618","0,3","80,1","21,5","91,9"],
    [43141,"43615,20833","24,2","3,718","0,9","156,7","20,8","93,8"],
    [43142,"43615,25","11,7","3,221","1,2","220,7","20,4","95,3"],
    [43143,"43615,29167","18,6","6,31","0,6","221,8","20,6","95,7"],
    [43144,"43615,33333","29","7,645","0,7","231,2","21","95,6"],
    [43145,"43615,375","28,2","4,975","0,7","157,5","21,6","94"],
    [43146,"43615,41667","29,5","4,477","0,6","185,8","22,3","91,2"],
    [43147,"43615,45833","43,5","4,006","1","120,5","23,8","84,5"],
    [43148,"43615,5","60","4,634","0,9","127,7","24,6","78,5"],
    [43149,"43615,54167","71,2","4,687","1,2","142,4","25,5","73,5"],
    [43150,"43615,58333","66,9","4,87","0,7","154,7","25,7","72,2"],
    [43151,"43615,625","62","5,158","1","138,5","26,7","67,9"],
    [43152,"43615,66667","68,7","4,163","2,1","242,1","26,9","64,5"],
    [43153,"43615,70833","22,2","5,027","2","199,2","25,9","66,4"],
    [43154,"43615,75","31,7","8,745","1,4","118,4","24,1","77,8"],
    [43155,"43615,79167","43,6","6,493","0,5","169,2","22,7","87,8"],
    [43156,"43615,83333","33","5,106","0,8","210,1","22,1","90,9"],
    [43157,"43615,875","14,5","9,321","0,5","182,2","22","91,6"],
    [43158,"43615,91667","31,2","6,572","0,9","94","21,7","92,1"],
    [43159,"43615,95833","21,7","5,42","0,9","172","21,6","91,9"],
    [43160,"43616","31,3","3,43","0,8","215,8","21,2","93,7"],
    [43161,"43616,04167","6,1","3,561","0,6","240,5","21","95,5"],
    [43162,"43616,08333","11,6","3,194","0,5","180,6","21,1","96,3"],
    [43163,"43616,125","13,1","2,906","0,8","170,5","21","96,7"],
    [43164,"43616,16667","11,6","2,33","1,2","154,7","20,9","96,7"],
    [43165,"43616,20833","8,9","2,383","0,8","160,1","20,7","96,9"],
    [43166,"43616,25","9,4","2,54","0,5","157,2","20,5","97,2"],
    [43167,"43616,29167","10,1","3,797","0,4","80","20,3","97,4"],
    [43168,"43616,33333","20,9","5,184","0,6","86,3","20,6","97,2"],
    [43169,"43616,375","19,1","7,279","0,6","61,2","21","96,6"],
    [43170,"43616,41667","24,5","5,184","0,9","72,3","21,3","95,5"],
    [43171,"43616,45833","12,9","4,032","0,7","145,2","22,4","91,6"],
    [43172,"43616,5","ND","5,315","1","162","24,6","78,5"],
    [43173,"43616,54167","ND","3,116","1","143,1","26,8","66,1"],
    [43174,"43616,58333","ND","3,77","1","149,9","27,8","62,6"],
    [43175,"43616,625","38,2","5,891","0,9","116,4","27,6","63,5"],
    [43176,"43616,66667","44,8","4,242","1,1","208,2","27,9","61,3"],
    [43177,"43616,70833","36,1","3,404","2,6","291,9","25","70,8"],
    [43178,"43616,75","26","6,205","1,5","205,2","22,9","83,9"],
    [43179,"43616,79167","11,3","3,509","2,7","320,7","23,5","76"],
    [43180,"43616,83333","1,3","5,498","1,3","173,7","23,9","75,6"],
    [43181,"43616,875","58","5,996","1","227,9","23,2","82,9"],
    [43182,"43616,91667","42,6","6,127","0,6","202,3","22,7","85,9"],
    [43183,"43616,95833","45","5,525","0,6","211,3","22,3","88"],
    [43184,"43617","38,7","5,263","0,7","224,6","22,1","89,1"],
    [43185,"43617,04167","28,9","3,509","0,5","192,9","22,3","88,8"],
    [43186,"43617,08333","30,3","2,592","0,9","214,2","22,1","89,5"],
    [43187,"43617,125","19","2,618","0,7","220,9","21,6","91,3"],
    [43188,"43617,16667","21,6","2,906","0,3","141,2","21,4","92,1"],
    [43189,"43617,20833","27,6","2,88","0,4","113,7","21,1","92,5"],
    [43190,"43617,25","24,6","4,137","0,4","141,4","21","91,7"],
    [43191,"43617,29167","37,5","4,346","0,4","205,1","21,2","91,6"],
    [43192,"43617,33333","51,7","7,907","0,6","145,4","21,6","90,2"],
    [43193,"43617,375","77,4","6,546","0,5","201,8","22,1","87,6"],
    [43194,"43617,41667","87,7","5,944","0,8","103,1","23,1","84,8"],
    [43195,"43617,45833","81,5","4,268","1","144","24,7","76,6"],
    [43196,"43617,5","43,7","3,535","1","166,7","25,3","72,3"],
    [43197,"43617,54167","43,1","4,215","0,8","171,5","25,9","70,5"],
    [43198,"43617,58333","57,1","5,682","1,2","93,8","27,3","66,8"],
    [43199,"43617,625","64,1","4,556","2,2","104","27,9","64,2"],
    [43200,"43617,66667","51,7","4,268","2,4","158,6","27,6","61"],
    [43201,"43617,70833","2,5","5,08","2,2","90,2","26,6","65,6"],
    [43202,"43617,75","46,3","5,577","1,3","95,2","25,7","71,6"],
    [43203,"43617,79167","44,5","3,927","1,2","163,8","24,9","75,8"],
    [43204,"43617,83333","38,2","4,085","1","120,7","24,5","76,5"],
    [43205,"43617,875","31,4","4,189","0,9","143,5","23,3","79"],
    [43206,"43617,91667","40,4","6,389","0,5","100,7","22,7","80,6"],
    [43207,"43617,95833","59,2","6,258","0,5","121,5","22,6","80,3"],
    [43208,"43618","52,1","7,2","0,5","159,4","22,4","83,8"],
    [43209,"43618,04167","50,9","6,389","0,8","264,5","22,1","85,6"],
    [43210,"43618,08333","39,3","6,441","0,3","118,2","21,6","89,1"],
    [43211,"43618,125","38,9","4,032","0,5","162","21,4","91,1"],
    [43212,"43618,16667","29,5","4,713","0,3","146,2","21,2","92,3"],
    [43213,"43618,20833","34,3","5,315","0,5","181,2","21","92,9"],
    [43214,"43618,25","43","4,949","0,5","187,5","20,7","93,5"],
    [43215,"43618,29167","42,6","5,184","0,2","102","21","93,3"],
    [43216,"43618,33333","46,2","4,896","0,8","71,2","21,9","90"],
    [43217,"43618,375","43,1","4,608","0,7","87,2","23,4","83,1"],
    [43218,"43618,41667","56,8","3,194","1","176,2","25,1","74,2"],
    [43219,"43618,45833","38,4","3,116","1,3","129,7","26,9","65,5"],
    [43220,"43618,5","23","3,194","1,5","132,3","28,1","61,4"],
    [43221,"43618,54167","29,2","3,482","1,7","132,8","29,5","56,7"],
    [43222,"43618,58333","37,6","4,739","1,8","85,4","29,8","54,7"],
    [43223,"43618,625","34,1","4,268","1,7","140,3","30","54,6"],
    [43224,"43618,66667","32,1","4,661","2,2","212,8","29,7","56"],
    [43225,"43618,70833","33,3","3,299","2,5","315,7","29,6","56,7"],
    [43226,"43618,75","16,7","3,456","2,2","320,9","28,5","60"],
    [43227,"43618,79167","19,3","3,901","1,1","203,1","27,3","63,9"],
    [43228,"43618,83333","28,9","5,42","1","216,3","26,4","69"],
    [43229,"43618,875","48,9","6,781","0,9","109,6","26,5","67,4"],
    [43230,"43618,91667","42,7","3,954","0,8","111,9","24,6","75,7"],
    [43231,"43618,95833","38,8","3,875","0,8","143,7","23,2","81,4"],
    [43232,"43619","28,3","3,823","0,5","183,6","22,6","84,8"],
    [43233,"43619,04167","28,1","3,482","0,7","242,9","22,3","87,1"],
    [43234,"43619,08333","22,4","3,221","0,3","105,8","22,1","87,6"],
    [43235,"43619,125","21,9","3,77","0,8","136,7","21,8","86,6"],
    [43236,"43619,16667","28,6","3,247","0,5","189,5","21,3","89,3"],
    [43237,"43619,20833","29,7","8,038","0,6","204,3","21,4","90,1"],
    [43238,"43619,25","30,7","3,299","0,7","206,9","21,4","90,1"],
    [43239,"43619,29167","36,3","4,503","0,5","122,9","21,6","89,7"],
    [43240,"43619,33333","44,9","4,006","0,8","132,7","22,4","87,6"],
    [43241,"43619,375","47,1","4,058","0,8","132","24,4","78,3"],
    [43242,"43619,41667","28,7","4,896","1,3","141,3","26","69,8"],
    [43243,"43619,45833","33,8","4,922","1,5","105,6","27,1","66,7"],
    [43244,"43619,5","30,7","3,823","1,3","122,2","27,6","64,2"],
    [43245,"43619,54167","27,2","3,587","1,3","120,9","28,5","61,5"],
    [43246,"43619,58333","37,2","3,823","1,3","122,2","29,9","58,2"],
    [43247,"43619,625","51,9","4,399","1,5","99,8","29,6","58,8"],
    [43248,"43619,66667","55,6","3,718","1,3","216,8","29,5","58,7"],
    [43249,"43619,70833","39,2","2,828","3,3","320,3","28,1","61,5"],
    [43250,"43619,75","9","2,985","2,9","325,1","27,1","63,5"],
    [43251,"43619,79167","7,4","3,692","1,3","207,1","26,3","65,6"],
    [43252,"43619,83333","15,7","2,906","3,9","312,6","26,1","64,7"],
    [43253,"43619,875","10,4","3,823","1,2","199,9","25,8","65,1"],
    [43254,"43619,91667","18,8","3,482","1,4","175,8","25,4","68,1"],
    [43255,"43619,95833","46,8","3,456","1","162,2","24,5","79,4"],
    [43256,"43620","50,1","3,927","0,5","217,2","23,1","83,2"],
    [43257,"43620,04167","28,5","3,744","0,6","211,7","23,1","83,5"],
    [43258,"43620,08333","31,4","3,194","0,6","216,8","22,9","84,9"],
    [43259,"43620,125","31,2","2,88","0,4","153,2","22,7","86,2"],
    [43260,"43620,16667","30,2","3,037","0,6","225,8","22,5","86,7"],
    [43261,"43620,20833","28,2","3,037","0,6","180","22,3","87,9"],
    [43262,"43620,25","36","4,608","0,3","120,1","22,3","88,1"],
    [43263,"43620,29167","65,3","6,912","0,4","210,7","21,9","89,3"],
    [43264,"43620,33333","74,2","6,624","0,7","115,9","23,9","83,3"],
    [43265,"43620,375","63,3","4,661","0,9","180,6","25,1","74,8"],
    [43266,"43620,41667","39,6","4,085","1","169,2","26,8","68,2"],
    [43267,"43620,45833","44,2","4,792","1,5","121,8","28,3","61,9"],
    [43268,"43620,5","62","5,184","1,9","123,2","29,3","59"],
    [43269,"43620,54167","56","4,582","1,8","158,4","30,6","54,7"],
    [43270,"43620,58333","52,7","4,268","1,8","200,3","31,2","53,5"],
    [43271,"43620,625","50,2","3,954","2,9","243,6","30,9","52,6"],
    [43272,"43620,66667","26,5","2,749","3,8","311,5","29,8","54,6"],
    [43273,"43620,70833","17,2","3,116","3,4","318,2","29,2","57,6"],
    [43274,"43620,75","27,8","3,09","3,8","308,9","28,6","58,9"],
    [43275,"43620,79167","19,5","3,116","3,3","318,7","27,9","60,8"],
    [43276,"43620,83333","24,3","2,959","3,7","314","27,6","61,9"],
    [43277,"43620,875","17,9","3,561","1,9","241","27,1","62"],
    [43278,"43620,91667","22,2","3,561","1,6","203","25,3","64,2"],
    [43279,"43620,95833","29,8","3,849","1","209,9","25,1","67,7"],
    [43280,"43621","38,5","3,142","0,9","221,4","24","74,5"],
    [43281,"43621,04167","38,6","2,304","1","240,4","23","78,3"],
    [43282,"43621,08333","20,3","2,068","1,3","237,9","22,8","78,4"],
    [43283,"43621,125","20,4","2,514","0,9","236,3","22,7","79"],
    [43284,"43621,16667","22,3","2,095","1","239,6","22,4","80,6"],
    [43285,"43621,20833","20,1","3,116","0,7","219,9","22,1","81,2"],
    [43286,"43621,25","26,5","4,189","0,6","204,5","21,6","83,4"],
    [43287,"43621,29167","69","7,174","0,6","216,4","21,7","85,1"],
    [43288,"43621,33333","104,1","8,64","0,8","217,3","23,2","80,6"],
    [43289,"43621,375","73,1","ND","0,6","191,3","25","73,3"],
    [43290,"43621,41667","69,4","2,356","0,8","222","26,1","69"],
    [43291,"43621,45833","67,8","2,042","1,4","149,1","27,6","63,8"],
    [43292,"43621,5","54,7","1,964","1,3","128,7","28,1","60,3"],
    [43293,"43621,54167","45,1","0,943","1,3","135,8","29,6","54,8"],
    [43294,"43621,58333","41,5","1,231","1,4","141,5","31,3","50,4"],
    [43295,"43621,625","55,9","1,021","1,5","160,1","31,9","47,9"],
    [43296,"43621,66667","72,2","1,309","1,5","212,4","31,4","50,8"],
    [43297,"43621,70833","69,1","0,157","4,3","307,7","28,9","57,6"],
    [43298,"43621,75","29,6","0,052","5,2","301,1","27,7","59,9"],
    [43299,"43621,79167","21,7","0,026","5,7","298,1","27","61,2"],
    [43300,"43621,83333","21,5","0,052","5,6","283,4","26,3","64,2"],
    [43301,"43621,875","18,2","0,209","4,1","305,8","25,6","65,7"],
    [43302,"43621,91667","4,8","1,754","1,9","210,4","25,5","66"],
    [43303,"43621,95833","26,7","0,812","0,6","177,6","24,9","70,5"],
    [43304,"43622","30,6","0,131","0,6","193,7","24,6","71,8"],
    [43305,"43622,04167","28,9","0,026","0,5","100,1","23,8","76,7"],
    [43306,"43622,08333","28,2","0,183","0,6","135,4","23,3","78,8"],
    [43307,"43622,125","25,6","0","0,7","243,1","23,1","80,7"],
    [43308,"43622,16667","23","0","0,7","205,2","22,9","81,4"],
    [43309,"43622,20833","26,6","0,157","0,7","200,8","22","87,3"],
    [43310,"43622,25","27","0,105","0,4","193,8","21,5","92"],
    [43311,"43622,29167","27,7","3,666","0,8","221,2","21,3","93,1"],
    [43312,"43622,33333","30","3,273","0,8","135,2","22,2","91,7"],
    [43313,"43622,375","36,2","0,628","0,7","120,9","24","85,1"],
    [43314,"43622,41667","53,9","0,262","1,3","129,9","25,9","74,4"],
    [43315,"43622,45833","55,3","1,1","1,9","151,5","27,1","68"],
    [43316,"43622,5","ND","0,995","1,6","147,8","27,4","66,3"],
    [43317,"43622,54167","ND","0,864","1,4","153,1","28,5","60,7"],
    [43318,"43622,58333","ND","0,471","1,1","140,5","28,9","58,6"],
    [43319,"43622,625","ND","0,157","3,1","292,5","28,2","59,1"],
    [43320,"43622,66667","ND","0,026","2,5","303,6","24,9","76,1"],
    [43321,"43622,70833","ND","0,079","3","318,6","25,5","71,2"],
    [43322,"43622,75","ND","1,388","2,7","261,8","25,6","67,3"],
    [43323,"43622,79167","ND","2,147","0,9","183,9","25,7","69,8"],
    [43324,"43622,83333","ND","1,65","1,5","102,5","24,2","76,3"],
    [43325,"43622,875","ND","0,262","0,8","207,6","21,8","87,1"],
    [43326,"43622,91667","ND","0,707","0,8","169,1","21,3","91,2"],
    [43327,"43622,95833","ND","0,026","0,5","141,1","21,1","92,6"],
    [43328,"43623","ND","0,026","0,8","199,9","21","93,9"],
    [43329,"43623,04167","ND","0","0,3","156,8","21,1","94,3"],
    [43330,"43623,08333","ND","0,131","0,4","127,8","21","94,9"],
    [43331,"43623,125","ND","0","0,3","162,1","20,9","95,2"],
    [43332,"43623,16667","ND","0","0,8","89,3","20,8","95,4"],
    [43333,"43623,20833","ND","0","0,7","129,1","20,6","96"],
    [43334,"43623,25","ND","0,026","0,4","130,6","20,6","96,5"],
    [43335,"43623,29167","ND","2,671","0,3","139,1","20,8","96,7"],
    [43336,"43623,33333","ND","3,116","0,5","131,4","21","96,7"],
    [43337,"43623,375","ND","1,257","0,5","187","21,3","95,9"],
    [43338,"43623,41667","ND","1,623","1","111,5","21,9","94,1"],
    [43339,"43623,45833","ND","0,183","1","220,4","22,8","88,6"],
    [43340,"43623,5","ND","0,812","1","180,4","24,6","77"],
    [43341,"43623,54167","ND","0,602","2,3","220,2","25,4","72,3"],
    [43342,"43623,58333","ND","0,969","2,3","114,3","27","65"],
    [43343,"43623,625","ND","0,157","2,9","270,7","27","63,1"],
    [43344,"43623,66667","ND","0,105","3,1","260,8","25,4","68,9"],
    [43345,"43623,70833","ND","0,288","1,3","175,7","21,8","87,2"],
    [43346,"43623,75","ND","4,503","0,9","158,5","21,3","93,2"],
    [43347,"43623,79167","ND","4,608","0,7","156,8","21,3","94,3"],
    [43348,"43623,83333","ND","5,577","0,8","204,7","21,2","94,6"],
    [43349,"43623,875","ND","1,074","1","142,1","21,2","94,7"],
    [43350,"43623,91667","ND","2,016","0,4","100,1","21,1","94,8"],
    [43351,"43623,95833","ND","0,943","0,5","158,4","20,8","95"],
    [43352,"43624","ND","0,628","0,6","233,4","20,4","95,1"],
    [43353,"43624,04167","ND","0,759","0,4","159,8","20,7","95,1"],
    [43354,"43624,08333","ND","0,969","0,7","130,5","20,7","95,2"],
    [43355,"43624,125","ND","0","0,5","95,1","20,6","95,6"],
    [43356,"43624,16667","ND","0,026","0,8","103,1","20,7","95,7"],
    [43357,"43624,20833","ND","0,105","0,2","69,8","20,7","95,7"],
    [43358,"43624,25","ND","0,314","0,3","167,1","20,7","95,6"],
    [43359,"43624,29167","ND","0,995","0,3","175,4","20,6","95,1"],
    [43360,"43624,33333","ND","1,859","0,5","191,3","21","93,9"],
    [43361,"43624,375","ND","0,209","0,7","189,3","21,6","90,4"],
    [43362,"43624,41667","ND","0,916","1","109,4","22,8","85,3"],
    [43363,"43624,45833","ND","1,257","1,2","153,5","23,4","81"],
    [43364,"43624,5","ND","0,34","0,9","177,2","25","70,4"],
    [43365,"43624,54167","ND","0,157","1,3","164,8","26,9","63,6"],
    [43366,"43624,58333","ND","0,628","1,4","129,4","28,1","59,8"],
    [43367,"43624,625","ND","0,497","1,7","141,7","28,4","59,1"],
    [43368,"43624,66667","ND","0,445","1,1","182,7","28,8","58,7"],
    [43369,"43624,70833","ND","0,943","1,7","239,2","29","58,5"],
    [43370,"43624,75","ND","0,864","2","306,2","27,6","62"],
    [43371,"43624,79167","ND","1,021","1,6","283,4","26,3","64,6"],
    [43372,"43624,83333","ND","1,519","1,2","206,7","24,9","71,4"],
    [43373,"43624,875","ND","0,576","1,7","239,9","23,9","74,9"],
    [43374,"43624,91667","ND","1,335","1","241,6","23,3","77,9"],
    [43375,"43624,95833","ND","5,76","0,6","210,7","23,3","79"],
    [43376,"43625","ND","2,304","1","245,4","22,7","82,3"],
    [43377,"43625,04167","ND","2,435","0,7","199,3","22","85,2"],
    [43378,"43625,08333","ND","1,152","0,4","208,8","21,8","87"],
    [43379,"43625,125","ND","1,728","0,4","179,7","21,6","87,8"],
    [43380,"43625,16667","ND","1,44","0,5","208,8","21,7","87,9"],
    [43381,"43625,20833","ND","1,126","0,6","226","21,5","88,9"],
    [43382,"43625,25","ND","0,288","0,4","180,2","21,5","89,4"],
    [43383,"43625,29167","ND","1,074","0,5","217,7","21,8","89,6"],
    [43384,"43625,33333","ND","0,655","0,6","164,3","22,6","87,3"],
    [43385,"43625,375","ND","0,733","1,4","147,5","24,5","77,5"],
    [43386,"43625,41667","ND","2,644","1,2","111,9","26,4","69,9"],
    [43387,"43625,45833","ND","2,671","1,5","110,6","27,5","65,5"],
    [43388,"43625,5","ND","1,911","1,4","129,3","28,3","62,4"],
    [43389,"43625,54167","ND","1,283","1,2","131,6","28,8","60,5"],
    [43390,"43625,58333","ND","1,204","1,5","143,1","28,7","60,9"],
    [43391,"43625,625","ND","0,602","1,1","232,6","29,4","59,4"],
    [43392,"43625,66667","ND","0,079","3,1","310,1","28,8","58,7"],
    [43393,"43625,70833","ND","0,052","3,4","313,2","27,6","61,4"],
    [43394,"43625,75","ND","0,733","4,7","323,1","26,4","65,2"],
    [43395,"43625,79167","ND","0,026","4,1","309,3","25,8","64,9"],
    [43396,"43625,83333","ND","0,183","2,7","298,2","26","63,1"],
    [43397,"43625,875","ND","0,707","0,9","156,3","25,5","66,1"],
    [43398,"43625,91667","ND","2,226","1,1","177","24,8","73,6"],
    [43399,"43625,95833","ND","0,681","1","198,3","23,7","81,7"],
    [43400,"43626","ND","1,047","0,7","209,5","23,1","84,6"],
    [43401,"43626,04167","ND","0,471","0,4","155,8","23,2","84,7"],
    [43402,"43626,08333","ND","0,079","0,7","171,6","23,1","85,2"],
    [43403,"43626,125","ND","0","0,6","190,2","22,4","86,8"],
    [43404,"43626,16667","ND","0,026","0,6","195,8","22,1","88,2"],
    [43405,"43626,20833","ND","0","0,6","217,2","21,5","88,5"],
    [43406,"43626,25","ND","0,733","0,7","205,1","21,3","89"],
    [43407,"43626,29167","ND","7,829","0,7","233,6","21,4","88,7"],
    [43408,"43626,33333","ND","5,184","0,5","184,8","22,8","85,1"],
    [43409,"43626,375","ND","1,257","1,1","144,9","24,4","76,4"],
    [43410,"43626,41667","ND","1,204","1,2","120","25,4","72,7"],
    [43411,"43626,45833","ND","0,89","1,2","123,5","27","66,6"],
    [43412,"43626,5","ND","0,838","1,5","127,9","27,9","63,4"],
    [43413,"43626,54167","ND","0,393","1,2","144,4","28,8","59,3"],
    [43414,"43626,58333","ND","0,367","1,4","169","29,8","55,4"],
    [43415,"43626,625","ND","0,864","1,2","170,6","30,1","53,6"],
    [43416,"43626,66667","ND","0,183","3,7","304,3","27,9","58"],
    [43417,"43626,70833","ND","0","4,3","305,2","27","58,7"],
    [43418,"43626,75","ND","1,571","1,9","223","26,5","67,5"],
    [43419,"43626,79167","ND","1,859","1,1","202,3","23,7","82,4"],
    [43420,"43626,83333","ND","2,749","2,5","144","21,7","88,3"],
    [43421,"43626,875","ND","3,221","0,7","126,6","22,4","88"],
    [43422,"43626,91667","ND","4,425","0,8","182,9","22,3","87,7"],
    [43423,"43626,95833","ND","2,016","0,8","201","21,9","91,3"],
    [43424,"43627","ND","1,204","0,7","192,1","21,9","92,9"],
    [43425,"43627,04167","ND","0,131","0,5","92,9","21,7","93,6"],
    [43426,"43627,08333","ND","0","0,7","134,8","21,8","93,2"],
    [43427,"43627,125","ND","0","0,5","99,7","21,5","93,7"],
    [43428,"43627,16667","ND","0","0,7","140,5","21,4","94,3"],
    [43429,"43627,20833","ND","0","0,4","73,8","21,3","95"],
    [43430,"43627,25","ND","0,628","0,5","156,8","21,3","95,3"],
    [43431,"43627,29167","ND","0,55","0,7","111,6","21,5","95,5"],
    [43432,"43627,33333","ND","1,833","0,7","151,5","21,6","95,4"],
    [43433,"43627,375","ND","1,178","1,2","153,3","22,1","93,9"],
    [43434,"43627,41667","ND","0,471","0,8","148,5","23,3","88,9"],
    [43435,"43627,45833","ND","0,262","0,9","167,3","24,7","80,1"],
    [43436,"43627,5","ND","0,288","1","135,2","26,5","70,1"],
    [43437,"43627,54167","ND","0,131","1,2","106,8","27,7","66,2"],
    [43438,"43627,58333","ND","0,105","1,3","120,3","28,5","61,7"],
    [43439,"43627,625","ND","0,367","1,4","190,9","28,7","60,8"],
    [43440,"43627,66667","ND","0,445","1,3","180,4","28,8","60,8"],
    [43441,"43627,70833","ND","3,613","1,7","256,3","27,7","60"],
    [43442,"43627,75","ND","0,838","1,7","293,7","27,7","59,7"],
    [43443,"43627,79167","ND","3,875","0,7","215,4","26,4","65,9"],
    [43444,"43627,83333","ND","2,147","0,8","229","25,2","71,9"],
    [43445,"43627,875","ND","1,885","0,6","182,9","24,9","72,8"],
    [43446,"43627,91667","ND","2,199","0,6","181","24,7","75,7"],
    [43447,"43627,95833","ND","1,44","0,8","227,5","23","87,3"],
    [43448,"43628","ND","1,021","1,1","254,7","22,4","90"],
    [43449,"43628,04167","ND","0,052","0,7","194,1","22","91,3"],
    [43450,"43628,08333","ND","0,026","0,6","184,9","22","92,5"],
    [43451,"43628,125","ND","0,183","0,4","147,1","22","92,8"],
    [43452,"43628,16667","ND","0","0,3","108,8","22","93,8"],
    [43453,"43628,20833","28,5","0","0,5","216,8","21,5","94,4"],
    [43454,"43628,25","20","1,178","0,6","184,8","21,2","94,1"],
    [43455,"43628,29167","54","1,911","0,5","193,5","21,4","93,5"],
    [43456,"43628,33333","68,3","4,006","0,6","123,7","22,3","92"],
    [43457,"43628,375","72,8","2,147","0,8","113,4","23","88,9"],
    [43458,"43628,41667","77,2","1,231","1,1","88,1","24,4","82,5"],
    [43459,"43628,45833","70,2","1,571","1,3","90","25,4","75,6"],
    [43460,"43628,5","62,1","1,335","1,5","95,1","27,1","68,6"],
    [43461,"43628,54167","35,5","1,571","1,4","108,7","28,4","60,9"],
    [43462,"43628,58333","40,8","2,068","1,7","60,1","28","63,1"],
    [43463,"43628,625","ND","ND","ND","ND","ND","ND"],
    [43464,"43628,66667","ND","ND","ND","ND","ND","ND"],
    [43465,"43628,70833","ND","2,121","1,5","170","29,6","58,4"],
    [43466,"43628,75","ND","0,157","3,1","315,9","28,3","58,8"],
    [43467,"43628,79167","ND","1,676","2,1","278,8","27,2","61,7"],
    [43468,"43628,83333","41,4","1,911","1,4","252","25,6","71,5"],
    [43469,"43628,875","43,1","0,969","1","245,6","24,7","75,3"],
    [43470,"43628,91667","36,5","1,807","1,1","237,2","24,2","76,1"],
    [43471,"43628,95833","38,4","1,545","0,9","241,1","23,5","78,9"],
    [43472,"43629","65,4","0,026","1,3","242,2","22,9","81,5"],
    [43473,"43629,04167","22,2","0,105","0,7","189,2","22,9","82,4"],
    [43474,"43629,08333","27,8","0,052","0,9","211,5","23,1","84,4"],
    [43475,"43629,125","46,5","0","0,6","225,1","22,2","86,3"],
    [43476,"43629,16667","30,2","0","0,9","228","21,5","88"],
    [43477,"43629,20833","24","2,618","0,7","233,8","21,2","88,1"],
    [43478,"43629,25","28,5","0,969","0,6","190","21,4","87,2"],
    [43479,"43629,29167","51,3","4,687","0,7","228,9","21,8","86,6"],
    [43480,"43629,33333","85,9","5,525","0,4","205,9","22,8","82,8"],
    [43481,"43629,375","72,5","3,063","0,5","174,3","24,2","78,1"],
    [43482,"43629,41667","68,3","1,911","1","103,8","26","71,9"],
    [43483,"43629,45833","82","1,231","1,2","107,6","27,4","67"],
    [43484,"43629,5","72,1","1,126","1,1","158,3","27,3","66"],
    [43485,"43629,54167","59,6","1,178","1,6","152,1","27,9","64"],
    [43486,"43629,58333","65,3","1,204","1,3","138,2","28,5","61,7"],
    [43487,"43629,625","65,5","0,262","2,5","278,7","25,6","71"],
    [43488,"43629,66667","ND","0,026","2,8","302,8","27,4","62,8"],
    [43489,"43629,70833","19,8","0,026","3,7","322,8","27,3","64,7"],
    [43490,"43629,75","11,9","0,079","3,9","313,5","26,5","65,2"],
    [43491,"43629,79167","5","0,183","4,2","309,6","25,9","65,3"],
    [43492,"43629,83333","11","1,204","3","295,3","25,5","67,1"],
    [43493,"43629,875","15,7","3,927","0,6","153,9","24,8","73,1"],
    [43494,"43629,91667","61,3","2,749","0,7","200,2","23,7","80,6"],
    [43495,"43629,95833","48,2","2,199","0,8","222,7","23,3","83,7"],
    [43496,"43630","40,9","0,759","0,9","213,3","23,2","84,2"],
    [43497,"43630,04167","30,9","0,209","0,6","203,3","23,1","84,8"],
    [43498,"43630,08333","29,2","0,183","0,5","192,5","22,4","87,6"],
    [43499,"43630,125","21,4","0,026","0,6","197","22","89,2"],
    [43500,"43630,16667","22,9","0","0,5","194,8","21,9","90,1"],
    [43501,"43630,20833","25,3","8,405","0,9","237,5","21,8","90,8"],
    [43502,"43630,25","28,2","0,262","0,5","232,3","21,6","90,9"],
    [43503,"43630,29167","37,9","2,802","0,8","240,3","21,8","90,1"],
    [43504,"43630,33333","60,8","2,723","0,5","144,2","23","86"],
    [43505,"43630,375","58,2","1,571","0,7","145,3","24","81,3"],
    [43506,"43630,41667","59,6","1,335","0,8","159,7","25,1","77,8"],
    [43507,"43630,45833","79,6","0,785","1,4","198,9","26,7","71,8"],
    [43508,"43630,5","79,3","1,152","1,2","130,9","28,3","61,9"],
    [43509,"43630,54167","49,7","1,728","1,4","108,8","29,6","58,4"],
    [43510,"43630,58333","54,5","1,152","1,5","199,3","30,5","54,7"],
    [43511,"43630,625","39,8","0,524","2,8","250,8","29,5","57"],
    [43512,"43630,66667","25,2","0,052","3,3","310,8","28,9","57,1"],
    [43513,"43630,70833","3,5","0,026","4,6","314,9","28,1","59,6"],
    [43514,"43630,75","15,9","0,026","5,4","316","26,8","63"],
    [43515,"43630,79167","13,8","0,602","3,2","296,6","26,3","63,3"],
    [43516,"43630,83333","11,2","0,838","1,6","209,5","26","65,3"],
    [43517,"43630,875","20,6","0,916","2","146,7","24,2","75,6"],
    [43518,"43630,91667","51,4","0,602","1","158,7","23,2","82"],
    [43519,"43630,95833","32,3","1,257","0,6","221,7","22,9","83,8"],
    [43520,"43631","44,1","0,209","1","254,3","22,6","84,6"],
    [43521,"43631,04167","22,5","0,079","0,8","229","22,7","83,8"],
    [43522,"43631,08333","17,8","0","0,6","58,9","22,5","85,2"],
    [43523,"43631,125","35,8","0,026","1","237,6","21,5","87,9"],
    [43524,"43631,16667","8,5","0,497","0,5","204,6","21,4","88,3"],
    [43525,"43631,20833","27,3","1,964","0,7","205,5","21,5","88,1"],
    [43526,"43631,25","23,2","1,283","0,7","207,8","21,2","89,1"],
    [43527,"43631,29167","37,9","0,89","0,7","154,1","21,3","89"],
    [43528,"43631,33333","44,4","2,199","0,6","77,2","22,9","85,5"],
    [43529,"43631,375","49,5","1,78","1,2","123,2","24,5","77,9"],
    [43530,"43631,41667","77,8","0,445","1","168,7","25,6","72,9"],
    [43531,"43631,45833","57,3","0,497","1,1","143,8","27,4","66,2"],
    [43532,"43631,5","54,7","0,262","1","146,4","28,3","61"],
    [43533,"43631,54167","39,4","1,414","1,7","158,7","29,7","56,2"],
    [43534,"43631,58333","56","1,074","1,7","107,1","29,2","58,5"],
    [43535,"43631,625","70","1,362","1,2","107,4","28,6","60,6"],
    [43536,"43631,66667","63,4","0,602","1,9","202,3","27,2","68,1"],
    [43537,"43631,70833","54,7","1,021","2,6","286,5","26,8","66,2"],
    [43538,"43631,75","5,8","0","4,6","314,1","25,7","65,9"],
    [43539,"43631,79167","2,3","0,236","3,8","293,6","25,7","63,2"],
    [43540,"43631,83333","11,8","2,54","1,1","251","25,1","69,1"],
    [43541,"43631,875","38,4","1,702","1,2","159,8","25,3","68"],
    [43542,"43631,91667","50,3","0,969","1,4","207,1","24,5","74,9"],
    [43543,"43631,95833","34","0,026","1,5","205,2","22,8","81,1"],
    [43544,"43632","1,5","0,131","0,7","153,9","22,4","78,9"],
    [43545,"43632,04167","24","0,052","0,7","167,1","21,8","83,7"],
    [43546,"43632,08333","25,2","0,288","1,2","232,2","21,2","89,9"],
    [43547,"43632,125","17,3","0","1,1","242,1","20,8","91,6"],
    [43548,"43632,16667","23,3","0,079","0,6","180,8","20,7","91,6"],
    [43549,"43632,20833","26","3,011","0,7","214","20,8","92,3"],
    [43550,"43632,25","18,1","1,152","0,6","232,5","20,8","92,7"],
    [43551,"43632,29167","26,5","0,681","0,8","224,3","20,6","92,7"],
    [43552,"43632,33333","26","0,052","0,6","149,4","22,4","88,2"],
    [43553,"43632,375","28,3","0,576","0,9","117,6","23,8","78,7"],
    [43554,"43632,41667","22,4","0,052","1,2","221,1","24,8","74,8"],
    [43555,"43632,45833","28,6","0,026","1,2","187,4","26,7","68,1"],
    [43556,"43632,5","21,5","0","1,3","178,3","28,2","62,5"],
    [43557,"43632,54167","29,1","1,335","1,5","126,8","29","60"],
    [43558,"43632,58333","16,1","0,131","1,1","163","29,5","57,6"],
    [43559,"43632,625","33,5","0,497","1,3","161","29,6","57,7"],
    [43560,"43632,66667","48,4","0,524","1,2","144","29,9","56,7"],
    [43561,"43632,70833","41,7","1,021","1,1","112,6","30,1","56,4"],
    [43562,"43632,75","55,8","3,063","1,2","142,4","29,2","60,2"],
    [43563,"43632,79167","57,4","1,1","0,9","311,6","27,7","67"],
    [43564,"43632,83333","62,8","1,964","1,1","251,9","26,1","73,6"],
    [43565,"43632,875","54","2,514","1,4","251,1","25,2","76"],
    [43566,"43632,91667","44,2","1,074","0,9","232,3","24,7","76,5"],
    [43567,"43632,95833","41,2","3,797","0,7","211","24,1","78,9"],
    [43568,"43633","52,1","0,445","1","241,7","23,2","82,1"],
    [43569,"43633,04167","32,8","0,079","0,9","230,4","22,6","83,2"],
    [43570,"43633,08333","28,1","0,026","0,6","228,9","22","85,3"],
    [43571,"43633,125","28","0","0,7","245,3","21,5","86,4"],
    [43572,"43633,16667","26,7","0","0,7","219,6","21,1","87"],
    [43573,"43633,20833","23","0,157","0,5","202,1","21","87,4"],
    [43574,"43633,25","37,8","1,178","0,5","201,8","20,7","88,9"],
    [43575,"43633,29167","84,1","6,624","0,5","205,2","20,8","90,3"],
    [43576,"43633,33333","88,9","3,509","0,5","151,4","22,8","86,3"],
    [43577,"43633,375","99,3","2,933","0,8","111,9","24,8","76,4"],
    [43578,"43633,41667","99,3","3,43","1,1","132,2","26,9","66,7"],
    [43579,"43633,45833","96,1","3,666","1,5","121,5","28,3","63,5"],
    [43580,"43633,5","75,5","2,121","1,5","143,2","29,4","58,6"],
    [43581,"43633,54167","57,7","2,042","1,6","111,2","29,9","55,6"],
    [43582,"43633,58333","57","1,885","1,4","95,3","29,5","57,2"],
    [43583,"43633,625","80,8","2,514","1,2","107,6","29,9","58,1"],
    [43584,"43633,66667","84,2","0,707","2,8","307,5","30,5","55,5"],
    [43585,"43633,70833","20,4","0,183","2,5","319,2","30,5","54,5"],
    [43586,"43633,75","23","0,995","2,1","304,7","29,6","57,7"],
    [43587,"43633,79167","22,3","2,461","1","175,3","28","62,2"],
    [43588,"43633,83333","41","1,309","1,3","224,5","26,8","66,5"],
    [43589,"43633,875","36,5","1,44","1,7","236,4","26,1","69,9"],
    [43590,"43633,91667","44,8","1,492","0,9","242,6","25,3","73,9"],
    [43591,"43633,95833","50","4,503","0,7","197,2","24,4","78,2"],
    [43592,"43634","49","0,314","0,9","237,2","23,8","80,9"],
    [43593,"43634,04167","42,6","0,026","0,7","229,1","23,8","80,7"],
    [43594,"43634,08333","35,7","0,026","0,8","240,1","23,4","82"],
    [43595,"43634,125","31,3","0","0,4","187,1","22,9","84,7"],
    [43596,"43634,16667","37,6","0","0,8","225,1","22,3","86,6"],
    [43597,"43634,20833","37,7","0,052","1","245","22,1","87,2"],
    [43598,"43634,25","43,7","0,419","0,6","197,2","22,2","87,2"],
    [43599,"43634,29167","70,9","5,21","0,8","203,8","22,2","87,5"],
    [43600,"43634,33333","81,1","5,498","0,7","170,7","23,7","82,5"],
    [43601,"43634,375","109,5","2,356","1,1","94,4","25,7","74"],
    [43602,"43634,41667","83","0,916","1,1","111","27,9","59,6"],
    [43603,"43634,45833","39,1","2,199","1,4","107,7","28,7","55,5"],
    [43604,"43634,5","64,7","2,383","1,4","128,2","29,4","54,9"],
    [43605,"43634,54167","81,1","4,294","1,3","131,4","30,9","51,5"],
    [43606,"43634,58333","92,5","2,356","1,8","192,3","31,6","49,5"],
    [43607,"43634,625","69,1","3,221","2,1","101","31,7","53,1"],
    [43608,"43634,66667","92,6","0,969","2,6","251,2","30,7","57,5"],
    [43609,"43634,70833","48,7","0,314","3","314,8","30,6","56,1"],
    [43610,"43634,75","33,6","1,78","2,6","314,9","29,6","57,9"],
    [43611,"43634,79167","30,7","2,356","1,9","281,5","28,4","60,3"],
    [43612,"43634,83333","34,1","1,938","1,1","172,4","27,4","63,6"],
    [43613,"43634,875","44,9","2,226","1,8","218,3","26,7","64,6"],
    [43614,"43634,91667","28,2","1,597","1,2","181,7","26,6","65,3"],
    [43615,"43634,95833","53,1","1,257","0,7","217,6","25,2","71,9"],
    [43616,"43635","50,8","0,969","0,7","219,3","23,8","77,2"],
    [43617,"43635,04167","37,1","0","0,8","232","23,2","79,3"],
    [43618,"43635,08333","26,3","0","0,8","211,3","22,8","80,2"],
    [43619,"43635,125","28","0","1","230,3","22,5","80,2"],
    [43620,"43635,16667","16,7","0","0,8","225,8","22,7","77,2"],
    [43621,"43635,20833","20,9","0","0,6","130,2","22,7","78,8"],
    [43622,"43635,25","50,8","1,362","0,5","202,1","22,2","80"],
    [43623,"43635,29167","52,8","4,137","0,7","225","21,8","82,5"],
    [43624,"43635,33333","64,5","6,808","0,8","241,1","21,7","82"],
    [43625,"43635,375","65,5","4,896","0,7","192,5","22,3","80,1"],
    [43626,"43635,41667","76","3,77","0,5","184,9","22,8","79,7"],
    [43627,"43635,45833","97,5","3,247","0,5","203,5","24,1","74,7"],
    [43628,"43635,5","83,4","0,89","1","129,1","26,7","61,1"],
    [43629,"43635,54167","46,6","ND","1,3","111","27,8","55,9"],
    [43630,"43635,58333","80,3","0,733","1,5","109,5","28","58,7"],
    [43631,"43635,625","94,6","0,419","1","120,4","28,6","57,8"],
    [43632,"43635,66667","80,3","0,209","1,3","108,8","28,3","59"],
    [43633,"43635,70833","84,5","0,681","1,3","104,1","28,1","60"],
    [43634,"43635,75","90,9","0,838","1","123,5","27,5","62,7"],
    [43635,"43635,79167","102,2","0,131","1,3","229,6","26,2","69,4"],
    [43636,"43635,83333","114,3","0","1,2","250,6","25","74,5"],
    [43637,"43635,875","104,5","0","1,3","238,2","24,3","75,7"],
    [43638,"43635,91667","57,7","0","1,1","256,9","24","75,2"],
    [43639,"43635,95833","55","0","1","217,2","23,4","77,7"],
    [43640,"43636","52,9","0","0,5","197,9","23,1","78,9"],
    [43641,"43636,04167","49,6","0","0,7","219,2","22,6","81,4"],
    [43642,"43636,08333","48,7","0","0,6","183","22,3","83,3"],
    [43643,"43636,125","45,1","0","0,6","208,6","22","84,8"],
    [43644,"43636,16667","44,8","0","0,5","181,3","21,6","86"],
    [43645,"43636,20833","38","0","0,3","141,4","21,4","86,4"],
    [43646,"43636,25","45,5","0,026","0,8","204,3","21,2","87,2"],
    [43647,"43636,29167","55,7","0","0,7","208,5","21,4","87,1"],
    [43648,"43636,33333","96,7","0,026","0,5","159,5","22,7","84"],
    [43649,"43636,375","85,8","0,026","1","90,1","24,7","76,4"],
    [43650,"43636,41667","154","0,314","1,2","84,8","25,8","73,7"],
    [43651,"43636,45833","152,3","1,126","1,2","116,1","27,4","66,7"],
    [43652,"43636,5","114,1","0,681","1,4","139,2","28,3","61,4"],
    [43653,"43636,54167","78,1","0,34","1,1","163,4","30","53,4"],
    [43654,"43636,58333","61,4","0,497","1,8","120","30,2","52,7"],
    [43655,"43636,625","82,9","0,393","1,7","93,8","30","53,1"],
    [43656,"43636,66667","80,3","0,314","1,4","137,9","30,1","55,3"],
    [43657,"43636,70833","85,1","0,314","1,2","118","29,7","56,1"],
    [43658,"43636,75","90,4","0","2,3","316,3","28,6","60,4"],
    [43659,"43636,79167","51,4","0","1,7","269,6","27,7","62,9"],
    [43660,"43636,83333","51,7","0","0,9","255,3","26,7","68,2"],
    [43661,"43636,875","95,8","0","1,2","225,1","26,4","67"],
    [43662,"43636,91667","41,4","0","1,2","214","26","66,5"],
    [43663,"43636,95833","38,7","0","0,9","193,4","26","67,3"],
    [43664,"43637","83,5","0","0,7","223,7","25,2","71,6"],
    [43665,"43637,04167","64,5","0","0,8","185,1","24,6","74"],
    [43666,"43637,08333","46,3","0","1,7","219,8","23,4","83,6"],
    [43667,"43637,125","72,7","0","1,1","271,3","22,4","89,2"],
    [43668,"43637,16667","23,8","0","0,9","220,7","21,9","89,2"],
    [43669,"43637,20833","14","0","0,9","193,2","21,8","89,2"],
    [43670,"43637,25","31,2","0","0,9","229,7","21,5","89,3"],
    [43671,"43637,29167","29,4","0","0,7","216,9","21,4","88,4"],
    [43672,"43637,33333","61,5","0","0,7","215,5","22,3","85"],
    [43673,"43637,375","62,6","0","0,5","211,6","24,1","78,7"],
    [43674,"43637,41667","85,7","0","0,5","178,1","25,1","71,8"],
    [43675,"43637,45833","65,2","0,183","1","128,7","26","71,1"],
    [43676,"43637,5","106","0,131","0,8","128,3","27,3","67,8"],
    [43677,"43637,54167","90,1","0,367","1,3","134,4","28,4","60,1"],
    [43678,"43637,58333","84,8","0,209","1,1","144,3","28,9","58"],
    [43679,"43637,625","83,2","0,497","1,9","144,3","28,9","58,8"],
    [43680,"43637,66667","101","0,183","1,2","160,6","27,9","63,2"],
    [43681,"43637,70833","65,7","0,236","1,1","129,1","28,2","62,2"],
    [43682,"43637,75","79,5","0,209","1,1","171,9","27,7","61,5"],
    [43683,"43637,79167","81,2","0,052","0,5","191,7","27,1","65,8"],
    [43684,"43637,83333","123,7","0","1","242,9","25,6","76"],
    [43685,"43637,875","85,2","0","1,9","251,9","24,3","78,6"],
    [43686,"43637,91667","42,8","0","1,2","257,6","23,8","78,1"],
    [43687,"43637,95833","50,5","0","1","257,2","23,4","79"],
    [43688,"43638","40,8","0","0,6","204,8","23,1","79,1"],
    [43689,"43638,04167","55,3","0","0,8","227,4","22,8","81,1"],
    [43690,"43638,08333","48,5","0","0,7","207,6","22,2","81,7"],
    [43691,"43638,125","28,5","0","0,7","227,2","21,9","83,3"],
    [43692,"43638,16667","31,9","0","0,6","200,8","21,8","84"],
    [43693,"43638,20833","38,6","0","0,7","232,1","21,5","85,4"],
    [43694,"43638,25","40,6","0","0,7","218,6","21,2","86"],
    [43695,"43638,29167","55,5","0","0,6","228","21","86,5"],
    [43696,"43638,33333","68,9","0","0,6","204,3","22,1","84,1"],
    [43697,"43638,375","76,5","0","0,6","127,3","24,2","76,9"],
    [43698,"43638,41667","94,9","0,131","1,3","99,2","26","71,3"],
    [43699,"43638,45833","93,5","0,288","1,4","112,5","26,9","67,6"],
    [43700,"43638,5","75,5","0,209","1,1","124,7","27,6","64,4"],
    [43701,"43638,54167","64,6","0,576","1,5","103,7","29,3","55,8"],
    [43702,"43638,58333","79,1","0,419","1,6","109,2","29,9","54,7"],
    [43703,"43638,625","84,6","0,209","1,4","111,3","29,5","54,8"],
    [43704,"43638,66667","70,2","0,471","1,1","185,3","29,9","51,2"],
    [43705,"43638,70833","56,3","0,681","1,2","228,3","30,4","51,5"],
    [43706,"43638,75","90,8","0","2,3","319","28,7","58,1"],
    [43707,"43638,79167","26,5","0","1,6","262,2","27,4","61,5"],
    [43708,"43638,83333","33,1","0","1,1","252","26,5","65,5"],
    [43709,"43638,875","48,7","0","1,3","243","26,3","65,3"],
    [43710,"43638,91667","39,1","0","0,9","174,1","26,3","64,3"],
    [43711,"43638,95833","65,3","0","0,8","231,8","25,2","70"],
    [43712,"43639","65,6","0","0,6","208,9","24,4","72,7"],
    [43713,"43639,04167","59,3","0","0,9","225,3","23,6","76"],
    [43714,"43639,08333","41,9","0","0,6","212,2","23,1","77,7"],
    [43715,"43639,125","44,5","0","0,6","211,6","22,8","79,8"],
    [43716,"43639,16667","45,5","0","0,5","211,5","22,7","80,4"],
    [43717,"43639,20833","41,7","0","0,5","171,1","22,6","81,5"],
    [43718,"43639,25","63","0,079","0,8","197","22,5","82,4"],
    [43719,"43639,29167","41,3","0","0,7","230,5","22,8","81,8"],
    [43720,"43639,33333","44,1","0","0,5","203,1","23,9","77,3"],
    [43721,"43639,375","48,9","0","0,9","142,8","25,7","70,7"],
    [43722,"43639,41667","68","0,157","1,2","142,8","26,7","64,5"],
    [43723,"43639,45833","52,1","0,131","1,1","160,3","27,2","63,4"],
    [43724,"43639,5","55,9","0,079","1","139,6","28,2","60,8"],
    [43725,"43639,54167","54,4","0,131","1,5","134,2","29,3","54,6"],
    [43726,"43639,58333","44,7","0,105","1,2","158,9","30,4","50,8"],
    [43727,"43639,625","38,3","0,052","1,7","193,4","29,4","52,9"],
    [43728,"43639,66667","41,1","0","1,8","254,4","28,8","56,2"],
    [43729,"43639,70833","41,6","0","3,1","314,3","27,8","59,4"],
    [43730,"43639,75","2","0","3,6","323,4","27,1","59,5"],
    [43731,"43639,79167","15,7","0","3,1","309","26,7","62"],
    [43732,"43639,83333","14","0","1,7","258,3","26,4","63,5"],
    [43733,"43639,875","18,6","0","1,1","197,2","25,9","65,6"],
    [43734,"43639,91667","25,9","0","0,7","230,6","25","70"],
    [43735,"43639,95833","57,7","0","0,5","199,5","24,2","73,8"],
    [43736,"43640","48,2","0","0,6","233,1","23,7","75,9"],
    [43737,"43640,04167","44,9","0","0,5","198,6","23,1","78,3"],
    [43738,"43640,08333","26,6","0","0,6","232,3","22,6","80,9"],
    [43739,"43640,125","29,4","0","0,6","214,7","22,4","82,6"],
    [43740,"43640,16667","31,1","0","0,6","219,5","22,4","83,2"],
    [43741,"43640,20833","37,3","0","0,5","188,2","22,1","85,1"],
    [43742,"43640,25","36,3","0","0,6","228,6","22","85,1"],
    [43743,"43640,29167","34,7","0","0,7","219,3","22,1","85,4"],
    [43744,"43640,33333","43,6","0","0,6","109,6","22,9","83,4"],
    [43745,"43640,375","40,7","0,707","1,4","150,8","24","76"],
    [43746,"43640,41667","57,4","1,65","1","161,2","25,7","70,2"],
    [43747,"43640,45833","43,2","0,969","0,8","146,3","27,1","64,9"],
    [43748,"43640,5","37,5","1,283","1,4","106,4","28,1","61,1"],
    [43749,"43640,54167","51,4","1,414","1,5","108,2","28,8","60"],
    [43750,"43640,58333","67,6","1,178","1,5","131,4","29,5","58,9"],
    [43751,"43640,625","66,1","0,34","2","258,9","29,6","57,6"],
    [43752,"43640,66667","55,7","0,052","3,2","297,9","29,6","55,3"],
    [43753,"43640,70833","8,2","0","4,1","320,5","28,8","56,7"],
    [43754,"43640,75","10,5","0","4,3","325,9","27,3","60,7"],
    [43755,"43640,79167","6,3","0","4,4","324,3","26,1","64,5"],
    [43756,"43640,83333","7,4","0","3,9","299,9","25,9","64,6"],
    [43757,"43640,875","7,1","0","0,8","102,8","25,9","65,9"],
    [43758,"43640,91667","36,5","0","1,1","137,2","25,2","68,9"],
    [43759,"43640,95833","47,7","0","1","191,9","24,5","71,7"],
    [43760,"43641","40,5","0,079","0,8","84,8","24,1","74,2"],
    [43761,"43641,04167","30,3","0,026","1,2","47,9","23,2","82"],
    [43762,"43641,08333","40,1","0,105","0,7","71,1","22,5","88,3"],
    [43763,"43641,125","17,6","0,026","0,8","127,8","22,2","88,9"],
    [43764,"43641,16667","12,1","0","0,9","124,5","21,9","89,6"],
    [43765,"43641,20833","16,9","0","1","84,8","21,7","90,6"],
    [43766,"43641,25","13,9","0,026","1","103,2","21,5","91,7"],
    [43767,"43641,29167","13,7","0","0,9","129,2","21","93,3"],
    [43768,"43641,33333","16,4","0","0,7","100,3","21","94,6"],
    [43769,"43641,375","22,2","0,026","0,9","108,4","21,4","94,9"],
    [43770,"43641,41667","22,5","0","0,9","120,9","21,9","93"],
    [43771,"43641,45833","25,3","0","0,5","202,8","22,1","92,3"],
    [43772,"43641,5","27,9","0,026","1","132,5","24","86,1"],
    [43773,"43641,54167","42,2","0,262","0,9","119,4","25,3","74,6"],
    [43774,"43641,58333","36,4","0,209","1,1","141,3","26,6","66,7"],
    [43775,"43641,625","45","0,419","1,5","172","28","60,8"],
    [43776,"43641,66667","46,4","0,262","1,3","126,4","28,6","57,8"],
    [43777,"43641,70833","49","0,026","1,7","248,5","28,1","60,8"],
    [43778,"43641,75","43,2","0,079","1,3","278,5","27","64,9"],
    [43779,"43641,79167","58,2","0,026","0,8","243,2","25,8","73,7"],
    [43780,"43641,83333","52,8","0,026","1","238,7","24,6","77"],
    [43781,"43641,875","46,6","0,052","1,1","236,8","23,9","78,2"],
    [43782,"43641,91667","47,7","0,026","1,2","241,7","23","80,6"],
    [43783,"43641,95833","48,4","0","1,2","245,7","22,3","82,3"],
    [43784,"43642","23,8","0","0,9","233,3","21,9","82,4"],
    [43785,"43642,04167","23,4","0","0,7","249,1","21,3","84,4"],
    [43786,"43642,08333","18","0","0,7","215,4","20,9","85,4"],
    [43787,"43642,125","15","0","0,8","231,4","20,4","86,1"],
    [43788,"43642,16667","17,7","0","0,9","235,5","20,1","87,7"],
    [43789,"43642,20833","16,8","0","0,8","239,8","20","88,2"],
    [43790,"43642,25","21,9","0,105","0,5","165,1","20,4","87,1"],
    [43791,"43642,29167","66,4","0,026","0,6","204","20,5","87,5"],
    [43792,"43642,33333","73,1","0,026","0,6","172,9","21,6","85,4"],
    [43793,"43642,375","64,6","0,026","1","122,3","24,3","74,4"],
    [43794,"43642,41667","64,2","0,262","1,2","157,6","25,8","69,7"],
    [43795,"43642,45833","ND","0,419","1,3","146","27,2","64,6"],
    [43796,"43642,5","ND","0,288","1,6","117,6","28,4","59,2"],
    [43797,"43642,54167","ND","0,497","1,6","118,9","29,6","55,5"],
    [43798,"43642,58333","59,3","0,367","1,4","113,6","30,3","52,5"],
    [43799,"43642,625","55,8","1,178","1,8","134","31,1","50,5"],
    [43800,"43642,66667","60,7","0,314","3,7","304,3","30,5","53,6"],
    [43801,"43642,70833","29,9","0","4,3","314,8","28,9","58"],
    [43802,"43642,75","21,7","0","5,2","300,6","27,6","60,9"],
    [43803,"43642,79167","25,1","0","4,4","307","26,9","62,4"],
    [43804,"43642,83333","18,9","0,026","1,5","195,3","26,9","63,1"],
    [43805,"43642,875","36","0","1,8","219,7","26,6","64,5"],
    [43806,"43642,91667","34,9","0","1,2","179,1","25,6","71,5"],
    [43807,"43642,95833","56,3","0","0,7","145,9","24,9","74,4"],
    [43808,"43643","64,7","0","0,8","235,7","23,9","78,9"],
    [43809,"43643,04167","41,8","0","0,4","192,9","23,1","81,7"],
    [43810,"43643,08333","25,9","0","0,8","241,6","22,4","83,9"],
    [43811,"43643,125","21,1","0","0,5","175,8","22,3","84,6"],
    [43812,"43643,16667","28,4","0","0,7","228,6","22,3","85,3"],
    [43813,"43643,20833","27,9","0","0,5","165","22","86,6"],
    [43814,"43643,25","40,3","0","0,5","177,3","22,2","86"],
    [43815,"43643,29167","58,1","0,026","1,1","244","21,6","87,1"],
    [43816,"43643,33333","50,9","0","0,5","147,6","22,8","84,2"],
    [43817,"43643,375","ND","0,079","0,9","127,2","24,4","78,3"],
    [43818,"43643,41667","ND","0,655","1,3","141,8","26,4","70,4"],
    [43819,"43643,45833","ND","1,362","1,6","152,3","27,7","65,9"],
    [43820,"43643,5","73","0,812","1,4","170,3","28,6","62,1"],
    [43821,"43643,54167","42,4","0,288","1,2","181","30","57,1"],
    [43822,"43643,58333","61,5","0,55","1,8","214,8","30,9","53,7"],
    [43823,"43643,625","75,3","0,052","3,6","314,1","31,1","52,8"],
    [43824,"43643,66667","23,3","0","4,2","305,8","30,8","52,7"],
    [43825,"43643,70833","22","0","4,5","308,1","29,9","53,9"],
    [43826,"43643,75","24","0","4,4","306,7","28,8","56,8"],
    [43827,"43643,79167","21,7","0","4,4","318,2","27,5","61,1"],
    [43828,"43643,83333","21,4","0","4,7","307,5","27,2","61,8"],
    [43829,"43643,875","22,1","0","3,3","314","27,2","62,2"],
    [43830,"43643,91667","15,4","0","1,6","223,3","26,9","63"],
    [43831,"43643,95833","30,1","0","0,8","176,9","25,9","70,8"],
    [43832,"43644","57,6","0,105","0,7","131,2","24,6","78,1"],
    [43833,"43644,04167","69,3","0","0,7","233,4","23,5","81,5"],
    [43834,"43644,08333","42,5","0","0,4","176,1","23,1","83,1"],
    [43835,"43644,125","38,7","0","0,7","231,8","22,8","84"],
    [43836,"43644,16667","31,5","0","0,7","226,8","22,5","85,4"],
    [43837,"43644,20833","38,5","0","0,7","180,8","22,4","86,2"],
    [43838,"43644,25","49,7","0","0,7","227,4","22","85,9"],
    [43839,"43644,29167","52,6","0,105","0,7","218,6","21,7","86,4"],
    [43840,"43644,33333","64,8","0,026","0,7","173,4","22,7","84,2"],
    [43841,"43644,375","85,9","0,105","1","143,4","23,9","81,1"],
    [43842,"43644,41667","124,2","0,367","1,2","82,9","25,6","74,4"],
    [43843,"43644,45833","99,8","0,628","1,4","92,6","27,4","66,5"],
    [43844,"43644,5","81,5","0,262","0,9","167,7","28,3","62,8"],
    [43845,"43644,54167","68,5","0,471","1,1","99,7","28,8","60,8"],
    [43846,"43644,58333","65,3","0,445","1,5","131,5","29,5","58,4"],
    [43847,"43644,625","43,4","0,628","1,7","205,2","30,2","56,5"],
    [43848,"43644,66667","50,7","0,785","1,7","203,7","30,3","56,3"],
    [43849,"43644,70833","49,1","0,236","2,1","286,8","29,2","58,6"],
    [43850,"43644,75","39,3","0,052","1,2","260","28,5","59,7"],
    [43851,"43644,79167","48,6","0,052","2","268,9","27,2","63,4"],
    [43852,"43644,83333","33,1","0,026","1,6","214,9","26,4","67,1"],
    [43853,"43644,875","32,5","0","1,7","225","26,1","66,5"],
    [43854,"43644,91667","24,4","0,079","1","226,4","25,6","68,3"],
    [43855,"43644,95833","39,1","0","0,8","254,2","24,7","72,5"],
    [43856,"43645","39,1","0","0,9","192,7","24,5","72,5"],
    [43857,"43645,04167","32,2","0","0,8","164,9","24,6","71,7"],
    [43858,"43645,08333","41,7","0","0,8","209,2","23,7","76,1"],
    [43859,"43645,125","32,7","0","0,4","155,4","23,1","78,2"],
    [43860,"43645,16667","29,7","0","0,5","172,3","22,4","82,5"],
    [43861,"43645,20833","36,7","0,105","0,7","229,3","22,2","84"],
    [43862,"43645,25","36,3","0","0,6","211,8","22","85"],
    [43863,"43645,29167","48,5","0","0,7","229,6","21,8","86,3"],
    [43864,"43645,33333","63,6","0","0,6","142,1","23,4","81,8"],
    [43865,"43645,375","59,5","0,105","0,8","120,7","25,3","73,5"],
    [43866,"43645,41667","69,6","1,074","1,1","157,4","26,8","66,2"],
    [43867,"43645,45833","60","1,571","1,5","152,2","27,7","63,5"],
    [43868,"43645,5","61,7","1,309","1,6","113","29,3","59"],
    [43869,"43645,54167","79,4","0,943","1,3","150,7","30","56,4"],
    [43870,"43645,58333","79,3","0,864","2,1","216,9","30,6","54"],
    [43871,"43645,625","66,1","0,026","4","319,7","29,9","53,1"],
    [43872,"43645,66667","19,6","0","4,2","320,9","29,6","52,8"],
    [43873,"43645,70833","15,4","0","3,7","312,4","29,1","53,9"],
    [43874,"43645,75","19","0","4","308,7","28,3","55,7"],
    [43875,"43645,79167","20,1","0","4,6","320,8","26,9","59,9"],
    [43876,"43645,83333","18,2","0","5,2","304","26,3","61,7"],
    [43877,"43645,875","18,2","0,026","2","234,1","26,7","59,2"],
    [43878,"43645,91667","22,9","0","2,7","270,1","26","62,6"],
    [43879,"43645,95833","18,1","0,026","1,1","120,2","25,7","67"],
    [43880,"43646","53,3","0","0,9","144,9","25","72,5"],
    [43881,"43646,04167","54,2","0","0,9","175,2","24,7","73,9"],
    [43882,"43646,08333","43,8","0","0,6","177,8","24","77,2"],
    [43883,"43646,125","39,6","0","0,8","199,9","23,4","79,6"],
    [43884,"43646,16667","36,8","0","1","177","23,1","79,8"],
    [43885,"43646,20833","32,1","0","0,8","190","22,4","80,3"],
    [43886,"43646,25","24,8","0","0,6","227,3","22,1","81"],
    [43887,"43646,29167","34,2","0","0,8","227,1","21,9","81,2"],
    [43888,"43646,33333","27","0,105","0,4","146,2","23,1","77,6"],
    [43889,"43646,375","34,5","0,209","1","100,6","24,4","74"],
    [43890,"43646,41667","48,1","0,785","1,2","190,6","25,6","69,1"],
    [43891,"43646,45833","38,7","0,628","1,1","114,3","27,8","60,8"],
    [43892,"43646,5","46,6","0,916","1,4","117,7","27,7","61,5"],
    [43893,"43646,54167","59,4","1,414","1,3","137,4","28,2","59,8"],
    [43894,"43646,58333","56,1","1,1","1,3","164,7","29,1","56,6"],
    [43895,"43646,625","42,2","0,262","2,1","229,3","30,1","51"],
    [43896,"43646,66667","21","0","3,6","319,5","28,2","56,1"],
    [43897,"43646,70833","14,4","0","2,9","248,4","26,4","65,1"],
    [43898,"43646,75","39,5","0","2,4","229,7","21,6","83,8"],
    [43899,"43646,79167","13,5","0","1,9","235","20,7","85,6"],
    [43900,"43646,83333","13,5","0","1,4","224,8","21,2","83,6"],
    [43901,"43646,875","15,8","0","0,8","197","21,5","84,3"],
    [43902,"43646,91667","33,6","0","1,2","234,8","21","86,8"],
    [43903,"43646,95833","26,1","0","0,5","212","20,8","87,1"],
    [43904,"43647","29,1","0","1,2","257,2","20,8","86,4"],
    [43905,"43647,04167","24","0","0,7","207,1","21","85,2"],
    [43906,"43647,08333","25","0","0,5","199,1","21","86,6"],
    [43907,"43647,125","27,2","0","0,7","212,3","20,9","87,6"],
    [43908,"43647,16667","21,8","0","0,5","198,5","20,8","88"],
    [43909,"43647,20833","25,2","0","0,7","220,5","20,7","88,7"],
    [43910,"43647,25","23,5","0","0,7","237,3","20,7","88,4"],
    [43911,"43647,29167","29,4","0","0,7","230,2","20,8","88,4"],
    [43912,"43647,33333","34,3","0","0,4","126,6","21,6","86,1"],
    [43913,"43647,375","37,7","0,052","0,7","134,5","23,5","78,5"],
    [43914,"43647,41667","35","0,209","1,5","139,3","24,7","74,6"],
    [43915,"43647,45833","61,7","0,602","1,1","149,3","25,8","70"],
    [43916,"43647,5","41,2","0,183","1,1","131,9","27,2","63,7"],
    [43917,"43647,54167","41,7","0,157","1,1","147,1","28","60,2"],
    [43918,"43647,58333","43,5","0,183","1,4","144,9","28,2","59,9"],
    [43919,"43647,625","49,6","0,105","1,9","152,4","27,7","61,6"],
    [43920,"43647,66667","42,9","0,052","2,7","309,8","25,4","67,5"],
    [43921,"43647,70833","12","0","3,2","319,4","25,5","66,6"],
    [43922,"43647,75","9,3","0","3,1","311,5","25,6","62,1"],
    [43923,"43647,79167","8,9","0,079","1,7","260,7","25,2","62,3"],
    [43924,"43647,83333","22,3","0,026","0,5","188,7","24,8","70,1"],
    [43925,"43647,875","47,6","0,131","0,7","238,3","23,9","76,9"],
    [43926,"43647,91667","71,9","0,026","0,9","231,9","23,3","77,3"],
    [43927,"43647,95833","31,7","0","0,7","205,3","23,2","76,9"],
    [43928,"43648","32,7","0","0,5","210,4","22,5","81,1"],
    [43929,"43648,04167","29,9","0","0,4","133,1","22,2","83,4"],
    [43930,"43648,08333","29","0","0,6","191,2","21,9","84,5"],
    [43931,"43648,125","26,3","0","0,7","242,2","22","85,3"],
    [43932,"43648,16667","28,8","0","0,5","196,9","21,9","86,5"],
    [43933,"43648,20833","31,9","0,026","0,7","219,2","21,8","86,6"],
    [43934,"43648,25","32,7","0,026","0,5","196,2","21,8","86,2"],
    [43935,"43648,29167","54,8","0,026","0,7","208,8","21,8","87"],
    [43936,"43648,33333","70,8","ND","0,6","130,6","22,6","85"],
    [43937,"43648,375","80,6","0,393","1","111","24,2","78,8"],
    [43938,"43648,41667","61","0,943","1,5","127","25,8","69,6"],
    [43939,"43648,45833","48,4","1,362","1,5","157,3","26,9","63,4"],
    [43940,"43648,5","61,9","1,152","1,3","192,6","28,2","58,3"],
    [43941,"43648,54167","37","0,314","1","176,7","29","55,2"],
    [43942,"43648,58333","40,9","0,236","1,4","181,5","30,3","50,9"],
    [43943,"43648,625","46,8","0,131","3,1","255,4","30,2","50,9"],
    [43944,"43648,66667","25,8","0,026","4,1","319,6","29,4","52,4"],
    [43945,"43648,70833","10,6","0","4,3","311,6","28,5","56,2"],
    [43946,"43648,75","15,7","0","4,9","308,5","27,5","57"],
    [43947,"43648,79167","14,5","0,131","1,7","160,2","27","59,6"],
    [43948,"43648,83333","43,4","0,079","1,3","237,1","25,5","68,7"],
    [43949,"43648,875","37,3","0,262","1","152,6","24,7","73,6"],
    [43950,"43648,91667","59,2","0,183","0,6","86,8","23,8","72,3"],
    [43951,"43648,95833","52,6","0,105","0,7","129,8","23,4","74,7"],
    [43952,"43649","59,1","0","0,8","218,5","22,6","81,3"],
    [43953,"43649,04167","38,3","0","0,7","230,8","22,2","83"],
    [43954,"43649,08333","24,4","0","0,6","177,4","22","84"],
    [43955,"43649,125","25,9","0","0,6","162,9","21,8","84,7"],
    [43956,"43649,16667","29,9","0","0,4","195,6","21,9","85,1"],
    [43957,"43649,20833","27,5","0,026","0,8","199","21,9","84"],
    [43958,"43649,25","34,2","0,183","0,9","108,6","22,1","82"],
    [43959,"43649,29167","68,1","0,157","0,5","92,2","22,3","81,4"],
    [43960,"43649,33333","71,8","0,628","1","182,7","22,6","80,9"],
    [43961,"43649,375","79,8","0,969","1,1","150,6","23,6","78,2"],
    [43962,"43649,41667","74,3","1,754","1,6","118,9","25","72"],
    [43963,"43649,45833","60","0,733","1,4","144,5","25,6","69,2"],
    [43964,"43649,5","57,1","0,655","1,4","151,2","27","64,7"],
    [43965,"43649,54167","59,7","0,785","1,5","131,5","28,3","59,1"],
    [43966,"43649,58333","51,4","1,597","1,4","138,3","28,9","55,9"],
    [43967,"43649,625","46,3","0,89","1,2","147,7","30,2","50,9"],
    [43968,"43649,66667","39,5","0,602","1,1","94,1","30,9","48,8"],
    [43969,"43649,70833","47,4","0,628","1,3","162,9","30,6","49,6"],
    [43970,"43649,75","63","0,367","1,3","236,8","29,3","56,3"],
    [43971,"43649,79167","79,1","0,55","0,8","248,3","28,2","59,7"],
    [43972,"43649,83333","76,2","0,812","1,3","253,4","26,3","66,1"],
    [43973,"43649,875","60,7","0,262","1,6","261,7","25","69,9"],
    [43974,"43649,91667","50","0,209","1","193,5","25","66,8"],
    [43975,"43649,95833","66","0,209","0,7","188,6","24,4","69,5"],
    [43976,"43650","68,7","0,052","0,7","173,3","23,3","72,9"],
    [43977,"43650,04167","42,7","0,026","0,7","204,2","23","74"],
    [43978,"43650,08333","22,8","0,026","0,6","209,9","23,1","74,6"],
    [43979,"43650,125","21,8","0","0,5","161,9","23,2","76,2"],
    [43980,"43650,16667","24,9","0,026","1","116,1","23,3","78,8"],
    [43981,"43650,20833","63,3","0,079","0,5","188,8","22,7","82,2"],
    [43982,"43650,25","46,5","0,052","0,5","189,2","22,8","82,4"],
    [43983,"43650,29167","60,1","0,026","0,8","241,7","22,6","83,3"],
    [43984,"43650,33333","78,5","0,079","0,6","161,3","23,4","81,1"],
    [43985,"43650,375","74,9","0,89","1,2","157","25,2","73,2"],
    [43986,"43650,41667","54,7","3,247","1,7","126,6","26,6","67,9"],
    [43987,"43650,45833","57,3","3,325","1,5","173,3","27,7","64,3"],
    [43988,"43650,5","45,4","2,487","1,4","132","29,2","58,8"],
    [43989,"43650,54167","62,3","1,571","2,2","162,1","30,6","53,9"],
    [43990,"43650,58333","62","0,026","4,7","316,6","30,4","52,5"],
    [43991,"43650,625","15","0","4,6","317","30,3","52,7"],
    [43992,"43650,66667","17,9","0","3,9","316,1","30","53,1"],
    [43993,"43650,70833","21,3","0,079","3,1","312,8","29,7","54,8"],
    [43994,"43650,75","23,4","0,052","2,9","215,7","28,9","51,9"],
    [43995,"43650,79167","76,1","0,026","3,5","249,9","24,3","68,1"],
    [43996,"43650,83333","25,5","0,026","1,3","231,9","23,1","69"],
    [43997,"43650,875","33,9","0,026","0,9","214,3","22,6","73,3"],
    [43998,"43650,91667","39","0,34","0,9","164","22,2","75,8"],
    [43999,"43650,95833","52,2","0,131","1","134,4","21,4","77,8"],
    [44000,"43651","42,2","0,026","1,1","236,3","20,9","82"],
    [44001,"43651,04167","31","0","0,9","209","21,3","80,4"],
    [44002,"43651,08333","25,7","0","1","220,4","21,9","78,5"],
    [44003,"43651,125","22,9","0,026","0,9","122,6","21,8","77,2"],
    [44004,"43651,16667","23,8","0,026","0,7","103,6","20,9","81,1"],
    [44005,"43651,20833","30,4","0,026","0,7","218,1","20,6","84,5"],
    [44006,"43651,25","32,2","0,079","1","212,6","21","83,8"],
    [44007,"43651,29167","44,6","1,152","0,9","177,7","21,6","81,5"],
    [44008,"43651,33333","65,9","1,676","1,1","151,4","21,8","80,5"],
    [44009,"43651,375","58,6","0,628","1,1","123,2","22,5","78,5"],
    [44010,"43651,41667","46,3","0,288","1,1","185,4","23,9","72,6"],
    [44011,"43651,45833","23,8","0,759","1,1","190,1","26,2","63,7"],
    [44012,"43651,5","31,1","0,812","1,4","186,9","27,7","58,7"],
    [44013,"43651,54167","36,2","0,524","1,5","123,7","29,5","53"],
    [44014,"43651,58333","44,8","0,183","1,6","149,4","30,8","49,9"],
    [44015,"43651,625","58,6","0,236","1,2","157,4","31,8","47,6"],
    [44016,"43651,66667","60,3","0,052","4,1","298,6","30,8","52,7"],
    [44017,"43651,70833","38,5","0","4,4","324,7","29,5","56,5"],
    [44018,"43651,75","20,9","0","4,3","318,4","27,7","60,5"],
    [44019,"43651,79167","17,6","0","3,4","318,9","27,5","59,3"],
    [44020,"43651,83333","15,7","0,026","2,4","303","27,4","59,9"],
    [44021,"43651,875","23,4","0,026","2","294,1","27,1","61"],
    [44022,"43651,91667","19,9","0,183","1,7","173,1","26,6","64,7"],
    [44023,"43651,95833","56,6","0,079","1,3","152,1","25,3","65,7"],
    [44024,"43652","39,1","0,079","1","134,2","24,3","63"],
    [44025,"43652,04167","28,1","0,079","0,4","160,3","23,6","66,1"],
    [44026,"43652,08333","28,8","0,026","0,7","70,9","23","68,4"],
    [44027,"43652,125","21,7","0,026","0,9","94,2","22,5","71,1"],
    [44028,"43652,16667","31,2","0","0,5","132,2","21,7","76,5"],
    [44029,"43652,20833","29,7","0,026","0,6","100,8","21,4","79,5"],
    [44030,"43652,25","29,2","0,026","1,5","219,4","21,2","80,6"],
    [44031,"43652,29167","32,1","0,026","0,8","221,8","21,1","81,5"],
    [44032,"43652,33333","41,4","0,052","0,7","132,7","22,3","78,3"],
    [44033,"43652,375","42,7","0,183","0,8","97,6","23,9","72,8"],
    [44034,"43652,41667","76,9","0,393","1,3","119,9","25,7","67"],
    [44035,"43652,45833","75,6","1,283","1,3","155,4","27,1","61,2"],
    [44036,"43652,5","74,5","1,335","1,4","127,1","28,4","56,9"],
    [44037,"43652,54167","59,4","0,785","1,4","123,3","30","50,7"],
    [44038,"43652,58333","58,8","0,497","1,3","112,5","32","43,4"],
    [44039,"43652,625","58,3","0,655","2,4","173,2","32,6","43,3"],
    [44040,"43652,66667","62,3","0,052","4,3","306,9","31,3","49"],
    [44041,"43652,70833","29,1","0,026","4,7","302","30,2","51"],
    [44042,"43652,75","28,1","0","6,1","305,3","28,6","55,1"],
    [44043,"43652,79167","30","0","5,4","314,8","27,3","59,3"],
    [44044,"43652,83333","22,2","0","5,7","302,4","26,6","62"],
    [44045,"43652,875","17,8","0,026","2,4","250,7","26,4","61,6"],
    [44046,"43652,91667","22,3","0,131","0,7","182,4","25,5","66,3"],
    [44047,"43652,95833","54,8","0,052","0,6","217,7","24,7","70"],
    [44048,"43653","53,9","ND","0,8","195,1","24,3","73"],
    [44049,"43653,04167","46,3","0,026","0,9","188,1","23,4","76,9"],
    [44050,"43653,08333","41,1","0","0,9","251,8","22,2","80,7"],
    [44051,"43653,125","31,8","0,026","0,8","222,9","22,1","81,1"],
    [44052,"43653,16667","29,2","0,026","0,6","224,4","21,5","81,8"],
    [44053,"43653,20833","25,5","0,026","0,9","221,4","20,9","83,3"],
    [44054,"43653,25","24,8","0","1,1","222,9","20,6","83,8"],
    [44055,"43653,29167","23,6","0,026","0,7","206,5","20,8","83,9"],
    [44056,"43653,33333","35,2","0,079","0,7","163,1","22,7","78,2"],
    [44057,"43653,375","42,7","0,524","1","149,5","24,6","71,1"],
    [44058,"43653,41667","41,7","1,204","1,1","130","26,2","65,7"],
    [44059,"43653,45833","40","1,597","1,4","139,9","27,2","62,7"],
    [44060,"43653,5","35,1","1,074","1,5","128,7","28,6","57,4"],
    [44061,"43653,54167","35,1","0,733","1,4","190","29,9","53"],
    [44062,"43653,58333","36,8","0,419","1,5","195,9","31","48,5"],
    [44063,"43653,625","40,3","0,209","2,9","278,1","31,2","47,8"],
    [44064,"43653,66667","28,6","0,026","4","322","29,2","53,7"],
    [44065,"43653,70833","14,1","0","4,4","306,8","28,6","55,4"],
    [44066,"43653,75","13,5","0","4,8","311,5","27,5","58,4"],
    [44067,"43653,79167","16,3","0","5,6","303,9","26,6","60,2"],
    [44068,"43653,83333","13","0","5,2","303,4","26,2","61"],
    [44069,"43653,875","12,4","0,026","3,6","296,8","26,3","59,7"],
    [44070,"43653,91667","13,2","0,209","1,3","231,4","26,1","62,9"],
    [44071,"43653,95833","45,7","0,105","0,8","91,9","25,5","65,9"],
    [44072,"43654","38,6","0,131","1,1","194,4","25,1","68,2"],
    [44073,"43654,04167","39,3","0,079","0,7","232,4","24","74,1"],
    [44074,"43654,08333","30,2","0","1","245,4","22,8","77,6"],
    [44075,"43654,125","22,3","0,026","0,8","211,9","22,5","78"],
    [44076,"43654,16667","25,4","0,026","0,6","210,1","22,4","78,9"],
    [44077,"43654,20833","25,2","0,052","0,6","185,3","22,1","80,5"],
    [44078,"43654,25","36,5","0,026","1","243,2","22","81"],
    [44079,"43654,29167","39,1","0,079","0,7","207,9","21,8","81,3"],
    [44080,"43654,33333","46,8","0,314","0,9","119,3","23,2","77,6"],
    [44081,"43654,375","64,6","0,576","1","99,6","24,8","72,9"],
    [44082,"43654,41667","55,6","0,864","1,2","128,6","26,1","67,6"],
    [44083,"43654,45833","61,3","1,99","1,4","116,1","27,7","61,4"],
    [44084,"43654,5","64,8","2,173","1,4","136,3","28,5","57,9"],
    [44085,"43654,54167","63,9","2,199","1,3","105,5","29,8","53,1"],
    [44086,"43654,58333","55,7","0,916","2,9","275,9","30","50,5"],
    [44087,"43654,625","30,8","0,052","4,9","318,2","29,1","52,6"],
    [44088,"43654,66667","16","0,105","4,5","314,7","29,8","50"],
    [44089,"43654,70833","19,1","0,026","4,9","316,3","28,8","51,3"],
    [44090,"43654,75","20,9","0,026","4,8","310,8","27,1","55,9"],
    [44091,"43654,79167","17,4","0,183","1,7","178","25,3","59,9"],
    [44092,"43654,83333","45,7","0,393","1,3","203,6","25,1","63"],
    [44093,"43654,875","60","ND","1,9","206","23,8","70,7"],
    [44094,"43654,91667","46,3","0,026","1,4","223","22,1","81,8"],
    [44095,"43654,95833","16,2","0,131","1","222,6","21,4","82,8"],
    [44096,"43655","21,6","0,052","1,3","238,5","20,8","84"],
    [44097,"43655,04167","17,9","0","1,1","243,7","20,6","83,7"],
    [44098,"43655,08333","18,1","0","1","224,4","20,1","84"],
    [44099,"43655,125","9,3","0","0,9","245","19,9","84,6"],
    [44100,"43655,16667","12,1","0,105","0,6","222,1","19,9","85,3"],
    [44101,"43655,20833","16,1","0,131","0,7","205,5","19,6","86,5"],
    [44102,"43655,25","22,5","ND","0,7","181,9","19,6","87,4"],
    [44103,"43655,29167","39","0,131","0,9","231,8","20","86,7"],
    [44104,"43655,33333","38,7","0,288","0,7","190,7","21,6","81,6"],
    [44105,"43655,375","47,1","0,55","1","134","23,8","72,8"],
    [44106,"43655,41667","61,4","0,864","1,2","148,7","24,9","67,5"],
    [44107,"43655,45833","59,1","1,335","1,5","148,4","26,2","62,7"],
    [44108,"43655,5","39,9","1,257","1,6","149,4","27,3","58,1"],
    [44109,"43655,54167","33,9","0,785","1,7","145,6","28,8","53,6"],
    [44110,"43655,58333","33,9","0,864","1,6","140,2","30,2","49"],
    [44111,"43655,625","55,9","ND","1,9","164,3","29,6","50,5"],
    [44112,"43655,66667","54,3","0,052","3,1","307,4","28,8","53,1"],
    [44113,"43655,70833","22,7","0,131","3","305,5","28,4","54,2"],
    [44114,"43655,75","25,4","0,079","3,5","303,7","27,4","56,2"],
    [44115,"43655,79167","24","0,209","2,3","274,3","26,6","59"],
    [44116,"43655,83333","30,2","0,34","1,2","224,8","25,9","63,1"],
    [44117,"43655,875","51,8","0,314","0,9","225,6","25,4","63,9"],
    [44118,"43655,91667","42,2","0,34","1,2","157,5","25","65,4"],
    [44119,"43655,95833","51,1","0,367","0,8","209,7","24","71"],
    [44120,"43656","50,6","0,105","0,9","232,9","23,3","74,4"],
    [44121,"43656,04167","31,2","0,131","0,6","224","23,5","72,4"],
    [44122,"43656,08333","44,1","0,079","1","233,8","22,4","79,7"],
    [44123,"43656,125","41,8","0,079","0,9","245,4","21,8","84,8"],
    [44124,"43656,16667","26,9","0,026","1","234,3","21,2","86,6"],
    [44125,"43656,20833","19,9","0,157","0,8","237,8","20,9","86,6"],
    [44126,"43656,25","27,7","0,157","0,7","221,7","20,8","86,3"],
    [44127,"43656,29167","38,2","0,34","0,9","247,5","21","86,3"],
    [44128,"43656,33333","48,9","0,524","0,9","94,1","22,8","80,4"],
    [44129,"43656,375","66","0,707","1","133,9","24,3","72,3"],
    [44130,"43656,41667","61,8","2,723","1,2","153","25,6","64,5"],
    [44131,"43656,45833","47,8","ND","1,7","154,2","27,2","59,9"],
    [44132,"43656,5","49,4","ND","1,6","138","28,4","54,9"],
    [44133,"43656,54167","48,3","ND","1,6","156,2","29,5","49,9"],
    [44134,"43656,58333","ND","ND","1,5","173,6","30,7","44,6"],
    [44135,"43656,625","ND","ND","2,2","163,3","31","42,1"],
    [44136,"43656,66667","ND","ND","1,6","182,9","30,5","43,3"],
    [44137,"43656,70833","50,3","ND","3,1","318","29,2","52,5"],
    [44138,"43656,75","27,5","ND","2,7","324,8","28,6","54,1"],
    [44139,"43656,79167","32,1","ND","3,8","311,4","26,7","59,7"],
    [44140,"43656,83333","27,7","ND","4,7","303,5","25,9","61,4"],
    [44141,"43656,875","18,6","ND","4,4","301,4","25,7","60,8"],
    [44142,"43656,91667","12,5","ND","1,7","224","25,9","59,8"],
    [44143,"43656,95833","42","ND","0,7","188,7","25,1","65,9"],
    [44144,"43657","85,1","11,861","0,6","164,3","24,7","68,5"],
    [44145,"43657,04167","67","12,83","0,8","159,7","24,4","70,4"],
    [44146,"43657,08333","57,6","9,478","0,8","206","23,6","72,2"],
    [44147,"43657,125","38,8","6,729","0,7","137","23,5","71,4"],
    [44148,"43657,16667","ND","ND","ND","ND","ND","ND"],
    [44149,"43657,20833","47,7","13,956","0,6","165,6","22,5","75,7"],
    [44150,"43657,25","39,9","15,422","0,6","237","21,5","79,8"],
    [44151,"43657,29167","37,6","12,489","0,9","245,3","21,5","80"],
    [44152,"43657,33333","54,1","8,667","0,6","213,4","22,9","74"],
    [44153,"43657,375","47,4","8,64","1,1","134","25,2","62,8"],
    [44154,"43657,41667","50","9,976","1,4","126","26,6","59,4"],
    [44155,"43657,45833","55","6,441","1,5","128,2","27,7","54,3"],
    [44156,"43657,5","38,2","5,237","1,7","133,8","29,2","49,5"],
    [44157,"43657,54167","52,8","4,215","1,6","155,4","30","47,3"],
    [44158,"43657,58333","48,1","5,97","1,5","162,6","30,9","44,4"],
    [44159,"43657,625","44,7","33,75","2,6","210,1","31,3","44,8"],
    [44160,"43657,66667","ND","12,358","4,3","309","30,4","48,2"],
    [44161,"43657,70833","ND","ND","ND","ND","ND","ND"],
    [44162,"43657,75","ND","9,19","ND","ND","ND","ND"],
    [44163,"43657,79167","26,3","13,301","5,5","307,3","26,7","58,1"],
    [44164,"43657,83333","18,8","12,175","4,1","308,6","26,6","56,6"],
    [44165,"43657,875","13,6","11,651","1,6","202","26,9","55"],
    [44166,"43657,91667","32","6,31","1,2","197,2","26","62,3"],
    [44167,"43657,95833","47","4,137","0,5","121,5","25,2","65,2"],
    [44168,"43658","58,4","6,258","0,6","212,5","23,8","70,4"],
    [44169,"43658,04167","34,1","8,221","0,6","207,7","23,1","73,4"],
    [44170,"43658,08333","37,2","4,765","0,7","239,1","22,7","75,9"],
    [44171,"43658,125","28,2","3,98","1,2","243,8","22,2","80,4"],
    [44172,"43658,16667","40","4,949","0,8","209,8","21,4","87,3"],
    [44173,"43658,20833","22,5","2,697","1,1","234,1","21","89"],
    [44174,"43658,25","18,3","8,562","0,6","257,7","21,1","89,4"],
    [44175,"43658,29167","32,8","7,803","0,6","183","21,3","89,4"],
    [44176,"43658,33333","44,6","5,053","0,7","212,9","21,9","87,5"],
    [44177,"43658,375","47,2","5,917","0,7","164,7","22,8","82,9"],
    [44178,"43658,41667","57,1","5,42","1,4","153,3","24,6","74,7"],
    [44179,"43658,45833","54","9,635","1,4","158","26,6","65"],
    [44180,"43658,5","49,7","5,394","1,3","149,3","27,7","61"],
    [44181,"43658,54167","48,6","4,634","1,3","179,3","29,3","54,7"],
    [44182,"43658,58333","ND","4,765","1,3","129,5","30,3","50,6"],
    [44183,"43658,625","ND","ND","ND","ND","ND","ND"],
    [44184,"43658,66667","36,9","6,52","5","306,5","27,9","56,3"],
    [44185,"43658,70833","23,1","2,88","4,5","320,3","28,2","56,8"],
    [44186,"43658,75","22,4","3,142","4,4","307,3","27,4","57,7"],
    [44187,"43658,79167","14,4","12,332","3,8","307,9","26,6","59,1"],
    [44188,"43658,83333","20,4","27,283","4,2","303,9","26,1","61,9"],
    [44189,"43658,875","14,9","16,967","1,9","229,8","26,4","60"],
    [44190,"43658,91667","42,3","5,891","0,8","193,2","25,2","65,6"],
    [44191,"43658,95833","61,7","6,677","1,1","246,8","23,9","72,1"],
    [44192,"43659","70,4","8,457","0,9","249,6","23","75,8"],
    [44193,"43659,04167","46,1","6,677","1,2","250,6","22,5","77,8"],
    [44194,"43659,08333","30,6","6,808","0,7","192,8","22,2","78,4"],
    [44195,"43659,125","29,5","13,406","0,6","198,4","21,7","80,6"],
    [44196,"43659,16667","30,3","5,603","0,9","231","21,5","82"],
    [44197,"43659,20833","28,5","5,368","0,7","230,9","21,7","81,7"],
    [44198,"43659,25","35,4","10,395","0,5","160,5","21,8","81,4"],
    [44199,"43659,29167","53,1","6,389","0,5","208,6","21,6","83,1"],
    [44200,"43659,33333","58,7","7,436","0,8","226,7","22,2","81,3"],
    [44201,"43659,375","54,8","3,875","0,5","137","23,3","77"],
    [44202,"43659,41667","71,1","9,112","0,8","78","24","74,9"],
    [44203,"43659,45833","111,3","30,66","0,8","127","24,6","74,8"],
    [44204,"43659,5","117,9","27,466","1","153,4","26,5","65,7"],
    [44205,"43659,54167","90,9","10,368","1,3","139,7","27,5","61,7"],
    [44206,"43659,58333","89","8,143","1,2","143","28,9","57,9"],
    [44207,"43659,625","83,7","8,928","2,2","182","29,3","55,4"],
    [44208,"43659,66667","69,8","8,798","3,8","316","28,8","55,6"],
    [44209,"43659,70833","12,5","7,096","3,7","313,9","28,3","55,3"],
    [44210,"43659,75","10,7","6,703","3,9","313,3","27,3","58,3"],
    [44211,"43659,79167","14,3","5,944","3,6","311,7","26,4","60"],
    [44212,"43659,83333","12,4","5,21","3,6","310","26","61,3"],
    [44213,"43659,875","13,2","4,556","1,5","209","26,1","61"],
    [44214,"43659,91667","22,6","3,378","1,2","172,9","25,5","63,7"],
    [44215,"43659,95833","31,1","1,938","1,2","219,3","24,4","70,5"],
    [44216,"43660","39,8","1,807","0,8","209,6","23,7","73,5"],
    [44217,"43660,04167","38,2","1,676","0,5","196,2","23,1","76,8"],
    [44218,"43660,08333","40,9","1,204","0,7","195,2","22,6","79"],
    [44219,"43660,125","32,4","3,587","0,5","206","22,4","80,4"],
    [44220,"43660,16667","34","3,404","0,8","168,3","22,4","81,8"],
    [44221,"43660,20833","43,8","2,959","0,7","174,2","21,4","88,6"],
    [44222,"43660,25","21,1","2,226","0,7","236,2","21,3","91"],
    [44223,"43660,29167","22,6","2,278","0,6","201,8","21,1","92,4"],
    [44224,"43660,33333","26,8","0,916","0,9","170,2","21,8","92,1"],
    [44225,"43660,375","26","0,655","1","157,4","22,9","88,2"],
    [44226,"43660,41667","22,4","1,388","1,5","121,6","24,5","79,1"],
    [44227,"43660,45833","35,5","1,833","1,2","159,4","25,2","74,7"],
    [44228,"43660,5","34,8","2,199","1","164,6","25,8","72,7"],
    [44229,"43660,54167","38,9","2,671","1","151,7","27,2","67,5"],
    [44230,"43660,58333","45,2","2,933","1,3","92,5","28,3","62,1"],
    [44231,"43660,625","50,4","3,037","1,5","104,8","29,7","55,7"],
    [44232,"43660,66667","38","4,111","2,8","301,2","29,1","53,8"],
    [44233,"43660,70833","13,1","3,535","3,8","309,9","28,8","54,2"],
    [44234,"43660,75","11,7","3,168","4,9","313","26,7","58,7"],
    [44235,"43660,79167","6,2","2,697","5,2","320,8","25,1","62,6"],
    [44236,"43660,83333","8,2","2,304","4,6","306,8","25,2","61,6"],
    [44237,"43660,875","6,4","2,226","3,5","296","25,4","59,8"],
    [44238,"43660,91667","8,4","1,676","1","207,4","24,9","63,9"],
    [44239,"43660,95833","33","1,178","0,7","149,5","23,9","70,9"],
    [44240,"43661","37,2","1,44","0,7","185","23,2","74,2"],
    [44241,"43661,04167","27,7","1,074","0,9","144,4","22,5","77,9"],
    [44242,"43661,08333","27,3","2,095","0,6","181,7","21,4","87,1"],
    [44243,"43661,125","20,1","1,833","0,5","206,2","21,2","90,9"],
    [44244,"43661,16667","17,5","1,388","0,4","205","20,7","92,2"],
    [44245,"43661,20833","22,2","1,126","0,8","221","20,2","93"],
    [44246,"43661,25","12,7","2,042","0,6","201,5","20,2","93"],
    [44247,"43661,29167","30","1,571","1,1","229,9","20,1","93,1"],
    [44248,"43661,33333","23,3","1,466","0,8","209,2","20,4","93,5"],
    [44249,"43661,375","24,8","0,838","0,6","139,3","21,4","90,9"],
    [44250,"43661,41667","27","ND","0,8","110,4","22,7","83,9"],
    [44251,"43661,45833","29,7","1,362","1,2","169,5","24,9","73"],
    [44252,"43661,5","28,5","1,571","1,5","221,6","26,5","64,3"],
    [44253,"43661,54167","19,7","1,676","2,1","250,4","27,6","58,4"],
    [44254,"43661,58333","12,8","1,335","4,5","322,6","27,9","55,2"],
    [44255,"43661,625","12,4","1,362","4,6","307,2","27,4","56,2"],
    [44256,"43661,66667","8,7","1,178","4,6","308,1","27,3","55,5"],
    [44257,"43661,70833","11,3","0,969","4,8","309,9","27,1","55,5"],
    [44258,"43661,75","11,9","0,969","4,6","314,2","25,5","59,2"],
    [44259,"43661,79167","16,2","0,864","5,5","318,5","24,6","62,6"],
    [44260,"43661,83333","13,6","0,707","4,9","312,8","24","65"],
    [44261,"43661,875","16,3","0,864","1","151,7","24,1","66,5"],
    [44262,"43661,91667","45,2","0,733","0,9","148,5","23,2","71,8"],
    [44263,"43661,95833","41,4","0,524","0,9","231,7","22,3","75,2"],
    [44264,"43662","30,2","0,681","0,9","252,9","21,6","78,5"],
    [44265,"43662,04167","19","0,681","0,5","178,6","21","80,6"],
    [44266,"43662,08333","18,4","0,785","0,7","193,9","20,6","81,8"],
    [44267,"43662,125","14,1","0,655","0,8","216,1","19,9","83,9"],
    [44268,"43662,16667","16,5","0,602","0,9","230,4","19,9","84,5"],
    [44269,"43662,20833","12,4","1,1","0,5","220,4","20","84,5"],
    [44270,"43662,25","22,4","0,969","0,7","222,9","20,1","84,1"],
    [44271,"43662,29167","29,1","1,335","0,7","200,7","19,9","85,1"],
    [44272,"43662,33333","44","1,257","0,6","196,4","20,3","84,5"],
    [44273,"43662,375","49,3","1,283","0,5","193,3","21,9","78,5"],
    [44274,"43662,41667","45,8","2,409","1","129,2","23,9","70,4"],
    [44275,"43662,45833","59,4","4,242","1,1","137,3","24,9","67,7"],
    [44276,"43662,5","88,2","5,446","1,3","103,5","25,9","64,3"],
    [44277,"43662,54167","81,9","5,577","1,2","83,6","26,8","60,5"],
    [44278,"43662,58333","65,6","6,048","1,5","90,7","28","57,1"],
    [44279,"43662,625","56,4","5,21","2","114,6","28,9","53,2"],
    [44280,"43662,66667","46,3","4,661","1,5","134,1","29,6","49,5"],
    [44281,"43662,70833","50,2","4,006","1,6","286,5","29,8","51,1"],
    [44282,"43662,75","59,4","3,221","1,2","255,4","29","53,3"],
    [44283,"43662,79167","67,4","3,718","1,6","243,7","26,9","63,8"],
    [44284,"43662,83333","69,6","2,278","1,2","216,3","25,8","66,2"],
    [44285,"43662,875","53,9","2,199","1,8","239,2","24,8","68"],
    [44286,"43662,91667","49","1,44","1","261,5","24,3","69,2"],
    [44287,"43662,95833","59,2","1,414","1,2","238,8","24","69,7"],
    [44288,"43663","51,8","0,943","0,5","185","23,2","73"],
    [44289,"43663,04167","46,8","0,89","0,6","215,6","22","77,4"],
    [44290,"43663,08333","26,4","0,628","1,1","250,9","21,4","78,7"],
    [44291,"43663,125","23","0,995","0,7","217,3","21,2","78,8"],
    [44292,"43663,16667","23,5","0,681","0,7","236,7","20,6","81,1"],
    [44293,"43663,20833","23,9","0,602","0,8","240,2","20,1","82,4"],
    [44294,"43663,25","30,9","0,785","0,8","240,8","19,9","83,3"],
    [44295,"43663,29167","39,3","0,995","0,5","231,2","20,2","83,1"],
    [44296,"43663,33333","60,3","1,623","0,5","163,1","22,5","76,8"],
    [44297,"43663,375","82,6","1,938","1","92,2","24,6","70,3"],
    [44298,"43663,41667","148,4","1,859","1,1","119,4","26,1","64,2"],
    [44299,"43663,45833","92,6","2,016","1,3","125","27,6","58,9"],
    [44300,"43663,5","71,8","2,016","1,3","145,9","29","54,8"],
    [44301,"43663,54167","60,4","2,121","1,4","107,9","30,7","48,1"],
    [44302,"43663,58333","58,2","1,728","1,6","166,5","32,2","41,6"],
    [44303,"43663,625","48,5","1,65","1,3","105,5","33,1","37,5"],
    [44304,"43663,66667","40","1,388","2","179,5","33,7","37,7"],
    [44305,"43663,70833","57,9","0,759","4,6","306,5","30,7","50,1"],
    [44306,"43663,75","42,2","0,471","5,9","305,8","28,7","55,1"],
    [44307,"43663,79167","34","0,34","5,8","307","27,3","59,4"],
    [44308,"43663,83333","22,2","0,445","5,9","297,7","27","59,6"],
    [44309,"43663,875","22,4","0,576","2,8","240,2","26,8","59,5"],
    [44310,"43663,91667","22,8","0,785","1,1","203,9","26,5","60,4"],
    [44311,"43663,95833","38,5","0,707","0,6","182,3","25,2","66,5"],
    [44312,"43664","67,5","0,471","0,7","172,4","24,2","71"],
    [44313,"43664,04167","53,2","0,34","0,7","198,8","23,1","74,9"],
    [44314,"43664,08333","32,4","0,262","0,8","256","22,6","77,6"],
    [44315,"43664,125","24,4","0,314","1,1","246,4","21,9","79,4"],
    [44316,"43664,16667","21","0,34","0,7","228,4","21,7","79,4"],
    [44317,"43664,20833","23","0,733","0,6","234,2","21,4","79,7"],
    [44318,"43664,25","26,6","0,602","0,9","243,6","21","81,7"],
    [44319,"43664,29167","34,9","0,497","0,9","232,2","21","82,2"],
    [44320,"43664,33333","43","0,55","0,5","169,3","22,9","75,7"],
    [44321,"43664,375","49,2","1,178","1","177,8","24,1","71,4"],
    [44322,"43664,41667","58,6","2,54","1,1","149,7","26,2","66,6"],
    [44323,"43664,45833","64,7","2,409","1,2","122,1","27,9","61,2"],
    [44324,"43664,5","59,4","2,802","1,5","121,2","29","57,1"],
    [44325,"43664,54167","68,9","2,487","1,5","121,3","30,1","53,3"],
    [44326,"43664,58333","63,1","2,068","1,4","170,8","31,1","50,1"],
    [44327,"43664,625","63,7","2,618","1,9","214,9","31,1","50,2"],
    [44328,"43664,66667","63,7","0,916","3,5","322,3","31","50,2"],
    [44329,"43664,70833","27,7","0,655","4,5","308,8","30","52,5"],
    [44330,"43664,75","20,1","0,655","4,7","305,5","28,8","54"],
    [44331,"43664,79167","16,6","0,602","4,8","309","27,6","57,9"],
    [44332,"43664,83333","17,7","0,969","1,5","221","28,1","55,3"],
    [44333,"43664,875","46,5","1,204","1","157","27,5","57,8"],
    [44334,"43664,91667","56,8","0,812","0,9","199,5","26,4","63,5"],
    [44335,"43664,95833","55,1","0,471","0,7","227,3","24,8","69,9"],
    [44336,"43665","42","0,655","0,7","237,7","23,9","73,4"],
    [44337,"43665,04167","35,3","0,419","0,9","209,2","23,6","74,5"],
    [44338,"43665,08333","28,6","0,34","0,5","182","23,2","75"],
    [44339,"43665,125","31","0,236","0,6","215,1","22,7","77,2"],
    [44340,"43665,16667","32,8","0,236","0,7","192,5","22,6","78,6"],
    [44341,"43665,20833","33,1","0,157","0,9","242,4","22,3","80,3"],
    [44342,"43665,25","34,6","0,183","0,7","211,1","21,9","81,9"],
    [44343,"43665,29167","42,9","0,288","0,8","211,2","21,8","81,9"],
    [44344,"43665,33333","55","0,576","0,6","131,5","23,7","76,1"],
    [44345,"43665,375","72,3","1,178","1","128,7","25,5","68,9"],
    [44346,"43665,41667","79,2","2,278","1,4","132","26,2","66"],
    [44347,"43665,45833","96,5","3,482","1,2","143,9","26,9","63"],
    [44348,"43665,5","79","2,723","1,3","111,3","28,5","57,7"],
    [44349,"43665,54167","68,7","2,906","1,4","113,3","30,2","51,9"],
    [44350,"43665,58333","63,3","2,697","1,4","128,8","30,4","50,7"],
    [44351,"43665,625","58,7","2,487","1,2","164,5","31,7","46,7"],
    [44352,"43665,66667","47,2","1,833","1,5","106,2","32,6","45"],
    [44353,"43665,70833","68,8","1,833","2,2","136,9","31,5","49,4"],
    [44354,"43665,75","81,5","0,524","4","316","29","58,2"],
    [44355,"43665,79167","36,7","0,367","4,1","309,2","27,9","60,1"],
    [44356,"43665,83333","30,6","0,288","3,8","305,2","27,8","58,4"],
    [44357,"43665,875","23,8","0,419","2,5","285,3","27,8","57,6"],
    [44358,"43665,91667","26","0,628","0,9","216,2","27,2","60,2"],
    [44359,"43665,95833","48,7","0,471","0,6","191,6","26,3","65,1"],
    [44360,"43666","56,8","0,497","0,6","103,2","25,4","69,2"],
    [44361,"43666,04167","74,5","0,314","0,9","244,8","24,4","73,1"],
    [44362,"43666,08333","48,5","0,131","1","233,7","23,7","74,6"],
    [44363,"43666,125","39,4","0,183","1","253,5","23","76,5"],
    [44364,"43666,16667","35","0,157","0,9","214,7","22,7","78,1"],
    [44365,"43666,20833","38,9","0,34","0,5","186,9","22,2","80"],
    [44366,"43666,25","46,3","0,314","0,9","254","21,6","82,2"],
    [44367,"43666,29167","40,4","0,262","0,7","187,8","21,7","82,3"],
    [44368,"43666,33333","47,8","0,34","0,6","189,2","23,1","78,4"],
    [44369,"43666,375","74,2","0,445","0,8","113","25,1","70,2"],
    [44370,"43666,41667","77,4","1,257","1,2","129,6","26,3","65,2"],
    [44371,"43666,45833","86,4","1,702","1","173,2","27,4","61,2"],
    [44372,"43666,5","67","2,854","1,3","140,2","29","56,2"],
    [44373,"43666,54167","66,2","3,456","1,7","141,4","30,7","50,5"],
    [44374,"43666,58333","53,2","2,671","1,4","121","32,1","45,4"],
    [44375,"43666,625","50","2,487","1,4","191,4","32,3","42,2"],
    [44376,"43666,66667","20,5","1,283","1,3","189,3","33,6","34,1"],
    [44377,"43666,70833","22,1","0,707","3,1","248","32,4","42,8"],
    [44378,"43666,75","73,2","0,131","4,6","308","29,5","53,9"],
    [44379,"43666,79167","31","0,131","4,7","312,8","28,3","56,5"],
    [44380,"43666,83333","24","0,131","4,7","304,6","28","57,5"],
    [44381,"43666,875","21,9","0,445","1,8","191,6","27,3","59,4"],
    [44382,"43666,91667","42,9","0,183","3","254,3","24,5","70,2"],
    [44383,"43666,95833","7,2","0,183","1,2","237,7","24,7","66,7"],
    [44384,"43667","29,7","0,157","1","214,5","23,9","72,1"],
    [44385,"43667,04167","29,3","0,105","1,3","228,1","23,1","75,3"],
    [44386,"43667,08333","21,1","0,105","1,1","211,7","23,2","74,9"],
    [44387,"43667,125","19,9","0,157","1,1","252,8","22,9","74,7"],
    [44388,"43667,16667","26,2","0,131","1","231,6","22,7","75,1"],
    [44389,"43667,20833","17,7","0,079","0,9","215,2","22,1","77,8"],
    [44390,"43667,25","25,5","0,105","1,1","233,9","21,7","79,9"],
    [44391,"43667,29167","25","0,131","0,9","232,5","21,5","79,2"],
    [44392,"43667,33333","28,9","0,131","0,7","171,7","22,8","75,8"],
    [44393,"43667,375","28,3","0,497","0,6","158,9","25,2","65,7"],
    [44394,"43667,41667","34,4","1,702","1,2","129,8","27,2","59"],
    [44395,"43667,45833","36,9","1,44","1,1","150,7","28","57,5"],
    [44396,"43667,5","36,8","1,492","1,2","209,3","28,6","56,9"],
    [44397,"43667,54167","32,8","1,1","1,4","154,2","30,3","52,6"],
    [44398,"43667,58333","38,1","1,754","1,3","146,2","31,9","48,2"],
    [44399,"43667,625","58,3","0,602","3,9","301,4","30,6","50,7"],
    [44400,"43667,66667","18,4","0,236","4,7","303,2","29,6","52,7"],
    [44401,"43667,70833","10,2","0,209","4,8","307,9","29,2","53,7"],
    [44402,"43667,75","13,2","0,183","4,9","310,2","27,9","57"],
    [44403,"43667,79167","14,6","0,157","4,6","316,9","27,2","58,8"],
    [44404,"43667,83333","10,4","0,183","4,5","308,8","27,2","59"],
    [44405,"43667,875","11,4","0,288","2,6","263,5","26,9","61,4"],
    [44406,"43667,91667","40,4","0,471","1,1","228,9","26,5","64,8"],
    [44407,"43667,95833","41,2","0,419","0,9","231,6","25,6","67,7"],
    [44408,"43668","29,5","0,209","0,9","172,5","25,2","70,8"],
    [44409,"43668,04167","37,1","0,157","0,7","206,2","24,2","75,2"],
    [44410,"43668,08333","26,9","0,183","0,6","181,4","23,7","77,8"],
    [44411,"43668,125","27,2","0,236","0,4","160,9","23,4","79,4"],
    [44412,"43668,16667","26,5","0,131","0,5","166,3","23","80,9"],
    [44413,"43668,20833","31,7","0,262","0,6","240,3","22,5","83"],
    [44414,"43668,25","31,2","0,288","0,8","206","22,4","83,9"],
    [44415,"43668,29167","36,2","0,471","0,6","222,7","22,7","82,9"],
    [44416,"43668,33333","52,2","0,733","0,8","161,2","23,2","80,8"],
    [44417,"43668,375","66,6","1,362","0,9","122","24,6","75,9"],
    [44418,"43668,41667","64,3","2,828","1,4","123,9","25,9","70,6"],
    [44419,"43668,45833","63","3,299","1,2","122,1","27","66,3"],
    [44420,"43668,5","43,9","3,509","1,4","138,1","28,3","60,3"],
    [44421,"43668,54167","43,1","2,802","1,3","161,3","29,2","56,2"],
    [44422,"43668,58333","50,8","2,514","1,4","157,7","29,9","52,8"],
    [44423,"43668,625","52","0,602","3,9","315,5","28,3","55,7"],
    [44424,"43668,66667","20,3","0,367","4,8","304,7","27,6","57,1"],
    [44425,"43668,70833","16,1","0,314","4,9","321,1","27,5","57,8"],
    [44426,"43668,75","12","0,209","5,3","324,9","26,2","60,3"],
    [44427,"43668,79167","11,2","0,209","4,9","316,9","26,1","59,7"],
    [44428,"43668,83333","9,1","0,236","5,2","320,9","25,5","62"],
    [44429,"43668,875","13,5","0,236","3,8","291,8","25,7","61,4"],
    [44430,"43668,91667","12,6","0,471","1","180,7","25,6","65"],
    [44431,"43668,95833","54,4","0,471","1","90,3","24,7","70"],
    [44432,"43669","43,5","0,367","0,8","82,6","24,2","72,8"],
    [44433,"43669,04167","23,7","0,209","1,2","188,9","23,7","73,5"],
    [44434,"43669,08333","25","0,157","1","202,2","22,5","83,3"],
    [44435,"43669,125","20","0,183","0,5","162,6","21,9","87,5"],
    [44436,"43669,16667","14,2","0,288","0,8","141,5","21,8","87,6"],
    [44437,"43669,20833","21,3","0,314","0,7","139,4","21,6","88,9"],
    [44438,"43669,25","23,8","0,864","0,6","208,6","21,4","92"],
    [44439,"43669,29167","21,5","1,021","0,5","150,4","21,3","93,3"],
    [44440,"43669,33333","25,2","0,838","0,5","70,9","21,6","93,2"],
    [44441,"43669,375","39","0,707","1","132,7","21,8","92,4"],
    [44442,"43669,41667","45,3","0,916","1,1","193,2","22,6","89,1"],
    [44443,"43669,45833","46,2","1,204","1","175,9","24,1","79,6"],
    [44444,"43669,5","29,4","1,231","1,2","170,7","25,6","70,6"],
    [44445,"43669,54167","27,5","0,916","1,5","121,5","26,4","68,1"],
    [44446,"43669,58333","55,8","1,309","2","154","27","68"],
    [44447,"43669,625","40,7","0,995","3,5","293,1","27,6","58,9"],
    [44448,"43669,66667","ND","0,524","3,8","323,1","26,9","59,8"],
    [44449,"43669,70833","4,2","0,34","4,1","320,1","27,2","57,7"],
    [44450,"43669,75","6,7","0,209","4,7","323,6","25,6","62"],
    [44451,"43669,79167","10,7","0,576","2,1","237,7","25,1","65,7"],
    [44452,"43669,83333","23,7","0,445","1,4","272,7","24,7","66,3"],
    [44453,"43669,875","20,3","0,733","1,2","141,5","24,3","67,8"],
    [44454,"43669,91667","49,4","0,471","1,1","116,6","22,9","75,6"],
    [44455,"43669,95833","38,2","0,445","0,8","98,7","22,1","79,9"],
    [44456,"43670","42,3","0,445","0,5","163,8","21,8","82,6"],
    [44457,"43670,04167","32,5","0,497","0,5","167,2","21,7","83,8"],
    [44458,"43670,08333","23,9","0,55","0,6","164,5","21,6","83,6"],
    [44459,"43670,125","33,5","0,236","0,6","215,6","21,5","83,1"],
    [44460,"43670,16667","28,5","0,262","1","150,8","21,5","84,8"],
    [44461,"43670,20833","47,2","0,288","0,6","93,2","21,3","87,3"],
    [44462,"43670,25","48,4","0,445","0,5","134,4","21,2","87,9"],
    [44463,"43670,29167","45,7","0,55","0,6","197","21,1","88,3"],
    [44464,"43670,33333","48,6","0,55","0,6","119","21,6","87,3"],
    [44465,"43670,375","58","1,204","0,8","113,8","23","81,3"],
    [44466,"43670,41667","63,5","2,566","1,2","147,9","24,6","71,3"],
    [44467,"43670,45833","61,7","2,54","1,5","161,4","26,3","63,9"],
    [44468,"43670,5","53","1,597","1,4","141,8","27,5","60,9"],
    [44469,"43670,54167","46,9","1,335","1,6","137,8","28,3","57,5"],
    [44470,"43670,58333","53,2","0,864","1,2","108,2","28,8","55,7"],
    [44471,"43670,625","57,1","0,602","2,5","292,1","28,9","54"],
    [44472,"43670,66667","26,9","0,288","3,9","311,7","27,9","55,8"],
    [44473,"43670,70833","13,8","0,236","4","313,5","27,4","56,8"],
    [44474,"43670,75","12,8","0,236","4,4","311,4","26,3","59,6"],
    [44475,"43670,79167","14,7","0,262","4,4","314","25,3","62,5"],
    [44476,"43670,83333","7,2","0,183","4,3","320,3","25,3","61,5"],
    [44477,"43670,875","9","0,131","4,6","311,1","25,1","61,9"],
    [44478,"43670,91667","7,7","0,34","1,7","233,1","25,4","61,6"],
    [44479,"43670,95833","25,1","0,497","1,3","162,2","24,6","69,5"],
    [44480,"43671","71","0,471","0,7","139","23,7","73,2"],
    [44481,"43671,04167","47,2","0,209","0,7","162,2","23,2","76,5"],
    [44482,"43671,08333","38,4","0,157","0,9","172,5","22,6","79,4"],
    [44483,"43671,125","45,3","0,209","0,6","205","21,9","82,2"],
    [44484,"43671,16667","21,2","0,157","0,5","184,8","21,4","83,7"],
    [44485,"43671,20833","20,2","0,105","0,8","240,5","21,2","84,4"],
    [44486,"43671,25","21,7","0,262","0,6","186,1","21,6","83,3"],
    [44487,"43671,29167","36,7","0,34","0,8","146,3","21,6","83,9"],
    [44488,"43671,33333","53","0,628","0,7","122,5","22,1","83,9"],
    [44489,"43671,375","ND","0,969","0,9","203,7","23,2","79,4"],
    [44490,"43671,41667","ND","1,807","1,3","112,6","24,8","72,2"],
    [44491,"43671,45833","ND","1,859","1,4","136,5","26,6","64,1"],
    [44492,"43671,5","ND","1,623","1,3","140,8","27,7","59,2"],
    [44493,"43671,54167","36,6","1,362","1,1","148,5","28,7","54,3"],
    [44494,"43671,58333","42,1","1,362","1,7","207,1","29,4","52,5"],
    [44495,"43671,625","61,1","0,602","3,3","288,5","28","56"],
    [44496,"43671,66667","34,8","0,209","4,7","302,4","26,7","59,5"],
    [44497,"43671,70833","30,3","0,445","4,1","264,5","26,2","60"],
    [44498,"43671,75","41,8","0,314","2,1","210,8","21,8","78,4"],
    [44499,"43671,79167","33,3","0,367","1,6","185,4","20,6","89,1"],
    [44500,"43671,83333","26,2","0,576","0,9","157,8","20,8","91,7"],
    [44501,"43671,875","28,3","0,995","0,7","77,2","21,1","92,2"],
    [44502,"43671,91667","35,3","0,445","0,8","187,9","20,7","92,7"],
    [44503,"43671,95833","22,1","0,262","1","236,7","20,4","92,8"],
    [44504,"43672","19,9","0,209","0,5","191,4","20,3","93"],
    [44505,"43672,04167","17,4","0,34","0,5","185,4","20","93,5"],
    [44506,"43672,08333","15,5","0,131","0,7","217,8","19,6","94"],
    [44507,"43672,125","15,8","0,157","0,5","208,3","19,3","94"],
    [44508,"43672,16667","14,4","0,052","0,8","174,2","19,3","93,7"],
    [44509,"43672,20833","14,9","0,105","0,6","209,7","19,2","93,6"],
    [44510,"43672,25","22,7","0,314","0,8","224,7","19","93,4"],
    [44511,"43672,29167","30,9","0,105","0,6","223","19,4","92,8"],
    [44512,"43672,33333","47","0,34","0,7","166,1","20,4","90,8"],
    [44513,"43672,375","53,5","0,471","0,8","159,8","21,6","86,9"],
    [44514,"43672,41667","57,2","0,445","1,1","172,2","23,2","77,6"],
    [44515,"43672,45833","30,7","0,393","1,3","86,8","24,8","70,1"],
    [44516,"43672,5","34,7","0,733","1,5","139,7","25,3","69,1"],
    [44517,"43672,54167","37,4","0,524","1,2","181,9","26,6","64,4"],
    [44518,"43672,58333","35,9","0,655","1,4","125,9","27,9","58,1"],
    [44519,"43672,625","49,1","3,063","1,6","138,7","28,5","58,1"],
    [44520,"43672,66667","63,4","4,739","1,1","114,3","28,8","56,9"],
    [44521,"43672,70833","61,1","2,068","2,2","231,3","28,6","57,1"],
    [44522,"43672,75","41,9","0,288","3,1","316,6","27,2","59"],
    [44523,"43672,79167","24,6","0,079","3,5","304","26,1","61,5"],
    [44524,"43672,83333","18,6","0,131","4","298,1","26","61,5"],
    [44525,"43672,875","17,6","0,105","3","298,4","26,1","61,1"],
    [44526,"43672,91667","14,8","0,314","1,2","208,7","25,1","68,9"],
    [44527,"43672,95833","32,9","0,131","1","233,2","23,9","77,7"],
    [44528,"43673","32,9","0,157","0,5","175,8","23,2","81,9"],
    [44529,"43673,04167","38,4","0,079","0,7","183,1","22,8","83,9"],
    [44530,"43673,08333","37,3","0,105","0,5","187,3","22,6","84,6"],
    [44531,"43673,125","36,4","0,026","0,8","227,5","22,2","86,2"],
    [44532,"43673,16667","36,1","0","0,8","239,6","22","87"],
    [44533,"43673,20833","34","0","0,6","203,8","21,9","87,5"],
    [44534,"43673,25","38,4","0","0,6","200,7","21,6","88,3"],
    [44535,"43673,29167","49,3","0,026","0,9","143,5","21,7","88,1"],
    [44536,"43673,33333","70,5","0","0,6","165,7","22,1","88"],
    [44537,"43673,375","65,5","0,105","1","162","23,2","83,4"],
    [44538,"43673,41667","68,1","0,34","1","134,5","25","74,4"],
    [44539,"43673,45833","70,4","1,021","1,4","142,9","26,6","67,5"],
    [44540,"43673,5","67,2","1,99","1,3","172,8","27,8","61,2"],
    [44541,"43673,54167","55,4","1,152","1,4","178,5","29,4","54,4"],
    [44542,"43673,58333","53,8","0,655","1,6","128,3","30,3","51,1"],
    [44543,"43673,625","49,8","0,34","1,5","84,1","31,7","44,1"],
    [44544,"43673,66667","45,3","0,262","1,6","138,3","31,5","44,8"],
    [44545,"43673,70833","43,4","0,026","3,3","319,7","30,4","51"],
    [44546,"43673,75","34,8","0","3,7","315,7","28,6","56,3"],
    [44547,"43673,79167","30,1","0","4,3","308,1","27,2","58,6"],
    [44548,"43673,83333","22,3","0","4,3","307,2","26,8","59,3"],
    [44549,"43673,875","20,5","0","1,2","223","26,9","58,6"],
    [44550,"43673,91667","29,5","0,052","0,9","192,3","25,8","62,6"],
    [44551,"43673,95833","58","0","0,9","232,8","24,5","68,5"],
    [44552,"43674","44","0","0,8","222","23,6","72,3"],
    [44553,"43674,04167","36,3","0","0,8","214,4","23,6","71,4"],
    [44554,"43674,08333","30","0","0,6","196,8","23,3","73,6"],
    [44555,"43674,125","33,3","0","0,6","159,1","23,2","75,2"],
    [44556,"43674,16667","31,1","0","0,7","163,7","22,9","77,8"],
    [44557,"43674,20833","35,4","0","0,6","223,5","21,9","80,9"],
    [44558,"43674,25","31,9","0","0,8","214,9","21,5","82,7"],
    [44559,"43674,29167","37","0","0,8","220,8","21,6","83,2"],
    [44560,"43674,33333","39,3","0,157","0,6","156,2","23","78"],
    [44561,"43674,375","44,1","4,582","1,5","144,7","25,1","68,8"],
    [44562,"43674,41667","40,8","2,802","1,3","145,5","26,6","64"],
    [44563,"43674,45833","38,2","2,802","1,3","129,8","27,7","60"],
    [44564,"43674,5","37,7","1,833","1,1","139","28,4","57,2"],
    [44565,"43674,54167","38,4","1,492","1,5","142,6","28,9","56"],
    [44566,"43674,58333","49,4","0,969","1,1","169,1","29,2","55,6"],
    [44567,"43674,625","53,4","0,576","1,9","190,9","29,5","54,6"],
    [44568,"43674,66667","37,2","0,052","1,8","270,1","30,3","50"],
    [44569,"43674,70833","20,9","0","2,4","312,6","30,7","48,4"],
    [44570,"43674,75","19,7","0","3,5","319,9","29","53,3"],
    [44571,"43674,79167","22,6","0","4,3","303,7","27,3","57,6"],
    [44572,"43674,83333","24,8","0","3,5","292,2","26,9","59,7"],
    [44573,"43674,875","19,1","0","1,7","249,4","26,8","57,3"],
    [44574,"43674,91667","22,9","0","0,8","182,9","26","62,1"],
    [44575,"43674,95833","38,4","0","0,5","203,9","24,8","68"],
    [44576,"43675","44","0","0,8","231,9","23,9","72,8"],
    [44577,"43675,04167","36,4","0","0,4","169,7","23,8","74,2"],
    [44578,"43675,08333","28,7","0","0,9","103","23,8","75,5"],
    [44579,"43675,125","34,5","0","0,9","150,4","23,4","77,2"],
    [44580,"43675,16667","34,1","0","0,9","164,2","22,8","80,6"],
    [44581,"43675,20833","33,1","0","0,6","199,5","22,4","82,3"],
    [44582,"43675,25","38,2","0","0,8","233,5","21,5","84,7"],
    [44583,"43675,29167","48,9","0,367","1","230,7","21,2","84,6"],
    [44584,"43675,33333","50,3","0,052","0,6","162,9","22,8","80,2"],
    [44585,"43675,375","61,5","0,55","1,5","107,8","25,1","72,2"],
    [44586,"43675,41667","65","1,362","1,4","119,9","26","68,4"],
    [44587,"43675,45833","58,2","1,833","1,4","137,2","27,2","62,5"],
    [44588,"43675,5","42","1,964","1,3","198,6","28,9","55,9"],
    [44589,"43675,54167","40,6","1,126","1,5","171,2","30,4","50,3"],
    [44590,"43675,58333","42,7","0,471","1,6","135,6","31,2","46,4"],
    [44591,"43675,625","43,9","0,209","2,5","287,9","31,4","46,1"],
    [44592,"43675,66667","37,4","0","4,3","308,2","30,8","49,1"],
    [44593,"43675,70833","21,9","0","4,7","305,5","29,1","52,5"],
    [44594,"43675,75","21","0","4,5","307","27,9","56,1"],
    [44595,"43675,79167","24,1","0","4,9","305,4","26,9","59,8"],
    [44596,"43675,83333","21,9","0","4,1","309","26,7","60,1"],
    [44597,"43675,875","17,9","0","4,4","307,6","26,7","59,9"],
    [44598,"43675,91667","15,1","0","1,5","233,4","26","63,1"],
    [44599,"43675,95833","35,7","0","0,8","140,3","25,4","67,8"],
    [44600,"43676","88,2","0","1,2","156,9","24,2","73,7"],
    [44601,"43676,04167","69,9","0","1","174,2","23,5","76,4"],
    [44602,"43676,08333","58,2","0","0,8","246,6","22,4","80,2"],
    [44603,"43676,125","34,4","0","0,6","208,1","22,4","80,6"],
    [44604,"43676,16667","27,4","0","0,7","217,5","22,3","80,8"],
    [44605,"43676,20833","26,8","0","0,9","225,9","21,7","82,4"],
    [44606,"43676,25","28,6","0,026","0,6","210,1","21,1","83,8"],
    [44607,"43676,29167","45,9","0","0,7","227,7","20,9","84,6"],
    [44608,"43676,33333","56,2","0","0,6","123,8","22,6","81,1"],
    [44609,"43676,375","60","0,105","1","147,6","24,8","71,2"],
    [44610,"43676,41667","69","0,943","1,4","137,4","26,2","65,1"],
    [44611,"43676,45833","45,3","0,759","1,6","138,2","27,7","59,9"],
    [44612,"43676,5","42,8","0,628","1,4","134,6","28,9","55"],
    [44613,"43676,54167","47,9","2,199","2,1","118,7","29,7","55,2"],
    [44614,"43676,58333","80,8","1,859","2,1","113,7","29,2","55,7"],
    [44615,"43676,625","69,8","1,047","1,4","124,3","30,3","51,5"],
    [44616,"43676,66667","73,9","2,226","1,5","127","30,3","50,2"],
    [44617,"43676,70833","91,2","0,628","2,8","272,2","30,3","50,9"],
    [44618,"43676,75","50,3","0","4","304,5","28,7","55,1"],
    [44619,"43676,79167","31,3","0","4,3","314,1","27,4","58,6"],
    [44620,"43676,83333","22,9","0","4,1","296,9","26,8","60,4"],
    [44621,"43676,875","20,2","0","2,6","261,3","26,7","59,9"],
    [44622,"43676,91667","22,2","0,026","1,1","202,5","26,3","60,7"],
    [44623,"43676,95833","26,3","0","0,7","205,9","25,4","64,7"],
    [44624,"43677","34,9","0","0,7","207,5","24,6","68,6"],
    [44625,"43677,04167","41","0","0,4","204,8","23,7","72,6"],
    [44626,"43677,08333","40,5","0","0,6","206,6","23","75,9"],
    [44627,"43677,125","37,3","0","0,8","213,3","22,7","76,6"],
    [44628,"43677,16667","36,2","0","0,6","210,1","22,1","79"],
    [44629,"43677,20833","33,8","0","0,9","246,8","21,2","80,6"],
    [44630,"43677,25","34,6","0","0,8","226,1","20,9","80,6"],
    [44631,"43677,29167","38,8","0,052","0,8","229,7","21,1","79,8"],
    [44632,"43677,33333","73,8","0","0,5","190,4","22,7","76,5"],
    [44633,"43677,375","67","0,236","1","124,4","25,5","65,9"],
    [44634,"43677,41667","75,7","0,497","0,9","124,4","27","57,9"],
    [44635,"43677,45833","48,1","0,864","1,4","136,4","28,3","53,5"],
    [44636,"43677,5","36,8","0,393","1,8","142,9","29,8","48,5"],
    [44637,"43677,54167","55,1","0,131","1,4","118,1","30,6","45,6"],
    [44638,"43677,58333","42,8","0,157","1,6","139,1","31,2","44,2"],
    [44639,"43677,625","51,5","0,157","2,6","207,6","31,6","45"],
    [44640,"43677,66667","50,8","0","4","316","30,9","48,7"],
    [44641,"43677,70833","29,8","0","4,3","302,7","30,4","48,7"],
    [44642,"43677,75","33,1","0","4,4","307,4","29","52,1"],
    [44643,"43677,79167","31,1","0","4,7","310,1","27,3","57,5"],
    [44644,"43677,83333","27,7","0","4,4","307,4","27,1","58,1"],
    [44645,"43677,875","23,8","0","3","275,6","27,3","56,9"],
    [44646,"43677,91667","28,6","0,026","1,5","205,3","27,4","55,8"],
    [44647,"43677,95833","68,3","0","0,7","119,6","26,6","62,8"],
    [44648,"43678","73,6","0,079","0,9","159,9","25,8","68"],
    [44649,"43678,04167","66,8","0","0,6","185,1","25,1","70,8"],
    [44650,"43678,08333","61,6","0","0,7","237,1","24,3","73,6"],
    [44651,"43678,125","44,2","0","0,9","234,8","23,6","76,3"],
    [44652,"43678,16667","34,9","0","0,7","214,4","23,1","77,5"],
    [44653,"43678,20833","30,1","0","0,7","226,3","22,3","79,4"],
    [44654,"43678,25","33,6","0","0,9","251,4","21,5","81,1"],
    [44655,"43678,29167","39,1","ND","0,8","227","21,4","80,8"],
    [44656,"43678,33333","62,9","ND","0,6","147,5","23,8","74,1"],
    [44657,"43678,375","96,5","0,393","0,9","92","25,9","65,5"],
    [44658,"43678,41667","92,9","ND","1,3","142,7","27,2","59,6"],
    [44659,"43678,45833","66,3","ND","1,6","145,6","28,7","50,9"],
    [44660,"43678,5","41,3","ND","1,5","144,8","30,2","45,2"],
    [44661,"43678,54167","36,8","ND","1,8","116,4","31,4","40,8"],
    [44662,"43678,58333","36,6","ND","1,6","136,5","32,1","39,5"],
    [44663,"43678,625","69,6","ND","2","237,6","31,1","46,2"],
    [44664,"43678,66667","40,5","ND","4,5","311","29,5","52,7"],
    [44665,"43678,70833","28,3","ND","4,3","304,9","28,4","54,6"],
    [44666,"43678,75","26,7","ND","4,6","314,4","27,9","55,2"],
    [44667,"43678,79167","26,4","ND","4,4","315,6","26,7","59,2"],
    [44668,"43678,83333","25,1","ND","3,2","309,8","26,5","58,6"],
    [44669,"43678,875","21,2","ND","2,9","282","26,2","59,2"],
    [44670,"43678,91667","24,1","ND","0,9","146,6","25,6","61,5"],
    [44671,"43678,95833","53","ND","1,3","142,7","24,6","70,9"],
    [44672,"43679","77,7","ND","0,7","212","23,6","74,5"],
    [44673,"43679,04167","52,4","ND","0,5","184,5","23,5","74,2"],
    [44674,"43679,08333","41,2","ND","1,2","143,9","23,4","75,2"],
    [44675,"43679,125","44,9","ND","1","143,4","22,8","77"],
    [44676,"43679,16667","42,2","ND","0,6","218,6","22,4","79,2"],
    [44677,"43679,20833","36,6","ND","0,9","215,3","21,7","82,2"],
    [44678,"43679,25","40,1","ND","0,7","207,6","21,4","82,7"],
    [44679,"43679,29167","43,4","ND","0,5","184,4","21,7","81,5"],
    [44680,"43679,33333","79,3","ND","1","234,8","22,5","79,3"],
    [44681,"43679,375","61","ND","1,2","180,7","24,7","70,6"],
    [44682,"43679,41667","ND","ND","ND","ND","ND","ND"],
    [44683,"43679,45833","44,2","2,147","1,6","167,4","27,5","61,5"],
    [44684,"43679,5","61,4","1,938","1,7","157,2","28,9","56,1"],
    [44685,"43679,54167","61,6","0,602","1,5","167,7","29,3","53,8"],
    [44686,"43679,58333","66,4","0,34","2,2","182","29,5","53,4"],
    [44687,"43679,625","58,6","0","3,8","317,9","28,3","57,4"],
    [44688,"43679,66667","23,5","0","3,8","314,2","29,2","55,7"],
    [44689,"43679,70833","17","0","4,6","302,2","28,6","55"],
    [44690,"43679,75","26,6","0","4,6","308","27,6","57,6"],
    [44691,"43679,79167","24,8","0","4,5","312,3","26,7","60"],
    [44692,"43679,83333","20,8","0","3,5","313","26,4","60,8"],
    [44693,"43679,875","18,6","0","3,1","310,6","26,1","61,3"],
    [44694,"43679,91667","17,5","0","1,2","192,3","26","63,1"],
    [44695,"43679,95833","36,4","0","1,2","175,5","25","70,1"],
    [44696,"43680","83,3","0","0,8","206,4","23,9","75"],
    [44697,"43680,04167","60,7","0","0,6","184,6","23,4","77"],
    [44698,"43680,08333","49,1","0","1,3","147,7","23,7","76,2"],
    [44699,"43680,125","42,7","0","1,1","141,8","23,1","78"],
    [44700,"43680,16667","42,2","0","0,6","227,7","22,7","80,3"],
    [44701,"43680,20833","39,2","0","0,5","115,2","22,6","81,8"],
    [44702,"43680,25","44,3","0","0,6","154,8","22,6","81,9"],
    [44703,"43680,29167","55","0","0,8","215,7","22,3","83,8"],
    [44704,"43680,33333","54,3","0","0,7","206,7","22,9","82,2"],
    [44705,"43680,375","58,8","0,157","0,6","196,1","24,4","75,7"],
    [44706,"43680,41667","63,4","0,314","0,9","170,3","25,4","71,3"],
    [44707,"43680,45833","83,2","0,367","1,1","122,8","26,4","68"],
    [44708,"43680,5","84,8","0,314","1,2","88,6","26,8","65,9"],
    [44709,"43680,54167","85,1","0,864","1,1","121,6","27,9","62,4"],
    [44710,"43680,58333","85,7","0,916","1,6","88,2","29,3","57,6"],
    [44711,"43680,625","75","0,733","1,4","82,7","29,4","57,3"],
    [44712,"43680,66667","54,4","0,602","1,4","136,2","29,7","56,6"],
    [44713,"43680,70833","41,2","0,052","3,2","304,8","28,7","57,4"],
    [44714,"43680,75","21,6","0","3,1","315","28,1","58"],
    [44715,"43680,79167","24,7","0","3,1","306,9","27","60,6"],
    [44716,"43680,83333","21,1","0","2,8","258,5","25,3","61,8"],
    [44717,"43680,875","36,3","0","1,7","251,7","24,4","68"],
    [44718,"43680,91667","27,9","0","0,9","203,7","24,9","67,6"],
    [44719,"43680,95833","52,2","0","1,5","245,8","24,1","73,7"],
    [44720,"43681","44,8","0","0,9","188,2","23,9","76,5"],
    [44721,"43681,04167","39,3","0","0,9","196,2","24,3","73,4"],
    [44722,"43681,08333","29,2","0","0,8","161,1","24,1","74,6"],
    [44723,"43681,125","36,1","0","0,9","197,3","22,8","83,3"],
    [44724,"43681,16667","35,4","0","0,5","154,4","22","89,1"],
    [44725,"43681,20833","30","0","0,6","133,7","21,8","91,1"],
    [44726,"43681,25","24,3","0","0,6","194,4","21,1","92"],
    [44727,"43681,29167","22,4","0","0,6","211,8","20,8","92,3"],
    [44728,"43681,33333","31,9","0","0,4","156,4","21,7","90,9"],
    [44729,"43681,375","44,5","0","0,9","126,5","23,2","85"],
    [44730,"43681,41667","38,9","0,026","1,1","115,6","24,5","75,8"],
    [44731,"43681,45833","39,5","0,052","1,2","114,3","26,4","66,9"],
    [44732,"43681,5","38,3","0,079","1,3","124,8","27,9","61,1"],
    [44733,"43681,54167","39,5","0,026","1,6","98,7","28,7","59,9"],
    [44734,"43681,58333","35,8","0,026","1,7","102,6","29,6","56,2"],
    [44735,"43681,625","32,9","0,079","1,7","112,6","30,7","51,1"],
    [44736,"43681,66667","34,5","0,183","1,7","92","31","48,5"],
    [44737,"43681,70833","31,5","0,052","1,6","80,3","30","50,9"],
    [44738,"43681,75","29,1","0,026","1","122,6","29,4","51,8"],
    [44739,"43681,79167","36,1","0,079","1,2","207,5","28,3","57,4"],
    [44740,"43681,83333","55,8","0","1,3","250,6","26","67,3"],
    [44741,"43681,875","45,4","0","1,5","251,3","25,2","67,4"],
    [44742,"43681,91667","40,3","0","1,6","241,1","24,7","67,6"],
    [44743,"43681,95833","34,9","0","0,9","260,8","24,4","67,7"],
    [44744,"43682","37,6","0","0,6","177,6","23,9","70,5"],
    [44745,"43682,04167","32,5","0","0,9","228,7","23,4","72,3"],
    [44746,"43682,08333","26,3","0","0,9","233,5","22,5","74,9"],
    [44747,"43682,125","23","0","1","228","21,6","77,3"],
    [44748,"43682,16667","20,9","0","0,9","228,5","21","77"],
    [44749,"43682,20833","17,2","0","0,7","218,9","20,6","75,7"],
    [44750,"43682,25","20","0,026","0,9","239,2","20,2","75,7"],
    [44751,"43682,29167","34,3","0","0,6","213","20,3","76,4"],
    [44752,"43682,33333","51,4","0","0,6","193,4","22,3","71,6"],
    [44753,"43682,375","56,1","0","0,7","118,9","25,2","61"],
    [44754,"43682,41667","44,1","0,288","1,4","96,4","27,1","53,2"],
    [44755,"43682,45833","43","0,026","1,2","146,3","28,2","47"],
    [44756,"43682,5","47","0","1,4","171","29,9","39,7"],
    [44757,"43682,54167","42,7","0","2","153,8","31,7","32,4"],
    [44758,"43682,58333","42,8","0","1,9","141,6","33,1","29,5"],
    [44759,"43682,625","35,9","0","1,6","101,6","33,8","29,1"],
    [44760,"43682,66667","42","0","3,6","309,5","31,5","45"],
    [44761,"43682,70833","33","0","4,9","311,3","30,3","49,3"],
    [44762,"43682,75","29,9","0","5,6","306,1","28,7","53,4"],
    [44763,"43682,79167","27,8","0","5,2","306,4","27,7","55,7"],
    [44764,"43682,83333","19,4","0","2,8","286,3","27,4","56,2"],
    [44765,"43682,875","22,6","0","1,3","226,2","27,2","55,9"],
    [44766,"43682,91667","31,4","0","1,2","204,6","26,6","56,8"],
    [44767,"43682,95833","30,4","0","1","159,4","25,4","64,2"],
    [44768,"43683","89,1","0","0,6","214,6","23,4","70,2"],
    [44769,"43683,04167","41,3","0","1,2","242","22,7","70,5"],
    [44770,"43683,08333","23,5","0,079","0,8","202,6","22,1","71,8"],
    [44771,"43683,125","20,2","0","0,8","220,8","21,3","74,7"],
    [44772,"43683,16667","21,1","0","1,1","238,7","20,8","76"],
    [44773,"43683,20833","19,1","0","0,6","212,4","20,6","75,1"],
    [44774,"43683,25","24,8","0","0,7","232,9","20,1","75,5"],
    [44775,"43683,29167","32,7","0","1","226,6","19,9","75,6"],
    [44776,"43683,33333","51,5","0","0,6","179,4","21,6","72,4"],
    [44777,"43683,375","65,1","0,393","1,1","88,1","24,2","66,2"],
    [44778,"43683,41667","111","0,524","1","129,9","25,8","58,8"],
    [44779,"43683,45833","86,6","3,221","1,3","160,8","27,2","53,9"],
    [44780,"43683,5","69,7","3,456","1,2","119,1","28,9","49,6"],
    [44781,"43683,54167","65,2","2,095","1,7","110,3","29,9","46"],
    [44782,"43683,58333","66,4","1,597","1,6","189,8","30,8","43"],
    [44783,"43683,625","72,8","0,314","2,3","235,9","31,9","42,3"],
    [44784,"43683,66667","53,7","0","5,1","309,1","30,4","49,1"],
    [44785,"43683,70833","34,8","0","5","307,7","29,6","50,8"],
    [44786,"43683,75","31,1","0","6","306,9","27,8","55,5"],
    [44787,"43683,79167","31,9","0","5,7","309,6","26,9","57,6"],
    [44788,"43683,83333","26,5","0","4,9","305,2","26,4","58,6"],
    [44789,"43683,875","15,3","0","1,4","246,7","26,5","57"],
    [44790,"43683,91667","35,4","0","0,7","204","25,6","60,1"],
    [44791,"43683,95833","61,9","0","0,5","186,4","24,8","63,6"],
    [44792,"43684","46,4","0","0,8","146,1","25,1","66,3"],
    [44793,"43684,04167","57","0","1,1","162,8","24,9","67,8"],
    [44794,"43684,08333","48","0","1","198,6","24","71,1"],
    [44795,"43684,125","35,6","0","1,2","156,2","23,7","71,7"],
    [44796,"43684,16667","43,6","0","0,8","193,1","23,5","72,4"],
    [44797,"43684,20833","42,2","0","0,8","220,7","23,1","74,4"],
    [44798,"43684,25","36,1","0","0,5","191,2","23,2","74,4"],
    [44799,"43684,29167","41,9","0","0,7","234,8","23","75,4"],
    [44800,"43684,33333","37,5","0","0,7","145,3","24,1","70,5"],
    [44801,"43684,375","45,5","0,026","0,8","127,9","25,7","65,7"],
    [44802,"43684,41667","42,6","0,812","1,4","160,9","27,2","59,7"],
    [44803,"43684,45833","44,7","0,628","1,6","146,9","28,1","55,5"],
    [44804,"43684,5","38,3","0,864","1,8","145,2","29,6","50,3"],
    [44805,"43684,54167","34,3","0,497","1,6","128,8","30,8","44"],
    [44806,"43684,58333","25,3","0,602","1,7","206,6","32","38,7"],
    [44807,"43684,625","23,6","0,026","1,3","192","33,8","30,7"],
    [44808,"43684,66667","25,5","0","4,2","298","30,9","46,5"],
    [44809,"43684,70833","50,4","0","5,7","300,1","28,7","53,5"],
    [44810,"43684,75","40,2","0","5,8","300,3","27,9","55,2"],
    [44811,"43684,79167","30,9","0,079","5,1","305,1","27,3","55,7"],
    [44812,"43684,83333","24,2","0","5,1","303,5","26,9","56,5"],
    [44813,"43684,875","19,5","0","4,7","298,6","26,6","57,3"],
    [44814,"43684,91667","15,4","0","2,1","241,8","26,4","57,1"],
    [44815,"43684,95833","16,7","0","1,3","201,3","25,8","59,3"],
    [44816,"43685","32,3","0","1","169,2","24,7","66,1"],
    [44817,"43685,04167","49,9","0","1","241,1","23,4","69,1"],
    [44818,"43685,08333","28,9","0","0,6","217,4","23,2","69,8"],
    [44819,"43685,125","24,8","0","0,7","169,9","23,4","71"],
    [44820,"43685,16667","33,2","0","0,7","237","22,9","73,1"],
    [44821,"43685,20833","29,5","0,183","0,8","241,7","22,6","74,5"],
    [44822,"43685,25","37","0","0,6","225,1","22,6","74,7"],
    [44823,"43685,29167","48,2","0","0,7","233,8","22,6","75,1"],
    [44824,"43685,33333","58,6","0","0,8","220,6","24","71,1"],
    [44825,"43685,375","62,7","0,864","1,1","139,9","25,1","65,3"],
    [44826,"43685,41667","42,2","2,121","1,5","129,3","26,3","62,8"],
    [44827,"43685,45833","ND","1,964","1,7","111,8","27,9","57,7"],
    [44828,"43685,5","ND","1,78","1,7","127,2","29,2","53,5"],
    [44829,"43685,54167","ND","0,812","1,7","169,1","30,4","49,2"],
    [44830,"43685,58333","45,2","1,021","2,2","122,6","31,4","46,4"],
    [44831,"43685,625","75","0,969","1,8","139,6","32,1","44"],
    [44832,"43685,66667","67,2","0,445","1,6","110,2","32,8","39,2"],
    [44833,"43685,70833","52,4","0,052","2,6","236,6","31,7","45,4"],
    [44834,"43685,75","50,8","0","2,6","316,2","29,7","52,6"],
    [44835,"43685,79167","41,1","0","3,1","309,6","28,6","55,8"],
    [44836,"43685,83333","33,6","0","1,2","219","28,1","56,3"],
    [44837,"43685,875","45,8","0","3,5","310,7","27,3","58,2"],
    [44838,"43685,91667","21,2","0","2,2","247,6","27,1","57,3"],
    [44839,"43685,95833","21,9","0","1,4","200,1","26,5","59,3"],
    [44840,"43686","24","0","1,4","247,6","24,7","62,5"],
    [44841,"43686,04167","10","0","0,7","186","23,7","62,9"],
    [44842,"43686,08333","9,9","0","0,8","155,9","23,9","61,1"],
    [44843,"43686,125","22,1","0","0,7","207,5","23,2","62,2"],
    [44844,"43686,16667","10,9","0","0,7","233,4","22,1","66,6"],
    [44845,"43686,20833","13,2","0","0,9","228,7","21,3","69,9"],
    [44846,"43686,25","15","0,236","0,8","248,8","21","71,5"],
    [44847,"43686,29167","38,1","0","0,9","248,7","21,3","71,4"],
    [44848,"43686,33333","55,8","0","0,9","229,4","22,6","68,5"],
    [44849,"43686,375","63,7","0,785","1","138,4","25,4","61"],
    [44850,"43686,41667","75,2","1,335","1,4","100,6","26,7","53,3"],
    [44851,"43686,45833","59,8","1,676","1,3","151","28,5","49,6"],
    [44852,"43686,5","63,6","2,095","1,5","141,1","29,9","49,2"],
    [44853,"43686,54167","73,3","1,754","1,7","135,8","30,8","46,8"],
    [44854,"43686,58333","ND","0,497","1,5","121,9","31,8","41,8"],
    [44855,"43686,625","ND","0,576","1,4","128,7","32,3","39,2"],
    [44856,"43686,66667","ND","0,183","2,5","229,9","31,9","43,2"],
    [44857,"43686,70833","63,3","0","3,6","320,1","30,8","49,8"],
    [44858,"43686,75","39,5","0","4,1","306","29,8","51,1"],
    [44859,"43686,79167","40,2","0","5,2","304","28","54,9"],
    [44860,"43686,83333","31,9","0","4,6","307,3","27,5","55"],
    [44861,"43686,875","22,4","0","4,6","298,3","27,2","54,7"],
    [44862,"43686,91667","27","0","2,6","253","26,8","54"],
    [44863,"43686,95833","18,1","0","1,1","237,9","25,1","57,3"],
    [44864,"43687","60,6","0","0,8","222,6","23,8","62,2"],
    [44865,"43687,04167","47,6","0","0,7","228,5","22,9","67,2"],
    [44866,"43687,08333","36,9","0","0,6","213,5","22,2","71,6"],
    [44867,"43687,125","32,4","0","1","213,1","21,5","74,9"],
    [44868,"43687,16667","28","0","0,8","235,6","21,1","76,6"],
    [44869,"43687,20833","31,6","0","0,8","226,3","20,8","77,1"],
    [44870,"43687,25","28","0","0,7","224,9","21","76,5"],
    [44871,"43687,29167","41,8","0","0,8","243,5","21","78"],
    [44872,"43687,33333","55,8","0","0,6","88,3","23,8","70"],
    [44873,"43687,375","75,6","0,524","1,3","105,3","25,3","63,4"],
    [44874,"43687,41667","80,9","0,393","1,1","136,1","26,9","58,5"],
    [44875,"43687,45833","69,7","1,309","1,5","118,8","28,5","53"],
    [44876,"43687,5","59,1","1,047","1,6","149,7","29,9","49,1"],
    [44877,"43687,54167","62,6","1,1","1,7","177","31,4","44,5"],
    [44878,"43687,58333","60,3","1,257","1,8","124,3","32,2","42,5"],
    [44879,"43687,625","69,6","0","4,4","319,5","31,4","48,4"],
    [44880,"43687,66667","34,7","0","4,2","315,3","31,3","47,9"],
    [44881,"43687,70833","26,8","0","4,2","311,1","31","48,5"],
    [44882,"43687,75","28,2","0","5,1","306,6","29","53,9"],
    [44883,"43687,79167","28,2","0","5,1","307,4","27,9","56,4"],
    [44884,"43687,83333","23,5","0","4,6","308,3","27,5","57,3"],
    [44885,"43687,875","20,4","0","3,3","265,5","27,4","56,4"],
    [44886,"43687,91667","19,9","0","1","155,5","26,8","58"],
    [44887,"43687,95833","42,9","0","0,7","206,9","25,7","62,8"],
    [44888,"43688","45,1","0","0,9","217,2","24,7","67,7"],
    [44889,"43688,04167","50","0","0,8","177,6","24,5","70"],
    [44890,"43688,08333","77,9","0","1","223,8","23,2","81,7"],
    [44891,"43688,125","38,2","0","1,1","231,3","22,7","85,8"],
    [44892,"43688,16667","27,8","0","0,7","243,3","22,4","87,6"],
    [44893,"43688,20833","21,9","0","1,1","246,4","21,7","88,6"],
    [44894,"43688,25","14,3","0","0,9","237,5","21,5","88,1"],
    [44895,"43688,29167","26,7","0","0,8","216,5","21,5","87,1"],
    [44896,"43688,33333","33,1","0","0,7","213,9","23,1","83,2"],
    [44897,"43688,375","42,4","0,079","0,9","132,3","25","75"],
    [44898,"43688,41667","55,4","1,388","1,2","116","26,9","66,7"],
    [44899,"43688,45833","48,2","1,65","1,4","122","28,5","59,2"],
    [44900,"43688,5","37,5","1,492","1,4","173,7","30","53,1"],
    [44901,"43688,54167","39,3","0,864","1,7","116,1","31,3","46,7"],
    [44902,"43688,58333","36,4","0,628","1,7","122,9","31","48,3"],
    [44903,"43688,625","43,1","0,288","1,7","122","30,6","50,9"],
    [44904,"43688,66667","40,8","0,262","1,3","114,3","31,6","47,7"],
    [44905,"43688,70833","30,9","0,105","2,8","272","31,3","48,4"],
    [44906,"43688,75","26,1","0","2,8","308,8","30,1","51,2"],
    [44907,"43688,79167","25,8","0","3,5","300","28,1","55,9"],
    [44908,"43688,83333","23,7","0","2","251,4","27,6","57,4"],
    [44909,"43688,875","26,9","0","1,3","216,2","26,7","59,3"],
    [44910,"43688,91667","31","0","0,6","199,1","25,8","61,8"],
    [44911,"43688,95833","47,4","0","0,9","246,7","24,7","66,4"],
    [44912,"43689","39,3","0","0,9","230,1","24,1","68,7"],
    [44913,"43689,04167","27,7","0","1,2","232,3","23,7","68,9"],
    [44914,"43689,08333","26,7","0","0,7","214,7","22,9","72,6"],
    [44915,"43689,125","30,4","0","1,1","226,9","22,5","73,7"],
    [44916,"43689,16667","21,3","0","0,9","224,3","22,1","74"],
    [44917,"43689,20833","20,1","0","0,7","219,1","21,4","76,3"],
    [44918,"43689,25","24,9","0","1,1","237,5","20,9","78"],
    [44919,"43689,29167","31","0","0,6","228,5","21,4","76,4"],
    [44920,"43689,33333","53,1","0,026","0,6","195,4","23,7","70,3"],
    [44921,"43689,375","64,2","0,759","1","134,8","25,9","58,8"],
    [44922,"43689,41667","49","2,514","1,4","112","27,9","55,5"],
    [44923,"43689,45833","69,2","1,65","1,5","109,4","29,1","53,8"],
    [44924,"43689,5","47,1","1,623","1,4","163","30","51,5"],
    [44925,"43689,54167","43,7","1,362","1,6","146,9","31,6","43,3"],
    [44926,"43689,58333","39,4","0,288","1,4","147,1","33","37,6"],
    [44927,"43689,625","32,7","0,079","1,4","148,1","33,8","32,8"],
    [44928,"43689,66667","32,2","0,026","2,4","166,4","34","32,3"],
    [44929,"43689,70833","83,5","0","5,1","309,1","31,1","48,6"],
    [44930,"43689,75","38,4","0","4,7","306,6","29,8","50,1"],
    [44931,"43689,79167","29,8","0","5,6","304,1","28,5","54"],
    [44932,"43689,83333","34,9","0","5,3","301","28,1","54,8"],
    [44933,"43689,875","24,3","0","4,3","298,3","27,6","56,4"],
    [44934,"43689,91667","20,8","0","4,7","292,5","27,1","58,3"],
    [44935,"43689,95833","18,1","0","1,3","207,6","26,4","57,9"],
    [44936,"43690","17,3","0","0,8","147","25,8","58,7"],
    [44937,"43690,04167","60,1","0","1","215,5","24,8","63,4"],
    [44938,"43690,08333","38,2","0","0,8","207,8","24,1","66,7"],
    [44939,"43690,125","24,2","0","0,9","223,8","23,7","68,4"],
    [44940,"43690,16667","22,8","0","1","228,8","23,1","69,6"],
    [44941,"43690,20833","19,8","0","0,8","238,8","22,5","71,7"],
    [44942,"43690,25","21,9","0","0,9","232,3","22,1","72,8"],
    [44943,"43690,29167","37,8","0","0,8","244,3","22,1","73,4"],
    [44944,"43690,33333","56,7","0","0,7","170,4","23,6","69,8"],
    [44945,"43690,375","57,3","1,204","0,9","113,2","26,8","59,2"],
    [44946,"43690,41667","71,1","2,959","1,3","104,5","27,8","57,1"],
    [44947,"43690,45833","70,3","1,728","1,6","173,8","28,6","55,1"],
    [44948,"43690,5","55,4","2,409","1,5","141","30,4","49,8"],
    [44949,"43690,54167","73,8","1,362","1,7","118,6","31,3","47,2"],
    [44950,"43690,58333","63,1","0,628","2,2","110","32,1","40,6"],
    [44951,"43690,625","38,6","0,602","1,9","146,6","32,5","39,3"],
    [44952,"43690,66667","60,1","1,414","2","153","32,5","38,9"],
    [44953,"43690,70833","68,4","1,021","1,7","183,6","32,6","38,3"],
    [44954,"43690,75","77,3","0","3","314,2","30","49"],
    [44955,"43690,79167","34,9","0","2,6","292,5","28,3","53,5"],
    [44956,"43690,83333","34,7","0","0,8","219,3","27,4","56,7"],
    [44957,"43690,875","77","0","0,8","248,8","26,3","58,6"],
    [44958,"43690,91667","64","0","0,7","230,8","25,5","60"],
    [44959,"43690,95833","60","0","0,8","208,6","25","60,2"],
    [44960,"43691","47,6","0","0,8","215","23,9","61,5"],
    [44961,"43691,04167","34,6","0","0,8","219,5","23,6","63"],
    [44962,"43691,08333","25,3","0","1","229,9","22,9","66,6"],
    [44963,"43691,125","21,3","0","1","225,4","22,3","68,5"],
    [44964,"43691,16667","21,4","0","0,8","229,7","22,2","67,8"],
    [44965,"43691,20833","22,8","0,052","0,7","213,4","21,5","69,6"],
    [44966,"43691,25","21,3","0,026","0,8","234,2","20,9","72,3"],
    [44967,"43691,29167","48","0","0,8","238,7","20,8","73,1"],
    [44968,"43691,33333","60,8","0,105","0,8","190,7","23,5","65,4"],
    [44969,"43691,375","61,9","0,209","0,8","156","25,6","56,8"],
    [44970,"43691,41667","56,4","3,299","1,6","124,3","27,4","56,7"],
    [44971,"43691,45833","92,5","3,142","2","142,6","27,8","56,1"],
    [44972,"43691,5","93,1","3,666","1,8","143,4","28,3","54,6"],
    [44973,"43691,54167","78,4","2,016","2,7","153,5","30,5","39,8"],
    [44974,"43691,58333","98,6","0,262","2,8","152,5","31,8","32,6"],
    [44975,"43691,625","97","0","4,1","162,7","32,5","27,3"],
    [44976,"43691,66667","208","0","4,1","175,1","31,5","28,2"],
    [44977,"43691,70833","132,7","0","3,9","187","30,3","30,6"],
    [44978,"43691,75","104,9","0,026","3,4","192","29,2","32,3"],
    [44979,"43691,79167","79,6","0,052","2,9","205,2","28,5","32,3"],
    [44980,"43691,83333","65,7","0","2,7","201,8","28,3","32,5"],
    [44981,"43691,875","54,1","0","2,8","198,8","27,8","32,5"],
    [44982,"43691,91667","71,9","0","2,4","188,1","27,3","31,4"],
    [44983,"43691,95833","55,2","0","2,1","198,7","27","27,5"],
    [44984,"43692","55,3","0","2,9","215,7","26,8","27"],
    [44985,"43692,04167","61,8","0","1,5","138,2","26,3","29,6"],
    [44986,"43692,08333","62,7","0,628","1,7","39,2","24,5","43"],
    [44987,"43692,125","67","4,111","1,4","54,3","23,7","47,7"],
    [44988,"43692,16667","70,1","1,519","0,7","187,8","22,8","49,5"],
    [44989,"43692,20833","83,3","4,477","0,7","226,7","21,6","56,7"],
    [44990,"43692,25","79,9","1,859","0,9","218,9","20,8","58"],
    [44991,"43692,29167","69,6","1,231","0,9","238,5","20,1","59"],
    [44992,"43692,33333","102","2,147","0,7","210,6","21,3","56"],
    [44993,"43692,375","116,1","3,666","1","131,8","23,9","47,5"],
    [44994,"43692,41667","131,9","7,515","1,9","82,9","25,8","42"],
    [44995,"43692,45833","114,7","ND","ND","ND","ND","ND"],
    [44996,"43692,5","101,1","ND","ND","ND","ND","ND"],
    [44997,"43692,54167","89,7","ND","ND","ND","ND","ND"],
    [44998,"43692,58333","91,8","ND","ND","ND","ND","ND"],
    [44999,"43692,625","54,5","ND","ND","ND","ND","ND"],
    [45000,"43692,66667","114,5","ND","ND","ND","ND","ND"],
    [45001,"43692,70833","70,6","ND","ND","ND","ND","ND"],
    [45002,"43692,75","66,2","ND","ND","ND","ND","ND"],
    [45003,"43692,79167","60,6","ND","ND","ND","ND","ND"],
    [45004,"43692,83333","43,3","ND","ND","ND","ND","ND"],
    [45005,"43692,875","47","ND","ND","ND","ND","ND"],
    [45006,"43692,91667","59,3","ND","ND","ND","ND","ND"],
    [45007,"43692,95833","74,3","ND","ND","ND","ND","ND"],
    [45008,"43693","76,6","ND","ND","ND","ND","ND"],
    [45009,"43693,04167","98,5","ND","ND","ND","ND","ND"],
    [45010,"43693,08333","80,7","ND","ND","ND","ND","ND"],
    [45011,"43693,125","66,4","ND","ND","ND","ND","ND"],
    [45012,"43693,16667","65","ND","ND","ND","ND","ND"],
    [45013,"43693,20833","53,9","ND","ND","ND","ND","ND"],
    [45014,"43693,25","57,6","ND","ND","ND","ND","ND"],
    [45015,"43693,29167","71,4","ND","ND","ND","ND","ND"],
    [45016,"43693,33333","82,1","ND","ND","ND","ND","ND"],
    [45017,"43693,375","112,5","ND","ND","ND","ND","ND"],
    [45018,"43693,41667","107,9","ND","ND","ND","ND","ND"],
    [45019,"43693,45833","85,8","ND","ND","ND","ND","ND"],
    [45020,"43693,5","98,9","ND","ND","ND","ND","ND"],
    [45021,"43693,54167","85,9","ND","ND","ND","ND","ND"],
    [45022,"43693,58333","85,2","ND","ND","ND","ND","ND"],
    [45023,"43693,625","82,4","ND","ND","ND","ND","ND"],
    [45024,"43693,66667","65,3","ND","ND","ND","ND","ND"],
    [45025,"43693,70833","42,3","ND","ND","ND","ND","ND"],
    [45026,"43693,75","39,2","ND","ND","ND","ND","ND"],
    [45027,"43693,79167","40,8","ND","ND","ND","ND","ND"],
    [45028,"43693,83333","36,7","ND","ND","ND","ND","ND"],
    [45029,"43693,875","32,1","ND","ND","ND","ND","ND"],
    [45030,"43693,91667","38,2","ND","ND","ND","ND","ND"],
    [45031,"43693,95833","68,4","ND","ND","ND","ND","ND"],
    [45032,"43694","104,5","ND","ND","ND","ND","ND"],
    [45033,"43694,04167","117,9","ND","ND","ND","ND","ND"],
    [45034,"43694,08333","61,1","ND","ND","ND","ND","ND"],
    [45035,"43694,125","57,3","ND","ND","ND","ND","ND"],
    [45036,"43694,16667","62,1","ND","ND","ND","ND","ND"],
    [45037,"43694,20833","54,8","ND","ND","ND","ND","ND"],
    [45038,"43694,25","57","ND","ND","ND","ND","ND"],
    [45039,"43694,29167","74,9","ND","ND","ND","ND","ND"],
    [45040,"43694,33333","84,5","ND","ND","ND","ND","ND"],
    [45041,"43694,375","93,8","ND","ND","ND","ND","ND"],
    [45042,"43694,41667","ND","ND","ND","ND","ND","ND"],
    [45043,"43694,45833","103","6,729","1,3","111,2","25","65,1"],
    [45044,"43694,5","101,4","4,713","1,5","111,2","27","58,1"],
    [45045,"43694,54167","80,7","3,613","1,8","116","28,6","51"],
    [45046,"43694,58333","56,1","0,995","1,7","128,9","29,4","47,3"],
    [45047,"43694,625","49,5","0,314","1,8","139,1","29,8","46,4"],
    [45048,"43694,66667","57,5","0,131","3,7","296,6","28,9","49,2"],
    [45049,"43694,70833","47,2","0","2,9","286,5","29,2","47,3"],
    [45050,"43694,75","26,6","0","2,9","310,5","28,3","49,1"],
    [45051,"43694,79167","26,8","0,026","2,1","291,3","27,5","49,5"],
    [45052,"43694,83333","37,8","0,026","1,2","236,4","26,9","54"],
    [45053,"43694,875","104,4","0,052","1,4","238,8","26,4","53,9"],
    [45054,"43694,91667","113,8","0,419","1,1","149,3","26,2","54,1"],
    [45055,"43694,95833","119,6","0,681","0,9","157,3","24,8","61,5"],
    [45056,"43695","113,7","0,105","0,9","222,3","23,5","67"],
    [45057,"43695,04167","125,7","0,052","0,7","245","22,9","69,6"],
    [45058,"43695,08333","85,6","0,026","0,5","204,8","22,7","70,7"],
    [45059,"43695,125","72,8","0","0,8","247,5","22,5","72"],
    [45060,"43695,16667","55,4","0","0,5","182","22,1","73,6"],
    [45061,"43695,20833","43,3","0","0,7","236,8","21,8","75,1"],
    [45062,"43695,25","45,5","0","1","247,2","21,4","76,3"],
    [45063,"43695,29167","43,6","0","0,6","207,5","21,5","76,3"],
    [45064,"43695,33333","76,6","0","0,7","144","23","72,4"],
    [45065,"43695,375","102","0,079","1","117,6","24,6","67,1"],
    [45066,"43695,41667","89,5","1,362","1,5","115,8","26,4","58,2"],
    [45067,"43695,45833","54,5","1,545","1,2","131,1","28,2","53,2"],
    [45068,"43695,5","45,5","1,964","1,7","123,7","29,6","48,3"],
    [45069,"43695,54167","51,6","1,362","1,6","136,2","31","43,9"],
    [45070,"43695,58333","52","0,733","1,9","126,5","32,3","39,3"],
    [45071,"43695,625","46,3","0,864","1,6","110,2","33,7","35,6"],
    [45072,"43695,66667","37,7","0,602","1,6","94,9","33,8","34,3"],
    [45073,"43695,70833","48,9","0,105","3,3","274,3","32,5","42,6"],
    [45074,"43695,75","68,5","0","4,1","317","29,9","51"],
    [45075,"43695,79167","39,1","0","4,3","322","28,3","55,4"],
    [45076,"43695,83333","39","0","2,4","268,1","27,7","56,9"],
    [45077,"43695,875","60,4","0,026","1,7","246,2","27,2","55,7"],
    [45078,"43695,91667","97","0,288","0,9","228,5","26,5","56,8"],
    [45079,"43695,95833","163","0,026","0,8","231,7","25,1","61,5"],
    [45080,"43696","103","0","1,1","215,6","24,4","62,4"],
    [45081,"43696,04167","106,1","0","0,7","211,1","23,6","66,7"],
    [45082,"43696,08333","94,5","0","0,7","219,2","22,6","70,5"],
    [45083,"43696,125","108,4","0","0,8","236,3","22","72,4"],
    [45084,"43696,16667","51,6","0","0,9","222,9","21,4","73,6"],
    [45085,"43696,20833","50,5","0","0,8","234,3","21,1","74,7"],
    [45086,"43696,25","38,7","0","0,7","211,7","20,6","76,9"],
    [45087,"43696,29167","52,9","0","0,7","210,2","20,7","77,5"],
    [45088,"43696,33333","60,4","0","0,8","104,4","22,9","71,4"],
    [45089,"43696,375","72,2","0,367","1,1","136,9","24,9","63,7"],
    [45090,"43696,41667","72,9","2,147","1,5","146,2","26,3","60,1"],
    [45091,"43696,45833","66,6","1,676","1,2","118,2","27,8","55,9"],
    [45092,"43696,5","54,2","1,466","1,6","100,5","29,2","50,3"],
    [45093,"43696,54167","47,4","1,178","1,6","97,4","30,5","46,2"],
    [45094,"43696,58333","53,3","1,047","1,7","114,6","30,7","46,6"],
    [45095,"43696,625","62,9","2,068","1,7","148","31,8","45,2"],
    [45096,"43696,66667","63,4","1,074","3","242,5","30,8","47,8"],
    [45097,"43696,70833","46,8","0","4,3","304,7","29,4","51,1"],
    [45098,"43696,75","29,6","0","4,9","306,8","28","53,4"],
    [45099,"43696,79167","29,5","0","5,3","308,1","26,9","56,4"],
    [45100,"43696,83333","31,4","0","5,2","303,2","26,4","57,8"],
    [45101,"43696,875","20,2","0","4,4","306,3","26,3","57,9"],
    [45102,"43696,91667","21,3","0","3,3","279,9","25,9","59,2"],
    [45103,"43696,95833","15,8","0","0,9","136,4","25,4","61,7"],
    [45104,"43697","59,9","0","1,3","109,3","24,5","67,9"],
    [45105,"43697,04167","64,1","0","0,7","207,2","23,5","71,4"],
    [45106,"43697,08333","45,2","0","0,6","197,3","23,4","71,8"],
    [45107,"43697,125","45,2","0","0,7","236,2","22,7","74,5"],
    [45108,"43697,16667","39,1","0","0,8","216,2","22,2","76,4"],
    [45109,"43697,20833","31,6","0,026","1,1","162,1","22,4","75,9"],
    [45110,"43697,25","53,2","0","1","153,6","21,9","78,9"],
    [45111,"43697,29167","68,1","0","0,7","157,4","21,1","86,5"],
    [45112,"43697,33333","54,2","0,079","0,6","128,2","21,9","88,1"],
    [45113,"43697,375","54,8","0,105","1,1","136,2","23,3","80,9"],
    [45114,"43697,41667","36,9","0,393","1,1","140,7","25,1","69"],
    [45115,"43697,45833","43,2","1,492","1,5","123,3","26,9","61,5"],
    [45116,"43697,5","40,1","1,571","1,5","167,4","28,4","54,8"],
    [45117,"43697,54167","36,4","0,576","1,7","120,6","30,1","48,6"],
    [45118,"43697,58333","38,7","0,445","1,7","126,3","31,4","44,1"],
    [45119,"43697,625","37,7","0,419","1,6","106,7","32,4","40"],
    [45120,"43697,66667","47,3","0,026","3,7","296,4","30,4","49,2"],
    [45121,"43697,70833","49,7","0","3,6","307,6","29,6","51,2"],
    [45122,"43697,75","35,3","0","3,6","319,9","28,5","54,4"],
    [45123,"43697,79167","25,4","0","4,1","319,8","27,2","57,1"],
    [45124,"43697,83333","24,7","0","4","312,5","26,7","58,3"],
    [45125,"43697,875","22,1","0","2,2","246,5","26,6","57,8"],
    [45126,"43697,91667","35,2","0","4,4","305,5","26,1","59,3"],
    [45127,"43697,95833","22,3","0","2,5","259","25,5","59,2"],
    [45128,"43698","17,6","0","1,7","232,4","24,6","60,1"],
    [45129,"43698,04167","15,7","0","0,8","244,5","22,8","64,4"],
    [45130,"43698,08333","22,2","0","0,5","189,9","22,3","66,4"],
    [45131,"43698,125","31,9","0","0,8","217,7","21,3","70,6"],
    [45132,"43698,16667","22,8","0","1","215,1","20,6","71,7"],
    [45133,"43698,20833","22,5","0,026","0,9","230,5","20,3","72,4"],
    [45134,"43698,25","31,3","0,052","1,4","244,1","20,2","71,9"],
    [45135,"43698,29167","31,3","0,026","0,7","208,7","20,6","70,9"],
    [45136,"43698,33333","66,9","0,157","0,7","148,5","22,2","69,3"],
    [45137,"43698,375","110,6","0,262","1","138,7","24,7","61,2"],
    [45138,"43698,41667","86","2,906","1,2","133,4","26,4","56,1"],
    [45139,"43698,45833","61","2,618","1,3","162,7","27,6","52,6"],
    [45140,"43698,5","50,5","1,152","1,2","106,2","29,6","44,8"],
    [45141,"43698,54167","27,4","0,209","1,4","174,1","31,8","31,5"],
    [45142,"43698,58333","2,5","0","1,9","153,3","33,3","24,7"],
    [45143,"43698,625","30,1","0,026","1,8","180,9","33,9","23,5"],
    [45144,"43698,66667","17,1","0,026","2,3","194,8","33,7","26,3"],
    [45145,"43698,70833","69,9","0","4,7","310,9","30,5","42"],
    [45146,"43698,75","47,1","0","5,3","309,7","28,8","47,1"],
    [45147,"43698,79167","41,9","0","4,7","313,6","27,5","50,1"],
    [45148,"43698,83333","29,4","0","3,9","306,3","27,3","48,5"],
    [45149,"43698,875","26,9","0","3","254,6","26,9","48,9"],
    [45150,"43698,91667","27,2","0","1,6","202,8","26,1","48,3"],
    [45151,"43698,95833","26,8","0,026","1,3","175,4","24,8","48,7"],
    [45152,"43699","44,6","0","0,6","203,9","22,9","53,4"],
    [45153,"43699,04167","52,2","0","1","240,9","21,4","58,6"],
    [45154,"43699,08333","31,2","0","0,7","232","20,8","60,7"],
    [45155,"43699,125","42,6","0","1,1","233,4","20,3","64,2"],
    [45156,"43699,16667","32,4","0","1,2","240,7","19,9","65,9"],
    [45157,"43699,20833","30,8","0","0,8","234,4","19,6","68,1"],
    [45158,"43699,25","42,2","0","0,8","236,9","19,3","69,3"],
    [45159,"43699,29167","53,5","0,026","0,9","233,9","19","71"],
    [45160,"43699,33333","71,9","0,026","0,8","232,5","19,9","70"],
    [45161,"43699,375","80","1,623","1,1","93","24,2","60,7"],
    [45162,"43699,41667","98,7","3,194","1,4","112,5","25,6","56,3"],
    [45163,"43699,45833","122,8","3,482","1,3","140,7","27","53,3"],
    [45164,"43699,5","97,9","3,299","1,4","115,3","28,8","49,2"],
    [45165,"43699,54167","78,8","4,189","1,5","146,8","30,5","43,9"],
    [45166,"43699,58333","62,5","2,592","1,4","167,3","32,2","34,7"],
    [45167,"43699,625","44,6","0,602","2,7","280,3","32,9","36,1"],
    [45168,"43699,66667","80,4","0","4,1","313,1","31,6","43,9"],
    [45169,"43699,70833","40,8","0","4,6","315,2","30,5","47,2"],
    [45170,"43699,75","34,7","0","6,1","308","28,4","52,7"],
    [45171,"43699,79167","51,4","0","5,9","309,6","27","56,3"],
    [45172,"43699,83333","28,6","0","5,3","309,5","26,8","55,6"],
    [45173,"43699,875","28,1","0","1,8","193,7","26,5","55,4"],
    [45174,"43699,91667","37,9","0","1","169,1","25,5","57,7"],
    [45175,"43699,95833","49,9","0","0,8","218,1","23,9","60,8"],
    [45176,"43700","44,9","0","0,9","230,2","23","62,9"],
    [45177,"43700,04167","36,2","0","0,7","214,6","22,2","66,7"],
    [45178,"43700,08333","39,4","0","0,8","232,7","21,4","70,3"],
    [45179,"43700,125","30,1","0","0,8","236","20,9","72,4"],
    [45180,"43700,16667","31,8","0","1","238","20,6","73,6"],
    [45181,"43700,20833","29","0,026","1","233,7","20,5","73,5"],
    [45182,"43700,25","32,9","0,026","0,6","172,6","20,3","73,6"],
    [45183,"43700,29167","43,9","0","0,6","235,6","20,3","74,5"],
    [45184,"43700,33333","68,7","0,131","0,7","116,4","22,9","67,4"],
    [45185,"43700,375","97,5","0,55","1,1","99,7","25,2","60,2"],
    [45186,"43700,41667","93,2","1,964","1,5","110,3","26,7","57,2"],
    [45187,"43700,45833","82","1,807","1,3","125,8","28","52,9"],
    [45188,"43700,5","79,8","0,969","1,6","138,6","29,5","48,1"],
    [45189,"43700,54167","58,2","0,707","1,4","194,8","30,8","43,4"],
    [45190,"43700,58333","55,4","0,55","1,5","143,9","32","38,4"],
    [45191,"43700,625","46,3","0,838","1,9","143,5","33,1","32,9"],
    [45192,"43700,66667","45,5","0,524","1,4","177,9","33,8","29,6"],
    [45193,"43700,70833","46,4","0,236","1,2","173,1","34,1","29,3"],
    [45194,"43700,75","69","0","5","306,6","30","47,9"],
    [45195,"43700,79167","74","0","5,4","304,8","27,9","54,1"],
    [45196,"43700,83333","40,5","0,157","2,3","234,1","27,7","52,2"],
    [45197,"43700,875","25,1","0,105","1,5","205,9","27,3","52,8"],
    [45198,"43700,91667","75","0","1,2","173,1","26,7","51,9"],
    [45199,"43700,95833","37,3","0","1","183,6","26,1","51,9"],
    [45200,"43701","41,6","0","0,8","201,9","24,3","59,2"],
    [45201,"43701,04167","55,1","0","1,2","238,6","22,9","62,3"],
    [45202,"43701,08333","28,9","0","1,1","245","22,5","64,1"],
    [45203,"43701,125","34,3","0","0,9","231,2","22,8","64,3"],
    [45204,"43701,16667","30,6","0","1","237,4","22,2","66,7"],
    [45205,"43701,20833","28","0","0,8","213,7","21,5","67,4"],
    [45206,"43701,25","26,5","0","0,9","238,6","20,7","69,9"],
    [45207,"43701,29167","28,5","0","0,9","242","20,9","69,2"],
    [45208,"43701,33333","51,5","0","0,5","170","23,7","62,1"],
    [45209,"43701,375","90,8","1,126","1","111,7","26,8","50,1"],
    [45210,"43701,41667","69,3","2,618","1,2","121,9","28,1","47,6"],
    [45211,"43701,45833","77,6","3,639","1,4","115,3","29,3","45"],
    [45212,"43701,5","78,3","4,085","1,6","112,2","31,1","40,1"],
    [45213,"43701,54167","73,8","2,252","1,3","159,7","31,3","38"],
    [45214,"43701,58333","78","0,131","3,3","291,2","31,2","44"],
    [45215,"43701,625","52,3","0","4,4","314,4","31,4","43,7"],
    [45216,"43701,66667","31,2","0","4,5","308,4","30,5","44,9"],
    [45217,"43701,70833","19,4","0","4,6","316,2","29,3","47,5"],
    [45218,"43701,75","24,8","0","5,6","298,5","28,2","50,8"],
    [45219,"43701,79167","32","0","4,5","299,3","27,7","51,4"],
    [45220,"43701,83333","22,3","0,052","1,4","197,5","27,4","51,8"],
    [45221,"43701,875","29,6","0","1,2","240,1","26,2","56,4"],
    [45222,"43701,91667","37,1","0","0,8","220,8","25,4","59,3"],
    [45223,"43701,95833","40,2","0","0,8","219,1","24","63,6"],
    [45224,"43702","50,2","0","0,7","166,7","23,5","66,9"],
    [45225,"43702,04167","67,3","0","0,9","242,7","22,3","69,4"],
    [45226,"43702,08333","33,3","0","1","241,4","21,6","70,9"],
    [45227,"43702,125","34,1","0","1,2","236,6","21,3","71,7"],
    [45228,"43702,16667","26,1","0,079","0,7","217,9","20,9","71,7"],
    [45229,"43702,20833","26,5","0","0,7","224","20,2","74"],
    [45230,"43702,25","29,8","0","0,7","244,8","19,7","74,7"],
    [45231,"43702,29167","30,8","0","0,8","231,8","19,6","74,8"],
    [45232,"43702,33333","34,7","0,026","0,9","137,5","22,2","66,6"],
    [45233,"43702,375","55,7","0,759","1,1","89,6","24,7","57"],
    [45234,"43702,41667","57,5","1,519","1,2","103,6","26,6","51,3"],
    [45235,"43702,45833","48,3","2,226","1,6","142,3","28","49,5"],
    [45236,"43702,5","48,4","1,152","1,4","179,1","29,5","45,1"],
    [45237,"43702,54167","31,7","0,55","1,6","101,1","32","36"],
    [45238,"43702,58333","15,9","0,052","1,5","172,2","33,5","30,7"],
    [45239,"43702,625","37,2","0","4,9","307,5","32","42"],
    [45240,"43702,66667","63,2","0","5,5","303","30,5","46,2"],
    [45241,"43702,70833","29,6","0","5,9","301,6","29,8","47,5"],
    [45242,"43702,75","34,8","0","6","307","28,4","51,3"],
    [45243,"43702,79167","39,7","0","6,6","296,8","27,4","54,2"],
    [45244,"43702,83333","40,4","0","5,7","299,1","27,1","55,2"],
    [45245,"43702,875","27,2","0","1,4","186,8","26,9","53,7"],
    [45246,"43702,91667","31,5","0","1,3","144,6","26","58,8"],
    [45247,"43702,95833","63,3","0","0,6","216,8","24,7","63,5"],
    [45248,"43703","53,3","0","0,9","230,8","23,8","65,5"],
    [45249,"43703,04167","33,5","0","0,8","240","23","68,1"],
    [45250,"43703,08333","28,5","0","0,7","208,1","22,4","70,5"],
    [45251,"43703,125","25,7","0","0,7","229,4","22","71,5"],
    [45252,"43703,16667","22,8","0","0,9","245,1","21,3","74,3"],
    [45253,"43703,20833","25,7","0","0,9","232,5","20,9","76,5"],
    [45254,"43703,25","26,5","0","0,8","233,2","20,7","77,3"],
    [45255,"43703,29167","45,4","0","0,7","219,1","21","77,2"],
    [45256,"43703,33333","66,9","0,157","0,9","203,6","22,9","71,9"],
    [45257,"43703,375","114,5","0,314","1,2","92,3","24,6","67"],
    [45258,"43703,41667","101,1","1,074","1,1","140,5","26,1","62,5"],
    [45259,"43703,45833","59,8","2,173","1,4","141,7","27,6","56,3"],
    [45260,"43703,5","72,5","1,257","1,5","165,3","29,3","49,4"],
    [45261,"43703,54167","53,1","1,44","1,7","160,6","31,3","40,1"],
    [45262,"43703,58333","48,6","0,419","1,5","124,4","33,1","33,7"],
    [45263,"43703,625","32,6","0,157","2,6","166,3","34,2","29,5"],
    [45264,"43703,66667","79,7","0,288","2,9","150,7","34,1","28,9"],
    [45265,"43703,70833","95,6","0,367","1,9","167,4","34,3","28,5"],
    [45266,"43703,75","84,1","0,183","2,7","253,5","31,6","40,1"],
    [45267,"43703,79167","102,3","0","3,9","299,5","28,6","51,1"],
    [45268,"43703,83333","42,4","0","1,4","231,2","28,1","48,9"],
    [45269,"43703,875","33,7","0","2","271,9","27,4","51,3"],
    [45270,"43703,91667","59,6","0","2,3","261,6","27,1","52,8"],
    [45271,"43703,95833","12,6","0","1,4","159","26,5","50,7"],
    [45272,"43704","12,4","0","0,9","189,4","25","51,7"],
    [45273,"43704,04167","62,8","0","0,7","219,7","22,9","58,6"],
    [45274,"43704,08333","34,3","0","1,1","240,1","22,2","61,7"],
    [45275,"43704,125","23,5","0","1,1","234,7","22,3","61,6"],
    [45276,"43704,16667","23,6","0","1,1","227,7","22,2","61,8"],
    [45277,"43704,20833","22,5","0","1","235,3","21,4","64,5"],
    [45278,"43704,25","33,9","0","0,7","239,9","20,8","67,6"],
    [45279,"43704,29167","45,5","0,026","0,8","223,2","20,8","68,1"],
    [45280,"43704,33333","66,7","0,183","0,6","158,4","24,1","59,4"],
    [45281,"43704,375","73,8","2,042","1,4","98,3","26,2","52,5"],
    [45282,"43704,41667","59,6","0,55","1,5","118,8","27,4","46,3"],
    [45283,"43704,45833","52","1,231","1,2","111,6","29,6","42,7"],
    [45284,"43704,5","59","0,707","1,3","117,8","31,3","37,4"],
    [45285,"43704,54167","40,2","0,367","1,5","142,8","32,8","33,1"],
    [45286,"43704,58333","40,1","0,209","1,6","143,3","34,4","27,4"],
    [45287,"43704,625","29,5","0,026","1,8","179,9","35,2","24,5"],
    [45288,"43704,66667","36,1","0","2","181,4","35,6","26,8"],
    [45289,"43704,70833","89,8","0","5,8","307,6","31,9","43,1"],
    [45290,"43704,75","78,2","0","6,4","303,8","29,6","49,4"],
    [45291,"43704,79167","72,1","0","6,8","302,1","28,2","54,3"],
    [45292,"43704,83333","62","0","4,6","314,5","28,4","52,6"],
    [45293,"43704,875","23,2","0","2,1","253,1","28,4","52"],
    [45294,"43704,91667","44,2","0","1,1","180,9","27,6","53,2"],
    [45295,"43704,95833","64,3","0","0,7","179,3","26,1","58"],
    [45296,"43705","43","0,079","2,6","252,7","25,9","59,9"],
    [45297,"43705,04167","13,6","0","1","215,7","24,5","59,8"],
    [45298,"43705,08333","15,4","0","0,9","216","23,5","63,4"],
    [45299,"43705,125","27,7","0","0,9","226,6","22,7","67,8"],
    [45300,"43705,16667","27","0","0,9","249,4","22,3","70,3"],
    [45301,"43705,20833","31,2","0,105","1,1","234,7","21,9","71,4"],
    [45302,"43705,25","37,7","0,079","0,9","237,2","21,8","72,3"],
    [45303,"43705,29167","47,5","0,079","0,7","214,6","22","72,2"],
    [45304,"43705,33333","58,9","0,524","1,1","152,6","23,6","66,1"],
    [45305,"43705,375","108","0,183","0,8","112,3","24,4","64,2"],
    [45306,"43705,41667","87,7","0,288","1,5","91,2","26,1","60"],
    [45307,"43705,45833","92,1","3,325","1,4","97,9","27,4","57,9"],
    [45308,"43705,5","61,4","ND","1,6","107,3","28,7","54,7"],
    [45309,"43705,54167","ND","0,838","1,4","169","30","49,8"],
    [45310,"43705,58333","ND","0,236","1,5","120,1","30,8","46,7"],
    [45311,"43705,625","ND","0,052","2,2","267,2","30,7","47,9"],
    [45312,"43705,66667","2,4","0","3,1","318,7","30,1","50,7"],
    [45313,"43705,70833","2,8","0","3,6","312","29,5","52"],
    [45314,"43705,75","3,3","0","3,9","314,8","28,3","53,9"],
    [45315,"43705,79167","3,4","0","3,4","321,4","27,6","55,5"],
    [45316,"43705,83333","3,8","0","4,3","313","27,1","56,8"],
    [45317,"43705,875","3,5","0,052","2","238,7","27,1","55,8"],
    [45318,"43705,91667","3,4","0","0,8","181,3","26","60,9"],
    [45319,"43705,95833","3,5","0","0,7","202,6","24,3","67,1"],
    [45320,"43706","3,4","0","0,9","233,9","23,3","70,6"],
    [45321,"43706,04167","3,1","0","1,1","231,8","22,7","71,6"],
    [45322,"43706,08333","2,9","0","0,5","167,2","22,4","70,5"],
    [45323,"43706,125","2,8","0","0,7","195,9","21,5","74,7"],
    [45324,"43706,16667","2,5","0","0,6","168,7","21,2","75,6"],
    [45325,"43706,20833","3,2","0,236","0,8","226","20,7","76,3"],
    [45326,"43706,25","3,2","0","1,4","243,9","20,2","77,1"],
    [45327,"43706,29167","3","0","0,5","205","20,6","76,5"],
    [45328,"43706,33333","3,5","0","0,9","153,1","23","69,4"],
    [45329,"43706,375","3,6","0,052","1","121,3","25,4","60,7"],
    [45330,"43706,41667","3,5","1,047","1,2","106,4","27,3","56,7"],
    [45331,"43706,45833","3,2","1,65","1,6","118,8","28,8","53,8"],
    [45332,"43706,5","3,3","1,257","1,7","134,2","29,8","49,9"],
    [45333,"43706,54167","2,8","0,89","1,6","142,7","30,7","45,6"],
    [45334,"43706,58333","2,5","0,393","1,7","115,2","30,9","45,3"],
    [45335,"43706,625","2,7","0","3,9","320,2","30,6","48,6"],
    [45336,"43706,66667","2,9","0","3,9","319,7","30,7","47,9"],
    [45337,"43706,70833","3,1","0","4,6","309,1","29,9","49,6"],
    [45338,"43706,75","3,2","0","5,4","306,9","28,2","53,7"],
    [45339,"43706,79167","3,6","0,079","5,4","309,8","26,9","56,1"],
    [45340,"43706,83333","4","0","5,6","305,7","26,4","57,1"],
    [45341,"43706,875","3,5","0","4,8","310,7","26,2","57,1"],
    [45342,"43706,91667","3,4","0","1,3","202","26,4","52,8"],
    [45343,"43706,95833","3,5","0","0,7","143,1","25,2","60,4"],
    [45344,"43707","3,6","0","0,6","181,2","24","66,8"],
    [45345,"43707,04167","3,5","0","0,9","173,9","23","69,6"],
    [45346,"43707,08333","3,2","0","0,8","228,5","21,9","72,9"],
    [45347,"43707,125","2,7","0","1,1","236,7","21,4","75,6"],
    [45348,"43707,16667","2,8","0","0,5","138,8","20,9","76,6"],
    [45349,"43707,20833","3,2","0","0,9","246,4","20,4","78,2"],
    [45350,"43707,25","3,3","0","1,1","238,1","20","79,3"],
    [45351,"43707,29167","3,2","0","1","242,7","20,1","79"],
    [45352,"43707,33333","3,7","0,052","0,8","177,1","22,8","70,8"],
    [45353,"43707,375","3,3","0,602","1,4","115","25,2","63,5"],
    [45354,"43707,41667","3,5","1,047","1,3","117,4","26,2","61,1"],
    [45355,"43707,45833","3","1,1","1,4","133,1","27,8","55,6"],
    [45356,"43707,5","3","1,047","1,6","150","29,2","50,3"],
    [45357,"43707,54167","2,4","1,335","1,7","108,7","31,1","45,1"],
    [45358,"43707,58333","2,2","2,854","2,5","159,9","32","44,2"],
    [45359,"43707,625","2,5","0","4,9","314,3","31,5","44,9"],
    [45360,"43707,66667","2,5","0","5,6","298,9","30,3","46,8"],
    [45361,"43707,70833","3,2","0","6","303,2","29,1","50,7"],
    [45362,"43707,75","3,8","0","5,9","305","28","54,4"],
    [45363,"43707,79167","3,7","0","5,6","304,5","27,3","55,5"],
    [45364,"43707,83333","3,9","0","4,7","312,6","27,1","55,3"],
    [45365,"43707,875","3,8","0","2,4","275,5","26,5","57,6"],
    [45366,"43707,91667","3,5","0","2,3","269,5","25,9","59,9"],
    [45367,"43707,95833","3,8","0","0,7","176,3","25,3","61,6"],
    [45368,"43708","3,3","0","0,9","149,6","25,2","63,2"],
    [45369,"43708,04167","3,3","0","1,2","96,3","24,5","68,5"],
    [45370,"43708,08333","3,6","0","0,8","142,9","24,1","69,5"],
    [45371,"43708,125","3","0,157","0,9","185,1","23,8","71,7"],
    [45372,"43708,16667","2,9","0","0,9","111,2","23,4","74,4"],
    [45373,"43708,20833","3,5","0","0,6","173","23","76"],
    [45374,"43708,25","3,5","0","0,8","225,7","22,5","77,4"],
    [45375,"43708,29167","3,3","0","0,7","143,2","23,1","75,3"],
    [45376,"43708,33333","3,8","0,079","0,6","103,5","23,8","73,3"],
    [45377,"43708,375","3,8","0,288","0,9","130,2","24,8","69,2"],
    [45378,"43708,41667","3,5","0,471","0,9","125,6","26,1","65,1"],
    [45379,"43708,45833","3,3","0,812","1,5","127,2","27,8","59,1"],
    [45380,"43708,5","3,2","0,812","1,6","110,1","29,6","52,7"],
    [45381,"43708,54167","3","1,047","1,9","176,4","30,4","50,1"],
    [45382,"43708,58333","2,4","0","3,2","292,8","29,7","50"],
    [45383,"43708,625","2,2","0","4,2","302","29,2","51,1"],
    [45384,"43708,66667","2,6","0","4","321,3","29,2","52,3"],
    [45385,"43708,70833","3","0","5","315,7","28,1","54,9"],
    [45386,"43708,75","3,4","0","4,5","311,8","27,4","56,4"],
    [45387,"43708,79167","3,9","0","4,2","312,3","26,8","58,5"],
    [45388,"43708,83333","3,8","0","4,3","309","26,6","58,8"],
    [45389,"43708,875","3,3","0","3,4","297,9","26,6","58,6"],
    [45390,"43708,91667","3,4","0","1,1","177,4","26,3","60,6"],
    [45391,"43708,95833","3,7","0","1,2","165","24,9","68,3"],
    [45392,"43709","3,9","0","1,3","169,9","24,7","69,6"],
    [45393,"43709,04167","ND","0","0,8","183,9","24,3","71,4"],
    [45394,"43709,08333","ND","0","0,6","177,2","23,9","71,9"],
    [45395,"43709,125","ND","0","0,7","207,1","23,6","72,8"],
    [45396,"43709,16667","ND","0","0,7","150,2","23,7","73,6"],
    [45397,"43709,20833","ND","0","0,9","80,6","23,4","75,3"],
    [45398,"43709,25","ND","0,052","0,7","177,9","23","77,9"],
    [45399,"43709,29167","ND","0","0,8","228,2","22,4","79,6"],
    [45400,"43709,33333","ND","0","1,3","205,1","23,5","76,9"],
    [45401,"43709,375","ND","0,707","1,1","94,2","24,9","71,4"],
    [45402,"43709,41667","ND","4,739","1,1","132,2","26,2","66,9"],
    [45403,"43709,45833","ND","6,022","1,5","113,6","27,4","62,2"],
    [45404,"43709,5","ND","3,718","1,4","144,7","28,3","59,7"],
    [45405,"43709,54167","ND","4,137","1,6","126,9","29,2","56,3"],
    [45406,"43709,58333","ND","4,058","1,6","141,4","30,4","52,5"],
    [45407,"43709,625","ND","3,666","1,6","129,9","30,8","50,5"],
    [45408,"43709,66667","ND","0,157","3","316","29,8","52"],
    [45409,"43709,70833","ND","0,026","2,9","314,4","29,6","51,9"],
    [45410,"43709,75","ND","0","3,9","311,9","28","55,5"],
    [45411,"43709,79167","ND","0","4,1","318","26,9","58,7"],
    [45412,"43709,83333","ND","0,026","4","297,3","26,7","59,1"],
    [45413,"43709,875","ND","0,262","1,8","221,2","26,7","57,7"],
    [45414,"43709,91667","ND","0,105","1","163,8","26,4","60,3"],
    [45415,"43709,95833","ND","0,026","0,9","238,4","25,4","65,4"],
    [45416,"43710","ND","0","1","189,8","24,6","67,5"],
    [45417,"43710,04167","ND","0","0,8","61,6","24,2","70,6"],
    [45418,"43710,08333","ND","0","1","112,4","23,7","74,5"],
    [45419,"43710,125","ND","0","0,7","172,1","23,2","76"],
    [45420,"43710,16667","ND","0","0,7","192,4","22,6","78,4"],
    [45421,"43710,20833","ND","0,105","0,9","243,9","21,8","80"],
    [45422,"43710,25","ND","0,079","0,8","224,6","21,3","80,8"],
    [45423,"43710,29167","ND","0,026","0,8","218,8","21,5","80,5"],
    [45424,"43710,33333","ND","0,105","0,7","110,2","23,9","74,5"],
    [45425,"43710,375","ND","0,393","1","86","25,3","68,4"],
    [45426,"43710,41667","ND","2,121","1,3","98,8","26,5","62,7"],
    [45427,"43710,45833","ND","1,466","1,4","132,2","27,6","57,8"],
    [45428,"43710,5","ND","2,33","1,7","109,1","28,8","55,5"],
    [45429,"43710,54167","ND","4,399","1,9","99","30,1","52,2"],
    [45430,"43710,58333","ND","2,383","2,2","205","30,8","48,5"],
    [45431,"43710,625","ND","0,026","4,3","319,7","30,2","47,9"],
    [45432,"43710,66667","ND","0","4,6","322","30","49,3"],
    [45433,"43710,70833","ND","0","4,6","319,7","29,5","49,2"],
    [45434,"43710,75","ND","0","4,6","308,4","28,2","53,4"],
    [45435,"43710,79167","ND","0","4,4","306,6","27","57,3"],
    [45436,"43710,83333","ND","0","3,9","313,2","26,8","57"],
    [45437,"43710,875","ND","0","2,8","300,5","26,8","55,6"],
    [45438,"43710,91667","ND","0","1,9","239,5","26,5","55,6"],
    [45439,"43710,95833","ND","0","1","167,9","25","61,6"],
    [45440,"43711","ND","0","0,9","205","23,7","68"],
    [45441,"43711,04167","ND","0","0,6","231,4","22,5","70,5"],
    [45442,"43711,08333","ND","0","0,5","215,3","21,9","72,4"],
    [45443,"43711,125","ND","0","0,9","235,9","21,5","74"],
    [45444,"43711,16667","ND","0","1","240,6","21","76,5"],
    [45445,"43711,20833","ND","0","0,9","235","20,7","77,8"],
    [45446,"43711,25","ND","0,026","1,1","243,7","20,6","78,1"],
    [45447,"43711,29167","ND","0","0,9","229,4","20,7","77,6"],
    [45448,"43711,33333","ND","0,157","0,7","140,2","22,7","73,4"],
    [45449,"43711,375","ND","0,34","1","121,1","24,6","67,9"],
    [45450,"43711,41667","ND","0,576","1,1","90,6","25,5","65,4"],
    [45451,"43711,45833","ND","0,393","1,2","105,5","27,1","59,3"],
    [45452,"43711,5","ND","0,916","1,2","101,9","28,5","54,4"],
    [45453,"43711,54167","ND","2,409","1,2","142,6","30,3","49,1"],
    [45454,"43711,58333","ND","1,492","2,8","219,3","32,5","44,1"],
    [45455,"43711,625","ND","0","5,1","314,6","31,9","46,3"],
    [45456,"43711,66667","ND","0","6,2","305,6","30,7","49,2"],
    [45457,"43711,70833","ND","0","6,8","305,3","28,9","54,4"],
    [45458,"43711,75","ND","0","6,9","304,3","27,8","56,9"],
    [45459,"43711,79167","ND","0","6,5","308,5","27,7","56,2"],
    [45460,"43711,83333","ND","0","4","291,4","27,6","55,9"],
    [45461,"43711,875","ND","0","1,4","171,5","27,5","57,1"],
    [45462,"43711,91667","ND","0","1,1","137,8","26,3","63,6"],
    [45463,"43711,95833","ND","0","0,7","172","25,6","66,7"],
    [45464,"43712","ND","0","0,7","126,8","25,4","67,3"],
    [45465,"43712,04167","ND","0","0,6","146,1","24,7","70"],
    [45466,"43712,08333","ND","0","0,6","180,2","23,9","72,6"],
    [45467,"43712,125","ND","0","1","245,9","23,4","75"],
    [45468,"43712,16667","ND","0","0,4","149,8","23,4","74,7"],
    [45469,"43712,20833","ND","0","0,6","210,5","23,4","74,7"],
    [45470,"43712,25","ND","0,052","0,7","146,8","23,4","74,6"],
    [45471,"43712,29167","ND","0,079","0,6","132,9","23,3","75,4"],
    [45472,"43712,33333","ND","0,131","0,8","132,4","24,1","73,7"],
    [45473,"43712,375","ND","0,628","1,4","105,5","25,1","70,5"],
    [45474,"43712,41667","ND","0,864","1,2","127,4","26,7","64,7"],
    [45475,"43712,45833","ND","1,047","1,8","103,9","28,6","56,7"],
    [45476,"43712,5","ND","1,885","1,8","103,4","30,3","51,8"],
    [45477,"43712,54167","ND","3,875","1,9","95,9","31,4","47,3"],
    [45478,"43712,58333","ND","1,519","2,1","220,2","31,8","45,1"],
    [45479,"43712,625","ND","0,026","4","316,2","31,8","44,6"],
    [45480,"43712,66667","ND","0","5","310","31,4","45,3"],
    [45481,"43712,70833","ND","0","6,3","303,5","29,2","50,7"],
    [45482,"43712,75","ND","0","6,8","301","27,3","56,4"],
    [45483,"43712,79167","ND","0","6","300,7","26,8","57,9"],
    [45484,"43712,83333","ND","0","4,6","313,9","26,7","57,8"],
    [45485,"43712,875","ND","0","1,9","208,5","26,5","59"],
    [45486,"43712,91667","ND","0,026","1,1","124,7","25,5","63,8"],
    [45487,"43712,95833","ND","0","1,1","229,2","24,5","67,8"],
    [45488,"43713","ND","0","0,8","185,2","23,5","70,5"],
    [45489,"43713,04167","ND","0","0,8","181","23,5","71,7"],
    [45490,"43713,08333","ND","0","0,7","222","22,9","73,3"],
    [45491,"43713,125","ND","0","0,7","187,2","22,6","74,1"],
    [45492,"43713,16667","ND","0","0,9","213,4","22,6","74,7"],
    [45493,"43713,20833","ND","0,079","0,9","229,9","22,3","75,5"],
    [45494,"43713,25","ND","0","0,8","231,2","21,8","77,2"],
    [45495,"43713,29167","ND","0","0,7","260,8","22,1","77,5"],
    [45496,"43713,33333","ND","0,131","1,3","108,5","24","72,4"],
    [45497,"43713,375","ND","3,247","1,5","105,4","25,6","66,3"],
    [45498,"43713,41667","ND","2,54","1,3","93,6","26,6","63"],
    [45499,"43713,45833","ND","1,964","1,4","83,3","27,9","59,3"],
    [45500,"43713,5","ND","2,042","1,7","171,4","29,6","53,9"],
    [45501,"43713,54167","ND","1,99","1,8","88,9","31,5","47,5"],
    [45502,"43713,58333","ND","3,194","1,9","92,3","32","46,1"],
    [45503,"43713,625","ND","1,257","2,7","242,7","31,8","45,7"],
    [45504,"43713,66667","ND","0","4,3","305,6","31,3","46,3"],
    [45505,"43713,70833","ND","0,026","5,3","303,3","29,3","50,4"],
    [45506,"43713,75","ND","0","5,6","304,7","28,2","53,3"],
    [45507,"43713,79167","ND","0,079","5,5","311,1","27,3","56,8"],
    [45508,"43713,83333","ND","0","4,8","303,4","27,2","56,5"],
    [45509,"43713,875","ND","0","3","256,5","27,2","55,7"],
    [45510,"43713,91667","ND","0,026","1","107,5","26,7","59,1"],
    [45511,"43713,95833","ND","0","1","182,8","25,9","62,4"],
    [45512,"43714","ND","0","0,6","209,9","24,8","66,1"],
    [45513,"43714,04167","ND","0","0,8","181,2","24,1","69,2"],
    [45514,"43714,08333","ND","0","0,8","205","23,7","71,9"],
    [45515,"43714,125","ND","0","0,7","241,9","22,9","74,5"],
    [45516,"43714,16667","ND","0","0,6","211,8","22,3","76,8"],
    [45517,"43714,20833","ND","0,236","0,8","226,3","21,8","78,3"],
    [45518,"43714,25","ND","0","0,8","248,7","21,4","80"],
    [45519,"43714,29167","ND","0","1,1","245,3","21,4","80,1"],
    [45520,"43714,33333","ND","0,105","0,7","170,7","23,4","75,2"],
    [45521,"43714,375","ND","0,838","1,3","88,8","25,9","66,2"],
    [45522,"43714,41667","ND","4,451","1,9","83","27,1","63,2"],
    [45523,"43714,45833","ND","2,749","1,6","117,4","28,3","59,3"],
    [45524,"43714,5","ND","2,147","1,6","100,9","29,6","55,2"],
    [45525,"43714,54167","ND","0,838","1,9","122,4","31","49,2"],
    [45526,"43714,58333","ND","0,314","1,4","142,3","32,2","44,3"],
    [45527,"43714,625","ND","0,262","1,5","110,5","32,2","41,4"],
    [45528,"43714,66667","ND","0","4","309,7","30,6","49,1"],
    [45529,"43714,70833","ND","0","4,4","309","29,7","50,7"],
    [45530,"43714,75","ND","0","4,7","307,3","28,5","52,7"],
    [45531,"43714,79167","ND","0","4,2","304,8","27,9","51,8"],
    [45532,"43714,83333","ND","0","4","303,1","27,7","51,5"],
    [45533,"43714,875","ND","0,026","2,5","265,2","27,6","50,6"],
    [45534,"43714,91667","ND","0","1,1","120,7","26,6","57"],
    [45535,"43714,95833","ND","0,052","0,8","122,4","25,2","64,2"],
    [45536,"43715","ND","0","1","223,4","24,1","67,1"],
    [45537,"43715,04167","ND","0","0,8","191,8","23,4","68,3"],
    [45538,"43715,08333","ND","0","0,4","159","23,3","69,6"],
    [45539,"43715,125","ND","0","0,7","140,5","22,5","73,4"],
    [45540,"43715,16667","ND","0","1,5","242,9","21,4","76,4"],
    [45541,"43715,20833","ND","0,262","1,5","188,2","21,5","76,4"],
    [45542,"43715,25","ND","0","0,8","97,7","21,7","75,8"],
    [45543,"43715,29167","ND","0,131","0,8","202,5","21,3","77,2"],
    [45544,"43715,33333","ND","0,34","1","159,6","23","72"],
    [45545,"43715,375","ND","0,838","1,2","121","25,1","63,6"],
    [45546,"43715,41667","ND","1,492","1,1","146,8","26,8","57,9"],
    [45547,"43715,45833","ND","1,44","1,5","118,2","28,6","52,7"],
    [45548,"43715,5","ND","1,257","1,6","139,7","30,1","47,6"],
    [45549,"43715,54167","ND","0,943","1,6","137,7","32","42"],
    [45550,"43715,58333","ND","0,367","3,7","260,2","32,9","40,9"],
    [45551,"43715,625","ND","0","4,9","310,2","31,9","43,6"],
    [45552,"43715,66667","ND","0","5,9","301,4","31","45,6"],
    [45553,"43715,70833","ND","0","6,8","301,1","29,6","49,6"],
    [45554,"43715,75","ND","0","7,2","301,7","28","55,1"],
    [45555,"43715,79167","46,4","0","7","301,4","26,9","59"],
    [45556,"43715,83333","35","0","6","299,1","26,6","59,5"],
    [45557,"43715,875","24,3","0","1,9","227,2","27","57,7"],
    [45558,"43715,91667","28,1","0","1,4","139,6","26,6","60,3"],
    [45559,"43715,95833","53,5","0","0,9","184,3","25,5","64,8"],
    [45560,"43716","74,2","0","0,9","243,8","24,4","67,8"],
    [45561,"43716,04167","48,3","0","0,5","215,4","24,1","69,2"],
    [45562,"43716,08333","44,8","0","0,7","193,8","23,6","71,3"],
    [45563,"43716,125","43,7","0","0,6","163,4","23,2","72,7"],
    [45564,"43716,16667","41,4","0","0,6","188,9","22,8","74,6"],
    [45565,"43716,20833","41,8","0","0,6","201,4","22,3","76,2"],
    [45566,"43716,25","40,3","0","1,1","245","21,6","77,9"],
    [45567,"43716,29167","35,1","0","0,7","237,2","21,5","78,6"],
    [45568,"43716,33333","45,5","0","0,7","182,7","23,7","73,1"],
    [45569,"43716,375","60,9","0,995","1,2","120,8","25,8","65,2"],
    [45570,"43716,41667","65,3","2,042","1,3","144,4","27,1","60,7"],
    [45571,"43716,45833","54,4","2,933","1,4","160,3","28,9","54,8"],
    [45572,"43716,5","48,9","3,587","1,4","143,9","30,7","48,1"],
    [45573,"43716,54167","52,6","2,356","1,6","153,8","32,3","40,2"],
    [45574,"43716,58333","53,3","1,362","1,5","140,4","34,1","32,9"],
    [45575,"43716,625","47","0,34","3,1","253,9","34,5","31,7"],
    [45576,"43716,66667","37,6","0","6,8","301,7","31,4","44,7"],
    [45577,"43716,70833","61","0","7,1","301,7","29,5","49,2"],
    [45578,"43716,75","56,9","0","8","302,3","27,8","54,8"],
    [45579,"43716,79167","77,6","0","7,6","296,9","27,2","57,2"],
    [45580,"43716,83333","51,9","0","4,3","293,1","27,5","55,1"],
    [45581,"43716,875","26,8","0,785","1,4","138,6","27,5","54,5"],
    [45582,"43716,91667","62,6","0,105","1","133,1","26,3","60,4"],
    [45583,"43716,95833","72,1","0,026","0,8","205,2","25","64,1"],
    [45584,"43717","65,6","0,052","0,7","206,1","23,9","67"],
    [45585,"43717,04167","53,8","0","1,2","243,6","23,1","70,3"],
    [45586,"43717,08333","44,7","0","0,9","223,6","22,7","70,9"],
    [45587,"43717,125","36,1","0","0,7","210,6","22,2","72,2"],
    [45588,"43717,16667","36,8","0","0,7","228,4","21,7","74,8"],
    [45589,"43717,20833","35,7","0,105","1","228,1","21,3","76,8"],
    [45590,"43717,25","41,4","0","0,9","230,2","21","77,7"],
    [45591,"43717,29167","51","0","0,7","233,4","20,9","77,5"],
    [45592,"43717,33333","74,4","0,052","0,8","195","22,9","72,6"],
    [45593,"43717,375","93,2","1,047","0,9","143,9","25,5","63,9"],
    [45594,"43717,41667","100,7","1,754","1,3","107,7","27,2","58,9"],
    [45595,"43717,45833","90,3","3,325","1,5","107,3","28,8","54,6"],
    [45596,"43717,5","94","6,022","1,7","104,3","30,6","50,3"],
    [45597,"43717,54167","85,2","6,022","1,7","127,2","32,1","44,4"],
    [45598,"43717,58333","68,7","2,461","2,7","193,9","32,5","42,1"],
    [45599,"43717,625","ND","25,11","4,7","308,2","31,7","46,1"],
    [45600,"43717,66667","ND","ND","4,8","304,3","31,1","46,3"],
    [45601,"43717,70833","ND","0","6,3","300,9","29,6","49,6"],
    [45602,"43717,75","ND","0","5,5","307,4","28,7","52,4"],
    [45603,"43717,79167","ND","0","6,4","301,1","27,6","55"],
    [45604,"43717,83333","ND","0","5,5","306","27,4","55,1"],
    [45605,"43717,875","21,8","0","2,3","257,3","27,3","54,9"],
    [45606,"43717,91667","22","0","1,2","146,1","26,9","56,6"],
    [45607,"43717,95833","63,9","0","1,1","159,7","25,6","64,7"],
    [45608,"43718","100,4","0","0,8","226,8","24,5","66,4"],
    [45609,"43718,04167","49,4","0","0,5","188,1","23,7","69,2"],
    [45610,"43718,08333","44,7","0","0,7","227,6","23","71,9"],
    [45611,"43718,125","34,9","0","0,9","224","22,7","73,8"],
    [45612,"43718,16667","48,8","0","0,7","245","22,7","73,6"],
    [45613,"43718,20833","35,9","0","0,6","223,7","22,4","75"],
    [45614,"43718,25","45,7","0","0,9","231,6","22,2","76,2"],
    [45615,"43718,29167","56","0","0,8","223,6","22,5","75,7"],
    [45616,"43718,33333","80","0,34","0,9","186,1","24,4","69,7"],
    [45617,"43718,375","80,7","1,964","1,3","133,9","25,6","66"],
    [45618,"43718,41667","79,4","1,466","1,4","123,3","27,4","60,5"],
    [45619,"43718,45833","52,1","0,314","1,6","144,9","29,2","53,8"],
    [45620,"43718,5","61,6","0,079","1,7","140,9","30,9","48,7"],
    [45621,"43718,54167","65,5","0,367","1,8","98,8","32","45,3"],
    [45622,"43718,58333","81,4","0,838","1,8","129","32,8","43,5"],
    [45623,"43718,625","83,9","0,602","2,9","216,7","32","44,5"],
    [45624,"43718,66667","61,1","0","4,5","317,4","30,9","47,9"],
    [45625,"43718,70833","29,2","0","4,8","317,2","30,5","49,7"],
    [45626,"43718,75","32,3","0,079","5,7","305,5","29","53"],
    [45627,"43718,79167","100,5","0,026","6,5","302,5","27,7","56,7"],
    [45628,"43718,83333","79,3","0","6","301,4","27,1","58,8"],
    [45629,"43718,875","32,1","0","5","301,6","27,1","58,5"],
    [45630,"43718,91667","19,9","0","1,5","182,4","26,9","58,6"],
    [45631,"43718,95833","57,6","0","1","107,3","25,7","65,3"],
    [45632,"43719","108,9","0","0,9","210,9","24,4","68,3"],
    [45633,"43719,04167","62,3","0","1,1","233,3","23,7","69,5"],
    [45634,"43719,08333","65","0","0,8","142,1","23,9","71"],
    [45635,"43719,125","54,9","0","1","135,2","23,5","74,8"],
    [45636,"43719,16667","59,8","0","0,8","240,4","22,9","76,4"],
    [45637,"43719,20833","53,2","0","0,7","193,4","22,9","77,2"],
    [45638,"43719,25","61,1","0","0,9","196,4","22,6","77,9"],
    [45639,"43719,29167","76","0","0,5","178,2","22,7","77,9"],
    [45640,"43719,33333","80,8","0,026","1","111,6","24,8","71,3"],
    [45641,"43719,375","85,9","0,183","1","117","26,4","65,9"],
    [45642,"43719,41667","96,6","0,524","1,3","114,7","28,5","57,6"],
    [45643,"43719,45833","75,5","0,393","1,6","155,2","30","52,4"],
    [45644,"43719,5","73,4","0,995","1,9","129,6","31,4","48,8"],
    [45645,"43719,54167","96,8","1,807","1,9","130,6","32,8","45"],
    [45646,"43719,58333","70,7","0","4,8","301,1","33","43,4"],
    [45647,"43719,625","39","0","6,8","306,3","31,4","46,6"],
    [45648,"43719,66667","109,4","0","7,6","303,8","30,2","49,3"],
    [45649,"43719,70833","120,6","0","7,4","304,2","29,2","52,7"],
    [45650,"43719,75","70,6","0","6,8","307,5","28,3","55,3"],
    [45651,"43719,79167","38","0","6,6","310,2","27,7","55,1"],
    [45652,"43719,83333","24,6","0","5,7","309,6","27,5","56,3"],
    [45653,"43719,875","17,2","0","3,3","268,6","26,9","58,9"],
    [45654,"43719,91667","28,4","0","1,9","264,5","26,6","60,7"],
    [45655,"43719,95833","15,1","0","1,3","189,2","26,2","63,6"],
    [45656,"43720","35,3","0","1,1","265,1","25,7","66,1"],
    [45657,"43720,04167","36,8","0","1,2","171,1","25,5","67,7"],
    [45658,"43720,08333","44,1","0","1,3","252,9","25,2","67,2"],
    [45659,"43720,125","14,3","0","1,5","117","25,1","69,3"],
    [45660,"43720,16667","48,2","0","1,4","134,8","23,4","80,1"],
    [45661,"43720,20833","41,6","0,026","1","145,9","22,3","87,4"],
    [45662,"43720,25","21,2","0","0,8","176,1","22,2","89,8"],
    [45663,"43720,29167","30,1","0","0,6","203,4","22","90,8"],
    [45664,"43720,33333","46","0","0,8","86,1","23,3","88,4"],
    [45665,"43720,375","46,3","0","1,3","98,6","25,2","75,8"],
    [45666,"43720,41667","44,8","0","1,3","96,4","26,7","66,9"],
    [45667,"43720,45833","54,8","0","1,2","121,1","27,9","61,9"],
    [45668,"43720,5","46,8","0,026","2","131,9","29,3","55,9"],
    [45669,"43720,54167","40,9","0,079","2,1","144,9","31,3","46,8"],
    [45670,"43720,58333","23,4","0","3,6","289,1","31,9","43,4"],
    [45671,"43720,625","20,5","0","4,1","286","32,1","41,9"],
    [45672,"43720,66667","20,4","0","5,3","318,1","31","46,2"],
    [45673,"43720,70833","25,8","0","6","301","29,7","49,5"],
    [45674,"43720,75","27,9","0","6,9","301,9","28,2","52,1"],
    [45675,"43720,79167","28,3","0,079","6,7","302,3","27,7","54,7"],
    [45676,"43720,83333","22","0","5,6","308,9","27,2","57,2"],
    [45677,"43720,875","15,2","0","2,4","225,6","27,2","58,1"],
    [45678,"43720,91667","52,8","0","1,1","204,5","25,4","70,2"],
    [45679,"43720,95833","47,7","0","1,3","234,7","23,9","78,1"],
    [45680,"43721","35,8","0","0,8","195,4","23,6","78,4"],
    [45681,"43721,04167","34,9","0","1,1","248,9","23,1","80,4"],
    [45682,"43721,08333","27,7","0","1","243","23,1","80,3"],
    [45683,"43721,125","27,3","0","0,9","156,9","22,9","80,8"],
    [45684,"43721,16667","33,9","0","0,5","162,2","22","88,1"],
    [45685,"43721,20833","29,1","0","1,2","205,9","21,7","90,2"],
    [45686,"43721,25","22,8","0","0,8","224,6","21,3","90,7"],
    [45687,"43721,29167","27,1","0","1","246,3","21,4","90,4"],
    [45688,"43721,33333","47,7","0","0,6","193,7","22,4","87,4"],
    [45689,"43721,375","60,9","0,026","1,1","189","23,5","83,1"],
    [45690,"43721,41667","77,6","1,833","1,4","160,4","25,3","74,6"],
    [45691,"43721,45833","69,2","1,152","1,3","155,1","26,8","67,5"],
    [45692,"43721,5","44,1","0,157","1,4","170,9","28,3","60,8"],
    [45693,"43721,54167","42,6","0,026","1,3","142,5","30,4","53,2"],
    [45694,"43721,58333","34,7","0","1,4","175,9","31,3","48,5"],
    [45695,"43721,625","33,4","0","1,3","123,8","32,2","44,7"],
    [45696,"43721,66667","55,6","0","1,7","115,1","32","46,6"],
    [45697,"43721,70833","68,4","0","3,7","267,1","30,5","52,6"],
    [45698,"43721,75","45,4","0","5,4","305,1","28","59"],
    [45699,"43721,79167","26","0","5,9","305,7","26,9","60,7"],
    [45700,"43721,83333","16,3","0","5,7","304,8","26,7","60,3"],
    [45701,"43721,875","14,8","0","4,9","302,2","26,7","60,2"],
    [45702,"43721,91667","13,9","0","1,5","227,2","26,9","60,2"],
    [45703,"43721,95833","30,2","0","1,3","152,4","26,1","64,5"],
    [45704,"43722","48,4","0","0,6","190","24,8","72"],
    [45705,"43722,04167","52,4","0","0,5","205,7","24,1","71,6"],
    [45706,"43722,08333","18,8","0","0,5","204,5","23,5","74"],
    [45707,"43722,125","24,8","0","0,8","148,8","23,3","76,7"],
    [45708,"43722,16667","37,8","0","0,6","98,8","23,4","77,8"],
    [45709,"43722,20833","52,4","0","0,7","199,7","22,9","78,9"],
    [45710,"43722,25","38,3","0","0,5","208,3","22,8","79,8"],
    [45711,"43722,29167","47,5","0","0,6","197,9","22,7","80,6"],
    [45712,"43722,33333","64,2","0","0,8","197,2","23,3","79,1"],
    [45713,"43722,375","71,2","0","0,7","165,9","24,8","72,9"],
    [45714,"43722,41667","69,1","0,445","1,5","122,6","26,8","63,5"],
    [45715,"43722,45833","71,6","0,681","1,2","153,2","27,5","60,3"],
    [45716,"43722,5","66,7","0,367","1,3","190,7","28,8","56,6"],
    [45717,"43722,54167","78,6","0,524","1,7","141,4","30,9","50,4"],
    [45718,"43722,58333","78,7","0,576","1,8","184,3","32,4","44,5"],
    [45719,"43722,625","61,3","0","4,7","322,9","31,7","45,9"],
    [45720,"43722,66667","36","0","5,3","305,7","30,7","47,5"],
    [45721,"43722,70833","46,9","0","6,8","306,7","28,5","52,9"],
    [45722,"43722,75","48,1","0","6,3","303,6","27,4","58,1"],
    [45723,"43722,79167","19,3","0","6","297,5","27,3","57,6"],
    [45724,"43722,83333","22,1","0","1,9","274,4","27,5","56,2"],
    [45725,"43722,875","18,4","0","1,1","231,4","27,1","58,4"],
    [45726,"43722,91667","23","0","1","233,5","26,6","61,5"],
    [45727,"43722,95833","43,8","0","0,9","177,3","26,1","64,1"],
    [45728,"43723","54,7","0","0,9","136,6","25,7","64"],
    [45729,"43723,04167","51,2","0","0,9","135,6","25,2","67,3"],
    [45730,"43723,08333","50","0","0,3","141,8","24,4","71,6"],
    [45731,"43723,125","42,4","0","0,8","218,6","23,7","74,5"],
    [45732,"43723,16667","43,9","0","0,7","196","23,2","76,1"],
    [45733,"43723,20833","39,4","0,288","0,9","233","22,8","76,5"],
    [45734,"43723,25","29,6","0,157","0,7","247,5","22,7","76,4"],
    [45735,"43723,29167","34,7","0","0,8","223,7","22,8","76,9"],
    [45736,"43723,33333","36,8","0","0,4","192,3","23,7","74,6"],
    [45737,"43723,375","55,5","0,052","1,1","151,4","25","72,5"],
    [45738,"43723,41667","88,2","7,2","1,4","145,1","26,3","68,6"],
    [45739,"43723,45833","94,3","3,456","1,4","137,9","27,6","62,1"],
    [45740,"43723,5","62,4","1,728","1,4","141,6","28,9","55,8"],
    [45741,"43723,54167","47,5","1,597","1,6","114,3","30,3","51,6"],
    [45742,"43723,58333","47,5","1,702","2,2","161","31,7","46,7"],
    [45743,"43723,625","51","0,183","3,3","256,4","30,9","47,9"],
    [45744,"43723,66667","29,8","0","4,8","316,7","29,6","51,9"],
    [45745,"43723,70833","18,4","0,079","5,3","312","28,4","54,6"],
    [45746,"43723,75","21,9","0","6,6","304,7","27,1","56,9"],
    [45747,"43723,79167","19,6","0","6,4","308,4","26,3","59"],
    [45748,"43723,83333","24,8","0","6,4","312","26,1","59,6"],
    [45749,"43723,875","13,5","0","4,8","295,2","26,1","59,3"],
    [45750,"43723,91667","12,2","0","1,6","174,6","25,9","61"],
    [45751,"43723,95833","41,3","0","1,1","130,4","24,7","68,3"],
    [45752,"43724","60,9","0","1","241,3","23,5","72"],
    [45753,"43724,04167","42","0","0,6","203","23,1","73,3"],
    [45754,"43724,08333","30,1","0","0,8","176,8","23,4","72,3"],
    [45755,"43724,125","32,5","0","0,7","231,2","22,8","74,5"],
    [45756,"43724,16667","27,5","0","0,7","176","22,6","76,1"],
    [45757,"43724,20833","32","0","0,8","226,2","22,4","77"],
    [45758,"43724,25","34,5","0","0,9","244,7","22","79,1"],
    [45759,"43724,29167","48,8","0","0,8","238,7","22","79,6"],
    [45760,"43724,33333","66,3","0","1","237","23","76,7"],
    [45761,"43724,375","76,1","ND","1","92,5","24,5","71,2"],
    [45762,"43724,41667","96,4","ND","1,7","147,8","25,8","67"],
    [45763,"43724,45833","106,3","ND","1,2","174,6","27,4","61,2"],
    [45764,"43724,5","68,6","2,933","1,8","136,8","28,7","55,8"],
    [45765,"43724,54167","69","1,702","1,7","136,2","30,2","51,6"],
    [45766,"43724,58333","73,9","0,785","2,1","183","31,2","47,8"],
    [45767,"43724,625","50,2","0","4,3","316,9","31","46,5"],
    [45768,"43724,66667","48,1","0","5,3","310,4","29,8","48,6"],
    [45769,"43724,70833","21,2","0","5,8","304,9","28,6","51"],
    [45770,"43724,75","22,8","0","6,3","311","27,3","55,1"],
    [45771,"43724,79167","24,8","0","6,5","308,1","26,3","58"],
    [45772,"43724,83333","18,9","0","5,8","309","26,3","57"],
    [45773,"43724,875","13,1","0","1,9","219","26,2","58,1"],
    [45774,"43724,91667","23,1","0","0,9","165,1","25,4","62,3"],
    [45775,"43724,95833","65,6","0","0,7","186","24,9","65,8"],
    [45776,"43725","61,3","0","0,8","233,7","24,4","66,6"],
    [45777,"43725,04167","33,4","0","0,5","176,6","24,4","66,9"],
    [45778,"43725,08333","22,8","0","1,1","145,5","24,2","69,3"],
    [45779,"43725,125","37,6","0","0,8","193,9","23,7","71,6"],
    [45780,"43725,16667","36","0","0,7","144,6","23,6","71,6"],
    [45781,"43725,20833","35,1","0,052","0,7","179,8","23,4","72,9"],
    [45782,"43725,25","36,9","0","0,6","228,2","23","74,8"],
    [45783,"43725,29167","44,8","0","0,9","218,1","23","75,3"],
    [45784,"43725,33333","62,9","0","0,7","133,2","23,6","76,1"],
    [45785,"43725,375","94,4","0","0,7","204,4","24,4","72,3"],
    [45786,"43725,41667","82,3","0,602","1","168,7","26,2","64,4"],
    [45787,"43725,45833","86,1","0,707","1,3","118,4","28,1","56,9"],
    [45788,"43725,5","64,4","0,105","1,5","133,9","29,2","51,7"],
    [45789,"43725,54167","60","0,445","1,3","97,5","28,9","52,6"],
    [45790,"43725,58333","87,3","1,309","1,5","105,8","29,2","53"],
    [45791,"43725,625","118,6","0,079","2,1","207,9","29,6","51"],
    [45792,"43725,66667","59,6","0","4,1","317,9","28,8","52,4"],
    [45793,"43725,70833","27,9","0","4,3","311,2","27,8","55,7"],
    [45794,"43725,75","18","0","5,8","316,1","26,4","59,6"],
    [45795,"43725,79167","21,4","0","6,2","314,7","25,3","62,8"],
    [45796,"43725,83333","16,5","0","5,2","313","25,5","61"],
    [45797,"43725,875","10,6","0","4,7","318,7","25,5","60,7"],
    [45798,"43725,91667","9,6","0","1,6","217","25,7","61,6"],
    [45799,"43725,95833","51","0,026","0,8","133,5","24,7","69,3"],
    [45800,"43726","67,1","0,026","0,9","242,3","24,1","72,6"],
    [45801,"43726,04167","37,2","0","1,3","123,7","23,6","74,2"],
    [45802,"43726,08333","16,9","0","1,2","226,5","22,7","80"],
    [45803,"43726,125","18,8","0","1","175,5","21,9","85,2"],
    [45804,"43726,16667","15,6","0","1","162","21,3","89,2"],
    [45805,"43726,20833","13,7","0","0,9","174","20,9","91,2"],
    [45806,"43726,25","14,1","0,026","1,2","95,4","20,9","92,3"],
    [45807,"43726,29167","19,1","0","0,7","142,6","20,6","92,8"],
    [45808,"43726,33333","22,3","0,026","0,6","196,7","21,1","92,9"],
    [45809,"43726,375","24,5","0,026","0,9","206,7","21,9","90,4"],
    [45810,"43726,41667","21,8","0,026","1,1","123,6","24","79,5"],
    [45811,"43726,45833","34,5","0","1,5","94,3","25,7","68,9"],
    [45812,"43726,5","48","0,052","1,6","106,6","26,5","65,5"],
    [45813,"43726,54167","34,6","0,052","1,9","171","26,6","64,8"],
    [45814,"43726,58333","55,7","0,209","1,7","208,7","27,1","62,8"],
    [45815,"43726,625","62,8","0,026","2,3","221,2","28,8","51,4"],
    [45816,"43726,66667","16,6","0","4,1","320,4","27,5","55,5"],
    [45817,"43726,70833","17","0,105","3,8","205,5","25,9","61,9"],
    [45818,"43726,75","38,3","0,576","2,2","174,5","24,3","69,9"],
    [45819,"43726,79167","30,9","0,131","2","221,7","24","70,6"],
    [45820,"43726,83333","38,1","0,026","1,6","175,9","23","75,6"],
    [45821,"43726,875","42","0","1,7","169,1","22,2","80,7"],
    [45822,"43726,91667","27","0,026","0,6","170,9","21,8","83,9"],
    [45823,"43726,95833","29,8","0","0,5","181,9","21,9","84,7"],
    [45824,"43727","23,9","0","0,6","200,5","22,1","84,3"],
    [45825,"43727,04167","24,9","0","0,9","182,4","21,5","87,2"],
    [45826,"43727,08333","11,7","0","0,9","166,5","20,8","90,1"],
    [45827,"43727,125","12,3","0","0,7","62,7","20,6","92,5"],
    [45828,"43727,16667","9,6","0","0,7","97,7","20","94"],
    [45829,"43727,20833","6,7","0,157","0,5","108,1","19,8","95,1"],
    [45830,"43727,25","8,4","0","0,8","211,3","19,5","95,9"],
    [45831,"43727,29167","7,1","0","0,7","204,1","19,4","96,6"],
    [45832,"43727,33333","14,4","0,026","0,3","139,6","19,7","96,7"],
    [45833,"43727,375","20,5","0,052","0,8","199,6","19,9","96,5"],
    [45834,"43727,41667","16,9","0,052","0,7","126,5","20,7","95"],
    [45835,"43727,45833","18,8","0,052","1,6","60,5","22","89,8"],
    [45836,"43727,5","43,7","0,236","1,6","96,4","23,2","81"],
    [45837,"43727,54167","45,8","0,707","1,3","125,3","25,2","69,5"],
    [45838,"43727,58333","42,8","1,178","1,6","199,6","26,8","63,2"],
    [45839,"43727,625","46,2","1,597","1,2","133,1","28,4","55,5"],
    [45840,"43727,66667","44,2","1,859","1,8","271","28,6","53,3"],
    [45841,"43727,70833","47,9","0,602","2","247,3","27,9","57,1"],
    [45842,"43727,75","50,6","0,026","3,1","324,7","26,2","63,2"],
    [45843,"43727,79167","35,6","0","2,9","302,3","25,2","64,5"],
    [45844,"43727,83333","17,7","0","4","307,3","25,1","63,3"],
    [45845,"43727,875","16,5","0,026","2,7","255,6","24,9","64,5"],
    [45846,"43727,91667","27,2","0,131","1,2","199,4","24,5","64,6"],
    [45847,"43727,95833","31,5","0","0,9","192,6","24","68,8"],
    [45848,"43728","53,2","0","0,6","196,6","22,9","75,6"],
    [45849,"43728,04167","43,3","0","0,6","196,3","22,6","78,1"],
    [45850,"43728,08333","33,6","0","1,4","170,3","22,7","81"],
    [45851,"43728,125","36","0","1,2","168,7","22,3","84"],
    [45852,"43728,16667","28,6","0","0,8","195,8","22","85,4"],
    [45853,"43728,20833","31,8","0","1,8","169,8","21,3","86,8"],
    [45854,"43728,25","13,4","0","2","114,7","19,8","89"],
    [45855,"43728,29167","6,8","0","1,2","244,4","18,9","90,4"],
    [45856,"43728,33333","8,4","0","0,6","192,1","19,5","89,6"],
    [45857,"43728,375","18,8","0,026","0,7","161,9","19,6","89"],
    [45858,"43728,41667","13,6","0,052","0,8","140,1","20,6","87,3"],
    [45859,"43728,45833","25,5","0,105","1,3","118,9","21,1","86,4"],
    [45860,"43728,5","40,5","0,026","1,7","84,2","20,8","87,3"],
    [45861,"43728,54167","45,6","0,131","0,9","85,6","20,8","84,5"],
    [45862,"43728,58333","44,7","0","1","208,8","21","80"],
    [45863,"43728,625","32,9","0","1,3","278,2","21,9","78,8"],
    [45864,"43728,66667","41,5","0","0,7","196,5","23,1","75,7"],
    [45865,"43728,70833","36,7","0","0,5","173,4","23,5","71,1"],
    [45866,"43728,75","39,1","0","1","174,6","23,7","69,7"],
    [45867,"43728,79167","76,4","0,052","0,7","216,4","22,7","75,7"],
    [45868,"43728,83333","83,2","0,026","0,9","249","21,3","82,1"],
    [45869,"43728,875","63","0,026","1","241,4","20,8","83,8"],
    [45870,"43728,91667","57,5","0,026","1","246,6","20,6","85,1"],
    [45871,"43728,95833","58,2","0","1,3","246,1","20,2","85,8"],
    [45872,"43729","47,4","0","1,2","244,7","19,7","85,5"],
    [45873,"43729,04167","31,4","0","0,9","212,2","19,4","84,8"],
    [45874,"43729,08333","21,7","0","0,6","216,2","19,3","85,5"],
    [45875,"43729,125","24,2","0","0,6","194,7","19,1","86,4"],
    [45876,"43729,16667","25,6","0","0,7","199,4","19,1","87,6"],
    [45877,"43729,20833","32","0","0,9","242,6","18,4","89"],
    [45878,"43729,25","29,3","0","1","254,6","18,1","89,3"],
    [45879,"43729,29167","31","0,052","0,7","217,7","18,6","88,2"],
    [45880,"43729,33333","51","0,131","0,8","145,7","20,7","83,5"],
    [45881,"43729,375","91","0,131","1,1","126,4","22,1","78,7"],
    [45882,"43729,41667","71,8","0,759","1,2","130,2","23,8","72"],
    [45883,"43729,45833","65,5","0,838","1,1","114,4","25,1","67,8"],
    [45884,"43729,5","57,4","1,99","1,5","96,8","26","62,5"],
    [45885,"43729,54167","50","1,283","1,6","115,8","26,7","62,1"],
    [45886,"43729,58333","58","1,388","1,7","142,9","27,9","58,6"],
    [45887,"43729,625","58,6","1,126","1,2","155,5","28,3","56"],
    [45888,"43729,66667","58,9","0,55","1,1","181,5","28,6","54,7"],
    [45889,"43729,70833","51,7","0,026","3,4","307,6","28,3","54,4"],
    [45890,"43729,75","13,5","0","4,1","315,7","26,6","58,3"],
    [45891,"43729,79167","16,3","0","3,9","300,8","25,6","59,9"],
    [45892,"43729,83333","12,7","0","3,8","296,6","25,6","58"],
    [45893,"43729,875","17,5","0,079","1,6","221,8","25,6","58,6"],
    [45894,"43729,91667","21,6","0,052","0,8","192,5","24,6","64,4"],
    [45895,"43729,95833","43,6","0,052","0,7","181,5","23,5","71,2"],
    [45896,"43730","68,7","0,026","0,7","173,8","22,7","76,7"],
    [45897,"43730,04167","63,3","0","0,7","230,1","21,6","80,5"],
    [45898,"43730,08333","52,1","0","0,7","183,1","21,1","82,9"],
    [45899,"43730,125","46,3","0","0,5","197,6","20,9","83,9"],
    [45900,"43730,16667","46","0","0,6","225,2","20,8","84,8"],
    [45901,"43730,20833","43,2","0","0,9","232,1","20,6","86"],
    [45902,"43730,25","39,1","0","0,9","224,1","20,3","86,5"],
    [45903,"43730,29167","41,3","0","0,7","218,2","20,3","86,6"],
    [45904,"43730,33333","43,8","0","0,6","185,5","21,9","83,4"],
    [45905,"43730,375","50,5","0,681","1,1","152,3","24,4","74,2"],
    [45906,"43730,41667","45,8","1,204","1,5","112,5","26,3","66,7"],
    [45907,"43730,45833","45,3","2,016","1,3","158,8","27,2","62,4"],
    [45908,"43730,5","40,1","1,231","1,6","98,7","28,9","56,3"],
    [45909,"43730,54167","42,2","1,1","1,7","132,5","29,5","53,6"],
    [45910,"43730,58333","54,4","0,524","2","208,3","30,3","51,1"],
    [45911,"43730,625","37,2","0","4,2","277,2","30,5","49,5"],
    [45912,"43730,66667","15,9","0","5","312,4","29,7","52"],
    [45913,"43730,70833","26,1","0","5,9","310,3","28,3","55,4"],
    [45914,"43730,75","14,5","0","5,9","310,1","27,6","56,5"],
    [45915,"43730,79167","13,8","0","5,5","301,1","26,6","59,2"],
    [45916,"43730,83333","16,1","0","2,2","257","26,4","56,1"],
    [45917,"43730,875","27,2","0","2,5","237,3","25,5","63,8"],
    [45918,"43730,91667","7,1","0","1,6","134","24,2","63,6"],
    [45919,"43730,95833","30,9","0","1","164","23,4","69,4"],
    [45920,"43731","30,5","0","0,6","196,4","22,9","72,3"],
    [45921,"43731,04167","24,1","0","0,9","204","22,4","74"],
    [45922,"43731,08333","20,3","0","0,8","152,5","22,4","76,7"],
    [45923,"43731,125","33,3","0","0,6","84,3","22","83,2"],
    [45924,"43731,16667","32,2","0","0,7","177","22","83,6"],
    [45925,"43731,20833","29,1","0","0,8","224,2","21,8","83,5"],
    [45926,"43731,25","30,6","0","0,8","212,4","21,7","81,6"],
    [45927,"43731,29167","36,7","0,157","0,8","80,9","22,3","81,8"],
    [45928,"43731,33333","84,2","0,367","0,9","68,7","22,5","83,2"],
    [45929,"43731,375","101,8","0,838","1,2","70,4","23,5","78,5"],
    [45930,"43731,41667","65,6","2,487","1,5","96,4","24,5","73,9"],
    [45931,"43731,45833","62,7","2,147","1,3","122,6","26,3","66,5"],
    [45932,"43731,5","53,2","1,99","1,4","114,3","27,9","59,2"],
    [45933,"43731,54167","51,7","1,309","1,8","100,2","29,1","53,9"],
    [45934,"43731,58333","47,7","0,812","1,6","98,3","29,7","52,3"],
    [45935,"43731,625","46,1","0,995","1,4","141,7","29,8","50,7"],
    [45936,"43731,66667","44,8","0,131","3,4","297,4","29,6","48,9"],
    [45937,"43731,70833","12,5","0","4,3","313,2","28,2","52,5"],
    [45938,"43731,75","15,1","0","5","304,2","26,8","54,9"],
    [45939,"43731,79167","16,8","0","4,5","305,4","26,3","55,1"],
    [45940,"43731,83333","12,6","0,052","1,9","240,6","26,8","51,2"],
    [45941,"43731,875","23,1","0,183","0,7","146","26,4","52,9"],
    [45942,"43731,91667","54","0,105","1,2","188,2","25,4","62,8"],
    [45943,"43731,95833","73,6","0,026","1,2","223,8","24,3","67,6"],
    [45944,"43732","47,2","0","0,9","228,2","24,1","67,7"],
    [45945,"43732,04167","36","0,026","0,9","171,7","23,8","68,8"],
    [45946,"43732,08333","41,9","0","1,4","167,1","23","69,6"],
    [45947,"43732,125","32,8","0","0,7","224,9","22,8","72,4"],
    [45948,"43732,16667","39","0","0,7","219","22,2","76,5"],
    [45949,"43732,20833","34,3","0","0,8","241,2","21,7","78,3"],
    [45950,"43732,25","28,1","0","0,9","238","21,1","78,9"],
    [45951,"43732,29167","42,6","0,052","0,7","192","21","79,3"],
    [45952,"43732,33333","68,4","0,183","0,5","107,9","23,2","74,4"],
    [45953,"43732,375","101,3","ND","1","135,9","25,4","64,5"],
    [45954,"43732,41667","109,2","ND","1,3","157","26,5","60,8"],
    [45955,"43732,45833","80,1","2,278","1,4","109,5","27,6","58,2"],
    [45956,"43732,5","67,6","3,43","1,4","125,6","29,3","52,4"],
    [45957,"43732,54167","73,2","3,063","1,5","104,3","31,3","46,3"],
    [45958,"43732,58333","73","1,754","1,8","189,1","32","44,1"],
    [45959,"43732,625","68,4","0","4,1","308,7","30,5","48,9"],
    [45960,"43732,66667","27","0","5,5","302,8","29,2","52,1"],
    [45961,"43732,70833","23,9","0","5,3","305,8","28,3","54,2"],
    [45962,"43732,75","23,7","0,026","5,1","258,4","26,9","58,1"],
    [45963,"43732,79167","64,3","0","1,9","169,4","24,4","64,5"],
    [45964,"43732,83333","47,7","0","2,3","221,2","22,4","77,9"],
    [45965,"43732,875","52,6","0","1,4","181","21,9","84,6"],
    [45966,"43732,91667","38,1","0","1,3","197,7","21,3","86,9"],
    [45967,"43732,95833","30,9","0","0,7","235,4","20,6","87,6"],
    [45968,"43733","33,1","0","0,8","224,5","20,5","88,1"],
    [45969,"43733,04167","31,2","0","0,6","194,3","19,9","88,3"],
    [45970,"43733,08333","19,8","0","1,2","224","19,6","87,4"],
    [45971,"43733,125","15","0","0,7","209,4","19,6","87"],
    [45972,"43733,16667","18,4","0","0,6","195,5","19,6","87"],
    [45973,"43733,20833","23,7","0,183","1,1","242,6","19,5","87,9"],
    [45974,"43733,25","30,4","0","0,5","211,2","19,4","87,8"],
    [45975,"43733,29167","62,3","0,026","0,6","129,1","20,4","87,3"],
    [45976,"43733,33333","95,9","0,026","0,7","193,4","21","86,9"],
    [45977,"43733,375","106,3","0,052","1","145,9","21,8","85"],
    [45978,"43733,41667","102,6","0,026","1,4","187","22,5","80,8"],
    [45979,"43733,45833","9,6","0,34","1,5","161,6","23,5","77,1"],
    [45980,"43733,5","ND","1,1","1,4","158,7","25,5","67,3"],
    [45981,"43733,54167","ND","0,628","1,4","176,4","26,9","62,7"],
    [45982,"43733,58333","50,8","0,209","1,4","102,6","28,8","55,6"],
    [45983,"43733,625","43,8","0,419","1,8","98,4","29,4","54,8"],
    [45984,"43733,66667","52,2","1,833","2,5","138,5","28,4","57,3"],
    [45985,"43733,70833","49,7","0,079","3,9","206,8","27","61,4"],
    [45986,"43733,75","9,7","0","4,6","312,2","26","62,7"],
    [45987,"43733,79167","2","0","4,6","329,3","25,1","63,5"],
    [45988,"43733,83333","2,7","0","5,1","318,1","24,8","62,4"],
    [45989,"43733,875","4,1","0,026","2,3","151,1","25,2","61,6"],
    [45990,"43733,91667","30,1","0,079","1","69,5","24,3","64,8"],
    [45991,"43733,95833","31,3","0","1","182,8","23,5","68,4"],
    [45992,"43734","29,5","0","0,6","187,1","23,4","69,9"],
    [45993,"43734,04167","35","0","1,1","111,9","22,6","75,9"],
    [45994,"43734,08333","25,3","0","1","149,2","21,1","84,5"],
    [45995,"43734,125","15,4","0","0,7","201,4","20,6","89,8"],
    [45996,"43734,16667","10,3","0","0,6","127,4","20,4","91,7"],
    [45997,"43734,20833","8,7","0","0,6","205,7","20,2","92,4"],
    [45998,"43734,25","13,6","0,026","0,8","127","20,4","92,9"],
    [45999,"43734,29167","21","0,026","0,6","65,2","20,5","93,3"],
    [46000,"43734,33333","29,9","0,026","0,7","152,3","21,1","93"],
    [46001,"43734,375","42,7","0,079","0,8","159,3","21,9","90"],
    [46002,"43734,41667","48,7","0,262","0,9","97,7","23,7","81,3"],
    [46003,"43734,45833","53,5","0,34","1,7","92,3","25,5","69,8"],
    [46004,"43734,5","30,8","0,288","1,5","155,9","27,1","59,7"],
    [46005,"43734,54167","16,1","0,026","1,4","202,1","28,3","54,2"],
    [46006,"43734,58333","26","0,079","1,7","143,9","29,6","50,7"],
    [46007,"43734,625","37,4","0,131","1,2","149,8","30,7","47,3"],
    [46008,"43734,66667","35,8","0,157","1,2","121,6","31,5","44,9"],
    [46009,"43734,70833","33,3","1,1","1,4","133,5","31,3","44,9"],
    [46010,"43734,75","46,9","0,026","3,4","317,8","28,8","56,2"],
    [46011,"43734,79167","32,6","0","5","308,5","27","61,1"],
    [46012,"43734,83333","18,2","0","4,2","307,4","26,6","62,3"],
    [46013,"43734,875","14,8","0","4","318,6","26,3","62,7"],
    [46014,"43734,91667","12,1","0","2,6","308","25,9","63,3"],
    [46015,"43734,95833","8,8","0,026","1,4","172,7","25,7","63,1"],
    [46016,"43735","33,4","0,052","1","136,7","24,8","72"],
    [46017,"43735,04167","54,8","0","0,9","177,5","24,3","74,4"],
    [46018,"43735,08333","43","0","0,9","173,2","24","74,2"],
    [46019,"43735,125","30,1","0","1","152","23,5","78,4"],
    [46020,"43735,16667","41,9","0","1","144,6","23","82,2"],
    [46021,"43735,20833","36,4","0","0,9","157,5","22,8","84"],
    [46022,"43735,25","42,3","0","0,6","118,3","22,5","84,6"],
    [46023,"43735,29167","55,2","0,026","0,8","167,3","22,5","84,1"],
    [46024,"43735,33333","63,4","0,157","0,9","163,4","23,3","82,1"],
    [46025,"43735,375","70,1","0,131","1","148,8","24,7","75"],
    [46026,"43735,41667","59,4","0,681","1,3","142,8","26,5","67,2"],
    [46027,"43735,45833","49,3","1,178","1,4","129,1","28,3","59,1"],
    [46028,"43735,5","41,8","1,204","1,7","138,9","29,3","56,9"],
    [46029,"43735,54167","51,4","0,655","1,7","140,6","30,3","53,7"],
    [46030,"43735,58333","39,7","0,471","1,7","165,2","31,5","49,1"],
    [46031,"43735,625","42,9","0","4","317,3","31","49,2"],
    [46032,"43735,66667","19,6","0","4,7","309,1","30,4","49,9"],
    [46033,"43735,70833","25,5","0","5,9","302,5","28,8","53,8"],
    [46034,"43735,75","21,7","0","6,8","299,5","27","59,3"],
    [46035,"43735,79167","26,6","0,105","6,8","300","26,3","61,8"],
    [46036,"43735,83333","15,9","0","6,5","302,4","26,4","60,1"],
    [46037,"43735,875","12","0","5,4","296,7","26,2","61,4"],
    [46038,"43735,91667","13,3","0,026","1,9","201,2","26","64,2"],
    [46039,"43735,95833","40,6","0,026","1,3","141,1","25","69,9"],
    [46040,"43736","59,1","0,026","1,1","152,8","24,2","74,8"],
    [46041,"43736,04167","51","0","1","202,6","23,7","78,4"],
    [46042,"43736,08333","17,8","0","1,5","139","23,8","72"],
    [46043,"43736,125","25,9","0","1,6","200,3","20,9","84,8"],
    [46044,"43736,16667","7,8","0","1","176,6","20,1","90,6"],
    [46045,"43736,20833","8,9","0,026","0,9","229,5","19,9","91,9"],
    [46046,"43736,25","9,7","0","1","223","20","92,5"],
    [46047,"43736,29167","18,1","0","1,1","242,7","20,1","92,3"],
    [46048,"43736,33333","28,6","0","1,2","151,2","22,1","85,5"],
    [46049,"43736,375","36,3","0,026","1,8","148,8","24,5","73,9"],
    [46050,"43736,41667","34,7","0","1,1","178,3","26,1","66,3"],
    [46051,"43736,45833","37,3","0,052","1,6","120,7","27,8","62,4"],
    [46052,"43736,5","41","0,052","1,5","144,3","28,7","57,1"],
    [46053,"43736,54167","30,5","0,052","1,4","178,6","29,5","53,7"],
    [46054,"43736,58333","42","0,026","1,9","193,3","30,1","50,1"],
    [46055,"43736,625","12,7","0","2,9","312","30,1","49,2"],
    [46056,"43736,66667","13,6","0","5,1","319","29,6","50,9"],
    [46057,"43736,70833","13,6","0","6,2","313,8","27","57,9"],
    [46058,"43736,75","20,1","0","3,3","206,1","25,8","62,8"],
    [46059,"43736,79167","14,4","0,052","2,1","214,5","25,7","61,8"],
    [46060,"43736,83333","34,9","0,079","1,2","163,1","25","69,2"],
    [46061,"43736,875","55","0","0,9","175,6","24","75,3"],
    [46062,"43736,91667","44,9","0","1","191,5","23,4","76,7"],
    [46063,"43736,95833","52,7","0","0,9","225,4","22,5","79,2"],
    [46064,"43737","47,8","0","1","231,8","22,2","80,1"],
    [46065,"43737,04167","35,4","0","0,6","136,1","22,7","79,7"],
    [46066,"43737,08333","48,3","0","0,5","162,1","22,4","82,4"],
    [46067,"43737,125","39,2","0","0,7","238,4","21,9","85,9"],
    [46068,"43737,16667","37,1","0","0,4","179,8","21,9","85,8"],
    [46069,"43737,20833","48,6","0","0,7","168,8","21,9","85,4"],
    [46070,"43737,25","38,1","0","0,5","181,8","22","85,1"],
    [46071,"43737,29167","42,9","0","0,4","203,7","22","85,9"],
    [46072,"43737,33333","47","0","0,7","114,2","22,4","84,3"],
    [46073,"43737,375","65,9","0","1,1","113","22,2","85,1"],
    [46074,"43737,41667","53,1","1,152","0,9","169,1","22,8","86,4"],
    [46075,"43737,45833","31,9","3,09","1,4","134,2","24,8","75,2"],
    [46076,"43737,5","37,1","4,608","1,6","171,6","26,6","65,4"],
    [46077,"43737,54167","30,3","3,666","1,7","152,5","28,1","58,5"],
    [46078,"43737,58333","25,7","0,733","2,1","255,3","28","57,9"],
    [46079,"43737,625","10,7","0,052","4,4","322,4","28,5","55,6"],
    [46080,"43737,66667","4,3","0","4,8","325,9","27,9","55,4"],
    [46081,"43737,70833","4,5","0","4,2","316,3","26,3","59,1"],
    [46082,"43737,75","6","0,052","4","285,2","25,2","63"],
    [46083,"43737,79167","32,7","0,052","2","183,6","23","75,3"],
    [46084,"43737,83333","34,6","0,026","1,1","228,4","22","82,5"],
    [46085,"43737,875","30,6","0,026","0,9","209,7","21,4","88,6"],
    [46086,"43737,91667","22,6","0,026","0,9","107,6","21,3","90,9"],
    [46087,"43737,95833","19,9","0","0,8","218,2","21","92,4"],
    [46088,"43738","15,4","0","0,7","142,1","20,8","92,9"],
    [46089,"43738,04167","16","0","1,2","81,4","20","93,3"],
    [46090,"43738,08333","6,7","0","0,3","96,7","19,6","93,7"],
    [46091,"43738,125","12","0","0,4","117,4","20","93,9"],
    [46092,"43738,16667","18,4","0","0,2","88,4","20,2","93,9"],
    [46093,"43738,20833","21,2","0","0,5","170,6","20,3","93,7"],
    [46094,"43738,25","34,1","0","0,8","216,2","20,1","93,4"],
    [46095,"43738,29167","38","0,026","0,6","147,7","20,5","92,6"],
    [46096,"43738,33333","60,6","0,052","0,8","92","21,5","90,1"],
    [46097,"43738,375","56,8","0,052","1,1","190,8","22,4","84,6"],
    [46098,"43738,41667","38,9","0","1,1","204,5","23,8","77,4"],
    [46099,"43738,45833","46","0,026","1,2","127","26,2","66,7"],
    [46100,"43738,5","38,4","0,052","1,4","141,3","28,1","56,9"],
    [46101,"43738,54167","39,4","0,445","1,9","80,1","29,3","53"],
    [46102,"43738,58333","36,9","0,471","2,8","186,9","30,7","49,6"],
    [46103,"43738,625","32,8","0","5,3","310,3","29,1","53,6"],
    [46104,"43738,66667","11,1","0","6,3","307,9","27,4","57,2"],
    [46105,"43738,70833","7,7","0","3,4","267,1","24,8","68,3"],
    [46106,"43738,75","41,5","0,026","0,9","164,3","22,6","84,1"],
    [46107,"43738,79167","16,3","0","1,2","165,4","22,4","84"],
    [46108,"43738,83333","29,8","0,026","1,1","171,1","21,9","85"],
    [46109,"43738,875","30,1","0","0,8","185,2","21,8","84,4"],
    [46110,"43738,91667","39,9","0","0,8","198,1","21,8","85,8"],
    [46111,"43738,95833","38,3","0","0,4","161,2","21,8","86,4"],
    [46112,"43739","32,1","0","1","159,7","21,6","87,8"],
    [46113,"43739,04167","23,8","0","0,8","175,2","20,9","90,7"],
    [46114,"43739,08333","10,7","0","1,3","130,5","19,5","93,8"],
    [46115,"43739,125","ND","0","1,5","97,1","18,4","95,4"],
    [46116,"43739,16667","ND","0","0,7","130,5","17,9","96"],
    [46117,"43739,20833","3,7","0,052","1","269,3","17,9","96,3"],
    [46118,"43739,25","5,8","0,079","0,7","208,1","18,1","96,3"],
    [46119,"43739,29167","13,3","0,026","0,9","183,7","18,5","96"],
    [46120,"43739,33333","23,1","0,026","1,2","139,7","18,6","95,6"],
    [46121,"43739,375","19,2","0,026","1,3","164,7","18,8","95"],
    [46122,"43739,41667","23,7","0,026","1","226,9","20","92,9"],
    [46123,"43739,45833","21","0","1,3","215,9","22,1","83,4"],
    [46124,"43739,5","12,6","0","1,3","143,9","24,5","67,7"],
    [46125,"43739,54167","15","0,026","1,5","144,2","26,3","58,6"],
    [46126,"43739,58333","34,7","0,052","1,3","130,2","27,2","55,9"],
    [46127,"43739,625","36,4","0,183","1,6","152,2","28,1","54,6"],
    [46128,"43739,66667","38,3","0,628","2,1","114,3","28,4","52,7"],
    [46129,"43739,70833","37,5","0,419","1,5","122,7","27,9","53,9"],
    [46130,"43739,75","38,4","0,105","1","179,2","26,7","58,8"],
    [46131,"43739,79167","67,2","0","1,4","250,2","24,4","70,1"],
    [46132,"43739,83333","64,2","0","1,5","250,2","23,6","73,4"],
    [46133,"43739,875","58,3","0","1,5","253,8","22,9","75,2"],
    [46134,"43739,91667","43,9","0","1,1","238,2","22,8","74,4"],
    [46135,"43739,95833","42,5","0","0,4","162,3","23","74,5"],
    [46136,"43740","55,3","0","0,9","214,2","22,9","76,5"],
    [46137,"43740,04167","47,7","0","1","244,3","22,5","77,7"],
    [46138,"43740,08333","31,6","0","0,6","159,9","22,6","78,9"],
    [46139,"43740,125","37,4","0","0,7","229,5","21,8","81,7"],
    [46140,"43740,16667","29,3","0","0,6","191,8","21,7","83,4"],
    [46141,"43740,20833","35,1","0,759","0,5","200","21,7","84,4"],
    [46142,"43740,25","49,3","0,602","0,7","229,1","21,6","84,6"],
    [46143,"43740,29167","64,9","0,157","0,6","218,7","21,6","84,4"],
    [46144,"43740,33333","85,3","0,105","0,9","118,7","22,5","83,1"],
    [46145,"43740,375","78,9","0,052","1,3","135,3","22,8","83,9"],
    [46146,"43740,41667","55,7","0","1","111,2","23,8","81,1"],
    [46147,"43740,45833","33,9","0","1,4","113,5","25,7","70,9"],
    [46148,"43740,5","33,5","0,052","1,6","145,3","27,1","64,5"],
    [46149,"43740,54167","29","0,105","1,7","132,5","28,1","60,4"],
    [46150,"43740,58333","36,4","0,026","2","269,9","26,8","61,6"],
    [46151,"43740,625","23,3","0","2,2","322,3","23,5","74,9"],
    [46152,"43740,66667","12,7","0","2,4","322,2","23,8","75,3"],
    [46153,"43740,70833","4,8","0","3","315,2","24,7","69,3"],
    [46154,"43740,75","8,9","0","2,4","277,5","25","66,6"],
    [46155,"43740,79167","22,6","0","2,4","289,1","24,2","67,4"],
    [46156,"43740,83333","17,2","0","1,2","225,7","23,2","72,5"],
    [46157,"43740,875","47,5","0","0,8","210,8","22,3","80,4"],
    [46158,"43740,91667","49,4","0,026","0,6","229,2","22,2","82,7"],
    [46159,"43740,95833","51,8","0","0,7","241,7","22","84,9"],
    [46160,"43741","45,2","0","0,7","131,6","21,7","87,3"],
    [46161,"43741,04167","33","0","0,7","103,5","21,1","89,9"],
    [46162,"43741,08333","20,2","0","0,4","120,6","21,1","91,6"],
    [46163,"43741,125","19,1","0","0,4","120,1","21","92,7"],
    [46164,"43741,16667","19,7","0","0,5","63,5","20,9","93,7"],
    [46165,"43741,20833","16,4","0,026","0,2","64,7","20,9","94,4"],
    [46166,"43741,25","23","0,052","0,4","193,3","20,9","94,8"],
    [46167,"43741,29167","31,4","0,052","0,2","116,3","20,6","95,2"],
    [46168,"43741,33333","31,9","0,079","0,7","189,6","20,6","95,2"],
    [46169,"43741,375","28,8","0,079","0,7","182","21,1","94,9"],
    [46170,"43741,41667","36,7","0,236","1,3","92,7","21,6","94,3"],
    [46171,"43741,45833","29,8","0,026","1,1","146","22","91,7"],
    [46172,"43741,5","23,8","0,026","1,1","186,9","23,1","86,1"],
    [46173,"43741,54167","28,4","0","1","107,7","25,5","72,5"],
    [46174,"43741,58333","23,2","0","1,3","109,3","26,4","65,6"],
    [46175,"43741,625","32,7","0,052","1,8","138,2","26,9","63"],
    [46176,"43741,66667","37,7","0,183","1,7","95,1","26,5","62,9"],
    [46177,"43741,70833","26,1","0,026","2,3","307,8","26,5","60,2"],
    [46178,"43741,75","20,9","0","2,5","318,1","25,3","63,1"],
    [46179,"43741,79167","20,5","0","1,4","219,8","24,1","69"],
    [46180,"43741,83333","48,5","0","1,3","232,7","22,8","76,6"],
    [46181,"43741,875","47,3","0","1,3","257,6","22,2","78,4"],
    [46182,"43741,91667","39,5","0","1,2","252,4","21,9","79,7"],
    [46183,"43741,95833","42,7","0,157","0,6","166,2","22,1","79,5"],
    [46184,"43742","59,6","0","0,6","213,9","21,8","80,4"],
    [46185,"43742,04167","44,4","0","0,6","214","21,3","83,3"],
    [46186,"43742,08333","38,7","0","0,6","222,3","20,9","85,4"],
    [46187,"43742,125","27,1","0","0,6","202,6","21","85,6"],
    [46188,"43742,16667","28,5","0","0,4","112,8","21,2","85,7"],
    [46189,"43742,20833","35,7","0,052","0,5","213,7","21,1","86,9"],
    [46190,"43742,25","40,7","0","0,6","209,6","20,9","88,3"],
    [46191,"43742,29167","61,9","0,052","0,6","175,4","20,8","89,2"],
    [46192,"43742,33333","86,8","0,052","0,6","167,4","22,1","85,8"],
    [46193,"43742,375","83,9","0,89","1,2","110,8","24","76,8"],
    [46194,"43742,41667","81,4","0,759","1,6","117,1","25,7","68,6"],
    [46195,"43742,45833","64,9","0,628","1,4","99,9","26,9","63,7"],
    [46196,"43742,5","44","1,519","1,3","139,6","28","58,8"],
    [46197,"43742,54167","51,5","1,885","1,4","123,5","28,6","57,1"],
    [46198,"43742,58333","57,4","1,1","1,5","86,3","29,3","55,7"],
    [46199,"43742,625","64,2","0,943","1,5","102,3","30,1","52,6"],
    [46200,"43742,66667","80,8","0,262","2,8","243,6","29,2","54,3"],
    [46201,"43742,70833","40,2","0","4,2","316,5","27,8","56,8"],
    [46202,"43742,75","20,1","0","4,7","306","26,5","59,1"],
    [46203,"43742,79167","20,8","0","4,8","303,1","25,6","61,3"],
    [46204,"43742,83333","19","0,026","3","282,8","25,8","59,7"],
    [46205,"43742,875","19,5","0,079","0,8","159,1","25,5","61,5"],
    [46206,"43742,91667","49,8","0,052","0,8","177,7","24,9","66,4"],
    [46207,"43742,95833","76,8","0,026","0,6","208","23,6","73,6"],
    [46208,"43743","54,1","0","0,7","218,1","22,7","76,1"],
    [46209,"43743,04167","45,6","0","0,4","187,1","22,1","79,7"],
    [46210,"43743,08333","46,7","0","0,7","237,7","21,2","83,1"],
    [46211,"43743,125","37,4","0","1,1","232","21,2","84,8"],
    [46212,"43743,16667","39,4","0","0,6","205,3","21","85,6"],
    [46213,"43743,20833","38,2","0","1,1","246,7","21,2","85,4"],
    [46214,"43743,25","32,6","0","0,7","160","21,2","83,8"],
    [46215,"43743,29167","49,3","0,026","0,5","172,8","21,7","84,7"],
    [46216,"43743,33333","81,1","0,026","0,7","205,9","22,6","82,1"],
    [46217,"43743,375","62,4","0,393","1","110","24,6","70,9"],
    [46218,"43743,41667","57,8","1,047","1","152,3","26,2","65"],
    [46219,"43743,45833","58,1","0,419","1,4","204","26,7","60,6"],
    [46220,"43743,5","32,4","0,052","1,5","235,1","27,5","55,1"],
    [46221,"43743,54167","22,1","0","2,3","258,7","28,6","50,8"],
    [46222,"43743,58333","13,7","0,026","2,4","224","29,5","48,7"],
    [46223,"43743,625","23,5","0","4,3","321,8","29","50,7"],
    [46224,"43743,66667","13,6","0","4,1","320,1","28,3","51,7"],
    [46225,"43743,70833","20,6","0","3,6","316,3","27,6","55,2"],
    [46226,"43743,75","20,6","0","4,1","316,8","25,9","60,3"],
    [46227,"43743,79167","18,4","0","3,8","310,2","25,4","60,9"],
    [46228,"43743,83333","18,2","0,079","1","221,9","25,1","62,7"],
    [46229,"43743,875","34,3","0","0,7","204,6","24,3","65,7"],
    [46230,"43743,91667","38,1","0","0,7","228,6","23,3","70"],
    [46231,"43743,95833","45,8","0","1","245,8","22,7","72,9"],
    [46232,"43744","41,7","0","0,6","212,9","22,7","73,6"],
    [46233,"43744,04167","38","0","0,8","240,6","22,8","74,7"],
    [46234,"43744,08333","37,7","0","0,8","183,3","22,8","76,2"],
    [46235,"43744,125","33,5","0","0,7","179,4","22,1","78,9"],
    [46236,"43744,16667","35,5","0","0,9","215,8","21,8","80,5"],
    [46237,"43744,20833","28,8","0","0,5","154,1","22","81,3"],
    [46238,"43744,25","35,8","0","0,6","195,7","22,1","81,8"],
    [46239,"43744,29167","44,6","0","0,5","227,2","22","82"],
    [46240,"43744,33333","41,6","0","0,6","98,1","22,7","81,1"],
    [46241,"43744,375","53","0","1","104,6","23,3","79,2"],
    [46242,"43744,41667","62,9","0,052","1,1","139,9","24,1","75,4"],
    [46243,"43744,45833","48,1","0,785","1","95,1","25,8","69"],
    [46244,"43744,5","42,4","0,812","1,4","140,5","27,3","60,8"],
    [46245,"43744,54167","13,8","0,471","1,4","147,7","29","53,6"],
    [46246,"43744,58333","26,5","0,026","2,8","268,2","29","51,7"],
    [46247,"43744,625","15,3","0,026","3,7","313,6","28,5","52,5"],
    [46248,"43744,66667","12,9","0","4,4","323,9","29,3","51,1"],
    [46249,"43744,70833","26","0,026","4,1","310,9","27,3","56,1"],
    [46250,"43744,75","13,4","0","4","309,6","26,2","59,6"],
    [46251,"43744,79167","16,3","0","1","227,2","26","62,8"],
    [46252,"43744,83333","36,3","0,026","0,9","156,4","25,3","65,5"],
    [46253,"43744,875","31,7","0","0,8","222,5","24,9","69,2"],
    [46254,"43744,91667","22,8","0,026","0,8","226,9","24,2","70,2"],
    [46255,"43744,95833","26,2","0","0,6","126,3","23,7","74,4"],
    [46256,"43745","42,8","0","0,8","62,9","23,1","79,2"],
    [46257,"43745,04167","39,8","0","0,7","104,3","22,8","80,2"],
    [46258,"43745,08333","34,9","0","0,7","198,2","22,5","81,2"],
    [46259,"43745,125","27,5","0","0,9","160,1","22,3","82,4"],
    [46260,"43745,16667","31,5","0","0,5","101,3","22,1","84,3"],
    [46261,"43745,20833","34,2","0,183","0,6","159,3","22,1","84,8"],
    [46262,"43745,25","37,7","0,052","0,8","199","21,6","88,3"],
    [46263,"43745,29167","35,6","0,052","0,7","214,4","21,6","90,8"],
    [46264,"43745,33333","17,9","0,026","0,6","140","22,1","87,3"],
    [46265,"43745,375","26,4","0,236","1","108,7","23,6","78,6"],
    [46266,"43745,41667","44","0,131","1,3","123","25,3","70,3"],
    [46267,"43745,45833","ND","ND","1,4","136,1","26,8","63,5"],
    [46268,"43745,5","ND","ND","1,1","122,1","27,9","59,3"],
    [46269,"43745,54167","ND","0,314","2","138,3","28,8","57,3"],
    [46270,"43745,58333","ND","0,445","1,6","125,6","28,9","56,6"],
    [46271,"43745,625","ND","0,105","3,1","263,2","28,6","55,5"],
    [46272,"43745,66667","9,6","0","4,2","317,6","28,5","55"],
    [46273,"43745,70833","7,8","0","4,4","308,4","27,9","54,8"],
    [46274,"43745,75","17,6","0","4","307","26,6","57,5"],
    [46275,"43745,79167","13,6","0","2,6","303,8","26,3","57"],
    [46276,"43745,83333","13,8","0,026","2","229,2","26","57,5"],
    [46277,"43745,875","23,5","0","0,8","193,9","24,9","61,9"],
    [46278,"43745,91667","39,1","0,026","0,7","195,6","23,9","66,8"],
    [46279,"43745,95833","42,1","0","0,8","198,9","23,1","71,9"],
    [46280,"43746","38,2","0","0,7","227,6","22,6","75,7"],
    [46281,"43746,04167","36,4","0","0,9","184,9","22,3","77,6"],
    [46282,"43746,08333","30,8","0","0,6","186,7","22,2","78,3"],
    [46283,"43746,125","25,2","0","0,6","222,6","22","79,5"],
    [46284,"43746,16667","24,5","0","0,4","174,7","21,9","80,5"],
    [46285,"43746,20833","32,7","0","0,7","160,2","21,8","84,4"],
    [46286,"43746,25","36,2","0,157","0,7","223,5","21,1","87,1"],
    [46287,"43746,29167","37,8","0,026","0,8","233,3","21,2","87,4"],
    [46288,"43746,33333","57,4","0,052","0,9","198,7","22,1","86"],
    [46289,"43746,375","64,3","0,209","0,9","184,1","23,3","80,4"],
    [46290,"43746,41667","60,4","0,419","1,2","193,2","24,8","72,5"],
    [46291,"43746,45833","60,5","0,89","1,1","183,2","26,5","66"],
    [46292,"43746,5","51,1","1,126","1,3","139,9","27,9","60,9"],
    [46293,"43746,54167","59,6","0,733","1,3","154,4","29,3","55,7"],
    [46294,"43746,58333","59,6","0,471","1,7","159","29,9","53,7"],
    [46295,"43746,625","55,2","0,079","3","250,6","29","55,4"],
    [46296,"43746,66667","42,2","0","3,8","319,9","27,6","57,8"],
    [46297,"43746,70833","11","0","4,7","311,7","26,7","58,7"],
    [46298,"43746,75","13,2","0","4","272,6","25,7","59,5"],
    [46299,"43746,79167","13,4","0,026","1,3","134,4","23,6","65,6"],
    [46300,"43746,83333","48,9","0,052","2,1","226,5","23,7","70,2"],
    [46301,"43746,875","36,7","0","0,9","172,4","22,7","74,2"],
    [46302,"43746,91667","25,3","0,079","0,6","199,2","22,5","78,8"],
    [46303,"43746,95833","35,7","0,026","0,6","190,1","21,9","82,1"],
    [46304,"43747","42,7","0","1,1","241","21,3","83,2"],
    [46305,"43747,04167","20,6","0","0,7","238,8","21,1","81,7"],
    [46306,"43747,08333","18,5","0","0,7","215,8","21,3","81"],
    [46307,"43747,125","15,3","0","0,8","127","21,3","80,4"],
    [46308,"43747,16667","33","0","0,8","155,1","20,8","83"],
    [46309,"43747,20833","30","0","0,6","194","19,9","85,6"],
    [46310,"43747,25","26,5","0","0,8","251","20,1","85,5"],
    [46311,"43747,29167","38,7","0,105","0,7","202,9","20,7","83,9"],
    [46312,"43747,33333","46,3","0,655","0,4","165,5","21,9","79,7"],
    [46313,"43747,375","46,8","4,242","1","176,7","23,3","72,9"],
    [46314,"43747,41667","60,1","6,65","1,3","131,6","24","72,8"],
    [46315,"43747,45833","88,5","4,058","1,4","109,8","26,1","64,3"],
    [46316,"43747,5","49,7","3,142","1,7","138,2","27,6","58,9"],
    [46317,"43747,54167","60,5","2,147","1,5","121,1","28,3","57,9"],
    [46318,"43747,58333","57,5","1,859","1,7","145,7","28,7","56,5"],
    [46319,"43747,625","57,7","1,204","1,6","188,9","29,8","53,4"],
    [46320,"43747,66667","45,7","0","3,4","320","29,8","50,1"],
    [46321,"43747,70833","18,9","0","3,7","308,9","29,1","51,5"],
    [46322,"43747,75","20,4","0","4,4","309,8","27","57,6"],
    [46323,"43747,79167","18,8","0","4,5","309","25,9","60"],
    [46324,"43747,83333","13,8","0","3,7","312,3","25,9","58,9"],
    [46325,"43747,875","14,5","0,052","1,7","243,7","25,9","59,5"],
    [46326,"43747,91667","29,2","0,026","1,5","235,7","25,4","60,5"],
    [46327,"43747,95833","20,9","0,131","1,4","183","25","64,1"],
    [46328,"43748","57,9","0,105","1,1","81,4","23,5","75,4"],
    [46329,"43748,04167","46,4","0,026","0,7","126,3","22,6","79"],
    [46330,"43748,08333","38,7","0","0,8","235,3","22,4","80,9"],
    [46331,"43748,125","37,4","0","0,8","87,7","22,4","81,6"],
    [46332,"43748,16667","45,3","0,026","0,4","143,7","22,1","84,7"],
    [46333,"43748,20833","40,3","0,026","0,4","146,5","22","85,7"],
    [46334,"43748,25","42,9","0,026","0,7","220,4","21,7","86,4"],
    [46335,"43748,29167","44,8","0","0,6","197","21,5","86,1"],
    [46336,"43748,33333","55,1","0,131","0,8","117,2","22,9","82,3"],
    [46337,"43748,375","60,9","1,283","1,1","126,1","24,7","72,7"],
    [46338,"43748,41667","46,9","1,885","1,6","138,4","26,1","66,9"],
    [46339,"43748,45833","53,9","2,723","1,5","121,6","27,1","64,4"],
    [46340,"43748,5","70,9","2,749","1,5","128,8","28","60,4"],
    [46341,"43748,54167","72,7","2,749","1,6","103,1","29,4","55,1"],
    [46342,"43748,58333","57","2,278","1,4","128,2","29,9","52"],
    [46343,"43748,625","50,5","1,676","1,6","111,3","30,1","51,1"],
    [46344,"43748,66667","54,7","1,204","1,8","106,2","29,1","53,6"],
    [46345,"43748,70833","53,8","0,026","3,5","317,4","27,1","57,7"],
    [46346,"43748,75","31,3","0,131","1,3","241,9","26,7","61,3"],
    [46347,"43748,79167","38","0,105","1,4","247,2","26,5","61,1"],
    [46348,"43748,83333","31,4","0,026","1,8","249,6","26","62,8"],
    [46349,"43748,875","24,7","0,079","1,4","137,6","25,8","63,9"],
    [46350,"43748,91667","52,7","0","1","241,8","23,5","77,6"],
    [46351,"43748,95833","43,8","0,026","0,8","138","23,7","79,9"],
    [46352,"43749","42,5","0,026","0,6","87,6","23,4","82,2"],
    [46353,"43749,04167","40,2","0","0,5","125,3","22,5","83,1"],
    [46354,"43749,08333","20,7","0","0,7","167,6","22,5","83,1"],
    [46355,"43749,125","24,2","0","0,8","155,8","22,5","83,5"],
    [46356,"43749,16667","26,6","0","0,9","154,5","22","84,8"],
    [46357,"43749,20833","24,9","0","0,8","178,3","21,9","85,3"],
    [46358,"43749,25","30,4","0","1,1","132,7","21,8","85"],
    [46359,"43749,29167","35,2","0,105","0,9","92,2","21,9","84"],
    [46360,"43749,33333","31,3","0","0,5","211,2","22,6","81,5"],
    [46361,"43749,375","35,4","0,026","0,8","108,6","23,7","76,8"],
    [46362,"43749,41667","43","0,105","1,2","109,2","25,2","71"],
    [46363,"43749,45833","42,1","0,236","1,5","142,6","27,4","62,9"],
    [46364,"43749,5","50,9","0,655","1,8","95,5","28,8","57,3"],
    [46365,"43749,54167","50,3","0,838","1,9","107,3","29,8","52,3"],
    [46366,"43749,58333","40,9","1,309","1,3","130,5","30,4","50,8"],
    [46367,"43749,625","53,5","0,943","1,9","113,5","29,9","53,4"],
    [46368,"43749,66667","40,8","0,105","3,3","287","29","53,2"],
    [46369,"43749,70833","19,2","0","4,3","322,1","27,3","56,8"],
    [46370,"43749,75","22,2","0","4,4","318,1","26,3","60,6"],
    [46371,"43749,79167","26,8","0","5,5","298,5","25,8","61"],
    [46372,"43749,83333","12,1","0","4,2","306,1","25,6","60,6"],
    [46373,"43749,875","12,7","0,026","1,5","219,5","25,5","64,4"],
    [46374,"43749,91667","62,2","0","0,9","133,5","24,4","73,4"],
    [46375,"43749,95833","53,7","0","0,9","166,2","24","75,4"],
    [46376,"43750","48,1","0","0,9","159","23,9","75,2"],
    [46377,"43750,04167","38,1","0","0,9","102,5","23,9","75,1"],
    [46378,"43750,08333","37,9","0","1,1","101,9","23,4","76,8"],
    [46379,"43750,125","26,7","0","0,7","155,9","22,2","82,9"],
    [46380,"43750,16667","15,9","0","0,7","151,5","21,8","86,6"],
    [46381,"43750,20833","17","0","0,4","126,3","21,8","87,7"],
    [46382,"43750,25","27,1","0,052","0,5","157,2","21,8","88,3"],
    [46383,"43750,29167","38,7","0,079","0,7","190,2","21,8","88,7"],
    [46384,"43750,33333","42","0","1,1","169,6","22,6","85,3"],
    [46385,"43750,375","35,3","0,183","1,5","154,4","24,2","77,2"],
    [46386,"43750,41667","61,1","0,314","1,5","167,2","25,3","71,5"],
    [46387,"43750,45833","51,1","0,419","1,4","134,6","27,8","62,5"],
    [46388,"43750,5","39","0,288","1,6","140,3","28,8","57,6"],
    [46389,"43750,54167","41,3","0,262","1,6","165,1","29,8","53,1"],
    [46390,"43750,58333","43,2","0,393","1,6","109,3","31,6","47,6"],
    [46391,"43750,625","46,6","0,236","2,3","213,9","31,6","47,3"],
    [46392,"43750,66667","45,8","0","4,2","310,5","30,5","51,3"],
    [46393,"43750,70833","23,7","0","5,5","308,2","28,7","55,3"],
    [46394,"43750,75","27","0","6,8","301,9","26,9","60,1"],
    [46395,"43750,79167","19","0","6,4","295,6","26,5","61,5"],
    [46396,"43750,83333","18,9","0","2,5","225,6","25,3","64,8"],
    [46397,"43750,875","34,8","0","1,7","218,1","22,9","76,5"],
    [46398,"43750,91667","29,4","0","0,5","194,2","21,8","84,6"],
    [46399,"43750,95833","24,6","0","0,8","164,7","21,7","87,2"],
    [46400,"43751","23,4","0","0,7","154,4","21,8","89,2"],
    [46401,"43751,04167","22,6","0","0,8","233","21,3","90,8"],
    [46402,"43751,08333","14,3","0","0,6","185,1","21,4","91,1"],
    [46403,"43751,125","22,4","0","0,8","129,5","21,3","91"],
    [46404,"43751,16667","7,5","0","1","86,8","20,5","91,8"],
    [46405,"43751,20833","15,8","0,026","1,7","150,1","20,1","93,9"],
    [46406,"43751,25","13,4","0","1,6","147,4","19,6","97,7"],
    [46407,"43751,29167","14,2","0","0,7","127,1","19,4","97,7"],
    [46408,"43751,33333","16,8","0","0,6","192,1","19,8","97,6"],
    [46409,"43751,375","15,7","0","0,7","151,2","21,1","95,5"],
    [46410,"43751,41667","6,9","0","1,2","180,1","21,7","89,8"],
    [46411,"43751,45833","18,2","0","1,3","163,7","23,7","79,2"],
    [46412,"43751,5","7,1","0","1,7","146,5","26,3","65,6"],
    [46413,"43751,54167","15,9","0,209","1,3","145,5","27,7","61,5"],
    [46414,"43751,58333","16,8","0","1,4","130,4","29,1","56"],
    [46415,"43751,625","18,2","0","1,8","95,9","30,2","52,8"],
    [46416,"43751,66667","26,3","0,026","2,4","213,9","29,1","53,6"],
    [46417,"43751,70833","16,4","0","3,8","315,4","27","57,5"],
    [46418,"43751,75","14,3","0","3,5","314,4","26","60,3"],
    [46419,"43751,79167","17,1","0","5","305,1","24,9","64,2"],
    [46420,"43751,83333","17,9","0","4","302","24,9","63,7"],
    [46421,"43751,875","15,6","0","0,9","191,2","25","63,5"],
    [46422,"43751,91667","26,4","0,026","1","174,9","24,4","68,2"],
    [46423,"43751,95833","48,9","0","0,8","172,6","23,1","76,3"],
    [46424,"43752","41,1","0","0,6","213,7","22,5","80,6"],
    [46425,"43752,04167","35,8","0","0,5","179,6","22,3","82,2"],
    [46426,"43752,08333","33,1","0","1,1","159,5","22,3","81,8"],
    [46427,"43752,125","20,6","0","0,7","144,9","22,2","81,4"],
    [46428,"43752,16667","20,9","0","1,1","117,3","21,6","82,1"],
    [46429,"43752,20833","25","0","0,5","93,8","21,4","83,8"],
    [46430,"43752,25","27,4","0","0,5","119,5","21,5","84,3"],
    [46431,"43752,29167","33,7","0","0,7","193,5","21,6","85"],
    [46432,"43752,33333","34,3","0,157","0,8","209,9","22,6","82,3"],
    [46433,"43752,375","39,3","1,492","1,1","173,3","24,7","73,1"],
    [46434,"43752,41667","32,6","2,304","1,4","114,3","26,3","64,8"],
    [46435,"43752,45833","33,7","1,833","1,5","123,4","27,5","60,7"],
    [46436,"43752,5","36,3","1,414","1,6","118,3","28,8","56,7"],
    [46437,"43752,54167","34,3","3,509","1,6","91,7","29,8","53,8"],
    [46438,"43752,58333","40,4","4,765","1,6","109,1","30,1","52,6"],
    [46439,"43752,625","35,8","0,262","3,6","314,3","29,1","53,2"],
    [46440,"43752,66667","10,6","0","3,8","313,7","29,1","51,7"],
    [46441,"43752,70833","7,9","0","4","312,5","28","53,9"],
    [46442,"43752,75","12,8","0","4,4","308,1","26,6","57,8"],
    [46443,"43752,79167","18,6","0","4,6","304,5","26,2","58,3"],
    [46444,"43752,83333","17,1","0","4,5","304,1","26,1","58,9"],
    [46445,"43752,875","18,8","0","4,2","310,5","25,8","60,1"],
    [46446,"43752,91667","19,3","0","3,1","285,1","25,6","60,7"],
    [46447,"43752,95833","14,6","0","0,9","170,2","24,6","67"],
    [46448,"43753","47,4","0","0,7","162,8","23,1","76,4"],
    [46449,"43753,04167","31,8","0","0,7","230,5","21,7","80"],
    [46450,"43753,08333","22,5","0","0,6","214,7","21,1","82"],
    [46451,"43753,125","21,6","0","0,7","221,2","21","82,8"],
    [46452,"43753,16667","24,7","0","0,7","230,2","21","83,6"],
    [46453,"43753,20833","32,5","0","0,8","247,4","20,9","84,3"],
    [46454,"43753,25","29,7","0","0,7","226,6","21,3","83,3"],
    [46455,"43753,29167","43,4","0,052","0,6","228,7","21,7","83,1"],
    [46456,"43753,33333","53,3","0,367","0,9","118,2","23,3","78,1"],
    [46457,"43753,375","66,7","1,152","1,5","141","24,6","71,2"],
    [46458,"43753,41667","74,5","4,792","2,6","150,6","25,7","66,9"],
    [46459,"43753,45833","55,6","3,823","1,6","119,9","27,4","61"],
    [46460,"43753,5","41,2","3,744","1,9","150,1","28,3","58,5"],
    [46461,"43753,54167","47,2","2,906","1,4","124","29","55,7"],
    [46462,"43753,58333","43,3","0,419","3,1","259,9","29","52,9"],
    [46463,"43753,625","22,3","0","5,9","323,8","27,2","55,9"],
    [46464,"43753,66667","3,9","0","6,1","321,9","26,3","54,8"],
    [46465,"43753,70833","5,5","0","4,9","311,6","26,3","52,7"],
    [46466,"43753,75","21,7","0,602","1,3","134,6","25,6","58,8"],
    [46467,"43753,79167","35,5","0,236","1,5","145,7","24,4","63,8"],
    [46468,"43753,83333","55","0,445","0,9","167,3","23,5","71,7"],
    [46469,"43753,875","63,2","0,105","0,9","222,2","22,9","73,7"],
    [46470,"43753,91667","43,3","0,026","0,7","216,5","23","71,7"],
    [46471,"43753,95833","32,8","0,157","1,3","188","23,3","68,5"],
    [46472,"43754","45,9","0,157","0,7","112,8","22,5","78,1"],
    [46473,"43754,04167","46","0","0,5","137,7","22,1","81,5"],
    [46474,"43754,08333","29,5","0","1,1","203,5","21,8","81,5"],
    [46475,"43754,125","28,5","0","0,5","95","21,9","81,6"],
    [46476,"43754,16667","36,2","0","0,7","91,3","21,6","83,5"],
    [46477,"43754,20833","38,7","0,052","0,8","159,6","21,3","85,9"],
    [46478,"43754,25","42,3","0,052","0,7","136,9","21,1","86,9"],
    [46479,"43754,29167","53,1","0","0,6","100,8","21,4","86,7"],
    [46480,"43754,33333","53,9","0,183","1,1","128,4","22,5","83,4"],
    [46481,"43754,375","58,1","0,157","1,2","132,8","23,4","79,1"],
    [46482,"43754,41667","35,4","0,183","1","110,7","24,9","71,4"],
    [46483,"43754,45833","47,6","0,183","1,4","145","26,6","65,5"],
    [46484,"43754,5","45,6","0,157","1,3","124,4","27,5","61"],
    [46485,"43754,54167","42,3","0,157","1,2","157,4","28","58,4"],
    [46486,"43754,58333","46,5","0,34","1,5","124,1","29,4","53,8"],
    [46487,"43754,625","53,7","0,052","3,2","286","29,2","51,1"],
    [46488,"43754,66667","4,8","0","3,8","317,7","27,7","52,2"],
    [46489,"43754,70833","19,2","0","3,5","234,5","21,8","78,7"],
    [46490,"43754,75","48,7","0","0,9","209,2","19,4","97,3"],
    [46491,"43754,79167","33,6","0,105","0,9","202,8","20","96,9"],
    [46492,"43754,83333","24,5","0","1,1","223,8","19,8","95,5"],
    [46493,"43754,875","32,5","0,026","0,7","232,2","19,8","94,4"],
    [46494,"43754,91667","48,3","0,026","0,5","200,7","19,8","93,7"],
    [46495,"43754,95833","55,5","0","0,8","236,8","19,4","93,5"],
    [46496,"43755","33,2","0","1","245","19,3","93"],
    [46497,"43755,04167","28,3","0","0,8","215,8","19,3","92,4"],
    [46498,"43755,08333","21","0","0,6","231,5","19,3","92,1"],
    [46499,"43755,125","23,9","0","0,6","197,1","19,2","92,1"],
    [46500,"43755,16667","18","0","1","247,7","19,1","91,8"],
    [46501,"43755,20833","18,3","0","0,6","217","19,5","91"],
    [46502,"43755,25","33,5","0","0,5","218,9","19,9","90,4"],
    [46503,"43755,29167","58,2","0,079","0,6","213,9","20,1","90,2"],
    [46504,"43755,33333","79,6","0,026","0,5","174,5","20,8","88,9"],
    [46505,"43755,375","75","0,576","1,1","98,2","22,5","83,7"],
    [46506,"43755,41667","100","1,466","0,8","138,8","24,1","76,6"],
    [46507,"43755,45833","82,4","1,283","1","148,8","26","67,6"],
    [46508,"43755,5","59,9","1,047","1,3","116,5","28","59,7"],
    [46509,"43755,54167","42,4","0,628","1,4","126,4","29,1","54,1"],
    [46510,"43755,58333","38,8","0,576","1,7","131,8","29,9","51,9"],
    [46511,"43755,625","51,8","0,707","1,6","103,6","30,6","50,4"],
    [46512,"43755,66667","45,8","0","4,1","315,3","29,6","51,5"],
    [46513,"43755,70833","21,6","0","5,4","324,2","28","56,7"],
    [46514,"43755,75","17,9","0","5","307,6","25,8","63"],
    [46515,"43755,79167","13,8","0","4,7","307,4","25,4","63,5"],
    [46516,"43755,83333","13,1","0","2,7","237,9","25,3","64,3"],
    [46517,"43755,875","38,3","0,052","0,6","123,3","24,4","69,7"],
    [46518,"43755,91667","42","0,079","0,7","175,5","23,8","71,8"],
    [46519,"43755,95833","47,3","0","0,8","219,6","23","75,1"],
    [46520,"43756","36,8","0,026","0,6","102,7","22,8","78,5"],
    [46521,"43756,04167","55,7","0","0,7","214,7","22,2","82,1"],
    [46522,"43756,08333","28,3","0","0,6","125,7","22,4","82,4"],
    [46523,"43756,125","35,5","0","0,9","70,6","21,9","84,9"],
    [46524,"43756,16667","33,3","0","0,9","132,9","21,3","89,4"],
    [46525,"43756,20833","28,2","0","1,6","169,7","20,6","91,6"],
    [46526,"43756,25","2,3","0","0,9","200,7","20,1","92,3"],
    [46527,"43756,29167","8,1","0,079","1,2","159,4","20","92,8"],
    [46528,"43756,33333","15,1","0,026","1,2","117,8","19,9","93,4"],
    [46529,"43756,375","12,3","0,052","0,9","157","20,8","92,2"],
    [46530,"43756,41667","29,1","0,026","0,9","102,9","23,5","84,2"],
    [46531,"43756,45833","13,4","0,026","1,5","86,9","25,5","66,6"],
    [46532,"43756,5","17,8","0","1,6","112,9","27,4","57,2"],
    [46533,"43756,54167","24,8","0,026","1,5","171","28,2","54,6"],
    [46534,"43756,58333","23,1","0,105","1,4","166,3","29","51,9"],
    [46535,"43756,625","30,3","0,183","1,4","174,9","29,9","49,8"],
    [46536,"43756,66667","49,1","0","3,6","314,1","28,2","55"],
    [46537,"43756,70833","20,5","0","4,4","321,2","26,5","57,7"],
    [46538,"43756,75","5,6","0","3,6","318,9","25,8","58,8"],
    [46539,"43756,79167","20","0,079","1,5","223,4","25,6","62,1"],
    [46540,"43756,83333","50,6","0,079","1,5","138,3","24,4","70,1"],
    [46541,"43756,875","44,1","0,052","1,4","128,4","23,5","74,9"],
    [46542,"43756,91667","39,3","0","1,7","143,4","22,7","79,5"],
    [46543,"43756,95833","29,1","0","1,1","193,9","21,4","84,3"],
    [46544,"43757","23,3","0","0,9","196,4","20,6","89,9"],
    [46545,"43757,04167","6,4","0","0,6","132,7","20,5","91,8"],
    [46546,"43757,08333","3,1","0","0,6","57,5","20,4","93"],
    [46547,"43757,125","6,8","0","0,9","81,9","20,1","94,2"],
    [46548,"43757,16667","4,7","0","0,8","93,5","20,1","95,1"],
    [46549,"43757,20833","7,5","0","0,7","117,3","20,1","95,5"],
    [46550,"43757,25","10,4","0,052","0,7","88,4","20,2","95,6"],
    [46551,"43757,29167","17,5","0,026","1,1","89,6","20,1","95,3"],
    [46552,"43757,33333","22,2","0,026","0,6","131,2","20,5","94,7"],
    [46553,"43757,375","26,6","0,079","0,8","106,5","21,8","90,7"],
    [46554,"43757,41667","23,6","0,393","1,1","160,9","23,7","79,3"],
    [46555,"43757,45833","25,6","0,34","1,3","140,9","25,2","69,1"],
    [46556,"43757,5","31,9","0,262","1,2","155,8","26,4","64"],
    [46557,"43757,54167","42,5","0,157","1,7","175,5","27,6","60,8"],
    [46558,"43757,58333","45","0,262","2","169,6","27,9","58,6"],
    [46559,"43757,625","54,6","0,026","3","246,9","28,6","55,3"],
    [46560,"43757,66667","27,4","0","4,2","318,4","27,8","56,2"],
    [46561,"43757,70833","22,9","0","3,6","323,6","26,3","60,4"],
    [46562,"43757,75","18,2","0","2,9","261,1","25,2","62,5"],
    [46563,"43757,79167","21,7","0","1,6","151,7","23,3","70,6"],
    [46564,"43757,83333","33,4","0,026","1,1","157,2","23","75,2"],
    [46565,"43757,875","42,5","0","1,3","126,9","21,6","82,5"],
    [46566,"43757,91667","29,4","0","1","113,5","20,7","87,4"],
    [46567,"43757,95833","23,6","0","0,5","141,7","20,5","91,1"],
    [46568,"43758","18,4","0","0,4","105","20,4","92,8"],
    [46569,"43758,04167","9,7","0","0,3","156,9","20,6","93,5"],
    [46570,"43758,08333","13,4","0","0,6","86,8","20,4","94,1"],
    [46571,"43758,125","10,3","0","0,9","114,1","20,1","94,6"],
    [46572,"43758,16667","7,6","0","0,4","93,9","20,1","94,9"],
    [46573,"43758,20833","13,4","0","0,4","150,7","20,3","95"],
    [46574,"43758,25","15,9","0,026","0,6","92,3","20,4","94,9"],
    [46575,"43758,29167","19,1","0","0,9","120,5","20,3","94,5"],
    [46576,"43758,33333","23","0","0,8","200,7","20,4","94,6"],
    [46577,"43758,375","24","0,026","0,6","180,2","21,4","92,7"],
    [46578,"43758,41667","15,2","0,131","0,7","135,2","22,9","87,1"],
    [46579,"43758,45833","7,3","2,566","1,3","159,9","25,1","72,7"],
    [46580,"43758,5","27,4","2,514","1,4","148,1","26,7","64,3"],
    [46581,"43758,54167","19,2","0,916","1,5","92,7","27,8","58"],
    [46582,"43758,58333","17,2","0,209","1,5","138,9","28,7","55,5"],
    [46583,"43758,625","19,8","0,471","1,5","163,2","28,3","57,1"],
    [46584,"43758,66667","25,5","0,707","1,3","137","27,7","60,6"],
    [46585,"43758,70833","39,2","0,707","1,6","164,5","26,4","65,6"],
    [46586,"43758,75","27,3","0,183","1,5","249,3","25,8","65,9"],
    [46587,"43758,79167","22,1","0,026","1,6","261,6","24,7","66,8"],
    [46588,"43758,83333","21,6","0,052","1","213,8","24,4","69,5"],
    [46589,"43758,875","28,6","0,026","1,3","232,2","23,8","69,8"],
    [46590,"43758,91667","31,2","0","0,7","195,8","22,3","80"],
    [46591,"43758,95833","25,2","0","0,9","225,3","22","86"],
    [46592,"43759","30,7","0","0,6","197,4","22","87,8"],
    [46593,"43759,04167","24,9","0","0,8","239,5","21,6","88,1"],
    [46594,"43759,08333","27,4","0","0,5","201,4","21,5","87,8"],
    [46595,"43759,125","22","0","0,6","225,4","21,4","88,3"],
    [46596,"43759,16667","23","0","0,4","174,9","21,3","89"],
    [46597,"43759,20833","26,8","0","0,5","212","21,2","89,6"],
    [46598,"43759,25","33,1","0,026","0,4","187,3","21,4","89,7"],
    [46599,"43759,29167","55,9","0,026","0,6","221,7","21,6","89,4"],
    [46600,"43759,33333","65,3","0,209","0,9","152,6","22,2","88,1"],
    [46601,"43759,375","62,7","0,079","1,1","108,2","23,3","83,6"],
    [46602,"43759,41667","55,5","0,052","1,3","104,8","25","74,9"],
    [46603,"43759,45833","45,4","0,079","1,4","184,6","25,2","69,7"],
    [46604,"43759,5","31,6","0,026","1,9","244,2","26,8","60,7"],
    [46605,"43759,54167","3,4","0","3,9","315,4","26,7","58,6"],
    [46606,"43759,58333","3,3","0","4,2","315,7","27,7","54,8"],
    [46607,"43759,625","4,9","0","5","306,5","27,1","53,6"],
    [46608,"43759,66667","ND","0","4,5","308","27,1","50,1"],
    [46609,"43759,70833","10,4","0","4,3","311,1","26,7","47,9"],
    [46610,"43759,75","ND","0","2","216,2","25,5","59"],
    [46611,"43759,79167","76,4","0,026","1,1","200,9","23,7","73,9"],
    [46612,"43759,83333","42,6","0","1,1","230,6","22,8","76,1"],
    [46613,"43759,875","35,6","0,026","1,1","233,7","22,3","76"],
    [46614,"43759,91667","29","0","1,4","249,4","22","76,9"],
    [46615,"43759,95833","32","0","1,2","196,6","22","77,9"],
    [46616,"43760","21,5","0","0,8","162,4","22,2","77"],
    [46617,"43760,04167","34,3","0","1,2","185,5","21,5","81"],
    [46618,"43760,08333","26,5","0","0,7","184,8","21,4","82,7"],
    [46619,"43760,125","28,7","0","1","208,4","21,3","83,1"],
    [46620,"43760,16667","21,3","0","0,7","220,1","20,6","84,8"],
    [46621,"43760,20833","15,1","0,026","0,7","159,2","20,5","86,2"],
    [46622,"43760,25","24,8","0,052","0,6","202,7","20,4","86,9"],
    [46623,"43760,29167","39,3","0,026","1,1","238,7","20,5","86,6"],
    [46624,"43760,33333","32,7","0,079","1","157,7","21,9","82,5"],
    [46625,"43760,375","38,1","0,262","1,6","134,7","23,3","76,7"],
    [46626,"43760,41667","48,3","0,209","1,3","167,2","24,6","70,8"],
    [46627,"43760,45833","35","0,105","1,2","202,1","26,2","64,5"],
    [46628,"43760,5","32,2","0,419","1,4","123,6","27,1","58,9"],
    [46629,"43760,54167","48,1","1,492","1,8","135,1","28,1","56,7"],
    [46630,"43760,58333","51,3","1,126","1,5","174,1","28","55,8"],
    [46631,"43760,625","31,4","0,314","2,5","235,3","29,2","51,5"],
    [46632,"43760,66667","8,7","0,026","3,1","287,1","29","50,9"],
    [46633,"43760,70833","11","0,131","3","256,4","27,3","56,8"],
    [46634,"43760,75","56,6","0,314","1,5","146,8","24,4","71,3"],
    [46635,"43760,79167","67,1","0,079","1,2","122,8","22,9","79,9"],
    [46636,"43760,83333","44,4","0,052","1,3","136,9","21,8","85,9"],
    [46637,"43760,875","28,4","0,026","1,3","125,7","21","89,4"],
    [46638,"43760,91667","25,7","0,026","0,9","207,3","20,5","92,3"],
    [46639,"43760,95833","18,6","0","0,8","203,8","20,4","93,4"],
    [46640,"43761","12,2","0","0,5","128,9","20,4","93,7"],
    [46641,"43761,04167","9,9","0","0,7","133,2","20,4","93,6"],
    [46642,"43761,08333","10,1","0","0,8","117,8","20,5","93,8"],
    [46643,"43761,125","14,6","0","0,9","142,4","20,3","94,2"],
    [46644,"43761,16667","13,1","0","0,7","145,8","20,2","94,5"],
    [46645,"43761,20833","11,5","0","0,3","99,7","20,2","94,7"],
    [46646,"43761,25","23,1","0,026","0,8","169","20,2","94,8"],
    [46647,"43761,29167","38,3","0,052","0,3","125,7","20,2","94,6"],
    [46648,"43761,33333","ND","ND","0,8","217,2","20,4","93,7"],
    [46649,"43761,375","ND","ND","ND","ND","ND","ND"],
    [46650,"43761,41667","ND","ND","ND","ND","ND","ND"],
    [46651,"43761,45833","ND","ND","ND","ND","ND","ND"],
    [46652,"43761,5","ND","ND","ND","ND","ND","ND"],
    [46653,"43761,54167","ND","ND","ND","ND","ND","ND"],
    [46654,"43761,58333","ND","ND","ND","ND","ND","ND"],
    [46655,"43761,625","ND","ND","ND","ND","ND","ND"],
    [46656,"43761,66667","ND","ND","ND","ND","ND","ND"],
    [46657,"43761,70833","ND","ND","ND","ND","ND","ND"],
    [46658,"43761,75","ND","ND","ND","ND","ND","ND"],
    [46659,"43761,79167","ND","ND","ND","ND","ND","ND"],
    [46660,"43761,83333","ND","ND","ND","ND","ND","ND"],
    [46661,"43761,875","ND","ND","ND","ND","ND","ND"],
    [46662,"43761,91667","ND","ND","ND","ND","ND","ND"],
    [46663,"43761,95833","ND","ND","ND","ND","ND","ND"],
    [46664,"43762","ND","ND","ND","ND","ND","ND"],
    [46665,"43762,04167","ND","ND","ND","ND","ND","ND"],
    [46666,"43762,08333","ND","ND","ND","ND","ND","ND"],
    [46667,"43762,125","ND","ND","ND","ND","ND","ND"],
    [46668,"43762,16667","ND","ND","ND","ND","ND","ND"],
    [46669,"43762,20833","ND","ND","ND","ND","ND","ND"],
    [46670,"43762,25","ND","ND","ND","ND","ND","ND"],
    [46671,"43762,29167","ND","ND","ND","ND","ND","ND"],
    [46672,"43762,33333","ND","ND","ND","ND","ND","ND"],
    [46673,"43762,375","ND","ND","ND","ND","ND","ND"],
    [46674,"43762,41667","ND","ND","ND","ND","ND","ND"],
    [46675,"43762,45833","ND","ND","ND","ND","ND","ND"],
    [46676,"43762,5","ND","ND","ND","ND","ND","ND"],
    [46677,"43762,54167","ND","ND","ND","ND","ND","ND"],
    [46678,"43762,58333","ND","ND","ND","ND","ND","ND"],
    [46679,"43762,625","ND","ND","ND","ND","ND","ND"],
    [46680,"43762,66667","ND","ND","ND","ND","ND","ND"],
    [46681,"43762,70833","ND","ND","ND","ND","ND","ND"],
    [46682,"43762,75","ND","ND","ND","ND","ND","ND"],
    [46683,"43762,79167","ND","ND","ND","ND","ND","ND"],
    [46684,"43762,83333","ND","ND","ND","ND","ND","ND"],
    [46685,"43762,875","ND","ND","ND","ND","ND","ND"],
    [46686,"43762,91667","ND","ND","ND","ND","ND","ND"],
    [46687,"43762,95833","ND","ND","ND","ND","ND","ND"],
    [46688,"43763","ND","ND","ND","ND","ND","ND"],
    [46689,"43763,04167","ND","ND","ND","ND","ND","ND"],
    [46690,"43763,08333","ND","ND","ND","ND","ND","ND"],
    [46691,"43763,125","ND","ND","ND","ND","ND","ND"],
    [46692,"43763,16667","ND","ND","ND","ND","ND","ND"],
    [46693,"43763,20833","ND","ND","ND","ND","ND","ND"],
    [46694,"43763,25","ND","ND","ND","ND","ND","ND"],
    [46695,"43763,29167","ND","ND","ND","ND","ND","ND"],
    [46696,"43763,33333","ND","ND","ND","ND","ND","ND"],
    [46697,"43763,375","ND","ND","ND","ND","ND","ND"],
    [46698,"43763,41667","ND","ND","ND","ND","ND","ND"],
    [46699,"43763,45833","ND","ND","ND","ND","ND","ND"],
    [46700,"43763,5","ND","ND","ND","ND","ND","ND"],
    [46701,"43763,54167","ND","ND","ND","ND","ND","ND"],
    [46702,"43763,58333","53,3","0,262","1,5","94,2","29,6","55,2"],
    [46703,"43763,625","48","0,209","1,5","136,4","29,5","54"],
    [46704,"43763,66667","48,9","0,052","2,4","301,1","28,5","58,1"],
    [46705,"43763,70833","25,8","0","3,3","311,9","27,8","59,7"],
    [46706,"43763,75","30,9","0","2,9","310,3","26,9","61,7"],
    [46707,"43763,79167","29","0","1,7","251,8","25,9","64,7"],
    [46708,"43763,83333","29,1","0,026","0,8","244,1","25","71,7"],
    [46709,"43763,875","50,3","0,079","0,6","200,9","24,3","75,6"],
    [46710,"43763,91667","63,2","0,052","0,6","212","23,7","78,4"],
    [46711,"43763,95833","78,6","0","0,9","189,5","23,3","81,5"],
    [46712,"43764","48,9","0,026","0,7","226,2","22,8","83,4"],
    [46713,"43764,04167","52,4","0","0,7","162,2","22,4","85,3"],
    [46714,"43764,08333","38,6","0","0,5","169,5","22,4","83,8"],
    [46715,"43764,125","37,2","0,026","0,5","124,4","22,2","85,2"],
    [46716,"43764,16667","39","0","0,5","162,8","22","86,4"],
    [46717,"43764,20833","35,6","0","0,8","194,3","21,8","88,4"],
    [46718,"43764,25","37,3","0","0,9","141,4","21,8","89,2"],
    [46719,"43764,29167","45,1","0,052","0,7","66,3","22","89,2"],
    [46720,"43764,33333","48,1","0,105","0,8","153,1","22,3","88,1"],
    [46721,"43764,375","55,3","0,209","1,2","150,9","24,1","82,8"],
    [46722,"43764,41667","54,1","0,131","1,3","111,1","26,1","71,3"],
    [46723,"43764,45833","38,3","0,236","1,4","119,4","26,9","66,7"],
    [46724,"43764,5","43,8","0,131","1,2","123,7","27,5","64,9"],
    [46725,"43764,54167","53,8","0,079","1,3","159,2","28,8","59,6"],
    [46726,"43764,58333","50,6","0,026","1,5","213,5","29,7","55,7"],
    [46727,"43764,625","38,2","0,026","2,1","242,4","30,1","53"],
    [46728,"43764,66667","26,5","0,026","3,6","306,5","30","51,7"],
    [46729,"43764,70833","12,8","0","4,2","314,3","28,6","55,7"],
    [46730,"43764,75","13,1","0","4,4","318,5","26,9","60,5"],
    [46731,"43764,79167","18,9","0","5,1","309,5","26","63,6"],
    [46732,"43764,83333","14,9","0","5","305,9","25,8","63,1"],
    [46733,"43764,875","16,2","0","3,1","288,2","26","62"],
    [46734,"43764,91667","15,8","0,026","1,2","135","25,4","68,1"],
    [46735,"43764,95833","40,8","0","0,7","112,7","24,4","75"],
    [46736,"43765","38,1","0","0,9","197,9","23,6","78,1"],
    [46737,"43765,04167","38,1","0,026","0,8","188,1","23,3","80"],
    [46738,"43765,08333","33,7","0","0,5","131,2","23,2","80"],
    [46739,"43765,125","28","0","1","122,2","22,9","80,6"],
    [46740,"43765,16667","23,6","0","0,8","115,8","22,5","82,4"],
    [46741,"43765,20833","23,2","0","0,5","169,1","22","85,2"],
    [46742,"43765,25","30,5","0","0,6","221,3","21,8","86,7"],
    [46743,"43765,29167","34,6","0","0,6","148,6","22","87,2"],
    [46744,"43765,33333","34,7","0,052","0,7","118,9","22,6","86,6"],
    [46745,"43765,375","42,2","0,079","1","82,2","23,3","84"],
    [46746,"43765,41667","51","0,131","1,2","120,8","24,4","77,7"],
    [46747,"43765,45833","40,3","0,105","1","107,3","25,7","71,4"],
    [46748,"43765,5","40,4","0,079","1,1","150,4","27,6","64,2"],
    [46749,"43765,54167","36,9","0,079","1,6","129,7","29,1","57,4"],
    [46750,"43765,58333","31,7","0,052","1,5","129,7","29,7","55"],
    [46751,"43765,625","32,2","0,105","1,3","215,7","29,1","54,8"],
    [46752,"43765,66667","23","0,026","3,2","322,1","28,4","56,4"],
    [46753,"43765,70833","11,9","0","3,1","319","27,5","59,4"],
    [46754,"43765,75","12,8","0,576","2,4","254,1","27","60,8"],
    [46755,"43765,79167","21,2","0,105","0,9","227,3","26,3","68,7"],
    [46756,"43765,83333","43,3","0,026","0,9","231","25","73,5"],
    [46757,"43765,875","40,6","0,026","0,7","218,5","24,4","76,9"],
    [46758,"43765,91667","50,1","0","1","215","24,1","77,5"],
    [46759,"43765,95833","37,8","0,079","0,8","150,4","23,9","79,2"],
    [46760,"43766","47,2","0","0,5","176,5","23,2","82,8"],
    [46761,"43766,04167","40,1","0","0,5","159,3","22,6","84,3"],
    [46762,"43766,08333","36,1","0","0,8","250,9","22","86,3"],
    [46763,"43766,125","32,2","0","0,8","205","22,1","86,1"],
    [46764,"43766,16667","27,8","0","0,5","167,8","22,5","84,9"],
    [46765,"43766,20833","31,1","0,314","0,4","156,3","21,9","86,1"],
    [46766,"43766,25","33,5","0,209","0,5","230,2","21,5","86"],
    [46767,"43766,29167","46,5","0,157","0,4","168,8","21,9","86,1"],
    [46768,"43766,33333","85,8","0,209","1","171","23,5","81,5"],
    [46769,"43766,375","69,2","0,602","1,4","78","25,3","73"],
    [46770,"43766,41667","64,8","0,602","1,5","115,6","27,1","65"],
    [46771,"43766,45833","63,8","0,052","1,5","153,7","27,8","62,1"],
    [46772,"43766,5","61,2","0,052","1,5","169,1","29,1","56,9"],
    [46773,"43766,54167","42,2","0","1,3","126,6","30,1","54,3"],
    [46774,"43766,58333","48,4","0","1,8","123,8","31,1","51,7"],
    [46775,"43766,625","54,6","0","1,5","175,2","30,8","52,6"],
    [46776,"43766,66667","43,4","0,052","3,3","311,2","29,7","54,1"],
    [46777,"43766,70833","26,3","0,026","3,9","310,3","27,8","58,4"],
    [46778,"43766,75","21,1","0,026","4,9","309,9","26,7","62"],
    [46779,"43766,79167","22","0","5,7","308,6","26,2","63,3"],
    [46780,"43766,83333","19","0","4,8","302,9","26,2","61,7"],
    [46781,"43766,875","14,9","0,026","2,2","240,4","26,6","59,5"],
    [46782,"43766,91667","19,5","0,026","1,3","188,1","25,7","67,4"],
    [46783,"43766,95833","46","0,026","0,8","94,8","24,5","75,8"],
    [46784,"43767","42,4","0","0,9","186,6","24","77,5"],
    [46785,"43767,04167","33,3","0","0,7","169,6","23,6","77,9"],
    [46786,"43767,08333","18,8","0","1,1","159,3","23,5","77,8"],
    [46787,"43767,125","21","0,026","0,5","147,6","23,1","79,7"],
    [46788,"43767,16667","21,4","0","0,9","224","22,6","82,7"],
    [46789,"43767,20833","23,1","0","0,5","193,9","22,2","85,5"],
    [46790,"43767,25","29,7","0,497","0,7","210,1","22","86,3"],
    [46791,"43767,29167","36,1","0,079","ND","ND","ND","ND"],
    [46792,"43767,33333","34,4","0,131","ND","ND","ND","ND"],
    [46793,"43767,375","59,5","0,236","ND","ND","ND","ND"],
    [46794,"43767,41667","71,4","0,052","ND","ND","ND","ND"],
    [46795,"43767,45833","57,7","1,1","ND","ND","ND","ND"],
    [46796,"43767,5","86,2","0,655","ND","ND","ND","ND"],
    [46797,"43767,54167","56","0,079","ND","ND","ND","ND"],
    [46798,"43767,58333","31,9","0,026","ND","ND","ND","ND"],
    [46799,"43767,625","ND","ND","ND","ND","ND","ND"],
    [46800,"43767,66667","ND","ND","ND","ND","ND","ND"],
    [46801,"43767,70833","ND","ND","ND","ND","ND","ND"],
    [46802,"43767,75","ND","ND","ND","ND","ND","ND"],
    [46803,"43767,79167","34,5","0,052","ND","280","ND","ND"],
    [46804,"43767,83333","39","0,052","0,6","283,1","ND","65,6"],
    [46805,"43767,875","42,5","0,183","0,5","212,4","24,9","66,2"],
    [46806,"43767,91667","54,2","0,34","0,9","220,3","24","72,9"],
    [46807,"43767,95833","64,5","0,026","0,9","269,6","22,8","77,1"],
    [46808,"43768","32,5","0","0,4","175,8","22,8","77,8"],
    [46809,"43768,04167","33,1","0","0,8","249,9","23","77,9"],
    [46810,"43768,08333","31,2","0","0,9","277","21,9","83,8"],
    [46811,"43768,125","24","0","0,9","252,2","21,3","84,5"],
    [46812,"43768,16667","21,6","0","0,6","192,7","21,1","83,7"],
    [46813,"43768,20833","30,1","0","0,8","266,5","21","85"],
    [46814,"43768,25","36,9","0,105","0,8","175,6","21,2","81"],
    [46815,"43768,29167","41,1","0,052","0,7","238,8","21,2","82,6"],
    [46816,"43768,33333","57,7","0,759","0,7","244,2","22,2","77,8"],
    [46817,"43768,375","83,9","1,204","1","296,2","23,4","71,5"],
    [46818,"43768,41667","91,1","5,996","0,9","121","25,3","64,9"],
    [46819,"43768,45833","69,9","5,289","1,2","143,5","26,1","62,4"],
    [46820,"43768,5","64,6","3,482","0,8","151,4","27,6","57,2"],
    [46821,"43768,54167","66","1,676","1,1","119,7","28,6","54,1"],
    [46822,"43768,58333","56,2","1,047","1,4","104,8","29,4","52,5"],
    [46823,"43768,625","63,7","1,126","1,7","58,8","29,1","53,3"],
    [46824,"43768,66667","60,2","0,052","3,2","217","28,7","53,9"],
    [46825,"43768,70833","25,7","0","4,6","310,5","27,5","56,5"],
    [46826,"43768,75","28,8","0","4,6","335,6","26,2","59,2"],
    [46827,"43768,79167","26,9","0","4,8","325","26,2","58,1"],
    [46828,"43768,83333","19,9","0","4,8","323,2","25,8","59,5"],
    [46829,"43768,875","18,7","0","4,1","315,7","25,4","59,7"],
    [46830,"43768,91667","14,2","0,052","2,2","257,9","25,3","58,7"],
    [46831,"43768,95833","23,6","0,079","0,7","140,3","24,1","72,3"],
    [46832,"43769","61","0,105","1,2","145,3","23,5","78,1"],
    [46833,"43769,04167","46,2","0,052","0,7","220,3","22,4","86,7"],
    [46834,"43769,08333","30,8","0,026","0,6","175,7","21,8","89,8"],
    [46835,"43769,125","21,9","0","0,8","259,1","21,1","94,3"],
    [46836,"43769,16667","20,2","0","0,6","183,5","21,1","94,6"],
    [46837,"43769,20833","23,6","0,026","1","144,4","20,7","95,4"],
    [46838,"43769,25","23,4","0,026","0,4","69,5","20,8","92,3"],
    [46839,"43769,29167","19,4","0,236","0,5","180","20,6","93"],
    [46840,"43769,33333","49,1","0,131","0,6","267,1","21,7","88,9"],
    [46841,"43769,375","52,6","0,131","0,7","165,2","23","79,6"],
    [46842,"43769,41667","56,3","0,419","1,5","66,3","24,7","73,9"],
    [46843,"43769,45833","64,5","1,388","1,1","124,3","26,1","65,2"],
    [46844,"43769,5","53,5","0,943","1,9","171,6","26,2","66,4"],
    [46845,"43769,54167","58,1","0,34","1,1","212,1","26,5","65,7"],
    [46846,"43769,58333","36,3","0,34","0,6","151,7","27,8","60,8"],
    [46847,"43769,625","43,2","1,702","1,2","203,4","28,1","59,7"],
    [46848,"43769,66667","47","1,257","1,1","161,4","28,9","56,4"],
    [46849,"43769,70833","55,3","0,288","1,9","236,6","28,4","57,2"],
    [46850,"43769,75","31,2","0,052","2,7","343,5","26,9","59,5"],
    [46851,"43769,79167","19,8","0,026","4,2","336,6","25,6","64"],
    [46852,"43769,83333","20,9","0,026","3,3","345,4","25,4","63,5"],
    [46853,"43769,875","16,6","0,052","1,9","265,4","25","65,1"],
    [46854,"43769,91667","27,6","0,157","1,2","211,7","24,2","72"],
    [46855,"43769,95833","57,6","0,157","0,7","246,3","23,1","78,7"],
    [46856,"43770","61,2","0,079","1,3","256,3","22,2","82,2"],
    [46857,"43770,04167","48,1","0","1,1","265,4","22,4","81,4"],
    [46858,"43770,08333","38,2","0","0,5","198,1","22,4","80"],
    [46859,"43770,125","44,2","0","0,8","207,2","22,3","83,4"],
    [46860,"43770,16667","38","0","0,8","242,2","21,7","85,4"],
    [46861,"43770,20833","30,7","0","0,8","260,5","21,2","86,4"],
    [46862,"43770,25","33,4","0,209","1","276,2","20,9","86"],
    [46863,"43770,29167","46,1","0,157","0,7","276,7","21,4","83,7"],
    [46864,"43770,33333","63,8","0,157","0,5","161","23,2","75,5"],
    [46865,"43770,375","69,5","0,943","1","188","24,7","70,6"],
    [46866,"43770,41667","70","1,257","1,3","102,2","25,8","66,5"],
    [46867,"43770,45833","63,1","1,623","1","192,4","27,1","60,2"],
    [46868,"43770,5","30,5","0,707","1,3","270","28,3","54,7"],
    [46869,"43770,54167","39,9","0,445","1,8","153,8","28,4","53"],
    [46870,"43770,58333","31,8","0,026","3,7","237,6","28,5","51,5"],
    [46871,"43770,625","13,5","0","4,7","344,1","28,7","50,1"],
    [46872,"43770,66667","13,1","0","4,7","342,7","27,3","54,8"],
    [46873,"43770,70833","15","0","4,6","331,9","26,5","56,6"],
    [46874,"43770,75","15,5","0","4","291,7","25,4","62,9"],
    [46875,"43770,79167","34,9","0,079","2,2","172,2","23,1","76,3"],
    [46876,"43770,83333","55,7","0,026","0,9","222,5","22,8","78,2"],
    [46877,"43770,875","42,6","0","0,8","254,5","22,9","79,1"],
    [46878,"43770,91667","40,7","0,052","0,8","217,9","22,5","79,6"],
    [46879,"43770,95833","40,3","0","0,7","282","21,9","82,2"],
    [46880,"43771","39,4","0","0,7","274,1","22","80,7"],
    [46881,"43771,04167","26,5","0","0,5","109,5","22,3","79,1"],
    [46882,"43771,08333","25","0","0,7","101,8","22,2","80,2"],
    [46883,"43771,125","25,8","0","0,8","168,8","21,7","84,1"],
    [46884,"43771,16667","38,7","0","0,7","84,5","21,5","86,1"],
    [46885,"43771,20833","38,2","0","0,7","156,6","21,4","86,4"],
    [46886,"43771,25","33,2","0","0,5","186,6","21,3","87,6"],
    [46887,"43771,29167","44,9","0,026","1","261,9","21,3","87,5"],
    [46888,"43771,33333","52,3","0,052","0,7","241,2","22,1","83,5"],
    [46889,"43771,375","55,9","0,183","0,7","141,1","23,6","76,1"],
    [46890,"43771,41667","46,1","0,288","0,7","115","25,3","68,3"],
    [46891,"43771,45833","45,5","0,524","1,1","125,1","26,2","64,4"],
    [46892,"43771,5","56","0,419","1,2","91,6","27,5","58,8"],
    [46893,"43771,54167","56,8","0,419","1,3","95,5","28,3","56,2"],
    [46894,"43771,58333","52,7","1,283","1,6","47,9","28,8","54,2"],
    [46895,"43771,625","50,4","0,183","3,1","206,3","29,7","49,7"],
    [46896,"43771,66667","12,9","0","5","329,9","28,2","53,2"],
    [46897,"43771,70833","19","0","5,1","323,6","27,1","55"],
    [46898,"43771,75","16,9","0","3,6","323,1","26,6","56,4"],
    [46899,"43771,79167","19","0","3,2","336","26","59,2"],
    [46900,"43771,83333","22,2","0,026","1,1","241,5","25,7","60,6"],
    [46901,"43771,875","26,9","0,026","1,5","226,1","24,8","66,6"],
    [46902,"43771,91667","39,8","0,052","0,8","264","24,1","71,1"],
    [46903,"43771,95833","45,3","0,026","0,6","207,4","23,3","74,8"],
    [46904,"43772","40,1","0","0,6","210,7","23","76,9"],
    [46905,"43772,04167","44,6","0","1,1","271,3","22","79,3"],
    [46906,"43772,08333","31,4","0,026","0,8","268,6","22,1","78,3"],
    [46907,"43772,125","37,3","0","0,8","271,4","22","80,3"],
    [46908,"43772,16667","30,9","0","0,6","277,5","22","80,6"],
    [46909,"43772,20833","29,6","0","0,8","265,9","21,8","82,4"],
    [46910,"43772,25","28,4","0","0,3","153,5","21,9","81,5"],
    [46911,"43772,29167","31,3","0","0,8","162,7","22,4","79,6"],
    [46912,"43772,33333","44,3","0,026","1","168","22,7","79,4"],
    [46913,"43772,375","40,8","0,236","0,9","175,6","23,6","75,8"],
    [46914,"43772,41667","34,5","0,262","1,1","92,3","25,6","67"],
    [46915,"43772,45833","32,9","0,262","1,1","126,7","27,1","61,4"],
    [46916,"43772,5","26,4","0,314","0,9","142,4","28,4","55,4"],
    [46917,"43772,54167","28","0,026","1,8","254,3","28,7","54"],
    [46918,"43772,58333","29,5","0","2,9","334,9","28,9","51,6"],
    [46919,"43772,625","8","0","4,7","335,8","27,2","56,9"],
    [46920,"43772,66667","16,2","0","4,7","308,4","27,3","57,8"],
    [46921,"43772,70833","12,9","0","4,6","327,8","26,9","59"],
    [46922,"43772,75","14","0","4","309,4","26,4","59,3"],
    [46923,"43772,79167","17,8","0","1,2","240,9","26,4","59,1"],
    [46924,"43772,83333","24,4","0","1,2","240,6","25,4","65,4"],
    [46925,"43772,875","30,7","0,026","1","268,9","24,2","69,9"],
    [46926,"43772,91667","30,9","0","1,9","318,6","25,1","64,3"],
    [46927,"43772,95833","14,5","0,026","1,2","232,5","23,9","69,7"],
    [46928,"43773","29,5","0,026","0,6","219,5","23,5","73,2"],
    [46929,"43773,04167","44,7","0","0,8","249","23","75,8"],
    [46930,"43773,08333","24","0","0,6","191,9","22,4","79,1"],
    [46931,"43773,125","22,5","0","0,7","271,7","22,4","79,4"],
    [46932,"43773,16667","21,6","0","0,7","277,8","21,8","81,9"],
    [46933,"43773,20833","20","0","0,6","262,3","21,7","82,5"],
    [46934,"43773,25","22,9","0","0,6","210,2","21,7","84,1"],
    [46935,"43773,29167","30,6","0","0,6","239,3","21,9","84,6"],
    [46936,"43773,33333","37,4","0","0,5","232,1","22,5","82,1"],
    [46937,"43773,375","39,8","0,026","0,9","90,4","22,9","81,4"],
    [46938,"43773,41667","50,8","0,183","1,3","63,6","23,6","78,8"],
    [46939,"43773,45833","43,8","0,183","1","138,6","24","76,8"],
    [46940,"43773,5","48,7","0,052","1,5","210,7","24,4","74,6"],
    [46941,"43773,54167","35,2","0,052","0,8","180,8","25,4","70"],
    [46942,"43773,58333","34,1","0,079","0,9","115,9","26,8","63,6"],
    [46943,"43773,625","34,6","0,209","1,7","36,6","28,7","55,9"],
    [46944,"43773,66667","34,8","0,471","3,5","206,1","27,8","55,6"],
    [46945,"43773,70833","16,8","0","3,9","341,7","26,9","56,5"],
    [46946,"43773,75","11,8","0","4,6","323,5","25,8","57,8"],
    [46947,"43773,79167","12,7","0","2,1","300,4","25,6","56,4"],
    [46948,"43773,83333","25,8","0,157","1","231,9","24,3","68"],
    [46949,"43773,875","54,8","0,131","1","249,7","23,3","73,4"],
    [46950,"43773,91667","36,2","0,052","0,8","239,9","23,1","71,2"],
    [46951,"43773,95833","32,8","0","1","270,6","22,1","74,5"],
    [46952,"43774","26,3","0","0,9","191,1","22,3","77,4"],
    [46953,"43774,04167","38,2","0","0,6","221,2","22","81,5"],
    [46954,"43774,08333","34","0","0,8","242,8","21,7","80,4"],
    [46955,"43774,125","25,1","0","0,5","170,6","21,6","81,5"],
    [46956,"43774,16667","29,3","0","0,9","259,3","21,5","82,7"],
    [46957,"43774,20833","24,7","0,105","0,9","170,9","21,7","83"],
    [46958,"43774,25","36,5","0,105","1","255,1","20,9","85,3"],
    [46959,"43774,29167","40,1","0,183","0,7","196,9","21,5","82,3"],
    [46960,"43774,33333","61,4","0,471","0,4","126,1","23,1","75,9"],
    [46961,"43774,375","50,6","0,838","0,7","181,9","24,2","72,5"],
    [46962,"43774,41667","56,7","1,65","0,9","161,2","25,9","65,7"],
    [46963,"43774,45833","47,2","1,65","1","133,4","27,5","57,8"],
    [46964,"43774,5","42,6","ND","1,4","134,7","28,8","53,1"],
    [46965,"43774,54167","ND","ND","0,9","157,4","ND","50,1"],
    [46966,"43774,58333","ND","ND","1,2","76,7","30,7","47,6"],
    [46967,"43774,625","ND","ND","ND","ND","ND","ND"],
    [46968,"43774,66667","45,2","ND","4,6","340,3","27,9","55,6"],
    [46969,"43774,70833","39,2","ND","5,6","332,4","26,5","61,1"],
    [46970,"43774,75","20,4","ND","5,8","326,2","26,1","60,5"],
    [46971,"43774,79167","19","ND","5,1","324,1","26,3","59,4"],
    [46972,"43774,83333","13,4","ND","3,9","329,9","26","60,8"],
    [46973,"43774,875","16,8","ND","1,6","225,4","25,7","65"],
    [46974,"43774,91667","45,1","ND","1,1","106,1","24,7","72,7"],
    [46975,"43774,95833","54,7","ND","0,9","156,9","24,4","74,4"],
    [46976,"43775","46,6","ND","1,3","262,5","23,2","78,3"],
    [46977,"43775,04167","32","ND","1,1","269,2","22,7","79,8"],
    [46978,"43775,08333","24,3","ND","1,1","269,2","22,8","79,7"],
    [46979,"43775,125","25,3","ND","0,3","74","22,9","80,1"],
    [46980,"43775,16667","24,4","ND","0,6","110","22,3","84,5"],
    [46981,"43775,20833","22,3","ND","0,5","190,1","22,3","84,6"],
    [46982,"43775,25","36","ND","0,6","238,8","22,1","86,5"],
    [46983,"43775,29167","39,8","ND","1","270,7","21,8","86,7"],
    [46984,"43775,33333","51,8","ND","0,8","195,3","23,6","78,6"],
    [46985,"43775,375","79,7","ND","0,7","115,5","25,4","69,5"],
    [46986,"43775,41667","51,5","ND","0,9","174,6","27,1","62,2"],
    [46987,"43775,45833","34","ND","1,5","125,1","28,3","57,6"],
    [46988,"43775,5","43","ND","1,6","125,3","28,5","58,1"],
    [46989,"43775,54167","41,3","ND","1,5","75","29,7","54,7"],
    [46990,"43775,58333","59,9","ND","2,3","86,3","30,3","52,5"],
    [46991,"43775,625","47,2","ND","4,6","329,1","29,4","52,7"],
    [46992,"43775,66667","16,9","ND","4,7","332,5","28,3","55,5"],
    [46993,"43775,70833","16,9","ND","5,1","331,6","27,3","58,7"],
    [46994,"43775,75","20,6","ND","5,4","332,8","26,6","60,8"],
    [46995,"43775,79167","24,3","ND","2,6","288,6","26,3","62,8"],
    [46996,"43775,83333","33,1","ND","1,4","189,3","25,3","69,5"],
    [46997,"43775,875","44,6","ND","1","183,8","25,2","69,9"],
    [46998,"43775,91667","43,2","ND","0,9","112,1","25,1","69,3"],
    [46999,"43775,95833","30,2","ND","1,2","287,5","24,5","71"],
    [47000,"43776","28,6","ND","1,2","267,3","23,6","77,3"],
    [47001,"43776,04167","27,7","ND","0,6","273,8","23","79,7"],
    [47002,"43776,08333","23,1","ND","1","277","22,6","81,6"],
    [47003,"43776,125","19,8","ND","0,2","111,7","22,7","82,2"],
    [47004,"43776,16667","23,4","ND","0,5","203,8","22,2","83,9"],
    [47005,"43776,20833","24,1","ND","0,9","280,1","22,1","85,3"],
    [47006,"43776,25","31,2","ND","0,7","239,9","22,1","86"],
    [47007,"43776,29167","55","ND","0,7","261","22,6","84,3"],
    [47008,"43776,33333","66,7","ND","0,5","108,5","23,7","80,4"],
    [47009,"43776,375","67,8","ND","1,5","148,9","24,9","74,7"],
    [47010,"43776,41667","55,4","ND","1,6","144,1","26,4","66,1"],
    [47011,"43776,45833","31,8","ND","1,2","107,1","27,3","62,6"],
    [47012,"43776,5","30,5","ND","1","170,4","28","59,8"],
    [47013,"43776,54167","37,7","ND","1,5","229,2","29,3","56,1"],
    [47014,"43776,58333","38,5","ND","1,4","145,7","30,9","50,5"],
    [47015,"43776,625","39,2","ND","1,2","77,8","31,6","49,4"],
    [47016,"43776,66667","56","ND","4","334,4","30","54,4"],
    [47017,"43776,70833","38,2","ND","4,6","339","28,3","58,4"],
    [47018,"43776,75","24,5","ND","5,4","323,8","27,2","59,9"],
    [47019,"43776,79167","30,8","ND","6,2","324,9","26,6","60,4"],
    [47020,"43776,83333","24,3","ND","5,7","324,4","26,7","59"],
    [47021,"43776,875","16,3","ND","5,3","320,9","26,6","59,4"],
    [47022,"43776,91667","11,8","ND","1,8","224,5","25,8","68,3"],
    [47023,"43776,95833","63,3","ND","1,2","184","24,6","75,2"],
    [47024,"43777","68,7","ND","0,9","205,7","24","77,8"],
    [47025,"43777,04167","67,1","ND","0,7","244,5","23","81"],
    [47026,"43777,08333","52,2","ND","0,4","134,7","23,3","80,1"],
    [47027,"43777,125","34","ND","0,7","276,6","22,9","81,9"],
    [47028,"43777,16667","32,7","ND","0,9","177,2","22,5","83,9"],
    [47029,"43777,20833","30,9","ND","1,1","264,1","22","85,6"],
    [47030,"43777,25","29,5","ND","0,6","210","21,9","85,9"],
    [47031,"43777,29167","57,7","ND","0,9","239,3","21,8","84,8"],
    [47032,"43777,33333","60,3","ND","0,5","127,3","24,3","74,8"],
    [47033,"43777,375","55,3","ND","0,8","100,3","25,6","69,7"],
    [47034,"43777,41667","59,4","ND","1,4","170","26,7","66,2"],
    [47035,"43777,45833","90,9","ND","1,5","151,7","27,9","61,5"],
    [47036,"43777,5","81,1","ND","1,3","192,3","28,6","58,9"],
    [47037,"43777,54167","63,7","ND","0,7","94,6","29","57"],
    [47038,"43777,58333","55,3","ND","1","103,9","31","49,1"],
    [47039,"43777,625","30,3","ND","3,2","270","31","47,4"],
    [47040,"43777,66667","18,5","ND","4,6","330,8","30,4","50,1"],
    [47041,"43777,70833","25,7","ND","6,3","326,2","27,8","58"],
    [47042,"43777,75","24,7","ND","5,9","332,3","27,1","59,5"],
    [47043,"43777,79167","20,2","ND","6,2","339,7","26,4","62,7"],
    [47044,"43777,83333","18,6","ND","3,7","285,1","26,2","64,9"],
    [47045,"43777,875","28,8","ND","1","214,3","25,2","73,7"],
    [47046,"43777,91667","45,4","ND","1,4","167,9","24,5","77,6"],
    [47047,"43777,95833","35,2","ND","1,2","166,9","24,3","77,9"],
    [47048,"43778","39,3","ND","1,1","251,1","24","76,6"],
    [47049,"43778,04167","28,9","ND","0,8","107,2","24","78,8"],
    [47050,"43778,08333","32,5","ND","0,8","63,3","23,6","83,1"],
    [47051,"43778,125","19,5","ND","2,1","47,6","23","83,8"],
    [47052,"43778,16667","28,1","ND","ND","257,6","20,4","95,1"],
    [47053,"43778,20833","11,8","ND","0,7","99","20,8","93,8"],
    [47054,"43778,25","13,7","ND","1,1","171,4","21","94,4"],
    [47055,"43778,29167","20,7","ND","0,7","164,4","20,7","94,9"],
    [47056,"43778,33333","29,8","ND","0,9","151,3","21,2","93,1"],
    [47057,"43778,375","42,4","ND","0,4","80,2","21,6","91,4"],
    [47058,"43778,41667","42","ND","1,2","59,4","22,6","86,7"],
    [47059,"43778,45833","67,3","ND","1,1","76,7","23,5","81,7"],
    [47060,"43778,5","62,3","ND","1","83,2","25,2","72,7"],
    [47061,"43778,54167","50,9","ND","1,4","71,2","26,6","65,8"],
    [47062,"43778,58333","59,3","ND","2","29,2","27","63,5"],
    [47063,"43778,625","26,9","ND","4,7","296,6","26,4","62,1"],
    [47064,"43778,66667","11,6","ND","4,1","341,9","25,9","62,5"],
    [47065,"43778,70833","9,9","ND","3,9","321,8","25,3","61,2"],
    [47066,"43778,75","6,8","ND","2,7","302,3","25,2","59,8"],
    [47067,"43778,79167","22,4","ND","1,4","128,3","24,9","65"],
    [47068,"43778,83333","44,7","ND","1,3","187","23,6","77,9"],
    [47069,"43778,875","42,7","ND","1,3","166,9","22,1","89,3"],
    [47070,"43778,91667","28,6","ND","0,8","238,5","21,2","94,1"],
    [47071,"43778,95833","22,4","ND","0,6","233,5","21","94,9"],
    [47072,"43779","21,1","ND","0,6","141,9","20,9","96,9"],
    [47073,"43779,04167","15","ND","1,2","273,9","20,4","96,3"],
    [47074,"43779,08333","11,3","ND","0,4","182,8","20,4","95,3"],
    [47075,"43779,125","14,1","ND","0,7","200,2","20,3","97,1"],
    [47076,"43779,16667","20,3","ND","0,5","159","20,2","97,7"],
    [47077,"43779,20833","25,8","ND","0,6","196,2","20,2","98"],
    [47078,"43779,25","27,8","ND","0,7","264,6","20,1","96,8"],
    [47079,"43779,29167","19,1","ND","1","260,9","20,1","93,9"],
    [47080,"43779,33333","26,6","ND","0,6","156,3","21,6","86,3"],
    [47081,"43779,375","31,7","ND","1,5","149,1","22,9","81"],
    [47082,"43779,41667","22","ND","0,9","193,6","24,3","74,1"],
    [47083,"43779,45833","16,5","ND","0,9","120,8","26,2","64"],
    [47084,"43779,5","20","ND","1,6","52,2","27,4","60,6"],
    [47085,"43779,54167","30,5","ND","2,7","44,4","28,1","58,9"],
    [47086,"43779,58333","28,1","ND","4,1","186,9","27,9","54,6"],
    [47087,"43779,625","8,4","ND","4,6","334,7","26,2","59,1"],
    [47088,"43779,66667","ND","ND","5,2","331,7","26,4","58,5"],
    [47089,"43779,70833","15,5","ND","5,7","329,6","25,8","60,3"],
    [47090,"43779,75","4,7","ND","5,2","303","24,9","62,5"],
    [47091,"43779,79167","10","ND","5","339,1","24,6","63,3"],
    [47092,"43779,83333","12,4","ND","1,6","187,9","24,7","63,5"],
    [47093,"43779,875","18,7","ND","0,7","151,4","24,2","66,4"],
    [47094,"43779,91667","23,4","ND","1,1","282,3","23,1","74,1"],
    [47095,"43779,95833","32","ND","0,8","247,6","22,8","76,4"],
    [47096,"43780","25","ND","0,6","163,8","23,2","74,8"],
    [47097,"43780,04167","29,8","ND","0,7","178,7","22,6","77,8"],
    [47098,"43780,08333","35,5","ND","1,5","255,2","21,5","83,9"],
    [47099,"43780,125","23,1","ND","1","261,9","21,4","84"],
    [47100,"43780,16667","24,9","ND","0,8","268,6","21,4","84,5"],
    [47101,"43780,20833","21,7","ND","0,7","241,6","21,3","86,4"],
    [47102,"43780,25","28,9","ND","0,7","262,4","21,2","87,9"],
    [47103,"43780,29167","27,8","ND","0,7","275,5","21,3","87,2"],
    [47104,"43780,33333","36,2","ND","0,4","163,6","22,4","81,7"],
    [47105,"43780,375","35,3","ND","0,7","152,2","23,4","76,9"],
    [47106,"43780,41667","39,2","ND","0,8","144,9","24,2","72,4"],
    [47107,"43780,45833","34,7","ND","0,9","177,8","25,1","69,7"],
    [47108,"43780,5","36,3","ND","1","184,5","25,8","68,2"],
    [47109,"43780,54167","51,1","ND","1","147,4","27,3","59,5"],
    [47110,"43780,58333","29,2","ND","1,1","149","27,8","58,5"],
    [47111,"43780,625","30,1","ND","0,9","140,6","27,7","58,7"],
    [47112,"43780,66667","41,8","ND","3,6","307,8","25,5","65,4"],
    [47113,"43780,70833","19,3","ND","2","293,1","24,8","69,3"],
    [47114,"43780,75","6,9","ND","1,1","287,9","24,8","69,4"],
    [47115,"43780,79167","33,8","ND","0,9","217,5","24,4","71,6"],
    [47116,"43780,83333","33,4","ND","1,7","263,1","23,5","78,1"],
    [47117,"43780,875","40,9","ND","0,9","273,2","23,2","81,1"],
    [47118,"43780,91667","38,8","ND","0,9","263,6","22,8","82,5"],
    [47119,"43780,95833","29,2","ND","0,7","255,9","22,6","84,3"],
    [47120,"43781","27,9","ND","1,2","229,2","22,1","88"],
    [47121,"43781,04167","23","ND","0,8","191,5","21,7","92"],
    [47122,"43781,08333","3,4","ND","0,6","204,8","21,7","92,8"],
    [47123,"43781,125","16,6","ND","0,7","136","21,8","90,8"],
    [47124,"43781,16667","6,2","ND","0,6","49,8","21,2","86,5"],
    [47125,"43781,20833","4","ND","0,5","125","20,6","95,4"],
    [47126,"43781,25","14,4","ND","0,6","227,1","20,7","95,7"],
    [47127,"43781,29167","13,8","ND","0,7","220,5","20,5","96,2"],
    [47128,"43781,33333","19,7","ND","0,6","133,4","20,7","97,4"],
    [47129,"43781,375","23,9","ND","0,7","234,7","20,4","97,3"],
    [47130,"43781,41667","15,7","ND","0,5","232","21,3","93"],
    [47131,"43781,45833","10,1","ND","0,6","230,1","22,4","86,4"],
    [47132,"43781,5","12,8","ND","0,8","174,8","23,3","82"],
    [47133,"43781,54167","29,1","ND","1,2","187,3","23,5","82,6"],
    [47134,"43781,58333","18,2","ND","0,7","240,4","24,7","74,9"],
    [47135,"43781,625","23,6","ND","0,7","168","25,4","71,3"],
    [47136,"43781,66667","37,1","ND","1,1","238","25","73,6"],
    [47137,"43781,70833","39,4","ND","1,1","258,1","24","77,4"],
    [47138,"43781,75","20,3","ND","0,9","207,6","23,3","83,4"],
    [47139,"43781,79167","35,8","ND","1,1","244,3","22,1","91,7"],
    [47140,"43781,83333","22,6","ND","1,5","193,4","21,2","92,9"],
    [47141,"43781,875","14,3","ND","0,8","210,1","20,9","94,9"],
    [47142,"43781,91667","14,3","ND","0,5","202,4","21","95,2"],
    [47143,"43781,95833","12,7","ND","0,6","163,7","21","94,4"],
    [47144,"43782","7,5","ND","0,7","123,8","20,9","95"],
    [47145,"43782,04167","6","ND","0,4","159,9","20,7","95,8"],
    [47146,"43782,08333","8,5","ND","0,1","60,1","20,8","96,6"],
    [47147,"43782,125","10,1","ND","0,1","62,7","20,6","95,9"],
    [47148,"43782,16667","5,2","ND","0,2","76,8","20,5","97,2"],
    [47149,"43782,20833","11,2","ND","0,3","100,3","20,5","97,7"],
    [47150,"43782,25","12","ND","0,5","138,7","20,5","98,1"],
    [47151,"43782,29167","18,7","ND","0,4","118,2","20,5","98,4"],
    [47152,"43782,33333","28,5","ND","0,2","88,8","21","95,5"],
    [47153,"43782,375","38","ND","0,6","197,2","22,2","87,9"],
    [47154,"43782,41667","44,2","ND","0,7","122,1","22,8","84,4"],
    [47155,"43782,45833","34,6","ND","0,8","92,2","24,3","76,9"],
    [47156,"43782,5","36,4","ND","1,3","106,1","25,5","70,7"],
    [47157,"43782,54167","27,1","ND","1,5","169,1","25,6","68,4"],
    [47158,"43782,58333","27,7","ND","4,1","326,2","22,2","76,5"],
    [47159,"43782,625","17,3","ND","2,7","272,2","21,4","83,1"],
    [47160,"43782,66667","9,2","ND","1,5","211,3","21,9","87,9"],
    [47161,"43782,70833","29,7","ND","1","175,1","21,3","90,1"],
    [47162,"43782,75","25,8","ND","0,6","109,7","21,2","90,9"],
    [47163,"43782,79167","22,9","ND","0,5","145,1","20,9","93,6"],
    [47164,"43782,83333","34,4","ND","0,9","264","20,3","96,1"],
    [47165,"43782,875","38,8","ND","0,9","257,6","19,7","93,5"],
    [47166,"43782,91667","38,2","ND","0,9","281,7","19,5","94,4"],
    [47167,"43782,95833","29,9","ND","0,9","262,8","19,7","92,8"],
    [47168,"43783","30,2","ND","0,8","255,1","19,8","92,6"],
    [47169,"43783,04167","25,8","ND","0,7","270,9","19,7","93,8"],
    [47170,"43783,08333","20,6","ND","0,7","282,1","19,6","94,7"],
    [47171,"43783,125","17,2","ND","0,8","268,5","19,7","94,2"],
    [47172,"43783,16667","18,9","ND","0,6","237,5","19,7","94,7"],
    [47173,"43783,20833","20","ND","0,7","263,1","19,8","94,7"],
    [47174,"43783,25","31,9","ND","0,6","269,8","19,9","94,7"],
    [47175,"43783,29167","48,3","ND","0,7","274,2","19,9","94,5"],
    [47176,"43783,33333","87,2","ND","0,6","225","20,4","94,3"],
    [47177,"43783,375","26","ND","0,5","183,1","21,9","87,6"],
    [47178,"43783,41667","36,2","ND","0,8","183,1","23,6","77,8"],
    [47179,"43783,45833","30","ND","0,6","88,8","25,3","68,6"],
    [47180,"43783,5","35,2","ND","0,9","152","26,2","64,9"],
    [47181,"43783,54167","27,2","ND","0,9","100,9","27,5","59,5"],
    [47182,"43783,58333","37,8","ND","ND","241,3","25,3","72,5"],
    [47183,"43783,625","70,1","ND","ND","51,3","23,3","87,8"],
    [47184,"43783,66667","21,8","ND","0,6","210,4","24,4","83,9"],
    [47185,"43783,70833","35,8","ND","0,6","161,8","24,2","79,6"],
    [47186,"43783,75","26","ND","1,3","271,6","24,2","73,6"],
    [47187,"43783,79167","38,9","ND","2,1","307","23,6","74,1"],
    [47188,"43783,83333","28,6","ND","1","256,7","22,8","79,4"],
    [47189,"43783,875","30,6","ND","0,2","98,2","22,2","83,7"],
    [47190,"43783,91667","64,7","ND","0,4","150,1","22,1","83,8"],
    [47191,"43783,95833","80,8","ND","0,6","231,6","21,6","86,2"],
    [47192,"43784","53,3","ND","0,6","233,6","21,2","88,7"],
    [47193,"43784,04167","38,2","ND","0,6","275,3","21","90,8"],
    [47194,"43784,08333","24,1","ND","0,6","262,6","21","91,8"],
    [47195,"43784,125","34,6","ND","0,3","61,9","21,1","92,8"],
    [47196,"43784,16667","29,7","ND","0,8","80","21,2","92,5"],
    [47197,"43784,20833","23,3","ND","0,8","131,5","21","92,8"],
    [47198,"43784,25","29,5","ND","0,8","159,1","20,9","94,2"],
    [47199,"43784,29167","53,9","ND","0,8","128,8","20,9","93,3"],
    [47200,"43784,33333","74,5","ND","0,9","188,8","20,9","93,1"],
    [47201,"43784,375","62,7","ND","1,1","191,2","21,2","91,9"],
    [47202,"43784,41667","41","ND","0,6","203,9","22,4","85,5"],
    [47203,"43784,45833","ND","ND","0,4","140,1","24,4","73,6"],
    [47204,"43784,5","ND","ND","ND","ND","ND","ND"],
    [47205,"43784,54167","ND","ND","ND","ND","ND","ND"],
    [47206,"43784,58333","ND","ND","ND","ND","ND","ND"],
    [47207,"43784,625","ND","ND","ND","ND","ND","ND"],
    [47208,"43784,66667","ND","ND","ND","ND","ND","ND"],
    [47209,"43784,70833","ND","ND","ND","ND","ND","ND"],
    [47210,"43784,75","ND","ND","ND","ND","ND","ND"],
    [47211,"43784,79167","ND","ND","ND","ND","ND","ND"],
    [47212,"43784,83333","ND","ND","ND","ND","ND","ND"],
    [47213,"43784,875","ND","ND","ND","ND","ND","ND"],
    [47214,"43784,91667","ND","ND","ND","ND","ND","ND"],
    [47215,"43784,95833","ND","ND","ND","ND","ND","ND"],
    [47216,"43785","ND","ND","ND","ND","ND","ND"],
    [47217,"43785,04167","ND","ND","ND","ND","ND","ND"],
    [47218,"43785,08333","ND","ND","ND","ND","ND","ND"],
    [47219,"43785,125","ND","ND","ND","ND","ND","ND"],
    [47220,"43785,16667","ND","ND","ND","ND","ND","ND"],
    [47221,"43785,20833","ND","ND","ND","ND","ND","ND"],
    [47222,"43785,25","ND","ND","ND","ND","ND","ND"],
    [47223,"43785,29167","ND","ND","ND","ND","ND","ND"],
    [47224,"43785,33333","ND","ND","ND","ND","ND","ND"],
    [47225,"43785,375","ND","ND","ND","ND","ND","ND"],
    [47226,"43785,41667","ND","ND","ND","ND","ND","ND"],
    [47227,"43785,45833","ND","ND","ND","ND","ND","ND"],
    [47228,"43785,5","ND","ND","ND","ND","ND","ND"],
    [47229,"43785,54167","ND","ND","ND","ND","ND","ND"],
    [47230,"43785,58333","ND","ND","ND","ND","ND","ND"],
    [47231,"43785,625","ND","ND","ND","ND","ND","ND"],
    [47232,"43785,66667","ND","ND","ND","ND","ND","ND"],
    [47233,"43785,70833","ND","ND","ND","ND","ND","ND"],
    [47234,"43785,75","ND","ND","ND","ND","ND","ND"],
    [47235,"43785,79167","ND","ND","ND","ND","ND","ND"],
    [47236,"43785,83333","ND","ND","ND","ND","ND","ND"],
    [47237,"43785,875","ND","ND","ND","ND","ND","ND"],
    [47238,"43785,91667","ND","ND","ND","ND","ND","ND"],
    [47239,"43785,95833","ND","ND","ND","ND","ND","ND"],
    [47240,"43786","ND","ND","ND","ND","ND","ND"],
    [47241,"43786,04167","ND","ND","ND","ND","ND","ND"],
    [47242,"43786,08333","ND","ND","ND","ND","ND","ND"],
    [47243,"43786,125","ND","ND","ND","ND","ND","ND"],
    [47244,"43786,16667","ND","ND","ND","ND","ND","ND"],
    [47245,"43786,20833","ND","ND","ND","ND","ND","ND"],
    [47246,"43786,25","ND","ND","ND","ND","ND","ND"],
    [47247,"43786,29167","ND","ND","ND","ND","ND","ND"],
    [47248,"43786,33333","ND","ND","ND","ND","ND","ND"],
    [47249,"43786,375","ND","ND","ND","ND","ND","ND"],
    [47250,"43786,41667","ND","ND","ND","ND","ND","ND"],
    [47251,"43786,45833","ND","ND","ND","ND","ND","ND"],
    [47252,"43786,5","ND","ND","ND","ND","ND","ND"],
    [47253,"43786,54167","ND","ND","ND","ND","ND","ND"],
    [47254,"43786,58333","ND","ND","ND","ND","ND","ND"],
    [47255,"43786,625","ND","ND","ND","ND","ND","ND"],
    [47256,"43786,66667","ND","ND","ND","ND","ND","ND"],
    [47257,"43786,70833","ND","ND","ND","ND","ND","ND"],
    [47258,"43786,75","ND","ND","ND","ND","ND","ND"],
    [47259,"43786,79167","ND","ND","ND","ND","ND","ND"],
    [47260,"43786,83333","ND","ND","ND","ND","ND","ND"],
    [47261,"43786,875","ND","ND","ND","ND","ND","ND"],
    [47262,"43786,91667","ND","ND","ND","ND","ND","ND"],
    [47263,"43786,95833","ND","ND","ND","ND","ND","ND"],
    [47264,"43787","ND","ND","ND","ND","ND","ND"],
    [47265,"43787,04167","ND","ND","ND","ND","ND","ND"],
    [47266,"43787,08333","ND","ND","ND","ND","ND","ND"],
    [47267,"43787,125","ND","ND","ND","ND","ND","ND"],
    [47268,"43787,16667","ND","ND","ND","ND","ND","ND"],
    [47269,"43787,20833","ND","ND","ND","ND","ND","ND"],
    [47270,"43787,25","ND","ND","ND","ND","ND","ND"],
    [47271,"43787,29167","ND","ND","ND","ND","ND","ND"],
    [47272,"43787,33333","ND","ND","ND","ND","ND","ND"],
    [47273,"43787,375","ND","ND","ND","ND","ND","ND"],
    [47274,"43787,41667","ND","ND","ND","ND","ND","ND"],
    [47275,"43787,45833","ND","ND","ND","ND","ND","ND"],
    [47276,"43787,5","ND","ND","ND","ND","ND","ND"],
    [47277,"43787,54167","ND","ND","ND","ND","ND","ND"],
    [47278,"43787,58333","ND","ND","ND","ND","ND","ND"],
    [47279,"43787,625","ND","ND","ND","ND","ND","ND"],
    [47280,"43787,66667","ND","ND","ND","ND","ND","ND"],
    [47281,"43787,70833","ND","ND","ND","ND","ND","ND"],
    [47282,"43787,75","ND","ND","ND","ND","ND","ND"],
    [47283,"43787,79167","ND","ND","ND","ND","ND","ND"],
    [47284,"43787,83333","ND","ND","ND","ND","ND","ND"],
    [47285,"43787,875","ND","ND","ND","ND","ND","ND"],
    [47286,"43787,91667","ND","ND","ND","ND","ND","ND"],
    [47287,"43787,95833","ND","ND","ND","ND","ND","ND"],
    [47288,"43788","ND","ND","ND","ND","ND","ND"],
    [47289,"43788,04167","ND","ND","ND","ND","ND","ND"],
    [47290,"43788,08333","ND","ND","ND","ND","ND","ND"],
    [47291,"43788,125","ND","ND","ND","ND","ND","ND"],
    [47292,"43788,16667","ND","ND","ND","ND","ND","ND"],
    [47293,"43788,20833","ND","ND","ND","ND","ND","ND"],
    [47294,"43788,25","ND","ND","ND","ND","ND","ND"],
    [47295,"43788,29167","ND","ND","ND","ND","ND","ND"],
    [47296,"43788,33333","ND","ND","ND","ND","ND","ND"],
    [47297,"43788,375","ND","ND","ND","ND","ND","ND"],
    [47298,"43788,41667","ND","ND","ND","ND","ND","ND"],
    [47299,"43788,45833","ND","ND","ND","ND","ND","ND"],
    [47300,"43788,5","ND","ND","ND","ND","ND","ND"],
    [47301,"43788,54167","ND","ND","ND","ND","ND","ND"],
    [47302,"43788,58333","ND","ND","ND","ND","ND","ND"],
    [47303,"43788,625","ND","ND","ND","ND","ND","ND"],
    [47304,"43788,66667","ND","ND","ND","ND","ND","ND"],
    [47305,"43788,70833","ND","ND","ND","ND","ND","ND"],
    [47306,"43788,75","ND","ND","ND","ND","ND","ND"],
    [47307,"43788,79167","ND","ND","ND","ND","ND","ND"],
    [47308,"43788,83333","ND","ND","ND","ND","ND","ND"],
    [47309,"43788,875","ND","ND","ND","ND","ND","ND"],
    [47310,"43788,91667","ND","ND","ND","ND","ND","ND"],
    [47311,"43788,95833","ND","ND","ND","ND","ND","ND"],
    [47312,"43789","ND","ND","ND","ND","ND","ND"],
    [47313,"43789,04167","ND","ND","ND","ND","ND","ND"],
    [47314,"43789,08333","ND","ND","ND","ND","ND","ND"],
    [47315,"43789,125","ND","ND","ND","ND","ND","ND"],
    [47316,"43789,16667","ND","ND","ND","ND","ND","ND"],
    [47317,"43789,20833","ND","ND","ND","ND","ND","ND"],
    [47318,"43789,25","ND","ND","ND","ND","ND","ND"],
    [47319,"43789,29167","ND","ND","ND","ND","ND","ND"],
    [47320,"43789,33333","ND","ND","ND","ND","ND","ND"],
    [47321,"43789,375","ND","ND","ND","ND","ND","ND"],
    [47322,"43789,41667","ND","ND","ND","ND","ND","ND"],
    [47323,"43789,45833","ND","ND","ND","ND","ND","ND"],
    [47324,"43789,5","ND","ND","ND","ND","ND","ND"],
    [47325,"43789,54167","ND","ND","ND","ND","ND","ND"],
    [47326,"43789,58333","ND","ND","ND","ND","ND","ND"],
    [47327,"43789,625","ND","ND","ND","ND","ND","ND"],
    [47328,"43789,66667","ND","ND","ND","ND","ND","ND"],
    [47329,"43789,70833","ND","ND","ND","ND","ND","ND"],
    [47330,"43789,75","ND","ND","ND","ND","ND","ND"],
    [47331,"43789,79167","ND","ND","ND","ND","ND","ND"],
    [47332,"43789,83333","ND","ND","ND","ND","ND","ND"],
    [47333,"43789,875","ND","ND","ND","ND","ND","ND"],
    [47334,"43789,91667","ND","ND","ND","ND","ND","ND"],
    [47335,"43789,95833","ND","ND","ND","ND","ND","ND"],
    [47336,"43790","ND","ND","ND","ND","ND","ND"],
    [47337,"43790,04167","ND","ND","ND","ND","ND","ND"],
    [47338,"43790,08333","ND","ND","ND","ND","ND","ND"],
    [47339,"43790,125","ND","ND","ND","ND","ND","ND"],
    [47340,"43790,16667","ND","ND","ND","ND","ND","ND"],
    [47341,"43790,20833","ND","ND","ND","ND","ND","ND"],
    [47342,"43790,25","ND","ND","ND","ND","ND","ND"],
    [47343,"43790,29167","ND","ND","ND","ND","ND","ND"],
    [47344,"43790,33333","ND","ND","ND","ND","ND","ND"],
    [47345,"43790,375","ND","ND","ND","ND","ND","ND"],
    [47346,"43790,41667","ND","ND","ND","ND","ND","ND"],
    [47347,"43790,45833","ND","ND","ND","ND","ND","ND"],
    [47348,"43790,5","ND","ND","ND","ND","ND","ND"],
    [47349,"43790,54167","ND","ND","ND","ND","ND","ND"],
    [47350,"43790,58333","ND","ND","ND","ND","ND","ND"],
    [47351,"43790,625","ND","ND","ND","ND","ND","ND"],
    [47352,"43790,66667","ND","ND","ND","ND","ND","ND"],
    [47353,"43790,70833","ND","ND","ND","ND","ND","ND"],
    [47354,"43790,75","ND","ND","ND","ND","ND","ND"],
    [47355,"43790,79167","ND","ND","ND","ND","ND","ND"],
    [47356,"43790,83333","ND","ND","ND","ND","ND","ND"],
    [47357,"43790,875","ND","ND","ND","ND","ND","ND"],
    [47358,"43790,91667","ND","ND","ND","ND","ND","ND"],
    [47359,"43790,95833","ND","ND","ND","ND","ND","ND"],
    [47360,"43791","ND","ND","ND","ND","ND","ND"],
    [47361,"43791,04167","ND","ND","ND","ND","ND","ND"],
    [47362,"43791,08333","ND","ND","ND","ND","ND","ND"],
    [47363,"43791,125","ND","ND","ND","ND","ND","ND"],
    [47364,"43791,16667","ND","ND","ND","ND","ND","ND"],
    [47365,"43791,20833","ND","ND","ND","ND","ND","ND"],
    [47366,"43791,25","ND","ND","ND","ND","ND","ND"],
    [47367,"43791,29167","ND","ND","ND","ND","ND","ND"],
    [47368,"43791,33333","ND","ND","ND","ND","ND","ND"],
    [47369,"43791,375","ND","ND","ND","ND","ND","ND"],
    [47370,"43791,41667","ND","ND","ND","ND","ND","ND"],
    [47371,"43791,45833","ND","ND","ND","ND","ND","ND"],
    [47372,"43791,5","ND","ND","ND","ND","ND","ND"],
    [47373,"43791,54167","ND","ND","ND","ND","ND","ND"],
    [47374,"43791,58333","ND","ND","ND","ND","ND","ND"],
    [47375,"43791,625","ND","ND","ND","ND","ND","ND"],
    [47376,"43791,66667","ND","ND","ND","ND","ND","ND"],
    [47377,"43791,70833","ND","ND","ND","ND","ND","ND"],
    [47378,"43791,75","ND","ND","ND","ND","ND","ND"],
    [47379,"43791,79167","ND","ND","ND","ND","ND","ND"],
    [47380,"43791,83333","ND","ND","ND","ND","ND","ND"],
    [47381,"43791,875","ND","ND","ND","ND","ND","ND"],
    [47382,"43791,91667","ND","ND","ND","ND","ND","ND"],
    [47383,"43791,95833","ND","ND","ND","ND","ND","ND"],
    [47384,"43792","ND","ND","ND","ND","ND","ND"],
    [47385,"43792,04167","ND","ND","ND","ND","ND","ND"],
    [47386,"43792,08333","ND","ND","ND","ND","ND","ND"],
    [47387,"43792,125","ND","ND","ND","ND","ND","ND"],
    [47388,"43792,16667","ND","ND","ND","ND","ND","ND"],
    [47389,"43792,20833","ND","ND","ND","ND","ND","ND"],
    [47390,"43792,25","ND","ND","ND","ND","ND","ND"],
    [47391,"43792,29167","ND","ND","ND","ND","ND","ND"],
    [47392,"43792,33333","ND","ND","ND","ND","ND","ND"],
    [47393,"43792,375","ND","ND","ND","ND","ND","ND"],
    [47394,"43792,41667","ND","ND","ND","ND","ND","ND"],
    [47395,"43792,45833","ND","ND","ND","ND","ND","ND"],
    [47396,"43792,5","ND","ND","ND","ND","ND","ND"],
    [47397,"43792,54167","ND","ND","ND","ND","ND","ND"],
    [47398,"43792,58333","ND","ND","ND","ND","ND","ND"],
    [47399,"43792,625","ND","ND","ND","ND","ND","ND"],
    [47400,"43792,66667","ND","ND","ND","ND","ND","ND"],
    [47401,"43792,70833","ND","ND","ND","ND","ND","ND"],
    [47402,"43792,75","ND","ND","ND","ND","ND","ND"],
    [47403,"43792,79167","ND","ND","ND","ND","ND","ND"],
    [47404,"43792,83333","ND","ND","ND","ND","ND","ND"],
    [47405,"43792,875","ND","ND","ND","ND","ND","ND"],
    [47406,"43792,91667","ND","ND","ND","ND","ND","ND"],
    [47407,"43792,95833","ND","ND","ND","ND","ND","ND"],
    [47408,"43793","ND","ND","ND","ND","ND","ND"],
    [47409,"43793,04167","ND","ND","ND","ND","ND","ND"],
    [47410,"43793,08333","ND","ND","ND","ND","ND","ND"],
    [47411,"43793,125","ND","ND","ND","ND","ND","ND"],
    [47412,"43793,16667","ND","ND","ND","ND","ND","ND"],
    [47413,"43793,20833","ND","ND","ND","ND","ND","ND"],
    [47414,"43793,25","ND","ND","ND","ND","ND","ND"],
    [47415,"43793,29167","ND","ND","ND","ND","ND","ND"],
    [47416,"43793,33333","ND","ND","ND","ND","ND","ND"],
    [47417,"43793,375","ND","ND","ND","ND","ND","ND"],
    [47418,"43793,41667","ND","ND","ND","ND","ND","ND"],
    [47419,"43793,45833","ND","ND","ND","ND","ND","ND"],
    [47420,"43793,5","ND","ND","ND","ND","ND","ND"],
    [47421,"43793,54167","ND","ND","ND","ND","ND","ND"],
    [47422,"43793,58333","ND","ND","ND","ND","ND","ND"],
    [47423,"43793,625","ND","ND","ND","ND","ND","ND"],
    [47424,"43793,66667","ND","ND","ND","ND","ND","ND"],
    [47425,"43793,70833","ND","ND","ND","ND","ND","ND"],
    [47426,"43793,75","ND","ND","ND","ND","ND","ND"],
    [47427,"43793,79167","ND","ND","ND","ND","ND","ND"],
    [47428,"43793,83333","ND","ND","ND","ND","ND","ND"],
    [47429,"43793,875","ND","ND","ND","ND","ND","ND"],
    [47430,"43793,91667","ND","ND","ND","ND","ND","ND"],
    [47431,"43793,95833","ND","ND","ND","ND","ND","ND"],
    [47432,"43794","ND","ND","ND","ND","ND","ND"],
    [47433,"43794,04167","ND","ND","ND","ND","ND","ND"],
    [47434,"43794,08333","ND","ND","ND","ND","ND","ND"],
    [47435,"43794,125","ND","ND","ND","ND","ND","ND"],
    [47436,"43794,16667","ND","ND","ND","ND","ND","ND"],
    [47437,"43794,20833","ND","ND","ND","ND","ND","ND"],
    [47438,"43794,25","ND","ND","ND","ND","ND","ND"],
    [47439,"43794,29167","ND","ND","ND","ND","ND","ND"],
    [47440,"43794,33333","ND","ND","ND","ND","ND","ND"],
    [47441,"43794,375","ND","ND","ND","ND","ND","ND"],
    [47442,"43794,41667","ND","ND","ND","ND","ND","ND"],
    [47443,"43794,45833","ND","ND","ND","ND","ND","ND"],
    [47444,"43794,5","ND","ND","ND","ND","ND","ND"],
    [47445,"43794,54167","ND","ND","ND","ND","ND","ND"],
    [47446,"43794,58333","ND","ND","ND","ND","ND","ND"],
    [47447,"43794,625","ND","ND","ND","ND","ND","ND"],
    [47448,"43794,66667","ND","ND","ND","ND","ND","ND"],
    [47449,"43794,70833","24","ND","5,2","327,4","27,6","58,7"],
    [47450,"43794,75","23,6","ND","5,2","323,4","26,8","60,5"],
    [47451,"43794,79167","26,5","ND","4,2","335,3","26,6","60,7"],
    [47452,"43794,83333","15,3","ND","4,5","328,9","26,6","60,1"],
    [47453,"43794,875","13","ND","3,2","321,6","26,6","60,1"],
    [47454,"43794,91667","16,3","ND","0,9","202,5","25,2","72,2"],
    [47455,"43794,95833","74,3","ND","1","162","24,2","77,4"],
    [47456,"43795","62,5","ND","0,6","231,3","23,8","78,8"],
    [47457,"43795,04167","44,9","ND","0,6","204,1","23,5","79,2"],
    [47458,"43795,08333","43,3","ND","0,7","146,5","23,2","80,1"],
    [47459,"43795,125","31,9","ND","0,6","201,9","22,8","81,6"],
    [47460,"43795,16667","34,2","ND","0,6","195","22,8","81,8"],
    [47461,"43795,20833","25,3","ND","0,5","201,7","22,8","82,3"],
    [47462,"43795,25","42,5","ND","0,6","127,6","22,7","84,4"],
    [47463,"43795,29167","57,6","ND","0,7","184,7","22,8","84,7"],
    [47464,"43795,33333","82,5","ND","0,8","233,1","23,7","81,2"],
    [47465,"43795,375","76,4","ND","0,8","184,7","25,5","71,6"],
    [47466,"43795,41667","ND","ND","1,4","133,4","27,1","65,1"],
    [47467,"43795,45833","ND","ND","2","164,9","27,4","65,2"],
    [47468,"43795,5","ND","ND","1,3","149","28","61,4"],
    [47469,"43795,54167","36","ND","0,7","138,1","28,9","58,7"],
    [47470,"43795,58333","66,5","ND","1,2","131,2","29,6","57,1"],
    [47471,"43795,625","99,7","ND","0,8","121,8","29,7","56,4"],
    [47472,"43795,66667","82,1","ND","3,1","283,9","29,2","54,7"],
    [47473,"43795,70833","23","ND","3,5","328,8","28,5","56,4"],
    [47474,"43795,75","17,1","ND","3,8","303,2","27,5","59,7"],
    [47475,"43795,79167","17,9","ND","3,3","314","27,1","60,2"],
    [47476,"43795,83333","22,3","ND","1,1","264,3","26,4","63,7"],
    [47477,"43795,875","37,1","ND","1,2","258,8","25,7","66,5"],
    [47478,"43795,91667","34,3","ND","0,6","177,5","25,1","68,6"],
    [47479,"43795,95833","44,3","ND","1","279,6","24,1","73,6"],
    [47480,"43796","47,5","ND","0,7","235,6","24","73,6"],
    [47481,"43796,04167","34,3","ND","0,8","271,7","23,1","78,2"],
    [47482,"43796,08333","34,3","ND","0,4","127,9","23,4","79,1"],
    [47483,"43796,125","51,5","ND","0,7","186","23,3","81,1"],
    [47484,"43796,16667","42,2","ND","0,6","243,8","22,9","82,9"],
    [47485,"43796,20833","45,2","ND","0,7","256,5","22,6","84,1"],
    [47486,"43796,25","44,6","ND","1","263,3","22,6","83,6"],
    [47487,"43796,29167","47,7","ND","0,3","187,6","23,2","81,5"],
    [47488,"43796,33333","85,1","ND","0,8","209,7","23,7","82,1"],
    [47489,"43796,375","95,9","ND","0,6","182,5","24,4","78,3"],
    [47490,"43796,41667","92,6","ND","0,9","209,3","25,2","73,9"],
    [47491,"43796,45833","84,1","ND","1","139,9","26,6","68,4"],
    [47492,"43796,5","62","ND","1,1","82,3","27,7","63,2"],
    [47493,"43796,54167","59,6","ND","1,3","163,4","27,4","64,9"],
    [47494,"43796,58333","74,8","ND","1","187","28,4","62,1"],
    [47495,"43796,625","79","ND","1,1","127,1","28,8","60,8"],
    [47496,"43796,66667","87,6","ND","1,1","136,8","28,5","61,7"],
    [47497,"43796,70833","86,9","ND","2,7","273,4","27,9","59,6"],
    [47498,"43796,75","13,7","ND","3,2","338,3","26,9","62,1"],
    [47499,"43796,79167","14,8","ND","3","327,3","26,2","63,8"],
    [47500,"43796,83333","21,7","ND","1,5","266,8","24,9","72,5"],
    [47501,"43796,875","57,9","ND","0,7","273,7","24,5","72,6"],
    [47502,"43796,91667","48","ND","0,5","124,8","24,3","71,3"],
    [47503,"43796,95833","47,9","ND","0,5","255,4","23,4","75,4"],
    [47504,"43797","54,2","ND","1,3","270","22,4","80,2"],
    [47505,"43797,04167","34,8","ND","1","223,2","23","77"],
    [47506,"43797,08333","26,4","ND","0,6","210,3","23","78,9"],
    [47507,"43797,125","42,7","ND","0,8","58,6","22,7","85,1"],
    [47508,"43797,16667","68,8","ND","0,9","243,8","22,2","85,1"],
    [47509,"43797,20833","38,9","ND","0,5","245","22,2","86,1"],
    [47510,"43797,25","59,4","ND","0,5","171,6","21,8","88"],
    [47511,"43797,29167","59,2","ND","0,7","221,4","22,1","85,8"],
    [47512,"43797,33333","84,4","ND","0,6","232,3","23,6","81,2"],
    [47513,"43797,375","83,3","ND","0,8","186,2","25,1","73,4"],
    [47514,"43797,41667","64,4","ND","1,2","137,9","26,5","67"],
    [47515,"43797,45833","49,7","ND","1,6","143","27,4","65,4"],
    [47516,"43797,5","72,8","ND","1,2","128,6","28,3","61,4"],
    [47517,"43797,54167","73,2","ND","1","83,3","29,2","57,1"],
    [47518,"43797,58333","81","ND","1,1","67,5","28,9","56,4"],
    [47519,"43797,625","51","ND","3,6","281,2","25,5","61,5"],
    [47520,"43797,66667","23,9","ND","4,1","306,6","26,9","60,3"],
    [47521,"43797,70833","32,5","ND","4,2","331,3","27,2","59,7"],
    [47522,"43797,75","21,1","ND","4,7","331,3","26,1","63,3"],
    [47523,"43797,79167","21,3","ND","3,8","326","25,8","62,6"],
    [47524,"43797,83333","9,1","ND","2,5","305,2","25,4","64,3"],
    [47525,"43797,875","19,6","ND","2,5","265,4","24,8","67,1"],
    [47526,"43797,91667","23,2","ND","2,1","179,3","23,7","77,3"],
    [47527,"43797,95833","48,6","ND","0,9","242,8","23,1","81,2"],
    [47528,"43798","48,7","ND","1,1","267,6","22,3","85,9"],
    [47529,"43798,04167","39,7","ND","0,9","260,3","21,8","91,3"],
    [47530,"43798,08333","26,9","ND","0,8","210,6","21,7","91,1"],
    [47531,"43798,125","20","ND","0,6","255,8","21,9","91,4"],
    [47532,"43798,16667","22,7","ND","0,5","250,4","21,8","91,8"],
    [47533,"43798,20833","21,3","ND","0,6","249,7","21,8","90,9"],
    [47534,"43798,25","32,4","ND","0,9","260,1","21,7","90,5"],
    [47535,"43798,29167","46","ND","0,6","275,2","21,9","89,9"],
    [47536,"43798,33333","77","ND","0,8","205,6","22,8","87,2"],
    [47537,"43798,375","77,4","ND","0,7","154,2","24","79,8"],
    [47538,"43798,41667","57,1","ND","1,1","163,6","25,2","73"],
    [47539,"43798,45833","53,3","ND","0,9","190,8","26,2","68,1"],
    [47540,"43798,5","57,1","ND","1","160,2","27,3","62,7"],
    [47541,"43798,54167","62,6","ND","1,7","109,2","28,1","56,5"],
    [47542,"43798,58333","13,1","ND","2,6","159,9","25,7","72,9"],
    [47543,"43798,625","32,4","ND","4,7","342,1","25,4","68,1"],
    [47544,"43798,66667","ND","ND","6,7","326,5","25,5","62,7"],
    [47545,"43798,70833","5,5","ND","5,8","323,7","25,1","63,2"],
    [47546,"43798,75","14","ND","3,9","283,3","24,3","69,8"],
    [47547,"43798,79167","51,3","ND","1","179,7","23","80,9"],
    [47548,"43798,83333","40,9","ND","1","169,2","22,9","82,7"],
    [47549,"43798,875","45","ND","1","221,5","21,8","92,7"],
    [47550,"43798,91667","36,2","ND","0,6","182,2","21,6","94,2"],
    [47551,"43798,95833","29,5","ND","0,7","270,8","21,4","95,6"],
    [47552,"43799","21,5","ND","0,9","196","21,3","93,2"],
    [47553,"43799,04167","15,1","ND","0,6","268,6","21","95,2"],
    [47554,"43799,08333","20,9","ND","0,6","184,1","20,7","96,2"],
    [47555,"43799,125","27,5","ND","0,5","103,4","20,6","97"],
    [47556,"43799,16667","33,6","ND","0,6","162,7","20,4","97,3"],
    [47557,"43799,20833","24,2","ND","0,7","272,7","20,1","95,5"],
    [47558,"43799,25","33","ND","0,7","278,9","19,6","95,1"],
    [47559,"43799,29167","49,1","ND","0,7","244,1","19,9","92,9"],
    [47560,"43799,33333","56","ND","0,3","220,2","21","91,5"],
    [47561,"43799,375","88","ND","0,2","63,1","22,1","86,1"],
    [47562,"43799,41667","82,7","ND","0,3","81,4","22,8","84,2"],
    [47563,"43799,45833","102,3","ND","0,4","71,9","23,1","80,9"],
    [47564,"43799,5","88,4","ND","0,6","202,4","24,1","76,5"],
    [47565,"43799,54167","85,1","ND","0,4","114,1","26,4","64,5"],
    [47566,"43799,58333","50,6","ND","0,6","187,6","27,9","56,6"],
    [47567,"43799,625","58,8","ND","1","133,8","28,7","55,2"],
    [47568,"43799,66667","68,8","ND","1,2","135,1","28,5","55,3"],
    [47569,"43799,70833","53,1","ND","2,7","334,2","27,8","56,3"],
    [47570,"43799,75","17,1","ND","3,3","329,8","26,4","61,3"],
    [47571,"43799,79167","15,3","ND","3,1","312,8","25,4","63,7"],
    [47572,"43799,83333","15,4","ND","1,8","246,5","25,2","65"],
    [47573,"43799,875","20,3","ND","1,3","241","24,4","69,4"],
    [47574,"43799,91667","39,4","ND","0,7","244,7","23,4","73,9"],
    [47575,"43799,95833","47,6","ND","1,1","259,3","22,7","77,9"],
    [47576,"43800","55,1","ND","1,5","273,1","22,3","79,3"],
    [47577,"43800,04167","34,7","ND","1,2","266,3","22,5","80,3"],
    [47578,"43800,08333","36","ND","0,6","195,1","22,2","83,9"],
    [47579,"43800,125","32","ND","1,3","276,6","21,6","86,1"],
    [47580,"43800,16667","30,6","ND","0,8","247,6","21,8","85"],
    [47581,"43800,20833","29,2","ND","0,7","272,6","21,8","85,4"],
    [47582,"43800,25","32,7","ND","0,6","272,1","21,7","86,9"],
    [47583,"43800,29167","35,9","ND","0,6","260,9","21,8","87,2"],
    [47584,"43800,33333","41,2","ND","0,7","248,2","22,6","85,4"],
    [47585,"43800,375","46,9","ND","0,5","154,1","23,6","79,9"],
    [47586,"43800,41667","26,2","ND","0,5","186,4","24,6","73,9"],
    [47587,"43800,45833","40,5","ND","0,6","125,3","26,5","64,9"],
    [47588,"43800,5","26,2","ND","1,3","152,7","28,1","59,4"],
    [47589,"43800,54167","40,2","ND","1,2","211,6","29","55,7"],
    [47590,"43800,58333","29,8","ND","1,1","148,8","30,2","50,8"],
    [47591,"43800,625","31","ND","2,1","305,3","29,6","52,7"],
    [47592,"43800,66667","30,4","ND","2,5","282,7","29,9","51,9"],
    [47593,"43800,70833","19,8","ND","3,8","330,2","29,2","53"],
    [47594,"43800,75","13,8","ND","3,8","332,7","27,6","58,8"],
    [47595,"43800,79167","16,5","ND","3,6","325,8","27,1","60,1"],
    [47596,"43800,83333","17","ND","1,4","272,4","26,7","61,7"],
    [47597,"43800,875","24,9","ND","1,1","183,1","26,5","63,8"],
    [47598,"43800,91667","38,2","ND","1,1","261,5","26,1","68,2"],
    [47599,"43800,95833","45","ND","1,1","167,6","25,4","69,6"],
    [47600,"43801","26,7","ND","1","270","24,5","73,3"],
    [47601,"43801,04167","16,5","ND","0,8","260,7","24,2","76,1"],
    [47602,"43801,08333","30,4","ND","0,7","287,3","23,7","79,7"],
    [47603,"43801,125","22,7","ND","0,5","207,7","23,5","81,3"],
    [47604,"43801,16667","31,3","ND","0,4","196,7","23,2","82,4"],
    [47605,"43801,20833","14,2","ND","0,8","128,1","23,1","82,9"],
    [47606,"43801,25","54,1","ND","0,8","231,3","21,8","95,2"],
    [47607,"43801,29167","40,8","ND","0,7","244,7","22","95,7"],
    [47608,"43801,33333","42,7","ND","0,8","229,4","22,7","90,5"],
    [47609,"43801,375","31,6","ND","0,5","165,4","24","82,1"],
    [47610,"43801,41667","41,4","ND","0,6","117,5","25,9","69,9"],
    [47611,"43801,45833","27,6","ND","1,3","185,7","27,2","63,5"],
    [47612,"43801,5","35","ND","1,2","180,9","28,8","58,3"],
    [47613,"43801,54167","35,6","ND","2,1","249,4","29,7","52,7"],
    [47614,"43801,58333","13,4","ND","2,8","173,3","30,5","48,3"],
    [47615,"43801,625","5,3","ND","3,5","336,2","30,6","48,3"],
    [47616,"43801,66667","20,1","ND","5,3","328,4","29,2","54,1"],
    [47617,"43801,70833","14","ND","6,1","325,7","27,4","59,2"],
    [47618,"43801,75","14,5","ND","6","333,3","26,5","61"],
    [47619,"43801,79167","9,5","ND","5,6","337","26","61,6"],
    [47620,"43801,83333","8,3","ND","3,7","300,7","26,1","61,8"],
    [47621,"43801,875","36,7","ND","1,3","181,6","25,4","69,1"],
    [47622,"43801,91667","43","ND","0,5","109,5","24,9","70,4"],
    [47623,"43801,95833","50,1","ND","1","265,6","24","75"],
    [47624,"43802","34,9","ND","0,9","239,2","23,6","76,7"],
    [47625,"43802,04167","29","ND","0,6","160,2","23,3","78,5"],
    [47626,"43802,08333","22,6","ND","0,6","257,9","22,6","80,7"],
    [47627,"43802,125","15,9","ND","0,7","225,1","22,5","81,5"],
    [47628,"43802,16667","18,3","ND","0,6","199,7","22,2","83"],
    [47629,"43802,20833","16,1","ND","0,8","230,5","21,9","84,7"],
    [47630,"43802,25","28,2","ND","0,9","223,8","22,1","84,2"],
    [47631,"43802,29167","36","ND","0,5","87,9","22,6","83,5"],
    [47632,"43802,33333","71,3","ND","0,8","167,9","23,1","81,4"],
    [47633,"43802,375","79,9","ND","0,8","150,2","24,2","75,3"],
    [47634,"43802,41667","81","ND","1,4","141,7","26,2","66,1"],
    [47635,"43802,45833","77,1","ND","0,9","158,3","27,2","62,7"],
    [47636,"43802,5","62,6","ND","1,8","244,7","28,1","56,9"],
    [47637,"43802,54167","33","ND","1,8","295,7","28,9","51,4"],
    [47638,"43802,58333","0,4","ND","2","228,7","29,7","49,3"],
    [47639,"43802,625","21,7","ND","3,6","209","29,8","49"],
    [47640,"43802,66667","11,2","ND","4","339","28,8","52"],
    [47641,"43802,70833","19,5","ND","4,2","330,3","27,4","56,2"],
    [47642,"43802,75","11,2","ND","4,4","335,6","26,1","60,6"],
    [47643,"43802,79167","21","ND","3,1","297,2","25,9","61,2"],
    [47644,"43802,83333","22,9","ND","1,6","193,6","24,7","71,3"],
    [47645,"43802,875","62,9","ND","0,7","248,3","24,2","73,2"],
    [47646,"43802,91667","53,8","ND","1,2","272,8","23,3","76,9"],
    [47647,"43802,95833","45,3","ND","0,9","270,5","23,6","75,7"],
    [47648,"43803","41,3","ND","0,8","274,1","23,7","76"],
    [47649,"43803,04167","34,1","ND","0,6","220,6","23,6","76,3"],
    [47650,"43803,08333","28,7","ND","0,9","179,1","23","79,6"],
    [47651,"43803,125","17,7","ND","0,7","135,8","22,6","81,4"],
    [47652,"43803,16667","17,8","ND","0,6","221,7","22,4","83,2"],
    [47653,"43803,20833","19,8","ND","0,4","152,9","22,4","84,1"],
    [47654,"43803,25","32,5","ND","0,9","136,9","21,9","88,2"],
    [47655,"43803,29167","41,6","ND","0,9","35,5","21,8","89,5"],
    [47656,"43803,33333","44,1","ND","0,7","220,8","22,6","84,2"],
    [47657,"43803,375","36,5","ND","0,6","145,7","24,3","74,4"],
    [47658,"43803,41667","37,9","ND","1","181,9","25,2","71,4"],
    [47659,"43803,45833","57,4","ND","1,3","160,1","26,6","65,1"],
    [47660,"43803,5","45,4","ND","1","74,5","27,8","58,9"],
    [47661,"43803,54167","33,2","ND","1,9","278,8","27,8","57,8"],
    [47662,"43803,58333","32,7","ND","3,2","281","28,6","54,3"],
    [47663,"43803,625","7","ND","3,6","329,1","28,9","50,4"],
    [47664,"43803,66667","ND","ND","4,2","339,9","28,3","52,3"],
    [47665,"43803,70833","22,2","ND","4,9","328,8","26,7","58,5"],
    [47666,"43803,75","28","ND","1,3","180,3","25,8","64,5"],
    [47667,"43803,79167","38,6","ND","2,7","244,7","24,7","66"],
    [47668,"43803,83333","29,7","ND","1,6","219","23","77,1"],
    [47669,"43803,875","43,9","ND","1,1","168,6","23,3","76,2"],
    [47670,"43803,91667","28,6","ND","1,2","161,7","22,9","78,5"],
    [47671,"43803,95833","29,8","ND","0,9","180,2","22,5","82,2"],
    [47672,"43804","26,5","ND","0,6","179,6","22,5","81,6"],
    [47673,"43804,04167","19,3","ND","0,8","111,9","22,4","82,1"],
    [47674,"43804,08333","18,6","ND","1,1","142,6","21,9","85,3"],
    [47675,"43804,125","11,4","ND","0,6","102,3","21,5","88,9"],
    [47676,"43804,16667","19,2","ND","0,7","177,3","21,3","90,7"],
    [47677,"43804,20833","14,6","ND","0,4","92,8","21,5","89,1"],
    [47678,"43804,25","29,9","ND","0,6","229,2","21,6","90"],
    [47679,"43804,29167","27,5","ND","0,6","218,2","22","86"],
    [47680,"43804,33333","31,2","ND","1,5","87,5","22,4","85,2"],
    [47681,"43804,375","94,2","ND","1,3","87,1","22,9","83,9"],
    [47682,"43804,41667","62,6","ND","0,7","127,4","24,2","75"],
    [47683,"43804,45833","44,7","ND","1","158,9","25,4","69,6"],
    [47684,"43804,5","43,8","ND","1,1","157,4","26,5","63,8"],
    [47685,"43804,54167","46,5","ND","0,9","163,7","27,9","56,4"],
    [47686,"43804,58333","53,6","ND","1,1","153","29,1","52,9"],
    [47687,"43804,625","58,2","ND","2,1","232,6","29,2","51,9"],
    [47688,"43804,66667","35,3","ND","3,3","292,8","29,2","51,9"],
    [47689,"43804,70833","15,9","ND","4,4","333,1","27,9","56,2"],
    [47690,"43804,75","22","ND","4,6","335,8","26,2","61"],
    [47691,"43804,79167","19,7","ND","4,8","324","25,7","62,9"],
    [47692,"43804,83333","20,1","ND","4,7","328,2","25,4","63,7"],
    [47693,"43804,875","11,3","ND","1,3","224,2","25,9","60,9"],
    [47694,"43804,91667","25,9","ND","0,8","201,6","24,7","71,6"],
    [47695,"43804,95833","65,6","ND","0,6","266,5","23,4","75,7"],
    [47696,"43805","42,4","ND","0,7","182,2","23,1","79"],
    [47697,"43805,04167","54,7","ND","0,6","232,7","22,8","81,4"],
    [47698,"43805,08333","43,6","ND","0,8","228,6","22,7","81"],
    [47699,"43805,125","33,2","ND","0,7","137,6","22,6","82,5"],
    [47700,"43805,16667","32","ND","0,6","111","21,2","91,8"],
    [47701,"43805,20833","16,4","ND","0,2","110,1","21,1","93,7"],
    [47702,"43805,25","16","ND","0,6","235,8","21,2","94,8"],
    [47703,"43805,29167","23,4","ND","0,7","243,5","21,4","93,8"],
    [47704,"43805,33333","34,2","ND","0,9","174,9","21,8","88,7"],
    [47705,"43805,375","25,4","ND","1,2","168,5","22,3","84,5"],
    [47706,"43805,41667","36,2","ND","0,9","151,5","23,1","79,5"],
    [47707,"43805,45833","35","ND","0,8","93","24,3","76,7"],
    [47708,"43805,5","40,2","ND","1,1","87","25,5","68,5"],
    [47709,"43805,54167","28","ND","0,9","135","26,5","62,4"],
    [47710,"43805,58333","26","ND","1","123,8","27,4","59,3"],
    [47711,"43805,625","29,7","ND","1,1","128,1","27,8","57,9"],
    [47712,"43805,66667","40,7","ND","2","280,5","28,1","55,2"],
    [47713,"43805,70833","17,2","ND","4","336,7","26,6","58,6"],
    [47714,"43805,75","17,1","ND","4,6","269,8","25,3","64,1"],
    [47715,"43805,79167","14,5","ND","4,3","301,7","24,2","67,3"],
    [47716,"43805,83333","9,9","ND","1,9","254,1","23,7","75,9"],
    [47717,"43805,875","52,4","ND","1,2","207","23,3","78"],
    [47718,"43805,91667","28,9","ND","1,1","187,8","22,9","79,9"],
    [47719,"43805,95833","17,9","ND","1,3","142,3","22,5","82,8"],
    [47720,"43806","28,5","ND","0,6","228,5","22,2","84,7"],
    [47721,"43806,04167","32,6","ND","0,5","184,4","22,5","83"],
    [47722,"43806,08333","30,9","ND","0,8","266,5","22,5","82,9"],
    [47723,"43806,125","25,2","ND","0,9","166,4","22,3","82,8"],
    [47724,"43806,16667","18,4","ND","1,2","97,9","21,6","88,2"],
    [47725,"43806,20833","31,6","ND","1","114,9","21,1","91"],
    [47726,"43806,25","14,8","ND","0,9","184,4","20,8","91,3"],
    [47727,"43806,29167","12","ND","0,8","162,4","20,3","94,4"],
    [47728,"43806,33333","16,5","ND","0,6","168,8","19,9","95,3"],
    [47729,"43806,375","12,3","ND","0,6","109,1","20,2","92,7"],
    [47730,"43806,41667","6,8","ND","0,4","80,9","21,2","87,5"],
    [47731,"43806,45833","20,5","ND","0,8","106,7","23,4","75,7"],
    [47732,"43806,5","5,5","ND","1","236,1","24,2","69,2"],
    [47733,"43806,54167","17,3","ND","1","192,6","25,6","64,5"],
    [47734,"43806,58333","23,8","ND","1,8","59,7","26,1","64,8"],
    [47735,"43806,625","55,3","ND","1,4","78","25,4","67,3"],
    [47736,"43806,66667","45,7","ND","1,4","158,9","23,9","74,3"],
    [47737,"43806,70833","39,6","ND","2,1","271,8","22,2","79,3"],
    [47738,"43806,75","21,5","ND","1,2","259,8","22,1","80,8"],
    [47739,"43806,79167","41,8","ND","1,2","274,3","21,9","83,4"],
    [47740,"43806,83333","40,9","ND","1,5","263,7","21,8","82,4"],
    [47741,"43806,875","47,2","ND","1,2","264,6","21,8","81,7"],
    [47742,"43806,91667","50","ND","0,8","248,9","21,7","83,2"],
    [47743,"43806,95833","88,3","ND","0,5","240,5","21,5","85,7"],
    [47744,"43807","99,9","ND","0,9","274,7","20,9","87,5"],
    [47745,"43807,04167","54,3","ND","0,7","269","20,5","88,3"],
    [47746,"43807,08333","44,4","ND","0,8","263,8","20,5","88,2"],
    [47747,"43807,125","39,5","ND","0,7","269,4","20,7","88,4"],
    [47748,"43807,16667","48","ND","0,7","275,4","20,6","89,3"],
    [47749,"43807,20833","50,7","ND","0,5","204,2","20,5","90,3"],
    [47750,"43807,25","50","ND","0,5","239,3","20,3","91,1"],
    [47751,"43807,29167","47,3","ND","0,7","268,3","20,3","90,9"],
    [47752,"43807,33333","51,5","ND","0,3","174,6","21,2","87,1"],
    [47753,"43807,375","50,7","ND","0,6","110","22,4","81,8"],
    [47754,"43807,41667","50","ND","0,6","182,4","24","72,4"],
    [47755,"43807,45833","35,9","ND","1,3","129,5","26,1","61,5"],
    [47756,"43807,5","22,6","ND","1,2","127,7","27,2","57,2"],
    [47757,"43807,54167","31,5","ND","1,4","53,7","27,5","57"],
    [47758,"43807,58333","39,1","ND","1,2","125,5","28,7","52,6"],
    [47759,"43807,625","41,6","ND","3,3","285,3","28","54,4"],
    [47760,"43807,66667","5,5","ND","3,5","306,5","27,8","54,3"],
    [47761,"43807,70833","11,8","ND","3,3","329,6","26,8","58,1"],
    [47762,"43807,75","12,5","ND","3,8","322,9","25,8","59,5"],
    [47763,"43807,79167","11,5","ND","3,8","325,7","25,5","58,6"],
    [47764,"43807,83333","10,6","ND","3,9","325,6","25,1","59,1"],
    [47765,"43807,875","14,8","ND","1,7","265","24,6","60,7"],
    [47766,"43807,91667","23,6","ND","1","263,9","22,8","68,3"],
    [47767,"43807,95833","37,4","ND","0,9","259,5","22","70,8"],
    [47768,"43808","23,2","ND","0,7","243","21,3","74,8"],
    [47769,"43808,04167","36,8","ND","1","278,4","20,4","78,5"],
    [47770,"43808,08333","22,8","ND","0,8","262,8","20,2","80,4"],
    [47771,"43808,125","23,7","ND","1,4","267,2","20,3","80"],
    [47772,"43808,16667","92,2","ND","0,7","273,8","20,2","82,2"],
    [47773,"43808,20833","77","ND","0,9","269,1","19,8","83"],
    [47774,"43808,25","37,7","ND","0,9","276,2","19,3","84,7"],
    [47775,"43808,29167","43,2","ND","1,1","270,3","19,6","84,2"],
    [47776,"43808,33333","54,1","ND","0,4","174,6","21,2","78,7"],
    [47777,"43808,375","55,9","ND","0,5","96,3","22,9","71"],
    [47778,"43808,41667","52,3","ND","1,1","143,4","24,2","67,8"],
    [47779,"43808,45833","74,2","ND","0,9","193,5","25,7","64,8"],
    [47780,"43808,5","53,8","ND","1","241,9","27,2","58,1"],
    [47781,"43808,54167","37","ND","1,5","222,8","28,8","50,5"],
    [47782,"43808,58333","48,5","ND","2,7","336,9","28,7","52,2"],
    [47783,"43808,625","34,9","ND","3,5","337,5","29,3","49,6"],
    [47784,"43808,66667","23,8","ND","3,9","340,1","28,9","50,9"],
    [47785,"43808,70833","24,5","ND","4,6","332,8","27,9","54,3"],
    [47786,"43808,75","25,7","ND","4,7","327,3","26,5","58,3"],
    [47787,"43808,79167","25,8","ND","4","327,3","26,3","58,6"],
    [47788,"43808,83333","21,8","ND","2","274,4","26,2","59"],
    [47789,"43808,875","25","ND","0,9","236,1","25,2","63,7"],
    [47790,"43808,91667","38,4","ND","0,6","221,2","24,3","67,5"],
    [47791,"43808,95833","39,4","ND","0,8","244,7","23,7","70,4"],
    [47792,"43809","41,1","ND","0,6","283,6","23,4","74,3"],
    [47793,"43809,04167","42,3","ND","0,5","242,9","22,8","78,6"],
    [47794,"43809,08333","45,2","ND","0,5","247,7","22,1","81,8"],
    [47795,"43809,125","31,6","ND","0,6","277,4","22,2","82,1"],
    [47796,"43809,16667","41,8","ND","0,9","268,4","21,6","85,3"],
    [47797,"43809,20833","39,2","ND","0,9","269,8","21,4","86,6"],
    [47798,"43809,25","43,3","ND","0,8","253,2","21","87,5"],
    [47799,"43809,29167","51,8","ND","0,7","272,3","21,3","86,6"],
    [47800,"43809,33333","62,9","ND","0,6","176,3","23,2","78,1"],
    [47801,"43809,375","59,1","ND","0,9","146,7","24,5","72"],
    [47802,"43809,41667","70,3","ND","1,2","117,1","25,4","68,3"],
    [47803,"43809,45833","59,3","ND","1,1","179,5","26,9","62,4"],
    [47804,"43809,5","53,5","ND","0,9","99,6","28,8","54,8"],
    [47805,"43809,54167","72,8","ND","1,4","274,7","29","51,8"],
    [47806,"43809,58333","20,4","ND","3,6","265,5","29,8","48,8"],
    [47807,"43809,625","7","ND","4,9","307","29,5","48,3"],
    [47808,"43809,66667","1,4","ND","4,6","332,7","28,9","51,1"],
    [47809,"43809,70833","ND","ND","3,5","334","27,6","55,3"],
    [47810,"43809,75","ND","ND","2","249,2","25,4","68,7"],
    [47811,"43809,79167","37,5","ND","4,6","321,2","24,9","64,6"],
    [47812,"43809,83333","16,2","ND","1,7","268,2","24,7","68,2"],
    [47813,"43809,875","34,6","ND","1,2","285,2","23,6","75,4"],
    [47814,"43809,91667","57,7","ND","0,8","238,4","23,6","74,4"],
    [47815,"43809,95833","35,3","ND","0,6","215,5","23,6","74,1"],
    [47816,"43810","27,2","ND","0,7","199,4","23,5","76,8"],
    [47817,"43810,04167","41,7","ND","0,8","220,1","22,8","80,6"],
    [47818,"43810,08333","31,1","ND","0,7","191","22","84,7"],
    [47819,"43810,125","17,2","ND","0,6","225,2","22,1","85,1"],
    [47820,"43810,16667","18,8","ND","0,6","253,3","22","84,9"],
    [47821,"43810,20833","21,1","ND","0,7","247,9","21,8","86,5"],
    [47822,"43810,25","28,4","ND","0,8","269,7","21,5","86,8"],
    [47823,"43810,29167","35,8","ND","0,4","182,1","21,9","85,3"],
    [47824,"43810,33333","60,1","ND","1,3","133,8","22,1","85,4"],
    [47825,"43810,375","54,3","ND","0,5","189","22,7","83,3"],
    [47826,"43810,41667","54","ND","0,9","142,7","24","75,2"],
    [47827,"43810,45833","61,6","ND","1,1","125,4","26","66,9"],
    [47828,"43810,5","64,7","ND","1,6","170","26,4","63,1"],
    [47829,"43810,54167","47,8","ND","2,1","257,5","25","72,8"],
    [47830,"43810,58333","34,7","ND","3","322,5","26,7","60,6"],
    [47831,"43810,625","13,7","ND","3,6","341,3","27,1","58,5"],
    [47832,"43810,66667","11,6","ND","2,8","331","27","58,1"],
    [47833,"43810,70833","18,1","ND","3,9","335,5","26,2","58,7"],
    [47834,"43810,75","19,6","ND","3,8","323,6","25,5","61,4"],
    [47835,"43810,79167","20,6","ND","3,9","328,1","24,8","63,4"],
    [47836,"43810,83333","17","ND","3,6","333,5","24,4","64,7"],
    [47837,"43810,875","16,9","ND","3,4","332","24,5","63,7"],
    [47838,"43810,91667","17,9","ND","1,5","205,4","23,6","73,6"],
    [47839,"43810,95833","37,7","ND","1,2","205,4","23","77,8"],
    [47840,"43811","34,9","ND","0,8","192,2","22,7","79,1"],
    [47841,"43811,04167","27,5","ND","0,8","257,8","21,9","83,3"],
    [47842,"43811,08333","27,5","ND","0,7","252,8","21,7","85,2"],
    [47843,"43811,125","30,5","ND","0,7","270,1","21,6","85,1"],
    [47844,"43811,16667","27","ND","0,3","187,1","21,6","85,7"],
    [47845,"43811,20833","26,8","ND","0,8","270,9","21,5","86,6"],
    [47846,"43811,25","31,8","ND","0,7","218,1","21,6","87,6"],
    [47847,"43811,29167","35,8","ND","0,8","180,4","21,3","90,3"],
    [47848,"43811,33333","37,5","ND","0,7","191,6","21,6","89,2"],
    [47849,"43811,375","47,8","ND","0,4","143,3","22,9","80,6"],
    [47850,"43811,41667","38,4","ND","0,7","141,8","24,6","71,5"],
    [47851,"43811,45833","35,6","ND","1,2","141,9","25,5","67,6"],
    [47852,"43811,5","40,8","ND","1,7","81,9","24","75,5"],
    [47853,"43811,54167","38,4","ND","0,9","228,4","24,5","72,2"],
    [47854,"43811,58333","28,1","ND","1,3","169,4","27,8","58"],
    [47855,"43811,625","41,2","ND","1,1","178","27,7","58,1"],
    [47856,"43811,66667","33,3","ND","1,6","282,5","27,9","57,2"],
    [47857,"43811,70833","30,6","ND","4,1","332,3","26","61,3"],
    [47858,"43811,75","17,2","ND","3,9","331,1","25,4","61,6"],
    [47859,"43811,79167","19,3","ND","1,1","215,9","25","63,2"],
    [47860,"43811,83333","34,3","ND","0,8","204","24,2","68,8"],
    [47861,"43811,875","56,9","ND","1","171,5","23,3","74,9"],
    [47862,"43811,91667","60,1","ND","0,8","253,4","22,7","78,8"],
    [47863,"43811,95833","49,6","ND","1,1","174,6","22,6","80,4"],
    [47864,"43812","37,2","ND","1,2","194,1","22","84"],
    [47865,"43812,04167","20,9","ND","1","197","21,6","86,6"],
    [47866,"43812,08333","13,6","ND","0,9","194,2","21,5","84,7"],
    [47867,"43812,125","8,6","ND","0,6","182,4","21,4","86,4"],
    [47868,"43812,16667","14,6","ND","0,6","73,3","21,4","87,1"],
    [47869,"43812,20833","14,4","ND","0,7","90,9","21,5","87,5"],
    [47870,"43812,25","22,5","ND","0,5","145,8","21,2","91"],
    [47871,"43812,29167","27","ND","0,9","266,9","20,4","96,3"],
    [47872,"43812,33333","19,7","ND","0,8","240,4","20,4","95,5"],
    [47873,"43812,375","19,9","ND","0,4","195,9","21,2","90,6"],
    [47874,"43812,41667","16,2","ND","0,6","208,2","22,4","83,6"],
    [47875,"43812,45833","22,3","ND","0,7","92,7","24","76"],
    [47876,"43812,5","30,5","ND","1,7","194,1","24","76,6"],
    [47877,"43812,54167","ND","ND","1,8","261,4","22,7","84,4"],
    [47878,"43812,58333","11,4","ND","0,8","271,1","25,2","68,3"],
    [47879,"43812,625","24","ND","1,8","274,4","24,8","76,1"],
    [47880,"43812,66667","29,2","ND","3","318,1","24,3","74,4"],
    [47881,"43812,70833","9,5","ND","3","300,3","23,3","79,2"],
    [47882,"43812,75","14,7","ND","1,7","275,6","22","88"],
    [47883,"43812,79167","18","ND","1,1","277","21,9","85,4"],
    [47884,"43812,83333","17,3","ND","0,8","283,3","21,9","83,2"],
    [47885,"43812,875","29,8","ND","0,7","193,9","22,7","81"],
    [47886,"43812,91667","71,1","ND","0,9","278,8","21,8","86,6"],
    [47887,"43812,95833","44,6","ND","1,5","227","21,9","83,6"],
    [47888,"43813","20,5","ND","0,7","208,3","21,2","90,5"],
    [47889,"43813,04167","23,9","ND","0,4","216,8","21,2","90,1"],
    [47890,"43813,08333","22,7","ND","1","173,8","21,3","91,3"],
    [47891,"43813,125","22,8","ND","0,9","211,3","20,9","92,7"],
    [47892,"43813,16667","14","ND","1,3","253,3","20,9","92,1"],
    [47893,"43813,20833","16","ND","1,2","257,3","20,6","94,4"],
    [47894,"43813,25","14,3","ND","0,9","247,6","20,2","96,3"],
    [47895,"43813,29167","13,2","ND","0,6","198","20,3","97,2"],
    [47896,"43813,33333","22,8","ND","0,5","218,3","20,8","93,6"],
    [47897,"43813,375","20,7","ND","0,4","197,8","22,4","85,7"],
    [47898,"43813,41667","36,2","ND","0,7","159,1","23,4","78,5"],
    [47899,"43813,45833","34,6","ND","0,8","161,5","24,2","75,2"],
    [47900,"43813,5","38,8","ND","1","271,6","24,8","73,1"],
    [47901,"43813,54167","37,8","ND","1,4","224","26,3","67,4"],
    [47902,"43813,58333","28,9","ND","1,4","235,2","27","63,4"],
    [47903,"43813,625","27,1","ND","3","300,7","26","65,2"],
    [47904,"43813,66667","16,8","ND","2,2","306,2","25,1","67,4"],
    [47905,"43813,70833","20,9","ND","3,2","312,9","25,6","65,2"],
    [47906,"43813,75","15,1","ND","3,3","324,6","25,2","65,4"],
    [47907,"43813,79167","17","ND","1,2","255,9","24,8","66,5"],
    [47908,"43813,83333","25,7","ND","1,3","234,9","24,2","68,5"],
    [47909,"43813,875","36,9","ND","1,3","200,5","23,3","77,7"],
    [47910,"43813,91667","39,3","ND","1,3","180,5","22,4","84,1"],
    [47911,"43813,95833","28,4","ND","0,7","205,5","21,9","88,9"],
    [47912,"43814","26,3","ND","0,8","258,6","21,2","93"],
    [47913,"43814,04167","24,5","ND","0,6","194,8","21,2","92,7"],
    [47914,"43814,08333","26,3","ND","1,1","272,5","20,8","92,3"],
    [47915,"43814,125","21,1","ND","0,6","244,8","20,9","91,2"],
    [47916,"43814,16667","26,6","ND","0,5","179,1","20,8","93,2"],
    [47917,"43814,20833","27,3","ND","0,7","110,6","20,7","94,6"],
    [47918,"43814,25","30,1","ND","0,5","157,2","20,6","95,5"],
    [47919,"43814,29167","33,8","ND","0,6","277,3","20,7","93,3"],
    [47920,"43814,33333","39,5","ND","0,4","184,2","22,5","83,1"],
    [47921,"43814,375","34,7","ND","0,8","109,7","23,4","78,1"],
    [47922,"43814,41667","51,1","ND","1,1","60,5","23,6","77,5"],
    [47923,"43814,45833","48,2","ND","0,9","209,5","24,8","71,2"],
    [47924,"43814,5","42,8","ND","1","134,4","26,3","65"],
    [47925,"43814,54167","37,1","ND","1,1","127,5","27,2","61,6"],
    [47926,"43814,58333","27,3","ND","0,5","96,3","27,8","58,3"],
    [47927,"43814,625","26,7","ND","1","167,8","28,6","55,6"],
    [47928,"43814,66667","30,9","ND","2,7","201,7","28","58,6"],
    [47929,"43814,70833","27,7","ND","3,3","313,5","27,5","58,7"],
    [47930,"43814,75","12,7","ND","3,4","334,5","26,5","61,4"],
    [47931,"43814,79167","15,1","ND","1,8","282,4","25,6","64,4"],
    [47932,"43814,83333","25,5","ND","1,1","257,9","24,6","69,4"],
    [47933,"43814,875","39,4","ND","0,8","238,5","24,6","68,5"],
    [47934,"43814,91667","40,6","ND","1","267,2","23,6","72,6"],
    [47935,"43814,95833","33,3","ND","0,8","242,5","23,2","74,4"],
    [47936,"43815","32,8","ND","0,9","275,5","22,4","78,3"],
    [47937,"43815,04167","29,1","ND","1","268,7","22","80,9"],
    [47938,"43815,08333","22,9","ND","0,8","257,2","21,5","84"],
    [47939,"43815,125","24,1","ND","1","280,3","20,8","86,9"],
    [47940,"43815,16667","23,4","ND","1,2","270,8","20,8","87,4"],
    [47941,"43815,20833","29,2","ND","0,5","195,6","21,3","87,1"],
    [47942,"43815,25","36,2","ND","0,8","256,3","20,7","93,4"],
    [47943,"43815,29167","32,3","ND","0,7","214","20,6","94,4"],
    [47944,"43815,33333","38,5","ND","0,6","260,3","21,4","91,1"],
    [47945,"43815,375","57,2","ND","1","191","23,3","82,7"],
    [47946,"43815,41667","55,8","ND","1,3","171,8","25","75,1"],
    [47947,"43815,45833","47","ND","1,3","159,1","26,4","67,7"],
    [47948,"43815,5","44,8","ND","1,1","125,6","28,1","59,3"],
    [47949,"43815,54167","47,3","ND","1,7","215,7","28,5","56,1"],
    [47950,"43815,58333","21,4","ND","2","31,8","29,5","52,2"],
    [47951,"43815,625","13","ND","2,1","132,4","30,3","47,7"],
    [47952,"43815,66667","12,5","ND","3","323,9","29,9","49,2"],
    [47953,"43815,70833","17,4","ND","2,2","205,5","27,7","62,5"],
    [47954,"43815,75","33,8","ND","1,2","83,9","23,2","89,4"],
    [47955,"43815,79167","34,4","ND","0,9","216,9","23,1","90,3"],
    [47956,"43815,83333","30,4","ND","1,1","185,5","23,5","87,4"],
    [47957,"43815,875","33,3","ND","1,2","238,9","23,7","82,5"],
    [47958,"43815,91667","42,2","ND","0,9","231,2","23,2","91"],
    [47959,"43815,95833","53","ND","0,9","267,4","22,7","90,7"],
    [47960,"43816","41,8","ND","0,9","267,1","22,1","90,7"],
    [47961,"43816,04167","31,1","ND","0,9","256,1","21,7","91,5"],
    [47962,"43816,08333","28,9","ND","0,7","231,8","21,5","91,5"],
    [47963,"43816,125","26,8","ND","0,5","226,1","21,7","92,1"],
    [47964,"43816,16667","29","ND","0,8","275,9","21,6","92,2"],
    [47965,"43816,20833","29,7","ND","0,4","195,1","22","90,1"],
    [47966,"43816,25","39,2","ND","0,3","117,6","22,1","90,8"],
    [47967,"43816,29167","66,7","ND","0,2","92,3","22,2","90,1"],
    [47968,"43816,33333","92,9","ND","0,7","110,4","22,7","87,9"],
    [47969,"43816,375","91,1","ND","0,8","170,2","23,4","86,2"],
    [47970,"43816,41667","91,3","ND","1,1","191,8","24,6","79,3"],
    [47971,"43816,45833","74,8","ND","1,3","181,9","25,6","72,7"],
    [47972,"43816,5","49","ND","0,8","155,7","26,5","65,8"],
    [47973,"43816,54167","ND","ND","0,9","110,7","28,4","58,8"],
    [47974,"43816,58333","ND","ND","1,9","280,7","28,2","58,6"],
    [47975,"43816,625","21,3","ND","2","252,3","26,7","67,4"],
    [47976,"43816,66667","25,8","ND","2,8","32,3","26,4","68,1"],
    [47977,"43816,70833","38,4","ND","2,4","60","25,5","72,7"],
    [47978,"43816,75","49,8","ND","2,2","105,3","24,7","73,6"],
    [47979,"43816,79167","41,9","ND","2","321,5","24,8","68,8"],
    [47980,"43816,83333","22,4","ND","0,7","192,4","24,5","76,1"],
    [47981,"43816,875","71,9","ND","1,8","209,3","23,5","82,1"],
    [47982,"43816,91667","47,3","ND","0,8","235,4","23,4","80,9"],
    [47983,"43816,95833","39,9","ND","1","272","23","84,7"],
    [47984,"43817","41,1","ND","0,7","197,2","22,9","85,4"],
    [47985,"43817,04167","41,7","ND","0,7","110,9","22,6","87,2"],
    [47986,"43817,08333","37,9","ND","0,6","129,9","22,2","86,8"],
    [47987,"43817,125","22,3","ND","0,6","211,2","21,8","90,6"],
    [47988,"43817,16667","20,6","ND","1,1","268,2","21,1","92,7"],
    [47989,"43817,20833","15,9","ND","0,7","200,6","21,1","93,2"],
    [47990,"43817,25","28,2","ND","0,6","268,3","21","92,9"],
    [47991,"43817,29167","44,9","ND","1","266,3","21,1","93,3"],
    [47992,"43817,33333","52,3","ND","0,7","202","22,2","87,3"],
    [47993,"43817,375","68","ND","1,2","179,1","23,3","81,7"],
    [47994,"43817,41667","55,1","ND","1,4","212,1","24","78,7"],
    [47995,"43817,45833","50","ND","0,7","219,8","25,9","68"],
    [47996,"43817,5","38,6","ND","1,3","154,9","28","57,6"],
    [47997,"43817,54167","40,1","ND","1,2","95,9","28,6","56,9"],
    [47998,"43817,58333","46,1","ND","3","304,1","26,4","64,1"],
    [47999,"43817,625","32,6","ND","1","141,6","22,3","89,6"],
    [48000,"43817,66667","15,8","ND","2,4","240,6","25,8","71,8"],
    [48001,"43817,70833","8,7","ND","3,2","227,6","25,9","66,6"],
    [48002,"43817,75","16,5","ND","3,8","337,2","25,6","65"],
    [48003,"43817,79167","16,6","ND","2,2","280,5","25","66,1"],
    [48004,"43817,83333","29,5","ND","1","282,4","23,2","79,2"],
    [48005,"43817,875","45,7","ND","0,8","269,2","22,8","80,3"],
    [48006,"43817,91667","42,8","ND","1,6","236,5","23,1","76,8"],
    [48007,"43817,95833","35,6","ND","0,8","278,8","22","83,9"],
    [48008,"43818","38,3","ND","0,9","264,2","21,4","88,1"],
    [48009,"43818,04167","46,5","ND","0,9","270,7","20,7","90,4"],
    [48010,"43818,08333","36,3","ND","0,8","278,6","20,2","91,6"],
    [48011,"43818,125","34,2","ND","1,1","275,4","20","91,7"],
    [48012,"43818,16667","30,1","ND","0,7","239,2","20,3","91,3"],
    [48013,"43818,20833","30,5","ND","0,9","254,1","20,5","91,4"],
    [48014,"43818,25","37,9","ND","0,8","226","20,7","91,2"],
    [48015,"43818,29167","61,2","ND","0,6","213,2","20,6","92,1"],
    [48016,"43818,33333","86,7","ND","0,7","270,1","21,5","87,6"],
    [48017,"43818,375","75,3","ND","0,7","273,4","23,2","78,9"],
    [48018,"43818,41667","67,4","ND","0,8","173,7","25,5","69,6"],
    [48019,"43818,45833","52,1","ND","0,9","113","27,1","63,3"],
    [48020,"43818,5","47,8","ND","1,1","126","28,1","59,1"],
    [48021,"43818,54167","48,9","ND","1,1","148,4","28,8","56,3"],
    [48022,"43818,58333","47","ND","1","128,8","30","52,8"],
    [48023,"43818,625","51,9","ND","1,5","207,8","30,1","51,6"],
    [48024,"43818,66667","46,9","ND","3,4","336,2","29,7","52,7"],
    [48025,"43818,70833","19,8","ND","4,3","330,6","28,4","54,9"],
    [48026,"43818,75","18,9","ND","5,1","327,7","26,9","60,2"],
    [48027,"43818,79167","22,6","ND","5,1","322,3","26,4","62,3"],
    [48028,"43818,83333","18,3","ND","4,5","331,2","26,3","63"],
    [48029,"43818,875","18,4","ND","2,2","300,1","26,2","64"],
    [48030,"43818,91667","25,6","ND","0,7","204,9","25,6","67,3"],
    [48031,"43818,95833","52,9","ND","0,7","206,3","24,3","78,4"],
    [48032,"43819","65,9","ND","0,7","237,5","23,4","82,2"],
    [48033,"43819,04167","54,1","ND","0,4","195,1","22,9","83,8"],
    [48034,"43819,08333","47,3","ND","0,7","209,7","22,5","85,3"],
    [48035,"43819,125","39,1","ND","0,7","243,4","22","88"],
    [48036,"43819,16667","35","ND","0,7","226,1","22","86,7"],
    [48037,"43819,20833","33,7","ND","0,7","266,7","22,1","87,2"],
    [48038,"43819,25","39,3","ND","0,7","268,2","22,1","87,5"],
    [48039,"43819,29167","64","ND","0,6","198,9","22,1","86,5"],
    [48040,"43819,33333","75,5","ND","0,6","117,8","23,1","82,8"],
    [48041,"43819,375","114,6","ND","0,9","212,3","23,9","80,5"],
    [48042,"43819,41667","100,9","ND","1,1","129,8","25,9","70,3"],
    [48043,"43819,45833","52,6","ND","1,4","168,4","26,9","67,3"],
    [48044,"43819,5","63,4","ND","1,3","160,2","27,2","65,1"],
    [48045,"43819,54167","55","ND","0,8","146,2","28","61,8"],
    [48046,"43819,58333","52,4","ND","1,1","166,3","28,8","59,2"],
    [48047,"43819,625","60,2","ND","2","268","28,5","58,1"],
    [48048,"43819,66667","30,9","ND","3,4","344,5","28","58,1"],
    [48049,"43819,70833","19,1","ND","3,9","335,6","27,6","59,5"],
    [48050,"43819,75","19,2","ND","4,2","327,7","26,8","61,9"],
    [48051,"43819,79167","17,3","ND","4,2","332,3","26,2","62,8"],
    [48052,"43819,83333","16","ND","3,2","316,2","25,9","64,4"],
    [48053,"43819,875","25,7","ND","1","243,2","25,8","66,9"],
    [48054,"43819,91667","49,7","ND","0,9","244","25,4","71,9"],
    [48055,"43819,95833","58,8","ND","0,8","267,4","24,4","76,1"],
    [48056,"43820","47","ND","1","263,6","23,6","80"],
    [48057,"43820,04167","41","ND","0,7","259,9","23,5","80,6"],
    [48058,"43820,08333","44,2","ND","0,6","222","22,9","83,8"],
    [48059,"43820,125","33,6","ND","0,6","109,4","22,8","85"],
    [48060,"43820,16667","46,2","ND","0,3","134,7","22,4","86,2"],
    [48061,"43820,20833","40,8","ND","0,8","278,2","22,2","87,9"],
    [48062,"43820,25","40,3","ND","0,7","258,1","22,1","87,7"],
    [48063,"43820,29167","48","ND","0,9","262,4","22,2","86,9"],
    [48064,"43820,33333","54,4","ND","0,7","151,1","23,3","81,5"],
    [48065,"43820,375","63","ND","0,7","61,4","24,3","76,4"],
    [48066,"43820,41667","63,5","ND","0,6","136,7","24,9","75,5"],
    [48067,"43820,45833","95,3","ND","1,1","158","25,6","72,3"],
    [48068,"43820,5","66,5","ND","0,7","106,4","27,1","65,6"],
    [48069,"43820,54167","51,3","ND","1,2","164,9","28,6","59,2"],
    [48070,"43820,58333","57,5","ND","0,9","136,3","29","57,7"],
    [48071,"43820,625","61,2","ND","1,9","248,7","28,6","58,4"],
    [48072,"43820,66667","40,8","ND","2,7","346,9","27,9","60,5"],
    [48073,"43820,70833","19,6","ND","2,9","306,4","27,5","61,3"],
    [48074,"43820,75","25,2","ND","3,4","332,6","27,1","60,6"],
    [48075,"43820,79167","23,9","ND","3,7","338,7","26","65"],
    [48076,"43820,83333","18","ND","3,4","318,8","26","64,2"],
    [48077,"43820,875","18,3","ND","2","258,4","25,4","66,4"],
    [48078,"43820,91667","30,1","ND","0,9","254,1","24,6","71,4"],
    [48079,"43820,95833","57,3","ND","0,7","234,8","24,1","73,4"],
    [48080,"43821","45,1","ND","0,6","183,8","23,7","75,9"],
    [48081,"43821,04167","54,4","ND","0,6","143,7","23","82,5"],
    [48082,"43821,08333","57,4","ND","0,7","241,7","22,1","86,9"],
    [48083,"43821,125","53,2","ND","0,5","144,5","21,8","87,7"],
    [48084,"43821,16667","47,7","ND","1","273,9","21,5","88,7"],
    [48085,"43821,20833","41,2","ND","0,9","273,6","21,7","88,1"],
    [48086,"43821,25","41","ND","0,6","252,1","22,2","86,1"],
    [48087,"43821,29167","43,2","ND","0,6","182,3","22,4","85,9"],
    [48088,"43821,33333","56,5","ND","0,8","111","23,7","79,1"],
    [48089,"43821,375","48,3","ND","0,7","68,3","24,6","75"],
    [48090,"43821,41667","51,8","ND","0,7","92,6","25,2","71,6"],
    [48091,"43821,45833","43,7","ND","1","108,4","26,6","65,9"],
    [48092,"43821,5","47,7","ND","1,2","94,5","27,1","64,9"],
    [48093,"43821,54167","76,9","ND","0,9","93,1","28,8","58,8"],
    [48094,"43821,58333","72,3","ND","1,5","141","29,4","55,8"],
    [48095,"43821,625","65,8","ND","1,2","123,3","29,7","54,8"],
    [48096,"43821,66667","47,3","ND","3,8","341,9","28,7","56,4"],
    [48097,"43821,70833","17,8","ND","3,8","339,7","28","58,5"],
    [48098,"43821,75","17,7","ND","3,9","341,5","27,2","60,7"],
    [48099,"43821,79167","20,4","ND","4,2","328,2","26,3","63,1"],
    [48100,"43821,83333","16,7","ND","4,3","322,2","26","63,3"],
    [48101,"43821,875","19","ND","3,2","301,1","26,1","62,9"],
    [48102,"43821,91667","18,5","ND","1,1","200,8","26,1","62,1"],
    [48103,"43821,95833","24,9","ND","0,7","159,8","25,4","69,8"],
    [48104,"43822","59,6","ND","0,8","207,6","24,5","75,8"],
    [48105,"43822,04167","43,7","ND","0,6","262,5","24,2","75,9"],
    [48106,"43822,08333","40,3","ND","1,6","206,4","23,2","85,2"],
    [48107,"43822,125","38,4","ND","0,9","226,1","21,9","95,8"],
    [48108,"43822,16667","23,5","ND","0,7","154,2","22","96,4"],
    [48109,"43822,20833","18,6","ND","0,9","200,1","21,8","96,9"],
    [48110,"43822,25","18,3","ND","0,6","215,9","21,4","96,4"],
    [48111,"43822,29167","15,6","ND","0,7","202,7","21,2","98,1"],
    [48112,"43822,33333","27,2","ND","0,8","263,3","22,1","93,6"],
    [48113,"43822,375","23,1","ND","0,5","93,2","23,5","85,6"],
    [48114,"43822,41667","38,4","ND","1,1","161,1","24,7","79,9"],
    [48115,"43822,45833","41,8","ND","0,9","131,6","26,5","71,7"],
    [48116,"43822,5","39,3","ND","1","117,8","27,9","65,3"],
    [48117,"43822,54167","47,5","ND","1,4","168,9","27,7","65,8"],
    [48118,"43822,58333","40,2","ND","1","177,2","28","65,3"],
    [48119,"43822,625","41,5","ND","1,7","73,4","29,1","58,4"],
    [48120,"43822,66667","21,7","ND","3,3","201,6","28,9","57"],
    [48121,"43822,70833","14,3","ND","3,9","290,7","27,4","62,8"],
    [48122,"43822,75","8,9","ND","3","330,2","26,8","61,4"],
    [48123,"43822,79167","18,7","ND","2,1","328,4","26,3","61,8"],
    [48124,"43822,83333","19,1","ND","1,4","213,2","26,3","63,1"],
    [48125,"43822,875","29","ND","0,8","161,5","25,1","77,8"],
    [48126,"43822,91667","66,1","ND","0,8","255,4","23,6","83,8"],
    [48127,"43822,95833","50,5","ND","1","276,7","22,6","83,5"],
    [48128,"43823","34,9","ND","1","277,5","22,3","83,7"],
    [48129,"43823,04167","29","ND","1,1","277,4","22,1","83,7"],
    [48130,"43823,08333","26,2","ND","0,8","260,8","22,1","83,9"],
    [48131,"43823,125","19","ND","0,6","185,1","22,3","82,8"],
    [48132,"43823,16667","22,9","ND","0,3","115,5","22,2","85,1"],
    [48133,"43823,20833","29,3","ND","0,6","127,2","22,2","87"],
    [48134,"43823,25","49,9","ND","1","258,7","21,8","88,2"],
    [48135,"43823,29167","45,1","ND","0,7","257,1","21,6","89,9"],
    [48136,"43823,33333","66,3","ND","0,5","165,2","23,1","82,5"],
    [48137,"43823,375","56,9","ND","0,9","149,6","25,1","74,2"],
    [48138,"43823,41667","48,7","ND","1","145,6","26,2","69,2"],
    [48139,"43823,45833","37,6","ND","1,6","173,1","27,1","65,8"],
    [48140,"43823,5","35,5","ND","1,1","182,9","27,9","63,7"],
    [48141,"43823,54167","36,6","ND","1,3","157,9","28,8","60,7"],
    [48142,"43823,58333","40,2","ND","1,4","185,4","29,8","56,9"],
    [48143,"43823,625","38,9","ND","1,8","215,2","29,9","55,2"],
    [48144,"43823,66667","29,8","ND","4,1","303,7","28,4","57,9"],
    [48145,"43823,70833","16,5","ND","4,1","344,8","27,9","61,4"],
    [48146,"43823,75","12,1","ND","4,3","331,9","27,4","61,8"],
    [48147,"43823,79167","21,5","ND","4,4","314,5","26,6","63,8"],
    [48148,"43823,83333","13,2","ND","3,7","321,5","26,6","62,9"],
    [48149,"43823,875","17","ND","2","281,7","26,4","63,9"],
    [48150,"43823,91667","22,9","ND","0,9","238,9","26,2","65,3"],
    [48151,"43823,95833","27,8","ND","0,6","248","25,6","70,5"],
    [48152,"43824","64,3","ND","0,6","163,9","25,5","73,6"],
    [48153,"43824,04167","62","ND","0,9","136,8","24,5","82"],
    [48154,"43824,08333","66,7","ND","0,8","156,5","24,1","82,5"],
    [48155,"43824,125","52,9","ND","1,1","139,1","23,7","84,1"],
    [48156,"43824,16667","39,5","ND","1,2","194","23","88,4"],
    [48157,"43824,20833","33,8","ND","1,8","248,4","20,9","97,3"],
    [48158,"43824,25","13,4","ND","0,2","110,2","21,6","98,1"],
    [48159,"43824,29167","22,9","ND","0,7","282,7","21,9","98,3"],
    [48160,"43824,33333","22,6","ND","0,5","270,9","22,1","96,6"],
    [48161,"43824,375","27,3","ND","0,5","200,7","23,1","91,5"],
    [48162,"43824,41667","29,1","ND","0,7","101,7","24,8","82"],
    [48163,"43824,45833","44,3","ND","1,3","157,8","26,1","75,9"],
    [48164,"43824,5","37,6","ND","0,7","196,8","26,8","70,1"],
    [48165,"43824,54167","33,2","ND","0,9","201,5","28","63,6"],
    [48166,"43824,58333","27,8","ND","1","158,7","28,8","62,1"],
    [48167,"43824,625","29,9","ND","1,1","213,7","30","57,7"],
    [48168,"43824,66667","26,4","ND","1,9","190,1","30","56,3"],
    [48169,"43824,70833","15,2","ND","3,2","246,8","26,8","71,1"],
    [48170,"43824,75","21,9","ND","3,9","335,6","26,1","69,9"],
    [48171,"43824,79167","3","ND","4","338,4","26,2","67"],
    [48172,"43824,83333","11,2","ND","4,1","323,1","26,5","64,2"],
    [48173,"43824,875","23","ND","1","171","26,2","67,7"],
    [48174,"43824,91667","42,8","ND","0,9","181,4","25,2","77"],
    [48175,"43824,95833","55,8","ND","0,7","147","24,5","79,3"],
    [48176,"43825","40,8","ND","0,8","251","23,4","86,1"],
    [48177,"43825,04167","51,3","ND","1,4","270","22,5","88,8"],
    [48178,"43825,08333","31,5","ND","0,7","233,3","22,9","86,3"],
    [48179,"43825,125","39,5","ND","0,6","211,7","22,7","88,8"],
    [48180,"43825,16667","50,8","ND","0,6","215,3","22,6","89"],
    [48181,"43825,20833","49,3","ND","0,8","244,1","22,3","90,1"],
    [48182,"43825,25","40,4","ND","1","267,2","21,8","91,4"],
    [48183,"43825,29167","41,2","ND","0,6","219,1","21,4","91,6"],
    [48184,"43825,33333","67","ND","0,7","274,3","22,3","87,3"],
    [48185,"43825,375","64,5","ND","0,8","176,2","24,9","75,7"],
    [48186,"43825,41667","50,7","ND","1","150,6","26,7","68,8"],
    [48187,"43825,45833","36,1","ND","1","150,1","27,7","64,2"],
    [48188,"43825,5","32","ND","0,8","140,2","28,8","61,1"],
    [48189,"43825,54167","38,2","ND","1","141,1","30,2","55,3"],
    [48190,"43825,58333","50,4","ND","1,8","200,9","30,8","52,2"],
    [48191,"43825,625","42,6","ND","3,2","336","31","50,6"],
    [48192,"43825,66667","17,4","ND","4,4","338,4","30,3","53,4"],
    [48193,"43825,70833","22,4","ND","4,3","320,8","29,8","54"],
    [48194,"43825,75","24,3","ND","4,8","333,5","28,2","59,7"],
    [48195,"43825,79167","24,5","ND","4,6","328,5","27,5","62"],
    [48196,"43825,83333","22,4","ND","4,2","325,8","27,6","61,4"],
    [48197,"43825,875","27,1","ND","4,3","322,3","27,4","62,3"],
    [48198,"43825,91667","26,4","ND","1,5","215,8","27","66,9"],
    [48199,"43825,95833","52,1","ND","0,9","186,6","25,7","75,6"],
    [48200,"43826","58,7","ND","0,8","213,2","25,3","77,9"],
    [48201,"43826,04167","61,5","ND","0,8","204,2","24,9","79,3"],
    [48202,"43826,08333","36,1","ND","0,8","193,5","24,7","78,8"],
    [48203,"43826,125","30,8","ND","0,7","166","24,3","80,6"],
    [48204,"43826,16667","42,4","ND","0,4","125,5","24","83,6"],
    [48205,"43826,20833","43,8","ND","0,7","133,3","24","84,5"],
    [48206,"43826,25","41,7","ND","0,6","254","23,5","86,9"],
    [48207,"43826,29167","64,2","ND","0,6","149,1","23,1","88,2"],
    [48208,"43826,33333","68,6","ND","0,6","233,4","23,6","86,3"],
    [48209,"43826,375","ND","ND","0,6","269,3","24,5","82,4"],
    [48210,"43826,41667","60,6","ND","0,4","165,9","25,3","76,6"],
    [48211,"43826,45833","36,6","ND","1,1","158,9","26,6","70,3"],
    [48212,"43826,5","34,1","ND","1","195,2","27,9","64,4"],
    [48213,"43826,54167","30,8","ND","0,9","93,4","28,8","60,1"],
    [48214,"43826,58333","40,8","ND","1,2","131,1","28,9","60,5"],
    [48215,"43826,625","68,1","ND","3,1","257,9","29,2","55,9"],
    [48216,"43826,66667","26","ND","3","331,6","28,2","58,3"],
    [48217,"43826,70833","33,9","ND","3,2","333,1","27,3","61,6"],
    [48218,"43826,75","28,9","ND","4,3","337,8","26,6","62"],
    [48219,"43826,79167","23,4","ND","2,2","309,9","26","67,6"],
    [48220,"43826,83333","43,5","ND","2,8","300,6","25,4","67,3"],
    [48221,"43826,875","26,6","ND","1,1","214,1","25","68,9"],
    [48222,"43826,91667","48,5","ND","0,8","242,6","24,3","73,5"],
    [48223,"43826,95833","73,8","ND","1","233,3","23,2","81"],
    [48224,"43827","68,4","ND","1,2","266","23,1","79,4"],
    [48225,"43827,04167","47,2","ND","1","269,1","22,9","77,7"],
    [48226,"43827,08333","33,5","ND","0,8","181","22,3","83"],
    [48227,"43827,125","53,1","ND","1","259,7","21,5","87,3"],
    [48228,"43827,16667","44,8","ND","0,9","265,1","21,1","86,3"],
    [48229,"43827,20833","36,7","ND","0,6","274,2","21,1","86,9"],
    [48230,"43827,25","51,6","ND","1,1","273,2","20,9","86,8"],
    [48231,"43827,29167","37,5","ND","0,7","249,3","21,5","83,4"],
    [48232,"43827,33333","54,5","ND","0,5","143,1","22,6","80,5"],
    [48233,"43827,375","57,9","ND","0,6","174,5","24,2","73"],
    [48234,"43827,41667","61,4","ND","0,7","126,7","25,7","68,9"],
    [48235,"43827,45833","69,5","ND","0,9","113,8","26,8","64,8"],
    [48236,"43827,5","71,5","ND","1","175,6","27,6","62"],
    [48237,"43827,54167","80,9","ND","1,3","146,9","29,2","56,6"],
    [48238,"43827,58333","69,6","ND","1,3","148,7","29,6","56"],
    [48239,"43827,625","59,8","ND","1,4","271,6","30,1","53,2"],
    [48240,"43827,66667","50,9","ND","2,5","342,5","30,5","51,2"],
    [48241,"43827,70833","32,6","ND","4,2","337,2","29,4","53,6"],
    [48242,"43827,75","32,8","ND","4,6","333,8","27,5","60,2"],
    [48243,"43827,79167","24,6","ND","5,3","326,3","26,7","62,2"],
    [48244,"43827,83333","29,3","ND","3,8","300,6","26,8","61,5"],
    [48245,"43827,875","24,6","ND","0,9","196,8","26,9","61,2"],
    [48246,"43827,91667","38,5","ND","1,1","213","26,2","64,4"],
    [48247,"43827,95833","42,3","ND","1","200,6","25,3","70,4"],
    [48248,"43828","79,3","ND","0,8","218,8","24,4","78,2"],
    [48249,"43828,04167","73,2","ND","0,8","263,6","23,4","81,1"],
    [48250,"43828,08333","60,2","ND","0,6","221,3","23,1","83,4"],
    [48251,"43828,125","65,6","ND","0,8","226,1","22,9","84,2"],
    [48252,"43828,16667","65,3","ND","0,7","272","22,3","86,7"],
    [48253,"43828,20833","56,1","ND","0,8","242,2","22","87,4"],
    [48254,"43828,25","44,6","ND","0,7","280,4","21,9","86,6"],
    [48255,"43828,29167","43,5","ND","0,8","266,1","22","86"],
    [48256,"43828,33333","45,5","ND","0,6","252,3","23,3","81,4"],
    [48257,"43828,375","48","ND","0,9","222,1","25","72,9"],
    [48258,"43828,41667","35,1","ND","1","116,8","26,8","64,8"],
    [48259,"43828,45833","26,2","ND","1,3","86,2","27,9","59,4"],
    [48260,"43828,5","26,4","ND","1","133,5","28,5","57,4"],
    [48261,"43828,54167","40,1","ND","1,2","62,5","29","55,3"],
    [48262,"43828,58333","29","ND","0,9","161,3","30,6","49"],
    [48263,"43828,625","19,1","ND","2,8","241,3","30,7","48"],
    [48264,"43828,66667","15,5","ND","3,8","290","30,2","50,9"],
    [48265,"43828,70833","22,6","ND","5,1","329,5","28,7","55,6"],
    [48266,"43828,75","25,7","ND","5,3","330,6","27,5","59,4"],
    [48267,"43828,79167","29,4","ND","5,3","324,5","27","60,6"],
    [48268,"43828,83333","33,3","ND","3,9","308,5","26,5","63"],
    [48269,"43828,875","22,6","ND","1,3","206,2","25,8","69,6"],
    [48270,"43828,91667","41,6","ND","1","155,2","24,9","78,7"],
    [48271,"43828,95833","41,3","ND","0,6","127,8","24,8","78,3"],
    [48272,"43829","42,2","ND","0,7","163,8","24,1","80,8"],
    [48273,"43829,04167","30,3","ND","0,7","169,1","24,1","80,7"],
    [48274,"43829,08333","33,5","ND","0,8","94,4","24","79,5"],
    [48275,"43829,125","46,1","ND","1,3","85,3","23,5","83,5"],
    [48276,"43829,16667","52,8","ND","1","122,4","22","95,1"],
    [48277,"43829,20833","29,2","ND","1","60,9","21,6","97,6"],
    [48278,"43829,25","17,1","ND","0,9","234,6","20,9","98,1"],
    [48279,"43829,29167","9,8","ND","0,4","166,6","21,5","95,3"],
    [48280,"43829,33333","19,9","ND","0,3","133","22","93,9"],
    [48281,"43829,375","27,6","ND","0,7","221,5","23,1","89,4"],
    [48282,"43829,41667","35","ND","0,7","117,2","25,1","78,2"],
    [48283,"43829,45833","33,1","ND","1,1","128,8","26,3","70,1"],
    [48284,"43829,5","31,3","ND","0,9","270,4","27,1","65,4"],
    [48285,"43829,54167","33,7","ND","1","48,1","28,9","58,3"],
    [48286,"43829,58333","33,1","ND","3,1","187,6","29","56,8"],
    [48287,"43829,625","17,3","ND","4,8","313,4","28","58,6"],
    [48288,"43829,66667","6,1","ND","6","242,6","26,9","61,4"],
    [48289,"43829,70833","13,1","ND","3,1","239,2","24,8","73,4"],
    [48290,"43829,75","39,7","ND","1,8","166,5","22,6","88,3"],
    [48291,"43829,79167","27,4","ND","0,8","142,5","20,9","95,1"],
    [48292,"43829,83333","14,5","ND","0,9","216,1","21","96,5"],
    [48293,"43829,875","20,7","ND","0,7","228,5","21,2","96,2"],
    [48294,"43829,91667","17","ND","1","193,6","21,1","96,3"],
    [48295,"43829,95833","9,5","ND","0,8","189,4","20,6","98,3"],
    [48296,"43830","8,3","ND","0,5","153,7","20,6","98,9"],
    [48297,"43830,04167","10,5","ND","0,9","217,7","20,6","99,9"],
    [48298,"43830,08333","8,4","ND","0,8","227,7","20,4","98,6"],
    [48299,"43830,125","1,7","ND","0,9","261,4","20,1","99,3"],
    [48300,"43830,16667","5,1","ND","0,6","194,2","20,1","100"],
    [48301,"43830,20833","6,4","ND","0,5","295,4","20,2","100"],
    [48302,"43830,25","14,5","ND","1,1","237","19,6","100"],
    [48303,"43830,29167","1,7","ND","1","270,7","19,7","99,9"],
    [48304,"43830,33333","9,1","ND","0,8","254,8","20,7","96,4"],
    [48305,"43830,375","10,3","ND","0,8","138,7","22,3","87,7"],
    [48306,"43830,41667","13,3","ND","0,9","86,3","24,1","77,4"],
    [48307,"43830,45833","19,6","ND","1,1","102,6","25,9","67,4"],
    [48308,"43830,5","20,8","ND","1,1","207,6","26,1","66,7"],
    [48309,"43830,54167","21,3","ND","1,3","201,1","27,5","60,9"],
    [48310,"43830,58333","17,6","ND","2,4","31","27,2","63,1"],
    [48311,"43830,625","11,2","ND","3,5","328,3","27,9","56,6"],
    [48312,"43830,66667","4,8","ND","4","298,3","28","56,2"],
    [48313,"43830,70833","6,4","ND","4,3","343,2","26,8","58,9"],
    [48314,"43830,75","9,9","ND","4,1","325,8","25,7","63,4"],
    [48315,"43830,79167","19,1","ND","1,3","223","24,5","73,8"],
    [48316,"43830,83333","30,1","ND","1,1","194,4","23,5","79,3"],
    [48317,"43830,875","30","ND","1,2","195,7","23,4","79,6"],
    [48318,"43830,91667","24,9","ND","0,7","131","22,7","83,4"],
    [48319,"43830,95833","27,2","ND","0,9","92,9","22,1","88,6"],
    [48320,"43831","28,6","ND","1,2","129,7","21,5","92,7"],
    [48321,"43831,04167","21,4","0,052","1,3","182,7","21,2","94"],
    [48322,"43831,08333","44","0,079","0,6","166","21,3","94,1"],
    [48323,"43831,125","60,3","0,079","0,3","108","21,3","95,7"],
    [48324,"43831,16667","46","0","0,7","170,6","20,9","95,3"],
    [48325,"43831,20833","13","0","0,5","197,6","20,8","96,6"],
    [48326,"43831,25","14,6","0","0,5","255,3","20,7","96,6"],
    [48327,"43831,29167","23,3","0,079","0,8","277,7","20,4","96"],
    [48328,"43831,33333","28,4","0,052","0,5","174,9","21,5","92"],
    [48329,"43831,375","32,5","0,026","0,6","68,9","22,7","86"],
    [48330,"43831,41667","16,7","0,026","0,9","129,1","24,5","73,1"],
    [48331,"43831,45833","8,2","0","1,5","139,6","26","66,3"],
    [48332,"43831,5","6,9","0,052","0,9","118,2","27,1","61,2"],
    [48333,"43831,54167","6,5","0","0,7","184,3","27,6","60,2"],
    [48334,"43831,58333","11,4","0,026","1","124","27,8","60,5"],
    [48335,"43831,625","27,3","0","2,1","173,5","22,7","90"],
    [48336,"43831,66667","19,6","0","1","205,7","24,1","84"],
    [48337,"43831,70833","4,8","0,079","2,1","305,5","26,1","69,7"],
    [48338,"43831,75","19,3","0,052","0,7","192,2","25,9","75,7"],
    [48339,"43831,79167","23,4","0,052","0,6","188,5","25,1","76"],
    [48340,"43831,83333","43,3","0,026","0,6","239,1","24,4","79,7"],
    [48341,"43831,875","38,4","0","0,8","233,9","23,7","83,1"],
    [48342,"43831,91667","38","0,105","0,6","206,4","23,6","81,9"],
    [48343,"43831,95833","25,2","0,052","1,7","297,1","23,7","74,2"],
    [48344,"43832","15,4","0","0,8","181,6","22","88,6"],
    [48345,"43832,04167","20","0","1","200,3","21,5","94,2"],
    [48346,"43832,08333","12,6","0","0,7","212,9","21,4","93,8"],
    [48347,"43832,125","9","0","1","251,8","21,2","94,3"],
    [48348,"43832,16667","12,1","0","0,6","264,3","21,2","93,5"],
    [48349,"43832,20833","14,9","0,026","0,6","284","20,9","93,1"],
    [48350,"43832,25","21,4","0","0,6","207,5","20,9","93,6"],
    [48351,"43832,29167","31,8","0,079","0,5","95","20,8","95,3"],
    [48352,"43832,33333","46,4","0,079","0,9","267,7","21,3","92,1"],
    [48353,"43832,375","39","0,236","0,5","116,9","23,9","78,4"],
    [48354,"43832,41667","25,3","0,288","1,1","94,9","25,3","71,2"],
    [48355,"43832,45833","29,4","0,052","0,9","158,7","26,4","65,7"],
    [48356,"43832,5","16,1","0","0,9","155,7","27,7","59,8"],
    [48357,"43832,54167","8,8","0","1,2","189,3","29","53,6"],
    [48358,"43832,58333","12,6","0","1,9","280,5","28,6","56,2"],
    [48359,"43832,625","23,4","0,026","2","167,9","29,3","53,2"],
    [48360,"43832,66667","13,4","0","4,2","337,1","29,2","52,9"],
    [48361,"43832,70833","8,2","0","4,6","334,5","28","56,2"],
    [48362,"43832,75","10,9","0","5,3","326,3","26,2","62,5"],
    [48363,"43832,79167","14,5","0,079","1,9","283,4","26","61,9"],
    [48364,"43832,83333","23","0,157","0,9","192,3","25,7","64,4"],
    [48365,"43832,875","32,8","0,079","1,1","211,1","24,7","72"],
    [48366,"43832,91667","36,6","0,026","1,1","277,4","23,4","78,3"],
    [48367,"43832,95833","36,6","0,026","0,9","277,8","22,8","81,1"],
    [48368,"43833","30,3","0","1,4","270,1","22,4","81,3"],
    [48369,"43833,04167","18,3","0,026","0,3","141,3","22,3","84,7"],
    [48370,"43833,08333","33,8","0","0,7","273,6","21,7","86,3"],
    [48371,"43833,125","20,9","0","0,8","264,9","21,7","86,6"],
    [48372,"43833,16667","19,6","0","0,9","263,4","21,6","87,5"],
    [48373,"43833,20833","20,7","0,34","0,8","252,4","21,7","86,5"],
    [48374,"43833,25","26,9","0,026","0,6","263,1","21,7","87,6"],
    [48375,"43833,29167","34,4","0,131","0,8","256,8","21,8","87,7"],
    [48376,"43833,33333","40,8","0,052","0,7","108,1","22,7","82,8"],
    [48377,"43833,375","37,7","0,288","0,6","202,6","23,8","77,5"],
    [48378,"43833,41667","37,3","0,052","0,7","282,9","24,7","73,8"],
    [48379,"43833,45833","28,7","0,236","1","171,6","26,2","67,7"],
    [48380,"43833,5","25,4","0,105","0,9","103,7","27,9","59,5"],
    [48381,"43833,54167","15,6","0,026","1,1","118,1","29","54,4"],
    [48382,"43833,58333","16,9","0,105","1,7","197,2","29,9","49,6"],
    [48383,"43833,625","26","0,105","2,6","151,4","30,5","48,3"],
    [48384,"43833,66667","15,7","0","4,7","342,8","29,7","49,9"],
    [48385,"43833,70833","16,5","0,026","4,6","339,9","28,6","54,8"],
    [48386,"43833,75","15,6","0","4,6","333,1","27,2","58,3"],
    [48387,"43833,79167","19","0","4,3","328,1","26,5","59,4"],
    [48388,"43833,83333","17,4","0,026","4,3","325,8","26,5","58,1"],
    [48389,"43833,875","18,9","0,026","2,7","276,7","26,2","58,8"],
    [48390,"43833,91667","27,2","0,105","0,7","232,5","24,2","70,8"],
    [48391,"43833,95833","57,1","0,079","0,8","258,9","22,9","76,9"],
    [48392,"43834","43,8","0,026","1,1","269,4","22,5","77,4"],
    [48393,"43834,04167","26,1","0,052","0,6","281,7","22,4","78"],
    [48394,"43834,08333","27,7","0","0,9","267,1","21,9","80,6"],
    [48395,"43834,125","19,9","0","0,8","272,2","21,5","82,3"],
    [48396,"43834,16667","24,1","0","0,9","273,2","21,1","84,5"],
    [48397,"43834,20833","23,2","0","1","264","20,8","85,2"],
    [48398,"43834,25","23,8","0,026","1,1","275,7","20,3","87"],
    [48399,"43834,29167","31,7","0","1,2","270,6","20,4","86,8"],
    [48400,"43834,33333","36","0,052","0,5","203","22,3","79,2"],
    [48401,"43834,375","37,9","0,209","0,6","215,1","23,8","74,1"],
    [48402,"43834,41667","41,7","0,55","0,8","135,9","25,1","70,7"],
    [48403,"43834,45833","37,7","0,655","1,2","185","26,4","64,8"],
    [48404,"43834,5","32,2","0,864","1,3","135,1","27,7","58,9"],
    [48405,"43834,54167","33,5","1,074","1,3","137","29","54,1"],
    [48406,"43834,58333","42,2","0,55","1,1","100,9","29,7","51,8"],
    [48407,"43834,625","46,3","0,419","1,5","120,4","29,8","50,4"],
    [48408,"43834,66667","40,2","0,052","3,8","276,1","29,6","48,2"],
    [48409,"43834,70833","13,8","0,026","4,9","327,3","28,7","50,8"],
    [48410,"43834,75","17,6","0,026","4,5","336,4","27,4","55,3"],
    [48411,"43834,79167","24,6","0,026","5","329,8","26,3","59,5"],
    [48412,"43834,83333","19,8","0,026","4,3","332,7","26,1","58,7"],
    [48413,"43834,875","17,7","0,105","2,9","273","26,2","56"],
    [48414,"43834,91667","18,6","0,262","0,8","259,5","24,8","62"],
    [48415,"43834,95833","61,7","0,262","0,7","231,3","23,3","70,8"],
    [48416,"43835","56,2","0,105","0,9","284,5","22,6","73,9"],
    [48417,"43835,04167","45,5","0,052","0,6","192,8","22,6","75,8"],
    [48418,"43835,08333","39,2","0,052","0,9","250,5","22,2","78"],
    [48419,"43835,125","27,7","0,026","0,9","279,7","21,7","80,4"],
    [48420,"43835,16667","25,9","0","0,7","262,7","21,8","80,7"],
    [48421,"43835,20833","27,3","0,026","0,7","269,5","21,4","82,6"],
    [48422,"43835,25","25,5","0,079","0,8","279,2","20,7","86"],
    [48423,"43835,29167","31,2","0,026","0,7","276,5","20,5","87"],
    [48424,"43835,33333","36,9","0,052","0,5","152","22,4","79,4"],
    [48425,"43835,375","34,6","0,576","0,9","134,2","24,3","71,7"],
    [48426,"43835,41667","32,3","2,461","1,4","167,1","25,2","69"],
    [48427,"43835,45833","28,6","2,959","1,2","176,1","26,6","62,5"],
    [48428,"43835,5","19,7","1,885","1,3","151,6","27,9","56,3"],
    [48429,"43835,54167","18,7","1,178","1","150,5","28,9","53,1"],
    [48430,"43835,58333","24,3","0,681","0,9","134","29,5","51"],
    [48431,"43835,625","31,1","0,55","1,2","154,6","29,6","50,6"],
    [48432,"43835,66667","32,3","0,026","4","336,7","28,8","54,5"],
    [48433,"43835,70833","14,9","0,026","5,8","329,3","27,2","58,4"],
    [48434,"43835,75","13,4","0,026","4,8","330,3","26,4","59,6"],
    [48435,"43835,79167","18,4","0,052","4,6","341,5","26","60,7"],
    [48436,"43835,83333","26,7","0,026","4,2","333,9","25,3","63,9"],
    [48437,"43835,875","25,2","0,079","1,6","232,1","25","67,2"],
    [48438,"43835,91667","28,2","0,209","0,6","172,5","24,3","71,5"],
    [48439,"43835,95833","30,4","0,183","0,7","231,4","23,7","75,2"],
    [48440,"43836","40,5","0,079","0,8","275,2","22,6","80,3"],
    [48441,"43836,04167","32,4","0,052","0,8","287","22","83,4"],
    [48442,"43836,08333","26","0,079","0,6","177,6","21,8","85,1"],
    [48443,"43836,125","27,7","0,026","0,7","257,3","22,1","83,7"],
    [48444,"43836,16667","21,4","0,026","0,6","274,9","22,1","84"],
    [48445,"43836,20833","20,8","0,026","0,6","254,5","22,2","84"],
    [48446,"43836,25","20,4","0,026","0,4","175,5","22,2","83,8"],
    [48447,"43836,29167","25,5","0,026","0,7","212,8","22","85,2"],
    [48448,"43836,33333","32,2","0,079","0,5","135,3","22,9","81"],
    [48449,"43836,375","35,2","0,131","1","77,6","24,4","72,6"],
    [48450,"43836,41667","23,2","0,209","1","128,4","25","68,4"],
    [48451,"43836,45833","17,9","0,524","0,8","100,8","26,9","60,6"],
    [48452,"43836,5","21,6","0,89","1,3","124,1","28,1","55,5"],
    [48453,"43836,54167","26,7","1,047","1,1","140,4","28,9","52,1"],
    [48454,"43836,58333","31,3","0,576","0,8","131,8","29,8","48,3"],
    [48455,"43836,625","31,5","0,419","1,1","110,9","30,5","45,9"],
    [48456,"43836,66667","30,9","0,052","4,8","329,3","29,2","50,7"],
    [48457,"43836,70833","26,5","0,026","5,5","328,5","28,1","52,1"],
    [48458,"43836,75","13,4","0","5,8","324,8","26,8","54,1"],
    [48459,"43836,79167","23,7","0,052","5,4","326,4","25,9","56,9"],
    [48460,"43836,83333","23,2","0,052","4,8","322,8","25,8","57,3"],
    [48461,"43836,875","27","0,209","0,6","189,4","25,4","59,1"],
    [48462,"43836,91667","44,7","0,183","0,5","171,9","24,3","67,3"],
    [48463,"43836,95833","45,9","0,026","1,1","259,3","23,1","70,2"],
    [48464,"43837","33,1","0,079","0,8","279,8","22,9","73,4"],
    [48465,"43837,04167","32,3","0,052","0,5","250,3","22,6","75,6"],
    [48466,"43837,08333","32,4","0,026","0,9","260,8","21,9","78,7"],
    [48467,"43837,125","25,6","0,026","0,8","249,1","21,4","80,5"],
    [48468,"43837,16667","21,8","0,026","0,5","266","21,3","80,2"],
    [48469,"43837,20833","21,7","0,105","0,9","234,4","21","83,2"],
    [48470,"43837,25","28","0,157","0,9","273","20,4","85,1"],
    [48471,"43837,29167","32,1","0,105","1,1","270,9","20,1","85,2"],
    [48472,"43837,33333","33,3","0,183","0,5","205","21,6","80"],
    [48473,"43837,375","49,2","0,497","0,7","47,5","23,5","71,5"],
    [48474,"43837,41667","49","2,147","1,1","73,5","24,9","68"],
    [48475,"43837,45833","84,9","2,068","1,1","90,3","26,3","60,7"],
    [48476,"43837,5","55,5","2,304","1,2","109,5","27,7","54,3"],
    [48477,"43837,54167","47,8","1,911","1,1","74,3","28,7","49,2"],
    [48478,"43837,58333","33,7","1,65","1,3","119","29,3","46,3"],
    [48479,"43837,625","46,1","1,047","1,8","107,1","29,7","46,6"],
    [48480,"43837,66667","44","0,131","4","339,3","29,2","49,1"],
    [48481,"43837,70833","25,8","0,079","4,5","329","28,6","50"],
    [48482,"43837,75","18,6","0,052","4,7","329,4","27,3","54,2"],
    [48483,"43837,79167","28,7","0,052","4,7","326,5","26,3","57,2"],
    [48484,"43837,83333","28,4","0,079","5,1","323,4","26","57,5"],
    [48485,"43837,875","25,6","0,052","3,5","299,7","25,9","55,5"],
    [48486,"43837,91667","19,5","0,34","0,9","238,5","24,8","58,3"],
    [48487,"43837,95833","54,3","0,576","0,8","280,6","22,6","71,1"],
    [48488,"43838","63,2","0,105","1,1","271,5","21,7","75,3"],
    [48489,"43838,04167","42,2","0,052","1","271,2","21,6","76,1"],
    [48490,"43838,08333","33,2","0,026","1","269,6","21,1","78,9"],
    [48491,"43838,125","26,9","0","1,1","277,8","20,5","81,1"],
    [48492,"43838,16667","24,9","0,052","1,3","271,1","20,2","82,7"],
    [48493,"43838,20833","30,6","0,34","1,6","267,7","20","82,6"],
    [48494,"43838,25","32,1","0,157","0,7","264,6","19,7","83,9"],
    [48495,"43838,29167","46,1","0,288","1,3","276,1","19,2","86,1"],
    [48496,"43838,33333","49,6","0,393","0,8","205,7","21,1","78,3"],
    [48497,"43838,375","59,9","1,335","0,7","121","23,8","68,5"],
    [48498,"43838,41667","54,4","4,477","0,8","140,1","25,2","63,2"],
    [48499,"43838,45833","47,7","2,618","0,9","149,2","26,2","60,8"],
    [48500,"43838,5","47,4","1,519","1","145,2","27,5","55"],
    [48501,"43838,54167","38,7","1,309","1,2","124,9","29,1","49,1"],
    [48502,"43838,58333","57,2","0,838","1","95,7","29,8","46,9"],
    [48503,"43838,625","62,7","1,414","1,1","83,3","30,2","46,2"],
    [48504,"43838,66667","81,6","0,733","2,7","313,8","29,8","49,1"],
    [48505,"43838,70833","43,3","0,052","4,5","339,2","28,9","51,3"],
    [48506,"43838,75","28,1","0,105","4,9","326,2","27,5","53,7"],
    [48507,"43838,79167","26,6","0,052","4","319,6","26,8","56"],
    [48508,"43838,83333","26,9","0,314","2,1","294,7","26,7","55,2"],
    [48509,"43838,875","37,2","0,419","1,1","262,2","25,6","59,5"],
    [48510,"43838,91667","59,1","0,602","0,4","190,3","24,7","62"],
    [48511,"43838,95833","79,9","0,471","1","255,7","23,3","67,1"],
    [48512,"43839","71,6","0,105","1","276,1","22,3","71,4"],
    [48513,"43839,04167","45,4","0,131","0,7","270,4","21,6","75,1"],
    [48514,"43839,08333","40,6","0,079","0,8","278,6","20,9","78,8"],
    [48515,"43839,125","51,4","0,079","1,1","267,3","20,7","80"],
    [48516,"43839,16667","46","0,079","0,8","269","20,6","81,3"],
    [48517,"43839,20833","57,5","0,079","0,5","254,7","20,9","80,4"],
    [48518,"43839,25","54,3","0,55","0,9","272,5","21","81,4"],
    [48519,"43839,29167","74,3","0,34","0,8","280,1","20,8","82,7"],
    [48520,"43839,33333","74,8","0,838","0,7","250,7","22,1","76,7"],
    [48521,"43839,375","75,7","1,597","0,7","73,9","24,1","68"],
    [48522,"43839,41667","85,7","3,613","1,2","130,6","25,3","63,9"],
    [48523,"43839,45833","78,5","4,818","1,2","167,1","26,3","59,3"],
    [48524,"43839,5","56,2","3,273","1,1","171,7","27,5","56,7"],
    [48525,"43839,54167","62,3","2,54","1,4","150,1","28,5","53,6"],
    [48526,"43839,58333","65,5","1,597","1,3","180,1","29,7","49"],
    [48527,"43839,625","69,4","1,152","1,1","77","30,5","45,9"],
    [48528,"43839,66667","76,2","0,602","1,9","163,3","30,7","46,5"],
    [48529,"43839,70833","69,4","0,131","4,2","339","29,4","51,3"],
    [48530,"43839,75","32,9","0,052","4,4","322","28","54,2"],
    [48531,"43839,79167","30,1","0,131","3,9","323,7","27,2","55,8"],
    [48532,"43839,83333","35,4","0,393","1,3","226,3","26,8","57,5"],
    [48533,"43839,875","50,2","0,393","1,4","238,4","25,9","60,8"],
    [48534,"43839,91667","52","0,733","1","244,3","25,4","62"],
    [48535,"43839,95833","71,4","0,262","1,1","267,8","23,9","68,1"],
    [48536,"43840","56,9","0,105","1,3","261,8","23","71,6"],
    [48537,"43840,04167","47,4","0,079","0,9","265,4","22,7","74"],
    [48538,"43840,08333","46,8","0,052","0,4","110,3","22,3","78,7"],
    [48539,"43840,125","85,7","0,052","1,2","267,9","21,1","82,6"],
    [48540,"43840,16667","59,3","0,026","1","272,1","20,5","84,7"],
    [48541,"43840,20833","51","0,262","1,1","271","20,2","85,2"],
    [48542,"43840,25","53,8","0,157","0,9","273,9","20,1","85,6"],
    [48543,"43840,29167","73,3","0,262","0,9","264","20,6","84,7"],
    [48544,"43840,33333","95,5","0,838","0,6","182,1","22,7","76,4"],
    [48545,"43840,375","83,5","1,44","0,8","105,1","24,6","68,9"],
    [48546,"43840,41667","100,7","2,121","1,1","121,8","25,7","64,8"],
    [48547,"43840,45833","82,1","2,409","0,9","142,7","26,7","61,5"],
    [48548,"43840,5","81,3","2,147","1,3","129,4","28,3","54,8"],
    [48549,"43840,54167","75,8","0,916","1,4","128,9","29,2","51,9"],
    [48550,"43840,58333","75,7","0,759","1","84","30,2","48,4"],
    [48551,"43840,625","82,3","0,236","2,4","262,3","30,6","47,7"],
    [48552,"43840,66667","42,3","0,026","3,8","327,1","30,3","47,7"],
    [48553,"43840,70833","18,3","0,026","4,4","328,2","29,2","50,5"],
    [48554,"43840,75","27,5","0,026","4,5","329,8","27,7","56,5"],
    [48555,"43840,79167","32,8","0,105","3,1","332,1","27,3","58,1"],
    [48556,"43840,83333","33","0,079","2,7","330,6","27,5","56,8"],
    [48557,"43840,875","38,7","0,157","2,9","324,1","27","58,3"],
    [48558,"43840,91667","35,6","0,157","1,1","230,3","26,5","60,1"],
    [48559,"43840,95833","45","0,157","0,9","237,7","25,8","64,6"],
    [48560,"43841","61","0,209","0,5","193","24,7","71,4"],
    [48561,"43841,04167","68,7","0,183","1,1","192,8","24,8","71,3"],
    [48562,"43841,08333","56,3","0,079","0,7","156,1","24,1","75,7"],
    [48563,"43841,125","59,4","0,079","0,8","232,5","23,4","78,7"],
    [48564,"43841,16667","50,3","0,105","1","252,5","22,6","82,3"],
    [48565,"43841,20833","45,8","0,105","0,5","212,6","21,8","83,9"],
    [48566,"43841,25","41,6","0,367","1","235,9","21,2","85,3"],
    [48567,"43841,29167","54","0,183","1,3","275,4","20,6","86,3"],
    [48568,"43841,33333","54,3","0,576","0,8","175,6","23","77,6"],
    [48569,"43841,375","74,6","1,126","1","174,4","25","68,4"],
    [48570,"43841,41667","57,8","3,011","1,3","130,7","26,3","62,6"],
    [48571,"43841,45833","65,8","2,697","1,1","110,5","27,4","57,4"],
    [48572,"43841,5","50,6","2,461","1,2","107,8","28,7","53,3"],
    [48573,"43841,54167","61,8","2,147","1","123,6","30,1","49,5"],
    [48574,"43841,58333","68,5","1,231","2,1","326,6","30,1","48,6"],
    [48575,"43841,625","31","0,105","4,7","344,2","29,2","51"],
    [48576,"43841,66667","22,8","0,052","5,5","325,7","28,3","53,4"],
    [48577,"43841,70833","26,2","0,079","5,4","323,7","28,1","53,5"],
    [48578,"43841,75","20,4","0,079","4,6","330,6","27,5","55,5"],
    [48579,"43841,79167","26,7","0,052","4,2","327,4","26,9","57,8"],
    [48580,"43841,83333","29,5","0,393","1,1","188,6","26,8","58,5"],
    [48581,"43841,875","34,8","1,283","0,8","170,7","26,6","59"],
    [48582,"43841,91667","40,3","1,047","0,6","231,4","25,8","63,1"],
    [48583,"43841,95833","72,6","0,681","0,5","223,3","24,5","70,6"],
    [48584,"43842","75,5","0,183","0,9","264,2","24","72,7"],
    [48585,"43842,04167","55","0,131","0,9","257,8","23,8","73,9"],
    [48586,"43842,08333","42,3","0,209","1,2","155","23,9","74,2"],
    [48587,"43842,125","46,7","0,157","0,9","144,5","23,2","78,5"],
    [48588,"43842,16667","52,4","0,262","1","175,9","22,8","81,8"],
    [48589,"43842,20833","53,1","0,209","0,8","236,3","22,4","84,1"],
    [48590,"43842,25","43","0,288","0,8","282,1","22,3","84,4"],
    [48591,"43842,29167","39,8","0,209","0,6","230","22,5","84"],
    [48592,"43842,33333","58,6","0,157","0,7","197","23","82,1"],
    [48593,"43842,375","55,3","0,209","0,4","176,7","23,7","79,3"],
    [48594,"43842,41667","53,7","0,602","1,1","198,6","25,2","71,1"],
    [48595,"43842,45833","50,1","0,55","1,1","151,9","27,1","63,1"],
    [48596,"43842,5","48,4","0,34","1,1","101","28,4","57"],
    [48597,"43842,54167","43","0,759","1,3","150,8","29,2","52,3"],
    [48598,"43842,58333","41,8","0,864","1,5","170,9","30,3","49,1"],
    [48599,"43842,625","46,6","1,78","1,6","237,4","30,8","47,9"],
    [48600,"43842,66667","39,9","0,969","2,7","327,6","30,2","50,1"],
    [48601,"43842,70833","31,4","0,34","3,5","319,1","29,4","53,4"],
    [48602,"43842,75","26,9","0,288","4,2","318,6","28,3","54,5"],
    [48603,"43842,79167","26,5","0,183","4,6","318,4","27,6","56,3"],
    [48604,"43842,83333","26,1","0,288","2,9","300,6","27,7","55,4"],
    [48605,"43842,875","31,8","0,733","1,2","220,5","27,1","58"],
    [48606,"43842,91667","44,2","0,628","0,9","219,9","26,3","61,9"],
    [48607,"43842,95833","49,5","0,288","0,9","250","24,7","68,8"],
    [48608,"43843","48,8","0,236","1","263,5","23,8","71,8"],
    [48609,"43843,04167","33,2","0,131","0,7","278,2","22,9","75,6"],
    [48610,"43843,08333","28,3","0,052","0,9","269,6","22,5","78,2"],
    [48611,"43843,125","30,6","0,026","0,6","246,8","22,1","80,8"],
    [48612,"43843,16667","33,4","0,105","0,6","268,3","21,9","81,9"],
    [48613,"43843,20833","29,2","0,079","0,9","275,4","21,3","84,7"],
    [48614,"43843,25","34,7","0,105","1,1","271,6","20,9","85,3"],
    [48615,"43843,29167","44,7","0,262","1,1","266,2","20,8","85,3"],
    [48616,"43843,33333","58,4","0,576","0,6","264,8","22,8","77,7"],
    [48617,"43843,375","74,8","0,995","0,5","138,3","25,2","69"],
    [48618,"43843,41667","78,1","1,833","1,2","122,3","26,5","64,3"],
    [48619,"43843,45833","67,2","2,356","1,1","104,4","27,6","59,8"],
    [48620,"43843,5","57","1,78","1,1","119,2","29,1","54,3"],
    [48621,"43843,54167","59,6","1,021","1,3","99,3","30,6","49,7"],
    [48622,"43843,58333","72,1","0,288","2,4","165,2","31,4","47,3"],
    [48623,"43843,625","42,9","0,157","4,1","263,8","31,5","45,8"],
    [48624,"43843,66667","27,4","0,288","4,5","323,3","30,7","48,2"],
    [48625,"43843,70833","34,5","0,131","5,8","328,1","29,1","53,6"],
    [48626,"43843,75","33,7","0,079","6,3","324,5","27,8","58,1"],
    [48627,"43843,79167","28,4","0,105","4,8","328,7","27,6","58"],
    [48628,"43843,83333","22,3","0,052","3,6","340,6","27,3","58,6"],
    [48629,"43843,875","26,4","0,419","1,3","246,9","26,7","60,9"],
    [48630,"43843,91667","37,5","0,445","0,7","218,6","25,8","67,6"],
    [48631,"43843,95833","63,5","0,183","1","257,7","24,6","73,1"],
    [48632,"43844","43,9","0,131","0,8","275,5","23,8","76,6"],
    [48633,"43844,04167","38,3","0,131","0,8","258,4","23,5","78"],
    [48634,"43844,08333","32,8","0,079","0,4","96,2","23,9","75,9"],
    [48635,"43844,125","34,8","0,105","0,8","268","23,3","79,2"],
    [48636,"43844,16667","37,1","0,052","0,5","165,5","23,3","79,8"],
    [48637,"43844,20833","41,9","0,209","0,6","251","22,3","85"],
    [48638,"43844,25","40,9","0,34","1,1","269,4","21,6","86,4"],
    [48639,"43844,29167","42,4","0,393","1","269,9","21,3","86,1"],
    [48640,"43844,33333","61,1","0,969","0,6","271,1","22,5","81,2"],
    [48641,"43844,375","77","1,414","0,6","180,7","25,4","70,5"],
    [48642,"43844,41667","81,4","4,608","1","63","26,5","66,1"],
    [48643,"43844,45833","80,7","7,305","1,3","72,6","27,4","63,7"],
    [48644,"43844,5","62,4","2,723","1,1","83,5","28,6","58,3"],
    [48645,"43844,54167","55,6","2,173","1,4","126,4","29,9","54,1"],
    [48646,"43844,58333","53,8","1,545","1,4","110,6","30,6","51,4"],
    [48647,"43844,625","49,3","1,676","1,1","176","31","48,3"],
    [48648,"43844,66667","25,2","0,34","3,6","323,6","30,6","48,4"],
    [48649,"43844,70833","18,9","0,288","4,2","329,8","30,1","49,8"],
    [48650,"43844,75","30,1","0,209","5,5","323","28,5","55"],
    [48651,"43844,79167","30,5","0,131","4,5","328,1","27,8","57,5"],
    [48652,"43844,83333","25,9","0,079","4,6","331,7","27,3","58"],
    [48653,"43844,875","23,3","0,419","1,6","237,4","27","59,8"],
    [48654,"43844,91667","33,6","1,204","0,6","231,5","26","64,9"],
    [48655,"43844,95833","71","1,126","0,3","159,2","24,7","71,5"],
    [48656,"43845","61,3","0,34","1","272,8","23,4","76,8"],
    [48657,"43845,04167","36,7","0,183","1","270,6","22,8","78,8"],
    [48658,"43845,08333","27","0,105","1","269,7","22,5","79,5"],
    [48659,"43845,125","28,1","0,105","0,7","259,4","22,1","81,7"],
    [48660,"43845,16667","27,1","0,105","0,9","279,3","21,6","84,4"],
    [48661,"43845,20833","26,7","0,183","1","273,7","21,3","84,8"],
    [48662,"43845,25","31,1","2,383","1","268,2","21,1","84,9"],
    [48663,"43845,29167","45,8","0,838","0,7","238,7","21,3","84,3"],
    [48664,"43845,33333","62,7","1,021","0,5","191,1","23,4","76,2"],
    [48665,"43845,375","64,1","1,44","0,5","94,6","25,5","68,3"],
    [48666,"43845,41667","92,9","ND","1,4","161,7","26,2","66,5"],
    [48667,"43845,45833","97,2","1,623","0,6","107,2","27,3","62,1"],
    [48668,"43845,5","71,3","0,733","1,1","136,1","28,9","56,1"],
    [48669,"43845,54167","72,5","0,864","1,1","89,4","30,2","50,9"],
    [48670,"43845,58333","57,8","0,707","1,2","189,2","30,5","48,8"],
    [48671,"43845,625","62,9","0,314","1,1","201,5","31,4","47,2"],
    [48672,"43845,66667","74,5","0,209","1,4","246,2","31,6","47"],
    [48673,"43845,70833","75,3","0,131","4,9","329,3","29,5","55"],
    [48674,"43845,75","45","0,052","6,3","322,2","27,5","60"],
    [48675,"43845,79167","39","0,052","6,2","316,7","27,1","61,3"],
    [48676,"43845,83333","25,2","0,131","5,8","322,3","27","60,6"],
    [48677,"43845,875","15","0,079","3,6","337,6","27,2","59,7"],
    [48678,"43845,91667","20,7","0,288","0,8","186,4","26,9","63,3"],
    [48679,"43845,95833","47,8","0,288","0,8","108","25,7","70,6"],
    [48680,"43846","67,9","0,236","0,6","217,3","24,5","75,2"],
    [48681,"43846,04167","47,1","0,157","0,5","152,6","24","77,4"],
    [48682,"43846,08333","36,5","0,131","0,6","257,1","23,4","79,9"],
    [48683,"43846,125","35","0,157","0,8","267,3","22,6","82,6"],
    [48684,"43846,16667","30,2","0,131","0,7","241,4","22,7","82,9"],
    [48685,"43846,20833","32,6","2,697","1","270,5","22,7","83,2"],
    [48686,"43846,25","47,2","0,34","0,8","235,5","22,2","85,4"],
    [48687,"43846,29167","51,9","0,55","0,7","276,9","22,1","85,3"],
    [48688,"43846,33333","65,3","0,812","0,6","212,5","23,6","80"],
    [48689,"43846,375","78,1","0,89","1","85,9","25,1","73,1"],
    [48690,"43846,41667","70,4","2,016","1,1","150,7","26,3","67,6"],
    [48691,"43846,45833","69,4","1,571","1","157,9","27,9","60,9"],
    [48692,"43846,5","56,6","0,785","1,2","114,7","29","56,1"],
    [48693,"43846,54167","54","0,419","1,3","144,5","30,3","50,4"],
    [48694,"43846,58333","47,7","0,733","1,6","224,6","31,6","44,3"],
    [48695,"43846,625","49,5","0,34","0,8","127,9","33","40,2"],
    [48696,"43846,66667","48,7","0,419","2","228,1","33,2","40,2"],
    [48697,"43846,70833","58,5","0,183","5","330,3","30,5","50,8"],
    [48698,"43846,75","37,8","0,157","5,5","325,8","28,8","54,5"],
    [48699,"43846,79167","34,8","0,183","5,6","323,5","27,8","57,1"],
    [48700,"43846,83333","28,2","0,157","5,3","317,8","27,6","56,4"],
    [48701,"43846,875","21,8","0,131","5","325,7","27,5","55,1"],
    [48702,"43846,91667","22,9","0,209","1,6","273,1","26,8","57,8"],
    [48703,"43846,95833","40,2","0,471","0,6","284,1","24,7","67,6"],
    [48704,"43847","58","0,393","0,8","249,8","23,7","72,4"],
    [48705,"43847,04167","48,1","0,183","1,1","271,1","23","74,9"],
    [48706,"43847,08333","33,1","0,157","0,7","247,3","22,5","77,8"],
    [48707,"43847,125","31,6","0,209","0,9","273,9","22,3","77,6"],
    [48708,"43847,16667","25,9","0,131","0,8","265,6","21,7","80,9"],
    [48709,"43847,20833","30,7","0,209","0,7","243,1","21,1","83,6"],
    [48710,"43847,25","33,5","0,262","1,2","271,7","20,8","84,4"],
    [48711,"43847,29167","42,3","0,288","0,9","272,8","20,8","84"],
    [48712,"43847,33333","68,4","0,445","0,6","271,5","22,9","75,5"],
    [48713,"43847,375","69,4","0,995","0,4","142,9","25,3","67"],
    [48714,"43847,41667","82","1,545","0,8","124,9","26,8","62,3"],
    [48715,"43847,45833","76","1,911","1","113","28,5","56,7"],
    [48716,"43847,5","71,7","1,78","1,4","81,2","29,8","52,4"],
    [48717,"43847,54167","64,2","1,597","1,2","144,4","31,3","48,3"],
    [48718,"43847,58333","65","0,681","1,5","74,6","32,7","42,5"],
    [48719,"43847,625","57,7","0,367","2,7","163,2","32,7","44,4"],
    [48720,"43847,66667","59,4","0,55","4","330,2","32,2","47,4"],
    [48721,"43847,70833","37,7","0,445","4,5","322,4","31,2","49"],
    [48722,"43847,75","35","0,209","4,9","317,8","29,7","52,2"],
    [48723,"43847,79167","37,6","0,288","4,8","328,4","28,7","54"],
    [48724,"43847,83333","33,5","0,209","5,4","325,8","28","56,2"],
    [48725,"43847,875","26,6","0,576","2,9","259","28,4","53,4"],
    [48726,"43847,91667","23,5","0,838","0,7","231,7","27,2","56,7"],
    [48727,"43847,95833","56,9","0,733","0,7","275","25,3","64,4"],
    [48728,"43848","73,5","0,943","0,9","272","24,2","69,2"],
    [48729,"43848,04167","41,9","0,759","0,9","243,2","23,5","72,6"],
    [48730,"43848,08333","36,7","0,55","0,9","277,5","22,8","76,3"],
    [48731,"43848,125","28,8","0,812","1","285,2","22,3","78,6"],
    [48732,"43848,16667","26,8","0,707","0,7","258,9","21,9","80"],
    [48733,"43848,20833","32,7","1,047","0,7","261,4","21,4","81,7"],
    [48734,"43848,25","29,9","0,838","0,9","271,8","21","82,3"],
    [48735,"43848,29167","38","1,126","1,2","277,9","20,9","83,2"],
    [48736,"43848,33333","50,9","1,335","0,7","272,4","23,3","74,2"],
    [48737,"43848,375","71,4","1,676","0,7","157,7","25,8","62,7"],
    [48738,"43848,41667","53,1","1,911","1,4","144,1","26,9","60,4"],
    [48739,"43848,45833","69,5","1,911","1","105","28,5","57"],
    [48740,"43848,5","63,8","1,492","1,1","141,3","30,4","51"],
    [48741,"43848,54167","68","1,492","1,4","131,1","31,8","46"],
    [48742,"43848,58333","57,9","1,571","1,4","185,2","32,7","41,2"],
    [48743,"43848,625","40,9","1,309","3,1","306,6","32,8","43,8"],
    [48744,"43848,66667","53,6","0,995","4,8","326,4","31,7","47,9"],
    [48745,"43848,70833","37","0,89","5,3","325,9","30,1","52,5"],
    [48746,"43848,75","32,1","1,1","5","337","29","56,1"],
    [48747,"43848,79167","28,8","0,943","5,5","324,6","27,9","59,7"],
    [48748,"43848,83333","30,7","1,021","4,3","327,8","27,8","59,8"],
    [48749,"43848,875","26","1,231","1,1","247,5","27,8","59,1"],
    [48750,"43848,91667","32,2","1,65","0,7","175,2","27,2","62"],
    [48751,"43848,95833","33,8","1,938","0,7","214,7","26,2","67,8"],
    [48752,"43849","58,4","1,309","0,9","263,8","24,7","74,2"],
    [48753,"43849,04167","43,5","1,283","0,7","234,1","24,2","76,1"],
    [48754,"43849,08333","45,2","1,1","1","220,7","23,9","78,6"],
    [48755,"43849,125","38,1","1,178","0,8","264,9","22,9","81,9"],
    [48756,"43849,16667","39,4","1,178","0,9","272,8","22,5","82,4"],
    [48757,"43849,20833","27","1,178","1,1","266,1","22,3","81,5"],
    [48758,"43849,25","26,5","1,257","0,6","292,9","22","82,3"],
    [48759,"43849,29167","32,9","1,309","0,8","279,5","21,8","82,8"],
    [48760,"43849,33333","37,5","1,466","0,5","181,8","24,1","74,8"],
    [48761,"43849,375","47,3","1,938","1","154,8","25,8","69,2"],
    [48762,"43849,41667","55","2,356","1","165,6","27","64,5"],
    [48763,"43849,45833","39,5","2,618","1","143,4","28,3","59"],
    [48764,"43849,5","38,1","2,042","1,3","166,6","30,1","53"],
    [48765,"43849,54167","41,5","1,597","1,2","114,2","31","49,8"],
    [48766,"43849,58333","45,5","1,78","1,1","108,9","32,4","45,2"],
    [48767,"43849,625","51","1,309","2,3","192,9","32,2","46,1"],
    [48768,"43849,66667","34,9","1,178","4,6","338,7","30,6","52,7"],
    [48769,"43849,70833","24,7","1,152","5,2","325,6","29,5","55,1"],
    [48770,"43849,75","27,6","1,074","4,8","332","28,7","57,1"],
    [48771,"43849,79167","29,4","1,1","4,8","332,3","28,1","58,6"],
    [48772,"43849,83333","25,9","1,178","4","336,2","28,1","58,4"],
    [48773,"43849,875","34,6","1,283","2,1","266,7","27,8","60,6"],
    [48774,"43849,91667","40,5","1,362","1,8","207,5","26,8","66"],
    [48775,"43849,95833","32,2","1,283","0,9","227,6","26,4","66"],
    [48776,"43850","20,8","1,231","0,7","205,3","25,7","70,6"],
    [48777,"43850,04167","34,9","1,257","0,7","265,9","25,2","71,6"],
    [48778,"43850,08333","17,3","1,204","1","234,5","25,1","70,6"],
    [48779,"43850,125","18,2","0,995","0,7","145,7","24,9","73,3"],
    [48780,"43850,16667","28,2","0,916","0,7","118,1","24,5","76,1"],
    [48781,"43850,20833","30,2","1,519","1","241,3","24","78,7"],
    [48782,"43850,25","35","1,519","0,7","144,2","24,5","75,5"],
    [48783,"43850,29167","32","2,016","0,8","204,4","24,1","79,5"],
    [48784,"43850,33333","76,8","2,068","0,9","81,6","24,2","78,5"],
    [48785,"43850,375","71,3","2,775","1,5","48,5","25","74,1"],
    [48786,"43850,41667","88,2","2,592","1,5","30","25,7","70,2"],
    [48787,"43850,45833","46,4","2,042","2,1","67,4","27","62,8"],
    [48788,"43850,5","12,8","2,042","2,3","182","27,9","58,5"],
    [48789,"43850,54167","9,7","1,99","1,3","53","29,4","53,3"],
    [48790,"43850,58333","5,8","2,985","2,4","93","29,2","54,7"],
    [48791,"43850,625","30,8","1,859","3,4","336","28,7","54,5"],
    [48792,"43850,66667","13,6","1,623","4,6","344,3","27,6","59"],
    [48793,"43850,70833","19,4","1,623","4,2","195,2","27","61"],
    [48794,"43850,75","11,9","1,571","3,1","246,7","26,8","61,6"],
    [48795,"43850,79167","19,3","1,728","3","322,7","26,5","62,3"],
    [48796,"43850,83333","16,2","1,728","2,4","318","26,1","63,8"],
    [48797,"43850,875","16,4","1,754","1,2","275","25,8","64,9"],
    [48798,"43850,91667","26,9","1,938","0,7","149","25,6","67"],
    [48799,"43850,95833","41,5","1,885","1,2","199,9","25","69,7"],
    [48800,"43851","41,2","1,833","1,3","163,6","24,5","72,4"],
    [48801,"43851,04167","33,3","1,702","1,1","150,9","24,1","74,7"],
    [48802,"43851,08333","29,6","1,466","0,5","238,4","23,9","77,2"],
    [48803,"43851,125","30,6","1,807","0,9","163,4","23,7","77,8"],
    [48804,"43851,16667","31,3","1,833","1,2","186","23,3","78,7"],
    [48805,"43851,20833","23,2","1,911","0,8","113","22,6","83,7"],
    [48806,"43851,25","27,4","2,147","0,8","149,8","22,1","90,1"],
    [48807,"43851,29167","31,3","2,226","0,8","174,7","21,6","95,1"],
    [48808,"43851,33333","25,7","1,964","0,7","241,6","21,1","97,6"],
    [48809,"43851,375","19,8","2,383","0,6","185,3","21,1","97"],
    [48810,"43851,41667","22,6","1,623","1,3","250,7","20,8","97,4"],
    [48811,"43851,45833","6,8","1,676","0,5","219,9","21,4","94,4"],
    [48812,"43851,5","10,1","1,938","0,3","80,6","22,9","86,8"],
    [48813,"43851,54167","18,2","1,78","1,1","69,3","23,7","82"],
    [48814,"43851,58333","31,1","1,859","1,6","77","24,1","79,9"],
    [48815,"43851,625","29,5","1,911","1,7","82,2","23,8","80,5"],
    [48816,"43851,66667","32","2,33","0,9","64,3","23,4","82,6"],
    [48817,"43851,70833","30,5","1,885","1","243,8","23,1","85,5"],
    [48818,"43851,75","31,1","2,068","1","264","23,3","81,1"],
    [48819,"43851,79167","35,2","1,911","1","267,4","22,8","84,8"],
    [48820,"43851,83333","43,4","2,33","0,4","186","22,9","83,6"],
    [48821,"43851,875","62,8","2,252","0,8","253,3","22,1","90,1"],
    [48822,"43851,91667","44,5","2,042","1,1","267,3","21,7","91,9"],
    [48823,"43851,95833","28,2","1,99","0,9","246,7","21,7","89,6"],
    [48824,"43852","23,7","1,833","0,3","131,5","21","93,6"],
    [48825,"43852,04167","15,6","1,597","0,3","138,1","20,8","95,4"],
    [48826,"43852,08333","14,7","1,833","0,4","98,9","20,9","96,2"],
    [48827,"43852,125","11,2","2,016","0,6","226,2","20,7","96,8"],
    [48828,"43852,16667","9,5","1,676","1,1","275,3","20","98,8"],
    [48829,"43852,20833","8,4","2,383","0,7","297,1","20","98,9"],
    [48830,"43852,25","13,6","1,938","0,5","234","20,4","98,1"],
    [48831,"43852,29167","25,5","2,147","0,5","204,2","20,5","97,7"],
    [48832,"43852,33333","28,3","2,697","0,3","116","20,9","96,6"],
    [48833,"43852,375","32,9","2,802","0,8","139,8","21,2","95,8"],
    [48834,"43852,41667","45,5","2,461","0,4","49,9","22","92"],
    [48835,"43852,45833","39,5","2,54","0,6","49,2","22,4","91,1"],
    [48836,"43852,5","49","2,697","0,8","67,4","22,9","86,4"],
    [48837,"43852,54167","61,7","3,142","0,9","65","24,1","79,4"],
    [48838,"43852,58333","54,6","3,613","1,4","51,5","24,9","74,3"],
    [48839,"43852,625","54,9","5,132","1,4","59,2","25,5","70,8"],
    [48840,"43852,66667","61,5","4,399","1,5","179,7","24,8","75,4"],
    [48841,"43852,70833","46,7","3,482","2","203","23,7","73,9"],
    [48842,"43852,75","20","3,011","1,3","242,4","22,4","85,2"],
    [48843,"43852,79167","20,5","3,273","0,9","237","22,2","89"],
    [48844,"43852,83333","28,9","2,618","1,9","267,6","21,4","88,6"],
    [48845,"43852,875","12","2,618","1,6","272,5","21,2","86,2"],
    [48846,"43852,91667","24,5","2,592","1,7","270,7","20,7","86,6"],
    [48847,"43852,95833","18,9","2,461","1,5","274","20,2","87,7"],
    [48848,"43853","19","2,33","1,4","273,7","19,9","89,5"],
    [48849,"43853,04167","28,6","2,304","0,7","258,8","19,9","91,1"],
    [48850,"43853,08333","29","2,566","1","282,2","19,4","93,8"],
    [48851,"43853,125","25,8","2,566","0,5","207","19,5","93,2"],
    [48852,"43853,16667","25,2","2,435","0,4","207,4","19,2","96"],
    [48853,"43853,20833","29,6","2,644","0,2","99,7","19,7","94,9"],
    [48854,"43853,25","37","2,749","0,4","183,1","19,9","94"],
    [48855,"43853,29167","59,1","3,273","0,4","154,6","19,6","95,7"],
    [48856,"43853,33333","81,5","3,168","0,6","182,5","20,8","89,3"],
    [48857,"43853,375","71,1","3,561","0,6","150,6","22,9","79,2"],
    [48858,"43853,41667","67,8","4,085","0,8","100,5","24,6","71,5"],
    [48859,"43853,45833","63,1","3,456","0,9","107,8","25,7","65,8"],
    [48860,"43853,5","66,8","3,168","1","95","26,8","60,3"],
    [48861,"43853,54167","56,1","3,037","1,3","179,4","26,8","61,1"],
    [48862,"43853,58333","44,6","3,011","0,6","156,5","27,4","59"],
    [48863,"43853,625","ND","ND","0,8","209,3","27,6","58,8"],
    [48864,"43853,66667","ND","ND","ND","ND","ND","ND"],
    [48865,"43853,70833","8,7","5,368","1,6","280,1","27,5","60,5"],
    [48866,"43853,75","ND","0,052","3,5","336,2","26,6","59,2"],
    [48867,"43853,79167","ND","0,026","ND","ND","ND","ND"],
    [48868,"43853,83333","10,8","0","2,9","324,3","25,8","62,3"],
    [48869,"43853,875","16","0","1,4","260,4","24,7","69,6"],
    [48870,"43853,91667","37,7","0,026","0,8","227,1","23,5","75,2"],
    [48871,"43853,95833","39,9","0","1,4","278,2","22,4","79,5"],
    [48872,"43854","35,9","0,079","0,5","168,1","22,8","76,8"],
    [48873,"43854,04167","40,7","0","0,9","265,5","21,9","82,4"],
    [48874,"43854,08333","33","0","1","267,9","21,3","82,9"],
    [48875,"43854,125","23,9","0","0,7","263,7","21,5","82,8"],
    [48876,"43854,16667","24,3","0","0,6","253","21,1","85,2"],
    [48877,"43854,20833","25,5","0","1,1","269,4","20,7","87,2"],
    [48878,"43854,25","31,5","0,026","0,7","262,2","20,3","88,5"],
    [48879,"43854,29167","48,9","0","0,9","288,3","20,1","89,5"],
    [48880,"43854,33333","59,1","0","0,9","256,5","21","85,7"],
    [48881,"43854,375","63,4","0,026","0,6","208,6","23,2","76,8"],
    [48882,"43854,41667","48,4","1,466","0,8","170,4","25","70"],
    [48883,"43854,45833","45,6","3,299","1,2","172,6","26,2","65,6"],
    [48884,"43854,5","48,4","1,702","1,4","138,5","26,8","63,6"],
    [48885,"43854,54167","45,5","0,55","0,9","122,2","27,5","60,5"],
    [48886,"43854,58333","46","0,131","0,9","194","28,3","57,3"],
    [48887,"43854,625","49,1","0,079","0,9","142,3","29,6","53,4"],
    [48888,"43854,66667","63,4","0,288","1,1","147,6","29,4","54,4"],
    [48889,"43854,70833","76,7","0,105","2,2","293,2","29,1","55,8"],
    [48890,"43854,75","46,8","0","3,6","334,6","27,7","58,8"],
    [48891,"43854,79167","22,2","0","3,8","339,7","26,5","61,6"],
    [48892,"43854,83333","21","0","3,5","325,8","26,3","61,6"],
    [48893,"43854,875","18,8","0,026","2,2","290,6","25,6","63,8"],
    [48894,"43854,91667","32,7","0","1,5","237,3","25,1","66,8"],
    [48895,"43854,95833","48,1","0","1,1","205","24,1","73,7"],
    [48896,"43855","49,2","0","0,8","264,6","23,4","75,3"],
    [48897,"43855,04167","39,1","0","0,6","216","23,3","76,8"],
    [48898,"43855,08333","34,7","0","0,6","242,1","22,5","80,1"],
    [48899,"43855,125","30,2","0","0,7","286,1","21,8","84,1"],
    [48900,"43855,16667","31,3","0","0,9","263,6","21,6","84,5"],
    [48901,"43855,20833","31,6","0","0,8","272,6","21,7","83,9"],
    [48902,"43855,25","40,2","0","1,1","272,2","21,4","84,2"],
    [48903,"43855,29167","40,3","0","0,8","205","21","86,9"],
    [48904,"43855,33333","48,2","0,131","0,5","180,6","22,3","82,6"],
    [48905,"43855,375","77","0,314","0,7","176,7","24","75,6"],
    [48906,"43855,41667","67,6","1,519","1","128,1","25,4","70,5"],
    [48907,"43855,45833","63,2","2,016","0,9","109,6","26,7","67,1"],
    [48908,"43855,5","59,4","1,047","1","88,4","28,6","58,2"],
    [48909,"43855,54167","52,2","0,393","1,3","72,5","30,1","51,1"],
    [48910,"43855,58333","48","0,183","1,5","150,7","29,8","52,3"],
    [48911,"43855,625","48,3","0","3,8","343","26,9","68,3"],
    [48912,"43855,66667","18,9","0,131","1,6","92,9","24,5","82,5"],
    [48913,"43855,70833","30,2","0,157","0,7","175,7","24,2","85,7"],
    [48914,"43855,75","41,1","0,052","1,1","260","24,2","85,1"],
    [48915,"43855,79167","47,9","0,079","0,6","138","23,6","86,4"],
    [48916,"43855,83333","57,5","0,052","0,5","127","23,2","87,9"],
    [48917,"43855,875","67,3","0,157","0,7","164,2","22,8","89,3"],
    [48918,"43855,91667","69","0","1,2","268,8","22,5","86,9"],
    [48919,"43855,95833","37,1","0,105","0,9","144,3","23,2","83,4"],
    [48920,"43856","56,3","0,079","0,9","170,8","22,3","89,9"],
    [48921,"43856,04167","67,6","0","0,5","124,9","22","92,7"],
    [48922,"43856,08333","59,8","0,026","0,5","111,4","22","93,5"],
    [48923,"43856,125","63,1","0","0,7","116,5","21,6","95,1"],
    [48924,"43856,16667","46,4","0","0,5","177,4","21,7","95,5"],
    [48925,"43856,20833","46,7","0,026","0,7","105,6","21,7","96,1"],
    [48926,"43856,25","42,7","0","0,7","82,8","21,6","96"],
    [48927,"43856,29167","46","0","0,5","87,1","21,7","95,1"],
    [48928,"43856,33333","45,9","0","0,6","121,3","21,2","97,1"],
    [48929,"43856,375","37,9","0","0,6","185,4","22","94,1"],
    [48930,"43856,41667","43,4","0,052","0,9","142","24","82,7"],
    [48931,"43856,45833","28,9","0,026","0,7","134,4","25,7","71,9"],
    [48932,"43856,5","42,7","0","0,8","113,8","27,3","64,4"],
    [48933,"43856,54167","36,3","0,105","0,9","160,1","28,6","58,4"],
    [48934,"43856,58333","26,6","0,052","1,7","199,5","28,8","55,7"],
    [48935,"43856,625","9,4","0,052","2,7","176,6","29,8","51,6"],
    [48936,"43856,66667","4,9","0","3,9","340,2","29,3","54,6"],
    [48937,"43856,70833","4,6","0","4,5","327,1","28","59,7"],
    [48938,"43856,75","7,9","0","4,1","340,6","26,6","62,9"],
    [48939,"43856,79167","9,8","0","3,8","337,5","26,1","62,2"],
    [48940,"43856,83333","12,5","0","3,4","252,5","25,7","63,5"],
    [48941,"43856,875","18,9","0,052","1,2","218,1","25,1","69,7"],
    [48942,"43856,91667","29","0","1,4","250","22,1","87"],
    [48943,"43856,95833","18,9","0","1,3","272,4","21,6","89,7"],
    [48944,"43857","17,8","0","1,5","238,2","21","90,4"],
    [48945,"43857,04167","6,5","0","0,6","190,4","20,8","94,8"],
    [48946,"43857,08333","8,1","0","0,3","121,9","20,7","96,9"],
    [48947,"43857,125","6,4","0","1","161,1","20,6","97,8"],
    [48948,"43857,16667","6,6","0","1,1","186,9","20,5","98,2"],
    [48949,"43857,20833","8,2","0","1,2","211,2","20,4","97,8"],
    [48950,"43857,25","9,5","0","0,3","143,2","20,6","97,5"],
    [48951,"43857,29167","15,1","0","0,8","235,5","20,7","97,2"],
    [48952,"43857,33333","22,4","0","0,3","106,3","21,5","93,3"],
    [48953,"43857,375","29,3","0,079","1,3","244,5","22,9","81,6"],
    [48954,"43857,41667","19","0,524","1,5","169","24,9","69,4"],
    [48955,"43857,45833","22,8","0,314","1","178,5","25,9","67,1"],
    [48956,"43857,5","22,1","0,026","1,2","195,5","26,5","64,7"],
    [48957,"43857,54167","20,3","0","1,4","209,6","27,6","60,5"],
    [48958,"43857,58333","15,6","0","1,2","169,2","28,8","54,5"],
    [48959,"43857,625","15,6","0","2,3","74,7","28,3","55,4"],
    [48960,"43857,66667","22,2","0","3,8","317,3","28,4","51,9"],
    [48961,"43857,70833","9","0,026","4,4","328,2","28,3","51,4"],
    [48962,"43857,75","11,2","0,026","4,5","344,1","26,6","57,7"],
    [48963,"43857,79167","12,2","0","4,1","331,2","25,9","60,1"],
    [48964,"43857,83333","14,4","0,026","1,7","206,4","25,5","66,7"],
    [48965,"43857,875","28,9","0,131","1,1","98,5","24,9","69,6"],
    [48966,"43857,91667","25","0","0,3","163,5","24,4","71,6"],
    [48967,"43857,95833","20,1","0","1,1","286,1","24","71,5"],
    [48968,"43858","15,5","0","0,8","271,5","23,7","75,2"],
    [48969,"43858,04167","18,4","0","0,6","183,7","23,5","77,2"],
    [48970,"43858,08333","22","0","0,9","60,1","23,1","77,8"],
    [48971,"43858,125","21,5","0","1,3","57,4","22,4","80"],
    [48972,"43858,16667","15,8","0","1,9","65,5","21,1","88,7"],
    [48973,"43858,20833","12,3","0","1,2","65,6","20,1","97,5"],
    [48974,"43858,25","13,3","0","0,8","68,3","20","98,2"],
    [48975,"43858,29167","17,3","0,026","0,7","93","20,3","96,5"],
    [48976,"43858,33333","24,1","0,026","0,7","163,4","20,4","94,5"],
    [48977,"43858,375","21,6","0","0,9","206,3","20,5","95,4"],
    [48978,"43858,41667","18,6","3,037","0,9","196,7","21,1","89,5"],
    [48979,"43858,45833","22","1,074","1,1","188,2","23,2","78,1"],
    [48980,"43858,5","17,7","1,1","0,6","135,5","25,5","67,9"],
    [48981,"43858,54167","26","0","1,3","157,6","26,9","59,3"],
    [48982,"43858,58333","19,2","0","1,6","129,3","28,3","55,1"],
    [48983,"43858,625","20,5","0","1,4","182,6","28","55,9"],
    [48984,"43858,66667","28","0","2","291,1","26,9","60,7"],
    [48985,"43858,70833","21","0","2,4","332,3","27","60,8"],
    [48986,"43858,75","16,9","0","3","341,6","26,4","61,4"],
    [48987,"43858,79167","16,5","0","2,6","311,1","25,4","63,9"],
    [48988,"43858,83333","18,2","0","1","235,4","24,7","66,9"],
    [48989,"43858,875","26,9","0","1,3","270,2","24","71,4"],
    [48990,"43858,91667","35,7","0,026","0,6","177,8","23,8","72,1"],
    [48991,"43858,95833","35,8","0","0,8","269","22,5","80,2"],
    [48992,"43859","35,9","0","0,8","231,5","22,2","82,2"],
    [48993,"43859,04167","29,8","0","1,1","261,8","21,9","82,4"],
    [48994,"43859,08333","19,4","0","0,9","256,5","21,5","84,5"],
    [48995,"43859,125","18,9","0","0,8","255,3","20,9","86,2"],
    [48996,"43859,16667","20,3","0","0,9","253,5","20,7","88,1"],
    [48997,"43859,20833","22,3","0","0,7","273,4","20,4","89,7"],
    [48998,"43859,25","31,9","0","1","275,3","20,2","90,2"],
    [48999,"43859,29167","49,7","0","1","270,4","20,4","88,1"],
    [49000,"43859,33333","61,4","0,052","0,6","249,2","21,5","84,4"],
    [49001,"43859,375","70,7","0,524","0,9","204,8","23,1","80,5"],
    [49002,"43859,41667","80","2,304","0,8","185,3","25","71,2"],
    [49003,"43859,45833","55,2","3,116","1,7","156,3","26,1","66,5"],
    [49004,"43859,5","37,6","4,085","1,2","140,8","26,7","63,6"],
    [49005,"43859,54167","40,6","4,687","1,6","202,1","27,9","58,6"],
    [49006,"43859,58333","48,8","2,042","1,5","160,6","28,8","55,5"],
    [49007,"43859,625","44,5","0,576","1,7","104,6","27,7","60,9"],
    [49008,"43859,66667","49","0,105","2,5","184,6","21,3","89,2"],
    [49009,"43859,70833","11,7","0,052","1,3","216,2","22,9","91,1"],
    [49010,"43859,75","ND","0,026","1","231,8","23,6","85,8"],
    [49011,"43859,79167","ND","0,026","1,1","252,3","22,9","83,6"],
    [49012,"43859,83333","ND","0,052","0,7","203,1","22,6","80"],
    [49013,"43859,875","ND","0,445","1","220,1","22,3","78,2"],
    [49014,"43859,91667","ND","0,157","1","277","21,9","81,3"],
    [49015,"43859,95833","ND","0","1,1","256,1","22","80,8"],
    [49016,"43860","ND","0,052","0,2","83","21,8","85,9"],
    [49017,"43860,04167","ND","0,026","0,9","253,9","20,8","89,3"],
    [49018,"43860,08333","ND","0","1,1","260,7","20,3","88,5"],
    [49019,"43860,125","ND","0","0,9","277","19,8","90,4"],
    [49020,"43860,16667","ND","0","0,8","263,8","19,6","90,3"],
    [49021,"43860,20833","ND","0","1,1","282,2","19,3","90,8"],
    [49022,"43860,25","ND","0","0,9","272,6","19,2","90,9"],
    [49023,"43860,29167","ND","0,079","0,7","265,9","19,1","92,2"],
    [49024,"43860,33333","ND","0,052","0,5","225,6","20,4","86,9"],
    [49025,"43860,375","ND","0,314","0,7","176,6","23,1","75,5"],
    [49026,"43860,41667","ND","0,681","0,7","135,2","24,9","69,8"],
    [49027,"43860,45833","ND","0,681","0,8","149,2","26,2","64,5"],
    [49028,"43860,5","ND","0,576","1","104,1","27,8","58,7"],
    [49029,"43860,54167","ND","0,445","1,4","90,3","28,9","55,3"],
    [49030,"43860,58333","ND","0,183","1,2","171,4","29,6","53,3"],
    [49031,"43860,625","ND","0,079","3","310","29,9","50,3"],
    [49032,"43860,66667","ND","0,026","4,1","314,7","29,9","51,2"],
    [49033,"43860,70833","ND","0","4,6","332,5","28,8","53,4"],
    [49034,"43860,75","ND","0","4,6","332,5","27,6","57,1"],
    [49035,"43860,79167","ND","0","4,9","328","26,7","60,3"],
    [49036,"43860,83333","ND","0","4,1","333,6","26,4","60,8"],
    [49037,"43860,875","ND","0,105","1,6","231,3","26,4","61,1"],
    [49038,"43860,91667","ND","0,105","1","219,7","26","65,5"],
    [49039,"43860,95833","ND","0,079","0,4","150,5","24,4","75,5"],
    [49040,"43861","ND","0,026","0,9","187,9","23,5","79,2"],
    [49041,"43861,04167","ND","0","0,9","263,7","22,4","83,1"],
    [49042,"43861,08333","ND","0","1","275,2","21,9","84,7"],
    [49043,"43861,125","ND","0","0,8","268,2","22,1","84"],
    [49044,"43861,16667","ND","0","0,5","198,7","22","86,3"],
    [49045,"43861,20833","ND","0","0,8","275,4","21,9","86,6"],
    [49046,"43861,25","ND","0,026","0,4","198,1","21,9","87,3"],
    [49047,"43861,29167","ND","0,052","0,6","200","21,5","89,1"],
    [49048,"43861,33333","ND","0,105","0,5","298,7","22,6","84,7"],
    [49049,"43861,375","ND","0,131","0,5","152,7","24,9","72,5"],
    [49050,"43861,41667","ND","0,314","1","116,4","26,5","67"],
    [49051,"43861,45833","ND","0,236","1,1","123,1","27,5","63,8"],
    [49052,"43861,5","ND","0,576","1,2","135,4","28,4","59,7"],
    [49053,"43861,54167","ND","0,131","1","167,9","29,5","55,2"],
    [49054,"43861,58333","ND","0,079","1,1","194,2","30,4","51,1"],
    [49055,"43861,625","ND","0,026","2,1","212,2","30,2","50,3"],
    [49056,"43861,66667","ND","0","2,5","328,5","30,7","48,3"],
    [49057,"43861,70833","ND","0","3,7","338,6","29,5","52,1"],
    [49058,"43861,75","ND","0","4,4","335,3","28,2","56,2"],
    [49059,"43861,79167","ND","0","5,1","325,8","27","58,2"],
    [49060,"43861,83333","ND","0","4,2","329","26,8","58,3"],
    [49061,"43861,875","ND","0","4,4","328,4","26,3","59,8"],
    [49062,"43861,91667","ND","0,026","1,9","262,1","26,3","59,2"],
    [49063,"43861,95833","ND","0,183","0,4","169,8","25","67,3"],
    [49064,"43862","ND","0,026","0,6","216,9","23,8","74"],
    [49065,"43862,04167","ND","0","0,8","247,1","23,1","78"],
    [49066,"43862,08333","ND","0","0,8","232,1","22,8","79,3"],
    [49067,"43862,125","ND","0","0,7","253","22,9","79,6"],
    [49068,"43862,16667","ND","0","0,6","235,9","22,8","81,5"],
    [49069,"43862,20833","ND","0,026","0,8","217,7","22,8","82,6"],
    [49070,"43862,25","ND","0,052","0,8","269,8","22,1","84,3"],
    [49071,"43862,29167","ND","0,157","0,8","254,5","22,2","83,8"],
    [49072,"43862,33333","ND","0,131","0,9","247,5","23","80,6"],
    [49073,"43862,375","ND","0,419","1","85,3","24,3","77,3"],
    [49074,"43862,41667","ND","2,121","1,1","129,7","25,7","71"],
    [49075,"43862,45833","ND","2,068","0,7","162,7","26,7","66,2"],
    [49076,"43862,5","ND","2,749","0,9","112,5","28,4","60,1"],
    [49077,"43862,54167","ND","1,807","1,4","92,9","29,5","55,5"],
    [49078,"43862,58333","ND","0,864","1,5","179,2","30,2","51,7"],
    [49079,"43862,625","ND","0,314","2,3","126,1","30,9","48,8"],
    [49080,"43862,66667","ND","0,105","3,7","335,9","30,8","47,8"],
    [49081,"43862,70833","ND","0,026","4,3","337,9","29,6","52,4"],
    [49082,"43862,75","ND","0,026","4,2","331,1","28","57,4"],
    [49083,"43862,79167","ND","0,026","4,4","332,5","27,3","60,2"],
    [49084,"43862,83333","ND","0,026","3,8","341,7","27","60,4"],
    [49085,"43862,875","ND","0,052","1,9","282,6","26,5","63,1"],
    [49086,"43862,91667","ND","0,079","1,3","282,1","25,8","68"],
    [49087,"43862,95833","ND","0","1,6","264,6","25,7","66,8"],
    [49088,"43863","ND","0,026","0,7","272,2","25","73"],
    [49089,"43863,04167","ND","0,026","0,8","211,4","24,7","73,9"],
    [49090,"43863,08333","ND","0","0,7","146,7","24,8","73,8"],
    [49091,"43863,125","ND","0,026","0,8","142,3","24","78,9"],
    [49092,"43863,16667","ND","0,026","0,8","156,3","23,4","82,6"],
    [49093,"43863,20833","ND","0","0,9","147","23,5","81,6"],
    [49094,"43863,25","ND","0","1,4","228,7","21,2","92,8"],
    [49095,"43863,29167","ND","0,026","1","302,4","21,4","94,2"],
    [49096,"43863,33333","ND","0","0,9","229,7","22,1","91,7"],
    [49097,"43863,375","ND","0","0,6","231,5","23,1","87,2"],
    [49098,"43863,41667","ND","0,026","1","56","25","76,5"],
    [49099,"43863,45833","ND","0,079","0,9","111,8","26,5","68,7"],
    [49100,"43863,5","ND","0,105","0,9","105,9","27,6","63,7"],
    [49101,"43863,54167","ND","0,131","1,1","187,8","28,6","60"],
    [49102,"43863,58333","ND","0,026","2,4","218,3","27,6","59,8"],
    [49103,"43863,625","ND","0,105","2,5","296,3","27,1","58,1"],
    [49104,"43863,66667","ND","0,026","3,1","334,3","28,8","56,5"],
    [49105,"43863,70833","ND","0","3","261,6","28,5","57,5"],
    [49106,"43863,75","ND","0","3,2","336,6","27,6","60"],
    [49107,"43863,79167","ND","0","3,4","331,2","26,8","61,1"],
    [49108,"43863,83333","ND","0,026","1,7","235,7","26,3","61,1"],
    [49109,"43863,875","ND","0","1,3","278,6","24,7","68,2"],
    [49110,"43863,91667","ND","0,026","1,3","268","24,2","69,6"],
    [49111,"43863,95833","ND","0","1,2","274,9","23,2","74,5"],
    [49112,"43864","ND","0","0,9","269,4","22,9","75,7"],
    [49113,"43864,04167","ND","0","1","254,9","22,9","76,3"],
    [49114,"43864,08333","ND","0","0,7","176,2","22,5","79,1"],
    [49115,"43864,125","ND","0","0,8","268,3","22,4","80,6"],
    [49116,"43864,16667","ND","0","1,1","254,4","22","86,8"],
    [49117,"43864,20833","ND","0,052","1,9","237,3","21,2","94"],
    [49118,"43864,25","ND","0,026","0,6","226,4","21,3","95,2"],
    [49119,"43864,29167","ND","0,105","0,8","278,9","21,1","95,8"],
    [49120,"43864,33333","ND","0,105","1","264,6","21,7","91,8"],
    [49121,"43864,375","ND","0,079","0,6","162,4","24","80"],
    [49122,"43864,41667","ND","1,728","1,1","145,1","26","69,6"],
    [49123,"43864,45833","ND","1,911","1,1","118,7","27,4","63"],
    [49124,"43864,5","ND","1,178","0,9","146,7","28,7","58,7"],
    [49125,"43864,54167","ND","0,34","1,4","80,1","29,4","56,9"],
    [49126,"43864,58333","ND","0,34","1,2","151,3","30,8","50,3"],
    [49127,"43864,625","ND","0,026","3,7","347,4","30,4","50,7"],
    [49128,"43864,66667","ND","0","4,4","343,5","30,3","51,4"],
    [49129,"43864,70833","ND","0,026","4,6","333,8","29,3","54,7"],
    [49130,"43864,75","ND","0","5,9","326,4","27,8","57,5"],
    [49131,"43864,79167","ND","0,026","5,6","326,7","26,8","61,2"],
    [49132,"43864,83333","ND","0","4,8","323,4","26,8","61"],
    [49133,"43864,875","ND","0","3,8","332,3","26,6","61,7"],
    [49134,"43864,91667","ND","0,052","1,1","196,3","26,1","68,2"],
    [49135,"43864,95833","ND","0,131","0,7","169,1","25","74,9"],
    [49136,"43865","ND","0","0,8","271,5","24","77,2"],
    [49137,"43865,04167","ND","0,105","0,6","227,9","23,7","78,3"],
    [49138,"43865,08333","ND","0","0,6","191,3","23","81,5"],
    [49139,"43865,125","ND","0,026","0,8","284,2","22,2","83,7"],
    [49140,"43865,16667","ND","0","0,8","286,4","22,2","84,4"],
    [49141,"43865,20833","ND","0,026","0,9","277,4","22,4","84,2"],
    [49142,"43865,25","ND","0,079","1,1","267,6","22,5","83,9"],
    [49143,"43865,29167","ND","0,183","0,7","277,5","22,6","83,8"],
    [49144,"43865,33333","ND","0,209","0,8","248,6","23,5","78,5"],
    [49145,"43865,375","ND","1,519","0,9","125,2","25,4","69,6"],
    [49146,"43865,41667","ND","0,655","1,3","139,5","26,5","64,7"],
    [49147,"43865,45833","30,8","0,183","1,2","169,7","27,5","61,2"],
    [49148,"43865,5","34,3","0,105","1,2","133,1","28,4","57,4"],
    [49149,"43865,54167","31,6","0,079","1","111,9","30","51,3"],
    [49150,"43865,58333","37,4","0,052","1,2","137,9","30,9","48"],
    [49151,"43865,625","42,7","0,026","2,9","249,9","30,6","49,2"],
    [49152,"43865,66667","29","0,026","5","343,5","30,1","51,9"],
    [49153,"43865,70833","20,8","0,026","5,1","334,6","29,1","54,9"],
    [49154,"43865,75","19,4","0","6,1","323,8","28","56,2"],
    [49155,"43865,79167","20,6","0,026","6,4","324,9","26,9","58"],
    [49156,"43865,83333","18,1","0","5,8","324,1","26,7","56,6"],
    [49157,"43865,875","14,8","0,157","2","250,4","26,7","55,3"],
    [49158,"43865,91667","25,4","0,419","0,7","185,3","25,6","62,8"],
    [49159,"43865,95833","44,2","0,105","0,6","237,8","24,2","68,6"],
    [49160,"43866","46,9","0","1,1","263,5","23","73,6"],
    [49161,"43866,04167","27,7","0","0,9","290,9","22,2","77,9"],
    [49162,"43866,08333","22,6","0","0,9","269,9","22,1","78,8"],
    [49163,"43866,125","23,6","0","1","269,9","21,7","80,1"],
    [49164,"43866,16667","21,8","0","0,9","272,8","21,7","80,2"],
    [49165,"43866,20833","24,3","0,209","0,9","280,2","21,5","82,2"],
    [49166,"43866,25","32,1","0","0,6","260,7","21,6","82,7"],
    [49167,"43866,29167","46,3","0,262","1","277,3","21,4","83,8"],
    [49168,"43866,33333","63,2","0,236","0,7","218","22,9","77,8"],
    [49169,"43866,375","65,5","0,367","0,6","106,2","24,9","69,7"],
    [49170,"43866,41667","54,1","0,995","0,9","176,9","26","64,3"],
    [49171,"43866,45833","46,8","4,53","1,6","176,2","27,1","59,6"],
    [49172,"43866,5","50,9","2,802","1,2","162,7","28,3","54,8"],
    [49173,"43866,54167","49,1","1,074","1","97,4","29,7","49,9"],
    [49174,"43866,58333","55,9","0,681","1,1","81,7","30,6","46,3"],
    [49175,"43866,625","47,6","0,026","3,4","304,6","31","41,6"],
    [49176,"43866,66667","19,8","0","4,3","333,8","30,9","43,1"],
    [49177,"43866,70833","18","0,131","5,1","327,8","29,4","47,7"],
    [49178,"43866,75","23,5","0","6,2","327","27,6","54"],
    [49179,"43866,79167","26,7","0","5,5","326,1","26,8","56,7"],
    [49180,"43866,83333","27,5","0,026","5,2","332","26,5","57"],
    [49181,"43866,875","21,4","0,052","2,5","282,1","26,4","57,2"],
    [49182,"43866,91667","37,8","0,079","0,6","194,5","24,9","65"],
    [49183,"43866,95833","59,9","0,052","1","272,7","23,7","70,5"],
    [49184,"43867","48,6","0,026","0,8","276,7","22,8","74"],
    [49185,"43867,04167","45,8","0,026","0,9","280,1","22","77,8"],
    [49186,"43867,08333","35,6","0","1,1","274,9","21,9","78,3"],
    [49187,"43867,125","31,6","0","1,2","269,4","21,6","79,5"],
    [49188,"43867,16667","33,6","0","1,1","234,2","21,6","79,1"],
    [49189,"43867,20833","30,2","0,079","0,6","296,6","21,2","82,1"],
    [49190,"43867,25","40,5","0,052","0,8","269,8","21,1","82,9"],
    [49191,"43867,29167","53,1","0,105","0,9","268,5","21,3","82,1"],
    [49192,"43867,33333","66","0,314","0,7","261,4","22,9","75,8"],
    [49193,"43867,375","85,9","0,55","1","103,5","24,9","68,6"],
    [49194,"43867,41667","77,7","1,204","0,9","159,3","25,7","62,3"],
    [49195,"43867,45833","52,9","2,147","1,1","152,3","27,2","56,4"],
    [49196,"43867,5","46,3","1,231","1,1","141,6","28,1","52,8"],
    [49197,"43867,54167","42,8","0,655","1,2","140,9","29,8","47,7"],
    [49198,"43867,58333","50,2","ND","1,3","102,2","31,2","43,2"],
    [49199,"43867,625","55,6","ND","3,7","298,4","31","42,8"],
    [49200,"43867,66667","32,4","0,026","4","330,9","30,7","44,3"],
    [49201,"43867,70833","25,9","0,026","5","325,2","29,5","48,3"],
    [49202,"43867,75","28,4","0","5,5","323,8","28","55,1"],
    [49203,"43867,79167","26,7","0,026","5,1","325,5","27,2","56,8"],
    [49204,"43867,83333","26,5","0","3,2","331,8","27,2","55,5"],
    [49205,"43867,875","25,7","0,052","0,8","159,4","26,8","56,3"],
    [49206,"43867,91667","34,2","0,314","1","256,4","25,8","60,6"],
    [49207,"43867,95833","55,4","0,262","0,7","252,5","23,8","68,8"],
    [49208,"43868","50,8","0,026","0,9","271,1","22,9","72,6"],
    [49209,"43868,04167","45,3","0","0,8","262,5","22,3","73,9"],
    [49210,"43868,08333","32,3","0","1","270,3","21,7","76,9"],
    [49211,"43868,125","29,1","0","0,7","268,5","21,5","77,7"],
    [49212,"43868,16667","27,8","0","1,1","279,9","21","80,1"],
    [49213,"43868,20833","28,8","0,026","1,5","274,7","21,1","79,4"],
    [49214,"43868,25","33,2","0","0,8","269,3","20,8","80,7"],
    [49215,"43868,29167","53,3","0,105","1","274,2","20,3","82,9"],
    [49216,"43868,33333","68,2","0,131","0,5","235,7","22,2","74,9"],
    [49217,"43868,375","72,9","0,785","0,7","155,4","24,7","67,8"],
    [49218,"43868,41667","93","2,068","1,4","90,7","26,1","62,9"],
    [49219,"43868,45833","81,6","4,582","1,2","155,8","27,2","58,6"],
    [49220,"43868,5","63,6","3,194","1","164","28,4","53,6"],
    [49221,"43868,54167","53,3","1,074","1,1","158,9","29,3","50,3"],
    [49222,"43868,58333","58","0,602","1","116,5","30,2","47,2"],
    [49223,"43868,625","44","0,079","3,4","305,2","30,3","45,7"],
    [49224,"43868,66667","27,8","0,026","3,6","312,1","30,3","45,9"],
    [49225,"43868,70833","24,1","0,026","3,8","334,5","29,5","48,3"],
    [49226,"43868,75","28,2","0,026","5,2","326","28","53,6"],
    [49227,"43868,79167","33","0","5,2","329,3","27,1","56,5"],
    [49228,"43868,83333","28,8","0,026","5,5","322,9","26,7","58,2"],
    [49229,"43868,875","27,4","0","4,7","332,3","26,8","57,9"],
    [49230,"43868,91667","22,5","0,026","2,9","307,9","26,3","59,9"],
    [49231,"43868,95833","26,4","0,026","1,1","279,7","25","66,1"],
    [49232,"43869","47,7","0","0,8","226,9","24,7","66,1"],
    [49233,"43869,04167","29,3","0,026","0,7","210","24,4","69,8"],
    [49234,"43869,08333","43,9","0","0,4","186,3","23,7","74,2"],
    [49235,"43869,125","40,6","0,026","0,6","197,2","23,1","79,7"],
    [49236,"43869,16667","51,7","0","1,2","255,6","21,1","94,5"],
    [49237,"43869,20833","34,3","0","0,8","251,1","21,2","95,2"],
    [49238,"43869,25","34","0","0,9","250,1","21,3","94"],
    [49239,"43869,29167","28,4","0","0,9","258,6","21,3","93,5"],
    [49240,"43869,33333","43,4","0,026","0,7","228,4","21,8","91,9"],
    [49241,"43869,375","56,1","0,105","0,6","101,7","23,8","80,1"],
    [49242,"43869,41667","59,5","1,021","0,9","170,6","25,9","69,9"],
    [49243,"43869,45833","50,2","1,335","1","133,6","27,4","63,5"],
    [49244,"43869,5","48,3","0,943","0,8","102,7","28,1","60"],
    [49245,"43869,54167","53,3","0,052","2,3","235,2","25,6","74,5"],
    [49246,"43869,58333","49,3","0","1,4","223,3","27","68,3"],
    [49247,"43869,625","29,2","0,052","2,3","256,4","29,8","51,2"],
    [49248,"43869,66667","14,6","0","5,8","329,9","28,2","55,7"],
    [49249,"43869,70833","18,7","0,026","6,6","332,2","26,6","60,4"],
    [49250,"43869,75","14","0","7","325,2","26","60,6"],
    [49251,"43869,79167","7,1","0","5,9","324,5","26,4","55,2"],
    [49252,"43869,83333","6,4","0,105","2,5","240,6","26,1","61,3"],
    [49253,"43869,875","47,7","1,152","1,6","220,3","25,1","69,5"],
    [49254,"43869,91667","51,9","0,367","0,8","259,2","24,4","73,9"],
    [49255,"43869,95833","56,3","0,236","0,9","256,4","23,3","78,4"],
    [49256,"43870","41,8","0,052","0,8","276,8","22,5","81"],
    [49257,"43870,04167","41,5","0,052","0,9","280","22,2","81,5"],
    [49258,"43870,08333","27,4","0,052","0,7","290,7","21,9","81,3"],
    [49259,"43870,125","20,3","0","0,4","110,1","22,8","72,6"],
    [49260,"43870,16667","11,7","0,052","0,8","191,8","22,4","79,6"],
    [49261,"43870,20833","37,8","0","0,5","223,1","21,9","80,9"],
    [49262,"43870,25","21,5","0,026","1,1","266,9","21,8","82,4"],
    [49263,"43870,29167","25,7","0,026","0,7","249,2","22","81,9"],
    [49264,"43870,33333","38,7","0,052","0,8","219,6","22,6","80,8"],
    [49265,"43870,375","44,1","0,34","0,6","136,4","24","73"],
    [49266,"43870,41667","35,8","1,492","1,2","138,6","25,6","66,1"],
    [49267,"43870,45833","37,1","1,178","1,3","66,8","26,7","62,6"],
    [49268,"43870,5","44,4","0,812","1,2","93,4","28","57,4"],
    [49269,"43870,54167","43,9","0,602","1,4","73,8","29,1","53,2"],
    [49270,"43870,58333","38","1,257","1,4","90,3","29,5","51,7"],
    [49271,"43870,625","41,1","1,623","1,2","81,5","30,3","48,7"],
    [49272,"43870,66667","30,6","0,89","1,7","269,3","30,8","46,5"],
    [49273,"43870,70833","26,8","0,079","3,7","339,5","29,9","50,5"],
    [49274,"43870,75","35,7","0,026","2,2","263,7","23,8","86,7"],
    [49275,"43870,79167","31,6","0,026","1,9","242,1","24,7","80,1"],
    [49276,"43870,83333","32,6","0,157","0,9","285,5","24","83,2"],
    [49277,"43870,875","42,1","0,026","1,3","250,8","25","70,9"],
    [49278,"43870,91667","35,8","0,079","0,6","205,3","24,2","78,5"],
    [49279,"43870,95833","67,7","0,079","0,9","272,6","22,8","82,3"],
    [49280,"43871","42,8","0,052","0,9","241,5","23","80,9"],
    [49281,"43871,04167","44,9","0,026","0,6","258,7","23","82,3"],
    [49282,"43871,08333","38","0","0,9","271,8","22,4","83,6"],
    [49283,"43871,125","29,4","0","0,8","262,8","22,4","82,8"],
    [49284,"43871,16667","29,1","0,105","0,8","252,9","22,2","84,6"],
    [49285,"43871,20833","29,4","0,052","0,5","241,7","22,1","85,1"],
    [49286,"43871,25","35,7","0,079","0,6","277,8","22,1","86"],
    [49287,"43871,29167","57,9","0,628","0,7","209","22,1","86,6"],
    [49288,"43871,33333","96,2","0,628","0,7","274,6","22,2","86,2"],
    [49289,"43871,375","89,4","0,393","0,5","111,4","24,2","77,1"],
    [49290,"43871,41667","81,3","0,628","0,8","157,5","26,1","66,3"],
    [49291,"43871,45833","60,8","0,602","1","178,2","27,4","61,4"],
    [49292,"43871,5","52,5","0,34","0,9","117,4","28,4","57,5"],
    [49293,"43871,54167","47,7","0,079","0,9","207,7","29,4","54,1"],
    [49294,"43871,58333","49,4","0,052","1,4","160,1","30,5","49,8"],
    [49295,"43871,625","49,1","0,079","1,5","255,2","31,4","46,5"],
    [49296,"43871,66667","59,5","0,026","2,9","337,7","31,6","47,7"],
    [49297,"43871,70833","43,2","0,026","4,5","335,4","30,5","51,2"],
    [49298,"43871,75","30,4","0,026","5,5","327,9","28,4","57,3"],
    [49299,"43871,79167","28,5","0,026","6,1","322,9","27,1","61,7"],
    [49300,"43871,83333","28,9","0","4","319,2","27,3","60,7"],
    [49301,"43871,875","25,7","0,131","0,8","181,4","27,6","59,9"],
    [49302,"43871,91667","43,9","0,052","0,9","225","26,8","63,6"],
    [49303,"43871,95833","49,9","0,079","0,7","128,8","25,8","70,6"],
    [49304,"43872","62,2","0,026","0,9","190,5","25","75,2"],
    [49305,"43872,04167","59,9","0,026","0,6","174,6","24,5","77,1"],
    [49306,"43872,08333","42,5","0,026","1","270,8","23,4","80,8"],
    [49307,"43872,125","25,7","0","0,9","260,9","22,9","81,9"],
    [49308,"43872,16667","25,9","0","0,6","257","22,7","82,9"],
    [49309,"43872,20833","28","0,026","0,6","273,8","22,2","85,8"],
    [49310,"43872,25","32,4","0,131","1","269,4","21,8","86,8"],
    [49311,"43872,29167","50,4","0,105","1,2","268,9","21,5","86,1"],
    [49312,"43872,33333","61,8","0,314","0,7","244","23,2","78,2"],
    [49313,"43872,375","62,6","0,864","0,4","128,2","25,4","69,1"],
    [49314,"43872,41667","64,1","2,121","1,2","152","26,9","63,2"],
    [49315,"43872,45833","55,4","1,178","1,4","129,2","28","55,7"],
    [49316,"43872,5","46,7","1,021","1,3","122,5","28,7","54,3"],
    [49317,"43872,54167","53,1","0,419","1,1","127,8","30,7","48,2"],
    [49318,"43872,58333","65,7","0,602","1,2","95,2","31,9","43,3"],
    [49319,"43872,625","62,1","0,079","2,7","302,5","32,2","43,1"],
    [49320,"43872,66667","41,6","0,052","4,7","331,5","31,1","45,9"],
    [49321,"43872,70833","25,5","0,026","5,2","330,6","30,1","49,4"],
    [49322,"43872,75","27,3","0","6,1","326,4","28,5","55"],
    [49323,"43872,79167","28,2","0","6","324,2","27,4","58,6"],
    [49324,"43872,83333","25,3","0","5,4","325,6","27,2","58,9"],
    [49325,"43872,875","23,4","0","3,1","286,2","26,9","60,3"],
    [49326,"43872,91667","25,9","0,052","2,7","314,4","26,4","62,9"],
    [49327,"43872,95833","24,2","0,052","1,1","250,8","25,3","66,3"],
    [49328,"43873","57,2","0,026","0,9","270,5","23,7","72,7"],
    [49329,"43873,04167","43,8","0","0,8","258,1","23","76"],
    [49330,"43873,08333","36","0","1","271,8","22,4","78,3"],
    [49331,"43873,125","29,6","0","0,8","282,5","22","79,8"],
    [49332,"43873,16667","28,8","0","1,1","275,8","21,5","82,2"],
    [49333,"43873,20833","32,4","0","1,3","266,4","21,3","82,6"],
    [49334,"43873,25","39,8","0","0,8","270,8","21,2","82,5"],
    [49335,"43873,29167","53,8","0,131","0,8","271,7","21","83,4"],
    [49336,"43873,33333","71,7","0,236","0,6","239,9","22,5","78,4"],
    [49337,"43873,375","91,5","0,576","0,7","148,9","24,6","70,6"],
    [49338,"43873,41667","81,7","2,226","1","154,1","26,2","63,4"],
    [49339,"43873,45833","67,8","1,78","1,1","160,2","27,5","59,5"],
    [49340,"43873,5","66,7","0,89","1,4","147,4","29,2","53,1"],
    [49341,"43873,54167","67,2","0,105","1,1","124,2","30","50,9"],
    [49342,"43873,58333","58,3","0,079","2,1","184,9","31","47"],
    [49343,"43873,625","44,7","0,026","5","335,3","30,7","47"],
    [49344,"43873,66667","27,5","0","5,5","320,1","30","49"],
    [49345,"43873,70833","29","0,026","6,5","324,9","28,8","53,8"],
    [49346,"43873,75","26,4","0,026","6,8","322,7","27,9","55,9"],
    [49347,"43873,79167","24","0","5,2","328,9","27,7","55,6"],
    [49348,"43873,83333","17,3","0,026","5,4","328","27,3","57,3"],
    [49349,"43873,875","24,6","0","4,4","327,2","26,9","59,9"],
    [49350,"43873,91667","20","0,026","1,4","240,4","26,5","61,3"],
    [49351,"43873,95833","29,4","0,105","0,6","239,8","24,7","70,5"],
    [49352,"43874","52,6","0,026","1,1","274,3","23,6","75,2"],
    [49353,"43874,04167","42,1","0","1","273,8","22,8","78"],
    [49354,"43874,08333","35,7","0","1,1","274,4","22,4","79,9"],
    [49355,"43874,125","34,1","0","1","268,2","22,1","81,4"],
    [49356,"43874,16667","32,3","0","0,9","262,9","21,9","82,1"],
    [49357,"43874,20833","29,6","0,209","0,8","270,3","21,7","83,3"],
    [49358,"43874,25","35,1","0,105","1","278,8","21,7","83,7"],
    [49359,"43874,29167","50,3","0,183","1","272","22","83,3"],
    [49360,"43874,33333","84,3","0,367","0,7","217,2","23,4","77,5"],
    [49361,"43874,375","81,6","0,55","0,7","241,9","24,8","71,7"],
    [49362,"43874,41667","75,8","1,414","1,2","166,9","26,6","64,6"],
    [49363,"43874,45833","78","2,906","1,7","130,2","27,8","59,9"],
    [49364,"43874,5","64,1","1,65","1,3","144","28,7","56,6"],
    [49365,"43874,54167","63,8","0,105","1","67,5","30","51,6"],
    [49366,"43874,58333","55","0,079","1,6","160","31,3","45,9"],
    [49367,"43874,625","36,5","0,052","3,7","337,5","31,4","44,4"],
    [49368,"43874,66667","22,1","0","3,7","335,6","31,5","44,3"],
    [49369,"43874,70833","21,8","0","4,1","335,8","30,7","47,3"],
    [49370,"43874,75","26,6","0","5,8","326,7","28,9","52,4"],
    [49371,"43874,79167","28,8","0","6,5","324,7","27,6","57,9"],
    [49372,"43874,83333","32,6","0,105","5,7","325,9","27","60,2"],
    [49373,"43874,875","23,2","0,026","2,8","279","27,1","58,8"],
    [49374,"43874,91667","27,2","0,393","0,8","135,9","26,6","62,9"],
    [49375,"43874,95833","61,9","0,079","0,6","158,6","25,8","67"],
    [49376,"43875","41,4","0,026","1,3","244,9","25,4","67,4"],
    [49377,"43875,04167","36,9","0,026","1","193,9","24,8","71,7"],
    [49378,"43875,08333","50,4","0","0,7","176,3","24,1","75,6"],
    [49379,"43875,125","54,3","0","1","260,7","23,4","78,5"],
    [49380,"43875,16667","45,2","0","1,1","269,8","23","79,3"],
    [49381,"43875,20833","34,2","0","0,6","166,3","23,6","77"],
    [49382,"43875,25","43,9","0,314","1,1","187,4","23,1","80,6"],
    [49383,"43875,29167","60,9","0,157","0,8","125,8","23,1","79,2"],
    [49384,"43875,33333","61,2","1,178","1,2","187,2","24,4","73,5"],
    [49385,"43875,375","69,3","1,466","1,4","134,8","24,8","73,9"],
    [49386,"43875,41667","85,5","2,487","0,8","128,6","25,6","67,8"],
    [49387,"43875,45833","58","ND","1","193,1","27,4","60,7"],
    [49388,"43875,5","60,9","ND","1,2","162,6","28,8","56,1"],
    [49389,"43875,54167","61,9","0,943","1,7","108,7","30,2","52,6"],
    [49390,"43875,58333","68,6","0,367","1,3","154,3","30,9","48,3"],
    [49391,"43875,625","ND","0,34","1,4","202,6","32,3","43,9"],
    [49392,"43875,66667","ND","0,288","3,1","208,2","31,4","48,1"],
    [49393,"43875,70833","ND","0,026","6,4","322,4","28,8","56,4"],
    [49394,"43875,75","ND","0","6","323,7","27,6","58,7"],
    [49395,"43875,79167","ND","0,026","7","328,8","26,5","63,5"],
    [49396,"43875,83333","ND","0","5,3","327,1","26,8","60,2"],
    [49397,"43875,875","ND","0,131","1,8","214,2","26,9","61,9"],
    [49398,"43875,91667","ND","0,288","1","83,9","26,1","67,6"],
    [49399,"43875,95833","ND","0,052","0,7","153,3","25,3","69,5"],
    [49400,"43876","ND","0,026","0,8","280,9","24,9","69,3"],
    [49401,"43876,04167","ND","0,052","0,8","194,2","24,5","72,7"],
    [49402,"43876,08333","ND","0,026","0,9","275,7","23,2","78,4"],
    [49403,"43876,125","ND","0","0,8","276,2","22,7","80,4"],
    [49404,"43876,16667","ND","0","0,7","266,7","22,5","81,4"],
    [49405,"43876,20833","ND","0","0,6","241,4","22,1","85,1"],
    [49406,"43876,25","ND","0","1,1","275,6","21,6","85,6"],
    [49407,"43876,29167","ND","0,026","0,9","255,9","21,7","85,3"],
    [49408,"43876,33333","ND","0,079","0,9","254,5","22,5","81,6"],
    [49409,"43876,375","ND","0,209","0,5","117,9","24,7","73,2"],
    [49410,"43876,41667","ND","0,471","1","118,9","26,4","66,1"],
    [49411,"43876,45833","ND","1,44","1,2","132,8","28","59,1"],
    [49412,"43876,5","ND","1,728","1,2","126,2","29,2","54,8"],
    [49413,"43876,54167","ND","3,011","1,1","123,1","30,7","50,6"],
    [49414,"43876,58333","ND","1,859","1,2","117,2","31,6","48,1"],
    [49415,"43876,625","ND","1,074","3","195","31,2","49,5"],
    [49416,"43876,66667","ND","0,105","4,9","329,8","30,7","51,5"],
    [49417,"43876,70833","ND","0,052","5,2","324,4","29,8","52,8"],
    [49418,"43876,75","ND","0","5,5","328,2","28,5","56,1"],
    [49419,"43876,79167","ND","0,026","5,7","323,9","27,8","58,3"],
    [49420,"43876,83333","ND","0","4,1","331,8","27,9","56,8"],
    [49421,"43876,875","ND","0,052","1,7","252,6","28","57,4"],
    [49422,"43876,91667","ND","0,236","0,6","185,6","27,2","62,5"],
    [49423,"43876,95833","ND","0,209","0,7","251","26,3","67,2"],
    [49424,"43877","ND","0,079","1","235,1","25,5","69,4"],
    [49425,"43877,04167","ND","0,052","1,1","241,2","25","72,2"],
    [49426,"43877,08333","ND","0,052","0,6","276,9","24,2","75,5"],
    [49427,"43877,125","ND","0,026","0,8","199,2","23,9","77,2"],
    [49428,"43877,16667","ND","0","0,8","258,3","24,1","76,4"],
    [49429,"43877,20833","ND","0,026","1,2","196,8","22,9","87,2"],
    [49430,"43877,25","ND","0","0,7","238,9","22,2","93,4"],
    [49431,"43877,29167","ND","0,026","1","266,2","22","93,5"],
    [49432,"43877,33333","ND","0","0,4","140,1","23,3","87,5"],
    [49433,"43877,375","ND","0,236","0,5","85","25,1","77"],
    [49434,"43877,41667","ND","0,34","0,8","100,5","26,7","67,8"],
    [49435,"43877,45833","ND","0,55","1","112,5","28,4","60,4"],
    [49436,"43877,5","ND","0,314","1,1","140,5","29,8","55,8"],
    [49437,"43877,54167","ND","0,026","1,2","148,9","31,1","50,7"],
    [49438,"43877,58333","ND","0,026","1","139","32,5","45,3"],
    [49439,"43877,625","ND","0,052","2,3","302,3","32,1","46,5"],
    [49440,"43877,66667","ND","0","4,8","316,4","31,5","48,9"],
    [49441,"43877,70833","ND","0,026","5,5","328,6","29,6","55"],
    [49442,"43877,75","ND","0,026","6,7","326,8","27,8","60"],
    [49443,"43877,79167","ND","0,026","7,5","323,7","27","62,7"],
    [49444,"43877,83333","ND","0,052","4","329,5","27,6","59,8"],
    [49445,"43877,875","ND","0,026","5,3","326,4","26,8","62,9"],
    [49446,"43877,91667","ND","0,052","1,5","206,3","26,8","63,6"],
    [49447,"43877,95833","ND","0,052","1,4","192,7","26,3","67,8"],
    [49448,"43878","ND","0,026","0,7","183,4","25,3","73,4"],
    [49449,"43878,04167","ND","0","0,8","224,4","24,6","76,5"],
    [49450,"43878,08333","ND","0","0,9","272,4","23,5","81,4"],
    [49451,"43878,125","ND","0","1,1","283,6","22,9","82,5"],
    [49452,"43878,16667","ND","0","1,1","257,6","22,4","83,9"],
    [49453,"43878,20833","ND","0,34","0,5","234","22,5","82,8"],
    [49454,"43878,25","23,7","0,157","1,1","271,7","22,6","82,3"],
    [49455,"43878,29167","25,4","0,079","1,2","270,6","21,9","84,1"],
    [49456,"43878,33333","40,8","0,157","0,7","211,6","23,5","77,8"],
    [49457,"43878,375","25,7","1,1","1","126,2","25,7","70,6"],
    [49458,"43878,41667","29,9","2,068","0,9","102,2","27","64,3"],
    [49459,"43878,45833","26,2","2,487","1,2","115,2","28,5","58,4"],
    [49460,"43878,5","1","0,524","1,3","111,1","29,6","54,6"],
    [49461,"43878,54167","7,9","0,262","1,6","141,8","31,2","49,5"],
    [49462,"43878,58333","32,1","0,131","0,9","178,2","32,3","45,6"],
    [49463,"43878,625","33,1","0,471","1,5","164,2","33,3","40,5"],
    [49464,"43878,66667","61,5","0,655","1,2","193,9","33,4","39,4"],
    [49465,"43878,70833","52,5","0,079","3,4","334,9","31,8","47,6"],
    [49466,"43878,75","30,3","0","5,4","325,9","30,1","51,4"],
    [49467,"43878,79167","39,6","0,026","4,5","334,7","28,9","54"],
    [49468,"43878,83333","32,8","0","5,4","331,2","28,3","55,2"],
    [49469,"43878,875","25","0,026","4,9","321,1","28,2","54"],
    [49470,"43878,91667","22,6","0,105","1,5","272,9","28","53,9"],
    [49471,"43878,95833","6,2","0,131","0,8","222,3","26,5","59"],
    [49472,"43879","31,2","0,079","0,9","210","24,9","68,3"],
    [49473,"43879,04167","28,4","0,026","0,8","266,1","23,6","73,7"],
    [49474,"43879,08333","38,3","0,026","1,1","269,9","23","76,7"],
    [49475,"43879,125","56,4","0","1","219,5","22,7","76,6"],
    [49476,"43879,16667","9","0","0,7","289,4","21,9","80,6"],
    [49477,"43879,20833","19,9","0,026","1","269,1","21,5","81,6"],
    [49478,"43879,25","25,2","0,026","1,2","272,9","21,1","82,7"],
    [49479,"43879,29167","42,6","0,105","1,1","280,1","21,2","81,2"],
    [49480,"43879,33333","58","0,419","0,7","267,4","23,3","73,4"],
    [49481,"43879,375","63,2","1,754","0,6","97,1","25","67,6"],
    [49482,"43879,41667","84,3","2,592","0,9","157,5","25,6","65"],
    [49483,"43879,45833","86,8","3,378","1","186,9","27,6","58,1"],
    [49484,"43879,5","72,6","3,378","1","137,5","29,2","53,5"],
    [49485,"43879,54167","47,4","1,702","1,3","158,4","30,4","50"],
    [49486,"43879,58333","40,3","0,864","1,3","115,2","31,8","44,6"],
    [49487,"43879,625","39,8","0,838","0,9","119,9","32,9","38,4"],
    [49488,"43879,66667","77,7","0,89","1,1","230,9","33,2","37,2"],
    [49489,"43879,70833","74,4","0,052","4,1","318","31,9","47,4"],
    [49490,"43879,75","37","0,052","4,6","327,3","30,2","51,8"],
    [49491,"43879,79167","26,7","0","4,8","334,3","28,9","54,7"],
    [49492,"43879,83333","16,4","0,026","5,2","337,6","28,3","55,6"],
    [49493,"43879,875","0,3","0,052","4,5","323,2","28,3","54,2"],
    [49494,"43879,91667","ND","0,471","1","197,4","27,2","52,6"],
    [49495,"43879,95833","52,4","0,131","0,7","263","25","61,3"],
    [49496,"43880","41,2","0,079","1","273,7","24,2","64,8"],
    [49497,"43880,04167","23,3","0,052","1,1","265,6","23,5","68,3"],
    [49498,"43880,08333","8,5","0,026","0,5","196,3","23","70,5"],
    [49499,"43880,125","10","0","1,2","276,6","22,6","71,6"],
    [49500,"43880,16667","45,2","0,026","1,3","262,9","22,5","72,4"],
    [49501,"43880,20833","26","0","0,6","228","22,1","74,5"],
    [49502,"43880,25","25,3","0,026","1,1","273,1","21,2","78,1"],
    [49503,"43880,29167","47,6","0,236","1,2","275","21,2","77"],
    [49504,"43880,33333","49","0,812","0,7","255,1","23,3","69,1"],
    [49505,"43880,375","53,7","2,016","0,5","128,9","25,9","60,9"],
    [49506,"43880,41667","56,2","2,461","0,8","89,6","26,5","61,4"],
    [49507,"43880,45833","57,3","5,132","1","115,8","28,4","54,3"],
    [49508,"43880,5","78,4","3,875","1,4","65,4","29,4","52,9"],
    [49509,"43880,54167","49,6","3,273","1,7","94,6","30","52,3"],
    [49510,"43880,58333","30,9","0,131","3,6","289","30","50,5"],
    [49511,"43880,625","ND","0,026","4,6","346","29,4","52,3"],
    [49512,"43880,66667","14,6","0","4,1","344","29,9","50,5"],
    [49513,"43880,70833","4,7","0","4,2","343,5","29,5","52,9"],
    [49514,"43880,75","ND","0","4","341,4","28,7","54,8"],
    [49515,"43880,79167","2,3","0,026","3,7","335,1","27,8","57,5"],
    [49516,"43880,83333","18,5","0,052","4,3","328,7","27,2","59,6"],
    [49517,"43880,875","6","0,052","2,8","290,4","27","58,9"],
    [49518,"43880,91667","15,5","0,288","1,2","231,5","26,3","61,6"],
    [49519,"43880,95833","30,6","0,079","0,8","282,1","24,7","68,8"],
    [49520,"43881","5,5","0,079","0,8","258,5","23,8","72,8"],
    [49521,"43881,04167","11,4","0,052","1,2","268,9","23,1","75,6"],
    [49522,"43881,08333","6","0","1,1","279,3","22,8","76,9"],
    [49523,"43881,125","23,8","0","1,2","250,5","22,9","75,4"],
    [49524,"43881,16667","16,4","0","0,8","132,6","23,1","74,8"],
    [49525,"43881,20833","22,4","0","1","236,3","22,3","78,9"],
    [49526,"43881,25","9,3","0,026","2,2","98,6","23,1","75,8"],
    [49527,"43881,29167","29,9","0,707","1,5","51,2","24,1","74,4"],
    [49528,"43881,33333","65,4","4,451","0,9","200,5","24,1","75,1"],
    [49529,"43881,375","87,2","7,174","0,8","226","24,8","73"],
    [49530,"43881,41667","74,5","6,31","1,4","127,4","25,4","71,7"],
    [49531,"43881,45833","110,2","ND","1,1","171,7","26,9","66,1"],
    [49532,"43881,5","58,5","3,43","1,8","156,2","28,6","58"],
    [49533,"43881,54167","33,4","1,283","1","149,8","28,8","57,1"],
    [49534,"43881,58333","45,4","0,105","4,2","324,6","27,4","60,7"],
    [49535,"43881,625","31,5","0,026","4","338,4","28","58,2"],
    [49536,"43881,66667","14,8","0","4,5","342,2","27,2","60,5"],
    [49537,"43881,70833","23,5","0,131","3,7","316,9","26,8","62,9"],
    [49538,"43881,75","1,3","0,419","2,4","195,6","26,2","64,7"],
    [49539,"43881,79167","26,7","0,759","1,8","221,7","24,8","74,1"],
    [49540,"43881,83333","33,8","0,262","0,9","272,5","23,2","85,4"],
    [49541,"43881,875","14,8","0,079","0,8","213","22,1","94,5"],
    [49542,"43881,91667","8,8","0,026","0,9","231,5","21,8","96"],
    [49543,"43881,95833","3,7","0,026","0,6","259","22","95,8"],
    [49544,"43882","ND","0,026","0,8","270","21,5","95,2"],
    [49545,"43882,04167","3,2","0,026","1","272,1","21,1","94,1"],
    [49546,"43882,08333","ND","0,026","0,9","268,5","20,8","93,6"],
    [49547,"43882,125","ND","0","0,7","240,7","20,8","94,2"],
    [49548,"43882,16667","ND","0,026","0,5","134,1","21","95,3"],
    [49549,"43882,20833","2,8","0","0,7","275,7","20,9","94,6"],
    [49550,"43882,25","5","0,105","1","267,8","20,7","94,2"],
    [49551,"43882,29167","30,5","0,026","1","273,8","20,6","93,5"],
    [49552,"43882,33333","42,4","0,393","0,6","205,8","22,3","85,2"],
    [49553,"43882,375","43,6","5,001","0,6","136,8","23,6","80,6"],
    [49554,"43882,41667","44,1","10,159","0,7","184,4","24","76,8"],
    [49555,"43882,45833","16,8","5,944","1","229,1","24,2","75,3"],
    [49556,"43882,5","18,4","3,692","0,7","139","25,2","73,6"],
    [49557,"43882,54167","29,6","3,509","1,4","67,3","27,4","64,2"],
    [49558,"43882,58333","52,3","2,592","1,8","79,9","28,6","59,1"],
    [49559,"43882,625","46,7","4,713","1","98,5","29,2","55,2"],
    [49560,"43882,66667","2,2","1,074","3","313","29,7","49,9"],
    [49561,"43882,70833","5,2","0,209","3,8","338,9","28,6","53,8"],
    [49562,"43882,75","ND","0,785","2,1","285,2","27,1","60,4"],
    [49563,"43882,79167","33,9","1,126","1,2","250,6","26","67,2"],
    [49564,"43882,83333","31,9","0,524","2,6","181,3","24,2","71,8"],
    [49565,"43882,875","0,8","0,55","0,8","213,5","24,1","74,3"],
    [49566,"43882,91667","42,2","0,55","0,9","179,6","23,5","77,7"],
    [49567,"43882,95833","30,5","0,34","0,9","148,6","22,4","81,5"],
    [49568,"43883","10,3","0,157","0,5","221,2","22,2","83,5"],
    [49569,"43883,04167","5,9","0,183","0,5","150,4","22,8","81,4"],
    [49570,"43883,08333","5,4","0,105","0,9","239,7","22,4","84,4"],
    [49571,"43883,125","16,9","0,236","0,6","233,4","22,4","84,3"],
    [49572,"43883,16667","5,8","0,131","0,6","245,3","22,3","86,1"],
    [49573,"43883,20833","9,4","0,236","0,7","176,6","22,2","87,5"],
    [49574,"43883,25","15,1","0,079","0,5","134,1","21,9","90,3"],
    [49575,"43883,29167","17,4","0,157","0,8","61,2","22","90,9"],
    [49576,"43883,33333","32,6","0,209","0,9","88,2","22","91"],
    [49577,"43883,375","40,2","0,236","0,7","165,4","21,4","97,4"],
    [49578,"43883,41667","27,3","0,105","0,7","199,9","21,7","96,3"],
    [49579,"43883,45833","13,6","0,236","0,8","170,7","23,5","86,4"],
    [49580,"43883,5","25","0,759","0,7","102,8","24,8","78,6"],
    [49581,"43883,54167","21,6","0,288","1","169,6","25,9","74,2"],
    [49582,"43883,58333","43,7","0,079","1,4","208,4","26,2","72,2"],
    [49583,"43883,625","38","0,34","2,1","59,8","23,9","76,5"],
    [49584,"43883,66667","ND","0,314","1,2","205,8","26,1","70,7"],
    [49585,"43883,70833","10,6","0,105","0,9","177,3","27,1","66,6"],
    [49586,"43883,75","23,6","0,079","1,6","279,7","26,4","67,2"],
    [49587,"43883,79167","0,8","0,131","1,9","231,8","25,1","74,1"],
    [49588,"43883,83333","32","0,183","0,9","110,3","24,5","78,9"],
    [49589,"43883,875","22,3","0,157","0,7","176,2","24,3","80,5"],
    [49590,"43883,91667","43,6","0,079","0,5","202,6","23,7","83,9"],
    [49591,"43883,95833","35,2","0,157","0,6","163,8","23,6","85,3"],
    [49592,"43884","32,2","0,079","0,6","246,9","23,2","87,2"],
    [49593,"43884,04167","46,6","0,157","0,7","255","23","87,3"],
    [49594,"43884,08333","28,4","0,052","0,5","177,4","22,7","89,5"],
    [49595,"43884,125","20,7","0,026","0,8","241,1","22,3","89,2"],
    [49596,"43884,16667","2,1","0,052","0,3","110,2","22,4","89,8"],
    [49597,"43884,20833","24,4","0,052","0,4","218,5","22,3","90,1"],
    [49598,"43884,25","29,6","0,026","0,5","213,2","22,4","91"],
    [49599,"43884,29167","28,6","0,052","0,5","279,1","22,4","91,4"],
    [49600,"43884,33333","27,6","0,026","0,5","277,8","22,7","90"],
    [49601,"43884,375","43,5","0,105","0,4","158,3","23,6","84"],
    [49602,"43884,41667","32,9","0,288","0,9","102,9","24,7","78,5"],
    [49603,"43884,45833","33,6","1,807","1","109,8","26,4","70,6"],
    [49604,"43884,5","24","2,121","0,8","214,7","27,5","65,3"],
    [49605,"43884,54167","20,6","1,152","0,9","115,4","29","57,4"],
    [49606,"43884,58333","22,6","0,681","0,8","138,8","29,5","54,6"],
    [49607,"43884,625","16,4","0,236","2,1","265,8","29,5","55,2"],
    [49608,"43884,66667","0,4","0,052","3,5","332","30,1","52,1"],
    [49609,"43884,70833","1,2","0,026","4,5","328,4","28,8","55,4"],
    [49610,"43884,75","ND","0,183","2,3","217,1","26,9","63,2"],
    [49611,"43884,79167","13,3","0,105","1,8","150","25,8","68"],
    [49612,"43884,83333","14,7","0,079","1,8","173,8","22,7","90,2"],
    [49613,"43884,875","15,9","0,026","0,8","129","22,1","94,7"],
    [49614,"43884,91667","ND","0","0,6","179,5","22,2","95,4"],
    [49615,"43884,95833","ND","0,052","0,5","140,3","22,3","95,5"],
    [49616,"43885","ND","0,026","0,7","121,6","21,9","96,6"],
    [49617,"43885,04167","ND","0","0,8","162,6","21,7","96,5"],
    [49618,"43885,08333","ND","0,105","0,7","184,5","21,6","97,4"],
    [49619,"43885,125","7,4","0","0,6","220,4","21,7","96,9"],
    [49620,"43885,16667","8,6","0,105","0,4","165,7","21,7","97"],
    [49621,"43885,20833","ND","0,026","0,5","66,9","21,5","98,4"],
    [49622,"43885,25","ND","0,026","0,6","222,9","21,5","97,5"],
    [49623,"43885,29167","8,6","0,183","0,7","270,6","21,5","95,6"],
    [49624,"43885,33333","33","0,445","0,5","198,1","22,3","93,6"],
    [49625,"43885,375","63,8","0,288","0,9","138,9","23,2","89,5"],
    [49626,"43885,41667","43","1,231","1,3","142,1","25,3","77,8"],
    [49627,"43885,45833","27,8","2,068","1,4","148,6","26,1","73,8"],
    [49628,"43885,5","21,3","0,602","1,4","176,3","27,4","66,1"],
    [49629,"43885,54167","ND","0,131","1,5","260,6","28,6","60,5"],
    [49630,"43885,58333","10,9","0,262","1,4","121,9","29,9","53"],
    [49631,"43885,625","8,1","0,079","2,3","300,8","30,3","51,8"],
    [49632,"43885,66667","14,6","0,026","4,6","331,7","28,1","58,7"],
    [49633,"43885,70833","4,4","0,026","4,9","333,2","27,3","61,3"],
    [49634,"43885,75","8,4","0,052","4,3","340,4","26,7","62,8"],
    [49635,"43885,79167","7,7","0,052","2,3","254,5","22,5","87,7"],
    [49636,"43885,83333","ND","0,236","1","200,7","23,1","83,3"],
    [49637,"43885,875","20,7","0,34","1","227,2","22,8","83,2"],
    [49638,"43885,91667","34,2","0,419","0,6","145","22,9","80,7"],
    [49639,"43885,95833","32","0,131","0,9","189,1","22,8","83,2"],
    [49640,"43886","25,2","0,209","1,6","103,3","22,3","87,7"],
    [49641,"43886,04167","20,5","0,079","0,7","166,2","21,7","87,5"],
    [49642,"43886,08333","1,8","0,052","1","199,9","21,6","85,1"],
    [49643,"43886,125","0,5","0,026","0,7","166,4","21","90,2"],
    [49644,"43886,16667","3,1","0,026","0,7","142,7","20,8","90,5"],
    [49645,"43886,20833","5,2","0","0,3","153,5","20,6","92,7"],
    [49646,"43886,25","3,3","0,026","0,5","183,7","20,8","93,3"],
    [49647,"43886,29167","18,4","0,262","0,4","122,5","20,9","93,8"],
    [49648,"43886,33333","33,9","0,681","0,7","239,8","21,3","92"],
    [49649,"43886,375","44","0,236","0,5","127,4","22,3","86,6"],
    [49650,"43886,41667","64,6","0,262","0,6","159,1","22,9","83,7"],
    [49651,"43886,45833","45,1","0,052","0,7","171,1","24,1","78,3"],
    [49652,"43886,5","22,9","0,026","0,7","79,6","26,1","68,1"],
    [49653,"43886,54167","24,7","0,314","0,9","185,3","26,6","64"],
    [49654,"43886,58333","45","0,157","1,5","103,4","27,2","61"],
    [49655,"43886,625","0,5","0,157","1,5","120,2","29","53,5"],
    [49656,"43886,66667","32,8","0,655","1,5","141,9","27,7","61,5"],
    [49657,"43886,70833","44,4","0,445","1","116,5","26,1","69,2"],
    [49658,"43886,75","37,1","0,733","1,4","69,9","25,8","70,3"],
    [49659,"43886,79167","34","0,183","2,6","340,4","25,1","69,4"],
    [49660,"43886,83333","15,8","0,236","0,8","106,3","24,4","75,4"],
    [49661,"43886,875","30,2","0,419","0,9","235,1","23,3","86,5"],
    [49662,"43886,91667","28,5","0,105","0,6","257,3","22,5","94,2"],
    [49663,"43886,95833","34,5","0,236","0,9","244,4","22,3","95,5"],
    [49664,"43887","22,1","0,105","0,6","212,5","22,2","94,3"],
    [49665,"43887,04167","23,2","0,131","0,6","230,7","22,1","95,4"],
    [49666,"43887,08333","14,8","0,026","0,9","239,3","22,1","94,3"],
    [49667,"43887,125","7,8","0","0,9","119,9","21,2","95,7"],
    [49668,"43887,16667","2,8","0,131","0,8","118,3","20,8","99,4"],
    [49669,"43887,20833","ND","0,026","0,5","124,8","20,7","98,9"],
    [49670,"43887,25","6","0,052","0,5","192,8","20,7","98,8"],
    [49671,"43887,29167","8,7","0,026","0,6","198,4","20,5","98,3"],
    [49672,"43887,33333","3,4","0,157","1,2","176,6","20,3","98"],
    [49673,"43887,375","ND","0,052","1,5","211,4","19,7","98,9"],
    [49674,"43887,41667","10,6","0,052","1","236,3","20,2","94,4"],
    [49675,"43887,45833","8,4","0,026","1,1","205,4","21,4","89,6"],
    [49676,"43887,5","ND","0,026","1,5","154,5","23,6","79,5"],
    [49677,"43887,54167","ND","0,026","1,6","161,5","24,6","71,8"],
    [49678,"43887,58333","ND","0,131","0,9","139,7","25,1","68,7"],
    [49679,"43887,625","8,4","0,105","0,9","156,6","25,7","66,7"],
    [49680,"43887,66667","15,8","0,209","1,3","159,9","25,6","64,4"],
    [49681,"43887,70833","21","0,288","1,2","164,5","25,6","65,4"],
    [49682,"43887,75","30,6","0,209","1","173,5","25","71,1"],
    [49683,"43887,79167","24,5","0,105","1,1","252,2","23,5","82,4"],
    [49684,"43887,83333","35,3","0,026","1,4","269,3","22,4","86,4"],
    [49685,"43887,875","15,4","0,079","1,2","283","22","83"],
    [49686,"43887,91667","19,2","0,026","1","157,5","22,1","77,8"],
    [49687,"43887,95833","21,4","0,026","1,1","277,2","21,4","83,8"],
    [49688,"43888","25,5","0,105","0,9","273,7","21,2","85,7"],
    [49689,"43888,04167","19","0,026","0,8","249,3","21","86,7"],
    [49690,"43888,08333","5","0","0,6","214,1","21,2","86,5"],
    [49691,"43888,125","8,6","0,026","0,5","257,5","21,2","87,5"],
    [49692,"43888,16667","6,7","0","0,9","279,7","20,5","92,9"],
    [49693,"43888,20833","8,2","0,026","0,6","237,6","20,6","92,9"],
    [49694,"43888,25","16","0,079","0,4","173,5","20,7","95,7"],
    [49695,"43888,29167","27,2","0,236","0,5","206,2","20,5","94,3"],
    [49696,"43888,33333","50,6","0,785","0,5","175,1","21,3","92,7"],
    [49697,"43888,375","58,7","0,602","0,8","191,4","22,7","82,3"],
    [49698,"43888,41667","47,6","1,1","1","160,1","24","76,9"],
    [49699,"43888,45833","44,1","1,807","1,1","140,1","26","66,7"],
    [49700,"43888,5","30,8","1,885","1,3","154,1","27,2","60,6"],
    [49701,"43888,54167","ND","1,362","1","158,9","27,7","59,5"],
    [49702,"43888,58333","ND","0,471","1,2","167,2","28,6","56,4"],
    [49703,"43888,625","ND","0,079","2,5","270,5","27,3","59,7"],
    [49704,"43888,66667","ND","0,209","1,4","253,4","28,3","54,5"],
    [49705,"43888,70833","ND","0,34","1,5","158,3","29","52,9"],
    [49706,"43888,75","ND","0,34","3,2","256,2","27,9","56,8"],
    [49707,"43888,79167","26","0","3,5","329,7","26,3","60,8"],
    [49708,"43888,83333","31,3","0","2,7","287,1","25,5","63,5"],
    [49709,"43888,875","22,2","0,026","1,2","272,2","24,9","64,6"],
    [49710,"43888,91667","35,4","0,183","1,1","245,9","24,5","66,4"],
    [49711,"43888,95833","49,7","0,026","1,3","269","23,2","72,2"],
    [49712,"43889","34,3","0,026","1,3","260,8","22,8","74,1"],
    [49713,"43889,04167","27","0","0,7","257,6","22,8","76,1"],
    [49714,"43889,08333","26,2","0,026","0,5","222,2","22,8","78,6"],
    [49715,"43889,125","29,8","0,026","0,6","267,5","22,5","80,7"],
    [49716,"43889,16667","29,1","0,026","0,8","205,5","21,6","90,3"],
    [49717,"43889,20833","29","0,026","0,5","217,8","21,7","89,9"],
    [49718,"43889,25","28,8","0,052","0,2","129,5","21,5","92,5"],
    [49719,"43889,29167","48,2","0,34","0,5","189,3","21,6","90,1"],
    [49720,"43889,33333","83,9","0,236","0,7","216,1","22,1","88,5"],
    [49721,"43889,375","76,5","0,026","0,9","195,3","22,7","85,9"],
    [49722,"43889,41667","45","0,183","1,1","171,1","23,9","79,9"],
    [49723,"43889,45833","28","0,471","1,1","198,6","25,9","68,2"],
    [49724,"43889,5","10,9","0,262","1,4","182","27,5","61,4"],
    [49725,"43889,54167","ND","0,445","1,3","167,6","28,7","58,4"],
    [49726,"43889,58333","31,9","0,681","1,8","252,3","27,9","61"],
    [49727,"43889,625","48,5","0,052","0,9","231,1","29,6","53,5"],
    [49728,"43889,66667","6","0,052","2","150,9","30,4","50,1"],
    [49729,"43889,70833","24,3","0,026","4","343,7","29,6","52,2"],
    [49730,"43889,75","37,8","0,079","4,5","343,9","27,9","58,1"],
    [49731,"43889,79167","26,3","0,026","3,6","332,1","26,8","61,8"],
    [49732,"43889,83333","25,7","0,34","1,3","230,5","26,5","63,5"],
    [49733,"43889,875","44,2","0,157","0,6","179,4","26","65,9"],
    [49734,"43889,91667","35,9","0,183","1","255,9","25","71,1"],
    [49735,"43889,95833","61,2","0,288","0,8","263,4","24","75,4"],
    [49736,"43890","53,2","0,026","1,3","264,1","23,3","77,8"],
    [49737,"43890,04167","35","0,026","0,7","252,2","22,9","80"],
    [49738,"43890,08333","35,5","0","0,8","240,5","22,8","80,8"],
    [49739,"43890,125","32,9","0","0,8","270,2","22,3","84,1"],
    [49740,"43890,16667","33,9","0","1","280,6","21,7","85,7"],
    [49741,"43890,20833","25,7","0,026","0,8","215,9","21,8","85,6"],
    [49742,"43890,25","31,8","1,466","0,8","257,8","21,7","86,3"],
    [49743,"43890,29167","36,6","1,047","1,2","269,6","21,6","87"],
    [49744,"43890,33333","49,4","0,157","0,5","201","22,9","81,1"],
    [49745,"43890,375","57,9","0,105","0,6","175,6","24,4","74,8"],
    [49746,"43890,41667","68","0,445","1","200,4","26,2","68"],
    [49747,"43890,45833","41,6","2,252","1,2","207,1","27,4","63,7"],
    [49748,"43890,5","31,2","2,304","1,3","148","28,9","59"],
    [49749,"43890,54167","40,5","1,204","1","143,1","29,9","55,7"],
    [49750,"43890,58333","51,2","0,733","1,1","158,8","30,7","52,3"],
    [49751,"43890,625","83,8","0,131","3,1","326,9","30,7","51,9"],
    [49752,"43890,66667","10,3","0,052","5,1","331,8","29,9","53,5"],
    [49753,"43890,70833","38,2","0,026","6,8","323","28","58"],
    [49754,"43890,75","32,7","0,052","6,9","322,8","27","60,3"],
    [49755,"43890,79167","18,1","0,052","4,9","326","26,9","59,4"],
    [49756,"43890,83333","7","0,314","2,2","268,7","26,8","61,9"],
    [49757,"43890,875","47,6","0,628","1,1","119,3","26,3","67,2"],
    [49758,"43890,91667","48","0,262","0,9","203,1","25,9","70,3"],
    [49759,"43890,95833","58,9","0,131","1","137,5","25,7","71,2"],
    [49760,"43891","55","0,079","0,9","216","25,3","72,9"],
    [49761,"43891,04167","41,6","0,026","0,9","254,5","24,5","77,4"],
    [49762,"43891,08333","35,5","0,026","0,6","254,1","23,6","84,5"],
    [49763,"43891,125","26,5","0","0,9","240,4","23,2","87,9"],
    [49764,"43891,16667","21","0","1,1","274,4","22,9","88,8"],
    [49765,"43891,20833","29,4","0","0,5","225,6","23,1","87,6"],
    [49766,"43891,25","39,7","0,026","0,9","219,9","23","87,8"],
    [49767,"43891,29167","35,4","0","0,7","177,8","23","89"],
    [49768,"43891,33333","47,9","0","0,4","223,6","23,6","85,2"],
    [49769,"43891,375","38,9","0,052","0,6","197,4","25,6","74,5"],
    [49770,"43891,41667","39,5","0,288","1,2","75","25,9","72,6"],
    [49771,"43891,45833","61,3","0,471","0,8","114,7","27,5","65,5"],
    [49772,"43891,5","34,1","0,628","1,4","80,9","29","59,7"],
    [49773,"43891,54167","21,3","0,131","1,2","167,8","30,1","54,3"],
    [49774,"43891,58333","37","0,079","1,6","105,7","31,1","50,1"],
    [49775,"43891,625","39,5","0,079","4,1","243,4","30,5","52,4"],
    [49776,"43891,66667","47,2","0,026","5,5","331,7","29,8","52,2"],
    [49777,"43891,70833","14,8","0","5,3","325,2","29,2","53,1"],
    [49778,"43891,75","9,5","0,026","4,5","326,7","28,4","55,3"],
    [49779,"43891,79167","16,9","0,052","3,9","275,3","26,6","66,3"],
    [49780,"43891,83333","39,4","0,131","0,8","167,8","26","72,2"],
    [49781,"43891,875","38,8","0,026","1,1","159,7","25,4","75,8"],
    [49782,"43891,91667","37,7","0,183","0,6","96,1","25,1","77,7"],
    [49783,"43891,95833","39,7","0,052","1","112,3","23,7","84,4"],
    [49784,"43892","37,8","0,026","0,7","95,4","22,7","88,5"],
    [49785,"43892,04167","30,3","0","0,8","221,3","22,6","88"],
    [49786,"43892,08333","48,3","0,079","0,9","281,5","22,2","87,9"],
    [49787,"43892,125","34,3","0,026","0,5","250,5","22,1","86,5"],
    [49788,"43892,16667","29,8","0","0,7","258","22,2","84,6"],
    [49789,"43892,20833","25,9","0","0,4","189","22,4","85,2"],
    [49790,"43892,25","37,6","0,026","0,6","176,4","22,5","86,1"],
    [49791,"43892,29167","46,4","0,105","0,4","176","22,7","85,7"],
    [49792,"43892,33333","67,2","0,105","0,7","197,2","23,4","84,1"],
    [49793,"43892,375","75,1","0,419","0,5","82,1","25,3","74,7"],
    [49794,"43892,41667","52,3","0,733","1,1","117,4","26,2","71,4"],
    [49795,"43892,45833","66,5","2,068","1,1","216,1","27,6","63"],
    [49796,"43892,5","39,9","0,864","1,1","144,7","29","58,1"],
    [49797,"43892,54167","17,5","0,209","1,4","166,2","29,9","55,6"],
    [49798,"43892,58333","56,3","0,157","1,4","108,6","30,7","52"],
    [49799,"43892,625","58,8","0,157","2,6","264,8","31","48"],
    [49800,"43892,66667","ND","0,026","4,6","338,3","30,9","49,1"],
    [49801,"43892,70833","28,6","0,026","4,4","332,6","30,3","51,4"],
    [49802,"43892,75","20,3","0,052","4,9","331,2","28,7","56,9"],
    [49803,"43892,79167","25,7","0,052","5,2","319,9","27,4","60,9"],
    [49804,"43892,83333","28","0","3,3","323,6","27,2","61,8"],
    [49805,"43892,875","3,9","0,183","1,2","163,4","26,2","68,7"],
    [49806,"43892,91667","52","0,131","0,9","111,2","25,5","75"],
    [49807,"43892,95833","33,1","0,026","0,6","190,5","25,3","76,2"],
    [49808,"43893","36,2","0,026","0,5","157,1","24,5","77,9"],
    [49809,"43893,04167","34,7","0,026","0,4","206,3","23,6","80,4"],
    [49810,"43893,08333","30,6","0","0,8","275,9","22,7","83,3"],
    [49811,"43893,125","19,3","0","0,7","258,2","22,5","82,9"],
    [49812,"43893,16667","27,3","0","0,8","276,2","22,5","81,2"],
    [49813,"43893,20833","19,2","0,026","0,7","132","23","83,7"],
    [49814,"43893,25","54,6","0,079","0,5","204,6","22,5","87,3"],
    [49815,"43893,29167","61,8","0,157","0,9","289,8","22,1","86,9"],
    [49816,"43893,33333","60,1","0,445","0,9","163,7","23,4","81,3"],
    [49817,"43893,375","72,5","0,34","0,8","203","24,1","78,1"],
    [49818,"43893,41667","73,5","1,021","0,9","159,2","23,7","87,7"],
    [49819,"43893,45833","104,8","1,047","0,7","167,5","26,3","71"],
    [49820,"43893,5","49,9","0,89","1,5","101,2","28,6","61,2"],
    [49821,"43893,54167","42,3","0,445","1,3","144,5","30","55,1"],
    [49822,"43893,58333","42","0,052","1,1","86,8","31,7","48,7"],
    [49823,"43893,625","44","0,131","2,9","224,4","31,3","49,3"],
    [49824,"43893,66667","51,2","0,236","5","333","29,8","51,9"],
    [49825,"43893,70833","21,2","0,026","6","333,2","28,1","57,7"],
    [49826,"43893,75","12,2","0,183","4,7","331,7","27,9","57,1"],
    [49827,"43893,79167","11,6","0,131","2","220,1","27,1","60,3"],
    [49828,"43893,83333","35,3","0,209","1,9","290,5","26,4","63,5"],
    [49829,"43893,875","35","0,236","0,9","247,2","26,1","65,6"],
    [49830,"43893,91667","23,5","0,681","0,6","155,4","25,1","70"],
    [49831,"43893,95833","60,4","0,288","1,3","153,8","24,4","72,9"],
    [49832,"43894","55,1","0,105","1","258,1","24","75"],
    [49833,"43894,04167","28,9","0","0,7","267,6","24,1","75,8"],
    [49834,"43894,08333","28,2","0,131","0,3","125","23,8","77,3"],
    [49835,"43894,125","28,5","0,183","0,7","172,5","23,7","79,1"],
    [49836,"43894,16667","32,9","0,131","0,6","277,5","23,2","81,4"],
    [49837,"43894,20833","28,3","0,052","0,9","268,9","23,3","80,3"],
    [49838,"43894,25","32,3","0,367","0,9","226,9","23,3","81,1"],
    [49839,"43894,29167","47,1","0,105","0,8","93","23,1","84,3"],
    [49840,"43894,33333","74,9","0,34","0,5","94,3","24,1","80,6"],
    [49841,"43894,375","79,7","0,445","0,6","119","25,9","70,8"],
    [49842,"43894,41667","68,1","2,592","1,2","102,6","27,6","63,4"],
    [49843,"43894,45833","55,5","1,754","1,4","140,9","28,7","58"],
    [49844,"43894,5","50,8","0,916","1","167,3","29,3","56,5"],
    [49845,"43894,54167","21,7","0,131","1,4","121,9","31","50,3"],
    [49846,"43894,58333","53,2","0,131","1,5","169,9","31,9","46,3"],
    [49847,"43894,625","61,8","0,419","1,3","93,9","32,8","43,7"],
    [49848,"43894,66667","75,9","0,419","2,2","120,2","32,1","46,6"],
    [49849,"43894,70833","74,8","0,052","3,8","339,7","30,7","51,9"],
    [49850,"43894,75","19,4","0,026","4,9","332,7","29","57,2"],
    [49851,"43894,79167","31,9","0,026","4,6","331,1","27,8","61,6"],
    [49852,"43894,83333","25,9","0,209","3,1","308,7","27,9","59,6"],
    [49853,"43894,875","29,9","0,157","2,3","286,9","27,7","60,7"],
    [49854,"43894,91667","32,8","0,314","0,5","203,2","26,9","63,1"],
    [49855,"43894,95833","88,9","0,131","0,8","260,8","25,7","69"],
    [49856,"43895","119,4","0,262","0,7","286","24,5","75,4"],
    [49857,"43895,04167","173,2","0,079","0,5","258,1","23,7","78,8"],
    [49858,"43895,08333","92","0,052","0,7","271,3","23,2","81"],
    [49859,"43895,125","96,6","0,026","0,8","279,2","22,6","82,8"],
    [49860,"43895,16667","77,4","0,209","1,2","275,5","22,3","84,1"],
    [49861,"43895,20833","100,8","0,131","0,8","281,3","22,5","82,6"],
    [49862,"43895,25","78,5","0,393","0,8","269,1","22,7","82,5"],
    [49863,"43895,29167","104,5","0,209","0,6","224,4","22,8","84,6"],
    [49864,"43895,33333","82,7","0,681","0,6","171,4","23,8","80,9"],
    [49865,"43895,375","ND","ND","ND","ND","ND","ND"],
    [49866,"43895,41667","56,7","ND","1,2","130,8","27,1","66"],
    [49867,"43895,45833","63,6","7,043","1,1","111,9","28,7","59"],
    [49868,"43895,5","46,3","0,812","1,3","102,8","30","54,8"],
    [49869,"43895,54167","62","0,079","1,5","129,8","31,7","49,6"],
    [49870,"43895,58333","73,8","0,157","1,3","159,4","31,9","47,4"],
    [49871,"43895,625","58,5","0,052","3,7","342,6","31,4","48,1"],
    [49872,"43895,66667","3,5","0,157","4,6","340,8","31,1","50,2"],
    [49873,"43895,70833","44,3","0,157","5,6","328,6","29,8","54,2"],
    [49874,"43895,75","38","0,105","6,5","325,4","28,3","58,6"],
    [49875,"43895,79167","30,2","0,079","5,8","327,5","27,5","61,3"],
    [49876,"43895,83333","22,8","0,079","4","327,9","28","58,4"],
    [49877,"43895,875","19,9","0,131","2,5","307,2","27,5","60,2"],
    [49878,"43895,91667","20,5","0,209","1,1","232,8","27,1","62,2"],
    [49879,"43895,95833","30,1","0,393","0,6","154,7","26,3","68,7"],
    [49880,"43896","80,7","0,236","1","161,2","25,4","74,3"],
    [49881,"43896,04167","71,6","0,131","0,7","261,7","24,2","78,9"],
    [49882,"43896,08333","41,3","0,105","0,9","265,9","23,4","81,6"],
    [49883,"43896,125","34,6","0,052","0,7","247,7","23,6","80,1"],
    [49884,"43896,16667","33,1","0,052","0,7","268,8","23,6","80,6"],
    [49885,"43896,20833","34,3","0,288","0,6","143","23,4","82,6"],
    [49886,"43896,25","48,7","0,497","0,5","138,3","23,4","83,2"],
    [49887,"43896,29167","72,9","0,576","0,4","107,4","23,6","82,7"],
    [49888,"43896,33333","81,8","0,471","0,4","248,6","24,1","80,8"],
    [49889,"43896,375","79,5","1,309","1","176,3","24,8","78,7"],
    [49890,"43896,41667","85,7","3,692","1,5","202,7","25,4","73"],
    [49891,"43896,45833","68,8","2,304","0,9","152,7","27,3","65,8"],
    [49892,"43896,5","42,1","0,785","0,7","171,2","29,2","57,2"],
    [49893,"43896,54167","11","0,131","1,1","80,6","30,9","51,5"],
    [49894,"43896,58333","44,6","0,105","1,6","131,8","31,4","49,7"],
    [49895,"43896,625","63,3","0,052","1,6","106,4","31,7","48,9"],
    [49896,"43896,66667","51,2","0,157","5,1","308","30,9","50,7"],
    [49897,"43896,70833","43,8","0,052","6,4","325,2","29,5","53,9"],
    [49898,"43896,75","27,5","0,105","5,4","331,4","28,2","58,1"],
    [49899,"43896,79167","24,4","0,209","4,4","313,8","26,9","65,3"],
    [49900,"43896,83333","60,5","0,183","1,6","233,4","23,9","83,5"],
    [49901,"43896,875","35","0,209","1,7","264,4","23,4","88,3"],
    [49902,"43896,91667","48,6","0,079","1,4","275,1","23,6","86,4"],
    [49903,"43896,95833","41,1","0,131","0,8","270,8","23,8","84,3"],
    [49904,"43897","37,4","0,079","0,6","231","23,9","84,4"],
    [49905,"43897,04167","32","0,026","0,7","176,1","23,8","84,8"],
    [49906,"43897,08333","32,2","0","0,9","227,7","23,6","84,9"],
    [49907,"43897,125","33,8","0","0,4","81,3","23,5","82,6"],
    [49908,"43897,16667","18,7","1,178","0,4","149,5","23,4","83"],
    [49909,"43897,20833","40,9","0,576","0,7","140,3","23,2","86,2"],
    [49910,"43897,25","44,8","0,209","0,6","178,3","22,9","85,1"],
    [49911,"43897,29167","43","0,34","0,7","221,8","22,8","87,2"],
    [49912,"43897,33333","57,2","0,314","0,3","102","23,5","84,5"],
    [49913,"43897,375","59,6","0,602","1","121,7","24,1","81,4"],
    [49914,"43897,41667","70,2","0,995","1,3","59,3","26,3","70"],
    [49915,"43897,45833","45,5","1,283","1,6","135,5","26,7","66,5"],
    [49916,"43897,5","37,7","0,367","1,6","269,4","27,5","62,1"],
    [49917,"43897,54167","8,6","0,157","3,5","342,4","28","59,1"],
    [49918,"43897,58333","ND","0,079","4,1","328,8","28,4","56,6"],
    [49919,"43897,625","30,9","0,157","1,9","176","24,3","80,7"],
    [49920,"43897,66667","43,2","0,157","1","167,1","24,3","82,9"],
    [49921,"43897,70833","24,3","0,183","1,2","162,2","24,5","83,4"],
    [49922,"43897,75","23,2","0,209","1,1","131,7","23,8","83,4"],
    [49923,"43897,79167","45,3","0,157","1,2","261,1","23,3","85,5"],
    [49924,"43897,83333","48,3","0,34","0,9","190,6","23,2","87,3"],
    [49925,"43897,875","56","0,183","0,9","263,7","22,9","86,1"],
    [49926,"43897,91667","47,8","0,262","0,8","276,8","22,7","85,8"],
    [49927,"43897,95833","38,9","0,105","1","263,7","22,5","85,3"],
    [49928,"43898","35","0,079","0,6","185","22,3","86,3"],
    [49929,"43898,04167","51,8","0,105","0,6","176,7","22","88,6"],
    [49930,"43898,08333","38,3","0,288","0,8","172,4","22,2","88,3"],
    [49931,"43898,125","55,4","0,105","0,5","164","21,8","89,8"],
    [49932,"43898,16667","41,6","0,079","0,5","165,6","21,7","90,3"],
    [49933,"43898,20833","40,1","0,052","1","254,4","21,6","89,3"],
    [49934,"43898,25","32,7","0,157","0,4","202,5","21,8","88,2"],
    [49935,"43898,29167","37,3","0,052","0,6","251,1","21,3","89,8"],
    [49936,"43898,33333","34,7","0,131","0,7","271,7","21,9","86,7"],
    [49937,"43898,375","43,1","0,183","0,6","97,9","23,1","83,7"],
    [49938,"43898,41667","63,4","0,236","0,6","192,4","23,7","81,7"],
    [49939,"43898,45833","58,1","0,55","0,9","186,5","25,9","71"],
    [49940,"43898,5","33,6","0,576","1,3","165","27,8","60,2"],
    [49941,"43898,54167","ND","0,288","1","122,2","29,1","54,2"],
    [49942,"43898,58333","22,5","0,367","1","169,8","30,6","49,6"],
    [49943,"43898,625","56,7","0,393","1,4","145,4","30,6","49,8"],
    [49944,"43898,66667","24,5","0,052","3,4","342,3","30,5","51,3"],
    [49945,"43898,70833","38,1","0,105","3,6","323,7","30,1","51,3"],
    [49946,"43898,75","21,7","0,026","4","326,3","29,1","53,8"],
    [49947,"43898,79167","26,3","0,026","5,5","329,2","27,3","59,8"],
    [49948,"43898,83333","28,1","0,026","5,8","325,3","26,9","58,4"],
    [49949,"43898,875","20,5","0,026","3,9","319,1","26,9","57,4"],
    [49950,"43898,91667","13,7","0,131","1,2","190,8","26,5","61,5"],
    [49951,"43898,95833","41,3","0,157","0,5","157","25,4","67,5"],
    [49952,"43899","55,5","0,105","0,7","196,5","24,5","74,7"],
    [49953,"43899,04167","48,9","0,026","1","275,4","23,4","78,6"],
    [49954,"43899,08333","28,7","0","0,8","229,5","23,5","78,7"],
    [49955,"43899,125","40,6","0,026","0,5","236","23,7","79,2"],
    [49956,"43899,16667","37,9","0","0,7","167,5","23,8","79,6"],
    [49957,"43899,20833","36,3","0,026","0,6","160,9","23,9","78,8"],
    [49958,"43899,25","44,6","0,079","0,3","153","23,7","80,7"],
    [49959,"43899,29167","58,4","0,367","0,6","168","23,7","81,1"],
    [49960,"43899,33333","74,2","0,707","0,6","177,5","23,9","80,1"],
    [49961,"43899,375","86,3","0,419","0,6","137,2","24,2","79,1"],
    [49962,"43899,41667","69,2","0,707","0,8","176,7","24,7","78"],
    [49963,"43899,45833","74,9","3,639","1","137,8","27,5","64,8"],
    [49964,"43899,5","60,9","4,556","1,2","142,9","29","58,3"],
    [49965,"43899,54167","50,1","1,466","2","207","29,8","55,2"],
    [49966,"43899,58333","26","0,105","3,6","296,2","30,5","51"],
    [49967,"43899,625","20","0,052","3,8","309,1","31,1","48,4"],
    [49968,"43899,66667","39,2","0,026","5","339,3","30,5","49,4"],
    [49969,"43899,70833","23,9","0","5,4","331","29,1","52,5"],
    [49970,"43899,75","19,8","0,052","4,4","335,1","28,9","54,2"],
    [49971,"43899,79167","16,2","0","5,1","331","28","55,8"],
    [49972,"43899,83333","25,8","0,105","5,5","334,4","27,6","56,8"],
    [49973,"43899,875","18,5","0,131","2,3","277,6","27,5","59,9"],
    [49974,"43899,91667","55,8","0,236","0,9","261,2","26,9","66,5"],
    [49975,"43899,95833","35,2","0,105","0,6","201,3","25,9","69"],
    [49976,"43900","38,2","0,105","0,6","268,2","25,5","70,4"],
    [49977,"43900,04167","33,3","0,026","0,9","216,5","25,4","70,9"],
    [49978,"43900,08333","25,8","0","0,9","248,4","23,9","82,9"],
    [49979,"43900,125","37,4","0,026","0,9","203,9","23,7","82,8"],
    [49980,"43900,16667","23,6","0","0,8","205,5","23,4","85,1"],
    [49981,"43900,20833","27,7","0,026","1","258,1","22,6","91,9"],
    [49982,"43900,25","28,6","0,157","0,7","244,3","22,8","91,7"],
    [49983,"43900,29167","29,7","0,314","1,2","86","22,5","91,8"],
    [49984,"43900,33333","45,1","0,916","1,4","208,4","21,2","99,2"],
    [49985,"43900,375","38,6","0,576","1,1","213,5","21,5","99,9"],
    [49986,"43900,41667","41,5","0,288","1","90,6","23,8","86,7"],
    [49987,"43900,45833","21,6","0,262","1,7","178,8","25,6","76,1"],
    [49988,"43900,5","19,8","0,262","1","130,2","27,5","65,5"],
    [49989,"43900,54167","14,4","0,131","1","157,5","28,8","59,5"],
    [49990,"43900,58333","11,7","0,052","0,9","129,6","30","54,5"],
    [49991,"43900,625","31,8","0,052","2,5","204,8","30,3","53,4"],
    [49992,"43900,66667","30,9","0,026","5,2","302,3","29,4","55,1"],
    [49993,"43900,70833","41,9","0","6,3","322,6","27","62,2"],
    [49994,"43900,75","16,5","0,026","6","326,7","26,6","63,4"],
    [49995,"43900,79167","12,5","0,052","4,9","323,9","26,7","61,3"],
    [49996,"43900,83333","15,7","0,262","2","237,3","26,2","65,8"],
    [49997,"43900,875","34,7","0,105","1,4","183,2","23,8","84,6"],
    [49998,"43900,91667","43,5","0,052","0,7","249,9","22,7","91,8"],
    [49999,"43900,95833","21,5","0,026","0,9","212,8","22,5","92,3"],
    [50000,"43901","17,1","0","1","266,3","22","92,6"],
    [50001,"43901,04167","17,3","0","0,8","267,3","21,9","94,3"],
    [50002,"43901,08333","13,6","0","0,9","276,5","21,5","95"],
    [50003,"43901,125","14,8","0","0,5","148,2","21,7","94,2"],
    [50004,"43901,16667","21,4","0","0,7","234,3","21,7","95"],
    [50005,"43901,20833","15,8","0","0,9","270,9","21,2","95,7"],
    [50006,"43901,25","19,6","0","1","270,9","21,3","92,5"],
    [50007,"43901,29167","36,3","0,419","0,7","189,3","21,7","91,4"],
    [50008,"43901,33333","63,3","0,236","0,4","117,2","22,4","88"],
    [50009,"43901,375","59,5","0,34","0,6","138,7","24","81,4"],
    [50010,"43901,41667","55,7","0,419","0,9","106,6","24,2","81,1"],
    [50011,"43901,45833","76,2","1,414","0,8","87,8","26,3","69,9"],
    [50012,"43901,5","54","1,65","0,9","109,5","28","60,9"],
    [50013,"43901,54167","27,2","0,916","0,9","95,6","29,7","54,2"],
    [50014,"43901,58333","49,5","0,55","1,6","120,7","29,7","53,8"],
    [50015,"43901,625","65,7","0,052","4,4","329,8","28,4","56,2"],
    [50016,"43901,66667","ND","0,052","4,8","328,8","28,6","54,3"],
    [50017,"43901,70833","13","0","4,4","333,4","28,5","55,1"],
    [50018,"43901,75","25,3","0,026","4,4","344,3","27,2","60,7"],
    [50019,"43901,79167","13,1","0,052","3,8","334,9","26,6","61,4"],
    [50020,"43901,83333","21,4","0,026","3,6","336,7","26,2","62,7"],
    [50021,"43901,875","3,4","0,105","1,8","252,2","26","64,6"],
    [50022,"43901,91667","39,7","0,105","1","209,2","24,9","75,1"],
    [50023,"43901,95833","55,1","0,026","0,8","206,8","24,6","73"],
    [50024,"43902","21,9","0,105","0,7","169,5","24,9","74,9"],
    [50025,"43902,04167","31,8","0","0,8","184,6","24,4","76,6"],
    [50026,"43902,08333","34,2","0","0,7","165,9","24,2","77,2"],
    [50027,"43902,125","17,9","0","1,1","112,3","23,4","81"],
    [50028,"43902,16667","29,4","0","0,6","166,5","22,9","83,3"],
    [50029,"43902,20833","29,4","0,105","0,5","163,4","23","84,3"],
    [50030,"43902,25","32,4","0,052","0,6","51,5","22,7","87,9"],
    [50031,"43902,29167","40","0,079","0,9","169,9","22","92,4"],
    [50032,"43902,33333","36","0,236","0,7","47,5","22","94,5"],
    [50033,"43902,375","ND","0,236","0,5","238,9","22,6","89,9"],
    [50034,"43902,41667","ND","0,34","0,6","206,2","24,1","81,9"],
    [50035,"43902,45833","ND","1,597","1,2","123,3","26,5","70,1"],
    [50036,"43902,5","ND","0,367","1,1","183,5","27,6","63,6"],
    [50037,"43902,54167","ND","0,602","1","125,1","29","59,1"],
    [50038,"43902,58333","32,1","0,864","1,2","198,7","29,8","56,2"],
    [50039,"43902,625","29,1","0,34","1,4","263,1","30","53,6"],
    [50040,"43902,66667","28,5","0,105","3,8","302,1","29,6","54,4"],
    [50041,"43902,70833","11,6","0,026","5,7","327,6","27,8","59,1"],
    [50042,"43902,75","5,4","0,026","5,5","326,9","26,9","62,7"],
    [50043,"43902,79167","8,7","0,026","5,3","328,9","26,2","64,8"],
    [50044,"43902,83333","10,9","0,079","2,9","293,8","26,4","63,8"],
    [50045,"43902,875","13,7","0,602","1,1","196,5","26,1","66"],
    [50046,"43902,91667","38,4","0,079","2,2","252,4","25,4","68,8"],
    [50047,"43902,95833","17,9","0,052","0,8","228,4","25,7","67,3"],
    [50048,"43903","19,7","0,052","0,7","146,8","24,8","73,9"],
    [50049,"43903,04167","30,5","0","1,3","261","21,4","95,6"],
    [50050,"43903,08333","12,3","0","0,9","270,3","21,4","98,8"],
    [50051,"43903,125","16,5","0","1,6","148,2","21,4","98,4"],
    [50052,"43903,16667","ND","0","0,7","187,1","20,6","96,7"],
    [50053,"43903,20833","ND","0","0,4","153,2","20,5","95,8"],
    [50054,"43903,25","11,4","0,026","0,6","115,4","20,6","97,2"],
    [50055,"43903,29167","12","0,105","0,5","220,3","20,6","97,7"],
    [50056,"43903,33333","19,7","0,105","0,4","146,5","21,1","96,7"],
    [50057,"43903,375","24,9","0,288","0,8","162,8","21,9","94"],
    [50058,"43903,41667","23","1,571","1,2","76,1","22,8","89,3"],
    [50059,"43903,45833","58,2","3,613","1,3","92,8","24,3","83,4"],
    [50060,"43903,5","73,6","10,526","1","111,3","25,9","71,5"],
    [50061,"43903,54167","37,8","4,975","1","114,1","27,6","60,9"],
    [50062,"43903,58333","14,6","1,126","2,5","166,6","28,7","55,3"],
    [50063,"43903,625","3","0,105","3,9","279,9","28,6","55,9"],
    [50064,"43903,66667","3,4","0,026","5","328,7","27,6","57,6"],
    [50065,"43903,70833","5,6","0,026","5,3","341,1","27,2","58,9"],
    [50066,"43903,75","8,4","0,026","5,2","338,2","26,2","61,8"],
    [50067,"43903,79167","9,1","0,079","5,2","315,7","25,4","63,6"],
    [50068,"43903,83333","14,1","0,079","4,6","314,7","25,6","61,1"],
    [50069,"43903,875","10,4","0,445","2,4","286,8","26","58,6"],
    [50070,"43903,91667","18,6","0,55","1,2","228,2","25","72,9"],
    [50071,"43903,95833","70,6","0,471","0,7","106,4","24,6","72,2"],
    [50072,"43904","38,9","0,314","0,5","141,4","24,3","73,1"],
    [50073,"43904,04167","29,4","0,209","1,3","171,6","23,6","78,7"],
    [50074,"43904,08333","38,8","0,34","1,4","182,9","22,5","84,6"],
    [50075,"43904,125","24,3","0,026","0,8","227,8","21,8","87,3"],
    [50076,"43904,16667","13,2","0,052","0,5","131","22","86,3"],
    [50077,"43904,20833","28","0","0,9","243,3","22","88,1"],
    [50078,"43904,25","24,7","0,026","0,4","189,9","22,2","88,1"],
    [50079,"43904,29167","43,4","0,157","0,4","145,5","22,4","87,1"],
    [50080,"43904,33333","51,2","0,079","0,9","117,7","22,1","91,7"],
    [50081,"43904,375","47,7","0,262","1","213,9","21,1","95,5"],
    [50082,"43904,41667","19,3","0,052","1,4","195,3","20,6","97,8"],
    [50083,"43904,45833","12,3","0,026","1,5","255,8","21,2","95"],
    [50084,"43904,5","10,3","0,393","0,8","99,6","24,3","77,6"],
    [50085,"43904,54167","17","0,052","1,3","78,2","25,7","70,5"],
    [50086,"43904,58333","30,7","0,314","1,1","102","26,9","64,8"],
    [50087,"43904,625","31,8","0,262","1,8","135,9","28","59,3"],
    [50088,"43904,66667","18","0","3,8","344,4","27,3","59,3"],
    [50089,"43904,70833","6,2","0,026","3,9","339,8","27,4","58,3"],
    [50090,"43904,75","2","0","4,1","332,1","26,3","60"],
    [50091,"43904,79167","5,8","0,026","3,9","330,3","25,4","62,4"],
    [50092,"43904,83333","9,8","0,079","1","143,7","25","68,3"],
    [50093,"43904,875","34,8","0,34","0,5","117,3","24,6","72,3"],
    [50094,"43904,91667","48,6","0,183","1","138,1","23,8","81,2"],
    [50095,"43904,95833","45","0,026","0,6","116","23,2","85,5"],
    [50096,"43905","35,3","0,079","0,8","119,9","23","84,6"],
    [50097,"43905,04167","24","0,052","0,8","283,4","22,3","92,4"],
    [50098,"43905,08333","30,7","0,026","0,6","130,7","22","91,7"],
    [50099,"43905,125","16,6","0","0,5","182,7","22","90,1"],
    [50100,"43905,16667","25,4","0","0,5","141,9","21,9","90,9"],
    [50101,"43905,20833","16,5","0,026","0,6","152,5","21,8","89,4"],
    [50102,"43905,25","20,1","0,026","0,6","87,6","21,9","89,7"],
    [50103,"43905,29167","37,1","0,052","0,8","168","21,9","90,1"],
    [50104,"43905,33333","41,2","0,026","0,4","97","22,5","89"],
    [50105,"43905,375","37,7","0,209","1,4","75,6","23,4","81,7"],
    [50106,"43905,41667","47,8","1,021","0,9","104","25","72,7"],
    [50107,"43905,45833","28,5","1,964","0,8","218,2","26","68,6"],
    [50108,"43905,5","39,9","1,309","0,8","178,9","27","62,2"],
    [50109,"43905,54167","26,9","0,969","0,7","105,6","29","53,2"],
    [50110,"43905,58333","26,9","0,89","0,8","142,6","30","50,4"],
    [50111,"43905,625","40,6","0,969","0,6","112,3","29,6","52,9"],
    [50112,"43905,66667","39,5","0,34","3,4","221,8","28,6","55,8"],
    [50113,"43905,70833","16,9","0,026","4,3","344,1","27,6","58,6"],
    [50114,"43905,75","11,8","0,026","4,3","334,4","27,1","59,5"],
    [50115,"43905,79167","9,5","0,026","4,2","326,3","26,3","61,9"],
    [50116,"43905,83333","14","0,026","3,4","317,2","26,2","62,8"],
    [50117,"43905,875","12","0,105","1,3","253,1","25,4","67,5"],
    [50118,"43905,91667","31,2","0,157","1","246,9","24,9","72,4"],
    [50119,"43905,95833","38,6","0,052","0,8","249,8","23,9","78,1"],
    [50120,"43906","37,3","0,079","0,6","242,4","23,7","80,1"],
    [50121,"43906,04167","34,8","0,026","0,7","279,4","23,5","81,4"],
    [50122,"43906,08333","30,4","0,026","0,8","233,8","23","83,3"],
    [50123,"43906,125","22,3","0,026","0,8","234,4","22,6","84,8"],
    [50124,"43906,16667","25,6","0","0,6","209,3","22,6","84,7"],
    [50125,"43906,20833","24,7","0,105","0,7","224,3","22,8","84,8"],
    [50126,"43906,25","38,9","0,864","0,6","232,5","22,6","86,6"],
    [50127,"43906,29167","53,4","0,183","0,5","203,5","22,6","87,4"],
    [50128,"43906,33333","62,3","0,236","0,7","211","23,1","85,3"],
    [50129,"43906,375","62","0,183","0,9","161,7","25","75,6"],
    [50130,"43906,41667","49,2","0,602","1,1","161,3","25,5","74,7"],
    [50131,"43906,45833","51,3","0,733","1","185,8","26,8","67,7"],
    [50132,"43906,5","38","1,283","1,3","172,7","27,2","66,5"],
    [50133,"43906,54167","39,4","0,079","3,9","331,6","27,3","62,1"],
    [50134,"43906,58333","3,7","0,052","4,5","345","27,1","62,4"],
    [50135,"43906,625","4,3","0","4,1","324,9","27,5","59,7"],
    [50136,"43906,66667","2,9","0,288","2,3","183,4","26,7","64,5"],
    [50137,"43906,70833","37,8","0,445","1,5","74,7","25,6","72,7"],
    [50138,"43906,75","43,8","0,524","0,6","133,7","25,6","71,8"],
    [50139,"43906,79167","46,8","0,681","0,7","159,5","25,3","73,4"],
    [50140,"43906,83333","58,5","0,157","0,9","264,1","24,7","79,1"],
    [50141,"43906,875","64","0,314","0,8","248","24,3","79,7"],
    [50142,"43906,91667","56,1","0,236","0,9","258,8","24,1","79,9"],
    [50143,"43906,95833","41,3","0,105","1,1","265,6","23,4","81,8"],
    [50144,"43907","26,6","0,052","0,7","255,1","23,5","81,1"],
    [50145,"43907,04167","23,8","0,026","0,4","137,9","23,3","82,1"],
    [50146,"43907,08333","28,5","0,026","0,6","259,4","22,9","84,8"],
    [50147,"43907,125","18,9","0,026","0,5","171,4","22,6","84,9"],
    [50148,"43907,16667","22,5","0,026","0,6","269,9","22,5","85,3"],
    [50149,"43907,20833","20,2","2,33","0,7","269,3","22,3","86,5"],
    [50150,"43907,25","41,1","0,183","0,7","269,9","22","88,7"],
    [50151,"43907,29167","42,6","0,209","0,7","240,7","21,9","89,4"],
    [50152,"43907,33333","58,2","0,131","0,6","200","23,1","84,6"],
    [50153,"43907,375","60,8","0,209","0,5","118,1","24,2","79,3"],
    [50154,"43907,41667","54,9","0,969","0,7","122,5","25,8","71,7"],
    [50155,"43907,45833","59,5","1,728","0,9","100","26,6","68,9"],
    [50156,"43907,5","64,3","1,466","0,9","89,9","27,7","64,4"],
    [50157,"43907,54167","54,8","1,519","0,9","139,3","28,6","59,6"],
    [50158,"43907,58333","45,9","1,571","2","50,1","28,5","59,7"],
    [50159,"43907,625","54,2","0,864","1,5","147,9","29,7","53,7"],
    [50160,"43907,66667","15,2","0,079","4,6","334,1","29,7","51,3"],
    [50161,"43907,70833","12,3","0,052","5,2","343","28,4","56,3"],
    [50162,"43907,75","11,3","0,026","5","331,3","27,1","58,9"],
    [50163,"43907,79167","7,4","0,026","4,7","321,7","26,6","59"],
    [50164,"43907,83333","10,9","0,052","3,3","341,1","26,4","59,3"],
    [50165,"43907,875","14,2","0,026","4,6","330,4","26","61,3"],
    [50166,"43907,91667","15,4","0,079","3,5","316,3","25,7","62,8"],
    [50167,"43907,95833","14,1","0,105","3,1","305,1","25,5","64,3"],
    [50168,"43908","10,5","0,052","1,4","251,3","24,6","70,1"],
    [50169,"43908,04167","31,7","0,052","0,6","163","24,2","74"],
    [50170,"43908,08333","33,4","0,026","0,6","164,2","23,6","77,6"],
    [50171,"43908,125","37,6","0","0,8","231,4","22,5","81,4"],
    [50172,"43908,16667","21,5","0","1","250,1","22,1","82,5"],
    [50173,"43908,20833","22,5","0,026","0,6","238,8","22","83,5"],
    [50174,"43908,25","25,8","0","0,8","244,7","22","82,6"],
    [50175,"43908,29167","44","0,105","0,8","273,2","22,1","82,5"],
    [50176,"43908,33333","60,7","0,105","0,8","250,5","23,4","77,3"],
    [50177,"43908,375","51,4","1,911","1,2","152,7","25,2","70,3"],
    [50178,"43908,41667","53,4","3,692","1,2","146,4","26,3","65,3"],
    [50179,"43908,45833","45,4","3,168","0,9","154,7","27,4","60,8"],
    [50180,"43908,5","42,4","2,252","1,2","106,3","28,8","55,2"],
    [50181,"43908,54167","40,4","1,597","1,6","98,9","29,7","50,9"],
    [50182,"43908,58333","52,8","1,571","0,9","121,4","30,5","47,8"],
    [50183,"43908,625","49,4","0,655","2,1","283,5","30,5","48,9"],
    [50184,"43908,66667","149,3","0,052","5,5","339,8","29,4","52,9"],
    [50185,"43908,70833","43","0,026","6,1","325,4","28,3","54,3"],
    [50186,"43908,75","16,6","0,052","6,5","325,4","27,3","56,6"],
    [50187,"43908,79167","19,1","0,079","6","325,6","26,6","57,7"],
    [50188,"43908,83333","16,5","0,026","5,8","325","26,3","59,3"],
    [50189,"43908,875","16,2","0,026","4,1","313,6","25,9","60,3"],
    [50190,"43908,91667","12,8","0,052","2,6","301,2","25,6","61,1"],
    [50191,"43908,95833","14,2","0,105","0,8","213,7","24,2","67,5"],
    [50192,"43909","38,2","0,052","0,8","244","23,2","72,5"],
    [50193,"43909,04167","35,8","0,026","1,1","267,2","22,5","75,8"],
    [50194,"43909,08333","23,4","0,026","1","274,5","22,2","76,6"],
    [50195,"43909,125","20,6","0,026","0,6","274,2","22,6","75,2"],
    [50196,"43909,16667","27,8","0,026","0,8","299,7","22,5","78,1"],
    [50197,"43909,20833","34,2","0,157","1,1","267,5","22,3","78,5"],
    [50198,"43909,25","29,8","0,052","0,8","260,6","22,3","79,3"],
    [50199,"43909,29167","47,7","0,131","0,8","279","22,4","79,3"],
    [50200,"43909,33333","53","0,209","0,8","273,4","23,2","76,9"],
    [50201,"43909,375","60,5","0,55","0,3","125,9","24,8","69,3"],
    [50202,"43909,41667","56,9","2,199","0,4","113","26,6","62"],
    [50203,"43909,45833","47","2,959","1,1","131,7","28,1","56,8"],
    [50204,"43909,5","44,8","2,697","0,9","127,6","29","54,2"],
    [50205,"43909,54167","69,7","1,283","1,3","119","29,1","53,4"],
    [50206,"43909,58333","45,9","0,236","3,7","305,6","29,2","52,5"],
    [50207,"43909,625","62,6","ND","5,7","334,4","28,2","56,8"],
    [50208,"43909,66667","21,6","ND","6,9","323,2","27,5","58"],
    [50209,"43909,70833","26,4","ND","8,1","322,4","26,5","60,5"],
    [50210,"43909,75","40,3","ND","6,9","325,5","26,2","60,4"],
    [50211,"43909,79167","18,4","ND","6,1","326,4","25,9","60,4"],
    [50212,"43909,83333","16,2","ND","5","324,9","25,9","60,2"],
    [50213,"43909,875","17,7","ND","3,6","333,8","25,6","61,4"],
    [50214,"43909,91667","16,6","ND","1,6","241,5","25","66"],
    [50215,"43909,95833","41,7","ND","1,1","230,5","24,1","70,7"],
    [50216,"43910","34,5","ND","1,8","244,6","24,5","69,1"],
    [50217,"43910,04167","36,7","ND","0,6","212,2","24","72,8"],
    [50218,"43910,08333","38,7","ND","0,6","212,6","23,3","76,5"],
    [50219,"43910,125","27,6","ND","0,9","264","22,3","79,5"],
    [50220,"43910,16667","20","ND","0,8","232,9","22,1","81,1"],
    [50221,"43910,20833","28,6","ND","0,7","208,6","21,6","84,9"],
    [50222,"43910,25","34,4","ND","0,8","184,4","20,7","87,8"],
    [50223,"43910,29167","37","ND","0,9","240,6","21,1","87,2"],
    [50224,"43910,33333","53,3","ND","0,9","279,3","22,8","79,6"],
    [50225,"43910,375","43,8","ND","0,5","152,1","24,7","69,4"],
    [50226,"43910,41667","39,5","ND","0,7","148,3","24,8","70"],
    [50227,"43910,45833","49,2","ND","1","198,5","24,7","73"],
    [50228,"43910,5","23,6","ND","2","89,6","26,2","62,7"],
    [50229,"43910,54167","27,4","ND","2","306,8","26,6","58,3"],
    [50230,"43910,58333","11,4","ND","1,7","256,9","27,1","59,2"],
    [50231,"43910,625","16,6","ND","3,8","329","27,7","53,9"],
    [50232,"43910,66667","27,8","ND","3,8","334,4","27,3","54,4"],
    [50233,"43910,70833","6","ND","4","325,6","26,8","56,5"],
    [50234,"43910,75","12,7","ND","4,4","326,8","26,5","56,7"],
    [50235,"43910,79167","8,6","ND","4,5","327,7","25,3","57,3"],
    [50236,"43910,83333","5,9","ND","3,2","337,6","24,9","57,9"],
    [50237,"43910,875","10,7","ND","3,9","311,8","24,7","58,3"],
    [50238,"43910,91667","34,1","ND","1,8","270,2","23,7","60,5"],
    [50239,"43910,95833","22,2","ND","1,2","269","22,7","65,5"],
    [50240,"43911","23,4","ND","0,8","239,6","22","70"],
    [50241,"43911,04167","21,1","ND","1,1","247,4","21,1","74,9"],
    [50242,"43911,08333","15","ND","1,1","272,4","20,3","77,3"],
    [50243,"43911,125","13,1","ND","1,1","276,6","19,6","79,6"],
    [50244,"43911,16667","9","ND","0,7","275,7","19,3","80,7"],
    [50245,"43911,20833","11,1","ND","1","280,3","19,1","81,3"],
    [50246,"43911,25","11,2","ND","1,4","267,2","19","80,7"],
    [50247,"43911,29167","15","ND","0,9","281,2","19,6","78,2"],
    [50248,"43911,33333","24,8","ND","0,5","126,4","22,1","70,2"],
    [50249,"43911,375","33,9","ND","0,5","137,9","24,4","62,2"],
    [50250,"43911,41667","32,7","ND","1","111,7","25,6","59,9"],
    [50251,"43911,45833","38,4","ND","1,2","178,1","26,7","55,7"],
    [50252,"43911,5","27,3","ND","1,1","171,7","27,7","50,9"],
    [50253,"43911,54167","21,6","ND","1,5","115,5","29,4","45,1"],
    [50254,"43911,58333","17,5","ND","1,7","215,8","29,8","43,4"],
    [50255,"43911,625","26,6","ND","2,1","247,9","28,6","51,5"],
    [50256,"43911,66667","46,3","ND","1,9","299,6","29,2","48,4"],
    [50257,"43911,70833","19,8","ND","3,3","327,1","30","44,1"],
    [50258,"43911,75","6,1","ND","3,7","333,9","28,7","47,6"],
    [50259,"43911,79167","21,1","ND","2,1","290,4","27","51,4"],
    [50260,"43911,83333","1,6","ND","2,9","291,5","26,8","42,8"],
    [50261,"43911,875","2,5","ND","0,8","174,3","24,7","46,5"],
    [50262,"43911,91667","21,6","ND","1,4","249,4","23,6","48,9"],
    [50263,"43911,95833","6","ND","1,1","274","22,4","54"],
    [50264,"43912","24,5","ND","1,4","269,9","21,2","61"],
    [50265,"43912,04167","15,4","ND","1","272,1","20,5","65,3"],
    [50266,"43912,08333","13,9","ND","1,1","262,1","19,8","69,4"],
    [50267,"43912,125","16,9","ND","1,1","278,5","19,1","72,7"],
    [50268,"43912,16667","13,4","ND","0,8","278,9","18,6","74,9"],
    [50269,"43912,20833","15,5","ND","1","275,3","18,3","76"],
    [50270,"43912,25","14,1","ND","0,8","270","18","76,8"],
    [50271,"43912,29167","19,5","ND","0,9","279,9","18","77,8"],
    [50272,"43912,33333","19,3","ND","0,3","116,5","21","66,7"],
    [50273,"43912,375","24,4","ND","0,7","93,7","23,4","59,3"],
    [50274,"43912,41667","36,9","ND","0,8","93,8","24,8","58,2"],
    [50275,"43912,45833","41,4","ND","0,9","106,5","26,3","53,4"],
    [50276,"43912,5","32,9","ND","1","94,4","27,9","47,4"],
    [50277,"43912,54167","27","ND","1,3","119,2","29,5","42,6"],
    [50278,"43912,58333","25,7","ND","1,4","108,7","31","38,3"],
    [50279,"43912,625","25,8","ND","2,2","214,7","31,6","38,5"],
    [50280,"43912,66667","28,1","ND","4,2","336,6","30,8","42,4"],
    [50281,"43912,70833","21,8","ND","4,5","327,5","29,8","48,6"],
    [50282,"43912,75","19,8","ND","5","323,7","28,4","53,5"],
    [50283,"43912,79167","19,9","ND","5,1","326,1","27","58,1"],
    [50284,"43912,83333","18,1","ND","4,6","321,7","26,6","59,2"],
    [50285,"43912,875","17,3","ND","3,7","320,2","26,4","59,7"],
    [50286,"43912,91667","18,3","ND","1,4","233","25,6","60,5"],
    [50287,"43912,95833","16,8","ND","0,6","242,8","23,7","67,4"],
    [50288,"43913","28,5","ND","0,9","253,6","22,9","69,9"],
    [50289,"43913,04167","20,8","ND","0,6","293","22,5","73,3"],
    [50290,"43913,08333","21,4","ND","1,2","278","21,7","76,4"],
    [50291,"43913,125","15,5","ND","0,9","276,6","21,3","78,6"],
    [50292,"43913,16667","19,8","ND","1,1","271","21,1","80,2"],
    [50293,"43913,20833","21,6","ND","1,1","266,5","20,7","80,7"],
    [50294,"43913,25","19,1","ND","0,9","264,3","20,1","83,2"],
    [50295,"43913,29167","22,6","ND","0,8","238","20,2","82,2"],
    [50296,"43913,33333","29,4","ND","0,4","231,2","22,5","74,3"],
    [50297,"43913,375","35,4","ND","0,7","143,2","24,7","64,8"],
    [50298,"43913,41667","31,4","ND","1","176,8","26","61,5"],
    [50299,"43913,45833","34,6","ND","1,2","105,8","27,1","58,5"],
    [50300,"43913,5","27,7","ND","0,9","149,4","28,3","52,7"],
    [50301,"43913,54167","25,3","ND","1,6","127,2","29,9","47,8"],
    [50302,"43913,58333","30,6","ND","1,2","84,9","31,1","45"],
    [50303,"43913,625","45,2","ND","2","248,9","31,4","45,7"],
    [50304,"43913,66667","42,2","ND","4,1","333,4","30,3","49,4"],
    [50305,"43913,70833","12,5","ND","5,1","326,8","29,3","51,4"],
    [50306,"43913,75","23,7","ND","5,5","327,2","28,3","52,9"],
    [50307,"43913,79167","20,2","ND","5,5","324,1","27,6","55,8"],
    [50308,"43913,83333","19,7","ND","5,1","321,8","27,2","57"],
    [50309,"43913,875","20,1","ND","4,2","323,7","27,1","58,1"],
    [50310,"43913,91667","23,3","ND","2,7","283,6","26,6","61,1"],
    [50311,"43913,95833","26,2","ND","0,5","112,9","25,3","69,2"],
    [50312,"43914","31,5","ND","1,5","179,1","24,5","73,8"],
    [50313,"43914,04167","34,6","ND","0,9","129,2","23","81,4"],
    [50314,"43914,08333","17,2","ND","1,4","164,8","22,3","82,9"],
    [50315,"43914,125","15","ND","0,7","147,2","22,5","81"],
    [50316,"43914,16667","13","ND","1,3","170,4","21,7","86,6"],
    [50317,"43914,20833","25,5","ND","0,7","230,7","20,9","95,5"],
    [50318,"43914,25","21,6","ND","0,9","116,2","20,9","95,1"],
    [50319,"43914,29167","15,2","ND","0,7","123,4","20,5","95,8"],
    [50320,"43914,33333","25,2","ND","0,8","165,4","20,8","94,8"],
    [50321,"43914,375","25,3","ND","0,7","185,9","21,3","90"],
    [50322,"43914,41667","27,6","ND","0,8","100,4","22,8","82"],
    [50323,"43914,45833","19,2","ND","0,4","96,9","24,8","71"],
    [50324,"43914,5","20,6","ND","0,8","161,1","26,2","64,8"],
    [50325,"43914,54167","13,9","ND","1,1","79,2","28,2","55,4"],
    [50326,"43914,58333","27,7","ND","1,5","88,7","29","52,8"],
    [50327,"43914,625","26,6","ND","1,1","137,6","28,9","52,3"],
    [50328,"43914,66667","20,3","ND","1,8","231,1","29","49,8"],
    [50329,"43914,70833","22,3","ND","1,4","156,1","28,5","54,2"],
    [50330,"43914,75","36,1","ND","2,2","299,1","26,4","66,4"],
    [50331,"43914,79167","46,3","ND","2,8","257,2","23,7","77,8"],
    [50332,"43914,83333","10,2","ND","1,4","269","23,7","73,4"],
    [50333,"43914,875","19","ND","1,8","267,7","23,2","75,9"],
    [50334,"43914,91667","24,5","ND","1,6","271,1","23,2","78"],
    [50335,"43914,95833","26,8","ND","1,5","269,7","23,2","78"],
    [50336,"43915","19,8","ND","1","266,2","23,3","78,4"],
    [50337,"43915,04167","48,6","ND","1,1","280,2","22,6","81,7"],
    [50338,"43915,08333","17,5","ND","1,3","264,1","22,1","82,8"],
    [50339,"43915,125","20,7","ND","1,2","282,9","21,5","84,7"],
    [50340,"43915,16667","22,9","ND","0,9","267","21,3","85,2"],
    [50341,"43915,20833","25,9","ND","1,1","272","20,7","87,2"],
    [50342,"43915,25","25,8","ND","1,3","270,5","20,4","86"],
    [50343,"43915,29167","30,2","ND","0,9","214,1","21,1","82,5"],
    [50344,"43915,33333","35,4","ND","0,7","261,2","22,3","79,4"],
    [50345,"43915,375","45,9","ND","0,5","81,8","24,7","71"],
    [50346,"43915,41667","56,2","ND","1,2","146,5","25,7","70,5"],
    [50347,"43915,45833","62,6","ND","0,8","108,7","27,1","63,8"],
    [50348,"43915,5","53","ND","0,9","118,2","28,9","55,9"],
    [50349,"43915,54167","43,2","ND","1","159,1","29,4","53,2"],
    [50350,"43915,58333","43,9","ND","2,3","218,9","29,9","50,7"],
    [50351,"43915,625","22,7","ND","2,7","241,4","30,4","47,8"],
    [50352,"43915,66667","24,1","ND","4,5","338,4","29,7","50,1"],
    [50353,"43915,70833","17,8","ND","4,3","325,8","28,9","51,7"],
    [50354,"43915,75","25,9","ND","4,1","326,1","27,7","57,8"],
    [50355,"43915,79167","21,9","ND","4,1","316,8","26,8","60"],
    [50356,"43915,83333","17,5","ND","4,2","329,6","26,5","60,5"],
    [50357,"43915,875","16,2","ND","3,6","306,9","26,3","61,8"],
    [50358,"43915,91667","18,9","ND","0,9","209,5","25,9","63,2"],
    [50359,"43915,95833","24,4","ND","0,7","182,4","25,3","70,2"],
    [50360,"43916","54,5","ND","0,7","166,4","24,7","74,5"],
    [50361,"43916,04167","38","ND","0,9","136,9","24,4","76,3"],
    [50362,"43916,08333","39","ND","0,5","159,2","24,1","78"],
    [50363,"43916,125","33,7","ND","1,2","166,1","23,7","80,7"],
    [50364,"43916,16667","22,4","ND","1,4","191,8","22,9","84,2"],
    [50365,"43916,20833","18,1","ND","1,3","164,8","22,4","87,2"],
    [50366,"43916,25","25,5","ND","0,6","66,5","21,4","96,3"],
    [50367,"43916,29167","21,4","ND","0,7","145,5","21,3","96,8"],
    [50368,"43916,33333","18,2","ND","1,1","126,7","21,5","96,9"],
    [50369,"43916,375","20,6","ND","0,7","207,2","21,7","94,6"],
    [50370,"43916,41667","16,9","ND","0,9","184,5","23,5","85,3"],
    [50371,"43916,45833","11,8","ND","1,6","164,2","26,1","70,8"],
    [50372,"43916,5","8","ND","1,4","150,6","27,8","61,9"],
    [50373,"43916,54167","2,6","ND","0,8","143,4","28,5","59"],
    [50374,"43916,58333","ND","ND","0,9","132,2","29,4","55,9"],
    [50375,"43916,625","ND","ND","1,7","219,5","30","52,2"],
    [50376,"43916,66667","ND","ND","4,6","325,5","29,4","54,1"],
    [50377,"43916,70833","ND","ND","4,7","336,2","28,6","55,7"],
    [50378,"43916,75","ND","ND","6","324","27,2","59,1"],
    [50379,"43916,79167","ND","ND","3,7","267,6","26,1","65,6"],
    [50380,"43916,83333","ND","ND","0,7","71,3","25,4","72,5"],
    [50381,"43916,875","ND","ND","1,1","113,8","24,2","75,7"],
    [50382,"43916,91667","ND","ND","1","233,1","23,3","80,5"],
    [50383,"43916,95833","ND","ND","1,2","275,6","22,7","81"],
    [50384,"43917","ND","ND","0,8","239,2","22,6","80,5"],
    [50385,"43917,04167","ND","ND","0,7","259,8","22,1","82,6"],
    [50386,"43917,08333","ND","ND","0,4","167,4","22,4","81,7"],
    [50387,"43917,125","ND","ND","0,9","268,9","22,4","83,3"],
    [50388,"43917,16667","ND","ND","0,8","274","22,4","84,7"],
    [50389,"43917,20833","ND","ND","1,1","270,2","22","87,8"],
    [50390,"43917,25","ND","ND","0,8","236,4","21,8","89,1"],
    [50391,"43917,29167","ND","ND","1","274,8","21,7","89,7"],
    [50392,"43917,33333","ND","ND","0,7","240,2","23","83,5"],
    [50393,"43917,375","ND","ND","0,7","181,7","24,5","76,6"],
    [50394,"43917,41667","ND","ND","0,8","88,7","26,3","69"],
    [50395,"43917,45833","ND","ND","1","94,4","27,9","61,4"],
    [50396,"43917,5","ND","ND","0,8","201,2","28,3","58,9"],
    [50397,"43917,54167","ND","ND","1","122","29,2","53,9"],
    [50398,"43917,58333","ND","ND","1,9","68,9","30,9","47,4"],
    [50399,"43917,625","ND","ND","2,5","171,1","30,9","47,1"],
    [50400,"43917,66667","ND","ND","5,6","344,5","29,8","50,5"],
    [50401,"43917,70833","ND","ND","5,3","332,2","28,8","53"],
    [50402,"43917,75","ND","ND","6,2","330,6","27,2","57,7"],
    [50403,"43917,79167","ND","ND","5,9","326,3","26,6","57,3"],
    [50404,"43917,83333","ND","ND","2,3","258,5","26,5","55"],
    [50405,"43917,875","ND","ND","0,9","215,1","25,1","64"],
    [50406,"43917,91667","ND","ND","1,2","270","24,1","60,5"],
    [50407,"43917,95833","ND","ND","1,3","224,2","24,1","60,6"],
    [50408,"43918","ND","ND","1","290,7","22,6","70"],
    [50409,"43918,04167","ND","ND","0,8","200,9","22,9","67,6"],
    [50410,"43918,08333","ND","ND","0,6","176,5","23,1","68,6"],
    [50411,"43918,125","ND","ND","0,8","261,6","22,7","72,5"],
    [50412,"43918,16667","ND","ND","0,9","265,9","22,4","74,8"],
    [50413,"43918,20833","ND","ND","1","270,3","22,2","77,4"],
    [50414,"43918,25","ND","ND","0,9","265,6","22,1","78,9"],
    [50415,"43918,29167","ND","ND","0,8","251,8","21,8","80,8"],
    [50416,"43918,33333","ND","ND","0,9","260,2","23","77"],
    [50417,"43918,375","ND","ND","1,1","169,1","24,6","70"],
    [50418,"43918,41667","ND","ND","0,6","123,2","26,3","65"],
    [50419,"43918,45833","ND","ND","1,2","139,6","27,8","58,2"],
    [50420,"43918,5","ND","ND","1,3","130,9","28,7","54,1"],
    [50421,"43918,54167","ND","ND","1,5","228,1","29,7","50,1"],
    [50422,"43918,58333","ND","ND","0,9","120,8","30,7","47,1"],
    [50423,"43918,625","ND","ND","3,2","257,3","30,5","48,6"],
    [50424,"43918,66667","ND","ND","5,5","331,4","29,5","50,7"],
    [50425,"43918,70833","ND","ND","5,8","327,4","28,5","52,8"],
    [50426,"43918,75","ND","ND","6,4","326,1","27,3","57,1"],
    [50427,"43918,79167","ND","ND","5,8","325,8","26,5","60,3"],
    [50428,"43918,83333","ND","ND","5,1","327,3","26,4","60,2"],
    [50429,"43918,875","ND","ND","2,2","293,1","26,1","61,9"],
    [50430,"43918,91667","ND","ND","0,8","131,6","25,7","64,6"],
    [50431,"43918,95833","ND","ND","0,8","142,3","25,1","69,4"],
    [50432,"43919","ND","ND","0,6","191,4","24,5","72,6"],
    [50433,"43919,04167","ND","ND","0,5","161,1","23,7","76"],
    [50434,"43919,08333","ND","ND","1,1","267,6","22,9","79,2"],
    [50435,"43919,125","ND","ND","0,7","263,3","23,3","78,1"],
    [50436,"43919,16667","ND","ND","0,5","227,2","23,4","78,1"],
    [50437,"43919,20833","ND","ND","0,4","184","23,5","78,4"],
    [50438,"43919,25","ND","ND","0,5","146,8","23,4","80,1"],
    [50439,"43919,29167","ND","ND","0,6","187,9","23,2","81,7"],
    [50440,"43919,33333","ND","ND","0,7","79,8","23,6","81,4"],
    [50441,"43919,375","ND","ND","0,7","99,4","24,8","75,6"],
    [50442,"43919,41667","ND","ND","1,1","125,4","26,4","67"],
    [50443,"43919,45833","ND","ND","1","148,6","27,1","64,3"],
    [50444,"43919,5","ND","ND","2,3","296,5","27","60,8"],
    [50445,"43919,54167","ND","ND","3,8","327,9","27,9","56,8"],
    [50446,"43919,58333","ND","ND","4,6","343,2","27,9","56,8"],
    [50447,"43919,625","ND","ND","5,1","336,5","27,7","57,4"],
    [50448,"43919,66667","ND","ND","5,4","270,1","26","62,4"],
    [50449,"43919,70833","ND","ND","4,1","341,7","26,2","59,4"],
    [50450,"43919,75","ND","ND","3,9","326,9","26","59,7"],
    [50451,"43919,79167","ND","ND","3,1","336,1","24,9","64,1"],
    [50452,"43919,83333","ND","ND","3,1","307,1","24,6","65,2"],
    [50453,"43919,875","ND","ND","1,3","210,4","23,9","75,3"],
    [50454,"43919,91667","ND","ND","0,9","285,7","23,9","77"],
    [50455,"43919,95833","ND","ND","0,8","253,8","23,8","77,7"],
    [50456,"43920","ND","ND","0,7","235,8","23,7","77,7"],
    [50457,"43920,04167","ND","ND","0,6","184,6","23,6","77,4"],
    [50458,"43920,08333","ND","ND","0,5","113,5","23,1","82,9"],
    [50459,"43920,125","ND","ND","0,4","187,8","22,6","83"],
    [50460,"43920,16667","ND","ND","0,7","233,5","22,6","83"],
    [50461,"43920,20833","ND","ND","0,8","266,7","22,2","84,3"],
    [50462,"43920,25","ND","ND","0,7","232,2","22,2","84,1"],
    [50463,"43920,29167","ND","ND","0,8","276,6","22,3","84,1"],
    [50464,"43920,33333","ND","ND","0,8","255","22,9","82,2"],
    [50465,"43920,375","ND","ND","0,7","181,8","24,6","74,5"],
    [50466,"43920,41667","ND","ND","1,3","168,1","26,3","65,2"],
    [50467,"43920,45833","ND","ND","1,6","162,4","27,5","59,4"],
    [50468,"43920,5","ND","ND","1,4","215,2","27,8","58,2"],
    [50469,"43920,54167","ND","ND","1","120,9","28,7","54,9"],
    [50470,"43920,58333","ND","ND","1,7","133,4","28,3","57,3"],
    [50471,"43920,625","ND","ND","1,4","137,8","27,5","59,8"],
    [50472,"43920,66667","ND","ND","1,8","189,5","26,3","64,8"],
    [50473,"43920,70833","ND","ND","2,3","311,3","25,2","66,7"],
    [50474,"43920,75","ND","ND","1,8","275,6","25,2","70"],
    [50475,"43920,79167","ND","ND","1,4","268,7","24,4","76,3"],
    [50476,"43920,83333","ND","ND","1,4","271,3","23,7","79,6"],
    [50477,"43920,875","ND","ND","1,5","270","23,5","77,9"],
    [50478,"43920,91667","ND","ND","1,2","274,6","23,1","79,8"],
    [50479,"43920,95833","ND","ND","1,3","270,5","22,9","80,9"],
    [50480,"43921","ND","ND","1","273","22,9","80,2"],
    [50481,"43921,04167","ND","ND","1,1","271,8","22,7","81,3"],
    [50482,"43921,08333","ND","ND","0,8","268,7","22,6","82,2"],
    [50483,"43921,125","ND","ND","0,5","269,7","22,5","83"],
    [50484,"43921,16667","ND","ND","0,6","255,3","22,4","84,8"],
    [50485,"43921,20833","ND","ND","0,8","265,6","22,2","84,7"],
    [50486,"43921,25","ND","ND","0,8","278,2","22","86,3"],
    [50487,"43921,29167","ND","ND","0,6","272,2","22,2","85,5"],
    [50488,"43921,33333","ND","ND","0,7","274,8","22,7","83,8"],
    [50489,"43921,375","ND","ND","0,4","143,4","23,6","81,1"],
    [50490,"43921,41667","ND","ND","0,5","139,8","24,9","73,4"],
    [50491,"43921,45833","ND","ND","0,8","72,5","26,2","66,2"],
    [50492,"43921,5","ND","ND","1","112","27,4","61,5"],
    [50493,"43921,54167","ND","ND","1,2","143,4","28,4","57,9"],
    [50494,"43921,58333","ND","ND","1,1","152,8","29,5","53"],
    [50495,"43921,625","ND","ND","3","310,1","29,6","51"],
    [50496,"43921,66667","ND","ND","4,4","213,4","23,9","77,7"],
    [50497,"43921,70833","ND","ND","2,9","267,5","22,5","87,9"],
    [50498,"43921,75","ND","ND","2,8","306,6","25","71,2"],
    [50499,"43921,79167","ND","ND","0,7","228,8","24,9","72,9"],
    [50500,"43921,83333","ND","ND","0,9","223,1","24","80,8"],
    [50501,"43921,875","ND","ND","0,9","270,8","23,4","83,7"],
    [50502,"43921,91667","ND","ND","0,9","277,4","23","85,4"],
    [50503,"43921,95833","ND","ND","1","265,7","23,3","81,3"],
    [50504,"43922","ND","ND","1,2","228,1","22,6","85,4"],
    [50505,"43922,04167","ND","ND","0,4","136,5","22,6","86,3"],
    [50506,"43922,08333","ND","ND","0,5","266,5","22,4","89,1"],
    [50507,"43922,125","ND","ND","0,6","265,9","21,9","91,4"],
    [50508,"43922,16667","ND","ND","0,6","216,7","21,7","91,1"],
    [50509,"43922,20833","ND","ND","0,4","202,1","21,9","90,2"],
    [50510,"43922,25","ND","ND","0,7","269,6","21,8","90,4"],
    [50511,"43922,29167","ND","ND","0,7","273","21,8","91,2"],
    [50512,"43922,33333","ND","ND","0,7","257,8","22,3","88,7"],
    [50513,"43922,375","ND","ND","0,8","79,5","23,3","85"],
    [50514,"43922,41667","ND","ND","0,7","98,8","24,3","79,7"],
    [50515,"43922,45833","ND","ND","0,9","221,4","25","75,5"],
    [50516,"43922,5","ND","ND","1,4","110,8","26,6","68,3"],
    [50517,"43922,54167","ND","ND","2,2","60,9","28,5","60,1"],
    [50518,"43922,58333","ND","ND","2,6","50,9","29,4","55,2"],
    [50519,"43922,625","ND","ND","2,2","224,5","26,2","69,1"],
    [50520,"43922,66667","ND","ND","3,7","320,9","27,7","59,8"],
    [50521,"43922,70833","ND","ND","1,7","214","23,4","84,8"],
    [50522,"43922,75","ND","ND","1,5","183,9","23,4","84,1"],
    [50523,"43922,79167","ND","ND","1,2","214","23,1","84"],
    [50524,"43922,83333","ND","ND","0,8","149","23","86,9"],
    [50525,"43922,875","ND","ND","0,7","176,5","22,5","90,1"],
    [50526,"43922,91667","ND","ND","0,6","86,6","22,5","90,3"],
    [50527,"43922,95833","ND","ND","0,4","46,8","22,3","91"],
    [50528,"43923","ND","ND","0,6","143,9","21,9","92,1"],
    [50529,"43923,04167","ND","ND","0,3","22,2","21,9","92,1"],
    [50530,"43923,08333","ND","ND","0,9","109,4","22,1","90,2"],
    [50531,"43923,125","ND","ND","0,7","274,3","21,9","92"],
    [50532,"43923,16667","ND","ND","1","261,2","21,8","91,9"],
    [50533,"43923,20833","ND","ND","0,9","245,8","21,7","91,8"],
    [50534,"43923,25","ND","ND","0,6","229,1","21,2","92,3"],
    [50535,"43923,29167","ND","ND","0,4","162","20,7","92,6"],
    [50536,"43923,33333","ND","ND","0,8","226,7","21,7","89,1"],
    [50537,"43923,375","ND","ND","1,1","70,2","24,5","76,9"],
    [50538,"43923,41667","ND","ND","1,1","101","25,9","69,6"],
    [50539,"43923,45833","ND","ND","1,1","90,2","27,3","63,5"],
    [50540,"43923,5","ND","ND","0,9","95","28,7","57,7"],
    [50541,"43923,54167","27,2","ND","1,3","140,6","29,1","56,6"],
    [50542,"43923,58333","17,9","ND","1,3","175,5","30,1","53,7"],
    [50543,"43923,625","18,1","ND","1,6","171,8","30,5","52,6"],
    [50544,"43923,66667","19,2","ND","2","210,2","30,4","52,6"],
    [50545,"43923,70833","18,3","ND","3,8","341,4","29,7","53,9"],
    [50546,"43923,75","11,3","ND","4,3","329,5","28","58,7"],
    [50547,"43923,79167","12,9","ND","4,7","327,1","26,9","61,7"],
    [50548,"43923,83333","16,1","ND","4,5","331,9","26,7","61,8"],
    [50549,"43923,875","7,7","ND","2,7","329,3","26,8","61,4"],
    [50550,"43923,91667","4,4","ND","1,2","231","26,6","63,4"],
    [50551,"43923,95833","27,3","ND","1,1","254","25,7","69,5"],
    [50552,"43924","15,1","ND","0,4","207,4","25,7","69,4"],
    [50553,"43924,04167","23,6","ND","1,2","238,9","24,5","77,1"],
    [50554,"43924,08333","18,6","ND","1,1","278,2","22,9","86,5"],
    [50555,"43924,125","10","ND","0,6","250,9","22,9","87,5"],
    [50556,"43924,16667","14,3","ND","0,7","238,7","22,6","89,4"],
    [50557,"43924,20833","12","ND","1,1","277,3","22","92,1"],
    [50558,"43924,25","13","ND","1,1","267,7","21,4","92,4"],
    [50559,"43924,29167","27,1","ND","1,6","269","21,5","89,7"],
    [50560,"43924,33333","23","ND","0,7","177,2","24,4","76"],
    [50561,"43924,375","25,3","ND","0,8","137,2","26,2","67,1"],
    [50562,"43924,41667","23,2","ND","1,2","148","27,4","61,3"],
    [50563,"43924,45833","14","ND","0,8","133","28,7","56,7"],
    [50564,"43924,5","10","ND","1,2","135,1","30,1","52,4"],
    [50565,"43924,54167","13","ND","1,3","136,9","31,1","48,8"],
    [50566,"43924,58333","25,6","ND","2,6","197,3","31,6","47,8"],
    [50567,"43924,625","21,6","ND","3,4","345,5","31,5","47,3"],
    [50568,"43924,66667","10","ND","4,3","335,2","31,3","47,9"],
    [50569,"43924,70833","15,5","ND","5,2","325,1","29,4","52"],
    [50570,"43924,75","11,2","ND","5,4","325,6","28,5","55,5"],
    [50571,"43924,79167","17,1","ND","6","324,5","27,3","59,3"],
    [50572,"43924,83333","20,3","ND","5","321,7","27,2","59,3"],
    [50573,"43924,875","5,5","ND","3,4","324,7","27,4","58,2"],
    [50574,"43924,91667","12,6","ND","1,6","226,8","26,6","64,5"],
    [50575,"43924,95833","24,1","ND","1","204,3","25","73,9"],
    [50576,"43925","33,9","ND","0,6","214,4","24,3","77"],
    [50577,"43925,04167","27,9","ND","0,7","259,5","24,1","78,4"],
    [50578,"43925,08333","23,4","ND","0,6","216,1","24,1","78,7"],
    [50579,"43925,125","22,6","ND","0,6","212,9","24,2","78,1"],
    [50580,"43925,16667","26","ND","0,7","260,7","24,1","79,7"],
    [50581,"43925,20833","22,8","ND","0,6","149,5","24","80,8"],
    [50582,"43925,25","28,9","ND","0,5","147,1","23,5","84"],
    [50583,"43925,29167","27","ND","0,5","182,2","23,6","84,2"],
    [50584,"43925,33333","23,6","ND","0,6","265,8","24","82,7"],
    [50585,"43925,375","33,2","ND","0,5","116,4","25,5","74,6"],
    [50586,"43925,41667","25,2","ND","1,1","74,5","26,9","68"],
    [50587,"43925,45833","30,6","ND","1","108,3","28,6","60,1"],
    [50588,"43925,5","18,5","ND","1,3","143,2","29,4","57"],
    [50589,"43925,54167","26,1","ND","1,4","80,9","30,8","51,8"],
    [50590,"43925,58333","24,5","ND","1,4","151,2","31,7","47,7"],
    [50591,"43925,625","25,8","ND","2,6","232,8","31,1","50,2"],
    [50592,"43925,66667","24,5","ND","3,4","341,3","31","50,9"],
    [50593,"43925,70833","10,8","ND","3,7","336,7","30,3","52,6"],
    [50594,"43925,75","13,1","ND","4,9","325,7","28,9","56,8"],
    [50595,"43925,79167","15,9","ND","5,5","323,9","27,6","60,9"],
    [50596,"43925,83333","14,1","ND","5,3","328,5","27","63,4"],
    [50597,"43925,875","18,7","ND","2,3","240,3","27,2","63,2"],
    [50598,"43925,91667","6,4","ND","0,8","147,3","26,9","64,6"],
    [50599,"43925,95833","27,7","ND","1","203,5","25,8","72,9"],
    [50600,"43926","29,6","ND","1,2","179,4","24,9","77,4"],
    [50601,"43926,04167","27,3","ND","0,8","183,7","24,6","78,4"],
    [50602,"43926,08333","21,7","ND","0,8","244,8","24,3","80,3"],
    [50603,"43926,125","23,8","ND","0,6","257","24,2","81,2"],
    [50604,"43926,16667","31,4","ND","0,8","164,8","24,3","80,5"],
    [50605,"43926,20833","25","ND","0,8","230","24,2","80,5"],
    [50606,"43926,25","28,8","ND","0,9","229,1","24,1","82,4"],
    [50607,"43926,29167","27,1","ND","0,9","217,9","23,3","87,4"],
    [50608,"43926,33333","20,1","ND","0,6","191,8","24,2","82"],
    [50609,"43926,375","19,6","ND","0,7","132,3","25,9","73,4"],
    [50610,"43926,41667","14","ND","1,2","176,4","27,1","68"],
    [50611,"43926,45833","15,2","ND","1","138,7","28,5","62,4"],
    [50612,"43926,5","14,3","ND","0,9","132,4","29,2","59,6"],
    [50613,"43926,54167","10,1","ND","1,2","127,7","30,7","54,2"],
    [50614,"43926,58333","12,7","ND","1,4","255,9","31,3","50,4"],
    [50615,"43926,625","15,2","ND","1,6","205,2","31,6","48,6"],
    [50616,"43926,66667","14,8","ND","2,3","239,9","31,1","50,6"],
    [50617,"43926,70833","16,8","ND","2,6","284,4","29,4","55,3"],
    [50618,"43926,75","9,7","ND","1,5","239","28,7","57,9"],
    [50619,"43926,79167","26,4","ND","3,5","332,6","27,9","60,5"],
    [50620,"43926,83333","8,5","ND","3,8","330,4","27,4","62,1"],
    [50621,"43926,875","11,9","ND","1,9","250,4","26,7","65,6"],
    [50622,"43926,91667","26,5","ND","0,9","220,8","26,2","69,7"],
    [50623,"43926,95833","16,1","ND","1,3","270,3","25,3","74,7"],
    [50624,"43927","24","ND","0,7","165,1","24,9","75,2"],
    [50625,"43927,04167","27,3","ND","0,7","276,3","24,1","79,3"],
    [50626,"43927,08333","22,5","ND","1,1","237,4","23,9","79,7"],
    [50627,"43927,125","16,9","ND","1","275,5","23,9","80,3"],
    [50628,"43927,16667","17,3","ND","0,7","248,4","24,1","79,2"],
    [50629,"43927,20833","19,4","ND","0,5","182,7","24","79,9"],
    [50630,"43927,25","15,9","ND","0,6","252,3","24,1","81,2"],
    [50631,"43927,29167","22,8","ND","0,7","267,5","24","81,2"],
    [50632,"43927,33333","26,4","ND","0,7","240,8","25","77,4"],
    [50633,"43927,375","30,5","ND","0,6","106,8","26,9","68,7"],
    [50634,"43927,41667","32,6","ND","1,2","131,6","28","61,2"],
    [50635,"43927,45833","19,2","ND","0,9","131,1","28,4","59,3"],
    [50636,"43927,5","10,3","ND","1,4","153,9","28,2","62"],
    [50637,"43927,54167","19,2","ND","1,6","178,2","29,5","58,6"],
    [50638,"43927,58333","13,9","ND","1,2","181,1","30,6","53,8"],
    [50639,"43927,625","20,4","ND","1,7","155,4","31","52,4"],
    [50640,"43927,66667","20,9","ND","1,6","233,3","30,9","53,1"],
    [50641,"43927,70833","29,8","ND","2,7","253,2","30,9","52,9"],
    [50642,"43927,75","18,2","ND","4,3","333,8","29,1","57,2"],
    [50643,"43927,79167","16","ND","4,7","329,9","27,7","59,8"],
    [50644,"43927,83333","10,3","ND","1,6","247","27,7","59,1"],
    [50645,"43927,875","15","ND","0,9","237","26,7","63"],
    [50646,"43927,91667","28,6","ND","0,9","214,5","26,3","65,7"],
    [50647,"43927,95833","15,4","ND","1,2","271,4","26","67,5"],
    [50648,"43928","20,3","ND","0,9","247","25,7","69,1"],
    [50649,"43928,04167","31,9","ND","0,6","200,9","25","72,7"],
    [50650,"43928,08333","18,9","ND","0,6","216,2","24,6","75,3"],
    [50651,"43928,125","23,6","ND","0,7","194,3","24,3","78,9"],
    [50652,"43928,16667","17,8","ND","0,8","268,8","24,2","78,5"],
    [50653,"43928,20833","24,1","ND","0,9","190,8","24,4","77,4"],
    [50654,"43928,25","25","ND","1,6","69,6","23,3","86,3"],
    [50655,"43928,29167","25,3","ND","1,6","64,3","22,5","91,1"],
    [50656,"43928,33333","15,5","ND","0,8","145,3","23,4","87,8"],
    [50657,"43928,375","19,2","ND","1","73","24","85,8"],
    [50658,"43928,41667","19,9","ND","0,9","138,6","25,6","76,6"],
    [50659,"43928,45833","25,8","ND","1,9","192,8","25,5","76,4"],
    [50660,"43928,5","24,2","ND","0,9","137,7","27,8","66,3"],
    [50661,"43928,54167","19,4","ND","1,6","144,2","29,6","57,6"],
    [50662,"43928,58333","18,8","ND","1,3","144","31","53,1"],
    [50663,"43928,625","26,4","ND","1,6","163,8","31,2","52,8"],
    [50664,"43928,66667","35,5","ND","2","150,8","31,2","52,9"],
    [50665,"43928,70833","35,3","ND","4","338,4","29,6","57,4"],
    [50666,"43928,75","7","ND","5,4","325","28,1","60,8"],
    [50667,"43928,79167","11","ND","4,8","321,5","27,4","61,9"],
    [50668,"43928,83333","17,2","ND","4,3","332,8","27,5","61,6"],
    [50669,"43928,875","2,2","ND","4,1","331,9","27,1","63,5"],
    [50670,"43928,91667","9,8","ND","2,8","313,5","26,8","64,7"],
    [50671,"43928,95833","20,6","ND","0,9","217,5","25,8","72,2"],
    [50672,"43929","22,8","ND","1,1","216,7","24,9","77,2"],
    [50673,"43929,04167","17,9","ND","0,8","277,3","23,7","80,9"],
    [50674,"43929,08333","21,1","ND","1,2","272,1","23,5","81,6"],
    [50675,"43929,125","20,5","ND","0,8","255,4","23,4","81,9"],
    [50676,"43929,16667","16,8","ND","0,7","250,7","23,4","81,3"],
    [50677,"43929,20833","14,1","ND","0,9","245,4","22,8","83,8"],
    [50678,"43929,25","18,4","ND","0,5","263,9","22,6","84,6"],
    [50679,"43929,29167","26,2","ND","0,9","268,7","22,8","84,1"],
    [50680,"43929,33333","25,5","ND","0,4","150,4","24,3","78,6"],
    [50681,"43929,375","29","ND","1,1","166,8","26","72,1"],
    [50682,"43929,41667","30,1","ND","1,3","179,4","26,1","70,7"],
    [50683,"43929,45833","32,3","ND","1,2","166,2","27,5","65,1"],
    [50684,"43929,5","19,6","ND","2","165,5","28,3","62,4"],
    [50685,"43929,54167","20","ND","1,7","151,1","29,7","58,1"],
    [50686,"43929,58333","19,7","ND","1,1","164,7","30,8","55,1"],
    [50687,"43929,625","25","ND","1,8","203,4","31,1","52,6"],
    [50688,"43929,66667","15,7","ND","4,5","349,1","30,5","52,9"],
    [50689,"43929,70833","12,1","ND","5,1","331,2","29,4","56,3"],
    [50690,"43929,75","11,4","ND","4,8","325,3","28,7","56,9"],
    [50691,"43929,79167","12,1","ND","3,9","334,8","28","59,4"],
    [50692,"43929,83333","11,7","ND","1,9","293,1","27,7","60,9"],
    [50693,"43929,875","26,7","ND","1,4","183,9","27,1","67,1"],
    [50694,"43929,91667","24,7","ND","0,8","106,5","26,4","71"],
    [50695,"43929,95833","31,3","ND","0,4","169,4","26","72,1"],
    [50696,"43930","21,8","ND","0,8","154,3","25,7","73,8"],
    [50697,"43930,04167","29","ND","0,6","157,1","25","76,6"],
    [50698,"43930,08333","18,7","ND","0,7","172,8","24,5","79,1"],
    [50699,"43930,125","19,8","ND","0,7","259,6","24,2","80,4"],
    [50700,"43930,16667","13,2","ND","1,1","185,5","23,7","83,1"],
    [50701,"43930,20833","21,2","ND","0,8","201,6","23,7","82,1"],
    [50702,"43930,25","14,4","ND","0,6","208,7","24,1","81"],
    [50703,"43930,29167","23,7","ND","0,6","230,8","23,9","81,8"],
    [50704,"43930,33333","26,1","ND","0,7","224,6","24,7","78,5"],
    [50705,"43930,375","30,1","ND","1,1","190,2","26","72,3"],
    [50706,"43930,41667","32,3","ND","1","167,5","27,1","68,2"],
    [50707,"43930,45833","27,7","ND","1,6","153,4","28,4","62,2"],
    [50708,"43930,5","14,3","ND","1,4","178,7","29,3","59,5"],
    [50709,"43930,54167","21,5","ND","0,9","184,2","30,3","54,9"],
    [50710,"43930,58333","14,2","ND","0,8","219,3","31,7","49,1"],
    [50711,"43930,625","21","ND","1,8","226,4","31,3","51,1"],
    [50712,"43930,66667","21","ND","4,4","338,6","29,9","55,8"],
    [50713,"43930,70833","12,1","ND","4,5","334,4","29,3","56,4"],
    [50714,"43930,75","9","ND","4,6","330,5","28,2","58,6"],
    [50715,"43930,79167","12,2","ND","3,3","313,6","27,6","60,9"],
    [50716,"43930,83333","13,5","ND","3,8","337,1","26,2","66,6"],
    [50717,"43930,875","16,9","ND","1,7","215,6","26,2","66,3"],
    [50718,"43930,91667","2,9","ND","0,9","233,7","25,4","73,3"],
    [50719,"43930,95833","29,9","ND","0,3","187","24,7","76,6"],
    [50720,"43931","23,1","ND","0,5","252,2","24,3","77,7"],
    [50721,"43931,04167","17,6","ND","0,5","206","24,3","78,2"],
    [50722,"43931,08333","8,3","ND","0,6","218,4","24,3","78,7"],
    [50723,"43931,125","13,5","ND","0,7","219","24,2","79,3"],
    [50724,"43931,16667","15,3","ND","0,7","261,5","24,1","80,1"],
    [50725,"43931,20833","17,8","ND","0,4","108,4","24,2","78,9"],
    [50726,"43931,25","18,9","ND","0,6","127,3","23,7","83,2"],
    [50727,"43931,29167","25","ND","0,6","195,9","23,3","87,4"],
    [50728,"43931,33333","25,9","ND","0,8","250,1","23,3","89,1"],
    [50729,"43931,375","16,2","ND","0,6","141,9","24,6","80,3"],
    [50730,"43931,41667","22,6","ND","1","195,9","25,8","76,2"],
    [50731,"43931,45833","20,8","ND","1,1","194,1","26,8","70,4"],
    [50732,"43931,5","10,1","ND","1","143","28,2","63,9"],
    [50733,"43931,54167","21,4","ND","1,2","174,3","29,4","57,2"],
    [50734,"43931,58333","6,2","ND","1,2","162,1","31,2","51,2"],
    [50735,"43931,625","12,4","ND","1,8","140,1","31,3","52,3"],
    [50736,"43931,66667","29,2","ND","2,6","207","29,6","58,3"],
    [50737,"43931,70833","28,4","ND","4,6","334","25,2","76,7"],
    [50738,"43931,75","10,5","ND","2,6","269,1","26,6","67,8"],
    [50739,"43931,79167","5,2","ND","1,5","225,7","26,4","68,9"],
    [50740,"43931,83333","11,3","ND","1,8","196,7","26","68,7"],
    [50741,"43931,875","10,8","ND","1,2","236","25,7","74,3"],
    [50742,"43931,91667","32,3","ND","0,5","127,4","25,5","75,8"],
    [50743,"43931,95833","14,7","ND","0,3","82,1","25,1","79,1"],
    [50744,"43932","22","ND","1,6","229,3","23,1","90"],
    [50745,"43932,04167","13,6","ND","0,6","190,9","23,1","91,7"],
    [50746,"43932,08333","13,9","ND","1,1","251,2","22,7","94,2"],
    [50747,"43932,125","12,9","ND","0,7","238,9","22,5","93,7"],
    [50748,"43932,16667","16,9","ND","0,7","272,2","22,4","93,9"],
    [50749,"43932,20833","18,2","ND","0,9","263,4","22,5","92,7"],
    [50750,"43932,25","20,8","ND","0,8","178,8","22,5","94,2"],
    [50751,"43932,29167","19,2","ND","1","227,3","22,1","96,1"],
    [50752,"43932,33333","20,8","ND","0,6","159,3","22","97,3"],
    [50753,"43932,375","16,1","ND","0,8","82,5","21,7","96,4"],
    [50754,"43932,41667","9,4","ND","0,6","128,1","21,9","95,1"],
    [50755,"43932,45833","12,6","ND","1","147,2","21,8","96,4"],
    [50756,"43932,5","13,1","ND","0,8","137,6","22,2","95,8"],
    [50757,"43932,54167","8,9","ND","0,4","86,2","22,5","93,9"],
    [50758,"43932,58333","9,7","ND","0,8","204,1","23,6","87,9"],
    [50759,"43932,625","12","ND","0,9","151,3","25,6","77"],
    [50760,"43932,66667","9,2","ND","0,9","203","26,8","69,7"],
    [50761,"43932,70833","13,1","ND","1","132,1","27","69,3"],
    [50762,"43932,75","20,2","ND","0,9","139,9","26,1","73,2"],
    [50763,"43932,79167","22,5","ND","1,1","183,6","24,9","74,3"],
    [50764,"43932,83333","12,7","ND","0,9","271,4","23,7","82,8"],
    [50765,"43932,875","36,2","ND","0,9","220,7","23,6","84"],
    [50766,"43932,91667","32,4","ND","0,9","252,5","23,2","85,7"],
    [50767,"43932,95833","24,3","ND","0,9","228,7","22,8","87"],
    [50768,"43933","24,8","ND","0,9","261","22,4","87,6"],
    [50769,"43933,04167","22,4","ND","0,9","255,4","22,6","86,6"],
    [50770,"43933,08333","17,6","ND","0,5","256,8","22,8","87,5"],
    [50771,"43933,125","18,1","ND","0,8","243,1","22,5","89,1"],
    [50772,"43933,16667","15,3","ND","0,7","205,7","22,3","90,1"],
    [50773,"43933,20833","19,3","ND","0,8","116,8","22,5","89,6"],
    [50774,"43933,25","19,7","ND","1,4","262,6","21,3","97,2"],
    [50775,"43933,29167","9,6","ND","1,2","217,9","20,2","100"],
    [50776,"43933,33333","8,5","ND","0,6","242,7","20,4","100"],
    [50777,"43933,375","14,3","ND","0,4","48,4","21","99,9"],
    [50778,"43933,41667","14","ND","0,6","154,1","21,8","96,3"],
    [50779,"43933,45833","8","ND","1,2","136,9","23,2","90,2"],
    [50780,"43933,5","9,6","ND","1,3","173","23,1","88,5"],
    [50781,"43933,54167","9,3","ND","0,8","145","24,4","82"],
    [50782,"43933,58333","6,3","ND","0,6","188,7","25,4","75,4"],
    [50783,"43933,625","3,2","ND","0,8","198,3","26,6","69,4"],
    [50784,"43933,66667","16,6","ND","1","148,5","27,1","68,7"],
    [50785,"43933,70833","7,7","ND","0,7","150,6","26,8","68,5"],
    [50786,"43933,75","12,5","ND","0,9","157,4","26,2","71,5"],
    [50787,"43933,79167","23,6","ND","0,8","222,7","24,9","80"],
    [50788,"43933,83333","32,7","ND","0,8","265,9","23,9","86,5"],
    [50789,"43933,875","30,1","ND","0,8","282,4","23,5","86,4"],
    [50790,"43933,91667","25,8","ND","0,9","240,5","23,5","85"],
    [50791,"43933,95833","22,1","ND","0,7","268,3","23,4","85,6"],
    [50792,"43934","21,9","ND","0,7","218,9","23,2","87"],
    [50793,"43934,04167","21,3","ND","0,8","156,4","22,7","89"],
    [50794,"43934,08333","12,5","ND","0,5","173,1","22,4","90"],
    [50795,"43934,125","10,9","ND","0,8","160,4","22,3","89,3"],
    [50796,"43934,16667","8,4","ND","0,8","118,9","22,1","89,8"],
    [50797,"43934,20833","7,5","ND","0,9","141","22","91"],
    [50798,"43934,25","9,7","ND","0,9","101,5","21,9","92,1"],
    [50799,"43934,29167","14,8","ND","0,8","141,2","21,6","93,8"],
    [50800,"43934,33333","23,6","ND","0,9","180,5","22,1","91,9"],
    [50801,"43934,375","19","ND","1,2","178,8","23,7","82,8"],
    [50802,"43934,41667","10,4","ND","1,8","166","24,4","78,7"],
    [50803,"43934,45833","10,1","ND","1,7","177,3","24,2","80,4"],
    [50804,"43934,5","15,6","ND","0,7","259,8","24,1","84,7"],
    [50805,"43934,54167","1,1","ND","1","182,5","26,5","70,7"],
    [50806,"43934,58333","1,8","ND","1,1","269,2","27,5","64,4"],
    [50807,"43934,625","13,6","ND","1,9","182,3","26,9","66,4"],
    [50808,"43934,66667","9,1","ND","2","104,8","27,1","68,9"],
    [50809,"43934,70833","25,1","ND","2,2","77,4","25,2","76,3"],
    [50810,"43934,75","16,4","ND","1,2","109,3","24,8","76,9"],
    [50811,"43934,79167","24,2","ND","0,9","201,2","24,4","79,2"],
    [50812,"43934,83333","30,9","ND","1,2","251,6","23,8","83,1"],
    [50813,"43934,875","30,3","ND","0,9","167,8","23,5","83,2"],
    [50814,"43934,91667","24,5","ND","0,8","196,8","23,2","85,2"],
    [50815,"43934,95833","24,1","ND","1","150,2","23,2","86,6"],
    [50816,"43935","23,2","ND","0,7","242,9","22,7","89,6"],
    [50817,"43935,04167","19,3","ND","0,6","104,8","22,6","86,9"],
    [50818,"43935,08333","5,2","ND","0,6","163,5","21","91,9"],
    [50819,"43935,125","6,6","ND","0,3","109,5","20,4","96,2"],
    [50820,"43935,16667","4,6","ND","0,4","129,8","20,5","97,2"],
    [50821,"43935,20833","4,5","ND","0,5","24","20,5","97,7"],
    [50822,"43935,25","4,3","ND","0,7","134,1","20,7","97"],
    [50823,"43935,29167","10,2","ND","0,9","146,7","20,4","97,7"],
    [50824,"43935,33333","19,4","ND","1,1","174","20,4","96"],
    [50825,"43935,375","25,2","ND","1,3","187,3","20,8","93,5"],
    [50826,"43935,41667","16,1","ND","2,1","167,8","21,6","88,3"],
    [50827,"43935,45833","7,2","ND","1,4","176,1","22,8","80,9"],
    [50828,"43935,5","6,1","ND","0,6","133,2","24,2","74,9"],
    [50829,"43935,54167","1,8","ND","0,4","215,3","25,2","68"],
    [50830,"43935,58333","3,5","ND","0,5","124,8","26,2","66,1"],
    [50831,"43935,625","2,8","ND","1,1","176,9","26,6","62,6"],
    [50832,"43935,66667","11,6","ND","1,4","198,2","25,6","70,8"],
    [50833,"43935,70833","21,5","ND","2,5","90,8","25,4","68,5"],
    [50834,"43935,75","10,8","ND","1,9","173,5","24,1","72,9"],
    [50835,"43935,79167","10,5","ND","0,6","227,5","23,1","82,9"],
    [50836,"43935,83333","22,1","ND","0,6","246,7","23","80,9"],
    [50837,"43935,875","12,9","ND","0,9","273,1","22,6","80,1"],
    [50838,"43935,91667","21,8","ND","1,3","266,1","21,8","83,9"],
    [50839,"43935,95833","20,2","ND","1,3","268,6","21,6","82,9"],
    [50840,"43936","13,8","ND","0,9","221,5","21,8","82"],
    [50841,"43936,04167","13,9","ND","0,7","262,2","21,5","84,8"],
    [50842,"43936,08333","14,2","ND","1","273,7","21,1","86,4"],
    [50843,"43936,125","12,8","ND","0,6","241,8","21,2","85,9"],
    [50844,"43936,16667","14,8","ND","0,8","247,5","21,1","87,3"],
    [50845,"43936,20833","14,3","ND","0,5","235,8","21,3","86,9"],
    [50846,"43936,25","22,4","ND","0,7","269,6","21,1","88,6"],
    [50847,"43936,29167","28,2","ND","1","265,3","20,8","91,4"],
    [50848,"43936,33333","23,6","ND","0,4","177,4","21,1","92,3"],
    [50849,"43936,375","23,5","ND","1","70","21","95,6"],
    [50850,"43936,41667","26,7","ND","0,8","157,1","22,4","89"],
    [50851,"43936,45833","8,7","ND","0,7","206,2","24","78,1"],
    [50852,"43936,5","17,3","ND","1,2","252,7","25,7","70,7"],
    [50853,"43936,54167","21,5","ND","1,5","197,8","26,5","62"],
    [50854,"43936,58333","10,6","ND","0,8","173,3","27,5","58,6"],
    [50855,"43936,625","13,3","ND","0,9","275,1","27,9","55,2"],
    [50856,"43936,66667","17,1","ND","1,1","282,7","28","56,8"],
    [50857,"43936,70833","15,8","ND","1,3","212,1","28,4","54,2"],
    [50858,"43936,75","11,6","ND","1,1","228,8","27,7","57,9"],
    [50859,"43936,79167","21,5","ND","2,1","70,8","24,4","76,2"],
    [50860,"43936,83333","27","ND","0,7","164,1","22,6","89,8"],
    [50861,"43936,875","20,6","ND","1,1","264,4","22,3","91,7"],
    [50862,"43936,91667","20,6","ND","1","268,2","22","91,5"],
    [50863,"43936,95833","24,7","ND","0,6","189,5","22,1","90,5"],
    [50864,"43937","23,8","ND","0,6","198,3","22,1","90"],
    [50865,"43937,04167","23,5","ND","0,7","275","21,6","92,9"],
    [50866,"43937,08333","17,9","ND","0,9","273","21,4","92,3"],
    [50867,"43937,125","15,7","ND","0,8","230,2","21","92,1"],
    [50868,"43937,16667","16,8","ND","0,7","209,9","20,5","91,9"],
    [50869,"43937,20833","17,2","ND","0,7","271,4","20,6","91,8"],
    [50870,"43937,25","23,9","ND","0,5","234,6","21","91,5"],
    [50871,"43937,29167","46,3","ND","0,7","258,4","20,7","93,5"],
    [50872,"43937,33333","39,7","ND","0,5","195,7","21,7","90"],
    [50873,"43937,375","38,2","ND","0,8","100,5","22,9","81,8"],
    [50874,"43937,41667","26,9","ND","0,9","79,8","24,7","75,3"],
    [50875,"43937,45833","21,1","ND","1,2","103,6","26,7","64,8"],
    [50876,"43937,5","18","ND","1,2","122,6","27,8","59,4"],
    [50877,"43937,54167","16,4","ND","3,3","295,3","27,8","59,1"],
    [50878,"43937,58333","7,9","ND","4,7","334,9","27,3","58,9"],
    [50879,"43937,625","4,8","0,079","4,6","345,9","28,5","54,6"],
    [50880,"43937,66667","3","0,079","3,8","337,9","28","54,5"],
    [50881,"43937,70833","3,2","0,079","2,9","340,4","28,5","52,2"],
    [50882,"43937,75","8,6","0,524","2,7","242,2","26,7","62,6"],
    [50883,"43937,79167","32,5","0,524","0,7","120,2","25,6","68"],
    [50884,"43937,83333","25,2","0,367","1","137,3","24,7","73,8"],
    [50885,"43937,875","28","0,209","0,7","128,2","24,4","75,6"],
    [50886,"43937,91667","29,2","0,105","0,9","100,6","22,8","79,2"],
    [50887,"43937,95833","19,5","0,105","0,9","253,2","22,1","84,1"],
    [50888,"43938","24,5","0,052","0,6","264,3","21,5","86,9"],
    [50889,"43938,04167","21,7","0,026","0,7","267,2","21,1","87,1"],
    [50890,"43938,08333","17,5","0,026","0,7","221","20,6","88,1"],
    [50891,"43938,125","14,8","0","1,1","274,1","20,4","88"],
    [50892,"43938,16667","12,7","0,026","0,8","269,9","20,7","86,6"],
    [50893,"43938,20833","16,1","0,052","0,6","268","20,2","88,3"],
    [50894,"43938,25","18,4","0,026","0,8","279,7","19,7","89,9"],
    [50895,"43938,29167","20,9","0,052","0,9","272,4","19,9","89,2"],
    [50896,"43938,33333","31","0,026","0,5","203,2","21,8","82,5"],
    [50897,"43938,375","24,9","0,262","0,4","86,8","24,4","70,5"],
    [50898,"43938,41667","23,5","3,901","1","60,5","25,3","69,9"],
    [50899,"43938,45833","55,5","6,101","1,3","141,8","26,7","63,8"],
    [50900,"43938,5","39,9","4,006","1,2","133,7","27,9","58,2"],
    [50901,"43938,54167","24,2","2,461","1","97,4","29,2","53,1"],
    [50902,"43938,58333","18,3","1,597","1,1","214","30,3","49,3"],
    [50903,"43938,625","22,4","0,916","1,3","189,3","30,8","48,4"],
    [50904,"43938,66667","26,2","0,105","4,3","340,7","29,5","53,4"],
    [50905,"43938,70833","18,9","0,105","4,7","329,8","27,8","57,1"],
    [50906,"43938,75","12,1","0,157","4,7","326,1","27,2","58,8"],
    [50907,"43938,79167","19,4","0,157","5,4","322","26,5","61,5"],
    [50908,"43938,83333","5,2","0,079","4,4","303,1","26,4","62"],
    [50909,"43938,875","23,6","0,079","2,2","208,9","22,8","85,5"],
    [50910,"43938,91667","38,7","0,026","1,5","180,1","20,3","98,5"],
    [50911,"43938,95833","22,3","0,026","1,2","234","20,4","98,8"],
    [50912,"43939","15,7","0,026","0,8","152","20,3","97,9"],
    [50913,"43939,04167","12,7","0","0,9","156,6","20,3","98,6"],
    [50914,"43939,08333","20,2","0,052","0,9","151,8","20,1","99,3"],
    [50915,"43939,125","15,7","0","0,5","223,4","20,1","99"],
    [50916,"43939,16667","14,6","0","0,7","266,2","19,7","98,2"],
    [50917,"43939,20833","19,2","0,026","0,8","254,2","19,9","97"],
    [50918,"43939,25","20,8","0,026","0,6","163","20,3","97"],
    [50919,"43939,29167","30,5","0,026","0,8","227,4","20,5","96"],
    [50920,"43939,33333","38,1","0,079","0,7","188,2","21,3","93,5"],
    [50921,"43939,375","34,3","0,026","0,7","152,2","21,8","91,8"],
    [50922,"43939,41667","33,8","0,131","0,7","102,2","24,1","78"],
    [50923,"43939,45833","18,7","0,419","0,9","136,8","26","68,8"],
    [50924,"43939,5","16,8","0,314","1,3","106,4","27,2","61,7"],
    [50925,"43939,54167","11,6","0,183","2,4","259,2","27,9","58,2"],
    [50926,"43939,58333","5,3","0,026","3,5","346","28,6","55"],
    [50927,"43939,625","4,3","0,026","3,6","266,1","28,3","55,1"],
    [50928,"43939,66667","6","0,026","4,5","292,9","24,5","72,3"],
    [50929,"43939,70833","25,8","0,079","1,4","194,4","22,4","77,8"],
    [50930,"43939,75","24,1","0,105","1","118","21,4","91"],
    [50931,"43939,79167","15,8","0,079","0,9","90,4","20,4","92,6"],
    [50932,"43939,83333","10,4","0,105","0,5","220,7","20,2","93,9"],
    [50933,"43939,875","15,3","0,052","0,4","97,3","20,5","94,8"],
    [50934,"43939,91667","16,7","0,052","0,5","123,1","20,5","95,7"],
    [50935,"43939,95833","16,2","0","0,7","186","20,4","97"],
    [50936,"43940","12,6","0,026","0,7","203,5","20,3","97,4"],
    [50937,"43940,04167","11","0,026","0,2","90,8","20,4","98,4"],
    [50938,"43940,08333","12,4","0,026","0,6","110","20,3","98,6"],
    [50939,"43940,125","10","0,026","0,8","137,9","20,2","98,6"],
    [50940,"43940,16667","11,1","0","0,5","108,1","20,2","98"],
    [50941,"43940,20833","12,1","0,026","0,6","163,6","20,2","97,7"],
    [50942,"43940,25","14,2","0,026","0,4","192,1","20,3","96,8"],
    [50943,"43940,29167","15,9","0,052","0,5","187,3","20","97,3"],
    [50944,"43940,33333","25,3","0,026","0,7","216,7","20,6","94"],
    [50945,"43940,375","26,2","0,052","0,9","92,2","21,9","89,1"],
    [50946,"43940,41667","35,6","0,419","1,1","96,9","23,5","80"],
    [50947,"43940,45833","32","0,419","0,6","179,8","24,9","73,1"],
    [50948,"43940,5","15","0,55","1","103,7","26,2","66,8"],
    [50949,"43940,54167","28,4","0,209","1,1","189,6","27,1","61,7"],
    [50950,"43940,58333","10,2","0,209","1,1","83,8","28,8","55,5"],
    [50951,"43940,625","20,9","0,236","1,2","102,5","29,6","53,9"],
    [50952,"43940,66667","19,4","0,105","1,8","170,3","29,3","54,1"],
    [50953,"43940,70833","15,1","0,105","4,2","345,7","28,3","56,2"],
    [50954,"43940,75","10,5","0,157","4,5","326,7","26,9","59,8"],
    [50955,"43940,79167","10,9","0,131","4","326,5","26,2","61,9"],
    [50956,"43940,83333","13,3","0,079","2,2","310,7","26,3","61,2"],
    [50957,"43940,875","11,6","0,105","0,6","223,6","25,7","66,1"],
    [50958,"43940,91667","22,6","0,079","1,2","255,5","25,5","66,3"],
    [50959,"43940,95833","13,7","0,052","0,8","145,7","24,4","78,5"],
    [50960,"43941","28,6","0,052","0,6","152,6","23,1","84,3"],
    [50961,"43941,04167","23","0,052","1","269,3","22,2","87"],
    [50962,"43941,08333","20,9","0,079","0,7","237","22","87,1"],
    [50963,"43941,125","21,7","0,052","0,7","255,2","21,8","87,7"],
    [50964,"43941,16667","19,9","0,105","0,9","274,4","21,1","90,5"],
    [50965,"43941,20833","18,7","0,131","0,9","280,6","20,6","91,1"],
    [50966,"43941,25","18,2","0,052","1,3","279","20,3","91,1"],
    [50967,"43941,29167","23","0,079","0,6","226,9","20,7","89,5"],
    [50968,"43941,33333","36,7","0,419","0,4","108,3","22,2","84,8"],
    [50969,"43941,375","55,4","1,833","0,6","123,4","23,5","79,7"],
    [50970,"43941,41667","47,1","4,477","0,6","93,1","25,7","68,3"],
    [50971,"43941,45833","21,7","4,818","1,2","88","27,5","61,1"],
    [50972,"43941,5","23,6","2,959","1,2","59,6","29","55,8"],
    [50973,"43941,54167","20,5","3,011","1,5","76,1","29,8","53,6"],
    [50974,"43941,58333","28,4","1,44","1,5","194,5","29,4","53,7"],
    [50975,"43941,625","21,7","0,393","2,7","314,4","29,5","52"],
    [50976,"43941,66667","11,5","0,105","4","325,8","30","50,9"],
    [50977,"43941,70833","8,8","0,183","4,5","324,2","28,5","55,4"],
    [50978,"43941,75","13,1","0,131","5,5","335,3","26,9","59,5"],
    [50979,"43941,79167","13,3","0,157","4,1","336,9","26,2","61,7"],
    [50980,"43941,83333","3,8","0,314","1,6","299,6","26,8","59"],
    [50981,"43941,875","21,7","0,367","0,9","254,7","25,3","68,2"],
    [50982,"43941,91667","25,8","0,288","0,9","198,8","24,9","73"],
    [50983,"43941,95833","36,5","0,209","0,8","180,3","24,2","77,6"],
    [50984,"43942","25,9","0,157","0,7","260,5","23,5","80"],
    [50985,"43942,04167","21,6","0,236","0,5","249","23,1","81,8"],
    [50986,"43942,08333","18,6","0,105","0,5","106,3","22,7","84"],
    [50987,"43942,125","27,7","0,052","0,6","215,9","22,1","87,8"],
    [50988,"43942,16667","18,9","0,052","0,8","249,8","21,7","88,3"],
    [50989,"43942,20833","18,6","0,131","0,5","244,1","21,9","87,2"],
    [50990,"43942,25","19,6","0,105","0,9","236,2","21,7","88"],
    [50991,"43942,29167","28,7","0,209","0,6","209,5","21,9","87,9"],
    [50992,"43942,33333","32,7","0,262","1,1","186,1","21,8","92,6"],
    [50993,"43942,375","35,7","0,655","0,8","198,6","23,6","83,8"],
    [50994,"43942,41667","21,9","3,823","1,2","174,7","25,6","70,9"],
    [50995,"43942,45833","24,1","3,168","0,8","142,6","27,1","63,7"],
    [50996,"43942,5","25","2,304","1,7","163,2","28,2","61,3"],
    [50997,"43942,54167","22,6","0,759","1,6","148,4","28","62,2"],
    [50998,"43942,58333","27,9","0,288","2,2","260","27,7","60,2"],
    [50999,"43942,625","12,2","0,262","3,9","336","26,6","63,2"],
    [51000,"43942,66667","9,9","0,157","4,9","244,7","27","60,6"],
    [51001,"43942,70833","7,3","0,131","4,4","191,9","27,4","58,5"],
    [51002,"43942,75","2,9","0,209","3,2","167,2","27,1","58,7"],
    [51003,"43942,79167","16,5","0,602","1,6","258,1","26,5","63,9"],
    [51004,"43942,83333","23,2","0,471","0,6","191,6","25,7","68,7"],
    [51005,"43942,875","34,5","0,367","0,9","286,7","24,2","76"],
    [51006,"43942,91667","31,7","0,314","0,8","239,4","23,6","76,2"],
    [51007,"43942,95833","19,4","0,209","0,7","194,1","23,5","75,9"],
    [51008,"43943","19,9","0,209","0,6","259,3","23,2","78,5"],
    [51009,"43943,04167","14,9","0,079","0,9","264,1","22,8","79,9"],
    [51010,"43943,08333","12,8","0,052","1","254,1","22,5","82,5"],
    [51011,"43943,125","20,7","0,026","0,7","246,8","22,1","85"],
    [51012,"43943,16667","19,9","0,052","0,8","279,6","21,6","86,7"],
    [51013,"43943,20833","23,1","0,105","0,9","279,9","21,3","88,6"],
    [51014,"43943,25","21,2","0,105","0,7","225,5","21","88,8"],
    [51015,"43943,29167","27,5","0,209","0,9","274","21,2","87,7"],
    [51016,"43943,33333","30,9","0,209","0,5","238,8","22,4","83,1"],
    [51017,"43943,375","35,5","0,759","0,9","164,7","23,9","79,2"],
    [51018,"43943,41667","60","1,257","1,1","178,6","25,1","72,4"],
    [51019,"43943,45833","44","1,519","0,9","116,7","26,8","64"],
    [51020,"43943,5","18,5","1,78","0,9","91,9","28,2","58,5"],
    [51021,"43943,54167","32,9","1,152","1,3","71,9","28,4","58"],
    [51022,"43943,58333","36,8","1,257","1,6","100,4","29","56,4"],
    [51023,"43943,625","21,3","0,681","2,4","126","29,1","55"],
    [51024,"43943,66667","16","0,236","3,6","330,8","27,2","60"],
    [51025,"43943,70833","13,1","0,131","5,1","323,9","27","60"],
    [51026,"43943,75","3,7","0,34","1,8","203,1","25","73,1"],
    [51027,"43943,79167","42,8","0,445","0,9","163,9","24","81"],
    [51028,"43943,83333","37,8","0,288","0,9","50,9","22,4","90,9"],
    [51029,"43943,875","23,9","0,288","1,1","66,9","21,6","95,7"],
    [51030,"43943,91667","20,8","0,288","0,6","207,7","21,5","98"],
    [51031,"43943,95833","32,4","0,183","0,9","272,2","21,1","97,4"],
    [51032,"43944","16,3","0,157","0,6","215","20,9","95,5"],
    [51033,"43944,04167","19,2","0,105","0,6","130,5","20,9","96,1"],
    [51034,"43944,08333","14,8","0,052","0,7","266,9","20,4","96,8"],
    [51035,"43944,125","12,1","0,052","0,7","105,3","20,5","95,6"],
    [51036,"43944,16667","15,8","0,052","1,2","266,7","20,6","94"],
    [51037,"43944,20833","17,4","0,079","0,8","274,6","20,8","93,4"],
    [51038,"43944,25","21,5","0,105","0,9","209,1","20,7","93,2"],
    [51039,"43944,29167","25,5","0,131","0,6","175,2","21,1","92,2"],
    [51040,"43944,33333","34,2","0,314","0,6","255,1","21,5","90,4"],
    [51041,"43944,375","29,8","0,419","0,6","152,3","22,8","83,9"],
    [51042,"43944,41667","27,3","0,655","1,2","134,8","24","80,3"],
    [51043,"43944,45833","33,5","0,445","0,8","91,8","25,8","71,5"],
    [51044,"43944,5","15,1","0,55","0,9","119,3","27,4","64,3"],
    [51045,"43944,54167","16,9","0,419","0,7","111,6","28,2","61"],
    [51046,"43944,58333","17,6","0,445","1,4","91,2","28,6","59,8"],
    [51047,"43944,625","23,5","0,288","1,3","57,6","29,1","57,7"],
    [51048,"43944,66667","22,8","0,209","4,2","278,3","28,2","57,7"],
    [51049,"43944,70833","7","0,183","5,3","338,7","26,9","61,3"],
    [51050,"43944,75","7,7","0,209","4,9","335","26,1","62,6"],
    [51051,"43944,79167","8,3","0,209","3,3","311,9","25,6","64,5"],
    [51052,"43944,83333","8,2","0,602","1,3","138,8","24,6","72,4"],
    [51053,"43944,875","32,1","0,209","1,7","171,7","22,7","80,4"],
    [51054,"43944,91667","19","0,209","0,7","156,4","22,5","81,1"],
    [51055,"43944,95833","16,9","0,183","1","244,4","22,3","84,5"],
    [51056,"43945","25,2","0,131","0,9","234","22,1","85,5"],
    [51057,"43945,04167","17,7","0,183","0,4","222,7","21,9","86"],
    [51058,"43945,08333","18,3","0,157","0,6","134,8","21,7","87,1"],
    [51059,"43945,125","19,8","0,131","0,6","202,8","21,8","87,3"],
    [51060,"43945,16667","22,6","0,157","0,7","279,3","21,9","87"],
    [51061,"43945,20833","19,8","0,079","0,5","168,1","22","87,2"],
    [51062,"43945,25","26,9","0,131","0,7","102,3","21,6","92,2"],
    [51063,"43945,29167","27","0,183","0,3","140","21,7","89,8"],
    [51064,"43945,33333","34,9","0,209","0,6","223,7","22,3","89"],
    [51065,"43945,375","33,5","0,471","0,6","190,3","23,5","80,1"],
    [51066,"43945,41667","19,5","0,55","1","150","25","73,9"],
    [51067,"43945,45833","18,8","0,524","0,8","163,2","26,9","65,7"],
    [51068,"43945,5","0,4","0,497","1,6","65,9","26,2","66,8"],
    [51069,"43945,54167","29,7","0,34","2,1","105,6","25,5","71,7"],
    [51070,"43945,58333","1,9","0,183","3,1","136,4","28,2","58,8"],
    [51071,"43945,625","ND","0,131","3,7","140,5","29,1","51,6"],
    [51072,"43945,66667","ND","0,183","3,6","340,7","29,1","51,3"],
    [51073,"43945,70833","8,3","0,209","2,5","210,6","26,8","64,1"],
    [51074,"43945,75","27,3","0,183","2,2","172,6","24,7","73"],
    [51075,"43945,79167","14,7","0,576","1,7","131,2","24,3","73,9"],
    [51076,"43945,83333","21,4","0,262","0,9","156","22,1","90,6"],
    [51077,"43945,875","18,2","0,157","0,5","183,7","22,1","94"],
    [51078,"43945,91667","29,7","0,157","0,7","185,3","22,2","94,8"],
    [51079,"43945,95833","17,5","0,183","0,7","112,5","22","94,9"],
    [51080,"43946","13,9","0,105","0,5","118,6","21,8","94"],
    [51081,"43946,04167","16,4","0,131","0,5","73,5","21,7","95,2"],
    [51082,"43946,08333","16,3","0,079","0,3","115,4","21,6","95,8"],
    [51083,"43946,125","13,7","0,105","0,5","155,9","21,5","95,9"],
    [51084,"43946,16667","14,9","0,052","0,6","220","21,3","95,7"],
    [51085,"43946,20833","15,1","0,052","0,7","237,9","20,9","95,9"],
    [51086,"43946,25","16,4","0,079","0,4","266,9","21,2","94,2"],
    [51087,"43946,29167","31,8","0,131","0,8","244,5","21,2","95,8"],
    [51088,"43946,33333","26,2","0,157","0,5","68,2","21,7","95,2"],
    [51089,"43946,375","22,8","0,236","0,8","166,6","22,4","91,5"],
    [51090,"43946,41667","25,5","0,131","0,8","86,1","24,5","80,2"],
    [51091,"43946,45833","4,6","0,471","1,2","58,9","26,4","69,8"],
    [51092,"43946,5","20,7","0,393","0,9","98,6","28","61,6"],
    [51093,"43946,54167","7,6","0,314","1,1","151,3","28,3","58,9"],
    [51094,"43946,58333","23,5","0,183","1,2","93,4","29,7","54,6"],
    [51095,"43946,625","20,5","0,183","1,1","46,3","30,2","52,9"],
    [51096,"43946,66667","22,7","0,131","3,6","240,9","29,7","53,2"],
    [51097,"43946,70833","9,4","0,157","5","337,1","28,3","56,6"],
    [51098,"43946,75","8,7","0,157","4","335,5","27,5","56,8"],
    [51099,"43946,79167","10,6","0,183","4,2","314,2","26,5","60,4"],
    [51100,"43946,83333","22,1","0,314","0,9","217,7","25,4","70,4"],
    [51101,"43946,875","25,5","0,105","1","182,2","25,6","68,3"],
    [51102,"43946,91667","16,3","0,183","1,1","203,2","24,6","72,9"],
    [51103,"43946,95833","23,5","0,079","0,6","217,7","24,5","74,3"],
    [51104,"43947","23,8","0,079","0,6","259,3","23,9","78,2"],
    [51105,"43947,04167","18,6","0,052","0,2","59,4","23,6","80,2"],
    [51106,"43947,08333","23,1","0,026","0,7","108,4","23","83,3"],
    [51107,"43947,125","27","0,079","0,5","233,7","22,9","84,6"],
    [51108,"43947,16667","22","0,052","0,8","213,6","22,4","89,7"],
    [51109,"43947,20833","24,2","0,026","1","240,5","21,5","95,3"],
    [51110,"43947,25","16,6","0,131","0,7","248,8","21,6","94,9"],
    [51111,"43947,29167","22,4","0,052","0,7","268,4","21,6","95"],
    [51112,"43947,33333","11,5","0,105","0,8","128,7","22,8","92,2"],
    [51113,"43947,375","28,1","0,157","0,8","77","24,6","80,4"],
    [51114,"43947,41667","15,4","0,288","0,8","84,9","26,3","68,8"],
    [51115,"43947,45833","13,4","0,183","1,2","105,2","27,4","63,8"],
    [51116,"43947,5","9,9","0,131","1,4","154,8","28,4","59,9"],
    [51117,"43947,54167","3,5","0,314","1,3","110,8","29,8","54,9"],
    [51118,"43947,58333","9,2","0,157","1,2","111,3","30,4","51,1"],
    [51119,"43947,625","11,2","0,105","3,2","323,4","30,5","49,1"],
    [51120,"43947,66667","6,4","0,079","4,9","327,4","29,8","51,3"],
    [51121,"43947,70833","9,6","0,131","5","326,5","28,6","55,3"],
    [51122,"43947,75","11,1","0,079","5,7","332","27,2","59,6"],
    [51123,"43947,79167","11,3","0,105","4,2","327,4","27","59,6"],
    [51124,"43947,83333","4,7","0,131","2,2","260,8","26,8","62,8"],
    [51125,"43947,875","28,2","0,079","1,6","217,8","25,5","70,1"],
    [51126,"43947,91667","13,3","0,131","0,6","161,6","24,9","73,5"],
    [51127,"43947,95833","25,8","0,105","0,9","269,3","23,5","80"],
    [51128,"43948","25,6","0,026","1,1","270,2","22,8","81"],
    [51129,"43948,04167","17,4","0,105","0,9","260,7","22,3","82,1"],
    [51130,"43948,08333","13,6","0,026","0,7","271,5","22","83,8"],
    [51131,"43948,125","13,9","0,052","0,9","242,6","21,7","85"],
    [51132,"43948,16667","11,1","0,079","0,5","179,1","21,2","87,4"],
    [51133,"43948,20833","14","0","0,9","264,2","20,7","88,5"],
    [51134,"43948,25","19,7","0,393","0,7","276,8","20,8","88,7"],
    [51135,"43948,29167","28,8","0,34","0,9","266,5","21","87"],
    [51136,"43948,33333","28,8","0,236","0,4","114,9","23,3","80,4"],
    [51137,"43948,375","31,1","0,55","0,7","62,7","25,2","71,6"],
    [51138,"43948,41667","35,6","3,456","1,5","70,3","26,4","67,3"],
    [51139,"43948,45833","43,3","3,954","0,9","127,7","27,5","61,6"],
    [51140,"43948,5","30,8","2,854","1,2","106,3","28,6","58,2"],
    [51141,"43948,54167","27,3","2,016","1,3","180,1","29,8","54,1"],
    [51142,"43948,58333","25,2","0,838","1","158,9","30,7","50,9"],
    [51143,"43948,625","30,6","0,55","2,4","188,7","30,5","52,9"],
    [51144,"43948,66667","28,3","0,183","4,6","330,3","29,4","54,7"],
    [51145,"43948,70833","6,5","0,157","5","343,2","28,8","56,9"],
    [51146,"43948,75","12,5","0,209","4,8","338,3","27,6","59,6"],
    [51147,"43948,79167","7,3","0,209","5,2","324,1","26,7","61,8"],
    [51148,"43948,83333","9,2","0,131","5,3","335,4","26,2","63"],
    [51149,"43948,875","13,3","0,209","2,3","235,3","26","67,1"],
    [51150,"43948,91667","19","0,236","0,9","105,6","25,4","73,3"],
    [51151,"43948,95833","25,7","0,079","1,5","116,3","24,7","77,2"],
    [51152,"43949","16,8","0,052","0,6","210,5","24,5","76,1"],
    [51153,"43949,04167","15,6","0,052","0,8","256,9","24","77,2"],
    [51154,"43949,08333","8,6","0,052","1","54,8","23,9","78"],
    [51155,"43949,125","15,2","0,026","0,9","266,5","22,3","91,4"],
    [51156,"43949,16667","22,4","0,026","0,4","126,9","22,2","94,4"],
    [51157,"43949,20833","14,6","0,026","0,9","275,1","21,8","95,6"],
    [51158,"43949,25","12,1","0,052","1","267,7","21,7","95"],
    [51159,"43949,29167","12,9","0,105","0,8","283,5","21,9","94,2"],
    [51160,"43949,33333","26,7","0,105","0,5","175,8","21,9","94,7"],
    [51161,"43949,375","22,1","0,079","1,5","267,1","20,9","97,4"],
    [51162,"43949,41667","11","0,157","0,9","103,6","23,1","88,9"],
    [51163,"43949,45833","4,7","0,943","0,8","167,7","25,6","74,7"],
    [51164,"43949,5","21,8","0,864","1,1","182,5","26,9","68,7"],
    [51165,"43949,54167","10,2","0,157","1,4","205,4","27,6","65"],
    [51166,"43949,58333","11,1","0,052","1,1","145,2","29,1","59,3"],
    [51167,"43949,625","13,8","0","1,6","173,6","29,6","59"],
    [51168,"43949,66667","22,6","0,026","1,3","233","29,9","56,3"],
    [51169,"43949,70833","9,9","0,052","4,2","330,3","28,1","56,6"],
    [51170,"43949,75","6,4","0,052","5,3","328,6","26,5","62,4"],
    [51171,"43949,79167","19,7","0,079","4,6","325,8","26,1","63,3"],
    [51172,"43949,83333","ND","0,026","3,6","328,1","26,2","61,5"],
    [51173,"43949,875","3,6","0,105","1,2","251,5","26,2","61,6"],
    [51174,"43949,91667","43,1","0,026","1,9","266,2","25","70,6"],
    [51175,"43949,95833","38,2","0,026","0,5","169,9","24,2","80,3"],
    [51176,"43950","25,3","0,105","0,9","211,5","23,1","88,2"],
    [51177,"43950,04167","15,7","0","0,8","246,8","23","88,3"],
    [51178,"43950,08333","11,3","0,026","0,4","213,8","22,8","87,7"],
    [51179,"43950,125","15,4","0,052","0,5","188,1","22,2","93,5"],
    [51180,"43950,16667","18","0,026","0,7","238,2","21,8","96"],
    [51181,"43950,20833","20","0,183","0,7","250","21,6","96,7"],
    [51182,"43950,25","16,3","0,916","0,8","265","21,5","96,3"],
    [51183,"43950,29167","19,5","0,759","0,8","256,5","21,4","96"],
    [51184,"43950,33333","30,7","0,131","0,7","177,2","22,4","91,5"],
    [51185,"43950,375","24,5","0,314","0,6","126,2","24,3","80,8"],
    [51186,"43950,41667","24,8","0,471","0,8","162","26","72"],
    [51187,"43950,45833","14,3","0,733","1","101,7","27,5","64,8"],
    [51188,"43950,5","17","0,943","1,3","80,4","28,8","59,1"],
    [51189,"43950,54167","25","0,681","1,1","140,7","29,4","56,2"],
    [51190,"43950,58333","28","0,236","1,8","146,2","29,1","58,6"],
    [51191,"43950,625","29,1","0,105","3,9","342,2","29,2","57,8"],
    [51192,"43950,66667","7,3","0,026","3,8","340,6","29","58,2"],
    [51193,"43950,70833","5,1","0,052","4,7","327,9","28,5","57,1"],
    [51194,"43950,75","6,2","0,052","5,6","326,1","27,3","61"],
    [51195,"43950,79167","11,7","0,052","4,6","332,3","26,8","63,1"],
    [51196,"43950,83333","4,6","0,105","1,9","285,6","27","61,7"],
    [51197,"43950,875","12,4","0,157","1","148,9","26,4","65,5"],
    [51198,"43950,91667","20,2","0,131","0,6","161,6","25,1","68,8"],
    [51199,"43950,95833","28,7","0,052","0,6","177,8","24,9","72,2"],
    [51200,"43951","29,4","0,052","0,8","236,9","24,2","78,4"],
    [51201,"43951,04167","27,4","0,026","1,2","266,9","23,1","87,2"],
    [51202,"43951,08333","27,5","0","1,2","266,7","22,8","89,1"],
    [51203,"43951,125","15,1","0","0,8","248,9","22,7","88,4"],
    [51204,"43951,16667","16,1","0,026","0,8","217","22,5","89,3"],
    [51205,"43951,20833","20,2","0,105","0,9","259,3","22,4","88"],
    [51206,"43951,25","18","0,183","0,8","273,7","22,3","89"],
    [51207,"43951,29167","23,2","0,157","0,8","274,4","22,5","88,3"],
    [51208,"43951,33333","40,1","0,262","0,8","229,3","23,3","84,5"],
    [51209,"43951,375","26,8","0,314","0,6","101,4","24,9","76,1"],
    [51210,"43951,41667","26,4","0,288","0,5","56,3","26,4","68,9"],
    [51211,"43951,45833","20,9","0,471","1","135,9","27,6","63,5"],
    [51212,"43951,5","17,1","0,236","0,8","161,8","28,5","60,9"],
    [51213,"43951,54167","24,9","0,209","1,5","185,3","29,3","58,8"],
    [51214,"43951,58333","24,2","0,445","1","88","30,1","54,1"],
    [51215,"43951,625","ND","ND","0,8","115,7","30,9","50,4"],
    [51216,"43951,66667","ND","0","2,6","344,9","30","53,5"],
    [51217,"43951,70833","ND","0,105","4,6","334,7","28,8","56,9"],
    [51218,"43951,75","ND","0,026","5,2","326,3","27,9","59,6"],
    [51219,"43951,79167","ND","0,052","4,9","328,5","26,8","64"],
    [51220,"43951,83333","ND","0,026","4,8","327","26,7","62,7"],
    [51221,"43951,875","ND","0,026","3,9","334,2","26,4","63,4"],
    [51222,"43951,91667","ND","0,026","3,6","333,4","26,3","64,2"],
    [51223,"43951,95833","ND","0,026","1,1","235,4","26,1","67,7"],
    [51224,"43952","ND","0,026","1,1","145,3","24,7","79,1"],
    [51225,"43952,04167","ND","0,026","0,9","140,7","24,3","81,2"],
    [51226,"43952,08333","ND","0,026","0,5","180,3","24","82,2"],
    [51227,"43952,125","ND","0,026","0,5","100,7","23,6","84,2"],
    [51228,"43952,16667","ND","0,026","0,6","242,7","22,3","93,9"],
    [51229,"43952,20833","ND","0","0,6","213,1","22,3","95,6"],
    [51230,"43952,25","ND","0,026","0,5","232,3","22,1","95,5"],
    [51231,"43952,29167","ND","0","0,3","134,7","22","96,6"],
    [51232,"43952,33333","ND","0,052","0,5","196,8","22,2","96,2"],
    [51233,"43952,375","ND","0","0,6","191","22,9","92,4"],
    [51234,"43952,41667","ND","0,079","0,8","123,5","24,7","83,6"],
    [51235,"43952,45833","ND","0,079","1,3","164","25,8","75,9"],
    [51236,"43952,5","ND","0,131","0,9","124,4","26,9","70,4"],
    [51237,"43952,54167","ND","0,105","1,7","50,9","28,3","64,6"],
    [51238,"43952,58333","ND","0,209","0,8","83,3","30","56,2"],
    [51239,"43952,625","ND","0,209","1,4","141,1","29,9","55,9"],
    [51240,"43952,66667","ND","0,236","1,1","93,6","30,1","55,2"],
    [51241,"43952,70833","ND","0,393","1,3","201,2","30,1","53,8"],
    [51242,"43952,75","ND","0,524","1,6","205,8","29,1","58,8"],
    [51243,"43952,79167","ND","0,131","1,9","245,1","27,4","65,9"],
    [51244,"43952,83333","ND","0,079","1,1","260,3","26,7","69,3"],
    [51245,"43952,875","ND","0,105","0,7","225,4","26,1","72,5"],
    [51246,"43952,91667","ND","0,079","0,5","217,7","25,3","75,2"],
    [51247,"43952,95833","ND","0,052","0,8","248,2","24,8","78,1"],
    [51248,"43953","ND","0,026","0,7","246,8","24,4","79,5"],
    [51249,"43953,04167","ND","0,026","0,7","300,9","23,8","82,7"],
    [51250,"43953,08333","ND","0,026","0,7","262,2","23,9","83,1"],
    [51251,"43953,125","ND","0","0,8","202","24,1","83,1"],
    [51252,"43953,16667","ND","0,026","0,7","249,9","23,9","83,7"],
    [51253,"43953,20833","ND","0,209","0,8","255,6","23,6","85,8"],
    [51254,"43953,25","ND","0,052","0,4","173,1","23,8","85"],
    [51255,"43953,29167","ND","0,079","0,9","46,4","23,3","88,9"],
    [51256,"43953,33333","ND","0,105","1","236,2","22,7","96,5"],
    [51257,"43953,375","ND","0,105","0,6","170,1","24,8","84,2"],
    [51258,"43953,41667","ND","0,052","0,8","156,1","26,2","76,5"],
    [51259,"43953,45833","ND","0,131","1","141,8","26,7","74,3"],
    [51260,"43953,5","ND","0,052","0,8","78,4","27,7","69,5"],
    [51261,"43953,54167","ND","0,079","0,8","109,2","29,6","59,9"],
    [51262,"43953,58333","ND","0,052","1,6","78,5","30,4","56,7"],
    [51263,"43953,625","ND","0,052","2,8","220","30,2","52,5"],
    [51264,"43953,66667","ND","0,105","3,7","333,9","28,2","61,2"],
    [51265,"43953,70833","ND","0,079","4,1","330","28,5","58,1"],
    [51266,"43953,75","ND","0,079","2,7","240,7","22,4","90,7"],
    [51267,"43953,79167","ND","0,079","1,2","219,5","21,7","95"],
    [51268,"43953,83333","ND","0,026","1,3","248,7","22","92,7"],
    [51269,"43953,875","ND","0,052","1","219,2","22,2","90,6"],
    [51270,"43953,91667","ND","0,052","1,3","269,9","21,9","91"],
    [51271,"43953,95833","ND","0","1,6","282,3","21,9","88,3"],
    [51272,"43954","ND","0,026","1,2","271,4","22,2","86,7"],
    [51273,"43954,04167","ND","0","0,4","142,4","22,2","89,4"],
    [51274,"43954,08333","ND","0","0,7","167,6","22","93,3"],
    [51275,"43954,125","ND","0,026","0,7","214,3","21,1","94,9"],
    [51276,"43954,16667","ND","0,105","0,8","286,8","21,2","94,3"],
    [51277,"43954,20833","ND","0,026","0,6","212,7","21,1","94,3"],
    [51278,"43954,25","ND","0,026","0,8","268,5","21,1","94"],
    [51279,"43954,29167","ND","0","0,8","273,8","21,5","92,4"],
    [51280,"43954,33333","ND","0,026","0,4","109,6","23,2","86,9"],
    [51281,"43954,375","ND","0,628","0,9","72,5","24,9","80,7"],
    [51282,"43954,41667","ND","5,263","1,5","86,6","26,5","72,6"],
    [51283,"43954,45833","ND","2,199","1","128,6","27,1","68,7"],
    [51284,"43954,5","ND","0,628","0,7","188,7","28,3","64,7"],
    [51285,"43954,54167","ND","0,052","1,4","153,3","29,6","59,1"],
    [51286,"43954,58333","ND","0,026","1,1","118,2","30,3","54,9"],
    [51287,"43954,625","ND","0,079","3,2","321,7","29,2","56,9"],
    [51288,"43954,66667","ND","0,105","3,7","309,1","28,1","58,4"],
    [51289,"43954,70833","ND","0,157","2,7","113,8","27,6","60,3"],
    [51290,"43954,75","ND","0,314","1","228,3","27,2","64"],
    [51291,"43954,79167","ND","0,367","0,9","172,9","26,4","70,5"],
    [51292,"43954,83333","ND","0,262","0,6","138,3","25,6","74,6"],
    [51293,"43954,875","ND","0,209","1","220,1","24,9","78,6"],
    [51294,"43954,91667","ND","0,079","0,5","233,3","24,8","80"],
    [51295,"43954,95833","ND","0,026","0,8","270,5","24,5","82,5"],
    [51296,"43955","ND","0,026","0,8","254,1","24,6","76,4"],
    [51297,"43955,04167","ND","0,026","0,6","169,4","24,4","79,5"],
    [51298,"43955,08333","ND","0,026","0,8","268,9","23,9","83,1"],
    [51299,"43955,125","ND","0,026","0,6","183,8","23,5","84"],
    [51300,"43955,16667","ND","0,026","0,6","271,8","23,1","85,7"],
    [51301,"43955,20833","ND","0,026","0,8","274,6","22,7","87,7"],
    [51302,"43955,25","ND","0,079","0,6","229,9","22,7","87,9"],
    [51303,"43955,29167","ND","0,052","0,7","283,2","22,7","87,2"],
    [51304,"43955,33333","ND","0,34","0,7","161,1","24,5","78,5"],
    [51305,"43955,375","ND","0,864","0,7","81,5","25,8","72,3"],
    [51306,"43955,41667","ND","0,55","0,8","135,8","26,8","69"],
    [51307,"43955,45833","ND","0,183","1,1","153,1","27,8","65,1"],
    [51308,"43955,5","ND","0,105","1","110,2","28,2","64,6"],
    [51309,"43955,54167","ND","1,466","1,2","103,1","29,2","61,5"],
    [51310,"43955,58333","ND","0,052","1","112,2","29,7","59,2"],
    [51311,"43955,625","1,1","0,026","1,1","161,8","29,8","58,5"],
    [51312,"43955,66667","43,3","0,079","0,8","222,2","30","57,3"],
    [51313,"43955,70833","45,6","0,052","3,4","309","28,5","60"],
    [51314,"43955,75","16","0,131","3,3","343,2","27,3","62,8"],
    [51315,"43955,79167","11,8","0,052","4,1","324,4","26,6","63,7"],
    [51316,"43955,83333","12,1","0,105","3,2","321,6","26,7","60,7"],
    [51317,"43955,875","12,4","0,105","2,7","321,6","26,3","61,2"],
    [51318,"43955,91667","11,9","0,131","0,7","222,9","25,6","69,5"],
    [51319,"43955,95833","31,5","0,079","0,7","218,8","24,5","76,8"],
    [51320,"43956","29,4","0,105","0,6","141,3","23,5","81,8"],
    [51321,"43956,04167","31,2","0,052","0,8","243,4","23,1","82,5"],
    [51322,"43956,08333","31,5","0,026","0,7","108,3","23,2","83,4"],
    [51323,"43956,125","29,8","0,052","0,5","205,6","23","83,2"],
    [51324,"43956,16667","28,8","0,026","0,9","207,4","22,3","86,9"],
    [51325,"43956,20833","30,2","0,052","1","282,3","21,6","88,2"],
    [51326,"43956,25","30,7","0,052","0,7","249,1","21,2","87,3"],
    [51327,"43956,29167","34","0,105","0,6","260,2","21,7","86"],
    [51328,"43956,33333","41,8","0,288","0,8","201,2","22,5","84,6"],
    [51329,"43956,375","55,3","0,628","0,9","179,5","23,4","80,7"],
    [51330,"43956,41667","54,1","0,759","0,9","183,4","24,7","76,5"],
    [51331,"43956,45833","44,8","3,011","1,4","152,2","26,5","64,8"],
    [51332,"43956,5","33,3","4,582","1,4","112,8","27,3","60,9"],
    [51333,"43956,54167","30,8","3,404","1,2","115,3","29","54,2"],
    [51334,"43956,58333","30,1","3,221","1,7","114,4","28,7","58,2"],
    [51335,"43956,625","53,1","1,204","1,6","182,1","28,9","57,7"],
    [51336,"43956,66667","48,6","0,131","4,9","210,7","28,6","57,5"],
    [51337,"43956,70833","10,5","0,105","4,8","329,9","27,7","58,4"],
    [51338,"43956,75","10,9","0,079","5,7","329,3","26,4","61,2"],
    [51339,"43956,79167","14,2","0,026","5,9","322,4","26","61,8"],
    [51340,"43956,83333","9,6","0,052","5,5","324,1","26,1","62,1"],
    [51341,"43956,875","15,3","0,131","3,1","292,2","26,3","61"],
    [51342,"43956,91667","11,5","0,131","1,2","169,3","25,2","71,3"],
    [51343,"43956,95833","26,3","0,262","1,1","203,7","24,5","73,9"],
    [51344,"43957","27","0,079","0,6","224,3","24,4","76,8"],
    [51345,"43957,04167","28","0,157","0,7","275,8","24,1","78,6"],
    [51346,"43957,08333","20,4","0,052","0,4","155,7","23,6","81,5"],
    [51347,"43957,125","19,5","0,079","0,4","154,6","23,2","81,8"],
    [51348,"43957,16667","20,3","0,026","0,7","270,6","22,7","84,6"],
    [51349,"43957,20833","21,3","0,131","0,4","106,5","23","82,4"],
    [51350,"43957,25","29,9","0,209","0,4","184,8","22,8","84,4"],
    [51351,"43957,29167","37","0,236","0,6","232,2","22,5","85,8"],
    [51352,"43957,33333","41,4","0,131","0,8","253,2","23,2","83,7"],
    [51353,"43957,375","47,5","0,576","0,5","117","24,2","79,1"],
    [51354,"43957,41667","55,6","1,414","0,5","133,5","26","69,8"],
    [51355,"43957,45833","42,1","2,828","0,7","151,2","27,1","64,9"],
    [51356,"43957,5","39,9","2,514","1","188,2","28,3","60,7"],
    [51357,"43957,54167","44,7","2,435","1,2","117","29,2","57,8"],
    [51358,"43957,58333","41,4","1,44","1,2","153,6","29,2","58,2"],
    [51359,"43957,625","41,9","0,838","1,1","138","30","55,5"],
    [51360,"43957,66667","45,5","0,288","2,4","236,6","29","57,4"],
    [51361,"43957,70833","23,8","0,157","3,4","348","27,7","61,3"],
    [51362,"43957,75","12,5","0,105","3,4","332,4","27,5","60,4"],
    [51363,"43957,79167","15,3","0,105","3,3","334,1","26,9","61,4"],
    [51364,"43957,83333","11,9","0,262","1,2","253,5","26,8","62,1"],
    [51365,"43957,875","30,8","0,288","0,3","134,8","26,6","65"],
    [51366,"43957,91667","29,8","0,236","1","281,3","25,7","71,2"],
    [51367,"43957,95833","41,5","0,105","0,6","238,5","24,8","76,7"],
    [51368,"43958","42,1","0,026","0,6","171,2","24,3","78,4"],
    [51369,"43958,04167","31,5","0,079","0,5","173","24,3","80,1"],
    [51370,"43958,08333","36,1","0,079","0,8","192,9","24,2","80,5"],
    [51371,"43958,125","41,3","0,052","0,8","181,9","23,8","81,4"],
    [51372,"43958,16667","38,4","0,026","0,5","222,1","23,5","83,1"],
    [51373,"43958,20833","34","0,026","0,3","115,2","23,4","83,4"],
    [51374,"43958,25","35,2","0,157","0,7","204","23,1","85,2"],
    [51375,"43958,29167","39,3","0,131","0,7","259,7","22,7","87,5"],
    [51376,"43958,33333","53,8","0,209","0,6","224,4","23,5","84,4"],
    [51377,"43958,375","55,2","0,733","0,8","134,1","24,5","79,3"],
    [51378,"43958,41667","56","0,602","0,5","169","25,1","75,3"],
    [51379,"43958,45833","49,4","1,204","0,9","65,3","26,7","68,8"],
    [51380,"43958,5","51,8","2,592","1,5","138","27,2","66,7"],
    [51381,"43958,54167","56,3","1,702","1,4","158,9","26,9","70,5"],
    [51382,"43958,58333","52,2","0,655","1,3","147,9","26,4","74,4"],
    [51383,"43958,625","77,7","0,236","1","156,6","26","76,2"],
    [51384,"43958,66667","87,4","0,183","1,2","177,7","25,8","76,7"],
    [51385,"43958,70833","87,1","0,236","1,2","178,7","25,7","77,3"],
    [51386,"43958,75","103,2","0,236","0,5","132,6","25,7","77,9"],
    [51387,"43958,79167","102,9","0,655","1","95,1","25,3","78,2"],
    [51388,"43958,83333","94,5","1,309","1,1","233","24,4","81,8"],
    [51389,"43958,875","56,8","1,178","0,7","217,7","23,9","85,5"],
    [51390,"43958,91667","71,8","0,812","1,2","273,8","23,5","86,4"],
    [51391,"43958,95833","70","0,576","1,2","275,8","23,2","84,5"],
    [51392,"43959","48,4","0,445","0,7","247,9","22,9","85,5"],
    [51393,"43959,04167","41,9","0,367","0,8","273,5","22,4","87,1"],
    [51394,"43959,08333","40,2","0,314","1","272","22","87,6"],
    [51395,"43959,125","31,2","0,209","0,8","271,7","21,6","87,5"],
    [51396,"43959,16667","27","0,209","0,5","260,5","21,3","87,8"],
    [51397,"43959,20833","25,8","0,105","0,7","278,7","21,1","89,7"],
    [51398,"43959,25","32,7","0,288","0,8","280,2","21,2","88,9"],
    [51399,"43959,29167","37,1","0,576","0,6","236,9","21,8","87,8"],
    [51400,"43959,33333","54,6","0,759","0,8","162,6","22,6","85,5"],
    [51401,"43959,375","63,5","0,759","0,5","94,9","23,4","83,4"],
    [51402,"43959,41667","75","3,823","0,5","138,1","24,7","78,7"],
    [51403,"43959,45833","99,9","7,803","1,2","80,4","26,6","70,4"],
    [51404,"43959,5","98,1","6,389","1,4","119,7","27,5","66,6"],
    [51405,"43959,54167","68,4","2,88","1,6","157,3","27,6","67,4"],
    [51406,"43959,58333","60,1","0,288","1","156","28,3","65,5"],
    [51407,"43959,625","55,2","0,131","0,8","141,2","29,3","60,8"],
    [51408,"43959,66667","62,1","0,157","0,9","126,8","29,4","60"],
    [51409,"43959,70833","67,9","0,209","1","64,8","29,3","60"],
    [51410,"43959,75","52,7","1,021","1,6","23,8","29","62"],
    [51411,"43959,79167","42,7","1,964","1","255,6","28,1","62,8"],
    [51412,"43959,83333","30,7","0,916","1,1","264,3","26,3","74,4"],
    [51413,"43959,875","68","0,367","1,3","268,8","25,7","75,8"],
    [51414,"43959,91667","43,9","0,419","1,3","269,7","25,3","76,3"],
    [51415,"43959,95833","44,1","0,419","1,2","275,5","24,9","76,9"],
    [51416,"43960","29,5","0,236","0,8","251,8","24,6","78,3"],
    [51417,"43960,04167","30,8","0,183","0,4","164,8","24,3","82"],
    [51418,"43960,08333","39","0,445","0,6","157,7","24,3","81,5"],
    [51419,"43960,125","48,3","0,183","1","262,2","23,7","84,1"],
    [51420,"43960,16667","31,5","0,209","0,8","274,6","23","86,4"],
    [51421,"43960,20833","35","0,183","0,6","201,6","23,2","85,5"],
    [51422,"43960,25","41,8","0,157","0,7","235,8","23","86,8"],
    [51423,"43960,29167","49","0,393","0,5","183,8","22,9","86,9"],
    [51424,"43960,33333","60,1","0,34","0,6","156,5","23,6","84,3"],
    [51425,"43960,375","56,6","0,707","0,8","135,4","24,8","78,2"],
    [51426,"43960,41667","49,6","0,733","0,7","188,7","25,6","74,9"],
    [51427,"43960,45833","46,4","0,916","0,9","132","27,5","68,5"],
    [51428,"43960,5","51,2","1,178","0,8","113,3","29,2","59,9"],
    [51429,"43960,54167","40,5","0,969","1,4","148,7","30","57,1"],
    [51430,"43960,58333","46,1","0,262","1,5","135,8","30,7","56,1"],
    [51431,"43960,625","47,9","0,105","1,2","206,1","31,3","53,2"],
    [51432,"43960,66667","48,8","0,288","0,7","138,5","32,2","49,5"],
    [51433,"43960,70833","42,6","0,419","3,2","329,1","30,8","53,7"],
    [51434,"43960,75","25,1","0,34","4,2","322,5","29,8","55,7"],
    [51435,"43960,79167","22,2","0,131","4,8","329","28,1","61,4"],
    [51436,"43960,83333","19,3","0,157","4,7","331,2","27,6","62,2"],
    [51437,"43960,875","13,7","0,209","2,9","325,7","27,5","62,1"],
    [51438,"43960,91667","20,4","0,288","2,3","304,2","27,5","61,7"],
    [51439,"43960,95833","19,8","0,157","1,2","254,6","26,4","67,6"],
    [51440,"43961","32,2","0,209","0,9","244,3","25","75,3"],
    [51441,"43961,04167","43,5","0,183","0,5","226,8","24,7","76,8"],
    [51442,"43961,08333","49,1","0,131","0,8","120,1","24,4","80,8"],
    [51443,"43961,125","49,4","0,079","0,4","143,8","23,7","84,3"],
    [51444,"43961,16667","44,9","0,105","0,8","214,6","23,1","86,3"],
    [51445,"43961,20833","37","0,131","0,8","258,7","23,1","86,2"],
    [51446,"43961,25","61","0,105","1","272,9","22,7","87,6"],
    [51447,"43961,29167","35,3","0,131","0,9","236,8","22,6","86,9"],
    [51448,"43961,33333","41,4","0,262","0,4","84,7","24,3","80,9"],
    [51449,"43961,375","51,7","0,681","0,7","144,4","25,9","73,8"],
    [51450,"43961,41667","47,1","3,221","1,1","157,4","27,5","66,2"],
    [51451,"43961,45833","33,4","3,142","1,3","143,4","29","60,7"],
    [51452,"43961,5","26,5","2,068","1","112,3","29,6","58"],
    [51453,"43961,54167","25,3","1,1","1,2","155,8","30,1","58"],
    [51454,"43961,58333","36,9","0,34","1,4","169,5","30,2","58,3"],
    [51455,"43961,625","39,3","0,105","1,1","188,2","29,8","58,9"],
    [51456,"43961,66667","35,2","0,105","4,3","275,6","26,7","67"],
    [51457,"43961,70833","13,4","0,183","3,7","334,1","27,2","64,1"],
    [51458,"43961,75","6,8","0,236","2,5","336,8","27,4","62,1"],
    [51459,"43961,79167","11,3","0,209","2,5","201","26,7","65,1"],
    [51460,"43961,83333","16,3","0,157","4,6","328,7","26,1","68,2"],
    [51461,"43961,875","6,3","0,209","3","212,7","25,9","63,2"],
    [51462,"43961,91667","12,9","0,393","0,6","97,5","24,4","70,5"],
    [51463,"43961,95833","16,1","0,262","0,6","197,8","23","85,4"],
    [51464,"43962","22,7","0,183","0,8","61,7","22,5","89,7"],
    [51465,"43962,04167","11,4","0,105","0,8","150,4","22","89,9"],
    [51466,"43962,08333","8,5","0,183","0,7","212,2","22","91,1"],
    [51467,"43962,125","11,7","0,079","0,9","236,9","21,9","90,9"],
    [51468,"43962,16667","12,5","0,105","0,6","264,7","22","90,5"],
    [51469,"43962,20833","12,8","0,079","0,5","220,7","21,7","91,6"],
    [51470,"43962,25","18,7","0,209","0,9","276,4","21,2","91,4"],
    [51471,"43962,29167","20,4","0,262","0,7","228,1","21,6","89,2"],
    [51472,"43962,33333","34,5","0,314","0,6","150,7","22,6","88,4"],
    [51473,"43962,375","41,2","0,314","0,7","141","24,1","83,1"],
    [51474,"43962,41667","38,9","0,576","1,3","99,3","26,4","70,7"],
    [51475,"43962,45833","30,5","1,047","1,3","114,7","27,6","63"],
    [51476,"43962,5","20,4","0,655","1","149,5","28,7","58,9"],
    [51477,"43962,54167","25,5","0,471","1,9","243","29,4","56,2"],
    [51478,"43962,58333","24,8","0,262","2,5","100,6","30,3","51,9"],
    [51479,"43962,625","4,9","0,105","3,8","343,7","29,2","55,7"],
    [51480,"43962,66667","7,5","0,524","3","197,4","28,4","61,7"],
    [51481,"43962,70833","29,2","0,157","1,3","232,9","24,2","87,6"],
    [51482,"43962,75","26","0,367","0,8","189,6","24,2","80,9"],
    [51483,"43962,79167","43,7","0,367","0,8","170,5","24,6","79,4"],
    [51484,"43962,83333","34,6","0,367","0,3","101,6","23,9","79,9"],
    [51485,"43962,875","33,8","0,367","0,6","190,1","23,9","79,3"],
    [51486,"43962,91667","38,4","0,079","0,5","211,1","23,3","85,7"],
    [51487,"43962,95833","37","0,131","0,7","194","23","86,6"],
    [51488,"43963","23,3","0,105","0,6","237,2","22,6","86,4"],
    [51489,"43963,04167","18,6","0,131","0,8","204,1","22,5","87,6"],
    [51490,"43963,08333","21,1","0,079","0,4","166,1","22,5","87,8"],
    [51491,"43963,125","24,2","0,157","0,4","160,5","22,6","87,1"],
    [51492,"43963,16667","26,9","0,157","0,7","215,8","22,4","88,4"],
    [51493,"43963,20833","27,4","0,157","0,7","171,1","22,3","88,8"],
    [51494,"43963,25","26","0,262","0,4","127,9","22,6","88,4"],
    [51495,"43963,29167","43,2","0,314","0,7","254,5","22,6","86,9"],
    [51496,"43963,33333","42,6","0,681","0,5","152,1","23,3","84,5"],
    [51497,"43963,375","60,7","0,681","0,7","111,7","23,9","82,2"],
    [51498,"43963,41667","52,1","1,466","1","94,5","25,9","72,1"],
    [51499,"43963,45833","55,9","2,854","1,2","163,7","26","71,4"],
    [51500,"43963,5","57","3,797","1,6","192","26,2","69"],
    [51501,"43963,54167","38,2","1,362","1,6","169,4","27,2","64,6"],
    [51502,"43963,58333","8,7","0,55","3,3","167,8","28,6","56,7"],
    [51503,"43963,625","5,9","0,916","2,1","57,1","29,3","54,2"],
    [51504,"43963,66667","18,8","1,335","2,8","90,8","26,2","68,1"],
    [51505,"43963,70833","35,8","1,257","1,8","139,2","25,6","70,5"],
    [51506,"43963,75","31","0,864","1,6","173,1","24","73,9"],
    [51507,"43963,79167","22,4","0,445","1,6","186,1","22,8","78,5"],
    [51508,"43963,83333","16,3","0,314","0,9","154,9","22,4","80,2"],
    [51509,"43963,875","17,5","0,236","0,4","199,8","22,7","79,6"],
    [51510,"43963,91667","28,7","0,209","0,5","122,8","22,9","80,4"],
    [51511,"43963,95833","27,9","0,183","1,1","115,1","22,1","85,7"],
    [51512,"43964","21,7","0,131","0,5","181,6","21,2","91,8"],
    [51513,"43964,04167","18,1","0,079","0,7","240,8","21,4","90,9"],
    [51514,"43964,08333","18,5","0,079","0,5","186","21,6","89,4"],
    [51515,"43964,125","18,8","0,079","0,7","122,7","21,7","89,4"],
    [51516,"43964,16667","29,6","0,157","0,8","163,2","20,9","93,4"],
    [51517,"43964,20833","33","0,471","0,2","155,4","21,1","92,7"],
    [51518,"43964,25","51,5","0,995","0,6","258,3","21,4","91,9"],
    [51519,"43964,29167","67,5","0,707","0,4","140,5","21,8","89,6"],
    [51520,"43964,33333","64,4","1,388","0,9","146,7","22,4","87,8"],
    [51521,"43964,375","55,1","2,147","1","179,4","23,9","77,7"],
    [51522,"43964,41667","34","1,231","1,4","131,9","25","71,3"],
    [51523,"43964,45833","22,9","1,204","1,3","78,4","25,2","71,9"],
    [51524,"43964,5","36,7","1,728","1,3","78,1","25,8","70,4"],
    [51525,"43964,54167","47,2","2,042","1,5","58,6","26,9","67,1"],
    [51526,"43964,58333","48,8","3,744","1,8","55,9","26,6","68"],
    [51527,"43964,625","51,4","2,356","1,1","222,3","26,6","66,1"],
    [51528,"43964,66667","43,2","2,514","1,1","271,5","27,1","61,4"],
    [51529,"43964,70833","45,5","1,78","0,9","116,4","27,3","59,5"],
    [51530,"43964,75","35,6","2,095","1,7","62,2","26,1","67,8"],
    [51531,"43964,79167","40,1","1,231","1,5","156,9","25","71,9"],
    [51532,"43964,83333","43,6","0,864","1,3","251,6","23,9","79,1"],
    [51533,"43964,875","48,7","0,576","1","266,1","23,3","79,3"],
    [51534,"43964,91667","38,4","0,55","0,7","242,2","22,8","79,7"],
    [51535,"43964,95833","34,7","0,288","0,9","254","22,7","81"],
    [51536,"43965","43,3","0,262","1,3","266","21,9","83,8"],
    [51537,"43965,04167","28,9","0,209","0,8","236,4","21,5","84,4"],
    [51538,"43965,08333","29,3","0,131","0,7","257,8","21,1","86,9"],
    [51539,"43965,125","30,2","0,131","0,6","250,5","20,6","88,1"],
    [51540,"43965,16667","30","0,052","0,9","262,6","20,5","88,6"],
    [51541,"43965,20833","28,6","0,236","0,8","273,9","21","86,5"],
    [51542,"43965,25","31,8","0,288","0,6","255,7","21,2","86,4"],
    [51543,"43965,29167","51","0,367","0,6","264,1","21,5","85,8"],
    [51544,"43965,33333","50","0,419","0,3","62,6","22,7","81,7"],
    [51545,"43965,375","56,3","2,042","0,8","107,7","24,3","75,3"],
    [51546,"43965,41667","85,4","3,221","1,4","132,1","25,8","69,5"],
    [51547,"43965,45833","54,7","ND","0,9","170,3","26,8","64,1"],
    [51548,"43965,5","39,8","ND","0,9","120,4","28,6","56,3"],
    [51549,"43965,54167","33","5,315","1,1","122,7","30,1","50,1"],
    [51550,"43965,58333","37,6","0,759","1,2","173,6","31","46,1"],
    [51551,"43965,625","44,1","0,812","1,4","108,8","31,5","44,2"],
    [51552,"43965,66667","49","0,262","4,6","328,6","29,5","55,8"],
    [51553,"43965,70833","49,1","0,157","5,1","340,3","27,7","60,3"],
    [51554,"43965,75","18,4","0,131","5,6","324,2","27","61,6"],
    [51555,"43965,79167","20,8","0,105","5,7","324","26,9","61"],
    [51556,"43965,83333","15,6","0,314","1,7","205,1","27,3","59,4"],
    [51557,"43965,875","24","0,34","1,4","252,7","26,4","65,7"],
    [51558,"43965,91667","35,1","0,236","0,8","206,1","25,2","72,9"],
    [51559,"43965,95833","30,7","0,262","0,7","243,4","24,5","77,3"],
    [51560,"43966","22,4","0,079","0,8","250,4","24,6","76,7"],
    [51561,"43966,04167","24","0,105","0,7","252,6","24,4","77,3"],
    [51562,"43966,08333","19,3","0,105","0,7","283,1","23,8","80"],
    [51563,"43966,125","20,9","0,131","0,8","282,5","23,3","82,2"],
    [51564,"43966,16667","18,6","0,105","0,8","252,5","23","83,3"],
    [51565,"43966,20833","20,3","0,105","0,4","167,3","23,1","84,8"],
    [51566,"43966,25","33,4","0,262","0,7","251,1","22,8","84,9"],
    [51567,"43966,29167","35,4","0,131","0,9","271,7","22,8","84,7"],
    [51568,"43966,33333","46,6","0,236","0,3","140,3","24","80"],
    [51569,"43966,375","47,3","0,497","0,5","138,6","25,2","75,1"],
    [51570,"43966,41667","53,4","1,257","1,4","154,9","26,2","70,3"],
    [51571,"43966,45833","38,1","0,628","1,3","172,9","27,1","66,5"],
    [51572,"43966,5","23,1","1,44","0,8","100,9","29","57,9"],
    [51573,"43966,54167","14,4","0,602","1,4","115,9","30,2","52,6"],
    [51574,"43966,58333","20,7","0,183","1,2","134,9","31,2","49,8"],
    [51575,"43966,625","31,3","0,602","1,3","119,3","31,2","49,7"],
    [51576,"43966,66667","37,3","0,759","0,9","141,9","31,9","47,8"],
    [51577,"43966,70833","44,3","0,969","1,4","230,2","29,9","54"],
    [51578,"43966,75","40,2","0,262","2,6","295,7","28,4","57,6"],
    [51579,"43966,79167","25,6","0,183","3,1","326,1","27,9","60"],
    [51580,"43966,83333","20,8","0,314","1,5","281,8","27,5","62,6"],
    [51581,"43966,875","28,2","0,34","0,7","232,4","26,3","69,3"],
    [51582,"43966,91667","47,4","0,236","0,6","260,1","25,7","73,6"],
    [51583,"43966,95833","53,9","0,131","0,8","272,4","24,7","78,6"],
    [51584,"43967","53,8","0,131","0,3","168,5","24,3","81"],
    [51585,"43967,04167","45,9","0,079","0,9","241,9","24,3","80,5"],
    [51586,"43967,08333","37,7","0,079","0,7","108,3","23,9","82,8"],
    [51587,"43967,125","33,1","0,105","0,5","131,7","23,1","86,1"],
    [51588,"43967,16667","30,1","0,052","0,6","260,2","22,7","88,2"],
    [51589,"43967,20833","30,9","0,105","0,6","194,7","22,4","89,1"],
    [51590,"43967,25","36,8","0,052","1,1","271,5","22,3","88,9"],
    [51591,"43967,29167","41,9","0,236","0,4","116,2","22,5","88"],
    [51592,"43967,33333","60,1","0,183","0,5","266,3","23,8","82"],
    [51593,"43967,375","58,5","1,021","0,8","218,4","25,2","77,2"],
    [51594,"43967,41667","81,2","2,644","0,9","170,1","26,7","70,2"],
    [51595,"43967,45833","54,7","2,618","0,9","123,7","28,3","64,2"],
    [51596,"43967,5","42,7","1,597","1","131,3","28,9","62,1"],
    [51597,"43967,54167","44,4","0,288","1","182,4","29,7","58,7"],
    [51598,"43967,58333","49,8","0,131","1","188","30,9","55,1"],
    [51599,"43967,625","50,6","0,131","1,2","144,1","31,8","52,1"],
    [51600,"43967,66667","48,8","0,079","1,6","153,4","31,8","53,3"],
    [51601,"43967,70833","45","0,052","2,6","289,9","30,8","56"],
    [51602,"43967,75","32,6","0,105","4,1","326","29,1","58,8"],
    [51603,"43967,79167","23,2","0,157","4,6","331","27,9","62,2"],
    [51604,"43967,83333","19,2","0,183","4,2","320,5","27,6","61,9"],
    [51605,"43967,875","13,3","0,209","1,7","250,1","27,3","62,8"],
    [51606,"43967,91667","15,2","0,236","0,6","169,7","26,8","65,7"],
    [51607,"43967,95833","28","0,262","0,8","215,4","26,2","67,7"],
    [51608,"43968","25,6","0,209","0,6","208,2","25,6","70,7"],
    [51609,"43968,04167","16,9","0,131","0,8","265,5","24,9","73,6"],
    [51610,"43968,08333","18","0,183","0,6","130,7","24,8","75,9"],
    [51611,"43968,125","25,2","0,183","1","194,9","24,2","80,8"],
    [51612,"43968,16667","34","0,131","0,9","207,2","23,2","84,7"],
    [51613,"43968,20833","29","0,131","0,9","201,5","23","84,7"],
    [51614,"43968,25","27,6","0,131","0,7","259,5","22,7","84,9"],
    [51615,"43968,29167","29,3","0,183","0,6","200,5","23","83,1"],
    [51616,"43968,33333","28,2","0,209","0,8","181","24,7","76,2"],
    [51617,"43968,375","30,5","0,497","0,6","129","25,7","71"],
    [51618,"43968,41667","28,3","0,812","0,7","163,3","26,9","66,7"],
    [51619,"43968,45833","22","0,812","1,1","162,8","28,5","61,2"],
    [51620,"43968,5","17,9","0,628","1,3","122,7","29,3","57,1"],
    [51621,"43968,54167","15","0,55","1,6","68,5","30,2","54,1"],
    [51622,"43968,58333","25,8","0,707","3","196,8","30,7","52,7"],
    [51623,"43968,625","16,4","0,209","4,4","347,3","30,1","53"],
    [51624,"43968,66667","4,4","0,157","3,8","338,7","29,3","55,6"],
    [51625,"43968,70833","7,3","0,105","4,4","333,7","28,4","57,7"],
    [51626,"43968,75","11","0,262","1,7","278,6","27,9","63"],
    [51627,"43968,79167","28,2","0,393","1,7","254,7","26,7","66,8"],
    [51628,"43968,83333","23,4","0,34","1,3","166,7","26,3","65,9"],
    [51629,"43968,875","4,9","0,236","0,9","170,6","24,5","77,1"],
    [51630,"43968,91667","35,7","0,236","0,8","230","22,6","93,5"],
    [51631,"43968,95833","22,3","0,105","0,9","256,1","22,6","94,5"],
    [51632,"43969","24,4","0,052","0,9","213,3","22,7","93,6"],
    [51633,"43969,04167","17,7","0,026","0,9","259,1","22,5","93"],
    [51634,"43969,08333","15,4","0,079","0,8","278,5","22,3","93,7"],
    [51635,"43969,125","13,4","0,105","0,8","287,4","22,2","94,5"],
    [51636,"43969,16667","17","0,052","0,6","197,9","22,3","92,4"],
    [51637,"43969,20833","16,6","0,131","0,9","219,6","22,6","89,6"],
    [51638,"43969,25","22,5","0,157","0,6","248,6","22,4","91,7"],
    [51639,"43969,29167","40,1","0,157","0,5","246,1","22,3","92,4"],
    [51640,"43969,33333","39,1","0,445","0,7","123,4","23,5","86,9"],
    [51641,"43969,375","50,5","0,497","0,7","217,7","24,5","81,7"],
    [51642,"43969,41667","47,7","0,812","0,8","157,8","26,3","73,1"],
    [51643,"43969,45833","36,3","0,864","1","148,5","26,9","68,9"],
    [51644,"43969,5","22,2","0,524","0,8","149,6","28,2","63"],
    [51645,"43969,54167","26,5","1,047","1,4","99,4","28,4","63,6"],
    [51646,"43969,58333","41,4","0,34","1,5","171,6","29,3","61,4"],
    [51647,"43969,625","39","0,576","1,3","109,4","30,1","58,1"],
    [51648,"43969,66667","36,3","0,314","2","172,2","29,1","60,3"],
    [51649,"43969,70833","26,1","0,471","3,8","338","28","60,7"],
    [51650,"43969,75","7,4","0,314","4,1","332,5","27","62,3"],
    [51651,"43969,79167","6,2","0,34","3","334,8","25,1","72,6"],
    [51652,"43969,83333","15,4","0,393","1,9","313,7","25,2","70,9"],
    [51653,"43969,875","3,7","0,471","2,1","154,5","23,8","80"],
    [51654,"43969,91667","20,5","0,209","1,1","258,9","22,4","90,9"],
    [51655,"43969,95833","15,6","0,183","1,5","152,6","21,8","96,3"],
    [51656,"43970","11,1","0,105","0,5","218,6","22,1","95"],
    [51657,"43970,04167","13,9","0,052","0,7","211,2","22","94,5"],
    [51658,"43970,08333","11","0,105","0,7","283,7","21,4","96,3"],
    [51659,"43970,125","14,9","0,131","0,8","278,1","21,3","95,6"],
    [51660,"43970,16667","12","0,079","0,8","249,2","21,3","94,5"],
    [51661,"43970,20833","14,3","0,105","0,5","163,4","21,5","95,4"],
    [51662,"43970,25","22,1","0,079","1,2","216,1","21","97,7"],
    [51663,"43970,29167","9,8","0,105","0,6","225,3","20,7","97,4"],
    [51664,"43970,33333","24,3","0,262","0,6","125,9","21,8","95,3"],
    [51665,"43970,375","26,4","0,419","0,4","127,6","22,6","90,8"],
    [51666,"43970,41667","21,5","0,34","0,8","85,2","24,4","81,4"],
    [51667,"43970,45833","25,1","0,471","1,3","166,6","25,9","73,5"],
    [51668,"43970,5","20,1","0,393","1,1","128,4","27","69,2"],
    [51669,"43970,54167","24,8","0,236","0,7","157","27,4","66,9"],
    [51670,"43970,58333","22,2","0,209","0,8","128,1","27,2","68,7"],
    [51671,"43970,625","30,6","0,157","1,2","138,7","27,4","66,7"],
    [51672,"43970,66667","25,4","0,262","3,2","276,9","27,7","60,8"],
    [51673,"43970,70833","2,7","0,314","3,6","338,8","27,1","63,5"],
    [51674,"43970,75","8,4","0,157","3,8","340,2","26,1","64,3"],
    [51675,"43970,79167","6,6","0,236","2,8","300,3","25,6","64,5"],
    [51676,"43970,83333","8,1","0,314","0,7","236,7","25,5","65,3"],
    [51677,"43970,875","20","0,288","0,8","212,8","24,7","75"],
    [51678,"43970,91667","42,3","0,131","0,6","220,8","23,8","82"],
    [51679,"43970,95833","27,8","0,131","0,8","278,2","22,8","85,5"],
    [51680,"43971","22,9","0,105","0,7","253,2","22,6","87"],
    [51681,"43971,04167","21,5","0,105","0,9","270,7","22,6","86,7"],
    [51682,"43971,08333","16,5","0,079","0,7","270,9","22,4","87,1"],
    [51683,"43971,125","16,8","0,079","0,5","154,8","22,4","88,8"],
    [51684,"43971,16667","21,6","0,105","0,6","152,7","22","91,9"],
    [51685,"43971,20833","21,7","0,131","0,7","277,8","21,6","92,3"],
    [51686,"43971,25","26,5","0,209","0,9","268,6","21,3","91,6"],
    [51687,"43971,29167","32,3","0,314","0,5","207,5","21,9","89,5"],
    [51688,"43971,33333","54,5","0,838","0,6","59,4","24,3","79,1"],
    [51689,"43971,375","60,1","2,121","1","138,9","25,3","73,8"],
    [51690,"43971,41667","59,6","1,78","1,3","158","25,9","70,1"],
    [51691,"43971,45833","34,1","0,916","0,9","153,8","27,1","64,7"],
    [51692,"43971,5","23,8","0,524","0,8","162,4","28,7","58,2"],
    [51693,"43971,54167","19,5","0,34","1","127,3","29,9","54,8"],
    [51694,"43971,58333","27,1","0,209","1,1","71,9","30,8","52,1"],
    [51695,"43971,625","28,3","0,079","0,9","144,2","31,7","48,8"],
    [51696,"43971,66667","28,1","0,157","1,5","163,3","31,9","49,6"],
    [51697,"43971,70833","36,6","0,079","4,7","338,9","29,7","57,1"],
    [51698,"43971,75","19,1","0,079","5,3","327,4","28,2","60,3"],
    [51699,"43971,79167","13,4","0,079","5,8","324,4","27,3","62,4"],
    [51700,"43971,83333","13","0,079","5,1","315,5","27,1","62,8"],
    [51701,"43971,875","9,7","0,183","2,5","283,8","27,2","64,2"],
    [51702,"43971,91667","29","0,157","0,5","148,2","26,4","69,3"],
    [51703,"43971,95833","27,7","0,131","0,8","98,6","25,6","73"],
    [51704,"43972","25,2","0,079","0,9","249,3","24,5","77,9"],
    [51705,"43972,04167","19,9","0,079","0,9","250,7","23,7","81,2"],
    [51706,"43972,08333","27,5","0,052","0,7","281,1","23,4","82,4"],
    [51707,"43972,125","22,3","0,079","0,6","240,1","23,2","84,4"],
    [51708,"43972,16667","22,7","0,079","0,7","267,2","22,8","86,1"],
    [51709,"43972,20833","17,8","0,105","0,5","228,7","22,7","86,7"],
    [51710,"43972,25","24","0,367","1","262,7","22,5","88,1"],
    [51711,"43972,29167","38,3","0,183","1","268,9","22,5","87,8"],
    [51712,"43972,33333","38,6","0,236","0,6","94,9","23,8","83"],
    [51713,"43972,375","43,8","1,178","0,7","163,2","25,7","74"],
    [51714,"43972,41667","36","1,938","1,1","142,5","27,2","68,6"],
    [51715,"43972,45833","ND","1,911","0,9","97,5","28,3","64,5"],
    [51716,"43972,5","ND","1,571","1,1","143","29","61,8"],
    [51717,"43972,54167","ND","0,209","1,1","90","29,7","59,9"],
    [51718,"43972,58333","ND","0,34","1,1","61,3","30,9","55,2"],
    [51719,"43972,625","53,3","0,131","1,2","83,9","31,2","52,6"],
    [51720,"43972,66667","27,8","0,236","3,8","323,9","30,3","53,7"],
    [51721,"43972,70833","9,6","0,367","4,3","341,7","29,2","58"],
    [51722,"43972,75","12,5","0,34","3,7","333,6","28,5","59,3"],
    [51723,"43972,79167","12,9","0,471","2","286","28,1","59,9"],
    [51724,"43972,83333","23,5","0,288","3,1","327,3","27,7","61,3"],
    [51725,"43972,875","10,6","0,393","1,7","278","27,4","62,3"],
    [51726,"43972,91667","18,8","0,367","0,9","224,3","27","64,6"],
    [51727,"43972,95833","27,9","0,262","0,7","224","26","70,5"],
    [51728,"43973","26,7","0,236","0,7","249,6","24,9","78,1"],
    [51729,"43973,04167","34","0,131","0,5","203,2","24,6","79,6"],
    [51730,"43973,08333","27,4","0,052","1,5","166,1","24,4","83"],
    [51731,"43973,125","36","0,026","2,5","185,9","20,5","95,3"],
    [51732,"43973,16667","ND","0,052","1","143,9","21,5","91,9"],
    [51733,"43973,20833","13,6","0,052","0,8","229,1","21,6","94,4"],
    [51734,"43973,25","15,8","0,393","0,6","134,6","21,5","96,9"],
    [51735,"43973,29167","25,4","0,262","0,9","214,9","21,5","97,6"],
    [51736,"43973,33333","23","0,497","0,5","221,9","22,2","95,3"],
    [51737,"43973,375","32,8","0,262","0,6","232,2","23,4","87,6"],
    [51738,"43973,41667","38,3","0,576","0,6","185,6","25,2","81,2"],
    [51739,"43973,45833","62,6","0,785","0,8","145,8","27","73,3"],
    [51740,"43973,5","66,5","0,55","0,8","121,6","27,5","69,7"],
    [51741,"43973,54167","49,5","0,262","2,1","252,3","28,2","62,8"],
    [51742,"43973,58333","6,1","0,497","1,9","144,6","29,4","56,3"],
    [51743,"43973,625","7","0,812","1","89,6","30","58,3"],
    [51744,"43973,66667","38,7","0,55","1,2","125,1","29,6","60,8"],
    [51745,"43973,70833","38,6","0,785","1,9","224,1","29,3","57,9"],
    [51746,"43973,75","17,2","0,497","3,2","337,9","28,1","60,6"],
    [51747,"43973,79167","10,9","0,288","3,2","328,2","27,4","61,6"],
    [51748,"43973,83333","10","0,183","3,2","328,1","26,9","63,2"],
    [51749,"43973,875","10,6","0,209","3,3","313,3","26,6","64,1"],
    [51750,"43973,91667","13,8","0,288","1,3","251,5","25,6","68,5"],
    [51751,"43973,95833","21,2","0,209","0,7","238","25,1","70,8"],
    [51752,"43974","20,4","0,236","0,9","221,2","24","77,8"],
    [51753,"43974,04167","22","0,131","0,9","269,8","23,1","83,8"],
    [51754,"43974,08333","19,7","0,105","0,9","236,8","22,3","87,6"],
    [51755,"43974,125","16,4","0,079","0,8","267,3","22,6","86,7"],
    [51756,"43974,16667","21,4","0,079","0,5","200,3","22,4","89,7"],
    [51757,"43974,20833","26,1","0,157","0,9","229","22,1","89,6"],
    [51758,"43974,25","26,5","0,079","0,8","278,4","22,2","89,4"],
    [51759,"43974,29167","40,2","0,157","0,6","267,5","22,5","89"],
    [51760,"43974,33333","63,6","0,445","0,8","271,7","23,1","86,7"],
    [51761,"43974,375","53,4","0,157","0,7","168,3","24,7","78,6"],
    [51762,"43974,41667","46,5","0,497","0,8","137,5","26","72,2"],
    [51763,"43974,45833","53,3","1,257","1","155,2","27,6","64,8"],
    [51764,"43974,5","32,5","1,388","1","261,2","28,8","59,8"],
    [51765,"43974,54167","27,5","0,864","1,1","154,5","30,6","53,3"],
    [51766,"43974,58333","31,3","0,445","1,1","136","31,6","50,4"],
    [51767,"43974,625","39,7","0,131","1,9","251,8","32","49,9"],
    [51768,"43974,66667","33,1","0,236","4,5","343,4","30,9","52,8"],
    [51769,"43974,70833","12,3","0,157","4,2","330,5","30,4","53,1"],
    [51770,"43974,75","11,8","0,131","4,8","337,2","28,6","59"],
    [51771,"43974,79167","14","0,183","5,4","327,3","27,8","61,2"],
    [51772,"43974,83333","14","0,157","4,2","326","28","59,7"],
    [51773,"43974,875","11,1","0,209","1,4","243,7","27,7","61,6"],
    [51774,"43974,91667","29,8","0,131","1","224,8","26,7","68,9"],
    [51775,"43974,95833","32,3","0,131","0,4","167","25,7","73,3"],
    [51776,"43975","36,9","0,079","0,9","264,8","25,1","75,5"],
    [51777,"43975,04167","23,2","0,131","0,5","123,2","24,6","79,1"],
    [51778,"43975,08333","28,1","0,105","0,5","143,8","24,5","80,2"],
    [51779,"43975,125","20,6","0,131","0,7","241,8","23,7","83"],
    [51780,"43975,16667","23,2","0,105","0,5","221,8","23,2","85,4"],
    [51781,"43975,20833","23,1","0,079","0,8","240,4","23,2","84,7"],
    [51782,"43975,25","18,2","0,079","0,8","279,8","23","86,1"],
    [51783,"43975,29167","26,1","0,157","0,7","218,3","22,8","86,7"],
    [51784,"43975,33333","33,3","0,131","0,6","118,3","24,7","80,2"],
    [51785,"43975,375","38","0,812","0,7","126,1","26,4","71,6"],
    [51786,"43975,41667","32,1","1,1","0,9","93,8","27,8","67"],
    [51787,"43975,45833","31,9","1,178","1,2","68,7","28,1","65,4"],
    [51788,"43975,5","39,5","0,943","1,6","82,4","28,8","63,2"],
    [51789,"43975,54167","42,7","0,262","1,3","77,1","28,9","64,2"],
    [51790,"43975,58333","36,2","0,052","1","86,3","30,1","59"],
    [51791,"43975,625","18,4","0,079","1,9","194,9","30,5","55,7"],
    [51792,"43975,66667","15,7","0,131","3,6","340,6","30","53,5"],
    [51793,"43975,70833","8,2","0,157","4","336,7","29,1","57"],
    [51794,"43975,75","9,2","0,105","3,5","333,8","28,3","58,2"],
    [51795,"43975,79167","8,4","0,288","2,3","313,5","27,6","61,4"],
    [51796,"43975,83333","14","0,367","0,7","193,9","27,3","63,3"],
    [51797,"43975,875","22,9","0,393","0,8","264,8","26,7","66,2"],
    [51798,"43975,91667","23,2","0,209","0,5","204,6","26,3","68,5"],
    [51799,"43975,95833","23,1","0,236","0,7","263,6","25,3","74,3"],
    [51800,"43976","31,3","0,236","0,3","160,5","24,6","79,2"],
    [51801,"43976,04167","35","0,209","1","262,9","24","81,5"],
    [51802,"43976,08333","21,6","0,209","0,9","270,6","24","82"],
    [51803,"43976,125","23,1","0,131","0,7","189,8","23,9","82,5"],
    [51804,"43976,16667","21,7","0,183","0,6","47,4","23,6","86"],
    [51805,"43976,20833","28,4","0,026","0,9","277,4","22,8","87,8"],
    [51806,"43976,25","19,1","0,079","0,8","271,2","22,5","88,3"],
    [51807,"43976,29167","27,2","0,105","0,7","203,5","23","86,4"],
    [51808,"43976,33333","35,7","0,157","0,5","175,2","24,4","80,9"],
    [51809,"43976,375","36,4","0,34","0,7","34,6","25,4","77"],
    [51810,"43976,41667","41,8","3,116","0,6","100,2","27,5","67,4"],
    [51811,"43976,45833","33,3","3,299","0,8","73,3","28,7","62,4"],
    [51812,"43976,5","39,5","2,121","1,1","150,8","29,6","59,5"],
    [51813,"43976,54167","43,3","0,445","1,3","108,6","30,8","56,3"],
    [51814,"43976,58333","40,2","0,209","1,4","76,7","31,5","53,2"],
    [51815,"43976,625","42,1","0,105","1,1","62,8","32","51,4"],
    [51816,"43976,66667","38,8","0,131","2,5","254,1","30,9","53,5"],
    [51817,"43976,70833","27,3","0,34","4,4","331,4","29,7","56,1"],
    [51818,"43976,75","14,3","0,314","5,1","323,7","28,8","57,5"],
    [51819,"43976,79167","13,8","0,262","4","329,9","28,4","58,2"],
    [51820,"43976,83333","11","0,34","2,8","288,1","28,4","58,2"],
    [51821,"43976,875","12,2","0,393","2,3","289,3","28","60,8"],
    [51822,"43976,91667","15,9","0,419","1","135,9","27,3","68"],
    [51823,"43976,95833","36","0,393","0,8","169","26,4","71,2"],
    [51824,"43977","19,9","0,209","0,5","193,8","26","75,3"],
    [51825,"43977,04167","33,3","0,157","0,7","235,8","25,3","78,4"],
    [51826,"43977,08333","26,4","0,183","0,5","224,3","24,7","80,8"],
    [51827,"43977,125","19,9","0,131","0,9","146,7","24,5","80,3"],
    [51828,"43977,16667","21","0,105","0,6","129,4","24,1","81,4"],
    [51829,"43977,20833","20,8","0,209","0,4","93,4","23,7","83,5"],
    [51830,"43977,25","23,8","0,262","0,6","200,7","23,3","85,8"],
    [51831,"43977,29167","41,7","0,209","0,8","243,3","23,2","87,2"],
    [51832,"43977,33333","51,4","0,236","0,4","177,6","25","79,9"],
    [51833,"43977,375","46,6","1,964","0,7","186,4","26,2","72,8"],
    [51834,"43977,41667","34,8","2,016","0,8","81,6","27,8","66,2"],
    [51835,"43977,45833","31","2,278","1","131,6","28,9","61,9"],
    [51836,"43977,5","52,3","0,89","1,4","143,5","30,1","59"],
    [51837,"43977,54167","58,9","0,209","1,7","188,6","29,8","60,6"],
    [51838,"43977,58333","38,3","0,079","1","208,1","30,2","58,6"],
    [51839,"43977,625","35","0,131","2","322,4","29,5","59,9"],
    [51840,"43977,66667","22,7","0,55","4","343","28,6","61,7"],
    [51841,"43977,70833","12,1","0,236","3,8","304,2","27,5","64"],
    [51842,"43977,75","5,4","0,995","2,3","97,1","27,3","64"],
    [51843,"43977,79167","12,8","0,785","1,3","224,9","27","65,6"],
    [51844,"43977,83333","23,3","0,838","0,9","209,7","26,3","72,7"],
    [51845,"43977,875","54,4","0,681","1","185,2","25,4","78,1"],
    [51846,"43977,91667","45,3","0,419","0,7","183,6","24,7","80,6"],
    [51847,"43977,95833","33,1","0,262","1","265,3","23,9","84,5"],
    [51848,"43978","31,7","0,236","1","248,2","23,9","83,5"],
    [51849,"43978,04167","31,9","0,105","0,8","263,2","23,6","84,4"],
    [51850,"43978,08333","23","0,105","0,8","270,4","23,3","85,5"],
    [51851,"43978,125","19,9","0,105","0,2","103,1","22,9","87,7"],
    [51852,"43978,16667","24,2","0,131","0,7","85,7","22,5","90,6"],
    [51853,"43978,20833","27,7","0,157","0,6","273","22,1","90,1"],
    [51854,"43978,25","26","0,288","0,8","277,2","21,9","89,8"],
    [51855,"43978,29167","31","0,34","0,8","219,2","22,1","89"],
    [51856,"43978,33333","39,6","0,628","0,6","266,7","23","84"],
    [51857,"43978,375","50,5","0,759","0,7","225,2","23,7","83,5"],
    [51858,"43978,41667","57,1","1,047","0,8","185,4","25,1","77,1"],
    [51859,"43978,45833","57,1","1,938","1","164","25,9","72,3"],
    [51860,"43978,5","50,5","2,356","1,1","144,8","25,8","73,2"],
    [51861,"43978,54167","52,9","1,466","0,7","145,6","25,9","73,7"],
    [51862,"43978,58333","48,4","0,759","0,7","178,6","26,6","71,2"],
    [51863,"43978,625","56,5","0,55","0,9","140,3","27,1","67,9"],
    [51864,"43978,66667","47,7","0,602","0,7","126,5","27,1","67,8"],
    [51865,"43978,70833","61,1","0,916","2,2","232,8","26,7","65,4"],
    [51866,"43978,75","12,6","0,707","3","277,5","26","65,7"],
    [51867,"43978,79167","5,8","0,367","3,7","341","25,1","68,2"],
    [51868,"43978,83333","6,6","0,655","1,9","295,8","24,9","69,3"],
    [51869,"43978,875","12,4","0,497","1","283,5","24,9","69,8"],
    [51870,"43978,91667","23,8","0,602","0,7","155,4","24,5","74,9"],
    [51871,"43978,95833","42,1","0,445","0,4","235,4","23,1","82,2"],
    [51872,"43979","36,5","0,262","1","269,2","22,4","83,7"],
    [51873,"43979,04167","22,2","0,131","0,9","257,7","22,4","83,9"],
    [51874,"43979,08333","23,3","0,183","1,1","266,8","22,1","86,2"],
    [51875,"43979,125","23,4","0,209","0,9","120,8","22,2","86,8"],
    [51876,"43979,16667","35,1","0,236","0,6","119","21,9","88,8"],
    [51877,"43979,20833","32,4","0,367","0,6","192,2","21,7","89,5"],
    [51878,"43979,25","37,4","0,236","0,6","220,7","21,3","91,7"],
    [51879,"43979,29167","48,1","0,393","0,4","187,6","21,7","89,7"],
    [51880,"43979,33333","49,3","0,628","0,6","248,7","23","82,9"],
    [51881,"43979,375","42,5","1,362","0,9","151,9","25","73,7"],
    [51882,"43979,41667","37,2","ND","1,2","136,5","26,2","69,8"],
    [51883,"43979,45833","53","4,085","1,1","127,9","27,5","63,8"],
    [51884,"43979,5","53,4","1,335","1","167,1","27,8","61,5"],
    [51885,"43979,54167","53,7","1,231","1","186,8","28,6","57,8"],
    [51886,"43979,58333","43,6","0,681","2,9","265","29,2","53,7"],
    [51887,"43979,625","17,9","0,524","4,7","346,7","27,4","60,9"],
    [51888,"43979,66667","17,7","0,471","4,9","267,7","26,2","66,1"],
    [51889,"43979,70833","6,3","0,445","4,4","284,8","24,6","70"],
    [51890,"43979,75","0,6","1,1","1,6","168,3","24,2","72"],
    [51891,"43979,79167","37,1","1,597","1","155,3","23,8","74,2"],
    [51892,"43979,83333","39,6","0,445","1,1","229,9","22,7","84,4"],
    [51893,"43979,875","34,9","0,55","0,9","149,1","21,9","87,6"],
    [51894,"43979,91667","20,3","0,183","0,9","200","21,3","90"],
    [51895,"43979,95833","19,9","0,131","0,7","192","21,1","94,3"],
    [51896,"43980","17","0,105","0,7","177,4","21,1","94,4"],
    [51897,"43980,04167","8,5","0,105","0,9","177,6","21","95,3"],
    [51898,"43980,08333","7,7","0,079","0,8","186,7","21","95,6"],
    [51899,"43980,125","10,8","0,105","0,6","168,3","20,9","96,3"],
    [51900,"43980,16667","12,7","0,131","0,9","130,6","20,9","96,4"],
    [51901,"43980,20833","16,7","0,393","0,9","194,3","20,7","96,6"],
    [51902,"43980,25","9,7","0,183","0,3","131,8","20,6","98,3"],
    [51903,"43980,29167","11,1","0,34","0,8","177,8","20,3","96,7"],
    [51904,"43980,33333","11,3","0,524","1","164,5","20,8","94,3"],
    [51905,"43980,375","16,4","0,471","0,6","98,9","20,9","94,6"],
    [51906,"43980,41667","18,2","0,288","0,9","156,4","22","92,1"],
    [51907,"43980,45833","7,6","0,393","0,8","105,8","24,4","76,8"],
    [51908,"43980,5","1,7","0,681","1","143,4","26,5","65,4"],
    [51909,"43980,54167","15,1","1,047","1,2","84,7","27,2","61,8"],
    [51910,"43980,58333","29,6","1,231","1,2","142,5","27,9","59,9"],
    [51911,"43980,625","33,5","1,44","1,2","124,3","27,9","60,8"],
    [51912,"43980,66667","34,4","0,785","2,5","108,4","26,9","62,3"],
    [51913,"43980,70833","15,5","0,419","3,7","304","26,5","62,1"],
    [51914,"43980,75","9,6","0,34","3,1","160,7","25,8","63,6"],
    [51915,"43980,79167","9,6","0,209","3,2","214,7","25,1","65,8"],
    [51916,"43980,83333","10,5","0,157","3,8","336","25","64,6"],
    [51917,"43980,875","6,4","0,34","1,7","196,9","24,1","76,2"],
    [51918,"43980,91667","37,9","0,314","1,1","168,4","22,4","86,2"],
    [51919,"43980,95833","13,7","0,157","1","150,8","22,2","87,2"],
    [51920,"43981","10,7","0,288","0,7","98,5","22","89,3"],
    [51921,"43981,04167","11","0,183","0,7","71,2","21,6","92,7"],
    [51922,"43981,08333","12,4","0,157","0,4","80,4","21,4","95,9"],
    [51923,"43981,125","13","0,079","0,7","175,2","21,4","95,5"],
    [51924,"43981,16667","11,4","0,131","0,8","152,2","21","96,1"],
    [51925,"43981,20833","10,2","0,183","0,9","254,4","20,5","97,3"],
    [51926,"43981,25","12","0,445","0,3","206,9","20,5","96,3"],
    [51927,"43981,29167","17,3","0,34","0,4","240,9","20,6","97,1"],
    [51928,"43981,33333","22,2","0,393","0,7","121,4","20,7","97,5"],
    [51929,"43981,375","16,9","0,497","0,4","92,9","20,6","98,4"],
    [51930,"43981,41667","14,7","0,393","0,5","55,1","21","98,2"],
    [51931,"43981,45833","12,1","0,393","0,8","87,6","21,6","96,1"],
    [51932,"43981,5","18,8","0,367","0,3","62,8","22,7","90,5"],
    [51933,"43981,54167","14,5","0,262","0,5","104,1","24","80,9"],
    [51934,"43981,58333","14,2","0,262","1","144,1","24,5","76,1"],
    [51935,"43981,625","12,3","0,367","1,1","162,1","24,9","75,2"],
    [51936,"43981,66667","14,4","0,236","1,5","230,8","25,4","72,5"],
    [51937,"43981,70833","19,9","0,183","1,7","257,4","25,2","75,1"],
    [51938,"43981,75","18,1","0,367","2","108,1","23,3","86,2"],
    [51939,"43981,79167","31,2","0,367","1,7","236,4","22","95,6"],
    [51940,"43981,83333","24,5","0,445","1,5","272,9","22","92,4"],
    [51941,"43981,875","18,6","0,497","0,8","277,4","22,6","83,6"],
    [51942,"43981,91667","5,7","0,34","0,9","157,1","22,7","82,4"],
    [51943,"43981,95833","23,2","0,236","1","241,4","22","90,8"],
    [51944,"43982","29,6","0,131","0,9","196","21,5","95,5"],
    [51945,"43982,04167","16,4","0,131","0,8","190,7","20,9","98"],
    [51946,"43982,08333","5,3","0,105","0,4","97,5","20,7","98,7"],
    [51947,"43982,125","8,9","0,079","0,3","94,3","20,8","98,4"],
    [51948,"43982,16667","7,2","0,105","1","170,7","20,8","97,5"],
    [51949,"43982,20833","6,3","0,026","0,8","195,4","20,8","97,3"],
    [51950,"43982,25","9,7","0,079","0,4","155,8","20,7","97,7"],
    [51951,"43982,29167","15,9","0,131","0,4","217","20,8","97,9"],
    [51952,"43982,33333","30,1","0,131","0,4","188,7","21,2","95,2"],
    [51953,"43982,375","21,9","0,288","0,6","138,8","22,6","86,4"],
    [51954,"43982,41667","15,4","0,759","1,1","139","24","79,8"],
    [51955,"43982,45833","17,3","1,414","1,2","135,8","24,7","76,2"],
    [51956,"43982,5","20,6","1,885","1,2","208,5","26","69,6"],
    [51957,"43982,54167","17,4","1,545","0,8","145,1","27,1","64,3"],
    [51958,"43982,58333","17,3","0,864","0,8","155,7","27,7","61,7"],
    [51959,"43982,625","23,2","0,419","1,1","62,5","28,7","58,2"],
    [51960,"43982,66667","30,2","0,367","1,3","195,6","27,9","61,6"],
    [51961,"43982,70833","29,8","0,314","3,5","230,1","21,8","89,1"],
    [51962,"43982,75","15,1","0,236","2,7","302,4","23,1","81,4"],
    [51963,"43982,79167","3,1","0,55","2,1","277,6","24","76"],
    [51964,"43982,83333","0,9","0,314","3,3","306,5","24,7","67,4"],
    [51965,"43982,875","ND","0,524","1,5","238,1","24","73,4"],
    [51966,"43982,91667","37,6","0,314","0,8","270,3","22,5","85,6"],
    [51967,"43982,95833","31,6","0,288","0,8","263,4","22","90,6"],
    [51968,"43983","31,3","0,262","0,8","237,2","21,5","92,9"],
    [51969,"43983,04167","31,4","0,209","0,7","248,8","21","94,8"],
    [51970,"43983,08333","22,6","0,079","1,1","250","21","93,6"],
    [51971,"43983,125","14,6","0,131","0,8","244,1","21,1","92"],
    [51972,"43983,16667","13,5","0,131","0,4","147,2","20,8","93,8"],
    [51973,"43983,20833","18,9","0,105","0,7","232,1","20,5","94,8"],
    [51974,"43983,25","28,2","0,288","0,5","246,3","20,7","93,5"],
    [51975,"43983,29167","49,2","0,497","0,6","91","20,8","95,7"],
    [51976,"43983,33333","32,6","0,367","0,5","256,3","20,8","97,7"],
    [51977,"43983,375","18,3","0,602","0,3","93,2","22,2","92"],
    [51978,"43983,41667","22,1","0,497","0,7","144","24,1","81,2"],
    [51979,"43983,45833","21","0,576","0,9","161,9","25,7","72,8"],
    [51980,"43983,5","26,7","0,524","1,2","176,9","26,3","69,1"],
    [51981,"43983,54167","17,7","0,812","1,1","185,2","26,5","68,1"],
    [51982,"43983,58333","27,8","0,733","1,2","170,7","27,1","68"],
    [51983,"43983,625","31","0,209","0,8","182,8","27,2","68,1"],
    [51984,"43983,66667","33,6","0,602","1,7","143","26,6","67,6"],
    [51985,"43983,70833","24,9","0,943","2,2","33","23,5","84,8"],
    [51986,"43983,75","22,8","1,309","0,9","57,2","24","82"],
    [51987,"43983,79167","22,5","1,519","0,3","137,1","23,5","86,3"],
    [51988,"43983,83333","53,4","0,864","0,8","204","23,2","90,1"],
    [51989,"43983,875","52,3","0,55","0,6","210,1","22,8","90,7"],
    [51990,"43983,91667","44,3","0,576","0,3","186,1","22,5","91,3"],
    [51991,"43983,95833","42,3","0,497","1","262,6","22,2","91,5"],
    [51992,"43984","22,6","0,419","0,5","228,9","22,1","91,7"],
    [51993,"43984,04167","23,3","0,314","0,5","243,6","22,1","92,4"],
    [51994,"43984,08333","18,3","0,314","0,3","144,2","21,5","94,7"],
    [51995,"43984,125","21,1","0,314","0,2","42","21,8","94,6"],
    [51996,"43984,16667","26,1","0,236","0,3","71,6","21,7","94,6"],
    [51997,"43984,20833","25,2","0,34","0,6","65,6","21,5","94,7"],
    [51998,"43984,25","41,6","0,55","0,6","87","21,5","93,7"],
    [51999,"43984,29167","52,3","0,524","0,3","95,1","21,7","93,4"],
    [52000,"43984,33333","64,4","1,047","0,5","92,3","22,9","87,8"],
    [52001,"43984,375","65,5","3,116","0,9","87,1","24,4","78,9"],
    [52002,"43984,41667","56,2","3,09","1","128,9","25","77,3"],
    [52003,"43984,45833","61,1","3,482","1,2","145,9","25,3","75,8"],
    [52004,"43984,5","51,1","2,356","0,9","103,2","26,3","70,2"],
    [52005,"43984,54167","49,3","3,142","1,6","62,9","27,5","65,5"],
    [52006,"43984,58333","36,8","3,116","1,7","55,5","28,4","60,2"],
    [52007,"43984,625","20,6","2,042","2,3","77,1","29,2","54,3"],
    [52008,"43984,66667","21,6","2,042","1,6","115,6","26,6","65,9"],
    [52009,"43984,70833","23,4","0,628","3,1","286,9","21,1","89,5"],
    [52010,"43984,75","11,2","1,204","0,6","197,6","21,2","89,8"],
    [52011,"43984,79167","12,4","0,733","1,2","261,1","21,5","85,6"],
    [52012,"43984,83333","21,9","0,576","0,6","265,4","21,5","90,1"],
    [52013,"43984,875","36,2","0,602","0,3","178,3","22","89,8"],
    [52014,"43984,91667","52,7","0,445","0,5","174,6","21,8","91,3"],
    [52015,"43984,95833","38,1","0,393","0,7","133,6","21,7","91,9"],
    [52016,"43985","23,6","0,419","1,5","74","21","96,4"],
    [52017,"43985,04167","11,4","0,288","0,8","180,2","20,3","99,9"],
    [52018,"43985,08333","5,9","0,34","0,2","47","20,4","100"],
    [52019,"43985,125","6,9","0,262","0,6","87,2","20,3","100"],
    [52020,"43985,16667","5,6","0,131","0,5","119,7","20,2","100"],
    [52021,"43985,20833","4,2","0,131","0,3","145,8","20","100"],
    [52022,"43985,25","5,1","0,314","0,5","174","20","100"],
    [52023,"43985,29167","11,7","0,393","0,5","267,4","20,1","100"],
    [52024,"43985,33333","23,2","0,445","0,6","179","20,6","99,9"],
    [52025,"43985,375","19,4","0,55","0,9","174,5","20,9","99"],
    [52026,"43985,41667","19,7","0,445","1","156,6","21,7","95,5"],
    [52027,"43985,45833","15,2","0,497","1,1","153,4","23,1","86,4"],
    [52028,"43985,5","14","0,445","0,7","184,3","24,2","77,8"],
    [52029,"43985,54167","15,3","0,55","1,1","72,6","24,5","76,1"],
    [52030,"43985,58333","20,9","0,916","1,5","60,1","24,1","79,1"],
    [52031,"43985,625","37,8","3,011","1,1","141,4","22","91,9"],
    [52032,"43985,66667","33","2,487","1,1","205,2","21,6","96,8"],
    [52033,"43985,70833","18,8","1,938","1,4","78,7","21,8","92,3"],
    [52034,"43985,75","15,8","1,388","1,2","137,8","21,5","94,4"],
    [52035,"43985,79167","24,4","0,785","0,8","171,8","20,9","98,2"],
    [52036,"43985,83333","20,5","0,785","0,8","169,8","20,7","98,4"],
    [52037,"43985,875","14","0,864","0,4","106,5","20,5","98,1"],
    [52038,"43985,91667","14,8","0,655","0,5","205,9","20,6","99,2"],
    [52039,"43985,95833","33,5","0,445","0,5","254","20,3","99,9"],
    [52040,"43986","12,7","0,314","0,6","238,7","20,2","99,1"],
    [52041,"43986,04167","13,5","0,314","0,6","93,5","20,1","99,8"],
    [52042,"43986,08333","16,6","0,288","0,3","51,3","19,9","100"],
    [52043,"43986,125","16,1","0,209","0,2","23,3","20","100"],
    [52044,"43986,16667","29,7","0,183","0,2","101,4","20","100"],
    [52045,"43986,20833","35,4","0,367","0,7","75,5","20","100"],
    [52046,"43986,25","55,6","0,602","0,5","137,3","20,1","99,6"],
    [52047,"43986,29167","66,6","0,916","0,7","69,1","20,2","99,2"],
    [52048,"43986,33333","85,8","2,173","0,4","82,3","20,7","96,6"],
    [52049,"43986,375","96,7","7,357","1,2","187,2","21,4","92,6"],
    [52050,"43986,41667","81,4","5,734","0,8","156,8","22,8","83,3"],
    [52051,"43986,45833","45,9","5,263","1","103,4","24,6","73,6"],
    [52052,"43986,5","30,6","3,587","0,8","90,2","25,3","70,3"],
    [52053,"43986,54167","37,7","2,226","1,1","132,1","26,4","65,4"],
    [52054,"43986,58333","40,5","1,44","0,8","118,8","27,6","61,6"],
    [52055,"43986,625","41,6","0,943","1,2","181,3","27,2","63,9"],
    [52056,"43986,66667","45","0,916","1","209,8","27,6","64,1"],
    [52057,"43986,70833","51,2","1,1","2,3","326,5","27,1","65,7"],
    [52058,"43986,75","22,9","0,864","2,9","332,9","26,1","67,4"],
    [52059,"43986,79167","11,6","0,864","2,5","303,8","25,5","69,1"],
    [52060,"43986,83333","22,2","1,074","0,9","277,9","24,5","78"],
    [52061,"43986,875","48,3","1,021","1","293,5","23,6","81,9"],
    [52062,"43986,91667","40,9","0,864","0,7","198,4","23,5","80,8"],
    [52063,"43986,95833","34,8","0,785","0,5","251,5","23,2","83,2"],
    [52064,"43987","45,9","0,602","0,9","194,4","23,9","76,1"],
    [52065,"43987,04167","18,3","0,628","0,3","173,7","22,8","85,7"],
    [52066,"43987,08333","30,2","0,524","0,4","193","22,3","88,1"],
    [52067,"43987,125","26,8","0,445","0,3","108,7","22,1","91,8"],
    [52068,"43987,16667","37,5","0,34","0,6","263,7","22,1","91,2"],
    [52069,"43987,20833","30,8","1,545","0,7","276,6","21,9","91,5"],
    [52070,"43987,25","41,1","0,707","0,6","189,5","21,8","92,6"],
    [52071,"43987,29167","52,2","0,681","0,5","158,3","22","92,3"],
    [52072,"43987,33333","69,3","0,628","0,7","255,3","22,3","90,9"],
    [52073,"43987,375","58,4","0,838","0,5","122","23,8","83,6"],
    [52074,"43987,41667","40,1","1,126","0,7","129,7","25,6","75,2"],
    [52075,"43987,45833","53,2","1,44","0,9","114,1","26,7","69,2"],
    [52076,"43987,5","41","1,362","0,9","146,2","27,6","65,7"],
    [52077,"43987,54167","37","0,995","0,8","134,1","28,7","61,6"],
    [52078,"43987,58333","48,3","0,995","1","142,9","29,6","57,9"],
    [52079,"43987,625","49","0,89","2,2","257,3","29,2","57,2"],
    [52080,"43987,66667","20,7","0,576","4,7","346,6","27,4","59,6"],
    [52081,"43987,70833","14,5","0,419","5,3","328,4","26,3","62,2"],
    [52082,"43987,75","9,5","0,471","4,8","331,4","25,8","60,2"],
    [52083,"43987,79167","11,6","0,367","3,9","330","25,9","59,5"],
    [52084,"43987,83333","12,8","0,785","0,8","270,4","26","62,5"],
    [52085,"43987,875","44,4","0,733","1","240,2","24,8","76,4"],
    [52086,"43987,91667","62,3","0,969","0,5","93,4","23,9","79,9"],
    [52087,"43987,95833","46,5","0,733","0,1","59,5","23","82,7"],
    [52088,"43988","54,3","0,55","0,6","259,6","22,5","87,2"],
    [52089,"43988,04167","44,9","0,183","0,7","248,1","22,2","87,2"],
    [52090,"43988,08333","26,9","0,288","0,9","228,6","21,7","88,2"],
    [52091,"43988,125","19,9","0,288","0,7","258,6","21,3","89"],
    [52092,"43988,16667","23","0,183","0,8","214,9","21,3","90"],
    [52093,"43988,20833","21,6","0,419","0,8","165,6","21,5","88,7"],
    [52094,"43988,25","31","0,419","0,8","214,2","21,3","89,2"],
    [52095,"43988,29167","41,6","0,628","0,6","183,4","21,2","90,4"],
    [52096,"43988,33333","66","0,707","0,5","120,4","22,1","85,9"],
    [52097,"43988,375","60,1","1,44","1","119,4","22,6","84,3"],
    [52098,"43988,41667","83,9","1,859","0,6","171,8","23,7","79,1"],
    [52099,"43988,45833","70,5","3,063","1","132,2","25,3","71"],
    [52100,"43988,5","56,2","3,718","1","148,9","25,6","71,8"],
    [52101,"43988,54167","61","2,775","0,9","133,6","25,5","73,3"],
    [52102,"43988,58333","66,1","1,964","0,9","123,9","24,8","78,7"],
    [52103,"43988,625","62,1","1,859","1,1","123","25","77,1"],
    [52104,"43988,66667","60,1","1,021","0,5","144,8","25,2","76,5"],
    [52105,"43988,70833","63,3","0,628","0,7","207,5","25,4","76,9"],
    [52106,"43988,75","70,6","0,576","0,9","210","25,1","79"],
    [52107,"43988,79167","52,5","0,419","0,7","209,7","24,6","81,5"],
    [52108,"43988,83333","69,4","0,707","0,7","279,9","23,7","88,3"],
    [52109,"43988,875","78,5","0,864","0,6","249,1","22,9","89,1"],
    [52110,"43988,91667","57,6","1,021","0,9","230,1","22,5","87,9"],
    [52111,"43988,95833","70,2","0,524","0,8","237,9","22","88,2"],
    [52112,"43989","36,1","0,524","0,8","282,1","21,7","89,7"],
    [52113,"43989,04167","41,3","0,471","0,7","233","21,7","90,7"],
    [52114,"43989,08333","41,6","0,367","0,8","276,7","21,3","92"],
    [52115,"43989,125","42,1","0,288","0,8","250,7","20,7","91"],
    [52116,"43989,16667","19,9","0,209","0,8","265","20,4","91,9"],
    [52117,"43989,20833","30,8","0,262","1,2","268,9","20,9","90"],
    [52118,"43989,25","28,2","0,236","1","232,9","20,7","90,9"],
    [52119,"43989,29167","31,5","0,419","0,4","162,9","20,5","93,4"],
    [52120,"43989,33333","60,1","0,419","0,6","131","21,9","87,2"],
    [52121,"43989,375","43,2","0,995","0,7","103,8","24,2","74,9"],
    [52122,"43989,41667","43,2","1,571","0,9","77,6","25,7","71"],
    [52123,"43989,45833","58,5","3,613","1,4","84,7","27,6","62,8"],
    [52124,"43989,5","46,1","3,77","1,1","108,1","29,1","57,6"],
    [52125,"43989,54167","47","2,697","1,2","132,4","29,5","57,2"],
    [52126,"43989,58333","41,7","2,252","1,3","150,2","29,8","56,6"],
    [52127,"43989,625","42,8","1,021","2,3","245,9","28,4","57,9"],
    [52128,"43989,66667","10,1","0,655","3,1","329,6","27,5","60"],
    [52129,"43989,70833","4,4","0,524","3,3","336,3","27,7","57,9"],
    [52130,"43989,75","11,7","0,471","3","318,3","26,6","63"],
    [52131,"43989,79167","12,8","0,34","3,4","327,3","26,4","60,5"],
    [52132,"43989,83333","0,7","0,497","1,8","312","26,5","57,9"],
    [52133,"43989,875","7,8","0,55","0,7","200,6","25,4","63,5"],
    [52134,"43989,91667","28,2","0,759","0,8","208,2","24,3","72"],
    [52135,"43989,95833","45,9","0,471","1,2","264,7","23,8","76,6"],
    [52136,"43990","39,5","0,393","0,2","89,8","23,3","80,2"],
    [52137,"43990,04167","40,4","0,367","0,6","155,1","22,8","84"],
    [52138,"43990,08333","34","0,34","0,6","226,1","22,2","87,3"],
    [52139,"43990,125","34,8","0,209","0,9","228,4","21,4","89,7"],
    [52140,"43990,16667","27,8","0,419","0,4","124,9","21,2","89,7"],
    [52141,"43990,20833","30,4","2,278","0,8","169,6","21","90,5"],
    [52142,"43990,25","43,7","0,681","1,1","250,9","20,5","92,2"],
    [52143,"43990,29167","45,7","0,681","0,6","264,3","21,2","89,6"],
    [52144,"43990,33333","63,4","1,074","0,6","125,4","22,4","84,8"],
    [52145,"43990,375","64,2","1,047","1","138,7","23,6","80,1"],
    [52146,"43990,41667","63,6","1,938","1,1","179,5","24,6","76,4"],
    [52147,"43990,45833","57,6","3,168","0,9","137,9","26,5","67"],
    [52148,"43990,5","37,5","3,639","0,8","143,3","28,3","59,8"],
    [52149,"43990,54167","36,9","3,011","1,1","132","29,2","56,4"],
    [52150,"43990,58333","42,2","2,304","1,3","186,2","30,3","51,8"],
    [52151,"43990,625","48,6","1,204","1,4","141,4","30,8","52,6"],
    [52152,"43990,66667","47,8","0,995","1,8","100,3","30,7","53,1"],
    [52153,"43990,70833","50,8","0,628","4,1","342,6","27,9","63,5"],
    [52154,"43990,75","23,6","0,471","4,5","334,3","26,8","65,7"],
    [52155,"43990,79167","17,9","0,55","4,4","328,7","26,4","66,6"],
    [52156,"43990,83333","10","0,916","1,2","220,1","26,9","64,2"],
    [52157,"43990,875","21,3","0,707","0,8","176,3","26,3","67,2"],
    [52158,"43990,91667","27,8","0,681","1,3","189,2","24,9","76,9"],
    [52159,"43990,95833","50,1","0,497","0,8","244,1","23,9","81,4"],
    [52160,"43991","48","0,576","1","272,7","22,8","85,9"],
    [52161,"43991,04167","48,5","0,314","1","273,4","22,4","85,4"],
    [52162,"43991,08333","34,6","0,34","0,8","204","22,4","84,3"],
    [52163,"43991,125","27,6","0,393","0,6","167,6","22,5","85"],
    [52164,"43991,16667","41,5","0,262","0,7","207","22","88,4"],
    [52165,"43991,20833","54,1","0,262","0,8","243,4","21,6","89,8"],
    [52166,"43991,25","45,3","0,576","0,9","228","21,7","89,4"],
    [52167,"43991,29167","56,4","0,785","0,5","271,7","22","87,7"],
    [52168,"43991,33333","73,5","0,576","0,6","187,8","22,7","85,8"],
    [52169,"43991,375","61,5","1,152","0,6","176,9","24,4","77"],
    [52170,"43991,41667","46,9","2,383","1,1","154,1","25,8","71,3"],
    [52171,"43991,45833","45,3","3,116","1","146,1","27,2","65,7"],
    [52172,"43991,5","33,7","3,273","1,2","149,4","28,2","60,5"],
    [52173,"43991,54167","40,2","2,566","1","210,1","29,3","55,8"],
    [52174,"43991,58333","30,9","1,78","1","95,7","30,3","52,1"],
    [52175,"43991,625","34,1","1,492","1","102,1","30,6","49,6"],
    [52176,"43991,66667","39","1,047","2","93,2","30,4","50,1"],
    [52177,"43991,70833","21,9","0,471","4,4","303,6","27,9","57,1"],
    [52178,"43991,75","13,9","0,471","5,4","335,6","26,2","60,6"],
    [52179,"43991,79167","9,4","0,393","5,2","326,7","25,9","60,1"],
    [52180,"43991,83333","13,8","0,419","4,2","307,3","25,9","60,9"],
    [52181,"43991,875","15,5","0,497","1,4","215,1","24,9","65,7"],
    [52182,"43991,91667","35","0,314","1,8","261,1","22","86,6"],
    [52183,"43991,95833","27,5","0,314","1,1","239,8","21,7","89"],
    [52184,"43992","21,3","0,157","1,8","262,1","21,1","88,2"],
    [52185,"43992,04167","14,6","0,131","1,3","242,7","21,3","85,3"],
    [52186,"43992,08333","10,2","0,157","0,9","234,2","21","86,1"],
    [52187,"43992,125","11,4","0,157","1","260,3","20,5","86,2"],
    [52188,"43992,16667","13","0,157","0,9","249,5","20,6","86,7"],
    [52189,"43992,20833","18,2","0,157","1","275","20,4","88,7"],
    [52190,"43992,25","20","0,314","0,7","249,1","20,6","85,9"],
    [52191,"43992,29167","39,1","0,236","0,9","265,6","20,9","86,5"],
    [52192,"43992,33333","45,7","0,524","0,8","246,5","21,9","83"],
    [52193,"43992,375","53,7","1,335","0,8","201,1","23,5","75,8"],
    [52194,"43992,41667","58,1","1,859","0,9","135,6","24,7","71,3"],
    [52195,"43992,45833","45,3","1,78","1,2","138,7","26","64,5"],
    [52196,"43992,5","44","2,409","1,2","75,7","27,7","57,5"],
    [52197,"43992,54167","44,7","3,273","1,5","95,7","28,6","54,6"],
    [52198,"43992,58333","50,1","3,378","1,8","81,8","29,1","49,2"],
    [52199,"43992,625","21","2,487","1,7","52,4","28,8","52,1"],
    [52200,"43992,66667","28,4","1,152","2,7","302,8","27","60,1"],
    [52201,"43992,70833","46,4","0,445","3,6","234","19,4","95,5"],
    [52202,"43992,75","27,5","0,576","1,5","251,3","20,8","96,2"],
    [52203,"43992,79167","13,5","0,471","1,8","289,3","23,2","79,3"],
    [52204,"43992,83333","ND","0,34","2,1","245,8","23,6","74,3"],
    [52205,"43992,875","31,8","0,55","1,1","240,6","22,6","80,8"],
    [52206,"43992,91667","48,3","0,445","0,6","157,6","21,8","87,2"],
    [52207,"43992,95833","34,8","0,288","0,8","134,9","21,1","91,4"],
    [52208,"43993","25,3","0,314","0,7","59,5","20,4","97,9"],
    [52209,"43993,04167","18,8","0,183","0,8","84,8","20,2","99,4"],
    [52210,"43993,08333","14,6","0,262","0,8","153,2","19,9","99,5"],
    [52211,"43993,125","13","0,131","0,6","223,4","19,8","100"],
    [52212,"43993,16667","11,3","0,131","0,5","186","19,8","100"],
    [52213,"43993,20833","11,6","0,262","0,7","102,9","19,8","100"],
    [52214,"43993,25","15,4","0,34","0,9","93,7","19,5","100"],
    [52215,"43993,29167","21,5","0,602","0,6","137,2","19,5","99,9"],
    [52216,"43993,33333","29,1","0,628","0,6","143,4","19,9","98,9"],
    [52217,"43993,375","39,7","ND","0,7","80,1","21,4","91,4"],
    [52218,"43993,41667","38,3","ND","1,3","153,5","23,8","78,4"],
    [52219,"43993,45833","28,5","ND","1,2","180,4","24,5","73,1"],
    [52220,"43993,5","17,8","2,409","1,3","173,9","25,3","69,5"],
    [52221,"43993,54167","20","2,016","0,8","137,9","26,5","63,7"],
    [52222,"43993,58333","7,7","3,823","1,1","218,7","27,4","58,4"],
    [52223,"43993,625","19,6","3,744","2,1","263,8","26,9","60,1"],
    [52224,"43993,66667","41,5","2,487","2,7","256,2","27,5","55,3"],
    [52225,"43993,70833","4,1","3,063","3,2","342,7","27,3","55,1"],
    [52226,"43993,75","18,2","2,959","3,1","340,2","26,1","61"],
    [52227,"43993,79167","15,1","4,582","2,7","340,5","24,9","65"],
    [52228,"43993,83333","15,3","3,011","1","246,2","24","69,8"],
    [52229,"43993,875","29,1","3,43","1,6","243,4","23,3","70,1"],
    [52230,"43993,91667","18,3","3,666","0,7","235,7","22,9","72,4"],
    [52231,"43993,95833","40,7","3,037","0,8","266,5","22,1","76,5"],
    [52232,"43994","24,1","2,095","0,9","241,4","21,4","78,6"],
    [52233,"43994,04167","26,8","1,754","0,8","274,8","21,3","81,1"],
    [52234,"43994,08333","19,7","1,414","1,1","266,2","21,3","81,6"],
    [52235,"43994,125","18,4","0,916","0,8","277,4","21,4","83"],
    [52236,"43994,16667","23,3","0,864","0,8","260,2","21,3","84,2"],
    [52237,"43994,20833","19,8","1,257","0,6","269,4","21","88,2"],
    [52238,"43994,25","29,3","2,88","1","257","20,5","90,8"],
    [52239,"43994,29167","31,9","4,242","0,5","235,2","20,5","91,3"],
    [52240,"43994,33333","64,4","4,006","0,8","260,1","21,3","88,1"],
    [52241,"43994,375","58,6","3,063","0,4","215,4","22,6","80"],
    [52242,"43994,41667","44,8","5,158","0,6","106,9","24,2","75,1"],
    [52243,"43994,45833","53,6","6,781","0,7","118","25,2","71,6"],
    [52244,"43994,5","47,1","9,164","0,9","135,3","26,2","66,6"],
    [52245,"43994,54167","48","11,259","0,7","42,3","27,5","60,2"],
    [52246,"43994,58333","58,7","8,536","1,2","84,2","28,6","56,3"],
    [52247,"43994,625","46,9","5,813","1,3","96,2","28,1","59,4"],
    [52248,"43994,66667","51,1","11,233","1,2","90,2","27,5","63,8"],
    [52249,"43994,70833","45,4","8,379","0,8","114,1","27,1","65,8"],
    [52250,"43994,75","56,9","22,308","0,5","192,5","26,6","68,2"],
    [52251,"43994,79167","61,8","8,012","0,8","239,5","25,9","72,7"],
    [52252,"43994,83333","72,8","4,792","0,9","266","24,6","79,2"],
    [52253,"43994,875","60,9","4,844","0,6","180","23,8","80,1"],
    [52254,"43994,91667","52,8","3,509","0,8","71,2","22,3","85,6"],
    [52255,"43994,95833","53,4","4,111","0,6","236,5","21,8","88,7"],
    [52256,"43995","57,6","3,194","0,8","266,4","21,3","90,4"],
    [52257,"43995,04167","45,6","2,854","0,7","254,6","21","90,8"],
    [52258,"43995,08333","36,7","1,859","0,8","232,1","20,6","91,4"],
    [52259,"43995,125","39,2","1,807","0,6","243","20,8","90,5"],
    [52260,"43995,16667","39,1","2,016","0,3","198,3","21,1","90"],
    [52261,"43995,20833","43,8","1,938","0,5","151","21","92,7"],
    [52262,"43995,25","52,2","4,215","0,4","265,6","20,8","92,6"],
    [52263,"43995,29167","54","5,891","0,7","287,6","20,8","91,9"],
    [52264,"43995,33333","66,1","7,488","0,4","97,9","22,2","84"],
    [52265,"43995,375","55,4","7,776","0,8","112,4","24,3","75,1"],
    [52266,"43995,41667","104,9","8,928","1,1","127","24,9","73,7"],
    [52267,"43995,45833","67","9,138","0,7","75,8","26,2","67"],
    [52268,"43995,5","59,3","12,83","1","103,3","27,4","63,2"],
    [52269,"43995,54167","79,1","10,604","0,8","86,3","28,8","57,6"],
    [52270,"43995,58333","52,2","6,912","1,7","47,9","29,7","52,2"],
    [52271,"43995,625","16,9","3,666","3","264,7","29,1","52"],
    [52272,"43995,66667","24","2,906","3,1","336,6","27,5","57,8"],
    [52273,"43995,70833","10,3","2,461","3","319,3","28,2","55,4"],
    [52274,"43995,75","25,6","2,644","3,6","325","27,2","60,2"],
    [52275,"43995,79167","16,7","3,116","3,9","327,2","26,2","63,4"],
    [52276,"43995,83333","18,5","5,001","1,5","283,2","25,7","65,9"],
    [52277,"43995,875","25,2","4,189","0,6","161,1","25,5","67,5"],
    [52278,"43995,91667","39,8","4,111","0,7","203,6","25","74,1"],
    [52279,"43995,95833","64","3,037","1,1","90,1","24,1","79,6"],
    [52280,"43996","48,9","4,294","0,3","73,1","23,3","83,8"],
    [52281,"43996,04167","41,5","2,88","0,9","251,9","22,4","86,2"],
    [52282,"43996,08333","35,7","2,356","0,9","272,3","22,1","86,1"],
    [52283,"43996,125","29,7","2,068","0,5","224,1","22,2","85,9"],
    [52284,"43996,16667","33,1","2,671","0,7","228,2","22,4","86,5"],
    [52285,"43996,20833","30,9","2,356","0,6","199,2","22,1","87,6"],
    [52286,"43996,25","29","3,221","0,5","185,6","21,8","89,1"],
    [52287,"43996,29167","34,7","4,373","0,8","179","22,1","88,5"],
    [52288,"43996,33333","43,6","5,394","0,5","181,9","23,1","84"],
    [52289,"43996,375","49,2","4,87","0,8","112,9","25,3","73,3"],
    [52290,"43996,41667","44,1","4,792","1,3","150,5","25,9","69,5"],
    [52291,"43996,45833","30,8","3,535","0,8","168,3","26,9","65,7"],
    [52292,"43996,5","25,8","4,739","1,3","144,6","27,7","61,9"],
    [52293,"43996,54167","27","6,31","1,5","90,8","28,5","59,9"],
    [52294,"43996,58333","52","6,52","2,6","110,8","29","57,2"],
    [52295,"43996,625","19,2","1,859","2,6","196,7","26","68,4"],
    [52296,"43996,66667","33,6","1,859","2,8","276,6","23,1","82,4"],
    [52297,"43996,70833","15,4","3,456","0,9","197,8","23,3","83,9"],
    [52298,"43996,75","35,4","3,954","1,2","218,9","23,6","85,3"],
    [52299,"43996,79167","46,9","3,927","1","249","23","85,2"],
    [52300,"43996,83333","35,3","3,273","1,3","270,3","22,5","86"],
    [52301,"43996,875","37,6","4,477","0,7","270,1","22,2","87,3"],
    [52302,"43996,91667","56,4","5,865","0,8","276,6","22,1","89"],
    [52303,"43996,95833","57,7","4,373","0,8","238,2","21,7","91,6"],
    [52304,"43997","43,7","2,252","1","270,3","21,2","92,1"],
    [52305,"43997,04167","31,6","1,597","0,8","272,3","20,9","91,9"],
    [52306,"43997,08333","31,1","1,1","0,9","263,1","20,5","92,7"],
    [52307,"43997,125","26,2","0,969","0,9","238,5","20,5","93,2"],
    [52308,"43997,16667","34,5","1,152","1,1","262,8","20,5","93,3"],
    [52309,"43997,20833","29,9","1,126","0,5","185,6","20,7","92,3"],
    [52310,"43997,25","35,8","1,466","0,7","223,1","20,6","93"],
    [52311,"43997,29167","41,2","3,613","0,7","209,1","20,6","92,2"],
    [52312,"43997,33333","48,9","4,189","0,7","159","21,3","91,7"],
    [52313,"43997,375","59","4,032","0,9","132,9","23,2","84,1"],
    [52314,"43997,41667","61,2","10,002","1","150,7","24,8","76,6"],
    [52315,"43997,45833","60,8","8,798","1","168,2","26","70,6"],
    [52316,"43997,5","48,1","6,991","1,1","164","27,4","65,3"],
    [52317,"43997,54167","43,2","6,755","0,8","151","28,6","60,3"],
    [52318,"43997,58333","39,5","7,096","0,9","93,7","29,3","56,7"],
    [52319,"43997,625","55,4","6,834","1,1","135,8","30","55,2"],
    [52320,"43997,66667","63,8","2,933","2,8","298,4","29,8","54,8"],
    [52321,"43997,70833","19,3","2,147","3,3","345,3","28,9","57,2"],
    [52322,"43997,75","8,3","1,728","3,2","334,9","27,8","60,6"],
    [52323,"43997,79167","18,9","4,661","2,9","322,9","26,7","62,5"],
    [52324,"43997,83333","33","3,404","2","291,9","26,4","62,2"],
    [52325,"43997,875","19,1","2,042","2","304,4","26,5","60,7"],
    [52326,"43997,91667","5,7","1,885","1,2","241,5","25,8","65,9"],
    [52327,"43997,95833","43,9","3,823","0,8","216","23,8","80,2"],
    [52328,"43998","47,7","2,723","0,7","286,3","23","83,5"],
    [52329,"43998,04167","45","2,147","0,9","260,7","22,8","84,8"],
    [52330,"43998,08333","40","1,676","0,8","283,7","22,3","87,6"],
    [52331,"43998,125","36,7","1,728","0,7","265,4","21,8","89,1"],
    [52332,"43998,16667","29,9","1,676","1","271,5","21,7","88"],
    [52333,"43998,20833","30,5","2,592","0,7","275,3","21,4","89,3"],
    [52334,"43998,25","33,6","2,775","0,6","223,4","20,7","90,6"],
    [52335,"43998,29167","49,1","7,541","0,7","281,2","20,8","89,5"],
    [52336,"43998,33333","63","5,315","0,6","256,2","22,5","82,7"],
    [52337,"43998,375","57,6","5,917","0,8","95,3","25,1","72,3"],
    [52338,"43998,41667","82,9","6,991","0,7","117,1","26,4","66,5"],
    [52339,"43998,45833","91,2","6,781","1","89,9","28","60,5"],
    [52340,"43998,5","64,2","5,394","1","104,9","28,9","57,3"],
    [52341,"43998,54167","65,2","6,127","1,1","98,4","29,6","55,5"],
    [52342,"43998,58333","54,2","6,284","1,6","205,8","29,1","56"],
    [52343,"43998,625","30,4","2,461","3,4","317,6","29,2","53,5"],
    [52344,"43998,66667","8,9","2,487","3,7","330,3","29,5","53,6"],
    [52345,"43998,70833","12","1,964","4,3","316,3","28,6","56,3"],
    [52346,"43998,75","15,2","2,226","4,8","334,1","27,2","59,7"],
    [52347,"43998,79167","12","1,807","5,4","329,2","26,3","61,6"],
    [52348,"43998,83333","15,3","2,016","5,3","323,5","25,8","63,1"],
    [52349,"43998,875","7,3","1,021","4,7","330,3","25,5","63,9"],
    [52350,"43998,91667","8,3","1,492","2,4","259,2","25,2","66,7"],
    [52351,"43998,95833","26","2,356","0,8","174","23,7","76"],
    [52352,"43999","31","1,807","0,7","246","22,8","80,7"],
    [52353,"43999,04167","28,6","2,487","0,8","272,8","22,3","83,8"],
    [52354,"43999,08333","31,8","1,807","0,8","224,3","22,3","83,7"],
    [52355,"43999,125","25,7","0,838","0,6","242,8","21,9","86,1"],
    [52356,"43999,16667","20,3","1,44","0,8","280","21,7","86,1"],
    [52357,"43999,20833","20,3","1,597","0,8","256,9","21,9","85,8"],
    [52358,"43999,25","28,2","2,435","0,7","249,8","21,9","87"],
    [52359,"43999,29167","37,2","5,21","0,6","246,8","21,8","88,2"],
    [52360,"43999,33333","64,6","6,284","0,5","183,3","22,2","86,7"],
    [52361,"43999,375","54","12,254","0,8","55,5","23,4","79,6"],
    [52362,"43999,41667","78,3","62,132","1,2","58,8","24","76,6"],
    [52363,"43999,45833","61,3","12,62","1,4","53,5","24,7","71,6"],
    [52364,"43999,5","30,4","14,532","0,7","83,5","25,5","68,8"],
    [52365,"43999,54167","31,2","11,782","1","137,6","26,3","65,8"],
    [52366,"43999,58333","28,4","9,819","1,4","88","27,7","59,5"],
    [52367,"43999,625","25,2","5,551","2,1","50,8","27,7","60,5"],
    [52368,"43999,66667","33,4","7,829","2,5","33,9","27,6","61,6"],
    [52369,"43999,70833","21,8","10,185","3","30,9","26,8","62,4"],
    [52370,"43999,75","23,8","9,531","2,2","37,5","25,9","68,9"],
    [52371,"43999,79167","36,8","10,473","1,1","202,8","25,1","71,8"],
    [52372,"43999,83333","42,8","6,991","1,1","244,4","24,7","73,2"],
    [52373,"43999,875","44,4","5,053","1","255,8","24,4","74,6"],
    [52374,"43999,91667","38","3,247","0,7","214,1","24,3","76,3"],
    [52375,"43999,95833","28,8","1,99","0,7","143,8","23,9","74,2"],
    [52376,"44000","8,3","1,257","0,5","143,9","23,3","73,6"],
    [52377,"44000,04167","19,6","1,519","0,7","210,3","22,5","82,6"],
    [52378,"44000,08333","20,9","3,168","0,8","92,5","22,2","81,3"],
    [52379,"44000,125","19,4","4,111","1,1","191,6","21,5","84,5"],
    [52380,"44000,16667","27,1","4,32","0,6","233,6","20,8","87,7"],
    [52381,"44000,20833","21","2,068","0,9","268,2","20,2","88,6"],
    [52382,"44000,25","19,9","4,189","0,8","276,8","19,8","89,5"],
    [52383,"44000,29167","30,9","3,823","0,9","277,5","19,8","89,4"],
    [52384,"44000,33333","40,3","16,443","0,7","217,8","22,4","78,8"],
    [52385,"44000,375","47","33,279","0,9","100,6","24,5","71"],
    [52386,"44000,41667","55,2","13,615","1","110,7","25,6","66,9"],
    [52387,"44000,45833","ND","8,064","0,9","119,9","26,8","60,8"],
    [52388,"44000,5","ND","5,341","1,4","154,6","27,4","58,9"],
    [52389,"44000,54167","ND","4,294","1,1","89,8","28,7","54,8"],
    [52390,"44000,58333","ND","4,896","1,1","60,4","29,6","53,2"],
    [52391,"44000,625","ND","4,661","1,8","50","29,2","55,3"],
    [52392,"44000,66667","ND","1,571","4,4","265,6","28,1","56,3"],
    [52393,"44000,70833","ND","1,074","3,9","339,4","27,2","60"],
    [52394,"44000,75","ND","0,995","4,4","324,4","26,4","62"],
    [52395,"44000,79167","ND","0,969","3,7","326,3","26,2","61,5"],
    [52396,"44000,83333","ND","1,152","3,1","333,5","25,7","62,6"],
    [52397,"44000,875","ND","1,335","0,9","213,3","25,2","66,7"],
    [52398,"44000,91667","ND","1,571","1","249,7","24,3","76"],
    [52399,"44000,95833","ND","0,969","0,8","252,6","23,5","82,3"],
    [52400,"44001","ND","0,733","0,6","190,5","22,6","89,8"],
    [52401,"44001,04167","ND","0,733","0,7","231,6","21,9","93,9"],
    [52402,"44001,08333","ND","0,655","0,8","259","21,7","95,4"],
    [52403,"44001,125","ND","0,55","0,6","168","21,4","95,2"],
    [52404,"44001,16667","ND","0,655","1,2","268,6","21","95,4"],
    [52405,"44001,20833","ND","0,602","0,6","279,5","20,9","94,6"],
    [52406,"44001,25","ND","0,89","0,9","276,2","20,8","94,8"],
    [52407,"44001,29167","ND","1,047","0,5","218,1","21","93,9"],
    [52408,"44001,33333","ND","1,1","0,7","107,5","22,7","86,2"],
    [52409,"44001,375","ND","1,728","0,6","143,2","23,8","78,7"],
    [52410,"44001,41667","ND","2,854","0,8","151,5","25,4","70,2"],
    [52411,"44001,45833","ND","2,959","0,6","167,3","26,5","66,2"],
    [52412,"44001,5","ND","2,54","0,9","169,7","27,7","60,7"],
    [52413,"44001,54167","ND","2,409","1,5","89,4","28","60,8"],
    [52414,"44001,58333","ND","1,911","1,2","96,8","29","58"],
    [52415,"44001,625","ND","1,833","2,3","76,8","29,7","53,9"],
    [52416,"44001,66667","ND","1,021","3,7","337,8","29,3","54,1"],
    [52417,"44001,70833","ND","0,995","4,6","315,3","27,6","60,1"],
    [52418,"44001,75","ND","0,916","4,4","327,9","26,6","61,7"],
    [52419,"44001,79167","ND","1,309","1,5","125,7","26,1","61,8"],
    [52420,"44001,83333","ND","1,44","1,2","133,9","24,8","71,1"],
    [52421,"44001,875","ND","1,597","0,8","123,4","22,3","88,3"],
    [52422,"44001,91667","ND","1,126","0,9","85,5","20,6","96,5"],
    [52423,"44001,95833","ND","0,628","0,6","152,9","20,7","98,4"],
    [52424,"44002","ND","0,759","0,7","101,7","20,9","98,2"],
    [52425,"44002,04167","ND","0,733","0,4","156,3","20,9","98,1"],
    [52426,"44002,08333","ND","0,576","0,2","97,6","21","97,9"],
    [52427,"44002,125","ND","0,628","0,4","213,5","20,9","98,1"],
    [52428,"44002,16667","ND","0,655","0,4","92,3","20,7","97,4"],
    [52429,"44002,20833","ND","0,55","0,4","97","20,6","96,8"],
    [52430,"44002,25","ND","0,655","0,9","182,8","20,4","97,1"],
    [52431,"44002,29167","ND","1,074","0,8","263,3","20,3","96,1"],
    [52432,"44002,33333","ND","0,628","0,6","153,5","21,9","87,9"],
    [52433,"44002,375","ND","0,759","0,5","84,8","23,9","78,5"],
    [52434,"44002,41667","ND","0,995","1,1","111,8","24,7","77,4"],
    [52435,"44002,45833","ND","0,969","0,9","117,7","25,9","70,6"],
    [52436,"44002,5","ND","1,545","0,9","148,2","27,4","63,8"],
    [52437,"44002,54167","ND","0,785","1","164,5","27,7","62,9"],
    [52438,"44002,58333","ND","0,655","1","113,2","28,8","59,2"],
    [52439,"44002,625","ND","1,126","0,9","72,8","28,8","59,7"],
    [52440,"44002,66667","ND","0,838","1,1","112,5","28,8","60,5"],
    [52441,"44002,70833","ND","1,021","2,3","229,1","27,4","60,3"],
    [52442,"44002,75","ND","1,021","3,1","318,9","27,1","59,1"],
    [52443,"44002,79167","ND","1,074","1,4","244,4","26,7","61,3"],
    [52444,"44002,83333","ND","1,074","1","260,4","25,7","67,7"],
    [52445,"44002,875","ND","1,126","0,9","295","24,6","74,4"],
    [52446,"44002,91667","ND","0,864","0,6","211","24,5","73,6"],
    [52447,"44002,95833","ND","0,916","0,6","222,2","23,9","76,6"],
    [52448,"44003","ND","0,628","0,8","265,7","23,4","79,5"],
    [52449,"44003,04167","ND","0,681","0,6","232,5","23,5","80,2"],
    [52450,"44003,08333","ND","0,759","0,9","264,4","23,1","82,8"],
    [52451,"44003,125","ND","0,524","0,5","156,6","23,5","80,6"],
    [52452,"44003,16667","ND","0,655","1,2","235,3","22,4","87,7"],
    [52453,"44003,20833","ND","0,55","0,5","221,4","22","90,8"],
    [52454,"44003,25","ND","0,864","0,6","207,3","21,7","92,4"],
    [52455,"44003,29167","ND","0,89","0,7","264,3","21,7","91"],
    [52456,"44003,33333","ND","0,602","0,7","217,2","22,7","85,7"],
    [52457,"44003,375","ND","1,126","0,6","174,9","24,5","77,6"],
    [52458,"44003,41667","ND","2,016","1,2","157,7","25,2","73,6"],
    [52459,"44003,45833","ND","2,487","0,8","101,8","26,1","70,7"],
    [52460,"44003,5","ND","2,487","1","113,9","26,8","68,9"],
    [52461,"44003,54167","ND","2,095","1,2","129,4","28","63,3"],
    [52462,"44003,58333","ND","1,257","0,8","129,8","29,1","58,5"],
    [52463,"44003,625","ND","1,152","0,9","111,8","29,8","56,3"],
    [52464,"44003,66667","ND","1,362","1","130,8","29,8","55,5"],
    [52465,"44003,70833","ND","1,152","2,7","265,1","28,9","55,4"],
    [52466,"44003,75","ND","0,995","3,2","338,2","28","58,7"],
    [52467,"44003,79167","ND","1,047","2,5","315,7","27","61,2"],
    [52468,"44003,83333","ND","1,571","0,6","201,9","26,4","64,6"],
    [52469,"44003,875","ND","2,435","0,7","230,5","25,9","66,4"],
    [52470,"44003,91667","ND","1,885","0,6","110,7","25,2","73,9"],
    [52471,"44003,95833","ND","1,152","1","243,1","24,2","78,8"],
    [52472,"44004","ND","1,074","0,7","135,2","24","78,5"],
    [52473,"44004,04167","ND","1,074","0,8","248","23,4","81,7"],
    [52474,"44004,08333","ND","0,785","0,7","222,5","23","83,1"],
    [52475,"44004,125","ND","0,864","0,4","197,5","22,9","84,1"],
    [52476,"44004,16667","ND","0,681","0,4","183,1","22,7","85,3"],
    [52477,"44004,20833","ND","0,89","0,5","43,8","22,7","86,3"],
    [52478,"44004,25","ND","0,759","0,6","211","22,4","88,1"],
    [52479,"44004,29167","ND","0,864","0,7","238,7","22,2","90,4"],
    [52480,"44004,33333","ND","0,838","0,4","73,7","23,8","82,8"],
    [52481,"44004,375","ND","1,309","0,8","144,1","25,1","74,6"],
    [52482,"44004,41667","ND","1,99","0,5","90,3","26,9","66,5"],
    [52483,"44004,45833","ND","2,383","1,1","93,6","27,7","61,8"],
    [52484,"44004,5","ND","3,063","1","126,1","28,3","60,6"],
    [52485,"44004,54167","ND","2,723","1,2","107,5","29,7","55"],
    [52486,"44004,58333","ND","1,964","1,7","97,2","30,6","52,7"],
    [52487,"44004,625","ND","1,519","2,1","199,2","29,6","55,2"],
    [52488,"44004,66667","ND","0,969","3,7","329,5","29,4","55,2"],
    [52489,"44004,70833","ND","1,021","4,3","343,2","28,6","56,9"],
    [52490,"44004,75","ND","0,707","4,3","337,8","27,1","61,7"],
    [52491,"44004,79167","ND","0,759","3,7","345,6","26,7","60,9"],
    [52492,"44004,83333","ND","0,759","3,2","332,8","26,9","59,3"],
    [52493,"44004,875","ND","0,89","1","219,7","26,8","60,2"],
    [52494,"44004,91667","ND","1,571","1,2","236,3","26,4","63,7"],
    [52495,"44004,95833","ND","1,257","1,3","209,6","25,1","73,8"],
    [52496,"44005","ND","0,943","0,9","141","25","74"],
    [52497,"44005,04167","ND","0,812","1,1","223,3","24","79,5"],
    [52498,"44005,08333","ND","0,707","0,7","150,1","23,6","82,1"],
    [52499,"44005,125","ND","0,733","0,8","128,8","23,6","81,3"],
    [52500,"44005,16667","ND","0,576","0,6","162,2","23,2","84,8"],
    [52501,"44005,20833","ND","0,681","0,9","161,4","22,8","87,3"],
    [52502,"44005,25","ND","0,785","0,8","182,8","22,5","88,4"],
    [52503,"44005,29167","ND","0,707","0,7","229,9","22,3","89,5"],
    [52504,"44005,33333","ND","1,1","0,8","154,1","23,1","85,5"],
    [52505,"44005,375","ND","1,178","0,6","133,5","23,9","81,3"],
    [52506,"44005,41667","ND","1,833","0,8","69","25,9","72,6"],
    [52507,"44005,45833","ND","2,435","1,1","86,7","27,2","66,8"],
    [52508,"44005,5","ND","2,199","1","124,3","28,3","61,7"],
    [52509,"44005,54167","ND","2,723","1,1","144,8","29,7","57"],
    [52510,"44005,58333","ND","2,435","1,1","89","29,6","57,4"],
    [52511,"44005,625","ND","1,597","2,4","334,1","29","54,9"],
    [52512,"44005,66667","ND","1,074","2,7","323,9","28,6","56"],
    [52513,"44005,70833","ND","0,864","4,2","327,4","27,9","57"],
    [52514,"44005,75","ND","0,785","5,1","334,5","26,6","61,3"],
    [52515,"44005,79167","ND","0,785","5,4","327,8","25,9","61,7"],
    [52516,"44005,83333","ND","0,759","4,8","326,4","26","59,8"],
    [52517,"44005,875","ND","0,89","2,4","264,3","25,8","63,1"],
    [52518,"44005,91667","ND","1,047","1,4","245,1","24,4","71,7"],
    [52519,"44005,95833","ND","1,047","0,8","243,4","23,7","73,8"],
    [52520,"44006","ND","0,759","1","269,2","22,4","79,8"],
    [52521,"44006,04167","ND","0,707","0,6","197,8","22,1","80,8"],
    [52522,"44006,08333","ND","0,812","0,5","154,6","22,2","79,4"],
    [52523,"44006,125","ND","0,681","0,6","189,8","22,2","79"],
    [52524,"44006,16667","ND","0,707","1","264,3","21,9","82,2"],
    [52525,"44006,20833","ND","1,021","0,8","258,3","21,7","84,1"],
    [52526,"44006,25","ND","0,995","0,9","276,5","21,4","84,5"],
    [52527,"44006,29167","ND","1,047","0,9","268,1","21,5","84,6"],
    [52528,"44006,33333","ND","1,571","0,6","256","23,9","74,3"],
    [52529,"44006,375","ND","3,325","1,1","144,1","25,5","69,2"],
    [52530,"44006,41667","ND","4,53","1,3","141,7","26","67,2"],
    [52531,"44006,45833","ND","3,378","1,1","198,9","26,5","65,6"],
    [52532,"44006,5","ND","2,802","0,9","186,4","28,2","59,1"],
    [52533,"44006,54167","ND","2,461","1,2","89,9","29,5","52,6"],
    [52534,"44006,58333","ND","3,221","1,8","126,1","30,4","50,8"],
    [52535,"44006,625","ND","2,514","4,2","219,3","29,4","52,8"],
    [52536,"44006,66667","ND","0,943","4,7","337,9","28,9","54,2"],
    [52537,"44006,70833","ND","0,864","4,3","327,1","28","55,3"],
    [52538,"44006,75","ND","0,864","4,2","330,6","26,8","58,4"],
    [52539,"44006,79167","ND","1,362","2","254,1","26,6","63,3"],
    [52540,"44006,83333","ND","1,65","0,9","56,2","26","65,8"],
    [52541,"44006,875","ND","1,283","1,4","156,5","24,4","75,8"],
    [52542,"44006,91667","ND","1,126","0,7","159,5","23,4","79,5"],
    [52543,"44006,95833","ND","0,995","0,8","278,6","22,7","82,4"],
    [52544,"44007","ND","0,943","0,8","274,9","22,5","82,3"],
    [52545,"44007,04167","ND","0,602","1","232,1","22,7","81,2"],
    [52546,"44007,08333","ND","0,655","0,4","133,7","22,1","84,2"],
    [52547,"44007,125","ND","0,602","0,7","133,3","22,2","83,9"],
    [52548,"44007,16667","ND","0,707","0,5","211,5","22,2","84,5"],
    [52549,"44007,20833","ND","0,576","0,8","271,8","21,6","87,2"],
    [52550,"44007,25","ND","0,864","0,8","268,8","21,6","85,4"],
    [52551,"44007,29167","ND","1,152","0,9","264,4","22","84,2"],
    [52552,"44007,33333","ND","1,204","0,7","163,2","22,8","81,7"],
    [52553,"44007,375","ND","ND","0,6","193","23,9","79"],
    [52554,"44007,41667","ND","ND","0,7","102,8","25,8","69"],
    [52555,"44007,45833","ND","ND","0,8","117,2","26,8","65,7"],
    [52556,"44007,5","ND","ND","1","99,6","28,1","60,5"],
    [52557,"44007,54167","ND","ND","1,6","65,8","29","57,7"],
    [52558,"44007,58333","ND","ND","0,9","56,6","29,4","55,9"],
    [52559,"44007,625","ND","ND","1,7","228","29,8","53,6"],
    [52560,"44007,66667","ND","ND","3,6","338,8","28,9","54,3"],
    [52561,"44007,70833","ND","ND","4,7","328,4","27,3","59,2"],
    [52562,"44007,75","ND","ND","5,4","335,3","26,3","62,3"],
    [52563,"44007,79167","ND","ND","4,6","336,7","25,9","62,6"],
    [52564,"44007,83333","ND","ND","3,5","314,7","26,1","60,9"],
    [52565,"44007,875","ND","ND","1,1","195,4","25,7","62,3"],
    [52566,"44007,91667","ND","ND","1","226,8","24,8","72,9"],
    [52567,"44007,95833","ND","ND","0,7","211,4","23,7","76,5"],
    [52568,"44008","ND","ND","0,9","272,8","22,6","79,8"],
    [52569,"44008,04167","ND","ND","0,7","234","22,9","80,8"],
    [52570,"44008,08333","ND","ND","0,7","250,7","22,6","82,7"],
    [52571,"44008,125","ND","ND","1","258,2","22,5","83,4"],
    [52572,"44008,16667","ND","ND","0,6","199,2","22,7","82,8"],
    [52573,"44008,20833","ND","ND","0,7","265,7","22,7","82,7"],
    [52574,"44008,25","ND","ND","1","275","22,4","83"],
    [52575,"44008,29167","ND","ND","0,7","210,2","22,4","84,8"],
    [52576,"44008,33333","ND","ND","0,5","212,3","23,1","83,2"],
    [52577,"44008,375","ND","ND","0,9","138,7","24,5","75,7"],
    [52578,"44008,41667","ND","ND","1","152,2","26,5","66,8"],
    [52579,"44008,45833","ND","ND","1,1","142,2","26,6","65,8"],
    [52580,"44008,5","ND","ND","0,6","172,7","27,9","61"],
    [52581,"44008,54167","ND","ND","1,3","138,1","29,2","55,8"],
    [52582,"44008,58333","ND","ND","1,8","60,5","29","57,5"],
    [52583,"44008,625","ND","ND","3,4","285,6","28,7","57,3"],
    [52584,"44008,66667","ND","ND","4,3","338,8","28,6","55,4"],
    [52585,"44008,70833","ND","ND","5,1","336","27,6","57,9"],
    [52586,"44008,75","ND","ND","4,6","326,1","26,8","58,6"],
    [52587,"44008,79167","ND","ND","4,9","343,9","25,5","62,5"],
    [52588,"44008,83333","ND","ND","4,7","327,3","24,9","63,9"],
    [52589,"44008,875","ND","ND","1,3","207,2","24,3","73,8"],
    [52590,"44008,91667","ND","ND","0,8","157,4","23,9","78,5"],
    [52591,"44008,95833","ND","ND","1","246,4","23,3","79,3"],
    [52592,"44009","ND","ND","0,8","245,6","22,8","82,1"],
    [52593,"44009,04167","ND","ND","0,8","244,9","22,6","83,2"],
    [52594,"44009,08333","ND","ND","0,9","208,8","22,5","82,9"],
    [52595,"44009,125","ND","ND","0,6","196,3","22,4","82,9"],
    [52596,"44009,16667","ND","ND","0,7","267,1","22,5","82,2"],
    [52597,"44009,20833","ND","ND","0,5","94,6","22,5","84,1"],
    [52598,"44009,25","ND","ND","1","121,2","22,2","86"],
    [52599,"44009,29167","ND","ND","1","233,2","21,4","92,5"],
    [52600,"44009,33333","ND","ND","0,7","159,3","21,9","91"],
    [52601,"44009,375","ND","ND","0,9","203,1","23,1","85,2"],
    [52602,"44009,41667","ND","ND","0,7","142,3","24,3","77,9"],
    [52603,"44009,45833","ND","ND","0,6","116,3","26","68,3"],
    [52604,"44009,5","ND","ND","1","85,7","27,5","62,1"],
    [52605,"44009,54167","ND","ND","1,1","114,6","28,4","57,6"],
    [52606,"44009,58333","ND","ND","1,1","76,2","29,2","55,1"],
    [52607,"44009,625","ND","ND","1,8","173,2","29,1","54,9"],
    [52608,"44009,66667","ND","ND","4,8","177,4","28","56,7"],
    [52609,"44009,70833","ND","ND","4,6","344,8","25,7","65,5"],
    [52610,"44009,75","ND","ND","4,8","345,1","25,6","64"],
    [52611,"44009,79167","ND","ND","3,2","320,8","25,3","62,5"],
    [52612,"44009,83333","ND","ND","0,4","132,2","24,9","65,4"],
    [52613,"44009,875","ND","ND","0,9","211,8","24,7","66,2"],
    [52614,"44009,91667","ND","ND","0,7","177,4","24,3","72"],
    [52615,"44009,95833","ND","ND","0,6","128,5","23,9","75,1"],
    [52616,"44010","ND","ND","1","157,7","22,9","82,5"],
    [52617,"44010,04167","ND","ND","0,8","268,2","21,6","91,9"],
    [52618,"44010,08333","ND","ND","0,7","248,8","21,6","93,3"],
    [52619,"44010,125","ND","ND","0,7","242,6","21,3","93,1"],
    [52620,"44010,16667","ND","ND","0,7","258,3","21","94,5"],
    [52621,"44010,20833","ND","ND","0,5","227,5","21","94"],
    [52622,"44010,25","ND","ND","0,6","214,9","21,1","93,4"],
    [52623,"44010,29167","ND","ND","0,5","204,7","21,2","92,6"],
    [52624,"44010,33333","ND","ND","0,5","172,9","21,7","87,7"],
    [52625,"44010,375","ND","ND","1","89,6","22,6","83,8"],
    [52626,"44010,41667","ND","ND","1,4","56,5","23,1","81,3"],
    [52627,"44010,45833","ND","ND","1,5","79,2","24","75,2"],
    [52628,"44010,5","ND","ND","1,2","79,9","25,8","65,7"],
    [52629,"44010,54167","ND","ND","1,2","90,4","26,1","64,7"],
    [52630,"44010,58333","ND","ND","1,2","108,7","26,8","62,1"],
    [52631,"44010,625","ND","ND","1,4","94,7","26,4","64"],
    [52632,"44010,66667","ND","ND","2","170,1","25,9","66,3"],
    [52633,"44010,70833","ND","ND","3,2","346,9","25,6","65,5"],
    [52634,"44010,75","ND","ND","3,1","284,7","25,1","65,9"],
    [52635,"44010,79167","ND","ND","2,8","343,2","24,7","65,9"],
    [52636,"44010,83333","ND","ND","0,8","235,6","23,9","71,2"],
    [52637,"44010,875","ND","ND","1","267,5","22,8","77,8"],
    [52638,"44010,91667","ND","ND","0,8","217,8","22,5","78,3"],
    [52639,"44010,95833","ND","ND","0,8","267,6","21,9","81,2"],
    [52640,"44011","ND","ND","0,8","278","21,7","82,5"],
    [52641,"44011,04167","ND","ND","1,3","283,4","21,3","84,6"],
    [52642,"44011,08333","ND","ND","1,5","275,5","21,2","84,3"],
    [52643,"44011,125","ND","ND","1,1","252","21,1","84"],
    [52644,"44011,16667","ND","ND","0,7","247,4","20,8","86"],
    [52645,"44011,20833","ND","ND","1,1","268,8","20,1","88,7"],
    [52646,"44011,25","ND","ND","0,9","269,7","19,5","90,3"],
    [52647,"44011,29167","ND","ND","0,8","271,4","19,8","88,8"],
    [52648,"44011,33333","ND","ND","0,6","146,6","22,1","80,8"],
    [52649,"44011,375","ND","ND","0,7","103,1","23,3","77,4"],
    [52650,"44011,41667","ND","ND","1","99,3","24,9","72,3"],
    [52651,"44011,45833","ND","ND","1,2","146,3","26","67,9"],
    [52652,"44011,5","ND","ND","1","136,7","27,7","60,4"],
    [52653,"44011,54167","ND","ND","1,3","102","29,4","54,7"],
    [52654,"44011,58333","ND","ND","1,4","80,5","30,3","51,7"],
    [52655,"44011,625","ND","ND","2,5","269,4","30,2","52,1"],
    [52656,"44011,66667","ND","ND","3,8","338,7","29,8","51,1"],
    [52657,"44011,70833","ND","ND","4,1","328,6","29","53,5"],
    [52658,"44011,75","ND","ND","4,9","326,4","27,6","57,9"],
    [52659,"44011,79167","ND","ND","4,5","322,6","26,5","62,2"],
    [52660,"44011,83333","ND","ND","2,9","297","26,5","61,8"],
    [52661,"44011,875","ND","ND","1,3","187,7","25,3","66,6"],
    [52662,"44011,91667","ND","ND","0,8","111,5","24,9","70,1"],
    [52663,"44011,95833","ND","ND","0,6","215,4","24,7","72,4"],
    [52664,"44012","ND","ND","0,9","211","23,8","77,1"],
    [52665,"44012,04167","ND","ND","1,1","265,4","21","93,9"],
    [52666,"44012,08333","ND","ND","0,9","235","21","93,9"],
    [52667,"44012,125","ND","ND","1","271","20,7","95,4"],
    [52668,"44012,16667","ND","ND","0,6","216,8","20,7","95,9"],
    [52669,"44012,20833","ND","ND","0,6","240,3","20,8","96,1"],
    [52670,"44012,25","ND","ND","0,9","273,3","20,8","95,3"],
    [52671,"44012,29167","ND","ND","0,6","266","21,1","93,8"],
    [52672,"44012,33333","ND","ND","0,6","262,9","21,7","90,8"],
    [52673,"44012,375","ND","ND","0,7","147,3","23,4","84,6"],
    [52674,"44012,41667","ND","ND","1,1","164,8","24","78,6"],
    [52675,"44012,45833","ND","ND","1","156,6","25,5","72,1"],
    [52676,"44012,5","ND","ND","1,1","154,4","27","63,2"],
    [52677,"44012,54167","ND","ND","0,8","150,6","27,9","59,8"],
    [52678,"44012,58333","ND","ND","1","103,3","29,2","54,2"],
    [52679,"44012,625","ND","ND","1,4","132,3","29,2","53,7"],
    [52680,"44012,66667","ND","ND","1,1","93,7","29","55,3"],
    [52681,"44012,70833","ND","ND","1,2","123,6","28,4","57,4"],
    [52682,"44012,75","ND","ND","2,7","322","27,8","58,5"],
    [52683,"44012,79167","ND","ND","3,6","330,6","26,3","61,8"],
    [52684,"44012,83333","ND","ND","2,6","333,7","25,9","62,4"],
    [52685,"44012,875","ND","ND","3,3","333","25,6","62,7"],
    [52686,"44012,91667","ND","ND","2,3","287,7","25,6","62,2"],
    [52687,"44012,95833","ND","ND","0,7","159,4","24,7","67,4"],
    [52688,"44013","ND","ND","0,5","193,7","23,4","79,3"],
    [52689,"44013,04167","ND","ND","0,7","226,1","22,4","83,5"],
    [52690,"44013,08333","ND","ND","0,6","248,1","22","85,3"],
    [52691,"44013,125","ND","ND","0,7","261","22,1","84,8"],
    [52692,"44013,16667","ND","ND","0,6","224,2","21,8","86,4"],
    [52693,"44013,20833","ND","ND","0,6","187,3","21,8","87,6"],
    [52694,"44013,25","ND","ND","0,5","218","21,7","87,9"],
    [52695,"44013,29167","ND","ND","0,6","192,3","21,8","89"],
    [52696,"44013,33333","ND","ND","0,5","226,8","22,5","84,6"],
    [52697,"44013,375","ND","ND","1,2","122,7","24","78"],
    [52698,"44013,41667","ND","ND","0,8","95","25","73,2"],
    [52699,"44013,45833","ND","ND","0,9","123,7","26,6","66,4"],
    [52700,"44013,5","ND","ND","0,8","79,1","27,7","61,4"],
    [52701,"44013,54167","ND","ND","1,7","79,8","28,5","58,8"],
    [52702,"44013,58333","ND","ND","2,9","232,4","28,6","55,3"],
    [52703,"44013,625","ND","ND","4,5","333,2","28,2","55,1"],
    [52704,"44013,66667","ND","ND","4,4","341,8","28,3","54,7"],
    [52705,"44013,70833","ND","ND","4,5","344,9","27,9","56,4"],
    [52706,"44013,75","ND","ND","3,3","331,1","25,8","62,4"],
    [52707,"44013,79167","ND","ND","1,7","216,8","25,1","67,1"],
    [52708,"44013,83333","ND","ND","1,1","138,7","24","75"],
    [52709,"44013,875","ND","ND","1,2","206,2","22,4","88,6"],
    [52710,"44013,91667","ND","ND","1,1","261,8","22,1","91,9"],
    [52711,"44013,95833","ND","ND","1,1","263,5","21,6","94"],
    [52712,"44014","ND","ND","0,8","210,8","21,3","93,3"],
    [52713,"44014,04167","ND","ND","0,9","217,1","21,5","92,5"],
    [52714,"44014,08333","ND","ND","0,4","144,7","21,7","94,2"],
    [52715,"44014,125","ND","ND","1","207","20,9","98"],
    [52716,"44014,16667","ND","ND","0,6","148,8","20,8","98"],
    [52717,"44014,20833","ND","ND","0,8","187,6","20,9","97,6"],
    [52718,"44014,25","ND","ND","0,8","68,5","21","97,8"],
    [52719,"44014,29167","ND","ND","1","148,9","20,8","97,1"],
    [52720,"44014,33333","ND","ND","0,6","186,8","21","95,5"],
    [52721,"44014,375","ND","ND","0,4","200,6","22,1","89"],
    [52722,"44014,41667","ND","ND","0,8","236,9","23,5","80,6"],
    [52723,"44014,45833","ND","ND","0,8","199,3","24,9","72,5"],
    [52724,"44014,5","ND","ND","0,9","152,6","26,3","64,7"],
    [52725,"44014,54167","ND","ND","1,1","126,1","27,1","62,9"],
    [52726,"44014,58333","ND","ND","1","72,2","27,6","61,4"],
    [52727,"44014,625","ND","ND","1,3","195,5","27,5","61,2"],
    [52728,"44014,66667","ND","ND","2,8","346,5","26,8","62,8"],
    [52729,"44014,70833","ND","ND","3,1","343,7","27,3","60,5"],
    [52730,"44014,75","ND","ND","4,1","346,6","25,8","64,2"],
    [52731,"44014,79167","ND","ND","3,4","328","25,4","63,5"],
    [52732,"44014,83333","ND","ND","2,5","309,5","25,2","63,5"],
    [52733,"44014,875","ND","ND","1,3","240,6","24,5","68,7"],
    [52734,"44014,91667","ND","ND","1,3","276,8","23,9","72,2"],
    [52735,"44014,95833","ND","ND","0,6","255,4","23,5","76,3"],
    [52736,"44015","ND","ND","0,7","197,4","23,4","78,3"],
    [52737,"44015,04167","ND","ND","0,8","268,2","22,8","80,9"],
    [52738,"44015,08333","ND","ND","0,5","197,8","22,6","84,4"],
    [52739,"44015,125","ND","ND","0,9","152","22,4","85,7"],
    [52740,"44015,16667","ND","ND","0,8","215,8","21,2","91,3"],
    [52741,"44015,20833","ND","ND","0,3","196,2","20,8","96,9"],
    [52742,"44015,25","ND","ND","0,5","216,8","21","97,6"],
    [52743,"44015,29167","ND","ND","0,6","213,6","21,1","98"],
    [52744,"44015,33333","ND","ND","0,6","174,7","21,5","95,4"],
    [52745,"44015,375","ND","ND","0,4","106","22,6","87,2"],
    [52746,"44015,41667","ND","ND","0,8","159,8","24,5","77,7"],
    [52747,"44015,45833","ND","ND","0,6","157,6","26,3","68"],
    [52748,"44015,5","ND","ND","0,9","174","26,7","64,1"],
    [52749,"44015,54167","ND","ND","0,9","211,3","27,4","62,2"],
    [52750,"44015,58333","ND","ND","1","164,4","28,6","57,9"],
    [52751,"44015,625","ND","ND","1,7","186,1","27","66,2"],
    [52752,"44015,66667","ND","ND","4,1","340,6","26,5","63,8"],
    [52753,"44015,70833","ND","ND","4,1","343,2","25,3","66,5"],
    [52754,"44015,75","ND","ND","4,3","338,1","25","65,4"],
    [52755,"44015,79167","ND","ND","0,7","224,8","24,6","68"],
    [52756,"44015,83333","ND","ND","0,5","250,9","23,6","74,4"],
    [52757,"44015,875","ND","ND","1","282,5","22,9","78,9"],
    [52758,"44015,91667","ND","ND","0,5","186,1","22,8","78,3"],
    [52759,"44015,95833","ND","ND","0,7","236,5","22,3","82,5"],
    [52760,"44016","ND","ND","0,7","284,4","21,9","85,8"],
    [52761,"44016,04167","ND","ND","0,7","220,8","21,8","86,8"],
    [52762,"44016,08333","ND","ND","0,5","190,9","21,8","86,9"],
    [52763,"44016,125","ND","ND","0,7","198,9","21,8","87"],
    [52764,"44016,16667","ND","ND","1,2","74,6","21,5","90,1"],
    [52765,"44016,20833","ND","ND","1,2","56,6","20,7","96,3"],
    [52766,"44016,25","ND","ND","0,5","119,4","20,1","98,7"],
    [52767,"44016,29167","ND","ND","0,6","66,5","20,2","99"],
    [52768,"44016,33333","ND","ND","0,4","154,4","20,1","98,6"],
    [52769,"44016,375","ND","ND","0,5","131,7","20,2","96,7"],
    [52770,"44016,41667","ND","ND","0,4","199,1","21,1","94"],
    [52771,"44016,45833","ND","ND","1,1","134,8","22,4","89,4"],
    [52772,"44016,5","ND","ND","0,9","131,2","23","85,8"],
    [52773,"44016,54167","ND","ND","0,6","148,5","24,5","77,9"],
    [52774,"44016,58333","ND","ND","0,6","174,6","26,2","68,8"],
    [52775,"44016,625","ND","ND","0,8","179,8","27,2","63,8"],
    [52776,"44016,66667","ND","ND","0,7","110,2","27,8","60,1"],
    [52777,"44016,70833","ND","ND","2,5","305,6","27","58,8"],
    [52778,"44016,75","ND","ND","1,7","268,7","26,3","64,2"],
    [52779,"44016,79167","ND","ND","2,6","341,3","24,8","67,2"],
    [52780,"44016,83333","ND","ND","2,4","312,1","24","71,4"],
    [52781,"44016,875","ND","ND","1,7","154,5","23,8","72"],
    [52782,"44016,91667","ND","ND","1,4","62,8","21,4","92,8"],
    [52783,"44016,95833","ND","ND","0,5","135,2","20,9","95"],
    [52784,"44017","ND","ND","0,7","242,2","20,9","96,2"],
    [52785,"44017,04167","ND","ND","1,1","214","20,8","97,1"],
    [52786,"44017,08333","ND","ND","0,8","178,4","20,5","95,9"],
    [52787,"44017,125","ND","ND","0,4","144,7","20,4","94,8"],
    [52788,"44017,16667","ND","ND","0,8","231,8","20,3","96,4"],
    [52789,"44017,20833","ND","ND","0,5","252,6","20,4","96,8"],
    [52790,"44017,25","ND","ND","0,6","175","20,4","96,2"],
    [52791,"44017,29167","ND","ND","0,4","178,6","20,7","93,5"],
    [52792,"44017,33333","ND","ND","0,5","65,8","20,9","94"],
    [52793,"44017,375","ND","ND","0,5","156,8","21,6","90,1"],
    [52794,"44017,41667","ND","ND","0,5","99,4","22,5","84,6"],
    [52795,"44017,45833","ND","ND","0,8","77,5","23,7","79,3"],
    [52796,"44017,5","ND","ND","0,7","107,3","24,3","75,4"],
    [52797,"44017,54167","ND","ND","0,9","188,4","25,8","67,3"],
    [52798,"44017,58333","ND","ND","1,2","152,7","27,1","63,1"],
    [52799,"44017,625","ND","ND","1","117,5","27,4","60,4"],
    [52800,"44017,66667","ND","ND","1,2","68,8","27,5","59,8"],
    [52801,"44017,70833","ND","ND","1,8","155,2","23,3","87,3"],
    [52802,"44017,75","ND","ND","0,9","233,4","22,7","90,8"],
    [52803,"44017,79167","ND","ND","1,2","257,1","22,4","91,9"],
    [52804,"44017,83333","ND","ND","1,9","269,4","21,7","87,7"],
    [52805,"44017,875","ND","ND","1,5","265,7","21,5","86,1"],
    [52806,"44017,91667","ND","ND","1,3","261,8","21,3","85,1"],
    [52807,"44017,95833","ND","ND","1,4","273,3","20,8","86,8"],
    [52808,"44018","ND","ND","0,5","204,3","20,8","87"],
    [52809,"44018,04167","ND","ND","0,5","257,3","20","91,3"],
    [52810,"44018,08333","ND","ND","1,1","272,7","19,6","92,5"],
    [52811,"44018,125","ND","ND","0,8","234,3","19,8","90,2"],
    [52812,"44018,16667","ND","ND","0,8","270,8","19,9","91,2"],
    [52813,"44018,20833","ND","ND","0,7","252,8","19,9","91,9"],
    [52814,"44018,25","ND","ND","0,6","223","20,2","90,9"],
    [52815,"44018,29167","ND","ND","0,3","111,1","20,3","92,5"],
    [52816,"44018,33333","ND","ND","0,7","224,4","20,8","91,7"],
    [52817,"44018,375","ND","ND","0,5","158,6","22,4","81,5"],
    [52818,"44018,41667","ND","ND","0,7","161,2","24,2","76,2"],
    [52819,"44018,45833","ND","ND","1","50,9","25,3","73,4"],
    [52820,"44018,5","ND","ND","1","101,2","26,7","66,2"],
    [52821,"44018,54167","ND","ND","0,9","130,6","28","60,6"],
    [52822,"44018,58333","ND","ND","1,5","114,8","28,5","59,2"],
    [52823,"44018,625","ND","ND","1,1","158,1","28,6","58,2"],
    [52824,"44018,66667","ND","ND","3,4","157","28","57,1"],
    [52825,"44018,70833","ND","ND","4,1","330,2","26,8","62,4"],
    [52826,"44018,75","ND","ND","4","329","26,3","63,8"],
    [52827,"44018,79167","ND","ND","3,9","326,2","25,7","65,7"],
    [52828,"44018,83333","ND","ND","3","278,1","25,5","66,6"],
    [52829,"44018,875","ND","ND","1","151,5","24,6","71,9"],
    [52830,"44018,91667","ND","ND","0,8","103,1","22,8","77,1"],
    [52831,"44018,95833","ND","ND","0,7","93","22","80,5"],
    [52832,"44019","ND","ND","0,7","184,3","21,7","82,6"],
    [52833,"44019,04167","ND","ND","0,6","276,2","21","88,4"],
    [52834,"44019,08333","ND","ND","0,7","277","20,5","90,1"],
    [52835,"44019,125","ND","ND","0,7","248,1","20,6","89,2"],
    [52836,"44019,16667","ND","ND","0,5","207,2","20,8","88,6"],
    [52837,"44019,20833","ND","ND","0,5","256,1","20,7","90,2"],
    [52838,"44019,25","ND","ND","0,3","196,9","21","89,5"],
    [52839,"44019,29167","ND","ND","0,6","160,8","21,2","88,4"],
    [52840,"44019,33333","ND","ND","0,8","238","22,4","82"],
    [52841,"44019,375","ND","ND","0,8","171,1","23,4","76,6"],
    [52842,"44019,41667","ND","ND","0,6","172","24,7","70,2"],
    [52843,"44019,45833","ND","ND","0,9","144,6","25,7","67,9"],
    [52844,"44019,5","ND","ND","1,1","211","26,9","62,3"],
    [52845,"44019,54167","ND","ND","1","136,3","27,9","58"],
    [52846,"44019,58333","ND","ND","1,2","91,1","28,5","56,4"],
    [52847,"44019,625","ND","ND","1,7","92,8","28,2","59,2"],
    [52848,"44019,66667","ND","ND","4,3","307,9","27","59,6"],
    [52849,"44019,70833","ND","ND","4,4","252,1","27,3","56"],
    [52850,"44019,75","ND","ND","3,1","236,4","24,6","65"],
    [52851,"44019,79167","ND","ND","1,2","216,7","23","73"],
    [52852,"44019,83333","ND","ND","1","153,1","22,4","74,8"],
    [52853,"44019,875","ND","ND","0,9","69,3","22","77,3"],
    [52854,"44019,91667","ND","ND","0,5","80,9","21,2","83,9"],
    [52855,"44019,95833","ND","ND","0,6","260,3","21","87,3"],
    [52856,"44020","ND","ND","0,6","239,6","20,7","89,5"],
    [52857,"44020,04167","ND","ND","0,7","263,2","20,6","88,4"],
    [52858,"44020,08333","ND","ND","0,9","268,5","20,4","89,2"],
    [52859,"44020,125","ND","ND","0,9","272,5","19,7","91"],
    [52860,"44020,16667","ND","ND","1,2","268,8","19,4","89,1"],
    [52861,"44020,20833","ND","ND","1","267,8","19,3","88,4"],
    [52862,"44020,25","ND","ND","0,7","282,5","19,3","88,6"],
    [52863,"44020,29167","ND","ND","0,4","207,2","19,7","88,5"],
    [52864,"44020,33333","ND","ND","0,7","261,5","21","85,3"],
    [52865,"44020,375","ND","ND","0,6","179,6","22,3","81,9"],
    [52866,"44020,41667","ND","ND","0,6","192,2","23,2","79,7"],
    [52867,"44020,45833","ND","ND","1","193,3","24,9","70,9"],
    [52868,"44020,5","ND","ND","0,9","190,1","26,1","64,7"],
    [52869,"44020,54167","ND","ND","1,1","145,4","27,7","57,7"],
    [52870,"44020,58333","ND","ND","1,2","133,3","28,6","55,7"],
    [52871,"44020,625","ND","ND","0,7","100,8","28,3","56,4"],
    [52872,"44020,66667","ND","ND","1,2","132","28","58,1"],
    [52873,"44020,70833","ND","ND","1,9","271,5","27,5","59,1"],
    [52874,"44020,75","ND","ND","2,6","327,9","26,6","60,2"],
    [52875,"44020,79167","ND","ND","3,1","336,7","25,8","61,9"],
    [52876,"44020,83333","ND","ND","1,7","282,4","25,1","66,6"],
    [52877,"44020,875","ND","ND","1,4","271,6","24,7","66,7"],
    [52878,"44020,91667","ND","ND","0,9","229,5","23,4","73,2"],
    [52879,"44020,95833","ND","ND","0,7","188,5","22,5","78,2"],
    [52880,"44021","ND","ND","0,6","215,3","21,9","81,5"],
    [52881,"44021,04167","ND","ND","0,9","262,4","21,3","84,4"],
    [52882,"44021,08333","ND","ND","0,9","235,7","21,2","83,7"],
    [52883,"44021,125","ND","ND","0,4","212,8","21,4","83,6"],
    [52884,"44021,16667","ND","ND","0,8","238,6","21,4","84,8"],
    [52885,"44021,20833","ND","ND","0,5","181,1","21,6","84"],
    [52886,"44021,25","ND","ND","0,7","226","21,8","84,5"],
    [52887,"44021,29167","ND","ND","0,4","48,5","21,9","84,8"],
    [52888,"44021,33333","ND","ND","0,6","99,3","22,2","84,1"],
    [52889,"44021,375","ND","ND","0,7","178,5","23,3","78,9"],
    [52890,"44021,41667","ND","ND","0,8","202,7","24,2","75,2"],
    [52891,"44021,45833","ND","ND","0,8","150,5","24,9","71,2"],
    [52892,"44021,5","ND","ND","1","221,6","25,7","68,1"],
    [52893,"44021,54167","ND","ND","0,9","121,9","27,4","60,9"],
    [52894,"44021,58333","ND","ND","1,1","198,6","28,3","57,2"],
    [52895,"44021,625","ND","2,828","1,1","189,3","29,6","53,6"],
    [52896,"44021,66667","ND","2,435","1,4","156,7","30","53,4"],
    [52897,"44021,70833","ND","2,278","0,9","162,3","30","53,7"],
    [52898,"44021,75","ND","1,859","2,6","304,3","28,3","59,8"],
    [52899,"44021,79167","ND","1,859","3,2","342,4","26,9","63"],
    [52900,"44021,83333","ND","1,414","4,2","329,2","26,2","63,9"],
    [52901,"44021,875","ND","1,362","4,4","333,8","25,9","64,3"],
    [52902,"44021,91667","ND","1,257","3,4","312,6","25,8","64,1"],
    [52903,"44021,95833","ND","1,362","0,8","225,6","24,7","74"],
    [52904,"44022","ND","1,178","0,6","202,2","23,9","77,8"],
    [52905,"44022,04167","ND","1,178","0,6","272,8","23","82"],
    [52906,"44022,08333","ND","1,074","0,7","249,1","22,8","82,4"],
    [52907,"44022,125","ND","0,838","0,7","243,9","22,8","83,9"],
    [52908,"44022,16667","ND","0,838","1,3","247,7","21,4","92,8"],
    [52909,"44022,20833","ND","0,969","0,6","260,7","21,3","96,4"],
    [52910,"44022,25","ND","1,362","0,8","229,4","21,2","95,8"],
    [52911,"44022,29167","ND","1,676","0,5","177,1","21,5","95,4"],
    [52912,"44022,33333","ND","1,676","0,7","198","22","92"],
    [52913,"44022,375","ND","1,964","1,3","68,3","22","91,6"],
    [52914,"44022,41667","ND","2,121","0,5","82,4","22","95,2"],
    [52915,"44022,45833","ND","1,623","0,6","111,1","23,2","90"],
    [52916,"44022,5","ND","1,492","0,5","62,9","24,8","81,9"],
    [52917,"44022,54167","ND","2,252","1,7","35,7","26","75"],
    [52918,"44022,58333","ND","4,87","1,7","40,9","26,3","69,9"],
    [52919,"44022,625","ND","3,063","3,2","222,2","26,6","62,1"],
    [52920,"44022,66667","ND","1,623","4,8","347,6","23,2","73,7"],
    [52921,"44022,70833","ND","1,44","5","344,7","22,9","73,1"],
    [52922,"44022,75","ND","1,362","3,6","312,6","24,1","66,1"],
    [52923,"44022,79167","ND","1,571","1,3","224,5","23,1","76,5"],
    [52924,"44022,83333","ND","1,492","1","238,1","21,7","86,3"],
    [52925,"44022,875","ND","1,728","0,5","136,5","21,5","87,4"],
    [52926,"44022,91667","ND","1,597","0,3","149,9","21,4","89,2"],
    [52927,"44022,95833","ND","1,466","0,6","270,9","21","90"],
    [52928,"44023","ND","1,362","0,5","204,1","20,8","90,5"],
    [52929,"44023,04167","ND","1,44","0,5","74,7","20,8","91,5"],
    [52930,"44023,08333","ND","1,257","0,4","66","20,6","92,3"],
    [52931,"44023,125","ND","1,335","0,7","113,5","20,2","93,9"],
    [52932,"44023,16667","ND","1,178","0,4","149,3","20,1","95,2"],
    [52933,"44023,20833","ND","1,335","0,2","51,7","20,1","95,5"],
    [52934,"44023,25","ND","1,833","0,5","183,7","20,3","94"],
    [52935,"44023,29167","ND","1,807","0,5","102,7","20,4","93,9"],
    [52936,"44023,33333","ND","2,461","0,4","159,6","20,8","91,5"],
    [52937,"44023,375","ND","10,395","0,7","169","22,6","81,6"],
    [52938,"44023,41667","ND","9,086","0,7","163,1","23,9","74,7"],
    [52939,"44023,45833","ND","6,52","0,9","98,1","25,2","68"],
    [52940,"44023,5","ND","4,818","1","68,5","26","65,3"],
    [52941,"44023,54167","ND","4,032","1,1","252,9","26,6","61,5"],
    [52942,"44023,58333","ND","3,116","1","174,1","27,3","58,9"],
    [52943,"44023,625","ND","3,535","0,8","112,4","27,9","57,6"],
    [52944,"44023,66667","ND","3,954","1,1","109,7","28","56,6"],
    [52945,"44023,70833","ND","2,121","3,6","334,8","25,1","67,5"],
    [52946,"44023,75","ND","1,964","4","289,3","20,7","86,8"],
    [52947,"44023,79167","ND","1,597","2,5","253,1","19,9","90,9"],
    [52948,"44023,83333","ND","1,571","2,7","288,5","22,3","78,2"],
    [52949,"44023,875","ND","1,623","1,7","220,7","22,9","73,2"],
    [52950,"44023,91667","ND","1,885","0,9","217,6","21,2","84,7"],
    [52951,"44023,95833","ND","1,466","1,2","269,5","20,2","89,4"],
    [52952,"44024","ND","1,335","1","268,1","19,8","89,8"],
    [52953,"44024,04167","ND","1,231","1,2","269,9","19,4","91,5"],
    [52954,"44024,08333","ND","1,047","0,8","269,2","19,1","92,3"],
    [52955,"44024,125","ND","0,969","1,1","273,3","18,8","94,5"],
    [52956,"44024,16667","ND","1,074","0,6","212,1","18,8","95,1"],
    [52957,"44024,20833","ND","0,943","0,8","205,4","19,1","95,2"],
    [52958,"44024,25","ND","1,074","0,9","241","19,3","95,6"],
    [52959,"44024,29167","ND","1,309","0,5","139,6","19,4","94,9"],
    [52960,"44024,33333","ND","1,335","0,9","272,3","20,1","93,1"],
    [52961,"44024,375","ND","1,309","0,4","127,9","22","83,2"],
    [52962,"44024,41667","ND","1,65","0,6","127,8","23,5","76,3"],
    [52963,"44024,45833","ND","3,456","0,9","121,3","25,3","68,2"],
    [52964,"44024,5","ND","2,775","0,8","131,5","26,5","65"],
    [52965,"44024,54167","ND","3,063","0,8","132,2","27,7","60,1"],
    [52966,"44024,58333","ND","3,168","1","164","28,8","52,8"],
    [52967,"44024,625","ND","4,451","1,2","161,5","29,4","50,6"],
    [52968,"44024,66667","ND","4,477","1,7","112,3","29,7","51,3"],
    [52969,"44024,70833","ND","1,807","4,2","273,5","27,3","56,3"],
    [52970,"44024,75","ND","1,545","3,5","228,2","26,6","55,9"],
    [52971,"44024,79167","ND","1,204","3,7","342","25,6","60,5"],
    [52972,"44024,83333","ND","1,65","2,1","303,4","25,2","62"],
    [52973,"44024,875","ND","1,885","1,3","248","23,8","70,1"],
    [52974,"44024,91667","ND","1,65","0,6","236","23,3","72,3"],
    [52975,"44024,95833","ND","1,859","0,7","227,1","22,3","78,6"],
    [52976,"44025","ND","1,283","1,1","275,9","21,8","81,5"],
    [52977,"44025,04167","ND","1,309","1,3","274,2","21,3","83,8"],
    [52978,"44025,08333","ND","1,1","0,8","279,6","21,1","84"],
    [52979,"44025,125","ND","0,969","1,3","271","20,7","85"],
    [52980,"44025,16667","ND","0,995","0,8","278,3","20,6","85,8"],
    [52981,"44025,20833","ND","1,466","0,8","182,7","20,7","87,2"],
    [52982,"44025,25","ND","1,231","0,7","204,8","20,6","88,3"],
    [52983,"44025,29167","ND","1,466","1","269,7","20,5","88,8"],
    [52984,"44025,33333","ND","1,911","0,7","172","21,7","83,6"],
    [52985,"44025,375","ND","2,383","0,7","174","23,6","76,8"],
    [52986,"44025,41667","ND","4,765","1,1","137,7","25,3","68,5"],
    [52987,"44025,45833","ND","6,232","0,7","136","26,3","63,9"],
    [52988,"44025,5","ND","5,577","0,9","146,5","27,5","58,9"],
    [52989,"44025,54167","ND","4,294","1,1","187,3","29","53"],
    [52990,"44025,58333","ND","3,168","0,9","142,4","30,1","49,1"],
    [52991,"44025,625","ND","2,644","1,4","83,9","30,6","47,2"],
    [52992,"44025,66667","ND","2,147","3,5","274,7","29,8","52,5"],
    [52993,"44025,70833","ND","1,44","3,7","343,3","29","54,4"],
    [52994,"44025,75","ND","1,388","3,8","334","27,8","58,3"],
    [52995,"44025,79167","ND","1,283","4,5","330,9","26,6","62"],
    [52996,"44025,83333","ND","1,44","3,1","285,9","26,5","62,2"],
    [52997,"44025,875","ND","1,807","0,8","196,3","26,2","64,5"],
    [52998,"44025,91667","ND","1,885","0,5","150,4","25,1","72"],
    [52999,"44025,95833","ND","1,571","0,6","152,6","24,7","73,7"],
    [53000,"44026","ND","1,283","0,7","207,7","23,7","78,2"],
    [53001,"44026,04167","ND","1,126","0,4","127,3","23,3","80,9"],
    [53002,"44026,08333","ND","1,178","0,8","153,2","23,2","80,6"],
    [53003,"44026,125","ND","1,257","0,7","203,9","22,9","80,3"],
    [53004,"44026,16667","ND","1,1","0,6","189","22,6","83,4"],
    [53005,"44026,20833","ND","1,126","0,5","232,8","22,1","86,6"],
    [53006,"44026,25","ND","1,492","0,5","235,2","22","86,9"],
    [53007,"44026,29167","57,3","1,623","0,5","175,3","22,1","86,8"],
    [53008,"44026,33333","59,5","1,78","1,2","212,3","22,7","84,1"],
    [53009,"44026,375","58,6","1,466","0,8","128,4","23,7","78,7"],
    [53010,"44026,41667","38,3","2,095","1,1","100,8","24,8","75,1"],
    [53011,"44026,45833","50,6","2,121","1,5","120,1","25,8","69,4"],
    [53012,"44026,5","50,7","6,677","1","152,9","27,4","61,5"],
    [53013,"44026,54167","49,8","2,383","1,2","139,5","28,3","57,1"],
    [53014,"44026,58333","40,9","2,461","1,1","198,3","29,6","52"],
    [53015,"44026,625","44,4","2,016","1,1","118,8","30,6","47,7"],
    [53016,"44026,66667","38","1,65","2,2","316,5","30,7","45,9"],
    [53017,"44026,70833","35,2","1,283","4,5","298,5","29,4","50,6"],
    [53018,"44026,75","16,3","1,362","4,5","324,2","28,2","52,7"],
    [53019,"44026,79167","12,8","1,283","4,9","331,7","26,5","57,6"],
    [53020,"44026,83333","16,9","1,074","4,9","319,5","26,1","58,6"],
    [53021,"44026,875","15,3","1,231","3,7","323,2","26","58,6"],
    [53022,"44026,91667","14,4","1,571","0,8","140,5","25,4","61"],
    [53023,"44026,95833","22,8","1,335","0,6","218,9","24,6","65,2"],
    [53024,"44027","24,7","1,362","0,9","201,4","23,1","77,3"],
    [53025,"44027,04167","50,7","1,283","1","236,5","22,1","82,2"],
    [53026,"44027,08333","41,7","1,074","1,2","267,7","21,2","83,8"],
    [53027,"44027,125","21,4","1,021","0,7","254,3","21,2","84"],
    [53028,"44027,16667","27,1","0,995","0,6","172,9","21,6","83,1"],
    [53029,"44027,20833","24,8","1,047","0,8","254,8","21,6","83,6"],
    [53030,"44027,25","29,9","1,388","0,8","272,9","21,3","84,9"],
    [53031,"44027,29167","47,1","1,44","1","265,9","20,7","87,3"],
    [53032,"44027,33333","49,6","1,519","0,6","206,6","23,1","76,8"],
    [53033,"44027,375","43","2,461","0,8","145,9","25,1","67,5"],
    [53034,"44027,41667","47,6","3,666","0,9","121,7","26,3","63,8"],
    [53035,"44027,45833","41,4","5,813","1,3","146,9","27,7","60,2"],
    [53036,"44027,5","45,3","5,08","0,9","103,8","28,1","58,3"],
    [53037,"44027,54167","49","4,006","1,1","83,8","29,5","52,5"],
    [53038,"44027,58333","55,2","4,137","1,3","91,3","30,5","50,1"],
    [53039,"44027,625","60","3,954","1,3","98,4","30,5","49,9"],
    [53040,"44027,66667","54,4","1,702","3,6","277,3","28,6","54,8"],
    [53041,"44027,70833","18,3","1,597","3,7","317,7","28,3","56,2"],
    [53042,"44027,75","23","1,466","3,4","334,8","27,9","57,9"],
    [53043,"44027,79167","19,5","1,466","3,1","340,3","27,2","59,5"],
    [53044,"44027,83333","26,3","1,833","0,6","171,4","27","61,6"],
    [53045,"44027,875","42","1,623","1,2","203,6","26,2","64,2"],
    [53046,"44027,91667","28,9","1,362","2,8","47,9","25,5","66,6"],
    [53047,"44027,95833","13,1","1,231","1,7","43,8","24,9","68,3"],
    [53048,"44028","10,7","1,231","1,2","242,7","23,9","72,4"],
    [53049,"44028,04167","28,9","1,126","0,9","256,3","23,2","76,2"],
    [53050,"44028,08333","25,8","1,047","0,8","258,7","22,8","77,6"],
    [53051,"44028,125","27,1","1,047","1","190,1","22,8","76,7"],
    [53052,"44028,16667","30,6","1,388","1,1","170,4","22,7","77,2"],
    [53053,"44028,20833","47,6","1,44","0,9","245,6","22,1","79,9"],
    [53054,"44028,25","46,3","1,204","1","239,3","21,1","82,8"],
    [53055,"44028,29167","38,8","1,466","1","238,8","20,6","81,8"],
    [53056,"44028,33333","40,7","1,938","0,5","114,8","22,3","76,7"],
    [53057,"44028,375","69,8","2,016","0,9","78,5","24,6","68,9"],
    [53058,"44028,41667","77,9","2,514","0,7","94,7","25,5","63,8"],
    [53059,"44028,45833","45,6","2,828","1","192,4","27","56,1"],
    [53060,"44028,5","33,5","2,775","1,1","108,4","28,3","51,9"],
    [53061,"44028,54167","38,3","2,278","1,1","98,8","29,4","48,7"],
    [53062,"44028,58333","37,5","2,487","1","108,7","30,8","43"],
    [53063,"44028,625","31,5","2,383","1,4","129","31","41,5"],
    [53064,"44028,66667","36,8","1,78","3,5","307,3","30,2","48,2"],
    [53065,"44028,70833","39,4","1,309","3,7","331,3","29,3","51,1"],
    [53066,"44028,75","18,3","1,152","3,5","336,7","28,2","54,2"],
    [53067,"44028,79167","22,7","1,178","4,9","328,7","26,5","60"],
    [53068,"44028,83333","17,5","1,152","4,1","317,4","26,2","59,1"],
    [53069,"44028,875","10,7","1,335","1,1","235,6","25,8","59,9"],
    [53070,"44028,91667","31,6","1,466","0,8","191,1","24,9","65,5"],
    [53071,"44028,95833","45,9","1,178","0,8","190,5","23,5","73,1"],
    [53072,"44029","41,2","1,178","1,1","270","22,5","76,8"],
    [53073,"44029,04167","28,6","1,021","0,6","285,5","22","79,2"],
    [53074,"44029,08333","29,3","0,969","0,9","275,7","21,7","79,7"],
    [53075,"44029,125","24","0,838","0,8","266,1","21,9","79,4"],
    [53076,"44029,16667","24,7","1,126","1,1","282,2","21,2","82,2"],
    [53077,"44029,20833","32,5","1,074","0,7","249,1","20,7","83,6"],
    [53078,"44029,25","41,1","1,231","0,5","212,4","20","89,7"],
    [53079,"44029,29167","70,8","1,283","1,1","273,1","19,9","87,4"],
    [53080,"44029,33333","49,1","1,414","0,7","171,5","22,5","76,4"],
    [53081,"44029,375","66,6","5,053","1,2","142,2","24,2","72,4"],
    [53082,"44029,41667","124,9","4,503","0,9","86,8","26,2","62,2"],
    [53083,"44029,45833","75","4,792","0,9","126,2","27,4","56,5"],
    [53084,"44029,5","62,6","3,849","0,8","90,4","29","50,8"],
    [53085,"44029,54167","65,2","2,933","1","145,6","30,3","44,9"],
    [53086,"44029,58333","41","1,519","1,2","146,7","32,1","35,7"],
    [53087,"44029,625","10","1,519","1,6","129","33,2","31,5"],
    [53088,"44029,66667","13,2","1,728","1,8","173","33,4","30,9"],
    [53089,"44029,70833","24,1","1,1","2,5","235,9","32,2","40,3"],
    [53090,"44029,75","50,1","1,126","4,3","342,5","28,8","53,3"],
    [53091,"44029,79167","31,1","1,231","4,7","330,2","27,3","58,6"],
    [53092,"44029,83333","24,7","1,414","4,4","333,5","26,9","59,3"],
    [53093,"44029,875","18,3","1,388","3","307,9","26,6","59,4"],
    [53094,"44029,91667","22","1,519","0,9","214,3","25,7","58,1"],
    [53095,"44029,95833","18,2","1,519","0,9","250,1","24,1","61,5"],
    [53096,"44030","28,8","1,309","1","276,1","22,8","66,7"],
    [53097,"44030,04167","24,2","1,074","1","265,1","21,9","70,4"],
    [53098,"44030,08333","31","1,178","1","276","21,3","72,2"],
    [53099,"44030,125","17,3","1,204","1","268,9","20,8","73,4"],
    [53100,"44030,16667","17,1","1,152","1,1","266,9","20,4","74,8"],
    [53101,"44030,20833","20","0,89","1,2","277,7","19,8","78,3"],
    [53102,"44030,25","22,2","0,995","1","281,1","19,5","80,2"],
    [53103,"44030,29167","25,3","1,178","1","263,6","19,7","79,5"],
    [53104,"44030,33333","42,6","1,414","0,6","191,3","21,8","72,2"],
    [53105,"44030,375","58","2,304","0,9","87,5","24,6","63,1"],
    [53106,"44030,41667","64,7","3,744","1,1","133,7","25,4","58,6"],
    [53107,"44030,45833","50,7","4,818","1","210,8","26,5","56"],
    [53108,"44030,5","52,6","5,289","0,8","162,3","28","52"],
    [53109,"44030,54167","58,9","5,708","1","128,7","30","47,4"],
    [53110,"44030,58333","56,9","4,32","0,9","161,2","31","43,8"],
    [53111,"44030,625","47,2","2,697","2,2","331,2","31,1","45,4"],
    [53112,"44030,66667","49,8","2,173","2,4","323,5","31,3","44,6"],
    [53113,"44030,70833","41,4","2,304","1,9","302,6","31","46,5"],
    [53114,"44030,75","46","1,257","3,5","341,4","28,5","55,1"],
    [53115,"44030,79167","25,2","1,126","4,2","331,1","27","59,5"],
    [53116,"44030,83333","27,4","1,492","2,7","289,1","26,6","59"],
    [53117,"44030,875","30,6","1,519","1,8","274,1","26,3","57,6"],
    [53118,"44030,91667","26,8","1,492","1,2","238,8","25,4","57,9"],
    [53119,"44030,95833","34,4","1,597","1,1","269,3","23,7","63,7"],
    [53120,"44031","28,4","1,492","0,8","226,1","23,2","67"],
    [53121,"44031,04167","36,7","1,545","1,2","246,3","22,9","71,2"],
    [53122,"44031,08333","30,2","1,257","0,8","279,3","22,4","74,7"],
    [53123,"44031,125","29,9","1,047","0,4","216","21,6","79,4"],
    [53124,"44031,16667","27,3","0,864","0,9","231,4","21,1","81,1"],
    [53125,"44031,20833","23,5","1,021","0,9","261,6","20,9","81,9"],
    [53126,"44031,25","36,5","0,864","1,1","269,8","20,4","82,8"],
    [53127,"44031,29167","24,6","1,021","0,9","272,2","20,5","82,4"],
    [53128,"44031,33333","33","1,178","0,8","262,3","21,7","77,9"],
    [53129,"44031,375","41,7","1,859","0,8","107,5","24,4","68"],
    [53130,"44031,41667","32,6","2,775","0,9","163","25,4","63,7"],
    [53131,"44031,45833","37,2","3,299","0,9","94,3","26,1","60,8"],
    [53132,"44031,5","42,7","3,849","1,1","104,1","27,4","57,1"],
    [53133,"44031,54167","44,9","3,77","0,8","163,3","29,4","50,3"],
    [53134,"44031,58333","38,5","3,378","1,2","135,1","30,6","46,1"],
    [53135,"44031,625","47","3,221","1,4","87","31,5","43,7"],
    [53136,"44031,66667","52","2,121","2,4","172,6","31,1","45,8"],
    [53137,"44031,70833","46,2","1,309","4","338,9","29,9","50,7"],
    [53138,"44031,75","15,7","1,047","4,4","330,4","28,5","54,2"],
    [53139,"44031,79167","21,7","1,257","5,2","327,7","27","58,8"],
    [53140,"44031,83333","20,3","1,204","4,9","319,4","26,5","60,6"],
    [53141,"44031,875","14,8","1,047","3,1","318,2","26,6","60"],
    [53142,"44031,91667","14,9","1,047","3,9","317,3","26,3","61,7"],
    [53143,"44031,95833","6,7","0,995","1,9","282,2","26,1","62,3"],
    [53144,"44032","16,6","1,178","0,8","137,3","24,7","71,6"],
    [53145,"44032,04167","45,7","1,283","0,7","172","24,1","75,3"],
    [53146,"44032,08333","44,5","1,152","0,9","271,5","23","79,4"],
    [53147,"44032,125","29,2","1,021","0,9","266,9","22,2","82,1"],
    [53148,"44032,16667","22,1","0,916","1,1","276,3","21,6","83,9"],
    [53149,"44032,20833","22,8","0,916","1,1","272,6","21,4","84,5"],
    [53150,"44032,25","26,5","1,126","0,5","186,9","21,3","84"],
    [53151,"44032,29167","26,1","1,074","0,8","246","21","85,3"],
    [53152,"44032,33333","39","1,283","0,7","239,3","22,6","79,5"],
    [53153,"44032,375","44,9","2,068","0,6","92,5","25,2","69,4"],
    [53154,"44032,41667","42,4","2,985","1,1","75,9","26,1","66,6"],
    [53155,"44032,45833","33,8","3,43","0,9","147,1","27,6","60,1"],
    [53156,"44032,5","27,6","3,404","0,9","175,9","29,2","53,3"],
    [53157,"44032,54167","30","3,849","1,5","147,1","30","51,8"],
    [53158,"44032,58333","54,7","2,252","1,4","140,2","30,4","50,3"],
    [53159,"44032,625","40,3","1,362","3,3","330,9","28,7","53,5"],
    [53160,"44032,66667","14,7","0,864","4","334,5","27,8","56,7"],
    [53161,"44032,70833","20,9","0,812","4,2","336","27,1","58"],
    [53162,"44032,75","11,3","0,707","3,8","334,1","26,9","58,6"],
    [53163,"44032,79167","14,6","0,707","3,9","337,4","26","61,5"],
    [53164,"44032,83333","15","1,074","4","329,9","25,6","62,5"],
    [53165,"44032,875","8,1","1,309","1,2","270","25,4","63,7"],
    [53166,"44032,91667","23,9","1,178","0,6","193,9","24,8","67,4"],
    [53167,"44032,95833","27,4","1,231","0,7","120,4","24,4","73"],
    [53168,"44033","50,9","1,126","0,6","157,7","23,7","77"],
    [53169,"44033,04167","41,3","1,047","0,8","207,2","23,2","77,8"],
    [53170,"44033,08333","28,4","1,047","0,7","128,8","22,9","80,5"],
    [53171,"44033,125","42,7","1,074","0,5","107","22,6","81,9"],
    [53172,"44033,16667","38,2","1,126","0,6","221,7","22,2","83,3"],
    [53173,"44033,20833","35","1,545","0,6","279,5","22,2","83,6"],
    [53174,"44033,25","46,3","1,231","0,8","272,4","21,8","86"],
    [53175,"44033,29167","46,1","1,728","0,7","273,5","21,8","85,5"],
    [53176,"44033,33333","57,1","1,571","0,5","231,1","22,4","82,2"],
    [53177,"44033,375","59,7","2,566","0,4","187","24,4","73"],
    [53178,"44033,41667","49,4","4,713","1,1","199,2","25,9","66,4"],
    [53179,"44033,45833","49,4","5,001","1,1","99,4","27,4","59,9"],
    [53180,"44033,5","41,6","1,676","2,9","298,1","27","59,3"],
    [53181,"44033,54167","3,6","1,492","2,8","288,5","28,7","51,6"],
    [53182,"44033,58333","0,6","1,44","2,2","300,5","29,8","46,1"],
    [53183,"44033,625","10,9","1,309","4","342,3","29,2","49,8"],
    [53184,"44033,66667","14,5","1,204","5,5","326,7","27,6","54,9"],
    [53185,"44033,70833","13,9","1,021","5,5","323,2","27,7","53,8"],
    [53186,"44033,75","14,4","1,178","5,2","329,3","26,8","57,5"],
    [53187,"44033,79167","20,1","1,126","6,1","340,5","25,5","63,2"],
    [53188,"44033,83333","12,9","1,074","5,4","329,9","25,3","63,7"],
    [53189,"44033,875","8,4","1,362","2,7","280,2","25,6","62,5"],
    [53190,"44033,91667","23,9","1,65","0,7","87,9","25,2","65,5"],
    [53191,"44033,95833","26,5","1,466","0,8","201,7","24,1","75"],
    [53192,"44034","39,4","1,362","1,3","217","23","79,1"],
    [53193,"44034,04167","20,5","1,44","1,1","172,3","22,7","79,9"],
    [53194,"44034,08333","26,2","1,519","0,9","212,8","22,1","82,8"],
    [53195,"44034,125","23,6","1,257","0,8","237,5","21,7","85,1"],
    [53196,"44034,16667","20,7","1,257","0,6","225,5","21,8","84"],
    [53197,"44034,20833","26,4","1,754","0,8","147,4","21,8","86,4"],
    [53198,"44034,25","38,9","1,466","0,6","239,4","21,3","89,2"],
    [53199,"44034,29167","45,4","1,362","0,7","279,6","21,4","88,8"],
    [53200,"44034,33333","42,1","1,388","0,4","193,7","22,3","84,2"],
    [53201,"44034,375","48,8","2,199","0,9","166,4","23,3","79,4"],
    [53202,"44034,41667","38,6","2,514","0,9","189,5","24,7","72,1"],
    [53203,"44034,45833","30","3,063","0,9","114,7","26,5","63,9"],
    [53204,"44034,5","29,8","2,802","1","206,6","27,4","60,1"],
    [53205,"44034,54167","32,8","2,095","1,2","142,9","28,4","55,7"],
    [53206,"44034,58333","26,6","1,833","2,5","169,3","29","50,5"],
    [53207,"44034,625","5,7","1,335","4,8","337,7","25,9","62,1"],
    [53208,"44034,66667","15,6","1,414","4,7","340,8","25,3","63,8"],
    [53209,"44034,70833","8","1,388","4","337,5","25","64,2"],
    [53210,"44034,75","7,9","1,466","2,6","277,5","25,1","67,1"],
    [53211,"44034,79167","28,4","1,754","1,4","186,8","23,8","74,5"],
    [53212,"44034,83333","29","1,676","1","242,2","23,8","72,5"],
    [53213,"44034,875","15,1","1,519","1,4","258,8","23,7","69,7"],
    [53214,"44034,91667","12,9","1,309","0,5","243,9","23,4","70,4"],
    [53215,"44034,95833","16,9","1,362","0,7","146,2","23,3","69,9"],
    [53216,"44035","8,8","1,204","0,7","219,5","22,9","72,5"],
    [53217,"44035,04167","15,8","1,204","0,7","263,6","22,3","80"],
    [53218,"44035,08333","21,9","1,178","0,8","195,1","22","85,5"],
    [53219,"44035,125","34,5","1,152","0,7","175,7","21,8","86,5"],
    [53220,"44035,16667","33,3","1,204","0,8","159,4","21,4","89,6"],
    [53221,"44035,20833","29,4","1,362","0,7","151,3","20,6","94,2"],
    [53222,"44035,25","28,8","1,231","0,6","57,6","20,7","94,4"],
    [53223,"44035,29167","24,2","1,623","1","80,1","20,3","91,3"],
    [53224,"44035,33333","30,2","2,068","0,8","161,2","20,7","88,5"],
    [53225,"44035,375","45,8","2,016","0,8","227,5","20,6","92,2"],
    [53226,"44035,41667","39,3","1,65","0,2","89,1","21,7","88,6"],
    [53227,"44035,45833","28,4","1,676","0,8","198,3","24,2","73,1"],
    [53228,"44035,5","24,4","2,042","0,8","87,3","26","64"],
    [53229,"44035,54167","24,2","2,121","0,8","134,2","27,4","58"],
    [53230,"44035,58333","23,2","2,121","1,4","90,3","28,2","54,8"],
    [53231,"44035,625","23,1","ND","1,5","70,4","28,1","55,8"],
    [53232,"44035,66667","32,5","1,938","1,2","237","28,3","54,1"],
    [53233,"44035,70833","21,3","1,204","4,5","289,4","25,3","66"],
    [53234,"44035,75","20,1","1,257","4","327,4","24,8","67,1"],
    [53235,"44035,79167","10","1,178","4","325,6","24,5","66,8"],
    [53236,"44035,83333","9,9","1,1","3,6","334,3","24,1","67,1"],
    [53237,"44035,875","5,3","1,257","0,6","197,7","24,3","66"],
    [53238,"44035,91667","19,5","1,283","1,3","172,6","23,6","74,6"],
    [53239,"44035,95833","35,8","1,283","1,2","164,2","23","77,1"],
    [53240,"44036","11","1,021","0,7","116,4","22,8","77,2"],
    [53241,"44036,04167","7,6","0,995","1","94,3","22,1","77,4"],
    [53242,"44036,08333","7,3","1,021","0,9","73,5","20,5","87,8"],
    [53243,"44036,125","8,4","0,916","0,8","94,2","20,7","88,4"],
    [53244,"44036,16667","8,9","0,864","0,3","48,2","20,6","89,4"],
    [53245,"44036,20833","11","1,362","0,8","116,3","20,8","90"],
    [53246,"44036,25","22,4","1,519","0,7","73,9","20,7","91,6"],
    [53247,"44036,29167","28,9","1,885","0,7","119,8","20,7","91,9"],
    [53248,"44036,33333","31,8","1,519","0,7","93","20,8","92,2"],
    [53249,"44036,375","32,8","2,461","1,3","50,9","20,9","91,8"],
    [53250,"44036,41667","30,6","3,823","0,9","116,4","21,1","93,8"],
    [53251,"44036,45833","32,1","6,336","0,8","211,8","22,1","87,8"],
    [53252,"44036,5","19","4,922","1","139,2","24,3","73,8"],
    [53253,"44036,54167","20,5","3,456","0,9","199,8","25,5","68,7"],
    [53254,"44036,58333","25,7","2,671","0,9","178","26,3","65,6"],
    [53255,"44036,625","21,8","2,252","0,9","137,1","26,6","64,4"],
    [53256,"44036,66667","32,4","2,199","1","91,7","25,9","67"],
    [53257,"44036,70833","37,9","2,199","2,2","241,6","25,6","65,7"],
    [53258,"44036,75","17,7","2,304","1","273,5","25,2","68,9"],
    [53259,"44036,79167","14,6","1,964","2,1","285,8","24,8","64,2"],
    [53260,"44036,83333","16,6","1,964","1,5","279,1","24,2","68,2"],
    [53261,"44036,875","17,2","1,885","1,2","249","23,4","74,3"],
    [53262,"44036,91667","34,4","1,859","1","256,4","22,7","80,2"],
    [53263,"44036,95833","32,6","1,702","0,6","271,8","23","80,7"],
    [53264,"44037","36,1","1,833","0,4","146,2","22,7","81,8"],
    [53265,"44037,04167","29,4","1,571","0,6","192,8","22,4","84,9"],
    [53266,"44037,08333","34,5","1,676","0,4","155,9","22,4","85,2"],
    [53267,"44037,125","30,2","1,362","0,7","151,8","22,1","84,8"],
    [53268,"44037,16667","21,5","1,597","0,8","178,4","21,5","87,7"],
    [53269,"44037,20833","24,7","1,414","0,5","67,7","21,2","92,1"],
    [53270,"44037,25","23,2","1,728","0,9","133,6","21","93,8"],
    [53271,"44037,29167","20,3","1,466","0,7","193,4","20,2","96,8"],
    [53272,"44037,33333","16,1","1,676","0,7","69,6","20,1","98,5"],
    [53273,"44037,375","18,1","1,466","0,8","175","20,7","96,9"],
    [53274,"44037,41667","14,2","1,597","0,7","174,6","21,3","92,7"],
    [53275,"44037,45833","16,2","1,519","0,5","211","23,5","81,3"],
    [53276,"44037,5","26,7","4,844","0,7","191,2","25,7","68,3"],
    [53277,"44037,54167","26,4","4,425","0,7","166,7","27,1","60,3"],
    [53278,"44037,58333","32,8","3,194","1,2","59,5","28,1","56,7"],
    [53279,"44037,625","38,1","2,435","2,2","62,9","27,2","62,9"],
    [53280,"44037,66667","30,5","3,456","2,4","50,7","25,9","71,3"],
    [53281,"44037,70833","30,4","5,629","1,6","49,2","25,9","71,1"],
    [53282,"44037,75","29,2","5,786","0,7","167,8","26,2","66,4"],
    [53283,"44037,79167","29,5","3,639","1,3","235,1","24,7","71,6"],
    [53284,"44037,83333","26,8","2,514","1","271,6","23,6","77,2"],
    [53285,"44037,875","34,7","2,409","0,8","289,5","22,9","80,1"],
    [53286,"44037,91667","35,7","1,754","1,1","269,9","22,4","80,4"],
    [53287,"44037,95833","28,6","1,597","0,8","211,3","22,3","79,5"],
    [53288,"44038","30,1","1,466","0,4","94,1","22,2","85,2"],
    [53289,"44038,04167","34,3","1,414","0,3","172,6","21,4","88,8"],
    [53290,"44038,08333","27","1,571","0,5","259,4","21,1","90,3"],
    [53291,"44038,125","46,6","1,231","0,5","186,6","21,2","89,5"],
    [53292,"44038,16667","26,4","1,178","0,5","193,4","20,8","91,2"],
    [53293,"44038,20833","26,5","1,178","0,6","188,5","20,6","92,2"],
    [53294,"44038,25","26,1","1,283","0,5","175,6","20,8","91,5"],
    [53295,"44038,29167","30,3","1,44","0,6","154,5","20,8","90,9"],
    [53296,"44038,33333","46,9","1,728","0,6","133,1","20,8","90,5"],
    [53297,"44038,375","60","1,911","0,6","86,5","22,8","81,5"],
    [53298,"44038,41667","47,5","4,294","0,9","124,9","24,4","73"],
    [53299,"44038,45833","39,3","5,106","0,8","150,2","25","70,6"],
    [53300,"44038,5","39","4,32","0,8","148,3","27","61,6"],
    [53301,"44038,54167","25,9","4,242","1,1","172,6","28,1","55,5"],
    [53302,"44038,58333","24,6","3,037","1","207,6","29,2","51"],
    [53303,"44038,625","25,5","2,383","0,9","114,7","29,7","48,8"],
    [53304,"44038,66667","23,1","1,78","2,9","183,2","29,4","51,1"],
    [53305,"44038,70833","22,9","1,466","3,6","342,9","28,6","54,1"],
    [53306,"44038,75","9,1","1,309","3,3","337,1","28","55,4"],
    [53307,"44038,79167","18,8","1,466","3,2","328,1","26,5","59,6"],
    [53308,"44038,83333","15,9","1,938","0,7","230,3","26,3","60,9"],
    [53309,"44038,875","28","1,676","1,8","287,3","25,8","61,3"],
    [53310,"44038,91667","12,7","1,257","2,7","305,4","25,6","60,6"],
    [53311,"44038,95833","22","1,676","1","186","25,2","65,1"],
    [53312,"44039","21","1,545","0,5","168","24,5","69,3"],
    [53313,"44039,04167","39,1","1,597","0,5","121","23,8","77,9"],
    [53314,"44039,08333","42,5","1,362","0,7","130,4","23","80,6"],
    [53315,"44039,125","36","1,204","1","158,2","22,4","85,6"],
    [53316,"44039,16667","38,5","1,1","0,5","133,1","21,3","94,5"],
    [53317,"44039,20833","32,7","1,231","0,8","265","21,2","96"],
    [53318,"44039,25","24,6","1,623","0,8","259,5","21,2","95,5"],
    [53319,"44039,29167","30,6","1,676","1,1","264,2","21,1","94,7"],
    [53320,"44039,33333","35,9","1,597","0,4","164,6","21,9","90,6"],
    [53321,"44039,375","54,2","1,964","0,6","103,6","22,7","86,9"],
    [53322,"44039,41667","64,4","2,278","1","153,6","23,2","86,3"],
    [53323,"44039,45833","45,8","3,221","1,1","81,1","25,6","70,6"],
    [53324,"44039,5","28,5","4,137","1,1","88,4","26,7","65,2"],
    [53325,"44039,54167","39,2","3,98","0,9","134,7","28","59,7"],
    [53326,"44039,58333","38,2","3,273","1,4","103,9","28,1","59,7"],
    [53327,"44039,625","43,4","2,644","1,2","165,8","28","60"],
    [53328,"44039,66667","26,1","2,749","1,3","311,9","28,8","55,8"],
    [53329,"44039,70833","27","2,723","1,3","225,8","28,5","55,6"],
    [53330,"44039,75","25,1","2,226","0,8","177","27,9","57"],
    [53331,"44039,79167","21,5","1,964","1,2","281,8","26,2","62,5"],
    [53332,"44039,83333","31,9","2,068","1,3","274,8","25,3","67,2"],
    [53333,"44039,875","24,8","1,728","1","235,6","25,1","67,3"],
    [53334,"44039,91667","22","1,754","1,7","253,9","24,9","67,4"],
    [53335,"44039,95833","18,2","1,728","0,5","159,6","23,8","74,2"],
    [53336,"44040","36,6","1,335","0,8","261,9","22,6","79,6"],
    [53337,"44040,04167","26,9","1,414","0,5","115","22,2","82,8"],
    [53338,"44040,08333","33,8","1,335","0,7","199,9","22,3","83,4"],
    [53339,"44040,125","28,5","1,204","0,7","241","22,2","83,8"],
    [53340,"44040,16667","27,6","1,231","0,6","235","22,1","84,1"],
    [53341,"44040,20833","30","1,335","0,8","128,6","22,1","85"],
    [53342,"44040,25","38","1,623","0,6","80","22","87,8"],
    [53343,"44040,29167","53,9","1,859","0,6","129,1","22","87,1"],
    [53344,"44040,33333","59,5","1,676","0,5","217,3","22,6","85,5"],
    [53345,"44040,375","64,3","2,016","0,5","171,4","23,6","80,9"],
    [53346,"44040,41667","52,2","5,263","1","127,9","24,7","72,8"],
    [53347,"44040,45833","48,1","5,839","0,8","129,8","26,3","66,5"],
    [53348,"44040,5","56,4","6,86","1,1","123,3","27,7","60,1"],
    [53349,"44040,54167","52,3","5,394","0,9","116,6","28,6","56,6"],
    [53350,"44040,58333","49","4,111","0,9","127,9","29","55"],
    [53351,"44040,625","52,9","3,482","0,9","128,7","29,7","52,4"],
    [53352,"44040,66667","54,6","2,121","3,6","306,1","29,5","53"],
    [53353,"44040,70833","19,3","1,833","3,9","340,3","28,5","55,2"],
    [53354,"44040,75","19,3","1,702","4,1","333,5","27,8","56,9"],
    [53355,"44040,79167","20","1,388","4,4","329,8","26,7","61,1"],
    [53356,"44040,83333","17,3","1,335","4,7","327,3","26,2","62,5"],
    [53357,"44040,875","7,9","2,095","1,5","233,8","26,4","60,9"],
    [53358,"44040,91667","27,8","2,278","0,5","239,1","25,7","65,8"],
    [53359,"44040,95833","47,8","1,833","1","254,7","25,1","70,8"],
    [53360,"44041","34,3","1,728","0,4","202,1","24,4","73,3"],
    [53361,"44041,04167","27,2","1,519","0,5","96,5","24","76,4"],
    [53362,"44041,08333","35,8","1,545","0,4","152,4","23,2","80,3"],
    [53363,"44041,125","30,1","1,44","0,5","121,8","23,2","79,9"],
    [53364,"44041,16667","30,6","1,257","0,5","139,3","22,9","81,2"],
    [53365,"44041,20833","34,8","1,623","0,9","148,1","22,5","85,3"],
    [53366,"44041,25","38,4","1,78","0,8","112,4","22,2","87"],
    [53367,"44041,29167","44,8","1,78","0,4","108,1","22,1","87,1"],
    [53368,"44041,33333","55,5","1,964","0,4","167,1","22,6","85,6"],
    [53369,"44041,375","60","2,749","1,2","166,5","24","78,2"],
    [53370,"44041,41667","37,1","3,535","1","120,6","25,5","71"],
    [53371,"44041,45833","28,4","4,425","1,4","122","27,2","63,7"],
    [53372,"44041,5","32,2","3,509","1","135,9","27,6","61,9"],
    [53373,"44041,54167","29,4","2,906","1,2","199,7","28,3","60"],
    [53374,"44041,58333","31,3","2,199","0,7","94,5","29","56,6"],
    [53375,"44041,625","34,7","2,121","2,7","167,9","29,1","54,2"],
    [53376,"44041,66667","14,9","1,492","3,9","345,5","29,2","52,4"],
    [53377,"44041,70833","9,3","1,492","3,5","336,6","29,1","52,8"],
    [53378,"44041,75","19,8","1,414","3,6","340,7","27,7","57,6"],
    [53379,"44041,79167","13,4","2,33","1,6","255,1","26,9","63"],
    [53380,"44041,83333","31,7","1,519","2,8","329","26,4","61,6"],
    [53381,"44041,875","7","1,492","2,7","328,9","26,1","62,4"],
    [53382,"44041,91667","9","1,754","0,9","184,2","25,7","66,5"],
    [53383,"44041,95833","43,5","1,623","0,9","252,2","24,4","76,7"],
    [53384,"44042","43,9","1,597","0,9","191,1","23,5","78,5"],
    [53385,"44042,04167","43,5","1,492","1,3","264,2","22,8","80,5"],
    [53386,"44042,08333","27,3","1,466","0,5","228,6","22,7","81,5"],
    [53387,"44042,125","30","1,152","1","257,7","22","83,7"],
    [53388,"44042,16667","24,3","1,44","0,7","283,2","21,9","84"],
    [53389,"44042,20833","25,4","1,938","0,9","273,7","21,4","85,9"],
    [53390,"44042,25","30,2","1,414","0,6","240,8","20,9","86,6"],
    [53391,"44042,29167","37,6","1,283","1,1","269","20,7","86,8"],
    [53392,"44042,33333","39,6","1,335","0,4","241,3","22,1","81,4"],
    [53393,"44042,375","57,5","5,184","1","83,8","23,9","76,2"],
    [53394,"44042,41667","104,6","11,442","0,4","65,3","25,2","70,1"],
    [53395,"44042,45833","86,8","16,312","0,8","128,3","27","61,8"],
    [53396,"44042,5","60,5","8,902","1","96,4","28,9","54,6"],
    [53397,"44042,54167","60,4","7,069","1,3","66,1","30,1","51,8"],
    [53398,"44042,58333","55,9","4,792","1,4","112,8","30,8","50,2"],
    [53399,"44042,625","46,3","2,54","1,8","285","30,9","48,6"],
    [53400,"44042,66667","19,7","1,859","3,4","250,6","29,8","50,8"],
    [53401,"44042,70833","19,5","1,702","3,7","333,6","28,1","57,3"],
    [53402,"44042,75","25,4","1,44","4,1","330,9","27,2","60,2"],
    [53403,"44042,79167","30,7","1,466","3,5","340","26,9","61,2"],
    [53404,"44042,83333","16","1,492","3,3","330,6","26,8","61,8"],
    [53405,"44042,875","15,9","2,435","1,4","261,3","26,3","65,1"],
    [53406,"44042,91667","43,6","2,409","1,5","178","25,2","73"],
    [53407,"44042,95833","50","2,068","0,6","238,6","23,9","79,2"],
    [53408,"44043","41,3","1,754","1,2","271,8","23","80,9"],
    [53409,"44043,04167","32,3","1,702","1","266,7","23,2","78,3"],
    [53410,"44043,08333","24,3","1,466","0,9","271,6","22,9","79,6"],
    [53411,"44043,125","25,3","1,466","1","271,4","22,3","82,6"],
    [53412,"44043,16667","18,1","1,335","1","274,1","21,4","84,3"],
    [53413,"44043,20833","21,2","1,466","1","280,5","20,9","86,1"],
    [53414,"44043,25","25,4","1,388","1,4","273,8","20,5","87,1"],
    [53415,"44043,29167","32,9","1,623","1,2","276,4","20,5","87,7"],
    [53416,"44043,33333","39","1,728","0,6","162","23,1","78,7"],
    [53417,"44043,375","54,5","3,142","0,9","125,9","25","72,8"],
    [53418,"44043,41667","55,7","4,608","1,2","105,9","26,1","67"],
    [53419,"44043,45833","41,9","5,315","0,7","126,3","27,3","61,2"],
    [53420,"44043,5","36,5","4,556","1,4","151,9","29,4","48,9"],
    [53421,"44043,54167","8,8","2,723","1,7","152,1","31,5","38,5"],
    [53422,"44043,58333","8,4","2,068","2","173,8","32,5","33"],
    [53423,"44043,625","14","2,147","2,3","156,9","33,5","30,5"],
    [53424,"44043,66667","18,2","1,807","2,1","167,6","34","30"],
    [53425,"44043,70833","24,3","2,278","2,4","169,4","33,7","31,3"],
    [53426,"44043,75","51,9","2,566","1,7","186,7","32,7","31,2"],
    [53427,"44043,79167","30","2,121","0,9","259,8","29,6","44,7"],
    [53428,"44043,83333","73","2,461","0,6","218,5","27,7","54,1"],
    [53429,"44043,875","45,6","1,833","1,4","249","27","54,1"],
    [53430,"44043,91667","14,1","2,016","0,9","267,7","25,4","54,2"],
    [53431,"44043,95833","34,3","1,833","1,1","255,9","24","56,2"],
    [53432,"44044","24","1,519","1,1","271","23,3","55,8"]
]}
